<?xml version="1.0" encoding="UTF-8" standalone="no" ?>
<gpx xmlns="http://www.topografix.com/GPX/1/1" xmlns:xsi="http://www.w3.org/2001/XMLSchema-instance" xsi:schemaLocation="http://www.topografix.com/GPX/1/1 http://www.topografix.com/GPX/1/1/gpx.xsd" version="1.1" creator="VisuGPX - https://www.visugpx.com">
  <metadata>
    <name>voyage total </name>
  </metadata>
  <trk>
    <name><![CDATA[T21]]></name>
    <trkseg>
      <trkpt lat="49.98255" lon="4.32987">
        <ele>318</ele>
        <time>2020-06-25T05:21:55Z</time>
      </trkpt>
      <trkpt lat="49.9826" lon="4.32995">
        <ele>318.1</ele>
        <time>2020-06-25T05:21:56Z</time>
      </trkpt>
      <trkpt lat="49.98249" lon="4.33">
        <ele>318.2</ele>
        <time>2020-06-25T05:21:57Z</time>
      </trkpt>
      <trkpt lat="49.98252" lon="4.32994">
        <ele>318.2</ele>
        <time>2020-06-25T05:21:58Z</time>
      </trkpt>
      <trkpt lat="49.98252" lon="4.32992">
        <ele>318.2</ele>
        <time>2020-06-25T05:21:59Z</time>
      </trkpt>
      <trkpt lat="49.98253" lon="4.3299">
        <ele>318.2</ele>
        <time>2020-06-25T05:22:00Z</time>
      </trkpt>
      <trkpt lat="49.98253" lon="4.32988">
        <ele>318.2</ele>
        <time>2020-06-25T05:22:01Z</time>
      </trkpt>
      <trkpt lat="49.98253" lon="4.32988">
        <ele>318.3</ele>
        <time>2020-06-25T05:22:02Z</time>
      </trkpt>
      <trkpt lat="49.98253" lon="4.32988">
        <ele>318.3</ele>
        <time>2020-06-25T05:22:03Z</time>
      </trkpt>
      <trkpt lat="49.98253" lon="4.32989">
        <ele>318.3</ele>
        <time>2020-06-25T05:22:04Z</time>
      </trkpt>
      <trkpt lat="49.98252" lon="4.3299">
        <ele>318.3</ele>
        <time>2020-06-25T05:22:05Z</time>
      </trkpt>
      <trkpt lat="49.98256" lon="4.32981">
        <ele>318.3</ele>
        <time>2020-06-25T05:22:12Z</time>
      </trkpt>
      <trkpt lat="49.98259" lon="4.3298">
        <ele>318.3</ele>
        <time>2020-06-25T05:22:14Z</time>
      </trkpt>
      <trkpt lat="49.98262" lon="4.3298">
        <ele>318.3</ele>
        <time>2020-06-25T05:22:15Z</time>
      </trkpt>
      <trkpt lat="49.98265" lon="4.32982">
        <ele>318.3</ele>
        <time>2020-06-25T05:22:16Z</time>
      </trkpt>
      <trkpt lat="49.98267" lon="4.32986">
        <ele>318.3</ele>
        <time>2020-06-25T05:22:17Z</time>
      </trkpt>
      <trkpt lat="49.98269" lon="4.32991">
        <ele>318.3</ele>
        <time>2020-06-25T05:22:18Z</time>
      </trkpt>
      <trkpt lat="49.98269" lon="4.32997">
        <ele>318.3</ele>
        <time>2020-06-25T05:22:19Z</time>
      </trkpt>
      <trkpt lat="49.9827" lon="4.33003">
        <ele>318.4</ele>
        <time>2020-06-25T05:22:20Z</time>
      </trkpt>
      <trkpt lat="49.9827" lon="4.33007">
        <ele>318.4</ele>
        <time>2020-06-25T05:22:21Z</time>
      </trkpt>
      <trkpt lat="49.9827" lon="4.33012">
        <ele>318.4</ele>
        <time>2020-06-25T05:22:22Z</time>
      </trkpt>
      <trkpt lat="49.9827" lon="4.33017">
        <ele>318.4</ele>
        <time>2020-06-25T05:22:23Z</time>
      </trkpt>
      <trkpt lat="49.98271" lon="4.33023">
        <ele>318.5</ele>
        <time>2020-06-25T05:22:24Z</time>
      </trkpt>
      <trkpt lat="49.98271" lon="4.3303">
        <ele>318.5</ele>
        <time>2020-06-25T05:22:25Z</time>
      </trkpt>
      <trkpt lat="49.98272" lon="4.33037">
        <ele>318.5</ele>
        <time>2020-06-25T05:22:26Z</time>
      </trkpt>
      <trkpt lat="49.98273" lon="4.33044">
        <ele>318.6</ele>
        <time>2020-06-25T05:22:27Z</time>
      </trkpt>
      <trkpt lat="49.98273" lon="4.33049">
        <ele>318.6</ele>
        <time>2020-06-25T05:22:28Z</time>
      </trkpt>
      <trkpt lat="49.98274" lon="4.33055">
        <ele>318.6</ele>
        <time>2020-06-25T05:22:29Z</time>
      </trkpt>
      <trkpt lat="49.98275" lon="4.33061">
        <ele>318.7</ele>
        <time>2020-06-25T05:22:30Z</time>
      </trkpt>
      <trkpt lat="49.98276" lon="4.33066">
        <ele>318.7</ele>
        <time>2020-06-25T05:22:31Z</time>
      </trkpt>
      <trkpt lat="49.98277" lon="4.33071">
        <ele>318.7</ele>
        <time>2020-06-25T05:22:32Z</time>
      </trkpt>
      <trkpt lat="49.98277" lon="4.33075">
        <ele>318.7</ele>
        <time>2020-06-25T05:22:33Z</time>
      </trkpt>
      <trkpt lat="49.98278" lon="4.3308">
        <ele>318.8</ele>
        <time>2020-06-25T05:22:34Z</time>
      </trkpt>
      <trkpt lat="49.98279" lon="4.33084">
        <ele>318.8</ele>
        <time>2020-06-25T05:22:35Z</time>
      </trkpt>
      <trkpt lat="49.98279" lon="4.33088">
        <ele>318.8</ele>
        <time>2020-06-25T05:22:36Z</time>
      </trkpt>
      <trkpt lat="49.9828" lon="4.33094">
        <ele>318.8</ele>
        <time>2020-06-25T05:22:37Z</time>
      </trkpt>
      <trkpt lat="49.9828" lon="4.33096">
        <ele>318.9</ele>
        <time>2020-06-25T05:22:38Z</time>
      </trkpt>
      <trkpt lat="49.9828" lon="4.33102">
        <ele>318.9</ele>
        <time>2020-06-25T05:22:39Z</time>
      </trkpt>
      <trkpt lat="49.9828" lon="4.33104">
        <ele>318.9</ele>
        <time>2020-06-25T05:22:40Z</time>
      </trkpt>
      <trkpt lat="49.98281" lon="4.33108">
        <ele>318.9</ele>
        <time>2020-06-25T05:22:41Z</time>
      </trkpt>
      <trkpt lat="49.98281" lon="4.33113">
        <ele>319</ele>
        <time>2020-06-25T05:22:42Z</time>
      </trkpt>
      <trkpt lat="49.98281" lon="4.33118">
        <ele>319</ele>
        <time>2020-06-25T05:22:43Z</time>
      </trkpt>
      <trkpt lat="49.98282" lon="4.33123">
        <ele>319</ele>
        <time>2020-06-25T05:22:44Z</time>
      </trkpt>
      <trkpt lat="49.98282" lon="4.33128">
        <ele>319.1</ele>
        <time>2020-06-25T05:22:45Z</time>
      </trkpt>
      <trkpt lat="49.98282" lon="4.33133">
        <ele>319.1</ele>
        <time>2020-06-25T05:22:46Z</time>
      </trkpt>
      <trkpt lat="49.98283" lon="4.33138">
        <ele>319.1</ele>
        <time>2020-06-25T05:22:47Z</time>
      </trkpt>
      <trkpt lat="49.98283" lon="4.33143">
        <ele>319.1</ele>
        <time>2020-06-25T05:22:48Z</time>
      </trkpt>
      <trkpt lat="49.98283" lon="4.33147">
        <ele>319.2</ele>
        <time>2020-06-25T05:22:49Z</time>
      </trkpt>
      <trkpt lat="49.98284" lon="4.33152">
        <ele>319.2</ele>
        <time>2020-06-25T05:22:50Z</time>
      </trkpt>
      <trkpt lat="49.98284" lon="4.3316">
        <ele>319.2</ele>
        <time>2020-06-25T05:22:51Z</time>
      </trkpt>
      <trkpt lat="49.98285" lon="4.33164">
        <ele>319.3</ele>
        <time>2020-06-25T05:22:52Z</time>
      </trkpt>
      <trkpt lat="49.98286" lon="4.33169">
        <ele>319.3</ele>
        <time>2020-06-25T05:22:53Z</time>
      </trkpt>
      <trkpt lat="49.98287" lon="4.33174">
        <ele>319.3</ele>
        <time>2020-06-25T05:22:54Z</time>
      </trkpt>
      <trkpt lat="49.98287" lon="4.3318">
        <ele>319.3</ele>
        <time>2020-06-25T05:22:55Z</time>
      </trkpt>
      <trkpt lat="49.98288" lon="4.33185">
        <ele>319.4</ele>
        <time>2020-06-25T05:22:56Z</time>
      </trkpt>
      <trkpt lat="49.98288" lon="4.3319">
        <ele>319.4</ele>
        <time>2020-06-25T05:22:57Z</time>
      </trkpt>
      <trkpt lat="49.98288" lon="4.33194">
        <ele>319.4</ele>
        <time>2020-06-25T05:22:58Z</time>
      </trkpt>
      <trkpt lat="49.98288" lon="4.33199">
        <ele>319.5</ele>
        <time>2020-06-25T05:22:59Z</time>
      </trkpt>
      <trkpt lat="49.98288" lon="4.33205">
        <ele>319.5</ele>
        <time>2020-06-25T05:23:00Z</time>
      </trkpt>
      <trkpt lat="49.98288" lon="4.33207">
        <ele>319.5</ele>
        <time>2020-06-25T05:23:01Z</time>
      </trkpt>
      <trkpt lat="49.98289" lon="4.33211">
        <ele>319.5</ele>
        <time>2020-06-25T05:23:02Z</time>
      </trkpt>
      <trkpt lat="49.98289" lon="4.33217">
        <ele>319.6</ele>
        <time>2020-06-25T05:23:03Z</time>
      </trkpt>
      <trkpt lat="49.98289" lon="4.33222">
        <ele>319.6</ele>
        <time>2020-06-25T05:23:04Z</time>
      </trkpt>
      <trkpt lat="49.98289" lon="4.33227">
        <ele>319.6</ele>
        <time>2020-06-25T05:23:05Z</time>
      </trkpt>
      <trkpt lat="49.98289" lon="4.33232">
        <ele>319.6</ele>
        <time>2020-06-25T05:23:06Z</time>
      </trkpt>
      <trkpt lat="49.98289" lon="4.33237">
        <ele>319.7</ele>
        <time>2020-06-25T05:23:07Z</time>
      </trkpt>
      <trkpt lat="49.98289" lon="4.33242">
        <ele>319.7</ele>
        <time>2020-06-25T05:23:08Z</time>
      </trkpt>
      <trkpt lat="49.9829" lon="4.33247">
        <ele>319.7</ele>
        <time>2020-06-25T05:23:09Z</time>
      </trkpt>
      <trkpt lat="49.9829" lon="4.33252">
        <ele>319.7</ele>
        <time>2020-06-25T05:23:10Z</time>
      </trkpt>
      <trkpt lat="49.9829" lon="4.33258">
        <ele>319.8</ele>
        <time>2020-06-25T05:23:11Z</time>
      </trkpt>
      <trkpt lat="49.98291" lon="4.33263">
        <ele>319.8</ele>
        <time>2020-06-25T05:23:12Z</time>
      </trkpt>
      <trkpt lat="49.98291" lon="4.33268">
        <ele>319.8</ele>
        <time>2020-06-25T05:23:13Z</time>
      </trkpt>
      <trkpt lat="49.98291" lon="4.33274">
        <ele>319.8</ele>
        <time>2020-06-25T05:23:14Z</time>
      </trkpt>
      <trkpt lat="49.98292" lon="4.3328">
        <ele>319.8</ele>
        <time>2020-06-25T05:23:15Z</time>
      </trkpt>
      <trkpt lat="49.98292" lon="4.33285">
        <ele>319.8</ele>
        <time>2020-06-25T05:23:16Z</time>
      </trkpt>
      <trkpt lat="49.98292" lon="4.33291">
        <ele>319.8</ele>
        <time>2020-06-25T05:23:17Z</time>
      </trkpt>
      <trkpt lat="49.98293" lon="4.33296">
        <ele>319.8</ele>
        <time>2020-06-25T05:23:18Z</time>
      </trkpt>
      <trkpt lat="49.98294" lon="4.33303">
        <ele>319.8</ele>
        <time>2020-06-25T05:23:19Z</time>
      </trkpt>
      <trkpt lat="49.98294" lon="4.3331">
        <ele>319.8</ele>
        <time>2020-06-25T05:23:20Z</time>
      </trkpt>
      <trkpt lat="49.98294" lon="4.33317">
        <ele>319.8</ele>
        <time>2020-06-25T05:23:21Z</time>
      </trkpt>
      <trkpt lat="49.98294" lon="4.33324">
        <ele>319.8</ele>
        <time>2020-06-25T05:23:22Z</time>
      </trkpt>
      <trkpt lat="49.98295" lon="4.3333">
        <ele>319.7</ele>
        <time>2020-06-25T05:23:23Z</time>
      </trkpt>
      <trkpt lat="49.98295" lon="4.33336">
        <ele>319.7</ele>
        <time>2020-06-25T05:23:24Z</time>
      </trkpt>
      <trkpt lat="49.98295" lon="4.33342">
        <ele>319.7</ele>
        <time>2020-06-25T05:23:25Z</time>
      </trkpt>
      <trkpt lat="49.98296" lon="4.33348">
        <ele>319.7</ele>
        <time>2020-06-25T05:23:26Z</time>
      </trkpt>
      <trkpt lat="49.98296" lon="4.33354">
        <ele>319.7</ele>
        <time>2020-06-25T05:23:27Z</time>
      </trkpt>
      <trkpt lat="49.98296" lon="4.3336">
        <ele>319.7</ele>
        <time>2020-06-25T05:23:28Z</time>
      </trkpt>
      <trkpt lat="49.98297" lon="4.33366">
        <ele>319.7</ele>
        <time>2020-06-25T05:23:29Z</time>
      </trkpt>
      <trkpt lat="49.98297" lon="4.33373">
        <ele>319.7</ele>
        <time>2020-06-25T05:23:30Z</time>
      </trkpt>
      <trkpt lat="49.98298" lon="4.33379">
        <ele>319.7</ele>
        <time>2020-06-25T05:23:31Z</time>
      </trkpt>
      <trkpt lat="49.98299" lon="4.33387">
        <ele>319.7</ele>
        <time>2020-06-25T05:23:32Z</time>
      </trkpt>
      <trkpt lat="49.983" lon="4.33394">
        <ele>319.7</ele>
        <time>2020-06-25T05:23:33Z</time>
      </trkpt>
      <trkpt lat="49.983" lon="4.334">
        <ele>319.7</ele>
        <time>2020-06-25T05:23:34Z</time>
      </trkpt>
      <trkpt lat="49.983" lon="4.33407">
        <ele>319.7</ele>
        <time>2020-06-25T05:23:35Z</time>
      </trkpt>
      <trkpt lat="49.983" lon="4.33414">
        <ele>319.6</ele>
        <time>2020-06-25T05:23:36Z</time>
      </trkpt>
      <trkpt lat="49.983" lon="4.3342">
        <ele>319.6</ele>
        <time>2020-06-25T05:23:37Z</time>
      </trkpt>
      <trkpt lat="49.983" lon="4.33426">
        <ele>319.6</ele>
        <time>2020-06-25T05:23:38Z</time>
      </trkpt>
      <trkpt lat="49.983" lon="4.33433">
        <ele>319.6</ele>
        <time>2020-06-25T05:23:39Z</time>
      </trkpt>
      <trkpt lat="49.98301" lon="4.33439">
        <ele>319.6</ele>
        <time>2020-06-25T05:23:40Z</time>
      </trkpt>
      <trkpt lat="49.98302" lon="4.33446">
        <ele>319.7</ele>
        <time>2020-06-25T05:23:41Z</time>
      </trkpt>
      <trkpt lat="49.98303" lon="4.33452">
        <ele>319.7</ele>
        <time>2020-06-25T05:23:42Z</time>
      </trkpt>
      <trkpt lat="49.98303" lon="4.3346">
        <ele>319.7</ele>
        <time>2020-06-25T05:23:43Z</time>
      </trkpt>
      <trkpt lat="49.98304" lon="4.33466">
        <ele>319.7</ele>
        <time>2020-06-25T05:23:44Z</time>
      </trkpt>
      <trkpt lat="49.98303" lon="4.33474">
        <ele>319.7</ele>
        <time>2020-06-25T05:23:45Z</time>
      </trkpt>
      <trkpt lat="49.98303" lon="4.33481">
        <ele>319.7</ele>
        <time>2020-06-25T05:23:46Z</time>
      </trkpt>
      <trkpt lat="49.98303" lon="4.33489">
        <ele>319.7</ele>
        <time>2020-06-25T05:23:47Z</time>
      </trkpt>
      <trkpt lat="49.98304" lon="4.33496">
        <ele>319.7</ele>
        <time>2020-06-25T05:23:48Z</time>
      </trkpt>
      <trkpt lat="49.98305" lon="4.33503">
        <ele>319.8</ele>
        <time>2020-06-25T05:23:49Z</time>
      </trkpt>
      <trkpt lat="49.98306" lon="4.33511">
        <ele>319.8</ele>
        <time>2020-06-25T05:23:50Z</time>
      </trkpt>
      <trkpt lat="49.98307" lon="4.33518">
        <ele>319.8</ele>
        <time>2020-06-25T05:23:51Z</time>
      </trkpt>
      <trkpt lat="49.98307" lon="4.33526">
        <ele>319.8</ele>
        <time>2020-06-25T05:23:52Z</time>
      </trkpt>
      <trkpt lat="49.98308" lon="4.33534">
        <ele>319.9</ele>
        <time>2020-06-25T05:23:53Z</time>
      </trkpt>
      <trkpt lat="49.98308" lon="4.33541">
        <ele>319.9</ele>
        <time>2020-06-25T05:23:54Z</time>
      </trkpt>
      <trkpt lat="49.98309" lon="4.33548">
        <ele>320</ele>
        <time>2020-06-25T05:23:55Z</time>
      </trkpt>
      <trkpt lat="49.98309" lon="4.33554">
        <ele>320</ele>
        <time>2020-06-25T05:23:56Z</time>
      </trkpt>
      <trkpt lat="49.9831" lon="4.33561">
        <ele>320.1</ele>
        <time>2020-06-25T05:23:57Z</time>
      </trkpt>
      <trkpt lat="49.98311" lon="4.33567">
        <ele>320.1</ele>
        <time>2020-06-25T05:23:58Z</time>
      </trkpt>
      <trkpt lat="49.98311" lon="4.33574">
        <ele>320.2</ele>
        <time>2020-06-25T05:23:59Z</time>
      </trkpt>
      <trkpt lat="49.98312" lon="4.33581">
        <ele>320.3</ele>
        <time>2020-06-25T05:24:00Z</time>
      </trkpt>
      <trkpt lat="49.98313" lon="4.33588">
        <ele>320.4</ele>
        <time>2020-06-25T05:24:01Z</time>
      </trkpt>
      <trkpt lat="49.98313" lon="4.33595">
        <ele>320.5</ele>
        <time>2020-06-25T05:24:02Z</time>
      </trkpt>
      <trkpt lat="49.98314" lon="4.33603">
        <ele>320.5</ele>
        <time>2020-06-25T05:24:03Z</time>
      </trkpt>
      <trkpt lat="49.98314" lon="4.33611">
        <ele>320.6</ele>
        <time>2020-06-25T05:24:04Z</time>
      </trkpt>
      <trkpt lat="49.98315" lon="4.3362">
        <ele>320.7</ele>
        <time>2020-06-25T05:24:05Z</time>
      </trkpt>
      <trkpt lat="49.98316" lon="4.33628">
        <ele>320.8</ele>
        <time>2020-06-25T05:24:06Z</time>
      </trkpt>
      <trkpt lat="49.98318" lon="4.33636">
        <ele>320.9</ele>
        <time>2020-06-25T05:24:07Z</time>
      </trkpt>
      <trkpt lat="49.98318" lon="4.33643">
        <ele>321</ele>
        <time>2020-06-25T05:24:08Z</time>
      </trkpt>
      <trkpt lat="49.98319" lon="4.33651">
        <ele>321</ele>
        <time>2020-06-25T05:24:09Z</time>
      </trkpt>
      <trkpt lat="49.98319" lon="4.33659">
        <ele>321.1</ele>
        <time>2020-06-25T05:24:10Z</time>
      </trkpt>
      <trkpt lat="49.98319" lon="4.33667">
        <ele>321.2</ele>
        <time>2020-06-25T05:24:11Z</time>
      </trkpt>
      <trkpt lat="49.98321" lon="4.33674">
        <ele>321.3</ele>
        <time>2020-06-25T05:24:12Z</time>
      </trkpt>
      <trkpt lat="49.98322" lon="4.33681">
        <ele>321.4</ele>
        <time>2020-06-25T05:24:13Z</time>
      </trkpt>
      <trkpt lat="49.98323" lon="4.3369">
        <ele>321.5</ele>
        <time>2020-06-25T05:24:14Z</time>
      </trkpt>
      <trkpt lat="49.98323" lon="4.33698">
        <ele>321.6</ele>
        <time>2020-06-25T05:24:15Z</time>
      </trkpt>
      <trkpt lat="49.98323" lon="4.33706">
        <ele>321.7</ele>
        <time>2020-06-25T05:24:16Z</time>
      </trkpt>
      <trkpt lat="49.98322" lon="4.33715">
        <ele>321.8</ele>
        <time>2020-06-25T05:24:17Z</time>
      </trkpt>
      <trkpt lat="49.98322" lon="4.33723">
        <ele>321.9</ele>
        <time>2020-06-25T05:24:18Z</time>
      </trkpt>
      <trkpt lat="49.98321" lon="4.33731">
        <ele>322</ele>
        <time>2020-06-25T05:24:19Z</time>
      </trkpt>
      <trkpt lat="49.98322" lon="4.33738">
        <ele>322.1</ele>
        <time>2020-06-25T05:24:20Z</time>
      </trkpt>
      <trkpt lat="49.98322" lon="4.33744">
        <ele>322.2</ele>
        <time>2020-06-25T05:24:21Z</time>
      </trkpt>
      <trkpt lat="49.98323" lon="4.3375">
        <ele>322.3</ele>
        <time>2020-06-25T05:24:22Z</time>
      </trkpt>
      <trkpt lat="49.98324" lon="4.33757">
        <ele>322.4</ele>
        <time>2020-06-25T05:24:23Z</time>
      </trkpt>
      <trkpt lat="49.98324" lon="4.33764">
        <ele>322.6</ele>
        <time>2020-06-25T05:24:24Z</time>
      </trkpt>
      <trkpt lat="49.98324" lon="4.33772">
        <ele>322.7</ele>
        <time>2020-06-25T05:24:25Z</time>
      </trkpt>
      <trkpt lat="49.98325" lon="4.33779">
        <ele>322.9</ele>
        <time>2020-06-25T05:24:26Z</time>
      </trkpt>
      <trkpt lat="49.98325" lon="4.33787">
        <ele>323</ele>
        <time>2020-06-25T05:24:27Z</time>
      </trkpt>
      <trkpt lat="49.98325" lon="4.33794">
        <ele>323.1</ele>
        <time>2020-06-25T05:24:28Z</time>
      </trkpt>
      <trkpt lat="49.98326" lon="4.33801">
        <ele>323.2</ele>
        <time>2020-06-25T05:24:29Z</time>
      </trkpt>
      <trkpt lat="49.98326" lon="4.33807">
        <ele>323.3</ele>
        <time>2020-06-25T05:24:30Z</time>
      </trkpt>
      <trkpt lat="49.98326" lon="4.33812">
        <ele>323.4</ele>
        <time>2020-06-25T05:24:31Z</time>
      </trkpt>
      <trkpt lat="49.98326" lon="4.33818">
        <ele>323.5</ele>
        <time>2020-06-25T05:24:32Z</time>
      </trkpt>
      <trkpt lat="49.98326" lon="4.33825">
        <ele>323.6</ele>
        <time>2020-06-25T05:24:33Z</time>
      </trkpt>
      <trkpt lat="49.98326" lon="4.33833">
        <ele>323.6</ele>
        <time>2020-06-25T05:24:34Z</time>
      </trkpt>
      <trkpt lat="49.98328" lon="4.33838">
        <ele>323.7</ele>
        <time>2020-06-25T05:24:35Z</time>
      </trkpt>
      <trkpt lat="49.98328" lon="4.33844">
        <ele>323.7</ele>
        <time>2020-06-25T05:24:36Z</time>
      </trkpt>
      <trkpt lat="49.98328" lon="4.3385">
        <ele>323.7</ele>
        <time>2020-06-25T05:24:37Z</time>
      </trkpt>
      <trkpt lat="49.98328" lon="4.33857">
        <ele>323.8</ele>
        <time>2020-06-25T05:24:38Z</time>
      </trkpt>
      <trkpt lat="49.98328" lon="4.33865">
        <ele>323.8</ele>
        <time>2020-06-25T05:24:39Z</time>
      </trkpt>
      <trkpt lat="49.98328" lon="4.33873">
        <ele>323.9</ele>
        <time>2020-06-25T05:24:40Z</time>
      </trkpt>
      <trkpt lat="49.98328" lon="4.3388">
        <ele>324</ele>
        <time>2020-06-25T05:24:41Z</time>
      </trkpt>
      <trkpt lat="49.98329" lon="4.33888">
        <ele>324</ele>
        <time>2020-06-25T05:24:42Z</time>
      </trkpt>
      <trkpt lat="49.9833" lon="4.33896">
        <ele>324.1</ele>
        <time>2020-06-25T05:24:43Z</time>
      </trkpt>
      <trkpt lat="49.98332" lon="4.33904">
        <ele>324.2</ele>
        <time>2020-06-25T05:24:44Z</time>
      </trkpt>
      <trkpt lat="49.98333" lon="4.33912">
        <ele>324.3</ele>
        <time>2020-06-25T05:24:45Z</time>
      </trkpt>
      <trkpt lat="49.98334" lon="4.3392">
        <ele>324.4</ele>
        <time>2020-06-25T05:24:46Z</time>
      </trkpt>
      <trkpt lat="49.98335" lon="4.33928">
        <ele>324.5</ele>
        <time>2020-06-25T05:24:47Z</time>
      </trkpt>
      <trkpt lat="49.98336" lon="4.33936">
        <ele>324.6</ele>
        <time>2020-06-25T05:24:48Z</time>
      </trkpt>
      <trkpt lat="49.98337" lon="4.33943">
        <ele>324.7</ele>
        <time>2020-06-25T05:24:49Z</time>
      </trkpt>
      <trkpt lat="49.98338" lon="4.33949">
        <ele>324.8</ele>
        <time>2020-06-25T05:24:50Z</time>
      </trkpt>
      <trkpt lat="49.98338" lon="4.33957">
        <ele>324.9</ele>
        <time>2020-06-25T05:24:51Z</time>
      </trkpt>
      <trkpt lat="49.98339" lon="4.33965">
        <ele>325</ele>
        <time>2020-06-25T05:24:52Z</time>
      </trkpt>
      <trkpt lat="49.9834" lon="4.33973">
        <ele>325</ele>
        <time>2020-06-25T05:24:53Z</time>
      </trkpt>
      <trkpt lat="49.9834" lon="4.33982">
        <ele>325.1</ele>
        <time>2020-06-25T05:24:54Z</time>
      </trkpt>
      <trkpt lat="49.9834" lon="4.3399">
        <ele>325.2</ele>
        <time>2020-06-25T05:24:55Z</time>
      </trkpt>
      <trkpt lat="49.98341" lon="4.33999">
        <ele>325.3</ele>
        <time>2020-06-25T05:24:56Z</time>
      </trkpt>
      <trkpt lat="49.98342" lon="4.34006">
        <ele>325.4</ele>
        <time>2020-06-25T05:24:57Z</time>
      </trkpt>
      <trkpt lat="49.98343" lon="4.34015">
        <ele>325.5</ele>
        <time>2020-06-25T05:24:58Z</time>
      </trkpt>
      <trkpt lat="49.98344" lon="4.34023">
        <ele>325.6</ele>
        <time>2020-06-25T05:24:59Z</time>
      </trkpt>
      <trkpt lat="49.98345" lon="4.34031">
        <ele>325.7</ele>
        <time>2020-06-25T05:25:00Z</time>
      </trkpt>
      <trkpt lat="49.98344" lon="4.34039">
        <ele>325.8</ele>
        <time>2020-06-25T05:25:01Z</time>
      </trkpt>
      <trkpt lat="49.98344" lon="4.34047">
        <ele>325.9</ele>
        <time>2020-06-25T05:25:02Z</time>
      </trkpt>
      <trkpt lat="49.98344" lon="4.34054">
        <ele>326</ele>
        <time>2020-06-25T05:25:03Z</time>
      </trkpt>
      <trkpt lat="49.98344" lon="4.34061">
        <ele>326.1</ele>
        <time>2020-06-25T05:25:04Z</time>
      </trkpt>
      <trkpt lat="49.98344" lon="4.34069">
        <ele>326.2</ele>
        <time>2020-06-25T05:25:05Z</time>
      </trkpt>
      <trkpt lat="49.98344" lon="4.34076">
        <ele>326.3</ele>
        <time>2020-06-25T05:25:06Z</time>
      </trkpt>
      <trkpt lat="49.98344" lon="4.34083">
        <ele>326.3</ele>
        <time>2020-06-25T05:25:07Z</time>
      </trkpt>
      <trkpt lat="49.98344" lon="4.3409">
        <ele>326.4</ele>
        <time>2020-06-25T05:25:08Z</time>
      </trkpt>
      <trkpt lat="49.98345" lon="4.34097">
        <ele>326.5</ele>
        <time>2020-06-25T05:25:09Z</time>
      </trkpt>
      <trkpt lat="49.98345" lon="4.34104">
        <ele>326.5</ele>
        <time>2020-06-25T05:25:10Z</time>
      </trkpt>
      <trkpt lat="49.98346" lon="4.34112">
        <ele>326.5</ele>
        <time>2020-06-25T05:25:11Z</time>
      </trkpt>
      <trkpt lat="49.98347" lon="4.34119">
        <ele>326.6</ele>
        <time>2020-06-25T05:25:12Z</time>
      </trkpt>
      <trkpt lat="49.98347" lon="4.34125">
        <ele>326.6</ele>
        <time>2020-06-25T05:25:13Z</time>
      </trkpt>
      <trkpt lat="49.98347" lon="4.34131">
        <ele>326.6</ele>
        <time>2020-06-25T05:25:14Z</time>
      </trkpt>
      <trkpt lat="49.98347" lon="4.34137">
        <ele>326.6</ele>
        <time>2020-06-25T05:25:15Z</time>
      </trkpt>
      <trkpt lat="49.98348" lon="4.34144">
        <ele>326.6</ele>
        <time>2020-06-25T05:25:16Z</time>
      </trkpt>
      <trkpt lat="49.98349" lon="4.34151">
        <ele>326.6</ele>
        <time>2020-06-25T05:25:17Z</time>
      </trkpt>
      <trkpt lat="49.98349" lon="4.34158">
        <ele>326.6</ele>
        <time>2020-06-25T05:25:18Z</time>
      </trkpt>
      <trkpt lat="49.98349" lon="4.34165">
        <ele>326.6</ele>
        <time>2020-06-25T05:25:19Z</time>
      </trkpt>
      <trkpt lat="49.9835" lon="4.34172">
        <ele>326.6</ele>
        <time>2020-06-25T05:25:20Z</time>
      </trkpt>
      <trkpt lat="49.9835" lon="4.3418">
        <ele>326.6</ele>
        <time>2020-06-25T05:25:21Z</time>
      </trkpt>
      <trkpt lat="49.98351" lon="4.34188">
        <ele>326.6</ele>
        <time>2020-06-25T05:25:22Z</time>
      </trkpt>
      <trkpt lat="49.98351" lon="4.34196">
        <ele>326.5</ele>
        <time>2020-06-25T05:25:23Z</time>
      </trkpt>
      <trkpt lat="49.98351" lon="4.34203">
        <ele>326.5</ele>
        <time>2020-06-25T05:25:24Z</time>
      </trkpt>
      <trkpt lat="49.98352" lon="4.34211">
        <ele>326.5</ele>
        <time>2020-06-25T05:25:25Z</time>
      </trkpt>
      <trkpt lat="49.98353" lon="4.34218">
        <ele>326.4</ele>
        <time>2020-06-25T05:25:26Z</time>
      </trkpt>
      <trkpt lat="49.98353" lon="4.34226">
        <ele>326.4</ele>
        <time>2020-06-25T05:25:27Z</time>
      </trkpt>
      <trkpt lat="49.98354" lon="4.34234">
        <ele>326.3</ele>
        <time>2020-06-25T05:25:28Z</time>
      </trkpt>
      <trkpt lat="49.98354" lon="4.34243">
        <ele>326.3</ele>
        <time>2020-06-25T05:25:29Z</time>
      </trkpt>
      <trkpt lat="49.98355" lon="4.34251">
        <ele>326.2</ele>
        <time>2020-06-25T05:25:30Z</time>
      </trkpt>
      <trkpt lat="49.98356" lon="4.34259">
        <ele>326.1</ele>
        <time>2020-06-25T05:25:31Z</time>
      </trkpt>
      <trkpt lat="49.98356" lon="4.34266">
        <ele>326.1</ele>
        <time>2020-06-25T05:25:32Z</time>
      </trkpt>
      <trkpt lat="49.98356" lon="4.34274">
        <ele>326</ele>
        <time>2020-06-25T05:25:33Z</time>
      </trkpt>
      <trkpt lat="49.98356" lon="4.34283">
        <ele>326</ele>
        <time>2020-06-25T05:25:34Z</time>
      </trkpt>
      <trkpt lat="49.98357" lon="4.34291">
        <ele>325.9</ele>
        <time>2020-06-25T05:25:35Z</time>
      </trkpt>
      <trkpt lat="49.98357" lon="4.343">
        <ele>325.8</ele>
        <time>2020-06-25T05:25:36Z</time>
      </trkpt>
      <trkpt lat="49.98358" lon="4.3431">
        <ele>325.7</ele>
        <time>2020-06-25T05:25:37Z</time>
      </trkpt>
      <trkpt lat="49.98359" lon="4.34319">
        <ele>325.6</ele>
        <time>2020-06-25T05:25:38Z</time>
      </trkpt>
      <trkpt lat="49.9836" lon="4.34328">
        <ele>325.5</ele>
        <time>2020-06-25T05:25:39Z</time>
      </trkpt>
      <trkpt lat="49.9836" lon="4.34338">
        <ele>325.4</ele>
        <time>2020-06-25T05:25:40Z</time>
      </trkpt>
      <trkpt lat="49.9836" lon="4.34347">
        <ele>325.3</ele>
        <time>2020-06-25T05:25:41Z</time>
      </trkpt>
      <trkpt lat="49.98361" lon="4.34356">
        <ele>325.2</ele>
        <time>2020-06-25T05:25:42Z</time>
      </trkpt>
      <trkpt lat="49.98362" lon="4.34365">
        <ele>325.1</ele>
        <time>2020-06-25T05:25:43Z</time>
      </trkpt>
      <trkpt lat="49.98363" lon="4.34374">
        <ele>325</ele>
        <time>2020-06-25T05:25:44Z</time>
      </trkpt>
      <trkpt lat="49.98364" lon="4.34383">
        <ele>324.9</ele>
        <time>2020-06-25T05:25:45Z</time>
      </trkpt>
      <trkpt lat="49.98365" lon="4.34392">
        <ele>324.8</ele>
        <time>2020-06-25T05:25:46Z</time>
      </trkpt>
      <trkpt lat="49.98366" lon="4.34402">
        <ele>324.7</ele>
        <time>2020-06-25T05:25:47Z</time>
      </trkpt>
      <trkpt lat="49.98367" lon="4.34411">
        <ele>324.6</ele>
        <time>2020-06-25T05:25:48Z</time>
      </trkpt>
      <trkpt lat="49.98368" lon="4.34421">
        <ele>324.5</ele>
        <time>2020-06-25T05:25:49Z</time>
      </trkpt>
      <trkpt lat="49.98369" lon="4.3443">
        <ele>324.5</ele>
        <time>2020-06-25T05:25:50Z</time>
      </trkpt>
      <trkpt lat="49.9837" lon="4.3444">
        <ele>324.4</ele>
        <time>2020-06-25T05:25:51Z</time>
      </trkpt>
      <trkpt lat="49.9837" lon="4.34448">
        <ele>324.4</ele>
        <time>2020-06-25T05:25:52Z</time>
      </trkpt>
      <trkpt lat="49.9837" lon="4.34456">
        <ele>324.3</ele>
        <time>2020-06-25T05:25:53Z</time>
      </trkpt>
      <trkpt lat="49.9837" lon="4.34465">
        <ele>324.3</ele>
        <time>2020-06-25T05:25:54Z</time>
      </trkpt>
      <trkpt lat="49.98371" lon="4.34473">
        <ele>324.2</ele>
        <time>2020-06-25T05:25:55Z</time>
      </trkpt>
      <trkpt lat="49.98372" lon="4.34482">
        <ele>324.2</ele>
        <time>2020-06-25T05:25:56Z</time>
      </trkpt>
      <trkpt lat="49.98373" lon="4.34491">
        <ele>324.1</ele>
        <time>2020-06-25T05:25:57Z</time>
      </trkpt>
      <trkpt lat="49.98373" lon="4.345">
        <ele>324</ele>
        <time>2020-06-25T05:25:58Z</time>
      </trkpt>
      <trkpt lat="49.98373" lon="4.34508">
        <ele>324</ele>
        <time>2020-06-25T05:25:59Z</time>
      </trkpt>
      <trkpt lat="49.98373" lon="4.34516">
        <ele>324</ele>
        <time>2020-06-25T05:26:00Z</time>
      </trkpt>
      <trkpt lat="49.98373" lon="4.34523">
        <ele>324</ele>
        <time>2020-06-25T05:26:01Z</time>
      </trkpt>
      <trkpt lat="49.98372" lon="4.3453">
        <ele>324</ele>
        <time>2020-06-25T05:26:02Z</time>
      </trkpt>
      <trkpt lat="49.98371" lon="4.34535">
        <ele>324</ele>
        <time>2020-06-25T05:26:03Z</time>
      </trkpt>
      <trkpt lat="49.9837" lon="4.3454">
        <ele>323.9</ele>
        <time>2020-06-25T05:26:04Z</time>
      </trkpt>
      <trkpt lat="49.98368" lon="4.34545">
        <ele>323.5</ele>
        <time>2020-06-25T05:26:05Z</time>
      </trkpt>
      <trkpt lat="49.98364" lon="4.34548">
        <ele>323.3</ele>
        <time>2020-06-25T05:26:06Z</time>
      </trkpt>
      <trkpt lat="49.9836" lon="4.3455">
        <ele>323</ele>
        <time>2020-06-25T05:26:07Z</time>
      </trkpt>
      <trkpt lat="49.98356" lon="4.34551">
        <ele>322.8</ele>
        <time>2020-06-25T05:26:08Z</time>
      </trkpt>
      <trkpt lat="49.98351" lon="4.34553">
        <ele>322.5</ele>
        <time>2020-06-25T05:26:09Z</time>
      </trkpt>
      <trkpt lat="49.98347" lon="4.34554">
        <ele>322.2</ele>
        <time>2020-06-25T05:26:10Z</time>
      </trkpt>
      <trkpt lat="49.98342" lon="4.34555">
        <ele>321.9</ele>
        <time>2020-06-25T05:26:11Z</time>
      </trkpt>
      <trkpt lat="49.98337" lon="4.34556">
        <ele>321.7</ele>
        <time>2020-06-25T05:26:12Z</time>
      </trkpt>
      <trkpt lat="49.98332" lon="4.34557">
        <ele>321.4</ele>
        <time>2020-06-25T05:26:13Z</time>
      </trkpt>
      <trkpt lat="49.98326" lon="4.34559">
        <ele>321.1</ele>
        <time>2020-06-25T05:26:14Z</time>
      </trkpt>
      <trkpt lat="49.98321" lon="4.34561">
        <ele>320.8</ele>
        <time>2020-06-25T05:26:15Z</time>
      </trkpt>
      <trkpt lat="49.98315" lon="4.34564">
        <ele>320.4</ele>
        <time>2020-06-25T05:26:16Z</time>
      </trkpt>
      <trkpt lat="49.98309" lon="4.34567">
        <ele>320.1</ele>
        <time>2020-06-25T05:26:17Z</time>
      </trkpt>
      <trkpt lat="49.98303" lon="4.3457">
        <ele>319.7</ele>
        <time>2020-06-25T05:26:18Z</time>
      </trkpt>
      <trkpt lat="49.98296" lon="4.34573">
        <ele>319.4</ele>
        <time>2020-06-25T05:26:19Z</time>
      </trkpt>
      <trkpt lat="49.98287" lon="4.34578">
        <ele>318.9</ele>
        <time>2020-06-25T05:26:20Z</time>
      </trkpt>
      <trkpt lat="49.98278" lon="4.34581">
        <ele>318.4</ele>
        <time>2020-06-25T05:26:21Z</time>
      </trkpt>
      <trkpt lat="49.98269" lon="4.34584">
        <ele>317.9</ele>
        <time>2020-06-25T05:26:22Z</time>
      </trkpt>
      <trkpt lat="49.9826" lon="4.34587">
        <ele>317.4</ele>
        <time>2020-06-25T05:26:23Z</time>
      </trkpt>
      <trkpt lat="49.98251" lon="4.3459">
        <ele>317</ele>
        <time>2020-06-25T05:26:24Z</time>
      </trkpt>
      <trkpt lat="49.98241" lon="4.34595">
        <ele>316.4</ele>
        <time>2020-06-25T05:26:25Z</time>
      </trkpt>
      <trkpt lat="49.98232" lon="4.34598">
        <ele>315.9</ele>
        <time>2020-06-25T05:26:26Z</time>
      </trkpt>
      <trkpt lat="49.98224" lon="4.34602">
        <ele>315.4</ele>
        <time>2020-06-25T05:26:27Z</time>
      </trkpt>
      <trkpt lat="49.98215" lon="4.34606">
        <ele>314.9</ele>
        <time>2020-06-25T05:26:28Z</time>
      </trkpt>
      <trkpt lat="49.98206" lon="4.34609">
        <ele>314.3</ele>
        <time>2020-06-25T05:26:29Z</time>
      </trkpt>
      <trkpt lat="49.98197" lon="4.34613">
        <ele>313.8</ele>
        <time>2020-06-25T05:26:30Z</time>
      </trkpt>
      <trkpt lat="49.98188" lon="4.34616">
        <ele>313.3</ele>
        <time>2020-06-25T05:26:31Z</time>
      </trkpt>
      <trkpt lat="49.98179" lon="4.3462">
        <ele>312.7</ele>
        <time>2020-06-25T05:26:32Z</time>
      </trkpt>
      <trkpt lat="49.98169" lon="4.34623">
        <ele>312.1</ele>
        <time>2020-06-25T05:26:33Z</time>
      </trkpt>
      <trkpt lat="49.9816" lon="4.34624">
        <ele>311.5</ele>
        <time>2020-06-25T05:26:34Z</time>
      </trkpt>
      <trkpt lat="49.98151" lon="4.34627">
        <ele>310.9</ele>
        <time>2020-06-25T05:26:35Z</time>
      </trkpt>
      <trkpt lat="49.98141" lon="4.3463">
        <ele>310.2</ele>
        <time>2020-06-25T05:26:36Z</time>
      </trkpt>
      <trkpt lat="49.98132" lon="4.34634">
        <ele>309.6</ele>
        <time>2020-06-25T05:26:37Z</time>
      </trkpt>
      <trkpt lat="49.98121" lon="4.34637">
        <ele>308.9</ele>
        <time>2020-06-25T05:26:38Z</time>
      </trkpt>
      <trkpt lat="49.98112" lon="4.3464">
        <ele>308.2</ele>
        <time>2020-06-25T05:26:39Z</time>
      </trkpt>
      <trkpt lat="49.98102" lon="4.34643">
        <ele>307.5</ele>
        <time>2020-06-25T05:26:40Z</time>
      </trkpt>
      <trkpt lat="49.98093" lon="4.34648">
        <ele>306.8</ele>
        <time>2020-06-25T05:26:41Z</time>
      </trkpt>
      <trkpt lat="49.98083" lon="4.34654">
        <ele>306.1</ele>
        <time>2020-06-25T05:26:42Z</time>
      </trkpt>
      <trkpt lat="49.98073" lon="4.34659">
        <ele>305.3</ele>
        <time>2020-06-25T05:26:43Z</time>
      </trkpt>
      <trkpt lat="49.98063" lon="4.34664">
        <ele>304.4</ele>
        <time>2020-06-25T05:26:44Z</time>
      </trkpt>
      <trkpt lat="49.98054" lon="4.34668">
        <ele>303.6</ele>
        <time>2020-06-25T05:26:45Z</time>
      </trkpt>
      <trkpt lat="49.98044" lon="4.34673">
        <ele>302.8</ele>
        <time>2020-06-25T05:26:46Z</time>
      </trkpt>
      <trkpt lat="49.98035" lon="4.34678">
        <ele>302.2</ele>
        <time>2020-06-25T05:26:47Z</time>
      </trkpt>
      <trkpt lat="49.98025" lon="4.34685">
        <ele>301.7</ele>
        <time>2020-06-25T05:26:48Z</time>
      </trkpt>
      <trkpt lat="49.98016" lon="4.3469">
        <ele>301.2</ele>
        <time>2020-06-25T05:26:49Z</time>
      </trkpt>
      <trkpt lat="49.98005" lon="4.34696">
        <ele>300.5</ele>
        <time>2020-06-25T05:26:50Z</time>
      </trkpt>
      <trkpt lat="49.97995" lon="4.34702">
        <ele>300</ele>
        <time>2020-06-25T05:26:51Z</time>
      </trkpt>
      <trkpt lat="49.97985" lon="4.34706">
        <ele>299.6</ele>
        <time>2020-06-25T05:26:52Z</time>
      </trkpt>
      <trkpt lat="49.97975" lon="4.34712">
        <ele>299.2</ele>
        <time>2020-06-25T05:26:53Z</time>
      </trkpt>
      <trkpt lat="49.97965" lon="4.34717">
        <ele>299</ele>
        <time>2020-06-25T05:26:54Z</time>
      </trkpt>
      <trkpt lat="49.97955" lon="4.34723">
        <ele>298.9</ele>
        <time>2020-06-25T05:26:55Z</time>
      </trkpt>
      <trkpt lat="49.97945" lon="4.34726">
        <ele>298.8</ele>
        <time>2020-06-25T05:26:56Z</time>
      </trkpt>
      <trkpt lat="49.97936" lon="4.3473">
        <ele>298.8</ele>
        <time>2020-06-25T05:26:57Z</time>
      </trkpt>
      <trkpt lat="49.97927" lon="4.34732">
        <ele>298.8</ele>
        <time>2020-06-25T05:26:58Z</time>
      </trkpt>
      <trkpt lat="49.97918" lon="4.34734">
        <ele>298.8</ele>
        <time>2020-06-25T05:26:59Z</time>
      </trkpt>
      <trkpt lat="49.97909" lon="4.34736">
        <ele>298.8</ele>
        <time>2020-06-25T05:27:00Z</time>
      </trkpt>
      <trkpt lat="49.97901" lon="4.34738">
        <ele>298.8</ele>
        <time>2020-06-25T05:27:01Z</time>
      </trkpt>
      <trkpt lat="49.97892" lon="4.3474">
        <ele>298.8</ele>
        <time>2020-06-25T05:27:02Z</time>
      </trkpt>
      <trkpt lat="49.97884" lon="4.34741">
        <ele>298.8</ele>
        <time>2020-06-25T05:27:03Z</time>
      </trkpt>
      <trkpt lat="49.97876" lon="4.34744">
        <ele>298.9</ele>
        <time>2020-06-25T05:27:04Z</time>
      </trkpt>
      <trkpt lat="49.97868" lon="4.34746">
        <ele>298.9</ele>
        <time>2020-06-25T05:27:05Z</time>
      </trkpt>
      <trkpt lat="49.9786" lon="4.34749">
        <ele>298.9</ele>
        <time>2020-06-25T05:27:06Z</time>
      </trkpt>
      <trkpt lat="49.97852" lon="4.34751">
        <ele>298.9</ele>
        <time>2020-06-25T05:27:07Z</time>
      </trkpt>
      <trkpt lat="49.97845" lon="4.34754">
        <ele>299</ele>
        <time>2020-06-25T05:27:08Z</time>
      </trkpt>
      <trkpt lat="49.97837" lon="4.34756">
        <ele>299</ele>
        <time>2020-06-25T05:27:09Z</time>
      </trkpt>
      <trkpt lat="49.9783" lon="4.34758">
        <ele>299.1</ele>
        <time>2020-06-25T05:27:10Z</time>
      </trkpt>
      <trkpt lat="49.97822" lon="4.3476">
        <ele>299.2</ele>
        <time>2020-06-25T05:27:11Z</time>
      </trkpt>
      <trkpt lat="49.97815" lon="4.34761">
        <ele>299.3</ele>
        <time>2020-06-25T05:27:12Z</time>
      </trkpt>
      <trkpt lat="49.97807" lon="4.34764">
        <ele>299.4</ele>
        <time>2020-06-25T05:27:13Z</time>
      </trkpt>
      <trkpt lat="49.97801" lon="4.34765">
        <ele>299.5</ele>
        <time>2020-06-25T05:27:14Z</time>
      </trkpt>
      <trkpt lat="49.97794" lon="4.34767">
        <ele>299.6</ele>
        <time>2020-06-25T05:27:15Z</time>
      </trkpt>
      <trkpt lat="49.97788" lon="4.34769">
        <ele>299.7</ele>
        <time>2020-06-25T05:27:16Z</time>
      </trkpt>
      <trkpt lat="49.97781" lon="4.34773">
        <ele>299.8</ele>
        <time>2020-06-25T05:27:17Z</time>
      </trkpt>
      <trkpt lat="49.97775" lon="4.34776">
        <ele>299.9</ele>
        <time>2020-06-25T05:27:18Z</time>
      </trkpt>
      <trkpt lat="49.97769" lon="4.34778">
        <ele>300</ele>
        <time>2020-06-25T05:27:19Z</time>
      </trkpt>
      <trkpt lat="49.97763" lon="4.3478">
        <ele>300</ele>
        <time>2020-06-25T05:27:20Z</time>
      </trkpt>
      <trkpt lat="49.97756" lon="4.34783">
        <ele>300.2</ele>
        <time>2020-06-25T05:27:21Z</time>
      </trkpt>
      <trkpt lat="49.9775" lon="4.34786">
        <ele>300.3</ele>
        <time>2020-06-25T05:27:22Z</time>
      </trkpt>
      <trkpt lat="49.97743" lon="4.34789">
        <ele>300.5</ele>
        <time>2020-06-25T05:27:23Z</time>
      </trkpt>
      <trkpt lat="49.97737" lon="4.34791">
        <ele>300.6</ele>
        <time>2020-06-25T05:27:24Z</time>
      </trkpt>
      <trkpt lat="49.9773" lon="4.34793">
        <ele>300.8</ele>
        <time>2020-06-25T05:27:25Z</time>
      </trkpt>
      <trkpt lat="49.97724" lon="4.34796">
        <ele>300.9</ele>
        <time>2020-06-25T05:27:26Z</time>
      </trkpt>
      <trkpt lat="49.97718" lon="4.34799">
        <ele>301.1</ele>
        <time>2020-06-25T05:27:27Z</time>
      </trkpt>
      <trkpt lat="49.97712" lon="4.348">
        <ele>301.2</ele>
        <time>2020-06-25T05:27:28Z</time>
      </trkpt>
      <trkpt lat="49.97707" lon="4.34804">
        <ele>301.3</ele>
        <time>2020-06-25T05:27:29Z</time>
      </trkpt>
      <trkpt lat="49.97702" lon="4.34805">
        <ele>301.4</ele>
        <time>2020-06-25T05:27:30Z</time>
      </trkpt>
      <trkpt lat="49.97696" lon="4.34808">
        <ele>301.5</ele>
        <time>2020-06-25T05:27:31Z</time>
      </trkpt>
      <trkpt lat="49.97691" lon="4.3481">
        <ele>301.7</ele>
        <time>2020-06-25T05:27:32Z</time>
      </trkpt>
      <trkpt lat="49.97685" lon="4.34813">
        <ele>301.8</ele>
        <time>2020-06-25T05:27:33Z</time>
      </trkpt>
      <trkpt lat="49.97678" lon="4.34817">
        <ele>302</ele>
        <time>2020-06-25T05:27:34Z</time>
      </trkpt>
      <trkpt lat="49.97672" lon="4.34819">
        <ele>302.2</ele>
        <time>2020-06-25T05:27:35Z</time>
      </trkpt>
      <trkpt lat="49.97668" lon="4.34821">
        <ele>302.3</ele>
        <time>2020-06-25T05:27:36Z</time>
      </trkpt>
      <trkpt lat="49.97664" lon="4.34824">
        <ele>302.5</ele>
        <time>2020-06-25T05:27:37Z</time>
      </trkpt>
      <trkpt lat="49.97659" lon="4.34827">
        <ele>302.6</ele>
        <time>2020-06-25T05:27:38Z</time>
      </trkpt>
      <trkpt lat="49.97654" lon="4.34829">
        <ele>302.8</ele>
        <time>2020-06-25T05:27:39Z</time>
      </trkpt>
      <trkpt lat="49.97648" lon="4.3483">
        <ele>302.9</ele>
        <time>2020-06-25T05:27:40Z</time>
      </trkpt>
      <trkpt lat="49.97643" lon="4.34832">
        <ele>303</ele>
        <time>2020-06-25T05:27:41Z</time>
      </trkpt>
      <trkpt lat="49.97639" lon="4.34836">
        <ele>303</ele>
        <time>2020-06-25T05:27:42Z</time>
      </trkpt>
      <trkpt lat="49.97633" lon="4.34841">
        <ele>303</ele>
        <time>2020-06-25T05:27:43Z</time>
      </trkpt>
      <trkpt lat="49.97629" lon="4.34844">
        <ele>303</ele>
        <time>2020-06-25T05:27:44Z</time>
      </trkpt>
      <trkpt lat="49.97624" lon="4.34848">
        <ele>303</ele>
        <time>2020-06-25T05:27:45Z</time>
      </trkpt>
      <trkpt lat="49.9762" lon="4.34852">
        <ele>303.1</ele>
        <time>2020-06-25T05:27:46Z</time>
      </trkpt>
      <trkpt lat="49.97614" lon="4.34854">
        <ele>303.1</ele>
        <time>2020-06-25T05:27:47Z</time>
      </trkpt>
      <trkpt lat="49.97609" lon="4.34856">
        <ele>303.2</ele>
        <time>2020-06-25T05:27:48Z</time>
      </trkpt>
      <trkpt lat="49.97604" lon="4.34858">
        <ele>303.3</ele>
        <time>2020-06-25T05:27:49Z</time>
      </trkpt>
      <trkpt lat="49.97597" lon="4.34859">
        <ele>303.4</ele>
        <time>2020-06-25T05:27:50Z</time>
      </trkpt>
      <trkpt lat="49.97592" lon="4.34861">
        <ele>303.5</ele>
        <time>2020-06-25T05:27:51Z</time>
      </trkpt>
      <trkpt lat="49.97588" lon="4.34865">
        <ele>303.6</ele>
        <time>2020-06-25T05:27:52Z</time>
      </trkpt>
      <trkpt lat="49.97584" lon="4.34867">
        <ele>303.7</ele>
        <time>2020-06-25T05:27:53Z</time>
      </trkpt>
      <trkpt lat="49.97579" lon="4.34868">
        <ele>303.8</ele>
        <time>2020-06-25T05:27:54Z</time>
      </trkpt>
      <trkpt lat="49.97574" lon="4.34868">
        <ele>303.9</ele>
        <time>2020-06-25T05:27:55Z</time>
      </trkpt>
      <trkpt lat="49.97569" lon="4.34869">
        <ele>304</ele>
        <time>2020-06-25T05:27:56Z</time>
      </trkpt>
      <trkpt lat="49.97563" lon="4.3487">
        <ele>304.1</ele>
        <time>2020-06-25T05:27:57Z</time>
      </trkpt>
      <trkpt lat="49.97557" lon="4.34872">
        <ele>304.2</ele>
        <time>2020-06-25T05:27:58Z</time>
      </trkpt>
      <trkpt lat="49.97553" lon="4.34874">
        <ele>304.3</ele>
        <time>2020-06-25T05:27:59Z</time>
      </trkpt>
      <trkpt lat="49.97548" lon="4.34875">
        <ele>304.4</ele>
        <time>2020-06-25T05:28:00Z</time>
      </trkpt>
      <trkpt lat="49.97543" lon="4.34877">
        <ele>304.5</ele>
        <time>2020-06-25T05:28:01Z</time>
      </trkpt>
      <trkpt lat="49.97537" lon="4.34879">
        <ele>304.7</ele>
        <time>2020-06-25T05:28:02Z</time>
      </trkpt>
      <trkpt lat="49.97533" lon="4.34879">
        <ele>304.8</ele>
        <time>2020-06-25T05:28:03Z</time>
      </trkpt>
      <trkpt lat="49.97529" lon="4.3488">
        <ele>304.9</ele>
        <time>2020-06-25T05:28:04Z</time>
      </trkpt>
      <trkpt lat="49.97526" lon="4.34881">
        <ele>305</ele>
        <time>2020-06-25T05:28:05Z</time>
      </trkpt>
      <trkpt lat="49.9752" lon="4.34883">
        <ele>305.2</ele>
        <time>2020-06-25T05:28:06Z</time>
      </trkpt>
      <trkpt lat="49.97516" lon="4.34886">
        <ele>305.3</ele>
        <time>2020-06-25T05:28:07Z</time>
      </trkpt>
      <trkpt lat="49.97513" lon="4.34888">
        <ele>305.4</ele>
        <time>2020-06-25T05:28:08Z</time>
      </trkpt>
      <trkpt lat="49.9751" lon="4.34889">
        <ele>305.5</ele>
        <time>2020-06-25T05:28:09Z</time>
      </trkpt>
      <trkpt lat="49.97505" lon="4.34891">
        <ele>305.6</ele>
        <time>2020-06-25T05:28:10Z</time>
      </trkpt>
      <trkpt lat="49.97502" lon="4.34892">
        <ele>305.7</ele>
        <time>2020-06-25T05:28:11Z</time>
      </trkpt>
      <trkpt lat="49.97498" lon="4.34894">
        <ele>305.9</ele>
        <time>2020-06-25T05:28:12Z</time>
      </trkpt>
      <trkpt lat="49.97494" lon="4.34896">
        <ele>306</ele>
        <time>2020-06-25T05:28:13Z</time>
      </trkpt>
      <trkpt lat="49.9749" lon="4.34899">
        <ele>306.1</ele>
        <time>2020-06-25T05:28:14Z</time>
      </trkpt>
      <trkpt lat="49.97486" lon="4.34901">
        <ele>306.2</ele>
        <time>2020-06-25T05:28:15Z</time>
      </trkpt>
      <trkpt lat="49.97482" lon="4.34902">
        <ele>306.3</ele>
        <time>2020-06-25T05:28:16Z</time>
      </trkpt>
      <trkpt lat="49.97477" lon="4.34904">
        <ele>306.4</ele>
        <time>2020-06-25T05:28:17Z</time>
      </trkpt>
      <trkpt lat="49.97473" lon="4.34905">
        <ele>306.5</ele>
        <time>2020-06-25T05:28:18Z</time>
      </trkpt>
      <trkpt lat="49.97469" lon="4.34907">
        <ele>306.7</ele>
        <time>2020-06-25T05:28:19Z</time>
      </trkpt>
      <trkpt lat="49.97468" lon="4.34908">
        <ele>306.7</ele>
        <time>2020-06-25T05:28:20Z</time>
      </trkpt>
      <trkpt lat="49.97465" lon="4.3491">
        <ele>306.8</ele>
        <time>2020-06-25T05:28:21Z</time>
      </trkpt>
      <trkpt lat="49.97461" lon="4.34913">
        <ele>307</ele>
        <time>2020-06-25T05:28:22Z</time>
      </trkpt>
      <trkpt lat="49.97459" lon="4.34916">
        <ele>307.1</ele>
        <time>2020-06-25T05:28:23Z</time>
      </trkpt>
      <trkpt lat="49.97456" lon="4.3492">
        <ele>307.2</ele>
        <time>2020-06-25T05:28:24Z</time>
      </trkpt>
      <trkpt lat="49.97452" lon="4.34924">
        <ele>307.3</ele>
        <time>2020-06-25T05:28:25Z</time>
      </trkpt>
      <trkpt lat="49.97449" lon="4.34926">
        <ele>307.4</ele>
        <time>2020-06-25T05:28:26Z</time>
      </trkpt>
      <trkpt lat="49.97447" lon="4.34929">
        <ele>307.5</ele>
        <time>2020-06-25T05:28:27Z</time>
      </trkpt>
      <trkpt lat="49.97443" lon="4.34932">
        <ele>307.6</ele>
        <time>2020-06-25T05:28:28Z</time>
      </trkpt>
      <trkpt lat="49.97441" lon="4.34933">
        <ele>307.7</ele>
        <time>2020-06-25T05:28:29Z</time>
      </trkpt>
      <trkpt lat="49.9744" lon="4.34934">
        <ele>307.7</ele>
        <time>2020-06-25T05:28:30Z</time>
      </trkpt>
      <trkpt lat="49.97437" lon="4.34936">
        <ele>307.8</ele>
        <time>2020-06-25T05:28:31Z</time>
      </trkpt>
      <trkpt lat="49.97434" lon="4.34937">
        <ele>307.9</ele>
        <time>2020-06-25T05:28:32Z</time>
      </trkpt>
      <trkpt lat="49.97429" lon="4.34941">
        <ele>308</ele>
        <time>2020-06-25T05:28:33Z</time>
      </trkpt>
      <trkpt lat="49.97425" lon="4.34943">
        <ele>308.2</ele>
        <time>2020-06-25T05:28:34Z</time>
      </trkpt>
      <trkpt lat="49.97421" lon="4.34943">
        <ele>308.3</ele>
        <time>2020-06-25T05:28:35Z</time>
      </trkpt>
      <trkpt lat="49.97417" lon="4.34944">
        <ele>308.4</ele>
        <time>2020-06-25T05:28:36Z</time>
      </trkpt>
      <trkpt lat="49.97411" lon="4.34944">
        <ele>308.6</ele>
        <time>2020-06-25T05:28:37Z</time>
      </trkpt>
      <trkpt lat="49.97405" lon="4.34944">
        <ele>308.8</ele>
        <time>2020-06-25T05:28:38Z</time>
      </trkpt>
      <trkpt lat="49.97398" lon="4.34947">
        <ele>309</ele>
        <time>2020-06-25T05:28:39Z</time>
      </trkpt>
      <trkpt lat="49.97391" lon="4.3495">
        <ele>309.2</ele>
        <time>2020-06-25T05:28:40Z</time>
      </trkpt>
      <trkpt lat="49.97384" lon="4.34952">
        <ele>309.4</ele>
        <time>2020-06-25T05:28:41Z</time>
      </trkpt>
      <trkpt lat="49.97378" lon="4.34955">
        <ele>309.6</ele>
        <time>2020-06-25T05:28:42Z</time>
      </trkpt>
      <trkpt lat="49.97371" lon="4.34959">
        <ele>309.8</ele>
        <time>2020-06-25T05:28:43Z</time>
      </trkpt>
      <trkpt lat="49.97366" lon="4.34962">
        <ele>310</ele>
        <time>2020-06-25T05:28:44Z</time>
      </trkpt>
      <trkpt lat="49.97359" lon="4.34965">
        <ele>310.2</ele>
        <time>2020-06-25T05:28:45Z</time>
      </trkpt>
      <trkpt lat="49.97354" lon="4.34968">
        <ele>310.4</ele>
        <time>2020-06-25T05:28:46Z</time>
      </trkpt>
      <trkpt lat="49.9735" lon="4.34971">
        <ele>310.5</ele>
        <time>2020-06-25T05:28:47Z</time>
      </trkpt>
      <trkpt lat="49.97344" lon="4.34974">
        <ele>310.8</ele>
        <time>2020-06-25T05:28:48Z</time>
      </trkpt>
      <trkpt lat="49.97338" lon="4.34978">
        <ele>311</ele>
        <time>2020-06-25T05:28:49Z</time>
      </trkpt>
      <trkpt lat="49.97334" lon="4.3498">
        <ele>311.1</ele>
        <time>2020-06-25T05:28:50Z</time>
      </trkpt>
      <trkpt lat="49.97329" lon="4.34983">
        <ele>311.3</ele>
        <time>2020-06-25T05:28:51Z</time>
      </trkpt>
      <trkpt lat="49.97324" lon="4.34986">
        <ele>311.5</ele>
        <time>2020-06-25T05:28:52Z</time>
      </trkpt>
      <trkpt lat="49.97319" lon="4.34988">
        <ele>311.7</ele>
        <time>2020-06-25T05:28:53Z</time>
      </trkpt>
      <trkpt lat="49.97315" lon="4.3499">
        <ele>311.8</ele>
        <time>2020-06-25T05:28:54Z</time>
      </trkpt>
      <trkpt lat="49.9731" lon="4.34991">
        <ele>311.9</ele>
        <time>2020-06-25T05:28:55Z</time>
      </trkpt>
      <trkpt lat="49.97306" lon="4.34993">
        <ele>312.1</ele>
        <time>2020-06-25T05:28:56Z</time>
      </trkpt>
      <trkpt lat="49.97302" lon="4.34995">
        <ele>312.2</ele>
        <time>2020-06-25T05:28:57Z</time>
      </trkpt>
      <trkpt lat="49.97298" lon="4.34996">
        <ele>312.4</ele>
        <time>2020-06-25T05:28:58Z</time>
      </trkpt>
      <trkpt lat="49.97295" lon="4.34997">
        <ele>312.5</ele>
        <time>2020-06-25T05:28:59Z</time>
      </trkpt>
      <trkpt lat="49.97291" lon="4.35">
        <ele>312.7</ele>
        <time>2020-06-25T05:29:00Z</time>
      </trkpt>
      <trkpt lat="49.97287" lon="4.35002">
        <ele>312.9</ele>
        <time>2020-06-25T05:29:01Z</time>
      </trkpt>
      <trkpt lat="49.97283" lon="4.35004">
        <ele>313</ele>
        <time>2020-06-25T05:29:02Z</time>
      </trkpt>
      <trkpt lat="49.97279" lon="4.35006">
        <ele>313.2</ele>
        <time>2020-06-25T05:29:03Z</time>
      </trkpt>
      <trkpt lat="49.97274" lon="4.35008">
        <ele>313.4</ele>
        <time>2020-06-25T05:29:04Z</time>
      </trkpt>
      <trkpt lat="49.97269" lon="4.35009">
        <ele>313.6</ele>
        <time>2020-06-25T05:29:05Z</time>
      </trkpt>
      <trkpt lat="49.97266" lon="4.3501">
        <ele>313.7</ele>
        <time>2020-06-25T05:29:06Z</time>
      </trkpt>
      <trkpt lat="49.97262" lon="4.35012">
        <ele>313.9</ele>
        <time>2020-06-25T05:29:07Z</time>
      </trkpt>
      <trkpt lat="49.97258" lon="4.35013">
        <ele>314.1</ele>
        <time>2020-06-25T05:29:08Z</time>
      </trkpt>
      <trkpt lat="49.97255" lon="4.35014">
        <ele>314.2</ele>
        <time>2020-06-25T05:29:09Z</time>
      </trkpt>
      <trkpt lat="49.97252" lon="4.35016">
        <ele>314.3</ele>
        <time>2020-06-25T05:29:10Z</time>
      </trkpt>
      <trkpt lat="49.97248" lon="4.35017">
        <ele>314.5</ele>
        <time>2020-06-25T05:29:11Z</time>
      </trkpt>
      <trkpt lat="49.97243" lon="4.35019">
        <ele>314.7</ele>
        <time>2020-06-25T05:29:12Z</time>
      </trkpt>
      <trkpt lat="49.97239" lon="4.35021">
        <ele>314.9</ele>
        <time>2020-06-25T05:29:13Z</time>
      </trkpt>
      <trkpt lat="49.97235" lon="4.35022">
        <ele>315</ele>
        <time>2020-06-25T05:29:14Z</time>
      </trkpt>
      <trkpt lat="49.9723" lon="4.35023">
        <ele>315.2</ele>
        <time>2020-06-25T05:29:15Z</time>
      </trkpt>
      <trkpt lat="49.97226" lon="4.35025">
        <ele>315.4</ele>
        <time>2020-06-25T05:29:16Z</time>
      </trkpt>
      <trkpt lat="49.97221" lon="4.35028">
        <ele>315.6</ele>
        <time>2020-06-25T05:29:17Z</time>
      </trkpt>
      <trkpt lat="49.97217" lon="4.35029">
        <ele>315.8</ele>
        <time>2020-06-25T05:29:18Z</time>
      </trkpt>
      <trkpt lat="49.97214" lon="4.35031">
        <ele>316</ele>
        <time>2020-06-25T05:29:19Z</time>
      </trkpt>
      <trkpt lat="49.9721" lon="4.35033">
        <ele>316.2</ele>
        <time>2020-06-25T05:29:20Z</time>
      </trkpt>
      <trkpt lat="49.97207" lon="4.35034">
        <ele>316.3</ele>
        <time>2020-06-25T05:29:21Z</time>
      </trkpt>
      <trkpt lat="49.97203" lon="4.35036">
        <ele>316.5</ele>
        <time>2020-06-25T05:29:22Z</time>
      </trkpt>
      <trkpt lat="49.97199" lon="4.35037">
        <ele>316.6</ele>
        <time>2020-06-25T05:29:23Z</time>
      </trkpt>
      <trkpt lat="49.97195" lon="4.35038">
        <ele>316.8</ele>
        <time>2020-06-25T05:29:24Z</time>
      </trkpt>
      <trkpt lat="49.97191" lon="4.35039">
        <ele>317</ele>
        <time>2020-06-25T05:29:25Z</time>
      </trkpt>
      <trkpt lat="49.97188" lon="4.3504">
        <ele>317.2</ele>
        <time>2020-06-25T05:29:26Z</time>
      </trkpt>
      <trkpt lat="49.97185" lon="4.35041">
        <ele>317.4</ele>
        <time>2020-06-25T05:29:27Z</time>
      </trkpt>
      <trkpt lat="49.97182" lon="4.35043">
        <ele>317.5</ele>
        <time>2020-06-25T05:29:28Z</time>
      </trkpt>
      <trkpt lat="49.97178" lon="4.35044">
        <ele>317.7</ele>
        <time>2020-06-25T05:29:29Z</time>
      </trkpt>
      <trkpt lat="49.97173" lon="4.35046">
        <ele>318</ele>
        <time>2020-06-25T05:29:30Z</time>
      </trkpt>
      <trkpt lat="49.97169" lon="4.35047">
        <ele>318.2</ele>
        <time>2020-06-25T05:29:31Z</time>
      </trkpt>
      <trkpt lat="49.97166" lon="4.35048">
        <ele>318.3</ele>
        <time>2020-06-25T05:29:32Z</time>
      </trkpt>
      <trkpt lat="49.97163" lon="4.3505">
        <ele>318.5</ele>
        <time>2020-06-25T05:29:33Z</time>
      </trkpt>
      <trkpt lat="49.97159" lon="4.35051">
        <ele>318.7</ele>
        <time>2020-06-25T05:29:34Z</time>
      </trkpt>
      <trkpt lat="49.97155" lon="4.35052">
        <ele>318.9</ele>
        <time>2020-06-25T05:29:35Z</time>
      </trkpt>
      <trkpt lat="49.97152" lon="4.35053">
        <ele>319.1</ele>
        <time>2020-06-25T05:29:36Z</time>
      </trkpt>
      <trkpt lat="49.97148" lon="4.35055">
        <ele>319.3</ele>
        <time>2020-06-25T05:29:37Z</time>
      </trkpt>
      <trkpt lat="49.97145" lon="4.35056">
        <ele>319.5</ele>
        <time>2020-06-25T05:29:38Z</time>
      </trkpt>
      <trkpt lat="49.97141" lon="4.35058">
        <ele>319.7</ele>
        <time>2020-06-25T05:29:39Z</time>
      </trkpt>
      <trkpt lat="49.97137" lon="4.3506">
        <ele>320</ele>
        <time>2020-06-25T05:29:40Z</time>
      </trkpt>
      <trkpt lat="49.97134" lon="4.35062">
        <ele>320.2</ele>
        <time>2020-06-25T05:29:41Z</time>
      </trkpt>
      <trkpt lat="49.9713" lon="4.35063">
        <ele>320.4</ele>
        <time>2020-06-25T05:29:42Z</time>
      </trkpt>
      <trkpt lat="49.97126" lon="4.35065">
        <ele>320.6</ele>
        <time>2020-06-25T05:29:43Z</time>
      </trkpt>
      <trkpt lat="49.97122" lon="4.35066">
        <ele>320.8</ele>
        <time>2020-06-25T05:29:44Z</time>
      </trkpt>
      <trkpt lat="49.97119" lon="4.35068">
        <ele>321.1</ele>
        <time>2020-06-25T05:29:45Z</time>
      </trkpt>
      <trkpt lat="49.97115" lon="4.35071">
        <ele>321.3</ele>
        <time>2020-06-25T05:29:46Z</time>
      </trkpt>
      <trkpt lat="49.97111" lon="4.35073">
        <ele>321.6</ele>
        <time>2020-06-25T05:29:47Z</time>
      </trkpt>
      <trkpt lat="49.97107" lon="4.35075">
        <ele>321.8</ele>
        <time>2020-06-25T05:29:48Z</time>
      </trkpt>
      <trkpt lat="49.97104" lon="4.35076">
        <ele>321.9</ele>
        <time>2020-06-25T05:29:49Z</time>
      </trkpt>
      <trkpt lat="49.971" lon="4.35078">
        <ele>322.2</ele>
        <time>2020-06-25T05:29:50Z</time>
      </trkpt>
      <trkpt lat="49.97096" lon="4.35079">
        <ele>322.4</ele>
        <time>2020-06-25T05:29:51Z</time>
      </trkpt>
      <trkpt lat="49.97093" lon="4.35081">
        <ele>322.6</ele>
        <time>2020-06-25T05:29:52Z</time>
      </trkpt>
      <trkpt lat="49.97089" lon="4.35083">
        <ele>322.8</ele>
        <time>2020-06-25T05:29:53Z</time>
      </trkpt>
      <trkpt lat="49.97085" lon="4.35085">
        <ele>323</ele>
        <time>2020-06-25T05:29:54Z</time>
      </trkpt>
      <trkpt lat="49.97082" lon="4.35087">
        <ele>323.2</ele>
        <time>2020-06-25T05:29:55Z</time>
      </trkpt>
      <trkpt lat="49.97078" lon="4.35089">
        <ele>323.4</ele>
        <time>2020-06-25T05:29:56Z</time>
      </trkpt>
      <trkpt lat="49.97073" lon="4.35091">
        <ele>323.7</ele>
        <time>2020-06-25T05:29:57Z</time>
      </trkpt>
      <trkpt lat="49.9707" lon="4.35092">
        <ele>323.9</ele>
        <time>2020-06-25T05:29:58Z</time>
      </trkpt>
      <trkpt lat="49.97066" lon="4.35093">
        <ele>324.1</ele>
        <time>2020-06-25T05:29:59Z</time>
      </trkpt>
      <trkpt lat="49.97063" lon="4.35094">
        <ele>324.2</ele>
        <time>2020-06-25T05:30:00Z</time>
      </trkpt>
      <trkpt lat="49.9706" lon="4.35095">
        <ele>324.4</ele>
        <time>2020-06-25T05:30:01Z</time>
      </trkpt>
      <trkpt lat="49.97056" lon="4.35096">
        <ele>324.6</ele>
        <time>2020-06-25T05:30:02Z</time>
      </trkpt>
      <trkpt lat="49.97053" lon="4.35097">
        <ele>324.7</ele>
        <time>2020-06-25T05:30:03Z</time>
      </trkpt>
      <trkpt lat="49.9705" lon="4.35099">
        <ele>324.9</ele>
        <time>2020-06-25T05:30:04Z</time>
      </trkpt>
      <trkpt lat="49.97047" lon="4.35101">
        <ele>325</ele>
        <time>2020-06-25T05:30:05Z</time>
      </trkpt>
      <trkpt lat="49.97044" lon="4.35103">
        <ele>325.2</ele>
        <time>2020-06-25T05:30:06Z</time>
      </trkpt>
      <trkpt lat="49.9704" lon="4.35105">
        <ele>325.3</ele>
        <time>2020-06-25T05:30:07Z</time>
      </trkpt>
      <trkpt lat="49.97037" lon="4.35105">
        <ele>325.5</ele>
        <time>2020-06-25T05:30:08Z</time>
      </trkpt>
      <trkpt lat="49.97034" lon="4.35107">
        <ele>325.6</ele>
        <time>2020-06-25T05:30:09Z</time>
      </trkpt>
      <trkpt lat="49.9703" lon="4.35108">
        <ele>325.8</ele>
        <time>2020-06-25T05:30:10Z</time>
      </trkpt>
      <trkpt lat="49.97026" lon="4.35109">
        <ele>325.9</ele>
        <time>2020-06-25T05:30:11Z</time>
      </trkpt>
      <trkpt lat="49.97022" lon="4.35111">
        <ele>326</ele>
        <time>2020-06-25T05:30:12Z</time>
      </trkpt>
      <trkpt lat="49.97019" lon="4.35113">
        <ele>326.1</ele>
        <time>2020-06-25T05:30:13Z</time>
      </trkpt>
      <trkpt lat="49.97016" lon="4.35115">
        <ele>326.2</ele>
        <time>2020-06-25T05:30:14Z</time>
      </trkpt>
      <trkpt lat="49.97012" lon="4.35118">
        <ele>326.3</ele>
        <time>2020-06-25T05:30:15Z</time>
      </trkpt>
      <trkpt lat="49.97009" lon="4.3512">
        <ele>326.3</ele>
        <time>2020-06-25T05:30:16Z</time>
      </trkpt>
      <trkpt lat="49.97005" lon="4.35121">
        <ele>326.4</ele>
        <time>2020-06-25T05:30:17Z</time>
      </trkpt>
      <trkpt lat="49.97002" lon="4.35122">
        <ele>326.5</ele>
        <time>2020-06-25T05:30:18Z</time>
      </trkpt>
      <trkpt lat="49.96998" lon="4.35123">
        <ele>326.5</ele>
        <time>2020-06-25T05:30:19Z</time>
      </trkpt>
      <trkpt lat="49.96994" lon="4.35124">
        <ele>326.6</ele>
        <time>2020-06-25T05:30:20Z</time>
      </trkpt>
      <trkpt lat="49.96991" lon="4.35127">
        <ele>326.6</ele>
        <time>2020-06-25T05:30:21Z</time>
      </trkpt>
      <trkpt lat="49.96987" lon="4.35128">
        <ele>326.7</ele>
        <time>2020-06-25T05:30:22Z</time>
      </trkpt>
      <trkpt lat="49.96983" lon="4.35128">
        <ele>326.7</ele>
        <time>2020-06-25T05:30:23Z</time>
      </trkpt>
      <trkpt lat="49.9698" lon="4.35128">
        <ele>326.7</ele>
        <time>2020-06-25T05:30:24Z</time>
      </trkpt>
      <trkpt lat="49.96977" lon="4.35129">
        <ele>326.8</ele>
        <time>2020-06-25T05:30:25Z</time>
      </trkpt>
      <trkpt lat="49.96973" lon="4.3513">
        <ele>326.8</ele>
        <time>2020-06-25T05:30:26Z</time>
      </trkpt>
      <trkpt lat="49.96971" lon="4.35131">
        <ele>326.8</ele>
        <time>2020-06-25T05:30:27Z</time>
      </trkpt>
      <trkpt lat="49.96968" lon="4.35132">
        <ele>326.8</ele>
        <time>2020-06-25T05:30:28Z</time>
      </trkpt>
      <trkpt lat="49.96964" lon="4.35133">
        <ele>326.8</ele>
        <time>2020-06-25T05:30:29Z</time>
      </trkpt>
      <trkpt lat="49.9696" lon="4.35134">
        <ele>326.7</ele>
        <time>2020-06-25T05:30:30Z</time>
      </trkpt>
      <trkpt lat="49.96957" lon="4.35135">
        <ele>326.7</ele>
        <time>2020-06-25T05:30:31Z</time>
      </trkpt>
      <trkpt lat="49.96953" lon="4.35135">
        <ele>326.7</ele>
        <time>2020-06-25T05:30:32Z</time>
      </trkpt>
      <trkpt lat="49.96952" lon="4.35135">
        <ele>326.7</ele>
        <time>2020-06-25T05:30:33Z</time>
      </trkpt>
      <trkpt lat="49.9695" lon="4.35137">
        <ele>326.6</ele>
        <time>2020-06-25T05:30:34Z</time>
      </trkpt>
      <trkpt lat="49.96946" lon="4.35138">
        <ele>326.6</ele>
        <time>2020-06-25T05:30:35Z</time>
      </trkpt>
      <trkpt lat="49.96943" lon="4.3514">
        <ele>326.6</ele>
        <time>2020-06-25T05:30:36Z</time>
      </trkpt>
      <trkpt lat="49.96941" lon="4.35142">
        <ele>326.6</ele>
        <time>2020-06-25T05:30:37Z</time>
      </trkpt>
      <trkpt lat="49.96939" lon="4.35146">
        <ele>326.6</ele>
        <time>2020-06-25T05:30:38Z</time>
      </trkpt>
      <trkpt lat="49.96937" lon="4.3515">
        <ele>326.6</ele>
        <time>2020-06-25T05:30:39Z</time>
      </trkpt>
      <trkpt lat="49.96936" lon="4.35155">
        <ele>326.6</ele>
        <time>2020-06-25T05:30:40Z</time>
      </trkpt>
      <trkpt lat="49.96935" lon="4.35156">
        <ele>326.6</ele>
        <time>2020-06-25T05:30:41Z</time>
      </trkpt>
      <trkpt lat="49.96935" lon="4.35157">
        <ele>326.6</ele>
        <time>2020-06-25T05:30:42Z</time>
      </trkpt>
      <trkpt lat="49.96935" lon="4.35159">
        <ele>326.6</ele>
        <time>2020-06-25T05:30:43Z</time>
      </trkpt>
      <trkpt lat="49.96935" lon="4.35159">
        <ele>326.6</ele>
        <time>2020-06-25T05:30:44Z</time>
      </trkpt>
      <trkpt lat="49.96935" lon="4.35159">
        <ele>326.6</ele>
        <time>2020-06-25T05:30:45Z</time>
      </trkpt>
      <trkpt lat="49.96935" lon="4.35158">
        <ele>326.6</ele>
        <time>2020-06-25T05:30:46Z</time>
      </trkpt>
      <trkpt lat="49.96935" lon="4.35158">
        <ele>326.6</ele>
        <time>2020-06-25T05:30:47Z</time>
      </trkpt>
      <trkpt lat="49.96935" lon="4.35159">
        <ele>326.6</ele>
        <time>2020-06-25T05:30:48Z</time>
      </trkpt>
      <trkpt lat="49.96935" lon="4.35159">
        <ele>326.6</ele>
        <time>2020-06-25T05:30:49Z</time>
      </trkpt>
      <trkpt lat="49.96935" lon="4.35159">
        <ele>326.6</ele>
        <time>2020-06-25T05:30:50Z</time>
      </trkpt>
      <trkpt lat="49.96935" lon="4.35158">
        <ele>326.6</ele>
        <time>2020-06-25T05:30:51Z</time>
      </trkpt>
      <trkpt lat="49.96936" lon="4.35158">
        <ele>326.6</ele>
        <time>2020-06-25T05:30:52Z</time>
      </trkpt>
      <trkpt lat="49.96936" lon="4.35161">
        <ele>326.6</ele>
        <time>2020-06-25T05:30:53Z</time>
      </trkpt>
      <trkpt lat="49.96936" lon="4.35164">
        <ele>326.6</ele>
        <time>2020-06-25T05:30:54Z</time>
      </trkpt>
      <trkpt lat="49.96936" lon="4.35166">
        <ele>326.6</ele>
        <time>2020-06-25T05:30:55Z</time>
      </trkpt>
      <trkpt lat="49.96935" lon="4.35167">
        <ele>326.6</ele>
        <time>2020-06-25T05:30:56Z</time>
      </trkpt>
      <trkpt lat="49.96935" lon="4.35169">
        <ele>326.6</ele>
        <time>2020-06-25T05:30:57Z</time>
      </trkpt>
      <trkpt lat="49.96935" lon="4.35169">
        <ele>326.6</ele>
        <time>2020-06-25T05:30:58Z</time>
      </trkpt>
      <trkpt lat="49.96936" lon="4.35168">
        <ele>326.6</ele>
        <time>2020-06-25T05:30:59Z</time>
      </trkpt>
      <trkpt lat="49.96936" lon="4.35167">
        <ele>326.6</ele>
        <time>2020-06-25T05:31:00Z</time>
      </trkpt>
      <trkpt lat="49.96936" lon="4.35168">
        <ele>326.7</ele>
        <time>2020-06-25T05:31:01Z</time>
      </trkpt>
      <trkpt lat="49.96936" lon="4.35168">
        <ele>326.7</ele>
        <time>2020-06-25T05:31:02Z</time>
      </trkpt>
      <trkpt lat="49.96935" lon="4.35169">
        <ele>326.7</ele>
        <time>2020-06-25T05:31:03Z</time>
      </trkpt>
      <trkpt lat="49.96935" lon="4.35169">
        <ele>326.7</ele>
        <time>2020-06-25T05:31:04Z</time>
      </trkpt>
      <trkpt lat="49.96936" lon="4.35169">
        <ele>326.7</ele>
        <time>2020-06-25T05:31:05Z</time>
      </trkpt>
      <trkpt lat="49.96934" lon="4.35173">
        <ele>326.7</ele>
        <time>2020-06-25T05:37:59Z</time>
      </trkpt>
      <trkpt lat="49.96934" lon="4.35174">
        <ele>326.7</ele>
        <time>2020-06-25T05:38:00Z</time>
      </trkpt>
      <trkpt lat="49.96934" lon="4.35176">
        <ele>326.7</ele>
        <time>2020-06-25T05:38:01Z</time>
      </trkpt>
      <trkpt lat="49.96934" lon="4.35179">
        <ele>326.7</ele>
        <time>2020-06-25T05:38:02Z</time>
      </trkpt>
      <trkpt lat="49.96934" lon="4.3518">
        <ele>326.7</ele>
        <time>2020-06-25T05:38:03Z</time>
      </trkpt>
      <trkpt lat="49.96934" lon="4.35182">
        <ele>326.7</ele>
        <time>2020-06-25T05:38:04Z</time>
      </trkpt>
      <trkpt lat="49.96933" lon="4.35185">
        <ele>326.8</ele>
        <time>2020-06-25T05:38:05Z</time>
      </trkpt>
      <trkpt lat="49.96933" lon="4.35187">
        <ele>326.8</ele>
        <time>2020-06-25T05:38:06Z</time>
      </trkpt>
      <trkpt lat="49.96933" lon="4.35189">
        <ele>326.8</ele>
        <time>2020-06-25T05:38:07Z</time>
      </trkpt>
      <trkpt lat="49.96932" lon="4.35193">
        <ele>326.8</ele>
        <time>2020-06-25T05:38:08Z</time>
      </trkpt>
      <trkpt lat="49.96931" lon="4.35198">
        <ele>326.8</ele>
        <time>2020-06-25T05:38:09Z</time>
      </trkpt>
      <trkpt lat="49.96931" lon="4.35203">
        <ele>326.9</ele>
        <time>2020-06-25T05:38:10Z</time>
      </trkpt>
      <trkpt lat="49.9693" lon="4.35209">
        <ele>326.9</ele>
        <time>2020-06-25T05:38:11Z</time>
      </trkpt>
      <trkpt lat="49.9693" lon="4.35214">
        <ele>326.9</ele>
        <time>2020-06-25T05:38:12Z</time>
      </trkpt>
      <trkpt lat="49.96929" lon="4.3522">
        <ele>326.9</ele>
        <time>2020-06-25T05:38:13Z</time>
      </trkpt>
      <trkpt lat="49.96928" lon="4.35226">
        <ele>327</ele>
        <time>2020-06-25T05:38:14Z</time>
      </trkpt>
      <trkpt lat="49.96927" lon="4.35231">
        <ele>327</ele>
        <time>2020-06-25T05:38:15Z</time>
      </trkpt>
      <trkpt lat="49.96927" lon="4.35238">
        <ele>327</ele>
        <time>2020-06-25T05:38:16Z</time>
      </trkpt>
      <trkpt lat="49.96926" lon="4.35245">
        <ele>327</ele>
        <time>2020-06-25T05:38:17Z</time>
      </trkpt>
      <trkpt lat="49.96925" lon="4.35252">
        <ele>327.1</ele>
        <time>2020-06-25T05:38:18Z</time>
      </trkpt>
      <trkpt lat="49.96924" lon="4.3526">
        <ele>327.1</ele>
        <time>2020-06-25T05:38:19Z</time>
      </trkpt>
      <trkpt lat="49.96923" lon="4.35266">
        <ele>327.2</ele>
        <time>2020-06-25T05:38:20Z</time>
      </trkpt>
      <trkpt lat="49.96923" lon="4.35272">
        <ele>327.2</ele>
        <time>2020-06-25T05:38:21Z</time>
      </trkpt>
      <trkpt lat="49.96922" lon="4.35278">
        <ele>327.2</ele>
        <time>2020-06-25T05:38:22Z</time>
      </trkpt>
      <trkpt lat="49.96921" lon="4.35285">
        <ele>327.3</ele>
        <time>2020-06-25T05:38:23Z</time>
      </trkpt>
      <trkpt lat="49.96921" lon="4.35291">
        <ele>327.3</ele>
        <time>2020-06-25T05:38:24Z</time>
      </trkpt>
      <trkpt lat="49.9692" lon="4.35298">
        <ele>327.4</ele>
        <time>2020-06-25T05:38:25Z</time>
      </trkpt>
      <trkpt lat="49.96919" lon="4.35304">
        <ele>327.4</ele>
        <time>2020-06-25T05:38:26Z</time>
      </trkpt>
      <trkpt lat="49.96918" lon="4.3531">
        <ele>327.5</ele>
        <time>2020-06-25T05:38:27Z</time>
      </trkpt>
      <trkpt lat="49.96918" lon="4.35317">
        <ele>327.5</ele>
        <time>2020-06-25T05:38:28Z</time>
      </trkpt>
      <trkpt lat="49.96917" lon="4.35323">
        <ele>327.6</ele>
        <time>2020-06-25T05:38:29Z</time>
      </trkpt>
      <trkpt lat="49.96915" lon="4.35329">
        <ele>327.6</ele>
        <time>2020-06-25T05:38:30Z</time>
      </trkpt>
      <trkpt lat="49.96914" lon="4.35336">
        <ele>327.6</ele>
        <time>2020-06-25T05:38:31Z</time>
      </trkpt>
      <trkpt lat="49.96913" lon="4.35343">
        <ele>327.7</ele>
        <time>2020-06-25T05:38:32Z</time>
      </trkpt>
      <trkpt lat="49.96912" lon="4.3535">
        <ele>327.7</ele>
        <time>2020-06-25T05:38:33Z</time>
      </trkpt>
      <trkpt lat="49.96911" lon="4.35357">
        <ele>327.7</ele>
        <time>2020-06-25T05:38:34Z</time>
      </trkpt>
      <trkpt lat="49.9691" lon="4.35364">
        <ele>327.8</ele>
        <time>2020-06-25T05:38:35Z</time>
      </trkpt>
      <trkpt lat="49.96909" lon="4.3537">
        <ele>327.8</ele>
        <time>2020-06-25T05:38:36Z</time>
      </trkpt>
      <trkpt lat="49.96908" lon="4.35377">
        <ele>327.8</ele>
        <time>2020-06-25T05:38:37Z</time>
      </trkpt>
      <trkpt lat="49.96907" lon="4.35383">
        <ele>327.8</ele>
        <time>2020-06-25T05:38:38Z</time>
      </trkpt>
      <trkpt lat="49.96907" lon="4.3539">
        <ele>327.8</ele>
        <time>2020-06-25T05:38:39Z</time>
      </trkpt>
      <trkpt lat="49.96906" lon="4.35397">
        <ele>327.8</ele>
        <time>2020-06-25T05:38:40Z</time>
      </trkpt>
      <trkpt lat="49.96905" lon="4.35402">
        <ele>327.9</ele>
        <time>2020-06-25T05:38:41Z</time>
      </trkpt>
      <trkpt lat="49.96904" lon="4.35408">
        <ele>327.9</ele>
        <time>2020-06-25T05:38:42Z</time>
      </trkpt>
      <trkpt lat="49.96903" lon="4.35414">
        <ele>327.9</ele>
        <time>2020-06-25T05:38:43Z</time>
      </trkpt>
      <trkpt lat="49.96902" lon="4.3542">
        <ele>327.9</ele>
        <time>2020-06-25T05:38:44Z</time>
      </trkpt>
      <trkpt lat="49.96901" lon="4.35428">
        <ele>327.9</ele>
        <time>2020-06-25T05:38:45Z</time>
      </trkpt>
      <trkpt lat="49.96901" lon="4.35434">
        <ele>327.9</ele>
        <time>2020-06-25T05:38:46Z</time>
      </trkpt>
      <trkpt lat="49.969" lon="4.35441">
        <ele>328</ele>
        <time>2020-06-25T05:38:47Z</time>
      </trkpt>
      <trkpt lat="49.96899" lon="4.35447">
        <ele>328</ele>
        <time>2020-06-25T05:38:48Z</time>
      </trkpt>
      <trkpt lat="49.96899" lon="4.35453">
        <ele>328</ele>
        <time>2020-06-25T05:38:49Z</time>
      </trkpt>
      <trkpt lat="49.96899" lon="4.3546">
        <ele>328</ele>
        <time>2020-06-25T05:38:50Z</time>
      </trkpt>
      <trkpt lat="49.96898" lon="4.35467">
        <ele>328</ele>
        <time>2020-06-25T05:38:51Z</time>
      </trkpt>
      <trkpt lat="49.96897" lon="4.35474">
        <ele>328</ele>
        <time>2020-06-25T05:38:52Z</time>
      </trkpt>
      <trkpt lat="49.96896" lon="4.3548">
        <ele>328</ele>
        <time>2020-06-25T05:38:53Z</time>
      </trkpt>
      <trkpt lat="49.96896" lon="4.35487">
        <ele>328</ele>
        <time>2020-06-25T05:38:54Z</time>
      </trkpt>
      <trkpt lat="49.96896" lon="4.35493">
        <ele>328</ele>
        <time>2020-06-25T05:38:55Z</time>
      </trkpt>
      <trkpt lat="49.96895" lon="4.35499">
        <ele>328</ele>
        <time>2020-06-25T05:38:56Z</time>
      </trkpt>
      <trkpt lat="49.96894" lon="4.35505">
        <ele>328</ele>
        <time>2020-06-25T05:38:57Z</time>
      </trkpt>
      <trkpt lat="49.96893" lon="4.35511">
        <ele>328</ele>
        <time>2020-06-25T05:38:58Z</time>
      </trkpt>
      <trkpt lat="49.96892" lon="4.35516">
        <ele>328</ele>
        <time>2020-06-25T05:38:59Z</time>
      </trkpt>
      <trkpt lat="49.96891" lon="4.35521">
        <ele>328.1</ele>
        <time>2020-06-25T05:39:00Z</time>
      </trkpt>
      <trkpt lat="49.96891" lon="4.35527">
        <ele>328.1</ele>
        <time>2020-06-25T05:39:01Z</time>
      </trkpt>
      <trkpt lat="49.9689" lon="4.35532">
        <ele>328.1</ele>
        <time>2020-06-25T05:39:02Z</time>
      </trkpt>
      <trkpt lat="49.96889" lon="4.35537">
        <ele>328.1</ele>
        <time>2020-06-25T05:39:03Z</time>
      </trkpt>
      <trkpt lat="49.96888" lon="4.35541">
        <ele>328.1</ele>
        <time>2020-06-25T05:39:04Z</time>
      </trkpt>
      <trkpt lat="49.96887" lon="4.35546">
        <ele>328.1</ele>
        <time>2020-06-25T05:39:05Z</time>
      </trkpt>
      <trkpt lat="49.96887" lon="4.35552">
        <ele>328.1</ele>
        <time>2020-06-25T05:39:06Z</time>
      </trkpt>
      <trkpt lat="49.96887" lon="4.35559">
        <ele>328.1</ele>
        <time>2020-06-25T05:39:07Z</time>
      </trkpt>
      <trkpt lat="49.96887" lon="4.35566">
        <ele>328.1</ele>
        <time>2020-06-25T05:39:08Z</time>
      </trkpt>
      <trkpt lat="49.96886" lon="4.35573">
        <ele>328</ele>
        <time>2020-06-25T05:39:09Z</time>
      </trkpt>
      <trkpt lat="49.96886" lon="4.35581">
        <ele>328</ele>
        <time>2020-06-25T05:39:10Z</time>
      </trkpt>
      <trkpt lat="49.96885" lon="4.35587">
        <ele>328</ele>
        <time>2020-06-25T05:39:11Z</time>
      </trkpt>
      <trkpt lat="49.96885" lon="4.35594">
        <ele>327.9</ele>
        <time>2020-06-25T05:39:12Z</time>
      </trkpt>
      <trkpt lat="49.96885" lon="4.35601">
        <ele>327.9</ele>
        <time>2020-06-25T05:39:13Z</time>
      </trkpt>
      <trkpt lat="49.96884" lon="4.35607">
        <ele>327.9</ele>
        <time>2020-06-25T05:39:14Z</time>
      </trkpt>
      <trkpt lat="49.96884" lon="4.35613">
        <ele>327.9</ele>
        <time>2020-06-25T05:39:15Z</time>
      </trkpt>
      <trkpt lat="49.96883" lon="4.35619">
        <ele>327.9</ele>
        <time>2020-06-25T05:39:16Z</time>
      </trkpt>
      <trkpt lat="49.96882" lon="4.35625">
        <ele>327.9</ele>
        <time>2020-06-25T05:39:17Z</time>
      </trkpt>
      <trkpt lat="49.96881" lon="4.35631">
        <ele>328</ele>
        <time>2020-06-25T05:39:18Z</time>
      </trkpt>
      <trkpt lat="49.9688" lon="4.35637">
        <ele>328.1</ele>
        <time>2020-06-25T05:39:19Z</time>
      </trkpt>
      <trkpt lat="49.96879" lon="4.35643">
        <ele>328.2</ele>
        <time>2020-06-25T05:39:20Z</time>
      </trkpt>
      <trkpt lat="49.96878" lon="4.35649">
        <ele>328.2</ele>
        <time>2020-06-25T05:39:21Z</time>
      </trkpt>
      <trkpt lat="49.96877" lon="4.35656">
        <ele>328.3</ele>
        <time>2020-06-25T05:39:22Z</time>
      </trkpt>
      <trkpt lat="49.96876" lon="4.35662">
        <ele>328.3</ele>
        <time>2020-06-25T05:39:23Z</time>
      </trkpt>
      <trkpt lat="49.96875" lon="4.35669">
        <ele>328.3</ele>
        <time>2020-06-25T05:39:24Z</time>
      </trkpt>
      <trkpt lat="49.96875" lon="4.35675">
        <ele>328.4</ele>
        <time>2020-06-25T05:39:25Z</time>
      </trkpt>
      <trkpt lat="49.96873" lon="4.35682">
        <ele>328.4</ele>
        <time>2020-06-25T05:39:26Z</time>
      </trkpt>
      <trkpt lat="49.96873" lon="4.3569">
        <ele>328.5</ele>
        <time>2020-06-25T05:39:27Z</time>
      </trkpt>
      <trkpt lat="49.96873" lon="4.35698">
        <ele>328.6</ele>
        <time>2020-06-25T05:39:28Z</time>
      </trkpt>
      <trkpt lat="49.96873" lon="4.35705">
        <ele>328.7</ele>
        <time>2020-06-25T05:39:29Z</time>
      </trkpt>
      <trkpt lat="49.96873" lon="4.35712">
        <ele>328.7</ele>
        <time>2020-06-25T05:39:30Z</time>
      </trkpt>
      <trkpt lat="49.96873" lon="4.3572">
        <ele>328.8</ele>
        <time>2020-06-25T05:39:31Z</time>
      </trkpt>
      <trkpt lat="49.96873" lon="4.35726">
        <ele>328.9</ele>
        <time>2020-06-25T05:39:32Z</time>
      </trkpt>
      <trkpt lat="49.96873" lon="4.35735">
        <ele>329</ele>
        <time>2020-06-25T05:39:33Z</time>
      </trkpt>
      <trkpt lat="49.96872" lon="4.35741">
        <ele>329</ele>
        <time>2020-06-25T05:39:34Z</time>
      </trkpt>
      <trkpt lat="49.96872" lon="4.35747">
        <ele>329.1</ele>
        <time>2020-06-25T05:39:35Z</time>
      </trkpt>
      <trkpt lat="49.96871" lon="4.35754">
        <ele>329.1</ele>
        <time>2020-06-25T05:39:36Z</time>
      </trkpt>
      <trkpt lat="49.9687" lon="4.35761">
        <ele>329.2</ele>
        <time>2020-06-25T05:39:37Z</time>
      </trkpt>
      <trkpt lat="49.96869" lon="4.35769">
        <ele>329.3</ele>
        <time>2020-06-25T05:39:38Z</time>
      </trkpt>
      <trkpt lat="49.96868" lon="4.35776">
        <ele>329.3</ele>
        <time>2020-06-25T05:39:39Z</time>
      </trkpt>
      <trkpt lat="49.96868" lon="4.35784">
        <ele>329.4</ele>
        <time>2020-06-25T05:39:40Z</time>
      </trkpt>
      <trkpt lat="49.96868" lon="4.35791">
        <ele>329.5</ele>
        <time>2020-06-25T05:39:41Z</time>
      </trkpt>
      <trkpt lat="49.96867" lon="4.35797">
        <ele>329.6</ele>
        <time>2020-06-25T05:39:42Z</time>
      </trkpt>
      <trkpt lat="49.96867" lon="4.35804">
        <ele>329.6</ele>
        <time>2020-06-25T05:39:43Z</time>
      </trkpt>
      <trkpt lat="49.96866" lon="4.3581">
        <ele>329.7</ele>
        <time>2020-06-25T05:39:44Z</time>
      </trkpt>
      <trkpt lat="49.96866" lon="4.35817">
        <ele>329.8</ele>
        <time>2020-06-25T05:39:45Z</time>
      </trkpt>
      <trkpt lat="49.96866" lon="4.35824">
        <ele>329.8</ele>
        <time>2020-06-25T05:39:46Z</time>
      </trkpt>
      <trkpt lat="49.96867" lon="4.35832">
        <ele>329.9</ele>
        <time>2020-06-25T05:39:47Z</time>
      </trkpt>
      <trkpt lat="49.96866" lon="4.3584">
        <ele>329.9</ele>
        <time>2020-06-25T05:39:48Z</time>
      </trkpt>
      <trkpt lat="49.96866" lon="4.35846">
        <ele>330</ele>
        <time>2020-06-25T05:39:49Z</time>
      </trkpt>
      <trkpt lat="49.96866" lon="4.35853">
        <ele>330</ele>
        <time>2020-06-25T05:39:50Z</time>
      </trkpt>
      <trkpt lat="49.96865" lon="4.35859">
        <ele>330.1</ele>
        <time>2020-06-25T05:39:51Z</time>
      </trkpt>
      <trkpt lat="49.96865" lon="4.35866">
        <ele>330.1</ele>
        <time>2020-06-25T05:39:52Z</time>
      </trkpt>
      <trkpt lat="49.96864" lon="4.35874">
        <ele>330.2</ele>
        <time>2020-06-25T05:39:53Z</time>
      </trkpt>
      <trkpt lat="49.96863" lon="4.35881">
        <ele>330.3</ele>
        <time>2020-06-25T05:39:54Z</time>
      </trkpt>
      <trkpt lat="49.96862" lon="4.35889">
        <ele>330.4</ele>
        <time>2020-06-25T05:39:55Z</time>
      </trkpt>
      <trkpt lat="49.96861" lon="4.35897">
        <ele>330.5</ele>
        <time>2020-06-25T05:39:56Z</time>
      </trkpt>
      <trkpt lat="49.96859" lon="4.35904">
        <ele>330.6</ele>
        <time>2020-06-25T05:39:57Z</time>
      </trkpt>
      <trkpt lat="49.96859" lon="4.35911">
        <ele>330.6</ele>
        <time>2020-06-25T05:39:58Z</time>
      </trkpt>
      <trkpt lat="49.96858" lon="4.35918">
        <ele>330.7</ele>
        <time>2020-06-25T05:39:59Z</time>
      </trkpt>
      <trkpt lat="49.96857" lon="4.35925">
        <ele>330.8</ele>
        <time>2020-06-25T05:40:00Z</time>
      </trkpt>
      <trkpt lat="49.96856" lon="4.35932">
        <ele>330.9</ele>
        <time>2020-06-25T05:40:01Z</time>
      </trkpt>
      <trkpt lat="49.96855" lon="4.35938">
        <ele>331</ele>
        <time>2020-06-25T05:40:02Z</time>
      </trkpt>
      <trkpt lat="49.96854" lon="4.35945">
        <ele>331.1</ele>
        <time>2020-06-25T05:40:03Z</time>
      </trkpt>
      <trkpt lat="49.96853" lon="4.35952">
        <ele>331.2</ele>
        <time>2020-06-25T05:40:04Z</time>
      </trkpt>
      <trkpt lat="49.96851" lon="4.35959">
        <ele>331.4</ele>
        <time>2020-06-25T05:40:05Z</time>
      </trkpt>
      <trkpt lat="49.9685" lon="4.35966">
        <ele>331.5</ele>
        <time>2020-06-25T05:40:06Z</time>
      </trkpt>
      <trkpt lat="49.96849" lon="4.35974">
        <ele>331.6</ele>
        <time>2020-06-25T05:40:07Z</time>
      </trkpt>
      <trkpt lat="49.96847" lon="4.35981">
        <ele>331.7</ele>
        <time>2020-06-25T05:40:08Z</time>
      </trkpt>
      <trkpt lat="49.96845" lon="4.35987">
        <ele>331.8</ele>
        <time>2020-06-25T05:40:09Z</time>
      </trkpt>
      <trkpt lat="49.96843" lon="4.35993">
        <ele>331.9</ele>
        <time>2020-06-25T05:40:10Z</time>
      </trkpt>
      <trkpt lat="49.96841" lon="4.36">
        <ele>331.9</ele>
        <time>2020-06-25T05:40:11Z</time>
      </trkpt>
      <trkpt lat="49.9684" lon="4.36006">
        <ele>332</ele>
        <time>2020-06-25T05:40:12Z</time>
      </trkpt>
      <trkpt lat="49.96838" lon="4.36011">
        <ele>332.1</ele>
        <time>2020-06-25T05:40:13Z</time>
      </trkpt>
      <trkpt lat="49.96836" lon="4.36017">
        <ele>332.1</ele>
        <time>2020-06-25T05:40:14Z</time>
      </trkpt>
      <trkpt lat="49.96834" lon="4.36023">
        <ele>332.2</ele>
        <time>2020-06-25T05:40:15Z</time>
      </trkpt>
      <trkpt lat="49.96832" lon="4.3603">
        <ele>332.2</ele>
        <time>2020-06-25T05:40:16Z</time>
      </trkpt>
      <trkpt lat="49.9683" lon="4.36036">
        <ele>332.3</ele>
        <time>2020-06-25T05:40:17Z</time>
      </trkpt>
      <trkpt lat="49.96827" lon="4.36043">
        <ele>332.3</ele>
        <time>2020-06-25T05:40:18Z</time>
      </trkpt>
      <trkpt lat="49.96825" lon="4.36051">
        <ele>332.4</ele>
        <time>2020-06-25T05:40:19Z</time>
      </trkpt>
      <trkpt lat="49.96822" lon="4.36058">
        <ele>332.5</ele>
        <time>2020-06-25T05:40:20Z</time>
      </trkpt>
      <trkpt lat="49.9682" lon="4.36064">
        <ele>332.5</ele>
        <time>2020-06-25T05:40:21Z</time>
      </trkpt>
      <trkpt lat="49.96817" lon="4.3607">
        <ele>332.6</ele>
        <time>2020-06-25T05:40:22Z</time>
      </trkpt>
      <trkpt lat="49.96815" lon="4.36077">
        <ele>332.7</ele>
        <time>2020-06-25T05:40:23Z</time>
      </trkpt>
      <trkpt lat="49.96813" lon="4.36083">
        <ele>332.8</ele>
        <time>2020-06-25T05:40:24Z</time>
      </trkpt>
      <trkpt lat="49.96811" lon="4.36089">
        <ele>332.9</ele>
        <time>2020-06-25T05:40:25Z</time>
      </trkpt>
      <trkpt lat="49.96809" lon="4.36096">
        <ele>333</ele>
        <time>2020-06-25T05:40:26Z</time>
      </trkpt>
      <trkpt lat="49.96808" lon="4.36103">
        <ele>333.2</ele>
        <time>2020-06-25T05:40:27Z</time>
      </trkpt>
      <trkpt lat="49.96806" lon="4.36109">
        <ele>333.3</ele>
        <time>2020-06-25T05:40:28Z</time>
      </trkpt>
      <trkpt lat="49.96803" lon="4.36115">
        <ele>333.4</ele>
        <time>2020-06-25T05:40:29Z</time>
      </trkpt>
      <trkpt lat="49.96802" lon="4.36121">
        <ele>333.6</ele>
        <time>2020-06-25T05:40:30Z</time>
      </trkpt>
      <trkpt lat="49.96801" lon="4.36127">
        <ele>333.7</ele>
        <time>2020-06-25T05:40:31Z</time>
      </trkpt>
      <trkpt lat="49.968" lon="4.36134">
        <ele>333.7</ele>
        <time>2020-06-25T05:40:32Z</time>
      </trkpt>
      <trkpt lat="49.96798" lon="4.36141">
        <ele>333.8</ele>
        <time>2020-06-25T05:40:33Z</time>
      </trkpt>
      <trkpt lat="49.96796" lon="4.36147">
        <ele>333.9</ele>
        <time>2020-06-25T05:40:34Z</time>
      </trkpt>
      <trkpt lat="49.96794" lon="4.36153">
        <ele>334</ele>
        <time>2020-06-25T05:40:35Z</time>
      </trkpt>
      <trkpt lat="49.96792" lon="4.36159">
        <ele>334.1</ele>
        <time>2020-06-25T05:40:36Z</time>
      </trkpt>
      <trkpt lat="49.9679" lon="4.36166">
        <ele>334.2</ele>
        <time>2020-06-25T05:40:37Z</time>
      </trkpt>
      <trkpt lat="49.96788" lon="4.36173">
        <ele>334.3</ele>
        <time>2020-06-25T05:40:38Z</time>
      </trkpt>
      <trkpt lat="49.96786" lon="4.36179">
        <ele>334.3</ele>
        <time>2020-06-25T05:40:39Z</time>
      </trkpt>
      <trkpt lat="49.96784" lon="4.36185">
        <ele>334.4</ele>
        <time>2020-06-25T05:40:40Z</time>
      </trkpt>
      <trkpt lat="49.96782" lon="4.36192">
        <ele>334.5</ele>
        <time>2020-06-25T05:40:41Z</time>
      </trkpt>
      <trkpt lat="49.96781" lon="4.36197">
        <ele>334.6</ele>
        <time>2020-06-25T05:40:42Z</time>
      </trkpt>
      <trkpt lat="49.96779" lon="4.36204">
        <ele>334.6</ele>
        <time>2020-06-25T05:40:43Z</time>
      </trkpt>
      <trkpt lat="49.96777" lon="4.3621">
        <ele>334.7</ele>
        <time>2020-06-25T05:40:44Z</time>
      </trkpt>
      <trkpt lat="49.96776" lon="4.36215">
        <ele>334.8</ele>
        <time>2020-06-25T05:40:45Z</time>
      </trkpt>
      <trkpt lat="49.96775" lon="4.36221">
        <ele>334.8</ele>
        <time>2020-06-25T05:40:46Z</time>
      </trkpt>
      <trkpt lat="49.96773" lon="4.36228">
        <ele>334.9</ele>
        <time>2020-06-25T05:40:47Z</time>
      </trkpt>
      <trkpt lat="49.9677" lon="4.36235">
        <ele>335</ele>
        <time>2020-06-25T05:40:48Z</time>
      </trkpt>
      <trkpt lat="49.96768" lon="4.36242">
        <ele>335</ele>
        <time>2020-06-25T05:40:49Z</time>
      </trkpt>
      <trkpt lat="49.96767" lon="4.36249">
        <ele>335.1</ele>
        <time>2020-06-25T05:40:50Z</time>
      </trkpt>
      <trkpt lat="49.96765" lon="4.36256">
        <ele>335.1</ele>
        <time>2020-06-25T05:40:51Z</time>
      </trkpt>
      <trkpt lat="49.96764" lon="4.36263">
        <ele>335.2</ele>
        <time>2020-06-25T05:40:52Z</time>
      </trkpt>
      <trkpt lat="49.96763" lon="4.3627">
        <ele>335.2</ele>
        <time>2020-06-25T05:40:53Z</time>
      </trkpt>
      <trkpt lat="49.96762" lon="4.36278">
        <ele>335.3</ele>
        <time>2020-06-25T05:40:54Z</time>
      </trkpt>
      <trkpt lat="49.9676" lon="4.36285">
        <ele>335.4</ele>
        <time>2020-06-25T05:40:55Z</time>
      </trkpt>
      <trkpt lat="49.96759" lon="4.36292">
        <ele>335.4</ele>
        <time>2020-06-25T05:40:56Z</time>
      </trkpt>
      <trkpt lat="49.96757" lon="4.363">
        <ele>335.5</ele>
        <time>2020-06-25T05:40:57Z</time>
      </trkpt>
      <trkpt lat="49.96755" lon="4.36306">
        <ele>335.6</ele>
        <time>2020-06-25T05:40:58Z</time>
      </trkpt>
      <trkpt lat="49.96753" lon="4.36314">
        <ele>335.6</ele>
        <time>2020-06-25T05:40:59Z</time>
      </trkpt>
      <trkpt lat="49.96751" lon="4.36322">
        <ele>335.7</ele>
        <time>2020-06-25T05:41:00Z</time>
      </trkpt>
      <trkpt lat="49.96749" lon="4.36329">
        <ele>335.7</ele>
        <time>2020-06-25T05:41:01Z</time>
      </trkpt>
      <trkpt lat="49.96748" lon="4.36336">
        <ele>335.7</ele>
        <time>2020-06-25T05:41:02Z</time>
      </trkpt>
      <trkpt lat="49.96747" lon="4.36344">
        <ele>335.8</ele>
        <time>2020-06-25T05:41:03Z</time>
      </trkpt>
      <trkpt lat="49.96746" lon="4.36352">
        <ele>335.8</ele>
        <time>2020-06-25T05:41:04Z</time>
      </trkpt>
      <trkpt lat="49.96744" lon="4.36359">
        <ele>335.8</ele>
        <time>2020-06-25T05:41:05Z</time>
      </trkpt>
      <trkpt lat="49.96742" lon="4.36365">
        <ele>335.8</ele>
        <time>2020-06-25T05:41:06Z</time>
      </trkpt>
      <trkpt lat="49.9674" lon="4.36372">
        <ele>335.8</ele>
        <time>2020-06-25T05:41:07Z</time>
      </trkpt>
      <trkpt lat="49.96739" lon="4.36381">
        <ele>335.8</ele>
        <time>2020-06-25T05:41:08Z</time>
      </trkpt>
      <trkpt lat="49.96738" lon="4.36389">
        <ele>335.8</ele>
        <time>2020-06-25T05:41:09Z</time>
      </trkpt>
      <trkpt lat="49.96736" lon="4.36397">
        <ele>335.8</ele>
        <time>2020-06-25T05:41:10Z</time>
      </trkpt>
      <trkpt lat="49.96736" lon="4.36406">
        <ele>335.8</ele>
        <time>2020-06-25T05:41:11Z</time>
      </trkpt>
      <trkpt lat="49.96734" lon="4.36414">
        <ele>335.8</ele>
        <time>2020-06-25T05:41:12Z</time>
      </trkpt>
      <trkpt lat="49.96732" lon="4.36421">
        <ele>335.9</ele>
        <time>2020-06-25T05:41:13Z</time>
      </trkpt>
      <trkpt lat="49.9673" lon="4.3643">
        <ele>335.9</ele>
        <time>2020-06-25T05:41:14Z</time>
      </trkpt>
      <trkpt lat="49.96729" lon="4.36437">
        <ele>335.9</ele>
        <time>2020-06-25T05:41:15Z</time>
      </trkpt>
      <trkpt lat="49.96728" lon="4.36444">
        <ele>336</ele>
        <time>2020-06-25T05:41:16Z</time>
      </trkpt>
      <trkpt lat="49.96726" lon="4.36451">
        <ele>336</ele>
        <time>2020-06-25T05:41:17Z</time>
      </trkpt>
      <trkpt lat="49.96725" lon="4.36459">
        <ele>336</ele>
        <time>2020-06-25T05:41:18Z</time>
      </trkpt>
      <trkpt lat="49.96724" lon="4.36467">
        <ele>336.1</ele>
        <time>2020-06-25T05:41:19Z</time>
      </trkpt>
      <trkpt lat="49.96722" lon="4.36476">
        <ele>336.1</ele>
        <time>2020-06-25T05:41:20Z</time>
      </trkpt>
      <trkpt lat="49.96722" lon="4.36484">
        <ele>336.2</ele>
        <time>2020-06-25T05:41:21Z</time>
      </trkpt>
      <trkpt lat="49.96721" lon="4.36492">
        <ele>336.2</ele>
        <time>2020-06-25T05:41:22Z</time>
      </trkpt>
      <trkpt lat="49.96719" lon="4.36501">
        <ele>336.2</ele>
        <time>2020-06-25T05:41:23Z</time>
      </trkpt>
      <trkpt lat="49.96717" lon="4.36509">
        <ele>336.2</ele>
        <time>2020-06-25T05:41:24Z</time>
      </trkpt>
      <trkpt lat="49.96716" lon="4.36516">
        <ele>336.2</ele>
        <time>2020-06-25T05:41:25Z</time>
      </trkpt>
      <trkpt lat="49.96714" lon="4.36524">
        <ele>336.3</ele>
        <time>2020-06-25T05:41:26Z</time>
      </trkpt>
      <trkpt lat="49.96713" lon="4.36532">
        <ele>336.3</ele>
        <time>2020-06-25T05:41:27Z</time>
      </trkpt>
      <trkpt lat="49.96711" lon="4.3654">
        <ele>336.3</ele>
        <time>2020-06-25T05:41:28Z</time>
      </trkpt>
      <trkpt lat="49.9671" lon="4.36547">
        <ele>336.3</ele>
        <time>2020-06-25T05:41:29Z</time>
      </trkpt>
      <trkpt lat="49.96709" lon="4.36555">
        <ele>336.4</ele>
        <time>2020-06-25T05:41:30Z</time>
      </trkpt>
      <trkpt lat="49.96707" lon="4.36562">
        <ele>336.4</ele>
        <time>2020-06-25T05:41:31Z</time>
      </trkpt>
      <trkpt lat="49.96706" lon="4.3657">
        <ele>336.4</ele>
        <time>2020-06-25T05:41:32Z</time>
      </trkpt>
      <trkpt lat="49.96704" lon="4.36577">
        <ele>336.4</ele>
        <time>2020-06-25T05:41:33Z</time>
      </trkpt>
      <trkpt lat="49.96702" lon="4.36585">
        <ele>336.5</ele>
        <time>2020-06-25T05:41:34Z</time>
      </trkpt>
      <trkpt lat="49.967" lon="4.36592">
        <ele>336.5</ele>
        <time>2020-06-25T05:41:35Z</time>
      </trkpt>
      <trkpt lat="49.96697" lon="4.36599">
        <ele>336.5</ele>
        <time>2020-06-25T05:41:36Z</time>
      </trkpt>
      <trkpt lat="49.96694" lon="4.36607">
        <ele>336.6</ele>
        <time>2020-06-25T05:41:37Z</time>
      </trkpt>
      <trkpt lat="49.96691" lon="4.36613">
        <ele>336.6</ele>
        <time>2020-06-25T05:41:38Z</time>
      </trkpt>
      <trkpt lat="49.96689" lon="4.3662">
        <ele>336.6</ele>
        <time>2020-06-25T05:41:39Z</time>
      </trkpt>
      <trkpt lat="49.96686" lon="4.36626">
        <ele>336.7</ele>
        <time>2020-06-25T05:41:40Z</time>
      </trkpt>
      <trkpt lat="49.96684" lon="4.36632">
        <ele>336.7</ele>
        <time>2020-06-25T05:41:41Z</time>
      </trkpt>
      <trkpt lat="49.96682" lon="4.36637">
        <ele>336.7</ele>
        <time>2020-06-25T05:41:42Z</time>
      </trkpt>
      <trkpt lat="49.9668" lon="4.36642">
        <ele>336.8</ele>
        <time>2020-06-25T05:41:43Z</time>
      </trkpt>
      <trkpt lat="49.96677" lon="4.36648">
        <ele>336.9</ele>
        <time>2020-06-25T05:41:44Z</time>
      </trkpt>
      <trkpt lat="49.96674" lon="4.36654">
        <ele>337</ele>
        <time>2020-06-25T05:41:45Z</time>
      </trkpt>
      <trkpt lat="49.96671" lon="4.3666">
        <ele>337.1</ele>
        <time>2020-06-25T05:41:46Z</time>
      </trkpt>
      <trkpt lat="49.96669" lon="4.36668">
        <ele>337.2</ele>
        <time>2020-06-25T05:41:47Z</time>
      </trkpt>
      <trkpt lat="49.96666" lon="4.36674">
        <ele>337.3</ele>
        <time>2020-06-25T05:41:48Z</time>
      </trkpt>
      <trkpt lat="49.96663" lon="4.36681">
        <ele>337.4</ele>
        <time>2020-06-25T05:41:49Z</time>
      </trkpt>
      <trkpt lat="49.9666" lon="4.36687">
        <ele>337.5</ele>
        <time>2020-06-25T05:41:50Z</time>
      </trkpt>
      <trkpt lat="49.96657" lon="4.36694">
        <ele>337.5</ele>
        <time>2020-06-25T05:41:51Z</time>
      </trkpt>
      <trkpt lat="49.96654" lon="4.36702">
        <ele>337.6</ele>
        <time>2020-06-25T05:41:52Z</time>
      </trkpt>
      <trkpt lat="49.96651" lon="4.36709">
        <ele>337.7</ele>
        <time>2020-06-25T05:41:53Z</time>
      </trkpt>
      <trkpt lat="49.96649" lon="4.36716">
        <ele>337.8</ele>
        <time>2020-06-25T05:41:54Z</time>
      </trkpt>
      <trkpt lat="49.96646" lon="4.36722">
        <ele>337.9</ele>
        <time>2020-06-25T05:41:55Z</time>
      </trkpt>
      <trkpt lat="49.96643" lon="4.36729">
        <ele>337.9</ele>
        <time>2020-06-25T05:41:56Z</time>
      </trkpt>
      <trkpt lat="49.9664" lon="4.36735">
        <ele>338</ele>
        <time>2020-06-25T05:41:57Z</time>
      </trkpt>
      <trkpt lat="49.96638" lon="4.36742">
        <ele>338.1</ele>
        <time>2020-06-25T05:41:58Z</time>
      </trkpt>
      <trkpt lat="49.96635" lon="4.36749">
        <ele>338.1</ele>
        <time>2020-06-25T05:41:59Z</time>
      </trkpt>
      <trkpt lat="49.96633" lon="4.36755">
        <ele>338.2</ele>
        <time>2020-06-25T05:42:00Z</time>
      </trkpt>
      <trkpt lat="49.9663" lon="4.36761">
        <ele>338.2</ele>
        <time>2020-06-25T05:42:01Z</time>
      </trkpt>
      <trkpt lat="49.96627" lon="4.36769">
        <ele>338.2</ele>
        <time>2020-06-25T05:42:02Z</time>
      </trkpt>
      <trkpt lat="49.96625" lon="4.36775">
        <ele>338.2</ele>
        <time>2020-06-25T05:42:03Z</time>
      </trkpt>
      <trkpt lat="49.96622" lon="4.36781">
        <ele>338.3</ele>
        <time>2020-06-25T05:42:04Z</time>
      </trkpt>
      <trkpt lat="49.96619" lon="4.36787">
        <ele>338.3</ele>
        <time>2020-06-25T05:42:05Z</time>
      </trkpt>
      <trkpt lat="49.96616" lon="4.36793">
        <ele>338.3</ele>
        <time>2020-06-25T05:42:06Z</time>
      </trkpt>
      <trkpt lat="49.96613" lon="4.36799">
        <ele>338.4</ele>
        <time>2020-06-25T05:42:07Z</time>
      </trkpt>
      <trkpt lat="49.9661" lon="4.36806">
        <ele>338.4</ele>
        <time>2020-06-25T05:42:08Z</time>
      </trkpt>
      <trkpt lat="49.96607" lon="4.36813">
        <ele>338.4</ele>
        <time>2020-06-25T05:42:09Z</time>
      </trkpt>
      <trkpt lat="49.96605" lon="4.3682">
        <ele>338.4</ele>
        <time>2020-06-25T05:42:10Z</time>
      </trkpt>
      <trkpt lat="49.96602" lon="4.36825">
        <ele>338.4</ele>
        <time>2020-06-25T05:42:11Z</time>
      </trkpt>
      <trkpt lat="49.966" lon="4.36831">
        <ele>338.4</ele>
        <time>2020-06-25T05:42:12Z</time>
      </trkpt>
      <trkpt lat="49.96597" lon="4.36837">
        <ele>338.4</ele>
        <time>2020-06-25T05:42:13Z</time>
      </trkpt>
      <trkpt lat="49.96595" lon="4.36842">
        <ele>338.4</ele>
        <time>2020-06-25T05:42:14Z</time>
      </trkpt>
      <trkpt lat="49.96593" lon="4.36847">
        <ele>338.4</ele>
        <time>2020-06-25T05:42:15Z</time>
      </trkpt>
      <trkpt lat="49.9659" lon="4.36853">
        <ele>338.3</ele>
        <time>2020-06-25T05:42:16Z</time>
      </trkpt>
      <trkpt lat="49.96588" lon="4.36858">
        <ele>338.3</ele>
        <time>2020-06-25T05:42:17Z</time>
      </trkpt>
      <trkpt lat="49.96585" lon="4.36864">
        <ele>338.2</ele>
        <time>2020-06-25T05:42:18Z</time>
      </trkpt>
      <trkpt lat="49.96582" lon="4.3687">
        <ele>338.1</ele>
        <time>2020-06-25T05:42:19Z</time>
      </trkpt>
      <trkpt lat="49.96579" lon="4.36876">
        <ele>338</ele>
        <time>2020-06-25T05:42:20Z</time>
      </trkpt>
      <trkpt lat="49.96576" lon="4.36882">
        <ele>338</ele>
        <time>2020-06-25T05:42:21Z</time>
      </trkpt>
      <trkpt lat="49.96573" lon="4.36889">
        <ele>337.9</ele>
        <time>2020-06-25T05:42:22Z</time>
      </trkpt>
      <trkpt lat="49.9657" lon="4.36896">
        <ele>337.9</ele>
        <time>2020-06-25T05:42:23Z</time>
      </trkpt>
      <trkpt lat="49.96567" lon="4.36903">
        <ele>337.8</ele>
        <time>2020-06-25T05:42:24Z</time>
      </trkpt>
      <trkpt lat="49.96564" lon="4.36909">
        <ele>337.8</ele>
        <time>2020-06-25T05:42:25Z</time>
      </trkpt>
      <trkpt lat="49.96561" lon="4.36915">
        <ele>337.8</ele>
        <time>2020-06-25T05:42:26Z</time>
      </trkpt>
      <trkpt lat="49.96558" lon="4.36921">
        <ele>337.7</ele>
        <time>2020-06-25T05:42:27Z</time>
      </trkpt>
      <trkpt lat="49.96556" lon="4.36927">
        <ele>337.6</ele>
        <time>2020-06-25T05:42:28Z</time>
      </trkpt>
      <trkpt lat="49.96553" lon="4.36933">
        <ele>337.5</ele>
        <time>2020-06-25T05:42:29Z</time>
      </trkpt>
      <trkpt lat="49.96551" lon="4.36939">
        <ele>337.5</ele>
        <time>2020-06-25T05:42:30Z</time>
      </trkpt>
      <trkpt lat="49.96549" lon="4.36945">
        <ele>337.4</ele>
        <time>2020-06-25T05:42:31Z</time>
      </trkpt>
      <trkpt lat="49.96546" lon="4.36952">
        <ele>337.3</ele>
        <time>2020-06-25T05:42:32Z</time>
      </trkpt>
      <trkpt lat="49.96543" lon="4.36959">
        <ele>337.2</ele>
        <time>2020-06-25T05:42:33Z</time>
      </trkpt>
      <trkpt lat="49.96541" lon="4.36966">
        <ele>337.2</ele>
        <time>2020-06-25T05:42:34Z</time>
      </trkpt>
      <trkpt lat="49.96538" lon="4.36973">
        <ele>337.1</ele>
        <time>2020-06-25T05:42:35Z</time>
      </trkpt>
      <trkpt lat="49.96535" lon="4.3698">
        <ele>337</ele>
        <time>2020-06-25T05:42:36Z</time>
      </trkpt>
      <trkpt lat="49.96533" lon="4.36987">
        <ele>337</ele>
        <time>2020-06-25T05:42:37Z</time>
      </trkpt>
      <trkpt lat="49.9653" lon="4.36994">
        <ele>336.9</ele>
        <time>2020-06-25T05:42:38Z</time>
      </trkpt>
      <trkpt lat="49.96527" lon="4.37002">
        <ele>336.8</ele>
        <time>2020-06-25T05:42:39Z</time>
      </trkpt>
      <trkpt lat="49.96524" lon="4.37009">
        <ele>336.7</ele>
        <time>2020-06-25T05:42:40Z</time>
      </trkpt>
      <trkpt lat="49.96521" lon="4.37017">
        <ele>336.6</ele>
        <time>2020-06-25T05:42:41Z</time>
      </trkpt>
      <trkpt lat="49.96518" lon="4.37024">
        <ele>336.4</ele>
        <time>2020-06-25T05:42:42Z</time>
      </trkpt>
      <trkpt lat="49.96515" lon="4.3703">
        <ele>336.3</ele>
        <time>2020-06-25T05:42:43Z</time>
      </trkpt>
      <trkpt lat="49.96512" lon="4.37037">
        <ele>336.1</ele>
        <time>2020-06-25T05:42:44Z</time>
      </trkpt>
      <trkpt lat="49.9651" lon="4.37044">
        <ele>336</ele>
        <time>2020-06-25T05:42:45Z</time>
      </trkpt>
      <trkpt lat="49.96507" lon="4.37051">
        <ele>335.8</ele>
        <time>2020-06-25T05:42:46Z</time>
      </trkpt>
      <trkpt lat="49.96505" lon="4.37058">
        <ele>335.6</ele>
        <time>2020-06-25T05:42:47Z</time>
      </trkpt>
      <trkpt lat="49.96502" lon="4.37066">
        <ele>335.4</ele>
        <time>2020-06-25T05:42:48Z</time>
      </trkpt>
      <trkpt lat="49.96499" lon="4.37073">
        <ele>335.2</ele>
        <time>2020-06-25T05:42:49Z</time>
      </trkpt>
      <trkpt lat="49.96496" lon="4.37081">
        <ele>335</ele>
        <time>2020-06-25T05:42:50Z</time>
      </trkpt>
      <trkpt lat="49.96494" lon="4.37089">
        <ele>334.8</ele>
        <time>2020-06-25T05:42:51Z</time>
      </trkpt>
      <trkpt lat="49.96491" lon="4.37095">
        <ele>334.5</ele>
        <time>2020-06-25T05:42:52Z</time>
      </trkpt>
      <trkpt lat="49.96489" lon="4.37102">
        <ele>334.3</ele>
        <time>2020-06-25T05:42:53Z</time>
      </trkpt>
      <trkpt lat="49.96486" lon="4.37111">
        <ele>334.1</ele>
        <time>2020-06-25T05:42:54Z</time>
      </trkpt>
      <trkpt lat="49.96483" lon="4.37119">
        <ele>333.8</ele>
        <time>2020-06-25T05:42:55Z</time>
      </trkpt>
      <trkpt lat="49.9648" lon="4.37127">
        <ele>333.6</ele>
        <time>2020-06-25T05:42:56Z</time>
      </trkpt>
      <trkpt lat="49.96478" lon="4.37135">
        <ele>333.3</ele>
        <time>2020-06-25T05:42:57Z</time>
      </trkpt>
      <trkpt lat="49.96475" lon="4.37143">
        <ele>333.1</ele>
        <time>2020-06-25T05:42:58Z</time>
      </trkpt>
      <trkpt lat="49.96472" lon="4.37153">
        <ele>332.8</ele>
        <time>2020-06-25T05:42:59Z</time>
      </trkpt>
      <trkpt lat="49.96469" lon="4.37161">
        <ele>332.6</ele>
        <time>2020-06-25T05:43:00Z</time>
      </trkpt>
      <trkpt lat="49.96466" lon="4.3717">
        <ele>332.3</ele>
        <time>2020-06-25T05:43:01Z</time>
      </trkpt>
      <trkpt lat="49.96463" lon="4.37178">
        <ele>332.1</ele>
        <time>2020-06-25T05:43:02Z</time>
      </trkpt>
      <trkpt lat="49.9646" lon="4.37187">
        <ele>331.8</ele>
        <time>2020-06-25T05:43:03Z</time>
      </trkpt>
      <trkpt lat="49.96457" lon="4.37196">
        <ele>331.5</ele>
        <time>2020-06-25T05:43:04Z</time>
      </trkpt>
      <trkpt lat="49.96454" lon="4.37206">
        <ele>331.3</ele>
        <time>2020-06-25T05:43:05Z</time>
      </trkpt>
      <trkpt lat="49.9645" lon="4.37214">
        <ele>331</ele>
        <time>2020-06-25T05:43:06Z</time>
      </trkpt>
      <trkpt lat="49.96447" lon="4.37223">
        <ele>330.7</ele>
        <time>2020-06-25T05:43:07Z</time>
      </trkpt>
      <trkpt lat="49.96444" lon="4.37233">
        <ele>330.4</ele>
        <time>2020-06-25T05:43:08Z</time>
      </trkpt>
      <trkpt lat="49.9644" lon="4.37242">
        <ele>330.2</ele>
        <time>2020-06-25T05:43:09Z</time>
      </trkpt>
      <trkpt lat="49.96437" lon="4.37251">
        <ele>329.9</ele>
        <time>2020-06-25T05:43:10Z</time>
      </trkpt>
      <trkpt lat="49.96434" lon="4.37259">
        <ele>329.6</ele>
        <time>2020-06-25T05:43:11Z</time>
      </trkpt>
      <trkpt lat="49.9643" lon="4.37268">
        <ele>329.3</ele>
        <time>2020-06-25T05:43:12Z</time>
      </trkpt>
      <trkpt lat="49.96428" lon="4.37277">
        <ele>329.1</ele>
        <time>2020-06-25T05:43:13Z</time>
      </trkpt>
      <trkpt lat="49.96424" lon="4.37287">
        <ele>328.8</ele>
        <time>2020-06-25T05:43:14Z</time>
      </trkpt>
      <trkpt lat="49.9642" lon="4.37297">
        <ele>328.5</ele>
        <time>2020-06-25T05:43:15Z</time>
      </trkpt>
      <trkpt lat="49.96417" lon="4.37306">
        <ele>328.2</ele>
        <time>2020-06-25T05:43:16Z</time>
      </trkpt>
      <trkpt lat="49.96414" lon="4.37315">
        <ele>328</ele>
        <time>2020-06-25T05:43:17Z</time>
      </trkpt>
      <trkpt lat="49.9641" lon="4.37325">
        <ele>327.7</ele>
        <time>2020-06-25T05:43:18Z</time>
      </trkpt>
      <trkpt lat="49.96407" lon="4.37335">
        <ele>327.5</ele>
        <time>2020-06-25T05:43:19Z</time>
      </trkpt>
      <trkpt lat="49.96403" lon="4.37344">
        <ele>327.2</ele>
        <time>2020-06-25T05:43:20Z</time>
      </trkpt>
      <trkpt lat="49.96399" lon="4.37354">
        <ele>326.9</ele>
        <time>2020-06-25T05:43:21Z</time>
      </trkpt>
      <trkpt lat="49.96395" lon="4.37363">
        <ele>326.6</ele>
        <time>2020-06-25T05:43:22Z</time>
      </trkpt>
      <trkpt lat="49.96392" lon="4.37373">
        <ele>326.4</ele>
        <time>2020-06-25T05:43:23Z</time>
      </trkpt>
      <trkpt lat="49.96388" lon="4.37383">
        <ele>326.1</ele>
        <time>2020-06-25T05:43:24Z</time>
      </trkpt>
      <trkpt lat="49.96384" lon="4.37392">
        <ele>325.8</ele>
        <time>2020-06-25T05:43:25Z</time>
      </trkpt>
      <trkpt lat="49.96381" lon="4.37402">
        <ele>325.5</ele>
        <time>2020-06-25T05:43:26Z</time>
      </trkpt>
      <trkpt lat="49.96377" lon="4.37412">
        <ele>325.2</ele>
        <time>2020-06-25T05:43:27Z</time>
      </trkpt>
      <trkpt lat="49.96373" lon="4.37421">
        <ele>324.9</ele>
        <time>2020-06-25T05:43:28Z</time>
      </trkpt>
      <trkpt lat="49.96369" lon="4.37431">
        <ele>324.7</ele>
        <time>2020-06-25T05:43:29Z</time>
      </trkpt>
      <trkpt lat="49.96366" lon="4.37441">
        <ele>324.4</ele>
        <time>2020-06-25T05:43:30Z</time>
      </trkpt>
      <trkpt lat="49.96362" lon="4.37451">
        <ele>324.1</ele>
        <time>2020-06-25T05:43:31Z</time>
      </trkpt>
      <trkpt lat="49.96358" lon="4.3746">
        <ele>323.8</ele>
        <time>2020-06-25T05:43:32Z</time>
      </trkpt>
      <trkpt lat="49.96354" lon="4.3747">
        <ele>323.6</ele>
        <time>2020-06-25T05:43:33Z</time>
      </trkpt>
      <trkpt lat="49.9635" lon="4.3748">
        <ele>323.3</ele>
        <time>2020-06-25T05:43:34Z</time>
      </trkpt>
      <trkpt lat="49.96346" lon="4.37489">
        <ele>323.1</ele>
        <time>2020-06-25T05:43:35Z</time>
      </trkpt>
      <trkpt lat="49.96343" lon="4.37498">
        <ele>322.9</ele>
        <time>2020-06-25T05:43:36Z</time>
      </trkpt>
      <trkpt lat="49.96339" lon="4.37508">
        <ele>322.6</ele>
        <time>2020-06-25T05:43:37Z</time>
      </trkpt>
      <trkpt lat="49.96335" lon="4.37517">
        <ele>322.4</ele>
        <time>2020-06-25T05:43:38Z</time>
      </trkpt>
      <trkpt lat="49.96332" lon="4.37527">
        <ele>322.1</ele>
        <time>2020-06-25T05:43:39Z</time>
      </trkpt>
      <trkpt lat="49.96328" lon="4.37537">
        <ele>321.8</ele>
        <time>2020-06-25T05:43:40Z</time>
      </trkpt>
      <trkpt lat="49.96325" lon="4.37546">
        <ele>321.5</ele>
        <time>2020-06-25T05:43:41Z</time>
      </trkpt>
      <trkpt lat="49.96321" lon="4.37556">
        <ele>321.2</ele>
        <time>2020-06-25T05:43:42Z</time>
      </trkpt>
      <trkpt lat="49.96318" lon="4.37566">
        <ele>321</ele>
        <time>2020-06-25T05:43:43Z</time>
      </trkpt>
      <trkpt lat="49.96315" lon="4.37576">
        <ele>320.4</ele>
        <time>2020-06-25T05:43:44Z</time>
      </trkpt>
      <trkpt lat="49.96311" lon="4.37586">
        <ele>319.9</ele>
        <time>2020-06-25T05:43:45Z</time>
      </trkpt>
      <trkpt lat="49.96308" lon="4.37597">
        <ele>319.4</ele>
        <time>2020-06-25T05:43:46Z</time>
      </trkpt>
      <trkpt lat="49.96304" lon="4.37607">
        <ele>319</ele>
        <time>2020-06-25T05:43:47Z</time>
      </trkpt>
      <trkpt lat="49.963" lon="4.37618">
        <ele>318.6</ele>
        <time>2020-06-25T05:43:48Z</time>
      </trkpt>
      <trkpt lat="49.96296" lon="4.37628">
        <ele>318.1</ele>
        <time>2020-06-25T05:43:49Z</time>
      </trkpt>
      <trkpt lat="49.96291" lon="4.37639">
        <ele>317.6</ele>
        <time>2020-06-25T05:43:50Z</time>
      </trkpt>
      <trkpt lat="49.96287" lon="4.37649">
        <ele>317.2</ele>
        <time>2020-06-25T05:43:51Z</time>
      </trkpt>
      <trkpt lat="49.96282" lon="4.3766">
        <ele>316.7</ele>
        <time>2020-06-25T05:43:52Z</time>
      </trkpt>
      <trkpt lat="49.96278" lon="4.37671">
        <ele>316.2</ele>
        <time>2020-06-25T05:43:53Z</time>
      </trkpt>
      <trkpt lat="49.96273" lon="4.37682">
        <ele>315.7</ele>
        <time>2020-06-25T05:43:54Z</time>
      </trkpt>
      <trkpt lat="49.96268" lon="4.37692">
        <ele>315.1</ele>
        <time>2020-06-25T05:43:55Z</time>
      </trkpt>
      <trkpt lat="49.96264" lon="4.37703">
        <ele>314.6</ele>
        <time>2020-06-25T05:43:56Z</time>
      </trkpt>
      <trkpt lat="49.96258" lon="4.37714">
        <ele>314.2</ele>
        <time>2020-06-25T05:43:57Z</time>
      </trkpt>
      <trkpt lat="49.96253" lon="4.37725">
        <ele>313.7</ele>
        <time>2020-06-25T05:43:58Z</time>
      </trkpt>
      <trkpt lat="49.96248" lon="4.37736">
        <ele>313.2</ele>
        <time>2020-06-25T05:43:59Z</time>
      </trkpt>
      <trkpt lat="49.96243" lon="4.37747">
        <ele>312.7</ele>
        <time>2020-06-25T05:44:00Z</time>
      </trkpt>
      <trkpt lat="49.96238" lon="4.37758">
        <ele>312.2</ele>
        <time>2020-06-25T05:44:01Z</time>
      </trkpt>
      <trkpt lat="49.96232" lon="4.37769">
        <ele>311.7</ele>
        <time>2020-06-25T05:44:02Z</time>
      </trkpt>
      <trkpt lat="49.96227" lon="4.37781">
        <ele>311.2</ele>
        <time>2020-06-25T05:44:03Z</time>
      </trkpt>
      <trkpt lat="49.96221" lon="4.37792">
        <ele>310.6</ele>
        <time>2020-06-25T05:44:04Z</time>
      </trkpt>
      <trkpt lat="49.96216" lon="4.37804">
        <ele>310</ele>
        <time>2020-06-25T05:44:05Z</time>
      </trkpt>
      <trkpt lat="49.9621" lon="4.37816">
        <ele>309.5</ele>
        <time>2020-06-25T05:44:06Z</time>
      </trkpt>
      <trkpt lat="49.96205" lon="4.37829">
        <ele>309</ele>
        <time>2020-06-25T05:44:07Z</time>
      </trkpt>
      <trkpt lat="49.96199" lon="4.37841">
        <ele>308.6</ele>
        <time>2020-06-25T05:44:08Z</time>
      </trkpt>
      <trkpt lat="49.96194" lon="4.37854">
        <ele>308.1</ele>
        <time>2020-06-25T05:44:09Z</time>
      </trkpt>
      <trkpt lat="49.96188" lon="4.37866">
        <ele>307.6</ele>
        <time>2020-06-25T05:44:10Z</time>
      </trkpt>
      <trkpt lat="49.96182" lon="4.37878">
        <ele>307.2</ele>
        <time>2020-06-25T05:44:11Z</time>
      </trkpt>
      <trkpt lat="49.96177" lon="4.3789">
        <ele>306.7</ele>
        <time>2020-06-25T05:44:12Z</time>
      </trkpt>
      <trkpt lat="49.96171" lon="4.37902">
        <ele>306.2</ele>
        <time>2020-06-25T05:44:13Z</time>
      </trkpt>
      <trkpt lat="49.96166" lon="4.37914">
        <ele>305.7</ele>
        <time>2020-06-25T05:44:14Z</time>
      </trkpt>
      <trkpt lat="49.96161" lon="4.37926">
        <ele>305.2</ele>
        <time>2020-06-25T05:44:15Z</time>
      </trkpt>
      <trkpt lat="49.96156" lon="4.37936">
        <ele>304.7</ele>
        <time>2020-06-25T05:44:16Z</time>
      </trkpt>
      <trkpt lat="49.96151" lon="4.37946">
        <ele>304.3</ele>
        <time>2020-06-25T05:44:17Z</time>
      </trkpt>
      <trkpt lat="49.96145" lon="4.37956">
        <ele>303.9</ele>
        <time>2020-06-25T05:44:18Z</time>
      </trkpt>
      <trkpt lat="49.9614" lon="4.37966">
        <ele>303.5</ele>
        <time>2020-06-25T05:44:19Z</time>
      </trkpt>
      <trkpt lat="49.96135" lon="4.37976">
        <ele>303.1</ele>
        <time>2020-06-25T05:44:20Z</time>
      </trkpt>
      <trkpt lat="49.96129" lon="4.37986">
        <ele>302.8</ele>
        <time>2020-06-25T05:44:21Z</time>
      </trkpt>
      <trkpt lat="49.96122" lon="4.37995">
        <ele>302.5</ele>
        <time>2020-06-25T05:44:22Z</time>
      </trkpt>
      <trkpt lat="49.96116" lon="4.38004">
        <ele>302.3</ele>
        <time>2020-06-25T05:44:23Z</time>
      </trkpt>
      <trkpt lat="49.96109" lon="4.38014">
        <ele>302</ele>
        <time>2020-06-25T05:44:24Z</time>
      </trkpt>
      <trkpt lat="49.96103" lon="4.38022">
        <ele>301.9</ele>
        <time>2020-06-25T05:44:25Z</time>
      </trkpt>
      <trkpt lat="49.96096" lon="4.38031">
        <ele>301.9</ele>
        <time>2020-06-25T05:44:26Z</time>
      </trkpt>
      <trkpt lat="49.96089" lon="4.38037">
        <ele>301.8</ele>
        <time>2020-06-25T05:44:27Z</time>
      </trkpt>
      <trkpt lat="49.96082" lon="4.38042">
        <ele>301.7</ele>
        <time>2020-06-25T05:44:28Z</time>
      </trkpt>
      <trkpt lat="49.96075" lon="4.38046">
        <ele>301.5</ele>
        <time>2020-06-25T05:44:29Z</time>
      </trkpt>
      <trkpt lat="49.96068" lon="4.3805">
        <ele>301.3</ele>
        <time>2020-06-25T05:44:30Z</time>
      </trkpt>
      <trkpt lat="49.9606" lon="4.38053">
        <ele>301</ele>
        <time>2020-06-25T05:44:31Z</time>
      </trkpt>
      <trkpt lat="49.96053" lon="4.38056">
        <ele>300.8</ele>
        <time>2020-06-25T05:44:32Z</time>
      </trkpt>
      <trkpt lat="49.96046" lon="4.38059">
        <ele>300.5</ele>
        <time>2020-06-25T05:44:33Z</time>
      </trkpt>
      <trkpt lat="49.96039" lon="4.38062">
        <ele>300.2</ele>
        <time>2020-06-25T05:44:34Z</time>
      </trkpt>
      <trkpt lat="49.96032" lon="4.38064">
        <ele>299.9</ele>
        <time>2020-06-25T05:44:35Z</time>
      </trkpt>
      <trkpt lat="49.96024" lon="4.38067">
        <ele>299.7</ele>
        <time>2020-06-25T05:44:36Z</time>
      </trkpt>
      <trkpt lat="49.96016" lon="4.3807">
        <ele>299.4</ele>
        <time>2020-06-25T05:44:37Z</time>
      </trkpt>
      <trkpt lat="49.96008" lon="4.38072">
        <ele>299.2</ele>
        <time>2020-06-25T05:44:38Z</time>
      </trkpt>
      <trkpt lat="49.95999" lon="4.38074">
        <ele>299</ele>
        <time>2020-06-25T05:44:39Z</time>
      </trkpt>
      <trkpt lat="49.9599" lon="4.38076">
        <ele>298.8</ele>
        <time>2020-06-25T05:44:40Z</time>
      </trkpt>
      <trkpt lat="49.95982" lon="4.38078">
        <ele>298.6</ele>
        <time>2020-06-25T05:44:41Z</time>
      </trkpt>
      <trkpt lat="49.95973" lon="4.38081">
        <ele>298.5</ele>
        <time>2020-06-25T05:44:42Z</time>
      </trkpt>
      <trkpt lat="49.95965" lon="4.38083">
        <ele>298.3</ele>
        <time>2020-06-25T05:44:43Z</time>
      </trkpt>
      <trkpt lat="49.95956" lon="4.38085">
        <ele>298.2</ele>
        <time>2020-06-25T05:44:44Z</time>
      </trkpt>
      <trkpt lat="49.95947" lon="4.38087">
        <ele>298</ele>
        <time>2020-06-25T05:44:45Z</time>
      </trkpt>
      <trkpt lat="49.95939" lon="4.38089">
        <ele>297.9</ele>
        <time>2020-06-25T05:44:46Z</time>
      </trkpt>
      <trkpt lat="49.95931" lon="4.38091">
        <ele>297.8</ele>
        <time>2020-06-25T05:44:47Z</time>
      </trkpt>
      <trkpt lat="49.95922" lon="4.38093">
        <ele>297.7</ele>
        <time>2020-06-25T05:44:48Z</time>
      </trkpt>
      <trkpt lat="49.95914" lon="4.38095">
        <ele>297.7</ele>
        <time>2020-06-25T05:44:49Z</time>
      </trkpt>
      <trkpt lat="49.95906" lon="4.38097">
        <ele>297.5</ele>
        <time>2020-06-25T05:44:50Z</time>
      </trkpt>
      <trkpt lat="49.95898" lon="4.38099">
        <ele>297.3</ele>
        <time>2020-06-25T05:44:51Z</time>
      </trkpt>
      <trkpt lat="49.95891" lon="4.38101">
        <ele>297.2</ele>
        <time>2020-06-25T05:44:52Z</time>
      </trkpt>
      <trkpt lat="49.95883" lon="4.38103">
        <ele>297.2</ele>
        <time>2020-06-25T05:44:53Z</time>
      </trkpt>
      <trkpt lat="49.95875" lon="4.38106">
        <ele>297.2</ele>
        <time>2020-06-25T05:44:54Z</time>
      </trkpt>
      <trkpt lat="49.95868" lon="4.38108">
        <ele>297.2</ele>
        <time>2020-06-25T05:44:55Z</time>
      </trkpt>
      <trkpt lat="49.95861" lon="4.3811">
        <ele>297.2</ele>
        <time>2020-06-25T05:44:56Z</time>
      </trkpt>
      <trkpt lat="49.95853" lon="4.38112">
        <ele>297.2</ele>
        <time>2020-06-25T05:44:57Z</time>
      </trkpt>
      <trkpt lat="49.95846" lon="4.38114">
        <ele>297.3</ele>
        <time>2020-06-25T05:44:58Z</time>
      </trkpt>
      <trkpt lat="49.95839" lon="4.38116">
        <ele>297.7</ele>
        <time>2020-06-25T05:44:59Z</time>
      </trkpt>
      <trkpt lat="49.95832" lon="4.38118">
        <ele>297.8</ele>
        <time>2020-06-25T05:45:00Z</time>
      </trkpt>
      <trkpt lat="49.95825" lon="4.3812">
        <ele>297.9</ele>
        <time>2020-06-25T05:45:01Z</time>
      </trkpt>
      <trkpt lat="49.95819" lon="4.38122">
        <ele>298.1</ele>
        <time>2020-06-25T05:45:02Z</time>
      </trkpt>
      <trkpt lat="49.95812" lon="4.38123">
        <ele>298.3</ele>
        <time>2020-06-25T05:45:03Z</time>
      </trkpt>
      <trkpt lat="49.95806" lon="4.38125">
        <ele>298.5</ele>
        <time>2020-06-25T05:45:04Z</time>
      </trkpt>
      <trkpt lat="49.958" lon="4.38127">
        <ele>298.8</ele>
        <time>2020-06-25T05:45:05Z</time>
      </trkpt>
      <trkpt lat="49.95795" lon="4.38129">
        <ele>299.1</ele>
        <time>2020-06-25T05:45:06Z</time>
      </trkpt>
      <trkpt lat="49.9579" lon="4.38132">
        <ele>299.4</ele>
        <time>2020-06-25T05:45:07Z</time>
      </trkpt>
      <trkpt lat="49.95785" lon="4.38134">
        <ele>299.8</ele>
        <time>2020-06-25T05:45:08Z</time>
      </trkpt>
      <trkpt lat="49.9578" lon="4.38136">
        <ele>300.1</ele>
        <time>2020-06-25T05:45:09Z</time>
      </trkpt>
      <trkpt lat="49.95775" lon="4.38138">
        <ele>300.4</ele>
        <time>2020-06-25T05:45:10Z</time>
      </trkpt>
      <trkpt lat="49.95771" lon="4.38141">
        <ele>300.7</ele>
        <time>2020-06-25T05:45:11Z</time>
      </trkpt>
      <trkpt lat="49.95766" lon="4.38143">
        <ele>301</ele>
        <time>2020-06-25T05:45:12Z</time>
      </trkpt>
      <trkpt lat="49.95762" lon="4.38146">
        <ele>301.3</ele>
        <time>2020-06-25T05:45:13Z</time>
      </trkpt>
      <trkpt lat="49.95759" lon="4.38149">
        <ele>301.6</ele>
        <time>2020-06-25T05:45:14Z</time>
      </trkpt>
      <trkpt lat="49.95756" lon="4.38152">
        <ele>301.9</ele>
        <time>2020-06-25T05:45:15Z</time>
      </trkpt>
      <trkpt lat="49.95753" lon="4.38155">
        <ele>302.1</ele>
        <time>2020-06-25T05:45:16Z</time>
      </trkpt>
      <trkpt lat="49.95749" lon="4.38158">
        <ele>302.4</ele>
        <time>2020-06-25T05:45:17Z</time>
      </trkpt>
      <trkpt lat="49.95746" lon="4.38162">
        <ele>302.7</ele>
        <time>2020-06-25T05:45:18Z</time>
      </trkpt>
      <trkpt lat="49.95743" lon="4.38166">
        <ele>302.9</ele>
        <time>2020-06-25T05:45:19Z</time>
      </trkpt>
      <trkpt lat="49.9574" lon="4.3817">
        <ele>303.2</ele>
        <time>2020-06-25T05:45:20Z</time>
      </trkpt>
      <trkpt lat="49.95737" lon="4.38174">
        <ele>303.4</ele>
        <time>2020-06-25T05:45:21Z</time>
      </trkpt>
      <trkpt lat="49.95733" lon="4.38178">
        <ele>303.7</ele>
        <time>2020-06-25T05:45:22Z</time>
      </trkpt>
      <trkpt lat="49.9573" lon="4.38183">
        <ele>303.9</ele>
        <time>2020-06-25T05:45:23Z</time>
      </trkpt>
      <trkpt lat="49.95726" lon="4.38187">
        <ele>304.2</ele>
        <time>2020-06-25T05:45:24Z</time>
      </trkpt>
      <trkpt lat="49.95722" lon="4.38191">
        <ele>304.4</ele>
        <time>2020-06-25T05:45:25Z</time>
      </trkpt>
      <trkpt lat="49.95719" lon="4.38196">
        <ele>304.6</ele>
        <time>2020-06-25T05:45:26Z</time>
      </trkpt>
      <trkpt lat="49.95716" lon="4.38201">
        <ele>304.8</ele>
        <time>2020-06-25T05:45:27Z</time>
      </trkpt>
      <trkpt lat="49.95713" lon="4.38205">
        <ele>305</ele>
        <time>2020-06-25T05:45:28Z</time>
      </trkpt>
      <trkpt lat="49.9571" lon="4.38209">
        <ele>305.2</ele>
        <time>2020-06-25T05:45:29Z</time>
      </trkpt>
      <trkpt lat="49.95707" lon="4.38213">
        <ele>305.3</ele>
        <time>2020-06-25T05:45:30Z</time>
      </trkpt>
      <trkpt lat="49.95704" lon="4.38217">
        <ele>305.5</ele>
        <time>2020-06-25T05:45:31Z</time>
      </trkpt>
      <trkpt lat="49.957" lon="4.38223">
        <ele>305.7</ele>
        <time>2020-06-25T05:45:32Z</time>
      </trkpt>
      <trkpt lat="49.95697" lon="4.38226">
        <ele>305.9</ele>
        <time>2020-06-25T05:45:33Z</time>
      </trkpt>
      <trkpt lat="49.95693" lon="4.38233">
        <ele>306.1</ele>
        <time>2020-06-25T05:45:34Z</time>
      </trkpt>
      <trkpt lat="49.9569" lon="4.3824">
        <ele>306.3</ele>
        <time>2020-06-25T05:45:35Z</time>
      </trkpt>
      <trkpt lat="49.95687" lon="4.38244">
        <ele>306.4</ele>
        <time>2020-06-25T05:45:36Z</time>
      </trkpt>
      <trkpt lat="49.95684" lon="4.38249">
        <ele>306.5</ele>
        <time>2020-06-25T05:45:37Z</time>
      </trkpt>
      <trkpt lat="49.95681" lon="4.38254">
        <ele>306.5</ele>
        <time>2020-06-25T05:45:38Z</time>
      </trkpt>
      <trkpt lat="49.95678" lon="4.38257">
        <ele>306.6</ele>
        <time>2020-06-25T05:45:39Z</time>
      </trkpt>
      <trkpt lat="49.95675" lon="4.38263">
        <ele>306.6</ele>
        <time>2020-06-25T05:45:40Z</time>
      </trkpt>
      <trkpt lat="49.95672" lon="4.38266">
        <ele>306.7</ele>
        <time>2020-06-25T05:45:41Z</time>
      </trkpt>
      <trkpt lat="49.95669" lon="4.38271">
        <ele>306.7</ele>
        <time>2020-06-25T05:45:42Z</time>
      </trkpt>
      <trkpt lat="49.95666" lon="4.38274">
        <ele>306.7</ele>
        <time>2020-06-25T05:45:43Z</time>
      </trkpt>
      <trkpt lat="49.95663" lon="4.38277">
        <ele>306.7</ele>
        <time>2020-06-25T05:45:44Z</time>
      </trkpt>
      <trkpt lat="49.9566" lon="4.38281">
        <ele>306.7</ele>
        <time>2020-06-25T05:45:45Z</time>
      </trkpt>
      <trkpt lat="49.95657" lon="4.38286">
        <ele>306.6</ele>
        <time>2020-06-25T05:45:46Z</time>
      </trkpt>
      <trkpt lat="49.95654" lon="4.38291">
        <ele>306.5</ele>
        <time>2020-06-25T05:45:47Z</time>
      </trkpt>
      <trkpt lat="49.9565" lon="4.38297">
        <ele>306.4</ele>
        <time>2020-06-25T05:45:48Z</time>
      </trkpt>
      <trkpt lat="49.95648" lon="4.38301">
        <ele>306.4</ele>
        <time>2020-06-25T05:45:49Z</time>
      </trkpt>
      <trkpt lat="49.95644" lon="4.38306">
        <ele>306.2</ele>
        <time>2020-06-25T05:45:50Z</time>
      </trkpt>
      <trkpt lat="49.95641" lon="4.3831">
        <ele>306.1</ele>
        <time>2020-06-25T05:45:51Z</time>
      </trkpt>
      <trkpt lat="49.95637" lon="4.38315">
        <ele>305.9</ele>
        <time>2020-06-25T05:45:52Z</time>
      </trkpt>
      <trkpt lat="49.95633" lon="4.3832">
        <ele>305.8</ele>
        <time>2020-06-25T05:45:53Z</time>
      </trkpt>
      <trkpt lat="49.95628" lon="4.38325">
        <ele>305.6</ele>
        <time>2020-06-25T05:45:54Z</time>
      </trkpt>
      <trkpt lat="49.95624" lon="4.38331">
        <ele>305.3</ele>
        <time>2020-06-25T05:45:55Z</time>
      </trkpt>
      <trkpt lat="49.95619" lon="4.38337">
        <ele>305.1</ele>
        <time>2020-06-25T05:45:56Z</time>
      </trkpt>
      <trkpt lat="49.95614" lon="4.38343">
        <ele>304.8</ele>
        <time>2020-06-25T05:45:57Z</time>
      </trkpt>
      <trkpt lat="49.95609" lon="4.38349">
        <ele>304.6</ele>
        <time>2020-06-25T05:45:58Z</time>
      </trkpt>
      <trkpt lat="49.95604" lon="4.38355">
        <ele>304.4</ele>
        <time>2020-06-25T05:45:59Z</time>
      </trkpt>
      <trkpt lat="49.95599" lon="4.38361">
        <ele>304.2</ele>
        <time>2020-06-25T05:46:00Z</time>
      </trkpt>
      <trkpt lat="49.95594" lon="4.38368">
        <ele>304</ele>
        <time>2020-06-25T05:46:01Z</time>
      </trkpt>
      <trkpt lat="49.95589" lon="4.38374">
        <ele>303.7</ele>
        <time>2020-06-25T05:46:02Z</time>
      </trkpt>
      <trkpt lat="49.95584" lon="4.3838">
        <ele>303.4</ele>
        <time>2020-06-25T05:46:03Z</time>
      </trkpt>
      <trkpt lat="49.95579" lon="4.38385">
        <ele>303.1</ele>
        <time>2020-06-25T05:46:04Z</time>
      </trkpt>
      <trkpt lat="49.95574" lon="4.38391">
        <ele>302.9</ele>
        <time>2020-06-25T05:46:05Z</time>
      </trkpt>
      <trkpt lat="49.95568" lon="4.38397">
        <ele>302.6</ele>
        <time>2020-06-25T05:46:06Z</time>
      </trkpt>
      <trkpt lat="49.95562" lon="4.38403">
        <ele>302.4</ele>
        <time>2020-06-25T05:46:07Z</time>
      </trkpt>
      <trkpt lat="49.95557" lon="4.38409">
        <ele>302.1</ele>
        <time>2020-06-25T05:46:08Z</time>
      </trkpt>
      <trkpt lat="49.95551" lon="4.38415">
        <ele>301.9</ele>
        <time>2020-06-25T05:46:09Z</time>
      </trkpt>
      <trkpt lat="49.95545" lon="4.38422">
        <ele>301.8</ele>
        <time>2020-06-25T05:46:10Z</time>
      </trkpt>
      <trkpt lat="49.95539" lon="4.38429">
        <ele>301.6</ele>
        <time>2020-06-25T05:46:11Z</time>
      </trkpt>
      <trkpt lat="49.95533" lon="4.38435">
        <ele>301.5</ele>
        <time>2020-06-25T05:46:12Z</time>
      </trkpt>
      <trkpt lat="49.95526" lon="4.38442">
        <ele>301.4</ele>
        <time>2020-06-25T05:46:13Z</time>
      </trkpt>
      <trkpt lat="49.9552" lon="4.38448">
        <ele>301.4</ele>
        <time>2020-06-25T05:46:14Z</time>
      </trkpt>
      <trkpt lat="49.95513" lon="4.38455">
        <ele>301.4</ele>
        <time>2020-06-25T05:46:15Z</time>
      </trkpt>
      <trkpt lat="49.95507" lon="4.38461">
        <ele>301.4</ele>
        <time>2020-06-25T05:46:16Z</time>
      </trkpt>
      <trkpt lat="49.955" lon="4.38467">
        <ele>301.5</ele>
        <time>2020-06-25T05:46:17Z</time>
      </trkpt>
      <trkpt lat="49.95494" lon="4.38473">
        <ele>301.6</ele>
        <time>2020-06-25T05:46:18Z</time>
      </trkpt>
      <trkpt lat="49.95488" lon="4.38479">
        <ele>301.7</ele>
        <time>2020-06-25T05:46:19Z</time>
      </trkpt>
      <trkpt lat="49.95482" lon="4.38484">
        <ele>301.8</ele>
        <time>2020-06-25T05:46:20Z</time>
      </trkpt>
      <trkpt lat="49.95476" lon="4.38489">
        <ele>301.9</ele>
        <time>2020-06-25T05:46:21Z</time>
      </trkpt>
      <trkpt lat="49.9547" lon="4.38494">
        <ele>302</ele>
        <time>2020-06-25T05:46:22Z</time>
      </trkpt>
      <trkpt lat="49.95464" lon="4.38498">
        <ele>302.1</ele>
        <time>2020-06-25T05:46:23Z</time>
      </trkpt>
      <trkpt lat="49.95458" lon="4.38503">
        <ele>302.2</ele>
        <time>2020-06-25T05:46:24Z</time>
      </trkpt>
      <trkpt lat="49.95452" lon="4.38508">
        <ele>302.3</ele>
        <time>2020-06-25T05:46:25Z</time>
      </trkpt>
      <trkpt lat="49.95446" lon="4.38513">
        <ele>302.4</ele>
        <time>2020-06-25T05:46:26Z</time>
      </trkpt>
      <trkpt lat="49.95441" lon="4.38517">
        <ele>302.5</ele>
        <time>2020-06-25T05:46:27Z</time>
      </trkpt>
      <trkpt lat="49.95435" lon="4.38522">
        <ele>302.5</ele>
        <time>2020-06-25T05:46:28Z</time>
      </trkpt>
      <trkpt lat="49.95429" lon="4.38527">
        <ele>302.6</ele>
        <time>2020-06-25T05:46:29Z</time>
      </trkpt>
      <trkpt lat="49.95423" lon="4.38532">
        <ele>302.7</ele>
        <time>2020-06-25T05:46:30Z</time>
      </trkpt>
      <trkpt lat="49.95417" lon="4.38537">
        <ele>302.7</ele>
        <time>2020-06-25T05:46:31Z</time>
      </trkpt>
      <trkpt lat="49.95411" lon="4.38541">
        <ele>302.8</ele>
        <time>2020-06-25T05:46:32Z</time>
      </trkpt>
      <trkpt lat="49.95405" lon="4.38545">
        <ele>302.9</ele>
        <time>2020-06-25T05:46:33Z</time>
      </trkpt>
      <trkpt lat="49.95399" lon="4.3855">
        <ele>303</ele>
        <time>2020-06-25T05:46:34Z</time>
      </trkpt>
      <trkpt lat="49.95393" lon="4.38554">
        <ele>303.2</ele>
        <time>2020-06-25T05:46:35Z</time>
      </trkpt>
      <trkpt lat="49.95387" lon="4.38558">
        <ele>303.2</ele>
        <time>2020-06-25T05:46:36Z</time>
      </trkpt>
      <trkpt lat="49.95382" lon="4.38563">
        <ele>303.3</ele>
        <time>2020-06-25T05:46:37Z</time>
      </trkpt>
      <trkpt lat="49.95376" lon="4.38567">
        <ele>303.4</ele>
        <time>2020-06-25T05:46:38Z</time>
      </trkpt>
      <trkpt lat="49.95371" lon="4.38571">
        <ele>303.5</ele>
        <time>2020-06-25T05:46:39Z</time>
      </trkpt>
      <trkpt lat="49.95365" lon="4.38575">
        <ele>303.6</ele>
        <time>2020-06-25T05:46:40Z</time>
      </trkpt>
      <trkpt lat="49.95359" lon="4.3858">
        <ele>303.7</ele>
        <time>2020-06-25T05:46:41Z</time>
      </trkpt>
      <trkpt lat="49.95353" lon="4.38584">
        <ele>303.8</ele>
        <time>2020-06-25T05:46:42Z</time>
      </trkpt>
      <trkpt lat="49.95347" lon="4.38589">
        <ele>303.9</ele>
        <time>2020-06-25T05:46:43Z</time>
      </trkpt>
      <trkpt lat="49.95342" lon="4.38593">
        <ele>304</ele>
        <time>2020-06-25T05:46:44Z</time>
      </trkpt>
      <trkpt lat="49.95335" lon="4.38599">
        <ele>304.1</ele>
        <time>2020-06-25T05:46:45Z</time>
      </trkpt>
      <trkpt lat="49.95329" lon="4.38604">
        <ele>304.2</ele>
        <time>2020-06-25T05:46:46Z</time>
      </trkpt>
      <trkpt lat="49.95324" lon="4.3861">
        <ele>304.3</ele>
        <time>2020-06-25T05:46:47Z</time>
      </trkpt>
      <trkpt lat="49.95318" lon="4.38616">
        <ele>304.4</ele>
        <time>2020-06-25T05:46:48Z</time>
      </trkpt>
      <trkpt lat="49.95313" lon="4.38622">
        <ele>304.5</ele>
        <time>2020-06-25T05:46:49Z</time>
      </trkpt>
      <trkpt lat="49.95307" lon="4.38626">
        <ele>304.6</ele>
        <time>2020-06-25T05:46:50Z</time>
      </trkpt>
      <trkpt lat="49.95302" lon="4.38631">
        <ele>304.7</ele>
        <time>2020-06-25T05:46:51Z</time>
      </trkpt>
      <trkpt lat="49.95297" lon="4.38636">
        <ele>304.8</ele>
        <time>2020-06-25T05:46:52Z</time>
      </trkpt>
      <trkpt lat="49.95292" lon="4.38641">
        <ele>304.8</ele>
        <time>2020-06-25T05:46:53Z</time>
      </trkpt>
      <trkpt lat="49.95286" lon="4.38645">
        <ele>304.9</ele>
        <time>2020-06-25T05:46:54Z</time>
      </trkpt>
      <trkpt lat="49.9528" lon="4.38651">
        <ele>305</ele>
        <time>2020-06-25T05:46:55Z</time>
      </trkpt>
      <trkpt lat="49.95274" lon="4.38656">
        <ele>305.1</ele>
        <time>2020-06-25T05:46:56Z</time>
      </trkpt>
      <trkpt lat="49.95269" lon="4.38661">
        <ele>305.1</ele>
        <time>2020-06-25T05:46:57Z</time>
      </trkpt>
      <trkpt lat="49.95264" lon="4.38666">
        <ele>305.2</ele>
        <time>2020-06-25T05:46:58Z</time>
      </trkpt>
      <trkpt lat="49.95259" lon="4.38672">
        <ele>305.3</ele>
        <time>2020-06-25T05:46:59Z</time>
      </trkpt>
      <trkpt lat="49.95255" lon="4.38677">
        <ele>305.4</ele>
        <time>2020-06-25T05:47:00Z</time>
      </trkpt>
      <trkpt lat="49.95251" lon="4.38681">
        <ele>305.5</ele>
        <time>2020-06-25T05:47:01Z</time>
      </trkpt>
      <trkpt lat="49.95246" lon="4.38687">
        <ele>305.7</ele>
        <time>2020-06-25T05:47:02Z</time>
      </trkpt>
      <trkpt lat="49.95242" lon="4.38692">
        <ele>305.8</ele>
        <time>2020-06-25T05:47:03Z</time>
      </trkpt>
      <trkpt lat="49.95238" lon="4.38697">
        <ele>306</ele>
        <time>2020-06-25T05:47:04Z</time>
      </trkpt>
      <trkpt lat="49.95233" lon="4.38703">
        <ele>306.2</ele>
        <time>2020-06-25T05:47:05Z</time>
      </trkpt>
      <trkpt lat="49.95229" lon="4.38708">
        <ele>306.4</ele>
        <time>2020-06-25T05:47:06Z</time>
      </trkpt>
      <trkpt lat="49.95224" lon="4.38714">
        <ele>306.6</ele>
        <time>2020-06-25T05:47:07Z</time>
      </trkpt>
      <trkpt lat="49.95219" lon="4.38719">
        <ele>306.7</ele>
        <time>2020-06-25T05:47:08Z</time>
      </trkpt>
      <trkpt lat="49.95214" lon="4.38725">
        <ele>306.7</ele>
        <time>2020-06-25T05:47:09Z</time>
      </trkpt>
      <trkpt lat="49.9521" lon="4.3873">
        <ele>306.8</ele>
        <time>2020-06-25T05:47:10Z</time>
      </trkpt>
      <trkpt lat="49.95206" lon="4.38736">
        <ele>306.8</ele>
        <time>2020-06-25T05:47:11Z</time>
      </trkpt>
      <trkpt lat="49.95201" lon="4.38741">
        <ele>306.9</ele>
        <time>2020-06-25T05:47:12Z</time>
      </trkpt>
      <trkpt lat="49.95197" lon="4.38747">
        <ele>307</ele>
        <time>2020-06-25T05:47:13Z</time>
      </trkpt>
      <trkpt lat="49.95192" lon="4.38753">
        <ele>307</ele>
        <time>2020-06-25T05:47:14Z</time>
      </trkpt>
      <trkpt lat="49.95187" lon="4.38758">
        <ele>307.1</ele>
        <time>2020-06-25T05:47:15Z</time>
      </trkpt>
      <trkpt lat="49.95184" lon="4.38763">
        <ele>307.1</ele>
        <time>2020-06-25T05:47:16Z</time>
      </trkpt>
      <trkpt lat="49.9518" lon="4.38768">
        <ele>307.1</ele>
        <time>2020-06-25T05:47:17Z</time>
      </trkpt>
      <trkpt lat="49.95176" lon="4.38773">
        <ele>307.1</ele>
        <time>2020-06-25T05:47:18Z</time>
      </trkpt>
      <trkpt lat="49.95172" lon="4.38778">
        <ele>307.2</ele>
        <time>2020-06-25T05:47:19Z</time>
      </trkpt>
      <trkpt lat="49.95168" lon="4.38783">
        <ele>307.2</ele>
        <time>2020-06-25T05:47:20Z</time>
      </trkpt>
      <trkpt lat="49.95165" lon="4.38787">
        <ele>307.2</ele>
        <time>2020-06-25T05:47:21Z</time>
      </trkpt>
      <trkpt lat="49.95161" lon="4.38791">
        <ele>307.2</ele>
        <time>2020-06-25T05:47:22Z</time>
      </trkpt>
      <trkpt lat="49.95157" lon="4.38796">
        <ele>307.2</ele>
        <time>2020-06-25T05:47:23Z</time>
      </trkpt>
      <trkpt lat="49.95153" lon="4.38802">
        <ele>307.2</ele>
        <time>2020-06-25T05:47:24Z</time>
      </trkpt>
      <trkpt lat="49.95149" lon="4.38808">
        <ele>307.2</ele>
        <time>2020-06-25T05:47:25Z</time>
      </trkpt>
      <trkpt lat="49.95146" lon="4.38812">
        <ele>307.2</ele>
        <time>2020-06-25T05:47:26Z</time>
      </trkpt>
      <trkpt lat="49.95142" lon="4.38817">
        <ele>307.2</ele>
        <time>2020-06-25T05:47:27Z</time>
      </trkpt>
      <trkpt lat="49.95138" lon="4.38822">
        <ele>307.2</ele>
        <time>2020-06-25T05:47:28Z</time>
      </trkpt>
      <trkpt lat="49.95134" lon="4.38826">
        <ele>307.2</ele>
        <time>2020-06-25T05:47:29Z</time>
      </trkpt>
      <trkpt lat="49.95129" lon="4.38832">
        <ele>307.2</ele>
        <time>2020-06-25T05:47:30Z</time>
      </trkpt>
      <trkpt lat="49.95124" lon="4.38837">
        <ele>307.1</ele>
        <time>2020-06-25T05:47:31Z</time>
      </trkpt>
      <trkpt lat="49.95119" lon="4.38843">
        <ele>307.1</ele>
        <time>2020-06-25T05:47:32Z</time>
      </trkpt>
      <trkpt lat="49.95115" lon="4.38848">
        <ele>307</ele>
        <time>2020-06-25T05:47:33Z</time>
      </trkpt>
      <trkpt lat="49.9511" lon="4.38853">
        <ele>307</ele>
        <time>2020-06-25T05:47:34Z</time>
      </trkpt>
      <trkpt lat="49.95105" lon="4.38859">
        <ele>306.9</ele>
        <time>2020-06-25T05:47:35Z</time>
      </trkpt>
      <trkpt lat="49.951" lon="4.38865">
        <ele>306.9</ele>
        <time>2020-06-25T05:47:36Z</time>
      </trkpt>
      <trkpt lat="49.95096" lon="4.38871">
        <ele>306.9</ele>
        <time>2020-06-25T05:47:37Z</time>
      </trkpt>
      <trkpt lat="49.9509" lon="4.38877">
        <ele>306.9</ele>
        <time>2020-06-25T05:47:38Z</time>
      </trkpt>
      <trkpt lat="49.95085" lon="4.38883">
        <ele>306.9</ele>
        <time>2020-06-25T05:47:39Z</time>
      </trkpt>
      <trkpt lat="49.9508" lon="4.3889">
        <ele>306.9</ele>
        <time>2020-06-25T05:47:40Z</time>
      </trkpt>
      <trkpt lat="49.95075" lon="4.38895">
        <ele>306.9</ele>
        <time>2020-06-25T05:47:41Z</time>
      </trkpt>
      <trkpt lat="49.95069" lon="4.38902">
        <ele>306.9</ele>
        <time>2020-06-25T05:47:42Z</time>
      </trkpt>
      <trkpt lat="49.95064" lon="4.38908">
        <ele>306.9</ele>
        <time>2020-06-25T05:47:43Z</time>
      </trkpt>
      <trkpt lat="49.95059" lon="4.38915">
        <ele>307</ele>
        <time>2020-06-25T05:47:44Z</time>
      </trkpt>
      <trkpt lat="49.95053" lon="4.38922">
        <ele>306.9</ele>
        <time>2020-06-25T05:47:45Z</time>
      </trkpt>
      <trkpt lat="49.95047" lon="4.38929">
        <ele>306.9</ele>
        <time>2020-06-25T05:47:46Z</time>
      </trkpt>
      <trkpt lat="49.95042" lon="4.38935">
        <ele>306.9</ele>
        <time>2020-06-25T05:47:47Z</time>
      </trkpt>
      <trkpt lat="49.95037" lon="4.3894">
        <ele>307</ele>
        <time>2020-06-25T05:47:48Z</time>
      </trkpt>
      <trkpt lat="49.95031" lon="4.38947">
        <ele>307</ele>
        <time>2020-06-25T05:47:49Z</time>
      </trkpt>
      <trkpt lat="49.95027" lon="4.38954">
        <ele>307</ele>
        <time>2020-06-25T05:47:50Z</time>
      </trkpt>
      <trkpt lat="49.95021" lon="4.3896">
        <ele>307</ele>
        <time>2020-06-25T05:47:51Z</time>
      </trkpt>
      <trkpt lat="49.95017" lon="4.38967">
        <ele>307</ele>
        <time>2020-06-25T05:47:52Z</time>
      </trkpt>
      <trkpt lat="49.95012" lon="4.38973">
        <ele>307</ele>
        <time>2020-06-25T05:47:53Z</time>
      </trkpt>
      <trkpt lat="49.95007" lon="4.38979">
        <ele>307</ele>
        <time>2020-06-25T05:47:54Z</time>
      </trkpt>
      <trkpt lat="49.95002" lon="4.38985">
        <ele>307</ele>
        <time>2020-06-25T05:47:55Z</time>
      </trkpt>
      <trkpt lat="49.94996" lon="4.38991">
        <ele>307.1</ele>
        <time>2020-06-25T05:47:56Z</time>
      </trkpt>
      <trkpt lat="49.94991" lon="4.38998">
        <ele>307.1</ele>
        <time>2020-06-25T05:47:57Z</time>
      </trkpt>
      <trkpt lat="49.94986" lon="4.39005">
        <ele>307.1</ele>
        <time>2020-06-25T05:47:58Z</time>
      </trkpt>
      <trkpt lat="49.94981" lon="4.39011">
        <ele>307.2</ele>
        <time>2020-06-25T05:47:59Z</time>
      </trkpt>
      <trkpt lat="49.94976" lon="4.39018">
        <ele>307.2</ele>
        <time>2020-06-25T05:48:00Z</time>
      </trkpt>
      <trkpt lat="49.94972" lon="4.39024">
        <ele>307.3</ele>
        <time>2020-06-25T05:48:01Z</time>
      </trkpt>
      <trkpt lat="49.94967" lon="4.39031">
        <ele>307.4</ele>
        <time>2020-06-25T05:48:02Z</time>
      </trkpt>
      <trkpt lat="49.94963" lon="4.39037">
        <ele>307.5</ele>
        <time>2020-06-25T05:48:03Z</time>
      </trkpt>
      <trkpt lat="49.94959" lon="4.39044">
        <ele>307.6</ele>
        <time>2020-06-25T05:48:04Z</time>
      </trkpt>
      <trkpt lat="49.94956" lon="4.39051">
        <ele>307.8</ele>
        <time>2020-06-25T05:48:05Z</time>
      </trkpt>
      <trkpt lat="49.94952" lon="4.39058">
        <ele>307.9</ele>
        <time>2020-06-25T05:48:06Z</time>
      </trkpt>
      <trkpt lat="49.94949" lon="4.39064">
        <ele>308.1</ele>
        <time>2020-06-25T05:48:07Z</time>
      </trkpt>
      <trkpt lat="49.94947" lon="4.3907">
        <ele>308.3</ele>
        <time>2020-06-25T05:48:08Z</time>
      </trkpt>
      <trkpt lat="49.94944" lon="4.39077">
        <ele>308.4</ele>
        <time>2020-06-25T05:48:09Z</time>
      </trkpt>
      <trkpt lat="49.94942" lon="4.39083">
        <ele>308.6</ele>
        <time>2020-06-25T05:48:10Z</time>
      </trkpt>
      <trkpt lat="49.94939" lon="4.39091">
        <ele>308.8</ele>
        <time>2020-06-25T05:48:11Z</time>
      </trkpt>
      <trkpt lat="49.94936" lon="4.39098">
        <ele>309.1</ele>
        <time>2020-06-25T05:48:12Z</time>
      </trkpt>
      <trkpt lat="49.94933" lon="4.39106">
        <ele>309.4</ele>
        <time>2020-06-25T05:48:13Z</time>
      </trkpt>
      <trkpt lat="49.94931" lon="4.39114">
        <ele>309.7</ele>
        <time>2020-06-25T05:48:14Z</time>
      </trkpt>
      <trkpt lat="49.94928" lon="4.39121">
        <ele>310</ele>
        <time>2020-06-25T05:48:15Z</time>
      </trkpt>
      <trkpt lat="49.94927" lon="4.39127">
        <ele>310.2</ele>
        <time>2020-06-25T05:48:16Z</time>
      </trkpt>
      <trkpt lat="49.94924" lon="4.39136">
        <ele>310.6</ele>
        <time>2020-06-25T05:48:17Z</time>
      </trkpt>
      <trkpt lat="49.94922" lon="4.39143">
        <ele>310.8</ele>
        <time>2020-06-25T05:48:18Z</time>
      </trkpt>
      <trkpt lat="49.9492" lon="4.39151">
        <ele>311.1</ele>
        <time>2020-06-25T05:48:19Z</time>
      </trkpt>
      <trkpt lat="49.94919" lon="4.39157">
        <ele>311.3</ele>
        <time>2020-06-25T05:48:20Z</time>
      </trkpt>
      <trkpt lat="49.94917" lon="4.39165">
        <ele>311.6</ele>
        <time>2020-06-25T05:48:21Z</time>
      </trkpt>
      <trkpt lat="49.94915" lon="4.39173">
        <ele>311.8</ele>
        <time>2020-06-25T05:48:22Z</time>
      </trkpt>
      <trkpt lat="49.94914" lon="4.3918">
        <ele>312.1</ele>
        <time>2020-06-25T05:48:23Z</time>
      </trkpt>
      <trkpt lat="49.94913" lon="4.39186">
        <ele>312.3</ele>
        <time>2020-06-25T05:48:24Z</time>
      </trkpt>
      <trkpt lat="49.94912" lon="4.39192">
        <ele>312.4</ele>
        <time>2020-06-25T05:48:25Z</time>
      </trkpt>
      <trkpt lat="49.9491" lon="4.39199">
        <ele>312.6</ele>
        <time>2020-06-25T05:48:26Z</time>
      </trkpt>
      <trkpt lat="49.9491" lon="4.39205">
        <ele>312.8</ele>
        <time>2020-06-25T05:48:27Z</time>
      </trkpt>
      <trkpt lat="49.94909" lon="4.3921">
        <ele>313</ele>
        <time>2020-06-25T05:48:28Z</time>
      </trkpt>
      <trkpt lat="49.94909" lon="4.39216">
        <ele>313.1</ele>
        <time>2020-06-25T05:48:29Z</time>
      </trkpt>
      <trkpt lat="49.94908" lon="4.39223">
        <ele>313.3</ele>
        <time>2020-06-25T05:48:30Z</time>
      </trkpt>
      <trkpt lat="49.94907" lon="4.3923">
        <ele>313.4</ele>
        <time>2020-06-25T05:48:31Z</time>
      </trkpt>
      <trkpt lat="49.94906" lon="4.39237">
        <ele>313.5</ele>
        <time>2020-06-25T05:48:32Z</time>
      </trkpt>
      <trkpt lat="49.94905" lon="4.39244">
        <ele>313.6</ele>
        <time>2020-06-25T05:48:33Z</time>
      </trkpt>
      <trkpt lat="49.94905" lon="4.39251">
        <ele>313.6</ele>
        <time>2020-06-25T05:48:34Z</time>
      </trkpt>
      <trkpt lat="49.94905" lon="4.39257">
        <ele>313.6</ele>
        <time>2020-06-25T05:48:35Z</time>
      </trkpt>
      <trkpt lat="49.94904" lon="4.39264">
        <ele>313.6</ele>
        <time>2020-06-25T05:48:36Z</time>
      </trkpt>
      <trkpt lat="49.94904" lon="4.3927">
        <ele>313.6</ele>
        <time>2020-06-25T05:48:37Z</time>
      </trkpt>
      <trkpt lat="49.94904" lon="4.39278">
        <ele>313.6</ele>
        <time>2020-06-25T05:48:38Z</time>
      </trkpt>
      <trkpt lat="49.94905" lon="4.39287">
        <ele>313.5</ele>
        <time>2020-06-25T05:48:39Z</time>
      </trkpt>
      <trkpt lat="49.94905" lon="4.39296">
        <ele>313.4</ele>
        <time>2020-06-25T05:48:40Z</time>
      </trkpt>
      <trkpt lat="49.94905" lon="4.39304">
        <ele>313.3</ele>
        <time>2020-06-25T05:48:41Z</time>
      </trkpt>
      <trkpt lat="49.94906" lon="4.3931">
        <ele>313.2</ele>
        <time>2020-06-25T05:48:42Z</time>
      </trkpt>
      <trkpt lat="49.94906" lon="4.39317">
        <ele>313.1</ele>
        <time>2020-06-25T05:48:43Z</time>
      </trkpt>
      <trkpt lat="49.94907" lon="4.39322">
        <ele>313</ele>
        <time>2020-06-25T05:48:44Z</time>
      </trkpt>
      <trkpt lat="49.94908" lon="4.39329">
        <ele>312.8</ele>
        <time>2020-06-25T05:48:45Z</time>
      </trkpt>
      <trkpt lat="49.94909" lon="4.39337">
        <ele>312.6</ele>
        <time>2020-06-25T05:48:46Z</time>
      </trkpt>
      <trkpt lat="49.9491" lon="4.39346">
        <ele>312.3</ele>
        <time>2020-06-25T05:48:47Z</time>
      </trkpt>
      <trkpt lat="49.94911" lon="4.39354">
        <ele>312.1</ele>
        <time>2020-06-25T05:48:48Z</time>
      </trkpt>
      <trkpt lat="49.94913" lon="4.39362">
        <ele>311.8</ele>
        <time>2020-06-25T05:48:49Z</time>
      </trkpt>
      <trkpt lat="49.94915" lon="4.39373">
        <ele>311.4</ele>
        <time>2020-06-25T05:48:50Z</time>
      </trkpt>
      <trkpt lat="49.94917" lon="4.39384">
        <ele>311</ele>
        <time>2020-06-25T05:48:51Z</time>
      </trkpt>
      <trkpt lat="49.94919" lon="4.39394">
        <ele>310.6</ele>
        <time>2020-06-25T05:48:52Z</time>
      </trkpt>
      <trkpt lat="49.94922" lon="4.39407">
        <ele>310.2</ele>
        <time>2020-06-25T05:48:53Z</time>
      </trkpt>
      <trkpt lat="49.94924" lon="4.39419">
        <ele>309.8</ele>
        <time>2020-06-25T05:48:54Z</time>
      </trkpt>
      <trkpt lat="49.94926" lon="4.39431">
        <ele>309.4</ele>
        <time>2020-06-25T05:48:55Z</time>
      </trkpt>
      <trkpt lat="49.94929" lon="4.39442">
        <ele>309</ele>
        <time>2020-06-25T05:48:56Z</time>
      </trkpt>
      <trkpt lat="49.94931" lon="4.39454">
        <ele>308.7</ele>
        <time>2020-06-25T05:48:57Z</time>
      </trkpt>
      <trkpt lat="49.94933" lon="4.39466">
        <ele>308.3</ele>
        <time>2020-06-25T05:48:58Z</time>
      </trkpt>
      <trkpt lat="49.94936" lon="4.39479">
        <ele>307.9</ele>
        <time>2020-06-25T05:48:59Z</time>
      </trkpt>
      <trkpt lat="49.94939" lon="4.39491">
        <ele>307.7</ele>
        <time>2020-06-25T05:49:00Z</time>
      </trkpt>
      <trkpt lat="49.94941" lon="4.39504">
        <ele>307.5</ele>
        <time>2020-06-25T05:49:01Z</time>
      </trkpt>
      <trkpt lat="49.94944" lon="4.39517">
        <ele>307.5</ele>
        <time>2020-06-25T05:49:02Z</time>
      </trkpt>
      <trkpt lat="49.94947" lon="4.3953">
        <ele>307.5</ele>
        <time>2020-06-25T05:49:03Z</time>
      </trkpt>
      <trkpt lat="49.94949" lon="4.39542">
        <ele>307.6</ele>
        <time>2020-06-25T05:49:04Z</time>
      </trkpt>
      <trkpt lat="49.94952" lon="4.39554">
        <ele>307.6</ele>
        <time>2020-06-25T05:49:05Z</time>
      </trkpt>
      <trkpt lat="49.94954" lon="4.39565">
        <ele>307.7</ele>
        <time>2020-06-25T05:49:06Z</time>
      </trkpt>
      <trkpt lat="49.94957" lon="4.39576">
        <ele>307.8</ele>
        <time>2020-06-25T05:49:07Z</time>
      </trkpt>
      <trkpt lat="49.94959" lon="4.39587">
        <ele>307.9</ele>
        <time>2020-06-25T05:49:08Z</time>
      </trkpt>
      <trkpt lat="49.94961" lon="4.39598">
        <ele>308</ele>
        <time>2020-06-25T05:49:09Z</time>
      </trkpt>
      <trkpt lat="49.94963" lon="4.39609">
        <ele>308.1</ele>
        <time>2020-06-25T05:49:10Z</time>
      </trkpt>
      <trkpt lat="49.94966" lon="4.39619">
        <ele>308.2</ele>
        <time>2020-06-25T05:49:11Z</time>
      </trkpt>
      <trkpt lat="49.94968" lon="4.3963">
        <ele>308.3</ele>
        <time>2020-06-25T05:49:12Z</time>
      </trkpt>
      <trkpt lat="49.9497" lon="4.39639">
        <ele>308.4</ele>
        <time>2020-06-25T05:49:13Z</time>
      </trkpt>
      <trkpt lat="49.94971" lon="4.39649">
        <ele>308.5</ele>
        <time>2020-06-25T05:49:14Z</time>
      </trkpt>
      <trkpt lat="49.94972" lon="4.39658">
        <ele>308.6</ele>
        <time>2020-06-25T05:49:15Z</time>
      </trkpt>
      <trkpt lat="49.94973" lon="4.39668">
        <ele>308.7</ele>
        <time>2020-06-25T05:49:16Z</time>
      </trkpt>
      <trkpt lat="49.94974" lon="4.39678">
        <ele>308.8</ele>
        <time>2020-06-25T05:49:17Z</time>
      </trkpt>
      <trkpt lat="49.94974" lon="4.39688">
        <ele>308.8</ele>
        <time>2020-06-25T05:49:18Z</time>
      </trkpt>
      <trkpt lat="49.94975" lon="4.39698">
        <ele>308.9</ele>
        <time>2020-06-25T05:49:19Z</time>
      </trkpt>
      <trkpt lat="49.94975" lon="4.39707">
        <ele>309</ele>
        <time>2020-06-25T05:49:20Z</time>
      </trkpt>
      <trkpt lat="49.94976" lon="4.39716">
        <ele>309.1</ele>
        <time>2020-06-25T05:49:21Z</time>
      </trkpt>
      <trkpt lat="49.94976" lon="4.39726">
        <ele>309.2</ele>
        <time>2020-06-25T05:49:22Z</time>
      </trkpt>
      <trkpt lat="49.94975" lon="4.39735">
        <ele>309.4</ele>
        <time>2020-06-25T05:49:23Z</time>
      </trkpt>
      <trkpt lat="49.94975" lon="4.39745">
        <ele>309.4</ele>
        <time>2020-06-25T05:49:24Z</time>
      </trkpt>
      <trkpt lat="49.94975" lon="4.39755">
        <ele>309.5</ele>
        <time>2020-06-25T05:49:25Z</time>
      </trkpt>
      <trkpt lat="49.94974" lon="4.39764">
        <ele>309.5</ele>
        <time>2020-06-25T05:49:26Z</time>
      </trkpt>
      <trkpt lat="49.94974" lon="4.39774">
        <ele>309.6</ele>
        <time>2020-06-25T05:49:27Z</time>
      </trkpt>
      <trkpt lat="49.94973" lon="4.39782">
        <ele>309.7</ele>
        <time>2020-06-25T05:49:28Z</time>
      </trkpt>
      <trkpt lat="49.94972" lon="4.39791">
        <ele>309.8</ele>
        <time>2020-06-25T05:49:29Z</time>
      </trkpt>
      <trkpt lat="49.94972" lon="4.398">
        <ele>309.9</ele>
        <time>2020-06-25T05:49:30Z</time>
      </trkpt>
      <trkpt lat="49.94971" lon="4.39809">
        <ele>310</ele>
        <time>2020-06-25T05:49:31Z</time>
      </trkpt>
      <trkpt lat="49.9497" lon="4.39818">
        <ele>310.1</ele>
        <time>2020-06-25T05:49:32Z</time>
      </trkpt>
      <trkpt lat="49.94969" lon="4.39827">
        <ele>310.3</ele>
        <time>2020-06-25T05:49:33Z</time>
      </trkpt>
      <trkpt lat="49.94968" lon="4.39835">
        <ele>310.4</ele>
        <time>2020-06-25T05:49:34Z</time>
      </trkpt>
      <trkpt lat="49.94967" lon="4.39844">
        <ele>310.4</ele>
        <time>2020-06-25T05:49:35Z</time>
      </trkpt>
      <trkpt lat="49.94966" lon="4.39852">
        <ele>310.5</ele>
        <time>2020-06-25T05:49:36Z</time>
      </trkpt>
      <trkpt lat="49.94965" lon="4.3986">
        <ele>310.6</ele>
        <time>2020-06-25T05:49:37Z</time>
      </trkpt>
      <trkpt lat="49.94964" lon="4.39869">
        <ele>310.6</ele>
        <time>2020-06-25T05:49:38Z</time>
      </trkpt>
      <trkpt lat="49.94963" lon="4.39877">
        <ele>310.7</ele>
        <time>2020-06-25T05:49:39Z</time>
      </trkpt>
      <trkpt lat="49.94962" lon="4.39885">
        <ele>310.7</ele>
        <time>2020-06-25T05:49:40Z</time>
      </trkpt>
      <trkpt lat="49.94962" lon="4.39893">
        <ele>310.8</ele>
        <time>2020-06-25T05:49:41Z</time>
      </trkpt>
      <trkpt lat="49.94961" lon="4.39901">
        <ele>310.8</ele>
        <time>2020-06-25T05:49:42Z</time>
      </trkpt>
      <trkpt lat="49.9496" lon="4.3991">
        <ele>310.9</ele>
        <time>2020-06-25T05:49:43Z</time>
      </trkpt>
      <trkpt lat="49.94959" lon="4.3992">
        <ele>310.9</ele>
        <time>2020-06-25T05:49:44Z</time>
      </trkpt>
      <trkpt lat="49.94958" lon="4.39931">
        <ele>310.9</ele>
        <time>2020-06-25T05:49:45Z</time>
      </trkpt>
      <trkpt lat="49.94957" lon="4.3994">
        <ele>310.9</ele>
        <time>2020-06-25T05:49:46Z</time>
      </trkpt>
      <trkpt lat="49.94956" lon="4.3995">
        <ele>310.8</ele>
        <time>2020-06-25T05:49:47Z</time>
      </trkpt>
      <trkpt lat="49.94955" lon="4.3996">
        <ele>310.7</ele>
        <time>2020-06-25T05:49:48Z</time>
      </trkpt>
      <trkpt lat="49.94954" lon="4.3997">
        <ele>310.6</ele>
        <time>2020-06-25T05:49:49Z</time>
      </trkpt>
      <trkpt lat="49.94953" lon="4.3998">
        <ele>310.5</ele>
        <time>2020-06-25T05:49:50Z</time>
      </trkpt>
      <trkpt lat="49.94953" lon="4.3999">
        <ele>310.4</ele>
        <time>2020-06-25T05:49:51Z</time>
      </trkpt>
      <trkpt lat="49.94952" lon="4.4">
        <ele>310.4</ele>
        <time>2020-06-25T05:49:52Z</time>
      </trkpt>
      <trkpt lat="49.94952" lon="4.40009">
        <ele>310.3</ele>
        <time>2020-06-25T05:49:53Z</time>
      </trkpt>
      <trkpt lat="49.94952" lon="4.40019">
        <ele>310.2</ele>
        <time>2020-06-25T05:49:54Z</time>
      </trkpt>
      <trkpt lat="49.94952" lon="4.40028">
        <ele>310.2</ele>
        <time>2020-06-25T05:49:55Z</time>
      </trkpt>
      <trkpt lat="49.94952" lon="4.40038">
        <ele>310.1</ele>
        <time>2020-06-25T05:49:56Z</time>
      </trkpt>
      <trkpt lat="49.94952" lon="4.40049">
        <ele>310</ele>
        <time>2020-06-25T05:49:57Z</time>
      </trkpt>
      <trkpt lat="49.94952" lon="4.40059">
        <ele>309.9</ele>
        <time>2020-06-25T05:49:58Z</time>
      </trkpt>
      <trkpt lat="49.94952" lon="4.4007">
        <ele>309.9</ele>
        <time>2020-06-25T05:49:59Z</time>
      </trkpt>
      <trkpt lat="49.94952" lon="4.40081">
        <ele>309.8</ele>
        <time>2020-06-25T05:50:00Z</time>
      </trkpt>
      <trkpt lat="49.94953" lon="4.40092">
        <ele>309.8</ele>
        <time>2020-06-25T05:50:01Z</time>
      </trkpt>
      <trkpt lat="49.94953" lon="4.40103">
        <ele>309.7</ele>
        <time>2020-06-25T05:50:02Z</time>
      </trkpt>
      <trkpt lat="49.94955" lon="4.40113">
        <ele>309.6</ele>
        <time>2020-06-25T05:50:03Z</time>
      </trkpt>
      <trkpt lat="49.94956" lon="4.40123">
        <ele>309.6</ele>
        <time>2020-06-25T05:50:04Z</time>
      </trkpt>
      <trkpt lat="49.94957" lon="4.40135">
        <ele>309.5</ele>
        <time>2020-06-25T05:50:05Z</time>
      </trkpt>
      <trkpt lat="49.94958" lon="4.40145">
        <ele>309.5</ele>
        <time>2020-06-25T05:50:06Z</time>
      </trkpt>
      <trkpt lat="49.9496" lon="4.40155">
        <ele>309.5</ele>
        <time>2020-06-25T05:50:07Z</time>
      </trkpt>
      <trkpt lat="49.94961" lon="4.40165">
        <ele>309.5</ele>
        <time>2020-06-25T05:50:08Z</time>
      </trkpt>
      <trkpt lat="49.94962" lon="4.40175">
        <ele>309.5</ele>
        <time>2020-06-25T05:50:09Z</time>
      </trkpt>
      <trkpt lat="49.94964" lon="4.40187">
        <ele>309.5</ele>
        <time>2020-06-25T05:50:10Z</time>
      </trkpt>
      <trkpt lat="49.94965" lon="4.40199">
        <ele>309.5</ele>
        <time>2020-06-25T05:50:11Z</time>
      </trkpt>
      <trkpt lat="49.94965" lon="4.4021">
        <ele>309.5</ele>
        <time>2020-06-25T05:50:12Z</time>
      </trkpt>
      <trkpt lat="49.94966" lon="4.40221">
        <ele>309.5</ele>
        <time>2020-06-25T05:50:13Z</time>
      </trkpt>
      <trkpt lat="49.94967" lon="4.40231">
        <ele>309.5</ele>
        <time>2020-06-25T05:50:14Z</time>
      </trkpt>
      <trkpt lat="49.94969" lon="4.4024">
        <ele>309.5</ele>
        <time>2020-06-25T05:50:15Z</time>
      </trkpt>
      <trkpt lat="49.9497" lon="4.4025">
        <ele>309.6</ele>
        <time>2020-06-25T05:50:16Z</time>
      </trkpt>
      <trkpt lat="49.94971" lon="4.4026">
        <ele>309.6</ele>
        <time>2020-06-25T05:50:17Z</time>
      </trkpt>
      <trkpt lat="49.94972" lon="4.40271">
        <ele>309.6</ele>
        <time>2020-06-25T05:50:18Z</time>
      </trkpt>
      <trkpt lat="49.94973" lon="4.40281">
        <ele>309.6</ele>
        <time>2020-06-25T05:50:19Z</time>
      </trkpt>
      <trkpt lat="49.94973" lon="4.40291">
        <ele>309.6</ele>
        <time>2020-06-25T05:50:20Z</time>
      </trkpt>
      <trkpt lat="49.94974" lon="4.40301">
        <ele>309.6</ele>
        <time>2020-06-25T05:50:21Z</time>
      </trkpt>
      <trkpt lat="49.94974" lon="4.4031">
        <ele>309.6</ele>
        <time>2020-06-25T05:50:22Z</time>
      </trkpt>
      <trkpt lat="49.94975" lon="4.40318">
        <ele>309.7</ele>
        <time>2020-06-25T05:50:23Z</time>
      </trkpt>
      <trkpt lat="49.94975" lon="4.40328">
        <ele>309.7</ele>
        <time>2020-06-25T05:50:24Z</time>
      </trkpt>
      <trkpt lat="49.94975" lon="4.4034">
        <ele>309.8</ele>
        <time>2020-06-25T05:50:25Z</time>
      </trkpt>
      <trkpt lat="49.94975" lon="4.40351">
        <ele>309.9</ele>
        <time>2020-06-25T05:50:26Z</time>
      </trkpt>
      <trkpt lat="49.94974" lon="4.40361">
        <ele>310</ele>
        <time>2020-06-25T05:50:27Z</time>
      </trkpt>
      <trkpt lat="49.94974" lon="4.40372">
        <ele>310</ele>
        <time>2020-06-25T05:50:28Z</time>
      </trkpt>
      <trkpt lat="49.94973" lon="4.40382">
        <ele>310</ele>
        <time>2020-06-25T05:50:29Z</time>
      </trkpt>
      <trkpt lat="49.94972" lon="4.40392">
        <ele>310</ele>
        <time>2020-06-25T05:50:30Z</time>
      </trkpt>
      <trkpt lat="49.94971" lon="4.40403">
        <ele>310</ele>
        <time>2020-06-25T05:50:31Z</time>
      </trkpt>
      <trkpt lat="49.9497" lon="4.40415">
        <ele>310.1</ele>
        <time>2020-06-25T05:50:32Z</time>
      </trkpt>
      <trkpt lat="49.9497" lon="4.40425">
        <ele>310.2</ele>
        <time>2020-06-25T05:50:33Z</time>
      </trkpt>
      <trkpt lat="49.94969" lon="4.40435">
        <ele>310.2</ele>
        <time>2020-06-25T05:50:34Z</time>
      </trkpt>
      <trkpt lat="49.94968" lon="4.40443">
        <ele>310.2</ele>
        <time>2020-06-25T05:50:35Z</time>
      </trkpt>
      <trkpt lat="49.94968" lon="4.40451">
        <ele>310.3</ele>
        <time>2020-06-25T05:50:36Z</time>
      </trkpt>
      <trkpt lat="49.94967" lon="4.40461">
        <ele>310.3</ele>
        <time>2020-06-25T05:50:37Z</time>
      </trkpt>
      <trkpt lat="49.94966" lon="4.40471">
        <ele>310.3</ele>
        <time>2020-06-25T05:50:38Z</time>
      </trkpt>
      <trkpt lat="49.94966" lon="4.40481">
        <ele>310.2</ele>
        <time>2020-06-25T05:50:39Z</time>
      </trkpt>
      <trkpt lat="49.94965" lon="4.40491">
        <ele>310.1</ele>
        <time>2020-06-25T05:50:40Z</time>
      </trkpt>
      <trkpt lat="49.94965" lon="4.40501">
        <ele>310</ele>
        <time>2020-06-25T05:50:41Z</time>
      </trkpt>
      <trkpt lat="49.94964" lon="4.40509">
        <ele>310</ele>
        <time>2020-06-25T05:50:42Z</time>
      </trkpt>
      <trkpt lat="49.94964" lon="4.40517">
        <ele>310.1</ele>
        <time>2020-06-25T05:50:43Z</time>
      </trkpt>
      <trkpt lat="49.94963" lon="4.40525">
        <ele>310.2</ele>
        <time>2020-06-25T05:50:44Z</time>
      </trkpt>
      <trkpt lat="49.94963" lon="4.40534">
        <ele>310.3</ele>
        <time>2020-06-25T05:50:45Z</time>
      </trkpt>
      <trkpt lat="49.94963" lon="4.40543">
        <ele>310.3</ele>
        <time>2020-06-25T05:50:46Z</time>
      </trkpt>
      <trkpt lat="49.94962" lon="4.40552">
        <ele>310.4</ele>
        <time>2020-06-25T05:50:47Z</time>
      </trkpt>
      <trkpt lat="49.94962" lon="4.40561">
        <ele>310.5</ele>
        <time>2020-06-25T05:50:48Z</time>
      </trkpt>
      <trkpt lat="49.94962" lon="4.40571">
        <ele>310.7</ele>
        <time>2020-06-25T05:50:49Z</time>
      </trkpt>
      <trkpt lat="49.94962" lon="4.40582">
        <ele>310.8</ele>
        <time>2020-06-25T05:50:50Z</time>
      </trkpt>
      <trkpt lat="49.94962" lon="4.40591">
        <ele>310.9</ele>
        <time>2020-06-25T05:50:51Z</time>
      </trkpt>
      <trkpt lat="49.94962" lon="4.40599">
        <ele>311</ele>
        <time>2020-06-25T05:50:52Z</time>
      </trkpt>
      <trkpt lat="49.94962" lon="4.40607">
        <ele>311.1</ele>
        <time>2020-06-25T05:50:53Z</time>
      </trkpt>
      <trkpt lat="49.94962" lon="4.40615">
        <ele>311.2</ele>
        <time>2020-06-25T05:50:54Z</time>
      </trkpt>
      <trkpt lat="49.94962" lon="4.40625">
        <ele>311.3</ele>
        <time>2020-06-25T05:50:55Z</time>
      </trkpt>
      <trkpt lat="49.94962" lon="4.40633">
        <ele>311.4</ele>
        <time>2020-06-25T05:50:56Z</time>
      </trkpt>
      <trkpt lat="49.94962" lon="4.40641">
        <ele>311.5</ele>
        <time>2020-06-25T05:50:57Z</time>
      </trkpt>
      <trkpt lat="49.94962" lon="4.4065">
        <ele>311.6</ele>
        <time>2020-06-25T05:50:58Z</time>
      </trkpt>
      <trkpt lat="49.94961" lon="4.4066">
        <ele>311.8</ele>
        <time>2020-06-25T05:50:59Z</time>
      </trkpt>
      <trkpt lat="49.94962" lon="4.40668">
        <ele>311.9</ele>
        <time>2020-06-25T05:51:00Z</time>
      </trkpt>
      <trkpt lat="49.94962" lon="4.40677">
        <ele>312</ele>
        <time>2020-06-25T05:51:01Z</time>
      </trkpt>
      <trkpt lat="49.94962" lon="4.40684">
        <ele>312.1</ele>
        <time>2020-06-25T05:51:02Z</time>
      </trkpt>
      <trkpt lat="49.94962" lon="4.40692">
        <ele>312.2</ele>
        <time>2020-06-25T05:51:03Z</time>
      </trkpt>
      <trkpt lat="49.94962" lon="4.407">
        <ele>312.3</ele>
        <time>2020-06-25T05:51:04Z</time>
      </trkpt>
      <trkpt lat="49.94962" lon="4.40708">
        <ele>312.4</ele>
        <time>2020-06-25T05:51:05Z</time>
      </trkpt>
      <trkpt lat="49.94963" lon="4.40714">
        <ele>312.4</ele>
        <time>2020-06-25T05:51:06Z</time>
      </trkpt>
      <trkpt lat="49.94963" lon="4.40723">
        <ele>312.5</ele>
        <time>2020-06-25T05:51:07Z</time>
      </trkpt>
      <trkpt lat="49.94964" lon="4.40731">
        <ele>312.6</ele>
        <time>2020-06-25T05:51:08Z</time>
      </trkpt>
      <trkpt lat="49.94964" lon="4.40739">
        <ele>312.7</ele>
        <time>2020-06-25T05:51:09Z</time>
      </trkpt>
      <trkpt lat="49.94965" lon="4.40747">
        <ele>312.7</ele>
        <time>2020-06-25T05:51:10Z</time>
      </trkpt>
      <trkpt lat="49.94965" lon="4.40755">
        <ele>312.8</ele>
        <time>2020-06-25T05:51:11Z</time>
      </trkpt>
      <trkpt lat="49.94966" lon="4.40763">
        <ele>312.9</ele>
        <time>2020-06-25T05:51:12Z</time>
      </trkpt>
      <trkpt lat="49.94966" lon="4.40772">
        <ele>313</ele>
        <time>2020-06-25T05:51:13Z</time>
      </trkpt>
      <trkpt lat="49.94967" lon="4.4078">
        <ele>313.1</ele>
        <time>2020-06-25T05:51:14Z</time>
      </trkpt>
      <trkpt lat="49.94968" lon="4.40787">
        <ele>313.2</ele>
        <time>2020-06-25T05:51:15Z</time>
      </trkpt>
      <trkpt lat="49.94968" lon="4.40796">
        <ele>313.2</ele>
        <time>2020-06-25T05:51:16Z</time>
      </trkpt>
      <trkpt lat="49.94969" lon="4.40804">
        <ele>313.3</ele>
        <time>2020-06-25T05:51:17Z</time>
      </trkpt>
      <trkpt lat="49.9497" lon="4.40814">
        <ele>313.4</ele>
        <time>2020-06-25T05:51:18Z</time>
      </trkpt>
      <trkpt lat="49.9497" lon="4.40822">
        <ele>313.5</ele>
        <time>2020-06-25T05:51:19Z</time>
      </trkpt>
      <trkpt lat="49.94971" lon="4.4083">
        <ele>313.6</ele>
        <time>2020-06-25T05:51:20Z</time>
      </trkpt>
      <trkpt lat="49.94971" lon="4.40839">
        <ele>313.6</ele>
        <time>2020-06-25T05:51:21Z</time>
      </trkpt>
      <trkpt lat="49.94971" lon="4.40846">
        <ele>313.7</ele>
        <time>2020-06-25T05:51:22Z</time>
      </trkpt>
      <trkpt lat="49.94972" lon="4.40852">
        <ele>313.7</ele>
        <time>2020-06-25T05:51:23Z</time>
      </trkpt>
      <trkpt lat="49.94972" lon="4.40859">
        <ele>313.8</ele>
        <time>2020-06-25T05:51:24Z</time>
      </trkpt>
      <trkpt lat="49.94973" lon="4.40868">
        <ele>313.8</ele>
        <time>2020-06-25T05:51:25Z</time>
      </trkpt>
      <trkpt lat="49.94973" lon="4.40876">
        <ele>313.8</ele>
        <time>2020-06-25T05:51:26Z</time>
      </trkpt>
      <trkpt lat="49.94972" lon="4.40883">
        <ele>313.8</ele>
        <time>2020-06-25T05:51:27Z</time>
      </trkpt>
      <trkpt lat="49.94972" lon="4.40891">
        <ele>313.9</ele>
        <time>2020-06-25T05:51:28Z</time>
      </trkpt>
      <trkpt lat="49.94971" lon="4.40901">
        <ele>313.9</ele>
        <time>2020-06-25T05:51:29Z</time>
      </trkpt>
      <trkpt lat="49.94971" lon="4.40911">
        <ele>313.9</ele>
        <time>2020-06-25T05:51:30Z</time>
      </trkpt>
      <trkpt lat="49.9497" lon="4.4092">
        <ele>313.9</ele>
        <time>2020-06-25T05:51:31Z</time>
      </trkpt>
      <trkpt lat="49.94968" lon="4.40929">
        <ele>313.9</ele>
        <time>2020-06-25T05:51:32Z</time>
      </trkpt>
      <trkpt lat="49.94967" lon="4.40938">
        <ele>313.9</ele>
        <time>2020-06-25T05:51:33Z</time>
      </trkpt>
      <trkpt lat="49.94964" lon="4.40948">
        <ele>313.8</ele>
        <time>2020-06-25T05:51:34Z</time>
      </trkpt>
      <trkpt lat="49.94962" lon="4.40956">
        <ele>313.8</ele>
        <time>2020-06-25T05:51:35Z</time>
      </trkpt>
      <trkpt lat="49.9496" lon="4.40965">
        <ele>313.8</ele>
        <time>2020-06-25T05:51:36Z</time>
      </trkpt>
      <trkpt lat="49.94958" lon="4.40973">
        <ele>313.7</ele>
        <time>2020-06-25T05:51:37Z</time>
      </trkpt>
      <trkpt lat="49.94955" lon="4.40982">
        <ele>313.7</ele>
        <time>2020-06-25T05:51:38Z</time>
      </trkpt>
      <trkpt lat="49.94953" lon="4.40991">
        <ele>313.7</ele>
        <time>2020-06-25T05:51:39Z</time>
      </trkpt>
      <trkpt lat="49.9495" lon="4.40999">
        <ele>313.7</ele>
        <time>2020-06-25T05:51:40Z</time>
      </trkpt>
      <trkpt lat="49.94948" lon="4.41008">
        <ele>313.7</ele>
        <time>2020-06-25T05:51:41Z</time>
      </trkpt>
      <trkpt lat="49.94945" lon="4.41017">
        <ele>313.7</ele>
        <time>2020-06-25T05:51:42Z</time>
      </trkpt>
      <trkpt lat="49.94942" lon="4.41026">
        <ele>313.6</ele>
        <time>2020-06-25T05:51:43Z</time>
      </trkpt>
      <trkpt lat="49.94939" lon="4.41036">
        <ele>313.6</ele>
        <time>2020-06-25T05:51:44Z</time>
      </trkpt>
      <trkpt lat="49.94937" lon="4.41045">
        <ele>313.6</ele>
        <time>2020-06-25T05:51:45Z</time>
      </trkpt>
      <trkpt lat="49.94934" lon="4.41053">
        <ele>313.5</ele>
        <time>2020-06-25T05:51:46Z</time>
      </trkpt>
      <trkpt lat="49.9493" lon="4.41063">
        <ele>313.5</ele>
        <time>2020-06-25T05:51:47Z</time>
      </trkpt>
      <trkpt lat="49.94927" lon="4.41072">
        <ele>313.5</ele>
        <time>2020-06-25T05:51:48Z</time>
      </trkpt>
      <trkpt lat="49.94924" lon="4.41081">
        <ele>313.4</ele>
        <time>2020-06-25T05:51:49Z</time>
      </trkpt>
      <trkpt lat="49.94921" lon="4.41089">
        <ele>313.4</ele>
        <time>2020-06-25T05:51:50Z</time>
      </trkpt>
      <trkpt lat="49.94917" lon="4.41097">
        <ele>313.4</ele>
        <time>2020-06-25T05:51:51Z</time>
      </trkpt>
      <trkpt lat="49.94914" lon="4.41106">
        <ele>313.3</ele>
        <time>2020-06-25T05:51:52Z</time>
      </trkpt>
      <trkpt lat="49.94911" lon="4.41115">
        <ele>313.3</ele>
        <time>2020-06-25T05:51:53Z</time>
      </trkpt>
      <trkpt lat="49.94908" lon="4.41124">
        <ele>313.3</ele>
        <time>2020-06-25T05:51:54Z</time>
      </trkpt>
      <trkpt lat="49.94905" lon="4.41133">
        <ele>313.3</ele>
        <time>2020-06-25T05:51:55Z</time>
      </trkpt>
      <trkpt lat="49.94902" lon="4.41142">
        <ele>313.2</ele>
        <time>2020-06-25T05:51:56Z</time>
      </trkpt>
      <trkpt lat="49.94898" lon="4.41152">
        <ele>313.2</ele>
        <time>2020-06-25T05:51:57Z</time>
      </trkpt>
      <trkpt lat="49.94895" lon="4.41162">
        <ele>313.2</ele>
        <time>2020-06-25T05:51:58Z</time>
      </trkpt>
      <trkpt lat="49.94892" lon="4.41171">
        <ele>313.1</ele>
        <time>2020-06-25T05:51:59Z</time>
      </trkpt>
      <trkpt lat="49.94889" lon="4.4118">
        <ele>313.1</ele>
        <time>2020-06-25T05:52:00Z</time>
      </trkpt>
      <trkpt lat="49.94886" lon="4.41188">
        <ele>313.1</ele>
        <time>2020-06-25T05:52:01Z</time>
      </trkpt>
      <trkpt lat="49.94883" lon="4.41199">
        <ele>313</ele>
        <time>2020-06-25T05:52:02Z</time>
      </trkpt>
      <trkpt lat="49.9488" lon="4.41208">
        <ele>313</ele>
        <time>2020-06-25T05:52:03Z</time>
      </trkpt>
      <trkpt lat="49.94877" lon="4.41217">
        <ele>313</ele>
        <time>2020-06-25T05:52:04Z</time>
      </trkpt>
      <trkpt lat="49.94875" lon="4.41227">
        <ele>313</ele>
        <time>2020-06-25T05:52:05Z</time>
      </trkpt>
      <trkpt lat="49.94872" lon="4.41237">
        <ele>313</ele>
        <time>2020-06-25T05:52:06Z</time>
      </trkpt>
      <trkpt lat="49.9487" lon="4.41246">
        <ele>312.9</ele>
        <time>2020-06-25T05:52:07Z</time>
      </trkpt>
      <trkpt lat="49.94868" lon="4.41256">
        <ele>312.9</ele>
        <time>2020-06-25T05:52:08Z</time>
      </trkpt>
      <trkpt lat="49.94866" lon="4.41267">
        <ele>312.9</ele>
        <time>2020-06-25T05:52:09Z</time>
      </trkpt>
      <trkpt lat="49.94864" lon="4.41275">
        <ele>312.9</ele>
        <time>2020-06-25T05:52:10Z</time>
      </trkpt>
      <trkpt lat="49.94863" lon="4.41286">
        <ele>312.8</ele>
        <time>2020-06-25T05:52:11Z</time>
      </trkpt>
      <trkpt lat="49.94862" lon="4.41295">
        <ele>312.8</ele>
        <time>2020-06-25T05:52:12Z</time>
      </trkpt>
      <trkpt lat="49.94861" lon="4.41306">
        <ele>312.8</ele>
        <time>2020-06-25T05:52:13Z</time>
      </trkpt>
      <trkpt lat="49.94859" lon="4.41316">
        <ele>312.8</ele>
        <time>2020-06-25T05:52:14Z</time>
      </trkpt>
      <trkpt lat="49.94858" lon="4.41326">
        <ele>312.8</ele>
        <time>2020-06-25T05:52:15Z</time>
      </trkpt>
      <trkpt lat="49.94857" lon="4.41336">
        <ele>312.8</ele>
        <time>2020-06-25T05:52:16Z</time>
      </trkpt>
      <trkpt lat="49.94857" lon="4.41346">
        <ele>312.7</ele>
        <time>2020-06-25T05:52:17Z</time>
      </trkpt>
      <trkpt lat="49.94856" lon="4.41356">
        <ele>312.7</ele>
        <time>2020-06-25T05:52:18Z</time>
      </trkpt>
      <trkpt lat="49.94856" lon="4.41366">
        <ele>312.7</ele>
        <time>2020-06-25T05:52:19Z</time>
      </trkpt>
      <trkpt lat="49.94856" lon="4.41377">
        <ele>312.6</ele>
        <time>2020-06-25T05:52:20Z</time>
      </trkpt>
      <trkpt lat="49.94856" lon="4.41387">
        <ele>312.5</ele>
        <time>2020-06-25T05:52:21Z</time>
      </trkpt>
      <trkpt lat="49.94856" lon="4.41397">
        <ele>312.5</ele>
        <time>2020-06-25T05:52:22Z</time>
      </trkpt>
      <trkpt lat="49.94856" lon="4.41408">
        <ele>312.5</ele>
        <time>2020-06-25T05:52:23Z</time>
      </trkpt>
      <trkpt lat="49.94856" lon="4.41418">
        <ele>312.5</ele>
        <time>2020-06-25T05:52:24Z</time>
      </trkpt>
      <trkpt lat="49.94857" lon="4.4143">
        <ele>312.5</ele>
        <time>2020-06-25T05:52:25Z</time>
      </trkpt>
      <trkpt lat="49.94857" lon="4.41441">
        <ele>312.4</ele>
        <time>2020-06-25T05:52:26Z</time>
      </trkpt>
      <trkpt lat="49.94857" lon="4.41452">
        <ele>312.4</ele>
        <time>2020-06-25T05:52:27Z</time>
      </trkpt>
      <trkpt lat="49.94858" lon="4.41463">
        <ele>312.4</ele>
        <time>2020-06-25T05:52:28Z</time>
      </trkpt>
      <trkpt lat="49.94858" lon="4.41473">
        <ele>312.4</ele>
        <time>2020-06-25T05:52:29Z</time>
      </trkpt>
      <trkpt lat="49.94859" lon="4.41484">
        <ele>312.3</ele>
        <time>2020-06-25T05:52:30Z</time>
      </trkpt>
      <trkpt lat="49.94859" lon="4.41495">
        <ele>312.3</ele>
        <time>2020-06-25T05:52:31Z</time>
      </trkpt>
      <trkpt lat="49.9486" lon="4.41505">
        <ele>312.3</ele>
        <time>2020-06-25T05:52:32Z</time>
      </trkpt>
      <trkpt lat="49.9486" lon="4.41515">
        <ele>312.2</ele>
        <time>2020-06-25T05:52:33Z</time>
      </trkpt>
      <trkpt lat="49.9486" lon="4.41526">
        <ele>312.2</ele>
        <time>2020-06-25T05:52:34Z</time>
      </trkpt>
      <trkpt lat="49.94861" lon="4.41538">
        <ele>312.1</ele>
        <time>2020-06-25T05:52:35Z</time>
      </trkpt>
      <trkpt lat="49.94861" lon="4.4155">
        <ele>312.1</ele>
        <time>2020-06-25T05:52:36Z</time>
      </trkpt>
      <trkpt lat="49.94861" lon="4.41561">
        <ele>312.1</ele>
        <time>2020-06-25T05:52:37Z</time>
      </trkpt>
      <trkpt lat="49.94861" lon="4.41571">
        <ele>312.1</ele>
        <time>2020-06-25T05:52:38Z</time>
      </trkpt>
      <trkpt lat="49.94862" lon="4.41582">
        <ele>312.1</ele>
        <time>2020-06-25T05:52:39Z</time>
      </trkpt>
      <trkpt lat="49.94862" lon="4.41593">
        <ele>312</ele>
        <time>2020-06-25T05:52:40Z</time>
      </trkpt>
      <trkpt lat="49.94862" lon="4.41603">
        <ele>312</ele>
        <time>2020-06-25T05:52:41Z</time>
      </trkpt>
      <trkpt lat="49.94862" lon="4.41613">
        <ele>312</ele>
        <time>2020-06-25T05:52:42Z</time>
      </trkpt>
      <trkpt lat="49.94863" lon="4.41623">
        <ele>312</ele>
        <time>2020-06-25T05:52:43Z</time>
      </trkpt>
      <trkpt lat="49.94863" lon="4.41633">
        <ele>311.9</ele>
        <time>2020-06-25T05:52:44Z</time>
      </trkpt>
      <trkpt lat="49.94863" lon="4.41643">
        <ele>311.9</ele>
        <time>2020-06-25T05:52:45Z</time>
      </trkpt>
      <trkpt lat="49.94864" lon="4.41654">
        <ele>311.9</ele>
        <time>2020-06-25T05:52:46Z</time>
      </trkpt>
      <trkpt lat="49.94864" lon="4.41665">
        <ele>311.9</ele>
        <time>2020-06-25T05:52:47Z</time>
      </trkpt>
      <trkpt lat="49.94865" lon="4.41675">
        <ele>311.9</ele>
        <time>2020-06-25T05:52:48Z</time>
      </trkpt>
      <trkpt lat="49.94865" lon="4.41685">
        <ele>311.9</ele>
        <time>2020-06-25T05:52:49Z</time>
      </trkpt>
      <trkpt lat="49.94865" lon="4.41695">
        <ele>312</ele>
        <time>2020-06-25T05:52:50Z</time>
      </trkpt>
      <trkpt lat="49.94865" lon="4.41706">
        <ele>312</ele>
        <time>2020-06-25T05:52:51Z</time>
      </trkpt>
      <trkpt lat="49.94865" lon="4.41716">
        <ele>312.1</ele>
        <time>2020-06-25T05:52:52Z</time>
      </trkpt>
      <trkpt lat="49.94865" lon="4.41726">
        <ele>312.2</ele>
        <time>2020-06-25T05:52:53Z</time>
      </trkpt>
      <trkpt lat="49.94866" lon="4.41737">
        <ele>312.4</ele>
        <time>2020-06-25T05:52:54Z</time>
      </trkpt>
      <trkpt lat="49.94866" lon="4.41747">
        <ele>312.5</ele>
        <time>2020-06-25T05:52:55Z</time>
      </trkpt>
      <trkpt lat="49.94866" lon="4.41758">
        <ele>312.5</ele>
        <time>2020-06-25T05:52:56Z</time>
      </trkpt>
      <trkpt lat="49.94866" lon="4.41768">
        <ele>312.4</ele>
        <time>2020-06-25T05:52:57Z</time>
      </trkpt>
      <trkpt lat="49.94866" lon="4.41778">
        <ele>312.4</ele>
        <time>2020-06-25T05:52:58Z</time>
      </trkpt>
      <trkpt lat="49.94866" lon="4.41788">
        <ele>312.4</ele>
        <time>2020-06-25T05:52:59Z</time>
      </trkpt>
      <trkpt lat="49.94866" lon="4.41798">
        <ele>312.5</ele>
        <time>2020-06-25T05:53:00Z</time>
      </trkpt>
      <trkpt lat="49.94865" lon="4.41808">
        <ele>312.6</ele>
        <time>2020-06-25T05:53:01Z</time>
      </trkpt>
      <trkpt lat="49.94864" lon="4.41817">
        <ele>312.6</ele>
        <time>2020-06-25T05:53:02Z</time>
      </trkpt>
      <trkpt lat="49.94863" lon="4.41827">
        <ele>312.7</ele>
        <time>2020-06-25T05:53:03Z</time>
      </trkpt>
      <trkpt lat="49.94862" lon="4.41836">
        <ele>312.8</ele>
        <time>2020-06-25T05:53:04Z</time>
      </trkpt>
      <trkpt lat="49.94861" lon="4.41845">
        <ele>312.9</ele>
        <time>2020-06-25T05:53:05Z</time>
      </trkpt>
      <trkpt lat="49.94859" lon="4.41854">
        <ele>313</ele>
        <time>2020-06-25T05:53:06Z</time>
      </trkpt>
      <trkpt lat="49.94857" lon="4.41863">
        <ele>313.1</ele>
        <time>2020-06-25T05:53:07Z</time>
      </trkpt>
      <trkpt lat="49.94856" lon="4.41872">
        <ele>313.2</ele>
        <time>2020-06-25T05:53:08Z</time>
      </trkpt>
      <trkpt lat="49.94854" lon="4.41881">
        <ele>313.3</ele>
        <time>2020-06-25T05:53:09Z</time>
      </trkpt>
      <trkpt lat="49.94852" lon="4.41889">
        <ele>313.5</ele>
        <time>2020-06-25T05:53:10Z</time>
      </trkpt>
      <trkpt lat="49.9485" lon="4.41897">
        <ele>313.6</ele>
        <time>2020-06-25T05:53:11Z</time>
      </trkpt>
      <trkpt lat="49.94848" lon="4.41905">
        <ele>313.7</ele>
        <time>2020-06-25T05:53:12Z</time>
      </trkpt>
      <trkpt lat="49.94845" lon="4.41914">
        <ele>313.9</ele>
        <time>2020-06-25T05:53:13Z</time>
      </trkpt>
      <trkpt lat="49.94843" lon="4.41922">
        <ele>314.1</ele>
        <time>2020-06-25T05:53:14Z</time>
      </trkpt>
      <trkpt lat="49.94841" lon="4.4193">
        <ele>314.3</ele>
        <time>2020-06-25T05:53:15Z</time>
      </trkpt>
      <trkpt lat="49.94838" lon="4.41937">
        <ele>314.3</ele>
        <time>2020-06-25T05:53:16Z</time>
      </trkpt>
      <trkpt lat="49.94836" lon="4.41945">
        <ele>314.4</ele>
        <time>2020-06-25T05:53:17Z</time>
      </trkpt>
      <trkpt lat="49.94833" lon="4.41952">
        <ele>314.5</ele>
        <time>2020-06-25T05:53:18Z</time>
      </trkpt>
      <trkpt lat="49.9483" lon="4.4196">
        <ele>314.6</ele>
        <time>2020-06-25T05:53:19Z</time>
      </trkpt>
      <trkpt lat="49.94827" lon="4.41968">
        <ele>314.7</ele>
        <time>2020-06-25T05:53:20Z</time>
      </trkpt>
      <trkpt lat="49.94824" lon="4.41974">
        <ele>314.8</ele>
        <time>2020-06-25T05:53:21Z</time>
      </trkpt>
      <trkpt lat="49.94821" lon="4.41981">
        <ele>314.8</ele>
        <time>2020-06-25T05:53:22Z</time>
      </trkpt>
      <trkpt lat="49.94817" lon="4.41988">
        <ele>314.9</ele>
        <time>2020-06-25T05:53:23Z</time>
      </trkpt>
      <trkpt lat="49.94813" lon="4.41995">
        <ele>315</ele>
        <time>2020-06-25T05:53:24Z</time>
      </trkpt>
      <trkpt lat="49.94809" lon="4.42002">
        <ele>315.1</ele>
        <time>2020-06-25T05:53:25Z</time>
      </trkpt>
      <trkpt lat="49.94805" lon="4.42008">
        <ele>315.2</ele>
        <time>2020-06-25T05:53:26Z</time>
      </trkpt>
      <trkpt lat="49.94802" lon="4.42014">
        <ele>315.3</ele>
        <time>2020-06-25T05:53:27Z</time>
      </trkpt>
      <trkpt lat="49.94797" lon="4.4202">
        <ele>315.5</ele>
        <time>2020-06-25T05:53:28Z</time>
      </trkpt>
      <trkpt lat="49.94793" lon="4.42026">
        <ele>315.6</ele>
        <time>2020-06-25T05:53:29Z</time>
      </trkpt>
      <trkpt lat="49.94789" lon="4.42031">
        <ele>315.7</ele>
        <time>2020-06-25T05:53:30Z</time>
      </trkpt>
      <trkpt lat="49.94785" lon="4.42036">
        <ele>315.8</ele>
        <time>2020-06-25T05:53:31Z</time>
      </trkpt>
      <trkpt lat="49.94781" lon="4.42041">
        <ele>315.8</ele>
        <time>2020-06-25T05:53:32Z</time>
      </trkpt>
      <trkpt lat="49.94777" lon="4.42047">
        <ele>315.9</ele>
        <time>2020-06-25T05:53:33Z</time>
      </trkpt>
      <trkpt lat="49.94771" lon="4.42056">
        <ele>316</ele>
        <time>2020-06-25T05:53:34Z</time>
      </trkpt>
      <trkpt lat="49.94766" lon="4.42064">
        <ele>316.1</ele>
        <time>2020-06-25T05:53:35Z</time>
      </trkpt>
      <trkpt lat="49.94762" lon="4.42069">
        <ele>316.2</ele>
        <time>2020-06-25T05:53:36Z</time>
      </trkpt>
      <trkpt lat="49.94758" lon="4.42074">
        <ele>316.2</ele>
        <time>2020-06-25T05:53:37Z</time>
      </trkpt>
      <trkpt lat="49.94754" lon="4.42081">
        <ele>316.3</ele>
        <time>2020-06-25T05:53:38Z</time>
      </trkpt>
      <trkpt lat="49.9475" lon="4.42087">
        <ele>316.3</ele>
        <time>2020-06-25T05:53:39Z</time>
      </trkpt>
      <trkpt lat="49.94746" lon="4.42093">
        <ele>316.4</ele>
        <time>2020-06-25T05:53:40Z</time>
      </trkpt>
      <trkpt lat="49.94742" lon="4.42098">
        <ele>316.4</ele>
        <time>2020-06-25T05:53:41Z</time>
      </trkpt>
      <trkpt lat="49.94738" lon="4.42103">
        <ele>316.4</ele>
        <time>2020-06-25T05:53:42Z</time>
      </trkpt>
      <trkpt lat="49.94734" lon="4.42109">
        <ele>316.4</ele>
        <time>2020-06-25T05:53:43Z</time>
      </trkpt>
      <trkpt lat="49.9473" lon="4.42114">
        <ele>316.4</ele>
        <time>2020-06-25T05:53:44Z</time>
      </trkpt>
      <trkpt lat="49.94726" lon="4.4212">
        <ele>316.4</ele>
        <time>2020-06-25T05:53:45Z</time>
      </trkpt>
      <trkpt lat="49.94722" lon="4.42125">
        <ele>316.4</ele>
        <time>2020-06-25T05:53:46Z</time>
      </trkpt>
      <trkpt lat="49.94719" lon="4.42131">
        <ele>316.4</ele>
        <time>2020-06-25T05:53:47Z</time>
      </trkpt>
      <trkpt lat="49.94714" lon="4.42137">
        <ele>316.4</ele>
        <time>2020-06-25T05:53:48Z</time>
      </trkpt>
      <trkpt lat="49.9471" lon="4.42142">
        <ele>316.4</ele>
        <time>2020-06-25T05:53:49Z</time>
      </trkpt>
      <trkpt lat="49.94705" lon="4.42148">
        <ele>316.5</ele>
        <time>2020-06-25T05:53:50Z</time>
      </trkpt>
      <trkpt lat="49.947" lon="4.42155">
        <ele>316.5</ele>
        <time>2020-06-25T05:53:51Z</time>
      </trkpt>
      <trkpt lat="49.94696" lon="4.42161">
        <ele>316.5</ele>
        <time>2020-06-25T05:53:52Z</time>
      </trkpt>
      <trkpt lat="49.94692" lon="4.42166">
        <ele>316.5</ele>
        <time>2020-06-25T05:53:53Z</time>
      </trkpt>
      <trkpt lat="49.94688" lon="4.42172">
        <ele>316.5</ele>
        <time>2020-06-25T05:53:54Z</time>
      </trkpt>
      <trkpt lat="49.94683" lon="4.42178">
        <ele>316.5</ele>
        <time>2020-06-25T05:53:55Z</time>
      </trkpt>
      <trkpt lat="49.94678" lon="4.42184">
        <ele>316.5</ele>
        <time>2020-06-25T05:53:56Z</time>
      </trkpt>
      <trkpt lat="49.94673" lon="4.4219">
        <ele>316.5</ele>
        <time>2020-06-25T05:53:57Z</time>
      </trkpt>
      <trkpt lat="49.94669" lon="4.42196">
        <ele>316.5</ele>
        <time>2020-06-25T05:53:58Z</time>
      </trkpt>
      <trkpt lat="49.94665" lon="4.42201">
        <ele>316.5</ele>
        <time>2020-06-25T05:53:59Z</time>
      </trkpt>
      <trkpt lat="49.9466" lon="4.42207">
        <ele>316.5</ele>
        <time>2020-06-25T05:54:00Z</time>
      </trkpt>
      <trkpt lat="49.94655" lon="4.42212">
        <ele>316.5</ele>
        <time>2020-06-25T05:54:01Z</time>
      </trkpt>
      <trkpt lat="49.94651" lon="4.42217">
        <ele>316.5</ele>
        <time>2020-06-25T05:54:02Z</time>
      </trkpt>
      <trkpt lat="49.94646" lon="4.42223">
        <ele>316.3</ele>
        <time>2020-06-25T05:54:03Z</time>
      </trkpt>
      <trkpt lat="49.94641" lon="4.42229">
        <ele>316.2</ele>
        <time>2020-06-25T05:54:04Z</time>
      </trkpt>
      <trkpt lat="49.94636" lon="4.42235">
        <ele>316.1</ele>
        <time>2020-06-25T05:54:05Z</time>
      </trkpt>
      <trkpt lat="49.94631" lon="4.42242">
        <ele>316</ele>
        <time>2020-06-25T05:54:06Z</time>
      </trkpt>
      <trkpt lat="49.94627" lon="4.42248">
        <ele>315.9</ele>
        <time>2020-06-25T05:54:07Z</time>
      </trkpt>
      <trkpt lat="49.94622" lon="4.42254">
        <ele>315.8</ele>
        <time>2020-06-25T05:54:08Z</time>
      </trkpt>
      <trkpt lat="49.94618" lon="4.4226">
        <ele>315.8</ele>
        <time>2020-06-25T05:54:09Z</time>
      </trkpt>
      <trkpt lat="49.94613" lon="4.42266">
        <ele>315.8</ele>
        <time>2020-06-25T05:54:10Z</time>
      </trkpt>
      <trkpt lat="49.94608" lon="4.42272">
        <ele>315.7</ele>
        <time>2020-06-25T05:54:11Z</time>
      </trkpt>
      <trkpt lat="49.94604" lon="4.4228">
        <ele>315.7</ele>
        <time>2020-06-25T05:54:12Z</time>
      </trkpt>
      <trkpt lat="49.946" lon="4.42287">
        <ele>315.7</ele>
        <time>2020-06-25T05:54:13Z</time>
      </trkpt>
      <trkpt lat="49.94596" lon="4.42294">
        <ele>315.7</ele>
        <time>2020-06-25T05:54:14Z</time>
      </trkpt>
      <trkpt lat="49.94591" lon="4.42301">
        <ele>315.7</ele>
        <time>2020-06-25T05:54:15Z</time>
      </trkpt>
      <trkpt lat="49.94587" lon="4.42309">
        <ele>315.7</ele>
        <time>2020-06-25T05:54:16Z</time>
      </trkpt>
      <trkpt lat="49.94583" lon="4.42316">
        <ele>315.6</ele>
        <time>2020-06-25T05:54:17Z</time>
      </trkpt>
      <trkpt lat="49.94579" lon="4.42323">
        <ele>315.6</ele>
        <time>2020-06-25T05:54:18Z</time>
      </trkpt>
      <trkpt lat="49.94574" lon="4.42331">
        <ele>315.6</ele>
        <time>2020-06-25T05:54:19Z</time>
      </trkpt>
      <trkpt lat="49.9457" lon="4.42339">
        <ele>315.6</ele>
        <time>2020-06-25T05:54:20Z</time>
      </trkpt>
      <trkpt lat="49.94566" lon="4.42348">
        <ele>315.5</ele>
        <time>2020-06-25T05:54:21Z</time>
      </trkpt>
      <trkpt lat="49.94563" lon="4.42356">
        <ele>315.5</ele>
        <time>2020-06-25T05:54:22Z</time>
      </trkpt>
      <trkpt lat="49.94559" lon="4.42363">
        <ele>315.5</ele>
        <time>2020-06-25T05:54:23Z</time>
      </trkpt>
      <trkpt lat="49.94556" lon="4.42371">
        <ele>315.5</ele>
        <time>2020-06-25T05:54:24Z</time>
      </trkpt>
      <trkpt lat="49.94553" lon="4.4238">
        <ele>315.4</ele>
        <time>2020-06-25T05:54:25Z</time>
      </trkpt>
      <trkpt lat="49.9455" lon="4.42389">
        <ele>315.4</ele>
        <time>2020-06-25T05:54:26Z</time>
      </trkpt>
      <trkpt lat="49.94547" lon="4.424">
        <ele>315.4</ele>
        <time>2020-06-25T05:54:27Z</time>
      </trkpt>
      <trkpt lat="49.94543" lon="4.42409">
        <ele>315.4</ele>
        <time>2020-06-25T05:54:28Z</time>
      </trkpt>
      <trkpt lat="49.9454" lon="4.4242">
        <ele>315.4</ele>
        <time>2020-06-25T05:54:29Z</time>
      </trkpt>
      <trkpt lat="49.94537" lon="4.4243">
        <ele>315.4</ele>
        <time>2020-06-25T05:54:30Z</time>
      </trkpt>
      <trkpt lat="49.94534" lon="4.4244">
        <ele>315.4</ele>
        <time>2020-06-25T05:54:31Z</time>
      </trkpt>
      <trkpt lat="49.9453" lon="4.42449">
        <ele>315.4</ele>
        <time>2020-06-25T05:54:32Z</time>
      </trkpt>
      <trkpt lat="49.94528" lon="4.4246">
        <ele>315.4</ele>
        <time>2020-06-25T05:54:33Z</time>
      </trkpt>
      <trkpt lat="49.94525" lon="4.42471">
        <ele>315.4</ele>
        <time>2020-06-25T05:54:34Z</time>
      </trkpt>
      <trkpt lat="49.94523" lon="4.42481">
        <ele>315.4</ele>
        <time>2020-06-25T05:54:35Z</time>
      </trkpt>
      <trkpt lat="49.94521" lon="4.42491">
        <ele>315.4</ele>
        <time>2020-06-25T05:54:36Z</time>
      </trkpt>
      <trkpt lat="49.94519" lon="4.42501">
        <ele>315.4</ele>
        <time>2020-06-25T05:54:37Z</time>
      </trkpt>
      <trkpt lat="49.94517" lon="4.42512">
        <ele>315.4</ele>
        <time>2020-06-25T05:54:38Z</time>
      </trkpt>
      <trkpt lat="49.94516" lon="4.42522">
        <ele>315.5</ele>
        <time>2020-06-25T05:54:39Z</time>
      </trkpt>
      <trkpt lat="49.94515" lon="4.42532">
        <ele>315.6</ele>
        <time>2020-06-25T05:54:40Z</time>
      </trkpt>
      <trkpt lat="49.94514" lon="4.42542">
        <ele>315.7</ele>
        <time>2020-06-25T05:54:41Z</time>
      </trkpt>
      <trkpt lat="49.94513" lon="4.42551">
        <ele>315.8</ele>
        <time>2020-06-25T05:54:42Z</time>
      </trkpt>
      <trkpt lat="49.94512" lon="4.42561">
        <ele>315.9</ele>
        <time>2020-06-25T05:54:43Z</time>
      </trkpt>
      <trkpt lat="49.94512" lon="4.42571">
        <ele>316</ele>
        <time>2020-06-25T05:54:44Z</time>
      </trkpt>
      <trkpt lat="49.94511" lon="4.42581">
        <ele>316.1</ele>
        <time>2020-06-25T05:54:45Z</time>
      </trkpt>
      <trkpt lat="49.9451" lon="4.42589">
        <ele>316.2</ele>
        <time>2020-06-25T05:54:46Z</time>
      </trkpt>
      <trkpt lat="49.94511" lon="4.426">
        <ele>316.3</ele>
        <time>2020-06-25T05:54:47Z</time>
      </trkpt>
      <trkpt lat="49.94511" lon="4.42609">
        <ele>316.4</ele>
        <time>2020-06-25T05:54:48Z</time>
      </trkpt>
      <trkpt lat="49.94511" lon="4.42619">
        <ele>316.5</ele>
        <time>2020-06-25T05:54:49Z</time>
      </trkpt>
      <trkpt lat="49.94511" lon="4.42627">
        <ele>316.7</ele>
        <time>2020-06-25T05:54:50Z</time>
      </trkpt>
      <trkpt lat="49.94511" lon="4.42636">
        <ele>316.9</ele>
        <time>2020-06-25T05:54:51Z</time>
      </trkpt>
      <trkpt lat="49.94511" lon="4.42645">
        <ele>317.1</ele>
        <time>2020-06-25T05:54:52Z</time>
      </trkpt>
      <trkpt lat="49.94511" lon="4.42654">
        <ele>317.3</ele>
        <time>2020-06-25T05:54:53Z</time>
      </trkpt>
      <trkpt lat="49.94511" lon="4.42664">
        <ele>317.4</ele>
        <time>2020-06-25T05:54:54Z</time>
      </trkpt>
      <trkpt lat="49.94511" lon="4.42674">
        <ele>317.5</ele>
        <time>2020-06-25T05:54:55Z</time>
      </trkpt>
      <trkpt lat="49.94511" lon="4.42683">
        <ele>317.6</ele>
        <time>2020-06-25T05:54:56Z</time>
      </trkpt>
      <trkpt lat="49.9451" lon="4.42693">
        <ele>317.7</ele>
        <time>2020-06-25T05:54:57Z</time>
      </trkpt>
      <trkpt lat="49.9451" lon="4.42702">
        <ele>317.9</ele>
        <time>2020-06-25T05:54:58Z</time>
      </trkpt>
      <trkpt lat="49.94511" lon="4.4271">
        <ele>318</ele>
        <time>2020-06-25T05:54:59Z</time>
      </trkpt>
      <trkpt lat="49.94511" lon="4.42718">
        <ele>318.2</ele>
        <time>2020-06-25T05:55:00Z</time>
      </trkpt>
      <trkpt lat="49.94511" lon="4.42727">
        <ele>318.3</ele>
        <time>2020-06-25T05:55:01Z</time>
      </trkpt>
      <trkpt lat="49.94511" lon="4.42736">
        <ele>318.4</ele>
        <time>2020-06-25T05:55:02Z</time>
      </trkpt>
      <trkpt lat="49.94511" lon="4.42745">
        <ele>318.6</ele>
        <time>2020-06-25T05:55:03Z</time>
      </trkpt>
      <trkpt lat="49.94511" lon="4.42753">
        <ele>318.7</ele>
        <time>2020-06-25T05:55:04Z</time>
      </trkpt>
      <trkpt lat="49.94512" lon="4.42761">
        <ele>318.8</ele>
        <time>2020-06-25T05:55:05Z</time>
      </trkpt>
      <trkpt lat="49.94512" lon="4.4277">
        <ele>318.9</ele>
        <time>2020-06-25T05:55:06Z</time>
      </trkpt>
      <trkpt lat="49.94513" lon="4.42778">
        <ele>319.1</ele>
        <time>2020-06-25T05:55:07Z</time>
      </trkpt>
      <trkpt lat="49.94513" lon="4.42786">
        <ele>319.2</ele>
        <time>2020-06-25T05:55:08Z</time>
      </trkpt>
      <trkpt lat="49.94514" lon="4.42793">
        <ele>319.3</ele>
        <time>2020-06-25T05:55:09Z</time>
      </trkpt>
      <trkpt lat="49.94515" lon="4.42801">
        <ele>319.5</ele>
        <time>2020-06-25T05:55:10Z</time>
      </trkpt>
      <trkpt lat="49.94516" lon="4.4281">
        <ele>319.6</ele>
        <time>2020-06-25T05:55:11Z</time>
      </trkpt>
      <trkpt lat="49.94516" lon="4.42821">
        <ele>319.8</ele>
        <time>2020-06-25T05:55:12Z</time>
      </trkpt>
      <trkpt lat="49.94517" lon="4.42828">
        <ele>320</ele>
        <time>2020-06-25T05:55:13Z</time>
      </trkpt>
      <trkpt lat="49.94517" lon="4.42837">
        <ele>320.1</ele>
        <time>2020-06-25T05:55:14Z</time>
      </trkpt>
      <trkpt lat="49.94517" lon="4.42845">
        <ele>320.3</ele>
        <time>2020-06-25T05:55:15Z</time>
      </trkpt>
      <trkpt lat="49.94517" lon="4.42854">
        <ele>320.4</ele>
        <time>2020-06-25T05:55:16Z</time>
      </trkpt>
      <trkpt lat="49.94517" lon="4.42863">
        <ele>320.5</ele>
        <time>2020-06-25T05:55:17Z</time>
      </trkpt>
      <trkpt lat="49.94516" lon="4.4287">
        <ele>320.6</ele>
        <time>2020-06-25T05:55:18Z</time>
      </trkpt>
      <trkpt lat="49.94515" lon="4.42878">
        <ele>320.8</ele>
        <time>2020-06-25T05:55:19Z</time>
      </trkpt>
      <trkpt lat="49.94515" lon="4.42886">
        <ele>320.9</ele>
        <time>2020-06-25T05:55:20Z</time>
      </trkpt>
      <trkpt lat="49.94514" lon="4.42893">
        <ele>321</ele>
        <time>2020-06-25T05:55:21Z</time>
      </trkpt>
      <trkpt lat="49.94513" lon="4.429">
        <ele>321.1</ele>
        <time>2020-06-25T05:55:22Z</time>
      </trkpt>
      <trkpt lat="49.94512" lon="4.42909">
        <ele>321.3</ele>
        <time>2020-06-25T05:55:23Z</time>
      </trkpt>
      <trkpt lat="49.94511" lon="4.42916">
        <ele>321.4</ele>
        <time>2020-06-25T05:55:24Z</time>
      </trkpt>
      <trkpt lat="49.9451" lon="4.42922">
        <ele>321.6</ele>
        <time>2020-06-25T05:55:25Z</time>
      </trkpt>
      <trkpt lat="49.94509" lon="4.42929">
        <ele>321.7</ele>
        <time>2020-06-25T05:55:26Z</time>
      </trkpt>
      <trkpt lat="49.94509" lon="4.42936">
        <ele>321.8</ele>
        <time>2020-06-25T05:55:27Z</time>
      </trkpt>
      <trkpt lat="49.94508" lon="4.42942">
        <ele>322</ele>
        <time>2020-06-25T05:55:28Z</time>
      </trkpt>
      <trkpt lat="49.94507" lon="4.42949">
        <ele>322.1</ele>
        <time>2020-06-25T05:55:29Z</time>
      </trkpt>
      <trkpt lat="49.94506" lon="4.42957">
        <ele>322.3</ele>
        <time>2020-06-25T05:55:30Z</time>
      </trkpt>
      <trkpt lat="49.94505" lon="4.42963">
        <ele>322.4</ele>
        <time>2020-06-25T05:55:31Z</time>
      </trkpt>
      <trkpt lat="49.94504" lon="4.42971">
        <ele>322.6</ele>
        <time>2020-06-25T05:55:32Z</time>
      </trkpt>
      <trkpt lat="49.94503" lon="4.42979">
        <ele>322.8</ele>
        <time>2020-06-25T05:55:33Z</time>
      </trkpt>
      <trkpt lat="49.94502" lon="4.42986">
        <ele>323</ele>
        <time>2020-06-25T05:55:34Z</time>
      </trkpt>
      <trkpt lat="49.94501" lon="4.42993">
        <ele>323.1</ele>
        <time>2020-06-25T05:55:35Z</time>
      </trkpt>
      <trkpt lat="49.945" lon="4.43">
        <ele>323.3</ele>
        <time>2020-06-25T05:55:36Z</time>
      </trkpt>
      <trkpt lat="49.94499" lon="4.43006">
        <ele>323.4</ele>
        <time>2020-06-25T05:55:37Z</time>
      </trkpt>
      <trkpt lat="49.94498" lon="4.43012">
        <ele>323.5</ele>
        <time>2020-06-25T05:55:38Z</time>
      </trkpt>
      <trkpt lat="49.94497" lon="4.43019">
        <ele>323.7</ele>
        <time>2020-06-25T05:55:39Z</time>
      </trkpt>
      <trkpt lat="49.94496" lon="4.43024">
        <ele>323.8</ele>
        <time>2020-06-25T05:55:40Z</time>
      </trkpt>
      <trkpt lat="49.94495" lon="4.43029">
        <ele>323.9</ele>
        <time>2020-06-25T05:55:41Z</time>
      </trkpt>
      <trkpt lat="49.94494" lon="4.43035">
        <ele>324</ele>
        <time>2020-06-25T05:55:42Z</time>
      </trkpt>
      <trkpt lat="49.94492" lon="4.43041">
        <ele>324.1</ele>
        <time>2020-06-25T05:55:43Z</time>
      </trkpt>
      <trkpt lat="49.94491" lon="4.43047">
        <ele>324.3</ele>
        <time>2020-06-25T05:55:44Z</time>
      </trkpt>
      <trkpt lat="49.9449" lon="4.43052">
        <ele>324.4</ele>
        <time>2020-06-25T05:55:45Z</time>
      </trkpt>
      <trkpt lat="49.94489" lon="4.43057">
        <ele>324.5</ele>
        <time>2020-06-25T05:55:46Z</time>
      </trkpt>
      <trkpt lat="49.94488" lon="4.43063">
        <ele>324.6</ele>
        <time>2020-06-25T05:55:47Z</time>
      </trkpt>
      <trkpt lat="49.94487" lon="4.43069">
        <ele>324.7</ele>
        <time>2020-06-25T05:55:48Z</time>
      </trkpt>
      <trkpt lat="49.94485" lon="4.43075">
        <ele>324.8</ele>
        <time>2020-06-25T05:55:49Z</time>
      </trkpt>
      <trkpt lat="49.94483" lon="4.43081">
        <ele>324.8</ele>
        <time>2020-06-25T05:55:50Z</time>
      </trkpt>
      <trkpt lat="49.94482" lon="4.43086">
        <ele>324.8</ele>
        <time>2020-06-25T05:55:51Z</time>
      </trkpt>
      <trkpt lat="49.9448" lon="4.43092">
        <ele>324.9</ele>
        <time>2020-06-25T05:55:52Z</time>
      </trkpt>
      <trkpt lat="49.94478" lon="4.43098">
        <ele>324.9</ele>
        <time>2020-06-25T05:55:53Z</time>
      </trkpt>
      <trkpt lat="49.94476" lon="4.43103">
        <ele>324.9</ele>
        <time>2020-06-25T05:55:54Z</time>
      </trkpt>
      <trkpt lat="49.94474" lon="4.43109">
        <ele>324.9</ele>
        <time>2020-06-25T05:55:55Z</time>
      </trkpt>
      <trkpt lat="49.94472" lon="4.43114">
        <ele>324.9</ele>
        <time>2020-06-25T05:55:56Z</time>
      </trkpt>
      <trkpt lat="49.94471" lon="4.43118">
        <ele>324.9</ele>
        <time>2020-06-25T05:55:57Z</time>
      </trkpt>
      <trkpt lat="49.9447" lon="4.43123">
        <ele>324.8</ele>
        <time>2020-06-25T05:55:58Z</time>
      </trkpt>
      <trkpt lat="49.9447" lon="4.43124">
        <ele>324.8</ele>
        <time>2020-06-25T05:55:59Z</time>
      </trkpt>
      <trkpt lat="49.94467" lon="4.43126">
        <ele>324.8</ele>
        <time>2020-06-25T05:56:00Z</time>
      </trkpt>
      <trkpt lat="49.94466" lon="4.43126">
        <ele>324.8</ele>
        <time>2020-06-25T05:56:01Z</time>
      </trkpt>
      <trkpt lat="49.94463" lon="4.43129">
        <ele>324.7</ele>
        <time>2020-06-25T05:56:02Z</time>
      </trkpt>
      <trkpt lat="49.94462" lon="4.4313">
        <ele>324.7</ele>
        <time>2020-06-25T05:56:03Z</time>
      </trkpt>
      <trkpt lat="49.94461" lon="4.43134">
        <ele>324.7</ele>
        <time>2020-06-25T05:56:04Z</time>
      </trkpt>
      <trkpt lat="49.9446" lon="4.43135">
        <ele>324.7</ele>
        <time>2020-06-25T05:56:05Z</time>
      </trkpt>
      <trkpt lat="49.94458" lon="4.4314">
        <ele>324.6</ele>
        <time>2020-06-25T05:56:06Z</time>
      </trkpt>
      <trkpt lat="49.94457" lon="4.43142">
        <ele>324.6</ele>
        <time>2020-06-25T05:56:07Z</time>
      </trkpt>
      <trkpt lat="49.94455" lon="4.43145">
        <ele>324.5</ele>
        <time>2020-06-25T05:56:08Z</time>
      </trkpt>
      <trkpt lat="49.94452" lon="4.43149">
        <ele>324.4</ele>
        <time>2020-06-25T05:56:09Z</time>
      </trkpt>
      <trkpt lat="49.94449" lon="4.43153">
        <ele>324.3</ele>
        <time>2020-06-25T05:56:10Z</time>
      </trkpt>
      <trkpt lat="49.94445" lon="4.43158">
        <ele>324.2</ele>
        <time>2020-06-25T05:56:11Z</time>
      </trkpt>
      <trkpt lat="49.94442" lon="4.43164">
        <ele>324</ele>
        <time>2020-06-25T05:56:12Z</time>
      </trkpt>
      <trkpt lat="49.94438" lon="4.43169">
        <ele>323.8</ele>
        <time>2020-06-25T05:56:13Z</time>
      </trkpt>
      <trkpt lat="49.94434" lon="4.43174">
        <ele>323.6</ele>
        <time>2020-06-25T05:56:14Z</time>
      </trkpt>
      <trkpt lat="49.9443" lon="4.43179">
        <ele>323.5</ele>
        <time>2020-06-25T05:56:15Z</time>
      </trkpt>
      <trkpt lat="49.94426" lon="4.43184">
        <ele>323.3</ele>
        <time>2020-06-25T05:56:16Z</time>
      </trkpt>
      <trkpt lat="49.94422" lon="4.4319">
        <ele>323.1</ele>
        <time>2020-06-25T05:56:17Z</time>
      </trkpt>
      <trkpt lat="49.94416" lon="4.43197">
        <ele>322.8</ele>
        <time>2020-06-25T05:56:18Z</time>
      </trkpt>
      <trkpt lat="49.94411" lon="4.43204">
        <ele>322.5</ele>
        <time>2020-06-25T05:56:19Z</time>
      </trkpt>
      <trkpt lat="49.94406" lon="4.4321">
        <ele>322.2</ele>
        <time>2020-06-25T05:56:20Z</time>
      </trkpt>
      <trkpt lat="49.94401" lon="4.43216">
        <ele>322</ele>
        <time>2020-06-25T05:56:21Z</time>
      </trkpt>
      <trkpt lat="49.94396" lon="4.43222">
        <ele>321.8</ele>
        <time>2020-06-25T05:56:22Z</time>
      </trkpt>
      <trkpt lat="49.9439" lon="4.43228">
        <ele>321.6</ele>
        <time>2020-06-25T05:56:23Z</time>
      </trkpt>
      <trkpt lat="49.94385" lon="4.43235">
        <ele>321.4</ele>
        <time>2020-06-25T05:56:24Z</time>
      </trkpt>
      <trkpt lat="49.9438" lon="4.43241">
        <ele>321.2</ele>
        <time>2020-06-25T05:56:25Z</time>
      </trkpt>
      <trkpt lat="49.94375" lon="4.43248">
        <ele>321</ele>
        <time>2020-06-25T05:56:26Z</time>
      </trkpt>
      <trkpt lat="49.9437" lon="4.43254">
        <ele>320.8</ele>
        <time>2020-06-25T05:56:27Z</time>
      </trkpt>
      <trkpt lat="49.94365" lon="4.4326">
        <ele>320.6</ele>
        <time>2020-06-25T05:56:28Z</time>
      </trkpt>
      <trkpt lat="49.9436" lon="4.43266">
        <ele>320.4</ele>
        <time>2020-06-25T05:56:29Z</time>
      </trkpt>
      <trkpt lat="49.94355" lon="4.43273">
        <ele>320.2</ele>
        <time>2020-06-25T05:56:30Z</time>
      </trkpt>
      <trkpt lat="49.9435" lon="4.43279">
        <ele>320.1</ele>
        <time>2020-06-25T05:56:31Z</time>
      </trkpt>
      <trkpt lat="49.94344" lon="4.43285">
        <ele>319.9</ele>
        <time>2020-06-25T05:56:32Z</time>
      </trkpt>
      <trkpt lat="49.94339" lon="4.43292">
        <ele>319.7</ele>
        <time>2020-06-25T05:56:33Z</time>
      </trkpt>
      <trkpt lat="49.94334" lon="4.43298">
        <ele>319.5</ele>
        <time>2020-06-25T05:56:34Z</time>
      </trkpt>
      <trkpt lat="49.94328" lon="4.43304">
        <ele>319.3</ele>
        <time>2020-06-25T05:56:35Z</time>
      </trkpt>
      <trkpt lat="49.94323" lon="4.4331">
        <ele>319.1</ele>
        <time>2020-06-25T05:56:36Z</time>
      </trkpt>
      <trkpt lat="49.94317" lon="4.43316">
        <ele>319</ele>
        <time>2020-06-25T05:56:37Z</time>
      </trkpt>
      <trkpt lat="49.94312" lon="4.43323">
        <ele>318.8</ele>
        <time>2020-06-25T05:56:38Z</time>
      </trkpt>
      <trkpt lat="49.94307" lon="4.43329">
        <ele>318.7</ele>
        <time>2020-06-25T05:56:39Z</time>
      </trkpt>
      <trkpt lat="49.94301" lon="4.43336">
        <ele>318.6</ele>
        <time>2020-06-25T05:56:40Z</time>
      </trkpt>
      <trkpt lat="49.94296" lon="4.43342">
        <ele>318.5</ele>
        <time>2020-06-25T05:56:41Z</time>
      </trkpt>
      <trkpt lat="49.94291" lon="4.43347">
        <ele>318.4</ele>
        <time>2020-06-25T05:56:42Z</time>
      </trkpt>
      <trkpt lat="49.94286" lon="4.43354">
        <ele>318.3</ele>
        <time>2020-06-25T05:56:43Z</time>
      </trkpt>
      <trkpt lat="49.94281" lon="4.4336">
        <ele>318.2</ele>
        <time>2020-06-25T05:56:44Z</time>
      </trkpt>
      <trkpt lat="49.94275" lon="4.43366">
        <ele>318.1</ele>
        <time>2020-06-25T05:56:45Z</time>
      </trkpt>
      <trkpt lat="49.9427" lon="4.43373">
        <ele>318.1</ele>
        <time>2020-06-25T05:56:46Z</time>
      </trkpt>
      <trkpt lat="49.94265" lon="4.43378">
        <ele>318.2</ele>
        <time>2020-06-25T05:56:47Z</time>
      </trkpt>
      <trkpt lat="49.9426" lon="4.43384">
        <ele>318.3</ele>
        <time>2020-06-25T05:56:48Z</time>
      </trkpt>
      <trkpt lat="49.94255" lon="4.4339">
        <ele>318.4</ele>
        <time>2020-06-25T05:56:49Z</time>
      </trkpt>
      <trkpt lat="49.94249" lon="4.43396">
        <ele>318.6</ele>
        <time>2020-06-25T05:56:50Z</time>
      </trkpt>
      <trkpt lat="49.94244" lon="4.43402">
        <ele>318.7</ele>
        <time>2020-06-25T05:56:51Z</time>
      </trkpt>
      <trkpt lat="49.94238" lon="4.43408">
        <ele>318.5</ele>
        <time>2020-06-25T05:56:52Z</time>
      </trkpt>
      <trkpt lat="49.94233" lon="4.43415">
        <ele>318.3</ele>
        <time>2020-06-25T05:56:53Z</time>
      </trkpt>
      <trkpt lat="49.94228" lon="4.43421">
        <ele>318.1</ele>
        <time>2020-06-25T05:56:54Z</time>
      </trkpt>
      <trkpt lat="49.94223" lon="4.43428">
        <ele>318</ele>
        <time>2020-06-25T05:56:55Z</time>
      </trkpt>
      <trkpt lat="49.94218" lon="4.43434">
        <ele>317.8</ele>
        <time>2020-06-25T05:56:56Z</time>
      </trkpt>
      <trkpt lat="49.94213" lon="4.43441">
        <ele>317.7</ele>
        <time>2020-06-25T05:56:57Z</time>
      </trkpt>
      <trkpt lat="49.94208" lon="4.43447">
        <ele>317.7</ele>
        <time>2020-06-25T05:56:58Z</time>
      </trkpt>
      <trkpt lat="49.94203" lon="4.43453">
        <ele>317.6</ele>
        <time>2020-06-25T05:56:59Z</time>
      </trkpt>
      <trkpt lat="49.94199" lon="4.4346">
        <ele>317.5</ele>
        <time>2020-06-25T05:57:00Z</time>
      </trkpt>
      <trkpt lat="49.94194" lon="4.43465">
        <ele>317.4</ele>
        <time>2020-06-25T05:57:01Z</time>
      </trkpt>
      <trkpt lat="49.9419" lon="4.43471">
        <ele>317.4</ele>
        <time>2020-06-25T05:57:02Z</time>
      </trkpt>
      <trkpt lat="49.94185" lon="4.43477">
        <ele>317.3</ele>
        <time>2020-06-25T05:57:03Z</time>
      </trkpt>
      <trkpt lat="49.9418" lon="4.43483">
        <ele>317.3</ele>
        <time>2020-06-25T05:57:04Z</time>
      </trkpt>
      <trkpt lat="49.94176" lon="4.43488">
        <ele>317.3</ele>
        <time>2020-06-25T05:57:05Z</time>
      </trkpt>
      <trkpt lat="49.94171" lon="4.43493">
        <ele>317.2</ele>
        <time>2020-06-25T05:57:06Z</time>
      </trkpt>
      <trkpt lat="49.94166" lon="4.43497">
        <ele>317.2</ele>
        <time>2020-06-25T05:57:07Z</time>
      </trkpt>
      <trkpt lat="49.94161" lon="4.435">
        <ele>317.2</ele>
        <time>2020-06-25T05:57:08Z</time>
      </trkpt>
      <trkpt lat="49.94156" lon="4.43502">
        <ele>317.2</ele>
        <time>2020-06-25T05:57:09Z</time>
      </trkpt>
      <trkpt lat="49.94151" lon="4.43501">
        <ele>317.2</ele>
        <time>2020-06-25T05:57:10Z</time>
      </trkpt>
      <trkpt lat="49.94146" lon="4.435">
        <ele>317.1</ele>
        <time>2020-06-25T05:57:11Z</time>
      </trkpt>
      <trkpt lat="49.94141" lon="4.43498">
        <ele>317.1</ele>
        <time>2020-06-25T05:57:12Z</time>
      </trkpt>
      <trkpt lat="49.94137" lon="4.43495">
        <ele>317.1</ele>
        <time>2020-06-25T05:57:13Z</time>
      </trkpt>
      <trkpt lat="49.94135" lon="4.43492">
        <ele>317</ele>
        <time>2020-06-25T05:57:14Z</time>
      </trkpt>
      <trkpt lat="49.94132" lon="4.43489">
        <ele>317</ele>
        <time>2020-06-25T05:57:15Z</time>
      </trkpt>
      <trkpt lat="49.94129" lon="4.43486">
        <ele>317</ele>
        <time>2020-06-25T05:57:16Z</time>
      </trkpt>
      <trkpt lat="49.94127" lon="4.43484">
        <ele>317</ele>
        <time>2020-06-25T05:57:17Z</time>
      </trkpt>
      <trkpt lat="49.94125" lon="4.43484">
        <ele>317</ele>
        <time>2020-06-25T05:57:18Z</time>
      </trkpt>
      <trkpt lat="49.94124" lon="4.43486">
        <ele>317</ele>
        <time>2020-06-25T05:57:19Z</time>
      </trkpt>
      <trkpt lat="49.94125" lon="4.43489">
        <ele>317</ele>
        <time>2020-06-25T05:57:20Z</time>
      </trkpt>
      <trkpt lat="49.94125" lon="4.43491">
        <ele>317</ele>
        <time>2020-06-25T05:57:21Z</time>
      </trkpt>
      <trkpt lat="49.94126" lon="4.43493">
        <ele>316.9</ele>
        <time>2020-06-25T05:57:22Z</time>
      </trkpt>
      <trkpt lat="49.94126" lon="4.43494">
        <ele>316.9</ele>
        <time>2020-06-25T05:57:23Z</time>
      </trkpt>
      <trkpt lat="49.94126" lon="4.43494">
        <ele>316.9</ele>
        <time>2020-06-25T05:57:24Z</time>
      </trkpt>
      <trkpt lat="49.94126" lon="4.43494">
        <ele>316.9</ele>
        <time>2020-06-25T05:57:25Z</time>
      </trkpt>
      <trkpt lat="49.94127" lon="4.43494">
        <ele>316.9</ele>
        <time>2020-06-25T05:57:26Z</time>
      </trkpt>
      <trkpt lat="49.94127" lon="4.43495">
        <ele>316.9</ele>
        <time>2020-06-25T05:57:27Z</time>
      </trkpt>
      <trkpt lat="49.94127" lon="4.43495">
        <ele>316.9</ele>
        <time>2020-06-25T05:57:28Z</time>
      </trkpt>
      <trkpt lat="49.94127" lon="4.43495">
        <ele>316.9</ele>
        <time>2020-06-25T05:57:29Z</time>
      </trkpt>
      <trkpt lat="49.94128" lon="4.43495">
        <ele>316.9</ele>
        <time>2020-06-25T05:57:30Z</time>
      </trkpt>
      <trkpt lat="49.94127" lon="4.43496">
        <ele>316.9</ele>
        <time>2020-06-25T05:57:31Z</time>
      </trkpt>
      <trkpt lat="49.94127" lon="4.43497">
        <ele>316.9</ele>
        <time>2020-06-25T05:57:32Z</time>
      </trkpt>
      <trkpt lat="49.94127" lon="4.43497">
        <ele>316.9</ele>
        <time>2020-06-25T05:57:33Z</time>
      </trkpt>
      <trkpt lat="49.94117" lon="4.43497">
        <ele>316.9</ele>
        <time>2020-06-25T05:59:30Z</time>
      </trkpt>
      <trkpt lat="49.94115" lon="4.43497">
        <ele>316.9</ele>
        <time>2020-06-25T05:59:31Z</time>
      </trkpt>
      <trkpt lat="49.94114" lon="4.43494">
        <ele>316.9</ele>
        <time>2020-06-25T05:59:32Z</time>
      </trkpt>
      <trkpt lat="49.94114" lon="4.43492">
        <ele>316.8</ele>
        <time>2020-06-25T05:59:33Z</time>
      </trkpt>
      <trkpt lat="49.94114" lon="4.4349">
        <ele>316.8</ele>
        <time>2020-06-25T05:59:34Z</time>
      </trkpt>
      <trkpt lat="49.94113" lon="4.43487">
        <ele>316.8</ele>
        <time>2020-06-25T05:59:35Z</time>
      </trkpt>
      <trkpt lat="49.94114" lon="4.43485">
        <ele>316.8</ele>
        <time>2020-06-25T05:59:36Z</time>
      </trkpt>
      <trkpt lat="49.94113" lon="4.43485">
        <ele>316.8</ele>
        <time>2020-06-25T05:59:37Z</time>
      </trkpt>
      <trkpt lat="49.94112" lon="4.43484">
        <ele>316.8</ele>
        <time>2020-06-25T05:59:38Z</time>
      </trkpt>
      <trkpt lat="49.94112" lon="4.43483">
        <ele>316.8</ele>
        <time>2020-06-25T05:59:39Z</time>
      </trkpt>
      <trkpt lat="49.94112" lon="4.43483">
        <ele>316.8</ele>
        <time>2020-06-25T05:59:40Z</time>
      </trkpt>
      <trkpt lat="49.94112" lon="4.43484">
        <ele>316.8</ele>
        <time>2020-06-25T05:59:41Z</time>
      </trkpt>
      <trkpt lat="49.94112" lon="4.43484">
        <ele>316.8</ele>
        <time>2020-06-25T05:59:42Z</time>
      </trkpt>
      <trkpt lat="49.94113" lon="4.43485">
        <ele>316.8</ele>
        <time>2020-06-25T05:59:43Z</time>
      </trkpt>
      <trkpt lat="49.94113" lon="4.43486">
        <ele>316.8</ele>
        <time>2020-06-25T05:59:44Z</time>
      </trkpt>
      <trkpt lat="49.94114" lon="4.43487">
        <ele>316.8</ele>
        <time>2020-06-25T05:59:45Z</time>
      </trkpt>
      <trkpt lat="49.94114" lon="4.43486">
        <ele>316.8</ele>
        <time>2020-06-25T05:59:46Z</time>
      </trkpt>
      <trkpt lat="49.94114" lon="4.43486">
        <ele>316.8</ele>
        <time>2020-06-25T05:59:47Z</time>
      </trkpt>
      <trkpt lat="49.94114" lon="4.43485">
        <ele>316.8</ele>
        <time>2020-06-25T05:59:48Z</time>
      </trkpt>
      <trkpt lat="49.94114" lon="4.43485">
        <ele>316.8</ele>
        <time>2020-06-25T05:59:49Z</time>
      </trkpt>
      <trkpt lat="49.94114" lon="4.43486">
        <ele>316.8</ele>
        <time>2020-06-25T05:59:50Z</time>
      </trkpt>
      <trkpt lat="49.94114" lon="4.43487">
        <ele>316.8</ele>
        <time>2020-06-25T05:59:51Z</time>
      </trkpt>
      <trkpt lat="49.94113" lon="4.43487">
        <ele>316.8</ele>
        <time>2020-06-25T05:59:52Z</time>
      </trkpt>
      <trkpt lat="49.94114" lon="4.43487">
        <ele>316.8</ele>
        <time>2020-06-25T05:59:53Z</time>
      </trkpt>
      <trkpt lat="49.94114" lon="4.43488">
        <ele>316.8</ele>
        <time>2020-06-25T05:59:54Z</time>
      </trkpt>
      <trkpt lat="49.94114" lon="4.43489">
        <ele>316.8</ele>
        <time>2020-06-25T05:59:55Z</time>
      </trkpt>
      <trkpt lat="49.94113" lon="4.43489">
        <ele>316.8</ele>
        <time>2020-06-25T05:59:56Z</time>
      </trkpt>
      <trkpt lat="49.94114" lon="4.43489">
        <ele>316.8</ele>
        <time>2020-06-25T05:59:57Z</time>
      </trkpt>
      <trkpt lat="49.94114" lon="4.43488">
        <ele>316.8</ele>
        <time>2020-06-25T05:59:58Z</time>
      </trkpt>
      <trkpt lat="49.94115" lon="4.43488">
        <ele>316.8</ele>
        <time>2020-06-25T05:59:59Z</time>
      </trkpt>
      <trkpt lat="49.94115" lon="4.43488">
        <ele>316.8</ele>
        <time>2020-06-25T06:00:00Z</time>
      </trkpt>
      <trkpt lat="49.94115" lon="4.43488">
        <ele>316.8</ele>
        <time>2020-06-25T06:00:01Z</time>
      </trkpt>
      <trkpt lat="49.94115" lon="4.43488">
        <ele>316.8</ele>
        <time>2020-06-25T06:00:02Z</time>
      </trkpt>
      <trkpt lat="49.94115" lon="4.43488">
        <ele>316.8</ele>
        <time>2020-06-25T06:00:03Z</time>
      </trkpt>
      <trkpt lat="49.94115" lon="4.43487">
        <ele>316.8</ele>
        <time>2020-06-25T06:00:04Z</time>
      </trkpt>
      <trkpt lat="49.94115" lon="4.43487">
        <ele>316.8</ele>
        <time>2020-06-25T06:00:05Z</time>
      </trkpt>
      <trkpt lat="49.94114" lon="4.43488">
        <ele>316.8</ele>
        <time>2020-06-25T06:00:06Z</time>
      </trkpt>
      <trkpt lat="49.94114" lon="4.43488">
        <ele>316.8</ele>
        <time>2020-06-25T06:00:07Z</time>
      </trkpt>
      <trkpt lat="49.9412" lon="4.43488">
        <ele>316.8</ele>
        <time>2020-06-25T06:00:19Z</time>
      </trkpt>
      <trkpt lat="49.9412" lon="4.43488">
        <ele>316.8</ele>
        <time>2020-06-25T06:00:20Z</time>
      </trkpt>
      <trkpt lat="49.9412" lon="4.43488">
        <ele>316.8</ele>
        <time>2020-06-25T06:00:21Z</time>
      </trkpt>
      <trkpt lat="49.9412" lon="4.43488">
        <ele>316.8</ele>
        <time>2020-06-25T06:00:22Z</time>
      </trkpt>
      <trkpt lat="49.9412" lon="4.43488">
        <ele>316.8</ele>
        <time>2020-06-25T06:00:23Z</time>
      </trkpt>
      <trkpt lat="49.9412" lon="4.43489">
        <ele>316.8</ele>
        <time>2020-06-25T06:00:24Z</time>
      </trkpt>
      <trkpt lat="49.94119" lon="4.4349">
        <ele>316.7</ele>
        <time>2020-06-25T06:00:25Z</time>
      </trkpt>
      <trkpt lat="49.9412" lon="4.43489">
        <ele>316.7</ele>
        <time>2020-06-25T06:00:26Z</time>
      </trkpt>
      <trkpt lat="49.94121" lon="4.43489">
        <ele>316.7</ele>
        <time>2020-06-25T06:00:27Z</time>
      </trkpt>
      <trkpt lat="49.94122" lon="4.43487">
        <ele>316.7</ele>
        <time>2020-06-25T06:00:28Z</time>
      </trkpt>
      <trkpt lat="49.94122" lon="4.43487">
        <ele>316.7</ele>
        <time>2020-06-25T06:00:29Z</time>
      </trkpt>
      <trkpt lat="49.94125" lon="4.43489">
        <ele>316.7</ele>
        <time>2020-06-25T06:01:23Z</time>
      </trkpt>
      <trkpt lat="49.94125" lon="4.43489">
        <ele>316.7</ele>
        <time>2020-06-25T06:01:24Z</time>
      </trkpt>
      <trkpt lat="49.94124" lon="4.43489">
        <ele>316.7</ele>
        <time>2020-06-25T06:01:25Z</time>
      </trkpt>
      <trkpt lat="49.94124" lon="4.43489">
        <ele>316.7</ele>
        <time>2020-06-25T06:01:26Z</time>
      </trkpt>
      <trkpt lat="49.94124" lon="4.43489">
        <ele>316.7</ele>
        <time>2020-06-25T06:01:27Z</time>
      </trkpt>
      <trkpt lat="49.94123" lon="4.4349">
        <ele>316.7</ele>
        <time>2020-06-25T06:01:28Z</time>
      </trkpt>
      <trkpt lat="49.94123" lon="4.4349">
        <ele>316.7</ele>
        <time>2020-06-25T06:01:29Z</time>
      </trkpt>
      <trkpt lat="49.94124" lon="4.43491">
        <ele>316.7</ele>
        <time>2020-06-25T06:01:30Z</time>
      </trkpt>
      <trkpt lat="49.94123" lon="4.43492">
        <ele>316.7</ele>
        <time>2020-06-25T06:01:31Z</time>
      </trkpt>
      <trkpt lat="49.94123" lon="4.43492">
        <ele>316.7</ele>
        <time>2020-06-25T06:01:32Z</time>
      </trkpt>
      <trkpt lat="49.94124" lon="4.43491">
        <ele>316.7</ele>
        <time>2020-06-25T06:01:33Z</time>
      </trkpt>
      <trkpt lat="49.94125" lon="4.43491">
        <ele>316.7</ele>
        <time>2020-06-25T06:01:34Z</time>
      </trkpt>
      <trkpt lat="49.94125" lon="4.43492">
        <ele>316.7</ele>
        <time>2020-06-25T06:01:35Z</time>
      </trkpt>
      <trkpt lat="49.94126" lon="4.43492">
        <ele>316.7</ele>
        <time>2020-06-25T06:01:36Z</time>
      </trkpt>
      <trkpt lat="49.94126" lon="4.43493">
        <ele>316.7</ele>
        <time>2020-06-25T06:01:37Z</time>
      </trkpt>
      <trkpt lat="49.94127" lon="4.43493">
        <ele>316.7</ele>
        <time>2020-06-25T06:01:38Z</time>
      </trkpt>
      <trkpt lat="49.94127" lon="4.43494">
        <ele>316.7</ele>
        <time>2020-06-25T06:01:39Z</time>
      </trkpt>
      <trkpt lat="49.94128" lon="4.43495">
        <ele>316.7</ele>
        <time>2020-06-25T06:01:40Z</time>
      </trkpt>
      <trkpt lat="49.94129" lon="4.43496">
        <ele>316.7</ele>
        <time>2020-06-25T06:01:41Z</time>
      </trkpt>
      <trkpt lat="49.94129" lon="4.43497">
        <ele>316.7</ele>
        <time>2020-06-25T06:01:42Z</time>
      </trkpt>
      <trkpt lat="49.9413" lon="4.43498">
        <ele>316.7</ele>
        <time>2020-06-25T06:01:43Z</time>
      </trkpt>
      <trkpt lat="49.9413" lon="4.43499">
        <ele>316.7</ele>
        <time>2020-06-25T06:01:44Z</time>
      </trkpt>
      <trkpt lat="49.9413" lon="4.43499">
        <ele>316.7</ele>
        <time>2020-06-25T06:01:45Z</time>
      </trkpt>
      <trkpt lat="49.9413" lon="4.435">
        <ele>316.7</ele>
        <time>2020-06-25T06:01:46Z</time>
      </trkpt>
      <trkpt lat="49.9413" lon="4.43501">
        <ele>316.7</ele>
        <time>2020-06-25T06:01:47Z</time>
      </trkpt>
      <trkpt lat="49.9413" lon="4.43501">
        <ele>316.7</ele>
        <time>2020-06-25T06:01:48Z</time>
      </trkpt>
      <trkpt lat="49.9413" lon="4.435">
        <ele>316.7</ele>
        <time>2020-06-25T06:01:49Z</time>
      </trkpt>
      <trkpt lat="49.9413" lon="4.43499">
        <ele>316.7</ele>
        <time>2020-06-25T06:01:50Z</time>
      </trkpt>
      <trkpt lat="49.9413" lon="4.43498">
        <ele>316.7</ele>
        <time>2020-06-25T06:01:51Z</time>
      </trkpt>
      <trkpt lat="49.9413" lon="4.43497">
        <ele>316.7</ele>
        <time>2020-06-25T06:01:52Z</time>
      </trkpt>
      <trkpt lat="49.9413" lon="4.43496">
        <ele>316.7</ele>
        <time>2020-06-25T06:01:53Z</time>
      </trkpt>
      <trkpt lat="49.9413" lon="4.43495">
        <ele>316.7</ele>
        <time>2020-06-25T06:01:54Z</time>
      </trkpt>
      <trkpt lat="49.9413" lon="4.43492">
        <ele>316.7</ele>
        <time>2020-06-25T06:01:55Z</time>
      </trkpt>
      <trkpt lat="49.9413" lon="4.43489">
        <ele>316.7</ele>
        <time>2020-06-25T06:01:56Z</time>
      </trkpt>
      <trkpt lat="49.94132" lon="4.43489">
        <ele>316.7</ele>
        <time>2020-06-25T06:01:57Z</time>
      </trkpt>
      <trkpt lat="49.94133" lon="4.43489">
        <ele>316.7</ele>
        <time>2020-06-25T06:01:58Z</time>
      </trkpt>
      <trkpt lat="49.94135" lon="4.43488">
        <ele>316.7</ele>
        <time>2020-06-25T06:01:59Z</time>
      </trkpt>
      <trkpt lat="49.94136" lon="4.43488">
        <ele>316.7</ele>
        <time>2020-06-25T06:02:00Z</time>
      </trkpt>
      <trkpt lat="49.94137" lon="4.43488">
        <ele>316.7</ele>
        <time>2020-06-25T06:02:01Z</time>
      </trkpt>
      <trkpt lat="49.94138" lon="4.43486">
        <ele>316.7</ele>
        <time>2020-06-25T06:02:02Z</time>
      </trkpt>
      <trkpt lat="49.94138" lon="4.43486">
        <ele>316.7</ele>
        <time>2020-06-25T06:02:03Z</time>
      </trkpt>
      <trkpt lat="49.94139" lon="4.43486">
        <ele>316.7</ele>
        <time>2020-06-25T06:02:04Z</time>
      </trkpt>
      <trkpt lat="49.94139" lon="4.43485">
        <ele>316.7</ele>
        <time>2020-06-25T06:02:05Z</time>
      </trkpt>
      <trkpt lat="49.9414" lon="4.43485">
        <ele>316.7</ele>
        <time>2020-06-25T06:02:06Z</time>
      </trkpt>
      <trkpt lat="49.9414" lon="4.43484">
        <ele>316.7</ele>
        <time>2020-06-25T06:02:07Z</time>
      </trkpt>
      <trkpt lat="49.9414" lon="4.43485">
        <ele>316.7</ele>
        <time>2020-06-25T06:02:08Z</time>
      </trkpt>
      <trkpt lat="49.9414" lon="4.43485">
        <ele>316.7</ele>
        <time>2020-06-25T06:02:09Z</time>
      </trkpt>
      <trkpt lat="49.9414" lon="4.43486">
        <ele>316.7</ele>
        <time>2020-06-25T06:02:10Z</time>
      </trkpt>
      <trkpt lat="49.94141" lon="4.43486">
        <ele>316.7</ele>
        <time>2020-06-25T06:02:11Z</time>
      </trkpt>
      <trkpt lat="49.94141" lon="4.43486">
        <ele>316.7</ele>
        <time>2020-06-25T06:02:12Z</time>
      </trkpt>
      <trkpt lat="49.94141" lon="4.43486">
        <ele>316.7</ele>
        <time>2020-06-25T06:02:13Z</time>
      </trkpt>
      <trkpt lat="49.94141" lon="4.43487">
        <ele>316.7</ele>
        <time>2020-06-25T06:02:14Z</time>
      </trkpt>
      <trkpt lat="49.94142" lon="4.43486">
        <ele>316.7</ele>
        <time>2020-06-25T06:02:15Z</time>
      </trkpt>
      <trkpt lat="49.94142" lon="4.43486">
        <ele>316.7</ele>
        <time>2020-06-25T06:02:16Z</time>
      </trkpt>
      <trkpt lat="49.94142" lon="4.43485">
        <ele>316.7</ele>
        <time>2020-06-25T06:02:17Z</time>
      </trkpt>
      <trkpt lat="49.94141" lon="4.43484">
        <ele>316.7</ele>
        <time>2020-06-25T06:02:18Z</time>
      </trkpt>
      <trkpt lat="49.9414" lon="4.43484">
        <ele>316.7</ele>
        <time>2020-06-25T06:02:19Z</time>
      </trkpt>
      <trkpt lat="49.9414" lon="4.43484">
        <ele>316.7</ele>
        <time>2020-06-25T06:02:20Z</time>
      </trkpt>
      <trkpt lat="49.94139" lon="4.43485">
        <ele>316.7</ele>
        <time>2020-06-25T06:02:21Z</time>
      </trkpt>
      <trkpt lat="49.94137" lon="4.43486">
        <ele>316.7</ele>
        <time>2020-06-25T06:02:22Z</time>
      </trkpt>
      <trkpt lat="49.94136" lon="4.43486">
        <ele>316.7</ele>
        <time>2020-06-25T06:02:23Z</time>
      </trkpt>
      <trkpt lat="49.94135" lon="4.43485">
        <ele>316.7</ele>
        <time>2020-06-25T06:02:24Z</time>
      </trkpt>
      <trkpt lat="49.94134" lon="4.43484">
        <ele>316.7</ele>
        <time>2020-06-25T06:02:25Z</time>
      </trkpt>
      <trkpt lat="49.94133" lon="4.43483">
        <ele>316.7</ele>
        <time>2020-06-25T06:02:26Z</time>
      </trkpt>
      <trkpt lat="49.94132" lon="4.43481">
        <ele>316.7</ele>
        <time>2020-06-25T06:02:27Z</time>
      </trkpt>
      <trkpt lat="49.94129" lon="4.43478">
        <ele>316.7</ele>
        <time>2020-06-25T06:02:28Z</time>
      </trkpt>
      <trkpt lat="49.94128" lon="4.43477">
        <ele>316.7</ele>
        <time>2020-06-25T06:02:29Z</time>
      </trkpt>
      <trkpt lat="49.94127" lon="4.43476">
        <ele>316.7</ele>
        <time>2020-06-25T06:02:30Z</time>
      </trkpt>
      <trkpt lat="49.94125" lon="4.43474">
        <ele>316.7</ele>
        <time>2020-06-25T06:02:31Z</time>
      </trkpt>
      <trkpt lat="49.94124" lon="4.43473">
        <ele>316.7</ele>
        <time>2020-06-25T06:02:32Z</time>
      </trkpt>
      <trkpt lat="49.94123" lon="4.43471">
        <ele>316.7</ele>
        <time>2020-06-25T06:02:33Z</time>
      </trkpt>
      <trkpt lat="49.94121" lon="4.43469">
        <ele>316.7</ele>
        <time>2020-06-25T06:02:34Z</time>
      </trkpt>
      <trkpt lat="49.94121" lon="4.43467">
        <ele>316.7</ele>
        <time>2020-06-25T06:02:35Z</time>
      </trkpt>
      <trkpt lat="49.9412" lon="4.43466">
        <ele>316.7</ele>
        <time>2020-06-25T06:02:36Z</time>
      </trkpt>
      <trkpt lat="49.94118" lon="4.43464">
        <ele>316.7</ele>
        <time>2020-06-25T06:02:37Z</time>
      </trkpt>
      <trkpt lat="49.94114" lon="4.43462">
        <ele>316.7</ele>
        <time>2020-06-25T06:02:38Z</time>
      </trkpt>
      <trkpt lat="49.94113" lon="4.43461">
        <ele>316.7</ele>
        <time>2020-06-25T06:02:39Z</time>
      </trkpt>
      <trkpt lat="49.9411" lon="4.43459">
        <ele>316.7</ele>
        <time>2020-06-25T06:02:40Z</time>
      </trkpt>
      <trkpt lat="49.94108" lon="4.43455">
        <ele>316.8</ele>
        <time>2020-06-25T06:02:41Z</time>
      </trkpt>
      <trkpt lat="49.94107" lon="4.43455">
        <ele>316.8</ele>
        <time>2020-06-25T06:02:42Z</time>
      </trkpt>
      <trkpt lat="49.94106" lon="4.43454">
        <ele>316.8</ele>
        <time>2020-06-25T06:02:43Z</time>
      </trkpt>
      <trkpt lat="49.94105" lon="4.43454">
        <ele>316.8</ele>
        <time>2020-06-25T06:02:44Z</time>
      </trkpt>
      <trkpt lat="49.94105" lon="4.43455">
        <ele>316.8</ele>
        <time>2020-06-25T06:02:45Z</time>
      </trkpt>
      <trkpt lat="49.94105" lon="4.43455">
        <ele>316.8</ele>
        <time>2020-06-25T06:02:46Z</time>
      </trkpt>
      <trkpt lat="49.94105" lon="4.43455">
        <ele>316.8</ele>
        <time>2020-06-25T06:02:47Z</time>
      </trkpt>
      <trkpt lat="49.94105" lon="4.43454">
        <ele>316.8</ele>
        <time>2020-06-25T06:02:48Z</time>
      </trkpt>
      <trkpt lat="49.94105" lon="4.43454">
        <ele>316.8</ele>
        <time>2020-06-25T06:02:49Z</time>
      </trkpt>
      <trkpt lat="49.94105" lon="4.43454">
        <ele>316.8</ele>
        <time>2020-06-25T06:02:50Z</time>
      </trkpt>
      <trkpt lat="49.94105" lon="4.43454">
        <ele>316.8</ele>
        <time>2020-06-25T06:02:51Z</time>
      </trkpt>
      <trkpt lat="49.94105" lon="4.43454">
        <ele>316.8</ele>
        <time>2020-06-25T06:02:52Z</time>
      </trkpt>
      <trkpt lat="49.94105" lon="4.43454">
        <ele>316.8</ele>
        <time>2020-06-25T06:02:53Z</time>
      </trkpt>
      <trkpt lat="49.94105" lon="4.43453">
        <ele>316.8</ele>
        <time>2020-06-25T06:02:54Z</time>
      </trkpt>
      <trkpt lat="49.94105" lon="4.43452">
        <ele>316.8</ele>
        <time>2020-06-25T06:02:55Z</time>
      </trkpt>
      <trkpt lat="49.9411" lon="4.43452">
        <ele>316.8</ele>
        <time>2020-06-25T06:04:03Z</time>
      </trkpt>
      <trkpt lat="49.9411" lon="4.43453">
        <ele>316.8</ele>
        <time>2020-06-25T06:04:04Z</time>
      </trkpt>
      <trkpt lat="49.9411" lon="4.43454">
        <ele>316.8</ele>
        <time>2020-06-25T06:04:05Z</time>
      </trkpt>
      <trkpt lat="49.94109" lon="4.43454">
        <ele>316.9</ele>
        <time>2020-06-25T06:04:06Z</time>
      </trkpt>
      <trkpt lat="49.9411" lon="4.43454">
        <ele>316.9</ele>
        <time>2020-06-25T06:04:07Z</time>
      </trkpt>
      <trkpt lat="49.9411" lon="4.43453">
        <ele>316.9</ele>
        <time>2020-06-25T06:04:08Z</time>
      </trkpt>
      <trkpt lat="49.9411" lon="4.43453">
        <ele>316.9</ele>
        <time>2020-06-25T06:04:09Z</time>
      </trkpt>
      <trkpt lat="49.9411" lon="4.43453">
        <ele>316.9</ele>
        <time>2020-06-25T06:04:10Z</time>
      </trkpt>
      <trkpt lat="49.9411" lon="4.43453">
        <ele>316.9</ele>
        <time>2020-06-25T06:04:11Z</time>
      </trkpt>
      <trkpt lat="49.9411" lon="4.43453">
        <ele>316.9</ele>
        <time>2020-06-25T06:04:12Z</time>
      </trkpt>
      <trkpt lat="49.9411" lon="4.43453">
        <ele>316.9</ele>
        <time>2020-06-25T06:04:13Z</time>
      </trkpt>
      <trkpt lat="49.9411" lon="4.43453">
        <ele>316.9</ele>
        <time>2020-06-25T06:04:14Z</time>
      </trkpt>
      <trkpt lat="49.941" lon="4.43449">
        <ele>317</ele>
        <time>2020-06-25T06:04:49Z</time>
      </trkpt>
      <trkpt lat="49.94098" lon="4.43444">
        <ele>317</ele>
        <time>2020-06-25T06:04:50Z</time>
      </trkpt>
      <trkpt lat="49.94095" lon="4.43441">
        <ele>317.1</ele>
        <time>2020-06-25T06:04:51Z</time>
      </trkpt>
      <trkpt lat="49.94092" lon="4.43437">
        <ele>317.2</ele>
        <time>2020-06-25T06:04:52Z</time>
      </trkpt>
      <trkpt lat="49.94089" lon="4.43433">
        <ele>317.3</ele>
        <time>2020-06-25T06:04:53Z</time>
      </trkpt>
      <trkpt lat="49.94085" lon="4.43428">
        <ele>317.4</ele>
        <time>2020-06-25T06:04:54Z</time>
      </trkpt>
      <trkpt lat="49.94081" lon="4.43424">
        <ele>317.5</ele>
        <time>2020-06-25T06:04:55Z</time>
      </trkpt>
      <trkpt lat="49.94078" lon="4.4342">
        <ele>317.6</ele>
        <time>2020-06-25T06:04:56Z</time>
      </trkpt>
      <trkpt lat="49.94074" lon="4.43416">
        <ele>317.7</ele>
        <time>2020-06-25T06:04:57Z</time>
      </trkpt>
      <trkpt lat="49.94072" lon="4.43413">
        <ele>317.9</ele>
        <time>2020-06-25T06:04:58Z</time>
      </trkpt>
      <trkpt lat="49.94069" lon="4.4341">
        <ele>318</ele>
        <time>2020-06-25T06:04:59Z</time>
      </trkpt>
      <trkpt lat="49.94066" lon="4.43407">
        <ele>318.1</ele>
        <time>2020-06-25T06:05:00Z</time>
      </trkpt>
      <trkpt lat="49.94063" lon="4.43403">
        <ele>318.3</ele>
        <time>2020-06-25T06:05:01Z</time>
      </trkpt>
      <trkpt lat="49.9406" lon="4.43399">
        <ele>318.4</ele>
        <time>2020-06-25T06:05:02Z</time>
      </trkpt>
      <trkpt lat="49.94058" lon="4.43395">
        <ele>318.6</ele>
        <time>2020-06-25T06:05:03Z</time>
      </trkpt>
      <trkpt lat="49.94055" lon="4.43391">
        <ele>318.7</ele>
        <time>2020-06-25T06:05:04Z</time>
      </trkpt>
      <trkpt lat="49.94052" lon="4.43389">
        <ele>318.9</ele>
        <time>2020-06-25T06:05:05Z</time>
      </trkpt>
      <trkpt lat="49.94049" lon="4.43386">
        <ele>319.1</ele>
        <time>2020-06-25T06:05:06Z</time>
      </trkpt>
      <trkpt lat="49.94046" lon="4.43384">
        <ele>319.2</ele>
        <time>2020-06-25T06:05:07Z</time>
      </trkpt>
      <trkpt lat="49.94043" lon="4.4338">
        <ele>319.4</ele>
        <time>2020-06-25T06:05:08Z</time>
      </trkpt>
      <trkpt lat="49.9404" lon="4.43376">
        <ele>319.6</ele>
        <time>2020-06-25T06:05:09Z</time>
      </trkpt>
      <trkpt lat="49.94037" lon="4.43374">
        <ele>319.8</ele>
        <time>2020-06-25T06:05:10Z</time>
      </trkpt>
      <trkpt lat="49.94034" lon="4.43371">
        <ele>319.9</ele>
        <time>2020-06-25T06:05:11Z</time>
      </trkpt>
      <trkpt lat="49.94031" lon="4.4337">
        <ele>320.1</ele>
        <time>2020-06-25T06:05:12Z</time>
      </trkpt>
      <trkpt lat="49.94027" lon="4.4337">
        <ele>320.2</ele>
        <time>2020-06-25T06:05:13Z</time>
      </trkpt>
      <trkpt lat="49.94024" lon="4.4337">
        <ele>320.3</ele>
        <time>2020-06-25T06:05:14Z</time>
      </trkpt>
      <trkpt lat="49.94022" lon="4.43371">
        <ele>320.5</ele>
        <time>2020-06-25T06:05:15Z</time>
      </trkpt>
      <trkpt lat="49.94019" lon="4.43372">
        <ele>320.6</ele>
        <time>2020-06-25T06:05:16Z</time>
      </trkpt>
      <trkpt lat="49.94016" lon="4.43373">
        <ele>320.7</ele>
        <time>2020-06-25T06:05:17Z</time>
      </trkpt>
      <trkpt lat="49.94011" lon="4.43375">
        <ele>320.9</ele>
        <time>2020-06-25T06:05:18Z</time>
      </trkpt>
      <trkpt lat="49.94008" lon="4.43377">
        <ele>322.1</ele>
        <time>2020-06-25T06:05:19Z</time>
      </trkpt>
      <trkpt lat="49.94005" lon="4.43381">
        <ele>322.1</ele>
        <time>2020-06-25T06:05:20Z</time>
      </trkpt>
      <trkpt lat="49.94002" lon="4.43384">
        <ele>322.1</ele>
        <time>2020-06-25T06:05:21Z</time>
      </trkpt>
      <trkpt lat="49.93999" lon="4.43387">
        <ele>322.1</ele>
        <time>2020-06-25T06:05:22Z</time>
      </trkpt>
      <trkpt lat="49.93996" lon="4.43391">
        <ele>322</ele>
        <time>2020-06-25T06:05:23Z</time>
      </trkpt>
      <trkpt lat="49.93995" lon="4.43394">
        <ele>322</ele>
        <time>2020-06-25T06:05:24Z</time>
      </trkpt>
      <trkpt lat="49.93994" lon="4.43399">
        <ele>322</ele>
        <time>2020-06-25T06:05:25Z</time>
      </trkpt>
      <trkpt lat="49.93993" lon="4.43403">
        <ele>322</ele>
        <time>2020-06-25T06:05:26Z</time>
      </trkpt>
      <trkpt lat="49.93992" lon="4.43408">
        <ele>322.1</ele>
        <time>2020-06-25T06:05:27Z</time>
      </trkpt>
      <trkpt lat="49.93991" lon="4.43412">
        <ele>322.1</ele>
        <time>2020-06-25T06:05:28Z</time>
      </trkpt>
      <trkpt lat="49.93991" lon="4.43418">
        <ele>322.1</ele>
        <time>2020-06-25T06:05:29Z</time>
      </trkpt>
      <trkpt lat="49.93991" lon="4.4342">
        <ele>322.1</ele>
        <time>2020-06-25T06:05:30Z</time>
      </trkpt>
      <trkpt lat="49.93989" lon="4.43425">
        <ele>322.1</ele>
        <time>2020-06-25T06:05:31Z</time>
      </trkpt>
      <trkpt lat="49.93989" lon="4.43426">
        <ele>322.1</ele>
        <time>2020-06-25T06:05:32Z</time>
      </trkpt>
      <trkpt lat="49.93987" lon="4.43432">
        <ele>322.2</ele>
        <time>2020-06-25T06:05:33Z</time>
      </trkpt>
      <trkpt lat="49.93987" lon="4.43434">
        <ele>322.2</ele>
        <time>2020-06-25T06:05:34Z</time>
      </trkpt>
      <trkpt lat="49.93986" lon="4.43439">
        <ele>322.2</ele>
        <time>2020-06-25T06:05:35Z</time>
      </trkpt>
      <trkpt lat="49.93985" lon="4.43443">
        <ele>322.2</ele>
        <time>2020-06-25T06:05:36Z</time>
      </trkpt>
      <trkpt lat="49.93982" lon="4.43448">
        <ele>322.2</ele>
        <time>2020-06-25T06:05:37Z</time>
      </trkpt>
      <trkpt lat="49.93979" lon="4.43452">
        <ele>322.2</ele>
        <time>2020-06-25T06:05:38Z</time>
      </trkpt>
      <trkpt lat="49.93977" lon="4.43456">
        <ele>322.2</ele>
        <time>2020-06-25T06:05:39Z</time>
      </trkpt>
      <trkpt lat="49.93975" lon="4.43461">
        <ele>322.2</ele>
        <time>2020-06-25T06:05:40Z</time>
      </trkpt>
      <trkpt lat="49.93973" lon="4.43467">
        <ele>322.2</ele>
        <time>2020-06-25T06:05:41Z</time>
      </trkpt>
      <trkpt lat="49.9397" lon="4.43472">
        <ele>322.2</ele>
        <time>2020-06-25T06:05:42Z</time>
      </trkpt>
      <trkpt lat="49.93968" lon="4.43477">
        <ele>322.3</ele>
        <time>2020-06-25T06:05:43Z</time>
      </trkpt>
      <trkpt lat="49.93964" lon="4.43482">
        <ele>322.3</ele>
        <time>2020-06-25T06:05:44Z</time>
      </trkpt>
      <trkpt lat="49.93962" lon="4.43487">
        <ele>322.3</ele>
        <time>2020-06-25T06:05:45Z</time>
      </trkpt>
      <trkpt lat="49.93959" lon="4.43491">
        <ele>322.3</ele>
        <time>2020-06-25T06:05:46Z</time>
      </trkpt>
      <trkpt lat="49.93955" lon="4.43493">
        <ele>322.3</ele>
        <time>2020-06-25T06:05:47Z</time>
      </trkpt>
      <trkpt lat="49.93951" lon="4.43494">
        <ele>322.3</ele>
        <time>2020-06-25T06:05:48Z</time>
      </trkpt>
      <trkpt lat="49.93947" lon="4.43494">
        <ele>322.3</ele>
        <time>2020-06-25T06:05:49Z</time>
      </trkpt>
      <trkpt lat="49.93942" lon="4.43493">
        <ele>322.2</ele>
        <time>2020-06-25T06:05:50Z</time>
      </trkpt>
      <trkpt lat="49.93937" lon="4.43492">
        <ele>322.2</ele>
        <time>2020-06-25T06:05:51Z</time>
      </trkpt>
      <trkpt lat="49.93932" lon="4.4349">
        <ele>322.1</ele>
        <time>2020-06-25T06:05:52Z</time>
      </trkpt>
      <trkpt lat="49.93927" lon="4.43488">
        <ele>321.9</ele>
        <time>2020-06-25T06:05:53Z</time>
      </trkpt>
      <trkpt lat="49.93922" lon="4.43487">
        <ele>321.9</ele>
        <time>2020-06-25T06:05:54Z</time>
      </trkpt>
      <trkpt lat="49.93918" lon="4.43485">
        <ele>321.8</ele>
        <time>2020-06-25T06:05:55Z</time>
      </trkpt>
      <trkpt lat="49.93913" lon="4.43485">
        <ele>321.7</ele>
        <time>2020-06-25T06:05:56Z</time>
      </trkpt>
      <trkpt lat="49.93909" lon="4.43483">
        <ele>321.7</ele>
        <time>2020-06-25T06:05:57Z</time>
      </trkpt>
      <trkpt lat="49.93904" lon="4.43481">
        <ele>321.7</ele>
        <time>2020-06-25T06:05:58Z</time>
      </trkpt>
      <trkpt lat="49.939" lon="4.43479">
        <ele>321.8</ele>
        <time>2020-06-25T06:05:59Z</time>
      </trkpt>
      <trkpt lat="49.93896" lon="4.43478">
        <ele>321.9</ele>
        <time>2020-06-25T06:06:00Z</time>
      </trkpt>
      <trkpt lat="49.93891" lon="4.43477">
        <ele>322</ele>
        <time>2020-06-25T06:06:01Z</time>
      </trkpt>
      <trkpt lat="49.93886" lon="4.43477">
        <ele>322</ele>
        <time>2020-06-25T06:06:02Z</time>
      </trkpt>
      <trkpt lat="49.93882" lon="4.43476">
        <ele>322.1</ele>
        <time>2020-06-25T06:06:03Z</time>
      </trkpt>
      <trkpt lat="49.93877" lon="4.43475">
        <ele>322.1</ele>
        <time>2020-06-25T06:06:04Z</time>
      </trkpt>
      <trkpt lat="49.93872" lon="4.43475">
        <ele>322.2</ele>
        <time>2020-06-25T06:06:05Z</time>
      </trkpt>
      <trkpt lat="49.93866" lon="4.43475">
        <ele>322.3</ele>
        <time>2020-06-25T06:06:06Z</time>
      </trkpt>
      <trkpt lat="49.93861" lon="4.43475">
        <ele>322.4</ele>
        <time>2020-06-25T06:06:07Z</time>
      </trkpt>
      <trkpt lat="49.93857" lon="4.43475">
        <ele>322.6</ele>
        <time>2020-06-25T06:06:08Z</time>
      </trkpt>
      <trkpt lat="49.93852" lon="4.43476">
        <ele>322.8</ele>
        <time>2020-06-25T06:06:09Z</time>
      </trkpt>
      <trkpt lat="49.93847" lon="4.43478">
        <ele>323</ele>
        <time>2020-06-25T06:06:10Z</time>
      </trkpt>
      <trkpt lat="49.93843" lon="4.43482">
        <ele>323.3</ele>
        <time>2020-06-25T06:06:11Z</time>
      </trkpt>
      <trkpt lat="49.93838" lon="4.43486">
        <ele>323.6</ele>
        <time>2020-06-25T06:06:12Z</time>
      </trkpt>
      <trkpt lat="49.93835" lon="4.43489">
        <ele>323.8</ele>
        <time>2020-06-25T06:06:13Z</time>
      </trkpt>
      <trkpt lat="49.93831" lon="4.43493">
        <ele>324.1</ele>
        <time>2020-06-25T06:06:14Z</time>
      </trkpt>
      <trkpt lat="49.93829" lon="4.43498">
        <ele>324.3</ele>
        <time>2020-06-25T06:06:15Z</time>
      </trkpt>
      <trkpt lat="49.93826" lon="4.43502">
        <ele>324.5</ele>
        <time>2020-06-25T06:06:16Z</time>
      </trkpt>
      <trkpt lat="49.93823" lon="4.43508">
        <ele>324.7</ele>
        <time>2020-06-25T06:06:17Z</time>
      </trkpt>
      <trkpt lat="49.9382" lon="4.43513">
        <ele>324.9</ele>
        <time>2020-06-25T06:06:18Z</time>
      </trkpt>
      <trkpt lat="49.93817" lon="4.43518">
        <ele>325.1</ele>
        <time>2020-06-25T06:06:19Z</time>
      </trkpt>
      <trkpt lat="49.93815" lon="4.43523">
        <ele>325.3</ele>
        <time>2020-06-25T06:06:20Z</time>
      </trkpt>
      <trkpt lat="49.93812" lon="4.43529">
        <ele>325.6</ele>
        <time>2020-06-25T06:06:21Z</time>
      </trkpt>
      <trkpt lat="49.9381" lon="4.43533">
        <ele>325.8</ele>
        <time>2020-06-25T06:06:22Z</time>
      </trkpt>
      <trkpt lat="49.93807" lon="4.43538">
        <ele>326</ele>
        <time>2020-06-25T06:06:23Z</time>
      </trkpt>
      <trkpt lat="49.93805" lon="4.43542">
        <ele>326.2</ele>
        <time>2020-06-25T06:06:24Z</time>
      </trkpt>
      <trkpt lat="49.93803" lon="4.43545">
        <ele>326.4</ele>
        <time>2020-06-25T06:06:25Z</time>
      </trkpt>
      <trkpt lat="49.938" lon="4.4355">
        <ele>326.6</ele>
        <time>2020-06-25T06:06:26Z</time>
      </trkpt>
      <trkpt lat="49.938" lon="4.43552">
        <ele>326.7</ele>
        <time>2020-06-25T06:06:27Z</time>
      </trkpt>
      <trkpt lat="49.93797" lon="4.43556">
        <ele>326.8</ele>
        <time>2020-06-25T06:06:28Z</time>
      </trkpt>
      <trkpt lat="49.93795" lon="4.4356">
        <ele>327</ele>
        <time>2020-06-25T06:06:29Z</time>
      </trkpt>
      <trkpt lat="49.93793" lon="4.43564">
        <ele>327.1</ele>
        <time>2020-06-25T06:06:30Z</time>
      </trkpt>
      <trkpt lat="49.93791" lon="4.43568">
        <ele>327.3</ele>
        <time>2020-06-25T06:06:31Z</time>
      </trkpt>
      <trkpt lat="49.93789" lon="4.43572">
        <ele>327.4</ele>
        <time>2020-06-25T06:06:32Z</time>
      </trkpt>
      <trkpt lat="49.93787" lon="4.43576">
        <ele>327.6</ele>
        <time>2020-06-25T06:06:33Z</time>
      </trkpt>
      <trkpt lat="49.93784" lon="4.43581">
        <ele>327.8</ele>
        <time>2020-06-25T06:06:34Z</time>
      </trkpt>
      <trkpt lat="49.93781" lon="4.43586">
        <ele>328</ele>
        <time>2020-06-25T06:06:35Z</time>
      </trkpt>
      <trkpt lat="49.93778" lon="4.4359">
        <ele>328.1</ele>
        <time>2020-06-25T06:06:36Z</time>
      </trkpt>
      <trkpt lat="49.93776" lon="4.43595">
        <ele>328.3</ele>
        <time>2020-06-25T06:06:37Z</time>
      </trkpt>
      <trkpt lat="49.93772" lon="4.436">
        <ele>328.5</ele>
        <time>2020-06-25T06:06:38Z</time>
      </trkpt>
      <trkpt lat="49.93769" lon="4.43604">
        <ele>328.6</ele>
        <time>2020-06-25T06:06:39Z</time>
      </trkpt>
      <trkpt lat="49.93765" lon="4.43607">
        <ele>328.8</ele>
        <time>2020-06-25T06:06:40Z</time>
      </trkpt>
      <trkpt lat="49.93763" lon="4.4361">
        <ele>328.9</ele>
        <time>2020-06-25T06:06:41Z</time>
      </trkpt>
      <trkpt lat="49.9376" lon="4.43614">
        <ele>329.1</ele>
        <time>2020-06-25T06:06:42Z</time>
      </trkpt>
      <trkpt lat="49.93757" lon="4.43619">
        <ele>329.2</ele>
        <time>2020-06-25T06:06:43Z</time>
      </trkpt>
      <trkpt lat="49.93755" lon="4.43623">
        <ele>329.2</ele>
        <time>2020-06-25T06:06:44Z</time>
      </trkpt>
      <trkpt lat="49.93751" lon="4.43627">
        <ele>329.2</ele>
        <time>2020-06-25T06:06:45Z</time>
      </trkpt>
      <trkpt lat="49.93748" lon="4.43631">
        <ele>329.2</ele>
        <time>2020-06-25T06:06:46Z</time>
      </trkpt>
      <trkpt lat="49.93744" lon="4.43634">
        <ele>329.1</ele>
        <time>2020-06-25T06:06:47Z</time>
      </trkpt>
      <trkpt lat="49.93741" lon="4.43638">
        <ele>329.8</ele>
        <time>2020-06-25T06:06:48Z</time>
      </trkpt>
      <trkpt lat="49.93738" lon="4.43641">
        <ele>330.3</ele>
        <time>2020-06-25T06:06:49Z</time>
      </trkpt>
      <trkpt lat="49.93734" lon="4.43644">
        <ele>330.6</ele>
        <time>2020-06-25T06:06:50Z</time>
      </trkpt>
      <trkpt lat="49.93731" lon="4.43647">
        <ele>330.8</ele>
        <time>2020-06-25T06:06:51Z</time>
      </trkpt>
      <trkpt lat="49.93727" lon="4.43648">
        <ele>331</ele>
        <time>2020-06-25T06:06:52Z</time>
      </trkpt>
      <trkpt lat="49.93723" lon="4.43651">
        <ele>331.1</ele>
        <time>2020-06-25T06:06:53Z</time>
      </trkpt>
      <trkpt lat="49.9372" lon="4.43654">
        <ele>331.2</ele>
        <time>2020-06-25T06:06:54Z</time>
      </trkpt>
      <trkpt lat="49.93716" lon="4.43657">
        <ele>331.3</ele>
        <time>2020-06-25T06:06:55Z</time>
      </trkpt>
      <trkpt lat="49.93714" lon="4.4366">
        <ele>331.4</ele>
        <time>2020-06-25T06:06:56Z</time>
      </trkpt>
      <trkpt lat="49.93712" lon="4.43663">
        <ele>331.5</ele>
        <time>2020-06-25T06:06:57Z</time>
      </trkpt>
      <trkpt lat="49.93708" lon="4.43665">
        <ele>331.6</ele>
        <time>2020-06-25T06:06:58Z</time>
      </trkpt>
      <trkpt lat="49.93705" lon="4.43667">
        <ele>331.8</ele>
        <time>2020-06-25T06:06:59Z</time>
      </trkpt>
      <trkpt lat="49.937" lon="4.43669">
        <ele>332</ele>
        <time>2020-06-25T06:07:00Z</time>
      </trkpt>
      <trkpt lat="49.93696" lon="4.43673">
        <ele>332.1</ele>
        <time>2020-06-25T06:07:01Z</time>
      </trkpt>
      <trkpt lat="49.93692" lon="4.43676">
        <ele>332.3</ele>
        <time>2020-06-25T06:07:02Z</time>
      </trkpt>
      <trkpt lat="49.93688" lon="4.43678">
        <ele>332.5</ele>
        <time>2020-06-25T06:07:03Z</time>
      </trkpt>
      <trkpt lat="49.93685" lon="4.43679">
        <ele>332.7</ele>
        <time>2020-06-25T06:07:04Z</time>
      </trkpt>
      <trkpt lat="49.93682" lon="4.43683">
        <ele>332.9</ele>
        <time>2020-06-25T06:07:05Z</time>
      </trkpt>
      <trkpt lat="49.93679" lon="4.43685">
        <ele>333.1</ele>
        <time>2020-06-25T06:07:06Z</time>
      </trkpt>
      <trkpt lat="49.93675" lon="4.43689">
        <ele>333.3</ele>
        <time>2020-06-25T06:07:07Z</time>
      </trkpt>
      <trkpt lat="49.93672" lon="4.43692">
        <ele>333.6</ele>
        <time>2020-06-25T06:07:08Z</time>
      </trkpt>
      <trkpt lat="49.93669" lon="4.43694">
        <ele>333.8</ele>
        <time>2020-06-25T06:07:09Z</time>
      </trkpt>
      <trkpt lat="49.93666" lon="4.43696">
        <ele>334</ele>
        <time>2020-06-25T06:07:10Z</time>
      </trkpt>
      <trkpt lat="49.93664" lon="4.43699">
        <ele>334.2</ele>
        <time>2020-06-25T06:07:11Z</time>
      </trkpt>
      <trkpt lat="49.93661" lon="4.43701">
        <ele>334.4</ele>
        <time>2020-06-25T06:07:12Z</time>
      </trkpt>
      <trkpt lat="49.93658" lon="4.43702">
        <ele>334.6</ele>
        <time>2020-06-25T06:07:13Z</time>
      </trkpt>
      <trkpt lat="49.93655" lon="4.43704">
        <ele>334.9</ele>
        <time>2020-06-25T06:07:14Z</time>
      </trkpt>
      <trkpt lat="49.93651" lon="4.43707">
        <ele>335.1</ele>
        <time>2020-06-25T06:07:15Z</time>
      </trkpt>
      <trkpt lat="49.93648" lon="4.43709">
        <ele>335.3</ele>
        <time>2020-06-25T06:07:16Z</time>
      </trkpt>
      <trkpt lat="49.93645" lon="4.43713">
        <ele>335.6</ele>
        <time>2020-06-25T06:07:17Z</time>
      </trkpt>
      <trkpt lat="49.93641" lon="4.43716">
        <ele>335.8</ele>
        <time>2020-06-25T06:07:18Z</time>
      </trkpt>
      <trkpt lat="49.93639" lon="4.43717">
        <ele>335.9</ele>
        <time>2020-06-25T06:07:19Z</time>
      </trkpt>
      <trkpt lat="49.93635" lon="4.43719">
        <ele>336.1</ele>
        <time>2020-06-25T06:07:20Z</time>
      </trkpt>
      <trkpt lat="49.93632" lon="4.43721">
        <ele>336.3</ele>
        <time>2020-06-25T06:07:21Z</time>
      </trkpt>
      <trkpt lat="49.93629" lon="4.43725">
        <ele>336.5</ele>
        <time>2020-06-25T06:07:22Z</time>
      </trkpt>
      <trkpt lat="49.93626" lon="4.43728">
        <ele>336.6</ele>
        <time>2020-06-25T06:07:23Z</time>
      </trkpt>
      <trkpt lat="49.93622" lon="4.43731">
        <ele>336.8</ele>
        <time>2020-06-25T06:07:24Z</time>
      </trkpt>
      <trkpt lat="49.93619" lon="4.43733">
        <ele>337</ele>
        <time>2020-06-25T06:07:25Z</time>
      </trkpt>
      <trkpt lat="49.93616" lon="4.43735">
        <ele>337.1</ele>
        <time>2020-06-25T06:07:26Z</time>
      </trkpt>
      <trkpt lat="49.93612" lon="4.43737">
        <ele>337.3</ele>
        <time>2020-06-25T06:07:27Z</time>
      </trkpt>
      <trkpt lat="49.93609" lon="4.43739">
        <ele>337.5</ele>
        <time>2020-06-25T06:07:28Z</time>
      </trkpt>
      <trkpt lat="49.93606" lon="4.43742">
        <ele>337.7</ele>
        <time>2020-06-25T06:07:29Z</time>
      </trkpt>
      <trkpt lat="49.93603" lon="4.43744">
        <ele>337.8</ele>
        <time>2020-06-25T06:07:30Z</time>
      </trkpt>
      <trkpt lat="49.93602" lon="4.43745">
        <ele>337.9</ele>
        <time>2020-06-25T06:07:31Z</time>
      </trkpt>
      <trkpt lat="49.936" lon="4.43747">
        <ele>338.1</ele>
        <time>2020-06-25T06:07:32Z</time>
      </trkpt>
      <trkpt lat="49.93596" lon="4.4375">
        <ele>338.3</ele>
        <time>2020-06-25T06:07:33Z</time>
      </trkpt>
      <trkpt lat="49.93593" lon="4.43753">
        <ele>338.5</ele>
        <time>2020-06-25T06:07:34Z</time>
      </trkpt>
      <trkpt lat="49.93589" lon="4.43755">
        <ele>338.7</ele>
        <time>2020-06-25T06:07:35Z</time>
      </trkpt>
      <trkpt lat="49.93586" lon="4.43757">
        <ele>338.8</ele>
        <time>2020-06-25T06:07:36Z</time>
      </trkpt>
      <trkpt lat="49.93582" lon="4.4376">
        <ele>339</ele>
        <time>2020-06-25T06:07:37Z</time>
      </trkpt>
      <trkpt lat="49.93579" lon="4.43762">
        <ele>339.1</ele>
        <time>2020-06-25T06:07:38Z</time>
      </trkpt>
      <trkpt lat="49.93575" lon="4.43765">
        <ele>339.2</ele>
        <time>2020-06-25T06:07:39Z</time>
      </trkpt>
      <trkpt lat="49.93573" lon="4.43767">
        <ele>339.3</ele>
        <time>2020-06-25T06:07:40Z</time>
      </trkpt>
      <trkpt lat="49.9357" lon="4.4377">
        <ele>339.4</ele>
        <time>2020-06-25T06:07:41Z</time>
      </trkpt>
      <trkpt lat="49.93567" lon="4.43773">
        <ele>339.5</ele>
        <time>2020-06-25T06:07:42Z</time>
      </trkpt>
      <trkpt lat="49.93564" lon="4.43775">
        <ele>339.6</ele>
        <time>2020-06-25T06:07:43Z</time>
      </trkpt>
      <trkpt lat="49.9356" lon="4.43777">
        <ele>339.8</ele>
        <time>2020-06-25T06:07:44Z</time>
      </trkpt>
      <trkpt lat="49.93556" lon="4.4378">
        <ele>339.9</ele>
        <time>2020-06-25T06:07:45Z</time>
      </trkpt>
      <trkpt lat="49.93552" lon="4.43783">
        <ele>340</ele>
        <time>2020-06-25T06:07:46Z</time>
      </trkpt>
      <trkpt lat="49.93549" lon="4.43786">
        <ele>340.1</ele>
        <time>2020-06-25T06:07:47Z</time>
      </trkpt>
      <trkpt lat="49.93545" lon="4.43789">
        <ele>340.3</ele>
        <time>2020-06-25T06:07:48Z</time>
      </trkpt>
      <trkpt lat="49.93541" lon="4.43792">
        <ele>340.4</ele>
        <time>2020-06-25T06:07:49Z</time>
      </trkpt>
      <trkpt lat="49.93539" lon="4.43794">
        <ele>340.5</ele>
        <time>2020-06-25T06:07:50Z</time>
      </trkpt>
      <trkpt lat="49.93536" lon="4.43797">
        <ele>340.6</ele>
        <time>2020-06-25T06:07:51Z</time>
      </trkpt>
      <trkpt lat="49.93533" lon="4.438">
        <ele>340.8</ele>
        <time>2020-06-25T06:07:52Z</time>
      </trkpt>
      <trkpt lat="49.93529" lon="4.43802">
        <ele>340.9</ele>
        <time>2020-06-25T06:07:53Z</time>
      </trkpt>
      <trkpt lat="49.93526" lon="4.43805">
        <ele>341</ele>
        <time>2020-06-25T06:07:54Z</time>
      </trkpt>
      <trkpt lat="49.93522" lon="4.43808">
        <ele>341.1</ele>
        <time>2020-06-25T06:07:55Z</time>
      </trkpt>
      <trkpt lat="49.93519" lon="4.43811">
        <ele>341.2</ele>
        <time>2020-06-25T06:07:56Z</time>
      </trkpt>
      <trkpt lat="49.93515" lon="4.43813">
        <ele>341.3</ele>
        <time>2020-06-25T06:07:57Z</time>
      </trkpt>
      <trkpt lat="49.93511" lon="4.43817">
        <ele>341.4</ele>
        <time>2020-06-25T06:07:58Z</time>
      </trkpt>
      <trkpt lat="49.93507" lon="4.4382">
        <ele>341.6</ele>
        <time>2020-06-25T06:07:59Z</time>
      </trkpt>
      <trkpt lat="49.93502" lon="4.43822">
        <ele>341.7</ele>
        <time>2020-06-25T06:08:00Z</time>
      </trkpt>
      <trkpt lat="49.93499" lon="4.43825">
        <ele>341.8</ele>
        <time>2020-06-25T06:08:01Z</time>
      </trkpt>
      <trkpt lat="49.93496" lon="4.43828">
        <ele>341.9</ele>
        <time>2020-06-25T06:08:02Z</time>
      </trkpt>
      <trkpt lat="49.93492" lon="4.4383">
        <ele>342</ele>
        <time>2020-06-25T06:08:03Z</time>
      </trkpt>
      <trkpt lat="49.93489" lon="4.43833">
        <ele>342.1</ele>
        <time>2020-06-25T06:08:04Z</time>
      </trkpt>
      <trkpt lat="49.93486" lon="4.43836">
        <ele>342.1</ele>
        <time>2020-06-25T06:08:05Z</time>
      </trkpt>
      <trkpt lat="49.93483" lon="4.43839">
        <ele>342.1</ele>
        <time>2020-06-25T06:08:06Z</time>
      </trkpt>
      <trkpt lat="49.9348" lon="4.43842">
        <ele>342.1</ele>
        <time>2020-06-25T06:08:07Z</time>
      </trkpt>
      <trkpt lat="49.93477" lon="4.43845">
        <ele>342</ele>
        <time>2020-06-25T06:08:08Z</time>
      </trkpt>
      <trkpt lat="49.93474" lon="4.43848">
        <ele>342</ele>
        <time>2020-06-25T06:08:09Z</time>
      </trkpt>
      <trkpt lat="49.9347" lon="4.43851">
        <ele>341.9</ele>
        <time>2020-06-25T06:08:10Z</time>
      </trkpt>
      <trkpt lat="49.93467" lon="4.43853">
        <ele>341.8</ele>
        <time>2020-06-25T06:08:11Z</time>
      </trkpt>
      <trkpt lat="49.93463" lon="4.43857">
        <ele>341.7</ele>
        <time>2020-06-25T06:08:12Z</time>
      </trkpt>
      <trkpt lat="49.9346" lon="4.43859">
        <ele>341.6</ele>
        <time>2020-06-25T06:08:13Z</time>
      </trkpt>
      <trkpt lat="49.93457" lon="4.43861">
        <ele>341.6</ele>
        <time>2020-06-25T06:08:14Z</time>
      </trkpt>
      <trkpt lat="49.93454" lon="4.43865">
        <ele>341.5</ele>
        <time>2020-06-25T06:08:15Z</time>
      </trkpt>
      <trkpt lat="49.93451" lon="4.43868">
        <ele>341.4</ele>
        <time>2020-06-25T06:08:16Z</time>
      </trkpt>
      <trkpt lat="49.93447" lon="4.43871">
        <ele>341.4</ele>
        <time>2020-06-25T06:08:17Z</time>
      </trkpt>
      <trkpt lat="49.93444" lon="4.43875">
        <ele>341.3</ele>
        <time>2020-06-25T06:08:18Z</time>
      </trkpt>
      <trkpt lat="49.93441" lon="4.43878">
        <ele>341.1</ele>
        <time>2020-06-25T06:08:19Z</time>
      </trkpt>
      <trkpt lat="49.93438" lon="4.43882">
        <ele>341</ele>
        <time>2020-06-25T06:08:20Z</time>
      </trkpt>
      <trkpt lat="49.93434" lon="4.43887">
        <ele>340.8</ele>
        <time>2020-06-25T06:08:21Z</time>
      </trkpt>
      <trkpt lat="49.93431" lon="4.43892">
        <ele>340.6</ele>
        <time>2020-06-25T06:08:22Z</time>
      </trkpt>
      <trkpt lat="49.93427" lon="4.43897">
        <ele>340.4</ele>
        <time>2020-06-25T06:08:23Z</time>
      </trkpt>
      <trkpt lat="49.93423" lon="4.43902">
        <ele>340.2</ele>
        <time>2020-06-25T06:08:24Z</time>
      </trkpt>
      <trkpt lat="49.93419" lon="4.43909">
        <ele>339.9</ele>
        <time>2020-06-25T06:08:25Z</time>
      </trkpt>
      <trkpt lat="49.93416" lon="4.43914">
        <ele>339.6</ele>
        <time>2020-06-25T06:08:26Z</time>
      </trkpt>
      <trkpt lat="49.93412" lon="4.43921">
        <ele>339.2</ele>
        <time>2020-06-25T06:08:27Z</time>
      </trkpt>
      <trkpt lat="49.93408" lon="4.4393">
        <ele>338.8</ele>
        <time>2020-06-25T06:08:28Z</time>
      </trkpt>
      <trkpt lat="49.93405" lon="4.43938">
        <ele>338.4</ele>
        <time>2020-06-25T06:08:29Z</time>
      </trkpt>
      <trkpt lat="49.93401" lon="4.43945">
        <ele>338.1</ele>
        <time>2020-06-25T06:08:30Z</time>
      </trkpt>
      <trkpt lat="49.93397" lon="4.43952">
        <ele>337.9</ele>
        <time>2020-06-25T06:08:31Z</time>
      </trkpt>
      <trkpt lat="49.93393" lon="4.4396">
        <ele>337.6</ele>
        <time>2020-06-25T06:08:32Z</time>
      </trkpt>
      <trkpt lat="49.93388" lon="4.43967">
        <ele>337.3</ele>
        <time>2020-06-25T06:08:33Z</time>
      </trkpt>
      <trkpt lat="49.93383" lon="4.43975">
        <ele>337</ele>
        <time>2020-06-25T06:08:34Z</time>
      </trkpt>
      <trkpt lat="49.93378" lon="4.43984">
        <ele>336.7</ele>
        <time>2020-06-25T06:08:35Z</time>
      </trkpt>
      <trkpt lat="49.93373" lon="4.43992">
        <ele>336.5</ele>
        <time>2020-06-25T06:08:36Z</time>
      </trkpt>
      <trkpt lat="49.93368" lon="4.43999">
        <ele>336.3</ele>
        <time>2020-06-25T06:08:37Z</time>
      </trkpt>
      <trkpt lat="49.93364" lon="4.44006">
        <ele>336.1</ele>
        <time>2020-06-25T06:08:38Z</time>
      </trkpt>
      <trkpt lat="49.93359" lon="4.44015">
        <ele>335.8</ele>
        <time>2020-06-25T06:08:39Z</time>
      </trkpt>
      <trkpt lat="49.93354" lon="4.44024">
        <ele>335.7</ele>
        <time>2020-06-25T06:08:40Z</time>
      </trkpt>
      <trkpt lat="49.93349" lon="4.44033">
        <ele>335.5</ele>
        <time>2020-06-25T06:08:41Z</time>
      </trkpt>
      <trkpt lat="49.93344" lon="4.44041">
        <ele>335.4</ele>
        <time>2020-06-25T06:08:42Z</time>
      </trkpt>
      <trkpt lat="49.9334" lon="4.44049">
        <ele>335.3</ele>
        <time>2020-06-25T06:08:43Z</time>
      </trkpt>
      <trkpt lat="49.93335" lon="4.44057">
        <ele>335.1</ele>
        <time>2020-06-25T06:08:44Z</time>
      </trkpt>
      <trkpt lat="49.9333" lon="4.44064">
        <ele>335</ele>
        <time>2020-06-25T06:08:45Z</time>
      </trkpt>
      <trkpt lat="49.93327" lon="4.44071">
        <ele>335</ele>
        <time>2020-06-25T06:08:46Z</time>
      </trkpt>
      <trkpt lat="49.93323" lon="4.44077">
        <ele>334.9</ele>
        <time>2020-06-25T06:08:47Z</time>
      </trkpt>
      <trkpt lat="49.93319" lon="4.44084">
        <ele>334.8</ele>
        <time>2020-06-25T06:08:48Z</time>
      </trkpt>
      <trkpt lat="49.93314" lon="4.4409">
        <ele>334.8</ele>
        <time>2020-06-25T06:08:49Z</time>
      </trkpt>
      <trkpt lat="49.9331" lon="4.44096">
        <ele>334.8</ele>
        <time>2020-06-25T06:08:50Z</time>
      </trkpt>
      <trkpt lat="49.93306" lon="4.44102">
        <ele>334.8</ele>
        <time>2020-06-25T06:08:51Z</time>
      </trkpt>
      <trkpt lat="49.93302" lon="4.44108">
        <ele>334.8</ele>
        <time>2020-06-25T06:08:52Z</time>
      </trkpt>
      <trkpt lat="49.93299" lon="4.44113">
        <ele>334.8</ele>
        <time>2020-06-25T06:08:53Z</time>
      </trkpt>
      <trkpt lat="49.93294" lon="4.44119">
        <ele>334.8</ele>
        <time>2020-06-25T06:08:54Z</time>
      </trkpt>
      <trkpt lat="49.9329" lon="4.44125">
        <ele>334.9</ele>
        <time>2020-06-25T06:08:55Z</time>
      </trkpt>
      <trkpt lat="49.93285" lon="4.44132">
        <ele>335</ele>
        <time>2020-06-25T06:08:56Z</time>
      </trkpt>
      <trkpt lat="49.93281" lon="4.44138">
        <ele>335.2</ele>
        <time>2020-06-25T06:08:57Z</time>
      </trkpt>
      <trkpt lat="49.93277" lon="4.44144">
        <ele>335.4</ele>
        <time>2020-06-25T06:08:58Z</time>
      </trkpt>
      <trkpt lat="49.93273" lon="4.44149">
        <ele>335.6</ele>
        <time>2020-06-25T06:08:59Z</time>
      </trkpt>
      <trkpt lat="49.93269" lon="4.44155">
        <ele>335.7</ele>
        <time>2020-06-25T06:09:00Z</time>
      </trkpt>
      <trkpt lat="49.93265" lon="4.4416">
        <ele>335.9</ele>
        <time>2020-06-25T06:09:01Z</time>
      </trkpt>
      <trkpt lat="49.93262" lon="4.44164">
        <ele>336.1</ele>
        <time>2020-06-25T06:09:02Z</time>
      </trkpt>
      <trkpt lat="49.93259" lon="4.44168">
        <ele>336.2</ele>
        <time>2020-06-25T06:09:03Z</time>
      </trkpt>
      <trkpt lat="49.93256" lon="4.44172">
        <ele>336.4</ele>
        <time>2020-06-25T06:09:04Z</time>
      </trkpt>
      <trkpt lat="49.93252" lon="4.44176">
        <ele>336.6</ele>
        <time>2020-06-25T06:09:05Z</time>
      </trkpt>
      <trkpt lat="49.93247" lon="4.4418">
        <ele>337</ele>
        <time>2020-06-25T06:09:06Z</time>
      </trkpt>
      <trkpt lat="49.93244" lon="4.44184">
        <ele>337.2</ele>
        <time>2020-06-25T06:09:07Z</time>
      </trkpt>
      <trkpt lat="49.93242" lon="4.44187">
        <ele>337.3</ele>
        <time>2020-06-25T06:09:08Z</time>
      </trkpt>
      <trkpt lat="49.93239" lon="4.44191">
        <ele>337.5</ele>
        <time>2020-06-25T06:09:09Z</time>
      </trkpt>
      <trkpt lat="49.93238" lon="4.44192">
        <ele>337.5</ele>
        <time>2020-06-25T06:09:10Z</time>
      </trkpt>
      <trkpt lat="49.93234" lon="4.44196">
        <ele>337.8</ele>
        <time>2020-06-25T06:09:11Z</time>
      </trkpt>
      <trkpt lat="49.9323" lon="4.442">
        <ele>338.1</ele>
        <time>2020-06-25T06:09:12Z</time>
      </trkpt>
      <trkpt lat="49.93226" lon="4.44205">
        <ele>338.5</ele>
        <time>2020-06-25T06:09:13Z</time>
      </trkpt>
      <trkpt lat="49.93222" lon="4.44209">
        <ele>338.8</ele>
        <time>2020-06-25T06:09:14Z</time>
      </trkpt>
      <trkpt lat="49.93219" lon="4.44213">
        <ele>339.1</ele>
        <time>2020-06-25T06:09:15Z</time>
      </trkpt>
      <trkpt lat="49.93216" lon="4.44217">
        <ele>339.4</ele>
        <time>2020-06-25T06:09:16Z</time>
      </trkpt>
      <trkpt lat="49.93214" lon="4.4422">
        <ele>339.7</ele>
        <time>2020-06-25T06:09:17Z</time>
      </trkpt>
      <trkpt lat="49.93211" lon="4.44223">
        <ele>339.9</ele>
        <time>2020-06-25T06:09:18Z</time>
      </trkpt>
      <trkpt lat="49.93209" lon="4.44227">
        <ele>340.1</ele>
        <time>2020-06-25T06:09:19Z</time>
      </trkpt>
      <trkpt lat="49.93204" lon="4.4423">
        <ele>340.5</ele>
        <time>2020-06-25T06:09:20Z</time>
      </trkpt>
      <trkpt lat="49.93201" lon="4.44235">
        <ele>340.8</ele>
        <time>2020-06-25T06:09:21Z</time>
      </trkpt>
      <trkpt lat="49.93198" lon="4.44238">
        <ele>341.1</ele>
        <time>2020-06-25T06:09:22Z</time>
      </trkpt>
      <trkpt lat="49.93195" lon="4.44242">
        <ele>341.4</ele>
        <time>2020-06-25T06:09:23Z</time>
      </trkpt>
      <trkpt lat="49.93191" lon="4.44247">
        <ele>341.7</ele>
        <time>2020-06-25T06:09:24Z</time>
      </trkpt>
      <trkpt lat="49.93189" lon="4.4425">
        <ele>342</ele>
        <time>2020-06-25T06:09:25Z</time>
      </trkpt>
      <trkpt lat="49.93185" lon="4.44254">
        <ele>342.3</ele>
        <time>2020-06-25T06:09:26Z</time>
      </trkpt>
      <trkpt lat="49.93181" lon="4.44259">
        <ele>342.6</ele>
        <time>2020-06-25T06:09:27Z</time>
      </trkpt>
      <trkpt lat="49.93178" lon="4.44262">
        <ele>342.8</ele>
        <time>2020-06-25T06:09:28Z</time>
      </trkpt>
      <trkpt lat="49.93175" lon="4.44266">
        <ele>343</ele>
        <time>2020-06-25T06:09:29Z</time>
      </trkpt>
      <trkpt lat="49.93172" lon="4.4427">
        <ele>343.2</ele>
        <time>2020-06-25T06:09:30Z</time>
      </trkpt>
      <trkpt lat="49.93169" lon="4.44273">
        <ele>343.4</ele>
        <time>2020-06-25T06:09:31Z</time>
      </trkpt>
      <trkpt lat="49.93166" lon="4.44277">
        <ele>343.5</ele>
        <time>2020-06-25T06:09:32Z</time>
      </trkpt>
      <trkpt lat="49.93163" lon="4.44281">
        <ele>343.7</ele>
        <time>2020-06-25T06:09:33Z</time>
      </trkpt>
      <trkpt lat="49.93161" lon="4.44284">
        <ele>343.8</ele>
        <time>2020-06-25T06:09:34Z</time>
      </trkpt>
      <trkpt lat="49.93158" lon="4.44286">
        <ele>343.9</ele>
        <time>2020-06-25T06:09:35Z</time>
      </trkpt>
      <trkpt lat="49.93155" lon="4.44289">
        <ele>344.1</ele>
        <time>2020-06-25T06:09:36Z</time>
      </trkpt>
      <trkpt lat="49.93152" lon="4.44292">
        <ele>344.2</ele>
        <time>2020-06-25T06:09:37Z</time>
      </trkpt>
      <trkpt lat="49.93148" lon="4.44296">
        <ele>344.3</ele>
        <time>2020-06-25T06:09:38Z</time>
      </trkpt>
      <trkpt lat="49.93144" lon="4.44299">
        <ele>344.5</ele>
        <time>2020-06-25T06:09:39Z</time>
      </trkpt>
      <trkpt lat="49.9314" lon="4.44302">
        <ele>344.6</ele>
        <time>2020-06-25T06:09:40Z</time>
      </trkpt>
      <trkpt lat="49.93137" lon="4.44304">
        <ele>344.7</ele>
        <time>2020-06-25T06:09:41Z</time>
      </trkpt>
      <trkpt lat="49.93135" lon="4.44305">
        <ele>344.7</ele>
        <time>2020-06-25T06:09:42Z</time>
      </trkpt>
      <trkpt lat="49.93132" lon="4.44309">
        <ele>344.8</ele>
        <time>2020-06-25T06:09:43Z</time>
      </trkpt>
      <trkpt lat="49.93129" lon="4.44312">
        <ele>344.9</ele>
        <time>2020-06-25T06:09:44Z</time>
      </trkpt>
      <trkpt lat="49.93127" lon="4.44315">
        <ele>344.9</ele>
        <time>2020-06-25T06:09:45Z</time>
      </trkpt>
      <trkpt lat="49.93124" lon="4.44317">
        <ele>345</ele>
        <time>2020-06-25T06:09:46Z</time>
      </trkpt>
      <trkpt lat="49.93121" lon="4.44321">
        <ele>345.1</ele>
        <time>2020-06-25T06:09:47Z</time>
      </trkpt>
      <trkpt lat="49.93118" lon="4.44324">
        <ele>345.1</ele>
        <time>2020-06-25T06:09:48Z</time>
      </trkpt>
      <trkpt lat="49.93116" lon="4.44326">
        <ele>345.2</ele>
        <time>2020-06-25T06:09:49Z</time>
      </trkpt>
      <trkpt lat="49.93113" lon="4.44327">
        <ele>345.2</ele>
        <time>2020-06-25T06:09:50Z</time>
      </trkpt>
      <trkpt lat="49.9311" lon="4.44331">
        <ele>345.3</ele>
        <time>2020-06-25T06:09:51Z</time>
      </trkpt>
      <trkpt lat="49.93107" lon="4.44333">
        <ele>345.3</ele>
        <time>2020-06-25T06:09:52Z</time>
      </trkpt>
      <trkpt lat="49.93104" lon="4.44336">
        <ele>345.3</ele>
        <time>2020-06-25T06:09:53Z</time>
      </trkpt>
      <trkpt lat="49.93102" lon="4.44338">
        <ele>345.3</ele>
        <time>2020-06-25T06:09:54Z</time>
      </trkpt>
      <trkpt lat="49.931" lon="4.44341">
        <ele>345.4</ele>
        <time>2020-06-25T06:09:55Z</time>
      </trkpt>
      <trkpt lat="49.93096" lon="4.44342">
        <ele>345.4</ele>
        <time>2020-06-25T06:09:56Z</time>
      </trkpt>
      <trkpt lat="49.93094" lon="4.44345">
        <ele>345.4</ele>
        <time>2020-06-25T06:09:57Z</time>
      </trkpt>
      <trkpt lat="49.93091" lon="4.44348">
        <ele>345.4</ele>
        <time>2020-06-25T06:09:58Z</time>
      </trkpt>
      <trkpt lat="49.93088" lon="4.44351">
        <ele>345.5</ele>
        <time>2020-06-25T06:09:59Z</time>
      </trkpt>
      <trkpt lat="49.93085" lon="4.44353">
        <ele>345.5</ele>
        <time>2020-06-25T06:10:00Z</time>
      </trkpt>
      <trkpt lat="49.93081" lon="4.44355">
        <ele>345.5</ele>
        <time>2020-06-25T06:10:01Z</time>
      </trkpt>
      <trkpt lat="49.93078" lon="4.44357">
        <ele>345.5</ele>
        <time>2020-06-25T06:10:02Z</time>
      </trkpt>
      <trkpt lat="49.93075" lon="4.4436">
        <ele>345.6</ele>
        <time>2020-06-25T06:10:03Z</time>
      </trkpt>
      <trkpt lat="49.93072" lon="4.44363">
        <ele>345.6</ele>
        <time>2020-06-25T06:10:04Z</time>
      </trkpt>
      <trkpt lat="49.93069" lon="4.44367">
        <ele>345.6</ele>
        <time>2020-06-25T06:10:05Z</time>
      </trkpt>
      <trkpt lat="49.93064" lon="4.4437">
        <ele>345.6</ele>
        <time>2020-06-25T06:10:06Z</time>
      </trkpt>
      <trkpt lat="49.9306" lon="4.44374">
        <ele>345.6</ele>
        <time>2020-06-25T06:10:07Z</time>
      </trkpt>
      <trkpt lat="49.93056" lon="4.44378">
        <ele>345.6</ele>
        <time>2020-06-25T06:10:08Z</time>
      </trkpt>
      <trkpt lat="49.93052" lon="4.44381">
        <ele>345.6</ele>
        <time>2020-06-25T06:10:09Z</time>
      </trkpt>
      <trkpt lat="49.93049" lon="4.44384">
        <ele>345.6</ele>
        <time>2020-06-25T06:10:10Z</time>
      </trkpt>
      <trkpt lat="49.93045" lon="4.44388">
        <ele>345.5</ele>
        <time>2020-06-25T06:10:11Z</time>
      </trkpt>
      <trkpt lat="49.93042" lon="4.4439">
        <ele>345.6</ele>
        <time>2020-06-25T06:10:12Z</time>
      </trkpt>
      <trkpt lat="49.93039" lon="4.44394">
        <ele>345.6</ele>
        <time>2020-06-25T06:10:13Z</time>
      </trkpt>
      <trkpt lat="49.93037" lon="4.44398">
        <ele>345.6</ele>
        <time>2020-06-25T06:10:14Z</time>
      </trkpt>
      <trkpt lat="49.93033" lon="4.44401">
        <ele>345.7</ele>
        <time>2020-06-25T06:10:15Z</time>
      </trkpt>
      <trkpt lat="49.93032" lon="4.44402">
        <ele>345.7</ele>
        <time>2020-06-25T06:10:16Z</time>
      </trkpt>
      <trkpt lat="49.93029" lon="4.44404">
        <ele>345.7</ele>
        <time>2020-06-25T06:10:17Z</time>
      </trkpt>
      <trkpt lat="49.93028" lon="4.44405">
        <ele>345.7</ele>
        <time>2020-06-25T06:10:18Z</time>
      </trkpt>
      <trkpt lat="49.93026" lon="4.44406">
        <ele>345.8</ele>
        <time>2020-06-25T06:10:19Z</time>
      </trkpt>
      <trkpt lat="49.93026" lon="4.44407">
        <ele>345.8</ele>
        <time>2020-06-25T06:10:20Z</time>
      </trkpt>
      <trkpt lat="49.93025" lon="4.44408">
        <ele>345.8</ele>
        <time>2020-06-25T06:10:21Z</time>
      </trkpt>
      <trkpt lat="49.93023" lon="4.44409">
        <ele>345.9</ele>
        <time>2020-06-25T06:10:22Z</time>
      </trkpt>
      <trkpt lat="49.93022" lon="4.4441">
        <ele>345.9</ele>
        <time>2020-06-25T06:10:23Z</time>
      </trkpt>
      <trkpt lat="49.93022" lon="4.44411">
        <ele>345.9</ele>
        <time>2020-06-25T06:10:24Z</time>
      </trkpt>
      <trkpt lat="49.93021" lon="4.44412">
        <ele>346</ele>
        <time>2020-06-25T06:10:25Z</time>
      </trkpt>
      <trkpt lat="49.93019" lon="4.44414">
        <ele>346</ele>
        <time>2020-06-25T06:10:26Z</time>
      </trkpt>
      <trkpt lat="49.93017" lon="4.44418">
        <ele>346.1</ele>
        <time>2020-06-25T06:10:27Z</time>
      </trkpt>
      <trkpt lat="49.93016" lon="4.4442">
        <ele>346</ele>
        <time>2020-06-25T06:10:28Z</time>
      </trkpt>
      <trkpt lat="49.93014" lon="4.44422">
        <ele>345.9</ele>
        <time>2020-06-25T06:10:29Z</time>
      </trkpt>
      <trkpt lat="49.93012" lon="4.44425">
        <ele>345.8</ele>
        <time>2020-06-25T06:10:30Z</time>
      </trkpt>
      <trkpt lat="49.9301" lon="4.44428">
        <ele>345.7</ele>
        <time>2020-06-25T06:10:31Z</time>
      </trkpt>
      <trkpt lat="49.93008" lon="4.44432">
        <ele>345.6</ele>
        <time>2020-06-25T06:10:32Z</time>
      </trkpt>
      <trkpt lat="49.93007" lon="4.44437">
        <ele>345.5</ele>
        <time>2020-06-25T06:10:33Z</time>
      </trkpt>
      <trkpt lat="49.93005" lon="4.44443">
        <ele>345.3</ele>
        <time>2020-06-25T06:10:34Z</time>
      </trkpt>
      <trkpt lat="49.93004" lon="4.4445">
        <ele>345.2</ele>
        <time>2020-06-25T06:10:35Z</time>
      </trkpt>
      <trkpt lat="49.93003" lon="4.44457">
        <ele>345.1</ele>
        <time>2020-06-25T06:10:36Z</time>
      </trkpt>
      <trkpt lat="49.93001" lon="4.44464">
        <ele>345</ele>
        <time>2020-06-25T06:10:37Z</time>
      </trkpt>
      <trkpt lat="49.93" lon="4.44472">
        <ele>344.9</ele>
        <time>2020-06-25T06:10:38Z</time>
      </trkpt>
      <trkpt lat="49.92998" lon="4.4448">
        <ele>344.8</ele>
        <time>2020-06-25T06:10:39Z</time>
      </trkpt>
      <trkpt lat="49.92996" lon="4.44487">
        <ele>344.8</ele>
        <time>2020-06-25T06:10:40Z</time>
      </trkpt>
      <trkpt lat="49.92995" lon="4.44495">
        <ele>344.7</ele>
        <time>2020-06-25T06:10:41Z</time>
      </trkpt>
      <trkpt lat="49.92993" lon="4.44502">
        <ele>344.7</ele>
        <time>2020-06-25T06:10:42Z</time>
      </trkpt>
      <trkpt lat="49.92991" lon="4.4451">
        <ele>344.6</ele>
        <time>2020-06-25T06:10:43Z</time>
      </trkpt>
      <trkpt lat="49.92989" lon="4.44518">
        <ele>344.6</ele>
        <time>2020-06-25T06:10:44Z</time>
      </trkpt>
      <trkpt lat="49.92986" lon="4.44526">
        <ele>344.5</ele>
        <time>2020-06-25T06:10:45Z</time>
      </trkpt>
      <trkpt lat="49.92984" lon="4.44535">
        <ele>344.5</ele>
        <time>2020-06-25T06:10:46Z</time>
      </trkpt>
      <trkpt lat="49.92982" lon="4.44543">
        <ele>344.5</ele>
        <time>2020-06-25T06:10:47Z</time>
      </trkpt>
      <trkpt lat="49.92979" lon="4.44551">
        <ele>344.4</ele>
        <time>2020-06-25T06:10:48Z</time>
      </trkpt>
      <trkpt lat="49.92977" lon="4.4456">
        <ele>344.3</ele>
        <time>2020-06-25T06:10:49Z</time>
      </trkpt>
      <trkpt lat="49.92974" lon="4.44569">
        <ele>344.3</ele>
        <time>2020-06-25T06:10:50Z</time>
      </trkpt>
      <trkpt lat="49.92971" lon="4.44577">
        <ele>344.3</ele>
        <time>2020-06-25T06:10:51Z</time>
      </trkpt>
      <trkpt lat="49.92968" lon="4.44586">
        <ele>344.4</ele>
        <time>2020-06-25T06:10:52Z</time>
      </trkpt>
      <trkpt lat="49.92965" lon="4.44594">
        <ele>344.4</ele>
        <time>2020-06-25T06:10:53Z</time>
      </trkpt>
      <trkpt lat="49.92963" lon="4.44602">
        <ele>344.5</ele>
        <time>2020-06-25T06:10:54Z</time>
      </trkpt>
      <trkpt lat="49.92961" lon="4.44609">
        <ele>344.5</ele>
        <time>2020-06-25T06:10:55Z</time>
      </trkpt>
      <trkpt lat="49.92958" lon="4.44615">
        <ele>344.5</ele>
        <time>2020-06-25T06:10:56Z</time>
      </trkpt>
      <trkpt lat="49.92956" lon="4.44621">
        <ele>344.6</ele>
        <time>2020-06-25T06:10:57Z</time>
      </trkpt>
      <trkpt lat="49.92953" lon="4.44628">
        <ele>344.6</ele>
        <time>2020-06-25T06:10:58Z</time>
      </trkpt>
      <trkpt lat="49.9295" lon="4.44634">
        <ele>344.7</ele>
        <time>2020-06-25T06:10:59Z</time>
      </trkpt>
      <trkpt lat="49.92948" lon="4.44641">
        <ele>344.8</ele>
        <time>2020-06-25T06:11:00Z</time>
      </trkpt>
      <trkpt lat="49.92946" lon="4.44649">
        <ele>344.9</ele>
        <time>2020-06-25T06:11:01Z</time>
      </trkpt>
      <trkpt lat="49.92943" lon="4.44656">
        <ele>345</ele>
        <time>2020-06-25T06:11:02Z</time>
      </trkpt>
      <trkpt lat="49.92939" lon="4.44662">
        <ele>345.1</ele>
        <time>2020-06-25T06:11:03Z</time>
      </trkpt>
      <trkpt lat="49.92937" lon="4.44669">
        <ele>345.2</ele>
        <time>2020-06-25T06:11:04Z</time>
      </trkpt>
      <trkpt lat="49.92934" lon="4.44676">
        <ele>345.3</ele>
        <time>2020-06-25T06:11:05Z</time>
      </trkpt>
      <trkpt lat="49.9293" lon="4.44683">
        <ele>345.4</ele>
        <time>2020-06-25T06:11:06Z</time>
      </trkpt>
      <trkpt lat="49.92928" lon="4.44689">
        <ele>345.5</ele>
        <time>2020-06-25T06:11:07Z</time>
      </trkpt>
      <trkpt lat="49.92924" lon="4.44694">
        <ele>345.6</ele>
        <time>2020-06-25T06:11:08Z</time>
      </trkpt>
      <trkpt lat="49.92921" lon="4.447">
        <ele>345.6</ele>
        <time>2020-06-25T06:11:09Z</time>
      </trkpt>
      <trkpt lat="49.92918" lon="4.44707">
        <ele>345.7</ele>
        <time>2020-06-25T06:11:10Z</time>
      </trkpt>
      <trkpt lat="49.92915" lon="4.44713">
        <ele>345.7</ele>
        <time>2020-06-25T06:11:11Z</time>
      </trkpt>
      <trkpt lat="49.92913" lon="4.44719">
        <ele>345.8</ele>
        <time>2020-06-25T06:11:12Z</time>
      </trkpt>
      <trkpt lat="49.92909" lon="4.44726">
        <ele>345.9</ele>
        <time>2020-06-25T06:11:13Z</time>
      </trkpt>
      <trkpt lat="49.92906" lon="4.44732">
        <ele>345.9</ele>
        <time>2020-06-25T06:11:14Z</time>
      </trkpt>
      <trkpt lat="49.92904" lon="4.44737">
        <ele>346</ele>
        <time>2020-06-25T06:11:15Z</time>
      </trkpt>
      <trkpt lat="49.92901" lon="4.44743">
        <ele>346</ele>
        <time>2020-06-25T06:11:16Z</time>
      </trkpt>
      <trkpt lat="49.92899" lon="4.44749">
        <ele>346.1</ele>
        <time>2020-06-25T06:11:17Z</time>
      </trkpt>
      <trkpt lat="49.92896" lon="4.44757">
        <ele>346.2</ele>
        <time>2020-06-25T06:11:18Z</time>
      </trkpt>
      <trkpt lat="49.92892" lon="4.44765">
        <ele>346.3</ele>
        <time>2020-06-25T06:11:19Z</time>
      </trkpt>
      <trkpt lat="49.92889" lon="4.44773">
        <ele>346.4</ele>
        <time>2020-06-25T06:11:20Z</time>
      </trkpt>
      <trkpt lat="49.92886" lon="4.4478">
        <ele>346.5</ele>
        <time>2020-06-25T06:11:21Z</time>
      </trkpt>
      <trkpt lat="49.92883" lon="4.44787">
        <ele>346.6</ele>
        <time>2020-06-25T06:11:22Z</time>
      </trkpt>
      <trkpt lat="49.9288" lon="4.44794">
        <ele>346.7</ele>
        <time>2020-06-25T06:11:23Z</time>
      </trkpt>
      <trkpt lat="49.92877" lon="4.44801">
        <ele>346.8</ele>
        <time>2020-06-25T06:11:24Z</time>
      </trkpt>
      <trkpt lat="49.92875" lon="4.44807">
        <ele>346.8</ele>
        <time>2020-06-25T06:11:25Z</time>
      </trkpt>
      <trkpt lat="49.92871" lon="4.44813">
        <ele>346.9</ele>
        <time>2020-06-25T06:11:26Z</time>
      </trkpt>
      <trkpt lat="49.92868" lon="4.44818">
        <ele>347</ele>
        <time>2020-06-25T06:11:27Z</time>
      </trkpt>
      <trkpt lat="49.92865" lon="4.44824">
        <ele>347</ele>
        <time>2020-06-25T06:11:28Z</time>
      </trkpt>
      <trkpt lat="49.92862" lon="4.4483">
        <ele>347</ele>
        <time>2020-06-25T06:11:29Z</time>
      </trkpt>
      <trkpt lat="49.92859" lon="4.44837">
        <ele>347.1</ele>
        <time>2020-06-25T06:11:30Z</time>
      </trkpt>
      <trkpt lat="49.92856" lon="4.44842">
        <ele>347.1</ele>
        <time>2020-06-25T06:11:31Z</time>
      </trkpt>
      <trkpt lat="49.92853" lon="4.44847">
        <ele>347.1</ele>
        <time>2020-06-25T06:11:32Z</time>
      </trkpt>
      <trkpt lat="49.9285" lon="4.44854">
        <ele>347.1</ele>
        <time>2020-06-25T06:11:33Z</time>
      </trkpt>
      <trkpt lat="49.92847" lon="4.4486">
        <ele>347.1</ele>
        <time>2020-06-25T06:11:34Z</time>
      </trkpt>
      <trkpt lat="49.92844" lon="4.44867">
        <ele>347.2</ele>
        <time>2020-06-25T06:11:35Z</time>
      </trkpt>
      <trkpt lat="49.92841" lon="4.44872">
        <ele>347.2</ele>
        <time>2020-06-25T06:11:36Z</time>
      </trkpt>
      <trkpt lat="49.92839" lon="4.44877">
        <ele>347.2</ele>
        <time>2020-06-25T06:11:37Z</time>
      </trkpt>
      <trkpt lat="49.92837" lon="4.44881">
        <ele>347.1</ele>
        <time>2020-06-25T06:11:38Z</time>
      </trkpt>
      <trkpt lat="49.92835" lon="4.44886">
        <ele>347.1</ele>
        <time>2020-06-25T06:11:39Z</time>
      </trkpt>
      <trkpt lat="49.92832" lon="4.44891">
        <ele>347.1</ele>
        <time>2020-06-25T06:11:40Z</time>
      </trkpt>
      <trkpt lat="49.92829" lon="4.44896">
        <ele>347</ele>
        <time>2020-06-25T06:11:41Z</time>
      </trkpt>
      <trkpt lat="49.92826" lon="4.44901">
        <ele>347</ele>
        <time>2020-06-25T06:11:42Z</time>
      </trkpt>
      <trkpt lat="49.92823" lon="4.44907">
        <ele>346.9</ele>
        <time>2020-06-25T06:11:43Z</time>
      </trkpt>
      <trkpt lat="49.92821" lon="4.44913">
        <ele>346.8</ele>
        <time>2020-06-25T06:11:44Z</time>
      </trkpt>
      <trkpt lat="49.92818" lon="4.44919">
        <ele>346.8</ele>
        <time>2020-06-25T06:11:45Z</time>
      </trkpt>
      <trkpt lat="49.92815" lon="4.44924">
        <ele>346.7</ele>
        <time>2020-06-25T06:11:46Z</time>
      </trkpt>
      <trkpt lat="49.92811" lon="4.4493">
        <ele>346.5</ele>
        <time>2020-06-25T06:11:47Z</time>
      </trkpt>
      <trkpt lat="49.92808" lon="4.44937">
        <ele>346.4</ele>
        <time>2020-06-25T06:11:48Z</time>
      </trkpt>
      <trkpt lat="49.92804" lon="4.44945">
        <ele>346.2</ele>
        <time>2020-06-25T06:11:49Z</time>
      </trkpt>
      <trkpt lat="49.92801" lon="4.44952">
        <ele>346.1</ele>
        <time>2020-06-25T06:11:50Z</time>
      </trkpt>
      <trkpt lat="49.92798" lon="4.44959">
        <ele>345.9</ele>
        <time>2020-06-25T06:11:51Z</time>
      </trkpt>
      <trkpt lat="49.92795" lon="4.44966">
        <ele>345.7</ele>
        <time>2020-06-25T06:11:52Z</time>
      </trkpt>
      <trkpt lat="49.92792" lon="4.44973">
        <ele>345.4</ele>
        <time>2020-06-25T06:11:53Z</time>
      </trkpt>
      <trkpt lat="49.92789" lon="4.44981">
        <ele>345.2</ele>
        <time>2020-06-25T06:11:54Z</time>
      </trkpt>
      <trkpt lat="49.92786" lon="4.44987">
        <ele>345</ele>
        <time>2020-06-25T06:11:55Z</time>
      </trkpt>
      <trkpt lat="49.92782" lon="4.44994">
        <ele>344.8</ele>
        <time>2020-06-25T06:11:56Z</time>
      </trkpt>
      <trkpt lat="49.92779" lon="4.45001">
        <ele>344.5</ele>
        <time>2020-06-25T06:11:57Z</time>
      </trkpt>
      <trkpt lat="49.92776" lon="4.45007">
        <ele>344.3</ele>
        <time>2020-06-25T06:11:58Z</time>
      </trkpt>
      <trkpt lat="49.92772" lon="4.45014">
        <ele>344.1</ele>
        <time>2020-06-25T06:11:59Z</time>
      </trkpt>
      <trkpt lat="49.92768" lon="4.45021">
        <ele>343.9</ele>
        <time>2020-06-25T06:12:00Z</time>
      </trkpt>
      <trkpt lat="49.92764" lon="4.45029">
        <ele>343.7</ele>
        <time>2020-06-25T06:12:01Z</time>
      </trkpt>
      <trkpt lat="49.92761" lon="4.45037">
        <ele>343.5</ele>
        <time>2020-06-25T06:12:02Z</time>
      </trkpt>
      <trkpt lat="49.92757" lon="4.45046">
        <ele>343.3</ele>
        <time>2020-06-25T06:12:03Z</time>
      </trkpt>
      <trkpt lat="49.92752" lon="4.45053">
        <ele>343.2</ele>
        <time>2020-06-25T06:12:04Z</time>
      </trkpt>
      <trkpt lat="49.92749" lon="4.4506">
        <ele>343</ele>
        <time>2020-06-25T06:12:05Z</time>
      </trkpt>
      <trkpt lat="49.92746" lon="4.45068">
        <ele>342.8</ele>
        <time>2020-06-25T06:12:06Z</time>
      </trkpt>
      <trkpt lat="49.92743" lon="4.45076">
        <ele>342.6</ele>
        <time>2020-06-25T06:12:07Z</time>
      </trkpt>
      <trkpt lat="49.92739" lon="4.45085">
        <ele>342.4</ele>
        <time>2020-06-25T06:12:08Z</time>
      </trkpt>
      <trkpt lat="49.92735" lon="4.45094">
        <ele>342.2</ele>
        <time>2020-06-25T06:12:09Z</time>
      </trkpt>
      <trkpt lat="49.92731" lon="4.45103">
        <ele>342.1</ele>
        <time>2020-06-25T06:12:10Z</time>
      </trkpt>
      <trkpt lat="49.92727" lon="4.45112">
        <ele>342</ele>
        <time>2020-06-25T06:12:11Z</time>
      </trkpt>
      <trkpt lat="49.92723" lon="4.45121">
        <ele>341.9</ele>
        <time>2020-06-25T06:12:12Z</time>
      </trkpt>
      <trkpt lat="49.92718" lon="4.4513">
        <ele>341.9</ele>
        <time>2020-06-25T06:12:13Z</time>
      </trkpt>
      <trkpt lat="49.92714" lon="4.4514">
        <ele>341.9</ele>
        <time>2020-06-25T06:12:14Z</time>
      </trkpt>
      <trkpt lat="49.92709" lon="4.45149">
        <ele>341.9</ele>
        <time>2020-06-25T06:12:15Z</time>
      </trkpt>
      <trkpt lat="49.92705" lon="4.45158">
        <ele>342</ele>
        <time>2020-06-25T06:12:16Z</time>
      </trkpt>
      <trkpt lat="49.927" lon="4.45167">
        <ele>342.2</ele>
        <time>2020-06-25T06:12:17Z</time>
      </trkpt>
      <trkpt lat="49.92696" lon="4.45176">
        <ele>342.3</ele>
        <time>2020-06-25T06:12:18Z</time>
      </trkpt>
      <trkpt lat="49.92693" lon="4.45183">
        <ele>342.4</ele>
        <time>2020-06-25T06:12:19Z</time>
      </trkpt>
      <trkpt lat="49.92689" lon="4.45191">
        <ele>342.5</ele>
        <time>2020-06-25T06:12:20Z</time>
      </trkpt>
      <trkpt lat="49.92685" lon="4.45198">
        <ele>342.7</ele>
        <time>2020-06-25T06:12:21Z</time>
      </trkpt>
      <trkpt lat="49.92681" lon="4.45205">
        <ele>342.9</ele>
        <time>2020-06-25T06:12:22Z</time>
      </trkpt>
      <trkpt lat="49.92677" lon="4.45211">
        <ele>343.1</ele>
        <time>2020-06-25T06:12:23Z</time>
      </trkpt>
      <trkpt lat="49.92674" lon="4.45217">
        <ele>343.2</ele>
        <time>2020-06-25T06:12:24Z</time>
      </trkpt>
      <trkpt lat="49.92671" lon="4.45223">
        <ele>343.4</ele>
        <time>2020-06-25T06:12:25Z</time>
      </trkpt>
      <trkpt lat="49.92668" lon="4.4523">
        <ele>343.6</ele>
        <time>2020-06-25T06:12:26Z</time>
      </trkpt>
      <trkpt lat="49.92665" lon="4.45236">
        <ele>343.7</ele>
        <time>2020-06-25T06:12:27Z</time>
      </trkpt>
      <trkpt lat="49.92662" lon="4.45241">
        <ele>343.9</ele>
        <time>2020-06-25T06:12:28Z</time>
      </trkpt>
      <trkpt lat="49.92659" lon="4.45248">
        <ele>344</ele>
        <time>2020-06-25T06:12:29Z</time>
      </trkpt>
      <trkpt lat="49.92657" lon="4.45253">
        <ele>344.2</ele>
        <time>2020-06-25T06:12:30Z</time>
      </trkpt>
      <trkpt lat="49.92655" lon="4.45259">
        <ele>344.3</ele>
        <time>2020-06-25T06:12:31Z</time>
      </trkpt>
      <trkpt lat="49.92651" lon="4.45264">
        <ele>344.4</ele>
        <time>2020-06-25T06:12:32Z</time>
      </trkpt>
      <trkpt lat="49.92649" lon="4.45269">
        <ele>344.5</ele>
        <time>2020-06-25T06:12:33Z</time>
      </trkpt>
      <trkpt lat="49.92646" lon="4.45275">
        <ele>344.6</ele>
        <time>2020-06-25T06:12:34Z</time>
      </trkpt>
      <trkpt lat="49.92643" lon="4.45279">
        <ele>344.7</ele>
        <time>2020-06-25T06:12:35Z</time>
      </trkpt>
      <trkpt lat="49.9264" lon="4.45283">
        <ele>344.8</ele>
        <time>2020-06-25T06:12:36Z</time>
      </trkpt>
      <trkpt lat="49.92638" lon="4.45288">
        <ele>344.8</ele>
        <time>2020-06-25T06:12:37Z</time>
      </trkpt>
      <trkpt lat="49.92635" lon="4.45293">
        <ele>344.9</ele>
        <time>2020-06-25T06:12:38Z</time>
      </trkpt>
      <trkpt lat="49.92633" lon="4.45299">
        <ele>345</ele>
        <time>2020-06-25T06:12:39Z</time>
      </trkpt>
      <trkpt lat="49.92631" lon="4.45305">
        <ele>345</ele>
        <time>2020-06-25T06:12:40Z</time>
      </trkpt>
      <trkpt lat="49.92629" lon="4.45312">
        <ele>345.1</ele>
        <time>2020-06-25T06:12:41Z</time>
      </trkpt>
      <trkpt lat="49.92628" lon="4.45318">
        <ele>345.1</ele>
        <time>2020-06-25T06:12:42Z</time>
      </trkpt>
      <trkpt lat="49.92626" lon="4.45323">
        <ele>345.1</ele>
        <time>2020-06-25T06:12:43Z</time>
      </trkpt>
      <trkpt lat="49.92624" lon="4.45328">
        <ele>345.2</ele>
        <time>2020-06-25T06:12:44Z</time>
      </trkpt>
      <trkpt lat="49.92621" lon="4.45333">
        <ele>345.2</ele>
        <time>2020-06-25T06:12:45Z</time>
      </trkpt>
      <trkpt lat="49.92618" lon="4.4534">
        <ele>345.3</ele>
        <time>2020-06-25T06:12:46Z</time>
      </trkpt>
      <trkpt lat="49.92616" lon="4.45346">
        <ele>345.3</ele>
        <time>2020-06-25T06:12:47Z</time>
      </trkpt>
      <trkpt lat="49.92613" lon="4.45352">
        <ele>345.3</ele>
        <time>2020-06-25T06:12:48Z</time>
      </trkpt>
      <trkpt lat="49.9261" lon="4.45359">
        <ele>345.3</ele>
        <time>2020-06-25T06:12:49Z</time>
      </trkpt>
      <trkpt lat="49.92606" lon="4.45365">
        <ele>345.3</ele>
        <time>2020-06-25T06:12:50Z</time>
      </trkpt>
      <trkpt lat="49.92603" lon="4.45371">
        <ele>345.3</ele>
        <time>2020-06-25T06:12:51Z</time>
      </trkpt>
      <trkpt lat="49.92601" lon="4.45377">
        <ele>345.3</ele>
        <time>2020-06-25T06:12:52Z</time>
      </trkpt>
      <trkpt lat="49.92598" lon="4.45384">
        <ele>345.3</ele>
        <time>2020-06-25T06:12:53Z</time>
      </trkpt>
      <trkpt lat="49.92595" lon="4.4539">
        <ele>345.3</ele>
        <time>2020-06-25T06:12:54Z</time>
      </trkpt>
      <trkpt lat="49.92593" lon="4.45395">
        <ele>345.3</ele>
        <time>2020-06-25T06:12:55Z</time>
      </trkpt>
      <trkpt lat="49.9259" lon="4.45401">
        <ele>345.3</ele>
        <time>2020-06-25T06:12:56Z</time>
      </trkpt>
      <trkpt lat="49.92586" lon="4.45407">
        <ele>345.4</ele>
        <time>2020-06-25T06:12:57Z</time>
      </trkpt>
      <trkpt lat="49.92583" lon="4.45413">
        <ele>345.4</ele>
        <time>2020-06-25T06:12:58Z</time>
      </trkpt>
      <trkpt lat="49.9258" lon="4.4542">
        <ele>345.4</ele>
        <time>2020-06-25T06:12:59Z</time>
      </trkpt>
      <trkpt lat="49.92577" lon="4.45427">
        <ele>345.4</ele>
        <time>2020-06-25T06:13:00Z</time>
      </trkpt>
      <trkpt lat="49.92574" lon="4.45432">
        <ele>345.4</ele>
        <time>2020-06-25T06:13:01Z</time>
      </trkpt>
      <trkpt lat="49.92571" lon="4.45438">
        <ele>345.3</ele>
        <time>2020-06-25T06:13:02Z</time>
      </trkpt>
      <trkpt lat="49.92567" lon="4.45444">
        <ele>345.3</ele>
        <time>2020-06-25T06:13:03Z</time>
      </trkpt>
      <trkpt lat="49.92564" lon="4.4545">
        <ele>345.3</ele>
        <time>2020-06-25T06:13:04Z</time>
      </trkpt>
      <trkpt lat="49.92561" lon="4.45456">
        <ele>345.3</ele>
        <time>2020-06-25T06:13:05Z</time>
      </trkpt>
      <trkpt lat="49.92558" lon="4.45463">
        <ele>345.3</ele>
        <time>2020-06-25T06:13:06Z</time>
      </trkpt>
      <trkpt lat="49.92556" lon="4.4547">
        <ele>345.3</ele>
        <time>2020-06-25T06:13:07Z</time>
      </trkpt>
      <trkpt lat="49.92554" lon="4.45476">
        <ele>345.2</ele>
        <time>2020-06-25T06:13:08Z</time>
      </trkpt>
      <trkpt lat="49.92551" lon="4.45482">
        <ele>345.2</ele>
        <time>2020-06-25T06:13:09Z</time>
      </trkpt>
      <trkpt lat="49.92547" lon="4.45491">
        <ele>345.2</ele>
        <time>2020-06-25T06:13:10Z</time>
      </trkpt>
      <trkpt lat="49.92542" lon="4.45499">
        <ele>345.1</ele>
        <time>2020-06-25T06:13:11Z</time>
      </trkpt>
      <trkpt lat="49.92539" lon="4.45506">
        <ele>345.1</ele>
        <time>2020-06-25T06:13:12Z</time>
      </trkpt>
      <trkpt lat="49.92535" lon="4.45513">
        <ele>345</ele>
        <time>2020-06-25T06:13:13Z</time>
      </trkpt>
      <trkpt lat="49.92532" lon="4.45519">
        <ele>345</ele>
        <time>2020-06-25T06:13:14Z</time>
      </trkpt>
      <trkpt lat="49.92529" lon="4.45525">
        <ele>344.9</ele>
        <time>2020-06-25T06:13:15Z</time>
      </trkpt>
      <trkpt lat="49.92526" lon="4.45531">
        <ele>344.9</ele>
        <time>2020-06-25T06:13:16Z</time>
      </trkpt>
      <trkpt lat="49.92523" lon="4.45538">
        <ele>344.8</ele>
        <time>2020-06-25T06:13:17Z</time>
      </trkpt>
      <trkpt lat="49.9252" lon="4.45545">
        <ele>344.8</ele>
        <time>2020-06-25T06:13:18Z</time>
      </trkpt>
      <trkpt lat="49.92516" lon="4.45553">
        <ele>344.7</ele>
        <time>2020-06-25T06:13:19Z</time>
      </trkpt>
      <trkpt lat="49.92513" lon="4.45561">
        <ele>344.7</ele>
        <time>2020-06-25T06:13:20Z</time>
      </trkpt>
      <trkpt lat="49.9251" lon="4.45569">
        <ele>344.7</ele>
        <time>2020-06-25T06:13:21Z</time>
      </trkpt>
      <trkpt lat="49.92506" lon="4.45576">
        <ele>344.6</ele>
        <time>2020-06-25T06:13:22Z</time>
      </trkpt>
      <trkpt lat="49.92504" lon="4.45584">
        <ele>344.6</ele>
        <time>2020-06-25T06:13:23Z</time>
      </trkpt>
      <trkpt lat="49.92501" lon="4.45593">
        <ele>344.4</ele>
        <time>2020-06-25T06:13:24Z</time>
      </trkpt>
      <trkpt lat="49.92498" lon="4.45603">
        <ele>344.3</ele>
        <time>2020-06-25T06:13:25Z</time>
      </trkpt>
      <trkpt lat="49.92496" lon="4.45614">
        <ele>344.2</ele>
        <time>2020-06-25T06:13:26Z</time>
      </trkpt>
      <trkpt lat="49.92494" lon="4.45623">
        <ele>344.1</ele>
        <time>2020-06-25T06:13:27Z</time>
      </trkpt>
      <trkpt lat="49.92493" lon="4.45633">
        <ele>344.1</ele>
        <time>2020-06-25T06:13:28Z</time>
      </trkpt>
      <trkpt lat="49.92492" lon="4.45643">
        <ele>344.1</ele>
        <time>2020-06-25T06:13:29Z</time>
      </trkpt>
      <trkpt lat="49.92491" lon="4.45653">
        <ele>344.1</ele>
        <time>2020-06-25T06:13:30Z</time>
      </trkpt>
      <trkpt lat="49.92491" lon="4.45662">
        <ele>344.2</ele>
        <time>2020-06-25T06:13:31Z</time>
      </trkpt>
      <trkpt lat="49.92491" lon="4.4567">
        <ele>344.3</ele>
        <time>2020-06-25T06:13:32Z</time>
      </trkpt>
      <trkpt lat="49.92491" lon="4.45678">
        <ele>344.4</ele>
        <time>2020-06-25T06:13:33Z</time>
      </trkpt>
      <trkpt lat="49.92491" lon="4.45686">
        <ele>344.5</ele>
        <time>2020-06-25T06:13:34Z</time>
      </trkpt>
      <trkpt lat="49.92491" lon="4.45695">
        <ele>344.6</ele>
        <time>2020-06-25T06:13:35Z</time>
      </trkpt>
      <trkpt lat="49.92491" lon="4.45705">
        <ele>344.8</ele>
        <time>2020-06-25T06:13:36Z</time>
      </trkpt>
      <trkpt lat="49.92491" lon="4.45714">
        <ele>345</ele>
        <time>2020-06-25T06:13:37Z</time>
      </trkpt>
      <trkpt lat="49.92491" lon="4.45723">
        <ele>345.2</ele>
        <time>2020-06-25T06:13:38Z</time>
      </trkpt>
      <trkpt lat="49.92491" lon="4.45732">
        <ele>345.4</ele>
        <time>2020-06-25T06:13:39Z</time>
      </trkpt>
      <trkpt lat="49.92491" lon="4.45742">
        <ele>345.7</ele>
        <time>2020-06-25T06:13:40Z</time>
      </trkpt>
      <trkpt lat="49.92491" lon="4.45751">
        <ele>345.9</ele>
        <time>2020-06-25T06:13:41Z</time>
      </trkpt>
      <trkpt lat="49.92491" lon="4.45758">
        <ele>346.1</ele>
        <time>2020-06-25T06:13:42Z</time>
      </trkpt>
      <trkpt lat="49.92491" lon="4.45766">
        <ele>346.3</ele>
        <time>2020-06-25T06:13:43Z</time>
      </trkpt>
      <trkpt lat="49.92491" lon="4.45774">
        <ele>346.6</ele>
        <time>2020-06-25T06:13:44Z</time>
      </trkpt>
      <trkpt lat="49.92491" lon="4.45781">
        <ele>346.8</ele>
        <time>2020-06-25T06:13:45Z</time>
      </trkpt>
      <trkpt lat="49.9249" lon="4.45788">
        <ele>347</ele>
        <time>2020-06-25T06:13:46Z</time>
      </trkpt>
      <trkpt lat="49.9249" lon="4.45795">
        <ele>347.3</ele>
        <time>2020-06-25T06:13:47Z</time>
      </trkpt>
      <trkpt lat="49.92489" lon="4.45802">
        <ele>347.5</ele>
        <time>2020-06-25T06:13:48Z</time>
      </trkpt>
      <trkpt lat="49.9249" lon="4.4581">
        <ele>347.8</ele>
        <time>2020-06-25T06:13:49Z</time>
      </trkpt>
      <trkpt lat="49.9249" lon="4.45816">
        <ele>348</ele>
        <time>2020-06-25T06:13:50Z</time>
      </trkpt>
      <trkpt lat="49.92489" lon="4.45822">
        <ele>348.3</ele>
        <time>2020-06-25T06:13:51Z</time>
      </trkpt>
      <trkpt lat="49.92489" lon="4.45828">
        <ele>348.5</ele>
        <time>2020-06-25T06:13:52Z</time>
      </trkpt>
      <trkpt lat="49.92489" lon="4.45833">
        <ele>348.7</ele>
        <time>2020-06-25T06:13:53Z</time>
      </trkpt>
      <trkpt lat="49.92489" lon="4.45838">
        <ele>348.9</ele>
        <time>2020-06-25T06:13:54Z</time>
      </trkpt>
      <trkpt lat="49.92489" lon="4.45844">
        <ele>349.1</ele>
        <time>2020-06-25T06:13:55Z</time>
      </trkpt>
      <trkpt lat="49.92488" lon="4.4585">
        <ele>349.4</ele>
        <time>2020-06-25T06:13:56Z</time>
      </trkpt>
      <trkpt lat="49.92488" lon="4.45856">
        <ele>349.6</ele>
        <time>2020-06-25T06:13:57Z</time>
      </trkpt>
      <trkpt lat="49.92487" lon="4.45862">
        <ele>349.9</ele>
        <time>2020-06-25T06:13:58Z</time>
      </trkpt>
      <trkpt lat="49.92487" lon="4.45867">
        <ele>350.1</ele>
        <time>2020-06-25T06:13:59Z</time>
      </trkpt>
      <trkpt lat="49.92487" lon="4.45875">
        <ele>350.4</ele>
        <time>2020-06-25T06:14:00Z</time>
      </trkpt>
      <trkpt lat="49.92487" lon="4.4588">
        <ele>350.6</ele>
        <time>2020-06-25T06:14:01Z</time>
      </trkpt>
      <trkpt lat="49.92487" lon="4.45887">
        <ele>350.9</ele>
        <time>2020-06-25T06:14:02Z</time>
      </trkpt>
      <trkpt lat="49.92486" lon="4.45895">
        <ele>351.2</ele>
        <time>2020-06-25T06:14:03Z</time>
      </trkpt>
      <trkpt lat="49.92486" lon="4.45901">
        <ele>351.5</ele>
        <time>2020-06-25T06:14:04Z</time>
      </trkpt>
      <trkpt lat="49.92485" lon="4.45908">
        <ele>351.7</ele>
        <time>2020-06-25T06:14:05Z</time>
      </trkpt>
      <trkpt lat="49.92484" lon="4.45913">
        <ele>351.9</ele>
        <time>2020-06-25T06:14:06Z</time>
      </trkpt>
      <trkpt lat="49.92484" lon="4.4592">
        <ele>352.1</ele>
        <time>2020-06-25T06:14:07Z</time>
      </trkpt>
      <trkpt lat="49.92483" lon="4.45927">
        <ele>352.3</ele>
        <time>2020-06-25T06:14:08Z</time>
      </trkpt>
      <trkpt lat="49.92484" lon="4.45932">
        <ele>352.4</ele>
        <time>2020-06-25T06:14:09Z</time>
      </trkpt>
      <trkpt lat="49.92484" lon="4.45936">
        <ele>352.6</ele>
        <time>2020-06-25T06:14:10Z</time>
      </trkpt>
      <trkpt lat="49.92484" lon="4.45941">
        <ele>352.7</ele>
        <time>2020-06-25T06:14:11Z</time>
      </trkpt>
      <trkpt lat="49.92483" lon="4.45946">
        <ele>352.9</ele>
        <time>2020-06-25T06:14:12Z</time>
      </trkpt>
      <trkpt lat="49.92484" lon="4.45951">
        <ele>353.1</ele>
        <time>2020-06-25T06:14:13Z</time>
      </trkpt>
      <trkpt lat="49.92484" lon="4.45956">
        <ele>353.2</ele>
        <time>2020-06-25T06:14:14Z</time>
      </trkpt>
      <trkpt lat="49.92484" lon="4.45958">
        <ele>353.3</ele>
        <time>2020-06-25T06:14:15Z</time>
      </trkpt>
      <trkpt lat="49.92484" lon="4.45964">
        <ele>353.5</ele>
        <time>2020-06-25T06:14:16Z</time>
      </trkpt>
      <trkpt lat="49.92485" lon="4.45971">
        <ele>353.7</ele>
        <time>2020-06-25T06:14:17Z</time>
      </trkpt>
      <trkpt lat="49.92485" lon="4.45978">
        <ele>353.9</ele>
        <time>2020-06-25T06:14:18Z</time>
      </trkpt>
      <trkpt lat="49.92486" lon="4.45984">
        <ele>354.1</ele>
        <time>2020-06-25T06:14:19Z</time>
      </trkpt>
      <trkpt lat="49.92488" lon="4.45991">
        <ele>354.3</ele>
        <time>2020-06-25T06:14:20Z</time>
      </trkpt>
      <trkpt lat="49.92488" lon="4.45996">
        <ele>354.5</ele>
        <time>2020-06-25T06:14:21Z</time>
      </trkpt>
      <trkpt lat="49.92489" lon="4.46002">
        <ele>354.6</ele>
        <time>2020-06-25T06:14:22Z</time>
      </trkpt>
      <trkpt lat="49.92489" lon="4.46007">
        <ele>354.8</ele>
        <time>2020-06-25T06:14:23Z</time>
      </trkpt>
      <trkpt lat="49.9249" lon="4.46012">
        <ele>355</ele>
        <time>2020-06-25T06:14:24Z</time>
      </trkpt>
      <trkpt lat="49.9249" lon="4.46018">
        <ele>355.1</ele>
        <time>2020-06-25T06:14:25Z</time>
      </trkpt>
      <trkpt lat="49.92491" lon="4.46025">
        <ele>355.3</ele>
        <time>2020-06-25T06:14:26Z</time>
      </trkpt>
      <trkpt lat="49.92492" lon="4.46031">
        <ele>355.4</ele>
        <time>2020-06-25T06:14:27Z</time>
      </trkpt>
      <trkpt lat="49.92492" lon="4.46037">
        <ele>355.5</ele>
        <time>2020-06-25T06:14:28Z</time>
      </trkpt>
      <trkpt lat="49.92493" lon="4.46044">
        <ele>355.7</ele>
        <time>2020-06-25T06:14:29Z</time>
      </trkpt>
      <trkpt lat="49.92493" lon="4.4605">
        <ele>355.8</ele>
        <time>2020-06-25T06:14:30Z</time>
      </trkpt>
      <trkpt lat="49.92493" lon="4.46057">
        <ele>355.9</ele>
        <time>2020-06-25T06:14:31Z</time>
      </trkpt>
      <trkpt lat="49.92493" lon="4.46064">
        <ele>356</ele>
        <time>2020-06-25T06:14:32Z</time>
      </trkpt>
      <trkpt lat="49.92493" lon="4.4607">
        <ele>356.1</ele>
        <time>2020-06-25T06:14:33Z</time>
      </trkpt>
      <trkpt lat="49.92494" lon="4.46075">
        <ele>356.1</ele>
        <time>2020-06-25T06:14:34Z</time>
      </trkpt>
      <trkpt lat="49.92494" lon="4.46082">
        <ele>356.2</ele>
        <time>2020-06-25T06:14:35Z</time>
      </trkpt>
      <trkpt lat="49.92493" lon="4.46087">
        <ele>356.2</ele>
        <time>2020-06-25T06:14:36Z</time>
      </trkpt>
      <trkpt lat="49.92493" lon="4.46093">
        <ele>356.3</ele>
        <time>2020-06-25T06:14:37Z</time>
      </trkpt>
      <trkpt lat="49.92492" lon="4.46098">
        <ele>356.3</ele>
        <time>2020-06-25T06:14:38Z</time>
      </trkpt>
      <trkpt lat="49.92492" lon="4.46104">
        <ele>356.4</ele>
        <time>2020-06-25T06:14:39Z</time>
      </trkpt>
      <trkpt lat="49.92492" lon="4.4611">
        <ele>356.4</ele>
        <time>2020-06-25T06:14:40Z</time>
      </trkpt>
      <trkpt lat="49.92492" lon="4.46116">
        <ele>356.4</ele>
        <time>2020-06-25T06:14:41Z</time>
      </trkpt>
      <trkpt lat="49.92492" lon="4.46122">
        <ele>356.5</ele>
        <time>2020-06-25T06:14:42Z</time>
      </trkpt>
      <trkpt lat="49.92491" lon="4.46128">
        <ele>356.5</ele>
        <time>2020-06-25T06:14:43Z</time>
      </trkpt>
      <trkpt lat="49.92491" lon="4.46134">
        <ele>356.5</ele>
        <time>2020-06-25T06:14:44Z</time>
      </trkpt>
      <trkpt lat="49.92491" lon="4.46142">
        <ele>356.5</ele>
        <time>2020-06-25T06:14:45Z</time>
      </trkpt>
      <trkpt lat="49.9249" lon="4.46148">
        <ele>356.5</ele>
        <time>2020-06-25T06:14:46Z</time>
      </trkpt>
      <trkpt lat="49.92489" lon="4.46156">
        <ele>356.5</ele>
        <time>2020-06-25T06:14:47Z</time>
      </trkpt>
      <trkpt lat="49.92489" lon="4.46163">
        <ele>356.5</ele>
        <time>2020-06-25T06:14:48Z</time>
      </trkpt>
      <trkpt lat="49.92489" lon="4.46171">
        <ele>356.5</ele>
        <time>2020-06-25T06:14:49Z</time>
      </trkpt>
      <trkpt lat="49.92488" lon="4.46179">
        <ele>356.5</ele>
        <time>2020-06-25T06:14:50Z</time>
      </trkpt>
      <trkpt lat="49.92487" lon="4.46187">
        <ele>356.5</ele>
        <time>2020-06-25T06:14:51Z</time>
      </trkpt>
      <trkpt lat="49.92487" lon="4.46193">
        <ele>356.5</ele>
        <time>2020-06-25T06:14:52Z</time>
      </trkpt>
      <trkpt lat="49.92487" lon="4.46201">
        <ele>356.4</ele>
        <time>2020-06-25T06:14:53Z</time>
      </trkpt>
      <trkpt lat="49.92486" lon="4.46209">
        <ele>356.4</ele>
        <time>2020-06-25T06:14:54Z</time>
      </trkpt>
      <trkpt lat="49.92486" lon="4.46216">
        <ele>356.4</ele>
        <time>2020-06-25T06:14:55Z</time>
      </trkpt>
      <trkpt lat="49.92485" lon="4.46224">
        <ele>356.4</ele>
        <time>2020-06-25T06:14:56Z</time>
      </trkpt>
      <trkpt lat="49.92485" lon="4.46233">
        <ele>356.4</ele>
        <time>2020-06-25T06:14:57Z</time>
      </trkpt>
      <trkpt lat="49.92485" lon="4.46241">
        <ele>356.3</ele>
        <time>2020-06-25T06:14:58Z</time>
      </trkpt>
      <trkpt lat="49.92484" lon="4.46249">
        <ele>356.3</ele>
        <time>2020-06-25T06:14:59Z</time>
      </trkpt>
      <trkpt lat="49.92484" lon="4.46257">
        <ele>356.3</ele>
        <time>2020-06-25T06:15:00Z</time>
      </trkpt>
      <trkpt lat="49.92484" lon="4.46264">
        <ele>356.3</ele>
        <time>2020-06-25T06:15:01Z</time>
      </trkpt>
      <trkpt lat="49.92484" lon="4.46273">
        <ele>356.3</ele>
        <time>2020-06-25T06:15:02Z</time>
      </trkpt>
      <trkpt lat="49.92483" lon="4.46282">
        <ele>356.3</ele>
        <time>2020-06-25T06:15:03Z</time>
      </trkpt>
      <trkpt lat="49.92483" lon="4.46291">
        <ele>356.3</ele>
        <time>2020-06-25T06:15:04Z</time>
      </trkpt>
      <trkpt lat="49.92482" lon="4.46299">
        <ele>356.3</ele>
        <time>2020-06-25T06:15:05Z</time>
      </trkpt>
      <trkpt lat="49.92482" lon="4.46307">
        <ele>356.3</ele>
        <time>2020-06-25T06:15:06Z</time>
      </trkpt>
      <trkpt lat="49.92481" lon="4.46316">
        <ele>356.3</ele>
        <time>2020-06-25T06:15:07Z</time>
      </trkpt>
      <trkpt lat="49.9248" lon="4.46325">
        <ele>356.3</ele>
        <time>2020-06-25T06:15:08Z</time>
      </trkpt>
      <trkpt lat="49.9248" lon="4.46334">
        <ele>356.4</ele>
        <time>2020-06-25T06:15:09Z</time>
      </trkpt>
      <trkpt lat="49.92479" lon="4.46343">
        <ele>356.4</ele>
        <time>2020-06-25T06:15:10Z</time>
      </trkpt>
      <trkpt lat="49.92478" lon="4.4635">
        <ele>356.4</ele>
        <time>2020-06-25T06:15:11Z</time>
      </trkpt>
      <trkpt lat="49.92478" lon="4.46358">
        <ele>356.4</ele>
        <time>2020-06-25T06:15:12Z</time>
      </trkpt>
      <trkpt lat="49.92478" lon="4.46367">
        <ele>356.4</ele>
        <time>2020-06-25T06:15:13Z</time>
      </trkpt>
      <trkpt lat="49.92477" lon="4.46376">
        <ele>356.4</ele>
        <time>2020-06-25T06:15:14Z</time>
      </trkpt>
      <trkpt lat="49.92477" lon="4.46384">
        <ele>356.4</ele>
        <time>2020-06-25T06:15:15Z</time>
      </trkpt>
      <trkpt lat="49.92477" lon="4.46393">
        <ele>356.4</ele>
        <time>2020-06-25T06:15:16Z</time>
      </trkpt>
      <trkpt lat="49.92478" lon="4.46402">
        <ele>356.4</ele>
        <time>2020-06-25T06:15:17Z</time>
      </trkpt>
      <trkpt lat="49.92478" lon="4.4641">
        <ele>356.4</ele>
        <time>2020-06-25T06:15:18Z</time>
      </trkpt>
      <trkpt lat="49.92478" lon="4.46418">
        <ele>356.4</ele>
        <time>2020-06-25T06:15:19Z</time>
      </trkpt>
      <trkpt lat="49.92478" lon="4.46427">
        <ele>356.3</ele>
        <time>2020-06-25T06:15:20Z</time>
      </trkpt>
      <trkpt lat="49.92478" lon="4.46435">
        <ele>356.3</ele>
        <time>2020-06-25T06:15:21Z</time>
      </trkpt>
      <trkpt lat="49.92479" lon="4.46444">
        <ele>356.3</ele>
        <time>2020-06-25T06:15:22Z</time>
      </trkpt>
      <trkpt lat="49.9248" lon="4.46452">
        <ele>356.3</ele>
        <time>2020-06-25T06:15:23Z</time>
      </trkpt>
      <trkpt lat="49.9248" lon="4.4646">
        <ele>356.2</ele>
        <time>2020-06-25T06:15:24Z</time>
      </trkpt>
      <trkpt lat="49.92481" lon="4.4647">
        <ele>356.1</ele>
        <time>2020-06-25T06:15:25Z</time>
      </trkpt>
      <trkpt lat="49.92482" lon="4.46477">
        <ele>356.1</ele>
        <time>2020-06-25T06:15:26Z</time>
      </trkpt>
      <trkpt lat="49.92483" lon="4.46485">
        <ele>356</ele>
        <time>2020-06-25T06:15:27Z</time>
      </trkpt>
      <trkpt lat="49.92483" lon="4.46493">
        <ele>355.9</ele>
        <time>2020-06-25T06:15:28Z</time>
      </trkpt>
      <trkpt lat="49.92484" lon="4.46502">
        <ele>355.8</ele>
        <time>2020-06-25T06:15:29Z</time>
      </trkpt>
      <trkpt lat="49.92485" lon="4.46511">
        <ele>355.7</ele>
        <time>2020-06-25T06:15:30Z</time>
      </trkpt>
      <trkpt lat="49.92485" lon="4.46521">
        <ele>355.6</ele>
        <time>2020-06-25T06:15:31Z</time>
      </trkpt>
      <trkpt lat="49.92487" lon="4.46531">
        <ele>355.5</ele>
        <time>2020-06-25T06:15:32Z</time>
      </trkpt>
      <trkpt lat="49.92488" lon="4.46541">
        <ele>355.3</ele>
        <time>2020-06-25T06:15:33Z</time>
      </trkpt>
      <trkpt lat="49.9249" lon="4.4655">
        <ele>355.2</ele>
        <time>2020-06-25T06:15:34Z</time>
      </trkpt>
      <trkpt lat="49.92492" lon="4.46557">
        <ele>355.1</ele>
        <time>2020-06-25T06:15:35Z</time>
      </trkpt>
      <trkpt lat="49.92493" lon="4.46565">
        <ele>354.9</ele>
        <time>2020-06-25T06:15:36Z</time>
      </trkpt>
      <trkpt lat="49.92495" lon="4.46575">
        <ele>354.8</ele>
        <time>2020-06-25T06:15:37Z</time>
      </trkpt>
      <trkpt lat="49.92497" lon="4.46583">
        <ele>354.6</ele>
        <time>2020-06-25T06:15:38Z</time>
      </trkpt>
      <trkpt lat="49.92498" lon="4.46594">
        <ele>354.5</ele>
        <time>2020-06-25T06:15:39Z</time>
      </trkpt>
      <trkpt lat="49.92498" lon="4.46603">
        <ele>354.3</ele>
        <time>2020-06-25T06:15:40Z</time>
      </trkpt>
      <trkpt lat="49.92499" lon="4.46614">
        <ele>354.2</ele>
        <time>2020-06-25T06:15:41Z</time>
      </trkpt>
      <trkpt lat="49.92499" lon="4.46624">
        <ele>354</ele>
        <time>2020-06-25T06:15:42Z</time>
      </trkpt>
      <trkpt lat="49.92499" lon="4.46635">
        <ele>353.8</ele>
        <time>2020-06-25T06:15:43Z</time>
      </trkpt>
      <trkpt lat="49.92499" lon="4.46644">
        <ele>353.7</ele>
        <time>2020-06-25T06:15:44Z</time>
      </trkpt>
      <trkpt lat="49.92499" lon="4.46654">
        <ele>353.5</ele>
        <time>2020-06-25T06:15:45Z</time>
      </trkpt>
      <trkpt lat="49.92497" lon="4.46665">
        <ele>353.4</ele>
        <time>2020-06-25T06:15:46Z</time>
      </trkpt>
      <trkpt lat="49.92496" lon="4.46675">
        <ele>353.2</ele>
        <time>2020-06-25T06:15:47Z</time>
      </trkpt>
      <trkpt lat="49.92495" lon="4.46684">
        <ele>353.1</ele>
        <time>2020-06-25T06:15:48Z</time>
      </trkpt>
      <trkpt lat="49.92493" lon="4.46693">
        <ele>352.9</ele>
        <time>2020-06-25T06:15:49Z</time>
      </trkpt>
      <trkpt lat="49.92492" lon="4.46702">
        <ele>352.7</ele>
        <time>2020-06-25T06:15:50Z</time>
      </trkpt>
      <trkpt lat="49.9249" lon="4.46712">
        <ele>352.6</ele>
        <time>2020-06-25T06:15:51Z</time>
      </trkpt>
      <trkpt lat="49.92488" lon="4.46722">
        <ele>352.4</ele>
        <time>2020-06-25T06:15:52Z</time>
      </trkpt>
      <trkpt lat="49.92485" lon="4.46732">
        <ele>352.2</ele>
        <time>2020-06-25T06:15:53Z</time>
      </trkpt>
      <trkpt lat="49.92484" lon="4.4674">
        <ele>352.1</ele>
        <time>2020-06-25T06:15:54Z</time>
      </trkpt>
      <trkpt lat="49.92482" lon="4.4675">
        <ele>351.9</ele>
        <time>2020-06-25T06:15:55Z</time>
      </trkpt>
      <trkpt lat="49.9248" lon="4.46758">
        <ele>351.7</ele>
        <time>2020-06-25T06:15:56Z</time>
      </trkpt>
      <trkpt lat="49.92477" lon="4.46767">
        <ele>351.5</ele>
        <time>2020-06-25T06:15:57Z</time>
      </trkpt>
      <trkpt lat="49.92474" lon="4.46777">
        <ele>351.3</ele>
        <time>2020-06-25T06:15:58Z</time>
      </trkpt>
      <trkpt lat="49.92471" lon="4.46787">
        <ele>351</ele>
        <time>2020-06-25T06:15:59Z</time>
      </trkpt>
      <trkpt lat="49.92469" lon="4.46797">
        <ele>350.7</ele>
        <time>2020-06-25T06:16:00Z</time>
      </trkpt>
      <trkpt lat="49.92466" lon="4.46808">
        <ele>350.4</ele>
        <time>2020-06-25T06:16:01Z</time>
      </trkpt>
      <trkpt lat="49.92464" lon="4.46818">
        <ele>350.1</ele>
        <time>2020-06-25T06:16:02Z</time>
      </trkpt>
      <trkpt lat="49.92461" lon="4.46828">
        <ele>349.8</ele>
        <time>2020-06-25T06:16:03Z</time>
      </trkpt>
      <trkpt lat="49.92458" lon="4.4684">
        <ele>349.5</ele>
        <time>2020-06-25T06:16:04Z</time>
      </trkpt>
      <trkpt lat="49.92456" lon="4.4685">
        <ele>349.2</ele>
        <time>2020-06-25T06:16:05Z</time>
      </trkpt>
      <trkpt lat="49.92454" lon="4.46861">
        <ele>348.9</ele>
        <time>2020-06-25T06:16:06Z</time>
      </trkpt>
      <trkpt lat="49.92451" lon="4.46872">
        <ele>348.6</ele>
        <time>2020-06-25T06:16:07Z</time>
      </trkpt>
      <trkpt lat="49.92448" lon="4.46884">
        <ele>348.3</ele>
        <time>2020-06-25T06:16:08Z</time>
      </trkpt>
      <trkpt lat="49.92445" lon="4.46895">
        <ele>348.1</ele>
        <time>2020-06-25T06:16:09Z</time>
      </trkpt>
      <trkpt lat="49.92442" lon="4.46907">
        <ele>347.9</ele>
        <time>2020-06-25T06:16:10Z</time>
      </trkpt>
      <trkpt lat="49.92438" lon="4.46918">
        <ele>347.7</ele>
        <time>2020-06-25T06:16:11Z</time>
      </trkpt>
      <trkpt lat="49.92434" lon="4.46929">
        <ele>347.5</ele>
        <time>2020-06-25T06:16:12Z</time>
      </trkpt>
      <trkpt lat="49.92431" lon="4.4694">
        <ele>347.3</ele>
        <time>2020-06-25T06:16:13Z</time>
      </trkpt>
      <trkpt lat="49.92427" lon="4.46951">
        <ele>347</ele>
        <time>2020-06-25T06:16:14Z</time>
      </trkpt>
      <trkpt lat="49.92424" lon="4.46962">
        <ele>346.9</ele>
        <time>2020-06-25T06:16:15Z</time>
      </trkpt>
      <trkpt lat="49.9242" lon="4.46974">
        <ele>346.8</ele>
        <time>2020-06-25T06:16:16Z</time>
      </trkpt>
      <trkpt lat="49.92417" lon="4.46985">
        <ele>346.8</ele>
        <time>2020-06-25T06:16:17Z</time>
      </trkpt>
      <trkpt lat="49.92414" lon="4.46995">
        <ele>346.8</ele>
        <time>2020-06-25T06:16:18Z</time>
      </trkpt>
      <trkpt lat="49.92411" lon="4.47005">
        <ele>346.9</ele>
        <time>2020-06-25T06:16:19Z</time>
      </trkpt>
      <trkpt lat="49.92408" lon="4.47016">
        <ele>346.9</ele>
        <time>2020-06-25T06:16:20Z</time>
      </trkpt>
      <trkpt lat="49.92406" lon="4.47026">
        <ele>347</ele>
        <time>2020-06-25T06:16:21Z</time>
      </trkpt>
      <trkpt lat="49.92403" lon="4.47036">
        <ele>347</ele>
        <time>2020-06-25T06:16:22Z</time>
      </trkpt>
      <trkpt lat="49.924" lon="4.47045">
        <ele>347.1</ele>
        <time>2020-06-25T06:16:23Z</time>
      </trkpt>
      <trkpt lat="49.92397" lon="4.47054">
        <ele>347.3</ele>
        <time>2020-06-25T06:16:24Z</time>
      </trkpt>
      <trkpt lat="49.92394" lon="4.47062">
        <ele>347.4</ele>
        <time>2020-06-25T06:16:25Z</time>
      </trkpt>
      <trkpt lat="49.92391" lon="4.4707">
        <ele>347.5</ele>
        <time>2020-06-25T06:16:26Z</time>
      </trkpt>
      <trkpt lat="49.92388" lon="4.47077">
        <ele>347.6</ele>
        <time>2020-06-25T06:16:27Z</time>
      </trkpt>
      <trkpt lat="49.92385" lon="4.47085">
        <ele>347.8</ele>
        <time>2020-06-25T06:16:28Z</time>
      </trkpt>
      <trkpt lat="49.92382" lon="4.47092">
        <ele>347.9</ele>
        <time>2020-06-25T06:16:29Z</time>
      </trkpt>
      <trkpt lat="49.92379" lon="4.47099">
        <ele>348.1</ele>
        <time>2020-06-25T06:16:30Z</time>
      </trkpt>
      <trkpt lat="49.92377" lon="4.47106">
        <ele>348.2</ele>
        <time>2020-06-25T06:16:31Z</time>
      </trkpt>
      <trkpt lat="49.92374" lon="4.47112">
        <ele>348.4</ele>
        <time>2020-06-25T06:16:32Z</time>
      </trkpt>
      <trkpt lat="49.92371" lon="4.47119">
        <ele>348.6</ele>
        <time>2020-06-25T06:16:33Z</time>
      </trkpt>
      <trkpt lat="49.92369" lon="4.47125">
        <ele>348.8</ele>
        <time>2020-06-25T06:16:34Z</time>
      </trkpt>
      <trkpt lat="49.92366" lon="4.47132">
        <ele>349</ele>
        <time>2020-06-25T06:16:35Z</time>
      </trkpt>
      <trkpt lat="49.92363" lon="4.47138">
        <ele>349.2</ele>
        <time>2020-06-25T06:16:36Z</time>
      </trkpt>
      <trkpt lat="49.9236" lon="4.47145">
        <ele>349.5</ele>
        <time>2020-06-25T06:16:37Z</time>
      </trkpt>
      <trkpt lat="49.92357" lon="4.47152">
        <ele>349.7</ele>
        <time>2020-06-25T06:16:38Z</time>
      </trkpt>
      <trkpt lat="49.92355" lon="4.47158">
        <ele>349.9</ele>
        <time>2020-06-25T06:16:39Z</time>
      </trkpt>
      <trkpt lat="49.92352" lon="4.47165">
        <ele>350.1</ele>
        <time>2020-06-25T06:16:40Z</time>
      </trkpt>
      <trkpt lat="49.92349" lon="4.47171">
        <ele>350.3</ele>
        <time>2020-06-25T06:16:41Z</time>
      </trkpt>
      <trkpt lat="49.92346" lon="4.47177">
        <ele>350.5</ele>
        <time>2020-06-25T06:16:42Z</time>
      </trkpt>
      <trkpt lat="49.92343" lon="4.47183">
        <ele>350.6</ele>
        <time>2020-06-25T06:16:43Z</time>
      </trkpt>
      <trkpt lat="49.92341" lon="4.4719">
        <ele>350.8</ele>
        <time>2020-06-25T06:16:44Z</time>
      </trkpt>
      <trkpt lat="49.92338" lon="4.47196">
        <ele>351</ele>
        <time>2020-06-25T06:16:45Z</time>
      </trkpt>
      <trkpt lat="49.92336" lon="4.47202">
        <ele>351.2</ele>
        <time>2020-06-25T06:16:46Z</time>
      </trkpt>
      <trkpt lat="49.92333" lon="4.47208">
        <ele>351.4</ele>
        <time>2020-06-25T06:16:47Z</time>
      </trkpt>
      <trkpt lat="49.92332" lon="4.47214">
        <ele>351.5</ele>
        <time>2020-06-25T06:16:48Z</time>
      </trkpt>
      <trkpt lat="49.9233" lon="4.47221">
        <ele>351.8</ele>
        <time>2020-06-25T06:16:49Z</time>
      </trkpt>
      <trkpt lat="49.92327" lon="4.47227">
        <ele>352</ele>
        <time>2020-06-25T06:16:50Z</time>
      </trkpt>
      <trkpt lat="49.92325" lon="4.47234">
        <ele>352.2</ele>
        <time>2020-06-25T06:16:51Z</time>
      </trkpt>
      <trkpt lat="49.92323" lon="4.4724">
        <ele>352.3</ele>
        <time>2020-06-25T06:16:52Z</time>
      </trkpt>
      <trkpt lat="49.92321" lon="4.47247">
        <ele>352.5</ele>
        <time>2020-06-25T06:16:53Z</time>
      </trkpt>
      <trkpt lat="49.9232" lon="4.47252">
        <ele>352.6</ele>
        <time>2020-06-25T06:16:54Z</time>
      </trkpt>
      <trkpt lat="49.92318" lon="4.47259">
        <ele>352.8</ele>
        <time>2020-06-25T06:16:55Z</time>
      </trkpt>
      <trkpt lat="49.92316" lon="4.47265">
        <ele>352.9</ele>
        <time>2020-06-25T06:16:56Z</time>
      </trkpt>
      <trkpt lat="49.92314" lon="4.4727">
        <ele>353.1</ele>
        <time>2020-06-25T06:16:57Z</time>
      </trkpt>
      <trkpt lat="49.92312" lon="4.47276">
        <ele>353.2</ele>
        <time>2020-06-25T06:16:58Z</time>
      </trkpt>
      <trkpt lat="49.9231" lon="4.47281">
        <ele>353.3</ele>
        <time>2020-06-25T06:16:59Z</time>
      </trkpt>
      <trkpt lat="49.92309" lon="4.47287">
        <ele>353.4</ele>
        <time>2020-06-25T06:17:00Z</time>
      </trkpt>
      <trkpt lat="49.92307" lon="4.47294">
        <ele>353.5</ele>
        <time>2020-06-25T06:17:01Z</time>
      </trkpt>
      <trkpt lat="49.92306" lon="4.473">
        <ele>353.6</ele>
        <time>2020-06-25T06:17:02Z</time>
      </trkpt>
      <trkpt lat="49.92304" lon="4.47307">
        <ele>353.7</ele>
        <time>2020-06-25T06:17:03Z</time>
      </trkpt>
      <trkpt lat="49.92303" lon="4.47313">
        <ele>353.8</ele>
        <time>2020-06-25T06:17:04Z</time>
      </trkpt>
      <trkpt lat="49.92301" lon="4.47319">
        <ele>353.9</ele>
        <time>2020-06-25T06:17:05Z</time>
      </trkpt>
      <trkpt lat="49.923" lon="4.47324">
        <ele>354</ele>
        <time>2020-06-25T06:17:06Z</time>
      </trkpt>
      <trkpt lat="49.92298" lon="4.47331">
        <ele>354.2</ele>
        <time>2020-06-25T06:17:07Z</time>
      </trkpt>
      <trkpt lat="49.92297" lon="4.47337">
        <ele>354.3</ele>
        <time>2020-06-25T06:17:08Z</time>
      </trkpt>
      <trkpt lat="49.92295" lon="4.47345">
        <ele>354.4</ele>
        <time>2020-06-25T06:17:09Z</time>
      </trkpt>
      <trkpt lat="49.92292" lon="4.47352">
        <ele>354.5</ele>
        <time>2020-06-25T06:17:10Z</time>
      </trkpt>
      <trkpt lat="49.9229" lon="4.47359">
        <ele>354.7</ele>
        <time>2020-06-25T06:17:11Z</time>
      </trkpt>
      <trkpt lat="49.92288" lon="4.47366">
        <ele>354.7</ele>
        <time>2020-06-25T06:17:12Z</time>
      </trkpt>
      <trkpt lat="49.92286" lon="4.47373">
        <ele>354.8</ele>
        <time>2020-06-25T06:17:13Z</time>
      </trkpt>
      <trkpt lat="49.92284" lon="4.47379">
        <ele>354.9</ele>
        <time>2020-06-25T06:17:14Z</time>
      </trkpt>
      <trkpt lat="49.92282" lon="4.47384">
        <ele>355</ele>
        <time>2020-06-25T06:17:15Z</time>
      </trkpt>
      <trkpt lat="49.9228" lon="4.4739">
        <ele>355.1</ele>
        <time>2020-06-25T06:17:16Z</time>
      </trkpt>
      <trkpt lat="49.92278" lon="4.47397">
        <ele>355.2</ele>
        <time>2020-06-25T06:17:17Z</time>
      </trkpt>
      <trkpt lat="49.92276" lon="4.47402">
        <ele>355.3</ele>
        <time>2020-06-25T06:17:18Z</time>
      </trkpt>
      <trkpt lat="49.92274" lon="4.47407">
        <ele>355.4</ele>
        <time>2020-06-25T06:17:19Z</time>
      </trkpt>
      <trkpt lat="49.92273" lon="4.47413">
        <ele>355.5</ele>
        <time>2020-06-25T06:17:20Z</time>
      </trkpt>
      <trkpt lat="49.92271" lon="4.47418">
        <ele>355.6</ele>
        <time>2020-06-25T06:17:21Z</time>
      </trkpt>
      <trkpt lat="49.92269" lon="4.47423">
        <ele>355.7</ele>
        <time>2020-06-25T06:17:22Z</time>
      </trkpt>
      <trkpt lat="49.92267" lon="4.47429">
        <ele>355.8</ele>
        <time>2020-06-25T06:17:23Z</time>
      </trkpt>
      <trkpt lat="49.92265" lon="4.47435">
        <ele>355.9</ele>
        <time>2020-06-25T06:17:24Z</time>
      </trkpt>
      <trkpt lat="49.92262" lon="4.47441">
        <ele>356</ele>
        <time>2020-06-25T06:17:25Z</time>
      </trkpt>
      <trkpt lat="49.92259" lon="4.47448">
        <ele>356.1</ele>
        <time>2020-06-25T06:17:26Z</time>
      </trkpt>
      <trkpt lat="49.92257" lon="4.47454">
        <ele>356.2</ele>
        <time>2020-06-25T06:17:27Z</time>
      </trkpt>
      <trkpt lat="49.92255" lon="4.47461">
        <ele>356.4</ele>
        <time>2020-06-25T06:17:28Z</time>
      </trkpt>
      <trkpt lat="49.92252" lon="4.47467">
        <ele>356.5</ele>
        <time>2020-06-25T06:17:29Z</time>
      </trkpt>
      <trkpt lat="49.9225" lon="4.47474">
        <ele>356.6</ele>
        <time>2020-06-25T06:17:30Z</time>
      </trkpt>
      <trkpt lat="49.92248" lon="4.47478">
        <ele>356.7</ele>
        <time>2020-06-25T06:17:31Z</time>
      </trkpt>
      <trkpt lat="49.92245" lon="4.47484">
        <ele>356.8</ele>
        <time>2020-06-25T06:17:32Z</time>
      </trkpt>
      <trkpt lat="49.92243" lon="4.4749">
        <ele>356.9</ele>
        <time>2020-06-25T06:17:33Z</time>
      </trkpt>
      <trkpt lat="49.92241" lon="4.47496">
        <ele>357</ele>
        <time>2020-06-25T06:17:34Z</time>
      </trkpt>
      <trkpt lat="49.92239" lon="4.47502">
        <ele>357.2</ele>
        <time>2020-06-25T06:17:35Z</time>
      </trkpt>
      <trkpt lat="49.92237" lon="4.47509">
        <ele>357.3</ele>
        <time>2020-06-25T06:17:36Z</time>
      </trkpt>
      <trkpt lat="49.92234" lon="4.47516">
        <ele>357.5</ele>
        <time>2020-06-25T06:17:37Z</time>
      </trkpt>
      <trkpt lat="49.92232" lon="4.47523">
        <ele>357.6</ele>
        <time>2020-06-25T06:17:38Z</time>
      </trkpt>
      <trkpt lat="49.9223" lon="4.4753">
        <ele>357.8</ele>
        <time>2020-06-25T06:17:39Z</time>
      </trkpt>
      <trkpt lat="49.92227" lon="4.47536">
        <ele>357.9</ele>
        <time>2020-06-25T06:17:40Z</time>
      </trkpt>
      <trkpt lat="49.92224" lon="4.47541">
        <ele>358</ele>
        <time>2020-06-25T06:17:41Z</time>
      </trkpt>
      <trkpt lat="49.92222" lon="4.47547">
        <ele>358.2</ele>
        <time>2020-06-25T06:17:42Z</time>
      </trkpt>
      <trkpt lat="49.9222" lon="4.47553">
        <ele>358.3</ele>
        <time>2020-06-25T06:17:43Z</time>
      </trkpt>
      <trkpt lat="49.92217" lon="4.47561">
        <ele>358.4</ele>
        <time>2020-06-25T06:17:44Z</time>
      </trkpt>
      <trkpt lat="49.92215" lon="4.47567">
        <ele>358.5</ele>
        <time>2020-06-25T06:17:45Z</time>
      </trkpt>
      <trkpt lat="49.92213" lon="4.47574">
        <ele>358.6</ele>
        <time>2020-06-25T06:17:46Z</time>
      </trkpt>
      <trkpt lat="49.92211" lon="4.47581">
        <ele>358.7</ele>
        <time>2020-06-25T06:17:47Z</time>
      </trkpt>
      <trkpt lat="49.92209" lon="4.47588">
        <ele>358.8</ele>
        <time>2020-06-25T06:17:48Z</time>
      </trkpt>
      <trkpt lat="49.92208" lon="4.47594">
        <ele>358.8</ele>
        <time>2020-06-25T06:17:49Z</time>
      </trkpt>
      <trkpt lat="49.92205" lon="4.476">
        <ele>358.9</ele>
        <time>2020-06-25T06:17:50Z</time>
      </trkpt>
      <trkpt lat="49.92203" lon="4.47606">
        <ele>358.9</ele>
        <time>2020-06-25T06:17:51Z</time>
      </trkpt>
      <trkpt lat="49.92201" lon="4.47612">
        <ele>358.9</ele>
        <time>2020-06-25T06:17:52Z</time>
      </trkpt>
      <trkpt lat="49.92198" lon="4.47621">
        <ele>358.9</ele>
        <time>2020-06-25T06:17:53Z</time>
      </trkpt>
      <trkpt lat="49.92196" lon="4.47627">
        <ele>358.9</ele>
        <time>2020-06-25T06:17:54Z</time>
      </trkpt>
      <trkpt lat="49.92193" lon="4.47635">
        <ele>358.9</ele>
        <time>2020-06-25T06:17:55Z</time>
      </trkpt>
      <trkpt lat="49.92191" lon="4.47642">
        <ele>358.9</ele>
        <time>2020-06-25T06:17:56Z</time>
      </trkpt>
      <trkpt lat="49.92189" lon="4.47649">
        <ele>358.9</ele>
        <time>2020-06-25T06:17:57Z</time>
      </trkpt>
      <trkpt lat="49.92186" lon="4.47656">
        <ele>358.9</ele>
        <time>2020-06-25T06:17:58Z</time>
      </trkpt>
      <trkpt lat="49.92184" lon="4.47662">
        <ele>358.9</ele>
        <time>2020-06-25T06:17:59Z</time>
      </trkpt>
      <trkpt lat="49.92182" lon="4.47668">
        <ele>358.9</ele>
        <time>2020-06-25T06:18:00Z</time>
      </trkpt>
      <trkpt lat="49.9218" lon="4.47675">
        <ele>358.8</ele>
        <time>2020-06-25T06:18:01Z</time>
      </trkpt>
      <trkpt lat="49.92178" lon="4.47681">
        <ele>358.8</ele>
        <time>2020-06-25T06:18:02Z</time>
      </trkpt>
      <trkpt lat="49.92176" lon="4.47687">
        <ele>358.8</ele>
        <time>2020-06-25T06:18:03Z</time>
      </trkpt>
      <trkpt lat="49.92174" lon="4.47696">
        <ele>358.7</ele>
        <time>2020-06-25T06:18:04Z</time>
      </trkpt>
      <trkpt lat="49.92172" lon="4.47705">
        <ele>358.6</ele>
        <time>2020-06-25T06:18:05Z</time>
      </trkpt>
      <trkpt lat="49.9217" lon="4.47714">
        <ele>358.5</ele>
        <time>2020-06-25T06:18:06Z</time>
      </trkpt>
      <trkpt lat="49.92168" lon="4.47722">
        <ele>358.4</ele>
        <time>2020-06-25T06:18:07Z</time>
      </trkpt>
      <trkpt lat="49.92166" lon="4.4773">
        <ele>358.2</ele>
        <time>2020-06-25T06:18:08Z</time>
      </trkpt>
      <trkpt lat="49.92165" lon="4.47738">
        <ele>358.1</ele>
        <time>2020-06-25T06:18:09Z</time>
      </trkpt>
      <trkpt lat="49.92163" lon="4.47747">
        <ele>357.9</ele>
        <time>2020-06-25T06:18:10Z</time>
      </trkpt>
      <trkpt lat="49.92161" lon="4.47756">
        <ele>357.7</ele>
        <time>2020-06-25T06:18:11Z</time>
      </trkpt>
      <trkpt lat="49.92159" lon="4.47766">
        <ele>357.5</ele>
        <time>2020-06-25T06:18:12Z</time>
      </trkpt>
      <trkpt lat="49.92158" lon="4.47774">
        <ele>357.3</ele>
        <time>2020-06-25T06:18:13Z</time>
      </trkpt>
      <trkpt lat="49.92157" lon="4.47784">
        <ele>357.1</ele>
        <time>2020-06-25T06:18:14Z</time>
      </trkpt>
      <trkpt lat="49.92155" lon="4.47793">
        <ele>356.8</ele>
        <time>2020-06-25T06:18:15Z</time>
      </trkpt>
      <trkpt lat="49.92153" lon="4.47803">
        <ele>356.6</ele>
        <time>2020-06-25T06:18:16Z</time>
      </trkpt>
      <trkpt lat="49.92152" lon="4.47813">
        <ele>356.3</ele>
        <time>2020-06-25T06:18:17Z</time>
      </trkpt>
      <trkpt lat="49.9215" lon="4.47823">
        <ele>356.1</ele>
        <time>2020-06-25T06:18:18Z</time>
      </trkpt>
      <trkpt lat="49.92148" lon="4.47833">
        <ele>355.8</ele>
        <time>2020-06-25T06:18:19Z</time>
      </trkpt>
      <trkpt lat="49.92146" lon="4.47843">
        <ele>355.6</ele>
        <time>2020-06-25T06:18:20Z</time>
      </trkpt>
      <trkpt lat="49.92144" lon="4.47853">
        <ele>355.3</ele>
        <time>2020-06-25T06:18:21Z</time>
      </trkpt>
      <trkpt lat="49.92143" lon="4.47863">
        <ele>355.1</ele>
        <time>2020-06-25T06:18:22Z</time>
      </trkpt>
      <trkpt lat="49.92141" lon="4.47874">
        <ele>354.8</ele>
        <time>2020-06-25T06:18:23Z</time>
      </trkpt>
      <trkpt lat="49.9214" lon="4.47885">
        <ele>354.5</ele>
        <time>2020-06-25T06:18:24Z</time>
      </trkpt>
      <trkpt lat="49.92138" lon="4.47895">
        <ele>354.3</ele>
        <time>2020-06-25T06:18:25Z</time>
      </trkpt>
      <trkpt lat="49.92136" lon="4.47906">
        <ele>354</ele>
        <time>2020-06-25T06:18:26Z</time>
      </trkpt>
      <trkpt lat="49.92134" lon="4.47917">
        <ele>353.8</ele>
        <time>2020-06-25T06:18:27Z</time>
      </trkpt>
      <trkpt lat="49.92132" lon="4.47929">
        <ele>353.5</ele>
        <time>2020-06-25T06:18:28Z</time>
      </trkpt>
      <trkpt lat="49.9213" lon="4.47941">
        <ele>353.3</ele>
        <time>2020-06-25T06:18:29Z</time>
      </trkpt>
      <trkpt lat="49.92128" lon="4.47952">
        <ele>353</ele>
        <time>2020-06-25T06:18:30Z</time>
      </trkpt>
      <trkpt lat="49.92126" lon="4.47963">
        <ele>352.9</ele>
        <time>2020-06-25T06:18:31Z</time>
      </trkpt>
      <trkpt lat="49.92124" lon="4.47974">
        <ele>352.8</ele>
        <time>2020-06-25T06:18:32Z</time>
      </trkpt>
      <trkpt lat="49.92122" lon="4.47985">
        <ele>352.7</ele>
        <time>2020-06-25T06:18:33Z</time>
      </trkpt>
      <trkpt lat="49.9212" lon="4.47995">
        <ele>352.6</ele>
        <time>2020-06-25T06:18:34Z</time>
      </trkpt>
      <trkpt lat="49.92118" lon="4.48006">
        <ele>352.5</ele>
        <time>2020-06-25T06:18:35Z</time>
      </trkpt>
      <trkpt lat="49.92117" lon="4.48017">
        <ele>352.5</ele>
        <time>2020-06-25T06:18:36Z</time>
      </trkpt>
      <trkpt lat="49.92115" lon="4.48027">
        <ele>352.5</ele>
        <time>2020-06-25T06:18:37Z</time>
      </trkpt>
      <trkpt lat="49.92114" lon="4.48038">
        <ele>352.5</ele>
        <time>2020-06-25T06:18:38Z</time>
      </trkpt>
      <trkpt lat="49.92112" lon="4.48047">
        <ele>352.5</ele>
        <time>2020-06-25T06:18:39Z</time>
      </trkpt>
      <trkpt lat="49.92112" lon="4.48057">
        <ele>352.6</ele>
        <time>2020-06-25T06:18:40Z</time>
      </trkpt>
      <trkpt lat="49.92111" lon="4.48066">
        <ele>352.7</ele>
        <time>2020-06-25T06:18:41Z</time>
      </trkpt>
      <trkpt lat="49.92112" lon="4.48075">
        <ele>352.8</ele>
        <time>2020-06-25T06:18:42Z</time>
      </trkpt>
      <trkpt lat="49.92111" lon="4.48085">
        <ele>352.9</ele>
        <time>2020-06-25T06:18:43Z</time>
      </trkpt>
      <trkpt lat="49.92111" lon="4.48094">
        <ele>353.1</ele>
        <time>2020-06-25T06:18:44Z</time>
      </trkpt>
      <trkpt lat="49.92111" lon="4.48103">
        <ele>353.5</ele>
        <time>2020-06-25T06:18:45Z</time>
      </trkpt>
      <trkpt lat="49.92111" lon="4.48112">
        <ele>353.5</ele>
        <time>2020-06-25T06:18:46Z</time>
      </trkpt>
      <trkpt lat="49.92111" lon="4.4812">
        <ele>353.5</ele>
        <time>2020-06-25T06:18:47Z</time>
      </trkpt>
      <trkpt lat="49.92112" lon="4.48129">
        <ele>353.4</ele>
        <time>2020-06-25T06:18:48Z</time>
      </trkpt>
      <trkpt lat="49.92113" lon="4.48137">
        <ele>353.4</ele>
        <time>2020-06-25T06:18:49Z</time>
      </trkpt>
      <trkpt lat="49.92114" lon="4.48145">
        <ele>353.5</ele>
        <time>2020-06-25T06:18:50Z</time>
      </trkpt>
      <trkpt lat="49.92115" lon="4.48154">
        <ele>353.5</ele>
        <time>2020-06-25T06:18:51Z</time>
      </trkpt>
      <trkpt lat="49.92115" lon="4.48163">
        <ele>353.6</ele>
        <time>2020-06-25T06:18:52Z</time>
      </trkpt>
      <trkpt lat="49.92116" lon="4.48171">
        <ele>353.7</ele>
        <time>2020-06-25T06:18:53Z</time>
      </trkpt>
      <trkpt lat="49.92117" lon="4.4818">
        <ele>353.9</ele>
        <time>2020-06-25T06:18:54Z</time>
      </trkpt>
      <trkpt lat="49.92119" lon="4.48188">
        <ele>354</ele>
        <time>2020-06-25T06:18:55Z</time>
      </trkpt>
      <trkpt lat="49.9212" lon="4.48196">
        <ele>354.1</ele>
        <time>2020-06-25T06:18:56Z</time>
      </trkpt>
      <trkpt lat="49.92121" lon="4.48204">
        <ele>354.2</ele>
        <time>2020-06-25T06:18:57Z</time>
      </trkpt>
      <trkpt lat="49.92122" lon="4.48212">
        <ele>354.3</ele>
        <time>2020-06-25T06:18:58Z</time>
      </trkpt>
      <trkpt lat="49.92122" lon="4.4822">
        <ele>354.4</ele>
        <time>2020-06-25T06:18:59Z</time>
      </trkpt>
      <trkpt lat="49.92122" lon="4.48228">
        <ele>354.5</ele>
        <time>2020-06-25T06:19:00Z</time>
      </trkpt>
      <trkpt lat="49.92123" lon="4.48236">
        <ele>354.6</ele>
        <time>2020-06-25T06:19:01Z</time>
      </trkpt>
      <trkpt lat="49.92124" lon="4.48244">
        <ele>354.7</ele>
        <time>2020-06-25T06:19:02Z</time>
      </trkpt>
      <trkpt lat="49.92124" lon="4.48252">
        <ele>354.9</ele>
        <time>2020-06-25T06:19:03Z</time>
      </trkpt>
      <trkpt lat="49.92125" lon="4.4826">
        <ele>355</ele>
        <time>2020-06-25T06:19:04Z</time>
      </trkpt>
      <trkpt lat="49.92125" lon="4.48268">
        <ele>355.1</ele>
        <time>2020-06-25T06:19:05Z</time>
      </trkpt>
      <trkpt lat="49.92126" lon="4.48275">
        <ele>355.1</ele>
        <time>2020-06-25T06:19:06Z</time>
      </trkpt>
      <trkpt lat="49.92127" lon="4.48284">
        <ele>355.3</ele>
        <time>2020-06-25T06:19:07Z</time>
      </trkpt>
      <trkpt lat="49.92127" lon="4.48291">
        <ele>355.3</ele>
        <time>2020-06-25T06:19:08Z</time>
      </trkpt>
      <trkpt lat="49.92129" lon="4.48299">
        <ele>355.5</ele>
        <time>2020-06-25T06:19:09Z</time>
      </trkpt>
      <trkpt lat="49.9213" lon="4.48307">
        <ele>355.6</ele>
        <time>2020-06-25T06:19:10Z</time>
      </trkpt>
      <trkpt lat="49.92131" lon="4.48315">
        <ele>355.7</ele>
        <time>2020-06-25T06:19:11Z</time>
      </trkpt>
      <trkpt lat="49.92132" lon="4.48322">
        <ele>355.8</ele>
        <time>2020-06-25T06:19:12Z</time>
      </trkpt>
      <trkpt lat="49.92133" lon="4.48328">
        <ele>355.9</ele>
        <time>2020-06-25T06:19:13Z</time>
      </trkpt>
      <trkpt lat="49.92134" lon="4.48335">
        <ele>356</ele>
        <time>2020-06-25T06:19:14Z</time>
      </trkpt>
      <trkpt lat="49.92134" lon="4.48344">
        <ele>356.1</ele>
        <time>2020-06-25T06:19:15Z</time>
      </trkpt>
      <trkpt lat="49.92135" lon="4.48354">
        <ele>356.3</ele>
        <time>2020-06-25T06:19:16Z</time>
      </trkpt>
      <trkpt lat="49.92135" lon="4.48363">
        <ele>356.4</ele>
        <time>2020-06-25T06:19:17Z</time>
      </trkpt>
      <trkpt lat="49.92136" lon="4.48372">
        <ele>356.5</ele>
        <time>2020-06-25T06:19:18Z</time>
      </trkpt>
      <trkpt lat="49.92137" lon="4.48382">
        <ele>356.6</ele>
        <time>2020-06-25T06:19:19Z</time>
      </trkpt>
      <trkpt lat="49.92138" lon="4.4839">
        <ele>356.8</ele>
        <time>2020-06-25T06:19:20Z</time>
      </trkpt>
      <trkpt lat="49.92139" lon="4.48397">
        <ele>356.9</ele>
        <time>2020-06-25T06:19:21Z</time>
      </trkpt>
      <trkpt lat="49.92139" lon="4.48405">
        <ele>357</ele>
        <time>2020-06-25T06:19:22Z</time>
      </trkpt>
      <trkpt lat="49.9214" lon="4.48413">
        <ele>357.1</ele>
        <time>2020-06-25T06:19:23Z</time>
      </trkpt>
      <trkpt lat="49.92141" lon="4.48421">
        <ele>357.2</ele>
        <time>2020-06-25T06:19:24Z</time>
      </trkpt>
      <trkpt lat="49.92141" lon="4.48427">
        <ele>357.3</ele>
        <time>2020-06-25T06:19:25Z</time>
      </trkpt>
      <trkpt lat="49.92142" lon="4.48434">
        <ele>357.4</ele>
        <time>2020-06-25T06:19:26Z</time>
      </trkpt>
      <trkpt lat="49.92142" lon="4.4844">
        <ele>357.5</ele>
        <time>2020-06-25T06:19:27Z</time>
      </trkpt>
      <trkpt lat="49.92143" lon="4.48447">
        <ele>357.6</ele>
        <time>2020-06-25T06:19:28Z</time>
      </trkpt>
      <trkpt lat="49.92143" lon="4.48456">
        <ele>357.6</ele>
        <time>2020-06-25T06:19:29Z</time>
      </trkpt>
      <trkpt lat="49.92143" lon="4.48462">
        <ele>357.7</ele>
        <time>2020-06-25T06:19:30Z</time>
      </trkpt>
      <trkpt lat="49.92143" lon="4.4847">
        <ele>357.8</ele>
        <time>2020-06-25T06:19:31Z</time>
      </trkpt>
      <trkpt lat="49.92143" lon="4.48478">
        <ele>357.9</ele>
        <time>2020-06-25T06:19:32Z</time>
      </trkpt>
      <trkpt lat="49.92143" lon="4.48486">
        <ele>358</ele>
        <time>2020-06-25T06:19:33Z</time>
      </trkpt>
      <trkpt lat="49.92142" lon="4.48492">
        <ele>358.1</ele>
        <time>2020-06-25T06:19:34Z</time>
      </trkpt>
      <trkpt lat="49.92141" lon="4.485">
        <ele>358.2</ele>
        <time>2020-06-25T06:19:35Z</time>
      </trkpt>
      <trkpt lat="49.92141" lon="4.48506">
        <ele>358.2</ele>
        <time>2020-06-25T06:19:36Z</time>
      </trkpt>
      <trkpt lat="49.92141" lon="4.48514">
        <ele>358.3</ele>
        <time>2020-06-25T06:19:37Z</time>
      </trkpt>
      <trkpt lat="49.92141" lon="4.48521">
        <ele>358.4</ele>
        <time>2020-06-25T06:19:38Z</time>
      </trkpt>
      <trkpt lat="49.9214" lon="4.48529">
        <ele>358.5</ele>
        <time>2020-06-25T06:19:39Z</time>
      </trkpt>
      <trkpt lat="49.9214" lon="4.48537">
        <ele>358.5</ele>
        <time>2020-06-25T06:19:40Z</time>
      </trkpt>
      <trkpt lat="49.9214" lon="4.48545">
        <ele>358.6</ele>
        <time>2020-06-25T06:19:41Z</time>
      </trkpt>
      <trkpt lat="49.92139" lon="4.48552">
        <ele>358.6</ele>
        <time>2020-06-25T06:19:42Z</time>
      </trkpt>
      <trkpt lat="49.92139" lon="4.4856">
        <ele>358.7</ele>
        <time>2020-06-25T06:19:43Z</time>
      </trkpt>
      <trkpt lat="49.92138" lon="4.48567">
        <ele>358.7</ele>
        <time>2020-06-25T06:19:44Z</time>
      </trkpt>
      <trkpt lat="49.92138" lon="4.48575">
        <ele>358.8</ele>
        <time>2020-06-25T06:19:45Z</time>
      </trkpt>
      <trkpt lat="49.92138" lon="4.48583">
        <ele>358.8</ele>
        <time>2020-06-25T06:19:46Z</time>
      </trkpt>
      <trkpt lat="49.92137" lon="4.4859">
        <ele>358.8</ele>
        <time>2020-06-25T06:19:47Z</time>
      </trkpt>
      <trkpt lat="49.92137" lon="4.48599">
        <ele>358.8</ele>
        <time>2020-06-25T06:19:48Z</time>
      </trkpt>
      <trkpt lat="49.92136" lon="4.48607">
        <ele>358.8</ele>
        <time>2020-06-25T06:19:49Z</time>
      </trkpt>
      <trkpt lat="49.92136" lon="4.48614">
        <ele>358.8</ele>
        <time>2020-06-25T06:19:50Z</time>
      </trkpt>
      <trkpt lat="49.92135" lon="4.4862">
        <ele>358.8</ele>
        <time>2020-06-25T06:19:51Z</time>
      </trkpt>
      <trkpt lat="49.92135" lon="4.48628">
        <ele>358.8</ele>
        <time>2020-06-25T06:19:52Z</time>
      </trkpt>
      <trkpt lat="49.92134" lon="4.48636">
        <ele>358.7</ele>
        <time>2020-06-25T06:19:53Z</time>
      </trkpt>
      <trkpt lat="49.92133" lon="4.48644">
        <ele>358.7</ele>
        <time>2020-06-25T06:19:54Z</time>
      </trkpt>
      <trkpt lat="49.92132" lon="4.4865">
        <ele>358.7</ele>
        <time>2020-06-25T06:19:55Z</time>
      </trkpt>
      <trkpt lat="49.92132" lon="4.48657">
        <ele>358.6</ele>
        <time>2020-06-25T06:19:56Z</time>
      </trkpt>
      <trkpt lat="49.9213" lon="4.48666">
        <ele>358.5</ele>
        <time>2020-06-25T06:19:57Z</time>
      </trkpt>
      <trkpt lat="49.9213" lon="4.48674">
        <ele>358.4</ele>
        <time>2020-06-25T06:19:58Z</time>
      </trkpt>
      <trkpt lat="49.92129" lon="4.48682">
        <ele>358.3</ele>
        <time>2020-06-25T06:19:59Z</time>
      </trkpt>
      <trkpt lat="49.92128" lon="4.48689">
        <ele>358.2</ele>
        <time>2020-06-25T06:20:00Z</time>
      </trkpt>
      <trkpt lat="49.92127" lon="4.48699">
        <ele>358.1</ele>
        <time>2020-06-25T06:20:01Z</time>
      </trkpt>
      <trkpt lat="49.92124" lon="4.4871">
        <ele>358</ele>
        <time>2020-06-25T06:20:02Z</time>
      </trkpt>
      <trkpt lat="49.92123" lon="4.48719">
        <ele>357.8</ele>
        <time>2020-06-25T06:20:03Z</time>
      </trkpt>
      <trkpt lat="49.92121" lon="4.48728">
        <ele>357.7</ele>
        <time>2020-06-25T06:20:04Z</time>
      </trkpt>
      <trkpt lat="49.92119" lon="4.48736">
        <ele>357.6</ele>
        <time>2020-06-25T06:20:05Z</time>
      </trkpt>
      <trkpt lat="49.92117" lon="4.48745">
        <ele>357.4</ele>
        <time>2020-06-25T06:20:06Z</time>
      </trkpt>
      <trkpt lat="49.92114" lon="4.48753">
        <ele>357.2</ele>
        <time>2020-06-25T06:20:07Z</time>
      </trkpt>
      <trkpt lat="49.92112" lon="4.48761">
        <ele>357.1</ele>
        <time>2020-06-25T06:20:08Z</time>
      </trkpt>
      <trkpt lat="49.9211" lon="4.48768">
        <ele>356.9</ele>
        <time>2020-06-25T06:20:09Z</time>
      </trkpt>
      <trkpt lat="49.92108" lon="4.48775">
        <ele>356.7</ele>
        <time>2020-06-25T06:20:10Z</time>
      </trkpt>
      <trkpt lat="49.92104" lon="4.48782">
        <ele>356.5</ele>
        <time>2020-06-25T06:20:11Z</time>
      </trkpt>
      <trkpt lat="49.92101" lon="4.48788">
        <ele>356.4</ele>
        <time>2020-06-25T06:20:12Z</time>
      </trkpt>
      <trkpt lat="49.92097" lon="4.48794">
        <ele>356.2</ele>
        <time>2020-06-25T06:20:13Z</time>
      </trkpt>
      <trkpt lat="49.92094" lon="4.48801">
        <ele>356.1</ele>
        <time>2020-06-25T06:20:14Z</time>
      </trkpt>
      <trkpt lat="49.9209" lon="4.48807">
        <ele>355.9</ele>
        <time>2020-06-25T06:20:15Z</time>
      </trkpt>
      <trkpt lat="49.92085" lon="4.48815">
        <ele>355.7</ele>
        <time>2020-06-25T06:20:16Z</time>
      </trkpt>
      <trkpt lat="49.92081" lon="4.48823">
        <ele>355.5</ele>
        <time>2020-06-25T06:20:17Z</time>
      </trkpt>
      <trkpt lat="49.92077" lon="4.4883">
        <ele>355.3</ele>
        <time>2020-06-25T06:20:18Z</time>
      </trkpt>
      <trkpt lat="49.92074" lon="4.48837">
        <ele>355.1</ele>
        <time>2020-06-25T06:20:19Z</time>
      </trkpt>
      <trkpt lat="49.9207" lon="4.48843">
        <ele>354.9</ele>
        <time>2020-06-25T06:20:20Z</time>
      </trkpt>
      <trkpt lat="49.92066" lon="4.48849">
        <ele>354.7</ele>
        <time>2020-06-25T06:20:21Z</time>
      </trkpt>
      <trkpt lat="49.92061" lon="4.48855">
        <ele>354.5</ele>
        <time>2020-06-25T06:20:22Z</time>
      </trkpt>
      <trkpt lat="49.92056" lon="4.48862">
        <ele>354.2</ele>
        <time>2020-06-25T06:20:23Z</time>
      </trkpt>
      <trkpt lat="49.9205" lon="4.48869">
        <ele>353.9</ele>
        <time>2020-06-25T06:20:24Z</time>
      </trkpt>
      <trkpt lat="49.92044" lon="4.48878">
        <ele>353.6</ele>
        <time>2020-06-25T06:20:25Z</time>
      </trkpt>
      <trkpt lat="49.92038" lon="4.48886">
        <ele>353.3</ele>
        <time>2020-06-25T06:20:26Z</time>
      </trkpt>
      <trkpt lat="49.92032" lon="4.48893">
        <ele>353.1</ele>
        <time>2020-06-25T06:20:27Z</time>
      </trkpt>
      <trkpt lat="49.92026" lon="4.489">
        <ele>352.9</ele>
        <time>2020-06-25T06:20:28Z</time>
      </trkpt>
      <trkpt lat="49.92021" lon="4.48906">
        <ele>352.7</ele>
        <time>2020-06-25T06:20:29Z</time>
      </trkpt>
      <trkpt lat="49.92014" lon="4.48914">
        <ele>352.5</ele>
        <time>2020-06-25T06:20:30Z</time>
      </trkpt>
      <trkpt lat="49.92009" lon="4.4892">
        <ele>352.4</ele>
        <time>2020-06-25T06:20:31Z</time>
      </trkpt>
      <trkpt lat="49.92003" lon="4.48927">
        <ele>352.4</ele>
        <time>2020-06-25T06:20:32Z</time>
      </trkpt>
      <trkpt lat="49.91998" lon="4.48934">
        <ele>352.4</ele>
        <time>2020-06-25T06:20:33Z</time>
      </trkpt>
      <trkpt lat="49.91994" lon="4.48941">
        <ele>352.5</ele>
        <time>2020-06-25T06:20:34Z</time>
      </trkpt>
      <trkpt lat="49.91989" lon="4.48947">
        <ele>352.5</ele>
        <time>2020-06-25T06:20:35Z</time>
      </trkpt>
      <trkpt lat="49.91985" lon="4.48951">
        <ele>352.6</ele>
        <time>2020-06-25T06:20:36Z</time>
      </trkpt>
      <trkpt lat="49.91982" lon="4.48956">
        <ele>352.7</ele>
        <time>2020-06-25T06:20:37Z</time>
      </trkpt>
      <trkpt lat="49.91979" lon="4.48959">
        <ele>352.8</ele>
        <time>2020-06-25T06:20:38Z</time>
      </trkpt>
      <trkpt lat="49.91978" lon="4.48962">
        <ele>352.8</ele>
        <time>2020-06-25T06:20:39Z</time>
      </trkpt>
      <trkpt lat="49.91975" lon="4.48966">
        <ele>352.9</ele>
        <time>2020-06-25T06:20:40Z</time>
      </trkpt>
      <trkpt lat="49.91975" lon="4.48967">
        <ele>352.9</ele>
        <time>2020-06-25T06:20:41Z</time>
      </trkpt>
      <trkpt lat="49.91974" lon="4.48972">
        <ele>353</ele>
        <time>2020-06-25T06:20:42Z</time>
      </trkpt>
      <trkpt lat="49.91974" lon="4.48974">
        <ele>353</ele>
        <time>2020-06-25T06:20:43Z</time>
      </trkpt>
      <trkpt lat="49.91975" lon="4.48977">
        <ele>352.9</ele>
        <time>2020-06-25T06:20:44Z</time>
      </trkpt>
      <trkpt lat="49.91977" lon="4.48982">
        <ele>352.9</ele>
        <time>2020-06-25T06:20:45Z</time>
      </trkpt>
      <trkpt lat="49.91979" lon="4.48988">
        <ele>352.8</ele>
        <time>2020-06-25T06:20:46Z</time>
      </trkpt>
      <trkpt lat="49.91981" lon="4.48995">
        <ele>352.8</ele>
        <time>2020-06-25T06:20:47Z</time>
      </trkpt>
      <trkpt lat="49.91983" lon="4.49001">
        <ele>352.7</ele>
        <time>2020-06-25T06:20:48Z</time>
      </trkpt>
      <trkpt lat="49.91985" lon="4.49007">
        <ele>352.7</ele>
        <time>2020-06-25T06:20:49Z</time>
      </trkpt>
      <trkpt lat="49.91988" lon="4.49014">
        <ele>352.6</ele>
        <time>2020-06-25T06:20:50Z</time>
      </trkpt>
      <trkpt lat="49.91991" lon="4.4902">
        <ele>352.6</ele>
        <time>2020-06-25T06:20:51Z</time>
      </trkpt>
      <trkpt lat="49.91993" lon="4.49027">
        <ele>352.6</ele>
        <time>2020-06-25T06:20:52Z</time>
      </trkpt>
      <trkpt lat="49.91996" lon="4.49033">
        <ele>352.6</ele>
        <time>2020-06-25T06:20:53Z</time>
      </trkpt>
      <trkpt lat="49.91998" lon="4.4904">
        <ele>352.7</ele>
        <time>2020-06-25T06:20:54Z</time>
      </trkpt>
      <trkpt lat="49.92001" lon="4.49047">
        <ele>352.7</ele>
        <time>2020-06-25T06:20:55Z</time>
      </trkpt>
      <trkpt lat="49.92003" lon="4.49054">
        <ele>352.8</ele>
        <time>2020-06-25T06:20:56Z</time>
      </trkpt>
      <trkpt lat="49.92005" lon="4.49062">
        <ele>352.9</ele>
        <time>2020-06-25T06:20:57Z</time>
      </trkpt>
      <trkpt lat="49.92008" lon="4.49069">
        <ele>353</ele>
        <time>2020-06-25T06:20:58Z</time>
      </trkpt>
      <trkpt lat="49.92011" lon="4.49076">
        <ele>353.1</ele>
        <time>2020-06-25T06:20:59Z</time>
      </trkpt>
      <trkpt lat="49.92014" lon="4.49082">
        <ele>353.3</ele>
        <time>2020-06-25T06:21:00Z</time>
      </trkpt>
      <trkpt lat="49.92017" lon="4.4909">
        <ele>353.4</ele>
        <time>2020-06-25T06:21:01Z</time>
      </trkpt>
      <trkpt lat="49.92019" lon="4.49097">
        <ele>353.5</ele>
        <time>2020-06-25T06:21:02Z</time>
      </trkpt>
      <trkpt lat="49.92021" lon="4.49104">
        <ele>353.7</ele>
        <time>2020-06-25T06:21:03Z</time>
      </trkpt>
      <trkpt lat="49.92023" lon="4.49111">
        <ele>353.8</ele>
        <time>2020-06-25T06:21:04Z</time>
      </trkpt>
      <trkpt lat="49.92026" lon="4.49117">
        <ele>354</ele>
        <time>2020-06-25T06:21:05Z</time>
      </trkpt>
      <trkpt lat="49.92029" lon="4.49123">
        <ele>354.2</ele>
        <time>2020-06-25T06:21:06Z</time>
      </trkpt>
      <trkpt lat="49.92031" lon="4.49129">
        <ele>354.3</ele>
        <time>2020-06-25T06:21:07Z</time>
      </trkpt>
      <trkpt lat="49.92033" lon="4.49134">
        <ele>354.5</ele>
        <time>2020-06-25T06:21:08Z</time>
      </trkpt>
      <trkpt lat="49.92035" lon="4.49138">
        <ele>354.6</ele>
        <time>2020-06-25T06:21:09Z</time>
      </trkpt>
      <trkpt lat="49.92037" lon="4.49145">
        <ele>354.8</ele>
        <time>2020-06-25T06:21:10Z</time>
      </trkpt>
      <trkpt lat="49.9204" lon="4.49151">
        <ele>355</ele>
        <time>2020-06-25T06:21:11Z</time>
      </trkpt>
      <trkpt lat="49.92042" lon="4.49157">
        <ele>355.1</ele>
        <time>2020-06-25T06:21:12Z</time>
      </trkpt>
      <trkpt lat="49.92045" lon="4.49163">
        <ele>355.3</ele>
        <time>2020-06-25T06:21:13Z</time>
      </trkpt>
      <trkpt lat="49.92046" lon="4.49168">
        <ele>355.5</ele>
        <time>2020-06-25T06:21:14Z</time>
      </trkpt>
      <trkpt lat="49.92049" lon="4.49175">
        <ele>355.7</ele>
        <time>2020-06-25T06:21:15Z</time>
      </trkpt>
      <trkpt lat="49.92051" lon="4.49182">
        <ele>355.9</ele>
        <time>2020-06-25T06:21:16Z</time>
      </trkpt>
      <trkpt lat="49.92053" lon="4.49188">
        <ele>356</ele>
        <time>2020-06-25T06:21:17Z</time>
      </trkpt>
      <trkpt lat="49.92056" lon="4.49197">
        <ele>356.2</ele>
        <time>2020-06-25T06:21:18Z</time>
      </trkpt>
      <trkpt lat="49.92058" lon="4.49203">
        <ele>356.4</ele>
        <time>2020-06-25T06:21:19Z</time>
      </trkpt>
      <trkpt lat="49.92061" lon="4.49209">
        <ele>356.6</ele>
        <time>2020-06-25T06:21:20Z</time>
      </trkpt>
      <trkpt lat="49.92063" lon="4.49216">
        <ele>356.7</ele>
        <time>2020-06-25T06:21:21Z</time>
      </trkpt>
      <trkpt lat="49.92065" lon="4.49222">
        <ele>356.9</ele>
        <time>2020-06-25T06:21:22Z</time>
      </trkpt>
      <trkpt lat="49.92067" lon="4.49229">
        <ele>357.1</ele>
        <time>2020-06-25T06:21:23Z</time>
      </trkpt>
      <trkpt lat="49.92069" lon="4.49236">
        <ele>357.2</ele>
        <time>2020-06-25T06:21:24Z</time>
      </trkpt>
      <trkpt lat="49.92072" lon="4.49243">
        <ele>357.4</ele>
        <time>2020-06-25T06:21:25Z</time>
      </trkpt>
      <trkpt lat="49.92074" lon="4.4925">
        <ele>357.5</ele>
        <time>2020-06-25T06:21:26Z</time>
      </trkpt>
      <trkpt lat="49.92077" lon="4.49256">
        <ele>357.7</ele>
        <time>2020-06-25T06:21:27Z</time>
      </trkpt>
      <trkpt lat="49.92079" lon="4.49261">
        <ele>357.8</ele>
        <time>2020-06-25T06:21:28Z</time>
      </trkpt>
      <trkpt lat="49.92081" lon="4.49267">
        <ele>358</ele>
        <time>2020-06-25T06:21:29Z</time>
      </trkpt>
      <trkpt lat="49.92083" lon="4.49273">
        <ele>358.2</ele>
        <time>2020-06-25T06:21:30Z</time>
      </trkpt>
      <trkpt lat="49.92086" lon="4.4928">
        <ele>358.4</ele>
        <time>2020-06-25T06:21:31Z</time>
      </trkpt>
      <trkpt lat="49.92088" lon="4.49287">
        <ele>358.6</ele>
        <time>2020-06-25T06:21:32Z</time>
      </trkpt>
      <trkpt lat="49.9209" lon="4.49293">
        <ele>358.7</ele>
        <time>2020-06-25T06:21:33Z</time>
      </trkpt>
      <trkpt lat="49.92092" lon="4.49299">
        <ele>358.9</ele>
        <time>2020-06-25T06:21:34Z</time>
      </trkpt>
      <trkpt lat="49.92095" lon="4.49305">
        <ele>359.1</ele>
        <time>2020-06-25T06:21:35Z</time>
      </trkpt>
      <trkpt lat="49.92097" lon="4.49311">
        <ele>359.2</ele>
        <time>2020-06-25T06:21:36Z</time>
      </trkpt>
      <trkpt lat="49.92099" lon="4.49316">
        <ele>359.3</ele>
        <time>2020-06-25T06:21:37Z</time>
      </trkpt>
      <trkpt lat="49.92101" lon="4.49322">
        <ele>359.5</ele>
        <time>2020-06-25T06:21:38Z</time>
      </trkpt>
      <trkpt lat="49.92102" lon="4.49327">
        <ele>359.6</ele>
        <time>2020-06-25T06:21:39Z</time>
      </trkpt>
      <trkpt lat="49.92104" lon="4.49334">
        <ele>359.7</ele>
        <time>2020-06-25T06:21:40Z</time>
      </trkpt>
      <trkpt lat="49.92106" lon="4.49339">
        <ele>359.9</ele>
        <time>2020-06-25T06:21:41Z</time>
      </trkpt>
      <trkpt lat="49.92108" lon="4.49346">
        <ele>360</ele>
        <time>2020-06-25T06:21:42Z</time>
      </trkpt>
      <trkpt lat="49.92111" lon="4.49352">
        <ele>360.2</ele>
        <time>2020-06-25T06:21:43Z</time>
      </trkpt>
      <trkpt lat="49.92113" lon="4.49358">
        <ele>360.4</ele>
        <time>2020-06-25T06:21:44Z</time>
      </trkpt>
      <trkpt lat="49.92115" lon="4.49364">
        <ele>360.5</ele>
        <time>2020-06-25T06:21:45Z</time>
      </trkpt>
      <trkpt lat="49.92118" lon="4.49369">
        <ele>360.7</ele>
        <time>2020-06-25T06:21:46Z</time>
      </trkpt>
      <trkpt lat="49.9212" lon="4.49375">
        <ele>360.8</ele>
        <time>2020-06-25T06:21:47Z</time>
      </trkpt>
      <trkpt lat="49.92121" lon="4.49378">
        <ele>360.9</ele>
        <time>2020-06-25T06:21:48Z</time>
      </trkpt>
      <trkpt lat="49.92123" lon="4.49384">
        <ele>361</ele>
        <time>2020-06-25T06:21:49Z</time>
      </trkpt>
      <trkpt lat="49.92125" lon="4.4939">
        <ele>361.2</ele>
        <time>2020-06-25T06:21:50Z</time>
      </trkpt>
      <trkpt lat="49.92128" lon="4.49397">
        <ele>361.3</ele>
        <time>2020-06-25T06:21:51Z</time>
      </trkpt>
      <trkpt lat="49.9213" lon="4.49402">
        <ele>361.5</ele>
        <time>2020-06-25T06:21:52Z</time>
      </trkpt>
      <trkpt lat="49.92132" lon="4.49409">
        <ele>361.6</ele>
        <time>2020-06-25T06:21:53Z</time>
      </trkpt>
      <trkpt lat="49.92135" lon="4.49415">
        <ele>361.7</ele>
        <time>2020-06-25T06:21:54Z</time>
      </trkpt>
      <trkpt lat="49.92136" lon="4.49419">
        <ele>361.9</ele>
        <time>2020-06-25T06:21:55Z</time>
      </trkpt>
      <trkpt lat="49.92138" lon="4.49425">
        <ele>362</ele>
        <time>2020-06-25T06:21:56Z</time>
      </trkpt>
      <trkpt lat="49.9214" lon="4.4943">
        <ele>362.1</ele>
        <time>2020-06-25T06:21:57Z</time>
      </trkpt>
      <trkpt lat="49.92142" lon="4.49437">
        <ele>362.2</ele>
        <time>2020-06-25T06:21:58Z</time>
      </trkpt>
      <trkpt lat="49.92145" lon="4.49444">
        <ele>362.4</ele>
        <time>2020-06-25T06:21:59Z</time>
      </trkpt>
      <trkpt lat="49.92148" lon="4.49449">
        <ele>362.5</ele>
        <time>2020-06-25T06:22:00Z</time>
      </trkpt>
      <trkpt lat="49.9215" lon="4.49455">
        <ele>362.6</ele>
        <time>2020-06-25T06:22:01Z</time>
      </trkpt>
      <trkpt lat="49.92153" lon="4.49462">
        <ele>362.7</ele>
        <time>2020-06-25T06:22:02Z</time>
      </trkpt>
      <trkpt lat="49.92155" lon="4.49467">
        <ele>362.8</ele>
        <time>2020-06-25T06:22:03Z</time>
      </trkpt>
      <trkpt lat="49.92157" lon="4.49473">
        <ele>362.9</ele>
        <time>2020-06-25T06:22:04Z</time>
      </trkpt>
      <trkpt lat="49.92159" lon="4.49479">
        <ele>363</ele>
        <time>2020-06-25T06:22:05Z</time>
      </trkpt>
      <trkpt lat="49.92162" lon="4.49484">
        <ele>363.1</ele>
        <time>2020-06-25T06:22:06Z</time>
      </trkpt>
      <trkpt lat="49.92165" lon="4.49491">
        <ele>363.3</ele>
        <time>2020-06-25T06:22:07Z</time>
      </trkpt>
      <trkpt lat="49.92167" lon="4.49497">
        <ele>363.4</ele>
        <time>2020-06-25T06:22:08Z</time>
      </trkpt>
      <trkpt lat="49.9217" lon="4.49504">
        <ele>363.5</ele>
        <time>2020-06-25T06:22:09Z</time>
      </trkpt>
      <trkpt lat="49.92171" lon="4.49509">
        <ele>363.6</ele>
        <time>2020-06-25T06:22:10Z</time>
      </trkpt>
      <trkpt lat="49.92172" lon="4.49514">
        <ele>363.7</ele>
        <time>2020-06-25T06:22:11Z</time>
      </trkpt>
      <trkpt lat="49.92174" lon="4.4952">
        <ele>363.8</ele>
        <time>2020-06-25T06:22:12Z</time>
      </trkpt>
      <trkpt lat="49.92176" lon="4.49526">
        <ele>363.9</ele>
        <time>2020-06-25T06:22:13Z</time>
      </trkpt>
      <trkpt lat="49.92178" lon="4.49533">
        <ele>364</ele>
        <time>2020-06-25T06:22:14Z</time>
      </trkpt>
      <trkpt lat="49.92179" lon="4.4954">
        <ele>364.2</ele>
        <time>2020-06-25T06:22:15Z</time>
      </trkpt>
      <trkpt lat="49.92181" lon="4.49545">
        <ele>364.2</ele>
        <time>2020-06-25T06:22:16Z</time>
      </trkpt>
      <trkpt lat="49.92182" lon="4.49551">
        <ele>364.4</ele>
        <time>2020-06-25T06:22:17Z</time>
      </trkpt>
      <trkpt lat="49.92184" lon="4.49559">
        <ele>364.5</ele>
        <time>2020-06-25T06:22:18Z</time>
      </trkpt>
      <trkpt lat="49.92186" lon="4.49566">
        <ele>364.6</ele>
        <time>2020-06-25T06:22:19Z</time>
      </trkpt>
      <trkpt lat="49.92188" lon="4.49573">
        <ele>364.8</ele>
        <time>2020-06-25T06:22:20Z</time>
      </trkpt>
      <trkpt lat="49.9219" lon="4.4958">
        <ele>364.9</ele>
        <time>2020-06-25T06:22:21Z</time>
      </trkpt>
      <trkpt lat="49.9219" lon="4.49587">
        <ele>365.1</ele>
        <time>2020-06-25T06:22:22Z</time>
      </trkpt>
      <trkpt lat="49.92191" lon="4.4959">
        <ele>365.1</ele>
        <time>2020-06-25T06:22:23Z</time>
      </trkpt>
      <trkpt lat="49.92193" lon="4.49596">
        <ele>365.3</ele>
        <time>2020-06-25T06:22:24Z</time>
      </trkpt>
      <trkpt lat="49.92195" lon="4.49603">
        <ele>365.5</ele>
        <time>2020-06-25T06:22:25Z</time>
      </trkpt>
      <trkpt lat="49.92197" lon="4.4961">
        <ele>365.6</ele>
        <time>2020-06-25T06:22:26Z</time>
      </trkpt>
      <trkpt lat="49.92199" lon="4.49617">
        <ele>365.8</ele>
        <time>2020-06-25T06:22:27Z</time>
      </trkpt>
      <trkpt lat="49.922" lon="4.49622">
        <ele>365.9</ele>
        <time>2020-06-25T06:22:28Z</time>
      </trkpt>
      <trkpt lat="49.92201" lon="4.49628">
        <ele>366</ele>
        <time>2020-06-25T06:22:29Z</time>
      </trkpt>
      <trkpt lat="49.92203" lon="4.49635">
        <ele>366.1</ele>
        <time>2020-06-25T06:22:30Z</time>
      </trkpt>
      <trkpt lat="49.92205" lon="4.49641">
        <ele>366.2</ele>
        <time>2020-06-25T06:22:31Z</time>
      </trkpt>
      <trkpt lat="49.92207" lon="4.49647">
        <ele>366.3</ele>
        <time>2020-06-25T06:22:32Z</time>
      </trkpt>
      <trkpt lat="49.92208" lon="4.49654">
        <ele>366.4</ele>
        <time>2020-06-25T06:22:33Z</time>
      </trkpt>
      <trkpt lat="49.9221" lon="4.49662">
        <ele>366.5</ele>
        <time>2020-06-25T06:22:34Z</time>
      </trkpt>
      <trkpt lat="49.92211" lon="4.49668">
        <ele>366.7</ele>
        <time>2020-06-25T06:22:35Z</time>
      </trkpt>
      <trkpt lat="49.92213" lon="4.49674">
        <ele>366.8</ele>
        <time>2020-06-25T06:22:36Z</time>
      </trkpt>
      <trkpt lat="49.92214" lon="4.4968">
        <ele>366.9</ele>
        <time>2020-06-25T06:22:37Z</time>
      </trkpt>
      <trkpt lat="49.92215" lon="4.49686">
        <ele>367</ele>
        <time>2020-06-25T06:22:38Z</time>
      </trkpt>
      <trkpt lat="49.92217" lon="4.4969">
        <ele>367.1</ele>
        <time>2020-06-25T06:22:39Z</time>
      </trkpt>
      <trkpt lat="49.92218" lon="4.49696">
        <ele>367.3</ele>
        <time>2020-06-25T06:22:40Z</time>
      </trkpt>
      <trkpt lat="49.9222" lon="4.49702">
        <ele>367.4</ele>
        <time>2020-06-25T06:22:41Z</time>
      </trkpt>
      <trkpt lat="49.92222" lon="4.49709">
        <ele>367.5</ele>
        <time>2020-06-25T06:22:42Z</time>
      </trkpt>
      <trkpt lat="49.92224" lon="4.49717">
        <ele>367.7</ele>
        <time>2020-06-25T06:22:43Z</time>
      </trkpt>
      <trkpt lat="49.92225" lon="4.49723">
        <ele>367.8</ele>
        <time>2020-06-25T06:22:44Z</time>
      </trkpt>
      <trkpt lat="49.92226" lon="4.49728">
        <ele>367.9</ele>
        <time>2020-06-25T06:22:45Z</time>
      </trkpt>
      <trkpt lat="49.92228" lon="4.49734">
        <ele>368</ele>
        <time>2020-06-25T06:22:46Z</time>
      </trkpt>
      <trkpt lat="49.92229" lon="4.49739">
        <ele>368.1</ele>
        <time>2020-06-25T06:22:47Z</time>
      </trkpt>
      <trkpt lat="49.92231" lon="4.49745">
        <ele>368.2</ele>
        <time>2020-06-25T06:22:48Z</time>
      </trkpt>
      <trkpt lat="49.92233" lon="4.49752">
        <ele>368.3</ele>
        <time>2020-06-25T06:22:49Z</time>
      </trkpt>
      <trkpt lat="49.92235" lon="4.49759">
        <ele>368.4</ele>
        <time>2020-06-25T06:22:50Z</time>
      </trkpt>
      <trkpt lat="49.92236" lon="4.49766">
        <ele>368.5</ele>
        <time>2020-06-25T06:22:51Z</time>
      </trkpt>
      <trkpt lat="49.92238" lon="4.49772">
        <ele>368.6</ele>
        <time>2020-06-25T06:22:52Z</time>
      </trkpt>
      <trkpt lat="49.9224" lon="4.49779">
        <ele>368.7</ele>
        <time>2020-06-25T06:22:53Z</time>
      </trkpt>
      <trkpt lat="49.92242" lon="4.49786">
        <ele>368.8</ele>
        <time>2020-06-25T06:22:54Z</time>
      </trkpt>
      <trkpt lat="49.92244" lon="4.49793">
        <ele>368.9</ele>
        <time>2020-06-25T06:22:55Z</time>
      </trkpt>
      <trkpt lat="49.92246" lon="4.49801">
        <ele>369.1</ele>
        <time>2020-06-25T06:22:56Z</time>
      </trkpt>
      <trkpt lat="49.92248" lon="4.49808">
        <ele>369.2</ele>
        <time>2020-06-25T06:22:57Z</time>
      </trkpt>
      <trkpt lat="49.92249" lon="4.49814">
        <ele>369.3</ele>
        <time>2020-06-25T06:22:58Z</time>
      </trkpt>
      <trkpt lat="49.92251" lon="4.4982">
        <ele>369.4</ele>
        <time>2020-06-25T06:22:59Z</time>
      </trkpt>
      <trkpt lat="49.92253" lon="4.49827">
        <ele>369.5</ele>
        <time>2020-06-25T06:23:00Z</time>
      </trkpt>
      <trkpt lat="49.92255" lon="4.49836">
        <ele>369.6</ele>
        <time>2020-06-25T06:23:01Z</time>
      </trkpt>
      <trkpt lat="49.92257" lon="4.49842">
        <ele>369.7</ele>
        <time>2020-06-25T06:23:02Z</time>
      </trkpt>
      <trkpt lat="49.92259" lon="4.49849">
        <ele>369.8</ele>
        <time>2020-06-25T06:23:03Z</time>
      </trkpt>
      <trkpt lat="49.92261" lon="4.49856">
        <ele>369.8</ele>
        <time>2020-06-25T06:23:04Z</time>
      </trkpt>
      <trkpt lat="49.92263" lon="4.49864">
        <ele>369.9</ele>
        <time>2020-06-25T06:23:05Z</time>
      </trkpt>
      <trkpt lat="49.92265" lon="4.49872">
        <ele>370.1</ele>
        <time>2020-06-25T06:23:06Z</time>
      </trkpt>
      <trkpt lat="49.92267" lon="4.49879">
        <ele>370.2</ele>
        <time>2020-06-25T06:23:07Z</time>
      </trkpt>
      <trkpt lat="49.92269" lon="4.49885">
        <ele>370.3</ele>
        <time>2020-06-25T06:23:08Z</time>
      </trkpt>
      <trkpt lat="49.9227" lon="4.49891">
        <ele>370.4</ele>
        <time>2020-06-25T06:23:09Z</time>
      </trkpt>
      <trkpt lat="49.92271" lon="4.49898">
        <ele>370.5</ele>
        <time>2020-06-25T06:23:10Z</time>
      </trkpt>
      <trkpt lat="49.92273" lon="4.49905">
        <ele>370.7</ele>
        <time>2020-06-25T06:23:11Z</time>
      </trkpt>
      <trkpt lat="49.92275" lon="4.49911">
        <ele>370.7</ele>
        <time>2020-06-25T06:23:12Z</time>
      </trkpt>
      <trkpt lat="49.92277" lon="4.49919">
        <ele>370.9</ele>
        <time>2020-06-25T06:23:13Z</time>
      </trkpt>
      <trkpt lat="49.9228" lon="4.49928">
        <ele>371</ele>
        <time>2020-06-25T06:23:14Z</time>
      </trkpt>
      <trkpt lat="49.92282" lon="4.49935">
        <ele>371.1</ele>
        <time>2020-06-25T06:23:15Z</time>
      </trkpt>
      <trkpt lat="49.92284" lon="4.49941">
        <ele>371.2</ele>
        <time>2020-06-25T06:23:16Z</time>
      </trkpt>
      <trkpt lat="49.92286" lon="4.49948">
        <ele>371.3</ele>
        <time>2020-06-25T06:23:17Z</time>
      </trkpt>
      <trkpt lat="49.92288" lon="4.49957">
        <ele>371.3</ele>
        <time>2020-06-25T06:23:18Z</time>
      </trkpt>
      <trkpt lat="49.9229" lon="4.49964">
        <ele>371.4</ele>
        <time>2020-06-25T06:23:19Z</time>
      </trkpt>
      <trkpt lat="49.92292" lon="4.49971">
        <ele>371.5</ele>
        <time>2020-06-25T06:23:20Z</time>
      </trkpt>
      <trkpt lat="49.92295" lon="4.49977">
        <ele>371.6</ele>
        <time>2020-06-25T06:23:21Z</time>
      </trkpt>
      <trkpt lat="49.92297" lon="4.49984">
        <ele>371.7</ele>
        <time>2020-06-25T06:23:22Z</time>
      </trkpt>
      <trkpt lat="49.92298" lon="4.49989">
        <ele>371.8</ele>
        <time>2020-06-25T06:23:23Z</time>
      </trkpt>
      <trkpt lat="49.92299" lon="4.49997">
        <ele>371.9</ele>
        <time>2020-06-25T06:23:24Z</time>
      </trkpt>
      <trkpt lat="49.923" lon="4.50004">
        <ele>372</ele>
        <time>2020-06-25T06:23:25Z</time>
      </trkpt>
      <trkpt lat="49.92302" lon="4.5001">
        <ele>372.1</ele>
        <time>2020-06-25T06:23:26Z</time>
      </trkpt>
      <trkpt lat="49.92303" lon="4.50018">
        <ele>372.2</ele>
        <time>2020-06-25T06:23:27Z</time>
      </trkpt>
      <trkpt lat="49.92303" lon="4.50026">
        <ele>372.4</ele>
        <time>2020-06-25T06:23:28Z</time>
      </trkpt>
      <trkpt lat="49.92304" lon="4.50033">
        <ele>372.5</ele>
        <time>2020-06-25T06:23:29Z</time>
      </trkpt>
      <trkpt lat="49.92305" lon="4.50041">
        <ele>372.6</ele>
        <time>2020-06-25T06:23:30Z</time>
      </trkpt>
      <trkpt lat="49.92306" lon="4.50048">
        <ele>372.7</ele>
        <time>2020-06-25T06:23:31Z</time>
      </trkpt>
      <trkpt lat="49.92306" lon="4.50055">
        <ele>372.8</ele>
        <time>2020-06-25T06:23:32Z</time>
      </trkpt>
      <trkpt lat="49.92307" lon="4.50062">
        <ele>372.9</ele>
        <time>2020-06-25T06:23:33Z</time>
      </trkpt>
      <trkpt lat="49.92307" lon="4.50068">
        <ele>373</ele>
        <time>2020-06-25T06:23:34Z</time>
      </trkpt>
      <trkpt lat="49.92307" lon="4.50075">
        <ele>373.1</ele>
        <time>2020-06-25T06:23:35Z</time>
      </trkpt>
      <trkpt lat="49.92308" lon="4.50083">
        <ele>373.1</ele>
        <time>2020-06-25T06:23:36Z</time>
      </trkpt>
      <trkpt lat="49.92307" lon="4.50091">
        <ele>373.1</ele>
        <time>2020-06-25T06:23:37Z</time>
      </trkpt>
      <trkpt lat="49.92307" lon="4.50098">
        <ele>373.2</ele>
        <time>2020-06-25T06:23:38Z</time>
      </trkpt>
      <trkpt lat="49.92307" lon="4.50104">
        <ele>373.2</ele>
        <time>2020-06-25T06:23:39Z</time>
      </trkpt>
      <trkpt lat="49.92307" lon="4.50109">
        <ele>373.2</ele>
        <time>2020-06-25T06:23:40Z</time>
      </trkpt>
      <trkpt lat="49.92307" lon="4.50115">
        <ele>373.2</ele>
        <time>2020-06-25T06:23:41Z</time>
      </trkpt>
      <trkpt lat="49.92306" lon="4.50121">
        <ele>373.2</ele>
        <time>2020-06-25T06:23:42Z</time>
      </trkpt>
      <trkpt lat="49.92304" lon="4.50131">
        <ele>373.3</ele>
        <time>2020-06-25T06:23:43Z</time>
      </trkpt>
      <trkpt lat="49.92303" lon="4.50139">
        <ele>373.4</ele>
        <time>2020-06-25T06:23:44Z</time>
      </trkpt>
      <trkpt lat="49.92302" lon="4.50147">
        <ele>373.5</ele>
        <time>2020-06-25T06:23:45Z</time>
      </trkpt>
      <trkpt lat="49.92301" lon="4.50154">
        <ele>373.5</ele>
        <time>2020-06-25T06:23:46Z</time>
      </trkpt>
      <trkpt lat="49.923" lon="4.50161">
        <ele>373.6</ele>
        <time>2020-06-25T06:23:47Z</time>
      </trkpt>
      <trkpt lat="49.92299" lon="4.50169">
        <ele>373.6</ele>
        <time>2020-06-25T06:23:48Z</time>
      </trkpt>
      <trkpt lat="49.92297" lon="4.50177">
        <ele>373.7</ele>
        <time>2020-06-25T06:23:49Z</time>
      </trkpt>
      <trkpt lat="49.92296" lon="4.50185">
        <ele>373.8</ele>
        <time>2020-06-25T06:23:50Z</time>
      </trkpt>
      <trkpt lat="49.92294" lon="4.50193">
        <ele>373.8</ele>
        <time>2020-06-25T06:23:51Z</time>
      </trkpt>
      <trkpt lat="49.92293" lon="4.50202">
        <ele>373.9</ele>
        <time>2020-06-25T06:23:52Z</time>
      </trkpt>
      <trkpt lat="49.92292" lon="4.50209">
        <ele>373.9</ele>
        <time>2020-06-25T06:23:53Z</time>
      </trkpt>
      <trkpt lat="49.92291" lon="4.50218">
        <ele>374</ele>
        <time>2020-06-25T06:23:54Z</time>
      </trkpt>
      <trkpt lat="49.9229" lon="4.50226">
        <ele>374</ele>
        <time>2020-06-25T06:23:55Z</time>
      </trkpt>
      <trkpt lat="49.92288" lon="4.50235">
        <ele>374.1</ele>
        <time>2020-06-25T06:23:56Z</time>
      </trkpt>
      <trkpt lat="49.92287" lon="4.50244">
        <ele>374.1</ele>
        <time>2020-06-25T06:23:57Z</time>
      </trkpt>
      <trkpt lat="49.92286" lon="4.50252">
        <ele>374.1</ele>
        <time>2020-06-25T06:23:58Z</time>
      </trkpt>
      <trkpt lat="49.92285" lon="4.50259">
        <ele>374.2</ele>
        <time>2020-06-25T06:23:59Z</time>
      </trkpt>
      <trkpt lat="49.92284" lon="4.50266">
        <ele>374.2</ele>
        <time>2020-06-25T06:24:00Z</time>
      </trkpt>
      <trkpt lat="49.92283" lon="4.50274">
        <ele>374.2</ele>
        <time>2020-06-25T06:24:01Z</time>
      </trkpt>
      <trkpt lat="49.92283" lon="4.50281">
        <ele>374.3</ele>
        <time>2020-06-25T06:24:02Z</time>
      </trkpt>
      <trkpt lat="49.92282" lon="4.50288">
        <ele>374.3</ele>
        <time>2020-06-25T06:24:03Z</time>
      </trkpt>
      <trkpt lat="49.92281" lon="4.50296">
        <ele>374.3</ele>
        <time>2020-06-25T06:24:04Z</time>
      </trkpt>
      <trkpt lat="49.9228" lon="4.50304">
        <ele>374.4</ele>
        <time>2020-06-25T06:24:05Z</time>
      </trkpt>
      <trkpt lat="49.92279" lon="4.50312">
        <ele>374.4</ele>
        <time>2020-06-25T06:24:06Z</time>
      </trkpt>
      <trkpt lat="49.92278" lon="4.5032">
        <ele>374.5</ele>
        <time>2020-06-25T06:24:07Z</time>
      </trkpt>
      <trkpt lat="49.92277" lon="4.50329">
        <ele>374.5</ele>
        <time>2020-06-25T06:24:08Z</time>
      </trkpt>
      <trkpt lat="49.92276" lon="4.50337">
        <ele>374.6</ele>
        <time>2020-06-25T06:24:09Z</time>
      </trkpt>
      <trkpt lat="49.92275" lon="4.50345">
        <ele>374.7</ele>
        <time>2020-06-25T06:24:10Z</time>
      </trkpt>
      <trkpt lat="49.92273" lon="4.50352">
        <ele>374.7</ele>
        <time>2020-06-25T06:24:11Z</time>
      </trkpt>
      <trkpt lat="49.92272" lon="4.5036">
        <ele>374.7</ele>
        <time>2020-06-25T06:24:12Z</time>
      </trkpt>
      <trkpt lat="49.92271" lon="4.50367">
        <ele>374.8</ele>
        <time>2020-06-25T06:24:13Z</time>
      </trkpt>
      <trkpt lat="49.9227" lon="4.50375">
        <ele>374.8</ele>
        <time>2020-06-25T06:24:14Z</time>
      </trkpt>
      <trkpt lat="49.92269" lon="4.50384">
        <ele>374.9</ele>
        <time>2020-06-25T06:24:15Z</time>
      </trkpt>
      <trkpt lat="49.92268" lon="4.50393">
        <ele>374.9</ele>
        <time>2020-06-25T06:24:16Z</time>
      </trkpt>
      <trkpt lat="49.92267" lon="4.50401">
        <ele>375</ele>
        <time>2020-06-25T06:24:17Z</time>
      </trkpt>
      <trkpt lat="49.92266" lon="4.50409">
        <ele>375.1</ele>
        <time>2020-06-25T06:24:18Z</time>
      </trkpt>
      <trkpt lat="49.92265" lon="4.50417">
        <ele>375.1</ele>
        <time>2020-06-25T06:24:19Z</time>
      </trkpt>
      <trkpt lat="49.92265" lon="4.50425">
        <ele>375.2</ele>
        <time>2020-06-25T06:24:20Z</time>
      </trkpt>
      <trkpt lat="49.92264" lon="4.50433">
        <ele>375.2</ele>
        <time>2020-06-25T06:24:21Z</time>
      </trkpt>
      <trkpt lat="49.92263" lon="4.50441">
        <ele>375.3</ele>
        <time>2020-06-25T06:24:22Z</time>
      </trkpt>
      <trkpt lat="49.92262" lon="4.50448">
        <ele>375.3</ele>
        <time>2020-06-25T06:24:23Z</time>
      </trkpt>
      <trkpt lat="49.92261" lon="4.50457">
        <ele>375.4</ele>
        <time>2020-06-25T06:24:24Z</time>
      </trkpt>
      <trkpt lat="49.9226" lon="4.50464">
        <ele>375.5</ele>
        <time>2020-06-25T06:24:25Z</time>
      </trkpt>
      <trkpt lat="49.92258" lon="4.50473">
        <ele>375.6</ele>
        <time>2020-06-25T06:24:26Z</time>
      </trkpt>
      <trkpt lat="49.92257" lon="4.50481">
        <ele>375.7</ele>
        <time>2020-06-25T06:24:27Z</time>
      </trkpt>
      <trkpt lat="49.92256" lon="4.50489">
        <ele>375.8</ele>
        <time>2020-06-25T06:24:28Z</time>
      </trkpt>
      <trkpt lat="49.92255" lon="4.50496">
        <ele>375.9</ele>
        <time>2020-06-25T06:24:29Z</time>
      </trkpt>
      <trkpt lat="49.92254" lon="4.50504">
        <ele>375.9</ele>
        <time>2020-06-25T06:24:30Z</time>
      </trkpt>
      <trkpt lat="49.92253" lon="4.50511">
        <ele>376</ele>
        <time>2020-06-25T06:24:31Z</time>
      </trkpt>
      <trkpt lat="49.92252" lon="4.50518">
        <ele>376.1</ele>
        <time>2020-06-25T06:24:32Z</time>
      </trkpt>
      <trkpt lat="49.92252" lon="4.50525">
        <ele>376.2</ele>
        <time>2020-06-25T06:24:33Z</time>
      </trkpt>
      <trkpt lat="49.92251" lon="4.50533">
        <ele>376.3</ele>
        <time>2020-06-25T06:24:34Z</time>
      </trkpt>
      <trkpt lat="49.9225" lon="4.5054">
        <ele>376.5</ele>
        <time>2020-06-25T06:24:35Z</time>
      </trkpt>
      <trkpt lat="49.92251" lon="4.50546">
        <ele>376.6</ele>
        <time>2020-06-25T06:24:36Z</time>
      </trkpt>
      <trkpt lat="49.9225" lon="4.50552">
        <ele>376.7</ele>
        <time>2020-06-25T06:24:37Z</time>
      </trkpt>
      <trkpt lat="49.92249" lon="4.50559">
        <ele>376.8</ele>
        <time>2020-06-25T06:24:38Z</time>
      </trkpt>
      <trkpt lat="49.92248" lon="4.50565">
        <ele>376.9</ele>
        <time>2020-06-25T06:24:39Z</time>
      </trkpt>
      <trkpt lat="49.92247" lon="4.50572">
        <ele>377</ele>
        <time>2020-06-25T06:24:40Z</time>
      </trkpt>
      <trkpt lat="49.92246" lon="4.5058">
        <ele>377.1</ele>
        <time>2020-06-25T06:24:41Z</time>
      </trkpt>
      <trkpt lat="49.92245" lon="4.50587">
        <ele>377.2</ele>
        <time>2020-06-25T06:24:42Z</time>
      </trkpt>
      <trkpt lat="49.92244" lon="4.50595">
        <ele>377.3</ele>
        <time>2020-06-25T06:24:43Z</time>
      </trkpt>
      <trkpt lat="49.92243" lon="4.50602">
        <ele>377.4</ele>
        <time>2020-06-25T06:24:44Z</time>
      </trkpt>
      <trkpt lat="49.92242" lon="4.50608">
        <ele>377.5</ele>
        <time>2020-06-25T06:24:45Z</time>
      </trkpt>
      <trkpt lat="49.92241" lon="4.50616">
        <ele>377.6</ele>
        <time>2020-06-25T06:24:46Z</time>
      </trkpt>
      <trkpt lat="49.9224" lon="4.50623">
        <ele>377.7</ele>
        <time>2020-06-25T06:24:47Z</time>
      </trkpt>
      <trkpt lat="49.92239" lon="4.50631">
        <ele>377.7</ele>
        <time>2020-06-25T06:24:48Z</time>
      </trkpt>
      <trkpt lat="49.92238" lon="4.50639">
        <ele>377.8</ele>
        <time>2020-06-25T06:24:49Z</time>
      </trkpt>
      <trkpt lat="49.92238" lon="4.50647">
        <ele>377.9</ele>
        <time>2020-06-25T06:24:50Z</time>
      </trkpt>
      <trkpt lat="49.92237" lon="4.50656">
        <ele>377.9</ele>
        <time>2020-06-25T06:24:51Z</time>
      </trkpt>
      <trkpt lat="49.92237" lon="4.50664">
        <ele>378</ele>
        <time>2020-06-25T06:24:52Z</time>
      </trkpt>
      <trkpt lat="49.92236" lon="4.50672">
        <ele>378</ele>
        <time>2020-06-25T06:24:53Z</time>
      </trkpt>
      <trkpt lat="49.92235" lon="4.50682">
        <ele>378.1</ele>
        <time>2020-06-25T06:24:54Z</time>
      </trkpt>
      <trkpt lat="49.92234" lon="4.50691">
        <ele>378.2</ele>
        <time>2020-06-25T06:24:55Z</time>
      </trkpt>
      <trkpt lat="49.92233" lon="4.507">
        <ele>378.2</ele>
        <time>2020-06-25T06:24:56Z</time>
      </trkpt>
      <trkpt lat="49.92232" lon="4.50708">
        <ele>378.3</ele>
        <time>2020-06-25T06:24:57Z</time>
      </trkpt>
      <trkpt lat="49.9223" lon="4.50717">
        <ele>378.4</ele>
        <time>2020-06-25T06:24:58Z</time>
      </trkpt>
      <trkpt lat="49.92228" lon="4.50724">
        <ele>378.4</ele>
        <time>2020-06-25T06:24:59Z</time>
      </trkpt>
      <trkpt lat="49.92227" lon="4.50729">
        <ele>378.5</ele>
        <time>2020-06-25T06:25:00Z</time>
      </trkpt>
      <trkpt lat="49.92225" lon="4.50737">
        <ele>378.5</ele>
        <time>2020-06-25T06:25:01Z</time>
      </trkpt>
      <trkpt lat="49.92222" lon="4.50745">
        <ele>378.6</ele>
        <time>2020-06-25T06:25:02Z</time>
      </trkpt>
      <trkpt lat="49.9222" lon="4.50752">
        <ele>378.6</ele>
        <time>2020-06-25T06:25:03Z</time>
      </trkpt>
      <trkpt lat="49.92217" lon="4.5076">
        <ele>378.7</ele>
        <time>2020-06-25T06:25:04Z</time>
      </trkpt>
      <trkpt lat="49.92215" lon="4.50768">
        <ele>378.8</ele>
        <time>2020-06-25T06:25:05Z</time>
      </trkpt>
      <trkpt lat="49.92212" lon="4.50776">
        <ele>378.8</ele>
        <time>2020-06-25T06:25:06Z</time>
      </trkpt>
      <trkpt lat="49.92209" lon="4.50783">
        <ele>378.9</ele>
        <time>2020-06-25T06:25:07Z</time>
      </trkpt>
      <trkpt lat="49.92206" lon="4.50791">
        <ele>379</ele>
        <time>2020-06-25T06:25:08Z</time>
      </trkpt>
      <trkpt lat="49.92203" lon="4.50797">
        <ele>379.1</ele>
        <time>2020-06-25T06:25:09Z</time>
      </trkpt>
      <trkpt lat="49.92201" lon="4.50805">
        <ele>379.1</ele>
        <time>2020-06-25T06:25:10Z</time>
      </trkpt>
      <trkpt lat="49.92198" lon="4.50812">
        <ele>379.2</ele>
        <time>2020-06-25T06:25:11Z</time>
      </trkpt>
      <trkpt lat="49.92195" lon="4.50819">
        <ele>379.3</ele>
        <time>2020-06-25T06:25:12Z</time>
      </trkpt>
      <trkpt lat="49.92192" lon="4.50826">
        <ele>379.4</ele>
        <time>2020-06-25T06:25:13Z</time>
      </trkpt>
      <trkpt lat="49.9219" lon="4.50835">
        <ele>379.5</ele>
        <time>2020-06-25T06:25:14Z</time>
      </trkpt>
      <trkpt lat="49.92187" lon="4.50841">
        <ele>379.6</ele>
        <time>2020-06-25T06:25:15Z</time>
      </trkpt>
      <trkpt lat="49.92184" lon="4.50848">
        <ele>379.7</ele>
        <time>2020-06-25T06:25:16Z</time>
      </trkpt>
      <trkpt lat="49.92182" lon="4.50855">
        <ele>379.8</ele>
        <time>2020-06-25T06:25:17Z</time>
      </trkpt>
      <trkpt lat="49.92179" lon="4.50862">
        <ele>379.8</ele>
        <time>2020-06-25T06:25:18Z</time>
      </trkpt>
      <trkpt lat="49.92177" lon="4.5087">
        <ele>379.9</ele>
        <time>2020-06-25T06:25:19Z</time>
      </trkpt>
      <trkpt lat="49.92175" lon="4.50878">
        <ele>380</ele>
        <time>2020-06-25T06:25:20Z</time>
      </trkpt>
      <trkpt lat="49.92172" lon="4.50887">
        <ele>380.1</ele>
        <time>2020-06-25T06:25:21Z</time>
      </trkpt>
      <trkpt lat="49.92171" lon="4.50894">
        <ele>380.1</ele>
        <time>2020-06-25T06:25:22Z</time>
      </trkpt>
      <trkpt lat="49.92169" lon="4.50902">
        <ele>380.2</ele>
        <time>2020-06-25T06:25:23Z</time>
      </trkpt>
      <trkpt lat="49.92169" lon="4.50909">
        <ele>380.3</ele>
        <time>2020-06-25T06:25:24Z</time>
      </trkpt>
      <trkpt lat="49.92168" lon="4.50917">
        <ele>380.4</ele>
        <time>2020-06-25T06:25:25Z</time>
      </trkpt>
      <trkpt lat="49.92167" lon="4.50925">
        <ele>380.5</ele>
        <time>2020-06-25T06:25:26Z</time>
      </trkpt>
      <trkpt lat="49.92166" lon="4.50933">
        <ele>380.5</ele>
        <time>2020-06-25T06:25:27Z</time>
      </trkpt>
      <trkpt lat="49.92165" lon="4.50941">
        <ele>380.5</ele>
        <time>2020-06-25T06:25:28Z</time>
      </trkpt>
      <trkpt lat="49.92165" lon="4.50949">
        <ele>380.6</ele>
        <time>2020-06-25T06:25:29Z</time>
      </trkpt>
      <trkpt lat="49.92164" lon="4.50955">
        <ele>380.6</ele>
        <time>2020-06-25T06:25:30Z</time>
      </trkpt>
      <trkpt lat="49.92164" lon="4.50964">
        <ele>380.7</ele>
        <time>2020-06-25T06:25:31Z</time>
      </trkpt>
      <trkpt lat="49.92163" lon="4.50972">
        <ele>380.7</ele>
        <time>2020-06-25T06:25:32Z</time>
      </trkpt>
      <trkpt lat="49.92162" lon="4.50981">
        <ele>380.8</ele>
        <time>2020-06-25T06:25:33Z</time>
      </trkpt>
      <trkpt lat="49.92162" lon="4.50989">
        <ele>380.8</ele>
        <time>2020-06-25T06:25:34Z</time>
      </trkpt>
      <trkpt lat="49.92161" lon="4.50998">
        <ele>380.8</ele>
        <time>2020-06-25T06:25:35Z</time>
      </trkpt>
      <trkpt lat="49.9216" lon="4.51006">
        <ele>380.7</ele>
        <time>2020-06-25T06:25:36Z</time>
      </trkpt>
      <trkpt lat="49.92159" lon="4.51015">
        <ele>380.8</ele>
        <time>2020-06-25T06:25:37Z</time>
      </trkpt>
      <trkpt lat="49.92158" lon="4.51023">
        <ele>380.9</ele>
        <time>2020-06-25T06:25:38Z</time>
      </trkpt>
      <trkpt lat="49.92157" lon="4.51031">
        <ele>380.9</ele>
        <time>2020-06-25T06:25:39Z</time>
      </trkpt>
      <trkpt lat="49.92157" lon="4.51038">
        <ele>381</ele>
        <time>2020-06-25T06:25:40Z</time>
      </trkpt>
      <trkpt lat="49.92156" lon="4.51046">
        <ele>381</ele>
        <time>2020-06-25T06:25:41Z</time>
      </trkpt>
      <trkpt lat="49.92156" lon="4.51054">
        <ele>381.1</ele>
        <time>2020-06-25T06:25:42Z</time>
      </trkpt>
      <trkpt lat="49.92155" lon="4.51061">
        <ele>381.1</ele>
        <time>2020-06-25T06:25:43Z</time>
      </trkpt>
      <trkpt lat="49.92154" lon="4.51068">
        <ele>381.2</ele>
        <time>2020-06-25T06:25:44Z</time>
      </trkpt>
      <trkpt lat="49.92153" lon="4.51076">
        <ele>381.2</ele>
        <time>2020-06-25T06:25:45Z</time>
      </trkpt>
      <trkpt lat="49.92152" lon="4.51084">
        <ele>381.2</ele>
        <time>2020-06-25T06:25:46Z</time>
      </trkpt>
      <trkpt lat="49.92152" lon="4.51093">
        <ele>381.3</ele>
        <time>2020-06-25T06:25:47Z</time>
      </trkpt>
      <trkpt lat="49.92151" lon="4.51102">
        <ele>381.3</ele>
        <time>2020-06-25T06:25:48Z</time>
      </trkpt>
      <trkpt lat="49.9215" lon="4.51111">
        <ele>381.3</ele>
        <time>2020-06-25T06:25:49Z</time>
      </trkpt>
      <trkpt lat="49.92149" lon="4.5112">
        <ele>381.4</ele>
        <time>2020-06-25T06:25:50Z</time>
      </trkpt>
      <trkpt lat="49.92149" lon="4.51127">
        <ele>381.4</ele>
        <time>2020-06-25T06:25:51Z</time>
      </trkpt>
      <trkpt lat="49.92149" lon="4.51134">
        <ele>381.4</ele>
        <time>2020-06-25T06:25:52Z</time>
      </trkpt>
      <trkpt lat="49.92149" lon="4.51143">
        <ele>381.5</ele>
        <time>2020-06-25T06:25:53Z</time>
      </trkpt>
      <trkpt lat="49.92148" lon="4.51151">
        <ele>381.5</ele>
        <time>2020-06-25T06:25:54Z</time>
      </trkpt>
      <trkpt lat="49.92147" lon="4.51159">
        <ele>381.6</ele>
        <time>2020-06-25T06:25:55Z</time>
      </trkpt>
      <trkpt lat="49.92146" lon="4.51168">
        <ele>381.7</ele>
        <time>2020-06-25T06:25:56Z</time>
      </trkpt>
      <trkpt lat="49.92146" lon="4.51176">
        <ele>381.7</ele>
        <time>2020-06-25T06:25:57Z</time>
      </trkpt>
      <trkpt lat="49.92146" lon="4.51184">
        <ele>381.7</ele>
        <time>2020-06-25T06:25:58Z</time>
      </trkpt>
      <trkpt lat="49.92145" lon="4.51192">
        <ele>381.8</ele>
        <time>2020-06-25T06:25:59Z</time>
      </trkpt>
      <trkpt lat="49.92144" lon="4.51201">
        <ele>381.8</ele>
        <time>2020-06-25T06:26:00Z</time>
      </trkpt>
      <trkpt lat="49.92143" lon="4.51209">
        <ele>381.8</ele>
        <time>2020-06-25T06:26:01Z</time>
      </trkpt>
      <trkpt lat="49.92142" lon="4.51217">
        <ele>381.8</ele>
        <time>2020-06-25T06:26:02Z</time>
      </trkpt>
      <trkpt lat="49.92141" lon="4.51226">
        <ele>381.9</ele>
        <time>2020-06-25T06:26:03Z</time>
      </trkpt>
      <trkpt lat="49.92141" lon="4.51236">
        <ele>381.9</ele>
        <time>2020-06-25T06:26:04Z</time>
      </trkpt>
      <trkpt lat="49.9214" lon="4.51245">
        <ele>381.9</ele>
        <time>2020-06-25T06:26:05Z</time>
      </trkpt>
      <trkpt lat="49.92139" lon="4.51255">
        <ele>382</ele>
        <time>2020-06-25T06:26:06Z</time>
      </trkpt>
      <trkpt lat="49.92139" lon="4.51264">
        <ele>382</ele>
        <time>2020-06-25T06:26:07Z</time>
      </trkpt>
      <trkpt lat="49.92138" lon="4.51272">
        <ele>382</ele>
        <time>2020-06-25T06:26:08Z</time>
      </trkpt>
      <trkpt lat="49.92138" lon="4.51282">
        <ele>382.1</ele>
        <time>2020-06-25T06:26:09Z</time>
      </trkpt>
      <trkpt lat="49.92138" lon="4.5129">
        <ele>382.2</ele>
        <time>2020-06-25T06:26:10Z</time>
      </trkpt>
      <trkpt lat="49.92138" lon="4.51299">
        <ele>382.3</ele>
        <time>2020-06-25T06:26:11Z</time>
      </trkpt>
      <trkpt lat="49.92137" lon="4.51307">
        <ele>382.3</ele>
        <time>2020-06-25T06:26:12Z</time>
      </trkpt>
      <trkpt lat="49.92137" lon="4.51316">
        <ele>382.4</ele>
        <time>2020-06-25T06:26:13Z</time>
      </trkpt>
      <trkpt lat="49.92137" lon="4.51324">
        <ele>382.5</ele>
        <time>2020-06-25T06:26:14Z</time>
      </trkpt>
      <trkpt lat="49.92137" lon="4.51333">
        <ele>382.5</ele>
        <time>2020-06-25T06:26:15Z</time>
      </trkpt>
      <trkpt lat="49.92138" lon="4.51343">
        <ele>382.6</ele>
        <time>2020-06-25T06:26:16Z</time>
      </trkpt>
      <trkpt lat="49.92139" lon="4.51352">
        <ele>382.6</ele>
        <time>2020-06-25T06:26:17Z</time>
      </trkpt>
      <trkpt lat="49.9214" lon="4.51361">
        <ele>382.7</ele>
        <time>2020-06-25T06:26:18Z</time>
      </trkpt>
      <trkpt lat="49.92141" lon="4.5137">
        <ele>382.7</ele>
        <time>2020-06-25T06:26:19Z</time>
      </trkpt>
      <trkpt lat="49.92142" lon="4.51379">
        <ele>382.8</ele>
        <time>2020-06-25T06:26:20Z</time>
      </trkpt>
      <trkpt lat="49.92143" lon="4.51387">
        <ele>382.9</ele>
        <time>2020-06-25T06:26:21Z</time>
      </trkpt>
      <trkpt lat="49.92144" lon="4.51396">
        <ele>383</ele>
        <time>2020-06-25T06:26:22Z</time>
      </trkpt>
      <trkpt lat="49.92145" lon="4.51405">
        <ele>383</ele>
        <time>2020-06-25T06:26:23Z</time>
      </trkpt>
      <trkpt lat="49.92146" lon="4.51415">
        <ele>383.1</ele>
        <time>2020-06-25T06:26:24Z</time>
      </trkpt>
      <trkpt lat="49.92147" lon="4.51424">
        <ele>383.1</ele>
        <time>2020-06-25T06:26:25Z</time>
      </trkpt>
      <trkpt lat="49.92149" lon="4.51433">
        <ele>383.2</ele>
        <time>2020-06-25T06:26:26Z</time>
      </trkpt>
      <trkpt lat="49.9215" lon="4.51441">
        <ele>383.2</ele>
        <time>2020-06-25T06:26:27Z</time>
      </trkpt>
      <trkpt lat="49.92151" lon="4.51449">
        <ele>383.3</ele>
        <time>2020-06-25T06:26:28Z</time>
      </trkpt>
      <trkpt lat="49.92152" lon="4.51458">
        <ele>383.3</ele>
        <time>2020-06-25T06:26:29Z</time>
      </trkpt>
      <trkpt lat="49.92153" lon="4.51467">
        <ele>383.4</ele>
        <time>2020-06-25T06:26:30Z</time>
      </trkpt>
      <trkpt lat="49.92154" lon="4.51475">
        <ele>383.4</ele>
        <time>2020-06-25T06:26:31Z</time>
      </trkpt>
      <trkpt lat="49.92156" lon="4.51484">
        <ele>383.5</ele>
        <time>2020-06-25T06:26:32Z</time>
      </trkpt>
      <trkpt lat="49.92158" lon="4.51493">
        <ele>383.6</ele>
        <time>2020-06-25T06:26:33Z</time>
      </trkpt>
      <trkpt lat="49.92159" lon="4.51502">
        <ele>383.6</ele>
        <time>2020-06-25T06:26:34Z</time>
      </trkpt>
      <trkpt lat="49.9216" lon="4.51512">
        <ele>383.7</ele>
        <time>2020-06-25T06:26:35Z</time>
      </trkpt>
      <trkpt lat="49.92163" lon="4.51519">
        <ele>383.7</ele>
        <time>2020-06-25T06:26:36Z</time>
      </trkpt>
      <trkpt lat="49.92165" lon="4.51528">
        <ele>383.8</ele>
        <time>2020-06-25T06:26:37Z</time>
      </trkpt>
      <trkpt lat="49.92167" lon="4.51536">
        <ele>383.8</ele>
        <time>2020-06-25T06:26:38Z</time>
      </trkpt>
      <trkpt lat="49.92169" lon="4.51543">
        <ele>383.8</ele>
        <time>2020-06-25T06:26:39Z</time>
      </trkpt>
      <trkpt lat="49.92172" lon="4.51551">
        <ele>383.8</ele>
        <time>2020-06-25T06:26:40Z</time>
      </trkpt>
      <trkpt lat="49.92175" lon="4.51559">
        <ele>383.9</ele>
        <time>2020-06-25T06:26:41Z</time>
      </trkpt>
      <trkpt lat="49.92178" lon="4.51566">
        <ele>383.9</ele>
        <time>2020-06-25T06:26:42Z</time>
      </trkpt>
      <trkpt lat="49.9218" lon="4.51574">
        <ele>383.9</ele>
        <time>2020-06-25T06:26:43Z</time>
      </trkpt>
      <trkpt lat="49.92183" lon="4.51581">
        <ele>384</ele>
        <time>2020-06-25T06:26:44Z</time>
      </trkpt>
      <trkpt lat="49.92186" lon="4.51589">
        <ele>384</ele>
        <time>2020-06-25T06:26:45Z</time>
      </trkpt>
      <trkpt lat="49.92189" lon="4.51597">
        <ele>384.1</ele>
        <time>2020-06-25T06:26:46Z</time>
      </trkpt>
      <trkpt lat="49.92192" lon="4.51605">
        <ele>384.1</ele>
        <time>2020-06-25T06:26:47Z</time>
      </trkpt>
      <trkpt lat="49.92194" lon="4.51612">
        <ele>384.2</ele>
        <time>2020-06-25T06:26:48Z</time>
      </trkpt>
      <trkpt lat="49.92198" lon="4.5162">
        <ele>384.3</ele>
        <time>2020-06-25T06:26:49Z</time>
      </trkpt>
      <trkpt lat="49.92201" lon="4.51628">
        <ele>384.3</ele>
        <time>2020-06-25T06:26:50Z</time>
      </trkpt>
      <trkpt lat="49.92204" lon="4.51636">
        <ele>384.4</ele>
        <time>2020-06-25T06:26:51Z</time>
      </trkpt>
      <trkpt lat="49.92207" lon="4.51644">
        <ele>384.5</ele>
        <time>2020-06-25T06:26:52Z</time>
      </trkpt>
      <trkpt lat="49.9221" lon="4.51652">
        <ele>384.5</ele>
        <time>2020-06-25T06:26:53Z</time>
      </trkpt>
      <trkpt lat="49.92214" lon="4.5166">
        <ele>384.5</ele>
        <time>2020-06-25T06:26:54Z</time>
      </trkpt>
      <trkpt lat="49.92216" lon="4.51666">
        <ele>384.6</ele>
        <time>2020-06-25T06:26:55Z</time>
      </trkpt>
      <trkpt lat="49.9222" lon="4.51673">
        <ele>384.7</ele>
        <time>2020-06-25T06:26:56Z</time>
      </trkpt>
      <trkpt lat="49.92223" lon="4.5168">
        <ele>384.8</ele>
        <time>2020-06-25T06:26:57Z</time>
      </trkpt>
      <trkpt lat="49.92226" lon="4.51687">
        <ele>384.9</ele>
        <time>2020-06-25T06:26:58Z</time>
      </trkpt>
      <trkpt lat="49.92228" lon="4.51695">
        <ele>385</ele>
        <time>2020-06-25T06:26:59Z</time>
      </trkpt>
      <trkpt lat="49.92231" lon="4.51703">
        <ele>385.1</ele>
        <time>2020-06-25T06:27:00Z</time>
      </trkpt>
      <trkpt lat="49.92233" lon="4.5171">
        <ele>385.2</ele>
        <time>2020-06-25T06:27:01Z</time>
      </trkpt>
      <trkpt lat="49.92236" lon="4.51717">
        <ele>385.3</ele>
        <time>2020-06-25T06:27:02Z</time>
      </trkpt>
      <trkpt lat="49.92239" lon="4.51724">
        <ele>385.4</ele>
        <time>2020-06-25T06:27:03Z</time>
      </trkpt>
      <trkpt lat="49.92242" lon="4.5173">
        <ele>385.4</ele>
        <time>2020-06-25T06:27:04Z</time>
      </trkpt>
      <trkpt lat="49.92245" lon="4.51737">
        <ele>385.5</ele>
        <time>2020-06-25T06:27:05Z</time>
      </trkpt>
      <trkpt lat="49.92247" lon="4.51743">
        <ele>385.6</ele>
        <time>2020-06-25T06:27:06Z</time>
      </trkpt>
      <trkpt lat="49.9225" lon="4.51749">
        <ele>385.7</ele>
        <time>2020-06-25T06:27:07Z</time>
      </trkpt>
      <trkpt lat="49.92253" lon="4.51754">
        <ele>385.7</ele>
        <time>2020-06-25T06:27:08Z</time>
      </trkpt>
      <trkpt lat="49.92255" lon="4.5176">
        <ele>385.9</ele>
        <time>2020-06-25T06:27:09Z</time>
      </trkpt>
      <trkpt lat="49.92257" lon="4.51766">
        <ele>386</ele>
        <time>2020-06-25T06:27:10Z</time>
      </trkpt>
      <trkpt lat="49.92258" lon="4.51773">
        <ele>386.1</ele>
        <time>2020-06-25T06:27:11Z</time>
      </trkpt>
      <trkpt lat="49.92256" lon="4.51778">
        <ele>386</ele>
        <time>2020-06-25T06:27:12Z</time>
      </trkpt>
      <trkpt lat="49.92252" lon="4.51783">
        <ele>386</ele>
        <time>2020-06-25T06:27:13Z</time>
      </trkpt>
      <trkpt lat="49.92248" lon="4.51786">
        <ele>385.9</ele>
        <time>2020-06-25T06:27:14Z</time>
      </trkpt>
      <trkpt lat="49.92243" lon="4.51789">
        <ele>385.9</ele>
        <time>2020-06-25T06:27:15Z</time>
      </trkpt>
      <trkpt lat="49.92238" lon="4.51794">
        <ele>385.9</ele>
        <time>2020-06-25T06:27:16Z</time>
      </trkpt>
      <trkpt lat="49.92234" lon="4.51798">
        <ele>385.9</ele>
        <time>2020-06-25T06:27:17Z</time>
      </trkpt>
      <trkpt lat="49.9223" lon="4.51803">
        <ele>385.9</ele>
        <time>2020-06-25T06:27:18Z</time>
      </trkpt>
      <trkpt lat="49.92225" lon="4.51808">
        <ele>385.9</ele>
        <time>2020-06-25T06:27:19Z</time>
      </trkpt>
      <trkpt lat="49.9222" lon="4.51813">
        <ele>385.9</ele>
        <time>2020-06-25T06:27:20Z</time>
      </trkpt>
      <trkpt lat="49.92216" lon="4.51817">
        <ele>385.9</ele>
        <time>2020-06-25T06:27:21Z</time>
      </trkpt>
      <trkpt lat="49.92211" lon="4.51821">
        <ele>386</ele>
        <time>2020-06-25T06:27:22Z</time>
      </trkpt>
      <trkpt lat="49.92207" lon="4.51827">
        <ele>386</ele>
        <time>2020-06-25T06:27:23Z</time>
      </trkpt>
      <trkpt lat="49.92203" lon="4.51831">
        <ele>386</ele>
        <time>2020-06-25T06:27:24Z</time>
      </trkpt>
      <trkpt lat="49.92199" lon="4.51837">
        <ele>386</ele>
        <time>2020-06-25T06:27:25Z</time>
      </trkpt>
      <trkpt lat="49.92195" lon="4.51842">
        <ele>386</ele>
        <time>2020-06-25T06:27:26Z</time>
      </trkpt>
      <trkpt lat="49.9219" lon="4.51847">
        <ele>386.1</ele>
        <time>2020-06-25T06:27:27Z</time>
      </trkpt>
      <trkpt lat="49.92186" lon="4.51852">
        <ele>386.1</ele>
        <time>2020-06-25T06:27:28Z</time>
      </trkpt>
      <trkpt lat="49.92181" lon="4.51858">
        <ele>386.1</ele>
        <time>2020-06-25T06:27:29Z</time>
      </trkpt>
      <trkpt lat="49.92176" lon="4.51863">
        <ele>386.2</ele>
        <time>2020-06-25T06:27:30Z</time>
      </trkpt>
      <trkpt lat="49.92172" lon="4.51869">
        <ele>386.2</ele>
        <time>2020-06-25T06:27:31Z</time>
      </trkpt>
      <trkpt lat="49.92168" lon="4.51874">
        <ele>386.2</ele>
        <time>2020-06-25T06:27:32Z</time>
      </trkpt>
      <trkpt lat="49.92163" lon="4.51879">
        <ele>386.3</ele>
        <time>2020-06-25T06:27:33Z</time>
      </trkpt>
      <trkpt lat="49.9216" lon="4.51884">
        <ele>386.3</ele>
        <time>2020-06-25T06:27:34Z</time>
      </trkpt>
      <trkpt lat="49.92157" lon="4.51889">
        <ele>386.3</ele>
        <time>2020-06-25T06:27:35Z</time>
      </trkpt>
      <trkpt lat="49.92151" lon="4.51893">
        <ele>386.4</ele>
        <time>2020-06-25T06:27:36Z</time>
      </trkpt>
      <trkpt lat="49.92147" lon="4.51899">
        <ele>386.4</ele>
        <time>2020-06-25T06:27:37Z</time>
      </trkpt>
      <trkpt lat="49.92145" lon="4.51904">
        <ele>386.4</ele>
        <time>2020-06-25T06:27:38Z</time>
      </trkpt>
      <trkpt lat="49.9214" lon="4.51909">
        <ele>386.4</ele>
        <time>2020-06-25T06:27:39Z</time>
      </trkpt>
      <trkpt lat="49.92136" lon="4.51914">
        <ele>386.4</ele>
        <time>2020-06-25T06:27:40Z</time>
      </trkpt>
      <trkpt lat="49.92133" lon="4.51919">
        <ele>386.5</ele>
        <time>2020-06-25T06:27:41Z</time>
      </trkpt>
      <trkpt lat="49.92128" lon="4.51925">
        <ele>386.5</ele>
        <time>2020-06-25T06:27:42Z</time>
      </trkpt>
      <trkpt lat="49.92124" lon="4.5193">
        <ele>386.5</ele>
        <time>2020-06-25T06:27:43Z</time>
      </trkpt>
      <trkpt lat="49.92119" lon="4.51935">
        <ele>386.5</ele>
        <time>2020-06-25T06:27:44Z</time>
      </trkpt>
      <trkpt lat="49.92115" lon="4.5194">
        <ele>386.5</ele>
        <time>2020-06-25T06:27:45Z</time>
      </trkpt>
      <trkpt lat="49.92111" lon="4.51944">
        <ele>386.5</ele>
        <time>2020-06-25T06:27:46Z</time>
      </trkpt>
      <trkpt lat="49.92108" lon="4.5195">
        <ele>386.5</ele>
        <time>2020-06-25T06:27:47Z</time>
      </trkpt>
      <trkpt lat="49.92104" lon="4.51956">
        <ele>386.5</ele>
        <time>2020-06-25T06:27:48Z</time>
      </trkpt>
      <trkpt lat="49.921" lon="4.51961">
        <ele>386.5</ele>
        <time>2020-06-25T06:27:49Z</time>
      </trkpt>
      <trkpt lat="49.92095" lon="4.51966">
        <ele>386.5</ele>
        <time>2020-06-25T06:27:50Z</time>
      </trkpt>
      <trkpt lat="49.9209" lon="4.51969">
        <ele>386.5</ele>
        <time>2020-06-25T06:27:51Z</time>
      </trkpt>
      <trkpt lat="49.92084" lon="4.51973">
        <ele>386.5</ele>
        <time>2020-06-25T06:27:52Z</time>
      </trkpt>
      <trkpt lat="49.92079" lon="4.51979">
        <ele>386.6</ele>
        <time>2020-06-25T06:27:53Z</time>
      </trkpt>
      <trkpt lat="49.92074" lon="4.51984">
        <ele>386.6</ele>
        <time>2020-06-25T06:27:54Z</time>
      </trkpt>
      <trkpt lat="49.92069" lon="4.51988">
        <ele>386.7</ele>
        <time>2020-06-25T06:27:55Z</time>
      </trkpt>
      <trkpt lat="49.92064" lon="4.51995">
        <ele>386.8</ele>
        <time>2020-06-25T06:27:56Z</time>
      </trkpt>
      <trkpt lat="49.9206" lon="4.52">
        <ele>386.8</ele>
        <time>2020-06-25T06:27:57Z</time>
      </trkpt>
      <trkpt lat="49.92056" lon="4.52006">
        <ele>386.9</ele>
        <time>2020-06-25T06:27:58Z</time>
      </trkpt>
      <trkpt lat="49.92052" lon="4.5201">
        <ele>387</ele>
        <time>2020-06-25T06:27:59Z</time>
      </trkpt>
      <trkpt lat="49.92048" lon="4.52013">
        <ele>387.1</ele>
        <time>2020-06-25T06:28:00Z</time>
      </trkpt>
      <trkpt lat="49.92044" lon="4.52018">
        <ele>387.2</ele>
        <time>2020-06-25T06:28:01Z</time>
      </trkpt>
      <trkpt lat="49.92039" lon="4.52022">
        <ele>387.2</ele>
        <time>2020-06-25T06:28:02Z</time>
      </trkpt>
      <trkpt lat="49.92036" lon="4.52027">
        <ele>387.2</ele>
        <time>2020-06-25T06:28:03Z</time>
      </trkpt>
      <trkpt lat="49.92036" lon="4.52033">
        <ele>387.2</ele>
        <time>2020-06-25T06:28:04Z</time>
      </trkpt>
      <trkpt lat="49.92037" lon="4.52038">
        <ele>387.4</ele>
        <time>2020-06-25T06:28:05Z</time>
      </trkpt>
      <trkpt lat="49.9204" lon="4.52045">
        <ele>387.2</ele>
        <time>2020-06-25T06:28:06Z</time>
      </trkpt>
      <trkpt lat="49.92043" lon="4.5205">
        <ele>387</ele>
        <time>2020-06-25T06:28:07Z</time>
      </trkpt>
      <trkpt lat="49.92047" lon="4.52057">
        <ele>386.7</ele>
        <time>2020-06-25T06:28:08Z</time>
      </trkpt>
      <trkpt lat="49.92051" lon="4.52064">
        <ele>386.5</ele>
        <time>2020-06-25T06:28:09Z</time>
      </trkpt>
      <trkpt lat="49.92054" lon="4.5207">
        <ele>386.3</ele>
        <time>2020-06-25T06:28:10Z</time>
      </trkpt>
      <trkpt lat="49.92057" lon="4.52077">
        <ele>386.1</ele>
        <time>2020-06-25T06:28:11Z</time>
      </trkpt>
      <trkpt lat="49.9206" lon="4.52083">
        <ele>386</ele>
        <time>2020-06-25T06:28:12Z</time>
      </trkpt>
      <trkpt lat="49.92063" lon="4.52089">
        <ele>386</ele>
        <time>2020-06-25T06:28:13Z</time>
      </trkpt>
      <trkpt lat="49.92066" lon="4.52095">
        <ele>385.9</ele>
        <time>2020-06-25T06:28:14Z</time>
      </trkpt>
      <trkpt lat="49.92069" lon="4.52102">
        <ele>385.8</ele>
        <time>2020-06-25T06:28:15Z</time>
      </trkpt>
      <trkpt lat="49.92072" lon="4.52109">
        <ele>385.7</ele>
        <time>2020-06-25T06:28:16Z</time>
      </trkpt>
      <trkpt lat="49.92075" lon="4.52115">
        <ele>385.6</ele>
        <time>2020-06-25T06:28:17Z</time>
      </trkpt>
      <trkpt lat="49.92077" lon="4.52123">
        <ele>385.5</ele>
        <time>2020-06-25T06:28:18Z</time>
      </trkpt>
      <trkpt lat="49.92079" lon="4.52131">
        <ele>385.3</ele>
        <time>2020-06-25T06:28:19Z</time>
      </trkpt>
      <trkpt lat="49.92082" lon="4.52138">
        <ele>385.2</ele>
        <time>2020-06-25T06:28:20Z</time>
      </trkpt>
      <trkpt lat="49.92084" lon="4.52144">
        <ele>385.1</ele>
        <time>2020-06-25T06:28:21Z</time>
      </trkpt>
      <trkpt lat="49.92087" lon="4.5215">
        <ele>385</ele>
        <time>2020-06-25T06:28:22Z</time>
      </trkpt>
      <trkpt lat="49.9209" lon="4.52154">
        <ele>385</ele>
        <time>2020-06-25T06:28:23Z</time>
      </trkpt>
      <trkpt lat="49.92091" lon="4.52157">
        <ele>384.9</ele>
        <time>2020-06-25T06:28:24Z</time>
      </trkpt>
      <trkpt lat="49.92093" lon="4.52156">
        <ele>384.9</ele>
        <time>2020-06-25T06:28:25Z</time>
      </trkpt>
      <trkpt lat="49.92094" lon="4.5215">
        <ele>384.8</ele>
        <time>2020-06-25T06:28:26Z</time>
      </trkpt>
      <trkpt lat="49.92095" lon="4.52147">
        <ele>384.7</ele>
        <time>2020-06-25T06:28:27Z</time>
      </trkpt>
      <trkpt lat="49.92094" lon="4.52142">
        <ele>384.8</ele>
        <time>2020-06-25T06:28:28Z</time>
      </trkpt>
      <trkpt lat="49.92093" lon="4.52137">
        <ele>385</ele>
        <time>2020-06-25T06:28:29Z</time>
      </trkpt>
      <trkpt lat="49.92092" lon="4.52135">
        <ele>385</ele>
        <time>2020-06-25T06:28:30Z</time>
      </trkpt>
      <trkpt lat="49.92089" lon="4.52131">
        <ele>385.1</ele>
        <time>2020-06-25T06:28:31Z</time>
      </trkpt>
      <trkpt lat="49.92088" lon="4.5213">
        <ele>385.2</ele>
        <time>2020-06-25T06:28:32Z</time>
      </trkpt>
      <trkpt lat="49.92085" lon="4.52129">
        <ele>385.5</ele>
        <time>2020-06-25T06:28:33Z</time>
      </trkpt>
      <trkpt lat="49.92084" lon="4.52129">
        <ele>385.5</ele>
        <time>2020-06-25T06:28:34Z</time>
      </trkpt>
      <trkpt lat="49.92081" lon="4.5213">
        <ele>385.4</ele>
        <time>2020-06-25T06:28:35Z</time>
      </trkpt>
      <trkpt lat="49.92079" lon="4.52132">
        <ele>385.4</ele>
        <time>2020-06-25T06:28:36Z</time>
      </trkpt>
      <trkpt lat="49.92076" lon="4.52137">
        <ele>385.3</ele>
        <time>2020-06-25T06:28:37Z</time>
      </trkpt>
      <trkpt lat="49.92072" lon="4.52141">
        <ele>385.2</ele>
        <time>2020-06-25T06:28:38Z</time>
      </trkpt>
      <trkpt lat="49.92068" lon="4.52145">
        <ele>385.1</ele>
        <time>2020-06-25T06:28:39Z</time>
      </trkpt>
      <trkpt lat="49.92065" lon="4.5215">
        <ele>385.1</ele>
        <time>2020-06-25T06:28:40Z</time>
      </trkpt>
      <trkpt lat="49.92062" lon="4.52156">
        <ele>385</ele>
        <time>2020-06-25T06:28:41Z</time>
      </trkpt>
      <trkpt lat="49.92059" lon="4.52162">
        <ele>385</ele>
        <time>2020-06-25T06:28:42Z</time>
      </trkpt>
      <trkpt lat="49.92055" lon="4.52167">
        <ele>384.9</ele>
        <time>2020-06-25T06:28:43Z</time>
      </trkpt>
      <trkpt lat="49.92052" lon="4.52172">
        <ele>384.8</ele>
        <time>2020-06-25T06:28:44Z</time>
      </trkpt>
      <trkpt lat="49.92049" lon="4.52177">
        <ele>384.8</ele>
        <time>2020-06-25T06:28:45Z</time>
      </trkpt>
      <trkpt lat="49.92046" lon="4.52183">
        <ele>384.7</ele>
        <time>2020-06-25T06:28:46Z</time>
      </trkpt>
      <trkpt lat="49.92042" lon="4.52188">
        <ele>384.7</ele>
        <time>2020-06-25T06:28:47Z</time>
      </trkpt>
      <trkpt lat="49.92039" lon="4.52194">
        <ele>384.7</ele>
        <time>2020-06-25T06:28:48Z</time>
      </trkpt>
      <trkpt lat="49.92035" lon="4.522">
        <ele>384.6</ele>
        <time>2020-06-25T06:28:49Z</time>
      </trkpt>
      <trkpt lat="49.92031" lon="4.52205">
        <ele>384.6</ele>
        <time>2020-06-25T06:28:50Z</time>
      </trkpt>
      <trkpt lat="49.92028" lon="4.5221">
        <ele>384.6</ele>
        <time>2020-06-25T06:28:51Z</time>
      </trkpt>
      <trkpt lat="49.92025" lon="4.52216">
        <ele>384.6</ele>
        <time>2020-06-25T06:28:52Z</time>
      </trkpt>
      <trkpt lat="49.92022" lon="4.52221">
        <ele>384.6</ele>
        <time>2020-06-25T06:28:53Z</time>
      </trkpt>
      <trkpt lat="49.92019" lon="4.52226">
        <ele>384.6</ele>
        <time>2020-06-25T06:28:54Z</time>
      </trkpt>
      <trkpt lat="49.92016" lon="4.52231">
        <ele>384.5</ele>
        <time>2020-06-25T06:28:55Z</time>
      </trkpt>
      <trkpt lat="49.92014" lon="4.52235">
        <ele>384.5</ele>
        <time>2020-06-25T06:28:56Z</time>
      </trkpt>
      <trkpt lat="49.92012" lon="4.52239">
        <ele>384.5</ele>
        <time>2020-06-25T06:28:57Z</time>
      </trkpt>
      <trkpt lat="49.92009" lon="4.52243">
        <ele>384.5</ele>
        <time>2020-06-25T06:28:58Z</time>
      </trkpt>
      <trkpt lat="49.92007" lon="4.52247">
        <ele>384.5</ele>
        <time>2020-06-25T06:28:59Z</time>
      </trkpt>
      <trkpt lat="49.92004" lon="4.5225">
        <ele>384.5</ele>
        <time>2020-06-25T06:29:00Z</time>
      </trkpt>
      <trkpt lat="49.92001" lon="4.52254">
        <ele>384.5</ele>
        <time>2020-06-25T06:29:01Z</time>
      </trkpt>
      <trkpt lat="49.91997" lon="4.52258">
        <ele>384.5</ele>
        <time>2020-06-25T06:29:02Z</time>
      </trkpt>
      <trkpt lat="49.91994" lon="4.52261">
        <ele>384.4</ele>
        <time>2020-06-25T06:29:03Z</time>
      </trkpt>
      <trkpt lat="49.9199" lon="4.52265">
        <ele>384.4</ele>
        <time>2020-06-25T06:29:04Z</time>
      </trkpt>
      <trkpt lat="49.91987" lon="4.5227">
        <ele>384.4</ele>
        <time>2020-06-25T06:29:05Z</time>
      </trkpt>
      <trkpt lat="49.91984" lon="4.52275">
        <ele>384.4</ele>
        <time>2020-06-25T06:29:06Z</time>
      </trkpt>
      <trkpt lat="49.91981" lon="4.52279">
        <ele>384.4</ele>
        <time>2020-06-25T06:29:07Z</time>
      </trkpt>
      <trkpt lat="49.91978" lon="4.52284">
        <ele>384.3</ele>
        <time>2020-06-25T06:29:08Z</time>
      </trkpt>
      <trkpt lat="49.91975" lon="4.52288">
        <ele>384.3</ele>
        <time>2020-06-25T06:29:09Z</time>
      </trkpt>
      <trkpt lat="49.91971" lon="4.52292">
        <ele>384.3</ele>
        <time>2020-06-25T06:29:10Z</time>
      </trkpt>
      <trkpt lat="49.91967" lon="4.52296">
        <ele>384.3</ele>
        <time>2020-06-25T06:29:11Z</time>
      </trkpt>
      <trkpt lat="49.91963" lon="4.52301">
        <ele>384.3</ele>
        <time>2020-06-25T06:29:12Z</time>
      </trkpt>
      <trkpt lat="49.91959" lon="4.52305">
        <ele>384.3</ele>
        <time>2020-06-25T06:29:13Z</time>
      </trkpt>
      <trkpt lat="49.91956" lon="4.52309">
        <ele>384.2</ele>
        <time>2020-06-25T06:29:14Z</time>
      </trkpt>
      <trkpt lat="49.91952" lon="4.52313">
        <ele>384.2</ele>
        <time>2020-06-25T06:29:15Z</time>
      </trkpt>
      <trkpt lat="49.91949" lon="4.52316">
        <ele>384.2</ele>
        <time>2020-06-25T06:29:16Z</time>
      </trkpt>
      <trkpt lat="49.91945" lon="4.5232">
        <ele>384.3</ele>
        <time>2020-06-25T06:29:17Z</time>
      </trkpt>
      <trkpt lat="49.91941" lon="4.52325">
        <ele>384.3</ele>
        <time>2020-06-25T06:29:18Z</time>
      </trkpt>
      <trkpt lat="49.91937" lon="4.5233">
        <ele>384.3</ele>
        <time>2020-06-25T06:29:19Z</time>
      </trkpt>
      <trkpt lat="49.91934" lon="4.52336">
        <ele>384.3</ele>
        <time>2020-06-25T06:29:20Z</time>
      </trkpt>
      <trkpt lat="49.9193" lon="4.52341">
        <ele>384.3</ele>
        <time>2020-06-25T06:29:21Z</time>
      </trkpt>
      <trkpt lat="49.91926" lon="4.52346">
        <ele>384.3</ele>
        <time>2020-06-25T06:29:22Z</time>
      </trkpt>
      <trkpt lat="49.91923" lon="4.52351">
        <ele>384.3</ele>
        <time>2020-06-25T06:29:23Z</time>
      </trkpt>
      <trkpt lat="49.91919" lon="4.52356">
        <ele>384.3</ele>
        <time>2020-06-25T06:29:24Z</time>
      </trkpt>
      <trkpt lat="49.91916" lon="4.52361">
        <ele>384.3</ele>
        <time>2020-06-25T06:29:25Z</time>
      </trkpt>
      <trkpt lat="49.91913" lon="4.52365">
        <ele>384.3</ele>
        <time>2020-06-25T06:29:26Z</time>
      </trkpt>
      <trkpt lat="49.9191" lon="4.5237">
        <ele>384.3</ele>
        <time>2020-06-25T06:29:27Z</time>
      </trkpt>
      <trkpt lat="49.91906" lon="4.52374">
        <ele>384.3</ele>
        <time>2020-06-25T06:29:28Z</time>
      </trkpt>
      <trkpt lat="49.91903" lon="4.52379">
        <ele>384.3</ele>
        <time>2020-06-25T06:29:29Z</time>
      </trkpt>
      <trkpt lat="49.919" lon="4.52384">
        <ele>384.4</ele>
        <time>2020-06-25T06:29:30Z</time>
      </trkpt>
      <trkpt lat="49.91896" lon="4.5239">
        <ele>384.4</ele>
        <time>2020-06-25T06:29:31Z</time>
      </trkpt>
      <trkpt lat="49.91893" lon="4.52395">
        <ele>384.4</ele>
        <time>2020-06-25T06:29:32Z</time>
      </trkpt>
      <trkpt lat="49.91889" lon="4.52401">
        <ele>384.5</ele>
        <time>2020-06-25T06:29:33Z</time>
      </trkpt>
      <trkpt lat="49.91885" lon="4.52407">
        <ele>384.5</ele>
        <time>2020-06-25T06:29:34Z</time>
      </trkpt>
      <trkpt lat="49.91881" lon="4.52413">
        <ele>384.5</ele>
        <time>2020-06-25T06:29:35Z</time>
      </trkpt>
      <trkpt lat="49.91878" lon="4.5242">
        <ele>384.6</ele>
        <time>2020-06-25T06:29:36Z</time>
      </trkpt>
      <trkpt lat="49.91874" lon="4.52427">
        <ele>384.6</ele>
        <time>2020-06-25T06:29:37Z</time>
      </trkpt>
      <trkpt lat="49.91871" lon="4.52432">
        <ele>384.6</ele>
        <time>2020-06-25T06:29:38Z</time>
      </trkpt>
      <trkpt lat="49.91867" lon="4.52439">
        <ele>384.6</ele>
        <time>2020-06-25T06:29:39Z</time>
      </trkpt>
      <trkpt lat="49.91864" lon="4.52444">
        <ele>384.6</ele>
        <time>2020-06-25T06:29:40Z</time>
      </trkpt>
      <trkpt lat="49.91861" lon="4.5245">
        <ele>384.6</ele>
        <time>2020-06-25T06:29:41Z</time>
      </trkpt>
      <trkpt lat="49.91858" lon="4.52456">
        <ele>384.6</ele>
        <time>2020-06-25T06:29:42Z</time>
      </trkpt>
      <trkpt lat="49.91854" lon="4.52462">
        <ele>384.6</ele>
        <time>2020-06-25T06:29:43Z</time>
      </trkpt>
      <trkpt lat="49.91851" lon="4.52468">
        <ele>384.6</ele>
        <time>2020-06-25T06:29:44Z</time>
      </trkpt>
      <trkpt lat="49.91848" lon="4.52475">
        <ele>384.6</ele>
        <time>2020-06-25T06:29:45Z</time>
      </trkpt>
      <trkpt lat="49.91844" lon="4.52481">
        <ele>384.6</ele>
        <time>2020-06-25T06:29:46Z</time>
      </trkpt>
      <trkpt lat="49.9184" lon="4.52488">
        <ele>384.6</ele>
        <time>2020-06-25T06:29:47Z</time>
      </trkpt>
      <trkpt lat="49.91836" lon="4.52495">
        <ele>384.6</ele>
        <time>2020-06-25T06:29:48Z</time>
      </trkpt>
      <trkpt lat="49.91832" lon="4.525">
        <ele>384.6</ele>
        <time>2020-06-25T06:29:49Z</time>
      </trkpt>
      <trkpt lat="49.91828" lon="4.52506">
        <ele>384.6</ele>
        <time>2020-06-25T06:29:50Z</time>
      </trkpt>
      <trkpt lat="49.91824" lon="4.52513">
        <ele>384.5</ele>
        <time>2020-06-25T06:29:51Z</time>
      </trkpt>
      <trkpt lat="49.9182" lon="4.5252">
        <ele>384.5</ele>
        <time>2020-06-25T06:29:52Z</time>
      </trkpt>
      <trkpt lat="49.91816" lon="4.52527">
        <ele>384.4</ele>
        <time>2020-06-25T06:29:53Z</time>
      </trkpt>
      <trkpt lat="49.91811" lon="4.52534">
        <ele>384.3</ele>
        <time>2020-06-25T06:29:54Z</time>
      </trkpt>
      <trkpt lat="49.91807" lon="4.5254">
        <ele>384.3</ele>
        <time>2020-06-25T06:29:55Z</time>
      </trkpt>
      <trkpt lat="49.91804" lon="4.52547">
        <ele>384.2</ele>
        <time>2020-06-25T06:29:56Z</time>
      </trkpt>
      <trkpt lat="49.91799" lon="4.52554">
        <ele>384.2</ele>
        <time>2020-06-25T06:29:57Z</time>
      </trkpt>
      <trkpt lat="49.91794" lon="4.52561">
        <ele>384.1</ele>
        <time>2020-06-25T06:29:58Z</time>
      </trkpt>
      <trkpt lat="49.91789" lon="4.5257">
        <ele>384</ele>
        <time>2020-06-25T06:29:59Z</time>
      </trkpt>
      <trkpt lat="49.91785" lon="4.52578">
        <ele>383.9</ele>
        <time>2020-06-25T06:30:00Z</time>
      </trkpt>
      <trkpt lat="49.91781" lon="4.52586">
        <ele>383.8</ele>
        <time>2020-06-25T06:30:01Z</time>
      </trkpt>
      <trkpt lat="49.91776" lon="4.52593">
        <ele>383.7</ele>
        <time>2020-06-25T06:30:02Z</time>
      </trkpt>
      <trkpt lat="49.91773" lon="4.526">
        <ele>383.7</ele>
        <time>2020-06-25T06:30:03Z</time>
      </trkpt>
      <trkpt lat="49.91769" lon="4.52607">
        <ele>383.6</ele>
        <time>2020-06-25T06:30:04Z</time>
      </trkpt>
      <trkpt lat="49.91765" lon="4.52615">
        <ele>383.5</ele>
        <time>2020-06-25T06:30:05Z</time>
      </trkpt>
      <trkpt lat="49.91761" lon="4.52623">
        <ele>383.4</ele>
        <time>2020-06-25T06:30:06Z</time>
      </trkpt>
      <trkpt lat="49.91757" lon="4.5263">
        <ele>383.3</ele>
        <time>2020-06-25T06:30:07Z</time>
      </trkpt>
      <trkpt lat="49.91753" lon="4.52637">
        <ele>383.2</ele>
        <time>2020-06-25T06:30:08Z</time>
      </trkpt>
      <trkpt lat="49.91749" lon="4.52646">
        <ele>383.2</ele>
        <time>2020-06-25T06:30:09Z</time>
      </trkpt>
      <trkpt lat="49.91745" lon="4.52654">
        <ele>383.1</ele>
        <time>2020-06-25T06:30:10Z</time>
      </trkpt>
      <trkpt lat="49.91741" lon="4.52662">
        <ele>383.1</ele>
        <time>2020-06-25T06:30:11Z</time>
      </trkpt>
      <trkpt lat="49.91737" lon="4.52671">
        <ele>383</ele>
        <time>2020-06-25T06:30:12Z</time>
      </trkpt>
      <trkpt lat="49.91733" lon="4.52679">
        <ele>383</ele>
        <time>2020-06-25T06:30:13Z</time>
      </trkpt>
      <trkpt lat="49.91729" lon="4.52686">
        <ele>382.9</ele>
        <time>2020-06-25T06:30:14Z</time>
      </trkpt>
      <trkpt lat="49.91725" lon="4.52694">
        <ele>382.8</ele>
        <time>2020-06-25T06:30:15Z</time>
      </trkpt>
      <trkpt lat="49.91721" lon="4.52703">
        <ele>382.7</ele>
        <time>2020-06-25T06:30:16Z</time>
      </trkpt>
      <trkpt lat="49.91717" lon="4.52711">
        <ele>382.7</ele>
        <time>2020-06-25T06:30:17Z</time>
      </trkpt>
      <trkpt lat="49.91713" lon="4.52719">
        <ele>382.5</ele>
        <time>2020-06-25T06:30:18Z</time>
      </trkpt>
      <trkpt lat="49.91708" lon="4.52728">
        <ele>382.4</ele>
        <time>2020-06-25T06:30:19Z</time>
      </trkpt>
      <trkpt lat="49.91704" lon="4.52736">
        <ele>382.2</ele>
        <time>2020-06-25T06:30:20Z</time>
      </trkpt>
      <trkpt lat="49.91699" lon="4.52745">
        <ele>381.9</ele>
        <time>2020-06-25T06:30:21Z</time>
      </trkpt>
      <trkpt lat="49.91695" lon="4.52753">
        <ele>381.7</ele>
        <time>2020-06-25T06:30:22Z</time>
      </trkpt>
      <trkpt lat="49.91691" lon="4.52762">
        <ele>381.5</ele>
        <time>2020-06-25T06:30:23Z</time>
      </trkpt>
      <trkpt lat="49.91686" lon="4.52771">
        <ele>381.3</ele>
        <time>2020-06-25T06:30:24Z</time>
      </trkpt>
      <trkpt lat="49.91682" lon="4.5278">
        <ele>381</ele>
        <time>2020-06-25T06:30:25Z</time>
      </trkpt>
      <trkpt lat="49.91678" lon="4.52788">
        <ele>380.8</ele>
        <time>2020-06-25T06:30:26Z</time>
      </trkpt>
      <trkpt lat="49.91674" lon="4.52797">
        <ele>380.5</ele>
        <time>2020-06-25T06:30:27Z</time>
      </trkpt>
      <trkpt lat="49.9167" lon="4.52806">
        <ele>380.3</ele>
        <time>2020-06-25T06:30:28Z</time>
      </trkpt>
      <trkpt lat="49.91665" lon="4.52814">
        <ele>380.1</ele>
        <time>2020-06-25T06:30:29Z</time>
      </trkpt>
      <trkpt lat="49.9166" lon="4.52823">
        <ele>379.8</ele>
        <time>2020-06-25T06:30:30Z</time>
      </trkpt>
      <trkpt lat="49.91655" lon="4.52832">
        <ele>379.6</ele>
        <time>2020-06-25T06:30:31Z</time>
      </trkpt>
      <trkpt lat="49.9165" lon="4.5284">
        <ele>379.3</ele>
        <time>2020-06-25T06:30:32Z</time>
      </trkpt>
      <trkpt lat="49.91644" lon="4.52848">
        <ele>379.1</ele>
        <time>2020-06-25T06:30:33Z</time>
      </trkpt>
      <trkpt lat="49.91638" lon="4.52855">
        <ele>378.9</ele>
        <time>2020-06-25T06:30:34Z</time>
      </trkpt>
      <trkpt lat="49.91632" lon="4.52862">
        <ele>378.7</ele>
        <time>2020-06-25T06:30:35Z</time>
      </trkpt>
      <trkpt lat="49.91626" lon="4.52868">
        <ele>378.5</ele>
        <time>2020-06-25T06:30:36Z</time>
      </trkpt>
      <trkpt lat="49.9162" lon="4.52874">
        <ele>378.2</ele>
        <time>2020-06-25T06:30:37Z</time>
      </trkpt>
      <trkpt lat="49.91614" lon="4.52881">
        <ele>378.1</ele>
        <time>2020-06-25T06:30:38Z</time>
      </trkpt>
      <trkpt lat="49.91607" lon="4.52887">
        <ele>377.9</ele>
        <time>2020-06-25T06:30:39Z</time>
      </trkpt>
      <trkpt lat="49.91601" lon="4.52893">
        <ele>377.7</ele>
        <time>2020-06-25T06:30:40Z</time>
      </trkpt>
      <trkpt lat="49.91595" lon="4.52899">
        <ele>377.5</ele>
        <time>2020-06-25T06:30:41Z</time>
      </trkpt>
      <trkpt lat="49.91589" lon="4.52905">
        <ele>377.3</ele>
        <time>2020-06-25T06:30:42Z</time>
      </trkpt>
      <trkpt lat="49.91583" lon="4.5291">
        <ele>377.1</ele>
        <time>2020-06-25T06:30:43Z</time>
      </trkpt>
      <trkpt lat="49.91577" lon="4.52916">
        <ele>376.8</ele>
        <time>2020-06-25T06:30:44Z</time>
      </trkpt>
      <trkpt lat="49.91571" lon="4.52921">
        <ele>376.5</ele>
        <time>2020-06-25T06:30:45Z</time>
      </trkpt>
      <trkpt lat="49.91565" lon="4.52927">
        <ele>376.3</ele>
        <time>2020-06-25T06:30:46Z</time>
      </trkpt>
      <trkpt lat="49.9156" lon="4.52932">
        <ele>376</ele>
        <time>2020-06-25T06:30:47Z</time>
      </trkpt>
      <trkpt lat="49.91554" lon="4.52938">
        <ele>375.8</ele>
        <time>2020-06-25T06:30:48Z</time>
      </trkpt>
      <trkpt lat="49.91548" lon="4.52944">
        <ele>375.4</ele>
        <time>2020-06-25T06:30:49Z</time>
      </trkpt>
      <trkpt lat="49.91542" lon="4.52949">
        <ele>375.1</ele>
        <time>2020-06-25T06:30:50Z</time>
      </trkpt>
      <trkpt lat="49.91535" lon="4.52955">
        <ele>374.6</ele>
        <time>2020-06-25T06:30:51Z</time>
      </trkpt>
      <trkpt lat="49.91528" lon="4.52961">
        <ele>374.2</ele>
        <time>2020-06-25T06:30:52Z</time>
      </trkpt>
      <trkpt lat="49.91521" lon="4.52967">
        <ele>373.8</ele>
        <time>2020-06-25T06:30:53Z</time>
      </trkpt>
      <trkpt lat="49.91514" lon="4.52973">
        <ele>373.3</ele>
        <time>2020-06-25T06:30:54Z</time>
      </trkpt>
      <trkpt lat="49.91506" lon="4.52978">
        <ele>372.9</ele>
        <time>2020-06-25T06:30:55Z</time>
      </trkpt>
      <trkpt lat="49.91498" lon="4.52983">
        <ele>372.4</ele>
        <time>2020-06-25T06:30:56Z</time>
      </trkpt>
      <trkpt lat="49.91489" lon="4.52987">
        <ele>372</ele>
        <time>2020-06-25T06:30:57Z</time>
      </trkpt>
      <trkpt lat="49.9148" lon="4.52991">
        <ele>371.6</ele>
        <time>2020-06-25T06:30:58Z</time>
      </trkpt>
      <trkpt lat="49.91471" lon="4.52994">
        <ele>371.3</ele>
        <time>2020-06-25T06:30:59Z</time>
      </trkpt>
      <trkpt lat="49.91463" lon="4.52996">
        <ele>371.1</ele>
        <time>2020-06-25T06:31:00Z</time>
      </trkpt>
      <trkpt lat="49.91454" lon="4.52996">
        <ele>370.8</ele>
        <time>2020-06-25T06:31:01Z</time>
      </trkpt>
      <trkpt lat="49.91445" lon="4.52993">
        <ele>370.6</ele>
        <time>2020-06-25T06:31:02Z</time>
      </trkpt>
      <trkpt lat="49.91437" lon="4.5299">
        <ele>370.4</ele>
        <time>2020-06-25T06:31:03Z</time>
      </trkpt>
      <trkpt lat="49.9143" lon="4.52986">
        <ele>370.3</ele>
        <time>2020-06-25T06:31:04Z</time>
      </trkpt>
      <trkpt lat="49.91422" lon="4.52982">
        <ele>370.2</ele>
        <time>2020-06-25T06:31:05Z</time>
      </trkpt>
      <trkpt lat="49.91415" lon="4.52978">
        <ele>370.2</ele>
        <time>2020-06-25T06:31:06Z</time>
      </trkpt>
      <trkpt lat="49.91407" lon="4.52974">
        <ele>370.2</ele>
        <time>2020-06-25T06:31:07Z</time>
      </trkpt>
      <trkpt lat="49.914" lon="4.52971">
        <ele>370.2</ele>
        <time>2020-06-25T06:31:08Z</time>
      </trkpt>
      <trkpt lat="49.91393" lon="4.52969">
        <ele>370.2</ele>
        <time>2020-06-25T06:31:09Z</time>
      </trkpt>
      <trkpt lat="49.91385" lon="4.52968">
        <ele>370.2</ele>
        <time>2020-06-25T06:31:10Z</time>
      </trkpt>
      <trkpt lat="49.91378" lon="4.52966">
        <ele>370.2</ele>
        <time>2020-06-25T06:31:11Z</time>
      </trkpt>
      <trkpt lat="49.91371" lon="4.52967">
        <ele>370.2</ele>
        <time>2020-06-25T06:31:12Z</time>
      </trkpt>
      <trkpt lat="49.91363" lon="4.52965">
        <ele>370.2</ele>
        <time>2020-06-25T06:31:13Z</time>
      </trkpt>
      <trkpt lat="49.91356" lon="4.52964">
        <ele>370.2</ele>
        <time>2020-06-25T06:31:14Z</time>
      </trkpt>
      <trkpt lat="49.91349" lon="4.52962">
        <ele>370.3</ele>
        <time>2020-06-25T06:31:15Z</time>
      </trkpt>
      <trkpt lat="49.91342" lon="4.5296">
        <ele>370.3</ele>
        <time>2020-06-25T06:31:16Z</time>
      </trkpt>
      <trkpt lat="49.91336" lon="4.52957">
        <ele>370.4</ele>
        <time>2020-06-25T06:31:17Z</time>
      </trkpt>
      <trkpt lat="49.91329" lon="4.52954">
        <ele>370.5</ele>
        <time>2020-06-25T06:31:18Z</time>
      </trkpt>
      <trkpt lat="49.91322" lon="4.52952">
        <ele>370.6</ele>
        <time>2020-06-25T06:31:19Z</time>
      </trkpt>
      <trkpt lat="49.91316" lon="4.52949">
        <ele>370.7</ele>
        <time>2020-06-25T06:31:20Z</time>
      </trkpt>
      <trkpt lat="49.9131" lon="4.52947">
        <ele>370.9</ele>
        <time>2020-06-25T06:31:21Z</time>
      </trkpt>
      <trkpt lat="49.91304" lon="4.52944">
        <ele>371</ele>
        <time>2020-06-25T06:31:22Z</time>
      </trkpt>
      <trkpt lat="49.91298" lon="4.52941">
        <ele>371.1</ele>
        <time>2020-06-25T06:31:23Z</time>
      </trkpt>
      <trkpt lat="49.91291" lon="4.52939">
        <ele>371.2</ele>
        <time>2020-06-25T06:31:24Z</time>
      </trkpt>
      <trkpt lat="49.91285" lon="4.52936">
        <ele>371.3</ele>
        <time>2020-06-25T06:31:25Z</time>
      </trkpt>
      <trkpt lat="49.91279" lon="4.52933">
        <ele>371.4</ele>
        <time>2020-06-25T06:31:26Z</time>
      </trkpt>
      <trkpt lat="49.91273" lon="4.5293">
        <ele>371.6</ele>
        <time>2020-06-25T06:31:27Z</time>
      </trkpt>
      <trkpt lat="49.91267" lon="4.52928">
        <ele>371.8</ele>
        <time>2020-06-25T06:31:28Z</time>
      </trkpt>
      <trkpt lat="49.9126" lon="4.52924">
        <ele>371.9</ele>
        <time>2020-06-25T06:31:29Z</time>
      </trkpt>
      <trkpt lat="49.91254" lon="4.52921">
        <ele>372.1</ele>
        <time>2020-06-25T06:31:30Z</time>
      </trkpt>
      <trkpt lat="49.91248" lon="4.52919">
        <ele>372.2</ele>
        <time>2020-06-25T06:31:31Z</time>
      </trkpt>
      <trkpt lat="49.91242" lon="4.52917">
        <ele>372.4</ele>
        <time>2020-06-25T06:31:32Z</time>
      </trkpt>
      <trkpt lat="49.91235" lon="4.52914">
        <ele>372.6</ele>
        <time>2020-06-25T06:31:33Z</time>
      </trkpt>
      <trkpt lat="49.91229" lon="4.52912">
        <ele>372.8</ele>
        <time>2020-06-25T06:31:34Z</time>
      </trkpt>
      <trkpt lat="49.91223" lon="4.52909">
        <ele>373</ele>
        <time>2020-06-25T06:31:35Z</time>
      </trkpt>
      <trkpt lat="49.91217" lon="4.52907">
        <ele>373.2</ele>
        <time>2020-06-25T06:31:36Z</time>
      </trkpt>
      <trkpt lat="49.91212" lon="4.52905">
        <ele>373.4</ele>
        <time>2020-06-25T06:31:37Z</time>
      </trkpt>
      <trkpt lat="49.91206" lon="4.52902">
        <ele>373.7</ele>
        <time>2020-06-25T06:31:38Z</time>
      </trkpt>
      <trkpt lat="49.912" lon="4.52901">
        <ele>373.9</ele>
        <time>2020-06-25T06:31:39Z</time>
      </trkpt>
      <trkpt lat="49.91194" lon="4.52899">
        <ele>374.1</ele>
        <time>2020-06-25T06:31:40Z</time>
      </trkpt>
      <trkpt lat="49.91188" lon="4.52898">
        <ele>374.3</ele>
        <time>2020-06-25T06:31:41Z</time>
      </trkpt>
      <trkpt lat="49.91182" lon="4.52897">
        <ele>374.4</ele>
        <time>2020-06-25T06:31:42Z</time>
      </trkpt>
      <trkpt lat="49.91177" lon="4.52896">
        <ele>374.6</ele>
        <time>2020-06-25T06:31:43Z</time>
      </trkpt>
      <trkpt lat="49.91171" lon="4.52896">
        <ele>374.7</ele>
        <time>2020-06-25T06:31:44Z</time>
      </trkpt>
      <trkpt lat="49.91165" lon="4.52895">
        <ele>374.8</ele>
        <time>2020-06-25T06:31:45Z</time>
      </trkpt>
      <trkpt lat="49.91158" lon="4.52895">
        <ele>374.9</ele>
        <time>2020-06-25T06:31:46Z</time>
      </trkpt>
      <trkpt lat="49.91153" lon="4.52896">
        <ele>375</ele>
        <time>2020-06-25T06:31:47Z</time>
      </trkpt>
      <trkpt lat="49.91147" lon="4.52896">
        <ele>375.1</ele>
        <time>2020-06-25T06:31:48Z</time>
      </trkpt>
      <trkpt lat="49.91141" lon="4.52896">
        <ele>375.2</ele>
        <time>2020-06-25T06:31:49Z</time>
      </trkpt>
      <trkpt lat="49.91135" lon="4.52895">
        <ele>375.2</ele>
        <time>2020-06-25T06:31:50Z</time>
      </trkpt>
      <trkpt lat="49.9113" lon="4.52896">
        <ele>375.3</ele>
        <time>2020-06-25T06:31:51Z</time>
      </trkpt>
      <trkpt lat="49.91124" lon="4.52897">
        <ele>375.3</ele>
        <time>2020-06-25T06:31:52Z</time>
      </trkpt>
      <trkpt lat="49.91118" lon="4.52899">
        <ele>375.2</ele>
        <time>2020-06-25T06:31:53Z</time>
      </trkpt>
      <trkpt lat="49.91113" lon="4.52901">
        <ele>375.2</ele>
        <time>2020-06-25T06:31:54Z</time>
      </trkpt>
      <trkpt lat="49.91107" lon="4.52903">
        <ele>375.1</ele>
        <time>2020-06-25T06:31:55Z</time>
      </trkpt>
      <trkpt lat="49.91102" lon="4.52905">
        <ele>375.1</ele>
        <time>2020-06-25T06:31:56Z</time>
      </trkpt>
      <trkpt lat="49.91096" lon="4.52907">
        <ele>374.9</ele>
        <time>2020-06-25T06:31:57Z</time>
      </trkpt>
      <trkpt lat="49.91091" lon="4.5291">
        <ele>374.8</ele>
        <time>2020-06-25T06:31:58Z</time>
      </trkpt>
      <trkpt lat="49.91085" lon="4.52912">
        <ele>374.7</ele>
        <time>2020-06-25T06:31:59Z</time>
      </trkpt>
      <trkpt lat="49.91078" lon="4.52915">
        <ele>374.5</ele>
        <time>2020-06-25T06:32:00Z</time>
      </trkpt>
      <trkpt lat="49.91072" lon="4.52917">
        <ele>374.4</ele>
        <time>2020-06-25T06:32:01Z</time>
      </trkpt>
      <trkpt lat="49.91066" lon="4.52919">
        <ele>374.3</ele>
        <time>2020-06-25T06:32:02Z</time>
      </trkpt>
      <trkpt lat="49.91059" lon="4.52921">
        <ele>374.1</ele>
        <time>2020-06-25T06:32:03Z</time>
      </trkpt>
      <trkpt lat="49.91052" lon="4.52922">
        <ele>373.9</ele>
        <time>2020-06-25T06:32:04Z</time>
      </trkpt>
      <trkpt lat="49.91046" lon="4.52924">
        <ele>373.7</ele>
        <time>2020-06-25T06:32:05Z</time>
      </trkpt>
      <trkpt lat="49.91039" lon="4.52926">
        <ele>373.5</ele>
        <time>2020-06-25T06:32:06Z</time>
      </trkpt>
      <trkpt lat="49.91031" lon="4.52928">
        <ele>373.3</ele>
        <time>2020-06-25T06:32:07Z</time>
      </trkpt>
      <trkpt lat="49.91024" lon="4.5293">
        <ele>373.2</ele>
        <time>2020-06-25T06:32:08Z</time>
      </trkpt>
      <trkpt lat="49.91017" lon="4.52932">
        <ele>373</ele>
        <time>2020-06-25T06:32:09Z</time>
      </trkpt>
      <trkpt lat="49.9101" lon="4.52933">
        <ele>372.9</ele>
        <time>2020-06-25T06:32:10Z</time>
      </trkpt>
      <trkpt lat="49.91003" lon="4.52935">
        <ele>372.7</ele>
        <time>2020-06-25T06:32:11Z</time>
      </trkpt>
      <trkpt lat="49.90997" lon="4.52936">
        <ele>372.5</ele>
        <time>2020-06-25T06:32:12Z</time>
      </trkpt>
      <trkpt lat="49.9099" lon="4.52938">
        <ele>372.6</ele>
        <time>2020-06-25T06:32:13Z</time>
      </trkpt>
      <trkpt lat="49.90983" lon="4.5294">
        <ele>372.5</ele>
        <time>2020-06-25T06:32:14Z</time>
      </trkpt>
      <trkpt lat="49.90977" lon="4.52941">
        <ele>372.4</ele>
        <time>2020-06-25T06:32:15Z</time>
      </trkpt>
      <trkpt lat="49.9097" lon="4.52942">
        <ele>372.2</ele>
        <time>2020-06-25T06:32:16Z</time>
      </trkpt>
      <trkpt lat="49.90963" lon="4.52943">
        <ele>372</ele>
        <time>2020-06-25T06:32:17Z</time>
      </trkpt>
      <trkpt lat="49.90956" lon="4.52944">
        <ele>371.9</ele>
        <time>2020-06-25T06:32:18Z</time>
      </trkpt>
      <trkpt lat="49.9095" lon="4.52946">
        <ele>371.7</ele>
        <time>2020-06-25T06:32:19Z</time>
      </trkpt>
      <trkpt lat="49.90943" lon="4.52947">
        <ele>371.5</ele>
        <time>2020-06-25T06:32:20Z</time>
      </trkpt>
      <trkpt lat="49.90936" lon="4.52949">
        <ele>371.4</ele>
        <time>2020-06-25T06:32:21Z</time>
      </trkpt>
      <trkpt lat="49.90929" lon="4.52951">
        <ele>371.3</ele>
        <time>2020-06-25T06:32:22Z</time>
      </trkpt>
      <trkpt lat="49.90921" lon="4.52951">
        <ele>371.2</ele>
        <time>2020-06-25T06:32:23Z</time>
      </trkpt>
      <trkpt lat="49.90914" lon="4.52952">
        <ele>371</ele>
        <time>2020-06-25T06:32:24Z</time>
      </trkpt>
      <trkpt lat="49.90907" lon="4.52953">
        <ele>370.9</ele>
        <time>2020-06-25T06:32:25Z</time>
      </trkpt>
      <trkpt lat="49.909" lon="4.52954">
        <ele>370.8</ele>
        <time>2020-06-25T06:32:26Z</time>
      </trkpt>
      <trkpt lat="49.90894" lon="4.52956">
        <ele>370.8</ele>
        <time>2020-06-25T06:32:27Z</time>
      </trkpt>
      <trkpt lat="49.90887" lon="4.52959">
        <ele>370.7</ele>
        <time>2020-06-25T06:32:28Z</time>
      </trkpt>
      <trkpt lat="49.90881" lon="4.52961">
        <ele>370.6</ele>
        <time>2020-06-25T06:32:29Z</time>
      </trkpt>
      <trkpt lat="49.90874" lon="4.52963">
        <ele>370.5</ele>
        <time>2020-06-25T06:32:30Z</time>
      </trkpt>
      <trkpt lat="49.90868" lon="4.52965">
        <ele>370.3</ele>
        <time>2020-06-25T06:32:31Z</time>
      </trkpt>
      <trkpt lat="49.90861" lon="4.52966">
        <ele>370.2</ele>
        <time>2020-06-25T06:32:32Z</time>
      </trkpt>
      <trkpt lat="49.90855" lon="4.52969">
        <ele>370.1</ele>
        <time>2020-06-25T06:32:33Z</time>
      </trkpt>
      <trkpt lat="49.90848" lon="4.52971">
        <ele>370</ele>
        <time>2020-06-25T06:32:34Z</time>
      </trkpt>
      <trkpt lat="49.90841" lon="4.52973">
        <ele>369.9</ele>
        <time>2020-06-25T06:32:35Z</time>
      </trkpt>
      <trkpt lat="49.90833" lon="4.52976">
        <ele>369.8</ele>
        <time>2020-06-25T06:32:36Z</time>
      </trkpt>
      <trkpt lat="49.90826" lon="4.52978">
        <ele>369.7</ele>
        <time>2020-06-25T06:32:37Z</time>
      </trkpt>
      <trkpt lat="49.90819" lon="4.5298">
        <ele>369.6</ele>
        <time>2020-06-25T06:32:38Z</time>
      </trkpt>
      <trkpt lat="49.90812" lon="4.52982">
        <ele>369.4</ele>
        <time>2020-06-25T06:32:39Z</time>
      </trkpt>
      <trkpt lat="49.90805" lon="4.52984">
        <ele>369.3</ele>
        <time>2020-06-25T06:32:40Z</time>
      </trkpt>
      <trkpt lat="49.90798" lon="4.52986">
        <ele>369.1</ele>
        <time>2020-06-25T06:32:41Z</time>
      </trkpt>
      <trkpt lat="49.90791" lon="4.52988">
        <ele>369</ele>
        <time>2020-06-25T06:32:42Z</time>
      </trkpt>
      <trkpt lat="49.90785" lon="4.5299">
        <ele>368.9</ele>
        <time>2020-06-25T06:32:43Z</time>
      </trkpt>
      <trkpt lat="49.90778" lon="4.52992">
        <ele>368.7</ele>
        <time>2020-06-25T06:32:44Z</time>
      </trkpt>
      <trkpt lat="49.90772" lon="4.52994">
        <ele>368.6</ele>
        <time>2020-06-25T06:32:45Z</time>
      </trkpt>
      <trkpt lat="49.90765" lon="4.52995">
        <ele>368.4</ele>
        <time>2020-06-25T06:32:46Z</time>
      </trkpt>
      <trkpt lat="49.90758" lon="4.52997">
        <ele>368.2</ele>
        <time>2020-06-25T06:32:47Z</time>
      </trkpt>
      <trkpt lat="49.90752" lon="4.52999">
        <ele>368</ele>
        <time>2020-06-25T06:32:48Z</time>
      </trkpt>
      <trkpt lat="49.90745" lon="4.53001">
        <ele>367.7</ele>
        <time>2020-06-25T06:32:49Z</time>
      </trkpt>
      <trkpt lat="49.90738" lon="4.53004">
        <ele>367.5</ele>
        <time>2020-06-25T06:32:50Z</time>
      </trkpt>
      <trkpt lat="49.90732" lon="4.53005">
        <ele>367.3</ele>
        <time>2020-06-25T06:32:51Z</time>
      </trkpt>
      <trkpt lat="49.90725" lon="4.53008">
        <ele>367</ele>
        <time>2020-06-25T06:32:52Z</time>
      </trkpt>
      <trkpt lat="49.90718" lon="4.53011">
        <ele>366.8</ele>
        <time>2020-06-25T06:32:53Z</time>
      </trkpt>
      <trkpt lat="49.90712" lon="4.53015">
        <ele>366.5</ele>
        <time>2020-06-25T06:32:54Z</time>
      </trkpt>
      <trkpt lat="49.90705" lon="4.53019">
        <ele>366.3</ele>
        <time>2020-06-25T06:32:55Z</time>
      </trkpt>
      <trkpt lat="49.90699" lon="4.53024">
        <ele>366</ele>
        <time>2020-06-25T06:32:56Z</time>
      </trkpt>
      <trkpt lat="49.90693" lon="4.53029">
        <ele>365.7</ele>
        <time>2020-06-25T06:32:57Z</time>
      </trkpt>
      <trkpt lat="49.90686" lon="4.53034">
        <ele>365.5</ele>
        <time>2020-06-25T06:32:58Z</time>
      </trkpt>
      <trkpt lat="49.9068" lon="4.53041">
        <ele>365.2</ele>
        <time>2020-06-25T06:32:59Z</time>
      </trkpt>
      <trkpt lat="49.90675" lon="4.53048">
        <ele>364.9</ele>
        <time>2020-06-25T06:33:00Z</time>
      </trkpt>
      <trkpt lat="49.9067" lon="4.53057">
        <ele>364.6</ele>
        <time>2020-06-25T06:33:01Z</time>
      </trkpt>
      <trkpt lat="49.90664" lon="4.53064">
        <ele>364.3</ele>
        <time>2020-06-25T06:33:02Z</time>
      </trkpt>
      <trkpt lat="49.90659" lon="4.53072">
        <ele>364</ele>
        <time>2020-06-25T06:33:03Z</time>
      </trkpt>
      <trkpt lat="49.90653" lon="4.53079">
        <ele>363.8</ele>
        <time>2020-06-25T06:33:04Z</time>
      </trkpt>
      <trkpt lat="49.90648" lon="4.53087">
        <ele>363.5</ele>
        <time>2020-06-25T06:33:06Z</time>
      </trkpt>
      <trkpt lat="49.90642" lon="4.53095">
        <ele>363.3</ele>
        <time>2020-06-25T06:33:07Z</time>
      </trkpt>
      <trkpt lat="49.90637" lon="4.53104">
        <ele>363.1</ele>
        <time>2020-06-25T06:33:08Z</time>
      </trkpt>
      <trkpt lat="49.90632" lon="4.53112">
        <ele>362.8</ele>
        <time>2020-06-25T06:33:09Z</time>
      </trkpt>
      <trkpt lat="49.90626" lon="4.53121">
        <ele>362.6</ele>
        <time>2020-06-25T06:33:10Z</time>
      </trkpt>
      <trkpt lat="49.90621" lon="4.5313">
        <ele>362.4</ele>
        <time>2020-06-25T06:33:11Z</time>
      </trkpt>
      <trkpt lat="49.90616" lon="4.53139">
        <ele>362.2</ele>
        <time>2020-06-25T06:33:12Z</time>
      </trkpt>
      <trkpt lat="49.9061" lon="4.53146">
        <ele>362</ele>
        <time>2020-06-25T06:33:13Z</time>
      </trkpt>
      <trkpt lat="49.90604" lon="4.53152">
        <ele>361.8</ele>
        <time>2020-06-25T06:33:14Z</time>
      </trkpt>
      <trkpt lat="49.90597" lon="4.53158">
        <ele>361.6</ele>
        <time>2020-06-25T06:33:15Z</time>
      </trkpt>
      <trkpt lat="49.9059" lon="4.53163">
        <ele>361.4</ele>
        <time>2020-06-25T06:33:16Z</time>
      </trkpt>
      <trkpt lat="49.90584" lon="4.53167">
        <ele>361.3</ele>
        <time>2020-06-25T06:33:17Z</time>
      </trkpt>
      <trkpt lat="49.90577" lon="4.53172">
        <ele>361.2</ele>
        <time>2020-06-25T06:33:18Z</time>
      </trkpt>
      <trkpt lat="49.9057" lon="4.53175">
        <ele>361</ele>
        <time>2020-06-25T06:33:19Z</time>
      </trkpt>
      <trkpt lat="49.90563" lon="4.53178">
        <ele>360.8</ele>
        <time>2020-06-25T06:33:20Z</time>
      </trkpt>
      <trkpt lat="49.90556" lon="4.53179">
        <ele>360.6</ele>
        <time>2020-06-25T06:33:21Z</time>
      </trkpt>
      <trkpt lat="49.90549" lon="4.53181">
        <ele>360.4</ele>
        <time>2020-06-25T06:33:22Z</time>
      </trkpt>
      <trkpt lat="49.90541" lon="4.53182">
        <ele>360.2</ele>
        <time>2020-06-25T06:33:23Z</time>
      </trkpt>
      <trkpt lat="49.90534" lon="4.53184">
        <ele>359.9</ele>
        <time>2020-06-25T06:33:24Z</time>
      </trkpt>
      <trkpt lat="49.90527" lon="4.53186">
        <ele>359.6</ele>
        <time>2020-06-25T06:33:25Z</time>
      </trkpt>
      <trkpt lat="49.9052" lon="4.53189">
        <ele>359.3</ele>
        <time>2020-06-25T06:33:26Z</time>
      </trkpt>
      <trkpt lat="49.90512" lon="4.53192">
        <ele>358.9</ele>
        <time>2020-06-25T06:33:27Z</time>
      </trkpt>
      <trkpt lat="49.90505" lon="4.53196">
        <ele>358.6</ele>
        <time>2020-06-25T06:33:28Z</time>
      </trkpt>
      <trkpt lat="49.90498" lon="4.53201">
        <ele>358.2</ele>
        <time>2020-06-25T06:33:29Z</time>
      </trkpt>
      <trkpt lat="49.9049" lon="4.53205">
        <ele>357.8</ele>
        <time>2020-06-25T06:33:30Z</time>
      </trkpt>
      <trkpt lat="49.90482" lon="4.5321">
        <ele>357.5</ele>
        <time>2020-06-25T06:33:31Z</time>
      </trkpt>
      <trkpt lat="49.90475" lon="4.53214">
        <ele>357.1</ele>
        <time>2020-06-25T06:33:32Z</time>
      </trkpt>
      <trkpt lat="49.90467" lon="4.53218">
        <ele>356.7</ele>
        <time>2020-06-25T06:33:33Z</time>
      </trkpt>
      <trkpt lat="49.90459" lon="4.53221">
        <ele>356.3</ele>
        <time>2020-06-25T06:33:34Z</time>
      </trkpt>
      <trkpt lat="49.90451" lon="4.53224">
        <ele>356</ele>
        <time>2020-06-25T06:33:35Z</time>
      </trkpt>
      <trkpt lat="49.90443" lon="4.53227">
        <ele>355.7</ele>
        <time>2020-06-25T06:33:36Z</time>
      </trkpt>
      <trkpt lat="49.90435" lon="4.5323">
        <ele>355.4</ele>
        <time>2020-06-25T06:33:37Z</time>
      </trkpt>
      <trkpt lat="49.90427" lon="4.53231">
        <ele>355</ele>
        <time>2020-06-25T06:33:38Z</time>
      </trkpt>
      <trkpt lat="49.90419" lon="4.53233">
        <ele>354.7</ele>
        <time>2020-06-25T06:33:39Z</time>
      </trkpt>
      <trkpt lat="49.9041" lon="4.53235">
        <ele>354.3</ele>
        <time>2020-06-25T06:33:40Z</time>
      </trkpt>
      <trkpt lat="49.90401" lon="4.53237">
        <ele>353.9</ele>
        <time>2020-06-25T06:33:41Z</time>
      </trkpt>
      <trkpt lat="49.90392" lon="4.53239">
        <ele>353.5</ele>
        <time>2020-06-25T06:33:42Z</time>
      </trkpt>
      <trkpt lat="49.90384" lon="4.53241">
        <ele>353.2</ele>
        <time>2020-06-25T06:33:43Z</time>
      </trkpt>
      <trkpt lat="49.90375" lon="4.53243">
        <ele>352.8</ele>
        <time>2020-06-25T06:33:44Z</time>
      </trkpt>
      <trkpt lat="49.90366" lon="4.53245">
        <ele>352.4</ele>
        <time>2020-06-25T06:33:45Z</time>
      </trkpt>
      <trkpt lat="49.90358" lon="4.53249">
        <ele>351.9</ele>
        <time>2020-06-25T06:33:46Z</time>
      </trkpt>
      <trkpt lat="49.90349" lon="4.53251">
        <ele>351.5</ele>
        <time>2020-06-25T06:33:47Z</time>
      </trkpt>
      <trkpt lat="49.9034" lon="4.53255">
        <ele>351.1</ele>
        <time>2020-06-25T06:33:48Z</time>
      </trkpt>
      <trkpt lat="49.9033" lon="4.53259">
        <ele>350.5</ele>
        <time>2020-06-25T06:33:49Z</time>
      </trkpt>
      <trkpt lat="49.90321" lon="4.53263">
        <ele>350</ele>
        <time>2020-06-25T06:33:50Z</time>
      </trkpt>
      <trkpt lat="49.90312" lon="4.53267">
        <ele>349.6</ele>
        <time>2020-06-25T06:33:51Z</time>
      </trkpt>
      <trkpt lat="49.90294" lon="4.53276">
        <ele>348.8</ele>
        <time>2020-06-25T06:33:52Z</time>
      </trkpt>
      <trkpt lat="49.90285" lon="4.5328">
        <ele>348.4</ele>
        <time>2020-06-25T06:33:53Z</time>
      </trkpt>
      <trkpt lat="49.90276" lon="4.53284">
        <ele>347.9</ele>
        <time>2020-06-25T06:33:54Z</time>
      </trkpt>
      <trkpt lat="49.90268" lon="4.53289">
        <ele>347.4</ele>
        <time>2020-06-25T06:33:55Z</time>
      </trkpt>
      <trkpt lat="49.90259" lon="4.53294">
        <ele>347</ele>
        <time>2020-06-25T06:33:56Z</time>
      </trkpt>
      <trkpt lat="49.90251" lon="4.53299">
        <ele>346.4</ele>
        <time>2020-06-25T06:33:57Z</time>
      </trkpt>
      <trkpt lat="49.90242" lon="4.53303">
        <ele>345.9</ele>
        <time>2020-06-25T06:33:58Z</time>
      </trkpt>
      <trkpt lat="49.90234" lon="4.53308">
        <ele>345.3</ele>
        <time>2020-06-25T06:33:59Z</time>
      </trkpt>
      <trkpt lat="49.90225" lon="4.53313">
        <ele>344.7</ele>
        <time>2020-06-25T06:34:00Z</time>
      </trkpt>
      <trkpt lat="49.90216" lon="4.53317">
        <ele>344.1</ele>
        <time>2020-06-25T06:34:01Z</time>
      </trkpt>
      <trkpt lat="49.90207" lon="4.5332">
        <ele>343.6</ele>
        <time>2020-06-25T06:34:02Z</time>
      </trkpt>
      <trkpt lat="49.90198" lon="4.53324">
        <ele>343.1</ele>
        <time>2020-06-25T06:34:03Z</time>
      </trkpt>
      <trkpt lat="49.90189" lon="4.53328">
        <ele>342.6</ele>
        <time>2020-06-25T06:34:04Z</time>
      </trkpt>
      <trkpt lat="49.9018" lon="4.53332">
        <ele>342.1</ele>
        <time>2020-06-25T06:34:05Z</time>
      </trkpt>
      <trkpt lat="49.90171" lon="4.53337">
        <ele>341.8</ele>
        <time>2020-06-25T06:34:06Z</time>
      </trkpt>
      <trkpt lat="49.90161" lon="4.53341">
        <ele>341.5</ele>
        <time>2020-06-25T06:34:07Z</time>
      </trkpt>
      <trkpt lat="49.90152" lon="4.53347">
        <ele>341.2</ele>
        <time>2020-06-25T06:34:08Z</time>
      </trkpt>
      <trkpt lat="49.90144" lon="4.53353">
        <ele>341</ele>
        <time>2020-06-25T06:34:09Z</time>
      </trkpt>
      <trkpt lat="49.90136" lon="4.53361">
        <ele>340.7</ele>
        <time>2020-06-25T06:34:10Z</time>
      </trkpt>
      <trkpt lat="49.90129" lon="4.5337">
        <ele>340.5</ele>
        <time>2020-06-25T06:34:11Z</time>
      </trkpt>
      <trkpt lat="49.90122" lon="4.53378">
        <ele>340.4</ele>
        <time>2020-06-25T06:34:12Z</time>
      </trkpt>
      <trkpt lat="49.90115" lon="4.53387">
        <ele>340.2</ele>
        <time>2020-06-25T06:34:13Z</time>
      </trkpt>
      <trkpt lat="49.90108" lon="4.53394">
        <ele>340.1</ele>
        <time>2020-06-25T06:34:14Z</time>
      </trkpt>
      <trkpt lat="49.90101" lon="4.53402">
        <ele>340.1</ele>
        <time>2020-06-25T06:34:15Z</time>
      </trkpt>
      <trkpt lat="49.90095" lon="4.53409">
        <ele>340.2</ele>
        <time>2020-06-25T06:34:16Z</time>
      </trkpt>
      <trkpt lat="49.90089" lon="4.53416">
        <ele>340.2</ele>
        <time>2020-06-25T06:34:17Z</time>
      </trkpt>
      <trkpt lat="49.90083" lon="4.53423">
        <ele>340.4</ele>
        <time>2020-06-25T06:34:18Z</time>
      </trkpt>
      <trkpt lat="49.90077" lon="4.53429">
        <ele>340.5</ele>
        <time>2020-06-25T06:34:19Z</time>
      </trkpt>
      <trkpt lat="49.90071" lon="4.53436">
        <ele>340.6</ele>
        <time>2020-06-25T06:34:20Z</time>
      </trkpt>
      <trkpt lat="49.90067" lon="4.53442">
        <ele>340.7</ele>
        <time>2020-06-25T06:34:21Z</time>
      </trkpt>
      <trkpt lat="49.90063" lon="4.53449">
        <ele>340.7</ele>
        <time>2020-06-25T06:34:22Z</time>
      </trkpt>
      <trkpt lat="49.90058" lon="4.53454">
        <ele>340.8</ele>
        <time>2020-06-25T06:34:23Z</time>
      </trkpt>
      <trkpt lat="49.90054" lon="4.53459">
        <ele>340.8</ele>
        <time>2020-06-25T06:34:24Z</time>
      </trkpt>
      <trkpt lat="49.90052" lon="4.53466">
        <ele>340.8</ele>
        <time>2020-06-25T06:34:25Z</time>
      </trkpt>
      <trkpt lat="49.90047" lon="4.5347">
        <ele>340.9</ele>
        <time>2020-06-25T06:34:26Z</time>
      </trkpt>
      <trkpt lat="49.90043" lon="4.53475">
        <ele>340.9</ele>
        <time>2020-06-25T06:34:27Z</time>
      </trkpt>
      <trkpt lat="49.90039" lon="4.5348">
        <ele>341</ele>
        <time>2020-06-25T06:34:28Z</time>
      </trkpt>
      <trkpt lat="49.90035" lon="4.53484">
        <ele>341</ele>
        <time>2020-06-25T06:34:29Z</time>
      </trkpt>
      <trkpt lat="49.9003" lon="4.53488">
        <ele>341.1</ele>
        <time>2020-06-25T06:34:30Z</time>
      </trkpt>
      <trkpt lat="49.90026" lon="4.53492">
        <ele>341.2</ele>
        <time>2020-06-25T06:34:31Z</time>
      </trkpt>
      <trkpt lat="49.90022" lon="4.53496">
        <ele>341.3</ele>
        <time>2020-06-25T06:34:32Z</time>
      </trkpt>
      <trkpt lat="49.90017" lon="4.535">
        <ele>341.5</ele>
        <time>2020-06-25T06:34:33Z</time>
      </trkpt>
      <trkpt lat="49.90013" lon="4.53505">
        <ele>341.7</ele>
        <time>2020-06-25T06:34:34Z</time>
      </trkpt>
      <trkpt lat="49.90009" lon="4.5351">
        <ele>341.9</ele>
        <time>2020-06-25T06:34:35Z</time>
      </trkpt>
      <trkpt lat="49.90005" lon="4.53514">
        <ele>342.1</ele>
        <time>2020-06-25T06:34:36Z</time>
      </trkpt>
      <trkpt lat="49.90002" lon="4.5352">
        <ele>342.3</ele>
        <time>2020-06-25T06:34:37Z</time>
      </trkpt>
      <trkpt lat="49.89998" lon="4.53524">
        <ele>342.6</ele>
        <time>2020-06-25T06:34:38Z</time>
      </trkpt>
      <trkpt lat="49.89994" lon="4.53528">
        <ele>342.8</ele>
        <time>2020-06-25T06:34:39Z</time>
      </trkpt>
      <trkpt lat="49.8999" lon="4.53532">
        <ele>343</ele>
        <time>2020-06-25T06:34:40Z</time>
      </trkpt>
      <trkpt lat="49.89987" lon="4.53537">
        <ele>343.3</ele>
        <time>2020-06-25T06:34:41Z</time>
      </trkpt>
      <trkpt lat="49.89983" lon="4.53541">
        <ele>343.5</ele>
        <time>2020-06-25T06:34:42Z</time>
      </trkpt>
      <trkpt lat="49.89979" lon="4.53545">
        <ele>343.8</ele>
        <time>2020-06-25T06:34:43Z</time>
      </trkpt>
      <trkpt lat="49.89975" lon="4.5355">
        <ele>344.1</ele>
        <time>2020-06-25T06:34:44Z</time>
      </trkpt>
      <trkpt lat="49.89971" lon="4.53555">
        <ele>344.4</ele>
        <time>2020-06-25T06:34:45Z</time>
      </trkpt>
      <trkpt lat="49.89966" lon="4.53559">
        <ele>344.7</ele>
        <time>2020-06-25T06:34:46Z</time>
      </trkpt>
      <trkpt lat="49.89962" lon="4.53563">
        <ele>345</ele>
        <time>2020-06-25T06:34:47Z</time>
      </trkpt>
      <trkpt lat="49.89957" lon="4.53567">
        <ele>345.3</ele>
        <time>2020-06-25T06:34:48Z</time>
      </trkpt>
      <trkpt lat="49.89953" lon="4.5357">
        <ele>345.5</ele>
        <time>2020-06-25T06:34:49Z</time>
      </trkpt>
      <trkpt lat="49.89948" lon="4.53573">
        <ele>345.8</ele>
        <time>2020-06-25T06:34:50Z</time>
      </trkpt>
      <trkpt lat="49.89944" lon="4.53577">
        <ele>346.1</ele>
        <time>2020-06-25T06:34:51Z</time>
      </trkpt>
      <trkpt lat="49.8994" lon="4.5358">
        <ele>346.3</ele>
        <time>2020-06-25T06:34:52Z</time>
      </trkpt>
      <trkpt lat="49.89935" lon="4.53584">
        <ele>346.5</ele>
        <time>2020-06-25T06:34:53Z</time>
      </trkpt>
      <trkpt lat="49.8993" lon="4.53588">
        <ele>346.8</ele>
        <time>2020-06-25T06:34:54Z</time>
      </trkpt>
      <trkpt lat="49.89927" lon="4.53591">
        <ele>347</ele>
        <time>2020-06-25T06:34:55Z</time>
      </trkpt>
      <trkpt lat="49.89922" lon="4.53594">
        <ele>347.2</ele>
        <time>2020-06-25T06:34:56Z</time>
      </trkpt>
      <trkpt lat="49.89918" lon="4.53597">
        <ele>347.4</ele>
        <time>2020-06-25T06:34:57Z</time>
      </trkpt>
      <trkpt lat="49.89915" lon="4.53599">
        <ele>347.6</ele>
        <time>2020-06-25T06:34:58Z</time>
      </trkpt>
      <trkpt lat="49.89911" lon="4.53602">
        <ele>347.8</ele>
        <time>2020-06-25T06:34:59Z</time>
      </trkpt>
      <trkpt lat="49.89906" lon="4.53605">
        <ele>348.1</ele>
        <time>2020-06-25T06:35:00Z</time>
      </trkpt>
      <trkpt lat="49.89902" lon="4.53608">
        <ele>348.3</ele>
        <time>2020-06-25T06:35:01Z</time>
      </trkpt>
      <trkpt lat="49.89897" lon="4.53611">
        <ele>348.5</ele>
        <time>2020-06-25T06:35:02Z</time>
      </trkpt>
      <trkpt lat="49.89893" lon="4.53614">
        <ele>348.7</ele>
        <time>2020-06-25T06:35:03Z</time>
      </trkpt>
      <trkpt lat="49.89889" lon="4.53617">
        <ele>349</ele>
        <time>2020-06-25T06:35:04Z</time>
      </trkpt>
      <trkpt lat="49.89885" lon="4.5362">
        <ele>349.2</ele>
        <time>2020-06-25T06:35:05Z</time>
      </trkpt>
      <trkpt lat="49.89881" lon="4.53623">
        <ele>349.4</ele>
        <time>2020-06-25T06:35:06Z</time>
      </trkpt>
      <trkpt lat="49.89877" lon="4.53626">
        <ele>349.6</ele>
        <time>2020-06-25T06:35:07Z</time>
      </trkpt>
      <trkpt lat="49.89874" lon="4.53628">
        <ele>349.8</ele>
        <time>2020-06-25T06:35:08Z</time>
      </trkpt>
      <trkpt lat="49.8987" lon="4.53631">
        <ele>350</ele>
        <time>2020-06-25T06:35:09Z</time>
      </trkpt>
      <trkpt lat="49.89866" lon="4.53634">
        <ele>350.2</ele>
        <time>2020-06-25T06:35:10Z</time>
      </trkpt>
      <trkpt lat="49.89862" lon="4.53637">
        <ele>350.5</ele>
        <time>2020-06-25T06:35:11Z</time>
      </trkpt>
      <trkpt lat="49.8986" lon="4.5364">
        <ele>350.6</ele>
        <time>2020-06-25T06:35:12Z</time>
      </trkpt>
      <trkpt lat="49.89856" lon="4.53644">
        <ele>350.9</ele>
        <time>2020-06-25T06:35:13Z</time>
      </trkpt>
      <trkpt lat="49.89853" lon="4.53646">
        <ele>351</ele>
        <time>2020-06-25T06:35:14Z</time>
      </trkpt>
      <trkpt lat="49.8985" lon="4.53649">
        <ele>351.2</ele>
        <time>2020-06-25T06:35:15Z</time>
      </trkpt>
      <trkpt lat="49.89846" lon="4.53652">
        <ele>351.5</ele>
        <time>2020-06-25T06:35:16Z</time>
      </trkpt>
      <trkpt lat="49.89842" lon="4.53655">
        <ele>351.7</ele>
        <time>2020-06-25T06:35:17Z</time>
      </trkpt>
      <trkpt lat="49.89838" lon="4.53657">
        <ele>351.9</ele>
        <time>2020-06-25T06:35:18Z</time>
      </trkpt>
      <trkpt lat="49.89835" lon="4.5366">
        <ele>352.1</ele>
        <time>2020-06-25T06:35:19Z</time>
      </trkpt>
      <trkpt lat="49.89832" lon="4.53663">
        <ele>352.3</ele>
        <time>2020-06-25T06:35:20Z</time>
      </trkpt>
      <trkpt lat="49.89829" lon="4.53666">
        <ele>352.5</ele>
        <time>2020-06-25T06:35:21Z</time>
      </trkpt>
      <trkpt lat="49.89826" lon="4.53668">
        <ele>352.7</ele>
        <time>2020-06-25T06:35:22Z</time>
      </trkpt>
      <trkpt lat="49.89823" lon="4.5367">
        <ele>352.9</ele>
        <time>2020-06-25T06:35:23Z</time>
      </trkpt>
      <trkpt lat="49.8982" lon="4.53672">
        <ele>353.1</ele>
        <time>2020-06-25T06:35:24Z</time>
      </trkpt>
      <trkpt lat="49.89816" lon="4.53675">
        <ele>353.4</ele>
        <time>2020-06-25T06:35:25Z</time>
      </trkpt>
      <trkpt lat="49.89814" lon="4.53677">
        <ele>353.5</ele>
        <time>2020-06-25T06:35:26Z</time>
      </trkpt>
      <trkpt lat="49.89811" lon="4.5368">
        <ele>353.7</ele>
        <time>2020-06-25T06:35:27Z</time>
      </trkpt>
      <trkpt lat="49.89808" lon="4.53683">
        <ele>354</ele>
        <time>2020-06-25T06:35:28Z</time>
      </trkpt>
      <trkpt lat="49.89805" lon="4.53685">
        <ele>354.1</ele>
        <time>2020-06-25T06:35:29Z</time>
      </trkpt>
      <trkpt lat="49.89802" lon="4.53687">
        <ele>354.4</ele>
        <time>2020-06-25T06:35:30Z</time>
      </trkpt>
      <trkpt lat="49.89798" lon="4.53689">
        <ele>354.5</ele>
        <time>2020-06-25T06:35:31Z</time>
      </trkpt>
      <trkpt lat="49.89795" lon="4.53692">
        <ele>354.8</ele>
        <time>2020-06-25T06:35:32Z</time>
      </trkpt>
      <trkpt lat="49.89793" lon="4.53694">
        <ele>354.9</ele>
        <time>2020-06-25T06:35:33Z</time>
      </trkpt>
      <trkpt lat="49.89789" lon="4.53696">
        <ele>355.2</ele>
        <time>2020-06-25T06:35:34Z</time>
      </trkpt>
      <trkpt lat="49.89786" lon="4.53698">
        <ele>355.3</ele>
        <time>2020-06-25T06:35:35Z</time>
      </trkpt>
      <trkpt lat="49.89783" lon="4.537">
        <ele>355.6</ele>
        <time>2020-06-25T06:35:36Z</time>
      </trkpt>
      <trkpt lat="49.8978" lon="4.53702">
        <ele>355.8</ele>
        <time>2020-06-25T06:35:37Z</time>
      </trkpt>
      <trkpt lat="49.89776" lon="4.53706">
        <ele>356.1</ele>
        <time>2020-06-25T06:35:38Z</time>
      </trkpt>
      <trkpt lat="49.89771" lon="4.53709">
        <ele>356.4</ele>
        <time>2020-06-25T06:35:39Z</time>
      </trkpt>
      <trkpt lat="49.89768" lon="4.53711">
        <ele>356.7</ele>
        <time>2020-06-25T06:35:40Z</time>
      </trkpt>
      <trkpt lat="49.89764" lon="4.53714">
        <ele>356.9</ele>
        <time>2020-06-25T06:35:41Z</time>
      </trkpt>
      <trkpt lat="49.8976" lon="4.53717">
        <ele>357.2</ele>
        <time>2020-06-25T06:35:42Z</time>
      </trkpt>
      <trkpt lat="49.89757" lon="4.53718">
        <ele>357.5</ele>
        <time>2020-06-25T06:35:43Z</time>
      </trkpt>
      <trkpt lat="49.89754" lon="4.5372">
        <ele>357.7</ele>
        <time>2020-06-25T06:35:44Z</time>
      </trkpt>
      <trkpt lat="49.89751" lon="4.53722">
        <ele>357.9</ele>
        <time>2020-06-25T06:35:45Z</time>
      </trkpt>
      <trkpt lat="49.89747" lon="4.53724">
        <ele>358.2</ele>
        <time>2020-06-25T06:35:46Z</time>
      </trkpt>
      <trkpt lat="49.89744" lon="4.53726">
        <ele>358.5</ele>
        <time>2020-06-25T06:35:47Z</time>
      </trkpt>
      <trkpt lat="49.8974" lon="4.53728">
        <ele>358.8</ele>
        <time>2020-06-25T06:35:48Z</time>
      </trkpt>
      <trkpt lat="49.89737" lon="4.5373">
        <ele>359</ele>
        <time>2020-06-25T06:35:49Z</time>
      </trkpt>
      <trkpt lat="49.89733" lon="4.53732">
        <ele>359.3</ele>
        <time>2020-06-25T06:35:50Z</time>
      </trkpt>
      <trkpt lat="49.89729" lon="4.53734">
        <ele>359.6</ele>
        <time>2020-06-25T06:35:51Z</time>
      </trkpt>
      <trkpt lat="49.89725" lon="4.53736">
        <ele>359.9</ele>
        <time>2020-06-25T06:35:52Z</time>
      </trkpt>
      <trkpt lat="49.89721" lon="4.53738">
        <ele>360.2</ele>
        <time>2020-06-25T06:35:53Z</time>
      </trkpt>
      <trkpt lat="49.89717" lon="4.53739">
        <ele>360.4</ele>
        <time>2020-06-25T06:35:54Z</time>
      </trkpt>
      <trkpt lat="49.89713" lon="4.53741">
        <ele>360.8</ele>
        <time>2020-06-25T06:35:55Z</time>
      </trkpt>
      <trkpt lat="49.89709" lon="4.53742">
        <ele>361.1</ele>
        <time>2020-06-25T06:35:56Z</time>
      </trkpt>
      <trkpt lat="49.89706" lon="4.53743">
        <ele>361.3</ele>
        <time>2020-06-25T06:35:57Z</time>
      </trkpt>
      <trkpt lat="49.89703" lon="4.53744">
        <ele>361.6</ele>
        <time>2020-06-25T06:35:58Z</time>
      </trkpt>
      <trkpt lat="49.897" lon="4.53744">
        <ele>361.8</ele>
        <time>2020-06-25T06:35:59Z</time>
      </trkpt>
      <trkpt lat="49.89696" lon="4.53745">
        <ele>362.1</ele>
        <time>2020-06-25T06:36:00Z</time>
      </trkpt>
      <trkpt lat="49.89693" lon="4.53746">
        <ele>362.3</ele>
        <time>2020-06-25T06:36:01Z</time>
      </trkpt>
      <trkpt lat="49.8969" lon="4.53747">
        <ele>362.5</ele>
        <time>2020-06-25T06:36:02Z</time>
      </trkpt>
      <trkpt lat="49.89687" lon="4.53748">
        <ele>362.8</ele>
        <time>2020-06-25T06:36:03Z</time>
      </trkpt>
      <trkpt lat="49.89684" lon="4.53749">
        <ele>363</ele>
        <time>2020-06-25T06:36:04Z</time>
      </trkpt>
      <trkpt lat="49.89679" lon="4.53751">
        <ele>363.3</ele>
        <time>2020-06-25T06:36:05Z</time>
      </trkpt>
      <trkpt lat="49.89676" lon="4.53752">
        <ele>363.5</ele>
        <time>2020-06-25T06:36:06Z</time>
      </trkpt>
      <trkpt lat="49.89673" lon="4.53753">
        <ele>363.8</ele>
        <time>2020-06-25T06:36:07Z</time>
      </trkpt>
      <trkpt lat="49.8967" lon="4.53754">
        <ele>364</ele>
        <time>2020-06-25T06:36:08Z</time>
      </trkpt>
      <trkpt lat="49.89667" lon="4.53755">
        <ele>364.2</ele>
        <time>2020-06-25T06:36:09Z</time>
      </trkpt>
      <trkpt lat="49.89663" lon="4.53755">
        <ele>364.5</ele>
        <time>2020-06-25T06:36:10Z</time>
      </trkpt>
      <trkpt lat="49.89659" lon="4.53756">
        <ele>364.8</ele>
        <time>2020-06-25T06:36:11Z</time>
      </trkpt>
      <trkpt lat="49.89656" lon="4.53757">
        <ele>365</ele>
        <time>2020-06-25T06:36:12Z</time>
      </trkpt>
      <trkpt lat="49.89652" lon="4.53757">
        <ele>365.3</ele>
        <time>2020-06-25T06:36:13Z</time>
      </trkpt>
      <trkpt lat="49.8965" lon="4.53758">
        <ele>365.4</ele>
        <time>2020-06-25T06:36:14Z</time>
      </trkpt>
      <trkpt lat="49.89646" lon="4.53759">
        <ele>365.8</ele>
        <time>2020-06-25T06:36:15Z</time>
      </trkpt>
      <trkpt lat="49.89642" lon="4.53761">
        <ele>366.1</ele>
        <time>2020-06-25T06:36:16Z</time>
      </trkpt>
      <trkpt lat="49.89637" lon="4.5376">
        <ele>366.4</ele>
        <time>2020-06-25T06:36:17Z</time>
      </trkpt>
      <trkpt lat="49.89634" lon="4.53761">
        <ele>366.7</ele>
        <time>2020-06-25T06:36:18Z</time>
      </trkpt>
      <trkpt lat="49.89631" lon="4.5376">
        <ele>366.9</ele>
        <time>2020-06-25T06:36:19Z</time>
      </trkpt>
      <trkpt lat="49.89627" lon="4.53761">
        <ele>367.3</ele>
        <time>2020-06-25T06:36:20Z</time>
      </trkpt>
      <trkpt lat="49.89625" lon="4.53761">
        <ele>367.4</ele>
        <time>2020-06-25T06:36:21Z</time>
      </trkpt>
      <trkpt lat="49.89622" lon="4.53761">
        <ele>367.7</ele>
        <time>2020-06-25T06:36:22Z</time>
      </trkpt>
      <trkpt lat="49.89618" lon="4.5376">
        <ele>368</ele>
        <time>2020-06-25T06:36:23Z</time>
      </trkpt>
      <trkpt lat="49.89616" lon="4.53761">
        <ele>368.1</ele>
        <time>2020-06-25T06:36:24Z</time>
      </trkpt>
      <trkpt lat="49.89613" lon="4.53761">
        <ele>368.4</ele>
        <time>2020-06-25T06:36:25Z</time>
      </trkpt>
      <trkpt lat="49.8961" lon="4.53762">
        <ele>368.6</ele>
        <time>2020-06-25T06:36:26Z</time>
      </trkpt>
      <trkpt lat="49.89608" lon="4.53762">
        <ele>368.8</ele>
        <time>2020-06-25T06:36:27Z</time>
      </trkpt>
      <trkpt lat="49.89605" lon="4.53761">
        <ele>369</ele>
        <time>2020-06-25T06:36:28Z</time>
      </trkpt>
      <trkpt lat="49.89601" lon="4.53761">
        <ele>369.3</ele>
        <time>2020-06-25T06:36:29Z</time>
      </trkpt>
      <trkpt lat="49.89598" lon="4.5376">
        <ele>369.5</ele>
        <time>2020-06-25T06:36:30Z</time>
      </trkpt>
      <trkpt lat="49.89596" lon="4.5376">
        <ele>369.7</ele>
        <time>2020-06-25T06:36:31Z</time>
      </trkpt>
      <trkpt lat="49.89592" lon="4.5376">
        <ele>369.9</ele>
        <time>2020-06-25T06:36:32Z</time>
      </trkpt>
      <trkpt lat="49.89589" lon="4.53759">
        <ele>370.1</ele>
        <time>2020-06-25T06:36:33Z</time>
      </trkpt>
      <trkpt lat="49.89586" lon="4.53759">
        <ele>370.4</ele>
        <time>2020-06-25T06:36:34Z</time>
      </trkpt>
      <trkpt lat="49.89581" lon="4.53759">
        <ele>370.8</ele>
        <time>2020-06-25T06:36:35Z</time>
      </trkpt>
      <trkpt lat="49.89577" lon="4.53759">
        <ele>371.1</ele>
        <time>2020-06-25T06:36:36Z</time>
      </trkpt>
      <trkpt lat="49.89573" lon="4.53759">
        <ele>371.3</ele>
        <time>2020-06-25T06:36:37Z</time>
      </trkpt>
      <trkpt lat="49.8957" lon="4.5376">
        <ele>371.5</ele>
        <time>2020-06-25T06:36:38Z</time>
      </trkpt>
      <trkpt lat="49.89566" lon="4.53761">
        <ele>371.8</ele>
        <time>2020-06-25T06:36:39Z</time>
      </trkpt>
      <trkpt lat="49.89564" lon="4.5376">
        <ele>371.9</ele>
        <time>2020-06-25T06:36:40Z</time>
      </trkpt>
      <trkpt lat="49.89561" lon="4.5376">
        <ele>372.1</ele>
        <time>2020-06-25T06:36:41Z</time>
      </trkpt>
      <trkpt lat="49.89558" lon="4.5376">
        <ele>372.3</ele>
        <time>2020-06-25T06:36:42Z</time>
      </trkpt>
      <trkpt lat="49.89555" lon="4.5376">
        <ele>372.5</ele>
        <time>2020-06-25T06:36:43Z</time>
      </trkpt>
      <trkpt lat="49.89552" lon="4.5376">
        <ele>372.6</ele>
        <time>2020-06-25T06:36:44Z</time>
      </trkpt>
      <trkpt lat="49.89549" lon="4.53761">
        <ele>372.8</ele>
        <time>2020-06-25T06:36:45Z</time>
      </trkpt>
      <trkpt lat="49.89545" lon="4.53761">
        <ele>373</ele>
        <time>2020-06-25T06:36:46Z</time>
      </trkpt>
      <trkpt lat="49.89541" lon="4.53761">
        <ele>373.2</ele>
        <time>2020-06-25T06:36:47Z</time>
      </trkpt>
      <trkpt lat="49.8954" lon="4.53761">
        <ele>373.3</ele>
        <time>2020-06-25T06:36:48Z</time>
      </trkpt>
      <trkpt lat="49.89536" lon="4.53761">
        <ele>373.5</ele>
        <time>2020-06-25T06:36:49Z</time>
      </trkpt>
      <trkpt lat="49.89535" lon="4.53761">
        <ele>373.5</ele>
        <time>2020-06-25T06:36:50Z</time>
      </trkpt>
      <trkpt lat="49.89531" lon="4.5376">
        <ele>373.6</ele>
        <time>2020-06-25T06:36:51Z</time>
      </trkpt>
      <trkpt lat="49.89528" lon="4.5376">
        <ele>373.8</ele>
        <time>2020-06-25T06:36:52Z</time>
      </trkpt>
      <trkpt lat="49.89524" lon="4.53759">
        <ele>373.9</ele>
        <time>2020-06-25T06:36:53Z</time>
      </trkpt>
      <trkpt lat="49.89523" lon="4.53759">
        <ele>373.9</ele>
        <time>2020-06-25T06:36:54Z</time>
      </trkpt>
      <trkpt lat="49.89519" lon="4.53758">
        <ele>374.1</ele>
        <time>2020-06-25T06:36:55Z</time>
      </trkpt>
      <trkpt lat="49.89517" lon="4.53758">
        <ele>374.1</ele>
        <time>2020-06-25T06:36:56Z</time>
      </trkpt>
      <trkpt lat="49.89517" lon="4.53758">
        <ele>374.1</ele>
        <time>2020-06-25T06:36:57Z</time>
      </trkpt>
      <trkpt lat="49.89516" lon="4.53758">
        <ele>374.2</ele>
        <time>2020-06-25T06:36:58Z</time>
      </trkpt>
      <trkpt lat="49.89517" lon="4.53757">
        <ele>374.2</ele>
        <time>2020-06-25T06:36:59Z</time>
      </trkpt>
      <trkpt lat="49.89517" lon="4.53757">
        <ele>374.2</ele>
        <time>2020-06-25T06:37:00Z</time>
      </trkpt>
      <trkpt lat="49.89517" lon="4.53756">
        <ele>374.2</ele>
        <time>2020-06-25T06:37:01Z</time>
      </trkpt>
      <trkpt lat="49.89517" lon="4.53756">
        <ele>374.2</ele>
        <time>2020-06-25T06:37:02Z</time>
      </trkpt>
      <trkpt lat="49.89517" lon="4.53756">
        <ele>374.2</ele>
        <time>2020-06-25T06:37:03Z</time>
      </trkpt>
      <trkpt lat="49.89517" lon="4.53756">
        <ele>374.2</ele>
        <time>2020-06-25T06:37:04Z</time>
      </trkpt>
      <trkpt lat="49.89517" lon="4.53756">
        <ele>374.2</ele>
        <time>2020-06-25T06:37:05Z</time>
      </trkpt>
      <trkpt lat="49.89517" lon="4.53756">
        <ele>374.2</ele>
        <time>2020-06-25T06:37:06Z</time>
      </trkpt>
      <trkpt lat="49.89517" lon="4.53756">
        <ele>374.3</ele>
        <time>2020-06-25T06:37:07Z</time>
      </trkpt>
      <trkpt lat="49.89517" lon="4.53756">
        <ele>374.3</ele>
        <time>2020-06-25T06:37:08Z</time>
      </trkpt>
      <trkpt lat="49.89517" lon="4.53756">
        <ele>374.3</ele>
        <time>2020-06-25T06:37:09Z</time>
      </trkpt>
      <trkpt lat="49.8951" lon="4.53759">
        <ele>374.5</ele>
        <time>2020-06-25T06:38:45Z</time>
      </trkpt>
      <trkpt lat="49.89509" lon="4.53758">
        <ele>374.5</ele>
        <time>2020-06-25T06:38:46Z</time>
      </trkpt>
      <trkpt lat="49.89507" lon="4.53758">
        <ele>374.5</ele>
        <time>2020-06-25T06:38:47Z</time>
      </trkpt>
      <trkpt lat="49.89505" lon="4.53759">
        <ele>374.6</ele>
        <time>2020-06-25T06:38:48Z</time>
      </trkpt>
      <trkpt lat="49.895" lon="4.53759">
        <ele>374.7</ele>
        <time>2020-06-25T06:38:49Z</time>
      </trkpt>
      <trkpt lat="49.89497" lon="4.5376">
        <ele>374.7</ele>
        <time>2020-06-25T06:38:50Z</time>
      </trkpt>
      <trkpt lat="49.89494" lon="4.5376">
        <ele>374.8</ele>
        <time>2020-06-25T06:38:51Z</time>
      </trkpt>
      <trkpt lat="49.89491" lon="4.53761">
        <ele>374.9</ele>
        <time>2020-06-25T06:38:52Z</time>
      </trkpt>
      <trkpt lat="49.89487" lon="4.53761">
        <ele>374.9</ele>
        <time>2020-06-25T06:38:53Z</time>
      </trkpt>
      <trkpt lat="49.89483" lon="4.53761">
        <ele>375</ele>
        <time>2020-06-25T06:38:54Z</time>
      </trkpt>
      <trkpt lat="49.89479" lon="4.53761">
        <ele>375.1</ele>
        <time>2020-06-25T06:38:55Z</time>
      </trkpt>
      <trkpt lat="49.89474" lon="4.5376">
        <ele>375.1</ele>
        <time>2020-06-25T06:38:56Z</time>
      </trkpt>
      <trkpt lat="49.8947" lon="4.5376">
        <ele>375.2</ele>
        <time>2020-06-25T06:38:57Z</time>
      </trkpt>
      <trkpt lat="49.89466" lon="4.5376">
        <ele>375.2</ele>
        <time>2020-06-25T06:38:58Z</time>
      </trkpt>
      <trkpt lat="49.89462" lon="4.53759">
        <ele>375.3</ele>
        <time>2020-06-25T06:38:59Z</time>
      </trkpt>
      <trkpt lat="49.89457" lon="4.53758">
        <ele>375.3</ele>
        <time>2020-06-25T06:39:00Z</time>
      </trkpt>
      <trkpt lat="49.89454" lon="4.53758">
        <ele>375.4</ele>
        <time>2020-06-25T06:39:01Z</time>
      </trkpt>
      <trkpt lat="49.8945" lon="4.53759">
        <ele>375.4</ele>
        <time>2020-06-25T06:39:02Z</time>
      </trkpt>
      <trkpt lat="49.89445" lon="4.53759">
        <ele>375.5</ele>
        <time>2020-06-25T06:39:03Z</time>
      </trkpt>
      <trkpt lat="49.89441" lon="4.5376">
        <ele>375.5</ele>
        <time>2020-06-25T06:39:04Z</time>
      </trkpt>
      <trkpt lat="49.89438" lon="4.53761">
        <ele>375.6</ele>
        <time>2020-06-25T06:39:05Z</time>
      </trkpt>
      <trkpt lat="49.89435" lon="4.53762">
        <ele>375.7</ele>
        <time>2020-06-25T06:39:06Z</time>
      </trkpt>
      <trkpt lat="49.89432" lon="4.53763">
        <ele>375.7</ele>
        <time>2020-06-25T06:39:07Z</time>
      </trkpt>
      <trkpt lat="49.89429" lon="4.53763">
        <ele>375.8</ele>
        <time>2020-06-25T06:39:08Z</time>
      </trkpt>
      <trkpt lat="49.89425" lon="4.53762">
        <ele>375.9</ele>
        <time>2020-06-25T06:39:09Z</time>
      </trkpt>
      <trkpt lat="49.89423" lon="4.53762">
        <ele>375.9</ele>
        <time>2020-06-25T06:39:10Z</time>
      </trkpt>
      <trkpt lat="49.89418" lon="4.53762">
        <ele>376</ele>
        <time>2020-06-25T06:39:11Z</time>
      </trkpt>
      <trkpt lat="49.89414" lon="4.53762">
        <ele>376.1</ele>
        <time>2020-06-25T06:39:12Z</time>
      </trkpt>
      <trkpt lat="49.8941" lon="4.53762">
        <ele>376.2</ele>
        <time>2020-06-25T06:39:13Z</time>
      </trkpt>
      <trkpt lat="49.89405" lon="4.53763">
        <ele>376.3</ele>
        <time>2020-06-25T06:39:14Z</time>
      </trkpt>
      <trkpt lat="49.894" lon="4.53762">
        <ele>376.4</ele>
        <time>2020-06-25T06:39:15Z</time>
      </trkpt>
      <trkpt lat="49.89397" lon="4.53763">
        <ele>376.5</ele>
        <time>2020-06-25T06:39:16Z</time>
      </trkpt>
      <trkpt lat="49.89392" lon="4.53763">
        <ele>376.6</ele>
        <time>2020-06-25T06:39:17Z</time>
      </trkpt>
      <trkpt lat="49.89387" lon="4.53764">
        <ele>376.8</ele>
        <time>2020-06-25T06:39:18Z</time>
      </trkpt>
      <trkpt lat="49.89383" lon="4.53763">
        <ele>376.9</ele>
        <time>2020-06-25T06:39:19Z</time>
      </trkpt>
      <trkpt lat="49.89378" lon="4.53763">
        <ele>377</ele>
        <time>2020-06-25T06:39:20Z</time>
      </trkpt>
      <trkpt lat="49.89373" lon="4.53763">
        <ele>377.1</ele>
        <time>2020-06-25T06:39:21Z</time>
      </trkpt>
      <trkpt lat="49.89369" lon="4.53764">
        <ele>377.2</ele>
        <time>2020-06-25T06:39:22Z</time>
      </trkpt>
      <trkpt lat="49.89364" lon="4.53765">
        <ele>377.3</ele>
        <time>2020-06-25T06:39:23Z</time>
      </trkpt>
      <trkpt lat="49.89359" lon="4.53767">
        <ele>377.4</ele>
        <time>2020-06-25T06:39:24Z</time>
      </trkpt>
      <trkpt lat="49.89354" lon="4.53768">
        <ele>377.5</ele>
        <time>2020-06-25T06:39:25Z</time>
      </trkpt>
      <trkpt lat="49.89349" lon="4.53771">
        <ele>377.5</ele>
        <time>2020-06-25T06:39:26Z</time>
      </trkpt>
      <trkpt lat="49.89344" lon="4.53774">
        <ele>377.6</ele>
        <time>2020-06-25T06:39:27Z</time>
      </trkpt>
      <trkpt lat="49.8934" lon="4.53777">
        <ele>377.7</ele>
        <time>2020-06-25T06:39:28Z</time>
      </trkpt>
      <trkpt lat="49.89336" lon="4.53781">
        <ele>377.7</ele>
        <time>2020-06-25T06:39:29Z</time>
      </trkpt>
      <trkpt lat="49.89333" lon="4.53784">
        <ele>377.8</ele>
        <time>2020-06-25T06:39:30Z</time>
      </trkpt>
      <trkpt lat="49.8933" lon="4.53788">
        <ele>377.8</ele>
        <time>2020-06-25T06:39:31Z</time>
      </trkpt>
      <trkpt lat="49.89327" lon="4.53793">
        <ele>377.9</ele>
        <time>2020-06-25T06:39:32Z</time>
      </trkpt>
      <trkpt lat="49.89324" lon="4.53799">
        <ele>377.9</ele>
        <time>2020-06-25T06:39:33Z</time>
      </trkpt>
      <trkpt lat="49.89321" lon="4.53804">
        <ele>378</ele>
        <time>2020-06-25T06:39:34Z</time>
      </trkpt>
      <trkpt lat="49.89318" lon="4.5381">
        <ele>378</ele>
        <time>2020-06-25T06:39:35Z</time>
      </trkpt>
      <trkpt lat="49.89315" lon="4.53816">
        <ele>378</ele>
        <time>2020-06-25T06:39:36Z</time>
      </trkpt>
      <trkpt lat="49.89312" lon="4.53821">
        <ele>378</ele>
        <time>2020-06-25T06:39:37Z</time>
      </trkpt>
      <trkpt lat="49.8931" lon="4.53826">
        <ele>377.9</ele>
        <time>2020-06-25T06:39:38Z</time>
      </trkpt>
      <trkpt lat="49.89308" lon="4.53831">
        <ele>377.9</ele>
        <time>2020-06-25T06:39:39Z</time>
      </trkpt>
      <trkpt lat="49.89306" lon="4.53836">
        <ele>377.8</ele>
        <time>2020-06-25T06:39:40Z</time>
      </trkpt>
      <trkpt lat="49.89304" lon="4.53843">
        <ele>377.8</ele>
        <time>2020-06-25T06:39:41Z</time>
      </trkpt>
      <trkpt lat="49.89302" lon="4.5385">
        <ele>377.7</ele>
        <time>2020-06-25T06:39:42Z</time>
      </trkpt>
      <trkpt lat="49.893" lon="4.53856">
        <ele>377.6</ele>
        <time>2020-06-25T06:39:43Z</time>
      </trkpt>
      <trkpt lat="49.89296" lon="4.5386">
        <ele>377.6</ele>
        <time>2020-06-25T06:39:44Z</time>
      </trkpt>
      <trkpt lat="49.89294" lon="4.53866">
        <ele>377.5</ele>
        <time>2020-06-25T06:39:45Z</time>
      </trkpt>
      <trkpt lat="49.89292" lon="4.53872">
        <ele>377.4</ele>
        <time>2020-06-25T06:39:46Z</time>
      </trkpt>
      <trkpt lat="49.89288" lon="4.53877">
        <ele>377.2</ele>
        <time>2020-06-25T06:39:47Z</time>
      </trkpt>
      <trkpt lat="49.89286" lon="4.53884">
        <ele>377.1</ele>
        <time>2020-06-25T06:39:48Z</time>
      </trkpt>
      <trkpt lat="49.89283" lon="4.5389">
        <ele>376.9</ele>
        <time>2020-06-25T06:39:49Z</time>
      </trkpt>
      <trkpt lat="49.8928" lon="4.53896">
        <ele>376.7</ele>
        <time>2020-06-25T06:39:50Z</time>
      </trkpt>
      <trkpt lat="49.89277" lon="4.53903">
        <ele>376.5</ele>
        <time>2020-06-25T06:39:51Z</time>
      </trkpt>
      <trkpt lat="49.89275" lon="4.5391">
        <ele>376.3</ele>
        <time>2020-06-25T06:39:52Z</time>
      </trkpt>
      <trkpt lat="49.89271" lon="4.53915">
        <ele>376.2</ele>
        <time>2020-06-25T06:39:53Z</time>
      </trkpt>
      <trkpt lat="49.89268" lon="4.5392">
        <ele>376.1</ele>
        <time>2020-06-25T06:39:54Z</time>
      </trkpt>
      <trkpt lat="49.89265" lon="4.53925">
        <ele>375.9</ele>
        <time>2020-06-25T06:39:55Z</time>
      </trkpt>
      <trkpt lat="49.89263" lon="4.5393">
        <ele>375.8</ele>
        <time>2020-06-25T06:39:56Z</time>
      </trkpt>
      <trkpt lat="49.8926" lon="4.53934">
        <ele>375.7</ele>
        <time>2020-06-25T06:39:57Z</time>
      </trkpt>
      <trkpt lat="49.89258" lon="4.53938">
        <ele>375.6</ele>
        <time>2020-06-25T06:39:58Z</time>
      </trkpt>
      <trkpt lat="49.89257" lon="4.53942">
        <ele>375.5</ele>
        <time>2020-06-25T06:39:59Z</time>
      </trkpt>
      <trkpt lat="49.89254" lon="4.53946">
        <ele>375.3</ele>
        <time>2020-06-25T06:40:00Z</time>
      </trkpt>
      <trkpt lat="49.89252" lon="4.53949">
        <ele>375.2</ele>
        <time>2020-06-25T06:40:01Z</time>
      </trkpt>
      <trkpt lat="49.8925" lon="4.53953">
        <ele>375.1</ele>
        <time>2020-06-25T06:40:02Z</time>
      </trkpt>
      <trkpt lat="49.89248" lon="4.53956">
        <ele>375</ele>
        <time>2020-06-25T06:40:03Z</time>
      </trkpt>
      <trkpt lat="49.89246" lon="4.5396">
        <ele>374.9</ele>
        <time>2020-06-25T06:40:04Z</time>
      </trkpt>
      <trkpt lat="49.89244" lon="4.53964">
        <ele>374.8</ele>
        <time>2020-06-25T06:40:05Z</time>
      </trkpt>
      <trkpt lat="49.89242" lon="4.53969">
        <ele>374.6</ele>
        <time>2020-06-25T06:40:06Z</time>
      </trkpt>
      <trkpt lat="49.89241" lon="4.5397">
        <ele>374.5</ele>
        <time>2020-06-25T06:40:07Z</time>
      </trkpt>
      <trkpt lat="49.89239" lon="4.53974">
        <ele>374.4</ele>
        <time>2020-06-25T06:40:08Z</time>
      </trkpt>
      <trkpt lat="49.89236" lon="4.53978">
        <ele>374.2</ele>
        <time>2020-06-25T06:40:09Z</time>
      </trkpt>
      <trkpt lat="49.89234" lon="4.53984">
        <ele>374</ele>
        <time>2020-06-25T06:40:10Z</time>
      </trkpt>
      <trkpt lat="49.89232" lon="4.53987">
        <ele>373.8</ele>
        <time>2020-06-25T06:40:11Z</time>
      </trkpt>
      <trkpt lat="49.89228" lon="4.53991">
        <ele>373.6</ele>
        <time>2020-06-25T06:40:12Z</time>
      </trkpt>
      <trkpt lat="49.89225" lon="4.53995">
        <ele>373.4</ele>
        <time>2020-06-25T06:40:13Z</time>
      </trkpt>
      <trkpt lat="49.89222" lon="4.53998">
        <ele>373.2</ele>
        <time>2020-06-25T06:40:14Z</time>
      </trkpt>
      <trkpt lat="49.89219" lon="4.54">
        <ele>373.1</ele>
        <time>2020-06-25T06:40:15Z</time>
      </trkpt>
      <trkpt lat="49.89216" lon="4.54003">
        <ele>373</ele>
        <time>2020-06-25T06:40:16Z</time>
      </trkpt>
      <trkpt lat="49.89213" lon="4.54004">
        <ele>372.9</ele>
        <time>2020-06-25T06:40:17Z</time>
      </trkpt>
      <trkpt lat="49.8921" lon="4.54006">
        <ele>372.9</ele>
        <time>2020-06-25T06:40:18Z</time>
      </trkpt>
      <trkpt lat="49.89207" lon="4.54007">
        <ele>372.8</ele>
        <time>2020-06-25T06:40:19Z</time>
      </trkpt>
      <trkpt lat="49.89205" lon="4.54007">
        <ele>372.7</ele>
        <time>2020-06-25T06:40:20Z</time>
      </trkpt>
      <trkpt lat="49.89202" lon="4.54006">
        <ele>372.5</ele>
        <time>2020-06-25T06:40:21Z</time>
      </trkpt>
      <trkpt lat="49.89199" lon="4.54004">
        <ele>372.4</ele>
        <time>2020-06-25T06:40:22Z</time>
      </trkpt>
      <trkpt lat="49.89196" lon="4.54002">
        <ele>372.2</ele>
        <time>2020-06-25T06:40:23Z</time>
      </trkpt>
      <trkpt lat="49.89195" lon="4.54002">
        <ele>372.2</ele>
        <time>2020-06-25T06:40:24Z</time>
      </trkpt>
      <trkpt lat="49.89192" lon="4.54001">
        <ele>372</ele>
        <time>2020-06-25T06:40:25Z</time>
      </trkpt>
      <trkpt lat="49.89191" lon="4.54001">
        <ele>372</ele>
        <time>2020-06-25T06:40:26Z</time>
      </trkpt>
      <trkpt lat="49.89188" lon="4.53998">
        <ele>372</ele>
        <time>2020-06-25T06:40:27Z</time>
      </trkpt>
      <trkpt lat="49.89187" lon="4.53997">
        <ele>372</ele>
        <time>2020-06-25T06:40:28Z</time>
      </trkpt>
      <trkpt lat="49.89184" lon="4.53995">
        <ele>372</ele>
        <time>2020-06-25T06:40:29Z</time>
      </trkpt>
      <trkpt lat="49.89183" lon="4.53994">
        <ele>371.9</ele>
        <time>2020-06-25T06:40:30Z</time>
      </trkpt>
      <trkpt lat="49.8918" lon="4.53991">
        <ele>371.9</ele>
        <time>2020-06-25T06:40:31Z</time>
      </trkpt>
      <trkpt lat="49.89177" lon="4.53989">
        <ele>371.8</ele>
        <time>2020-06-25T06:40:32Z</time>
      </trkpt>
      <trkpt lat="49.89173" lon="4.53986">
        <ele>371.7</ele>
        <time>2020-06-25T06:40:33Z</time>
      </trkpt>
      <trkpt lat="49.8917" lon="4.53982">
        <ele>371.6</ele>
        <time>2020-06-25T06:40:34Z</time>
      </trkpt>
      <trkpt lat="49.89166" lon="4.5398">
        <ele>371.5</ele>
        <time>2020-06-25T06:40:35Z</time>
      </trkpt>
      <trkpt lat="49.89163" lon="4.53978">
        <ele>371.4</ele>
        <time>2020-06-25T06:40:36Z</time>
      </trkpt>
      <trkpt lat="49.89161" lon="4.53978">
        <ele>371.4</ele>
        <time>2020-06-25T06:40:37Z</time>
      </trkpt>
      <trkpt lat="49.89159" lon="4.53976">
        <ele>371.3</ele>
        <time>2020-06-25T06:40:38Z</time>
      </trkpt>
      <trkpt lat="49.89158" lon="4.53976">
        <ele>371.3</ele>
        <time>2020-06-25T06:40:39Z</time>
      </trkpt>
      <trkpt lat="49.89158" lon="4.53976">
        <ele>371.3</ele>
        <time>2020-06-25T06:40:40Z</time>
      </trkpt>
      <trkpt lat="49.89158" lon="4.53977">
        <ele>371.3</ele>
        <time>2020-06-25T06:40:41Z</time>
      </trkpt>
      <trkpt lat="49.89158" lon="4.53977">
        <ele>371.2</ele>
        <time>2020-06-25T06:40:42Z</time>
      </trkpt>
      <trkpt lat="49.89158" lon="4.53977">
        <ele>371.2</ele>
        <time>2020-06-25T06:40:43Z</time>
      </trkpt>
      <trkpt lat="49.89158" lon="4.53976">
        <ele>371.2</ele>
        <time>2020-06-25T06:40:44Z</time>
      </trkpt>
      <trkpt lat="49.89158" lon="4.53976">
        <ele>371.2</ele>
        <time>2020-06-25T06:40:45Z</time>
      </trkpt>
      <trkpt lat="49.89158" lon="4.53976">
        <ele>371.2</ele>
        <time>2020-06-25T06:40:46Z</time>
      </trkpt>
      <trkpt lat="49.89158" lon="4.53977">
        <ele>371.2</ele>
        <time>2020-06-25T06:40:47Z</time>
      </trkpt>
      <trkpt lat="49.89158" lon="4.53977">
        <ele>371.2</ele>
        <time>2020-06-25T06:40:48Z</time>
      </trkpt>
      <trkpt lat="49.89158" lon="4.53977">
        <ele>371.2</ele>
        <time>2020-06-25T06:40:49Z</time>
      </trkpt>
      <trkpt lat="49.89154" lon="4.53969">
        <ele>371.1</ele>
        <time>2020-06-25T06:41:03Z</time>
      </trkpt>
      <trkpt lat="49.89153" lon="4.53967">
        <ele>371</ele>
        <time>2020-06-25T06:41:04Z</time>
      </trkpt>
      <trkpt lat="49.8915" lon="4.53963">
        <ele>371</ele>
        <time>2020-06-25T06:41:05Z</time>
      </trkpt>
      <trkpt lat="49.89149" lon="4.53962">
        <ele>371</ele>
        <time>2020-06-25T06:41:06Z</time>
      </trkpt>
      <trkpt lat="49.89146" lon="4.53958">
        <ele>370.9</ele>
        <time>2020-06-25T06:41:07Z</time>
      </trkpt>
      <trkpt lat="49.89145" lon="4.53957">
        <ele>370.9</ele>
        <time>2020-06-25T06:41:08Z</time>
      </trkpt>
      <trkpt lat="49.89142" lon="4.53953">
        <ele>370.8</ele>
        <time>2020-06-25T06:41:09Z</time>
      </trkpt>
      <trkpt lat="49.89141" lon="4.53948">
        <ele>370.7</ele>
        <time>2020-06-25T06:41:10Z</time>
      </trkpt>
      <trkpt lat="49.89139" lon="4.53945">
        <ele>370.7</ele>
        <time>2020-06-25T06:41:11Z</time>
      </trkpt>
      <trkpt lat="49.89136" lon="4.53941">
        <ele>370.6</ele>
        <time>2020-06-25T06:41:12Z</time>
      </trkpt>
      <trkpt lat="49.89134" lon="4.53936">
        <ele>370.5</ele>
        <time>2020-06-25T06:41:13Z</time>
      </trkpt>
      <trkpt lat="49.89133" lon="4.53935">
        <ele>370.5</ele>
        <time>2020-06-25T06:41:14Z</time>
      </trkpt>
      <trkpt lat="49.8913" lon="4.53931">
        <ele>370.4</ele>
        <time>2020-06-25T06:41:15Z</time>
      </trkpt>
      <trkpt lat="49.89127" lon="4.53928">
        <ele>370.4</ele>
        <time>2020-06-25T06:41:16Z</time>
      </trkpt>
      <trkpt lat="49.89124" lon="4.53924">
        <ele>370.3</ele>
        <time>2020-06-25T06:41:17Z</time>
      </trkpt>
      <trkpt lat="49.89121" lon="4.53921">
        <ele>370.2</ele>
        <time>2020-06-25T06:41:18Z</time>
      </trkpt>
      <trkpt lat="49.89118" lon="4.53918">
        <ele>370.2</ele>
        <time>2020-06-25T06:41:19Z</time>
      </trkpt>
      <trkpt lat="49.89115" lon="4.53914">
        <ele>370.1</ele>
        <time>2020-06-25T06:41:20Z</time>
      </trkpt>
      <trkpt lat="49.89111" lon="4.53911">
        <ele>370</ele>
        <time>2020-06-25T06:41:21Z</time>
      </trkpt>
      <trkpt lat="49.89107" lon="4.53907">
        <ele>369.9</ele>
        <time>2020-06-25T06:41:22Z</time>
      </trkpt>
      <trkpt lat="49.89103" lon="4.53902">
        <ele>369.8</ele>
        <time>2020-06-25T06:41:23Z</time>
      </trkpt>
      <trkpt lat="49.891" lon="4.53898">
        <ele>369.7</ele>
        <time>2020-06-25T06:41:24Z</time>
      </trkpt>
      <trkpt lat="49.89096" lon="4.53895">
        <ele>369.4</ele>
        <time>2020-06-25T06:41:25Z</time>
      </trkpt>
      <trkpt lat="49.89095" lon="4.53892">
        <ele>369.2</ele>
        <time>2020-06-25T06:41:26Z</time>
      </trkpt>
      <trkpt lat="49.89092" lon="4.53893">
        <ele>369</ele>
        <time>2020-06-25T06:41:27Z</time>
      </trkpt>
      <trkpt lat="49.89091" lon="4.53895">
        <ele>368.9</ele>
        <time>2020-06-25T06:41:28Z</time>
      </trkpt>
      <trkpt lat="49.89091" lon="4.53898">
        <ele>368.8</ele>
        <time>2020-06-25T06:41:29Z</time>
      </trkpt>
      <trkpt lat="49.89088" lon="4.53905">
        <ele>368.4</ele>
        <time>2020-06-25T06:41:30Z</time>
      </trkpt>
      <trkpt lat="49.89087" lon="4.53909">
        <ele>368.2</ele>
        <time>2020-06-25T06:41:31Z</time>
      </trkpt>
      <trkpt lat="49.89083" lon="4.53914">
        <ele>367.8</ele>
        <time>2020-06-25T06:41:32Z</time>
      </trkpt>
      <trkpt lat="49.89079" lon="4.53922">
        <ele>367.3</ele>
        <time>2020-06-25T06:41:33Z</time>
      </trkpt>
      <trkpt lat="49.89075" lon="4.5393">
        <ele>366.8</ele>
        <time>2020-06-25T06:41:34Z</time>
      </trkpt>
      <trkpt lat="49.89071" lon="4.5394">
        <ele>366.3</ele>
        <time>2020-06-25T06:41:35Z</time>
      </trkpt>
      <trkpt lat="49.89065" lon="4.53949">
        <ele>365.7</ele>
        <time>2020-06-25T06:41:36Z</time>
      </trkpt>
      <trkpt lat="49.8906" lon="4.5396">
        <ele>365.2</ele>
        <time>2020-06-25T06:41:37Z</time>
      </trkpt>
      <trkpt lat="49.89054" lon="4.53972">
        <ele>364.6</ele>
        <time>2020-06-25T06:41:38Z</time>
      </trkpt>
      <trkpt lat="49.89047" lon="4.53985">
        <ele>364</ele>
        <time>2020-06-25T06:41:39Z</time>
      </trkpt>
      <trkpt lat="49.89042" lon="4.53995">
        <ele>363.7</ele>
        <time>2020-06-25T06:41:40Z</time>
      </trkpt>
      <trkpt lat="49.89037" lon="4.54003">
        <ele>363.4</ele>
        <time>2020-06-25T06:41:41Z</time>
      </trkpt>
      <trkpt lat="49.89031" lon="4.5401">
        <ele>363.2</ele>
        <time>2020-06-25T06:41:42Z</time>
      </trkpt>
      <trkpt lat="49.89025" lon="4.54016">
        <ele>362.9</ele>
        <time>2020-06-25T06:41:43Z</time>
      </trkpt>
      <trkpt lat="49.89018" lon="4.54019">
        <ele>362.8</ele>
        <time>2020-06-25T06:41:44Z</time>
      </trkpt>
      <trkpt lat="49.8901" lon="4.54022">
        <ele>362.7</ele>
        <time>2020-06-25T06:41:45Z</time>
      </trkpt>
      <trkpt lat="49.89003" lon="4.54023">
        <ele>362.5</ele>
        <time>2020-06-25T06:41:46Z</time>
      </trkpt>
      <trkpt lat="49.88996" lon="4.54022">
        <ele>362.6</ele>
        <time>2020-06-25T06:41:47Z</time>
      </trkpt>
      <trkpt lat="49.8899" lon="4.54022">
        <ele>362.6</ele>
        <time>2020-06-25T06:41:48Z</time>
      </trkpt>
      <trkpt lat="49.88984" lon="4.54021">
        <ele>362.7</ele>
        <time>2020-06-25T06:41:49Z</time>
      </trkpt>
      <trkpt lat="49.88979" lon="4.54023">
        <ele>362.8</ele>
        <time>2020-06-25T06:41:50Z</time>
      </trkpt>
      <trkpt lat="49.88973" lon="4.5402">
        <ele>362.9</ele>
        <time>2020-06-25T06:41:51Z</time>
      </trkpt>
      <trkpt lat="49.88968" lon="4.54021">
        <ele>363</ele>
        <time>2020-06-25T06:41:52Z</time>
      </trkpt>
      <trkpt lat="49.88962" lon="4.54022">
        <ele>363.1</ele>
        <time>2020-06-25T06:41:53Z</time>
      </trkpt>
      <trkpt lat="49.88958" lon="4.54022">
        <ele>363.1</ele>
        <time>2020-06-25T06:41:54Z</time>
      </trkpt>
      <trkpt lat="49.88953" lon="4.54022">
        <ele>363.3</ele>
        <time>2020-06-25T06:41:55Z</time>
      </trkpt>
      <trkpt lat="49.88949" lon="4.54023">
        <ele>363.4</ele>
        <time>2020-06-25T06:41:56Z</time>
      </trkpt>
      <trkpt lat="49.88945" lon="4.54022">
        <ele>363.5</ele>
        <time>2020-06-25T06:41:57Z</time>
      </trkpt>
      <trkpt lat="49.88941" lon="4.54022">
        <ele>363.6</ele>
        <time>2020-06-25T06:41:58Z</time>
      </trkpt>
      <trkpt lat="49.88937" lon="4.54023">
        <ele>363.8</ele>
        <time>2020-06-25T06:41:59Z</time>
      </trkpt>
      <trkpt lat="49.88934" lon="4.54024">
        <ele>363.9</ele>
        <time>2020-06-25T06:42:00Z</time>
      </trkpt>
      <trkpt lat="49.8893" lon="4.54023">
        <ele>364.1</ele>
        <time>2020-06-25T06:42:01Z</time>
      </trkpt>
      <trkpt lat="49.88926" lon="4.54023">
        <ele>364.2</ele>
        <time>2020-06-25T06:42:02Z</time>
      </trkpt>
      <trkpt lat="49.88922" lon="4.54023">
        <ele>364.5</ele>
        <time>2020-06-25T06:42:03Z</time>
      </trkpt>
      <trkpt lat="49.88918" lon="4.54023">
        <ele>364.7</ele>
        <time>2020-06-25T06:42:04Z</time>
      </trkpt>
      <trkpt lat="49.88914" lon="4.54022">
        <ele>364.9</ele>
        <time>2020-06-25T06:42:05Z</time>
      </trkpt>
      <trkpt lat="49.88911" lon="4.54022">
        <ele>365.1</ele>
        <time>2020-06-25T06:42:06Z</time>
      </trkpt>
      <trkpt lat="49.88907" lon="4.54021">
        <ele>365.3</ele>
        <time>2020-06-25T06:42:07Z</time>
      </trkpt>
      <trkpt lat="49.88903" lon="4.54022">
        <ele>365.5</ele>
        <time>2020-06-25T06:42:08Z</time>
      </trkpt>
      <trkpt lat="49.88899" lon="4.54022">
        <ele>365.7</ele>
        <time>2020-06-25T06:42:09Z</time>
      </trkpt>
      <trkpt lat="49.88895" lon="4.54023">
        <ele>365.9</ele>
        <time>2020-06-25T06:42:10Z</time>
      </trkpt>
      <trkpt lat="49.88891" lon="4.54024">
        <ele>366.1</ele>
        <time>2020-06-25T06:42:11Z</time>
      </trkpt>
      <trkpt lat="49.88888" lon="4.54025">
        <ele>366.3</ele>
        <time>2020-06-25T06:42:12Z</time>
      </trkpt>
      <trkpt lat="49.88884" lon="4.54025">
        <ele>366.5</ele>
        <time>2020-06-25T06:42:13Z</time>
      </trkpt>
      <trkpt lat="49.88881" lon="4.54025">
        <ele>366.7</ele>
        <time>2020-06-25T06:42:14Z</time>
      </trkpt>
      <trkpt lat="49.88877" lon="4.54025">
        <ele>366.8</ele>
        <time>2020-06-25T06:42:15Z</time>
      </trkpt>
      <trkpt lat="49.88874" lon="4.54025">
        <ele>367</ele>
        <time>2020-06-25T06:42:16Z</time>
      </trkpt>
      <trkpt lat="49.8887" lon="4.54025">
        <ele>367.1</ele>
        <time>2020-06-25T06:42:17Z</time>
      </trkpt>
      <trkpt lat="49.88866" lon="4.54025">
        <ele>367.3</ele>
        <time>2020-06-25T06:42:18Z</time>
      </trkpt>
      <trkpt lat="49.88862" lon="4.54025">
        <ele>367.5</ele>
        <time>2020-06-25T06:42:19Z</time>
      </trkpt>
      <trkpt lat="49.88858" lon="4.54025">
        <ele>367.6</ele>
        <time>2020-06-25T06:42:20Z</time>
      </trkpt>
      <trkpt lat="49.88854" lon="4.54026">
        <ele>367.8</ele>
        <time>2020-06-25T06:42:21Z</time>
      </trkpt>
      <trkpt lat="49.88851" lon="4.54027">
        <ele>367.9</ele>
        <time>2020-06-25T06:42:22Z</time>
      </trkpt>
      <trkpt lat="49.88846" lon="4.54028">
        <ele>368.1</ele>
        <time>2020-06-25T06:42:23Z</time>
      </trkpt>
      <trkpt lat="49.88843" lon="4.54029">
        <ele>368.2</ele>
        <time>2020-06-25T06:42:24Z</time>
      </trkpt>
      <trkpt lat="49.88838" lon="4.5403">
        <ele>368.3</ele>
        <time>2020-06-25T06:42:25Z</time>
      </trkpt>
      <trkpt lat="49.88834" lon="4.54031">
        <ele>368.5</ele>
        <time>2020-06-25T06:42:26Z</time>
      </trkpt>
      <trkpt lat="49.8883" lon="4.54032">
        <ele>368.6</ele>
        <time>2020-06-25T06:42:27Z</time>
      </trkpt>
      <trkpt lat="49.88825" lon="4.54034">
        <ele>368.7</ele>
        <time>2020-06-25T06:42:28Z</time>
      </trkpt>
      <trkpt lat="49.8882" lon="4.54036">
        <ele>368.9</ele>
        <time>2020-06-25T06:42:29Z</time>
      </trkpt>
      <trkpt lat="49.88815" lon="4.54038">
        <ele>369</ele>
        <time>2020-06-25T06:42:30Z</time>
      </trkpt>
      <trkpt lat="49.88811" lon="4.5404">
        <ele>369.1</ele>
        <time>2020-06-25T06:42:31Z</time>
      </trkpt>
      <trkpt lat="49.88808" lon="4.54042">
        <ele>369.2</ele>
        <time>2020-06-25T06:42:32Z</time>
      </trkpt>
      <trkpt lat="49.88803" lon="4.54044">
        <ele>369.3</ele>
        <time>2020-06-25T06:42:33Z</time>
      </trkpt>
      <trkpt lat="49.888" lon="4.54047">
        <ele>369.4</ele>
        <time>2020-06-25T06:42:34Z</time>
      </trkpt>
      <trkpt lat="49.88796" lon="4.54048">
        <ele>369.4</ele>
        <time>2020-06-25T06:42:35Z</time>
      </trkpt>
      <trkpt lat="49.88792" lon="4.54049">
        <ele>369.5</ele>
        <time>2020-06-25T06:42:36Z</time>
      </trkpt>
      <trkpt lat="49.88787" lon="4.5405">
        <ele>369.6</ele>
        <time>2020-06-25T06:42:37Z</time>
      </trkpt>
      <trkpt lat="49.88785" lon="4.5405">
        <ele>369.6</ele>
        <time>2020-06-25T06:42:38Z</time>
      </trkpt>
      <trkpt lat="49.88781" lon="4.54052">
        <ele>369.7</ele>
        <time>2020-06-25T06:42:39Z</time>
      </trkpt>
      <trkpt lat="49.88777" lon="4.54054">
        <ele>369.8</ele>
        <time>2020-06-25T06:42:40Z</time>
      </trkpt>
      <trkpt lat="49.88774" lon="4.54055">
        <ele>369.9</ele>
        <time>2020-06-25T06:42:41Z</time>
      </trkpt>
      <trkpt lat="49.8877" lon="4.54057">
        <ele>370.1</ele>
        <time>2020-06-25T06:42:42Z</time>
      </trkpt>
      <trkpt lat="49.88766" lon="4.5406">
        <ele>370.2</ele>
        <time>2020-06-25T06:42:43Z</time>
      </trkpt>
      <trkpt lat="49.88762" lon="4.54061">
        <ele>370.3</ele>
        <time>2020-06-25T06:42:44Z</time>
      </trkpt>
      <trkpt lat="49.88757" lon="4.54062">
        <ele>370.4</ele>
        <time>2020-06-25T06:42:45Z</time>
      </trkpt>
      <trkpt lat="49.88753" lon="4.54064">
        <ele>370.5</ele>
        <time>2020-06-25T06:42:46Z</time>
      </trkpt>
      <trkpt lat="49.8875" lon="4.54065">
        <ele>370.6</ele>
        <time>2020-06-25T06:42:47Z</time>
      </trkpt>
      <trkpt lat="49.88746" lon="4.54067">
        <ele>370.7</ele>
        <time>2020-06-25T06:42:48Z</time>
      </trkpt>
      <trkpt lat="49.88744" lon="4.5407">
        <ele>370.8</ele>
        <time>2020-06-25T06:42:49Z</time>
      </trkpt>
      <trkpt lat="49.8874" lon="4.54072">
        <ele>370.8</ele>
        <time>2020-06-25T06:42:50Z</time>
      </trkpt>
      <trkpt lat="49.88737" lon="4.54073">
        <ele>370.8</ele>
        <time>2020-06-25T06:42:51Z</time>
      </trkpt>
      <trkpt lat="49.88732" lon="4.54075">
        <ele>370.9</ele>
        <time>2020-06-25T06:42:52Z</time>
      </trkpt>
      <trkpt lat="49.88727" lon="4.54077">
        <ele>370.9</ele>
        <time>2020-06-25T06:42:53Z</time>
      </trkpt>
      <trkpt lat="49.88723" lon="4.54079">
        <ele>371</ele>
        <time>2020-06-25T06:42:54Z</time>
      </trkpt>
      <trkpt lat="49.88719" lon="4.54081">
        <ele>371</ele>
        <time>2020-06-25T06:42:55Z</time>
      </trkpt>
      <trkpt lat="49.88716" lon="4.54083">
        <ele>371.1</ele>
        <time>2020-06-25T06:42:56Z</time>
      </trkpt>
      <trkpt lat="49.88713" lon="4.54086">
        <ele>371.1</ele>
        <time>2020-06-25T06:42:57Z</time>
      </trkpt>
      <trkpt lat="49.8871" lon="4.54088">
        <ele>371.2</ele>
        <time>2020-06-25T06:42:58Z</time>
      </trkpt>
      <trkpt lat="49.88707" lon="4.54091">
        <ele>371.2</ele>
        <time>2020-06-25T06:42:59Z</time>
      </trkpt>
      <trkpt lat="49.88702" lon="4.54094">
        <ele>371.3</ele>
        <time>2020-06-25T06:43:00Z</time>
      </trkpt>
      <trkpt lat="49.88698" lon="4.54098">
        <ele>371.4</ele>
        <time>2020-06-25T06:43:01Z</time>
      </trkpt>
      <trkpt lat="49.88695" lon="4.541">
        <ele>371.4</ele>
        <time>2020-06-25T06:43:02Z</time>
      </trkpt>
      <trkpt lat="49.8869" lon="4.54103">
        <ele>371.5</ele>
        <time>2020-06-25T06:43:03Z</time>
      </trkpt>
      <trkpt lat="49.88686" lon="4.54106">
        <ele>371.5</ele>
        <time>2020-06-25T06:43:04Z</time>
      </trkpt>
      <trkpt lat="49.88682" lon="4.54109">
        <ele>371.6</ele>
        <time>2020-06-25T06:43:05Z</time>
      </trkpt>
      <trkpt lat="49.88679" lon="4.54113">
        <ele>371.6</ele>
        <time>2020-06-25T06:43:06Z</time>
      </trkpt>
      <trkpt lat="49.88676" lon="4.54116">
        <ele>371.7</ele>
        <time>2020-06-25T06:43:07Z</time>
      </trkpt>
      <trkpt lat="49.88672" lon="4.54118">
        <ele>371.8</ele>
        <time>2020-06-25T06:43:08Z</time>
      </trkpt>
      <trkpt lat="49.88667" lon="4.54121">
        <ele>371.8</ele>
        <time>2020-06-25T06:43:09Z</time>
      </trkpt>
      <trkpt lat="49.88661" lon="4.54124">
        <ele>371.9</ele>
        <time>2020-06-25T06:43:10Z</time>
      </trkpt>
      <trkpt lat="49.88656" lon="4.54127">
        <ele>372</ele>
        <time>2020-06-25T06:43:11Z</time>
      </trkpt>
      <trkpt lat="49.88652" lon="4.5413">
        <ele>372.1</ele>
        <time>2020-06-25T06:43:12Z</time>
      </trkpt>
      <trkpt lat="49.88647" lon="4.54134">
        <ele>372.1</ele>
        <time>2020-06-25T06:43:13Z</time>
      </trkpt>
      <trkpt lat="49.88642" lon="4.54136">
        <ele>372.2</ele>
        <time>2020-06-25T06:43:14Z</time>
      </trkpt>
      <trkpt lat="49.88638" lon="4.54137">
        <ele>372.2</ele>
        <time>2020-06-25T06:43:15Z</time>
      </trkpt>
      <trkpt lat="49.88634" lon="4.5414">
        <ele>372.2</ele>
        <time>2020-06-25T06:43:16Z</time>
      </trkpt>
      <trkpt lat="49.88631" lon="4.54142">
        <ele>372.3</ele>
        <time>2020-06-25T06:43:17Z</time>
      </trkpt>
      <trkpt lat="49.88629" lon="4.54142">
        <ele>372.3</ele>
        <time>2020-06-25T06:43:18Z</time>
      </trkpt>
      <trkpt lat="49.88625" lon="4.54144">
        <ele>372.3</ele>
        <time>2020-06-25T06:43:19Z</time>
      </trkpt>
      <trkpt lat="49.88622" lon="4.54145">
        <ele>372.3</ele>
        <time>2020-06-25T06:43:20Z</time>
      </trkpt>
      <trkpt lat="49.88619" lon="4.54145">
        <ele>372.3</ele>
        <time>2020-06-25T06:43:21Z</time>
      </trkpt>
      <trkpt lat="49.88615" lon="4.54145">
        <ele>372.3</ele>
        <time>2020-06-25T06:43:22Z</time>
      </trkpt>
      <trkpt lat="49.8861" lon="4.54147">
        <ele>372.2</ele>
        <time>2020-06-25T06:43:23Z</time>
      </trkpt>
      <trkpt lat="49.88606" lon="4.54149">
        <ele>372.1</ele>
        <time>2020-06-25T06:43:24Z</time>
      </trkpt>
      <trkpt lat="49.88602" lon="4.5415">
        <ele>372</ele>
        <time>2020-06-25T06:43:25Z</time>
      </trkpt>
      <trkpt lat="49.88598" lon="4.54152">
        <ele>371.9</ele>
        <time>2020-06-25T06:43:26Z</time>
      </trkpt>
      <trkpt lat="49.88594" lon="4.54153">
        <ele>371.8</ele>
        <time>2020-06-25T06:43:27Z</time>
      </trkpt>
      <trkpt lat="49.8859" lon="4.54154">
        <ele>371.7</ele>
        <time>2020-06-25T06:43:28Z</time>
      </trkpt>
      <trkpt lat="49.88586" lon="4.54155">
        <ele>371.6</ele>
        <time>2020-06-25T06:43:29Z</time>
      </trkpt>
      <trkpt lat="49.88582" lon="4.54156">
        <ele>371.5</ele>
        <time>2020-06-25T06:43:30Z</time>
      </trkpt>
      <trkpt lat="49.88577" lon="4.54158">
        <ele>371.3</ele>
        <time>2020-06-25T06:43:31Z</time>
      </trkpt>
      <trkpt lat="49.88572" lon="4.54161">
        <ele>371.1</ele>
        <time>2020-06-25T06:43:32Z</time>
      </trkpt>
      <trkpt lat="49.88566" lon="4.54163">
        <ele>370.9</ele>
        <time>2020-06-25T06:43:33Z</time>
      </trkpt>
      <trkpt lat="49.8856" lon="4.54166">
        <ele>370.7</ele>
        <time>2020-06-25T06:43:34Z</time>
      </trkpt>
      <trkpt lat="49.88554" lon="4.54169">
        <ele>370.4</ele>
        <time>2020-06-25T06:43:35Z</time>
      </trkpt>
      <trkpt lat="49.88546" lon="4.54172">
        <ele>370.1</ele>
        <time>2020-06-25T06:43:36Z</time>
      </trkpt>
      <trkpt lat="49.88539" lon="4.54175">
        <ele>369.8</ele>
        <time>2020-06-25T06:43:37Z</time>
      </trkpt>
      <trkpt lat="49.88532" lon="4.54178">
        <ele>369.4</ele>
        <time>2020-06-25T06:43:38Z</time>
      </trkpt>
      <trkpt lat="49.88526" lon="4.54181">
        <ele>369.1</ele>
        <time>2020-06-25T06:43:39Z</time>
      </trkpt>
      <trkpt lat="49.88519" lon="4.54184">
        <ele>369</ele>
        <time>2020-06-25T06:43:40Z</time>
      </trkpt>
      <trkpt lat="49.88513" lon="4.54187">
        <ele>368.8</ele>
        <time>2020-06-25T06:43:41Z</time>
      </trkpt>
      <trkpt lat="49.88507" lon="4.5419">
        <ele>368.6</ele>
        <time>2020-06-25T06:43:42Z</time>
      </trkpt>
      <trkpt lat="49.88502" lon="4.54192">
        <ele>368.5</ele>
        <time>2020-06-25T06:43:43Z</time>
      </trkpt>
      <trkpt lat="49.88498" lon="4.54194">
        <ele>368.4</ele>
        <time>2020-06-25T06:43:44Z</time>
      </trkpt>
      <trkpt lat="49.88493" lon="4.54196">
        <ele>368.2</ele>
        <time>2020-06-25T06:43:45Z</time>
      </trkpt>
      <trkpt lat="49.88487" lon="4.54199">
        <ele>367.9</ele>
        <time>2020-06-25T06:43:46Z</time>
      </trkpt>
      <trkpt lat="49.88481" lon="4.54202">
        <ele>367.6</ele>
        <time>2020-06-25T06:43:47Z</time>
      </trkpt>
      <trkpt lat="49.88475" lon="4.54205">
        <ele>367.2</ele>
        <time>2020-06-25T06:43:48Z</time>
      </trkpt>
      <trkpt lat="49.88468" lon="4.54208">
        <ele>366.8</ele>
        <time>2020-06-25T06:43:49Z</time>
      </trkpt>
      <trkpt lat="49.88461" lon="4.54211">
        <ele>366.5</ele>
        <time>2020-06-25T06:43:50Z</time>
      </trkpt>
      <trkpt lat="49.88454" lon="4.54215">
        <ele>366.1</ele>
        <time>2020-06-25T06:43:51Z</time>
      </trkpt>
      <trkpt lat="49.88447" lon="4.54216">
        <ele>365.7</ele>
        <time>2020-06-25T06:43:52Z</time>
      </trkpt>
      <trkpt lat="49.8844" lon="4.54218">
        <ele>365.4</ele>
        <time>2020-06-25T06:43:53Z</time>
      </trkpt>
      <trkpt lat="49.88433" lon="4.54218">
        <ele>365</ele>
        <time>2020-06-25T06:43:54Z</time>
      </trkpt>
      <trkpt lat="49.88425" lon="4.54218">
        <ele>364.6</ele>
        <time>2020-06-25T06:43:55Z</time>
      </trkpt>
      <trkpt lat="49.88417" lon="4.54218">
        <ele>364.2</ele>
        <time>2020-06-25T06:43:56Z</time>
      </trkpt>
      <trkpt lat="49.88409" lon="4.54217">
        <ele>363.7</ele>
        <time>2020-06-25T06:43:57Z</time>
      </trkpt>
      <trkpt lat="49.884" lon="4.54216">
        <ele>363.2</ele>
        <time>2020-06-25T06:43:58Z</time>
      </trkpt>
      <trkpt lat="49.88391" lon="4.54215">
        <ele>362.7</ele>
        <time>2020-06-25T06:43:59Z</time>
      </trkpt>
      <trkpt lat="49.88382" lon="4.54212">
        <ele>362.2</ele>
        <time>2020-06-25T06:44:00Z</time>
      </trkpt>
      <trkpt lat="49.88374" lon="4.54209">
        <ele>361.7</ele>
        <time>2020-06-25T06:44:01Z</time>
      </trkpt>
      <trkpt lat="49.88365" lon="4.54205">
        <ele>361.2</ele>
        <time>2020-06-25T06:44:02Z</time>
      </trkpt>
      <trkpt lat="49.88356" lon="4.54201">
        <ele>360.6</ele>
        <time>2020-06-25T06:44:03Z</time>
      </trkpt>
      <trkpt lat="49.88347" lon="4.54196">
        <ele>360.1</ele>
        <time>2020-06-25T06:44:04Z</time>
      </trkpt>
      <trkpt lat="49.88338" lon="4.5419">
        <ele>359.6</ele>
        <time>2020-06-25T06:44:05Z</time>
      </trkpt>
      <trkpt lat="49.8833" lon="4.54183">
        <ele>359.1</ele>
        <time>2020-06-25T06:44:06Z</time>
      </trkpt>
      <trkpt lat="49.88321" lon="4.54176">
        <ele>358.5</ele>
        <time>2020-06-25T06:44:07Z</time>
      </trkpt>
      <trkpt lat="49.88313" lon="4.54168">
        <ele>358.1</ele>
        <time>2020-06-25T06:44:08Z</time>
      </trkpt>
      <trkpt lat="49.88304" lon="4.5416">
        <ele>357.6</ele>
        <time>2020-06-25T06:44:09Z</time>
      </trkpt>
      <trkpt lat="49.88295" lon="4.54153">
        <ele>357.1</ele>
        <time>2020-06-25T06:44:10Z</time>
      </trkpt>
      <trkpt lat="49.88287" lon="4.54147">
        <ele>356.6</ele>
        <time>2020-06-25T06:44:11Z</time>
      </trkpt>
      <trkpt lat="49.88278" lon="4.5414">
        <ele>356.2</ele>
        <time>2020-06-25T06:44:12Z</time>
      </trkpt>
      <trkpt lat="49.8827" lon="4.54133">
        <ele>355.8</ele>
        <time>2020-06-25T06:44:13Z</time>
      </trkpt>
      <trkpt lat="49.88262" lon="4.54127">
        <ele>355.4</ele>
        <time>2020-06-25T06:44:14Z</time>
      </trkpt>
      <trkpt lat="49.88254" lon="4.5412">
        <ele>355.1</ele>
        <time>2020-06-25T06:44:15Z</time>
      </trkpt>
      <trkpt lat="49.88245" lon="4.54113">
        <ele>354.7</ele>
        <time>2020-06-25T06:44:16Z</time>
      </trkpt>
      <trkpt lat="49.88237" lon="4.54106">
        <ele>354.4</ele>
        <time>2020-06-25T06:44:17Z</time>
      </trkpt>
      <trkpt lat="49.8823" lon="4.541">
        <ele>354.1</ele>
        <time>2020-06-25T06:44:18Z</time>
      </trkpt>
      <trkpt lat="49.88222" lon="4.54094">
        <ele>353.7</ele>
        <time>2020-06-25T06:44:19Z</time>
      </trkpt>
      <trkpt lat="49.88214" lon="4.54088">
        <ele>353.4</ele>
        <time>2020-06-25T06:44:20Z</time>
      </trkpt>
      <trkpt lat="49.88206" lon="4.54082">
        <ele>353.1</ele>
        <time>2020-06-25T06:44:21Z</time>
      </trkpt>
      <trkpt lat="49.88197" lon="4.54076">
        <ele>352.7</ele>
        <time>2020-06-25T06:44:22Z</time>
      </trkpt>
      <trkpt lat="49.88188" lon="4.54071">
        <ele>352.4</ele>
        <time>2020-06-25T06:44:23Z</time>
      </trkpt>
      <trkpt lat="49.8818" lon="4.54067">
        <ele>352.1</ele>
        <time>2020-06-25T06:44:24Z</time>
      </trkpt>
      <trkpt lat="49.88171" lon="4.54062">
        <ele>351.8</ele>
        <time>2020-06-25T06:44:25Z</time>
      </trkpt>
      <trkpt lat="49.88163" lon="4.54058">
        <ele>351.5</ele>
        <time>2020-06-25T06:44:26Z</time>
      </trkpt>
      <trkpt lat="49.88155" lon="4.54053">
        <ele>351.3</ele>
        <time>2020-06-25T06:44:27Z</time>
      </trkpt>
      <trkpt lat="49.88146" lon="4.54051">
        <ele>351</ele>
        <time>2020-06-25T06:44:28Z</time>
      </trkpt>
      <trkpt lat="49.88136" lon="4.54049">
        <ele>350.7</ele>
        <time>2020-06-25T06:44:29Z</time>
      </trkpt>
      <trkpt lat="49.88127" lon="4.54047">
        <ele>350.4</ele>
        <time>2020-06-25T06:44:30Z</time>
      </trkpt>
      <trkpt lat="49.88119" lon="4.54046">
        <ele>350.1</ele>
        <time>2020-06-25T06:44:31Z</time>
      </trkpt>
      <trkpt lat="49.8811" lon="4.54046">
        <ele>349.9</ele>
        <time>2020-06-25T06:44:32Z</time>
      </trkpt>
      <trkpt lat="49.88102" lon="4.54045">
        <ele>349.7</ele>
        <time>2020-06-25T06:44:33Z</time>
      </trkpt>
      <trkpt lat="49.88093" lon="4.54044">
        <ele>349.5</ele>
        <time>2020-06-25T06:44:34Z</time>
      </trkpt>
      <trkpt lat="49.88085" lon="4.54044">
        <ele>349.4</ele>
        <time>2020-06-25T06:44:35Z</time>
      </trkpt>
      <trkpt lat="49.88076" lon="4.54044">
        <ele>349.2</ele>
        <time>2020-06-25T06:44:36Z</time>
      </trkpt>
      <trkpt lat="49.88068" lon="4.54044">
        <ele>349</ele>
        <time>2020-06-25T06:44:37Z</time>
      </trkpt>
      <trkpt lat="49.88059" lon="4.54045">
        <ele>348.9</ele>
        <time>2020-06-25T06:44:38Z</time>
      </trkpt>
      <trkpt lat="49.88051" lon="4.54046">
        <ele>348.8</ele>
        <time>2020-06-25T06:44:39Z</time>
      </trkpt>
      <trkpt lat="49.88044" lon="4.54047">
        <ele>348.7</ele>
        <time>2020-06-25T06:44:40Z</time>
      </trkpt>
      <trkpt lat="49.88036" lon="4.54049">
        <ele>348.6</ele>
        <time>2020-06-25T06:44:41Z</time>
      </trkpt>
      <trkpt lat="49.88028" lon="4.5405">
        <ele>348.5</ele>
        <time>2020-06-25T06:44:42Z</time>
      </trkpt>
      <trkpt lat="49.88021" lon="4.54053">
        <ele>348.4</ele>
        <time>2020-06-25T06:44:43Z</time>
      </trkpt>
      <trkpt lat="49.88013" lon="4.54054">
        <ele>348.4</ele>
        <time>2020-06-25T06:44:44Z</time>
      </trkpt>
      <trkpt lat="49.88006" lon="4.54056">
        <ele>348.3</ele>
        <time>2020-06-25T06:44:45Z</time>
      </trkpt>
      <trkpt lat="49.87999" lon="4.54058">
        <ele>348.3</ele>
        <time>2020-06-25T06:44:46Z</time>
      </trkpt>
      <trkpt lat="49.87991" lon="4.54058">
        <ele>348.2</ele>
        <time>2020-06-25T06:44:47Z</time>
      </trkpt>
      <trkpt lat="49.87983" lon="4.54061">
        <ele>348.2</ele>
        <time>2020-06-25T06:44:48Z</time>
      </trkpt>
      <trkpt lat="49.87976" lon="4.54062">
        <ele>348.2</ele>
        <time>2020-06-25T06:44:49Z</time>
      </trkpt>
      <trkpt lat="49.87968" lon="4.54063">
        <ele>348.2</ele>
        <time>2020-06-25T06:44:50Z</time>
      </trkpt>
      <trkpt lat="49.87961" lon="4.54064">
        <ele>348.2</ele>
        <time>2020-06-25T06:44:51Z</time>
      </trkpt>
      <trkpt lat="49.87954" lon="4.54065">
        <ele>348.2</ele>
        <time>2020-06-25T06:44:52Z</time>
      </trkpt>
      <trkpt lat="49.87947" lon="4.54066">
        <ele>348.2</ele>
        <time>2020-06-25T06:44:53Z</time>
      </trkpt>
      <trkpt lat="49.8794" lon="4.54067">
        <ele>348.2</ele>
        <time>2020-06-25T06:44:54Z</time>
      </trkpt>
      <trkpt lat="49.87933" lon="4.54068">
        <ele>348.2</ele>
        <time>2020-06-25T06:44:55Z</time>
      </trkpt>
      <trkpt lat="49.87926" lon="4.54069">
        <ele>348.2</ele>
        <time>2020-06-25T06:44:56Z</time>
      </trkpt>
      <trkpt lat="49.87919" lon="4.54071">
        <ele>348.2</ele>
        <time>2020-06-25T06:44:57Z</time>
      </trkpt>
      <trkpt lat="49.87912" lon="4.54073">
        <ele>348.1</ele>
        <time>2020-06-25T06:44:58Z</time>
      </trkpt>
      <trkpt lat="49.87904" lon="4.54074">
        <ele>348</ele>
        <time>2020-06-25T06:44:59Z</time>
      </trkpt>
      <trkpt lat="49.87897" lon="4.54075">
        <ele>347.9</ele>
        <time>2020-06-25T06:45:00Z</time>
      </trkpt>
      <trkpt lat="49.87891" lon="4.54076">
        <ele>347.8</ele>
        <time>2020-06-25T06:45:01Z</time>
      </trkpt>
      <trkpt lat="49.87884" lon="4.54077">
        <ele>347.6</ele>
        <time>2020-06-25T06:45:02Z</time>
      </trkpt>
      <trkpt lat="49.87876" lon="4.54078">
        <ele>347.5</ele>
        <time>2020-06-25T06:45:03Z</time>
      </trkpt>
      <trkpt lat="49.87869" lon="4.54079">
        <ele>347.3</ele>
        <time>2020-06-25T06:45:04Z</time>
      </trkpt>
      <trkpt lat="49.87862" lon="4.5408">
        <ele>347.1</ele>
        <time>2020-06-25T06:45:05Z</time>
      </trkpt>
      <trkpt lat="49.87855" lon="4.54082">
        <ele>346.9</ele>
        <time>2020-06-25T06:45:06Z</time>
      </trkpt>
      <trkpt lat="49.87847" lon="4.54083">
        <ele>346.7</ele>
        <time>2020-06-25T06:45:07Z</time>
      </trkpt>
      <trkpt lat="49.8784" lon="4.54084">
        <ele>346.5</ele>
        <time>2020-06-25T06:45:08Z</time>
      </trkpt>
      <trkpt lat="49.87833" lon="4.54085">
        <ele>346.3</ele>
        <time>2020-06-25T06:45:09Z</time>
      </trkpt>
      <trkpt lat="49.87825" lon="4.54086">
        <ele>346.1</ele>
        <time>2020-06-25T06:45:10Z</time>
      </trkpt>
      <trkpt lat="49.87818" lon="4.54086">
        <ele>345.8</ele>
        <time>2020-06-25T06:45:11Z</time>
      </trkpt>
      <trkpt lat="49.87811" lon="4.54088">
        <ele>345.5</ele>
        <time>2020-06-25T06:45:12Z</time>
      </trkpt>
      <trkpt lat="49.87804" lon="4.54089">
        <ele>345.3</ele>
        <time>2020-06-25T06:45:13Z</time>
      </trkpt>
      <trkpt lat="49.87796" lon="4.5409">
        <ele>345</ele>
        <time>2020-06-25T06:45:14Z</time>
      </trkpt>
      <trkpt lat="49.87789" lon="4.54092">
        <ele>344.6</ele>
        <time>2020-06-25T06:45:15Z</time>
      </trkpt>
      <trkpt lat="49.87781" lon="4.54093">
        <ele>344.3</ele>
        <time>2020-06-25T06:45:16Z</time>
      </trkpt>
      <trkpt lat="49.87773" lon="4.54096">
        <ele>344.1</ele>
        <time>2020-06-25T06:45:17Z</time>
      </trkpt>
      <trkpt lat="49.87765" lon="4.54098">
        <ele>343.8</ele>
        <time>2020-06-25T06:45:18Z</time>
      </trkpt>
      <trkpt lat="49.87758" lon="4.54099">
        <ele>343.7</ele>
        <time>2020-06-25T06:45:19Z</time>
      </trkpt>
      <trkpt lat="49.8775" lon="4.541">
        <ele>343.5</ele>
        <time>2020-06-25T06:45:20Z</time>
      </trkpt>
      <trkpt lat="49.87742" lon="4.54101">
        <ele>343.4</ele>
        <time>2020-06-25T06:45:21Z</time>
      </trkpt>
      <trkpt lat="49.87734" lon="4.54102">
        <ele>343.3</ele>
        <time>2020-06-25T06:45:22Z</time>
      </trkpt>
      <trkpt lat="49.87726" lon="4.54105">
        <ele>343.2</ele>
        <time>2020-06-25T06:45:23Z</time>
      </trkpt>
      <trkpt lat="49.87719" lon="4.54106">
        <ele>343.2</ele>
        <time>2020-06-25T06:45:24Z</time>
      </trkpt>
      <trkpt lat="49.87711" lon="4.54106">
        <ele>343.3</ele>
        <time>2020-06-25T06:45:25Z</time>
      </trkpt>
      <trkpt lat="49.87704" lon="4.54106">
        <ele>343.3</ele>
        <time>2020-06-25T06:45:26Z</time>
      </trkpt>
      <trkpt lat="49.87697" lon="4.54108">
        <ele>343.5</ele>
        <time>2020-06-25T06:45:27Z</time>
      </trkpt>
      <trkpt lat="49.8769" lon="4.54109">
        <ele>343.7</ele>
        <time>2020-06-25T06:45:28Z</time>
      </trkpt>
      <trkpt lat="49.87684" lon="4.54111">
        <ele>344</ele>
        <time>2020-06-25T06:45:29Z</time>
      </trkpt>
      <trkpt lat="49.87677" lon="4.54112">
        <ele>344.3</ele>
        <time>2020-06-25T06:45:30Z</time>
      </trkpt>
      <trkpt lat="49.8767" lon="4.54112">
        <ele>344.7</ele>
        <time>2020-06-25T06:45:31Z</time>
      </trkpt>
      <trkpt lat="49.87663" lon="4.54114">
        <ele>345</ele>
        <time>2020-06-25T06:45:32Z</time>
      </trkpt>
      <trkpt lat="49.87656" lon="4.54116">
        <ele>345.3</ele>
        <time>2020-06-25T06:45:33Z</time>
      </trkpt>
      <trkpt lat="49.8765" lon="4.54117">
        <ele>345.5</ele>
        <time>2020-06-25T06:45:34Z</time>
      </trkpt>
      <trkpt lat="49.87643" lon="4.54118">
        <ele>345.7</ele>
        <time>2020-06-25T06:45:35Z</time>
      </trkpt>
      <trkpt lat="49.87637" lon="4.54118">
        <ele>345.9</ele>
        <time>2020-06-25T06:45:36Z</time>
      </trkpt>
      <trkpt lat="49.87631" lon="4.54119">
        <ele>346.1</ele>
        <time>2020-06-25T06:45:37Z</time>
      </trkpt>
      <trkpt lat="49.87625" lon="4.54121">
        <ele>346.4</ele>
        <time>2020-06-25T06:45:38Z</time>
      </trkpt>
      <trkpt lat="49.87619" lon="4.54121">
        <ele>346.7</ele>
        <time>2020-06-25T06:45:39Z</time>
      </trkpt>
      <trkpt lat="49.87614" lon="4.54121">
        <ele>346.9</ele>
        <time>2020-06-25T06:45:40Z</time>
      </trkpt>
      <trkpt lat="49.87609" lon="4.54121">
        <ele>347.2</ele>
        <time>2020-06-25T06:45:41Z</time>
      </trkpt>
      <trkpt lat="49.87603" lon="4.54123">
        <ele>347.6</ele>
        <time>2020-06-25T06:45:42Z</time>
      </trkpt>
      <trkpt lat="49.87599" lon="4.54124">
        <ele>347.8</ele>
        <time>2020-06-25T06:45:43Z</time>
      </trkpt>
      <trkpt lat="49.87594" lon="4.54124">
        <ele>348.1</ele>
        <time>2020-06-25T06:45:44Z</time>
      </trkpt>
      <trkpt lat="49.8759" lon="4.54125">
        <ele>348.3</ele>
        <time>2020-06-25T06:45:45Z</time>
      </trkpt>
      <trkpt lat="49.87586" lon="4.54126">
        <ele>348.6</ele>
        <time>2020-06-25T06:45:46Z</time>
      </trkpt>
      <trkpt lat="49.87582" lon="4.54129">
        <ele>348.8</ele>
        <time>2020-06-25T06:45:47Z</time>
      </trkpt>
      <trkpt lat="49.87577" lon="4.5413">
        <ele>349.1</ele>
        <time>2020-06-25T06:45:48Z</time>
      </trkpt>
      <trkpt lat="49.87573" lon="4.54132">
        <ele>349.3</ele>
        <time>2020-06-25T06:45:49Z</time>
      </trkpt>
      <trkpt lat="49.87569" lon="4.54133">
        <ele>349.5</ele>
        <time>2020-06-25T06:45:50Z</time>
      </trkpt>
      <trkpt lat="49.87565" lon="4.54134">
        <ele>349.7</ele>
        <time>2020-06-25T06:45:51Z</time>
      </trkpt>
      <trkpt lat="49.87561" lon="4.54135">
        <ele>350</ele>
        <time>2020-06-25T06:45:52Z</time>
      </trkpt>
      <trkpt lat="49.87558" lon="4.54137">
        <ele>350.1</ele>
        <time>2020-06-25T06:45:53Z</time>
      </trkpt>
      <trkpt lat="49.87554" lon="4.54138">
        <ele>350.3</ele>
        <time>2020-06-25T06:45:54Z</time>
      </trkpt>
      <trkpt lat="49.87549" lon="4.54139">
        <ele>350.6</ele>
        <time>2020-06-25T06:45:55Z</time>
      </trkpt>
      <trkpt lat="49.87544" lon="4.54138">
        <ele>350.8</ele>
        <time>2020-06-25T06:45:56Z</time>
      </trkpt>
      <trkpt lat="49.8754" lon="4.54138">
        <ele>351</ele>
        <time>2020-06-25T06:45:57Z</time>
      </trkpt>
      <trkpt lat="49.87536" lon="4.54137">
        <ele>351.2</ele>
        <time>2020-06-25T06:45:58Z</time>
      </trkpt>
      <trkpt lat="49.87531" lon="4.54137">
        <ele>351.5</ele>
        <time>2020-06-25T06:45:59Z</time>
      </trkpt>
      <trkpt lat="49.87527" lon="4.54137">
        <ele>351.7</ele>
        <time>2020-06-25T06:46:00Z</time>
      </trkpt>
      <trkpt lat="49.87523" lon="4.54137">
        <ele>351.9</ele>
        <time>2020-06-25T06:46:01Z</time>
      </trkpt>
      <trkpt lat="49.87518" lon="4.54138">
        <ele>352.1</ele>
        <time>2020-06-25T06:46:02Z</time>
      </trkpt>
      <trkpt lat="49.87514" lon="4.54139">
        <ele>352.3</ele>
        <time>2020-06-25T06:46:03Z</time>
      </trkpt>
      <trkpt lat="49.87509" lon="4.5414">
        <ele>352.6</ele>
        <time>2020-06-25T06:46:04Z</time>
      </trkpt>
      <trkpt lat="49.87504" lon="4.5414">
        <ele>352.8</ele>
        <time>2020-06-25T06:46:05Z</time>
      </trkpt>
      <trkpt lat="49.87498" lon="4.54141">
        <ele>353.1</ele>
        <time>2020-06-25T06:46:06Z</time>
      </trkpt>
      <trkpt lat="49.87492" lon="4.54142">
        <ele>353.4</ele>
        <time>2020-06-25T06:46:07Z</time>
      </trkpt>
      <trkpt lat="49.87488" lon="4.54143">
        <ele>353.6</ele>
        <time>2020-06-25T06:46:08Z</time>
      </trkpt>
      <trkpt lat="49.87483" lon="4.54144">
        <ele>353.8</ele>
        <time>2020-06-25T06:46:09Z</time>
      </trkpt>
      <trkpt lat="49.87479" lon="4.54145">
        <ele>354</ele>
        <time>2020-06-25T06:46:10Z</time>
      </trkpt>
      <trkpt lat="49.87476" lon="4.54146">
        <ele>354.1</ele>
        <time>2020-06-25T06:46:11Z</time>
      </trkpt>
      <trkpt lat="49.87473" lon="4.54147">
        <ele>354.3</ele>
        <time>2020-06-25T06:46:12Z</time>
      </trkpt>
      <trkpt lat="49.87469" lon="4.54148">
        <ele>354.5</ele>
        <time>2020-06-25T06:46:13Z</time>
      </trkpt>
      <trkpt lat="49.87466" lon="4.54149">
        <ele>354.7</ele>
        <time>2020-06-25T06:46:14Z</time>
      </trkpt>
      <trkpt lat="49.87462" lon="4.5415">
        <ele>354.9</ele>
        <time>2020-06-25T06:46:15Z</time>
      </trkpt>
      <trkpt lat="49.87458" lon="4.54151">
        <ele>355.1</ele>
        <time>2020-06-25T06:46:16Z</time>
      </trkpt>
      <trkpt lat="49.87455" lon="4.54152">
        <ele>355.2</ele>
        <time>2020-06-25T06:46:17Z</time>
      </trkpt>
      <trkpt lat="49.8745" lon="4.54153">
        <ele>355.5</ele>
        <time>2020-06-25T06:46:18Z</time>
      </trkpt>
      <trkpt lat="49.87448" lon="4.54154">
        <ele>355.6</ele>
        <time>2020-06-25T06:46:19Z</time>
      </trkpt>
      <trkpt lat="49.87443" lon="4.54155">
        <ele>355.8</ele>
        <time>2020-06-25T06:46:20Z</time>
      </trkpt>
      <trkpt lat="49.87436" lon="4.54156">
        <ele>356.1</ele>
        <time>2020-06-25T06:46:21Z</time>
      </trkpt>
      <trkpt lat="49.87429" lon="4.54157">
        <ele>356.5</ele>
        <time>2020-06-25T06:46:22Z</time>
      </trkpt>
      <trkpt lat="49.87423" lon="4.54159">
        <ele>356.8</ele>
        <time>2020-06-25T06:46:23Z</time>
      </trkpt>
      <trkpt lat="49.87417" lon="4.5416">
        <ele>357.1</ele>
        <time>2020-06-25T06:46:24Z</time>
      </trkpt>
      <trkpt lat="49.87413" lon="4.54161">
        <ele>357.3</ele>
        <time>2020-06-25T06:46:25Z</time>
      </trkpt>
      <trkpt lat="49.87408" lon="4.54163">
        <ele>357.6</ele>
        <time>2020-06-25T06:46:26Z</time>
      </trkpt>
      <trkpt lat="49.87403" lon="4.54163">
        <ele>357.9</ele>
        <time>2020-06-25T06:46:27Z</time>
      </trkpt>
      <trkpt lat="49.87399" lon="4.54164">
        <ele>358.1</ele>
        <time>2020-06-25T06:46:28Z</time>
      </trkpt>
      <trkpt lat="49.87395" lon="4.54163">
        <ele>358.3</ele>
        <time>2020-06-25T06:46:29Z</time>
      </trkpt>
      <trkpt lat="49.87392" lon="4.54164">
        <ele>358.5</ele>
        <time>2020-06-25T06:46:30Z</time>
      </trkpt>
      <trkpt lat="49.87389" lon="4.54165">
        <ele>358.6</ele>
        <time>2020-06-25T06:46:31Z</time>
      </trkpt>
      <trkpt lat="49.87386" lon="4.54165">
        <ele>358.8</ele>
        <time>2020-06-25T06:46:32Z</time>
      </trkpt>
      <trkpt lat="49.87382" lon="4.54166">
        <ele>359</ele>
        <time>2020-06-25T06:46:33Z</time>
      </trkpt>
      <trkpt lat="49.87379" lon="4.54166">
        <ele>359.1</ele>
        <time>2020-06-25T06:46:34Z</time>
      </trkpt>
      <trkpt lat="49.87376" lon="4.54165">
        <ele>359.3</ele>
        <time>2020-06-25T06:46:35Z</time>
      </trkpt>
      <trkpt lat="49.87373" lon="4.54166">
        <ele>359.4</ele>
        <time>2020-06-25T06:46:36Z</time>
      </trkpt>
      <trkpt lat="49.87369" lon="4.54166">
        <ele>359.7</ele>
        <time>2020-06-25T06:46:37Z</time>
      </trkpt>
      <trkpt lat="49.87365" lon="4.54167">
        <ele>359.9</ele>
        <time>2020-06-25T06:46:38Z</time>
      </trkpt>
      <trkpt lat="49.87361" lon="4.54168">
        <ele>360.2</ele>
        <time>2020-06-25T06:46:39Z</time>
      </trkpt>
      <trkpt lat="49.87357" lon="4.54169">
        <ele>360.4</ele>
        <time>2020-06-25T06:46:40Z</time>
      </trkpt>
      <trkpt lat="49.87353" lon="4.54169">
        <ele>360.7</ele>
        <time>2020-06-25T06:46:41Z</time>
      </trkpt>
      <trkpt lat="49.87348" lon="4.5417">
        <ele>360.9</ele>
        <time>2020-06-25T06:46:42Z</time>
      </trkpt>
      <trkpt lat="49.87343" lon="4.5417">
        <ele>361.2</ele>
        <time>2020-06-25T06:46:43Z</time>
      </trkpt>
      <trkpt lat="49.87339" lon="4.5417">
        <ele>361.4</ele>
        <time>2020-06-25T06:46:44Z</time>
      </trkpt>
      <trkpt lat="49.87335" lon="4.5417">
        <ele>361.6</ele>
        <time>2020-06-25T06:46:45Z</time>
      </trkpt>
      <trkpt lat="49.87331" lon="4.54171">
        <ele>361.8</ele>
        <time>2020-06-25T06:46:46Z</time>
      </trkpt>
      <trkpt lat="49.87327" lon="4.54172">
        <ele>362</ele>
        <time>2020-06-25T06:46:47Z</time>
      </trkpt>
      <trkpt lat="49.87324" lon="4.54171">
        <ele>362.2</ele>
        <time>2020-06-25T06:46:48Z</time>
      </trkpt>
      <trkpt lat="49.8732" lon="4.54171">
        <ele>362.4</ele>
        <time>2020-06-25T06:46:49Z</time>
      </trkpt>
      <trkpt lat="49.87315" lon="4.54171">
        <ele>362.6</ele>
        <time>2020-06-25T06:46:50Z</time>
      </trkpt>
      <trkpt lat="49.87311" lon="4.54171">
        <ele>362.7</ele>
        <time>2020-06-25T06:46:51Z</time>
      </trkpt>
      <trkpt lat="49.87308" lon="4.54171">
        <ele>362.8</ele>
        <time>2020-06-25T06:46:52Z</time>
      </trkpt>
      <trkpt lat="49.87303" lon="4.54172">
        <ele>362.9</ele>
        <time>2020-06-25T06:46:53Z</time>
      </trkpt>
      <trkpt lat="49.87299" lon="4.54172">
        <ele>363</ele>
        <time>2020-06-25T06:46:54Z</time>
      </trkpt>
      <trkpt lat="49.87294" lon="4.54173">
        <ele>363.1</ele>
        <time>2020-06-25T06:46:55Z</time>
      </trkpt>
      <trkpt lat="49.87289" lon="4.54174">
        <ele>363.2</ele>
        <time>2020-06-25T06:46:56Z</time>
      </trkpt>
      <trkpt lat="49.87284" lon="4.54175">
        <ele>363.2</ele>
        <time>2020-06-25T06:46:57Z</time>
      </trkpt>
      <trkpt lat="49.87279" lon="4.54176">
        <ele>363.2</ele>
        <time>2020-06-25T06:46:58Z</time>
      </trkpt>
      <trkpt lat="49.87275" lon="4.54177">
        <ele>363.2</ele>
        <time>2020-06-25T06:46:59Z</time>
      </trkpt>
      <trkpt lat="49.8727" lon="4.54178">
        <ele>363.1</ele>
        <time>2020-06-25T06:47:00Z</time>
      </trkpt>
      <trkpt lat="49.87265" lon="4.54179">
        <ele>363.1</ele>
        <time>2020-06-25T06:47:01Z</time>
      </trkpt>
      <trkpt lat="49.87261" lon="4.54179">
        <ele>363</ele>
        <time>2020-06-25T06:47:02Z</time>
      </trkpt>
      <trkpt lat="49.87257" lon="4.54179">
        <ele>363</ele>
        <time>2020-06-25T06:47:03Z</time>
      </trkpt>
      <trkpt lat="49.87253" lon="4.54179">
        <ele>362.9</ele>
        <time>2020-06-25T06:47:04Z</time>
      </trkpt>
      <trkpt lat="49.87248" lon="4.54179">
        <ele>362.9</ele>
        <time>2020-06-25T06:47:05Z</time>
      </trkpt>
      <trkpt lat="49.87243" lon="4.5418">
        <ele>362.8</ele>
        <time>2020-06-25T06:47:06Z</time>
      </trkpt>
      <trkpt lat="49.87239" lon="4.5418">
        <ele>362.7</ele>
        <time>2020-06-25T06:47:07Z</time>
      </trkpt>
      <trkpt lat="49.87235" lon="4.5418">
        <ele>362.6</ele>
        <time>2020-06-25T06:47:08Z</time>
      </trkpt>
      <trkpt lat="49.8723" lon="4.54181">
        <ele>362.5</ele>
        <time>2020-06-25T06:47:09Z</time>
      </trkpt>
      <trkpt lat="49.87225" lon="4.54182">
        <ele>362.4</ele>
        <time>2020-06-25T06:47:10Z</time>
      </trkpt>
      <trkpt lat="49.87219" lon="4.54183">
        <ele>362.2</ele>
        <time>2020-06-25T06:47:11Z</time>
      </trkpt>
      <trkpt lat="49.87215" lon="4.54184">
        <ele>362</ele>
        <time>2020-06-25T06:47:12Z</time>
      </trkpt>
      <trkpt lat="49.8721" lon="4.54185">
        <ele>361.9</ele>
        <time>2020-06-25T06:47:13Z</time>
      </trkpt>
      <trkpt lat="49.87206" lon="4.54185">
        <ele>361.8</ele>
        <time>2020-06-25T06:47:14Z</time>
      </trkpt>
      <trkpt lat="49.87201" lon="4.54186">
        <ele>361.6</ele>
        <time>2020-06-25T06:47:15Z</time>
      </trkpt>
      <trkpt lat="49.87195" lon="4.54188">
        <ele>361.4</ele>
        <time>2020-06-25T06:47:16Z</time>
      </trkpt>
      <trkpt lat="49.8719" lon="4.54189">
        <ele>361.2</ele>
        <time>2020-06-25T06:47:17Z</time>
      </trkpt>
      <trkpt lat="49.87184" lon="4.5419">
        <ele>361</ele>
        <time>2020-06-25T06:47:18Z</time>
      </trkpt>
      <trkpt lat="49.87178" lon="4.54192">
        <ele>360.8</ele>
        <time>2020-06-25T06:47:19Z</time>
      </trkpt>
      <trkpt lat="49.87173" lon="4.54193">
        <ele>360.6</ele>
        <time>2020-06-25T06:47:20Z</time>
      </trkpt>
      <trkpt lat="49.87167" lon="4.54194">
        <ele>360.3</ele>
        <time>2020-06-25T06:47:21Z</time>
      </trkpt>
      <trkpt lat="49.87161" lon="4.54196">
        <ele>360</ele>
        <time>2020-06-25T06:47:22Z</time>
      </trkpt>
      <trkpt lat="49.87155" lon="4.54197">
        <ele>359.8</ele>
        <time>2020-06-25T06:47:23Z</time>
      </trkpt>
      <trkpt lat="49.87149" lon="4.54198">
        <ele>359.4</ele>
        <time>2020-06-25T06:47:24Z</time>
      </trkpt>
      <trkpt lat="49.87141" lon="4.54198">
        <ele>359.1</ele>
        <time>2020-06-25T06:47:25Z</time>
      </trkpt>
      <trkpt lat="49.87134" lon="4.54199">
        <ele>358.7</ele>
        <time>2020-06-25T06:47:26Z</time>
      </trkpt>
      <trkpt lat="49.87128" lon="4.542">
        <ele>358.4</ele>
        <time>2020-06-25T06:47:27Z</time>
      </trkpt>
      <trkpt lat="49.87121" lon="4.54202">
        <ele>358</ele>
        <time>2020-06-25T06:47:28Z</time>
      </trkpt>
      <trkpt lat="49.87114" lon="4.54203">
        <ele>357.6</ele>
        <time>2020-06-25T06:47:29Z</time>
      </trkpt>
      <trkpt lat="49.87106" lon="4.54205">
        <ele>357.1</ele>
        <time>2020-06-25T06:47:30Z</time>
      </trkpt>
      <trkpt lat="49.87098" lon="4.54207">
        <ele>356.7</ele>
        <time>2020-06-25T06:47:31Z</time>
      </trkpt>
      <trkpt lat="49.8709" lon="4.54208">
        <ele>356.3</ele>
        <time>2020-06-25T06:47:32Z</time>
      </trkpt>
      <trkpt lat="49.87081" lon="4.54209">
        <ele>355.8</ele>
        <time>2020-06-25T06:47:33Z</time>
      </trkpt>
      <trkpt lat="49.87072" lon="4.54211">
        <ele>355.3</ele>
        <time>2020-06-25T06:47:34Z</time>
      </trkpt>
      <trkpt lat="49.87063" lon="4.54212">
        <ele>354.8</ele>
        <time>2020-06-25T06:47:35Z</time>
      </trkpt>
      <trkpt lat="49.87054" lon="4.54213">
        <ele>354.3</ele>
        <time>2020-06-25T06:47:36Z</time>
      </trkpt>
      <trkpt lat="49.87046" lon="4.54215">
        <ele>353.9</ele>
        <time>2020-06-25T06:47:37Z</time>
      </trkpt>
      <trkpt lat="49.87037" lon="4.54216">
        <ele>353.5</ele>
        <time>2020-06-25T06:47:38Z</time>
      </trkpt>
      <trkpt lat="49.87028" lon="4.54217">
        <ele>353.1</ele>
        <time>2020-06-25T06:47:39Z</time>
      </trkpt>
      <trkpt lat="49.87019" lon="4.54218">
        <ele>352.6</ele>
        <time>2020-06-25T06:47:40Z</time>
      </trkpt>
      <trkpt lat="49.8701" lon="4.5422">
        <ele>352.1</ele>
        <time>2020-06-25T06:47:41Z</time>
      </trkpt>
      <trkpt lat="49.87" lon="4.54221">
        <ele>351.7</ele>
        <time>2020-06-25T06:47:42Z</time>
      </trkpt>
      <trkpt lat="49.86991" lon="4.54221">
        <ele>351.2</ele>
        <time>2020-06-25T06:47:43Z</time>
      </trkpt>
      <trkpt lat="49.86982" lon="4.54223">
        <ele>350.8</ele>
        <time>2020-06-25T06:47:44Z</time>
      </trkpt>
      <trkpt lat="49.86972" lon="4.54225">
        <ele>350.3</ele>
        <time>2020-06-25T06:47:45Z</time>
      </trkpt>
      <trkpt lat="49.86963" lon="4.54226">
        <ele>349.8</ele>
        <time>2020-06-25T06:47:46Z</time>
      </trkpt>
      <trkpt lat="49.86953" lon="4.54228">
        <ele>349.4</ele>
        <time>2020-06-25T06:47:47Z</time>
      </trkpt>
      <trkpt lat="49.86944" lon="4.5423">
        <ele>349</ele>
        <time>2020-06-25T06:47:48Z</time>
      </trkpt>
      <trkpt lat="49.86934" lon="4.54232">
        <ele>348.6</ele>
        <time>2020-06-25T06:47:49Z</time>
      </trkpt>
      <trkpt lat="49.86925" lon="4.54233">
        <ele>348.1</ele>
        <time>2020-06-25T06:47:50Z</time>
      </trkpt>
      <trkpt lat="49.86916" lon="4.54235">
        <ele>347.6</ele>
        <time>2020-06-25T06:47:51Z</time>
      </trkpt>
      <trkpt lat="49.86906" lon="4.54237">
        <ele>347.1</ele>
        <time>2020-06-25T06:47:52Z</time>
      </trkpt>
      <trkpt lat="49.86896" lon="4.54238">
        <ele>346.6</ele>
        <time>2020-06-25T06:47:53Z</time>
      </trkpt>
      <trkpt lat="49.86887" lon="4.5424">
        <ele>346.2</ele>
        <time>2020-06-25T06:47:54Z</time>
      </trkpt>
      <trkpt lat="49.86877" lon="4.54241">
        <ele>345.8</ele>
        <time>2020-06-25T06:47:55Z</time>
      </trkpt>
      <trkpt lat="49.86868" lon="4.54242">
        <ele>345.4</ele>
        <time>2020-06-25T06:47:56Z</time>
      </trkpt>
      <trkpt lat="49.86858" lon="4.54244">
        <ele>345</ele>
        <time>2020-06-25T06:47:57Z</time>
      </trkpt>
      <trkpt lat="49.86849" lon="4.54246">
        <ele>344.6</ele>
        <time>2020-06-25T06:47:58Z</time>
      </trkpt>
      <trkpt lat="49.8684" lon="4.54248">
        <ele>344.2</ele>
        <time>2020-06-25T06:47:59Z</time>
      </trkpt>
      <trkpt lat="49.86831" lon="4.54249">
        <ele>343.8</ele>
        <time>2020-06-25T06:48:00Z</time>
      </trkpt>
      <trkpt lat="49.86821" lon="4.54251">
        <ele>343.3</ele>
        <time>2020-06-25T06:48:01Z</time>
      </trkpt>
      <trkpt lat="49.86812" lon="4.54254">
        <ele>342.9</ele>
        <time>2020-06-25T06:48:02Z</time>
      </trkpt>
      <trkpt lat="49.86802" lon="4.54256">
        <ele>342.5</ele>
        <time>2020-06-25T06:48:03Z</time>
      </trkpt>
      <trkpt lat="49.86793" lon="4.54259">
        <ele>342.1</ele>
        <time>2020-06-25T06:48:04Z</time>
      </trkpt>
      <trkpt lat="49.86783" lon="4.54261">
        <ele>341.7</ele>
        <time>2020-06-25T06:48:05Z</time>
      </trkpt>
      <trkpt lat="49.86773" lon="4.54263">
        <ele>341.3</ele>
        <time>2020-06-25T06:48:06Z</time>
      </trkpt>
      <trkpt lat="49.86764" lon="4.54265">
        <ele>340.9</ele>
        <time>2020-06-25T06:48:07Z</time>
      </trkpt>
      <trkpt lat="49.86754" lon="4.54267">
        <ele>340.6</ele>
        <time>2020-06-25T06:48:08Z</time>
      </trkpt>
      <trkpt lat="49.86745" lon="4.5427">
        <ele>340.2</ele>
        <time>2020-06-25T06:48:09Z</time>
      </trkpt>
      <trkpt lat="49.86735" lon="4.54272">
        <ele>339.8</ele>
        <time>2020-06-25T06:48:10Z</time>
      </trkpt>
      <trkpt lat="49.86725" lon="4.54274">
        <ele>339.4</ele>
        <time>2020-06-25T06:48:11Z</time>
      </trkpt>
      <trkpt lat="49.86716" lon="4.54276">
        <ele>338.9</ele>
        <time>2020-06-25T06:48:12Z</time>
      </trkpt>
      <trkpt lat="49.86706" lon="4.54277">
        <ele>338.5</ele>
        <time>2020-06-25T06:48:13Z</time>
      </trkpt>
      <trkpt lat="49.86696" lon="4.54278">
        <ele>338</ele>
        <time>2020-06-25T06:48:14Z</time>
      </trkpt>
      <trkpt lat="49.86687" lon="4.54279">
        <ele>337.5</ele>
        <time>2020-06-25T06:48:15Z</time>
      </trkpt>
      <trkpt lat="49.86677" lon="4.54279">
        <ele>337</ele>
        <time>2020-06-25T06:48:16Z</time>
      </trkpt>
      <trkpt lat="49.86667" lon="4.5428">
        <ele>336.6</ele>
        <time>2020-06-25T06:48:17Z</time>
      </trkpt>
      <trkpt lat="49.86657" lon="4.54282">
        <ele>336.1</ele>
        <time>2020-06-25T06:48:18Z</time>
      </trkpt>
      <trkpt lat="49.86647" lon="4.54283">
        <ele>335.6</ele>
        <time>2020-06-25T06:48:19Z</time>
      </trkpt>
      <trkpt lat="49.86637" lon="4.54283">
        <ele>335</ele>
        <time>2020-06-25T06:48:20Z</time>
      </trkpt>
      <trkpt lat="49.86626" lon="4.54283">
        <ele>334.5</ele>
        <time>2020-06-25T06:48:21Z</time>
      </trkpt>
      <trkpt lat="49.86616" lon="4.54284">
        <ele>333.8</ele>
        <time>2020-06-25T06:48:22Z</time>
      </trkpt>
      <trkpt lat="49.86605" lon="4.54286">
        <ele>333.2</ele>
        <time>2020-06-25T06:48:23Z</time>
      </trkpt>
      <trkpt lat="49.86594" lon="4.54289">
        <ele>332.5</ele>
        <time>2020-06-25T06:48:24Z</time>
      </trkpt>
      <trkpt lat="49.86584" lon="4.54295">
        <ele>331.8</ele>
        <time>2020-06-25T06:48:25Z</time>
      </trkpt>
      <trkpt lat="49.86573" lon="4.543">
        <ele>331.2</ele>
        <time>2020-06-25T06:48:26Z</time>
      </trkpt>
      <trkpt lat="49.86562" lon="4.54307">
        <ele>330.5</ele>
        <time>2020-06-25T06:48:27Z</time>
      </trkpt>
      <trkpt lat="49.86553" lon="4.54315">
        <ele>329.9</ele>
        <time>2020-06-25T06:48:28Z</time>
      </trkpt>
      <trkpt lat="49.86544" lon="4.54324">
        <ele>329.4</ele>
        <time>2020-06-25T06:48:29Z</time>
      </trkpt>
      <trkpt lat="49.86535" lon="4.54334">
        <ele>328.8</ele>
        <time>2020-06-25T06:48:30Z</time>
      </trkpt>
      <trkpt lat="49.86525" lon="4.54343">
        <ele>328.3</ele>
        <time>2020-06-25T06:48:31Z</time>
      </trkpt>
      <trkpt lat="49.86515" lon="4.5435">
        <ele>327.7</ele>
        <time>2020-06-25T06:48:32Z</time>
      </trkpt>
      <trkpt lat="49.86505" lon="4.54357">
        <ele>327.1</ele>
        <time>2020-06-25T06:48:33Z</time>
      </trkpt>
      <trkpt lat="49.86494" lon="4.54361">
        <ele>326.5</ele>
        <time>2020-06-25T06:48:34Z</time>
      </trkpt>
      <trkpt lat="49.86482" lon="4.54362">
        <ele>325.9</ele>
        <time>2020-06-25T06:48:35Z</time>
      </trkpt>
      <trkpt lat="49.86472" lon="4.54358">
        <ele>325.3</ele>
        <time>2020-06-25T06:48:36Z</time>
      </trkpt>
      <trkpt lat="49.86462" lon="4.54353">
        <ele>324.6</ele>
        <time>2020-06-25T06:48:37Z</time>
      </trkpt>
      <trkpt lat="49.86452" lon="4.54348">
        <ele>324</ele>
        <time>2020-06-25T06:48:38Z</time>
      </trkpt>
      <trkpt lat="49.86442" lon="4.54341">
        <ele>323.5</ele>
        <time>2020-06-25T06:48:39Z</time>
      </trkpt>
      <trkpt lat="49.86434" lon="4.54333">
        <ele>322.9</ele>
        <time>2020-06-25T06:48:40Z</time>
      </trkpt>
      <trkpt lat="49.86425" lon="4.54325">
        <ele>322.3</ele>
        <time>2020-06-25T06:48:41Z</time>
      </trkpt>
      <trkpt lat="49.86415" lon="4.54317">
        <ele>321.7</ele>
        <time>2020-06-25T06:48:42Z</time>
      </trkpt>
      <trkpt lat="49.86406" lon="4.54307">
        <ele>321.1</ele>
        <time>2020-06-25T06:48:43Z</time>
      </trkpt>
      <trkpt lat="49.86397" lon="4.54298">
        <ele>320.6</ele>
        <time>2020-06-25T06:48:44Z</time>
      </trkpt>
      <trkpt lat="49.86389" lon="4.54287">
        <ele>320.3</ele>
        <time>2020-06-25T06:48:45Z</time>
      </trkpt>
      <trkpt lat="49.8638" lon="4.54279">
        <ele>320.2</ele>
        <time>2020-06-25T06:48:46Z</time>
      </trkpt>
      <trkpt lat="49.86371" lon="4.5427">
        <ele>320.3</ele>
        <time>2020-06-25T06:48:47Z</time>
      </trkpt>
      <trkpt lat="49.86361" lon="4.54264">
        <ele>320.4</ele>
        <time>2020-06-25T06:48:48Z</time>
      </trkpt>
      <trkpt lat="49.86351" lon="4.5426">
        <ele>320.3</ele>
        <time>2020-06-25T06:48:49Z</time>
      </trkpt>
      <trkpt lat="49.86342" lon="4.54261">
        <ele>320.1</ele>
        <time>2020-06-25T06:48:50Z</time>
      </trkpt>
      <trkpt lat="49.86332" lon="4.54263">
        <ele>320.2</ele>
        <time>2020-06-25T06:48:51Z</time>
      </trkpt>
      <trkpt lat="49.86324" lon="4.54268">
        <ele>320.3</ele>
        <time>2020-06-25T06:48:52Z</time>
      </trkpt>
      <trkpt lat="49.86316" lon="4.5427">
        <ele>320.6</ele>
        <time>2020-06-25T06:48:53Z</time>
      </trkpt>
      <trkpt lat="49.86309" lon="4.54274">
        <ele>320.8</ele>
        <time>2020-06-25T06:48:54Z</time>
      </trkpt>
      <trkpt lat="49.86302" lon="4.54278">
        <ele>321.1</ele>
        <time>2020-06-25T06:48:55Z</time>
      </trkpt>
      <trkpt lat="49.86296" lon="4.54283">
        <ele>321.3</ele>
        <time>2020-06-25T06:48:56Z</time>
      </trkpt>
      <trkpt lat="49.8629" lon="4.5429">
        <ele>321.7</ele>
        <time>2020-06-25T06:48:57Z</time>
      </trkpt>
      <trkpt lat="49.86285" lon="4.54297">
        <ele>322</ele>
        <time>2020-06-25T06:48:58Z</time>
      </trkpt>
      <trkpt lat="49.8628" lon="4.54304">
        <ele>322.3</ele>
        <time>2020-06-25T06:48:59Z</time>
      </trkpt>
      <trkpt lat="49.86275" lon="4.54309">
        <ele>322.7</ele>
        <time>2020-06-25T06:49:00Z</time>
      </trkpt>
      <trkpt lat="49.8627" lon="4.54315">
        <ele>323</ele>
        <time>2020-06-25T06:49:01Z</time>
      </trkpt>
      <trkpt lat="49.86266" lon="4.54322">
        <ele>323.4</ele>
        <time>2020-06-25T06:49:02Z</time>
      </trkpt>
      <trkpt lat="49.86261" lon="4.54329">
        <ele>323.8</ele>
        <time>2020-06-25T06:49:03Z</time>
      </trkpt>
      <trkpt lat="49.86256" lon="4.54336">
        <ele>324.1</ele>
        <time>2020-06-25T06:49:04Z</time>
      </trkpt>
      <trkpt lat="49.86253" lon="4.54344">
        <ele>324.4</ele>
        <time>2020-06-25T06:49:05Z</time>
      </trkpt>
      <trkpt lat="49.86249" lon="4.54352">
        <ele>324.7</ele>
        <time>2020-06-25T06:49:06Z</time>
      </trkpt>
      <trkpt lat="49.86246" lon="4.54359">
        <ele>325</ele>
        <time>2020-06-25T06:49:07Z</time>
      </trkpt>
      <trkpt lat="49.86243" lon="4.54366">
        <ele>325.3</ele>
        <time>2020-06-25T06:49:08Z</time>
      </trkpt>
      <trkpt lat="49.8624" lon="4.54372">
        <ele>325.6</ele>
        <time>2020-06-25T06:49:09Z</time>
      </trkpt>
      <trkpt lat="49.86238" lon="4.54379">
        <ele>325.9</ele>
        <time>2020-06-25T06:49:10Z</time>
      </trkpt>
      <trkpt lat="49.86235" lon="4.54386">
        <ele>326.2</ele>
        <time>2020-06-25T06:49:11Z</time>
      </trkpt>
      <trkpt lat="49.86233" lon="4.54394">
        <ele>326.6</ele>
        <time>2020-06-25T06:49:12Z</time>
      </trkpt>
      <trkpt lat="49.8623" lon="4.544">
        <ele>326.9</ele>
        <time>2020-06-25T06:49:13Z</time>
      </trkpt>
      <trkpt lat="49.86228" lon="4.54406">
        <ele>327.1</ele>
        <time>2020-06-25T06:49:14Z</time>
      </trkpt>
      <trkpt lat="49.86226" lon="4.54412">
        <ele>327.4</ele>
        <time>2020-06-25T06:49:15Z</time>
      </trkpt>
      <trkpt lat="49.86224" lon="4.54418">
        <ele>327.7</ele>
        <time>2020-06-25T06:49:16Z</time>
      </trkpt>
      <trkpt lat="49.86222" lon="4.54424">
        <ele>327.9</ele>
        <time>2020-06-25T06:49:17Z</time>
      </trkpt>
      <trkpt lat="49.8622" lon="4.5443">
        <ele>328.2</ele>
        <time>2020-06-25T06:49:18Z</time>
      </trkpt>
      <trkpt lat="49.86218" lon="4.54436">
        <ele>328.5</ele>
        <time>2020-06-25T06:49:19Z</time>
      </trkpt>
      <trkpt lat="49.86216" lon="4.54442">
        <ele>328.8</ele>
        <time>2020-06-25T06:49:20Z</time>
      </trkpt>
      <trkpt lat="49.86214" lon="4.54447">
        <ele>329</ele>
        <time>2020-06-25T06:49:21Z</time>
      </trkpt>
      <trkpt lat="49.86212" lon="4.54452">
        <ele>329.2</ele>
        <time>2020-06-25T06:49:22Z</time>
      </trkpt>
      <trkpt lat="49.86209" lon="4.54456">
        <ele>329.5</ele>
        <time>2020-06-25T06:49:23Z</time>
      </trkpt>
      <trkpt lat="49.86207" lon="4.54459">
        <ele>329.7</ele>
        <time>2020-06-25T06:49:24Z</time>
      </trkpt>
      <trkpt lat="49.86205" lon="4.54464">
        <ele>329.9</ele>
        <time>2020-06-25T06:49:25Z</time>
      </trkpt>
      <trkpt lat="49.86203" lon="4.54468">
        <ele>330.1</ele>
        <time>2020-06-25T06:49:26Z</time>
      </trkpt>
      <trkpt lat="49.86201" lon="4.54473">
        <ele>330.3</ele>
        <time>2020-06-25T06:49:27Z</time>
      </trkpt>
      <trkpt lat="49.86199" lon="4.54479">
        <ele>330.6</ele>
        <time>2020-06-25T06:49:28Z</time>
      </trkpt>
      <trkpt lat="49.86197" lon="4.54483">
        <ele>330.8</ele>
        <time>2020-06-25T06:49:29Z</time>
      </trkpt>
      <trkpt lat="49.86195" lon="4.54488">
        <ele>331</ele>
        <time>2020-06-25T06:49:30Z</time>
      </trkpt>
      <trkpt lat="49.86193" lon="4.54492">
        <ele>331.2</ele>
        <time>2020-06-25T06:49:31Z</time>
      </trkpt>
      <trkpt lat="49.8619" lon="4.54496">
        <ele>331.4</ele>
        <time>2020-06-25T06:49:32Z</time>
      </trkpt>
      <trkpt lat="49.86188" lon="4.545">
        <ele>331.6</ele>
        <time>2020-06-25T06:49:33Z</time>
      </trkpt>
      <trkpt lat="49.86185" lon="4.54503">
        <ele>331.8</ele>
        <time>2020-06-25T06:49:34Z</time>
      </trkpt>
      <trkpt lat="49.86183" lon="4.54507">
        <ele>332</ele>
        <time>2020-06-25T06:49:35Z</time>
      </trkpt>
      <trkpt lat="49.86181" lon="4.54511">
        <ele>332.1</ele>
        <time>2020-06-25T06:49:36Z</time>
      </trkpt>
      <trkpt lat="49.86178" lon="4.54514">
        <ele>332.3</ele>
        <time>2020-06-25T06:49:37Z</time>
      </trkpt>
      <trkpt lat="49.86175" lon="4.54518">
        <ele>332.5</ele>
        <time>2020-06-25T06:49:38Z</time>
      </trkpt>
      <trkpt lat="49.86173" lon="4.54521">
        <ele>332.7</ele>
        <time>2020-06-25T06:49:39Z</time>
      </trkpt>
      <trkpt lat="49.8617" lon="4.54523">
        <ele>332.8</ele>
        <time>2020-06-25T06:49:40Z</time>
      </trkpt>
      <trkpt lat="49.86167" lon="4.54528">
        <ele>333.1</ele>
        <time>2020-06-25T06:49:41Z</time>
      </trkpt>
      <trkpt lat="49.86163" lon="4.54534">
        <ele>333.4</ele>
        <time>2020-06-25T06:49:42Z</time>
      </trkpt>
      <trkpt lat="49.86159" lon="4.5454">
        <ele>333.7</ele>
        <time>2020-06-25T06:49:43Z</time>
      </trkpt>
      <trkpt lat="49.86155" lon="4.54546">
        <ele>334.1</ele>
        <time>2020-06-25T06:49:44Z</time>
      </trkpt>
      <trkpt lat="49.86152" lon="4.5455">
        <ele>334.4</ele>
        <time>2020-06-25T06:49:45Z</time>
      </trkpt>
      <trkpt lat="49.86148" lon="4.54553">
        <ele>334.7</ele>
        <time>2020-06-25T06:49:46Z</time>
      </trkpt>
      <trkpt lat="49.86144" lon="4.54557">
        <ele>334.9</ele>
        <time>2020-06-25T06:49:47Z</time>
      </trkpt>
      <trkpt lat="49.86142" lon="4.5456">
        <ele>335.2</ele>
        <time>2020-06-25T06:49:48Z</time>
      </trkpt>
      <trkpt lat="49.86139" lon="4.54562">
        <ele>335.3</ele>
        <time>2020-06-25T06:49:49Z</time>
      </trkpt>
      <trkpt lat="49.86135" lon="4.54565">
        <ele>335.6</ele>
        <time>2020-06-25T06:49:50Z</time>
      </trkpt>
      <trkpt lat="49.86131" lon="4.54568">
        <ele>335.9</ele>
        <time>2020-06-25T06:49:51Z</time>
      </trkpt>
      <trkpt lat="49.86127" lon="4.5457">
        <ele>336.2</ele>
        <time>2020-06-25T06:49:52Z</time>
      </trkpt>
      <trkpt lat="49.86123" lon="4.54573">
        <ele>336.4</ele>
        <time>2020-06-25T06:49:53Z</time>
      </trkpt>
      <trkpt lat="49.8612" lon="4.54574">
        <ele>336.6</ele>
        <time>2020-06-25T06:49:54Z</time>
      </trkpt>
      <trkpt lat="49.86118" lon="4.54576">
        <ele>336.8</ele>
        <time>2020-06-25T06:49:55Z</time>
      </trkpt>
      <trkpt lat="49.86115" lon="4.54579">
        <ele>337</ele>
        <time>2020-06-25T06:49:56Z</time>
      </trkpt>
      <trkpt lat="49.86112" lon="4.5458">
        <ele>337.1</ele>
        <time>2020-06-25T06:49:57Z</time>
      </trkpt>
      <trkpt lat="49.86108" lon="4.54582">
        <ele>337.4</ele>
        <time>2020-06-25T06:49:58Z</time>
      </trkpt>
      <trkpt lat="49.86104" lon="4.54583">
        <ele>337.6</ele>
        <time>2020-06-25T06:49:59Z</time>
      </trkpt>
      <trkpt lat="49.86101" lon="4.54585">
        <ele>337.8</ele>
        <time>2020-06-25T06:50:00Z</time>
      </trkpt>
      <trkpt lat="49.86097" lon="4.54586">
        <ele>338</ele>
        <time>2020-06-25T06:50:01Z</time>
      </trkpt>
      <trkpt lat="49.86092" lon="4.54588">
        <ele>338.3</ele>
        <time>2020-06-25T06:50:02Z</time>
      </trkpt>
      <trkpt lat="49.86088" lon="4.54589">
        <ele>338.5</ele>
        <time>2020-06-25T06:50:03Z</time>
      </trkpt>
      <trkpt lat="49.86084" lon="4.5459">
        <ele>338.8</ele>
        <time>2020-06-25T06:50:04Z</time>
      </trkpt>
      <trkpt lat="49.86079" lon="4.54591">
        <ele>339</ele>
        <time>2020-06-25T06:50:05Z</time>
      </trkpt>
      <trkpt lat="49.86075" lon="4.54592">
        <ele>339.3</ele>
        <time>2020-06-25T06:50:06Z</time>
      </trkpt>
      <trkpt lat="49.86072" lon="4.54595">
        <ele>339.5</ele>
        <time>2020-06-25T06:50:07Z</time>
      </trkpt>
      <trkpt lat="49.86069" lon="4.54596">
        <ele>339.6</ele>
        <time>2020-06-25T06:50:08Z</time>
      </trkpt>
      <trkpt lat="49.86065" lon="4.54598">
        <ele>339.9</ele>
        <time>2020-06-25T06:50:09Z</time>
      </trkpt>
      <trkpt lat="49.86061" lon="4.54598">
        <ele>340.1</ele>
        <time>2020-06-25T06:50:10Z</time>
      </trkpt>
      <trkpt lat="49.86058" lon="4.54599">
        <ele>340.2</ele>
        <time>2020-06-25T06:50:11Z</time>
      </trkpt>
      <trkpt lat="49.86053" lon="4.54599">
        <ele>340.5</ele>
        <time>2020-06-25T06:50:12Z</time>
      </trkpt>
      <trkpt lat="49.86048" lon="4.54601">
        <ele>340.7</ele>
        <time>2020-06-25T06:50:13Z</time>
      </trkpt>
      <trkpt lat="49.86043" lon="4.54603">
        <ele>341</ele>
        <time>2020-06-25T06:50:14Z</time>
      </trkpt>
      <trkpt lat="49.8604" lon="4.54604">
        <ele>341.1</ele>
        <time>2020-06-25T06:50:15Z</time>
      </trkpt>
      <trkpt lat="49.86037" lon="4.54606">
        <ele>341.3</ele>
        <time>2020-06-25T06:50:16Z</time>
      </trkpt>
      <trkpt lat="49.86036" lon="4.54606">
        <ele>341.3</ele>
        <time>2020-06-25T06:50:17Z</time>
      </trkpt>
      <trkpt lat="49.86033" lon="4.54608">
        <ele>341.5</ele>
        <time>2020-06-25T06:50:18Z</time>
      </trkpt>
      <trkpt lat="49.86029" lon="4.5461">
        <ele>341.6</ele>
        <time>2020-06-25T06:50:19Z</time>
      </trkpt>
      <trkpt lat="49.86026" lon="4.5461">
        <ele>341.7</ele>
        <time>2020-06-25T06:50:20Z</time>
      </trkpt>
      <trkpt lat="49.86022" lon="4.54612">
        <ele>341.9</ele>
        <time>2020-06-25T06:50:21Z</time>
      </trkpt>
      <trkpt lat="49.8602" lon="4.54613">
        <ele>342</ele>
        <time>2020-06-25T06:50:22Z</time>
      </trkpt>
      <trkpt lat="49.86017" lon="4.54615">
        <ele>342.1</ele>
        <time>2020-06-25T06:50:23Z</time>
      </trkpt>
      <trkpt lat="49.86014" lon="4.54616">
        <ele>342.2</ele>
        <time>2020-06-25T06:50:24Z</time>
      </trkpt>
      <trkpt lat="49.86011" lon="4.54616">
        <ele>342.3</ele>
        <time>2020-06-25T06:50:25Z</time>
      </trkpt>
      <trkpt lat="49.86008" lon="4.54617">
        <ele>342.4</ele>
        <time>2020-06-25T06:50:26Z</time>
      </trkpt>
      <trkpt lat="49.86004" lon="4.54617">
        <ele>342.4</ele>
        <time>2020-06-25T06:50:27Z</time>
      </trkpt>
      <trkpt lat="49.86" lon="4.54617">
        <ele>342.5</ele>
        <time>2020-06-25T06:50:28Z</time>
      </trkpt>
      <trkpt lat="49.85995" lon="4.54616">
        <ele>342.5</ele>
        <time>2020-06-25T06:50:29Z</time>
      </trkpt>
      <trkpt lat="49.85991" lon="4.54616">
        <ele>342.4</ele>
        <time>2020-06-25T06:50:30Z</time>
      </trkpt>
      <trkpt lat="49.8599" lon="4.54615">
        <ele>342.4</ele>
        <time>2020-06-25T06:50:31Z</time>
      </trkpt>
      <trkpt lat="49.85987" lon="4.54615">
        <ele>342.4</ele>
        <time>2020-06-25T06:50:32Z</time>
      </trkpt>
      <trkpt lat="49.85983" lon="4.54616">
        <ele>342.3</ele>
        <time>2020-06-25T06:50:33Z</time>
      </trkpt>
      <trkpt lat="49.85979" lon="4.54615">
        <ele>342.2</ele>
        <time>2020-06-25T06:50:34Z</time>
      </trkpt>
      <trkpt lat="49.85975" lon="4.54615">
        <ele>342.1</ele>
        <time>2020-06-25T06:50:35Z</time>
      </trkpt>
      <trkpt lat="49.85971" lon="4.54616">
        <ele>342</ele>
        <time>2020-06-25T06:50:36Z</time>
      </trkpt>
      <trkpt lat="49.85966" lon="4.54616">
        <ele>341.8</ele>
        <time>2020-06-25T06:50:37Z</time>
      </trkpt>
      <trkpt lat="49.85962" lon="4.54616">
        <ele>341.6</ele>
        <time>2020-06-25T06:50:38Z</time>
      </trkpt>
      <trkpt lat="49.85956" lon="4.54616">
        <ele>341.4</ele>
        <time>2020-06-25T06:50:39Z</time>
      </trkpt>
      <trkpt lat="49.85951" lon="4.54616">
        <ele>341.1</ele>
        <time>2020-06-25T06:50:40Z</time>
      </trkpt>
      <trkpt lat="49.85945" lon="4.54616">
        <ele>340.8</ele>
        <time>2020-06-25T06:50:41Z</time>
      </trkpt>
      <trkpt lat="49.85939" lon="4.54616">
        <ele>340.5</ele>
        <time>2020-06-25T06:50:42Z</time>
      </trkpt>
      <trkpt lat="49.85933" lon="4.54615">
        <ele>340.1</ele>
        <time>2020-06-25T06:50:43Z</time>
      </trkpt>
      <trkpt lat="49.85926" lon="4.54613">
        <ele>339.7</ele>
        <time>2020-06-25T06:50:44Z</time>
      </trkpt>
      <trkpt lat="49.85918" lon="4.54611">
        <ele>339.2</ele>
        <time>2020-06-25T06:50:45Z</time>
      </trkpt>
      <trkpt lat="49.85909" lon="4.54608">
        <ele>338.5</ele>
        <time>2020-06-25T06:50:46Z</time>
      </trkpt>
      <trkpt lat="49.85901" lon="4.54605">
        <ele>337.9</ele>
        <time>2020-06-25T06:50:47Z</time>
      </trkpt>
      <trkpt lat="49.85893" lon="4.54603">
        <ele>337.3</ele>
        <time>2020-06-25T06:50:48Z</time>
      </trkpt>
      <trkpt lat="49.85884" lon="4.54601">
        <ele>336.8</ele>
        <time>2020-06-25T06:50:49Z</time>
      </trkpt>
      <trkpt lat="49.85876" lon="4.546">
        <ele>336.2</ele>
        <time>2020-06-25T06:50:50Z</time>
      </trkpt>
      <trkpt lat="49.85868" lon="4.54598">
        <ele>335.6</ele>
        <time>2020-06-25T06:50:51Z</time>
      </trkpt>
      <trkpt lat="49.85859" lon="4.54596">
        <ele>335.1</ele>
        <time>2020-06-25T06:50:52Z</time>
      </trkpt>
      <trkpt lat="49.85853" lon="4.54595">
        <ele>334.7</ele>
        <time>2020-06-25T06:50:53Z</time>
      </trkpt>
      <trkpt lat="49.85848" lon="4.54594">
        <ele>334.3</ele>
        <time>2020-06-25T06:50:54Z</time>
      </trkpt>
      <trkpt lat="49.85839" lon="4.54594">
        <ele>333.7</ele>
        <time>2020-06-25T06:50:55Z</time>
      </trkpt>
      <trkpt lat="49.85831" lon="4.54595">
        <ele>333</ele>
        <time>2020-06-25T06:50:56Z</time>
      </trkpt>
      <trkpt lat="49.85822" lon="4.54599">
        <ele>331.8</ele>
        <time>2020-06-25T06:50:57Z</time>
      </trkpt>
      <trkpt lat="49.85815" lon="4.54606">
        <ele>331.2</ele>
        <time>2020-06-25T06:50:58Z</time>
      </trkpt>
      <trkpt lat="49.85809" lon="4.54616">
        <ele>330.5</ele>
        <time>2020-06-25T06:50:59Z</time>
      </trkpt>
      <trkpt lat="49.85806" lon="4.54628">
        <ele>329.9</ele>
        <time>2020-06-25T06:51:00Z</time>
      </trkpt>
      <trkpt lat="49.85802" lon="4.5464">
        <ele>329.2</ele>
        <time>2020-06-25T06:51:01Z</time>
      </trkpt>
      <trkpt lat="49.85798" lon="4.54652">
        <ele>328.6</ele>
        <time>2020-06-25T06:51:02Z</time>
      </trkpt>
      <trkpt lat="49.85794" lon="4.54664">
        <ele>327.9</ele>
        <time>2020-06-25T06:51:03Z</time>
      </trkpt>
      <trkpt lat="49.8579" lon="4.54677">
        <ele>327.2</ele>
        <time>2020-06-25T06:51:04Z</time>
      </trkpt>
      <trkpt lat="49.85786" lon="4.5469">
        <ele>326.4</ele>
        <time>2020-06-25T06:51:05Z</time>
      </trkpt>
      <trkpt lat="49.85781" lon="4.54704">
        <ele>325.7</ele>
        <time>2020-06-25T06:51:06Z</time>
      </trkpt>
      <trkpt lat="49.85777" lon="4.54718">
        <ele>324.9</ele>
        <time>2020-06-25T06:51:07Z</time>
      </trkpt>
      <trkpt lat="49.85773" lon="4.54733">
        <ele>324.2</ele>
        <time>2020-06-25T06:51:08Z</time>
      </trkpt>
      <trkpt lat="49.85768" lon="4.54747">
        <ele>323.4</ele>
        <time>2020-06-25T06:51:09Z</time>
      </trkpt>
      <trkpt lat="49.85764" lon="4.54763">
        <ele>322.6</ele>
        <time>2020-06-25T06:51:10Z</time>
      </trkpt>
      <trkpt lat="49.85759" lon="4.54779">
        <ele>321.8</ele>
        <time>2020-06-25T06:51:11Z</time>
      </trkpt>
      <trkpt lat="49.85755" lon="4.54794">
        <ele>321</ele>
        <time>2020-06-25T06:51:12Z</time>
      </trkpt>
      <trkpt lat="49.85751" lon="4.54811">
        <ele>320.2</ele>
        <time>2020-06-25T06:51:13Z</time>
      </trkpt>
      <trkpt lat="49.85747" lon="4.54828">
        <ele>319.3</ele>
        <time>2020-06-25T06:51:14Z</time>
      </trkpt>
      <trkpt lat="49.85743" lon="4.54844">
        <ele>318.4</ele>
        <time>2020-06-25T06:51:15Z</time>
      </trkpt>
      <trkpt lat="49.85739" lon="4.54861">
        <ele>317.4</ele>
        <time>2020-06-25T06:51:16Z</time>
      </trkpt>
      <trkpt lat="49.85735" lon="4.54878">
        <ele>316.4</ele>
        <time>2020-06-25T06:51:17Z</time>
      </trkpt>
      <trkpt lat="49.85731" lon="4.54896">
        <ele>315.3</ele>
        <time>2020-06-25T06:51:18Z</time>
      </trkpt>
      <trkpt lat="49.85726" lon="4.54915">
        <ele>314.6</ele>
        <time>2020-06-25T06:51:19Z</time>
      </trkpt>
      <trkpt lat="49.85722" lon="4.54932">
        <ele>313.8</ele>
        <time>2020-06-25T06:51:20Z</time>
      </trkpt>
      <trkpt lat="49.85718" lon="4.5495">
        <ele>313</ele>
        <time>2020-06-25T06:51:21Z</time>
      </trkpt>
      <trkpt lat="49.85713" lon="4.54968">
        <ele>312.2</ele>
        <time>2020-06-25T06:51:22Z</time>
      </trkpt>
      <trkpt lat="49.85706" lon="4.54984">
        <ele>311.4</ele>
        <time>2020-06-25T06:51:23Z</time>
      </trkpt>
      <trkpt lat="49.85699" lon="4.55">
        <ele>310.6</ele>
        <time>2020-06-25T06:51:24Z</time>
      </trkpt>
      <trkpt lat="49.85691" lon="4.55014">
        <ele>309.8</ele>
        <time>2020-06-25T06:51:25Z</time>
      </trkpt>
      <trkpt lat="49.85682" lon="4.55029">
        <ele>308.9</ele>
        <time>2020-06-25T06:51:26Z</time>
      </trkpt>
      <trkpt lat="49.85671" lon="4.55042">
        <ele>308</ele>
        <time>2020-06-25T06:51:27Z</time>
      </trkpt>
      <trkpt lat="49.85661" lon="4.55055">
        <ele>307.1</ele>
        <time>2020-06-25T06:51:28Z</time>
      </trkpt>
      <trkpt lat="49.85651" lon="4.55068">
        <ele>306.2</ele>
        <time>2020-06-25T06:51:29Z</time>
      </trkpt>
      <trkpt lat="49.85641" lon="4.55082">
        <ele>305.3</ele>
        <time>2020-06-25T06:51:30Z</time>
      </trkpt>
      <trkpt lat="49.85629" lon="4.55092">
        <ele>304.3</ele>
        <time>2020-06-25T06:51:31Z</time>
      </trkpt>
      <trkpt lat="49.85618" lon="4.55103">
        <ele>303.4</ele>
        <time>2020-06-25T06:51:32Z</time>
      </trkpt>
      <trkpt lat="49.85607" lon="4.55114">
        <ele>302.5</ele>
        <time>2020-06-25T06:51:33Z</time>
      </trkpt>
      <trkpt lat="49.85598" lon="4.55126">
        <ele>301.6</ele>
        <time>2020-06-25T06:51:34Z</time>
      </trkpt>
      <trkpt lat="49.85589" lon="4.55138">
        <ele>300.6</ele>
        <time>2020-06-25T06:51:35Z</time>
      </trkpt>
      <trkpt lat="49.85579" lon="4.5515">
        <ele>299.7</ele>
        <time>2020-06-25T06:51:36Z</time>
      </trkpt>
      <trkpt lat="49.85571" lon="4.55164">
        <ele>298.8</ele>
        <time>2020-06-25T06:51:37Z</time>
      </trkpt>
      <trkpt lat="49.85563" lon="4.55179">
        <ele>297.8</ele>
        <time>2020-06-25T06:51:38Z</time>
      </trkpt>
      <trkpt lat="49.85555" lon="4.55195">
        <ele>296.9</ele>
        <time>2020-06-25T06:51:39Z</time>
      </trkpt>
      <trkpt lat="49.85547" lon="4.55211">
        <ele>296</ele>
        <time>2020-06-25T06:51:40Z</time>
      </trkpt>
      <trkpt lat="49.8554" lon="4.55228">
        <ele>295.1</ele>
        <time>2020-06-25T06:51:41Z</time>
      </trkpt>
      <trkpt lat="49.85535" lon="4.55247">
        <ele>294.3</ele>
        <time>2020-06-25T06:51:42Z</time>
      </trkpt>
      <trkpt lat="49.8553" lon="4.55265">
        <ele>293.4</ele>
        <time>2020-06-25T06:51:43Z</time>
      </trkpt>
      <trkpt lat="49.85525" lon="4.55285">
        <ele>292.5</ele>
        <time>2020-06-25T06:51:44Z</time>
      </trkpt>
      <trkpt lat="49.85522" lon="4.55305">
        <ele>291.6</ele>
        <time>2020-06-25T06:51:45Z</time>
      </trkpt>
      <trkpt lat="49.8552" lon="4.55325">
        <ele>290.7</ele>
        <time>2020-06-25T06:51:46Z</time>
      </trkpt>
      <trkpt lat="49.85517" lon="4.55344">
        <ele>289.8</ele>
        <time>2020-06-25T06:51:47Z</time>
      </trkpt>
      <trkpt lat="49.85515" lon="4.55363">
        <ele>288.9</ele>
        <time>2020-06-25T06:51:48Z</time>
      </trkpt>
      <trkpt lat="49.85513" lon="4.55383">
        <ele>288</ele>
        <time>2020-06-25T06:51:49Z</time>
      </trkpt>
      <trkpt lat="49.85512" lon="4.55403">
        <ele>287.1</ele>
        <time>2020-06-25T06:51:50Z</time>
      </trkpt>
      <trkpt lat="49.85511" lon="4.55423">
        <ele>286.2</ele>
        <time>2020-06-25T06:51:51Z</time>
      </trkpt>
      <trkpt lat="49.8551" lon="4.55443">
        <ele>285.4</ele>
        <time>2020-06-25T06:51:52Z</time>
      </trkpt>
      <trkpt lat="49.85508" lon="4.55464">
        <ele>284.5</ele>
        <time>2020-06-25T06:51:53Z</time>
      </trkpt>
      <trkpt lat="49.85506" lon="4.55484">
        <ele>283.6</ele>
        <time>2020-06-25T06:51:54Z</time>
      </trkpt>
      <trkpt lat="49.85504" lon="4.55504">
        <ele>282.7</ele>
        <time>2020-06-25T06:51:55Z</time>
      </trkpt>
      <trkpt lat="49.85502" lon="4.55523">
        <ele>281.8</ele>
        <time>2020-06-25T06:51:56Z</time>
      </trkpt>
      <trkpt lat="49.855" lon="4.55542">
        <ele>281</ele>
        <time>2020-06-25T06:51:57Z</time>
      </trkpt>
      <trkpt lat="49.85498" lon="4.55561">
        <ele>280.1</ele>
        <time>2020-06-25T06:51:58Z</time>
      </trkpt>
      <trkpt lat="49.85495" lon="4.5558">
        <ele>279.3</ele>
        <time>2020-06-25T06:51:59Z</time>
      </trkpt>
      <trkpt lat="49.8549" lon="4.55597">
        <ele>278.5</ele>
        <time>2020-06-25T06:52:00Z</time>
      </trkpt>
      <trkpt lat="49.85485" lon="4.55615">
        <ele>277.7</ele>
        <time>2020-06-25T06:52:01Z</time>
      </trkpt>
      <trkpt lat="49.85478" lon="4.5563">
        <ele>276.8</ele>
        <time>2020-06-25T06:52:02Z</time>
      </trkpt>
      <trkpt lat="49.8547" lon="4.55643">
        <ele>276</ele>
        <time>2020-06-25T06:52:03Z</time>
      </trkpt>
      <trkpt lat="49.85462" lon="4.55656">
        <ele>275</ele>
        <time>2020-06-25T06:52:04Z</time>
      </trkpt>
      <trkpt lat="49.85453" lon="4.55669">
        <ele>274.1</ele>
        <time>2020-06-25T06:52:05Z</time>
      </trkpt>
      <trkpt lat="49.85443" lon="4.5568">
        <ele>273.1</ele>
        <time>2020-06-25T06:52:06Z</time>
      </trkpt>
      <trkpt lat="49.85433" lon="4.5569">
        <ele>272</ele>
        <time>2020-06-25T06:52:07Z</time>
      </trkpt>
      <trkpt lat="49.85421" lon="4.55697">
        <ele>270.9</ele>
        <time>2020-06-25T06:52:08Z</time>
      </trkpt>
      <trkpt lat="49.85409" lon="4.55703">
        <ele>269.8</ele>
        <time>2020-06-25T06:52:09Z</time>
      </trkpt>
      <trkpt lat="49.85397" lon="4.55707">
        <ele>268.4</ele>
        <time>2020-06-25T06:52:10Z</time>
      </trkpt>
      <trkpt lat="49.85385" lon="4.55709">
        <ele>267.5</ele>
        <time>2020-06-25T06:52:11Z</time>
      </trkpt>
      <trkpt lat="49.85372" lon="4.55711">
        <ele>266.6</ele>
        <time>2020-06-25T06:52:12Z</time>
      </trkpt>
      <trkpt lat="49.8536" lon="4.5571">
        <ele>265.8</ele>
        <time>2020-06-25T06:52:13Z</time>
      </trkpt>
      <trkpt lat="49.85347" lon="4.5571">
        <ele>265.2</ele>
        <time>2020-06-25T06:52:14Z</time>
      </trkpt>
      <trkpt lat="49.85334" lon="4.55711">
        <ele>264.4</ele>
        <time>2020-06-25T06:52:15Z</time>
      </trkpt>
      <trkpt lat="49.85322" lon="4.55713">
        <ele>263.7</ele>
        <time>2020-06-25T06:52:16Z</time>
      </trkpt>
      <trkpt lat="49.8531" lon="4.55712">
        <ele>263.1</ele>
        <time>2020-06-25T06:52:17Z</time>
      </trkpt>
      <trkpt lat="49.85298" lon="4.55713">
        <ele>262.8</ele>
        <time>2020-06-25T06:52:18Z</time>
      </trkpt>
      <trkpt lat="49.85285" lon="4.55715">
        <ele>262.5</ele>
        <time>2020-06-25T06:52:19Z</time>
      </trkpt>
      <trkpt lat="49.85274" lon="4.55719">
        <ele>262.2</ele>
        <time>2020-06-25T06:52:20Z</time>
      </trkpt>
      <trkpt lat="49.85262" lon="4.55721">
        <ele>262.1</ele>
        <time>2020-06-25T06:52:21Z</time>
      </trkpt>
      <trkpt lat="49.8525" lon="4.55722">
        <ele>261.9</ele>
        <time>2020-06-25T06:52:22Z</time>
      </trkpt>
      <trkpt lat="49.85238" lon="4.55723">
        <ele>261.8</ele>
        <time>2020-06-25T06:52:23Z</time>
      </trkpt>
      <trkpt lat="49.85226" lon="4.55724">
        <ele>261.6</ele>
        <time>2020-06-25T06:52:24Z</time>
      </trkpt>
      <trkpt lat="49.85215" lon="4.55724">
        <ele>261.6</ele>
        <time>2020-06-25T06:52:25Z</time>
      </trkpt>
      <trkpt lat="49.85203" lon="4.55724">
        <ele>261.6</ele>
        <time>2020-06-25T06:52:26Z</time>
      </trkpt>
      <trkpt lat="49.85192" lon="4.55725">
        <ele>261.6</ele>
        <time>2020-06-25T06:52:27Z</time>
      </trkpt>
      <trkpt lat="49.85182" lon="4.55725">
        <ele>261.8</ele>
        <time>2020-06-25T06:52:28Z</time>
      </trkpt>
      <trkpt lat="49.85172" lon="4.55725">
        <ele>262</ele>
        <time>2020-06-25T06:52:29Z</time>
      </trkpt>
      <trkpt lat="49.85162" lon="4.55727">
        <ele>262.3</ele>
        <time>2020-06-25T06:52:30Z</time>
      </trkpt>
      <trkpt lat="49.85153" lon="4.55726">
        <ele>262.5</ele>
        <time>2020-06-25T06:52:31Z</time>
      </trkpt>
      <trkpt lat="49.85143" lon="4.55726">
        <ele>262.8</ele>
        <time>2020-06-25T06:52:32Z</time>
      </trkpt>
      <trkpt lat="49.85135" lon="4.55727">
        <ele>263.2</ele>
        <time>2020-06-25T06:52:33Z</time>
      </trkpt>
      <trkpt lat="49.85125" lon="4.55727">
        <ele>263.7</ele>
        <time>2020-06-25T06:52:34Z</time>
      </trkpt>
      <trkpt lat="49.85117" lon="4.55727">
        <ele>264.1</ele>
        <time>2020-06-25T06:52:35Z</time>
      </trkpt>
      <trkpt lat="49.85109" lon="4.55728">
        <ele>264.6</ele>
        <time>2020-06-25T06:52:36Z</time>
      </trkpt>
      <trkpt lat="49.85102" lon="4.5573">
        <ele>265</ele>
        <time>2020-06-25T06:52:37Z</time>
      </trkpt>
      <trkpt lat="49.85095" lon="4.55731">
        <ele>265.4</ele>
        <time>2020-06-25T06:52:38Z</time>
      </trkpt>
      <trkpt lat="49.85089" lon="4.55731">
        <ele>265.8</ele>
        <time>2020-06-25T06:52:39Z</time>
      </trkpt>
      <trkpt lat="49.85082" lon="4.55731">
        <ele>266.2</ele>
        <time>2020-06-25T06:52:40Z</time>
      </trkpt>
      <trkpt lat="49.85076" lon="4.55732">
        <ele>266.6</ele>
        <time>2020-06-25T06:52:41Z</time>
      </trkpt>
      <trkpt lat="49.85069" lon="4.55734">
        <ele>266.9</ele>
        <time>2020-06-25T06:52:42Z</time>
      </trkpt>
      <trkpt lat="49.85063" lon="4.55735">
        <ele>267.2</ele>
        <time>2020-06-25T06:52:43Z</time>
      </trkpt>
      <trkpt lat="49.85057" lon="4.55736">
        <ele>267.5</ele>
        <time>2020-06-25T06:52:44Z</time>
      </trkpt>
      <trkpt lat="49.85052" lon="4.55738">
        <ele>267.8</ele>
        <time>2020-06-25T06:52:45Z</time>
      </trkpt>
      <trkpt lat="49.85047" lon="4.55739">
        <ele>268.1</ele>
        <time>2020-06-25T06:52:46Z</time>
      </trkpt>
      <trkpt lat="49.85044" lon="4.55743">
        <ele>268.3</ele>
        <time>2020-06-25T06:52:47Z</time>
      </trkpt>
      <trkpt lat="49.8504" lon="4.55744">
        <ele>268.5</ele>
        <time>2020-06-25T06:52:48Z</time>
      </trkpt>
      <trkpt lat="49.85038" lon="4.55748">
        <ele>268.7</ele>
        <time>2020-06-25T06:52:49Z</time>
      </trkpt>
      <trkpt lat="49.85036" lon="4.55752">
        <ele>268.8</ele>
        <time>2020-06-25T06:52:50Z</time>
      </trkpt>
      <trkpt lat="49.85034" lon="4.55755">
        <ele>269</ele>
        <time>2020-06-25T06:52:51Z</time>
      </trkpt>
      <trkpt lat="49.85031" lon="4.55759">
        <ele>269.2</ele>
        <time>2020-06-25T06:52:52Z</time>
      </trkpt>
      <trkpt lat="49.85031" lon="4.55761">
        <ele>269.2</ele>
        <time>2020-06-25T06:52:53Z</time>
      </trkpt>
      <trkpt lat="49.85029" lon="4.55766">
        <ele>269.4</ele>
        <time>2020-06-25T06:52:54Z</time>
      </trkpt>
      <trkpt lat="49.85028" lon="4.55768">
        <ele>269.5</ele>
        <time>2020-06-25T06:52:55Z</time>
      </trkpt>
      <trkpt lat="49.85027" lon="4.55771">
        <ele>269.6</ele>
        <time>2020-06-25T06:52:56Z</time>
      </trkpt>
      <trkpt lat="49.85027" lon="4.55773">
        <ele>269.6</ele>
        <time>2020-06-25T06:52:57Z</time>
      </trkpt>
      <trkpt lat="49.85026" lon="4.55775">
        <ele>269.7</ele>
        <time>2020-06-25T06:52:58Z</time>
      </trkpt>
      <trkpt lat="49.85025" lon="4.55777">
        <ele>269.8</ele>
        <time>2020-06-25T06:52:59Z</time>
      </trkpt>
      <trkpt lat="49.85024" lon="4.55779">
        <ele>269.9</ele>
        <time>2020-06-25T06:53:00Z</time>
      </trkpt>
      <trkpt lat="49.85023" lon="4.55781">
        <ele>269.9</ele>
        <time>2020-06-25T06:53:01Z</time>
      </trkpt>
      <trkpt lat="49.85022" lon="4.55786">
        <ele>270.1</ele>
        <time>2020-06-25T06:53:02Z</time>
      </trkpt>
      <trkpt lat="49.85021" lon="4.55788">
        <ele>270.2</ele>
        <time>2020-06-25T06:53:03Z</time>
      </trkpt>
      <trkpt lat="49.85019" lon="4.55793">
        <ele>270.3</ele>
        <time>2020-06-25T06:53:04Z</time>
      </trkpt>
      <trkpt lat="49.85019" lon="4.55794">
        <ele>270.4</ele>
        <time>2020-06-25T06:53:05Z</time>
      </trkpt>
      <trkpt lat="49.85018" lon="4.55801">
        <ele>270.5</ele>
        <time>2020-06-25T06:53:06Z</time>
      </trkpt>
      <trkpt lat="49.85018" lon="4.55803">
        <ele>270.6</ele>
        <time>2020-06-25T06:53:07Z</time>
      </trkpt>
      <trkpt lat="49.85017" lon="4.55807">
        <ele>270.7</ele>
        <time>2020-06-25T06:53:08Z</time>
      </trkpt>
      <trkpt lat="49.85016" lon="4.55812">
        <ele>270.8</ele>
        <time>2020-06-25T06:53:09Z</time>
      </trkpt>
      <trkpt lat="49.85014" lon="4.55818">
        <ele>271</ele>
        <time>2020-06-25T06:53:10Z</time>
      </trkpt>
      <trkpt lat="49.85013" lon="4.55823">
        <ele>271.1</ele>
        <time>2020-06-25T06:53:11Z</time>
      </trkpt>
      <trkpt lat="49.85011" lon="4.55828">
        <ele>271.2</ele>
        <time>2020-06-25T06:53:12Z</time>
      </trkpt>
      <trkpt lat="49.85009" lon="4.55834">
        <ele>271.4</ele>
        <time>2020-06-25T06:53:13Z</time>
      </trkpt>
      <trkpt lat="49.85008" lon="4.5584">
        <ele>271.5</ele>
        <time>2020-06-25T06:53:14Z</time>
      </trkpt>
      <trkpt lat="49.85007" lon="4.55846">
        <ele>271.6</ele>
        <time>2020-06-25T06:53:15Z</time>
      </trkpt>
      <trkpt lat="49.85006" lon="4.55852">
        <ele>271.8</ele>
        <time>2020-06-25T06:53:16Z</time>
      </trkpt>
      <trkpt lat="49.85004" lon="4.55857">
        <ele>271.9</ele>
        <time>2020-06-25T06:53:17Z</time>
      </trkpt>
      <trkpt lat="49.85004" lon="4.55863">
        <ele>272</ele>
        <time>2020-06-25T06:53:18Z</time>
      </trkpt>
      <trkpt lat="49.85003" lon="4.55869">
        <ele>272.1</ele>
        <time>2020-06-25T06:53:19Z</time>
      </trkpt>
      <trkpt lat="49.85002" lon="4.55875">
        <ele>272.2</ele>
        <time>2020-06-25T06:53:20Z</time>
      </trkpt>
      <trkpt lat="49.85001" lon="4.55882">
        <ele>272.3</ele>
        <time>2020-06-25T06:53:21Z</time>
      </trkpt>
      <trkpt lat="49.85" lon="4.5589">
        <ele>272.4</ele>
        <time>2020-06-25T06:53:22Z</time>
      </trkpt>
      <trkpt lat="49.84999" lon="4.55898">
        <ele>272.6</ele>
        <time>2020-06-25T06:53:23Z</time>
      </trkpt>
      <trkpt lat="49.84998" lon="4.55905">
        <ele>272.7</ele>
        <time>2020-06-25T06:53:24Z</time>
      </trkpt>
      <trkpt lat="49.84997" lon="4.5591">
        <ele>272.8</ele>
        <time>2020-06-25T06:53:25Z</time>
      </trkpt>
      <trkpt lat="49.84995" lon="4.55916">
        <ele>272.9</ele>
        <time>2020-06-25T06:53:26Z</time>
      </trkpt>
      <trkpt lat="49.84993" lon="4.55922">
        <ele>273.1</ele>
        <time>2020-06-25T06:53:27Z</time>
      </trkpt>
      <trkpt lat="49.84992" lon="4.55928">
        <ele>273.2</ele>
        <time>2020-06-25T06:53:28Z</time>
      </trkpt>
      <trkpt lat="49.8499" lon="4.55934">
        <ele>273.3</ele>
        <time>2020-06-25T06:53:29Z</time>
      </trkpt>
      <trkpt lat="49.84989" lon="4.5594">
        <ele>273.4</ele>
        <time>2020-06-25T06:53:30Z</time>
      </trkpt>
      <trkpt lat="49.84987" lon="4.55947">
        <ele>273.6</ele>
        <time>2020-06-25T06:53:31Z</time>
      </trkpt>
      <trkpt lat="49.84985" lon="4.55954">
        <ele>273.7</ele>
        <time>2020-06-25T06:53:32Z</time>
      </trkpt>
      <trkpt lat="49.84983" lon="4.55962">
        <ele>273.8</ele>
        <time>2020-06-25T06:53:33Z</time>
      </trkpt>
      <trkpt lat="49.84982" lon="4.5597">
        <ele>273.9</ele>
        <time>2020-06-25T06:53:34Z</time>
      </trkpt>
      <trkpt lat="49.8498" lon="4.55978">
        <ele>274.1</ele>
        <time>2020-06-25T06:53:35Z</time>
      </trkpt>
      <trkpt lat="49.84979" lon="4.55985">
        <ele>274.2</ele>
        <time>2020-06-25T06:53:36Z</time>
      </trkpt>
      <trkpt lat="49.84978" lon="4.55993">
        <ele>274.3</ele>
        <time>2020-06-25T06:53:37Z</time>
      </trkpt>
      <trkpt lat="49.84976" lon="4.55999">
        <ele>274.4</ele>
        <time>2020-06-25T06:53:38Z</time>
      </trkpt>
      <trkpt lat="49.84975" lon="4.56005">
        <ele>274.5</ele>
        <time>2020-06-25T06:53:39Z</time>
      </trkpt>
      <trkpt lat="49.84973" lon="4.56011">
        <ele>274.7</ele>
        <time>2020-06-25T06:53:40Z</time>
      </trkpt>
      <trkpt lat="49.84972" lon="4.56016">
        <ele>274.8</ele>
        <time>2020-06-25T06:53:41Z</time>
      </trkpt>
      <trkpt lat="49.84971" lon="4.56023">
        <ele>274.9</ele>
        <time>2020-06-25T06:53:42Z</time>
      </trkpt>
      <trkpt lat="49.8497" lon="4.5603">
        <ele>275.1</ele>
        <time>2020-06-25T06:53:43Z</time>
      </trkpt>
      <trkpt lat="49.8497" lon="4.56036">
        <ele>275.3</ele>
        <time>2020-06-25T06:53:44Z</time>
      </trkpt>
      <trkpt lat="49.84968" lon="4.56043">
        <ele>275.4</ele>
        <time>2020-06-25T06:53:45Z</time>
      </trkpt>
      <trkpt lat="49.84967" lon="4.56051">
        <ele>275.6</ele>
        <time>2020-06-25T06:53:46Z</time>
      </trkpt>
      <trkpt lat="49.84966" lon="4.56059">
        <ele>275.7</ele>
        <time>2020-06-25T06:53:47Z</time>
      </trkpt>
      <trkpt lat="49.84964" lon="4.56066">
        <ele>275.9</ele>
        <time>2020-06-25T06:53:48Z</time>
      </trkpt>
      <trkpt lat="49.84963" lon="4.56073">
        <ele>276</ele>
        <time>2020-06-25T06:53:49Z</time>
      </trkpt>
      <trkpt lat="49.84961" lon="4.5608">
        <ele>276.2</ele>
        <time>2020-06-25T06:53:50Z</time>
      </trkpt>
      <trkpt lat="49.8496" lon="4.56087">
        <ele>276.4</ele>
        <time>2020-06-25T06:53:51Z</time>
      </trkpt>
      <trkpt lat="49.84959" lon="4.56094">
        <ele>276.5</ele>
        <time>2020-06-25T06:53:52Z</time>
      </trkpt>
      <trkpt lat="49.84959" lon="4.561">
        <ele>276.7</ele>
        <time>2020-06-25T06:53:53Z</time>
      </trkpt>
      <trkpt lat="49.84958" lon="4.56107">
        <ele>276.8</ele>
        <time>2020-06-25T06:53:54Z</time>
      </trkpt>
      <trkpt lat="49.84958" lon="4.56111">
        <ele>276.9</ele>
        <time>2020-06-25T06:53:55Z</time>
      </trkpt>
      <trkpt lat="49.84957" lon="4.56117">
        <ele>277.1</ele>
        <time>2020-06-25T06:53:56Z</time>
      </trkpt>
      <trkpt lat="49.84957" lon="4.56122">
        <ele>277.2</ele>
        <time>2020-06-25T06:53:57Z</time>
      </trkpt>
      <trkpt lat="49.84955" lon="4.56128">
        <ele>277.3</ele>
        <time>2020-06-25T06:53:58Z</time>
      </trkpt>
      <trkpt lat="49.84953" lon="4.56132">
        <ele>277.4</ele>
        <time>2020-06-25T06:53:59Z</time>
      </trkpt>
      <trkpt lat="49.84951" lon="4.56139">
        <ele>277.6</ele>
        <time>2020-06-25T06:54:00Z</time>
      </trkpt>
      <trkpt lat="49.84949" lon="4.56146">
        <ele>277.8</ele>
        <time>2020-06-25T06:54:01Z</time>
      </trkpt>
      <trkpt lat="49.84947" lon="4.56152">
        <ele>277.9</ele>
        <time>2020-06-25T06:54:02Z</time>
      </trkpt>
      <trkpt lat="49.84945" lon="4.56159">
        <ele>278.1</ele>
        <time>2020-06-25T06:54:03Z</time>
      </trkpt>
      <trkpt lat="49.84944" lon="4.56167">
        <ele>278.3</ele>
        <time>2020-06-25T06:54:04Z</time>
      </trkpt>
      <trkpt lat="49.84942" lon="4.56175">
        <ele>278.5</ele>
        <time>2020-06-25T06:54:05Z</time>
      </trkpt>
      <trkpt lat="49.84941" lon="4.56184">
        <ele>278.8</ele>
        <time>2020-06-25T06:54:06Z</time>
      </trkpt>
      <trkpt lat="49.84939" lon="4.56191">
        <ele>279</ele>
        <time>2020-06-25T06:54:07Z</time>
      </trkpt>
      <trkpt lat="49.84937" lon="4.56198">
        <ele>279.2</ele>
        <time>2020-06-25T06:54:08Z</time>
      </trkpt>
      <trkpt lat="49.84936" lon="4.56204">
        <ele>279.3</ele>
        <time>2020-06-25T06:54:09Z</time>
      </trkpt>
      <trkpt lat="49.84934" lon="4.5621">
        <ele>279.5</ele>
        <time>2020-06-25T06:54:10Z</time>
      </trkpt>
      <trkpt lat="49.84933" lon="4.56217">
        <ele>279.6</ele>
        <time>2020-06-25T06:54:11Z</time>
      </trkpt>
      <trkpt lat="49.84932" lon="4.56222">
        <ele>279.8</ele>
        <time>2020-06-25T06:54:12Z</time>
      </trkpt>
      <trkpt lat="49.84931" lon="4.56228">
        <ele>279.9</ele>
        <time>2020-06-25T06:54:13Z</time>
      </trkpt>
      <trkpt lat="49.8493" lon="4.56233">
        <ele>280</ele>
        <time>2020-06-25T06:54:14Z</time>
      </trkpt>
      <trkpt lat="49.84929" lon="4.5624">
        <ele>280.2</ele>
        <time>2020-06-25T06:54:15Z</time>
      </trkpt>
      <trkpt lat="49.84928" lon="4.56246">
        <ele>280.3</ele>
        <time>2020-06-25T06:54:16Z</time>
      </trkpt>
      <trkpt lat="49.84928" lon="4.56252">
        <ele>280.4</ele>
        <time>2020-06-25T06:54:17Z</time>
      </trkpt>
      <trkpt lat="49.84928" lon="4.56254">
        <ele>280.5</ele>
        <time>2020-06-25T06:54:18Z</time>
      </trkpt>
      <trkpt lat="49.84927" lon="4.56261">
        <ele>280.6</ele>
        <time>2020-06-25T06:54:19Z</time>
      </trkpt>
      <trkpt lat="49.84925" lon="4.56267">
        <ele>280.7</ele>
        <time>2020-06-25T06:54:20Z</time>
      </trkpt>
      <trkpt lat="49.84924" lon="4.56273">
        <ele>280.9</ele>
        <time>2020-06-25T06:54:21Z</time>
      </trkpt>
      <trkpt lat="49.84923" lon="4.5628">
        <ele>281</ele>
        <time>2020-06-25T06:54:22Z</time>
      </trkpt>
      <trkpt lat="49.84921" lon="4.56287">
        <ele>281.2</ele>
        <time>2020-06-25T06:54:23Z</time>
      </trkpt>
      <trkpt lat="49.8492" lon="4.56294">
        <ele>281.4</ele>
        <time>2020-06-25T06:54:24Z</time>
      </trkpt>
      <trkpt lat="49.84919" lon="4.56301">
        <ele>281.6</ele>
        <time>2020-06-25T06:54:25Z</time>
      </trkpt>
      <trkpt lat="49.84917" lon="4.56307">
        <ele>281.8</ele>
        <time>2020-06-25T06:54:26Z</time>
      </trkpt>
      <trkpt lat="49.84916" lon="4.56313">
        <ele>282</ele>
        <time>2020-06-25T06:54:27Z</time>
      </trkpt>
      <trkpt lat="49.84915" lon="4.5632">
        <ele>282.1</ele>
        <time>2020-06-25T06:54:28Z</time>
      </trkpt>
      <trkpt lat="49.84914" lon="4.56326">
        <ele>282.3</ele>
        <time>2020-06-25T06:54:29Z</time>
      </trkpt>
      <trkpt lat="49.84913" lon="4.56331">
        <ele>282.4</ele>
        <time>2020-06-25T06:54:30Z</time>
      </trkpt>
      <trkpt lat="49.84911" lon="4.56337">
        <ele>282.6</ele>
        <time>2020-06-25T06:54:31Z</time>
      </trkpt>
      <trkpt lat="49.84909" lon="4.56344">
        <ele>282.8</ele>
        <time>2020-06-25T06:54:32Z</time>
      </trkpt>
      <trkpt lat="49.84908" lon="4.56349">
        <ele>282.9</ele>
        <time>2020-06-25T06:54:33Z</time>
      </trkpt>
      <trkpt lat="49.84907" lon="4.56355">
        <ele>283.1</ele>
        <time>2020-06-25T06:54:34Z</time>
      </trkpt>
      <trkpt lat="49.84905" lon="4.56361">
        <ele>283.2</ele>
        <time>2020-06-25T06:54:35Z</time>
      </trkpt>
      <trkpt lat="49.84903" lon="4.56367">
        <ele>283.4</ele>
        <time>2020-06-25T06:54:36Z</time>
      </trkpt>
      <trkpt lat="49.84901" lon="4.56373">
        <ele>283.5</ele>
        <time>2020-06-25T06:54:37Z</time>
      </trkpt>
      <trkpt lat="49.84899" lon="4.56378">
        <ele>283.7</ele>
        <time>2020-06-25T06:54:38Z</time>
      </trkpt>
      <trkpt lat="49.84898" lon="4.56384">
        <ele>283.8</ele>
        <time>2020-06-25T06:54:39Z</time>
      </trkpt>
      <trkpt lat="49.84896" lon="4.5639">
        <ele>284</ele>
        <time>2020-06-25T06:54:40Z</time>
      </trkpt>
      <trkpt lat="49.84894" lon="4.56396">
        <ele>284.1</ele>
        <time>2020-06-25T06:54:41Z</time>
      </trkpt>
      <trkpt lat="49.84892" lon="4.56402">
        <ele>284.3</ele>
        <time>2020-06-25T06:54:42Z</time>
      </trkpt>
      <trkpt lat="49.84889" lon="4.56407">
        <ele>284.4</ele>
        <time>2020-06-25T06:54:43Z</time>
      </trkpt>
      <trkpt lat="49.84887" lon="4.56413">
        <ele>284.6</ele>
        <time>2020-06-25T06:54:44Z</time>
      </trkpt>
      <trkpt lat="49.84885" lon="4.56421">
        <ele>284.7</ele>
        <time>2020-06-25T06:54:45Z</time>
      </trkpt>
      <trkpt lat="49.84882" lon="4.56427">
        <ele>284.9</ele>
        <time>2020-06-25T06:54:46Z</time>
      </trkpt>
      <trkpt lat="49.8488" lon="4.56432">
        <ele>285</ele>
        <time>2020-06-25T06:54:47Z</time>
      </trkpt>
      <trkpt lat="49.84878" lon="4.56438">
        <ele>285.1</ele>
        <time>2020-06-25T06:54:48Z</time>
      </trkpt>
      <trkpt lat="49.84876" lon="4.56444">
        <ele>285.2</ele>
        <time>2020-06-25T06:54:49Z</time>
      </trkpt>
      <trkpt lat="49.84874" lon="4.56449">
        <ele>285.3</ele>
        <time>2020-06-25T06:54:50Z</time>
      </trkpt>
      <trkpt lat="49.84871" lon="4.56454">
        <ele>285.3</ele>
        <time>2020-06-25T06:54:51Z</time>
      </trkpt>
      <trkpt lat="49.84867" lon="4.56459">
        <ele>285.4</ele>
        <time>2020-06-25T06:54:52Z</time>
      </trkpt>
      <trkpt lat="49.84864" lon="4.56462">
        <ele>285.4</ele>
        <time>2020-06-25T06:54:53Z</time>
      </trkpt>
      <trkpt lat="49.84861" lon="4.56468">
        <ele>285.4</ele>
        <time>2020-06-25T06:54:54Z</time>
      </trkpt>
      <trkpt lat="49.84857" lon="4.56473">
        <ele>285.4</ele>
        <time>2020-06-25T06:54:55Z</time>
      </trkpt>
      <trkpt lat="49.84853" lon="4.56479">
        <ele>285.4</ele>
        <time>2020-06-25T06:54:56Z</time>
      </trkpt>
      <trkpt lat="49.8485" lon="4.56484">
        <ele>285.3</ele>
        <time>2020-06-25T06:54:57Z</time>
      </trkpt>
      <trkpt lat="49.84847" lon="4.56489">
        <ele>285.2</ele>
        <time>2020-06-25T06:54:58Z</time>
      </trkpt>
      <trkpt lat="49.84844" lon="4.56493">
        <ele>285.1</ele>
        <time>2020-06-25T06:54:59Z</time>
      </trkpt>
      <trkpt lat="49.84841" lon="4.56499">
        <ele>285</ele>
        <time>2020-06-25T06:55:00Z</time>
      </trkpt>
      <trkpt lat="49.84838" lon="4.56504">
        <ele>284.9</ele>
        <time>2020-06-25T06:55:01Z</time>
      </trkpt>
      <trkpt lat="49.84835" lon="4.5651">
        <ele>284.8</ele>
        <time>2020-06-25T06:55:02Z</time>
      </trkpt>
      <trkpt lat="49.84831" lon="4.56515">
        <ele>284.7</ele>
        <time>2020-06-25T06:55:03Z</time>
      </trkpt>
      <trkpt lat="49.84828" lon="4.56521">
        <ele>284.5</ele>
        <time>2020-06-25T06:55:04Z</time>
      </trkpt>
      <trkpt lat="49.84825" lon="4.56526">
        <ele>284.4</ele>
        <time>2020-06-25T06:55:05Z</time>
      </trkpt>
      <trkpt lat="49.84821" lon="4.56531">
        <ele>284.1</ele>
        <time>2020-06-25T06:55:06Z</time>
      </trkpt>
      <trkpt lat="49.84817" lon="4.56537">
        <ele>283.8</ele>
        <time>2020-06-25T06:55:07Z</time>
      </trkpt>
      <trkpt lat="49.84813" lon="4.56544">
        <ele>283.7</ele>
        <time>2020-06-25T06:55:08Z</time>
      </trkpt>
      <trkpt lat="49.8481" lon="4.5655">
        <ele>283.6</ele>
        <time>2020-06-25T06:55:09Z</time>
      </trkpt>
      <trkpt lat="49.84805" lon="4.56556">
        <ele>283.5</ele>
        <time>2020-06-25T06:55:10Z</time>
      </trkpt>
      <trkpt lat="49.84801" lon="4.56562">
        <ele>283.4</ele>
        <time>2020-06-25T06:55:11Z</time>
      </trkpt>
      <trkpt lat="49.84796" lon="4.56567">
        <ele>283.2</ele>
        <time>2020-06-25T06:55:12Z</time>
      </trkpt>
      <trkpt lat="49.84791" lon="4.56574">
        <ele>283</ele>
        <time>2020-06-25T06:55:13Z</time>
      </trkpt>
      <trkpt lat="49.84787" lon="4.56581">
        <ele>282.8</ele>
        <time>2020-06-25T06:55:14Z</time>
      </trkpt>
      <trkpt lat="49.84783" lon="4.56589">
        <ele>282.6</ele>
        <time>2020-06-25T06:55:15Z</time>
      </trkpt>
      <trkpt lat="49.84778" lon="4.56596">
        <ele>282.4</ele>
        <time>2020-06-25T06:55:16Z</time>
      </trkpt>
      <trkpt lat="49.84773" lon="4.56604">
        <ele>282.2</ele>
        <time>2020-06-25T06:55:17Z</time>
      </trkpt>
      <trkpt lat="49.84769" lon="4.56612">
        <ele>282</ele>
        <time>2020-06-25T06:55:18Z</time>
      </trkpt>
      <trkpt lat="49.84765" lon="4.56618">
        <ele>281.8</ele>
        <time>2020-06-25T06:55:19Z</time>
      </trkpt>
      <trkpt lat="49.84761" lon="4.56626">
        <ele>281.6</ele>
        <time>2020-06-25T06:55:20Z</time>
      </trkpt>
      <trkpt lat="49.84756" lon="4.56635">
        <ele>281.4</ele>
        <time>2020-06-25T06:55:21Z</time>
      </trkpt>
      <trkpt lat="49.84751" lon="4.56641">
        <ele>281.3</ele>
        <time>2020-06-25T06:55:22Z</time>
      </trkpt>
      <trkpt lat="49.84746" lon="4.56647">
        <ele>281.1</ele>
        <time>2020-06-25T06:55:23Z</time>
      </trkpt>
      <trkpt lat="49.84741" lon="4.56654">
        <ele>281</ele>
        <time>2020-06-25T06:55:24Z</time>
      </trkpt>
      <trkpt lat="49.84736" lon="4.5666">
        <ele>280.8</ele>
        <time>2020-06-25T06:55:25Z</time>
      </trkpt>
      <trkpt lat="49.84731" lon="4.56666">
        <ele>280.6</ele>
        <time>2020-06-25T06:55:26Z</time>
      </trkpt>
      <trkpt lat="49.84726" lon="4.56672">
        <ele>280.5</ele>
        <time>2020-06-25T06:55:27Z</time>
      </trkpt>
      <trkpt lat="49.84721" lon="4.56678">
        <ele>280.4</ele>
        <time>2020-06-25T06:55:28Z</time>
      </trkpt>
      <trkpt lat="49.84716" lon="4.56687">
        <ele>280.2</ele>
        <time>2020-06-25T06:55:29Z</time>
      </trkpt>
      <trkpt lat="49.84712" lon="4.56694">
        <ele>280.1</ele>
        <time>2020-06-25T06:55:30Z</time>
      </trkpt>
      <trkpt lat="49.84708" lon="4.56701">
        <ele>280.1</ele>
        <time>2020-06-25T06:55:31Z</time>
      </trkpt>
      <trkpt lat="49.84705" lon="4.56706">
        <ele>280</ele>
        <time>2020-06-25T06:55:32Z</time>
      </trkpt>
      <trkpt lat="49.847" lon="4.56712">
        <ele>279.9</ele>
        <time>2020-06-25T06:55:33Z</time>
      </trkpt>
      <trkpt lat="49.84695" lon="4.56717">
        <ele>279.8</ele>
        <time>2020-06-25T06:55:34Z</time>
      </trkpt>
      <trkpt lat="49.84692" lon="4.5672">
        <ele>279.7</ele>
        <time>2020-06-25T06:55:35Z</time>
      </trkpt>
      <trkpt lat="49.84691" lon="4.56722">
        <ele>279.7</ele>
        <time>2020-06-25T06:55:36Z</time>
      </trkpt>
      <trkpt lat="49.8469" lon="4.56722">
        <ele>279.7</ele>
        <time>2020-06-25T06:55:37Z</time>
      </trkpt>
      <trkpt lat="49.8469" lon="4.56722">
        <ele>279.7</ele>
        <time>2020-06-25T06:55:38Z</time>
      </trkpt>
      <trkpt lat="49.84691" lon="4.56721">
        <ele>279.7</ele>
        <time>2020-06-25T06:55:39Z</time>
      </trkpt>
      <trkpt lat="49.84692" lon="4.56722">
        <ele>279.7</ele>
        <time>2020-06-25T06:55:40Z</time>
      </trkpt>
      <trkpt lat="49.84692" lon="4.56722">
        <ele>279.7</ele>
        <time>2020-06-25T06:55:41Z</time>
      </trkpt>
      <trkpt lat="49.8469" lon="4.56723">
        <ele>279.7</ele>
        <time>2020-06-25T06:55:42Z</time>
      </trkpt>
      <trkpt lat="49.84689" lon="4.56723">
        <ele>279.7</ele>
        <time>2020-06-25T06:55:43Z</time>
      </trkpt>
      <trkpt lat="49.84689" lon="4.56722">
        <ele>279.7</ele>
        <time>2020-06-25T06:55:44Z</time>
      </trkpt>
      <trkpt lat="49.84689" lon="4.56723">
        <ele>279.7</ele>
        <time>2020-06-25T06:55:45Z</time>
      </trkpt>
      <trkpt lat="49.8469" lon="4.56722">
        <ele>279.7</ele>
        <time>2020-06-25T06:55:46Z</time>
      </trkpt>
      <trkpt lat="49.8469" lon="4.56723">
        <ele>279.7</ele>
        <time>2020-06-25T06:55:47Z</time>
      </trkpt>
      <trkpt lat="49.8469" lon="4.56724">
        <ele>279.7</ele>
        <time>2020-06-25T06:55:48Z</time>
      </trkpt>
      <trkpt lat="49.84687" lon="4.56727">
        <ele>279.7</ele>
        <time>2020-06-25T06:56:22Z</time>
      </trkpt>
      <trkpt lat="49.84687" lon="4.56729">
        <ele>279.7</ele>
        <time>2020-06-25T06:56:23Z</time>
      </trkpt>
      <trkpt lat="49.84687" lon="4.56731">
        <ele>279.7</ele>
        <time>2020-06-25T06:56:24Z</time>
      </trkpt>
      <trkpt lat="49.84688" lon="4.56735">
        <ele>279.7</ele>
        <time>2020-06-25T06:56:25Z</time>
      </trkpt>
      <trkpt lat="49.84688" lon="4.56737">
        <ele>279.7</ele>
        <time>2020-06-25T06:56:26Z</time>
      </trkpt>
      <trkpt lat="49.84688" lon="4.56738">
        <ele>279.7</ele>
        <time>2020-06-25T06:56:27Z</time>
      </trkpt>
      <trkpt lat="49.84688" lon="4.56739">
        <ele>279.7</ele>
        <time>2020-06-25T06:56:28Z</time>
      </trkpt>
      <trkpt lat="49.84688" lon="4.56739">
        <ele>279.7</ele>
        <time>2020-06-25T06:56:29Z</time>
      </trkpt>
      <trkpt lat="49.84689" lon="4.56741">
        <ele>279.7</ele>
        <time>2020-06-25T06:56:30Z</time>
      </trkpt>
      <trkpt lat="49.84689" lon="4.56742">
        <ele>279.7</ele>
        <time>2020-06-25T06:56:31Z</time>
      </trkpt>
      <trkpt lat="49.8469" lon="4.56742">
        <ele>279.7</ele>
        <time>2020-06-25T06:56:32Z</time>
      </trkpt>
      <trkpt lat="49.8469" lon="4.56743">
        <ele>279.7</ele>
        <time>2020-06-25T06:56:33Z</time>
      </trkpt>
      <trkpt lat="49.8469" lon="4.56743">
        <ele>279.7</ele>
        <time>2020-06-25T06:56:34Z</time>
      </trkpt>
      <trkpt lat="49.8469" lon="4.56742">
        <ele>279.7</ele>
        <time>2020-06-25T06:56:35Z</time>
      </trkpt>
      <trkpt lat="49.8469" lon="4.56743">
        <ele>279.7</ele>
        <time>2020-06-25T06:56:36Z</time>
      </trkpt>
      <trkpt lat="49.8469" lon="4.56742">
        <ele>279.7</ele>
        <time>2020-06-25T06:56:37Z</time>
      </trkpt>
      <trkpt lat="49.8469" lon="4.56742">
        <ele>279.7</ele>
        <time>2020-06-25T06:56:38Z</time>
      </trkpt>
      <trkpt lat="49.8469" lon="4.56742">
        <ele>279.7</ele>
        <time>2020-06-25T06:56:39Z</time>
      </trkpt>
      <trkpt lat="49.8469" lon="4.56742">
        <ele>279.7</ele>
        <time>2020-06-25T06:56:40Z</time>
      </trkpt>
      <trkpt lat="49.8469" lon="4.56742">
        <ele>279.7</ele>
        <time>2020-06-25T06:56:41Z</time>
      </trkpt>
      <trkpt lat="49.8469" lon="4.56742">
        <ele>279.7</ele>
        <time>2020-06-25T06:56:42Z</time>
      </trkpt>
      <trkpt lat="49.84686" lon="4.5674">
        <ele>279.7</ele>
        <time>2020-06-25T07:00:22Z</time>
      </trkpt>
      <trkpt lat="49.84685" lon="4.5674">
        <ele>279.7</ele>
        <time>2020-06-25T07:00:23Z</time>
      </trkpt>
      <trkpt lat="49.84685" lon="4.5674">
        <ele>279.7</ele>
        <time>2020-06-25T07:00:24Z</time>
      </trkpt>
      <trkpt lat="49.84685" lon="4.56739">
        <ele>279.7</ele>
        <time>2020-06-25T07:00:25Z</time>
      </trkpt>
      <trkpt lat="49.84685" lon="4.56739">
        <ele>279.7</ele>
        <time>2020-06-25T07:00:26Z</time>
      </trkpt>
      <trkpt lat="49.84685" lon="4.56739">
        <ele>279.7</ele>
        <time>2020-06-25T07:00:27Z</time>
      </trkpt>
      <trkpt lat="49.84684" lon="4.56739">
        <ele>279.7</ele>
        <time>2020-06-25T07:00:28Z</time>
      </trkpt>
      <trkpt lat="49.84685" lon="4.56741">
        <ele>279.7</ele>
        <time>2020-06-25T07:00:29Z</time>
      </trkpt>
      <trkpt lat="49.84685" lon="4.56741">
        <ele>279.7</ele>
        <time>2020-06-25T07:00:30Z</time>
      </trkpt>
      <trkpt lat="49.84685" lon="4.56741">
        <ele>279.7</ele>
        <time>2020-06-25T07:00:31Z</time>
      </trkpt>
      <trkpt lat="49.84685" lon="4.56741">
        <ele>279.7</ele>
        <time>2020-06-25T07:00:32Z</time>
      </trkpt>
      <trkpt lat="49.84695" lon="4.56744">
        <ele>279.7</ele>
        <time>2020-06-25T07:02:02Z</time>
      </trkpt>
      <trkpt lat="49.84695" lon="4.56744">
        <ele>279.7</ele>
        <time>2020-06-25T07:02:03Z</time>
      </trkpt>
      <trkpt lat="49.84695" lon="4.56742">
        <ele>279.7</ele>
        <time>2020-06-25T07:02:04Z</time>
      </trkpt>
      <trkpt lat="49.84694" lon="4.56742">
        <ele>279.7</ele>
        <time>2020-06-25T07:02:05Z</time>
      </trkpt>
      <trkpt lat="49.84695" lon="4.56742">
        <ele>279.7</ele>
        <time>2020-06-25T07:02:06Z</time>
      </trkpt>
      <trkpt lat="49.84694" lon="4.56741">
        <ele>279.7</ele>
        <time>2020-06-25T07:02:07Z</time>
      </trkpt>
      <trkpt lat="49.84694" lon="4.56742">
        <ele>279.7</ele>
        <time>2020-06-25T07:02:08Z</time>
      </trkpt>
      <trkpt lat="49.84694" lon="4.56743">
        <ele>279.7</ele>
        <time>2020-06-25T07:02:09Z</time>
      </trkpt>
      <trkpt lat="49.84694" lon="4.56744">
        <ele>279.7</ele>
        <time>2020-06-25T07:02:10Z</time>
      </trkpt>
      <trkpt lat="49.84694" lon="4.56744">
        <ele>279.7</ele>
        <time>2020-06-25T07:02:11Z</time>
      </trkpt>
      <trkpt lat="49.84694" lon="4.56744">
        <ele>279.7</ele>
        <time>2020-06-25T07:02:12Z</time>
      </trkpt>
      <trkpt lat="49.84694" lon="4.56744">
        <ele>279.7</ele>
        <time>2020-06-25T07:02:13Z</time>
      </trkpt>
      <trkpt lat="49.84694" lon="4.56743">
        <ele>279.7</ele>
        <time>2020-06-25T07:02:14Z</time>
      </trkpt>
      <trkpt lat="49.84695" lon="4.56743">
        <ele>279.7</ele>
        <time>2020-06-25T07:02:15Z</time>
      </trkpt>
      <trkpt lat="49.84695" lon="4.56743">
        <ele>279.7</ele>
        <time>2020-06-25T07:02:16Z</time>
      </trkpt>
      <trkpt lat="49.84695" lon="4.56743">
        <ele>279.7</ele>
        <time>2020-06-25T07:02:17Z</time>
      </trkpt>
      <trkpt lat="49.84695" lon="4.56743">
        <ele>279.7</ele>
        <time>2020-06-25T07:02:18Z</time>
      </trkpt>
      <trkpt lat="49.84695" lon="4.56743">
        <ele>279.7</ele>
        <time>2020-06-25T07:02:19Z</time>
      </trkpt>
      <trkpt lat="49.84694" lon="4.56742">
        <ele>279.7</ele>
        <time>2020-06-25T07:04:24Z</time>
      </trkpt>
      <trkpt lat="49.84694" lon="4.56743">
        <ele>279.7</ele>
        <time>2020-06-25T07:04:25Z</time>
      </trkpt>
      <trkpt lat="49.84695" lon="4.56743">
        <ele>279.7</ele>
        <time>2020-06-25T07:04:26Z</time>
      </trkpt>
      <trkpt lat="49.84695" lon="4.56743">
        <ele>279.7</ele>
        <time>2020-06-25T07:04:27Z</time>
      </trkpt>
      <trkpt lat="49.84695" lon="4.56743">
        <ele>279.7</ele>
        <time>2020-06-25T07:04:28Z</time>
      </trkpt>
      <trkpt lat="49.84695" lon="4.56743">
        <ele>279.7</ele>
        <time>2020-06-25T07:04:29Z</time>
      </trkpt>
      <trkpt lat="49.84695" lon="4.56743">
        <ele>279.7</ele>
        <time>2020-06-25T07:04:30Z</time>
      </trkpt>
      <trkpt lat="49.84695" lon="4.56743">
        <ele>279.7</ele>
        <time>2020-06-25T07:04:31Z</time>
      </trkpt>
      <trkpt lat="49.84695" lon="4.56743">
        <ele>279.7</ele>
        <time>2020-06-25T07:04:32Z</time>
      </trkpt>
      <trkpt lat="49.84695" lon="4.56743">
        <ele>279.7</ele>
        <time>2020-06-25T07:04:33Z</time>
      </trkpt>
      <trkpt lat="49.84695" lon="4.56743">
        <ele>279.7</ele>
        <time>2020-06-25T07:04:34Z</time>
      </trkpt>
      <trkpt lat="49.84695" lon="4.56743">
        <ele>279.7</ele>
        <time>2020-06-25T07:04:35Z</time>
      </trkpt>
      <trkpt lat="49.84695" lon="4.56743">
        <ele>279.7</ele>
        <time>2020-06-25T07:04:36Z</time>
      </trkpt>
      <trkpt lat="49.847" lon="4.56738">
        <ele>279.7</ele>
        <time>2020-06-25T07:11:01Z</time>
      </trkpt>
      <trkpt lat="49.84701" lon="4.56737">
        <ele>279.7</ele>
        <time>2020-06-25T07:11:02Z</time>
      </trkpt>
      <trkpt lat="49.84702" lon="4.56737">
        <ele>279.7</ele>
        <time>2020-06-25T07:11:03Z</time>
      </trkpt>
      <trkpt lat="49.84703" lon="4.56737">
        <ele>279.7</ele>
        <time>2020-06-25T07:11:04Z</time>
      </trkpt>
      <trkpt lat="49.84702" lon="4.56738">
        <ele>279.7</ele>
        <time>2020-06-25T07:11:05Z</time>
      </trkpt>
      <trkpt lat="49.84702" lon="4.56738">
        <ele>279.7</ele>
        <time>2020-06-25T07:11:06Z</time>
      </trkpt>
      <trkpt lat="49.84703" lon="4.56738">
        <ele>279.7</ele>
        <time>2020-06-25T07:11:07Z</time>
      </trkpt>
      <trkpt lat="49.84703" lon="4.56739">
        <ele>279.7</ele>
        <time>2020-06-25T07:11:08Z</time>
      </trkpt>
      <trkpt lat="49.84703" lon="4.56739">
        <ele>279.7</ele>
        <time>2020-06-25T07:11:09Z</time>
      </trkpt>
      <trkpt lat="49.84702" lon="4.56739">
        <ele>279.7</ele>
        <time>2020-06-25T07:11:10Z</time>
      </trkpt>
      <trkpt lat="49.84702" lon="4.56739">
        <ele>279.7</ele>
        <time>2020-06-25T07:11:11Z</time>
      </trkpt>
      <trkpt lat="49.84702" lon="4.56739">
        <ele>279.7</ele>
        <time>2020-06-25T07:11:12Z</time>
      </trkpt>
      <trkpt lat="49.84702" lon="4.56738">
        <ele>279.7</ele>
        <time>2020-06-25T07:11:13Z</time>
      </trkpt>
      <trkpt lat="49.84703" lon="4.56738">
        <ele>279.7</ele>
        <time>2020-06-25T07:11:14Z</time>
      </trkpt>
      <trkpt lat="49.84703" lon="4.56737">
        <ele>279.7</ele>
        <time>2020-06-25T07:11:15Z</time>
      </trkpt>
      <trkpt lat="49.84703" lon="4.56737">
        <ele>279.7</ele>
        <time>2020-06-25T07:11:16Z</time>
      </trkpt>
      <trkpt lat="49.84703" lon="4.56737">
        <ele>279.7</ele>
        <time>2020-06-25T07:11:17Z</time>
      </trkpt>
      <trkpt lat="49.84698" lon="4.5674">
        <ele>279.7</ele>
        <time>2020-06-25T07:11:29Z</time>
      </trkpt>
      <trkpt lat="49.84697" lon="4.56743">
        <ele>279.7</ele>
        <time>2020-06-25T07:11:30Z</time>
      </trkpt>
      <trkpt lat="49.84696" lon="4.56743">
        <ele>279.7</ele>
        <time>2020-06-25T07:11:31Z</time>
      </trkpt>
      <trkpt lat="49.84695" lon="4.56744">
        <ele>279.7</ele>
        <time>2020-06-25T07:11:32Z</time>
      </trkpt>
      <trkpt lat="49.84695" lon="4.56744">
        <ele>279.7</ele>
        <time>2020-06-25T07:11:33Z</time>
      </trkpt>
      <trkpt lat="49.84694" lon="4.56744">
        <ele>279.7</ele>
        <time>2020-06-25T07:11:34Z</time>
      </trkpt>
      <trkpt lat="49.84693" lon="4.56745">
        <ele>279.7</ele>
        <time>2020-06-25T07:11:35Z</time>
      </trkpt>
      <trkpt lat="49.84693" lon="4.56745">
        <ele>279.7</ele>
        <time>2020-06-25T07:11:36Z</time>
      </trkpt>
      <trkpt lat="49.84692" lon="4.56745">
        <ele>279.7</ele>
        <time>2020-06-25T07:11:37Z</time>
      </trkpt>
      <trkpt lat="49.84692" lon="4.56746">
        <ele>279.7</ele>
        <time>2020-06-25T07:11:38Z</time>
      </trkpt>
      <trkpt lat="49.84691" lon="4.56746">
        <ele>279.7</ele>
        <time>2020-06-25T07:11:39Z</time>
      </trkpt>
      <trkpt lat="49.84691" lon="4.56746">
        <ele>279.7</ele>
        <time>2020-06-25T07:11:40Z</time>
      </trkpt>
      <trkpt lat="49.8469" lon="4.56747">
        <ele>279.7</ele>
        <time>2020-06-25T07:11:41Z</time>
      </trkpt>
      <trkpt lat="49.84689" lon="4.56747">
        <ele>279.7</ele>
        <time>2020-06-25T07:13:03Z</time>
      </trkpt>
      <trkpt lat="49.84689" lon="4.56747">
        <ele>279.7</ele>
        <time>2020-06-25T07:13:04Z</time>
      </trkpt>
      <trkpt lat="49.84688" lon="4.56749">
        <ele>279.7</ele>
        <time>2020-06-25T07:13:05Z</time>
      </trkpt>
      <trkpt lat="49.84687" lon="4.56751">
        <ele>279.7</ele>
        <time>2020-06-25T07:13:06Z</time>
      </trkpt>
      <trkpt lat="49.84686" lon="4.56752">
        <ele>279.7</ele>
        <time>2020-06-25T07:13:07Z</time>
      </trkpt>
      <trkpt lat="49.84684" lon="4.56753">
        <ele>279.7</ele>
        <time>2020-06-25T07:13:08Z</time>
      </trkpt>
      <trkpt lat="49.84684" lon="4.56755">
        <ele>279.7</ele>
        <time>2020-06-25T07:13:09Z</time>
      </trkpt>
      <trkpt lat="49.84683" lon="4.56756">
        <ele>279.7</ele>
        <time>2020-06-25T07:13:10Z</time>
      </trkpt>
      <trkpt lat="49.84683" lon="4.56757">
        <ele>279.7</ele>
        <time>2020-06-25T07:13:11Z</time>
      </trkpt>
      <trkpt lat="49.84682" lon="4.56759">
        <ele>279.7</ele>
        <time>2020-06-25T07:13:12Z</time>
      </trkpt>
      <trkpt lat="49.84683" lon="4.5676">
        <ele>279.7</ele>
        <time>2020-06-25T07:13:13Z</time>
      </trkpt>
      <trkpt lat="49.84683" lon="4.56761">
        <ele>279.7</ele>
        <time>2020-06-25T07:13:14Z</time>
      </trkpt>
      <trkpt lat="49.84684" lon="4.56762">
        <ele>279.7</ele>
        <time>2020-06-25T07:13:15Z</time>
      </trkpt>
      <trkpt lat="49.84684" lon="4.56762">
        <ele>279.7</ele>
        <time>2020-06-25T07:13:16Z</time>
      </trkpt>
      <trkpt lat="49.84684" lon="4.56762">
        <ele>279.7</ele>
        <time>2020-06-25T07:13:17Z</time>
      </trkpt>
      <trkpt lat="49.84685" lon="4.56762">
        <ele>279.7</ele>
        <time>2020-06-25T07:13:18Z</time>
      </trkpt>
      <trkpt lat="49.84685" lon="4.56763">
        <ele>279.7</ele>
        <time>2020-06-25T07:13:19Z</time>
      </trkpt>
      <trkpt lat="49.84686" lon="4.56763">
        <ele>279.7</ele>
        <time>2020-06-25T07:13:20Z</time>
      </trkpt>
      <trkpt lat="49.84687" lon="4.56764">
        <ele>279.7</ele>
        <time>2020-06-25T07:13:21Z</time>
      </trkpt>
      <trkpt lat="49.84687" lon="4.56765">
        <ele>279.7</ele>
        <time>2020-06-25T07:13:22Z</time>
      </trkpt>
      <trkpt lat="49.84688" lon="4.56765">
        <ele>279.7</ele>
        <time>2020-06-25T07:13:23Z</time>
      </trkpt>
      <trkpt lat="49.84689" lon="4.56766">
        <ele>279.7</ele>
        <time>2020-06-25T07:13:24Z</time>
      </trkpt>
      <trkpt lat="49.8469" lon="4.56766">
        <ele>279.7</ele>
        <time>2020-06-25T07:13:25Z</time>
      </trkpt>
      <trkpt lat="49.8469" lon="4.56766">
        <ele>279.7</ele>
        <time>2020-06-25T07:13:26Z</time>
      </trkpt>
      <trkpt lat="49.84691" lon="4.56766">
        <ele>279.7</ele>
        <time>2020-06-25T07:13:27Z</time>
      </trkpt>
      <trkpt lat="49.84692" lon="4.56765">
        <ele>279.7</ele>
        <time>2020-06-25T07:13:28Z</time>
      </trkpt>
      <trkpt lat="49.84692" lon="4.56764">
        <ele>279.7</ele>
        <time>2020-06-25T07:13:29Z</time>
      </trkpt>
      <trkpt lat="49.84691" lon="4.56765">
        <ele>279.7</ele>
        <time>2020-06-25T07:13:30Z</time>
      </trkpt>
      <trkpt lat="49.8469" lon="4.56765">
        <ele>279.7</ele>
        <time>2020-06-25T07:13:31Z</time>
      </trkpt>
      <trkpt lat="49.8469" lon="4.56765">
        <ele>279.7</ele>
        <time>2020-06-25T07:13:32Z</time>
      </trkpt>
      <trkpt lat="49.84689" lon="4.56765">
        <ele>279.7</ele>
        <time>2020-06-25T07:13:33Z</time>
      </trkpt>
      <trkpt lat="49.84689" lon="4.56766">
        <ele>279.7</ele>
        <time>2020-06-25T07:13:34Z</time>
      </trkpt>
      <trkpt lat="49.84688" lon="4.56766">
        <ele>279.7</ele>
        <time>2020-06-25T07:13:35Z</time>
      </trkpt>
      <trkpt lat="49.84687" lon="4.56765">
        <ele>279.7</ele>
        <time>2020-06-25T07:13:36Z</time>
      </trkpt>
      <trkpt lat="49.84687" lon="4.56764">
        <ele>279.7</ele>
        <time>2020-06-25T07:13:37Z</time>
      </trkpt>
      <trkpt lat="49.84685" lon="4.56762">
        <ele>279.7</ele>
        <time>2020-06-25T07:13:38Z</time>
      </trkpt>
      <trkpt lat="49.84684" lon="4.56762">
        <ele>279.7</ele>
        <time>2020-06-25T07:13:39Z</time>
      </trkpt>
      <trkpt lat="49.84683" lon="4.56762">
        <ele>279.7</ele>
        <time>2020-06-25T07:13:40Z</time>
      </trkpt>
      <trkpt lat="49.84683" lon="4.56761">
        <ele>279.7</ele>
        <time>2020-06-25T07:13:41Z</time>
      </trkpt>
      <trkpt lat="49.84683" lon="4.5676">
        <ele>279.7</ele>
        <time>2020-06-25T07:13:42Z</time>
      </trkpt>
      <trkpt lat="49.84682" lon="4.56758">
        <ele>279.7</ele>
        <time>2020-06-25T07:13:43Z</time>
      </trkpt>
      <trkpt lat="49.84681" lon="4.56757">
        <ele>279.7</ele>
        <time>2020-06-25T07:13:44Z</time>
      </trkpt>
      <trkpt lat="49.8468" lon="4.56756">
        <ele>279.7</ele>
        <time>2020-06-25T07:13:45Z</time>
      </trkpt>
      <trkpt lat="49.84678" lon="4.56755">
        <ele>279.7</ele>
        <time>2020-06-25T07:13:46Z</time>
      </trkpt>
      <trkpt lat="49.84677" lon="4.56754">
        <ele>279.7</ele>
        <time>2020-06-25T07:13:47Z</time>
      </trkpt>
      <trkpt lat="49.84676" lon="4.56753">
        <ele>279.7</ele>
        <time>2020-06-25T07:13:48Z</time>
      </trkpt>
      <trkpt lat="49.84675" lon="4.56752">
        <ele>279.7</ele>
        <time>2020-06-25T07:13:49Z</time>
      </trkpt>
      <trkpt lat="49.84674" lon="4.56751">
        <ele>279.7</ele>
        <time>2020-06-25T07:13:50Z</time>
      </trkpt>
      <trkpt lat="49.84674" lon="4.56751">
        <ele>279.7</ele>
        <time>2020-06-25T07:13:51Z</time>
      </trkpt>
      <trkpt lat="49.84674" lon="4.5675">
        <ele>279.7</ele>
        <time>2020-06-25T07:13:52Z</time>
      </trkpt>
      <trkpt lat="49.84675" lon="4.56749">
        <ele>279.7</ele>
        <time>2020-06-25T07:13:53Z</time>
      </trkpt>
      <trkpt lat="49.84675" lon="4.56749">
        <ele>279.7</ele>
        <time>2020-06-25T07:13:54Z</time>
      </trkpt>
      <trkpt lat="49.84676" lon="4.56748">
        <ele>279.7</ele>
        <time>2020-06-25T07:13:55Z</time>
      </trkpt>
      <trkpt lat="49.84675" lon="4.56748">
        <ele>279.7</ele>
        <time>2020-06-25T07:13:56Z</time>
      </trkpt>
      <trkpt lat="49.84674" lon="4.56748">
        <ele>279.7</ele>
        <time>2020-06-25T07:13:57Z</time>
      </trkpt>
      <trkpt lat="49.84674" lon="4.56748">
        <ele>279.7</ele>
        <time>2020-06-25T07:13:58Z</time>
      </trkpt>
      <trkpt lat="49.84674" lon="4.56749">
        <ele>279.7</ele>
        <time>2020-06-25T07:13:59Z</time>
      </trkpt>
      <trkpt lat="49.84673" lon="4.5675">
        <ele>279.7</ele>
        <time>2020-06-25T07:14:00Z</time>
      </trkpt>
      <trkpt lat="49.84673" lon="4.56751">
        <ele>279.7</ele>
        <time>2020-06-25T07:14:01Z</time>
      </trkpt>
      <trkpt lat="49.84694" lon="4.56746">
        <ele>279.7</ele>
        <time>2020-06-25T07:16:31Z</time>
      </trkpt>
      <trkpt lat="49.84694" lon="4.56747">
        <ele>279.7</ele>
        <time>2020-06-25T07:16:32Z</time>
      </trkpt>
      <trkpt lat="49.84694" lon="4.56748">
        <ele>279.7</ele>
        <time>2020-06-25T07:16:33Z</time>
      </trkpt>
      <trkpt lat="49.84693" lon="4.56749">
        <ele>279.7</ele>
        <time>2020-06-25T07:16:34Z</time>
      </trkpt>
      <trkpt lat="49.84694" lon="4.5675">
        <ele>279.7</ele>
        <time>2020-06-25T07:16:35Z</time>
      </trkpt>
      <trkpt lat="49.84694" lon="4.56752">
        <ele>279.7</ele>
        <time>2020-06-25T07:16:36Z</time>
      </trkpt>
      <trkpt lat="49.84694" lon="4.56752">
        <ele>279.7</ele>
        <time>2020-06-25T07:16:37Z</time>
      </trkpt>
      <trkpt lat="49.84694" lon="4.56754">
        <ele>279.7</ele>
        <time>2020-06-25T07:16:38Z</time>
      </trkpt>
      <trkpt lat="49.84694" lon="4.56755">
        <ele>279.7</ele>
        <time>2020-06-25T07:16:39Z</time>
      </trkpt>
      <trkpt lat="49.84694" lon="4.56755">
        <ele>279.7</ele>
        <time>2020-06-25T07:16:40Z</time>
      </trkpt>
      <trkpt lat="49.84694" lon="4.56756">
        <ele>279.7</ele>
        <time>2020-06-25T07:16:41Z</time>
      </trkpt>
      <trkpt lat="49.84694" lon="4.56756">
        <ele>279.7</ele>
        <time>2020-06-25T07:16:42Z</time>
      </trkpt>
      <trkpt lat="49.84694" lon="4.56756">
        <ele>279.7</ele>
        <time>2020-06-25T07:16:43Z</time>
      </trkpt>
      <trkpt lat="49.84693" lon="4.56756">
        <ele>279.7</ele>
        <time>2020-06-25T07:16:44Z</time>
      </trkpt>
      <trkpt lat="49.84693" lon="4.56756">
        <ele>279.7</ele>
        <time>2020-06-25T07:16:45Z</time>
      </trkpt>
      <trkpt lat="49.84693" lon="4.56756">
        <ele>279.7</ele>
        <time>2020-06-25T07:16:46Z</time>
      </trkpt>
      <trkpt lat="49.84693" lon="4.56756">
        <ele>279.7</ele>
        <time>2020-06-25T07:16:47Z</time>
      </trkpt>
      <trkpt lat="49.84699" lon="4.56742">
        <ele>279.7</ele>
        <time>2020-06-25T07:19:43Z</time>
      </trkpt>
      <trkpt lat="49.847" lon="4.56743">
        <ele>279.7</ele>
        <time>2020-06-25T07:19:44Z</time>
      </trkpt>
      <trkpt lat="49.84699" lon="4.56742">
        <ele>279.6</ele>
        <time>2020-06-25T07:19:45Z</time>
      </trkpt>
      <trkpt lat="49.84699" lon="4.56742">
        <ele>279.6</ele>
        <time>2020-06-25T07:19:46Z</time>
      </trkpt>
      <trkpt lat="49.84699" lon="4.56742">
        <ele>279.6</ele>
        <time>2020-06-25T07:19:47Z</time>
      </trkpt>
      <trkpt lat="49.84699" lon="4.56742">
        <ele>279.6</ele>
        <time>2020-06-25T07:19:48Z</time>
      </trkpt>
      <trkpt lat="49.84699" lon="4.56742">
        <ele>279.6</ele>
        <time>2020-06-25T07:19:49Z</time>
      </trkpt>
      <trkpt lat="49.84699" lon="4.56742">
        <ele>279.5</ele>
        <time>2020-06-25T07:19:50Z</time>
      </trkpt>
      <trkpt lat="49.84699" lon="4.56742">
        <ele>279.5</ele>
        <time>2020-06-25T07:19:51Z</time>
      </trkpt>
      <trkpt lat="49.84699" lon="4.56743">
        <ele>279.5</ele>
        <time>2020-06-25T07:19:52Z</time>
      </trkpt>
      <trkpt lat="49.84699" lon="4.56743">
        <ele>279.5</ele>
        <time>2020-06-25T07:19:53Z</time>
      </trkpt>
      <trkpt lat="49.84699" lon="4.56743">
        <ele>279.4</ele>
        <time>2020-06-25T07:19:54Z</time>
      </trkpt>
      <trkpt lat="49.84699" lon="4.56743">
        <ele>279.4</ele>
        <time>2020-06-25T07:19:55Z</time>
      </trkpt>
      <trkpt lat="49.84699" lon="4.56743">
        <ele>279.4</ele>
        <time>2020-06-25T07:19:56Z</time>
      </trkpt>
      <trkpt lat="49.84699" lon="4.56743">
        <ele>279.4</ele>
        <time>2020-06-25T07:19:57Z</time>
      </trkpt>
      <trkpt lat="49.84699" lon="4.56732">
        <ele>279.3</ele>
        <time>2020-06-25T07:20:32Z</time>
      </trkpt>
      <trkpt lat="49.84699" lon="4.56731">
        <ele>279.3</ele>
        <time>2020-06-25T07:20:33Z</time>
      </trkpt>
      <trkpt lat="49.84699" lon="4.56731">
        <ele>279.3</ele>
        <time>2020-06-25T07:20:34Z</time>
      </trkpt>
      <trkpt lat="49.84699" lon="4.56732">
        <ele>279.3</ele>
        <time>2020-06-25T07:20:35Z</time>
      </trkpt>
      <trkpt lat="49.84699" lon="4.56732">
        <ele>279.3</ele>
        <time>2020-06-25T07:20:36Z</time>
      </trkpt>
      <trkpt lat="49.84698" lon="4.56732">
        <ele>279.2</ele>
        <time>2020-06-25T07:20:37Z</time>
      </trkpt>
      <trkpt lat="49.84698" lon="4.56732">
        <ele>279.2</ele>
        <time>2020-06-25T07:20:38Z</time>
      </trkpt>
      <trkpt lat="49.84698" lon="4.56733">
        <ele>279.2</ele>
        <time>2020-06-25T07:20:39Z</time>
      </trkpt>
      <trkpt lat="49.84698" lon="4.56734">
        <ele>279.2</ele>
        <time>2020-06-25T07:20:40Z</time>
      </trkpt>
      <trkpt lat="49.84698" lon="4.56734">
        <ele>279.2</ele>
        <time>2020-06-25T07:20:41Z</time>
      </trkpt>
      <trkpt lat="49.84698" lon="4.56734">
        <ele>279.1</ele>
        <time>2020-06-25T07:20:42Z</time>
      </trkpt>
      <trkpt lat="49.84698" lon="4.56734">
        <ele>279.1</ele>
        <time>2020-06-25T07:20:43Z</time>
      </trkpt>
      <trkpt lat="49.84698" lon="4.56734">
        <ele>279.1</ele>
        <time>2020-06-25T07:20:44Z</time>
      </trkpt>
      <trkpt lat="49.84699" lon="4.56733">
        <ele>279.1</ele>
        <time>2020-06-25T07:20:45Z</time>
      </trkpt>
      <trkpt lat="49.84699" lon="4.56732">
        <ele>279</ele>
        <time>2020-06-25T07:20:46Z</time>
      </trkpt>
      <trkpt lat="49.84699" lon="4.56731">
        <ele>279</ele>
        <time>2020-06-25T07:20:47Z</time>
      </trkpt>
      <trkpt lat="49.84699" lon="4.5673">
        <ele>279</ele>
        <time>2020-06-25T07:20:48Z</time>
      </trkpt>
      <trkpt lat="49.84698" lon="4.5673">
        <ele>279</ele>
        <time>2020-06-25T07:20:49Z</time>
      </trkpt>
      <trkpt lat="49.84698" lon="4.56732">
        <ele>279</ele>
        <time>2020-06-25T07:20:50Z</time>
      </trkpt>
      <trkpt lat="49.84698" lon="4.56732">
        <ele>278.9</ele>
        <time>2020-06-25T07:20:51Z</time>
      </trkpt>
      <trkpt lat="49.84697" lon="4.56731">
        <ele>278.9</ele>
        <time>2020-06-25T07:20:52Z</time>
      </trkpt>
      <trkpt lat="49.84697" lon="4.56732">
        <ele>278.9</ele>
        <time>2020-06-25T07:20:53Z</time>
      </trkpt>
      <trkpt lat="49.84696" lon="4.56733">
        <ele>278.8</ele>
        <time>2020-06-25T07:20:54Z</time>
      </trkpt>
      <trkpt lat="49.84696" lon="4.56734">
        <ele>278.8</ele>
        <time>2020-06-25T07:20:55Z</time>
      </trkpt>
      <trkpt lat="49.84696" lon="4.56734">
        <ele>278.8</ele>
        <time>2020-06-25T07:20:56Z</time>
      </trkpt>
      <trkpt lat="49.84696" lon="4.56734">
        <ele>278.8</ele>
        <time>2020-06-25T07:20:57Z</time>
      </trkpt>
      <trkpt lat="49.84695" lon="4.56735">
        <ele>278.7</ele>
        <time>2020-06-25T07:20:58Z</time>
      </trkpt>
      <trkpt lat="49.84695" lon="4.56736">
        <ele>278.7</ele>
        <time>2020-06-25T07:20:59Z</time>
      </trkpt>
      <trkpt lat="49.84695" lon="4.56735">
        <ele>278.7</ele>
        <time>2020-06-25T07:21:00Z</time>
      </trkpt>
      <trkpt lat="49.84695" lon="4.56736">
        <ele>278.7</ele>
        <time>2020-06-25T07:21:01Z</time>
      </trkpt>
      <trkpt lat="49.84695" lon="4.56738">
        <ele>278.6</ele>
        <time>2020-06-25T07:21:02Z</time>
      </trkpt>
      <trkpt lat="49.84694" lon="4.56738">
        <ele>278.6</ele>
        <time>2020-06-25T07:21:03Z</time>
      </trkpt>
      <trkpt lat="49.84694" lon="4.56739">
        <ele>278.6</ele>
        <time>2020-06-25T07:21:04Z</time>
      </trkpt>
      <trkpt lat="49.84694" lon="4.56739">
        <ele>278.6</ele>
        <time>2020-06-25T07:21:05Z</time>
      </trkpt>
      <trkpt lat="49.84694" lon="4.56739">
        <ele>278.5</ele>
        <time>2020-06-25T07:21:06Z</time>
      </trkpt>
      <trkpt lat="49.84694" lon="4.56739">
        <ele>278.5</ele>
        <time>2020-06-25T07:21:07Z</time>
      </trkpt>
      <trkpt lat="49.84694" lon="4.56738">
        <ele>278.5</ele>
        <time>2020-06-25T07:21:08Z</time>
      </trkpt>
      <trkpt lat="49.84694" lon="4.56739">
        <ele>278.5</ele>
        <time>2020-06-25T07:21:09Z</time>
      </trkpt>
      <trkpt lat="49.84694" lon="4.56739">
        <ele>278.5</ele>
        <time>2020-06-25T07:21:10Z</time>
      </trkpt>
      <trkpt lat="49.84694" lon="4.56739">
        <ele>278.4</ele>
        <time>2020-06-25T07:21:11Z</time>
      </trkpt>
      <trkpt lat="49.84694" lon="4.56738">
        <ele>278.4</ele>
        <time>2020-06-25T07:21:12Z</time>
      </trkpt>
      <trkpt lat="49.84695" lon="4.56738">
        <ele>278.4</ele>
        <time>2020-06-25T07:21:13Z</time>
      </trkpt>
      <trkpt lat="49.84695" lon="4.56737">
        <ele>278.4</ele>
        <time>2020-06-25T07:21:14Z</time>
      </trkpt>
      <trkpt lat="49.84697" lon="4.56736">
        <ele>278.3</ele>
        <time>2020-06-25T07:21:15Z</time>
      </trkpt>
      <trkpt lat="49.84698" lon="4.56737">
        <ele>278.3</ele>
        <time>2020-06-25T07:21:16Z</time>
      </trkpt>
      <trkpt lat="49.84699" lon="4.56736">
        <ele>278.3</ele>
        <time>2020-06-25T07:21:17Z</time>
      </trkpt>
      <trkpt lat="49.847" lon="4.56736">
        <ele>278.2</ele>
        <time>2020-06-25T07:21:18Z</time>
      </trkpt>
      <trkpt lat="49.84701" lon="4.56736">
        <ele>278.2</ele>
        <time>2020-06-25T07:21:19Z</time>
      </trkpt>
      <trkpt lat="49.84702" lon="4.56736">
        <ele>278.2</ele>
        <time>2020-06-25T07:21:20Z</time>
      </trkpt>
      <trkpt lat="49.84703" lon="4.56736">
        <ele>278.1</ele>
        <time>2020-06-25T07:21:21Z</time>
      </trkpt>
      <trkpt lat="49.84703" lon="4.56735">
        <ele>278.1</ele>
        <time>2020-06-25T07:21:22Z</time>
      </trkpt>
      <trkpt lat="49.84704" lon="4.56735">
        <ele>278.1</ele>
        <time>2020-06-25T07:21:23Z</time>
      </trkpt>
      <trkpt lat="49.84704" lon="4.56736">
        <ele>278.1</ele>
        <time>2020-06-25T07:21:24Z</time>
      </trkpt>
      <trkpt lat="49.84704" lon="4.56737">
        <ele>278</ele>
        <time>2020-06-25T07:21:25Z</time>
      </trkpt>
      <trkpt lat="49.84704" lon="4.56738">
        <ele>278</ele>
        <time>2020-06-25T07:21:26Z</time>
      </trkpt>
      <trkpt lat="49.84703" lon="4.56738">
        <ele>278</ele>
        <time>2020-06-25T07:21:27Z</time>
      </trkpt>
      <trkpt lat="49.84703" lon="4.56738">
        <ele>278</ele>
        <time>2020-06-25T07:21:28Z</time>
      </trkpt>
      <trkpt lat="49.84704" lon="4.56739">
        <ele>277.9</ele>
        <time>2020-06-25T07:21:29Z</time>
      </trkpt>
      <trkpt lat="49.84704" lon="4.56739">
        <ele>277.9</ele>
        <time>2020-06-25T07:21:30Z</time>
      </trkpt>
      <trkpt lat="49.84704" lon="4.5674">
        <ele>277.9</ele>
        <time>2020-06-25T07:21:31Z</time>
      </trkpt>
      <trkpt lat="49.84704" lon="4.56741">
        <ele>277.9</ele>
        <time>2020-06-25T07:21:32Z</time>
      </trkpt>
      <trkpt lat="49.84703" lon="4.56742">
        <ele>277.9</ele>
        <time>2020-06-25T07:21:33Z</time>
      </trkpt>
      <trkpt lat="49.84703" lon="4.56744">
        <ele>277.8</ele>
        <time>2020-06-25T07:21:34Z</time>
      </trkpt>
      <trkpt lat="49.84702" lon="4.56745">
        <ele>277.8</ele>
        <time>2020-06-25T07:21:35Z</time>
      </trkpt>
      <trkpt lat="49.84702" lon="4.56747">
        <ele>277.8</ele>
        <time>2020-06-25T07:21:36Z</time>
      </trkpt>
      <trkpt lat="49.84702" lon="4.56748">
        <ele>277.8</ele>
        <time>2020-06-25T07:21:37Z</time>
      </trkpt>
      <trkpt lat="49.84702" lon="4.56748">
        <ele>277.7</ele>
        <time>2020-06-25T07:21:38Z</time>
      </trkpt>
      <trkpt lat="49.84702" lon="4.56748">
        <ele>277.7</ele>
        <time>2020-06-25T07:21:39Z</time>
      </trkpt>
      <trkpt lat="49.84702" lon="4.56748">
        <ele>277.7</ele>
        <time>2020-06-25T07:21:40Z</time>
      </trkpt>
      <trkpt lat="49.84703" lon="4.56748">
        <ele>277.6</ele>
        <time>2020-06-25T07:21:41Z</time>
      </trkpt>
      <trkpt lat="49.84703" lon="4.56748">
        <ele>277.6</ele>
        <time>2020-06-25T07:21:42Z</time>
      </trkpt>
      <trkpt lat="49.84703" lon="4.56748">
        <ele>277.5</ele>
        <time>2020-06-25T07:21:43Z</time>
      </trkpt>
      <trkpt lat="49.84702" lon="4.56748">
        <ele>277.5</ele>
        <time>2020-06-25T07:21:44Z</time>
      </trkpt>
      <trkpt lat="49.84702" lon="4.56748">
        <ele>277.5</ele>
        <time>2020-06-25T07:21:45Z</time>
      </trkpt>
      <trkpt lat="49.84702" lon="4.56749">
        <ele>277.5</ele>
        <time>2020-06-25T07:21:46Z</time>
      </trkpt>
      <trkpt lat="49.84702" lon="4.56749">
        <ele>277.4</ele>
        <time>2020-06-25T07:21:47Z</time>
      </trkpt>
      <trkpt lat="49.84702" lon="4.56749">
        <ele>277.4</ele>
        <time>2020-06-25T07:21:48Z</time>
      </trkpt>
      <trkpt lat="49.84701" lon="4.56748">
        <ele>277.4</ele>
        <time>2020-06-25T07:21:49Z</time>
      </trkpt>
      <trkpt lat="49.84701" lon="4.56748">
        <ele>277.4</ele>
        <time>2020-06-25T07:21:50Z</time>
      </trkpt>
      <trkpt lat="49.84701" lon="4.56749">
        <ele>277.3</ele>
        <time>2020-06-25T07:21:51Z</time>
      </trkpt>
      <trkpt lat="49.84701" lon="4.5675">
        <ele>277.3</ele>
        <time>2020-06-25T07:21:52Z</time>
      </trkpt>
      <trkpt lat="49.84701" lon="4.5675">
        <ele>277.3</ele>
        <time>2020-06-25T07:21:53Z</time>
      </trkpt>
      <trkpt lat="49.84701" lon="4.56751">
        <ele>277.3</ele>
        <time>2020-06-25T07:21:54Z</time>
      </trkpt>
      <trkpt lat="49.84701" lon="4.56751">
        <ele>277.2</ele>
        <time>2020-06-25T07:21:55Z</time>
      </trkpt>
      <trkpt lat="49.84701" lon="4.56752">
        <ele>277.2</ele>
        <time>2020-06-25T07:21:56Z</time>
      </trkpt>
      <trkpt lat="49.847" lon="4.56753">
        <ele>277.2</ele>
        <time>2020-06-25T07:21:57Z</time>
      </trkpt>
      <trkpt lat="49.847" lon="4.56754">
        <ele>277.2</ele>
        <time>2020-06-25T07:21:58Z</time>
      </trkpt>
      <trkpt lat="49.84699" lon="4.56755">
        <ele>277.2</ele>
        <time>2020-06-25T07:21:59Z</time>
      </trkpt>
      <trkpt lat="49.84698" lon="4.56755">
        <ele>277.2</ele>
        <time>2020-06-25T07:22:00Z</time>
      </trkpt>
      <trkpt lat="49.84697" lon="4.56757">
        <ele>277.2</ele>
        <time>2020-06-25T07:22:01Z</time>
      </trkpt>
      <trkpt lat="49.84696" lon="4.56758">
        <ele>277.2</ele>
        <time>2020-06-25T07:22:02Z</time>
      </trkpt>
      <trkpt lat="49.84695" lon="4.56759">
        <ele>277.2</ele>
        <time>2020-06-25T07:22:03Z</time>
      </trkpt>
      <trkpt lat="49.84695" lon="4.56759">
        <ele>277.2</ele>
        <time>2020-06-25T07:22:04Z</time>
      </trkpt>
      <trkpt lat="49.84695" lon="4.56759">
        <ele>277.2</ele>
        <time>2020-06-25T07:22:05Z</time>
      </trkpt>
      <trkpt lat="49.84695" lon="4.56759">
        <ele>277.2</ele>
        <time>2020-06-25T07:22:06Z</time>
      </trkpt>
      <trkpt lat="49.84695" lon="4.56759">
        <ele>277.2</ele>
        <time>2020-06-25T07:22:07Z</time>
      </trkpt>
      <trkpt lat="49.84695" lon="4.56758">
        <ele>277.2</ele>
        <time>2020-06-25T07:22:08Z</time>
      </trkpt>
      <trkpt lat="49.84695" lon="4.56758">
        <ele>277.2</ele>
        <time>2020-06-25T07:22:09Z</time>
      </trkpt>
      <trkpt lat="49.84696" lon="4.56757">
        <ele>277.1</ele>
        <time>2020-06-25T07:22:10Z</time>
      </trkpt>
      <trkpt lat="49.84696" lon="4.56756">
        <ele>277.1</ele>
        <time>2020-06-25T07:22:11Z</time>
      </trkpt>
      <trkpt lat="49.84696" lon="4.56755">
        <ele>277.1</ele>
        <time>2020-06-25T07:22:12Z</time>
      </trkpt>
      <trkpt lat="49.84696" lon="4.56756">
        <ele>277.1</ele>
        <time>2020-06-25T07:22:13Z</time>
      </trkpt>
      <trkpt lat="49.84696" lon="4.56755">
        <ele>277.1</ele>
        <time>2020-06-25T07:22:14Z</time>
      </trkpt>
      <trkpt lat="49.84696" lon="4.56754">
        <ele>277.1</ele>
        <time>2020-06-25T07:22:15Z</time>
      </trkpt>
      <trkpt lat="49.84696" lon="4.56753">
        <ele>277.1</ele>
        <time>2020-06-25T07:22:16Z</time>
      </trkpt>
      <trkpt lat="49.84696" lon="4.56753">
        <ele>277.1</ele>
        <time>2020-06-25T07:22:17Z</time>
      </trkpt>
      <trkpt lat="49.84696" lon="4.56752">
        <ele>277.1</ele>
        <time>2020-06-25T07:22:18Z</time>
      </trkpt>
      <trkpt lat="49.84696" lon="4.56751">
        <ele>277.1</ele>
        <time>2020-06-25T07:22:19Z</time>
      </trkpt>
      <trkpt lat="49.84696" lon="4.56751">
        <ele>277.1</ele>
        <time>2020-06-25T07:22:20Z</time>
      </trkpt>
      <trkpt lat="49.847" lon="4.56753">
        <ele>277.1</ele>
        <time>2020-06-25T07:22:40Z</time>
      </trkpt>
      <trkpt lat="49.847" lon="4.56753">
        <ele>277.1</ele>
        <time>2020-06-25T07:22:41Z</time>
      </trkpt>
      <trkpt lat="49.84699" lon="4.56752">
        <ele>277.1</ele>
        <time>2020-06-25T07:22:42Z</time>
      </trkpt>
      <trkpt lat="49.84698" lon="4.56752">
        <ele>277.1</ele>
        <time>2020-06-25T07:22:43Z</time>
      </trkpt>
      <trkpt lat="49.84698" lon="4.56752">
        <ele>277.1</ele>
        <time>2020-06-25T07:22:44Z</time>
      </trkpt>
      <trkpt lat="49.84698" lon="4.56751">
        <ele>277.1</ele>
        <time>2020-06-25T07:22:45Z</time>
      </trkpt>
      <trkpt lat="49.84698" lon="4.56752">
        <ele>277.1</ele>
        <time>2020-06-25T07:22:46Z</time>
      </trkpt>
      <trkpt lat="49.84699" lon="4.56751">
        <ele>277.1</ele>
        <time>2020-06-25T07:22:47Z</time>
      </trkpt>
      <trkpt lat="49.84699" lon="4.56751">
        <ele>277.1</ele>
        <time>2020-06-25T07:22:48Z</time>
      </trkpt>
      <trkpt lat="49.847" lon="4.56752">
        <ele>277.1</ele>
        <time>2020-06-25T07:22:49Z</time>
      </trkpt>
      <trkpt lat="49.847" lon="4.56751">
        <ele>277.1</ele>
        <time>2020-06-25T07:22:50Z</time>
      </trkpt>
      <trkpt lat="49.847" lon="4.56752">
        <ele>277.1</ele>
        <time>2020-06-25T07:22:51Z</time>
      </trkpt>
      <trkpt lat="49.847" lon="4.56752">
        <ele>277.1</ele>
        <time>2020-06-25T07:22:52Z</time>
      </trkpt>
      <trkpt lat="49.84702" lon="4.56754">
        <ele>277.1</ele>
        <time>2020-06-25T07:22:53Z</time>
      </trkpt>
      <trkpt lat="49.84702" lon="4.56754">
        <ele>277</ele>
        <time>2020-06-25T07:22:54Z</time>
      </trkpt>
      <trkpt lat="49.84703" lon="4.56755">
        <ele>277</ele>
        <time>2020-06-25T07:22:55Z</time>
      </trkpt>
      <trkpt lat="49.84703" lon="4.56757">
        <ele>277</ele>
        <time>2020-06-25T07:22:56Z</time>
      </trkpt>
      <trkpt lat="49.84703" lon="4.56757">
        <ele>277</ele>
        <time>2020-06-25T07:22:57Z</time>
      </trkpt>
      <trkpt lat="49.84703" lon="4.56758">
        <ele>277</ele>
        <time>2020-06-25T07:22:58Z</time>
      </trkpt>
      <trkpt lat="49.84703" lon="4.56759">
        <ele>277</ele>
        <time>2020-06-25T07:22:59Z</time>
      </trkpt>
      <trkpt lat="49.84702" lon="4.56759">
        <ele>277</ele>
        <time>2020-06-25T07:23:00Z</time>
      </trkpt>
      <trkpt lat="49.84703" lon="4.56759">
        <ele>277</ele>
        <time>2020-06-25T07:23:01Z</time>
      </trkpt>
      <trkpt lat="49.84703" lon="4.56759">
        <ele>277</ele>
        <time>2020-06-25T07:23:02Z</time>
      </trkpt>
      <trkpt lat="49.84703" lon="4.56759">
        <ele>277</ele>
        <time>2020-06-25T07:23:03Z</time>
      </trkpt>
      <trkpt lat="49.84704" lon="4.56759">
        <ele>277</ele>
        <time>2020-06-25T07:23:04Z</time>
      </trkpt>
      <trkpt lat="49.84703" lon="4.56759">
        <ele>277</ele>
        <time>2020-06-25T07:23:05Z</time>
      </trkpt>
      <trkpt lat="49.84703" lon="4.56759">
        <ele>277</ele>
        <time>2020-06-25T07:23:06Z</time>
      </trkpt>
      <trkpt lat="49.84702" lon="4.56758">
        <ele>277</ele>
        <time>2020-06-25T07:23:07Z</time>
      </trkpt>
      <trkpt lat="49.84702" lon="4.56757">
        <ele>277</ele>
        <time>2020-06-25T07:23:08Z</time>
      </trkpt>
      <trkpt lat="49.84701" lon="4.56755">
        <ele>277</ele>
        <time>2020-06-25T07:23:09Z</time>
      </trkpt>
      <trkpt lat="49.847" lon="4.56754">
        <ele>277</ele>
        <time>2020-06-25T07:23:10Z</time>
      </trkpt>
      <trkpt lat="49.847" lon="4.56752">
        <ele>277</ele>
        <time>2020-06-25T07:23:11Z</time>
      </trkpt>
      <trkpt lat="49.847" lon="4.56751">
        <ele>277</ele>
        <time>2020-06-25T07:23:12Z</time>
      </trkpt>
      <trkpt lat="49.847" lon="4.56751">
        <ele>277</ele>
        <time>2020-06-25T07:23:13Z</time>
      </trkpt>
      <trkpt lat="49.847" lon="4.5675">
        <ele>277</ele>
        <time>2020-06-25T07:23:14Z</time>
      </trkpt>
      <trkpt lat="49.847" lon="4.5675">
        <ele>277</ele>
        <time>2020-06-25T07:23:15Z</time>
      </trkpt>
      <trkpt lat="49.84701" lon="4.5675">
        <ele>277</ele>
        <time>2020-06-25T07:23:16Z</time>
      </trkpt>
      <trkpt lat="49.84699" lon="4.56744">
        <ele>276.9</ele>
        <time>2020-06-25T07:26:10Z</time>
      </trkpt>
      <trkpt lat="49.84699" lon="4.56745">
        <ele>276.9</ele>
        <time>2020-06-25T07:26:11Z</time>
      </trkpt>
      <trkpt lat="49.84699" lon="4.56745">
        <ele>276.9</ele>
        <time>2020-06-25T07:26:12Z</time>
      </trkpt>
      <trkpt lat="49.847" lon="4.56746">
        <ele>276.9</ele>
        <time>2020-06-25T07:26:13Z</time>
      </trkpt>
      <trkpt lat="49.847" lon="4.56746">
        <ele>276.9</ele>
        <time>2020-06-25T07:26:14Z</time>
      </trkpt>
      <trkpt lat="49.847" lon="4.56747">
        <ele>276.9</ele>
        <time>2020-06-25T07:26:15Z</time>
      </trkpt>
      <trkpt lat="49.847" lon="4.56748">
        <ele>276.9</ele>
        <time>2020-06-25T07:26:16Z</time>
      </trkpt>
      <trkpt lat="49.84701" lon="4.56749">
        <ele>276.9</ele>
        <time>2020-06-25T07:26:17Z</time>
      </trkpt>
      <trkpt lat="49.84701" lon="4.5675">
        <ele>276.9</ele>
        <time>2020-06-25T07:26:18Z</time>
      </trkpt>
      <trkpt lat="49.84702" lon="4.56751">
        <ele>276.9</ele>
        <time>2020-06-25T07:26:19Z</time>
      </trkpt>
      <trkpt lat="49.84703" lon="4.56751">
        <ele>276.9</ele>
        <time>2020-06-25T07:26:20Z</time>
      </trkpt>
      <trkpt lat="49.84703" lon="4.56751">
        <ele>276.9</ele>
        <time>2020-06-25T07:26:21Z</time>
      </trkpt>
      <trkpt lat="49.84703" lon="4.56751">
        <ele>276.9</ele>
        <time>2020-06-25T07:26:22Z</time>
      </trkpt>
      <trkpt lat="49.84704" lon="4.56752">
        <ele>276.9</ele>
        <time>2020-06-25T07:26:23Z</time>
      </trkpt>
      <trkpt lat="49.84704" lon="4.56752">
        <ele>276.9</ele>
        <time>2020-06-25T07:26:24Z</time>
      </trkpt>
      <trkpt lat="49.84704" lon="4.56752">
        <ele>276.9</ele>
        <time>2020-06-25T07:26:25Z</time>
      </trkpt>
      <trkpt lat="49.84705" lon="4.56752">
        <ele>276.8</ele>
        <time>2020-06-25T07:26:26Z</time>
      </trkpt>
      <trkpt lat="49.84706" lon="4.56752">
        <ele>276.8</ele>
        <time>2020-06-25T07:26:27Z</time>
      </trkpt>
      <trkpt lat="49.84706" lon="4.56752">
        <ele>276.8</ele>
        <time>2020-06-25T07:26:28Z</time>
      </trkpt>
      <trkpt lat="49.84706" lon="4.56752">
        <ele>276.8</ele>
        <time>2020-06-25T07:26:29Z</time>
      </trkpt>
      <trkpt lat="49.84706" lon="4.56751">
        <ele>276.8</ele>
        <time>2020-06-25T07:26:30Z</time>
      </trkpt>
      <trkpt lat="49.84706" lon="4.56751">
        <ele>276.8</ele>
        <time>2020-06-25T07:26:31Z</time>
      </trkpt>
      <trkpt lat="49.84707" lon="4.56752">
        <ele>276.8</ele>
        <time>2020-06-25T07:26:32Z</time>
      </trkpt>
      <trkpt lat="49.84707" lon="4.56753">
        <ele>276.8</ele>
        <time>2020-06-25T07:26:33Z</time>
      </trkpt>
      <trkpt lat="49.84707" lon="4.56753">
        <ele>276.8</ele>
        <time>2020-06-25T07:26:34Z</time>
      </trkpt>
      <trkpt lat="49.84706" lon="4.56753">
        <ele>276.8</ele>
        <time>2020-06-25T07:26:35Z</time>
      </trkpt>
      <trkpt lat="49.84706" lon="4.56753">
        <ele>276.8</ele>
        <time>2020-06-25T07:26:36Z</time>
      </trkpt>
      <trkpt lat="49.84705" lon="4.56752">
        <ele>276.8</ele>
        <time>2020-06-25T07:26:37Z</time>
      </trkpt>
      <trkpt lat="49.84705" lon="4.56751">
        <ele>276.8</ele>
        <time>2020-06-25T07:26:38Z</time>
      </trkpt>
      <trkpt lat="49.84704" lon="4.5675">
        <ele>276.8</ele>
        <time>2020-06-25T07:26:39Z</time>
      </trkpt>
      <trkpt lat="49.84703" lon="4.56749">
        <ele>276.8</ele>
        <time>2020-06-25T07:26:40Z</time>
      </trkpt>
      <trkpt lat="49.84703" lon="4.56749">
        <ele>276.8</ele>
        <time>2020-06-25T07:26:41Z</time>
      </trkpt>
      <trkpt lat="49.84704" lon="4.56747">
        <ele>276.7</ele>
        <time>2020-06-25T07:26:42Z</time>
      </trkpt>
      <trkpt lat="49.84704" lon="4.56747">
        <ele>276.7</ele>
        <time>2020-06-25T07:26:43Z</time>
      </trkpt>
      <trkpt lat="49.84704" lon="4.56747">
        <ele>276.7</ele>
        <time>2020-06-25T07:26:44Z</time>
      </trkpt>
      <trkpt lat="49.84704" lon="4.56748">
        <ele>276.7</ele>
        <time>2020-06-25T07:26:45Z</time>
      </trkpt>
      <trkpt lat="49.84704" lon="4.56749">
        <ele>276.7</ele>
        <time>2020-06-25T07:26:46Z</time>
      </trkpt>
      <trkpt lat="49.84705" lon="4.56749">
        <ele>276.7</ele>
        <time>2020-06-25T07:26:47Z</time>
      </trkpt>
      <trkpt lat="49.84706" lon="4.56749">
        <ele>276.7</ele>
        <time>2020-06-25T07:26:48Z</time>
      </trkpt>
      <trkpt lat="49.84707" lon="4.5675">
        <ele>276.7</ele>
        <time>2020-06-25T07:26:49Z</time>
      </trkpt>
      <trkpt lat="49.84707" lon="4.5675">
        <ele>276.7</ele>
        <time>2020-06-25T07:26:50Z</time>
      </trkpt>
      <trkpt lat="49.84708" lon="4.5675">
        <ele>276.7</ele>
        <time>2020-06-25T07:26:51Z</time>
      </trkpt>
      <trkpt lat="49.84707" lon="4.5675">
        <ele>276.7</ele>
        <time>2020-06-25T07:26:52Z</time>
      </trkpt>
      <trkpt lat="49.84707" lon="4.5675">
        <ele>276.7</ele>
        <time>2020-06-25T07:26:53Z</time>
      </trkpt>
      <trkpt lat="49.84706" lon="4.56749">
        <ele>276.7</ele>
        <time>2020-06-25T07:26:54Z</time>
      </trkpt>
      <trkpt lat="49.84705" lon="4.56749">
        <ele>276.7</ele>
        <time>2020-06-25T07:26:55Z</time>
      </trkpt>
      <trkpt lat="49.84705" lon="4.56749">
        <ele>276.6</ele>
        <time>2020-06-25T07:26:56Z</time>
      </trkpt>
      <trkpt lat="49.84704" lon="4.56748">
        <ele>276.6</ele>
        <time>2020-06-25T07:26:57Z</time>
      </trkpt>
      <trkpt lat="49.84703" lon="4.56747">
        <ele>276.6</ele>
        <time>2020-06-25T07:26:58Z</time>
      </trkpt>
      <trkpt lat="49.84703" lon="4.56747">
        <ele>276.6</ele>
        <time>2020-06-25T07:26:59Z</time>
      </trkpt>
      <trkpt lat="49.84702" lon="4.56747">
        <ele>276.6</ele>
        <time>2020-06-25T07:27:00Z</time>
      </trkpt>
      <trkpt lat="49.84702" lon="4.56748">
        <ele>276.6</ele>
        <time>2020-06-25T07:27:01Z</time>
      </trkpt>
      <trkpt lat="49.84702" lon="4.56748">
        <ele>276.6</ele>
        <time>2020-06-25T07:27:02Z</time>
      </trkpt>
      <trkpt lat="49.84702" lon="4.56748">
        <ele>276.6</ele>
        <time>2020-06-25T07:27:03Z</time>
      </trkpt>
      <trkpt lat="49.84701" lon="4.56748">
        <ele>276.6</ele>
        <time>2020-06-25T07:27:04Z</time>
      </trkpt>
      <trkpt lat="49.84701" lon="4.56748">
        <ele>276.6</ele>
        <time>2020-06-25T07:27:05Z</time>
      </trkpt>
      <trkpt lat="49.84701" lon="4.56748">
        <ele>276.6</ele>
        <time>2020-06-25T07:27:06Z</time>
      </trkpt>
      <trkpt lat="49.847" lon="4.56748">
        <ele>276.6</ele>
        <time>2020-06-25T07:27:07Z</time>
      </trkpt>
      <trkpt lat="49.84699" lon="4.56749">
        <ele>276.6</ele>
        <time>2020-06-25T07:27:08Z</time>
      </trkpt>
      <trkpt lat="49.84699" lon="4.5675">
        <ele>276.5</ele>
        <time>2020-06-25T07:27:09Z</time>
      </trkpt>
      <trkpt lat="49.84698" lon="4.56752">
        <ele>276.5</ele>
        <time>2020-06-25T07:27:10Z</time>
      </trkpt>
      <trkpt lat="49.84697" lon="4.56753">
        <ele>276.5</ele>
        <time>2020-06-25T07:27:11Z</time>
      </trkpt>
      <trkpt lat="49.84696" lon="4.56753">
        <ele>276.5</ele>
        <time>2020-06-25T07:27:12Z</time>
      </trkpt>
      <trkpt lat="49.84695" lon="4.56753">
        <ele>276.5</ele>
        <time>2020-06-25T07:27:13Z</time>
      </trkpt>
      <trkpt lat="49.84695" lon="4.56752">
        <ele>276.5</ele>
        <time>2020-06-25T07:27:14Z</time>
      </trkpt>
      <trkpt lat="49.84695" lon="4.56752">
        <ele>276.5</ele>
        <time>2020-06-25T07:27:15Z</time>
      </trkpt>
      <trkpt lat="49.84695" lon="4.56751">
        <ele>276.5</ele>
        <time>2020-06-25T07:27:16Z</time>
      </trkpt>
      <trkpt lat="49.84695" lon="4.56751">
        <ele>276.5</ele>
        <time>2020-06-25T07:27:17Z</time>
      </trkpt>
      <trkpt lat="49.84696" lon="4.56751">
        <ele>276.5</ele>
        <time>2020-06-25T07:27:18Z</time>
      </trkpt>
      <trkpt lat="49.84695" lon="4.56751">
        <ele>276.5</ele>
        <time>2020-06-25T07:27:19Z</time>
      </trkpt>
      <trkpt lat="49.84695" lon="4.56751">
        <ele>276.5</ele>
        <time>2020-06-25T07:27:20Z</time>
      </trkpt>
      <trkpt lat="49.84696" lon="4.56751">
        <ele>276.5</ele>
        <time>2020-06-25T07:27:21Z</time>
      </trkpt>
      <trkpt lat="49.84696" lon="4.5675">
        <ele>276.4</ele>
        <time>2020-06-25T07:27:22Z</time>
      </trkpt>
      <trkpt lat="49.84696" lon="4.56751">
        <ele>276.4</ele>
        <time>2020-06-25T07:27:23Z</time>
      </trkpt>
      <trkpt lat="49.84695" lon="4.56751">
        <ele>276.4</ele>
        <time>2020-06-25T07:27:24Z</time>
      </trkpt>
      <trkpt lat="49.84695" lon="4.56752">
        <ele>276.4</ele>
        <time>2020-06-25T07:27:25Z</time>
      </trkpt>
      <trkpt lat="49.84694" lon="4.56753">
        <ele>276.4</ele>
        <time>2020-06-25T07:27:26Z</time>
      </trkpt>
      <trkpt lat="49.84694" lon="4.56754">
        <ele>276.4</ele>
        <time>2020-06-25T07:27:27Z</time>
      </trkpt>
      <trkpt lat="49.84694" lon="4.56754">
        <ele>276.4</ele>
        <time>2020-06-25T07:27:28Z</time>
      </trkpt>
      <trkpt lat="49.84693" lon="4.56754">
        <ele>276.4</ele>
        <time>2020-06-25T07:27:29Z</time>
      </trkpt>
      <trkpt lat="49.84692" lon="4.56755">
        <ele>276.4</ele>
        <time>2020-06-25T07:27:30Z</time>
      </trkpt>
      <trkpt lat="49.84691" lon="4.56754">
        <ele>276.4</ele>
        <time>2020-06-25T07:27:31Z</time>
      </trkpt>
      <trkpt lat="49.84691" lon="4.56754">
        <ele>276.4</ele>
        <time>2020-06-25T07:27:32Z</time>
      </trkpt>
      <trkpt lat="49.84691" lon="4.56754">
        <ele>276.4</ele>
        <time>2020-06-25T07:27:33Z</time>
      </trkpt>
      <trkpt lat="49.84692" lon="4.56754">
        <ele>276.4</ele>
        <time>2020-06-25T07:27:34Z</time>
      </trkpt>
      <trkpt lat="49.84692" lon="4.56754">
        <ele>276.3</ele>
        <time>2020-06-25T07:27:35Z</time>
      </trkpt>
      <trkpt lat="49.84692" lon="4.56754">
        <ele>276.3</ele>
        <time>2020-06-25T07:27:36Z</time>
      </trkpt>
      <trkpt lat="49.84692" lon="4.56754">
        <ele>276.3</ele>
        <time>2020-06-25T07:27:37Z</time>
      </trkpt>
      <trkpt lat="49.84692" lon="4.56754">
        <ele>276.3</ele>
        <time>2020-06-25T07:27:38Z</time>
      </trkpt>
      <trkpt lat="49.84693" lon="4.56754">
        <ele>276.3</ele>
        <time>2020-06-25T07:27:39Z</time>
      </trkpt>
      <trkpt lat="49.84694" lon="4.56754">
        <ele>276.3</ele>
        <time>2020-06-25T07:27:40Z</time>
      </trkpt>
      <trkpt lat="49.84694" lon="4.56751">
        <ele>276.3</ele>
        <time>2020-06-25T07:27:41Z</time>
      </trkpt>
      <trkpt lat="49.84693" lon="4.5675">
        <ele>276.3</ele>
        <time>2020-06-25T07:27:42Z</time>
      </trkpt>
      <trkpt lat="49.84692" lon="4.56749">
        <ele>276.3</ele>
        <time>2020-06-25T07:27:43Z</time>
      </trkpt>
      <trkpt lat="49.84692" lon="4.56749">
        <ele>276.3</ele>
        <time>2020-06-25T07:27:44Z</time>
      </trkpt>
      <trkpt lat="49.84691" lon="4.56748">
        <ele>276.3</ele>
        <time>2020-06-25T07:27:45Z</time>
      </trkpt>
      <trkpt lat="49.8469" lon="4.56747">
        <ele>276.2</ele>
        <time>2020-06-25T07:27:46Z</time>
      </trkpt>
      <trkpt lat="49.8469" lon="4.56747">
        <ele>276.2</ele>
        <time>2020-06-25T07:27:47Z</time>
      </trkpt>
      <trkpt lat="49.84689" lon="4.56746">
        <ele>276.2</ele>
        <time>2020-06-25T07:27:48Z</time>
      </trkpt>
      <trkpt lat="49.84689" lon="4.56745">
        <ele>276.2</ele>
        <time>2020-06-25T07:27:49Z</time>
      </trkpt>
      <trkpt lat="49.84688" lon="4.56744">
        <ele>276.2</ele>
        <time>2020-06-25T07:27:50Z</time>
      </trkpt>
      <trkpt lat="49.84687" lon="4.56744">
        <ele>276.2</ele>
        <time>2020-06-25T07:33:59Z</time>
      </trkpt>
      <trkpt lat="49.84687" lon="4.56743">
        <ele>276.2</ele>
        <time>2020-06-25T07:34:00Z</time>
      </trkpt>
      <trkpt lat="49.84686" lon="4.56744">
        <ele>276.2</ele>
        <time>2020-06-25T07:34:01Z</time>
      </trkpt>
      <trkpt lat="49.84684" lon="4.56747">
        <ele>276.1</ele>
        <time>2020-06-25T07:34:02Z</time>
      </trkpt>
      <trkpt lat="49.84682" lon="4.5675">
        <ele>276.1</ele>
        <time>2020-06-25T07:34:03Z</time>
      </trkpt>
      <trkpt lat="49.84681" lon="4.56751">
        <ele>276.1</ele>
        <time>2020-06-25T07:34:04Z</time>
      </trkpt>
      <trkpt lat="49.84678" lon="4.56755">
        <ele>276</ele>
        <time>2020-06-25T07:34:05Z</time>
      </trkpt>
      <trkpt lat="49.84677" lon="4.56757">
        <ele>276</ele>
        <time>2020-06-25T07:34:06Z</time>
      </trkpt>
      <trkpt lat="49.84675" lon="4.5676">
        <ele>275.9</ele>
        <time>2020-06-25T07:34:07Z</time>
      </trkpt>
      <trkpt lat="49.84673" lon="4.56764">
        <ele>275.9</ele>
        <time>2020-06-25T07:34:08Z</time>
      </trkpt>
      <trkpt lat="49.8467" lon="4.56768">
        <ele>275.8</ele>
        <time>2020-06-25T07:34:09Z</time>
      </trkpt>
      <trkpt lat="49.84668" lon="4.56772">
        <ele>275.7</ele>
        <time>2020-06-25T07:34:10Z</time>
      </trkpt>
      <trkpt lat="49.84665" lon="4.56776">
        <ele>275.6</ele>
        <time>2020-06-25T07:34:11Z</time>
      </trkpt>
      <trkpt lat="49.84663" lon="4.56781">
        <ele>275.5</ele>
        <time>2020-06-25T07:34:12Z</time>
      </trkpt>
      <trkpt lat="49.8466" lon="4.56786">
        <ele>275.5</ele>
        <time>2020-06-25T07:34:13Z</time>
      </trkpt>
      <trkpt lat="49.84658" lon="4.56792">
        <ele>275.4</ele>
        <time>2020-06-25T07:34:14Z</time>
      </trkpt>
      <trkpt lat="49.84655" lon="4.56798">
        <ele>275.3</ele>
        <time>2020-06-25T07:34:15Z</time>
      </trkpt>
      <trkpt lat="49.84652" lon="4.56804">
        <ele>275.2</ele>
        <time>2020-06-25T07:34:16Z</time>
      </trkpt>
      <trkpt lat="49.8465" lon="4.56809">
        <ele>275.1</ele>
        <time>2020-06-25T07:34:17Z</time>
      </trkpt>
      <trkpt lat="49.84647" lon="4.56816">
        <ele>275</ele>
        <time>2020-06-25T07:34:18Z</time>
      </trkpt>
      <trkpt lat="49.84645" lon="4.56823">
        <ele>274.9</ele>
        <time>2020-06-25T07:34:19Z</time>
      </trkpt>
      <trkpt lat="49.84643" lon="4.5683">
        <ele>274.8</ele>
        <time>2020-06-25T07:34:20Z</time>
      </trkpt>
      <trkpt lat="49.8464" lon="4.56837">
        <ele>274.8</ele>
        <time>2020-06-25T07:34:21Z</time>
      </trkpt>
      <trkpt lat="49.84637" lon="4.56844">
        <ele>274.7</ele>
        <time>2020-06-25T07:34:22Z</time>
      </trkpt>
      <trkpt lat="49.84634" lon="4.56851">
        <ele>274.6</ele>
        <time>2020-06-25T07:34:23Z</time>
      </trkpt>
      <trkpt lat="49.84632" lon="4.56857">
        <ele>274.5</ele>
        <time>2020-06-25T07:34:24Z</time>
      </trkpt>
      <trkpt lat="49.8463" lon="4.56864">
        <ele>274.5</ele>
        <time>2020-06-25T07:34:25Z</time>
      </trkpt>
      <trkpt lat="49.84629" lon="4.5687">
        <ele>274.4</ele>
        <time>2020-06-25T07:34:26Z</time>
      </trkpt>
      <trkpt lat="49.84627" lon="4.56876">
        <ele>274.4</ele>
        <time>2020-06-25T07:34:27Z</time>
      </trkpt>
      <trkpt lat="49.84626" lon="4.56881">
        <ele>274.3</ele>
        <time>2020-06-25T07:34:28Z</time>
      </trkpt>
      <trkpt lat="49.84625" lon="4.56886">
        <ele>274.3</ele>
        <time>2020-06-25T07:34:29Z</time>
      </trkpt>
      <trkpt lat="49.84624" lon="4.56891">
        <ele>274.2</ele>
        <time>2020-06-25T07:34:30Z</time>
      </trkpt>
      <trkpt lat="49.84623" lon="4.56897">
        <ele>274.2</ele>
        <time>2020-06-25T07:34:31Z</time>
      </trkpt>
      <trkpt lat="49.84621" lon="4.56902">
        <ele>274.1</ele>
        <time>2020-06-25T07:34:32Z</time>
      </trkpt>
      <trkpt lat="49.84619" lon="4.56909">
        <ele>274</ele>
        <time>2020-06-25T07:34:33Z</time>
      </trkpt>
      <trkpt lat="49.84616" lon="4.56916">
        <ele>274</ele>
        <time>2020-06-25T07:34:34Z</time>
      </trkpt>
      <trkpt lat="49.84614" lon="4.56923">
        <ele>273.9</ele>
        <time>2020-06-25T07:34:35Z</time>
      </trkpt>
      <trkpt lat="49.84612" lon="4.5693">
        <ele>273.9</ele>
        <time>2020-06-25T07:34:36Z</time>
      </trkpt>
      <trkpt lat="49.8461" lon="4.56937">
        <ele>273.8</ele>
        <time>2020-06-25T07:34:37Z</time>
      </trkpt>
      <trkpt lat="49.84607" lon="4.56943">
        <ele>273.8</ele>
        <time>2020-06-25T07:34:38Z</time>
      </trkpt>
      <trkpt lat="49.84605" lon="4.56948">
        <ele>273.7</ele>
        <time>2020-06-25T07:34:39Z</time>
      </trkpt>
      <trkpt lat="49.84602" lon="4.56953">
        <ele>273.7</ele>
        <time>2020-06-25T07:34:40Z</time>
      </trkpt>
      <trkpt lat="49.84599" lon="4.56959">
        <ele>273.6</ele>
        <time>2020-06-25T07:34:41Z</time>
      </trkpt>
      <trkpt lat="49.84596" lon="4.56965">
        <ele>273.5</ele>
        <time>2020-06-25T07:34:42Z</time>
      </trkpt>
      <trkpt lat="49.84593" lon="4.5697">
        <ele>273.5</ele>
        <time>2020-06-25T07:34:43Z</time>
      </trkpt>
      <trkpt lat="49.8459" lon="4.56977">
        <ele>273.5</ele>
        <time>2020-06-25T07:34:44Z</time>
      </trkpt>
      <trkpt lat="49.84586" lon="4.56984">
        <ele>273.4</ele>
        <time>2020-06-25T07:34:45Z</time>
      </trkpt>
      <trkpt lat="49.84583" lon="4.56991">
        <ele>273.4</ele>
        <time>2020-06-25T07:34:46Z</time>
      </trkpt>
      <trkpt lat="49.84579" lon="4.56998">
        <ele>273.4</ele>
        <time>2020-06-25T07:34:47Z</time>
      </trkpt>
      <trkpt lat="49.84575" lon="4.57004">
        <ele>273.4</ele>
        <time>2020-06-25T07:34:48Z</time>
      </trkpt>
      <trkpt lat="49.84571" lon="4.57012">
        <ele>273.4</ele>
        <time>2020-06-25T07:34:49Z</time>
      </trkpt>
      <trkpt lat="49.84567" lon="4.5702">
        <ele>273.3</ele>
        <time>2020-06-25T07:34:50Z</time>
      </trkpt>
      <trkpt lat="49.84561" lon="4.57027">
        <ele>273.3</ele>
        <time>2020-06-25T07:34:51Z</time>
      </trkpt>
      <trkpt lat="49.84556" lon="4.57035">
        <ele>273.2</ele>
        <time>2020-06-25T07:34:52Z</time>
      </trkpt>
      <trkpt lat="49.84551" lon="4.57044">
        <ele>273.2</ele>
        <time>2020-06-25T07:34:53Z</time>
      </trkpt>
      <trkpt lat="49.84547" lon="4.57052">
        <ele>273.2</ele>
        <time>2020-06-25T07:34:54Z</time>
      </trkpt>
      <trkpt lat="49.84543" lon="4.5706">
        <ele>273.2</ele>
        <time>2020-06-25T07:34:55Z</time>
      </trkpt>
      <trkpt lat="49.84539" lon="4.57068">
        <ele>273.1</ele>
        <time>2020-06-25T07:34:56Z</time>
      </trkpt>
      <trkpt lat="49.84534" lon="4.57076">
        <ele>273.1</ele>
        <time>2020-06-25T07:34:57Z</time>
      </trkpt>
      <trkpt lat="49.8453" lon="4.57084">
        <ele>273.1</ele>
        <time>2020-06-25T07:34:58Z</time>
      </trkpt>
      <trkpt lat="49.84525" lon="4.57092">
        <ele>273.1</ele>
        <time>2020-06-25T07:34:59Z</time>
      </trkpt>
      <trkpt lat="49.8452" lon="4.57101">
        <ele>273</ele>
        <time>2020-06-25T07:35:00Z</time>
      </trkpt>
      <trkpt lat="49.84516" lon="4.57109">
        <ele>273</ele>
        <time>2020-06-25T07:35:01Z</time>
      </trkpt>
      <trkpt lat="49.84513" lon="4.57117">
        <ele>273</ele>
        <time>2020-06-25T07:35:02Z</time>
      </trkpt>
      <trkpt lat="49.84509" lon="4.57126">
        <ele>273</ele>
        <time>2020-06-25T07:35:03Z</time>
      </trkpt>
      <trkpt lat="49.84505" lon="4.57134">
        <ele>273</ele>
        <time>2020-06-25T07:35:04Z</time>
      </trkpt>
      <trkpt lat="49.84501" lon="4.57142">
        <ele>273</ele>
        <time>2020-06-25T07:35:05Z</time>
      </trkpt>
      <trkpt lat="49.84497" lon="4.57149">
        <ele>273</ele>
        <time>2020-06-25T07:35:06Z</time>
      </trkpt>
      <trkpt lat="49.84494" lon="4.57157">
        <ele>273</ele>
        <time>2020-06-25T07:35:07Z</time>
      </trkpt>
      <trkpt lat="49.8449" lon="4.57165">
        <ele>273</ele>
        <time>2020-06-25T07:35:08Z</time>
      </trkpt>
      <trkpt lat="49.84487" lon="4.57174">
        <ele>273</ele>
        <time>2020-06-25T07:35:09Z</time>
      </trkpt>
      <trkpt lat="49.84484" lon="4.57182">
        <ele>273</ele>
        <time>2020-06-25T07:35:10Z</time>
      </trkpt>
      <trkpt lat="49.8448" lon="4.5719">
        <ele>273</ele>
        <time>2020-06-25T07:35:11Z</time>
      </trkpt>
      <trkpt lat="49.84477" lon="4.57198">
        <ele>273</ele>
        <time>2020-06-25T07:35:12Z</time>
      </trkpt>
      <trkpt lat="49.84474" lon="4.57207">
        <ele>273</ele>
        <time>2020-06-25T07:35:13Z</time>
      </trkpt>
      <trkpt lat="49.8447" lon="4.57215">
        <ele>273.1</ele>
        <time>2020-06-25T07:35:14Z</time>
      </trkpt>
      <trkpt lat="49.84466" lon="4.57224">
        <ele>273.1</ele>
        <time>2020-06-25T07:35:15Z</time>
      </trkpt>
      <trkpt lat="49.84464" lon="4.57231">
        <ele>273.1</ele>
        <time>2020-06-25T07:35:16Z</time>
      </trkpt>
      <trkpt lat="49.8446" lon="4.5724">
        <ele>273.2</ele>
        <time>2020-06-25T07:35:17Z</time>
      </trkpt>
      <trkpt lat="49.84457" lon="4.5725">
        <ele>273.2</ele>
        <time>2020-06-25T07:35:18Z</time>
      </trkpt>
      <trkpt lat="49.84454" lon="4.57258">
        <ele>273.3</ele>
        <time>2020-06-25T07:35:19Z</time>
      </trkpt>
      <trkpt lat="49.84452" lon="4.57264">
        <ele>273.3</ele>
        <time>2020-06-25T07:35:20Z</time>
      </trkpt>
      <trkpt lat="49.8445" lon="4.57269">
        <ele>273.3</ele>
        <time>2020-06-25T07:35:21Z</time>
      </trkpt>
      <trkpt lat="49.84448" lon="4.57275">
        <ele>273.4</ele>
        <time>2020-06-25T07:35:22Z</time>
      </trkpt>
      <trkpt lat="49.84446" lon="4.57281">
        <ele>273.4</ele>
        <time>2020-06-25T07:35:23Z</time>
      </trkpt>
      <trkpt lat="49.84445" lon="4.57287">
        <ele>273.4</ele>
        <time>2020-06-25T07:35:24Z</time>
      </trkpt>
      <trkpt lat="49.84444" lon="4.57293">
        <ele>273.4</ele>
        <time>2020-06-25T07:35:25Z</time>
      </trkpt>
      <trkpt lat="49.84442" lon="4.573">
        <ele>273.4</ele>
        <time>2020-06-25T07:35:26Z</time>
      </trkpt>
      <trkpt lat="49.8444" lon="4.57308">
        <ele>273.4</ele>
        <time>2020-06-25T07:35:27Z</time>
      </trkpt>
      <trkpt lat="49.84437" lon="4.57318">
        <ele>273.5</ele>
        <time>2020-06-25T07:35:28Z</time>
      </trkpt>
      <trkpt lat="49.84434" lon="4.57326">
        <ele>273.6</ele>
        <time>2020-06-25T07:35:29Z</time>
      </trkpt>
      <trkpt lat="49.84431" lon="4.57334">
        <ele>273.8</ele>
        <time>2020-06-25T07:35:30Z</time>
      </trkpt>
      <trkpt lat="49.84428" lon="4.57343">
        <ele>273.9</ele>
        <time>2020-06-25T07:35:31Z</time>
      </trkpt>
      <trkpt lat="49.84426" lon="4.57351">
        <ele>274.1</ele>
        <time>2020-06-25T07:35:32Z</time>
      </trkpt>
      <trkpt lat="49.84423" lon="4.57359">
        <ele>274.3</ele>
        <time>2020-06-25T07:35:33Z</time>
      </trkpt>
      <trkpt lat="49.8442" lon="4.57367">
        <ele>274.5</ele>
        <time>2020-06-25T07:35:34Z</time>
      </trkpt>
      <trkpt lat="49.84418" lon="4.57374">
        <ele>274.6</ele>
        <time>2020-06-25T07:35:35Z</time>
      </trkpt>
      <trkpt lat="49.84416" lon="4.57381">
        <ele>274.8</ele>
        <time>2020-06-25T07:35:36Z</time>
      </trkpt>
      <trkpt lat="49.84414" lon="4.57388">
        <ele>274.9</ele>
        <time>2020-06-25T07:35:37Z</time>
      </trkpt>
      <trkpt lat="49.84412" lon="4.57393">
        <ele>275</ele>
        <time>2020-06-25T07:35:38Z</time>
      </trkpt>
      <trkpt lat="49.84411" lon="4.57399">
        <ele>275.2</ele>
        <time>2020-06-25T07:35:39Z</time>
      </trkpt>
      <trkpt lat="49.84411" lon="4.57404">
        <ele>275.2</ele>
        <time>2020-06-25T07:35:40Z</time>
      </trkpt>
      <trkpt lat="49.84411" lon="4.57409">
        <ele>275.3</ele>
        <time>2020-06-25T07:35:41Z</time>
      </trkpt>
      <trkpt lat="49.8441" lon="4.57415">
        <ele>275.4</ele>
        <time>2020-06-25T07:35:42Z</time>
      </trkpt>
      <trkpt lat="49.84409" lon="4.57421">
        <ele>275.5</ele>
        <time>2020-06-25T07:35:43Z</time>
      </trkpt>
      <trkpt lat="49.84408" lon="4.57427">
        <ele>275.6</ele>
        <time>2020-06-25T07:35:44Z</time>
      </trkpt>
      <trkpt lat="49.84408" lon="4.57434">
        <ele>275.6</ele>
        <time>2020-06-25T07:35:45Z</time>
      </trkpt>
      <trkpt lat="49.84408" lon="4.5744">
        <ele>275.7</ele>
        <time>2020-06-25T07:35:46Z</time>
      </trkpt>
      <trkpt lat="49.84407" lon="4.57447">
        <ele>275.7</ele>
        <time>2020-06-25T07:35:47Z</time>
      </trkpt>
      <trkpt lat="49.84407" lon="4.57453">
        <ele>275.7</ele>
        <time>2020-06-25T07:35:48Z</time>
      </trkpt>
      <trkpt lat="49.84405" lon="4.57461">
        <ele>275.8</ele>
        <time>2020-06-25T07:35:49Z</time>
      </trkpt>
      <trkpt lat="49.84405" lon="4.57467">
        <ele>275.8</ele>
        <time>2020-06-25T07:35:50Z</time>
      </trkpt>
      <trkpt lat="49.84405" lon="4.57473">
        <ele>275.8</ele>
        <time>2020-06-25T07:35:51Z</time>
      </trkpt>
      <trkpt lat="49.84405" lon="4.5748">
        <ele>275.8</ele>
        <time>2020-06-25T07:35:52Z</time>
      </trkpt>
      <trkpt lat="49.84405" lon="4.57486">
        <ele>275.9</ele>
        <time>2020-06-25T07:35:53Z</time>
      </trkpt>
      <trkpt lat="49.84405" lon="4.57493">
        <ele>275.9</ele>
        <time>2020-06-25T07:35:54Z</time>
      </trkpt>
      <trkpt lat="49.84405" lon="4.57499">
        <ele>275.9</ele>
        <time>2020-06-25T07:35:55Z</time>
      </trkpt>
      <trkpt lat="49.84405" lon="4.57506">
        <ele>275.9</ele>
        <time>2020-06-25T07:35:56Z</time>
      </trkpt>
      <trkpt lat="49.84405" lon="4.57512">
        <ele>276</ele>
        <time>2020-06-25T07:35:57Z</time>
      </trkpt>
      <trkpt lat="49.84404" lon="4.57517">
        <ele>276</ele>
        <time>2020-06-25T07:35:58Z</time>
      </trkpt>
      <trkpt lat="49.84404" lon="4.57523">
        <ele>276</ele>
        <time>2020-06-25T07:35:59Z</time>
      </trkpt>
      <trkpt lat="49.84403" lon="4.57531">
        <ele>275.9</ele>
        <time>2020-06-25T07:36:00Z</time>
      </trkpt>
      <trkpt lat="49.84402" lon="4.57538">
        <ele>275.9</ele>
        <time>2020-06-25T07:36:01Z</time>
      </trkpt>
      <trkpt lat="49.84401" lon="4.57545">
        <ele>275.9</ele>
        <time>2020-06-25T07:36:02Z</time>
      </trkpt>
      <trkpt lat="49.84401" lon="4.57552">
        <ele>275.9</ele>
        <time>2020-06-25T07:36:03Z</time>
      </trkpt>
      <trkpt lat="49.84401" lon="4.57559">
        <ele>275.9</ele>
        <time>2020-06-25T07:36:04Z</time>
      </trkpt>
      <trkpt lat="49.84402" lon="4.57565">
        <ele>275.9</ele>
        <time>2020-06-25T07:36:05Z</time>
      </trkpt>
      <trkpt lat="49.84403" lon="4.57572">
        <ele>275.8</ele>
        <time>2020-06-25T07:36:06Z</time>
      </trkpt>
      <trkpt lat="49.84403" lon="4.57578">
        <ele>275.8</ele>
        <time>2020-06-25T07:36:07Z</time>
      </trkpt>
      <trkpt lat="49.84403" lon="4.57585">
        <ele>275.8</ele>
        <time>2020-06-25T07:36:08Z</time>
      </trkpt>
      <trkpt lat="49.84403" lon="4.57592">
        <ele>275.7</ele>
        <time>2020-06-25T07:36:09Z</time>
      </trkpt>
      <trkpt lat="49.84403" lon="4.57599">
        <ele>275.7</ele>
        <time>2020-06-25T07:36:10Z</time>
      </trkpt>
      <trkpt lat="49.84403" lon="4.57604">
        <ele>275.7</ele>
        <time>2020-06-25T07:36:11Z</time>
      </trkpt>
      <trkpt lat="49.84404" lon="4.5761">
        <ele>275.7</ele>
        <time>2020-06-25T07:36:12Z</time>
      </trkpt>
      <trkpt lat="49.84404" lon="4.57618">
        <ele>275.6</ele>
        <time>2020-06-25T07:36:13Z</time>
      </trkpt>
      <trkpt lat="49.84403" lon="4.57625">
        <ele>275.6</ele>
        <time>2020-06-25T07:36:14Z</time>
      </trkpt>
      <trkpt lat="49.84404" lon="4.57633">
        <ele>275.6</ele>
        <time>2020-06-25T07:36:15Z</time>
      </trkpt>
      <trkpt lat="49.84404" lon="4.57641">
        <ele>275.6</ele>
        <time>2020-06-25T07:36:16Z</time>
      </trkpt>
      <trkpt lat="49.84404" lon="4.57648">
        <ele>275.6</ele>
        <time>2020-06-25T07:36:17Z</time>
      </trkpt>
      <trkpt lat="49.84404" lon="4.57657">
        <ele>275.6</ele>
        <time>2020-06-25T07:36:18Z</time>
      </trkpt>
      <trkpt lat="49.84404" lon="4.57662">
        <ele>275.5</ele>
        <time>2020-06-25T07:36:19Z</time>
      </trkpt>
      <trkpt lat="49.84403" lon="4.57668">
        <ele>275.5</ele>
        <time>2020-06-25T07:36:20Z</time>
      </trkpt>
      <trkpt lat="49.84403" lon="4.57675">
        <ele>275.5</ele>
        <time>2020-06-25T07:36:21Z</time>
      </trkpt>
      <trkpt lat="49.84403" lon="4.57682">
        <ele>275.5</ele>
        <time>2020-06-25T07:36:22Z</time>
      </trkpt>
      <trkpt lat="49.84402" lon="4.5769">
        <ele>275.5</ele>
        <time>2020-06-25T07:36:23Z</time>
      </trkpt>
      <trkpt lat="49.84401" lon="4.57699">
        <ele>275.5</ele>
        <time>2020-06-25T07:36:24Z</time>
      </trkpt>
      <trkpt lat="49.84401" lon="4.57708">
        <ele>275.4</ele>
        <time>2020-06-25T07:36:25Z</time>
      </trkpt>
      <trkpt lat="49.84401" lon="4.57715">
        <ele>275.4</ele>
        <time>2020-06-25T07:36:26Z</time>
      </trkpt>
      <trkpt lat="49.844" lon="4.57721">
        <ele>275.4</ele>
        <time>2020-06-25T07:36:27Z</time>
      </trkpt>
      <trkpt lat="49.84398" lon="4.57729">
        <ele>275.4</ele>
        <time>2020-06-25T07:36:28Z</time>
      </trkpt>
      <trkpt lat="49.84396" lon="4.57737">
        <ele>275.4</ele>
        <time>2020-06-25T07:36:29Z</time>
      </trkpt>
      <trkpt lat="49.84395" lon="4.57745">
        <ele>275.4</ele>
        <time>2020-06-25T07:36:30Z</time>
      </trkpt>
      <trkpt lat="49.84393" lon="4.57753">
        <ele>275.3</ele>
        <time>2020-06-25T07:36:31Z</time>
      </trkpt>
      <trkpt lat="49.84392" lon="4.57762">
        <ele>275.3</ele>
        <time>2020-06-25T07:36:32Z</time>
      </trkpt>
      <trkpt lat="49.8439" lon="4.57771">
        <ele>275.3</ele>
        <time>2020-06-25T07:36:33Z</time>
      </trkpt>
      <trkpt lat="49.84388" lon="4.5778">
        <ele>275.2</ele>
        <time>2020-06-25T07:36:34Z</time>
      </trkpt>
      <trkpt lat="49.84386" lon="4.57789">
        <ele>275.2</ele>
        <time>2020-06-25T07:36:35Z</time>
      </trkpt>
      <trkpt lat="49.84384" lon="4.57795">
        <ele>275.2</ele>
        <time>2020-06-25T07:36:36Z</time>
      </trkpt>
      <trkpt lat="49.84382" lon="4.57802">
        <ele>275.1</ele>
        <time>2020-06-25T07:36:37Z</time>
      </trkpt>
      <trkpt lat="49.84379" lon="4.57811">
        <ele>275.1</ele>
        <time>2020-06-25T07:36:38Z</time>
      </trkpt>
      <trkpt lat="49.84377" lon="4.57818">
        <ele>275.1</ele>
        <time>2020-06-25T07:36:39Z</time>
      </trkpt>
      <trkpt lat="49.84375" lon="4.57824">
        <ele>275</ele>
        <time>2020-06-25T07:36:40Z</time>
      </trkpt>
      <trkpt lat="49.84373" lon="4.57829">
        <ele>275</ele>
        <time>2020-06-25T07:36:41Z</time>
      </trkpt>
      <trkpt lat="49.84372" lon="4.57835">
        <ele>275</ele>
        <time>2020-06-25T07:36:42Z</time>
      </trkpt>
      <trkpt lat="49.8437" lon="4.57841">
        <ele>275</ele>
        <time>2020-06-25T07:36:43Z</time>
      </trkpt>
      <trkpt lat="49.84369" lon="4.57848">
        <ele>274.9</ele>
        <time>2020-06-25T07:36:44Z</time>
      </trkpt>
      <trkpt lat="49.84368" lon="4.57856">
        <ele>274.9</ele>
        <time>2020-06-25T07:36:45Z</time>
      </trkpt>
      <trkpt lat="49.84367" lon="4.57863">
        <ele>274.8</ele>
        <time>2020-06-25T07:36:46Z</time>
      </trkpt>
      <trkpt lat="49.84365" lon="4.57871">
        <ele>274.7</ele>
        <time>2020-06-25T07:36:47Z</time>
      </trkpt>
      <trkpt lat="49.84364" lon="4.57879">
        <ele>274.6</ele>
        <time>2020-06-25T07:36:48Z</time>
      </trkpt>
      <trkpt lat="49.84362" lon="4.57887">
        <ele>274.5</ele>
        <time>2020-06-25T07:36:49Z</time>
      </trkpt>
      <trkpt lat="49.84361" lon="4.57895">
        <ele>274.4</ele>
        <time>2020-06-25T07:36:50Z</time>
      </trkpt>
      <trkpt lat="49.84359" lon="4.57903">
        <ele>274.3</ele>
        <time>2020-06-25T07:36:51Z</time>
      </trkpt>
      <trkpt lat="49.84357" lon="4.57912">
        <ele>274.2</ele>
        <time>2020-06-25T07:36:52Z</time>
      </trkpt>
      <trkpt lat="49.84355" lon="4.5792">
        <ele>274.1</ele>
        <time>2020-06-25T07:36:53Z</time>
      </trkpt>
      <trkpt lat="49.84354" lon="4.57928">
        <ele>274.1</ele>
        <time>2020-06-25T07:36:54Z</time>
      </trkpt>
      <trkpt lat="49.84352" lon="4.57936">
        <ele>274.1</ele>
        <time>2020-06-25T07:36:55Z</time>
      </trkpt>
      <trkpt lat="49.84351" lon="4.57943">
        <ele>274</ele>
        <time>2020-06-25T07:36:56Z</time>
      </trkpt>
      <trkpt lat="49.84349" lon="4.57951">
        <ele>274</ele>
        <time>2020-06-25T07:36:57Z</time>
      </trkpt>
      <trkpt lat="49.84347" lon="4.57959">
        <ele>274</ele>
        <time>2020-06-25T07:36:58Z</time>
      </trkpt>
      <trkpt lat="49.84346" lon="4.57968">
        <ele>273.9</ele>
        <time>2020-06-25T07:36:59Z</time>
      </trkpt>
      <trkpt lat="49.84344" lon="4.57977">
        <ele>273.9</ele>
        <time>2020-06-25T07:37:00Z</time>
      </trkpt>
      <trkpt lat="49.84342" lon="4.57984">
        <ele>273.9</ele>
        <time>2020-06-25T07:37:01Z</time>
      </trkpt>
      <trkpt lat="49.8434" lon="4.57991">
        <ele>273.9</ele>
        <time>2020-06-25T07:37:02Z</time>
      </trkpt>
      <trkpt lat="49.84338" lon="4.57999">
        <ele>273.9</ele>
        <time>2020-06-25T07:37:03Z</time>
      </trkpt>
      <trkpt lat="49.84337" lon="4.58007">
        <ele>273.9</ele>
        <time>2020-06-25T07:37:04Z</time>
      </trkpt>
      <trkpt lat="49.84336" lon="4.58015">
        <ele>273.9</ele>
        <time>2020-06-25T07:37:05Z</time>
      </trkpt>
      <trkpt lat="49.84334" lon="4.58022">
        <ele>273.9</ele>
        <time>2020-06-25T07:37:06Z</time>
      </trkpt>
      <trkpt lat="49.84333" lon="4.5803">
        <ele>273.9</ele>
        <time>2020-06-25T07:37:07Z</time>
      </trkpt>
      <trkpt lat="49.84331" lon="4.58037">
        <ele>273.9</ele>
        <time>2020-06-25T07:37:08Z</time>
      </trkpt>
      <trkpt lat="49.8433" lon="4.58044">
        <ele>273.9</ele>
        <time>2020-06-25T07:37:09Z</time>
      </trkpt>
      <trkpt lat="49.84329" lon="4.5805">
        <ele>273.8</ele>
        <time>2020-06-25T07:37:10Z</time>
      </trkpt>
      <trkpt lat="49.84328" lon="4.58056">
        <ele>273.8</ele>
        <time>2020-06-25T07:37:11Z</time>
      </trkpt>
      <trkpt lat="49.84327" lon="4.58065">
        <ele>273.7</ele>
        <time>2020-06-25T07:37:12Z</time>
      </trkpt>
      <trkpt lat="49.84326" lon="4.58073">
        <ele>273.7</ele>
        <time>2020-06-25T07:37:13Z</time>
      </trkpt>
      <trkpt lat="49.84325" lon="4.58079">
        <ele>273.6</ele>
        <time>2020-06-25T07:37:14Z</time>
      </trkpt>
      <trkpt lat="49.84324" lon="4.58085">
        <ele>273.6</ele>
        <time>2020-06-25T07:37:15Z</time>
      </trkpt>
      <trkpt lat="49.84323" lon="4.58093">
        <ele>273.5</ele>
        <time>2020-06-25T07:37:16Z</time>
      </trkpt>
      <trkpt lat="49.84322" lon="4.581">
        <ele>273.4</ele>
        <time>2020-06-25T07:37:17Z</time>
      </trkpt>
      <trkpt lat="49.84321" lon="4.58108">
        <ele>273.3</ele>
        <time>2020-06-25T07:37:18Z</time>
      </trkpt>
      <trkpt lat="49.84321" lon="4.58116">
        <ele>273.2</ele>
        <time>2020-06-25T07:37:19Z</time>
      </trkpt>
      <trkpt lat="49.8432" lon="4.58124">
        <ele>273.1</ele>
        <time>2020-06-25T07:37:20Z</time>
      </trkpt>
      <trkpt lat="49.84318" lon="4.58132">
        <ele>272.9</ele>
        <time>2020-06-25T07:37:21Z</time>
      </trkpt>
      <trkpt lat="49.84317" lon="4.5814">
        <ele>272.8</ele>
        <time>2020-06-25T07:37:22Z</time>
      </trkpt>
      <trkpt lat="49.84316" lon="4.58147">
        <ele>272.7</ele>
        <time>2020-06-25T07:37:23Z</time>
      </trkpt>
      <trkpt lat="49.84315" lon="4.58155">
        <ele>272.6</ele>
        <time>2020-06-25T07:37:24Z</time>
      </trkpt>
      <trkpt lat="49.84314" lon="4.58166">
        <ele>272.4</ele>
        <time>2020-06-25T07:37:25Z</time>
      </trkpt>
      <trkpt lat="49.84312" lon="4.58176">
        <ele>272.3</ele>
        <time>2020-06-25T07:37:26Z</time>
      </trkpt>
      <trkpt lat="49.84311" lon="4.58186">
        <ele>272.2</ele>
        <time>2020-06-25T07:37:27Z</time>
      </trkpt>
      <trkpt lat="49.8431" lon="4.58195">
        <ele>272.1</ele>
        <time>2020-06-25T07:37:28Z</time>
      </trkpt>
      <trkpt lat="49.84309" lon="4.58203">
        <ele>272.1</ele>
        <time>2020-06-25T07:37:29Z</time>
      </trkpt>
      <trkpt lat="49.84308" lon="4.58213">
        <ele>272</ele>
        <time>2020-06-25T07:37:30Z</time>
      </trkpt>
      <trkpt lat="49.84307" lon="4.58222">
        <ele>272</ele>
        <time>2020-06-25T07:37:31Z</time>
      </trkpt>
      <trkpt lat="49.84306" lon="4.5823">
        <ele>272</ele>
        <time>2020-06-25T07:37:32Z</time>
      </trkpt>
      <trkpt lat="49.84305" lon="4.58239">
        <ele>271.9</ele>
        <time>2020-06-25T07:37:33Z</time>
      </trkpt>
      <trkpt lat="49.84305" lon="4.58248">
        <ele>271.9</ele>
        <time>2020-06-25T07:37:34Z</time>
      </trkpt>
      <trkpt lat="49.84304" lon="4.58258">
        <ele>271.8</ele>
        <time>2020-06-25T07:37:35Z</time>
      </trkpt>
      <trkpt lat="49.84303" lon="4.58266">
        <ele>271.8</ele>
        <time>2020-06-25T07:37:36Z</time>
      </trkpt>
      <trkpt lat="49.84302" lon="4.58274">
        <ele>271.7</ele>
        <time>2020-06-25T07:37:37Z</time>
      </trkpt>
      <trkpt lat="49.84301" lon="4.58282">
        <ele>271.7</ele>
        <time>2020-06-25T07:37:38Z</time>
      </trkpt>
      <trkpt lat="49.84299" lon="4.58291">
        <ele>271.7</ele>
        <time>2020-06-25T07:37:39Z</time>
      </trkpt>
      <trkpt lat="49.84299" lon="4.58299">
        <ele>271.7</ele>
        <time>2020-06-25T07:37:40Z</time>
      </trkpt>
      <trkpt lat="49.84298" lon="4.5831">
        <ele>271.7</ele>
        <time>2020-06-25T07:37:41Z</time>
      </trkpt>
      <trkpt lat="49.84296" lon="4.58319">
        <ele>271.7</ele>
        <time>2020-06-25T07:37:42Z</time>
      </trkpt>
      <trkpt lat="49.84295" lon="4.58329">
        <ele>271.7</ele>
        <time>2020-06-25T07:37:43Z</time>
      </trkpt>
      <trkpt lat="49.84295" lon="4.58337">
        <ele>271.7</ele>
        <time>2020-06-25T07:37:44Z</time>
      </trkpt>
      <trkpt lat="49.84295" lon="4.58344">
        <ele>271.7</ele>
        <time>2020-06-25T07:37:45Z</time>
      </trkpt>
      <trkpt lat="49.84294" lon="4.58353">
        <ele>271.7</ele>
        <time>2020-06-25T07:37:46Z</time>
      </trkpt>
      <trkpt lat="49.84292" lon="4.58362">
        <ele>271.7</ele>
        <time>2020-06-25T07:37:47Z</time>
      </trkpt>
      <trkpt lat="49.8429" lon="4.58369">
        <ele>271.7</ele>
        <time>2020-06-25T07:37:48Z</time>
      </trkpt>
      <trkpt lat="49.84288" lon="4.58376">
        <ele>271.7</ele>
        <time>2020-06-25T07:37:49Z</time>
      </trkpt>
      <trkpt lat="49.84287" lon="4.58384">
        <ele>271.8</ele>
        <time>2020-06-25T07:37:50Z</time>
      </trkpt>
      <trkpt lat="49.84286" lon="4.58392">
        <ele>271.8</ele>
        <time>2020-06-25T07:37:51Z</time>
      </trkpt>
      <trkpt lat="49.84285" lon="4.58398">
        <ele>271.9</ele>
        <time>2020-06-25T07:37:52Z</time>
      </trkpt>
      <trkpt lat="49.84284" lon="4.58405">
        <ele>271.9</ele>
        <time>2020-06-25T07:37:53Z</time>
      </trkpt>
      <trkpt lat="49.84283" lon="4.58411">
        <ele>272</ele>
        <time>2020-06-25T07:37:54Z</time>
      </trkpt>
      <trkpt lat="49.84281" lon="4.58418">
        <ele>272.1</ele>
        <time>2020-06-25T07:37:55Z</time>
      </trkpt>
      <trkpt lat="49.8428" lon="4.58427">
        <ele>272.3</ele>
        <time>2020-06-25T07:37:56Z</time>
      </trkpt>
      <trkpt lat="49.84278" lon="4.58435">
        <ele>272.5</ele>
        <time>2020-06-25T07:37:57Z</time>
      </trkpt>
      <trkpt lat="49.84278" lon="4.58445">
        <ele>272.8</ele>
        <time>2020-06-25T07:37:58Z</time>
      </trkpt>
      <trkpt lat="49.84277" lon="4.58454">
        <ele>273.1</ele>
        <time>2020-06-25T07:37:59Z</time>
      </trkpt>
      <trkpt lat="49.84275" lon="4.58462">
        <ele>273.4</ele>
        <time>2020-06-25T07:38:00Z</time>
      </trkpt>
      <trkpt lat="49.84274" lon="4.5847">
        <ele>273.4</ele>
        <time>2020-06-25T07:38:01Z</time>
      </trkpt>
      <trkpt lat="49.84273" lon="4.58478">
        <ele>273.5</ele>
        <time>2020-06-25T07:38:02Z</time>
      </trkpt>
      <trkpt lat="49.84273" lon="4.58484">
        <ele>273.5</ele>
        <time>2020-06-25T07:38:03Z</time>
      </trkpt>
      <trkpt lat="49.84273" lon="4.58491">
        <ele>273.6</ele>
        <time>2020-06-25T07:38:04Z</time>
      </trkpt>
      <trkpt lat="49.84273" lon="4.58499">
        <ele>273.7</ele>
        <time>2020-06-25T07:38:05Z</time>
      </trkpt>
      <trkpt lat="49.84273" lon="4.58507">
        <ele>273.8</ele>
        <time>2020-06-25T07:38:06Z</time>
      </trkpt>
      <trkpt lat="49.84273" lon="4.58513">
        <ele>273.9</ele>
        <time>2020-06-25T07:38:07Z</time>
      </trkpt>
      <trkpt lat="49.84273" lon="4.5852">
        <ele>274</ele>
        <time>2020-06-25T07:38:08Z</time>
      </trkpt>
      <trkpt lat="49.84273" lon="4.58528">
        <ele>274.1</ele>
        <time>2020-06-25T07:38:09Z</time>
      </trkpt>
      <trkpt lat="49.84273" lon="4.58536">
        <ele>274.2</ele>
        <time>2020-06-25T07:38:10Z</time>
      </trkpt>
      <trkpt lat="49.84272" lon="4.58542">
        <ele>274.4</ele>
        <time>2020-06-25T07:38:11Z</time>
      </trkpt>
      <trkpt lat="49.84272" lon="4.58549">
        <ele>274.5</ele>
        <time>2020-06-25T07:38:12Z</time>
      </trkpt>
      <trkpt lat="49.84272" lon="4.58556">
        <ele>274.7</ele>
        <time>2020-06-25T07:38:13Z</time>
      </trkpt>
      <trkpt lat="49.84272" lon="4.58564">
        <ele>274.9</ele>
        <time>2020-06-25T07:38:14Z</time>
      </trkpt>
      <trkpt lat="49.84272" lon="4.58571">
        <ele>275</ele>
        <time>2020-06-25T07:38:15Z</time>
      </trkpt>
      <trkpt lat="49.84273" lon="4.58578">
        <ele>275.2</ele>
        <time>2020-06-25T07:38:16Z</time>
      </trkpt>
      <trkpt lat="49.84273" lon="4.58584">
        <ele>275.3</ele>
        <time>2020-06-25T07:38:17Z</time>
      </trkpt>
      <trkpt lat="49.84273" lon="4.58591">
        <ele>275.5</ele>
        <time>2020-06-25T07:38:18Z</time>
      </trkpt>
      <trkpt lat="49.84273" lon="4.58596">
        <ele>275.6</ele>
        <time>2020-06-25T07:38:19Z</time>
      </trkpt>
      <trkpt lat="49.84273" lon="4.58602">
        <ele>275.8</ele>
        <time>2020-06-25T07:38:20Z</time>
      </trkpt>
      <trkpt lat="49.84273" lon="4.58607">
        <ele>275.9</ele>
        <time>2020-06-25T07:38:21Z</time>
      </trkpt>
      <trkpt lat="49.84273" lon="4.58613">
        <ele>276.1</ele>
        <time>2020-06-25T07:38:22Z</time>
      </trkpt>
      <trkpt lat="49.84273" lon="4.58619">
        <ele>276.2</ele>
        <time>2020-06-25T07:38:23Z</time>
      </trkpt>
      <trkpt lat="49.84272" lon="4.58624">
        <ele>276.4</ele>
        <time>2020-06-25T07:38:24Z</time>
      </trkpt>
      <trkpt lat="49.84273" lon="4.5863">
        <ele>276.5</ele>
        <time>2020-06-25T07:38:25Z</time>
      </trkpt>
      <trkpt lat="49.84272" lon="4.58637">
        <ele>276.7</ele>
        <time>2020-06-25T07:38:26Z</time>
      </trkpt>
      <trkpt lat="49.84272" lon="4.58643">
        <ele>276.8</ele>
        <time>2020-06-25T07:38:27Z</time>
      </trkpt>
      <trkpt lat="49.84272" lon="4.58649">
        <ele>277</ele>
        <time>2020-06-25T07:38:28Z</time>
      </trkpt>
      <trkpt lat="49.84272" lon="4.58654">
        <ele>277.1</ele>
        <time>2020-06-25T07:38:29Z</time>
      </trkpt>
      <trkpt lat="49.84272" lon="4.5866">
        <ele>277.2</ele>
        <time>2020-06-25T07:38:30Z</time>
      </trkpt>
      <trkpt lat="49.84271" lon="4.58667">
        <ele>277.4</ele>
        <time>2020-06-25T07:38:31Z</time>
      </trkpt>
      <trkpt lat="49.84271" lon="4.58674">
        <ele>277.6</ele>
        <time>2020-06-25T07:38:32Z</time>
      </trkpt>
      <trkpt lat="49.84271" lon="4.58681">
        <ele>277.8</ele>
        <time>2020-06-25T07:38:33Z</time>
      </trkpt>
      <trkpt lat="49.84271" lon="4.58686">
        <ele>277.9</ele>
        <time>2020-06-25T07:38:34Z</time>
      </trkpt>
      <trkpt lat="49.84271" lon="4.58692">
        <ele>278.1</ele>
        <time>2020-06-25T07:38:35Z</time>
      </trkpt>
      <trkpt lat="49.84271" lon="4.58698">
        <ele>278.2</ele>
        <time>2020-06-25T07:38:36Z</time>
      </trkpt>
      <trkpt lat="49.84271" lon="4.58704">
        <ele>278.4</ele>
        <time>2020-06-25T07:38:37Z</time>
      </trkpt>
      <trkpt lat="49.8427" lon="4.5871">
        <ele>278.6</ele>
        <time>2020-06-25T07:38:38Z</time>
      </trkpt>
      <trkpt lat="49.8427" lon="4.58716">
        <ele>278.8</ele>
        <time>2020-06-25T07:38:39Z</time>
      </trkpt>
      <trkpt lat="49.8427" lon="4.58723">
        <ele>279</ele>
        <time>2020-06-25T07:38:40Z</time>
      </trkpt>
      <trkpt lat="49.84269" lon="4.58729">
        <ele>279.2</ele>
        <time>2020-06-25T07:38:41Z</time>
      </trkpt>
      <trkpt lat="49.84269" lon="4.58736">
        <ele>279.5</ele>
        <time>2020-06-25T07:38:42Z</time>
      </trkpt>
      <trkpt lat="49.84269" lon="4.58742">
        <ele>279.7</ele>
        <time>2020-06-25T07:38:43Z</time>
      </trkpt>
      <trkpt lat="49.8427" lon="4.58748">
        <ele>279.9</ele>
        <time>2020-06-25T07:38:44Z</time>
      </trkpt>
      <trkpt lat="49.8427" lon="4.58754">
        <ele>280.1</ele>
        <time>2020-06-25T07:38:45Z</time>
      </trkpt>
      <trkpt lat="49.8427" lon="4.58759">
        <ele>280.3</ele>
        <time>2020-06-25T07:38:46Z</time>
      </trkpt>
      <trkpt lat="49.84269" lon="4.58766">
        <ele>280.5</ele>
        <time>2020-06-25T07:38:47Z</time>
      </trkpt>
      <trkpt lat="49.84269" lon="4.58771">
        <ele>280.6</ele>
        <time>2020-06-25T07:38:48Z</time>
      </trkpt>
      <trkpt lat="49.84268" lon="4.58777">
        <ele>280.8</ele>
        <time>2020-06-25T07:38:49Z</time>
      </trkpt>
      <trkpt lat="49.84268" lon="4.58781">
        <ele>280.9</ele>
        <time>2020-06-25T07:38:50Z</time>
      </trkpt>
      <trkpt lat="49.84268" lon="4.58788">
        <ele>281</ele>
        <time>2020-06-25T07:38:51Z</time>
      </trkpt>
      <trkpt lat="49.84268" lon="4.5879">
        <ele>281.1</ele>
        <time>2020-06-25T07:38:52Z</time>
      </trkpt>
      <trkpt lat="49.84268" lon="4.58796">
        <ele>281.3</ele>
        <time>2020-06-25T07:38:53Z</time>
      </trkpt>
      <trkpt lat="49.84268" lon="4.58802">
        <ele>281.4</ele>
        <time>2020-06-25T07:38:54Z</time>
      </trkpt>
      <trkpt lat="49.84268" lon="4.58808">
        <ele>281.6</ele>
        <time>2020-06-25T07:38:55Z</time>
      </trkpt>
      <trkpt lat="49.84268" lon="4.58814">
        <ele>281.7</ele>
        <time>2020-06-25T07:38:56Z</time>
      </trkpt>
      <trkpt lat="49.84268" lon="4.58819">
        <ele>281.8</ele>
        <time>2020-06-25T07:38:57Z</time>
      </trkpt>
      <trkpt lat="49.84268" lon="4.58824">
        <ele>282</ele>
        <time>2020-06-25T07:38:58Z</time>
      </trkpt>
      <trkpt lat="49.84268" lon="4.5883">
        <ele>282.2</ele>
        <time>2020-06-25T07:38:59Z</time>
      </trkpt>
      <trkpt lat="49.84268" lon="4.58836">
        <ele>282.3</ele>
        <time>2020-06-25T07:39:00Z</time>
      </trkpt>
      <trkpt lat="49.84268" lon="4.58842">
        <ele>282.5</ele>
        <time>2020-06-25T07:39:01Z</time>
      </trkpt>
      <trkpt lat="49.84268" lon="4.58848">
        <ele>282.6</ele>
        <time>2020-06-25T07:39:02Z</time>
      </trkpt>
      <trkpt lat="49.84268" lon="4.58854">
        <ele>282.8</ele>
        <time>2020-06-25T07:39:03Z</time>
      </trkpt>
      <trkpt lat="49.84268" lon="4.58861">
        <ele>282.9</ele>
        <time>2020-06-25T07:39:04Z</time>
      </trkpt>
      <trkpt lat="49.84268" lon="4.58867">
        <ele>283.1</ele>
        <time>2020-06-25T07:39:05Z</time>
      </trkpt>
      <trkpt lat="49.84267" lon="4.58872">
        <ele>283.2</ele>
        <time>2020-06-25T07:39:06Z</time>
      </trkpt>
      <trkpt lat="49.84267" lon="4.58878">
        <ele>283.3</ele>
        <time>2020-06-25T07:39:07Z</time>
      </trkpt>
      <trkpt lat="49.84266" lon="4.58883">
        <ele>283.4</ele>
        <time>2020-06-25T07:39:08Z</time>
      </trkpt>
      <trkpt lat="49.84266" lon="4.58885">
        <ele>283.5</ele>
        <time>2020-06-25T07:39:09Z</time>
      </trkpt>
      <trkpt lat="49.84265" lon="4.5889">
        <ele>283.6</ele>
        <time>2020-06-25T07:39:10Z</time>
      </trkpt>
      <trkpt lat="49.84265" lon="4.58892">
        <ele>283.6</ele>
        <time>2020-06-25T07:39:11Z</time>
      </trkpt>
      <trkpt lat="49.84266" lon="4.58894">
        <ele>283.7</ele>
        <time>2020-06-25T07:39:12Z</time>
      </trkpt>
      <trkpt lat="49.84266" lon="4.58897">
        <ele>283.8</ele>
        <time>2020-06-25T07:39:13Z</time>
      </trkpt>
      <trkpt lat="49.84266" lon="4.58899">
        <ele>283.8</ele>
        <time>2020-06-25T07:39:14Z</time>
      </trkpt>
      <trkpt lat="49.84266" lon="4.58901">
        <ele>283.9</ele>
        <time>2020-06-25T07:39:15Z</time>
      </trkpt>
      <trkpt lat="49.84266" lon="4.58903">
        <ele>283.9</ele>
        <time>2020-06-25T07:39:16Z</time>
      </trkpt>
      <trkpt lat="49.84266" lon="4.58904">
        <ele>284</ele>
        <time>2020-06-25T07:39:17Z</time>
      </trkpt>
      <trkpt lat="49.84266" lon="4.58904">
        <ele>284</ele>
        <time>2020-06-25T07:39:18Z</time>
      </trkpt>
      <trkpt lat="49.84266" lon="4.58905">
        <ele>284</ele>
        <time>2020-06-25T07:39:19Z</time>
      </trkpt>
      <trkpt lat="49.84267" lon="4.58906">
        <ele>284</ele>
        <time>2020-06-25T07:39:20Z</time>
      </trkpt>
      <trkpt lat="49.84267" lon="4.58908">
        <ele>284.1</ele>
        <time>2020-06-25T07:39:21Z</time>
      </trkpt>
      <trkpt lat="49.84267" lon="4.5891">
        <ele>284.1</ele>
        <time>2020-06-25T07:39:22Z</time>
      </trkpt>
      <trkpt lat="49.84267" lon="4.58912">
        <ele>284.2</ele>
        <time>2020-06-25T07:39:23Z</time>
      </trkpt>
      <trkpt lat="49.84267" lon="4.58914">
        <ele>284.2</ele>
        <time>2020-06-25T07:39:24Z</time>
      </trkpt>
      <trkpt lat="49.84267" lon="4.58916">
        <ele>284.3</ele>
        <time>2020-06-25T07:39:25Z</time>
      </trkpt>
      <trkpt lat="49.84267" lon="4.58918">
        <ele>284.3</ele>
        <time>2020-06-25T07:39:26Z</time>
      </trkpt>
      <trkpt lat="49.84267" lon="4.5892">
        <ele>284.4</ele>
        <time>2020-06-25T07:39:27Z</time>
      </trkpt>
      <trkpt lat="49.84267" lon="4.58922">
        <ele>284.4</ele>
        <time>2020-06-25T07:41:25Z</time>
      </trkpt>
      <trkpt lat="49.84267" lon="4.58924">
        <ele>284.5</ele>
        <time>2020-06-25T07:41:26Z</time>
      </trkpt>
      <trkpt lat="49.84268" lon="4.5893">
        <ele>284.7</ele>
        <time>2020-06-25T07:41:27Z</time>
      </trkpt>
      <trkpt lat="49.84268" lon="4.58932">
        <ele>284.7</ele>
        <time>2020-06-25T07:41:28Z</time>
      </trkpt>
      <trkpt lat="49.84268" lon="4.58938">
        <ele>284.9</ele>
        <time>2020-06-25T07:41:29Z</time>
      </trkpt>
      <trkpt lat="49.84269" lon="4.58945">
        <ele>285.1</ele>
        <time>2020-06-25T07:41:30Z</time>
      </trkpt>
      <trkpt lat="49.84269" lon="4.58951">
        <ele>285.3</ele>
        <time>2020-06-25T07:41:31Z</time>
      </trkpt>
      <trkpt lat="49.8427" lon="4.58958">
        <ele>285.5</ele>
        <time>2020-06-25T07:41:32Z</time>
      </trkpt>
      <trkpt lat="49.84271" lon="4.58965">
        <ele>285.6</ele>
        <time>2020-06-25T07:41:33Z</time>
      </trkpt>
      <trkpt lat="49.84272" lon="4.58971">
        <ele>285.8</ele>
        <time>2020-06-25T07:41:34Z</time>
      </trkpt>
      <trkpt lat="49.84273" lon="4.58978">
        <ele>286</ele>
        <time>2020-06-25T07:41:35Z</time>
      </trkpt>
      <trkpt lat="49.84274" lon="4.58984">
        <ele>286.1</ele>
        <time>2020-06-25T07:41:36Z</time>
      </trkpt>
      <trkpt lat="49.84275" lon="4.5899">
        <ele>286.3</ele>
        <time>2020-06-25T07:41:37Z</time>
      </trkpt>
      <trkpt lat="49.84276" lon="4.58997">
        <ele>286.4</ele>
        <time>2020-06-25T07:41:38Z</time>
      </trkpt>
      <trkpt lat="49.84278" lon="4.59003">
        <ele>286.6</ele>
        <time>2020-06-25T07:41:39Z</time>
      </trkpt>
      <trkpt lat="49.84279" lon="4.59009">
        <ele>286.7</ele>
        <time>2020-06-25T07:41:40Z</time>
      </trkpt>
      <trkpt lat="49.8428" lon="4.59014">
        <ele>286.8</ele>
        <time>2020-06-25T07:41:41Z</time>
      </trkpt>
      <trkpt lat="49.84281" lon="4.59021">
        <ele>286.9</ele>
        <time>2020-06-25T07:41:42Z</time>
      </trkpt>
      <trkpt lat="49.84282" lon="4.59027">
        <ele>287</ele>
        <time>2020-06-25T07:41:43Z</time>
      </trkpt>
      <trkpt lat="49.84283" lon="4.59033">
        <ele>287.1</ele>
        <time>2020-06-25T07:41:44Z</time>
      </trkpt>
      <trkpt lat="49.84284" lon="4.59039">
        <ele>287.3</ele>
        <time>2020-06-25T07:41:45Z</time>
      </trkpt>
      <trkpt lat="49.84285" lon="4.59046">
        <ele>287.4</ele>
        <time>2020-06-25T07:41:46Z</time>
      </trkpt>
      <trkpt lat="49.84286" lon="4.59053">
        <ele>287.5</ele>
        <time>2020-06-25T07:41:47Z</time>
      </trkpt>
      <trkpt lat="49.84289" lon="4.59059">
        <ele>287.6</ele>
        <time>2020-06-25T07:41:48Z</time>
      </trkpt>
      <trkpt lat="49.8429" lon="4.59066">
        <ele>287.8</ele>
        <time>2020-06-25T07:41:49Z</time>
      </trkpt>
      <trkpt lat="49.84292" lon="4.59073">
        <ele>287.9</ele>
        <time>2020-06-25T07:41:50Z</time>
      </trkpt>
      <trkpt lat="49.84293" lon="4.59079">
        <ele>288</ele>
        <time>2020-06-25T07:41:51Z</time>
      </trkpt>
      <trkpt lat="49.84294" lon="4.59085">
        <ele>288.1</ele>
        <time>2020-06-25T07:41:52Z</time>
      </trkpt>
      <trkpt lat="49.84295" lon="4.59092">
        <ele>288.1</ele>
        <time>2020-06-25T07:41:53Z</time>
      </trkpt>
      <trkpt lat="49.84296" lon="4.59098">
        <ele>288.2</ele>
        <time>2020-06-25T07:41:54Z</time>
      </trkpt>
      <trkpt lat="49.84297" lon="4.59104">
        <ele>288.2</ele>
        <time>2020-06-25T07:41:55Z</time>
      </trkpt>
      <trkpt lat="49.84299" lon="4.5911">
        <ele>288.3</ele>
        <time>2020-06-25T07:41:56Z</time>
      </trkpt>
      <trkpt lat="49.843" lon="4.59116">
        <ele>288.5</ele>
        <time>2020-06-25T07:41:57Z</time>
      </trkpt>
      <trkpt lat="49.84301" lon="4.5912">
        <ele>288.5</ele>
        <time>2020-06-25T07:41:58Z</time>
      </trkpt>
      <trkpt lat="49.84302" lon="4.59125">
        <ele>288.6</ele>
        <time>2020-06-25T07:41:59Z</time>
      </trkpt>
      <trkpt lat="49.84302" lon="4.59131">
        <ele>288.7</ele>
        <time>2020-06-25T07:42:00Z</time>
      </trkpt>
      <trkpt lat="49.84302" lon="4.59133">
        <ele>288.8</ele>
        <time>2020-06-25T07:42:01Z</time>
      </trkpt>
      <trkpt lat="49.84301" lon="4.59139">
        <ele>288.9</ele>
        <time>2020-06-25T07:42:02Z</time>
      </trkpt>
      <trkpt lat="49.84301" lon="4.59141">
        <ele>288.9</ele>
        <time>2020-06-25T07:42:03Z</time>
      </trkpt>
      <trkpt lat="49.84301" lon="4.59145">
        <ele>289</ele>
        <time>2020-06-25T07:42:04Z</time>
      </trkpt>
      <trkpt lat="49.84301" lon="4.5915">
        <ele>289.2</ele>
        <time>2020-06-25T07:42:05Z</time>
      </trkpt>
      <trkpt lat="49.843" lon="4.59156">
        <ele>289.2</ele>
        <time>2020-06-25T07:42:06Z</time>
      </trkpt>
      <trkpt lat="49.843" lon="4.59161">
        <ele>289.3</ele>
        <time>2020-06-25T07:42:07Z</time>
      </trkpt>
      <trkpt lat="49.843" lon="4.59166">
        <ele>289.4</ele>
        <time>2020-06-25T07:42:08Z</time>
      </trkpt>
      <trkpt lat="49.84299" lon="4.59171">
        <ele>289.5</ele>
        <time>2020-06-25T07:42:09Z</time>
      </trkpt>
      <trkpt lat="49.84298" lon="4.59176">
        <ele>289.6</ele>
        <time>2020-06-25T07:42:10Z</time>
      </trkpt>
      <trkpt lat="49.84297" lon="4.59181">
        <ele>289.7</ele>
        <time>2020-06-25T07:42:11Z</time>
      </trkpt>
      <trkpt lat="49.84296" lon="4.59185">
        <ele>289.8</ele>
        <time>2020-06-25T07:42:12Z</time>
      </trkpt>
      <trkpt lat="49.84296" lon="4.5919">
        <ele>289.9</ele>
        <time>2020-06-25T07:42:13Z</time>
      </trkpt>
      <trkpt lat="49.84295" lon="4.59195">
        <ele>289.9</ele>
        <time>2020-06-25T07:42:14Z</time>
      </trkpt>
      <trkpt lat="49.84294" lon="4.59199">
        <ele>290</ele>
        <time>2020-06-25T07:42:15Z</time>
      </trkpt>
      <trkpt lat="49.84291" lon="4.59201">
        <ele>290</ele>
        <time>2020-06-25T07:42:16Z</time>
      </trkpt>
      <trkpt lat="49.84289" lon="4.59205">
        <ele>290</ele>
        <time>2020-06-25T07:42:17Z</time>
      </trkpt>
      <trkpt lat="49.84287" lon="4.5921">
        <ele>290.1</ele>
        <time>2020-06-25T07:42:18Z</time>
      </trkpt>
      <trkpt lat="49.84287" lon="4.59212">
        <ele>290.1</ele>
        <time>2020-06-25T07:42:19Z</time>
      </trkpt>
      <trkpt lat="49.84284" lon="4.59217">
        <ele>290.1</ele>
        <time>2020-06-25T07:42:20Z</time>
      </trkpt>
      <trkpt lat="49.84283" lon="4.59219">
        <ele>290.1</ele>
        <time>2020-06-25T07:42:21Z</time>
      </trkpt>
      <trkpt lat="49.84281" lon="4.59222">
        <ele>290.1</ele>
        <time>2020-06-25T07:42:22Z</time>
      </trkpt>
      <trkpt lat="49.84278" lon="4.59228">
        <ele>290.1</ele>
        <time>2020-06-25T07:42:23Z</time>
      </trkpt>
      <trkpt lat="49.84277" lon="4.59229">
        <ele>290</ele>
        <time>2020-06-25T07:42:24Z</time>
      </trkpt>
      <trkpt lat="49.84275" lon="4.59234">
        <ele>290</ele>
        <time>2020-06-25T07:42:25Z</time>
      </trkpt>
      <trkpt lat="49.84272" lon="4.59238">
        <ele>290</ele>
        <time>2020-06-25T07:42:26Z</time>
      </trkpt>
      <trkpt lat="49.8427" lon="4.59241">
        <ele>289.9</ele>
        <time>2020-06-25T07:42:27Z</time>
      </trkpt>
      <trkpt lat="49.84269" lon="4.59246">
        <ele>289.9</ele>
        <time>2020-06-25T07:42:28Z</time>
      </trkpt>
      <trkpt lat="49.84267" lon="4.5925">
        <ele>289.9</ele>
        <time>2020-06-25T07:42:29Z</time>
      </trkpt>
      <trkpt lat="49.84265" lon="4.59255">
        <ele>289.9</ele>
        <time>2020-06-25T07:42:30Z</time>
      </trkpt>
      <trkpt lat="49.84262" lon="4.59259">
        <ele>289.8</ele>
        <time>2020-06-25T07:42:31Z</time>
      </trkpt>
      <trkpt lat="49.84259" lon="4.59265">
        <ele>289.8</ele>
        <time>2020-06-25T07:42:32Z</time>
      </trkpt>
      <trkpt lat="49.84256" lon="4.59271">
        <ele>289.7</ele>
        <time>2020-06-25T07:42:33Z</time>
      </trkpt>
      <trkpt lat="49.84253" lon="4.59277">
        <ele>289.6</ele>
        <time>2020-06-25T07:42:34Z</time>
      </trkpt>
      <trkpt lat="49.8425" lon="4.59284">
        <ele>289.4</ele>
        <time>2020-06-25T07:42:35Z</time>
      </trkpt>
      <trkpt lat="49.84247" lon="4.5929">
        <ele>289.2</ele>
        <time>2020-06-25T07:42:36Z</time>
      </trkpt>
      <trkpt lat="49.84244" lon="4.59297">
        <ele>289</ele>
        <time>2020-06-25T07:42:37Z</time>
      </trkpt>
      <trkpt lat="49.8424" lon="4.59303">
        <ele>288.9</ele>
        <time>2020-06-25T07:42:38Z</time>
      </trkpt>
      <trkpt lat="49.84237" lon="4.5931">
        <ele>288.7</ele>
        <time>2020-06-25T07:42:39Z</time>
      </trkpt>
      <trkpt lat="49.84234" lon="4.59317">
        <ele>288.5</ele>
        <time>2020-06-25T07:42:40Z</time>
      </trkpt>
      <trkpt lat="49.84232" lon="4.59322">
        <ele>288.4</ele>
        <time>2020-06-25T07:42:41Z</time>
      </trkpt>
      <trkpt lat="49.84231" lon="4.59327">
        <ele>288.3</ele>
        <time>2020-06-25T07:42:42Z</time>
      </trkpt>
      <trkpt lat="49.84229" lon="4.5933">
        <ele>288.2</ele>
        <time>2020-06-25T07:42:43Z</time>
      </trkpt>
      <trkpt lat="49.84227" lon="4.59334">
        <ele>288.1</ele>
        <time>2020-06-25T07:42:44Z</time>
      </trkpt>
      <trkpt lat="49.84226" lon="4.5934">
        <ele>288</ele>
        <time>2020-06-25T07:42:45Z</time>
      </trkpt>
      <trkpt lat="49.84226" lon="4.59343">
        <ele>287.9</ele>
        <time>2020-06-25T07:42:46Z</time>
      </trkpt>
      <trkpt lat="49.84224" lon="4.59347">
        <ele>287.8</ele>
        <time>2020-06-25T07:42:47Z</time>
      </trkpt>
      <trkpt lat="49.84223" lon="4.59349">
        <ele>287.8</ele>
        <time>2020-06-25T07:42:48Z</time>
      </trkpt>
      <trkpt lat="49.84223" lon="4.59352">
        <ele>287.7</ele>
        <time>2020-06-25T07:42:49Z</time>
      </trkpt>
      <trkpt lat="49.84223" lon="4.59354">
        <ele>287.7</ele>
        <time>2020-06-25T07:42:50Z</time>
      </trkpt>
      <trkpt lat="49.84223" lon="4.59354">
        <ele>287.7</ele>
        <time>2020-06-25T07:42:51Z</time>
      </trkpt>
      <trkpt lat="49.84223" lon="4.59353">
        <ele>287.6</ele>
        <time>2020-06-25T07:42:52Z</time>
      </trkpt>
      <trkpt lat="49.84223" lon="4.59352">
        <ele>287.6</ele>
        <time>2020-06-25T07:42:53Z</time>
      </trkpt>
      <trkpt lat="49.84223" lon="4.59352">
        <ele>287.6</ele>
        <time>2020-06-25T07:42:54Z</time>
      </trkpt>
      <trkpt lat="49.84223" lon="4.59351">
        <ele>287.6</ele>
        <time>2020-06-25T07:42:55Z</time>
      </trkpt>
      <trkpt lat="49.84223" lon="4.59351">
        <ele>287.6</ele>
        <time>2020-06-25T07:42:56Z</time>
      </trkpt>
      <trkpt lat="49.84223" lon="4.5935">
        <ele>287.6</ele>
        <time>2020-06-25T07:42:57Z</time>
      </trkpt>
      <trkpt lat="49.84223" lon="4.59349">
        <ele>287.6</ele>
        <time>2020-06-25T07:42:58Z</time>
      </trkpt>
      <trkpt lat="49.84223" lon="4.59349">
        <ele>287.6</ele>
        <time>2020-06-25T07:42:59Z</time>
      </trkpt>
      <trkpt lat="49.84223" lon="4.59348">
        <ele>287.6</ele>
        <time>2020-06-25T07:43:00Z</time>
      </trkpt>
      <trkpt lat="49.84223" lon="4.59348">
        <ele>287.5</ele>
        <time>2020-06-25T07:43:01Z</time>
      </trkpt>
      <trkpt lat="49.84225" lon="4.59342">
        <ele>287.7</ele>
        <time>2020-06-25T07:43:02Z</time>
      </trkpt>
      <trkpt lat="49.84226" lon="4.5934">
        <ele>287.7</ele>
        <time>2020-06-25T07:43:03Z</time>
      </trkpt>
      <trkpt lat="49.84228" lon="4.59335">
        <ele>287.8</ele>
        <time>2020-06-25T07:43:04Z</time>
      </trkpt>
      <trkpt lat="49.8423" lon="4.59331">
        <ele>288</ele>
        <time>2020-06-25T07:43:05Z</time>
      </trkpt>
      <trkpt lat="49.84232" lon="4.59327">
        <ele>288.1</ele>
        <time>2020-06-25T07:43:06Z</time>
      </trkpt>
      <trkpt lat="49.84234" lon="4.59322">
        <ele>288.2</ele>
        <time>2020-06-25T07:43:07Z</time>
      </trkpt>
      <trkpt lat="49.84236" lon="4.59318">
        <ele>288.3</ele>
        <time>2020-06-25T07:43:08Z</time>
      </trkpt>
      <trkpt lat="49.84238" lon="4.59313">
        <ele>288.4</ele>
        <time>2020-06-25T07:43:09Z</time>
      </trkpt>
      <trkpt lat="49.8424" lon="4.59308">
        <ele>288.6</ele>
        <time>2020-06-25T07:43:10Z</time>
      </trkpt>
      <trkpt lat="49.84242" lon="4.59302">
        <ele>288.7</ele>
        <time>2020-06-25T07:43:11Z</time>
      </trkpt>
      <trkpt lat="49.84244" lon="4.59297">
        <ele>288.9</ele>
        <time>2020-06-25T07:43:12Z</time>
      </trkpt>
      <trkpt lat="49.84247" lon="4.59294">
        <ele>289</ele>
        <time>2020-06-25T07:43:13Z</time>
      </trkpt>
      <trkpt lat="49.8425" lon="4.59289">
        <ele>289.2</ele>
        <time>2020-06-25T07:43:14Z</time>
      </trkpt>
      <trkpt lat="49.84252" lon="4.59285">
        <ele>289.3</ele>
        <time>2020-06-25T07:43:15Z</time>
      </trkpt>
      <trkpt lat="49.84254" lon="4.59281">
        <ele>289.4</ele>
        <time>2020-06-25T07:43:16Z</time>
      </trkpt>
      <trkpt lat="49.84256" lon="4.59277">
        <ele>289.5</ele>
        <time>2020-06-25T07:43:17Z</time>
      </trkpt>
      <trkpt lat="49.84257" lon="4.59271">
        <ele>289.6</ele>
        <time>2020-06-25T07:43:18Z</time>
      </trkpt>
      <trkpt lat="49.84259" lon="4.59265">
        <ele>289.7</ele>
        <time>2020-06-25T07:43:19Z</time>
      </trkpt>
      <trkpt lat="49.84261" lon="4.59261">
        <ele>289.8</ele>
        <time>2020-06-25T07:43:20Z</time>
      </trkpt>
      <trkpt lat="49.84263" lon="4.59255">
        <ele>289.8</ele>
        <time>2020-06-25T07:43:21Z</time>
      </trkpt>
      <trkpt lat="49.84264" lon="4.59254">
        <ele>289.9</ele>
        <time>2020-06-25T07:43:22Z</time>
      </trkpt>
      <trkpt lat="49.84267" lon="4.5925">
        <ele>289.9</ele>
        <time>2020-06-25T07:43:23Z</time>
      </trkpt>
      <trkpt lat="49.8427" lon="4.59245">
        <ele>289.9</ele>
        <time>2020-06-25T07:43:24Z</time>
      </trkpt>
      <trkpt lat="49.84272" lon="4.5924">
        <ele>289.9</ele>
        <time>2020-06-25T07:43:25Z</time>
      </trkpt>
      <trkpt lat="49.84274" lon="4.59234">
        <ele>290</ele>
        <time>2020-06-25T07:43:26Z</time>
      </trkpt>
      <trkpt lat="49.84276" lon="4.59228">
        <ele>290</ele>
        <time>2020-06-25T07:43:27Z</time>
      </trkpt>
      <trkpt lat="49.84278" lon="4.59222">
        <ele>290.1</ele>
        <time>2020-06-25T07:43:28Z</time>
      </trkpt>
      <trkpt lat="49.8428" lon="4.59218">
        <ele>290.1</ele>
        <time>2020-06-25T07:43:29Z</time>
      </trkpt>
      <trkpt lat="49.84283" lon="4.59214">
        <ele>290.1</ele>
        <time>2020-06-25T07:43:30Z</time>
      </trkpt>
      <trkpt lat="49.84285" lon="4.5921">
        <ele>290.1</ele>
        <time>2020-06-25T07:43:31Z</time>
      </trkpt>
      <trkpt lat="49.84287" lon="4.59207">
        <ele>290.1</ele>
        <time>2020-06-25T07:43:32Z</time>
      </trkpt>
      <trkpt lat="49.84288" lon="4.59201">
        <ele>290</ele>
        <time>2020-06-25T07:43:33Z</time>
      </trkpt>
      <trkpt lat="49.84289" lon="4.59195">
        <ele>290</ele>
        <time>2020-06-25T07:43:34Z</time>
      </trkpt>
      <trkpt lat="49.84292" lon="4.59189">
        <ele>289.9</ele>
        <time>2020-06-25T07:43:35Z</time>
      </trkpt>
      <trkpt lat="49.84293" lon="4.59183">
        <ele>289.8</ele>
        <time>2020-06-25T07:43:36Z</time>
      </trkpt>
      <trkpt lat="49.84295" lon="4.59177">
        <ele>289.7</ele>
        <time>2020-06-25T07:43:37Z</time>
      </trkpt>
      <trkpt lat="49.84297" lon="4.59172">
        <ele>289.6</ele>
        <time>2020-06-25T07:43:38Z</time>
      </trkpt>
      <trkpt lat="49.84297" lon="4.59165">
        <ele>289.4</ele>
        <time>2020-06-25T07:43:39Z</time>
      </trkpt>
      <trkpt lat="49.84298" lon="4.59159">
        <ele>289.3</ele>
        <time>2020-06-25T07:43:40Z</time>
      </trkpt>
      <trkpt lat="49.84299" lon="4.5915">
        <ele>289.2</ele>
        <time>2020-06-25T07:43:41Z</time>
      </trkpt>
      <trkpt lat="49.843" lon="4.59141">
        <ele>288.9</ele>
        <time>2020-06-25T07:43:42Z</time>
      </trkpt>
      <trkpt lat="49.84299" lon="4.59133">
        <ele>288.8</ele>
        <time>2020-06-25T07:43:43Z</time>
      </trkpt>
      <trkpt lat="49.84299" lon="4.59125">
        <ele>288.6</ele>
        <time>2020-06-25T07:43:44Z</time>
      </trkpt>
      <trkpt lat="49.84298" lon="4.59117">
        <ele>288.5</ele>
        <time>2020-06-25T07:43:45Z</time>
      </trkpt>
      <trkpt lat="49.84297" lon="4.5911">
        <ele>288.4</ele>
        <time>2020-06-25T07:43:46Z</time>
      </trkpt>
      <trkpt lat="49.84295" lon="4.59102">
        <ele>288.2</ele>
        <time>2020-06-25T07:43:47Z</time>
      </trkpt>
      <trkpt lat="49.84294" lon="4.59095">
        <ele>288.2</ele>
        <time>2020-06-25T07:43:48Z</time>
      </trkpt>
      <trkpt lat="49.84292" lon="4.59086">
        <ele>288.1</ele>
        <time>2020-06-25T07:43:49Z</time>
      </trkpt>
      <trkpt lat="49.84291" lon="4.59077">
        <ele>288</ele>
        <time>2020-06-25T07:43:50Z</time>
      </trkpt>
      <trkpt lat="49.84289" lon="4.59069">
        <ele>287.8</ele>
        <time>2020-06-25T07:43:51Z</time>
      </trkpt>
      <trkpt lat="49.84287" lon="4.59061">
        <ele>287.7</ele>
        <time>2020-06-25T07:43:52Z</time>
      </trkpt>
      <trkpt lat="49.84286" lon="4.59051">
        <ele>287.5</ele>
        <time>2020-06-25T07:43:53Z</time>
      </trkpt>
      <trkpt lat="49.84284" lon="4.59042">
        <ele>287.3</ele>
        <time>2020-06-25T07:43:54Z</time>
      </trkpt>
      <trkpt lat="49.84282" lon="4.59031">
        <ele>287.1</ele>
        <time>2020-06-25T07:43:55Z</time>
      </trkpt>
      <trkpt lat="49.8428" lon="4.59021">
        <ele>286.9</ele>
        <time>2020-06-25T07:43:56Z</time>
      </trkpt>
      <trkpt lat="49.84278" lon="4.5901">
        <ele>286.7</ele>
        <time>2020-06-25T07:43:57Z</time>
      </trkpt>
      <trkpt lat="49.84277" lon="4.58999">
        <ele>286.5</ele>
        <time>2020-06-25T07:43:58Z</time>
      </trkpt>
      <trkpt lat="49.84275" lon="4.58989">
        <ele>286.3</ele>
        <time>2020-06-25T07:43:59Z</time>
      </trkpt>
      <trkpt lat="49.84274" lon="4.58979">
        <ele>286</ele>
        <time>2020-06-25T07:44:00Z</time>
      </trkpt>
      <trkpt lat="49.84272" lon="4.58969">
        <ele>285.8</ele>
        <time>2020-06-25T07:44:01Z</time>
      </trkpt>
      <trkpt lat="49.8427" lon="4.58959">
        <ele>285.5</ele>
        <time>2020-06-25T07:44:02Z</time>
      </trkpt>
      <trkpt lat="49.84269" lon="4.58949">
        <ele>285.2</ele>
        <time>2020-06-25T07:44:03Z</time>
      </trkpt>
      <trkpt lat="49.84266" lon="4.58937">
        <ele>284.9</ele>
        <time>2020-06-25T07:44:04Z</time>
      </trkpt>
      <trkpt lat="49.84264" lon="4.58925">
        <ele>284.5</ele>
        <time>2020-06-25T07:44:05Z</time>
      </trkpt>
      <trkpt lat="49.84262" lon="4.58914">
        <ele>284.2</ele>
        <time>2020-06-25T07:44:06Z</time>
      </trkpt>
      <trkpt lat="49.84261" lon="4.58903">
        <ele>283.9</ele>
        <time>2020-06-25T07:44:07Z</time>
      </trkpt>
      <trkpt lat="49.84259" lon="4.58891">
        <ele>283.6</ele>
        <time>2020-06-25T07:44:08Z</time>
      </trkpt>
      <trkpt lat="49.84258" lon="4.5888">
        <ele>283.4</ele>
        <time>2020-06-25T07:44:09Z</time>
      </trkpt>
      <trkpt lat="49.84257" lon="4.58868">
        <ele>283.1</ele>
        <time>2020-06-25T07:44:10Z</time>
      </trkpt>
      <trkpt lat="49.84257" lon="4.58857">
        <ele>282.9</ele>
        <time>2020-06-25T07:44:11Z</time>
      </trkpt>
      <trkpt lat="49.84257" lon="4.58847">
        <ele>282.6</ele>
        <time>2020-06-25T07:44:12Z</time>
      </trkpt>
      <trkpt lat="49.84257" lon="4.58838">
        <ele>282.4</ele>
        <time>2020-06-25T07:44:13Z</time>
      </trkpt>
      <trkpt lat="49.84257" lon="4.58829">
        <ele>282.2</ele>
        <time>2020-06-25T07:44:14Z</time>
      </trkpt>
      <trkpt lat="49.84257" lon="4.58822">
        <ele>282</ele>
        <time>2020-06-25T07:44:15Z</time>
      </trkpt>
      <trkpt lat="49.84257" lon="4.58815">
        <ele>281.8</ele>
        <time>2020-06-25T07:44:16Z</time>
      </trkpt>
      <trkpt lat="49.84257" lon="4.58811">
        <ele>281.9</ele>
        <time>2020-06-25T07:44:17Z</time>
      </trkpt>
      <trkpt lat="49.84257" lon="4.58806">
        <ele>282</ele>
        <time>2020-06-25T07:44:18Z</time>
      </trkpt>
      <trkpt lat="49.84256" lon="4.58804">
        <ele>282</ele>
        <time>2020-06-25T07:44:19Z</time>
      </trkpt>
      <trkpt lat="49.84256" lon="4.58804">
        <ele>282.1</ele>
        <time>2020-06-25T07:44:20Z</time>
      </trkpt>
      <trkpt lat="49.84256" lon="4.58804">
        <ele>282.1</ele>
        <time>2020-06-25T07:44:21Z</time>
      </trkpt>
      <trkpt lat="49.84257" lon="4.58804">
        <ele>282.1</ele>
        <time>2020-06-25T07:44:22Z</time>
      </trkpt>
      <trkpt lat="49.84258" lon="4.58804">
        <ele>282.1</ele>
        <time>2020-06-25T07:44:23Z</time>
      </trkpt>
      <trkpt lat="49.84258" lon="4.58803">
        <ele>282.1</ele>
        <time>2020-06-25T07:44:24Z</time>
      </trkpt>
      <trkpt lat="49.84258" lon="4.58804">
        <ele>282.1</ele>
        <time>2020-06-25T07:44:25Z</time>
      </trkpt>
      <trkpt lat="49.84258" lon="4.58804">
        <ele>282.1</ele>
        <time>2020-06-25T07:44:26Z</time>
      </trkpt>
      <trkpt lat="49.84258" lon="4.58804">
        <ele>282.1</ele>
        <time>2020-06-25T07:44:27Z</time>
      </trkpt>
      <trkpt lat="49.84258" lon="4.58804">
        <ele>282.2</ele>
        <time>2020-06-25T07:44:28Z</time>
      </trkpt>
      <trkpt lat="49.84259" lon="4.58804">
        <ele>282.2</ele>
        <time>2020-06-25T07:44:29Z</time>
      </trkpt>
      <trkpt lat="49.84259" lon="4.58804">
        <ele>282.2</ele>
        <time>2020-06-25T07:44:30Z</time>
      </trkpt>
      <trkpt lat="49.84268" lon="4.58819">
        <ele>282.7</ele>
        <time>2020-06-25T08:16:06Z</time>
      </trkpt>
      <trkpt lat="49.84268" lon="4.58821">
        <ele>282.7</ele>
        <time>2020-06-25T08:16:07Z</time>
      </trkpt>
      <trkpt lat="49.84268" lon="4.58826">
        <ele>282.8</ele>
        <time>2020-06-25T08:16:08Z</time>
      </trkpt>
      <trkpt lat="49.84267" lon="4.58827">
        <ele>282.8</ele>
        <time>2020-06-25T08:16:09Z</time>
      </trkpt>
      <trkpt lat="49.84267" lon="4.58829">
        <ele>282.9</ele>
        <time>2020-06-25T08:16:10Z</time>
      </trkpt>
      <trkpt lat="49.84267" lon="4.58831">
        <ele>282.9</ele>
        <time>2020-06-25T08:16:11Z</time>
      </trkpt>
      <trkpt lat="49.84266" lon="4.58834">
        <ele>283</ele>
        <time>2020-06-25T08:16:12Z</time>
      </trkpt>
      <trkpt lat="49.84265" lon="4.58835">
        <ele>283</ele>
        <time>2020-06-25T08:16:13Z</time>
      </trkpt>
      <trkpt lat="49.84265" lon="4.58836">
        <ele>283</ele>
        <time>2020-06-25T08:16:14Z</time>
      </trkpt>
      <trkpt lat="49.84265" lon="4.58839">
        <ele>283.1</ele>
        <time>2020-06-25T08:16:15Z</time>
      </trkpt>
      <trkpt lat="49.84264" lon="4.58841">
        <ele>283.1</ele>
        <time>2020-06-25T08:16:16Z</time>
      </trkpt>
      <trkpt lat="49.84264" lon="4.58844">
        <ele>283.2</ele>
        <time>2020-06-25T08:16:17Z</time>
      </trkpt>
      <trkpt lat="49.84264" lon="4.58846">
        <ele>283.2</ele>
        <time>2020-06-25T08:16:18Z</time>
      </trkpt>
      <trkpt lat="49.84263" lon="4.58847">
        <ele>283.3</ele>
        <time>2020-06-25T08:16:19Z</time>
      </trkpt>
      <trkpt lat="49.84263" lon="4.58853">
        <ele>283.4</ele>
        <time>2020-06-25T08:16:20Z</time>
      </trkpt>
      <trkpt lat="49.84262" lon="4.58854">
        <ele>283.4</ele>
        <time>2020-06-25T08:16:21Z</time>
      </trkpt>
      <trkpt lat="49.84262" lon="4.58856">
        <ele>283.4</ele>
        <time>2020-06-25T08:16:22Z</time>
      </trkpt>
      <trkpt lat="49.84262" lon="4.58858">
        <ele>283.5</ele>
        <time>2020-06-25T08:16:23Z</time>
      </trkpt>
      <trkpt lat="49.84263" lon="4.5886">
        <ele>283.5</ele>
        <time>2020-06-25T08:16:24Z</time>
      </trkpt>
      <trkpt lat="49.84263" lon="4.58861">
        <ele>283.5</ele>
        <time>2020-06-25T08:16:25Z</time>
      </trkpt>
      <trkpt lat="49.84263" lon="4.58863">
        <ele>283.6</ele>
        <time>2020-06-25T08:16:26Z</time>
      </trkpt>
      <trkpt lat="49.84263" lon="4.58866">
        <ele>283.6</ele>
        <time>2020-06-25T08:16:27Z</time>
      </trkpt>
      <trkpt lat="49.84264" lon="4.58867">
        <ele>283.7</ele>
        <time>2020-06-25T08:16:28Z</time>
      </trkpt>
      <trkpt lat="49.84264" lon="4.58869">
        <ele>283.7</ele>
        <time>2020-06-25T08:16:29Z</time>
      </trkpt>
      <trkpt lat="49.84264" lon="4.58871">
        <ele>283.8</ele>
        <time>2020-06-25T08:16:30Z</time>
      </trkpt>
      <trkpt lat="49.84264" lon="4.58872">
        <ele>283.8</ele>
        <time>2020-06-25T08:16:31Z</time>
      </trkpt>
      <trkpt lat="49.84263" lon="4.58874">
        <ele>283.8</ele>
        <time>2020-06-25T08:16:32Z</time>
      </trkpt>
      <trkpt lat="49.84263" lon="4.58879">
        <ele>284</ele>
        <time>2020-06-25T08:16:33Z</time>
      </trkpt>
      <trkpt lat="49.84262" lon="4.58881">
        <ele>284</ele>
        <time>2020-06-25T08:16:34Z</time>
      </trkpt>
      <trkpt lat="49.84263" lon="4.58886">
        <ele>284.1</ele>
        <time>2020-06-25T08:16:35Z</time>
      </trkpt>
      <trkpt lat="49.84264" lon="4.58891">
        <ele>284.3</ele>
        <time>2020-06-25T08:16:36Z</time>
      </trkpt>
      <trkpt lat="49.84264" lon="4.58893">
        <ele>284.3</ele>
        <time>2020-06-25T08:16:37Z</time>
      </trkpt>
      <trkpt lat="49.84264" lon="4.58898">
        <ele>284.4</ele>
        <time>2020-06-25T08:16:38Z</time>
      </trkpt>
      <trkpt lat="49.84264" lon="4.58903">
        <ele>284.5</ele>
        <time>2020-06-25T08:16:39Z</time>
      </trkpt>
      <trkpt lat="49.84264" lon="4.58905">
        <ele>284.6</ele>
        <time>2020-06-25T08:16:40Z</time>
      </trkpt>
      <trkpt lat="49.84264" lon="4.58911">
        <ele>284.7</ele>
        <time>2020-06-25T08:16:41Z</time>
      </trkpt>
      <trkpt lat="49.84264" lon="4.58913">
        <ele>284.8</ele>
        <time>2020-06-25T08:16:42Z</time>
      </trkpt>
      <trkpt lat="49.84265" lon="4.58918">
        <ele>284.9</ele>
        <time>2020-06-25T08:16:43Z</time>
      </trkpt>
      <trkpt lat="49.84265" lon="4.58922">
        <ele>285</ele>
        <time>2020-06-25T08:16:44Z</time>
      </trkpt>
      <trkpt lat="49.84265" lon="4.58927">
        <ele>285.1</ele>
        <time>2020-06-25T08:16:45Z</time>
      </trkpt>
      <trkpt lat="49.84266" lon="4.58932">
        <ele>285.2</ele>
        <time>2020-06-25T08:16:46Z</time>
      </trkpt>
      <trkpt lat="49.84266" lon="4.58936">
        <ele>285.3</ele>
        <time>2020-06-25T08:16:47Z</time>
      </trkpt>
      <trkpt lat="49.84267" lon="4.58941">
        <ele>285.5</ele>
        <time>2020-06-25T08:16:48Z</time>
      </trkpt>
      <trkpt lat="49.84267" lon="4.58947">
        <ele>285.6</ele>
        <time>2020-06-25T08:16:49Z</time>
      </trkpt>
      <trkpt lat="49.84268" lon="4.58948">
        <ele>285.6</ele>
        <time>2020-06-25T08:16:50Z</time>
      </trkpt>
      <trkpt lat="49.84269" lon="4.58953">
        <ele>285.8</ele>
        <time>2020-06-25T08:16:51Z</time>
      </trkpt>
      <trkpt lat="49.84269" lon="4.58955">
        <ele>285.8</ele>
        <time>2020-06-25T08:16:52Z</time>
      </trkpt>
      <trkpt lat="49.8427" lon="4.58959">
        <ele>285.9</ele>
        <time>2020-06-25T08:16:53Z</time>
      </trkpt>
      <trkpt lat="49.84271" lon="4.58964">
        <ele>286</ele>
        <time>2020-06-25T08:16:54Z</time>
      </trkpt>
      <trkpt lat="49.84272" lon="4.58968">
        <ele>286.1</ele>
        <time>2020-06-25T08:16:55Z</time>
      </trkpt>
      <trkpt lat="49.84272" lon="4.58974">
        <ele>286.2</ele>
        <time>2020-06-25T08:16:56Z</time>
      </trkpt>
      <trkpt lat="49.84272" lon="4.58976">
        <ele>286.3</ele>
        <time>2020-06-25T08:16:57Z</time>
      </trkpt>
      <trkpt lat="49.84273" lon="4.58981">
        <ele>286.4</ele>
        <time>2020-06-25T08:16:58Z</time>
      </trkpt>
      <trkpt lat="49.84274" lon="4.58986">
        <ele>286.4</ele>
        <time>2020-06-25T08:16:59Z</time>
      </trkpt>
      <trkpt lat="49.84275" lon="4.58991">
        <ele>286.5</ele>
        <time>2020-06-25T08:17:00Z</time>
      </trkpt>
      <trkpt lat="49.84275" lon="4.58996">
        <ele>286.6</ele>
        <time>2020-06-25T08:17:01Z</time>
      </trkpt>
      <trkpt lat="49.84277" lon="4.59001">
        <ele>286.7</ele>
        <time>2020-06-25T08:17:02Z</time>
      </trkpt>
      <trkpt lat="49.84278" lon="4.59005">
        <ele>286.8</ele>
        <time>2020-06-25T08:17:03Z</time>
      </trkpt>
      <trkpt lat="49.84279" lon="4.59011">
        <ele>286.9</ele>
        <time>2020-06-25T08:17:04Z</time>
      </trkpt>
      <trkpt lat="49.8428" lon="4.59015">
        <ele>287</ele>
        <time>2020-06-25T08:17:05Z</time>
      </trkpt>
      <trkpt lat="49.8428" lon="4.5902">
        <ele>287.1</ele>
        <time>2020-06-25T08:17:06Z</time>
      </trkpt>
      <trkpt lat="49.8428" lon="4.59025">
        <ele>287.1</ele>
        <time>2020-06-25T08:17:07Z</time>
      </trkpt>
      <trkpt lat="49.84281" lon="4.5903">
        <ele>287.2</ele>
        <time>2020-06-25T08:17:08Z</time>
      </trkpt>
      <trkpt lat="49.84281" lon="4.59038">
        <ele>287.3</ele>
        <time>2020-06-25T08:17:09Z</time>
      </trkpt>
      <trkpt lat="49.84282" lon="4.59043">
        <ele>287.4</ele>
        <time>2020-06-25T08:17:10Z</time>
      </trkpt>
      <trkpt lat="49.84284" lon="4.59047">
        <ele>287.5</ele>
        <time>2020-06-25T08:17:11Z</time>
      </trkpt>
      <trkpt lat="49.84284" lon="4.59052">
        <ele>287.6</ele>
        <time>2020-06-25T08:17:12Z</time>
      </trkpt>
      <trkpt lat="49.84286" lon="4.59057">
        <ele>287.7</ele>
        <time>2020-06-25T08:17:13Z</time>
      </trkpt>
      <trkpt lat="49.84287" lon="4.59061">
        <ele>287.7</ele>
        <time>2020-06-25T08:17:14Z</time>
      </trkpt>
      <trkpt lat="49.84288" lon="4.59065">
        <ele>287.8</ele>
        <time>2020-06-25T08:17:15Z</time>
      </trkpt>
      <trkpt lat="49.84289" lon="4.59071">
        <ele>287.9</ele>
        <time>2020-06-25T08:17:16Z</time>
      </trkpt>
      <trkpt lat="49.84289" lon="4.59076">
        <ele>288</ele>
        <time>2020-06-25T08:17:17Z</time>
      </trkpt>
      <trkpt lat="49.84289" lon="4.59082">
        <ele>288</ele>
        <time>2020-06-25T08:17:18Z</time>
      </trkpt>
      <trkpt lat="49.84291" lon="4.59087">
        <ele>288.1</ele>
        <time>2020-06-25T08:17:19Z</time>
      </trkpt>
      <trkpt lat="49.84293" lon="4.59093">
        <ele>288.1</ele>
        <time>2020-06-25T08:17:20Z</time>
      </trkpt>
      <trkpt lat="49.84295" lon="4.59098">
        <ele>288.2</ele>
        <time>2020-06-25T08:17:21Z</time>
      </trkpt>
      <trkpt lat="49.84295" lon="4.59104">
        <ele>288.3</ele>
        <time>2020-06-25T08:17:22Z</time>
      </trkpt>
      <trkpt lat="49.84295" lon="4.59107">
        <ele>288.4</ele>
        <time>2020-06-25T08:17:23Z</time>
      </trkpt>
      <trkpt lat="49.84295" lon="4.59111">
        <ele>288.4</ele>
        <time>2020-06-25T08:17:24Z</time>
      </trkpt>
      <trkpt lat="49.84295" lon="4.59116">
        <ele>288.5</ele>
        <time>2020-06-25T08:17:25Z</time>
      </trkpt>
      <trkpt lat="49.84295" lon="4.59121">
        <ele>288.6</ele>
        <time>2020-06-25T08:17:26Z</time>
      </trkpt>
      <trkpt lat="49.84295" lon="4.59126">
        <ele>288.7</ele>
        <time>2020-06-25T08:17:27Z</time>
      </trkpt>
      <trkpt lat="49.84295" lon="4.59131">
        <ele>288.8</ele>
        <time>2020-06-25T08:17:28Z</time>
      </trkpt>
      <trkpt lat="49.84295" lon="4.59138">
        <ele>288.9</ele>
        <time>2020-06-25T08:17:29Z</time>
      </trkpt>
      <trkpt lat="49.84296" lon="4.59144">
        <ele>289</ele>
        <time>2020-06-25T08:17:30Z</time>
      </trkpt>
      <trkpt lat="49.84297" lon="4.59149">
        <ele>289.2</ele>
        <time>2020-06-25T08:17:31Z</time>
      </trkpt>
      <trkpt lat="49.84298" lon="4.59154">
        <ele>289.2</ele>
        <time>2020-06-25T08:17:32Z</time>
      </trkpt>
      <trkpt lat="49.84297" lon="4.59159">
        <ele>289.3</ele>
        <time>2020-06-25T08:17:33Z</time>
      </trkpt>
      <trkpt lat="49.84297" lon="4.59163">
        <ele>289.4</ele>
        <time>2020-06-25T08:17:34Z</time>
      </trkpt>
      <trkpt lat="49.84297" lon="4.59168">
        <ele>289.5</ele>
        <time>2020-06-25T08:17:35Z</time>
      </trkpt>
      <trkpt lat="49.84296" lon="4.59172">
        <ele>289.6</ele>
        <time>2020-06-25T08:17:36Z</time>
      </trkpt>
      <trkpt lat="49.84295" lon="4.59176">
        <ele>289.6</ele>
        <time>2020-06-25T08:17:37Z</time>
      </trkpt>
      <trkpt lat="49.84294" lon="4.59182">
        <ele>289.7</ele>
        <time>2020-06-25T08:17:38Z</time>
      </trkpt>
      <trkpt lat="49.84293" lon="4.59187">
        <ele>289.8</ele>
        <time>2020-06-25T08:17:39Z</time>
      </trkpt>
      <trkpt lat="49.84292" lon="4.59192">
        <ele>289.9</ele>
        <time>2020-06-25T08:17:40Z</time>
      </trkpt>
      <trkpt lat="49.84291" lon="4.59196">
        <ele>290</ele>
        <time>2020-06-25T08:17:41Z</time>
      </trkpt>
      <trkpt lat="49.84289" lon="4.59202">
        <ele>290</ele>
        <time>2020-06-25T08:17:42Z</time>
      </trkpt>
      <trkpt lat="49.84288" lon="4.59204">
        <ele>290</ele>
        <time>2020-06-25T08:17:43Z</time>
      </trkpt>
      <trkpt lat="49.84286" lon="4.59207">
        <ele>290.1</ele>
        <time>2020-06-25T08:17:44Z</time>
      </trkpt>
      <trkpt lat="49.84284" lon="4.59212">
        <ele>290.1</ele>
        <time>2020-06-25T08:17:45Z</time>
      </trkpt>
      <trkpt lat="49.84282" lon="4.59215">
        <ele>290.1</ele>
        <time>2020-06-25T08:17:46Z</time>
      </trkpt>
      <trkpt lat="49.84279" lon="4.5922">
        <ele>290.1</ele>
        <time>2020-06-25T08:17:47Z</time>
      </trkpt>
      <trkpt lat="49.84278" lon="4.59221">
        <ele>290.1</ele>
        <time>2020-06-25T08:17:48Z</time>
      </trkpt>
      <trkpt lat="49.84276" lon="4.59225">
        <ele>290.1</ele>
        <time>2020-06-25T08:17:49Z</time>
      </trkpt>
      <trkpt lat="49.84274" lon="4.5923">
        <ele>290</ele>
        <time>2020-06-25T08:17:50Z</time>
      </trkpt>
      <trkpt lat="49.84271" lon="4.59235">
        <ele>290</ele>
        <time>2020-06-25T08:17:51Z</time>
      </trkpt>
      <trkpt lat="49.84269" lon="4.5924">
        <ele>289.9</ele>
        <time>2020-06-25T08:17:52Z</time>
      </trkpt>
      <trkpt lat="49.84267" lon="4.59244">
        <ele>289.9</ele>
        <time>2020-06-25T08:17:53Z</time>
      </trkpt>
      <trkpt lat="49.84266" lon="4.59249">
        <ele>289.9</ele>
        <time>2020-06-25T08:17:54Z</time>
      </trkpt>
      <trkpt lat="49.84264" lon="4.59253">
        <ele>289.9</ele>
        <time>2020-06-25T08:17:55Z</time>
      </trkpt>
      <trkpt lat="49.84261" lon="4.59257">
        <ele>289.8</ele>
        <time>2020-06-25T08:17:56Z</time>
      </trkpt>
      <trkpt lat="49.84259" lon="4.59262">
        <ele>289.7</ele>
        <time>2020-06-25T08:17:57Z</time>
      </trkpt>
      <trkpt lat="49.84257" lon="4.59266">
        <ele>289.7</ele>
        <time>2020-06-25T08:17:58Z</time>
      </trkpt>
      <trkpt lat="49.84254" lon="4.59271">
        <ele>289.6</ele>
        <time>2020-06-25T08:17:59Z</time>
      </trkpt>
      <trkpt lat="49.84251" lon="4.59276">
        <ele>289.4</ele>
        <time>2020-06-25T08:18:00Z</time>
      </trkpt>
      <trkpt lat="49.84248" lon="4.59282">
        <ele>289.3</ele>
        <time>2020-06-25T08:18:01Z</time>
      </trkpt>
      <trkpt lat="49.84245" lon="4.59287">
        <ele>289.1</ele>
        <time>2020-06-25T08:18:02Z</time>
      </trkpt>
      <trkpt lat="49.84242" lon="4.59293">
        <ele>288.9</ele>
        <time>2020-06-25T08:18:03Z</time>
      </trkpt>
      <trkpt lat="49.8424" lon="4.59298">
        <ele>288.8</ele>
        <time>2020-06-25T08:18:04Z</time>
      </trkpt>
      <trkpt lat="49.84237" lon="4.59306">
        <ele>288.6</ele>
        <time>2020-06-25T08:18:05Z</time>
      </trkpt>
      <trkpt lat="49.84233" lon="4.59312">
        <ele>288.4</ele>
        <time>2020-06-25T08:18:06Z</time>
      </trkpt>
      <trkpt lat="49.84231" lon="4.59319">
        <ele>288.2</ele>
        <time>2020-06-25T08:18:07Z</time>
      </trkpt>
      <trkpt lat="49.84229" lon="4.59327">
        <ele>288</ele>
        <time>2020-06-25T08:18:08Z</time>
      </trkpt>
      <trkpt lat="49.84226" lon="4.59335">
        <ele>287.8</ele>
        <time>2020-06-25T08:18:09Z</time>
      </trkpt>
      <trkpt lat="49.84224" lon="4.59343">
        <ele>287.6</ele>
        <time>2020-06-25T08:18:10Z</time>
      </trkpt>
      <trkpt lat="49.84222" lon="4.59352">
        <ele>287.4</ele>
        <time>2020-06-25T08:18:11Z</time>
      </trkpt>
      <trkpt lat="49.8422" lon="4.5936">
        <ele>287.3</ele>
        <time>2020-06-25T08:18:12Z</time>
      </trkpt>
      <trkpt lat="49.84218" lon="4.59369">
        <ele>287.1</ele>
        <time>2020-06-25T08:18:13Z</time>
      </trkpt>
      <trkpt lat="49.84217" lon="4.59378">
        <ele>286.9</ele>
        <time>2020-06-25T08:18:14Z</time>
      </trkpt>
      <trkpt lat="49.84216" lon="4.59387">
        <ele>286.8</ele>
        <time>2020-06-25T08:18:15Z</time>
      </trkpt>
      <trkpt lat="49.84214" lon="4.59397">
        <ele>286.6</ele>
        <time>2020-06-25T08:18:16Z</time>
      </trkpt>
      <trkpt lat="49.84213" lon="4.59406">
        <ele>286.5</ele>
        <time>2020-06-25T08:18:17Z</time>
      </trkpt>
      <trkpt lat="49.84211" lon="4.59415">
        <ele>286.3</ele>
        <time>2020-06-25T08:18:18Z</time>
      </trkpt>
      <trkpt lat="49.84209" lon="4.59424">
        <ele>286.2</ele>
        <time>2020-06-25T08:18:19Z</time>
      </trkpt>
      <trkpt lat="49.84207" lon="4.59434">
        <ele>286</ele>
        <time>2020-06-25T08:18:20Z</time>
      </trkpt>
      <trkpt lat="49.84205" lon="4.59442">
        <ele>285.8</ele>
        <time>2020-06-25T08:18:21Z</time>
      </trkpt>
      <trkpt lat="49.84204" lon="4.59451">
        <ele>285.7</ele>
        <time>2020-06-25T08:18:22Z</time>
      </trkpt>
      <trkpt lat="49.84203" lon="4.59459">
        <ele>285.5</ele>
        <time>2020-06-25T08:18:23Z</time>
      </trkpt>
      <trkpt lat="49.84201" lon="4.59468">
        <ele>285.4</ele>
        <time>2020-06-25T08:18:24Z</time>
      </trkpt>
      <trkpt lat="49.84199" lon="4.59475">
        <ele>285.3</ele>
        <time>2020-06-25T08:18:25Z</time>
      </trkpt>
      <trkpt lat="49.84198" lon="4.59483">
        <ele>285.2</ele>
        <time>2020-06-25T08:18:26Z</time>
      </trkpt>
      <trkpt lat="49.84196" lon="4.59491">
        <ele>285.2</ele>
        <time>2020-06-25T08:18:27Z</time>
      </trkpt>
      <trkpt lat="49.84195" lon="4.59498">
        <ele>285.1</ele>
        <time>2020-06-25T08:18:28Z</time>
      </trkpt>
      <trkpt lat="49.84193" lon="4.59506">
        <ele>285</ele>
        <time>2020-06-25T08:18:29Z</time>
      </trkpt>
      <trkpt lat="49.84192" lon="4.59513">
        <ele>284.9</ele>
        <time>2020-06-25T08:18:30Z</time>
      </trkpt>
      <trkpt lat="49.8419" lon="4.5952">
        <ele>284.8</ele>
        <time>2020-06-25T08:18:31Z</time>
      </trkpt>
      <trkpt lat="49.84189" lon="4.59528">
        <ele>284.7</ele>
        <time>2020-06-25T08:18:32Z</time>
      </trkpt>
      <trkpt lat="49.84187" lon="4.59536">
        <ele>284.7</ele>
        <time>2020-06-25T08:18:33Z</time>
      </trkpt>
      <trkpt lat="49.84185" lon="4.59543">
        <ele>284.6</ele>
        <time>2020-06-25T08:18:34Z</time>
      </trkpt>
      <trkpt lat="49.84185" lon="4.59551">
        <ele>284.6</ele>
        <time>2020-06-25T08:18:35Z</time>
      </trkpt>
      <trkpt lat="49.84183" lon="4.59557">
        <ele>284.5</ele>
        <time>2020-06-25T08:18:36Z</time>
      </trkpt>
      <trkpt lat="49.8418" lon="4.59563">
        <ele>284.5</ele>
        <time>2020-06-25T08:18:37Z</time>
      </trkpt>
      <trkpt lat="49.84178" lon="4.5957">
        <ele>284.5</ele>
        <time>2020-06-25T08:18:38Z</time>
      </trkpt>
      <trkpt lat="49.84176" lon="4.59576">
        <ele>284.5</ele>
        <time>2020-06-25T08:18:39Z</time>
      </trkpt>
      <trkpt lat="49.84174" lon="4.59583">
        <ele>284.4</ele>
        <time>2020-06-25T08:18:40Z</time>
      </trkpt>
      <trkpt lat="49.84173" lon="4.59591">
        <ele>284.4</ele>
        <time>2020-06-25T08:18:41Z</time>
      </trkpt>
      <trkpt lat="49.84171" lon="4.59598">
        <ele>284.3</ele>
        <time>2020-06-25T08:18:42Z</time>
      </trkpt>
      <trkpt lat="49.84169" lon="4.59605">
        <ele>284.2</ele>
        <time>2020-06-25T08:18:43Z</time>
      </trkpt>
      <trkpt lat="49.84168" lon="4.59611">
        <ele>284.1</ele>
        <time>2020-06-25T08:18:44Z</time>
      </trkpt>
      <trkpt lat="49.84166" lon="4.59618">
        <ele>284</ele>
        <time>2020-06-25T08:18:45Z</time>
      </trkpt>
      <trkpt lat="49.84165" lon="4.59625">
        <ele>283.9</ele>
        <time>2020-06-25T08:18:46Z</time>
      </trkpt>
      <trkpt lat="49.84163" lon="4.59633">
        <ele>283.9</ele>
        <time>2020-06-25T08:18:47Z</time>
      </trkpt>
      <trkpt lat="49.84162" lon="4.5964">
        <ele>283.8</ele>
        <time>2020-06-25T08:18:48Z</time>
      </trkpt>
      <trkpt lat="49.84159" lon="4.59648">
        <ele>283.6</ele>
        <time>2020-06-25T08:18:49Z</time>
      </trkpt>
      <trkpt lat="49.84158" lon="4.59656">
        <ele>283.4</ele>
        <time>2020-06-25T08:18:50Z</time>
      </trkpt>
      <trkpt lat="49.84157" lon="4.59664">
        <ele>283.2</ele>
        <time>2020-06-25T08:18:51Z</time>
      </trkpt>
      <trkpt lat="49.84157" lon="4.59673">
        <ele>282.9</ele>
        <time>2020-06-25T08:18:52Z</time>
      </trkpt>
      <trkpt lat="49.84156" lon="4.5968">
        <ele>282.7</ele>
        <time>2020-06-25T08:18:53Z</time>
      </trkpt>
      <trkpt lat="49.84156" lon="4.59688">
        <ele>282.6</ele>
        <time>2020-06-25T08:18:54Z</time>
      </trkpt>
      <trkpt lat="49.84155" lon="4.59696">
        <ele>282.4</ele>
        <time>2020-06-25T08:18:55Z</time>
      </trkpt>
      <trkpt lat="49.84154" lon="4.59704">
        <ele>282.2</ele>
        <time>2020-06-25T08:18:56Z</time>
      </trkpt>
      <trkpt lat="49.84154" lon="4.59712">
        <ele>282</ele>
        <time>2020-06-25T08:18:57Z</time>
      </trkpt>
      <trkpt lat="49.84155" lon="4.59721">
        <ele>281.8</ele>
        <time>2020-06-25T08:18:58Z</time>
      </trkpt>
      <trkpt lat="49.84155" lon="4.5973">
        <ele>281.5</ele>
        <time>2020-06-25T08:18:59Z</time>
      </trkpt>
      <trkpt lat="49.84156" lon="4.5974">
        <ele>281.2</ele>
        <time>2020-06-25T08:19:00Z</time>
      </trkpt>
      <trkpt lat="49.84156" lon="4.59749">
        <ele>281</ele>
        <time>2020-06-25T08:19:01Z</time>
      </trkpt>
      <trkpt lat="49.84157" lon="4.59759">
        <ele>280.7</ele>
        <time>2020-06-25T08:19:02Z</time>
      </trkpt>
      <trkpt lat="49.84158" lon="4.59769">
        <ele>280.3</ele>
        <time>2020-06-25T08:19:03Z</time>
      </trkpt>
      <trkpt lat="49.84159" lon="4.59778">
        <ele>280</ele>
        <time>2020-06-25T08:19:04Z</time>
      </trkpt>
      <trkpt lat="49.84159" lon="4.59788">
        <ele>279.7</ele>
        <time>2020-06-25T08:19:05Z</time>
      </trkpt>
      <trkpt lat="49.84161" lon="4.59797">
        <ele>279.3</ele>
        <time>2020-06-25T08:19:06Z</time>
      </trkpt>
      <trkpt lat="49.84162" lon="4.59805">
        <ele>278.9</ele>
        <time>2020-06-25T08:19:07Z</time>
      </trkpt>
      <trkpt lat="49.84163" lon="4.59814">
        <ele>278.5</ele>
        <time>2020-06-25T08:19:08Z</time>
      </trkpt>
      <trkpt lat="49.84163" lon="4.59824">
        <ele>278.5</ele>
        <time>2020-06-25T08:19:09Z</time>
      </trkpt>
      <trkpt lat="49.84164" lon="4.59835">
        <ele>277.6</ele>
        <time>2020-06-25T08:19:10Z</time>
      </trkpt>
      <trkpt lat="49.84165" lon="4.59846">
        <ele>276.8</ele>
        <time>2020-06-25T08:19:11Z</time>
      </trkpt>
      <trkpt lat="49.84165" lon="4.59859">
        <ele>276</ele>
        <time>2020-06-25T08:19:12Z</time>
      </trkpt>
      <trkpt lat="49.84167" lon="4.59872">
        <ele>275.2</ele>
        <time>2020-06-25T08:19:13Z</time>
      </trkpt>
      <trkpt lat="49.84168" lon="4.59886">
        <ele>274.4</ele>
        <time>2020-06-25T08:19:14Z</time>
      </trkpt>
      <trkpt lat="49.84169" lon="4.599">
        <ele>273.6</ele>
        <time>2020-06-25T08:19:15Z</time>
      </trkpt>
      <trkpt lat="49.8417" lon="4.59915">
        <ele>272.9</ele>
        <time>2020-06-25T08:19:16Z</time>
      </trkpt>
      <trkpt lat="49.84171" lon="4.59929">
        <ele>272.1</ele>
        <time>2020-06-25T08:19:17Z</time>
      </trkpt>
      <trkpt lat="49.8417" lon="4.59944">
        <ele>271.4</ele>
        <time>2020-06-25T08:19:18Z</time>
      </trkpt>
      <trkpt lat="49.84169" lon="4.59959">
        <ele>271</ele>
        <time>2020-06-25T08:19:19Z</time>
      </trkpt>
      <trkpt lat="49.84168" lon="4.59973">
        <ele>270.5</ele>
        <time>2020-06-25T08:19:20Z</time>
      </trkpt>
      <trkpt lat="49.84167" lon="4.59987">
        <ele>270.1</ele>
        <time>2020-06-25T08:19:21Z</time>
      </trkpt>
      <trkpt lat="49.84165" lon="4.60001">
        <ele>269.7</ele>
        <time>2020-06-25T08:19:22Z</time>
      </trkpt>
      <trkpt lat="49.84164" lon="4.60016">
        <ele>269.2</ele>
        <time>2020-06-25T08:19:23Z</time>
      </trkpt>
      <trkpt lat="49.84163" lon="4.6003">
        <ele>268.8</ele>
        <time>2020-06-25T08:19:24Z</time>
      </trkpt>
      <trkpt lat="49.84161" lon="4.60044">
        <ele>268.4</ele>
        <time>2020-06-25T08:19:25Z</time>
      </trkpt>
      <trkpt lat="49.84158" lon="4.60057">
        <ele>268.1</ele>
        <time>2020-06-25T08:19:26Z</time>
      </trkpt>
      <trkpt lat="49.84156" lon="4.6007">
        <ele>267.9</ele>
        <time>2020-06-25T08:19:27Z</time>
      </trkpt>
      <trkpt lat="49.84154" lon="4.60082">
        <ele>267.7</ele>
        <time>2020-06-25T08:19:28Z</time>
      </trkpt>
      <trkpt lat="49.84152" lon="4.60094">
        <ele>267.5</ele>
        <time>2020-06-25T08:19:29Z</time>
      </trkpt>
      <trkpt lat="49.84149" lon="4.60105">
        <ele>267.3</ele>
        <time>2020-06-25T08:19:30Z</time>
      </trkpt>
      <trkpt lat="49.84146" lon="4.60116">
        <ele>267.3</ele>
        <time>2020-06-25T08:19:31Z</time>
      </trkpt>
      <trkpt lat="49.84142" lon="4.60126">
        <ele>267.4</ele>
        <time>2020-06-25T08:19:32Z</time>
      </trkpt>
      <trkpt lat="49.84138" lon="4.60136">
        <ele>267.5</ele>
        <time>2020-06-25T08:19:33Z</time>
      </trkpt>
      <trkpt lat="49.84134" lon="4.60144">
        <ele>267.7</ele>
        <time>2020-06-25T08:19:34Z</time>
      </trkpt>
      <trkpt lat="49.84129" lon="4.60151">
        <ele>267.8</ele>
        <time>2020-06-25T08:19:35Z</time>
      </trkpt>
      <trkpt lat="49.84125" lon="4.60157">
        <ele>268</ele>
        <time>2020-06-25T08:19:36Z</time>
      </trkpt>
      <trkpt lat="49.84121" lon="4.60162">
        <ele>268.2</ele>
        <time>2020-06-25T08:19:37Z</time>
      </trkpt>
      <trkpt lat="49.84116" lon="4.60166">
        <ele>268.4</ele>
        <time>2020-06-25T08:19:38Z</time>
      </trkpt>
      <trkpt lat="49.84112" lon="4.60169">
        <ele>268.5</ele>
        <time>2020-06-25T08:19:39Z</time>
      </trkpt>
      <trkpt lat="49.84107" lon="4.6017">
        <ele>268.6</ele>
        <time>2020-06-25T08:19:40Z</time>
      </trkpt>
      <trkpt lat="49.84103" lon="4.60172">
        <ele>268.2</ele>
        <time>2020-06-25T08:19:41Z</time>
      </trkpt>
      <trkpt lat="49.84097" lon="4.60174">
        <ele>268.2</ele>
        <time>2020-06-25T08:19:42Z</time>
      </trkpt>
      <trkpt lat="49.84092" lon="4.60177">
        <ele>268.4</ele>
        <time>2020-06-25T08:19:43Z</time>
      </trkpt>
      <trkpt lat="49.84087" lon="4.60177">
        <ele>268.6</ele>
        <time>2020-06-25T08:19:44Z</time>
      </trkpt>
      <trkpt lat="49.84082" lon="4.60181">
        <ele>268.9</ele>
        <time>2020-06-25T08:19:45Z</time>
      </trkpt>
      <trkpt lat="49.84077" lon="4.60183">
        <ele>269.1</ele>
        <time>2020-06-25T08:19:46Z</time>
      </trkpt>
      <trkpt lat="49.84073" lon="4.60186">
        <ele>269.3</ele>
        <time>2020-06-25T08:19:47Z</time>
      </trkpt>
      <trkpt lat="49.84069" lon="4.60187">
        <ele>269.5</ele>
        <time>2020-06-25T08:19:48Z</time>
      </trkpt>
      <trkpt lat="49.84065" lon="4.60188">
        <ele>269.7</ele>
        <time>2020-06-25T08:19:49Z</time>
      </trkpt>
      <trkpt lat="49.84062" lon="4.60189">
        <ele>269.9</ele>
        <time>2020-06-25T08:19:50Z</time>
      </trkpt>
      <trkpt lat="49.84058" lon="4.6019">
        <ele>270.1</ele>
        <time>2020-06-25T08:19:51Z</time>
      </trkpt>
      <trkpt lat="49.84055" lon="4.60191">
        <ele>270.2</ele>
        <time>2020-06-25T08:19:52Z</time>
      </trkpt>
      <trkpt lat="49.84052" lon="4.60192">
        <ele>270.4</ele>
        <time>2020-06-25T08:19:53Z</time>
      </trkpt>
      <trkpt lat="49.84048" lon="4.60194">
        <ele>270.6</ele>
        <time>2020-06-25T08:19:54Z</time>
      </trkpt>
      <trkpt lat="49.84047" lon="4.60195">
        <ele>270.7</ele>
        <time>2020-06-25T08:19:55Z</time>
      </trkpt>
      <trkpt lat="49.84044" lon="4.60197">
        <ele>270.9</ele>
        <time>2020-06-25T08:19:56Z</time>
      </trkpt>
      <trkpt lat="49.84041" lon="4.60199">
        <ele>271.1</ele>
        <time>2020-06-25T08:19:57Z</time>
      </trkpt>
      <trkpt lat="49.84038" lon="4.60201">
        <ele>271.3</ele>
        <time>2020-06-25T08:19:58Z</time>
      </trkpt>
      <trkpt lat="49.84034" lon="4.60202">
        <ele>271.5</ele>
        <time>2020-06-25T08:19:59Z</time>
      </trkpt>
      <trkpt lat="49.8403" lon="4.60203">
        <ele>271.8</ele>
        <time>2020-06-25T08:20:00Z</time>
      </trkpt>
      <trkpt lat="49.84027" lon="4.60205">
        <ele>272</ele>
        <time>2020-06-25T08:20:01Z</time>
      </trkpt>
      <trkpt lat="49.84023" lon="4.60207">
        <ele>272.3</ele>
        <time>2020-06-25T08:20:02Z</time>
      </trkpt>
      <trkpt lat="49.84019" lon="4.60209">
        <ele>272.6</ele>
        <time>2020-06-25T08:20:03Z</time>
      </trkpt>
      <trkpt lat="49.84015" lon="4.60211">
        <ele>272.9</ele>
        <time>2020-06-25T08:20:04Z</time>
      </trkpt>
      <trkpt lat="49.84012" lon="4.60212">
        <ele>273.1</ele>
        <time>2020-06-25T08:20:05Z</time>
      </trkpt>
      <trkpt lat="49.84009" lon="4.60214">
        <ele>273.4</ele>
        <time>2020-06-25T08:20:06Z</time>
      </trkpt>
      <trkpt lat="49.84005" lon="4.60216">
        <ele>273.6</ele>
        <time>2020-06-25T08:20:07Z</time>
      </trkpt>
      <trkpt lat="49.84002" lon="4.60216">
        <ele>273.8</ele>
        <time>2020-06-25T08:20:08Z</time>
      </trkpt>
      <trkpt lat="49.83997" lon="4.60218">
        <ele>274.1</ele>
        <time>2020-06-25T08:20:09Z</time>
      </trkpt>
      <trkpt lat="49.83994" lon="4.60219">
        <ele>274.3</ele>
        <time>2020-06-25T08:20:10Z</time>
      </trkpt>
      <trkpt lat="49.83989" lon="4.60219">
        <ele>274.4</ele>
        <time>2020-06-25T08:20:11Z</time>
      </trkpt>
      <trkpt lat="49.83986" lon="4.60221">
        <ele>274.5</ele>
        <time>2020-06-25T08:20:12Z</time>
      </trkpt>
      <trkpt lat="49.83983" lon="4.60222">
        <ele>274.6</ele>
        <time>2020-06-25T08:20:13Z</time>
      </trkpt>
      <trkpt lat="49.83979" lon="4.60223">
        <ele>274.8</ele>
        <time>2020-06-25T08:20:14Z</time>
      </trkpt>
      <trkpt lat="49.83977" lon="4.60223">
        <ele>274.9</ele>
        <time>2020-06-25T08:20:15Z</time>
      </trkpt>
      <trkpt lat="49.83974" lon="4.60224">
        <ele>275</ele>
        <time>2020-06-25T08:20:16Z</time>
      </trkpt>
      <trkpt lat="49.83971" lon="4.60225">
        <ele>275.2</ele>
        <time>2020-06-25T08:20:17Z</time>
      </trkpt>
      <trkpt lat="49.83968" lon="4.60227">
        <ele>275.3</ele>
        <time>2020-06-25T08:20:18Z</time>
      </trkpt>
      <trkpt lat="49.83964" lon="4.60229">
        <ele>275.5</ele>
        <time>2020-06-25T08:20:19Z</time>
      </trkpt>
      <trkpt lat="49.83961" lon="4.6023">
        <ele>275.7</ele>
        <time>2020-06-25T08:20:20Z</time>
      </trkpt>
      <trkpt lat="49.83957" lon="4.60231">
        <ele>275.8</ele>
        <time>2020-06-25T08:20:21Z</time>
      </trkpt>
      <trkpt lat="49.83954" lon="4.60232">
        <ele>275.9</ele>
        <time>2020-06-25T08:20:22Z</time>
      </trkpt>
      <trkpt lat="49.83951" lon="4.60233">
        <ele>276.1</ele>
        <time>2020-06-25T08:20:23Z</time>
      </trkpt>
      <trkpt lat="49.83948" lon="4.60235">
        <ele>276.2</ele>
        <time>2020-06-25T08:20:24Z</time>
      </trkpt>
      <trkpt lat="49.83945" lon="4.60236">
        <ele>276.3</ele>
        <time>2020-06-25T08:20:25Z</time>
      </trkpt>
      <trkpt lat="49.83941" lon="4.60238">
        <ele>276.5</ele>
        <time>2020-06-25T08:20:26Z</time>
      </trkpt>
      <trkpt lat="49.83938" lon="4.6024">
        <ele>276.6</ele>
        <time>2020-06-25T08:20:27Z</time>
      </trkpt>
      <trkpt lat="49.83934" lon="4.60243">
        <ele>276.8</ele>
        <time>2020-06-25T08:20:28Z</time>
      </trkpt>
      <trkpt lat="49.83933" lon="4.60244">
        <ele>276.9</ele>
        <time>2020-06-25T08:20:29Z</time>
      </trkpt>
      <trkpt lat="49.8393" lon="4.60246">
        <ele>277</ele>
        <time>2020-06-25T08:20:30Z</time>
      </trkpt>
      <trkpt lat="49.83926" lon="4.60247">
        <ele>277.1</ele>
        <time>2020-06-25T08:20:31Z</time>
      </trkpt>
      <trkpt lat="49.83923" lon="4.60249">
        <ele>277.2</ele>
        <time>2020-06-25T08:20:32Z</time>
      </trkpt>
      <trkpt lat="49.83922" lon="4.60249">
        <ele>277.2</ele>
        <time>2020-06-25T08:20:33Z</time>
      </trkpt>
      <trkpt lat="49.83919" lon="4.6025">
        <ele>277.3</ele>
        <time>2020-06-25T08:20:34Z</time>
      </trkpt>
      <trkpt lat="49.83918" lon="4.6025">
        <ele>277.3</ele>
        <time>2020-06-25T08:20:35Z</time>
      </trkpt>
      <trkpt lat="49.83915" lon="4.60252">
        <ele>277.4</ele>
        <time>2020-06-25T08:20:36Z</time>
      </trkpt>
      <trkpt lat="49.83912" lon="4.60253">
        <ele>277.4</ele>
        <time>2020-06-25T08:20:37Z</time>
      </trkpt>
      <trkpt lat="49.83908" lon="4.60254">
        <ele>277.4</ele>
        <time>2020-06-25T08:20:38Z</time>
      </trkpt>
      <trkpt lat="49.83903" lon="4.60257">
        <ele>277.4</ele>
        <time>2020-06-25T08:20:39Z</time>
      </trkpt>
      <trkpt lat="49.83901" lon="4.60258">
        <ele>277.4</ele>
        <time>2020-06-25T08:20:40Z</time>
      </trkpt>
      <trkpt lat="49.83898" lon="4.6026">
        <ele>277.4</ele>
        <time>2020-06-25T08:20:41Z</time>
      </trkpt>
      <trkpt lat="49.83894" lon="4.60262">
        <ele>277.4</ele>
        <time>2020-06-25T08:20:42Z</time>
      </trkpt>
      <trkpt lat="49.83891" lon="4.60264">
        <ele>277.4</ele>
        <time>2020-06-25T08:20:43Z</time>
      </trkpt>
      <trkpt lat="49.83888" lon="4.60265">
        <ele>277.4</ele>
        <time>2020-06-25T08:20:44Z</time>
      </trkpt>
      <trkpt lat="49.83883" lon="4.60263">
        <ele>277.4</ele>
        <time>2020-06-25T08:20:45Z</time>
      </trkpt>
      <trkpt lat="49.83879" lon="4.60262">
        <ele>277.4</ele>
        <time>2020-06-25T08:20:46Z</time>
      </trkpt>
      <trkpt lat="49.83876" lon="4.60262">
        <ele>277.4</ele>
        <time>2020-06-25T08:20:47Z</time>
      </trkpt>
      <trkpt lat="49.83873" lon="4.60261">
        <ele>277.3</ele>
        <time>2020-06-25T08:20:48Z</time>
      </trkpt>
      <trkpt lat="49.83871" lon="4.60262">
        <ele>277.3</ele>
        <time>2020-06-25T08:20:49Z</time>
      </trkpt>
      <trkpt lat="49.83868" lon="4.60263">
        <ele>277.3</ele>
        <time>2020-06-25T08:20:50Z</time>
      </trkpt>
      <trkpt lat="49.83866" lon="4.60265">
        <ele>277.2</ele>
        <time>2020-06-25T08:20:51Z</time>
      </trkpt>
      <trkpt lat="49.83862" lon="4.60268">
        <ele>276.9</ele>
        <time>2020-06-25T08:20:52Z</time>
      </trkpt>
      <trkpt lat="49.8386" lon="4.60269">
        <ele>276.9</ele>
        <time>2020-06-25T08:20:53Z</time>
      </trkpt>
      <trkpt lat="49.83857" lon="4.60271">
        <ele>276.7</ele>
        <time>2020-06-25T08:20:54Z</time>
      </trkpt>
      <trkpt lat="49.83852" lon="4.60274">
        <ele>276.4</ele>
        <time>2020-06-25T08:20:55Z</time>
      </trkpt>
      <trkpt lat="49.83849" lon="4.60278">
        <ele>276.2</ele>
        <time>2020-06-25T08:20:56Z</time>
      </trkpt>
      <trkpt lat="49.83845" lon="4.60281">
        <ele>276</ele>
        <time>2020-06-25T08:20:57Z</time>
      </trkpt>
      <trkpt lat="49.83841" lon="4.60284">
        <ele>275.8</ele>
        <time>2020-06-25T08:20:58Z</time>
      </trkpt>
      <trkpt lat="49.83836" lon="4.60288">
        <ele>275.5</ele>
        <time>2020-06-25T08:20:59Z</time>
      </trkpt>
      <trkpt lat="49.83832" lon="4.60291">
        <ele>275.2</ele>
        <time>2020-06-25T08:21:00Z</time>
      </trkpt>
      <trkpt lat="49.83827" lon="4.60295">
        <ele>275</ele>
        <time>2020-06-25T08:21:01Z</time>
      </trkpt>
      <trkpt lat="49.83822" lon="4.60298">
        <ele>274.7</ele>
        <time>2020-06-25T08:21:02Z</time>
      </trkpt>
      <trkpt lat="49.83818" lon="4.60302">
        <ele>274.5</ele>
        <time>2020-06-25T08:21:03Z</time>
      </trkpt>
      <trkpt lat="49.83814" lon="4.60304">
        <ele>274.3</ele>
        <time>2020-06-25T08:21:04Z</time>
      </trkpt>
      <trkpt lat="49.83808" lon="4.60308">
        <ele>273.9</ele>
        <time>2020-06-25T08:21:05Z</time>
      </trkpt>
      <trkpt lat="49.83803" lon="4.60312">
        <ele>273.7</ele>
        <time>2020-06-25T08:21:06Z</time>
      </trkpt>
      <trkpt lat="49.83796" lon="4.60317">
        <ele>273.2</ele>
        <time>2020-06-25T08:21:07Z</time>
      </trkpt>
      <trkpt lat="49.83791" lon="4.6032">
        <ele>273</ele>
        <time>2020-06-25T08:21:08Z</time>
      </trkpt>
      <trkpt lat="49.83785" lon="4.60323">
        <ele>272.7</ele>
        <time>2020-06-25T08:21:09Z</time>
      </trkpt>
      <trkpt lat="49.83777" lon="4.60328">
        <ele>272.4</ele>
        <time>2020-06-25T08:21:10Z</time>
      </trkpt>
      <trkpt lat="49.83769" lon="4.60333">
        <ele>272</ele>
        <time>2020-06-25T08:21:11Z</time>
      </trkpt>
      <trkpt lat="49.83761" lon="4.60338">
        <ele>271.7</ele>
        <time>2020-06-25T08:21:12Z</time>
      </trkpt>
      <trkpt lat="49.83754" lon="4.60343">
        <ele>271.4</ele>
        <time>2020-06-25T08:21:13Z</time>
      </trkpt>
      <trkpt lat="49.83746" lon="4.60348">
        <ele>271.2</ele>
        <time>2020-06-25T08:21:14Z</time>
      </trkpt>
      <trkpt lat="49.83739" lon="4.60353">
        <ele>271</ele>
        <time>2020-06-25T08:21:15Z</time>
      </trkpt>
      <trkpt lat="49.83732" lon="4.60359">
        <ele>270.9</ele>
        <time>2020-06-25T08:21:16Z</time>
      </trkpt>
      <trkpt lat="49.83725" lon="4.60363">
        <ele>270.9</ele>
        <time>2020-06-25T08:21:17Z</time>
      </trkpt>
      <trkpt lat="49.83717" lon="4.60365">
        <ele>270.9</ele>
        <time>2020-06-25T08:21:18Z</time>
      </trkpt>
      <trkpt lat="49.8371" lon="4.60367">
        <ele>271</ele>
        <time>2020-06-25T08:21:19Z</time>
      </trkpt>
      <trkpt lat="49.83703" lon="4.60368">
        <ele>271</ele>
        <time>2020-06-25T08:21:20Z</time>
      </trkpt>
      <trkpt lat="49.83696" lon="4.60369">
        <ele>271.1</ele>
        <time>2020-06-25T08:21:21Z</time>
      </trkpt>
      <trkpt lat="49.8369" lon="4.60371">
        <ele>271.2</ele>
        <time>2020-06-25T08:21:22Z</time>
      </trkpt>
      <trkpt lat="49.83684" lon="4.60373">
        <ele>271.3</ele>
        <time>2020-06-25T08:21:23Z</time>
      </trkpt>
      <trkpt lat="49.83679" lon="4.60374">
        <ele>271.4</ele>
        <time>2020-06-25T08:21:24Z</time>
      </trkpt>
      <trkpt lat="49.83673" lon="4.60374">
        <ele>271.7</ele>
        <time>2020-06-25T08:21:25Z</time>
      </trkpt>
      <trkpt lat="49.83669" lon="4.60379">
        <ele>271.9</ele>
        <time>2020-06-25T08:21:26Z</time>
      </trkpt>
      <trkpt lat="49.83664" lon="4.6038">
        <ele>272</ele>
        <time>2020-06-25T08:21:27Z</time>
      </trkpt>
      <trkpt lat="49.83659" lon="4.6038">
        <ele>272.2</ele>
        <time>2020-06-25T08:21:28Z</time>
      </trkpt>
      <trkpt lat="49.83654" lon="4.60381">
        <ele>272.4</ele>
        <time>2020-06-25T08:21:29Z</time>
      </trkpt>
      <trkpt lat="49.83649" lon="4.60382">
        <ele>272.6</ele>
        <time>2020-06-25T08:21:30Z</time>
      </trkpt>
      <trkpt lat="49.83643" lon="4.60382">
        <ele>272.8</ele>
        <time>2020-06-25T08:21:31Z</time>
      </trkpt>
      <trkpt lat="49.83638" lon="4.60382">
        <ele>273</ele>
        <time>2020-06-25T08:21:32Z</time>
      </trkpt>
      <trkpt lat="49.83632" lon="4.60382">
        <ele>273.2</ele>
        <time>2020-06-25T08:21:33Z</time>
      </trkpt>
      <trkpt lat="49.83627" lon="4.60382">
        <ele>273.4</ele>
        <time>2020-06-25T08:21:34Z</time>
      </trkpt>
      <trkpt lat="49.83622" lon="4.60383">
        <ele>273.5</ele>
        <time>2020-06-25T08:21:35Z</time>
      </trkpt>
      <trkpt lat="49.83617" lon="4.60384">
        <ele>273.7</ele>
        <time>2020-06-25T08:21:36Z</time>
      </trkpt>
      <trkpt lat="49.83613" lon="4.60385">
        <ele>273.8</ele>
        <time>2020-06-25T08:21:37Z</time>
      </trkpt>
      <trkpt lat="49.83608" lon="4.60388">
        <ele>273.9</ele>
        <time>2020-06-25T08:21:38Z</time>
      </trkpt>
      <trkpt lat="49.83603" lon="4.6039">
        <ele>274.1</ele>
        <time>2020-06-25T08:21:39Z</time>
      </trkpt>
      <trkpt lat="49.83598" lon="4.60392">
        <ele>274.2</ele>
        <time>2020-06-25T08:21:40Z</time>
      </trkpt>
      <trkpt lat="49.83594" lon="4.60393">
        <ele>274.2</ele>
        <time>2020-06-25T08:21:41Z</time>
      </trkpt>
      <trkpt lat="49.83589" lon="4.60393">
        <ele>274.3</ele>
        <time>2020-06-25T08:21:42Z</time>
      </trkpt>
      <trkpt lat="49.83585" lon="4.60394">
        <ele>274.3</ele>
        <time>2020-06-25T08:21:43Z</time>
      </trkpt>
      <trkpt lat="49.83582" lon="4.60394">
        <ele>274.2</ele>
        <time>2020-06-25T08:21:44Z</time>
      </trkpt>
      <trkpt lat="49.83578" lon="4.60397">
        <ele>274.2</ele>
        <time>2020-06-25T08:21:45Z</time>
      </trkpt>
      <trkpt lat="49.83577" lon="4.60398">
        <ele>274.1</ele>
        <time>2020-06-25T08:21:46Z</time>
      </trkpt>
      <trkpt lat="49.83574" lon="4.60401">
        <ele>274.1</ele>
        <time>2020-06-25T08:21:47Z</time>
      </trkpt>
      <trkpt lat="49.83572" lon="4.60404">
        <ele>274.2</ele>
        <time>2020-06-25T08:21:48Z</time>
      </trkpt>
      <trkpt lat="49.83569" lon="4.60408">
        <ele>274.2</ele>
        <time>2020-06-25T08:21:49Z</time>
      </trkpt>
      <trkpt lat="49.83568" lon="4.6041">
        <ele>274.3</ele>
        <time>2020-06-25T08:21:50Z</time>
      </trkpt>
      <trkpt lat="49.83566" lon="4.60416">
        <ele>274.3</ele>
        <time>2020-06-25T08:21:51Z</time>
      </trkpt>
      <trkpt lat="49.83566" lon="4.60418">
        <ele>274.3</ele>
        <time>2020-06-25T08:21:52Z</time>
      </trkpt>
      <trkpt lat="49.83563" lon="4.60423">
        <ele>274.3</ele>
        <time>2020-06-25T08:21:53Z</time>
      </trkpt>
      <trkpt lat="49.83557" lon="4.60428">
        <ele>274.2</ele>
        <time>2020-06-25T08:21:54Z</time>
      </trkpt>
      <trkpt lat="49.83553" lon="4.60433">
        <ele>274.2</ele>
        <time>2020-06-25T08:21:55Z</time>
      </trkpt>
      <trkpt lat="49.8355" lon="4.60438">
        <ele>274.1</ele>
        <time>2020-06-25T08:21:56Z</time>
      </trkpt>
      <trkpt lat="49.83551" lon="4.60446">
        <ele>274.4</ele>
        <time>2020-06-25T08:21:57Z</time>
      </trkpt>
      <trkpt lat="49.83552" lon="4.60454">
        <ele>274.5</ele>
        <time>2020-06-25T08:21:58Z</time>
      </trkpt>
      <trkpt lat="49.83552" lon="4.6046">
        <ele>274.7</ele>
        <time>2020-06-25T08:21:59Z</time>
      </trkpt>
      <trkpt lat="49.83554" lon="4.60466">
        <ele>274.8</ele>
        <time>2020-06-25T08:22:00Z</time>
      </trkpt>
      <trkpt lat="49.83555" lon="4.60471">
        <ele>274.9</ele>
        <time>2020-06-25T08:22:01Z</time>
      </trkpt>
      <trkpt lat="49.83555" lon="4.60476">
        <ele>275</ele>
        <time>2020-06-25T08:22:02Z</time>
      </trkpt>
      <trkpt lat="49.83555" lon="4.60483">
        <ele>275.2</ele>
        <time>2020-06-25T08:22:03Z</time>
      </trkpt>
      <trkpt lat="49.83555" lon="4.60489">
        <ele>275.3</ele>
        <time>2020-06-25T08:22:04Z</time>
      </trkpt>
      <trkpt lat="49.83554" lon="4.60495">
        <ele>275.4</ele>
        <time>2020-06-25T08:22:05Z</time>
      </trkpt>
      <trkpt lat="49.83553" lon="4.60501">
        <ele>275.5</ele>
        <time>2020-06-25T08:22:06Z</time>
      </trkpt>
      <trkpt lat="49.83552" lon="4.60508">
        <ele>275.6</ele>
        <time>2020-06-25T08:22:07Z</time>
      </trkpt>
      <trkpt lat="49.83551" lon="4.60515">
        <ele>275.8</ele>
        <time>2020-06-25T08:22:08Z</time>
      </trkpt>
      <trkpt lat="49.8355" lon="4.60522">
        <ele>276</ele>
        <time>2020-06-25T08:22:09Z</time>
      </trkpt>
      <trkpt lat="49.83549" lon="4.60529">
        <ele>276.2</ele>
        <time>2020-06-25T08:22:10Z</time>
      </trkpt>
      <trkpt lat="49.83549" lon="4.60536">
        <ele>276.3</ele>
        <time>2020-06-25T08:22:11Z</time>
      </trkpt>
      <trkpt lat="49.83548" lon="4.60542">
        <ele>276.5</ele>
        <time>2020-06-25T08:22:12Z</time>
      </trkpt>
      <trkpt lat="49.83547" lon="4.60549">
        <ele>276.7</ele>
        <time>2020-06-25T08:22:13Z</time>
      </trkpt>
      <trkpt lat="49.83547" lon="4.60555">
        <ele>276.8</ele>
        <time>2020-06-25T08:22:14Z</time>
      </trkpt>
      <trkpt lat="49.83546" lon="4.60561">
        <ele>277</ele>
        <time>2020-06-25T08:22:15Z</time>
      </trkpt>
      <trkpt lat="49.83545" lon="4.60567">
        <ele>277.1</ele>
        <time>2020-06-25T08:22:16Z</time>
      </trkpt>
      <trkpt lat="49.83544" lon="4.60574">
        <ele>277.3</ele>
        <time>2020-06-25T08:22:17Z</time>
      </trkpt>
      <trkpt lat="49.83544" lon="4.60578">
        <ele>277.4</ele>
        <time>2020-06-25T08:22:18Z</time>
      </trkpt>
      <trkpt lat="49.83543" lon="4.60583">
        <ele>277.6</ele>
        <time>2020-06-25T08:22:19Z</time>
      </trkpt>
      <trkpt lat="49.83542" lon="4.60588">
        <ele>277.7</ele>
        <time>2020-06-25T08:22:20Z</time>
      </trkpt>
      <trkpt lat="49.83541" lon="4.60594">
        <ele>277.6</ele>
        <time>2020-06-25T08:22:21Z</time>
      </trkpt>
      <trkpt lat="49.8354" lon="4.606">
        <ele>277.6</ele>
        <time>2020-06-25T08:22:22Z</time>
      </trkpt>
      <trkpt lat="49.83539" lon="4.60606">
        <ele>277.8</ele>
        <time>2020-06-25T08:22:23Z</time>
      </trkpt>
      <trkpt lat="49.83538" lon="4.60612">
        <ele>277.8</ele>
        <time>2020-06-25T08:22:24Z</time>
      </trkpt>
      <trkpt lat="49.83537" lon="4.60618">
        <ele>277.9</ele>
        <time>2020-06-25T08:22:25Z</time>
      </trkpt>
      <trkpt lat="49.83537" lon="4.60624">
        <ele>278</ele>
        <time>2020-06-25T08:22:26Z</time>
      </trkpt>
      <trkpt lat="49.83536" lon="4.60629">
        <ele>278</ele>
        <time>2020-06-25T08:22:27Z</time>
      </trkpt>
      <trkpt lat="49.83536" lon="4.60636">
        <ele>278.2</ele>
        <time>2020-06-25T08:22:28Z</time>
      </trkpt>
      <trkpt lat="49.83535" lon="4.60641">
        <ele>278.3</ele>
        <time>2020-06-25T08:22:29Z</time>
      </trkpt>
      <trkpt lat="49.83535" lon="4.60647">
        <ele>278.4</ele>
        <time>2020-06-25T08:22:30Z</time>
      </trkpt>
      <trkpt lat="49.83534" lon="4.60654">
        <ele>278.5</ele>
        <time>2020-06-25T08:22:31Z</time>
      </trkpt>
      <trkpt lat="49.83533" lon="4.6066">
        <ele>278.7</ele>
        <time>2020-06-25T08:22:32Z</time>
      </trkpt>
      <trkpt lat="49.83532" lon="4.60667">
        <ele>278.8</ele>
        <time>2020-06-25T08:22:33Z</time>
      </trkpt>
      <trkpt lat="49.83531" lon="4.60674">
        <ele>279</ele>
        <time>2020-06-25T08:22:34Z</time>
      </trkpt>
      <trkpt lat="49.83531" lon="4.6068">
        <ele>279.1</ele>
        <time>2020-06-25T08:22:35Z</time>
      </trkpt>
      <trkpt lat="49.8353" lon="4.60685">
        <ele>279.2</ele>
        <time>2020-06-25T08:22:36Z</time>
      </trkpt>
      <trkpt lat="49.83529" lon="4.60693">
        <ele>279.3</ele>
        <time>2020-06-25T08:22:37Z</time>
      </trkpt>
      <trkpt lat="49.83528" lon="4.60699">
        <ele>279.4</ele>
        <time>2020-06-25T08:22:38Z</time>
      </trkpt>
      <trkpt lat="49.83527" lon="4.60705">
        <ele>279.4</ele>
        <time>2020-06-25T08:22:39Z</time>
      </trkpt>
      <trkpt lat="49.83526" lon="4.60712">
        <ele>279.5</ele>
        <time>2020-06-25T08:22:40Z</time>
      </trkpt>
      <trkpt lat="49.83526" lon="4.60719">
        <ele>279.6</ele>
        <time>2020-06-25T08:22:41Z</time>
      </trkpt>
      <trkpt lat="49.83526" lon="4.60725">
        <ele>279.7</ele>
        <time>2020-06-25T08:22:42Z</time>
      </trkpt>
      <trkpt lat="49.83525" lon="4.60731">
        <ele>279.7</ele>
        <time>2020-06-25T08:22:43Z</time>
      </trkpt>
      <trkpt lat="49.83524" lon="4.60736">
        <ele>279.7</ele>
        <time>2020-06-25T08:22:44Z</time>
      </trkpt>
      <trkpt lat="49.83523" lon="4.60742">
        <ele>279.7</ele>
        <time>2020-06-25T08:22:45Z</time>
      </trkpt>
      <trkpt lat="49.83522" lon="4.60747">
        <ele>279.7</ele>
        <time>2020-06-25T08:22:46Z</time>
      </trkpt>
      <trkpt lat="49.83521" lon="4.60751">
        <ele>279.6</ele>
        <time>2020-06-25T08:22:47Z</time>
      </trkpt>
      <trkpt lat="49.8352" lon="4.60758">
        <ele>279.6</ele>
        <time>2020-06-25T08:22:48Z</time>
      </trkpt>
      <trkpt lat="49.83519" lon="4.60766">
        <ele>279.5</ele>
        <time>2020-06-25T08:22:49Z</time>
      </trkpt>
      <trkpt lat="49.83518" lon="4.60772">
        <ele>279.5</ele>
        <time>2020-06-25T08:22:50Z</time>
      </trkpt>
      <trkpt lat="49.83516" lon="4.60778">
        <ele>279.4</ele>
        <time>2020-06-25T08:22:51Z</time>
      </trkpt>
      <trkpt lat="49.83514" lon="4.60785">
        <ele>279.3</ele>
        <time>2020-06-25T08:22:52Z</time>
      </trkpt>
      <trkpt lat="49.83513" lon="4.60791">
        <ele>279.1</ele>
        <time>2020-06-25T08:22:53Z</time>
      </trkpt>
      <trkpt lat="49.83512" lon="4.60797">
        <ele>279</ele>
        <time>2020-06-25T08:22:54Z</time>
      </trkpt>
      <trkpt lat="49.83511" lon="4.60804">
        <ele>278.9</ele>
        <time>2020-06-25T08:22:55Z</time>
      </trkpt>
      <trkpt lat="49.8351" lon="4.60811">
        <ele>278.7</ele>
        <time>2020-06-25T08:22:56Z</time>
      </trkpt>
      <trkpt lat="49.83509" lon="4.60818">
        <ele>278.6</ele>
        <time>2020-06-25T08:22:57Z</time>
      </trkpt>
      <trkpt lat="49.83508" lon="4.60827">
        <ele>278.4</ele>
        <time>2020-06-25T08:22:58Z</time>
      </trkpt>
      <trkpt lat="49.83508" lon="4.60837">
        <ele>278.2</ele>
        <time>2020-06-25T08:22:59Z</time>
      </trkpt>
      <trkpt lat="49.83507" lon="4.60846">
        <ele>278</ele>
        <time>2020-06-25T08:23:00Z</time>
      </trkpt>
      <trkpt lat="49.83507" lon="4.60855">
        <ele>277.8</ele>
        <time>2020-06-25T08:23:01Z</time>
      </trkpt>
      <trkpt lat="49.83507" lon="4.60864">
        <ele>277.6</ele>
        <time>2020-06-25T08:23:02Z</time>
      </trkpt>
      <trkpt lat="49.83508" lon="4.60872">
        <ele>277.5</ele>
        <time>2020-06-25T08:23:03Z</time>
      </trkpt>
      <trkpt lat="49.83508" lon="4.60881">
        <ele>277.3</ele>
        <time>2020-06-25T08:23:04Z</time>
      </trkpt>
      <trkpt lat="49.83507" lon="4.60892">
        <ele>277.1</ele>
        <time>2020-06-25T08:23:05Z</time>
      </trkpt>
      <trkpt lat="49.83507" lon="4.60903">
        <ele>276.9</ele>
        <time>2020-06-25T08:23:06Z</time>
      </trkpt>
      <trkpt lat="49.83507" lon="4.60914">
        <ele>276.8</ele>
        <time>2020-06-25T08:23:07Z</time>
      </trkpt>
      <trkpt lat="49.83507" lon="4.60925">
        <ele>276.6</ele>
        <time>2020-06-25T08:23:08Z</time>
      </trkpt>
      <trkpt lat="49.83506" lon="4.60936">
        <ele>276.5</ele>
        <time>2020-06-25T08:23:09Z</time>
      </trkpt>
      <trkpt lat="49.83506" lon="4.60946">
        <ele>276.4</ele>
        <time>2020-06-25T08:23:10Z</time>
      </trkpt>
      <trkpt lat="49.83506" lon="4.60956">
        <ele>276.4</ele>
        <time>2020-06-25T08:23:11Z</time>
      </trkpt>
      <trkpt lat="49.83506" lon="4.60967">
        <ele>276.2</ele>
        <time>2020-06-25T08:23:12Z</time>
      </trkpt>
      <trkpt lat="49.83506" lon="4.60978">
        <ele>276.2</ele>
        <time>2020-06-25T08:23:13Z</time>
      </trkpt>
      <trkpt lat="49.83505" lon="4.60988">
        <ele>276.1</ele>
        <time>2020-06-25T08:23:14Z</time>
      </trkpt>
      <trkpt lat="49.83505" lon="4.60997">
        <ele>276</ele>
        <time>2020-06-25T08:23:15Z</time>
      </trkpt>
      <trkpt lat="49.83504" lon="4.61008">
        <ele>275.9</ele>
        <time>2020-06-25T08:23:16Z</time>
      </trkpt>
      <trkpt lat="49.83504" lon="4.61017">
        <ele>275.8</ele>
        <time>2020-06-25T08:23:17Z</time>
      </trkpt>
      <trkpt lat="49.83503" lon="4.61026">
        <ele>275.7</ele>
        <time>2020-06-25T08:23:18Z</time>
      </trkpt>
      <trkpt lat="49.83504" lon="4.61036">
        <ele>275.6</ele>
        <time>2020-06-25T08:23:19Z</time>
      </trkpt>
      <trkpt lat="49.83504" lon="4.61045">
        <ele>275.5</ele>
        <time>2020-06-25T08:23:20Z</time>
      </trkpt>
      <trkpt lat="49.83503" lon="4.61053">
        <ele>275.4</ele>
        <time>2020-06-25T08:23:21Z</time>
      </trkpt>
      <trkpt lat="49.83503" lon="4.61062">
        <ele>275.2</ele>
        <time>2020-06-25T08:23:22Z</time>
      </trkpt>
      <trkpt lat="49.83503" lon="4.61071">
        <ele>275.1</ele>
        <time>2020-06-25T08:23:23Z</time>
      </trkpt>
      <trkpt lat="49.83503" lon="4.6108">
        <ele>275</ele>
        <time>2020-06-25T08:23:24Z</time>
      </trkpt>
      <trkpt lat="49.83502" lon="4.6109">
        <ele>274.9</ele>
        <time>2020-06-25T08:23:25Z</time>
      </trkpt>
      <trkpt lat="49.83503" lon="4.61099">
        <ele>274.7</ele>
        <time>2020-06-25T08:23:26Z</time>
      </trkpt>
      <trkpt lat="49.83503" lon="4.61109">
        <ele>274.6</ele>
        <time>2020-06-25T08:23:27Z</time>
      </trkpt>
      <trkpt lat="49.83502" lon="4.61118">
        <ele>274.4</ele>
        <time>2020-06-25T08:23:28Z</time>
      </trkpt>
      <trkpt lat="49.83501" lon="4.61127">
        <ele>274.3</ele>
        <time>2020-06-25T08:23:29Z</time>
      </trkpt>
      <trkpt lat="49.835" lon="4.61137">
        <ele>274.1</ele>
        <time>2020-06-25T08:23:30Z</time>
      </trkpt>
      <trkpt lat="49.83499" lon="4.61146">
        <ele>273.9</ele>
        <time>2020-06-25T08:23:31Z</time>
      </trkpt>
      <trkpt lat="49.83498" lon="4.61155">
        <ele>273.7</ele>
        <time>2020-06-25T08:23:32Z</time>
      </trkpt>
      <trkpt lat="49.83496" lon="4.61164">
        <ele>273.5</ele>
        <time>2020-06-25T08:23:33Z</time>
      </trkpt>
      <trkpt lat="49.83495" lon="4.61173">
        <ele>273.4</ele>
        <time>2020-06-25T08:23:34Z</time>
      </trkpt>
      <trkpt lat="49.83494" lon="4.61182">
        <ele>273.2</ele>
        <time>2020-06-25T08:23:35Z</time>
      </trkpt>
      <trkpt lat="49.83492" lon="4.61192">
        <ele>272.9</ele>
        <time>2020-06-25T08:23:36Z</time>
      </trkpt>
      <trkpt lat="49.83491" lon="4.61201">
        <ele>272.7</ele>
        <time>2020-06-25T08:23:37Z</time>
      </trkpt>
      <trkpt lat="49.83489" lon="4.61211">
        <ele>272.5</ele>
        <time>2020-06-25T08:23:38Z</time>
      </trkpt>
      <trkpt lat="49.83486" lon="4.6122">
        <ele>272.3</ele>
        <time>2020-06-25T08:23:39Z</time>
      </trkpt>
      <trkpt lat="49.83484" lon="4.6123">
        <ele>272.1</ele>
        <time>2020-06-25T08:23:40Z</time>
      </trkpt>
      <trkpt lat="49.83482" lon="4.61239">
        <ele>271.9</ele>
        <time>2020-06-25T08:23:41Z</time>
      </trkpt>
      <trkpt lat="49.8348" lon="4.61248">
        <ele>271.7</ele>
        <time>2020-06-25T08:23:42Z</time>
      </trkpt>
      <trkpt lat="49.83477" lon="4.61257">
        <ele>271.6</ele>
        <time>2020-06-25T08:23:43Z</time>
      </trkpt>
      <trkpt lat="49.83474" lon="4.61266">
        <ele>271.4</ele>
        <time>2020-06-25T08:23:44Z</time>
      </trkpt>
      <trkpt lat="49.83472" lon="4.61274">
        <ele>271.3</ele>
        <time>2020-06-25T08:23:45Z</time>
      </trkpt>
      <trkpt lat="49.8347" lon="4.61284">
        <ele>271.1</ele>
        <time>2020-06-25T08:23:46Z</time>
      </trkpt>
      <trkpt lat="49.83467" lon="4.61294">
        <ele>270.9</ele>
        <time>2020-06-25T08:23:47Z</time>
      </trkpt>
      <trkpt lat="49.83464" lon="4.61303">
        <ele>270.8</ele>
        <time>2020-06-25T08:23:48Z</time>
      </trkpt>
      <trkpt lat="49.83461" lon="4.61312">
        <ele>270.6</ele>
        <time>2020-06-25T08:23:49Z</time>
      </trkpt>
      <trkpt lat="49.83459" lon="4.61321">
        <ele>270.5</ele>
        <time>2020-06-25T08:23:50Z</time>
      </trkpt>
      <trkpt lat="49.83457" lon="4.6133">
        <ele>270.4</ele>
        <time>2020-06-25T08:23:51Z</time>
      </trkpt>
      <trkpt lat="49.83455" lon="4.61339">
        <ele>270.3</ele>
        <time>2020-06-25T08:23:52Z</time>
      </trkpt>
      <trkpt lat="49.83454" lon="4.61348">
        <ele>269.9</ele>
        <time>2020-06-25T08:23:53Z</time>
      </trkpt>
      <trkpt lat="49.83453" lon="4.61358">
        <ele>269.7</ele>
        <time>2020-06-25T08:23:54Z</time>
      </trkpt>
      <trkpt lat="49.83452" lon="4.61367">
        <ele>269.4</ele>
        <time>2020-06-25T08:23:55Z</time>
      </trkpt>
      <trkpt lat="49.83451" lon="4.61376">
        <ele>269.2</ele>
        <time>2020-06-25T08:23:56Z</time>
      </trkpt>
      <trkpt lat="49.83451" lon="4.61386">
        <ele>268.9</ele>
        <time>2020-06-25T08:23:57Z</time>
      </trkpt>
      <trkpt lat="49.83451" lon="4.61395">
        <ele>268.6</ele>
        <time>2020-06-25T08:23:58Z</time>
      </trkpt>
      <trkpt lat="49.8345" lon="4.61405">
        <ele>268.3</ele>
        <time>2020-06-25T08:23:59Z</time>
      </trkpt>
      <trkpt lat="49.83449" lon="4.61415">
        <ele>267.9</ele>
        <time>2020-06-25T08:24:00Z</time>
      </trkpt>
      <trkpt lat="49.83449" lon="4.61426">
        <ele>267.5</ele>
        <time>2020-06-25T08:24:01Z</time>
      </trkpt>
      <trkpt lat="49.83448" lon="4.61436">
        <ele>267.2</ele>
        <time>2020-06-25T08:24:02Z</time>
      </trkpt>
      <trkpt lat="49.83446" lon="4.61446">
        <ele>266.8</ele>
        <time>2020-06-25T08:24:03Z</time>
      </trkpt>
      <trkpt lat="49.83445" lon="4.61457">
        <ele>266.5</ele>
        <time>2020-06-25T08:24:04Z</time>
      </trkpt>
      <trkpt lat="49.83444" lon="4.61468">
        <ele>266.1</ele>
        <time>2020-06-25T08:24:05Z</time>
      </trkpt>
      <trkpt lat="49.83442" lon="4.6148">
        <ele>265.7</ele>
        <time>2020-06-25T08:24:06Z</time>
      </trkpt>
      <trkpt lat="49.83439" lon="4.61491">
        <ele>265.3</ele>
        <time>2020-06-25T08:24:07Z</time>
      </trkpt>
      <trkpt lat="49.83438" lon="4.61503">
        <ele>265</ele>
        <time>2020-06-25T08:24:08Z</time>
      </trkpt>
      <trkpt lat="49.83436" lon="4.61514">
        <ele>264.7</ele>
        <time>2020-06-25T08:24:09Z</time>
      </trkpt>
      <trkpt lat="49.83433" lon="4.61525">
        <ele>264.4</ele>
        <time>2020-06-25T08:24:10Z</time>
      </trkpt>
      <trkpt lat="49.8343" lon="4.61536">
        <ele>264.1</ele>
        <time>2020-06-25T08:24:11Z</time>
      </trkpt>
      <trkpt lat="49.83427" lon="4.61547">
        <ele>263.8</ele>
        <time>2020-06-25T08:24:12Z</time>
      </trkpt>
      <trkpt lat="49.83422" lon="4.61557">
        <ele>263.5</ele>
        <time>2020-06-25T08:24:13Z</time>
      </trkpt>
      <trkpt lat="49.83419" lon="4.61568">
        <ele>263.2</ele>
        <time>2020-06-25T08:24:14Z</time>
      </trkpt>
      <trkpt lat="49.83414" lon="4.61578">
        <ele>262.9</ele>
        <time>2020-06-25T08:24:15Z</time>
      </trkpt>
      <trkpt lat="49.8341" lon="4.61589">
        <ele>262.7</ele>
        <time>2020-06-25T08:24:16Z</time>
      </trkpt>
      <trkpt lat="49.83406" lon="4.61599">
        <ele>262.5</ele>
        <time>2020-06-25T08:24:17Z</time>
      </trkpt>
      <trkpt lat="49.83402" lon="4.61609">
        <ele>262.4</ele>
        <time>2020-06-25T08:24:18Z</time>
      </trkpt>
      <trkpt lat="49.83398" lon="4.6162">
        <ele>262.2</ele>
        <time>2020-06-25T08:24:19Z</time>
      </trkpt>
      <trkpt lat="49.83393" lon="4.6163">
        <ele>262.1</ele>
        <time>2020-06-25T08:24:20Z</time>
      </trkpt>
      <trkpt lat="49.83388" lon="4.6164">
        <ele>261.9</ele>
        <time>2020-06-25T08:24:21Z</time>
      </trkpt>
      <trkpt lat="49.83384" lon="4.6165">
        <ele>261.8</ele>
        <time>2020-06-25T08:24:22Z</time>
      </trkpt>
      <trkpt lat="49.8338" lon="4.61661">
        <ele>261.8</ele>
        <time>2020-06-25T08:24:23Z</time>
      </trkpt>
      <trkpt lat="49.83376" lon="4.61671">
        <ele>261.7</ele>
        <time>2020-06-25T08:24:24Z</time>
      </trkpt>
      <trkpt lat="49.83371" lon="4.61681">
        <ele>261.6</ele>
        <time>2020-06-25T08:24:25Z</time>
      </trkpt>
      <trkpt lat="49.83367" lon="4.61691">
        <ele>261.5</ele>
        <time>2020-06-25T08:24:26Z</time>
      </trkpt>
      <trkpt lat="49.83364" lon="4.61701">
        <ele>261.4</ele>
        <time>2020-06-25T08:24:27Z</time>
      </trkpt>
      <trkpt lat="49.83361" lon="4.61711">
        <ele>261.4</ele>
        <time>2020-06-25T08:24:28Z</time>
      </trkpt>
      <trkpt lat="49.83359" lon="4.61722">
        <ele>261.2</ele>
        <time>2020-06-25T08:24:29Z</time>
      </trkpt>
      <trkpt lat="49.83357" lon="4.61733">
        <ele>261.1</ele>
        <time>2020-06-25T08:24:30Z</time>
      </trkpt>
      <trkpt lat="49.83356" lon="4.61743">
        <ele>261</ele>
        <time>2020-06-25T08:24:31Z</time>
      </trkpt>
      <trkpt lat="49.83355" lon="4.61754">
        <ele>260.9</ele>
        <time>2020-06-25T08:24:32Z</time>
      </trkpt>
      <trkpt lat="49.83354" lon="4.61765">
        <ele>260.7</ele>
        <time>2020-06-25T08:24:33Z</time>
      </trkpt>
      <trkpt lat="49.83353" lon="4.61775">
        <ele>260.6</ele>
        <time>2020-06-25T08:24:34Z</time>
      </trkpt>
      <trkpt lat="49.83353" lon="4.61786">
        <ele>260.5</ele>
        <time>2020-06-25T08:24:35Z</time>
      </trkpt>
      <trkpt lat="49.83352" lon="4.61796">
        <ele>260.5</ele>
        <time>2020-06-25T08:24:36Z</time>
      </trkpt>
      <trkpt lat="49.83351" lon="4.61806">
        <ele>260.4</ele>
        <time>2020-06-25T08:24:37Z</time>
      </trkpt>
      <trkpt lat="49.8335" lon="4.61816">
        <ele>260.4</ele>
        <time>2020-06-25T08:24:38Z</time>
      </trkpt>
      <trkpt lat="49.83349" lon="4.61826">
        <ele>260.3</ele>
        <time>2020-06-25T08:24:39Z</time>
      </trkpt>
      <trkpt lat="49.83348" lon="4.61836">
        <ele>260.3</ele>
        <time>2020-06-25T08:24:40Z</time>
      </trkpt>
      <trkpt lat="49.83347" lon="4.61846">
        <ele>260.3</ele>
        <time>2020-06-25T08:24:41Z</time>
      </trkpt>
      <trkpt lat="49.83346" lon="4.61856">
        <ele>260.2</ele>
        <time>2020-06-25T08:24:42Z</time>
      </trkpt>
      <trkpt lat="49.83344" lon="4.61866">
        <ele>260.2</ele>
        <time>2020-06-25T08:24:43Z</time>
      </trkpt>
      <trkpt lat="49.83343" lon="4.61876">
        <ele>260.1</ele>
        <time>2020-06-25T08:24:44Z</time>
      </trkpt>
      <trkpt lat="49.8334" lon="4.61885">
        <ele>260.1</ele>
        <time>2020-06-25T08:24:45Z</time>
      </trkpt>
      <trkpt lat="49.83338" lon="4.61895">
        <ele>260</ele>
        <time>2020-06-25T08:24:46Z</time>
      </trkpt>
      <trkpt lat="49.83337" lon="4.61905">
        <ele>260</ele>
        <time>2020-06-25T08:24:47Z</time>
      </trkpt>
      <trkpt lat="49.83335" lon="4.61915">
        <ele>259.9</ele>
        <time>2020-06-25T08:24:48Z</time>
      </trkpt>
      <trkpt lat="49.83333" lon="4.61925">
        <ele>259.8</ele>
        <time>2020-06-25T08:24:49Z</time>
      </trkpt>
      <trkpt lat="49.83331" lon="4.61934">
        <ele>259.8</ele>
        <time>2020-06-25T08:24:50Z</time>
      </trkpt>
      <trkpt lat="49.83329" lon="4.61944">
        <ele>259.7</ele>
        <time>2020-06-25T08:24:51Z</time>
      </trkpt>
      <trkpt lat="49.83328" lon="4.61954">
        <ele>259.7</ele>
        <time>2020-06-25T08:24:52Z</time>
      </trkpt>
      <trkpt lat="49.83327" lon="4.61963">
        <ele>259.6</ele>
        <time>2020-06-25T08:24:53Z</time>
      </trkpt>
      <trkpt lat="49.83325" lon="4.61973">
        <ele>259.6</ele>
        <time>2020-06-25T08:24:54Z</time>
      </trkpt>
      <trkpt lat="49.83323" lon="4.61982">
        <ele>259.5</ele>
        <time>2020-06-25T08:24:55Z</time>
      </trkpt>
      <trkpt lat="49.8332" lon="4.61991">
        <ele>259.4</ele>
        <time>2020-06-25T08:24:56Z</time>
      </trkpt>
      <trkpt lat="49.83318" lon="4.62">
        <ele>259.4</ele>
        <time>2020-06-25T08:24:57Z</time>
      </trkpt>
      <trkpt lat="49.83316" lon="4.6201">
        <ele>259.4</ele>
        <time>2020-06-25T08:24:58Z</time>
      </trkpt>
      <trkpt lat="49.83316" lon="4.6202">
        <ele>259.3</ele>
        <time>2020-06-25T08:24:59Z</time>
      </trkpt>
      <trkpt lat="49.83315" lon="4.62029">
        <ele>259.3</ele>
        <time>2020-06-25T08:25:00Z</time>
      </trkpt>
      <trkpt lat="49.83313" lon="4.62038">
        <ele>259.3</ele>
        <time>2020-06-25T08:25:01Z</time>
      </trkpt>
      <trkpt lat="49.83311" lon="4.62047">
        <ele>259.3</ele>
        <time>2020-06-25T08:25:02Z</time>
      </trkpt>
      <trkpt lat="49.83309" lon="4.62056">
        <ele>259.2</ele>
        <time>2020-06-25T08:25:03Z</time>
      </trkpt>
      <trkpt lat="49.83309" lon="4.62064">
        <ele>259.2</ele>
        <time>2020-06-25T08:25:04Z</time>
      </trkpt>
      <trkpt lat="49.8331" lon="4.62073">
        <ele>259.2</ele>
        <time>2020-06-25T08:25:05Z</time>
      </trkpt>
      <trkpt lat="49.83309" lon="4.62082">
        <ele>259.1</ele>
        <time>2020-06-25T08:25:06Z</time>
      </trkpt>
      <trkpt lat="49.83308" lon="4.62091">
        <ele>259.1</ele>
        <time>2020-06-25T08:25:07Z</time>
      </trkpt>
      <trkpt lat="49.83308" lon="4.62099">
        <ele>259.1</ele>
        <time>2020-06-25T08:25:08Z</time>
      </trkpt>
      <trkpt lat="49.83307" lon="4.62108">
        <ele>259.1</ele>
        <time>2020-06-25T08:25:09Z</time>
      </trkpt>
      <trkpt lat="49.83307" lon="4.62116">
        <ele>259.1</ele>
        <time>2020-06-25T08:25:10Z</time>
      </trkpt>
      <trkpt lat="49.83306" lon="4.62124">
        <ele>259.1</ele>
        <time>2020-06-25T08:25:11Z</time>
      </trkpt>
      <trkpt lat="49.83305" lon="4.62132">
        <ele>259.1</ele>
        <time>2020-06-25T08:25:12Z</time>
      </trkpt>
      <trkpt lat="49.83304" lon="4.62141">
        <ele>259.1</ele>
        <time>2020-06-25T08:25:13Z</time>
      </trkpt>
      <trkpt lat="49.83304" lon="4.6215">
        <ele>259.1</ele>
        <time>2020-06-25T08:25:14Z</time>
      </trkpt>
      <trkpt lat="49.83303" lon="4.62159">
        <ele>259.1</ele>
        <time>2020-06-25T08:25:15Z</time>
      </trkpt>
      <trkpt lat="49.83303" lon="4.62168">
        <ele>259.1</ele>
        <time>2020-06-25T08:25:16Z</time>
      </trkpt>
      <trkpt lat="49.83302" lon="4.62178">
        <ele>259.2</ele>
        <time>2020-06-25T08:25:17Z</time>
      </trkpt>
      <trkpt lat="49.83301" lon="4.62187">
        <ele>259.2</ele>
        <time>2020-06-25T08:25:18Z</time>
      </trkpt>
      <trkpt lat="49.83301" lon="4.62196">
        <ele>259.3</ele>
        <time>2020-06-25T08:25:19Z</time>
      </trkpt>
      <trkpt lat="49.833" lon="4.62206">
        <ele>259.4</ele>
        <time>2020-06-25T08:25:20Z</time>
      </trkpt>
      <trkpt lat="49.83299" lon="4.62215">
        <ele>259.5</ele>
        <time>2020-06-25T08:25:21Z</time>
      </trkpt>
      <trkpt lat="49.83297" lon="4.62224">
        <ele>259.6</ele>
        <time>2020-06-25T08:25:22Z</time>
      </trkpt>
      <trkpt lat="49.83297" lon="4.62233">
        <ele>259.7</ele>
        <time>2020-06-25T08:25:23Z</time>
      </trkpt>
      <trkpt lat="49.83297" lon="4.62241">
        <ele>259.8</ele>
        <time>2020-06-25T08:25:24Z</time>
      </trkpt>
      <trkpt lat="49.83296" lon="4.62249">
        <ele>259.9</ele>
        <time>2020-06-25T08:25:25Z</time>
      </trkpt>
      <trkpt lat="49.83296" lon="4.62256">
        <ele>260</ele>
        <time>2020-06-25T08:25:26Z</time>
      </trkpt>
      <trkpt lat="49.83295" lon="4.62263">
        <ele>260.1</ele>
        <time>2020-06-25T08:25:27Z</time>
      </trkpt>
      <trkpt lat="49.83295" lon="4.62271">
        <ele>260.3</ele>
        <time>2020-06-25T08:25:28Z</time>
      </trkpt>
      <trkpt lat="49.83295" lon="4.62278">
        <ele>260.4</ele>
        <time>2020-06-25T08:25:29Z</time>
      </trkpt>
      <trkpt lat="49.83295" lon="4.62286">
        <ele>260.6</ele>
        <time>2020-06-25T08:25:30Z</time>
      </trkpt>
      <trkpt lat="49.83294" lon="4.62292">
        <ele>260.7</ele>
        <time>2020-06-25T08:25:31Z</time>
      </trkpt>
      <trkpt lat="49.83294" lon="4.62299">
        <ele>260.8</ele>
        <time>2020-06-25T08:25:32Z</time>
      </trkpt>
      <trkpt lat="49.83294" lon="4.62306">
        <ele>260.9</ele>
        <time>2020-06-25T08:25:33Z</time>
      </trkpt>
      <trkpt lat="49.83294" lon="4.62313">
        <ele>261.1</ele>
        <time>2020-06-25T08:25:34Z</time>
      </trkpt>
      <trkpt lat="49.83293" lon="4.62319">
        <ele>261.2</ele>
        <time>2020-06-25T08:25:35Z</time>
      </trkpt>
      <trkpt lat="49.83293" lon="4.62326">
        <ele>261.3</ele>
        <time>2020-06-25T08:25:36Z</time>
      </trkpt>
      <trkpt lat="49.83292" lon="4.62332">
        <ele>261.4</ele>
        <time>2020-06-25T08:25:37Z</time>
      </trkpt>
      <trkpt lat="49.83292" lon="4.62338">
        <ele>261.5</ele>
        <time>2020-06-25T08:25:38Z</time>
      </trkpt>
      <trkpt lat="49.83292" lon="4.62345">
        <ele>261.7</ele>
        <time>2020-06-25T08:25:39Z</time>
      </trkpt>
      <trkpt lat="49.83292" lon="4.62352">
        <ele>261.7</ele>
        <time>2020-06-25T08:25:40Z</time>
      </trkpt>
      <trkpt lat="49.83291" lon="4.62359">
        <ele>261.8</ele>
        <time>2020-06-25T08:25:41Z</time>
      </trkpt>
      <trkpt lat="49.8329" lon="4.62365">
        <ele>261.9</ele>
        <time>2020-06-25T08:25:42Z</time>
      </trkpt>
      <trkpt lat="49.83291" lon="4.6237">
        <ele>261.9</ele>
        <time>2020-06-25T08:25:43Z</time>
      </trkpt>
      <trkpt lat="49.83291" lon="4.62376">
        <ele>261.9</ele>
        <time>2020-06-25T08:25:44Z</time>
      </trkpt>
      <trkpt lat="49.83292" lon="4.62381">
        <ele>262</ele>
        <time>2020-06-25T08:25:45Z</time>
      </trkpt>
      <trkpt lat="49.83292" lon="4.62387">
        <ele>262</ele>
        <time>2020-06-25T08:25:46Z</time>
      </trkpt>
      <trkpt lat="49.83292" lon="4.62393">
        <ele>261.9</ele>
        <time>2020-06-25T08:25:47Z</time>
      </trkpt>
      <trkpt lat="49.83293" lon="4.62399">
        <ele>261.9</ele>
        <time>2020-06-25T08:25:48Z</time>
      </trkpt>
      <trkpt lat="49.83293" lon="4.62406">
        <ele>261.9</ele>
        <time>2020-06-25T08:25:49Z</time>
      </trkpt>
      <trkpt lat="49.83294" lon="4.62413">
        <ele>261.8</ele>
        <time>2020-06-25T08:25:50Z</time>
      </trkpt>
      <trkpt lat="49.83296" lon="4.6242">
        <ele>261.7</ele>
        <time>2020-06-25T08:25:51Z</time>
      </trkpt>
      <trkpt lat="49.83298" lon="4.62429">
        <ele>261.6</ele>
        <time>2020-06-25T08:25:52Z</time>
      </trkpt>
      <trkpt lat="49.83301" lon="4.62437">
        <ele>261.4</ele>
        <time>2020-06-25T08:25:53Z</time>
      </trkpt>
      <trkpt lat="49.83303" lon="4.62445">
        <ele>261.2</ele>
        <time>2020-06-25T08:25:54Z</time>
      </trkpt>
      <trkpt lat="49.83305" lon="4.62453">
        <ele>261</ele>
        <time>2020-06-25T08:25:55Z</time>
      </trkpt>
      <trkpt lat="49.83307" lon="4.62461">
        <ele>260.7</ele>
        <time>2020-06-25T08:25:56Z</time>
      </trkpt>
      <trkpt lat="49.83309" lon="4.62469">
        <ele>260.4</ele>
        <time>2020-06-25T08:25:57Z</time>
      </trkpt>
      <trkpt lat="49.83312" lon="4.62476">
        <ele>260.1</ele>
        <time>2020-06-25T08:25:58Z</time>
      </trkpt>
      <trkpt lat="49.83316" lon="4.62483">
        <ele>259.8</ele>
        <time>2020-06-25T08:25:59Z</time>
      </trkpt>
      <trkpt lat="49.83322" lon="4.6249">
        <ele>259.3</ele>
        <time>2020-06-25T08:26:00Z</time>
      </trkpt>
      <trkpt lat="49.83329" lon="4.62498">
        <ele>258.8</ele>
        <time>2020-06-25T08:26:01Z</time>
      </trkpt>
      <trkpt lat="49.83335" lon="4.62507">
        <ele>258.2</ele>
        <time>2020-06-25T08:26:02Z</time>
      </trkpt>
      <trkpt lat="49.83342" lon="4.62516">
        <ele>257.7</ele>
        <time>2020-06-25T08:26:03Z</time>
      </trkpt>
      <trkpt lat="49.83348" lon="4.62525">
        <ele>257.3</ele>
        <time>2020-06-25T08:26:04Z</time>
      </trkpt>
      <trkpt lat="49.83354" lon="4.62534">
        <ele>257</ele>
        <time>2020-06-25T08:26:05Z</time>
      </trkpt>
      <trkpt lat="49.8336" lon="4.62541">
        <ele>256.9</ele>
        <time>2020-06-25T08:26:06Z</time>
      </trkpt>
      <trkpt lat="49.83366" lon="4.62552">
        <ele>256.7</ele>
        <time>2020-06-25T08:26:07Z</time>
      </trkpt>
      <trkpt lat="49.8337" lon="4.62563">
        <ele>256.6</ele>
        <time>2020-06-25T08:26:08Z</time>
      </trkpt>
      <trkpt lat="49.83373" lon="4.62574">
        <ele>256.6</ele>
        <time>2020-06-25T08:26:09Z</time>
      </trkpt>
      <trkpt lat="49.83373" lon="4.62584">
        <ele>256.6</ele>
        <time>2020-06-25T08:26:10Z</time>
      </trkpt>
      <trkpt lat="49.83371" lon="4.62597">
        <ele>256.7</ele>
        <time>2020-06-25T08:26:11Z</time>
      </trkpt>
      <trkpt lat="49.83369" lon="4.62607">
        <ele>256.9</ele>
        <time>2020-06-25T08:26:12Z</time>
      </trkpt>
      <trkpt lat="49.83365" lon="4.62616">
        <ele>257</ele>
        <time>2020-06-25T08:26:13Z</time>
      </trkpt>
      <trkpt lat="49.8336" lon="4.62624">
        <ele>257.1</ele>
        <time>2020-06-25T08:26:14Z</time>
      </trkpt>
      <trkpt lat="49.83354" lon="4.62628">
        <ele>257.2</ele>
        <time>2020-06-25T08:26:15Z</time>
      </trkpt>
      <trkpt lat="49.83348" lon="4.62632">
        <ele>257.4</ele>
        <time>2020-06-25T08:26:16Z</time>
      </trkpt>
      <trkpt lat="49.83342" lon="4.62635">
        <ele>257.6</ele>
        <time>2020-06-25T08:26:17Z</time>
      </trkpt>
      <trkpt lat="49.83337" lon="4.62636">
        <ele>257.7</ele>
        <time>2020-06-25T08:26:18Z</time>
      </trkpt>
      <trkpt lat="49.83333" lon="4.62637">
        <ele>257.8</ele>
        <time>2020-06-25T08:26:19Z</time>
      </trkpt>
      <trkpt lat="49.83328" lon="4.62636">
        <ele>257.9</ele>
        <time>2020-06-25T08:26:20Z</time>
      </trkpt>
      <trkpt lat="49.83325" lon="4.62635">
        <ele>258</ele>
        <time>2020-06-25T08:26:21Z</time>
      </trkpt>
      <trkpt lat="49.8332" lon="4.62635">
        <ele>258.1</ele>
        <time>2020-06-25T08:26:22Z</time>
      </trkpt>
      <trkpt lat="49.83316" lon="4.62636">
        <ele>258.2</ele>
        <time>2020-06-25T08:26:23Z</time>
      </trkpt>
      <trkpt lat="49.83312" lon="4.62636">
        <ele>258.6</ele>
        <time>2020-06-25T08:26:24Z</time>
      </trkpt>
      <trkpt lat="49.83308" lon="4.62639">
        <ele>258.7</ele>
        <time>2020-06-25T08:26:25Z</time>
      </trkpt>
      <trkpt lat="49.83306" lon="4.6264">
        <ele>258.8</ele>
        <time>2020-06-25T08:26:26Z</time>
      </trkpt>
      <trkpt lat="49.83303" lon="4.62642">
        <ele>258.9</ele>
        <time>2020-06-25T08:26:27Z</time>
      </trkpt>
      <trkpt lat="49.83298" lon="4.62643">
        <ele>259.1</ele>
        <time>2020-06-25T08:26:28Z</time>
      </trkpt>
      <trkpt lat="49.83297" lon="4.62643">
        <ele>259.1</ele>
        <time>2020-06-25T08:26:29Z</time>
      </trkpt>
      <trkpt lat="49.83294" lon="4.62643">
        <ele>259.2</ele>
        <time>2020-06-25T08:26:30Z</time>
      </trkpt>
      <trkpt lat="49.83293" lon="4.62644">
        <ele>259.2</ele>
        <time>2020-06-25T08:26:31Z</time>
      </trkpt>
      <trkpt lat="49.8329" lon="4.62646">
        <ele>259.3</ele>
        <time>2020-06-25T08:26:32Z</time>
      </trkpt>
      <trkpt lat="49.83288" lon="4.62648">
        <ele>259.3</ele>
        <time>2020-06-25T08:26:33Z</time>
      </trkpt>
      <trkpt lat="49.83284" lon="4.62652">
        <ele>259.4</ele>
        <time>2020-06-25T08:26:34Z</time>
      </trkpt>
      <trkpt lat="49.83281" lon="4.62654">
        <ele>259.5</ele>
        <time>2020-06-25T08:26:35Z</time>
      </trkpt>
      <trkpt lat="49.8328" lon="4.62655">
        <ele>259.5</ele>
        <time>2020-06-25T08:26:36Z</time>
      </trkpt>
      <trkpt lat="49.83277" lon="4.62658">
        <ele>259.5</ele>
        <time>2020-06-25T08:26:37Z</time>
      </trkpt>
      <trkpt lat="49.83275" lon="4.62661">
        <ele>259.5</ele>
        <time>2020-06-25T08:26:38Z</time>
      </trkpt>
      <trkpt lat="49.83273" lon="4.62665">
        <ele>259.5</ele>
        <time>2020-06-25T08:26:39Z</time>
      </trkpt>
      <trkpt lat="49.83272" lon="4.62666">
        <ele>259.5</ele>
        <time>2020-06-25T08:26:40Z</time>
      </trkpt>
      <trkpt lat="49.83267" lon="4.6267">
        <ele>259.5</ele>
        <time>2020-06-25T08:26:41Z</time>
      </trkpt>
      <trkpt lat="49.83265" lon="4.62674">
        <ele>259.5</ele>
        <time>2020-06-25T08:26:42Z</time>
      </trkpt>
      <trkpt lat="49.83263" lon="4.6268">
        <ele>259.5</ele>
        <time>2020-06-25T08:26:43Z</time>
      </trkpt>
      <trkpt lat="49.83261" lon="4.62687">
        <ele>259.4</ele>
        <time>2020-06-25T08:26:44Z</time>
      </trkpt>
      <trkpt lat="49.8326" lon="4.62693">
        <ele>259.3</ele>
        <time>2020-06-25T08:26:45Z</time>
      </trkpt>
      <trkpt lat="49.83259" lon="4.627">
        <ele>259.2</ele>
        <time>2020-06-25T08:26:46Z</time>
      </trkpt>
      <trkpt lat="49.83257" lon="4.62707">
        <ele>259.1</ele>
        <time>2020-06-25T08:26:47Z</time>
      </trkpt>
      <trkpt lat="49.83256" lon="4.62716">
        <ele>259</ele>
        <time>2020-06-25T08:26:48Z</time>
      </trkpt>
      <trkpt lat="49.83254" lon="4.62725">
        <ele>258.9</ele>
        <time>2020-06-25T08:26:49Z</time>
      </trkpt>
      <trkpt lat="49.83252" lon="4.62734">
        <ele>258.8</ele>
        <time>2020-06-25T08:26:50Z</time>
      </trkpt>
      <trkpt lat="49.8325" lon="4.62743">
        <ele>258.6</ele>
        <time>2020-06-25T08:26:51Z</time>
      </trkpt>
      <trkpt lat="49.83248" lon="4.62752">
        <ele>258.4</ele>
        <time>2020-06-25T08:26:52Z</time>
      </trkpt>
      <trkpt lat="49.83245" lon="4.6276">
        <ele>258.2</ele>
        <time>2020-06-25T08:26:53Z</time>
      </trkpt>
      <trkpt lat="49.83242" lon="4.62769">
        <ele>258</ele>
        <time>2020-06-25T08:26:54Z</time>
      </trkpt>
      <trkpt lat="49.83238" lon="4.62777">
        <ele>257.9</ele>
        <time>2020-06-25T08:26:55Z</time>
      </trkpt>
      <trkpt lat="49.83233" lon="4.62787">
        <ele>257.7</ele>
        <time>2020-06-25T08:26:56Z</time>
      </trkpt>
      <trkpt lat="49.83227" lon="4.62793">
        <ele>257.6</ele>
        <time>2020-06-25T08:26:57Z</time>
      </trkpt>
      <trkpt lat="49.83221" lon="4.62802">
        <ele>257.5</ele>
        <time>2020-06-25T08:26:58Z</time>
      </trkpt>
      <trkpt lat="49.83216" lon="4.62809">
        <ele>257.4</ele>
        <time>2020-06-25T08:26:59Z</time>
      </trkpt>
      <trkpt lat="49.83211" lon="4.62816">
        <ele>257.3</ele>
        <time>2020-06-25T08:27:00Z</time>
      </trkpt>
      <trkpt lat="49.83205" lon="4.62822">
        <ele>257.2</ele>
        <time>2020-06-25T08:27:01Z</time>
      </trkpt>
      <trkpt lat="49.832" lon="4.62828">
        <ele>257.1</ele>
        <time>2020-06-25T08:27:02Z</time>
      </trkpt>
      <trkpt lat="49.83195" lon="4.62835">
        <ele>257</ele>
        <time>2020-06-25T08:27:03Z</time>
      </trkpt>
      <trkpt lat="49.83191" lon="4.62842">
        <ele>256.9</ele>
        <time>2020-06-25T08:27:04Z</time>
      </trkpt>
      <trkpt lat="49.83186" lon="4.62849">
        <ele>256.9</ele>
        <time>2020-06-25T08:27:05Z</time>
      </trkpt>
      <trkpt lat="49.83181" lon="4.62855">
        <ele>256.8</ele>
        <time>2020-06-25T08:27:06Z</time>
      </trkpt>
      <trkpt lat="49.83175" lon="4.62861">
        <ele>256.9</ele>
        <time>2020-06-25T08:27:07Z</time>
      </trkpt>
      <trkpt lat="49.83169" lon="4.62865">
        <ele>257</ele>
        <time>2020-06-25T08:27:08Z</time>
      </trkpt>
      <trkpt lat="49.83163" lon="4.62869">
        <ele>257.2</ele>
        <time>2020-06-25T08:27:09Z</time>
      </trkpt>
      <trkpt lat="49.83156" lon="4.62871">
        <ele>257.3</ele>
        <time>2020-06-25T08:27:10Z</time>
      </trkpt>
      <trkpt lat="49.8315" lon="4.62873">
        <ele>257.4</ele>
        <time>2020-06-25T08:27:11Z</time>
      </trkpt>
      <trkpt lat="49.83145" lon="4.62873">
        <ele>257.4</ele>
        <time>2020-06-25T08:27:12Z</time>
      </trkpt>
      <trkpt lat="49.83141" lon="4.62873">
        <ele>257.5</ele>
        <time>2020-06-25T08:27:13Z</time>
      </trkpt>
      <trkpt lat="49.83137" lon="4.62873">
        <ele>257.6</ele>
        <time>2020-06-25T08:27:14Z</time>
      </trkpt>
      <trkpt lat="49.83133" lon="4.62873">
        <ele>257.6</ele>
        <time>2020-06-25T08:27:15Z</time>
      </trkpt>
      <trkpt lat="49.8313" lon="4.62873">
        <ele>257.7</ele>
        <time>2020-06-25T08:27:16Z</time>
      </trkpt>
      <trkpt lat="49.83126" lon="4.62874">
        <ele>257.7</ele>
        <time>2020-06-25T08:27:17Z</time>
      </trkpt>
      <trkpt lat="49.83125" lon="4.62874">
        <ele>257.7</ele>
        <time>2020-06-25T08:27:18Z</time>
      </trkpt>
      <trkpt lat="49.83122" lon="4.62876">
        <ele>257.6</ele>
        <time>2020-06-25T08:27:19Z</time>
      </trkpt>
      <trkpt lat="49.83118" lon="4.62873">
        <ele>257.5</ele>
        <time>2020-06-25T08:27:20Z</time>
      </trkpt>
      <trkpt lat="49.83116" lon="4.62875">
        <ele>257.5</ele>
        <time>2020-06-25T08:27:21Z</time>
      </trkpt>
      <trkpt lat="49.83113" lon="4.62878">
        <ele>257.4</ele>
        <time>2020-06-25T08:27:22Z</time>
      </trkpt>
      <trkpt lat="49.8311" lon="4.62882">
        <ele>257.4</ele>
        <time>2020-06-25T08:27:23Z</time>
      </trkpt>
      <trkpt lat="49.83107" lon="4.62883">
        <ele>257.3</ele>
        <time>2020-06-25T08:27:24Z</time>
      </trkpt>
      <trkpt lat="49.83104" lon="4.62886">
        <ele>257.3</ele>
        <time>2020-06-25T08:27:25Z</time>
      </trkpt>
      <trkpt lat="49.83101" lon="4.62889">
        <ele>257.2</ele>
        <time>2020-06-25T08:27:26Z</time>
      </trkpt>
      <trkpt lat="49.83097" lon="4.62892">
        <ele>257.2</ele>
        <time>2020-06-25T08:27:27Z</time>
      </trkpt>
      <trkpt lat="49.83094" lon="4.62896">
        <ele>257.1</ele>
        <time>2020-06-25T08:27:28Z</time>
      </trkpt>
      <trkpt lat="49.8309" lon="4.62899">
        <ele>257.1</ele>
        <time>2020-06-25T08:27:29Z</time>
      </trkpt>
      <trkpt lat="49.83087" lon="4.62902">
        <ele>257</ele>
        <time>2020-06-25T08:27:30Z</time>
      </trkpt>
      <trkpt lat="49.83083" lon="4.62905">
        <ele>257</ele>
        <time>2020-06-25T08:27:31Z</time>
      </trkpt>
      <trkpt lat="49.8308" lon="4.62908">
        <ele>256.9</ele>
        <time>2020-06-25T08:27:32Z</time>
      </trkpt>
      <trkpt lat="49.83077" lon="4.62909">
        <ele>256.9</ele>
        <time>2020-06-25T08:27:33Z</time>
      </trkpt>
      <trkpt lat="49.83073" lon="4.62909">
        <ele>256.7</ele>
        <time>2020-06-25T08:27:34Z</time>
      </trkpt>
      <trkpt lat="49.83068" lon="4.62908">
        <ele>256.5</ele>
        <time>2020-06-25T08:27:35Z</time>
      </trkpt>
      <trkpt lat="49.83063" lon="4.62907">
        <ele>256.4</ele>
        <time>2020-06-25T08:27:36Z</time>
      </trkpt>
      <trkpt lat="49.83058" lon="4.62906">
        <ele>256.2</ele>
        <time>2020-06-25T08:27:37Z</time>
      </trkpt>
      <trkpt lat="49.83053" lon="4.62905">
        <ele>256</ele>
        <time>2020-06-25T08:27:38Z</time>
      </trkpt>
      <trkpt lat="49.83047" lon="4.62905">
        <ele>255.8</ele>
        <time>2020-06-25T08:27:39Z</time>
      </trkpt>
      <trkpt lat="49.83041" lon="4.62903">
        <ele>255.6</ele>
        <time>2020-06-25T08:27:40Z</time>
      </trkpt>
      <trkpt lat="49.83034" lon="4.62901">
        <ele>255.3</ele>
        <time>2020-06-25T08:27:41Z</time>
      </trkpt>
      <trkpt lat="49.83027" lon="4.62899">
        <ele>255.1</ele>
        <time>2020-06-25T08:27:42Z</time>
      </trkpt>
      <trkpt lat="49.8302" lon="4.62894">
        <ele>254.8</ele>
        <time>2020-06-25T08:27:43Z</time>
      </trkpt>
      <trkpt lat="49.83013" lon="4.62888">
        <ele>254.6</ele>
        <time>2020-06-25T08:27:44Z</time>
      </trkpt>
      <trkpt lat="49.83006" lon="4.62883">
        <ele>254.4</ele>
        <time>2020-06-25T08:27:45Z</time>
      </trkpt>
      <trkpt lat="49.82998" lon="4.62878">
        <ele>254.3</ele>
        <time>2020-06-25T08:27:46Z</time>
      </trkpt>
      <trkpt lat="49.82991" lon="4.62874">
        <ele>254.2</ele>
        <time>2020-06-25T08:27:47Z</time>
      </trkpt>
      <trkpt lat="49.82983" lon="4.62872">
        <ele>254.1</ele>
        <time>2020-06-25T08:27:48Z</time>
      </trkpt>
      <trkpt lat="49.82975" lon="4.62873">
        <ele>253.7</ele>
        <time>2020-06-25T08:27:49Z</time>
      </trkpt>
      <trkpt lat="49.82968" lon="4.62878">
        <ele>253.5</ele>
        <time>2020-06-25T08:27:50Z</time>
      </trkpt>
      <trkpt lat="49.82962" lon="4.62882">
        <ele>253.3</ele>
        <time>2020-06-25T08:27:51Z</time>
      </trkpt>
      <trkpt lat="49.82957" lon="4.62888">
        <ele>253.2</ele>
        <time>2020-06-25T08:27:52Z</time>
      </trkpt>
      <trkpt lat="49.82954" lon="4.62896">
        <ele>253.7</ele>
        <time>2020-06-25T08:27:53Z</time>
      </trkpt>
      <trkpt lat="49.82951" lon="4.62903">
        <ele>254</ele>
        <time>2020-06-25T08:27:54Z</time>
      </trkpt>
      <trkpt lat="49.82946" lon="4.6291">
        <ele>254.2</ele>
        <time>2020-06-25T08:27:55Z</time>
      </trkpt>
      <trkpt lat="49.82944" lon="4.62917">
        <ele>254.5</ele>
        <time>2020-06-25T08:27:56Z</time>
      </trkpt>
      <trkpt lat="49.82941" lon="4.62925">
        <ele>254.7</ele>
        <time>2020-06-25T08:27:57Z</time>
      </trkpt>
      <trkpt lat="49.82938" lon="4.62931">
        <ele>254.9</ele>
        <time>2020-06-25T08:27:58Z</time>
      </trkpt>
      <trkpt lat="49.82935" lon="4.62938">
        <ele>255.1</ele>
        <time>2020-06-25T08:27:59Z</time>
      </trkpt>
      <trkpt lat="49.82932" lon="4.62945">
        <ele>255.4</ele>
        <time>2020-06-25T08:28:00Z</time>
      </trkpt>
      <trkpt lat="49.8293" lon="4.62951">
        <ele>255.6</ele>
        <time>2020-06-25T08:28:01Z</time>
      </trkpt>
      <trkpt lat="49.82927" lon="4.62958">
        <ele>255.8</ele>
        <time>2020-06-25T08:28:02Z</time>
      </trkpt>
      <trkpt lat="49.82924" lon="4.62964">
        <ele>256.1</ele>
        <time>2020-06-25T08:28:03Z</time>
      </trkpt>
      <trkpt lat="49.82921" lon="4.6297">
        <ele>256.3</ele>
        <time>2020-06-25T08:28:04Z</time>
      </trkpt>
      <trkpt lat="49.82919" lon="4.62976">
        <ele>256.5</ele>
        <time>2020-06-25T08:28:05Z</time>
      </trkpt>
      <trkpt lat="49.82917" lon="4.62983">
        <ele>256.8</ele>
        <time>2020-06-25T08:28:06Z</time>
      </trkpt>
      <trkpt lat="49.82915" lon="4.62989">
        <ele>257</ele>
        <time>2020-06-25T08:28:07Z</time>
      </trkpt>
      <trkpt lat="49.82913" lon="4.62996">
        <ele>257.2</ele>
        <time>2020-06-25T08:28:08Z</time>
      </trkpt>
      <trkpt lat="49.82911" lon="4.63003">
        <ele>257.5</ele>
        <time>2020-06-25T08:28:09Z</time>
      </trkpt>
      <trkpt lat="49.82907" lon="4.63011">
        <ele>257.8</ele>
        <time>2020-06-25T08:28:10Z</time>
      </trkpt>
      <trkpt lat="49.82905" lon="4.63019">
        <ele>258.1</ele>
        <time>2020-06-25T08:28:11Z</time>
      </trkpt>
      <trkpt lat="49.82902" lon="4.63025">
        <ele>258.3</ele>
        <time>2020-06-25T08:28:12Z</time>
      </trkpt>
      <trkpt lat="49.829" lon="4.6303">
        <ele>258.4</ele>
        <time>2020-06-25T08:28:13Z</time>
      </trkpt>
      <trkpt lat="49.82897" lon="4.63036">
        <ele>258.6</ele>
        <time>2020-06-25T08:28:14Z</time>
      </trkpt>
      <trkpt lat="49.82895" lon="4.6304">
        <ele>258.7</ele>
        <time>2020-06-25T08:28:15Z</time>
      </trkpt>
      <trkpt lat="49.82893" lon="4.63044">
        <ele>259</ele>
        <time>2020-06-25T08:28:16Z</time>
      </trkpt>
      <trkpt lat="49.8289" lon="4.63052">
        <ele>259</ele>
        <time>2020-06-25T08:28:17Z</time>
      </trkpt>
      <trkpt lat="49.82888" lon="4.63057">
        <ele>259</ele>
        <time>2020-06-25T08:28:18Z</time>
      </trkpt>
      <trkpt lat="49.82886" lon="4.63062">
        <ele>259.1</ele>
        <time>2020-06-25T08:28:19Z</time>
      </trkpt>
      <trkpt lat="49.82883" lon="4.63069">
        <ele>259.1</ele>
        <time>2020-06-25T08:28:20Z</time>
      </trkpt>
      <trkpt lat="49.8288" lon="4.63075">
        <ele>259.1</ele>
        <time>2020-06-25T08:28:21Z</time>
      </trkpt>
      <trkpt lat="49.82878" lon="4.63082">
        <ele>259.1</ele>
        <time>2020-06-25T08:28:22Z</time>
      </trkpt>
      <trkpt lat="49.82876" lon="4.63089">
        <ele>259.1</ele>
        <time>2020-06-25T08:28:23Z</time>
      </trkpt>
      <trkpt lat="49.82874" lon="4.63096">
        <ele>259.1</ele>
        <time>2020-06-25T08:28:24Z</time>
      </trkpt>
      <trkpt lat="49.82872" lon="4.63103">
        <ele>259.1</ele>
        <time>2020-06-25T08:28:25Z</time>
      </trkpt>
      <trkpt lat="49.82871" lon="4.63108">
        <ele>259.1</ele>
        <time>2020-06-25T08:28:26Z</time>
      </trkpt>
      <trkpt lat="49.8287" lon="4.63113">
        <ele>259.1</ele>
        <time>2020-06-25T08:28:27Z</time>
      </trkpt>
      <trkpt lat="49.82868" lon="4.63119">
        <ele>259.1</ele>
        <time>2020-06-25T08:28:28Z</time>
      </trkpt>
      <trkpt lat="49.82866" lon="4.63125">
        <ele>259.1</ele>
        <time>2020-06-25T08:28:29Z</time>
      </trkpt>
      <trkpt lat="49.82865" lon="4.63132">
        <ele>259.1</ele>
        <time>2020-06-25T08:28:30Z</time>
      </trkpt>
      <trkpt lat="49.82863" lon="4.63137">
        <ele>259.1</ele>
        <time>2020-06-25T08:28:31Z</time>
      </trkpt>
      <trkpt lat="49.82861" lon="4.63143">
        <ele>259</ele>
        <time>2020-06-25T08:28:32Z</time>
      </trkpt>
      <trkpt lat="49.8286" lon="4.63149">
        <ele>259</ele>
        <time>2020-06-25T08:28:33Z</time>
      </trkpt>
      <trkpt lat="49.82859" lon="4.63156">
        <ele>258.9</ele>
        <time>2020-06-25T08:28:34Z</time>
      </trkpt>
      <trkpt lat="49.82858" lon="4.63162">
        <ele>258.8</ele>
        <time>2020-06-25T08:28:35Z</time>
      </trkpt>
      <trkpt lat="49.82857" lon="4.63169">
        <ele>258.7</ele>
        <time>2020-06-25T08:28:36Z</time>
      </trkpt>
      <trkpt lat="49.82855" lon="4.63177">
        <ele>258.5</ele>
        <time>2020-06-25T08:28:37Z</time>
      </trkpt>
      <trkpt lat="49.82854" lon="4.63186">
        <ele>258.3</ele>
        <time>2020-06-25T08:28:38Z</time>
      </trkpt>
      <trkpt lat="49.82853" lon="4.63194">
        <ele>258.1</ele>
        <time>2020-06-25T08:28:39Z</time>
      </trkpt>
      <trkpt lat="49.82852" lon="4.632">
        <ele>257.9</ele>
        <time>2020-06-25T08:28:40Z</time>
      </trkpt>
      <trkpt lat="49.82852" lon="4.63208">
        <ele>257.7</ele>
        <time>2020-06-25T08:28:41Z</time>
      </trkpt>
      <trkpt lat="49.82852" lon="4.63216">
        <ele>257.5</ele>
        <time>2020-06-25T08:28:42Z</time>
      </trkpt>
      <trkpt lat="49.82852" lon="4.63226">
        <ele>257.2</ele>
        <time>2020-06-25T08:28:43Z</time>
      </trkpt>
      <trkpt lat="49.82852" lon="4.63236">
        <ele>256.9</ele>
        <time>2020-06-25T08:28:44Z</time>
      </trkpt>
      <trkpt lat="49.82851" lon="4.63247">
        <ele>256.6</ele>
        <time>2020-06-25T08:28:45Z</time>
      </trkpt>
      <trkpt lat="49.82851" lon="4.63257">
        <ele>256.2</ele>
        <time>2020-06-25T08:28:46Z</time>
      </trkpt>
      <trkpt lat="49.82852" lon="4.63266">
        <ele>255.9</ele>
        <time>2020-06-25T08:28:47Z</time>
      </trkpt>
      <trkpt lat="49.82852" lon="4.63277">
        <ele>255.5</ele>
        <time>2020-06-25T08:28:48Z</time>
      </trkpt>
      <trkpt lat="49.82852" lon="4.63288">
        <ele>255.1</ele>
        <time>2020-06-25T08:28:49Z</time>
      </trkpt>
      <trkpt lat="49.82852" lon="4.63298">
        <ele>254.8</ele>
        <time>2020-06-25T08:28:50Z</time>
      </trkpt>
      <trkpt lat="49.82852" lon="4.63311">
        <ele>254.4</ele>
        <time>2020-06-25T08:28:51Z</time>
      </trkpt>
      <trkpt lat="49.82852" lon="4.63324">
        <ele>254</ele>
        <time>2020-06-25T08:28:52Z</time>
      </trkpt>
      <trkpt lat="49.82852" lon="4.63337">
        <ele>253.7</ele>
        <time>2020-06-25T08:28:53Z</time>
      </trkpt>
      <trkpt lat="49.82852" lon="4.6335">
        <ele>253.4</ele>
        <time>2020-06-25T08:28:54Z</time>
      </trkpt>
      <trkpt lat="49.82852" lon="4.63363">
        <ele>253.1</ele>
        <time>2020-06-25T08:28:55Z</time>
      </trkpt>
      <trkpt lat="49.82851" lon="4.63375">
        <ele>253</ele>
        <time>2020-06-25T08:28:56Z</time>
      </trkpt>
      <trkpt lat="49.82851" lon="4.63387">
        <ele>253</ele>
        <time>2020-06-25T08:28:57Z</time>
      </trkpt>
      <trkpt lat="49.8285" lon="4.63399">
        <ele>253</ele>
        <time>2020-06-25T08:28:58Z</time>
      </trkpt>
      <trkpt lat="49.82849" lon="4.6341">
        <ele>253.1</ele>
        <time>2020-06-25T08:28:59Z</time>
      </trkpt>
      <trkpt lat="49.82848" lon="4.63422">
        <ele>253.2</ele>
        <time>2020-06-25T08:29:00Z</time>
      </trkpt>
      <trkpt lat="49.82848" lon="4.63433">
        <ele>253.4</ele>
        <time>2020-06-25T08:29:01Z</time>
      </trkpt>
      <trkpt lat="49.82846" lon="4.63444">
        <ele>253.6</ele>
        <time>2020-06-25T08:29:02Z</time>
      </trkpt>
      <trkpt lat="49.82846" lon="4.63454">
        <ele>253.8</ele>
        <time>2020-06-25T08:29:03Z</time>
      </trkpt>
      <trkpt lat="49.82845" lon="4.63463">
        <ele>254</ele>
        <time>2020-06-25T08:29:04Z</time>
      </trkpt>
      <trkpt lat="49.82844" lon="4.63472">
        <ele>254.3</ele>
        <time>2020-06-25T08:29:05Z</time>
      </trkpt>
      <trkpt lat="49.82843" lon="4.63481">
        <ele>254.6</ele>
        <time>2020-06-25T08:29:06Z</time>
      </trkpt>
      <trkpt lat="49.82842" lon="4.63489">
        <ele>255</ele>
        <time>2020-06-25T08:29:07Z</time>
      </trkpt>
      <trkpt lat="49.82841" lon="4.63497">
        <ele>255.4</ele>
        <time>2020-06-25T08:29:08Z</time>
      </trkpt>
      <trkpt lat="49.8284" lon="4.63505">
        <ele>255.7</ele>
        <time>2020-06-25T08:29:09Z</time>
      </trkpt>
      <trkpt lat="49.82839" lon="4.63512">
        <ele>256.1</ele>
        <time>2020-06-25T08:29:10Z</time>
      </trkpt>
      <trkpt lat="49.82837" lon="4.63518">
        <ele>256.4</ele>
        <time>2020-06-25T08:29:11Z</time>
      </trkpt>
      <trkpt lat="49.82836" lon="4.63524">
        <ele>256.7</ele>
        <time>2020-06-25T08:29:12Z</time>
      </trkpt>
      <trkpt lat="49.82835" lon="4.63529">
        <ele>256.9</ele>
        <time>2020-06-25T08:29:13Z</time>
      </trkpt>
      <trkpt lat="49.82834" lon="4.63534">
        <ele>257.2</ele>
        <time>2020-06-25T08:29:14Z</time>
      </trkpt>
      <trkpt lat="49.82833" lon="4.63538">
        <ele>257.4</ele>
        <time>2020-06-25T08:29:15Z</time>
      </trkpt>
      <trkpt lat="49.82832" lon="4.63543">
        <ele>257.6</ele>
        <time>2020-06-25T08:29:16Z</time>
      </trkpt>
      <trkpt lat="49.82831" lon="4.63547">
        <ele>257.8</ele>
        <time>2020-06-25T08:29:17Z</time>
      </trkpt>
      <trkpt lat="49.82829" lon="4.63552">
        <ele>257.9</ele>
        <time>2020-06-25T08:29:18Z</time>
      </trkpt>
      <trkpt lat="49.82829" lon="4.63556">
        <ele>258.1</ele>
        <time>2020-06-25T08:29:19Z</time>
      </trkpt>
      <trkpt lat="49.82827" lon="4.63561">
        <ele>258.2</ele>
        <time>2020-06-25T08:29:20Z</time>
      </trkpt>
      <trkpt lat="49.82827" lon="4.63566">
        <ele>258.3</ele>
        <time>2020-06-25T08:29:21Z</time>
      </trkpt>
      <trkpt lat="49.82826" lon="4.63571">
        <ele>258.3</ele>
        <time>2020-06-25T08:29:22Z</time>
      </trkpt>
      <trkpt lat="49.82826" lon="4.63576">
        <ele>258.4</ele>
        <time>2020-06-25T08:29:23Z</time>
      </trkpt>
      <trkpt lat="49.82825" lon="4.63582">
        <ele>258.4</ele>
        <time>2020-06-25T08:29:24Z</time>
      </trkpt>
      <trkpt lat="49.82823" lon="4.63587">
        <ele>258.4</ele>
        <time>2020-06-25T08:29:25Z</time>
      </trkpt>
      <trkpt lat="49.82822" lon="4.63591">
        <ele>258.4</ele>
        <time>2020-06-25T08:29:26Z</time>
      </trkpt>
      <trkpt lat="49.82821" lon="4.63595">
        <ele>258.4</ele>
        <time>2020-06-25T08:29:27Z</time>
      </trkpt>
      <trkpt lat="49.8282" lon="4.636">
        <ele>258.4</ele>
        <time>2020-06-25T08:29:28Z</time>
      </trkpt>
      <trkpt lat="49.82819" lon="4.63604">
        <ele>258.4</ele>
        <time>2020-06-25T08:29:29Z</time>
      </trkpt>
      <trkpt lat="49.82818" lon="4.63608">
        <ele>258.4</ele>
        <time>2020-06-25T08:29:30Z</time>
      </trkpt>
      <trkpt lat="49.82816" lon="4.63612">
        <ele>258.3</ele>
        <time>2020-06-25T08:29:31Z</time>
      </trkpt>
      <trkpt lat="49.82816" lon="4.63614">
        <ele>258.3</ele>
        <time>2020-06-25T08:29:32Z</time>
      </trkpt>
      <trkpt lat="49.82815" lon="4.6362">
        <ele>258.3</ele>
        <time>2020-06-25T08:29:33Z</time>
      </trkpt>
      <trkpt lat="49.82815" lon="4.63625">
        <ele>257.8</ele>
        <time>2020-06-25T08:29:34Z</time>
      </trkpt>
      <trkpt lat="49.82814" lon="4.63631">
        <ele>257.6</ele>
        <time>2020-06-25T08:29:35Z</time>
      </trkpt>
      <trkpt lat="49.82813" lon="4.63637">
        <ele>257.3</ele>
        <time>2020-06-25T08:29:36Z</time>
      </trkpt>
      <trkpt lat="49.82813" lon="4.6364">
        <ele>257.2</ele>
        <time>2020-06-25T08:29:37Z</time>
      </trkpt>
      <trkpt lat="49.82813" lon="4.63646">
        <ele>256.9</ele>
        <time>2020-06-25T08:29:38Z</time>
      </trkpt>
      <trkpt lat="49.82812" lon="4.63652">
        <ele>256.6</ele>
        <time>2020-06-25T08:29:39Z</time>
      </trkpt>
      <trkpt lat="49.82811" lon="4.6366">
        <ele>256.3</ele>
        <time>2020-06-25T08:29:40Z</time>
      </trkpt>
      <trkpt lat="49.8281" lon="4.63667">
        <ele>255.9</ele>
        <time>2020-06-25T08:29:41Z</time>
      </trkpt>
      <trkpt lat="49.82809" lon="4.63675">
        <ele>255.5</ele>
        <time>2020-06-25T08:29:42Z</time>
      </trkpt>
      <trkpt lat="49.82808" lon="4.63682">
        <ele>255.2</ele>
        <time>2020-06-25T08:29:43Z</time>
      </trkpt>
      <trkpt lat="49.82808" lon="4.63691">
        <ele>254.7</ele>
        <time>2020-06-25T08:29:44Z</time>
      </trkpt>
      <trkpt lat="49.82807" lon="4.63701">
        <ele>254.2</ele>
        <time>2020-06-25T08:29:45Z</time>
      </trkpt>
      <trkpt lat="49.82806" lon="4.63711">
        <ele>253.7</ele>
        <time>2020-06-25T08:29:46Z</time>
      </trkpt>
      <trkpt lat="49.82805" lon="4.63723">
        <ele>253.1</ele>
        <time>2020-06-25T08:29:47Z</time>
      </trkpt>
      <trkpt lat="49.82804" lon="4.63734">
        <ele>252.6</ele>
        <time>2020-06-25T08:29:48Z</time>
      </trkpt>
      <trkpt lat="49.82803" lon="4.63745">
        <ele>252.1</ele>
        <time>2020-06-25T08:29:49Z</time>
      </trkpt>
      <trkpt lat="49.82802" lon="4.6376">
        <ele>251.5</ele>
        <time>2020-06-25T08:29:50Z</time>
      </trkpt>
      <trkpt lat="49.82801" lon="4.63776">
        <ele>250.9</ele>
        <time>2020-06-25T08:29:51Z</time>
      </trkpt>
      <trkpt lat="49.82799" lon="4.63791">
        <ele>250.4</ele>
        <time>2020-06-25T08:29:52Z</time>
      </trkpt>
      <trkpt lat="49.82798" lon="4.63805">
        <ele>249.8</ele>
        <time>2020-06-25T08:29:53Z</time>
      </trkpt>
      <trkpt lat="49.82796" lon="4.63819">
        <ele>249.3</ele>
        <time>2020-06-25T08:29:54Z</time>
      </trkpt>
      <trkpt lat="49.82794" lon="4.63833">
        <ele>248.5</ele>
        <time>2020-06-25T08:29:55Z</time>
      </trkpt>
      <trkpt lat="49.82791" lon="4.63847">
        <ele>247.7</ele>
        <time>2020-06-25T08:29:56Z</time>
      </trkpt>
      <trkpt lat="49.82788" lon="4.63861">
        <ele>246.8</ele>
        <time>2020-06-25T08:29:57Z</time>
      </trkpt>
      <trkpt lat="49.82785" lon="4.63875">
        <ele>245.8</ele>
        <time>2020-06-25T08:29:58Z</time>
      </trkpt>
      <trkpt lat="49.82781" lon="4.6389">
        <ele>244.7</ele>
        <time>2020-06-25T08:29:59Z</time>
      </trkpt>
      <trkpt lat="49.82777" lon="4.63905">
        <ele>243.6</ele>
        <time>2020-06-25T08:30:00Z</time>
      </trkpt>
      <trkpt lat="49.82772" lon="4.63922">
        <ele>242.3</ele>
        <time>2020-06-25T08:30:01Z</time>
      </trkpt>
      <trkpt lat="49.82767" lon="4.63939">
        <ele>241.1</ele>
        <time>2020-06-25T08:30:02Z</time>
      </trkpt>
      <trkpt lat="49.82762" lon="4.63956">
        <ele>239.8</ele>
        <time>2020-06-25T08:30:03Z</time>
      </trkpt>
      <trkpt lat="49.82756" lon="4.63974">
        <ele>238.4</ele>
        <time>2020-06-25T08:30:04Z</time>
      </trkpt>
      <trkpt lat="49.8275" lon="4.63993">
        <ele>237.1</ele>
        <time>2020-06-25T08:30:05Z</time>
      </trkpt>
      <trkpt lat="49.82744" lon="4.64011">
        <ele>235.8</ele>
        <time>2020-06-25T08:30:06Z</time>
      </trkpt>
      <trkpt lat="49.82738" lon="4.6403">
        <ele>234.7</ele>
        <time>2020-06-25T08:30:07Z</time>
      </trkpt>
      <trkpt lat="49.82732" lon="4.64049">
        <ele>233.6</ele>
        <time>2020-06-25T08:30:08Z</time>
      </trkpt>
      <trkpt lat="49.82726" lon="4.64068">
        <ele>232.4</ele>
        <time>2020-06-25T08:30:09Z</time>
      </trkpt>
      <trkpt lat="49.82722" lon="4.64087">
        <ele>231.3</ele>
        <time>2020-06-25T08:30:10Z</time>
      </trkpt>
      <trkpt lat="49.82719" lon="4.64108">
        <ele>230.2</ele>
        <time>2020-06-25T08:30:11Z</time>
      </trkpt>
      <trkpt lat="49.82716" lon="4.64129">
        <ele>229</ele>
        <time>2020-06-25T08:30:12Z</time>
      </trkpt>
      <trkpt lat="49.82714" lon="4.6415">
        <ele>227.8</ele>
        <time>2020-06-25T08:30:13Z</time>
      </trkpt>
      <trkpt lat="49.82711" lon="4.64171">
        <ele>226.7</ele>
        <time>2020-06-25T08:30:14Z</time>
      </trkpt>
      <trkpt lat="49.82709" lon="4.64192">
        <ele>225.4</ele>
        <time>2020-06-25T08:30:15Z</time>
      </trkpt>
      <trkpt lat="49.82707" lon="4.64213">
        <ele>224.2</ele>
        <time>2020-06-25T08:30:16Z</time>
      </trkpt>
      <trkpt lat="49.82705" lon="4.64235">
        <ele>222.8</ele>
        <time>2020-06-25T08:30:17Z</time>
      </trkpt>
      <trkpt lat="49.82703" lon="4.64257">
        <ele>221.3</ele>
        <time>2020-06-25T08:30:18Z</time>
      </trkpt>
      <trkpt lat="49.827" lon="4.64279">
        <ele>219.7</ele>
        <time>2020-06-25T08:30:19Z</time>
      </trkpt>
      <trkpt lat="49.82698" lon="4.64302">
        <ele>217.8</ele>
        <time>2020-06-25T08:30:20Z</time>
      </trkpt>
      <trkpt lat="49.82697" lon="4.64325">
        <ele>215.9</ele>
        <time>2020-06-25T08:30:21Z</time>
      </trkpt>
      <trkpt lat="49.82695" lon="4.64348">
        <ele>214.1</ele>
        <time>2020-06-25T08:30:22Z</time>
      </trkpt>
      <trkpt lat="49.82693" lon="4.64371">
        <ele>212.6</ele>
        <time>2020-06-25T08:30:23Z</time>
      </trkpt>
      <trkpt lat="49.82691" lon="4.64394">
        <ele>211.1</ele>
        <time>2020-06-25T08:30:24Z</time>
      </trkpt>
      <trkpt lat="49.82688" lon="4.64418">
        <ele>209.8</ele>
        <time>2020-06-25T08:30:25Z</time>
      </trkpt>
      <trkpt lat="49.82686" lon="4.64441">
        <ele>208.9</ele>
        <time>2020-06-25T08:30:26Z</time>
      </trkpt>
      <trkpt lat="49.82682" lon="4.64462">
        <ele>208.7</ele>
        <time>2020-06-25T08:30:27Z</time>
      </trkpt>
      <trkpt lat="49.82678" lon="4.64484">
        <ele>208.7</ele>
        <time>2020-06-25T08:30:28Z</time>
      </trkpt>
      <trkpt lat="49.82674" lon="4.64505">
        <ele>208.9</ele>
        <time>2020-06-25T08:30:29Z</time>
      </trkpt>
      <trkpt lat="49.82668" lon="4.64524">
        <ele>209.1</ele>
        <time>2020-06-25T08:30:30Z</time>
      </trkpt>
      <trkpt lat="49.82663" lon="4.64543">
        <ele>209.5</ele>
        <time>2020-06-25T08:30:31Z</time>
      </trkpt>
      <trkpt lat="49.82659" lon="4.64562">
        <ele>210</ele>
        <time>2020-06-25T08:30:32Z</time>
      </trkpt>
      <trkpt lat="49.82655" lon="4.6458">
        <ele>210.5</ele>
        <time>2020-06-25T08:30:33Z</time>
      </trkpt>
      <trkpt lat="49.8265" lon="4.64596">
        <ele>211</ele>
        <time>2020-06-25T08:30:34Z</time>
      </trkpt>
      <trkpt lat="49.82645" lon="4.6461">
        <ele>211.6</ele>
        <time>2020-06-25T08:30:35Z</time>
      </trkpt>
      <trkpt lat="49.82639" lon="4.64622">
        <ele>212.2</ele>
        <time>2020-06-25T08:30:36Z</time>
      </trkpt>
      <trkpt lat="49.82633" lon="4.64631">
        <ele>212.7</ele>
        <time>2020-06-25T08:30:37Z</time>
      </trkpt>
      <trkpt lat="49.82624" lon="4.64635">
        <ele>213.4</ele>
        <time>2020-06-25T08:30:38Z</time>
      </trkpt>
      <trkpt lat="49.82615" lon="4.64638">
        <ele>214</ele>
        <time>2020-06-25T08:30:39Z</time>
      </trkpt>
      <trkpt lat="49.82607" lon="4.64641">
        <ele>214.6</ele>
        <time>2020-06-25T08:30:40Z</time>
      </trkpt>
      <trkpt lat="49.82601" lon="4.64643">
        <ele>215.1</ele>
        <time>2020-06-25T08:30:41Z</time>
      </trkpt>
      <trkpt lat="49.82595" lon="4.64646">
        <ele>215.6</ele>
        <time>2020-06-25T08:30:42Z</time>
      </trkpt>
      <trkpt lat="49.82588" lon="4.64648">
        <ele>216.3</ele>
        <time>2020-06-25T08:30:43Z</time>
      </trkpt>
      <trkpt lat="49.82582" lon="4.6465">
        <ele>216.7</ele>
        <time>2020-06-25T08:30:44Z</time>
      </trkpt>
      <trkpt lat="49.82578" lon="4.64652">
        <ele>217.1</ele>
        <time>2020-06-25T08:30:45Z</time>
      </trkpt>
      <trkpt lat="49.82573" lon="4.64653">
        <ele>217.6</ele>
        <time>2020-06-25T08:30:46Z</time>
      </trkpt>
      <trkpt lat="49.82567" lon="4.64656">
        <ele>218</ele>
        <time>2020-06-25T08:30:47Z</time>
      </trkpt>
      <trkpt lat="49.82564" lon="4.64656">
        <ele>218.3</ele>
        <time>2020-06-25T08:30:48Z</time>
      </trkpt>
      <trkpt lat="49.82561" lon="4.64658">
        <ele>218.6</ele>
        <time>2020-06-25T08:30:49Z</time>
      </trkpt>
      <trkpt lat="49.82557" lon="4.64663">
        <ele>219</ele>
        <time>2020-06-25T08:30:50Z</time>
      </trkpt>
      <trkpt lat="49.82554" lon="4.64665">
        <ele>219.4</ele>
        <time>2020-06-25T08:30:51Z</time>
      </trkpt>
      <trkpt lat="49.8255" lon="4.64667">
        <ele>219.7</ele>
        <time>2020-06-25T08:30:52Z</time>
      </trkpt>
      <trkpt lat="49.82548" lon="4.6467">
        <ele>220</ele>
        <time>2020-06-25T08:30:53Z</time>
      </trkpt>
      <trkpt lat="49.82545" lon="4.64666">
        <ele>220.3</ele>
        <time>2020-06-25T08:30:54Z</time>
      </trkpt>
      <trkpt lat="49.82543" lon="4.64669">
        <ele>220.6</ele>
        <time>2020-06-25T08:30:55Z</time>
      </trkpt>
      <trkpt lat="49.82542" lon="4.6467">
        <ele>220.7</ele>
        <time>2020-06-25T08:30:56Z</time>
      </trkpt>
      <trkpt lat="49.8254" lon="4.64674">
        <ele>221</ele>
        <time>2020-06-25T08:30:57Z</time>
      </trkpt>
      <trkpt lat="49.8254" lon="4.64676">
        <ele>221.2</ele>
        <time>2020-06-25T08:30:58Z</time>
      </trkpt>
      <trkpt lat="49.82539" lon="4.64681">
        <ele>221.4</ele>
        <time>2020-06-25T08:30:59Z</time>
      </trkpt>
      <trkpt lat="49.82539" lon="4.64681">
        <ele>221.5</ele>
        <time>2020-06-25T08:31:00Z</time>
      </trkpt>
      <trkpt lat="49.82537" lon="4.64685">
        <ele>221.8</ele>
        <time>2020-06-25T08:31:01Z</time>
      </trkpt>
      <trkpt lat="49.82536" lon="4.64686">
        <ele>221.9</ele>
        <time>2020-06-25T08:31:02Z</time>
      </trkpt>
      <trkpt lat="49.82532" lon="4.6469">
        <ele>222.2</ele>
        <time>2020-06-25T08:31:03Z</time>
      </trkpt>
      <trkpt lat="49.8253" lon="4.64693">
        <ele>222.5</ele>
        <time>2020-06-25T08:31:04Z</time>
      </trkpt>
      <trkpt lat="49.82529" lon="4.64697">
        <ele>222.8</ele>
        <time>2020-06-25T08:31:05Z</time>
      </trkpt>
      <trkpt lat="49.82528" lon="4.64698">
        <ele>222.9</ele>
        <time>2020-06-25T08:31:06Z</time>
      </trkpt>
      <trkpt lat="49.82525" lon="4.64699">
        <ele>223.1</ele>
        <time>2020-06-25T08:31:07Z</time>
      </trkpt>
      <trkpt lat="49.82523" lon="4.64701">
        <ele>223.3</ele>
        <time>2020-06-25T08:31:08Z</time>
      </trkpt>
      <trkpt lat="49.82522" lon="4.64702">
        <ele>223.4</ele>
        <time>2020-06-25T08:31:09Z</time>
      </trkpt>
      <trkpt lat="49.8252" lon="4.64703">
        <ele>223.6</ele>
        <time>2020-06-25T08:31:10Z</time>
      </trkpt>
      <trkpt lat="49.82519" lon="4.64705">
        <ele>223.7</ele>
        <time>2020-06-25T08:31:11Z</time>
      </trkpt>
      <trkpt lat="49.82518" lon="4.64707">
        <ele>223.9</ele>
        <time>2020-06-25T08:31:12Z</time>
      </trkpt>
      <trkpt lat="49.82519" lon="4.6471">
        <ele>224</ele>
        <time>2020-06-25T08:31:13Z</time>
      </trkpt>
      <trkpt lat="49.82518" lon="4.64716">
        <ele>224.4</ele>
        <time>2020-06-25T08:31:14Z</time>
      </trkpt>
      <trkpt lat="49.82517" lon="4.64717">
        <ele>224.5</ele>
        <time>2020-06-25T08:31:15Z</time>
      </trkpt>
      <trkpt lat="49.82515" lon="4.6472">
        <ele>224.7</ele>
        <time>2020-06-25T08:31:16Z</time>
      </trkpt>
      <trkpt lat="49.82514" lon="4.64721">
        <ele>224.8</ele>
        <time>2020-06-25T08:31:17Z</time>
      </trkpt>
      <trkpt lat="49.82514" lon="4.64724">
        <ele>225</ele>
        <time>2020-06-25T08:31:18Z</time>
      </trkpt>
      <trkpt lat="49.82512" lon="4.64725">
        <ele>225.1</ele>
        <time>2020-06-25T08:31:19Z</time>
      </trkpt>
      <trkpt lat="49.8251" lon="4.64728">
        <ele>225.3</ele>
        <time>2020-06-25T08:31:20Z</time>
      </trkpt>
      <trkpt lat="49.8251" lon="4.6473">
        <ele>225.4</ele>
        <time>2020-06-25T08:31:21Z</time>
      </trkpt>
      <trkpt lat="49.82508" lon="4.64733">
        <ele>225.7</ele>
        <time>2020-06-25T08:31:22Z</time>
      </trkpt>
      <trkpt lat="49.82507" lon="4.64735">
        <ele>225.8</ele>
        <time>2020-06-25T08:31:23Z</time>
      </trkpt>
      <trkpt lat="49.82505" lon="4.64738">
        <ele>226.1</ele>
        <time>2020-06-25T08:31:24Z</time>
      </trkpt>
      <trkpt lat="49.82503" lon="4.64743">
        <ele>226.4</ele>
        <time>2020-06-25T08:31:25Z</time>
      </trkpt>
      <trkpt lat="49.82503" lon="4.64744">
        <ele>226.5</ele>
        <time>2020-06-25T08:31:26Z</time>
      </trkpt>
      <trkpt lat="49.82501" lon="4.64748">
        <ele>226.8</ele>
        <time>2020-06-25T08:31:27Z</time>
      </trkpt>
      <trkpt lat="49.825" lon="4.64749">
        <ele>226.9</ele>
        <time>2020-06-25T08:31:28Z</time>
      </trkpt>
      <trkpt lat="49.82499" lon="4.64754">
        <ele>227.2</ele>
        <time>2020-06-25T08:31:29Z</time>
      </trkpt>
      <trkpt lat="49.82498" lon="4.64756">
        <ele>227.4</ele>
        <time>2020-06-25T08:31:30Z</time>
      </trkpt>
      <trkpt lat="49.82497" lon="4.6476">
        <ele>227.7</ele>
        <time>2020-06-25T08:31:31Z</time>
      </trkpt>
      <trkpt lat="49.82495" lon="4.64765">
        <ele>228</ele>
        <time>2020-06-25T08:31:32Z</time>
      </trkpt>
      <trkpt lat="49.82494" lon="4.64766">
        <ele>228.1</ele>
        <time>2020-06-25T08:31:33Z</time>
      </trkpt>
      <trkpt lat="49.82492" lon="4.6477">
        <ele>228.4</ele>
        <time>2020-06-25T08:31:34Z</time>
      </trkpt>
      <trkpt lat="49.82492" lon="4.64771">
        <ele>228.5</ele>
        <time>2020-06-25T08:31:35Z</time>
      </trkpt>
      <trkpt lat="49.82491" lon="4.64775">
        <ele>228.8</ele>
        <time>2020-06-25T08:31:36Z</time>
      </trkpt>
      <trkpt lat="49.8249" lon="4.64776">
        <ele>228.9</ele>
        <time>2020-06-25T08:31:37Z</time>
      </trkpt>
      <trkpt lat="49.82489" lon="4.64781">
        <ele>229.3</ele>
        <time>2020-06-25T08:31:38Z</time>
      </trkpt>
      <trkpt lat="49.82488" lon="4.64782">
        <ele>229.4</ele>
        <time>2020-06-25T08:31:39Z</time>
      </trkpt>
      <trkpt lat="49.82486" lon="4.64786">
        <ele>229.7</ele>
        <time>2020-06-25T08:31:40Z</time>
      </trkpt>
      <trkpt lat="49.82486" lon="4.64787">
        <ele>229.8</ele>
        <time>2020-06-25T08:31:41Z</time>
      </trkpt>
      <trkpt lat="49.82484" lon="4.64792">
        <ele>230.2</ele>
        <time>2020-06-25T08:31:42Z</time>
      </trkpt>
      <trkpt lat="49.82483" lon="4.64794">
        <ele>230.3</ele>
        <time>2020-06-25T08:31:43Z</time>
      </trkpt>
      <trkpt lat="49.82482" lon="4.64798">
        <ele>230.6</ele>
        <time>2020-06-25T08:31:44Z</time>
      </trkpt>
      <trkpt lat="49.82481" lon="4.64799">
        <ele>230.7</ele>
        <time>2020-06-25T08:31:45Z</time>
      </trkpt>
      <trkpt lat="49.8248" lon="4.64804">
        <ele>231.1</ele>
        <time>2020-06-25T08:31:46Z</time>
      </trkpt>
      <trkpt lat="49.82479" lon="4.64806">
        <ele>231.3</ele>
        <time>2020-06-25T08:31:47Z</time>
      </trkpt>
      <trkpt lat="49.82477" lon="4.64809">
        <ele>231.6</ele>
        <time>2020-06-25T08:31:48Z</time>
      </trkpt>
      <trkpt lat="49.82475" lon="4.64814">
        <ele>231.9</ele>
        <time>2020-06-25T08:31:49Z</time>
      </trkpt>
      <trkpt lat="49.82475" lon="4.64816">
        <ele>232</ele>
        <time>2020-06-25T08:31:50Z</time>
      </trkpt>
      <trkpt lat="49.82473" lon="4.6482">
        <ele>232.3</ele>
        <time>2020-06-25T08:31:51Z</time>
      </trkpt>
      <trkpt lat="49.82473" lon="4.64821">
        <ele>232.5</ele>
        <time>2020-06-25T08:31:52Z</time>
      </trkpt>
      <trkpt lat="49.82471" lon="4.64825">
        <ele>232.8</ele>
        <time>2020-06-25T08:31:53Z</time>
      </trkpt>
      <trkpt lat="49.82469" lon="4.6483">
        <ele>233.2</ele>
        <time>2020-06-25T08:31:54Z</time>
      </trkpt>
      <trkpt lat="49.82468" lon="4.64831">
        <ele>233.3</ele>
        <time>2020-06-25T08:31:55Z</time>
      </trkpt>
      <trkpt lat="49.82467" lon="4.64837">
        <ele>233.7</ele>
        <time>2020-06-25T08:31:56Z</time>
      </trkpt>
      <trkpt lat="49.82466" lon="4.64838">
        <ele>233.9</ele>
        <time>2020-06-25T08:31:57Z</time>
      </trkpt>
      <trkpt lat="49.82465" lon="4.64845">
        <ele>234.3</ele>
        <time>2020-06-25T08:31:58Z</time>
      </trkpt>
      <trkpt lat="49.82465" lon="4.64847">
        <ele>234.5</ele>
        <time>2020-06-25T08:31:59Z</time>
      </trkpt>
      <trkpt lat="49.82464" lon="4.64851">
        <ele>234.8</ele>
        <time>2020-06-25T08:32:00Z</time>
      </trkpt>
      <trkpt lat="49.82462" lon="4.64856">
        <ele>235.1</ele>
        <time>2020-06-25T08:32:01Z</time>
      </trkpt>
      <trkpt lat="49.82462" lon="4.64857">
        <ele>235.3</ele>
        <time>2020-06-25T08:32:02Z</time>
      </trkpt>
      <trkpt lat="49.8246" lon="4.64862">
        <ele>235.6</ele>
        <time>2020-06-25T08:32:03Z</time>
      </trkpt>
      <trkpt lat="49.82459" lon="4.64864">
        <ele>235.8</ele>
        <time>2020-06-25T08:32:04Z</time>
      </trkpt>
      <trkpt lat="49.82458" lon="4.64868">
        <ele>236.1</ele>
        <time>2020-06-25T08:32:05Z</time>
      </trkpt>
      <trkpt lat="49.82456" lon="4.64872">
        <ele>236.5</ele>
        <time>2020-06-25T08:32:06Z</time>
      </trkpt>
      <trkpt lat="49.82455" lon="4.64873">
        <ele>236.6</ele>
        <time>2020-06-25T08:32:07Z</time>
      </trkpt>
      <trkpt lat="49.82454" lon="4.64877">
        <ele>236.9</ele>
        <time>2020-06-25T08:32:08Z</time>
      </trkpt>
      <trkpt lat="49.82453" lon="4.64879">
        <ele>237</ele>
        <time>2020-06-25T08:32:09Z</time>
      </trkpt>
      <trkpt lat="49.82452" lon="4.64882">
        <ele>237.2</ele>
        <time>2020-06-25T08:32:10Z</time>
      </trkpt>
      <trkpt lat="49.82452" lon="4.64884">
        <ele>237.4</ele>
        <time>2020-06-25T08:32:11Z</time>
      </trkpt>
      <trkpt lat="49.8245" lon="4.64889">
        <ele>237.8</ele>
        <time>2020-06-25T08:32:12Z</time>
      </trkpt>
      <trkpt lat="49.8245" lon="4.64891">
        <ele>237.9</ele>
        <time>2020-06-25T08:32:13Z</time>
      </trkpt>
      <trkpt lat="49.82448" lon="4.64896">
        <ele>238.3</ele>
        <time>2020-06-25T08:32:14Z</time>
      </trkpt>
      <trkpt lat="49.82447" lon="4.64898">
        <ele>238.5</ele>
        <time>2020-06-25T08:32:15Z</time>
      </trkpt>
      <trkpt lat="49.82447" lon="4.64902">
        <ele>238.7</ele>
        <time>2020-06-25T08:32:16Z</time>
      </trkpt>
      <trkpt lat="49.82445" lon="4.64907">
        <ele>239.1</ele>
        <time>2020-06-25T08:32:17Z</time>
      </trkpt>
      <trkpt lat="49.82445" lon="4.64909">
        <ele>239.2</ele>
        <time>2020-06-25T08:32:18Z</time>
      </trkpt>
      <trkpt lat="49.82444" lon="4.64913">
        <ele>239.6</ele>
        <time>2020-06-25T08:32:19Z</time>
      </trkpt>
      <trkpt lat="49.82443" lon="4.64915">
        <ele>239.7</ele>
        <time>2020-06-25T08:32:20Z</time>
      </trkpt>
      <trkpt lat="49.82442" lon="4.6492">
        <ele>240.1</ele>
        <time>2020-06-25T08:32:21Z</time>
      </trkpt>
      <trkpt lat="49.82442" lon="4.64921">
        <ele>240.2</ele>
        <time>2020-06-25T08:32:22Z</time>
      </trkpt>
      <trkpt lat="49.8244" lon="4.64926">
        <ele>240.5</ele>
        <time>2020-06-25T08:32:23Z</time>
      </trkpt>
      <trkpt lat="49.8244" lon="4.64927">
        <ele>240.6</ele>
        <time>2020-06-25T08:32:24Z</time>
      </trkpt>
      <trkpt lat="49.82438" lon="4.6493">
        <ele>240.9</ele>
        <time>2020-06-25T08:32:25Z</time>
      </trkpt>
      <trkpt lat="49.82437" lon="4.64931">
        <ele>241</ele>
        <time>2020-06-25T08:32:26Z</time>
      </trkpt>
      <trkpt lat="49.82436" lon="4.64935">
        <ele>241.2</ele>
        <time>2020-06-25T08:32:27Z</time>
      </trkpt>
      <trkpt lat="49.82435" lon="4.64936">
        <ele>241.3</ele>
        <time>2020-06-25T08:32:28Z</time>
      </trkpt>
      <trkpt lat="49.82434" lon="4.64938">
        <ele>241.5</ele>
        <time>2020-06-25T08:32:29Z</time>
      </trkpt>
      <trkpt lat="49.82433" lon="4.6494">
        <ele>241.6</ele>
        <time>2020-06-25T08:32:30Z</time>
      </trkpt>
      <trkpt lat="49.82432" lon="4.64942">
        <ele>241.8</ele>
        <time>2020-06-25T08:32:31Z</time>
      </trkpt>
      <trkpt lat="49.82431" lon="4.64944">
        <ele>241.9</ele>
        <time>2020-06-25T08:32:32Z</time>
      </trkpt>
      <trkpt lat="49.8243" lon="4.64946">
        <ele>242</ele>
        <time>2020-06-25T08:32:33Z</time>
      </trkpt>
      <trkpt lat="49.82429" lon="4.64948">
        <ele>242.2</ele>
        <time>2020-06-25T08:32:34Z</time>
      </trkpt>
      <trkpt lat="49.82428" lon="4.64951">
        <ele>242.3</ele>
        <time>2020-06-25T08:32:35Z</time>
      </trkpt>
      <trkpt lat="49.82428" lon="4.64953">
        <ele>242.4</ele>
        <time>2020-06-25T08:32:36Z</time>
      </trkpt>
      <trkpt lat="49.82428" lon="4.64954">
        <ele>242.5</ele>
        <time>2020-06-25T08:32:37Z</time>
      </trkpt>
      <trkpt lat="49.82426" lon="4.64958">
        <ele>242.9</ele>
        <time>2020-06-25T08:32:38Z</time>
      </trkpt>
      <trkpt lat="49.82426" lon="4.6496">
        <ele>243</ele>
        <time>2020-06-25T08:32:39Z</time>
      </trkpt>
      <trkpt lat="49.82425" lon="4.64964">
        <ele>243.3</ele>
        <time>2020-06-25T08:32:40Z</time>
      </trkpt>
      <trkpt lat="49.82424" lon="4.64966">
        <ele>243.4</ele>
        <time>2020-06-25T08:32:41Z</time>
      </trkpt>
      <trkpt lat="49.82423" lon="4.64971">
        <ele>243.7</ele>
        <time>2020-06-25T08:32:42Z</time>
      </trkpt>
      <trkpt lat="49.82423" lon="4.64972">
        <ele>243.8</ele>
        <time>2020-06-25T08:32:43Z</time>
      </trkpt>
      <trkpt lat="49.82422" lon="4.64976">
        <ele>244</ele>
        <time>2020-06-25T08:32:44Z</time>
      </trkpt>
      <trkpt lat="49.82422" lon="4.64978">
        <ele>244.1</ele>
        <time>2020-06-25T08:32:45Z</time>
      </trkpt>
      <trkpt lat="49.82422" lon="4.6498">
        <ele>244.2</ele>
        <time>2020-06-25T08:32:46Z</time>
      </trkpt>
      <trkpt lat="49.82421" lon="4.64983">
        <ele>244.4</ele>
        <time>2020-06-25T08:32:47Z</time>
      </trkpt>
      <trkpt lat="49.8242" lon="4.64987">
        <ele>244.7</ele>
        <time>2020-06-25T08:32:48Z</time>
      </trkpt>
      <trkpt lat="49.8242" lon="4.64989">
        <ele>244.8</ele>
        <time>2020-06-25T08:32:49Z</time>
      </trkpt>
      <trkpt lat="49.8242" lon="4.64991">
        <ele>244.9</ele>
        <time>2020-06-25T08:32:50Z</time>
      </trkpt>
      <trkpt lat="49.82419" lon="4.64994">
        <ele>245.1</ele>
        <time>2020-06-25T08:32:51Z</time>
      </trkpt>
      <trkpt lat="49.82419" lon="4.64997">
        <ele>245.2</ele>
        <time>2020-06-25T08:32:52Z</time>
      </trkpt>
      <trkpt lat="49.82418" lon="4.64999">
        <ele>245.4</ele>
        <time>2020-06-25T08:32:53Z</time>
      </trkpt>
      <trkpt lat="49.82417" lon="4.65004">
        <ele>245.7</ele>
        <time>2020-06-25T08:32:54Z</time>
      </trkpt>
      <trkpt lat="49.82417" lon="4.65006">
        <ele>245.8</ele>
        <time>2020-06-25T08:32:55Z</time>
      </trkpt>
      <trkpt lat="49.82417" lon="4.65011">
        <ele>246.2</ele>
        <time>2020-06-25T08:32:56Z</time>
      </trkpt>
      <trkpt lat="49.82417" lon="4.65013">
        <ele>246.3</ele>
        <time>2020-06-25T08:32:57Z</time>
      </trkpt>
      <trkpt lat="49.82416" lon="4.65018">
        <ele>246.6</ele>
        <time>2020-06-25T08:32:58Z</time>
      </trkpt>
      <trkpt lat="49.82415" lon="4.6502">
        <ele>246.7</ele>
        <time>2020-06-25T08:32:59Z</time>
      </trkpt>
      <trkpt lat="49.82415" lon="4.65024">
        <ele>246.9</ele>
        <time>2020-06-25T08:33:00Z</time>
      </trkpt>
      <trkpt lat="49.82415" lon="4.65026">
        <ele>247</ele>
        <time>2020-06-25T08:33:01Z</time>
      </trkpt>
      <trkpt lat="49.82415" lon="4.65031">
        <ele>247.3</ele>
        <time>2020-06-25T08:33:02Z</time>
      </trkpt>
      <trkpt lat="49.82415" lon="4.65032">
        <ele>247.4</ele>
        <time>2020-06-25T08:33:03Z</time>
      </trkpt>
      <trkpt lat="49.82414" lon="4.65037">
        <ele>247.7</ele>
        <time>2020-06-25T08:33:04Z</time>
      </trkpt>
      <trkpt lat="49.82414" lon="4.65039">
        <ele>247.7</ele>
        <time>2020-06-25T08:33:05Z</time>
      </trkpt>
      <trkpt lat="49.82414" lon="4.65041">
        <ele>247.9</ele>
        <time>2020-06-25T08:33:06Z</time>
      </trkpt>
      <trkpt lat="49.82413" lon="4.65044">
        <ele>248</ele>
        <time>2020-06-25T08:33:07Z</time>
      </trkpt>
      <trkpt lat="49.82413" lon="4.65046">
        <ele>248.1</ele>
        <time>2020-06-25T08:33:08Z</time>
      </trkpt>
      <trkpt lat="49.82413" lon="4.65049">
        <ele>248.4</ele>
        <time>2020-06-25T08:33:09Z</time>
      </trkpt>
      <trkpt lat="49.82412" lon="4.6505">
        <ele>248.5</ele>
        <time>2020-06-25T08:33:10Z</time>
      </trkpt>
      <trkpt lat="49.82411" lon="4.65052">
        <ele>248.5</ele>
        <time>2020-06-25T08:33:11Z</time>
      </trkpt>
      <trkpt lat="49.82411" lon="4.65054">
        <ele>248.6</ele>
        <time>2020-06-25T08:33:12Z</time>
      </trkpt>
      <trkpt lat="49.82411" lon="4.65056">
        <ele>248.7</ele>
        <time>2020-06-25T08:33:13Z</time>
      </trkpt>
      <trkpt lat="49.8241" lon="4.65059">
        <ele>248.8</ele>
        <time>2020-06-25T08:33:14Z</time>
      </trkpt>
      <trkpt lat="49.82407" lon="4.65063">
        <ele>249</ele>
        <time>2020-06-25T08:33:15Z</time>
      </trkpt>
      <trkpt lat="49.82406" lon="4.65065">
        <ele>249</ele>
        <time>2020-06-25T08:33:16Z</time>
      </trkpt>
      <trkpt lat="49.82404" lon="4.6507">
        <ele>249.2</ele>
        <time>2020-06-25T08:33:17Z</time>
      </trkpt>
      <trkpt lat="49.82403" lon="4.65071">
        <ele>249.3</ele>
        <time>2020-06-25T08:33:18Z</time>
      </trkpt>
      <trkpt lat="49.82401" lon="4.65075">
        <ele>249.5</ele>
        <time>2020-06-25T08:33:19Z</time>
      </trkpt>
      <trkpt lat="49.824" lon="4.65077">
        <ele>249.5</ele>
        <time>2020-06-25T08:33:20Z</time>
      </trkpt>
      <trkpt lat="49.82398" lon="4.6508">
        <ele>249.7</ele>
        <time>2020-06-25T08:33:21Z</time>
      </trkpt>
      <trkpt lat="49.82396" lon="4.65083">
        <ele>249.8</ele>
        <time>2020-06-25T08:33:22Z</time>
      </trkpt>
      <trkpt lat="49.82394" lon="4.65086">
        <ele>250</ele>
        <time>2020-06-25T08:33:23Z</time>
      </trkpt>
      <trkpt lat="49.82392" lon="4.65089">
        <ele>250.1</ele>
        <time>2020-06-25T08:33:24Z</time>
      </trkpt>
      <trkpt lat="49.8239" lon="4.65092">
        <ele>250.3</ele>
        <time>2020-06-25T08:33:25Z</time>
      </trkpt>
      <trkpt lat="49.82387" lon="4.65095">
        <ele>250.5</ele>
        <time>2020-06-25T08:33:26Z</time>
      </trkpt>
      <trkpt lat="49.82387" lon="4.65097">
        <ele>250.5</ele>
        <time>2020-06-25T08:33:27Z</time>
      </trkpt>
      <trkpt lat="49.82385" lon="4.651">
        <ele>250.7</ele>
        <time>2020-06-25T08:33:28Z</time>
      </trkpt>
      <trkpt lat="49.82384" lon="4.65101">
        <ele>250.7</ele>
        <time>2020-06-25T08:33:29Z</time>
      </trkpt>
      <trkpt lat="49.82382" lon="4.65106">
        <ele>250.9</ele>
        <time>2020-06-25T08:33:30Z</time>
      </trkpt>
      <trkpt lat="49.82382" lon="4.65107">
        <ele>251</ele>
        <time>2020-06-25T08:33:31Z</time>
      </trkpt>
      <trkpt lat="49.8238" lon="4.6511">
        <ele>251.1</ele>
        <time>2020-06-25T08:33:32Z</time>
      </trkpt>
      <trkpt lat="49.82379" lon="4.65111">
        <ele>251.1</ele>
        <time>2020-06-25T08:33:33Z</time>
      </trkpt>
      <trkpt lat="49.82378" lon="4.65116">
        <ele>251.5</ele>
        <time>2020-06-25T08:33:34Z</time>
      </trkpt>
      <trkpt lat="49.82378" lon="4.65117">
        <ele>251.6</ele>
        <time>2020-06-25T08:33:35Z</time>
      </trkpt>
      <trkpt lat="49.82377" lon="4.65121">
        <ele>251.8</ele>
        <time>2020-06-25T08:33:36Z</time>
      </trkpt>
      <trkpt lat="49.82376" lon="4.65123">
        <ele>251.9</ele>
        <time>2020-06-25T08:33:37Z</time>
      </trkpt>
      <trkpt lat="49.82375" lon="4.65128">
        <ele>252.1</ele>
        <time>2020-06-25T08:33:38Z</time>
      </trkpt>
      <trkpt lat="49.82374" lon="4.65131">
        <ele>252.2</ele>
        <time>2020-06-25T08:33:39Z</time>
      </trkpt>
      <trkpt lat="49.82373" lon="4.65135">
        <ele>252.4</ele>
        <time>2020-06-25T08:33:40Z</time>
      </trkpt>
      <trkpt lat="49.82373" lon="4.65137">
        <ele>252.5</ele>
        <time>2020-06-25T08:33:41Z</time>
      </trkpt>
      <trkpt lat="49.82372" lon="4.65141">
        <ele>252.7</ele>
        <time>2020-06-25T08:33:42Z</time>
      </trkpt>
      <trkpt lat="49.82372" lon="4.65142">
        <ele>252.7</ele>
        <time>2020-06-25T08:33:43Z</time>
      </trkpt>
      <trkpt lat="49.82371" lon="4.65147">
        <ele>253</ele>
        <time>2020-06-25T08:33:44Z</time>
      </trkpt>
      <trkpt lat="49.82371" lon="4.65149">
        <ele>253</ele>
        <time>2020-06-25T08:33:45Z</time>
      </trkpt>
      <trkpt lat="49.8237" lon="4.65154">
        <ele>253.3</ele>
        <time>2020-06-25T08:33:46Z</time>
      </trkpt>
      <trkpt lat="49.82369" lon="4.65155">
        <ele>253.3</ele>
        <time>2020-06-25T08:33:47Z</time>
      </trkpt>
      <trkpt lat="49.82368" lon="4.6516">
        <ele>253.6</ele>
        <time>2020-06-25T08:33:48Z</time>
      </trkpt>
      <trkpt lat="49.82368" lon="4.65162">
        <ele>253.6</ele>
        <time>2020-06-25T08:33:49Z</time>
      </trkpt>
      <trkpt lat="49.82367" lon="4.65165">
        <ele>253.8</ele>
        <time>2020-06-25T08:33:50Z</time>
      </trkpt>
      <trkpt lat="49.82366" lon="4.65166">
        <ele>253.9</ele>
        <time>2020-06-25T08:33:51Z</time>
      </trkpt>
      <trkpt lat="49.82365" lon="4.6517">
        <ele>254.1</ele>
        <time>2020-06-25T08:33:52Z</time>
      </trkpt>
      <trkpt lat="49.82364" lon="4.65171">
        <ele>254.2</ele>
        <time>2020-06-25T08:33:53Z</time>
      </trkpt>
      <trkpt lat="49.82362" lon="4.65175">
        <ele>254.4</ele>
        <time>2020-06-25T08:33:54Z</time>
      </trkpt>
      <trkpt lat="49.82362" lon="4.65177">
        <ele>254.5</ele>
        <time>2020-06-25T08:33:55Z</time>
      </trkpt>
      <trkpt lat="49.82361" lon="4.65182">
        <ele>254.7</ele>
        <time>2020-06-25T08:33:56Z</time>
      </trkpt>
      <trkpt lat="49.82361" lon="4.65183">
        <ele>254.8</ele>
        <time>2020-06-25T08:33:57Z</time>
      </trkpt>
      <trkpt lat="49.8236" lon="4.65189">
        <ele>255.1</ele>
        <time>2020-06-25T08:33:58Z</time>
      </trkpt>
      <trkpt lat="49.8236" lon="4.65191">
        <ele>255.2</ele>
        <time>2020-06-25T08:33:59Z</time>
      </trkpt>
      <trkpt lat="49.8236" lon="4.65196">
        <ele>255.3</ele>
        <time>2020-06-25T08:34:00Z</time>
      </trkpt>
      <trkpt lat="49.82359" lon="4.65198">
        <ele>255.3</ele>
        <time>2020-06-25T08:34:01Z</time>
      </trkpt>
      <trkpt lat="49.8236" lon="4.65205">
        <ele>255.4</ele>
        <time>2020-06-25T08:34:02Z</time>
      </trkpt>
      <trkpt lat="49.82359" lon="4.6521">
        <ele>255.5</ele>
        <time>2020-06-25T08:34:03Z</time>
      </trkpt>
      <trkpt lat="49.8236" lon="4.65216">
        <ele>255.7</ele>
        <time>2020-06-25T08:34:04Z</time>
      </trkpt>
      <trkpt lat="49.82359" lon="4.65223">
        <ele>255.8</ele>
        <time>2020-06-25T08:34:05Z</time>
      </trkpt>
      <trkpt lat="49.82359" lon="4.65228">
        <ele>255.8</ele>
        <time>2020-06-25T08:34:06Z</time>
      </trkpt>
      <trkpt lat="49.82359" lon="4.65235">
        <ele>256</ele>
        <time>2020-06-25T08:34:07Z</time>
      </trkpt>
      <trkpt lat="49.82359" lon="4.65242">
        <ele>256</ele>
        <time>2020-06-25T08:34:08Z</time>
      </trkpt>
      <trkpt lat="49.82358" lon="4.65249">
        <ele>256.1</ele>
        <time>2020-06-25T08:34:09Z</time>
      </trkpt>
      <trkpt lat="49.82357" lon="4.65256">
        <ele>256.2</ele>
        <time>2020-06-25T08:34:10Z</time>
      </trkpt>
      <trkpt lat="49.82357" lon="4.65261">
        <ele>256.3</ele>
        <time>2020-06-25T08:34:11Z</time>
      </trkpt>
      <trkpt lat="49.82358" lon="4.65268">
        <ele>256.4</ele>
        <time>2020-06-25T08:34:12Z</time>
      </trkpt>
      <trkpt lat="49.82357" lon="4.65273">
        <ele>256.5</ele>
        <time>2020-06-25T08:34:13Z</time>
      </trkpt>
      <trkpt lat="49.82356" lon="4.65279">
        <ele>256.6</ele>
        <time>2020-06-25T08:34:14Z</time>
      </trkpt>
      <trkpt lat="49.82356" lon="4.65284">
        <ele>256.7</ele>
        <time>2020-06-25T08:34:15Z</time>
      </trkpt>
      <trkpt lat="49.82355" lon="4.6529">
        <ele>256.8</ele>
        <time>2020-06-25T08:34:16Z</time>
      </trkpt>
      <trkpt lat="49.82355" lon="4.65296">
        <ele>256.9</ele>
        <time>2020-06-25T08:34:17Z</time>
      </trkpt>
      <trkpt lat="49.82357" lon="4.65301">
        <ele>257</ele>
        <time>2020-06-25T08:34:18Z</time>
      </trkpt>
      <trkpt lat="49.82358" lon="4.65306">
        <ele>257.1</ele>
        <time>2020-06-25T08:34:19Z</time>
      </trkpt>
      <trkpt lat="49.82359" lon="4.65312">
        <ele>257.2</ele>
        <time>2020-06-25T08:34:20Z</time>
      </trkpt>
      <trkpt lat="49.82359" lon="4.65317">
        <ele>257.3</ele>
        <time>2020-06-25T08:34:21Z</time>
      </trkpt>
      <trkpt lat="49.8236" lon="4.65322">
        <ele>257.4</ele>
        <time>2020-06-25T08:34:22Z</time>
      </trkpt>
      <trkpt lat="49.8236" lon="4.65327">
        <ele>257.5</ele>
        <time>2020-06-25T08:34:23Z</time>
      </trkpt>
      <trkpt lat="49.8236" lon="4.65333">
        <ele>257.6</ele>
        <time>2020-06-25T08:34:24Z</time>
      </trkpt>
      <trkpt lat="49.8236" lon="4.65339">
        <ele>257.7</ele>
        <time>2020-06-25T08:34:25Z</time>
      </trkpt>
      <trkpt lat="49.8236" lon="4.65344">
        <ele>257.9</ele>
        <time>2020-06-25T08:34:26Z</time>
      </trkpt>
      <trkpt lat="49.8236" lon="4.65349">
        <ele>258</ele>
        <time>2020-06-25T08:34:27Z</time>
      </trkpt>
      <trkpt lat="49.8236" lon="4.65354">
        <ele>258.1</ele>
        <time>2020-06-25T08:34:28Z</time>
      </trkpt>
      <trkpt lat="49.82359" lon="4.65359">
        <ele>258.3</ele>
        <time>2020-06-25T08:34:29Z</time>
      </trkpt>
      <trkpt lat="49.82358" lon="4.65366">
        <ele>258.5</ele>
        <time>2020-06-25T08:34:30Z</time>
      </trkpt>
      <trkpt lat="49.82358" lon="4.65368">
        <ele>258.6</ele>
        <time>2020-06-25T08:34:31Z</time>
      </trkpt>
      <trkpt lat="49.82357" lon="4.65373">
        <ele>258.7</ele>
        <time>2020-06-25T08:34:32Z</time>
      </trkpt>
      <trkpt lat="49.82356" lon="4.65378">
        <ele>258.8</ele>
        <time>2020-06-25T08:34:33Z</time>
      </trkpt>
      <trkpt lat="49.82355" lon="4.65382">
        <ele>258.8</ele>
        <time>2020-06-25T08:34:34Z</time>
      </trkpt>
      <trkpt lat="49.82354" lon="4.65388">
        <ele>258.9</ele>
        <time>2020-06-25T08:34:35Z</time>
      </trkpt>
      <trkpt lat="49.82352" lon="4.65391">
        <ele>259</ele>
        <time>2020-06-25T08:34:36Z</time>
      </trkpt>
      <trkpt lat="49.82351" lon="4.65396">
        <ele>259.1</ele>
        <time>2020-06-25T08:34:37Z</time>
      </trkpt>
      <trkpt lat="49.82349" lon="4.65401">
        <ele>259.4</ele>
        <time>2020-06-25T08:34:38Z</time>
      </trkpt>
      <trkpt lat="49.82348" lon="4.65405">
        <ele>259.6</ele>
        <time>2020-06-25T08:34:39Z</time>
      </trkpt>
      <trkpt lat="49.82347" lon="4.6541">
        <ele>259.8</ele>
        <time>2020-06-25T08:34:40Z</time>
      </trkpt>
      <trkpt lat="49.82345" lon="4.65414">
        <ele>260.1</ele>
        <time>2020-06-25T08:34:41Z</time>
      </trkpt>
      <trkpt lat="49.82343" lon="4.65419">
        <ele>260.3</ele>
        <time>2020-06-25T08:34:42Z</time>
      </trkpt>
      <trkpt lat="49.82341" lon="4.65423">
        <ele>260.5</ele>
        <time>2020-06-25T08:34:43Z</time>
      </trkpt>
      <trkpt lat="49.82338" lon="4.65427">
        <ele>260.7</ele>
        <time>2020-06-25T08:34:44Z</time>
      </trkpt>
      <trkpt lat="49.82335" lon="4.6543">
        <ele>260.9</ele>
        <time>2020-06-25T08:34:45Z</time>
      </trkpt>
      <trkpt lat="49.82333" lon="4.65433">
        <ele>261.1</ele>
        <time>2020-06-25T08:34:46Z</time>
      </trkpt>
      <trkpt lat="49.8233" lon="4.65436">
        <ele>261.4</ele>
        <time>2020-06-25T08:34:47Z</time>
      </trkpt>
      <trkpt lat="49.82328" lon="4.65438">
        <ele>261.5</ele>
        <time>2020-06-25T08:34:48Z</time>
      </trkpt>
      <trkpt lat="49.82326" lon="4.65441">
        <ele>261.7</ele>
        <time>2020-06-25T08:34:49Z</time>
      </trkpt>
      <trkpt lat="49.82323" lon="4.65444">
        <ele>261.9</ele>
        <time>2020-06-25T08:34:50Z</time>
      </trkpt>
      <trkpt lat="49.82321" lon="4.65448">
        <ele>262.1</ele>
        <time>2020-06-25T08:34:51Z</time>
      </trkpt>
      <trkpt lat="49.82318" lon="4.65452">
        <ele>262.3</ele>
        <time>2020-06-25T08:34:52Z</time>
      </trkpt>
      <trkpt lat="49.82316" lon="4.65457">
        <ele>262.5</ele>
        <time>2020-06-25T08:34:53Z</time>
      </trkpt>
      <trkpt lat="49.82314" lon="4.65461">
        <ele>262.7</ele>
        <time>2020-06-25T08:34:54Z</time>
      </trkpt>
      <trkpt lat="49.82311" lon="4.65464">
        <ele>262.9</ele>
        <time>2020-06-25T08:34:55Z</time>
      </trkpt>
      <trkpt lat="49.82309" lon="4.65468">
        <ele>263.1</ele>
        <time>2020-06-25T08:34:56Z</time>
      </trkpt>
      <trkpt lat="49.82307" lon="4.65471">
        <ele>263.2</ele>
        <time>2020-06-25T08:34:57Z</time>
      </trkpt>
      <trkpt lat="49.82305" lon="4.65475">
        <ele>263.4</ele>
        <time>2020-06-25T08:34:58Z</time>
      </trkpt>
      <trkpt lat="49.82302" lon="4.65478">
        <ele>263.5</ele>
        <time>2020-06-25T08:34:59Z</time>
      </trkpt>
      <trkpt lat="49.823" lon="4.6548">
        <ele>263.7</ele>
        <time>2020-06-25T08:35:00Z</time>
      </trkpt>
      <trkpt lat="49.82297" lon="4.65482">
        <ele>263.8</ele>
        <time>2020-06-25T08:35:01Z</time>
      </trkpt>
      <trkpt lat="49.82295" lon="4.65487">
        <ele>264</ele>
        <time>2020-06-25T08:35:02Z</time>
      </trkpt>
      <trkpt lat="49.82293" lon="4.65491">
        <ele>264.2</ele>
        <time>2020-06-25T08:35:03Z</time>
      </trkpt>
      <trkpt lat="49.82291" lon="4.65496">
        <ele>264.3</ele>
        <time>2020-06-25T08:35:04Z</time>
      </trkpt>
      <trkpt lat="49.82288" lon="4.655">
        <ele>264.5</ele>
        <time>2020-06-25T08:35:05Z</time>
      </trkpt>
      <trkpt lat="49.82286" lon="4.65505">
        <ele>264.6</ele>
        <time>2020-06-25T08:35:06Z</time>
      </trkpt>
      <trkpt lat="49.82283" lon="4.65509">
        <ele>264.7</ele>
        <time>2020-06-25T08:35:07Z</time>
      </trkpt>
      <trkpt lat="49.8228" lon="4.65513">
        <ele>264.9</ele>
        <time>2020-06-25T08:35:08Z</time>
      </trkpt>
      <trkpt lat="49.82277" lon="4.65517">
        <ele>265</ele>
        <time>2020-06-25T08:35:09Z</time>
      </trkpt>
      <trkpt lat="49.82275" lon="4.65521">
        <ele>265.2</ele>
        <time>2020-06-25T08:35:10Z</time>
      </trkpt>
      <trkpt lat="49.82272" lon="4.65525">
        <ele>265.3</ele>
        <time>2020-06-25T08:35:11Z</time>
      </trkpt>
      <trkpt lat="49.8227" lon="4.6553">
        <ele>265.5</ele>
        <time>2020-06-25T08:35:12Z</time>
      </trkpt>
      <trkpt lat="49.82267" lon="4.65533">
        <ele>265.6</ele>
        <time>2020-06-25T08:35:13Z</time>
      </trkpt>
      <trkpt lat="49.82264" lon="4.65537">
        <ele>265.8</ele>
        <time>2020-06-25T08:35:14Z</time>
      </trkpt>
      <trkpt lat="49.82262" lon="4.65541">
        <ele>265.9</ele>
        <time>2020-06-25T08:35:15Z</time>
      </trkpt>
      <trkpt lat="49.82259" lon="4.65545">
        <ele>266</ele>
        <time>2020-06-25T08:35:16Z</time>
      </trkpt>
      <trkpt lat="49.82257" lon="4.65549">
        <ele>266.1</ele>
        <time>2020-06-25T08:35:17Z</time>
      </trkpt>
      <trkpt lat="49.82255" lon="4.65553">
        <ele>266.3</ele>
        <time>2020-06-25T08:35:18Z</time>
      </trkpt>
      <trkpt lat="49.82253" lon="4.65558">
        <ele>266.4</ele>
        <time>2020-06-25T08:35:19Z</time>
      </trkpt>
      <trkpt lat="49.8225" lon="4.65562">
        <ele>266.6</ele>
        <time>2020-06-25T08:35:20Z</time>
      </trkpt>
      <trkpt lat="49.82248" lon="4.65566">
        <ele>266.8</ele>
        <time>2020-06-25T08:35:21Z</time>
      </trkpt>
      <trkpt lat="49.82246" lon="4.6557">
        <ele>266.9</ele>
        <time>2020-06-25T08:35:22Z</time>
      </trkpt>
      <trkpt lat="49.82243" lon="4.65576">
        <ele>267.2</ele>
        <time>2020-06-25T08:35:23Z</time>
      </trkpt>
      <trkpt lat="49.82241" lon="4.6558">
        <ele>267.3</ele>
        <time>2020-06-25T08:35:24Z</time>
      </trkpt>
      <trkpt lat="49.8224" lon="4.65584">
        <ele>267.5</ele>
        <time>2020-06-25T08:35:25Z</time>
      </trkpt>
      <trkpt lat="49.82238" lon="4.65588">
        <ele>267.7</ele>
        <time>2020-06-25T08:35:26Z</time>
      </trkpt>
      <trkpt lat="49.82236" lon="4.65593">
        <ele>267.9</ele>
        <time>2020-06-25T08:35:27Z</time>
      </trkpt>
      <trkpt lat="49.82235" lon="4.65599">
        <ele>268.1</ele>
        <time>2020-06-25T08:35:28Z</time>
      </trkpt>
      <trkpt lat="49.82234" lon="4.65603">
        <ele>268.3</ele>
        <time>2020-06-25T08:35:29Z</time>
      </trkpt>
      <trkpt lat="49.82232" lon="4.65608">
        <ele>268.5</ele>
        <time>2020-06-25T08:35:30Z</time>
      </trkpt>
      <trkpt lat="49.82231" lon="4.65613">
        <ele>268.6</ele>
        <time>2020-06-25T08:35:31Z</time>
      </trkpt>
      <trkpt lat="49.82229" lon="4.65617">
        <ele>268.8</ele>
        <time>2020-06-25T08:35:32Z</time>
      </trkpt>
      <trkpt lat="49.82228" lon="4.65622">
        <ele>269</ele>
        <time>2020-06-25T08:35:33Z</time>
      </trkpt>
      <trkpt lat="49.82227" lon="4.65627">
        <ele>269.1</ele>
        <time>2020-06-25T08:35:34Z</time>
      </trkpt>
      <trkpt lat="49.82226" lon="4.65633">
        <ele>269.3</ele>
        <time>2020-06-25T08:35:35Z</time>
      </trkpt>
      <trkpt lat="49.82224" lon="4.65639">
        <ele>269.4</ele>
        <time>2020-06-25T08:35:36Z</time>
      </trkpt>
      <trkpt lat="49.82223" lon="4.65644">
        <ele>269.6</ele>
        <time>2020-06-25T08:35:37Z</time>
      </trkpt>
      <trkpt lat="49.82221" lon="4.65649">
        <ele>269.7</ele>
        <time>2020-06-25T08:35:38Z</time>
      </trkpt>
      <trkpt lat="49.8222" lon="4.65654">
        <ele>269.8</ele>
        <time>2020-06-25T08:35:39Z</time>
      </trkpt>
      <trkpt lat="49.82218" lon="4.6566">
        <ele>269.9</ele>
        <time>2020-06-25T08:35:40Z</time>
      </trkpt>
      <trkpt lat="49.82216" lon="4.65665">
        <ele>270</ele>
        <time>2020-06-25T08:35:41Z</time>
      </trkpt>
      <trkpt lat="49.82214" lon="4.6567">
        <ele>270.1</ele>
        <time>2020-06-25T08:35:42Z</time>
      </trkpt>
      <trkpt lat="49.82213" lon="4.65676">
        <ele>270.3</ele>
        <time>2020-06-25T08:35:43Z</time>
      </trkpt>
      <trkpt lat="49.82211" lon="4.65682">
        <ele>270.4</ele>
        <time>2020-06-25T08:35:44Z</time>
      </trkpt>
      <trkpt lat="49.8221" lon="4.65687">
        <ele>270.5</ele>
        <time>2020-06-25T08:35:45Z</time>
      </trkpt>
      <trkpt lat="49.82208" lon="4.65693">
        <ele>270.7</ele>
        <time>2020-06-25T08:35:46Z</time>
      </trkpt>
      <trkpt lat="49.82207" lon="4.65699">
        <ele>270.8</ele>
        <time>2020-06-25T08:35:47Z</time>
      </trkpt>
      <trkpt lat="49.82204" lon="4.65703">
        <ele>270.9</ele>
        <time>2020-06-25T08:35:48Z</time>
      </trkpt>
      <trkpt lat="49.82203" lon="4.65708">
        <ele>271</ele>
        <time>2020-06-25T08:35:49Z</time>
      </trkpt>
      <trkpt lat="49.82202" lon="4.65713">
        <ele>271.1</ele>
        <time>2020-06-25T08:35:50Z</time>
      </trkpt>
      <trkpt lat="49.82201" lon="4.65718">
        <ele>271.2</ele>
        <time>2020-06-25T08:35:51Z</time>
      </trkpt>
      <trkpt lat="49.822" lon="4.65724">
        <ele>271.2</ele>
        <time>2020-06-25T08:35:52Z</time>
      </trkpt>
      <trkpt lat="49.82199" lon="4.65729">
        <ele>271.3</ele>
        <time>2020-06-25T08:35:53Z</time>
      </trkpt>
      <trkpt lat="49.82198" lon="4.65734">
        <ele>271.3</ele>
        <time>2020-06-25T08:35:54Z</time>
      </trkpt>
      <trkpt lat="49.82196" lon="4.65739">
        <ele>271.4</ele>
        <time>2020-06-25T08:35:55Z</time>
      </trkpt>
      <trkpt lat="49.82195" lon="4.65744">
        <ele>271.5</ele>
        <time>2020-06-25T08:35:56Z</time>
      </trkpt>
      <trkpt lat="49.82193" lon="4.65749">
        <ele>271.5</ele>
        <time>2020-06-25T08:35:57Z</time>
      </trkpt>
      <trkpt lat="49.82191" lon="4.65753">
        <ele>271.6</ele>
        <time>2020-06-25T08:35:58Z</time>
      </trkpt>
      <trkpt lat="49.82189" lon="4.65759">
        <ele>271.7</ele>
        <time>2020-06-25T08:35:59Z</time>
      </trkpt>
      <trkpt lat="49.82188" lon="4.65766">
        <ele>271.8</ele>
        <time>2020-06-25T08:36:00Z</time>
      </trkpt>
      <trkpt lat="49.82187" lon="4.65771">
        <ele>271.9</ele>
        <time>2020-06-25T08:36:01Z</time>
      </trkpt>
      <trkpt lat="49.82186" lon="4.65778">
        <ele>271.9</ele>
        <time>2020-06-25T08:36:02Z</time>
      </trkpt>
      <trkpt lat="49.82184" lon="4.65784">
        <ele>272</ele>
        <time>2020-06-25T08:36:03Z</time>
      </trkpt>
      <trkpt lat="49.82184" lon="4.6579">
        <ele>272.1</ele>
        <time>2020-06-25T08:36:04Z</time>
      </trkpt>
      <trkpt lat="49.82182" lon="4.65795">
        <ele>272.1</ele>
        <time>2020-06-25T08:36:05Z</time>
      </trkpt>
      <trkpt lat="49.8218" lon="4.65801">
        <ele>272.2</ele>
        <time>2020-06-25T08:36:06Z</time>
      </trkpt>
      <trkpt lat="49.82179" lon="4.65806">
        <ele>272.2</ele>
        <time>2020-06-25T08:36:07Z</time>
      </trkpt>
      <trkpt lat="49.82177" lon="4.65812">
        <ele>272.2</ele>
        <time>2020-06-25T08:36:08Z</time>
      </trkpt>
      <trkpt lat="49.82175" lon="4.65818">
        <ele>272.2</ele>
        <time>2020-06-25T08:36:09Z</time>
      </trkpt>
      <trkpt lat="49.82174" lon="4.65824">
        <ele>272.2</ele>
        <time>2020-06-25T08:36:10Z</time>
      </trkpt>
      <trkpt lat="49.82172" lon="4.65829">
        <ele>272.2</ele>
        <time>2020-06-25T08:36:11Z</time>
      </trkpt>
      <trkpt lat="49.8217" lon="4.65835">
        <ele>272.2</ele>
        <time>2020-06-25T08:36:12Z</time>
      </trkpt>
      <trkpt lat="49.82169" lon="4.65841">
        <ele>272.2</ele>
        <time>2020-06-25T08:36:13Z</time>
      </trkpt>
      <trkpt lat="49.82168" lon="4.65848">
        <ele>272.2</ele>
        <time>2020-06-25T08:36:14Z</time>
      </trkpt>
      <trkpt lat="49.82166" lon="4.65856">
        <ele>272.3</ele>
        <time>2020-06-25T08:36:15Z</time>
      </trkpt>
      <trkpt lat="49.82165" lon="4.65863">
        <ele>272.3</ele>
        <time>2020-06-25T08:36:16Z</time>
      </trkpt>
      <trkpt lat="49.82163" lon="4.65872">
        <ele>272.3</ele>
        <time>2020-06-25T08:36:17Z</time>
      </trkpt>
      <trkpt lat="49.82161" lon="4.6588">
        <ele>272.3</ele>
        <time>2020-06-25T08:36:18Z</time>
      </trkpt>
      <trkpt lat="49.82159" lon="4.65887">
        <ele>272.3</ele>
        <time>2020-06-25T08:36:19Z</time>
      </trkpt>
      <trkpt lat="49.82157" lon="4.65896">
        <ele>272.4</ele>
        <time>2020-06-25T08:36:20Z</time>
      </trkpt>
      <trkpt lat="49.82155" lon="4.65903">
        <ele>272.4</ele>
        <time>2020-06-25T08:36:21Z</time>
      </trkpt>
      <trkpt lat="49.82152" lon="4.6591">
        <ele>272.4</ele>
        <time>2020-06-25T08:36:22Z</time>
      </trkpt>
      <trkpt lat="49.8215" lon="4.65917">
        <ele>272.4</ele>
        <time>2020-06-25T08:36:23Z</time>
      </trkpt>
      <trkpt lat="49.82148" lon="4.65925">
        <ele>272.5</ele>
        <time>2020-06-25T08:36:24Z</time>
      </trkpt>
      <trkpt lat="49.82145" lon="4.65934">
        <ele>272.5</ele>
        <time>2020-06-25T08:36:25Z</time>
      </trkpt>
      <trkpt lat="49.82142" lon="4.65941">
        <ele>272.5</ele>
        <time>2020-06-25T08:36:26Z</time>
      </trkpt>
      <trkpt lat="49.8214" lon="4.6595">
        <ele>272.5</ele>
        <time>2020-06-25T08:36:27Z</time>
      </trkpt>
      <trkpt lat="49.82138" lon="4.65958">
        <ele>272.5</ele>
        <time>2020-06-25T08:36:28Z</time>
      </trkpt>
      <trkpt lat="49.82134" lon="4.65965">
        <ele>272.5</ele>
        <time>2020-06-25T08:36:29Z</time>
      </trkpt>
      <trkpt lat="49.82132" lon="4.65974">
        <ele>272.6</ele>
        <time>2020-06-25T08:36:30Z</time>
      </trkpt>
      <trkpt lat="49.8213" lon="4.65982">
        <ele>272.6</ele>
        <time>2020-06-25T08:36:31Z</time>
      </trkpt>
      <trkpt lat="49.82128" lon="4.6599">
        <ele>272.6</ele>
        <time>2020-06-25T08:36:32Z</time>
      </trkpt>
      <trkpt lat="49.82125" lon="4.65997">
        <ele>272.6</ele>
        <time>2020-06-25T08:36:33Z</time>
      </trkpt>
      <trkpt lat="49.82123" lon="4.66005">
        <ele>272.7</ele>
        <time>2020-06-25T08:36:34Z</time>
      </trkpt>
      <trkpt lat="49.82121" lon="4.66013">
        <ele>272.7</ele>
        <time>2020-06-25T08:36:35Z</time>
      </trkpt>
      <trkpt lat="49.82119" lon="4.6602">
        <ele>272.7</ele>
        <time>2020-06-25T08:36:36Z</time>
      </trkpt>
      <trkpt lat="49.82116" lon="4.66028">
        <ele>272.7</ele>
        <time>2020-06-25T08:36:37Z</time>
      </trkpt>
      <trkpt lat="49.82114" lon="4.66036">
        <ele>272.8</ele>
        <time>2020-06-25T08:36:38Z</time>
      </trkpt>
      <trkpt lat="49.82112" lon="4.66043">
        <ele>272.8</ele>
        <time>2020-06-25T08:36:39Z</time>
      </trkpt>
      <trkpt lat="49.8211" lon="4.66051">
        <ele>272.8</ele>
        <time>2020-06-25T08:36:40Z</time>
      </trkpt>
      <trkpt lat="49.82107" lon="4.66058">
        <ele>272.9</ele>
        <time>2020-06-25T08:36:41Z</time>
      </trkpt>
      <trkpt lat="49.82106" lon="4.66066">
        <ele>272.9</ele>
        <time>2020-06-25T08:36:42Z</time>
      </trkpt>
      <trkpt lat="49.82103" lon="4.66074">
        <ele>273</ele>
        <time>2020-06-25T08:36:43Z</time>
      </trkpt>
      <trkpt lat="49.82102" lon="4.66083">
        <ele>273</ele>
        <time>2020-06-25T08:36:44Z</time>
      </trkpt>
      <trkpt lat="49.821" lon="4.6609">
        <ele>273</ele>
        <time>2020-06-25T08:36:45Z</time>
      </trkpt>
      <trkpt lat="49.82099" lon="4.66098">
        <ele>273</ele>
        <time>2020-06-25T08:36:46Z</time>
      </trkpt>
      <trkpt lat="49.82097" lon="4.66105">
        <ele>273</ele>
        <time>2020-06-25T08:36:47Z</time>
      </trkpt>
      <trkpt lat="49.82095" lon="4.66112">
        <ele>273</ele>
        <time>2020-06-25T08:36:48Z</time>
      </trkpt>
      <trkpt lat="49.82094" lon="4.66119">
        <ele>273</ele>
        <time>2020-06-25T08:36:49Z</time>
      </trkpt>
      <trkpt lat="49.82093" lon="4.66125">
        <ele>273</ele>
        <time>2020-06-25T08:36:50Z</time>
      </trkpt>
      <trkpt lat="49.82091" lon="4.66131">
        <ele>273</ele>
        <time>2020-06-25T08:36:51Z</time>
      </trkpt>
      <trkpt lat="49.8209" lon="4.66137">
        <ele>273</ele>
        <time>2020-06-25T08:36:52Z</time>
      </trkpt>
      <trkpt lat="49.82089" lon="4.66144">
        <ele>273</ele>
        <time>2020-06-25T08:36:53Z</time>
      </trkpt>
      <trkpt lat="49.82087" lon="4.66151">
        <ele>273.1</ele>
        <time>2020-06-25T08:36:54Z</time>
      </trkpt>
      <trkpt lat="49.82086" lon="4.66157">
        <ele>273.1</ele>
        <time>2020-06-25T08:36:55Z</time>
      </trkpt>
      <trkpt lat="49.82085" lon="4.66163">
        <ele>273.1</ele>
        <time>2020-06-25T08:36:56Z</time>
      </trkpt>
      <trkpt lat="49.82084" lon="4.6617">
        <ele>273.2</ele>
        <time>2020-06-25T08:36:57Z</time>
      </trkpt>
      <trkpt lat="49.82083" lon="4.66177">
        <ele>273.2</ele>
        <time>2020-06-25T08:36:58Z</time>
      </trkpt>
      <trkpt lat="49.82082" lon="4.66183">
        <ele>273.3</ele>
        <time>2020-06-25T08:36:59Z</time>
      </trkpt>
      <trkpt lat="49.82082" lon="4.66189">
        <ele>273.3</ele>
        <time>2020-06-25T08:37:00Z</time>
      </trkpt>
      <trkpt lat="49.82081" lon="4.66195">
        <ele>273.4</ele>
        <time>2020-06-25T08:37:01Z</time>
      </trkpt>
      <trkpt lat="49.8208" lon="4.662">
        <ele>273.4</ele>
        <time>2020-06-25T08:37:02Z</time>
      </trkpt>
      <trkpt lat="49.82079" lon="4.66206">
        <ele>273.5</ele>
        <time>2020-06-25T08:37:03Z</time>
      </trkpt>
      <trkpt lat="49.82078" lon="4.66213">
        <ele>273.6</ele>
        <time>2020-06-25T08:37:04Z</time>
      </trkpt>
      <trkpt lat="49.82077" lon="4.6622">
        <ele>273.7</ele>
        <time>2020-06-25T08:37:05Z</time>
      </trkpt>
      <trkpt lat="49.82077" lon="4.66227">
        <ele>273.7</ele>
        <time>2020-06-25T08:37:06Z</time>
      </trkpt>
      <trkpt lat="49.82076" lon="4.66232">
        <ele>273.8</ele>
        <time>2020-06-25T08:37:07Z</time>
      </trkpt>
      <trkpt lat="49.82076" lon="4.66238">
        <ele>273.9</ele>
        <time>2020-06-25T08:37:08Z</time>
      </trkpt>
      <trkpt lat="49.82075" lon="4.66243">
        <ele>273.9</ele>
        <time>2020-06-25T08:37:09Z</time>
      </trkpt>
      <trkpt lat="49.82074" lon="4.66249">
        <ele>274</ele>
        <time>2020-06-25T08:37:10Z</time>
      </trkpt>
      <trkpt lat="49.82074" lon="4.66255">
        <ele>274.1</ele>
        <time>2020-06-25T08:37:11Z</time>
      </trkpt>
      <trkpt lat="49.82073" lon="4.66261">
        <ele>274.2</ele>
        <time>2020-06-25T08:37:12Z</time>
      </trkpt>
      <trkpt lat="49.82073" lon="4.66268">
        <ele>274.3</ele>
        <time>2020-06-25T08:37:13Z</time>
      </trkpt>
      <trkpt lat="49.82072" lon="4.66274">
        <ele>274.3</ele>
        <time>2020-06-25T08:37:14Z</time>
      </trkpt>
      <trkpt lat="49.82071" lon="4.6628">
        <ele>274.4</ele>
        <time>2020-06-25T08:37:15Z</time>
      </trkpt>
      <trkpt lat="49.82071" lon="4.66287">
        <ele>274.5</ele>
        <time>2020-06-25T08:37:16Z</time>
      </trkpt>
      <trkpt lat="49.8207" lon="4.66294">
        <ele>274.6</ele>
        <time>2020-06-25T08:37:17Z</time>
      </trkpt>
      <trkpt lat="49.8207" lon="4.66301">
        <ele>274.7</ele>
        <time>2020-06-25T08:37:18Z</time>
      </trkpt>
      <trkpt lat="49.8207" lon="4.66308">
        <ele>274.8</ele>
        <time>2020-06-25T08:37:19Z</time>
      </trkpt>
      <trkpt lat="49.82069" lon="4.66315">
        <ele>274.9</ele>
        <time>2020-06-25T08:37:20Z</time>
      </trkpt>
      <trkpt lat="49.8207" lon="4.66321">
        <ele>275</ele>
        <time>2020-06-25T08:37:21Z</time>
      </trkpt>
      <trkpt lat="49.8207" lon="4.66328">
        <ele>275.1</ele>
        <time>2020-06-25T08:37:22Z</time>
      </trkpt>
      <trkpt lat="49.82071" lon="4.66335">
        <ele>275.2</ele>
        <time>2020-06-25T08:37:23Z</time>
      </trkpt>
      <trkpt lat="49.82072" lon="4.66341">
        <ele>275.3</ele>
        <time>2020-06-25T08:37:24Z</time>
      </trkpt>
      <trkpt lat="49.82072" lon="4.66348">
        <ele>275.4</ele>
        <time>2020-06-25T08:37:25Z</time>
      </trkpt>
      <trkpt lat="49.82072" lon="4.66353">
        <ele>275.5</ele>
        <time>2020-06-25T08:37:26Z</time>
      </trkpt>
      <trkpt lat="49.8207" lon="4.66358">
        <ele>275.5</ele>
        <time>2020-06-25T08:37:27Z</time>
      </trkpt>
      <trkpt lat="49.82068" lon="4.66362">
        <ele>275.5</ele>
        <time>2020-06-25T08:37:28Z</time>
      </trkpt>
      <trkpt lat="49.82066" lon="4.66364">
        <ele>275.5</ele>
        <time>2020-06-25T08:37:29Z</time>
      </trkpt>
      <trkpt lat="49.82064" lon="4.66368">
        <ele>275.5</ele>
        <time>2020-06-25T08:37:30Z</time>
      </trkpt>
      <trkpt lat="49.82062" lon="4.66371">
        <ele>275.5</ele>
        <time>2020-06-25T08:37:31Z</time>
      </trkpt>
      <trkpt lat="49.8206" lon="4.66374">
        <ele>275.4</ele>
        <time>2020-06-25T08:37:32Z</time>
      </trkpt>
      <trkpt lat="49.82058" lon="4.66378">
        <ele>275.4</ele>
        <time>2020-06-25T08:37:33Z</time>
      </trkpt>
      <trkpt lat="49.82055" lon="4.66381">
        <ele>275.3</ele>
        <time>2020-06-25T08:37:34Z</time>
      </trkpt>
      <trkpt lat="49.82053" lon="4.66386">
        <ele>275.3</ele>
        <time>2020-06-25T08:37:35Z</time>
      </trkpt>
      <trkpt lat="49.82052" lon="4.66388">
        <ele>275.3</ele>
        <time>2020-06-25T08:37:36Z</time>
      </trkpt>
      <trkpt lat="49.8205" lon="4.6639">
        <ele>275.2</ele>
        <time>2020-06-25T08:37:37Z</time>
      </trkpt>
      <trkpt lat="49.82047" lon="4.66393">
        <ele>275.1</ele>
        <time>2020-06-25T08:37:38Z</time>
      </trkpt>
      <trkpt lat="49.82045" lon="4.66397">
        <ele>275.1</ele>
        <time>2020-06-25T08:37:39Z</time>
      </trkpt>
      <trkpt lat="49.82043" lon="4.66402">
        <ele>275</ele>
        <time>2020-06-25T08:37:40Z</time>
      </trkpt>
      <trkpt lat="49.82041" lon="4.66406">
        <ele>274.8</ele>
        <time>2020-06-25T08:37:41Z</time>
      </trkpt>
      <trkpt lat="49.82039" lon="4.6641">
        <ele>274.7</ele>
        <time>2020-06-25T08:37:42Z</time>
      </trkpt>
      <trkpt lat="49.82037" lon="4.66414">
        <ele>274.6</ele>
        <time>2020-06-25T08:37:43Z</time>
      </trkpt>
      <trkpt lat="49.82035" lon="4.6642">
        <ele>274.4</ele>
        <time>2020-06-25T08:37:44Z</time>
      </trkpt>
      <trkpt lat="49.82032" lon="4.66424">
        <ele>274.3</ele>
        <time>2020-06-25T08:37:45Z</time>
      </trkpt>
      <trkpt lat="49.8203" lon="4.6643">
        <ele>274.2</ele>
        <time>2020-06-25T08:37:46Z</time>
      </trkpt>
      <trkpt lat="49.82027" lon="4.66436">
        <ele>274</ele>
        <time>2020-06-25T08:37:47Z</time>
      </trkpt>
      <trkpt lat="49.82024" lon="4.66443">
        <ele>273.8</ele>
        <time>2020-06-25T08:37:48Z</time>
      </trkpt>
      <trkpt lat="49.82022" lon="4.66448">
        <ele>273.6</ele>
        <time>2020-06-25T08:37:49Z</time>
      </trkpt>
      <trkpt lat="49.82019" lon="4.66454">
        <ele>273.4</ele>
        <time>2020-06-25T08:37:50Z</time>
      </trkpt>
      <trkpt lat="49.82016" lon="4.6646">
        <ele>273.2</ele>
        <time>2020-06-25T08:37:51Z</time>
      </trkpt>
      <trkpt lat="49.82013" lon="4.66467">
        <ele>273</ele>
        <time>2020-06-25T08:37:52Z</time>
      </trkpt>
      <trkpt lat="49.8201" lon="4.66473">
        <ele>272.8</ele>
        <time>2020-06-25T08:37:53Z</time>
      </trkpt>
      <trkpt lat="49.82006" lon="4.66481">
        <ele>272.6</ele>
        <time>2020-06-25T08:37:54Z</time>
      </trkpt>
      <trkpt lat="49.82002" lon="4.66488">
        <ele>272.4</ele>
        <time>2020-06-25T08:37:55Z</time>
      </trkpt>
      <trkpt lat="49.81998" lon="4.66495">
        <ele>272.2</ele>
        <time>2020-06-25T08:37:56Z</time>
      </trkpt>
      <trkpt lat="49.81996" lon="4.66502">
        <ele>272</ele>
        <time>2020-06-25T08:37:57Z</time>
      </trkpt>
      <trkpt lat="49.81992" lon="4.6651">
        <ele>271.7</ele>
        <time>2020-06-25T08:37:58Z</time>
      </trkpt>
      <trkpt lat="49.81988" lon="4.66518">
        <ele>271.4</ele>
        <time>2020-06-25T08:37:59Z</time>
      </trkpt>
      <trkpt lat="49.81984" lon="4.66526">
        <ele>271</ele>
        <time>2020-06-25T08:38:00Z</time>
      </trkpt>
      <trkpt lat="49.81981" lon="4.66534">
        <ele>270.6</ele>
        <time>2020-06-25T08:38:01Z</time>
      </trkpt>
      <trkpt lat="49.81978" lon="4.66543">
        <ele>270</ele>
        <time>2020-06-25T08:38:02Z</time>
      </trkpt>
      <trkpt lat="49.81975" lon="4.66553">
        <ele>269.5</ele>
        <time>2020-06-25T08:38:03Z</time>
      </trkpt>
      <trkpt lat="49.81971" lon="4.66562">
        <ele>269</ele>
        <time>2020-06-25T08:38:04Z</time>
      </trkpt>
      <trkpt lat="49.81967" lon="4.66573">
        <ele>268.5</ele>
        <time>2020-06-25T08:38:05Z</time>
      </trkpt>
      <trkpt lat="49.81963" lon="4.66585">
        <ele>268</ele>
        <time>2020-06-25T08:38:06Z</time>
      </trkpt>
      <trkpt lat="49.81959" lon="4.66596">
        <ele>267.6</ele>
        <time>2020-06-25T08:38:07Z</time>
      </trkpt>
      <trkpt lat="49.81955" lon="4.66608">
        <ele>267.2</ele>
        <time>2020-06-25T08:38:08Z</time>
      </trkpt>
      <trkpt lat="49.81951" lon="4.66621">
        <ele>266.8</ele>
        <time>2020-06-25T08:38:09Z</time>
      </trkpt>
      <trkpt lat="49.81946" lon="4.66633">
        <ele>266.3</ele>
        <time>2020-06-25T08:38:10Z</time>
      </trkpt>
      <trkpt lat="49.8194" lon="4.66644">
        <ele>265.9</ele>
        <time>2020-06-25T08:38:11Z</time>
      </trkpt>
      <trkpt lat="49.81934" lon="4.66654">
        <ele>265.6</ele>
        <time>2020-06-25T08:38:12Z</time>
      </trkpt>
      <trkpt lat="49.81928" lon="4.66662">
        <ele>265.4</ele>
        <time>2020-06-25T08:38:13Z</time>
      </trkpt>
      <trkpt lat="49.81922" lon="4.66669">
        <ele>265.4</ele>
        <time>2020-06-25T08:38:14Z</time>
      </trkpt>
      <trkpt lat="49.81915" lon="4.66673">
        <ele>265.4</ele>
        <time>2020-06-25T08:38:15Z</time>
      </trkpt>
      <trkpt lat="49.81908" lon="4.66676">
        <ele>265.5</ele>
        <time>2020-06-25T08:38:16Z</time>
      </trkpt>
      <trkpt lat="49.81901" lon="4.66677">
        <ele>265.6</ele>
        <time>2020-06-25T08:38:17Z</time>
      </trkpt>
      <trkpt lat="49.81895" lon="4.66679">
        <ele>265.8</ele>
        <time>2020-06-25T08:38:18Z</time>
      </trkpt>
      <trkpt lat="49.81889" lon="4.6668">
        <ele>266</ele>
        <time>2020-06-25T08:38:19Z</time>
      </trkpt>
      <trkpt lat="49.81884" lon="4.6668">
        <ele>266.1</ele>
        <time>2020-06-25T08:38:20Z</time>
      </trkpt>
      <trkpt lat="49.8188" lon="4.6668">
        <ele>266.3</ele>
        <time>2020-06-25T08:38:21Z</time>
      </trkpt>
      <trkpt lat="49.81876" lon="4.66683">
        <ele>266.3</ele>
        <time>2020-06-25T08:38:22Z</time>
      </trkpt>
      <trkpt lat="49.81872" lon="4.66686">
        <ele>266.4</ele>
        <time>2020-06-25T08:38:23Z</time>
      </trkpt>
      <trkpt lat="49.81868" lon="4.66687">
        <ele>266.4</ele>
        <time>2020-06-25T08:38:24Z</time>
      </trkpt>
      <trkpt lat="49.81864" lon="4.66688">
        <ele>266.4</ele>
        <time>2020-06-25T08:38:25Z</time>
      </trkpt>
      <trkpt lat="49.81859" lon="4.66688">
        <ele>266.4</ele>
        <time>2020-06-25T08:38:26Z</time>
      </trkpt>
      <trkpt lat="49.81855" lon="4.66689">
        <ele>266.3</ele>
        <time>2020-06-25T08:38:27Z</time>
      </trkpt>
      <trkpt lat="49.81851" lon="4.66689">
        <ele>266.3</ele>
        <time>2020-06-25T08:38:28Z</time>
      </trkpt>
      <trkpt lat="49.81846" lon="4.6669">
        <ele>266.2</ele>
        <time>2020-06-25T08:38:29Z</time>
      </trkpt>
      <trkpt lat="49.81842" lon="4.6669">
        <ele>266.1</ele>
        <time>2020-06-25T08:38:30Z</time>
      </trkpt>
      <trkpt lat="49.81837" lon="4.66692">
        <ele>266</ele>
        <time>2020-06-25T08:38:31Z</time>
      </trkpt>
      <trkpt lat="49.81831" lon="4.66693">
        <ele>265.9</ele>
        <time>2020-06-25T08:38:32Z</time>
      </trkpt>
      <trkpt lat="49.81826" lon="4.66694">
        <ele>265.8</ele>
        <time>2020-06-25T08:38:33Z</time>
      </trkpt>
      <trkpt lat="49.81821" lon="4.66696">
        <ele>265.6</ele>
        <time>2020-06-25T08:38:34Z</time>
      </trkpt>
      <trkpt lat="49.81816" lon="4.66698">
        <ele>265.4</ele>
        <time>2020-06-25T08:38:35Z</time>
      </trkpt>
      <trkpt lat="49.8181" lon="4.667">
        <ele>265.2</ele>
        <time>2020-06-25T08:38:36Z</time>
      </trkpt>
      <trkpt lat="49.81804" lon="4.66702">
        <ele>264.9</ele>
        <time>2020-06-25T08:38:37Z</time>
      </trkpt>
      <trkpt lat="49.81798" lon="4.66704">
        <ele>264.6</ele>
        <time>2020-06-25T08:38:38Z</time>
      </trkpt>
      <trkpt lat="49.81794" lon="4.66706">
        <ele>264.4</ele>
        <time>2020-06-25T08:38:39Z</time>
      </trkpt>
      <trkpt lat="49.81791" lon="4.66706">
        <ele>264.2</ele>
        <time>2020-06-25T08:38:40Z</time>
      </trkpt>
      <trkpt lat="49.8179" lon="4.66706">
        <ele>264.2</ele>
        <time>2020-06-25T08:38:41Z</time>
      </trkpt>
      <trkpt lat="49.8179" lon="4.66706">
        <ele>264.1</ele>
        <time>2020-06-25T08:38:42Z</time>
      </trkpt>
      <trkpt lat="49.8179" lon="4.66704">
        <ele>264.1</ele>
        <time>2020-06-25T08:38:43Z</time>
      </trkpt>
      <trkpt lat="49.81791" lon="4.66705">
        <ele>264.1</ele>
        <time>2020-06-25T08:38:44Z</time>
      </trkpt>
      <trkpt lat="49.81791" lon="4.66705">
        <ele>264.1</ele>
        <time>2020-06-25T08:38:45Z</time>
      </trkpt>
      <trkpt lat="49.8179" lon="4.66702">
        <ele>264</ele>
        <time>2020-06-25T08:38:46Z</time>
      </trkpt>
      <trkpt lat="49.8179" lon="4.66701">
        <ele>263.9</ele>
        <time>2020-06-25T08:38:47Z</time>
      </trkpt>
      <trkpt lat="49.81788" lon="4.66701">
        <ele>263.8</ele>
        <time>2020-06-25T08:38:48Z</time>
      </trkpt>
      <trkpt lat="49.81786" lon="4.66701">
        <ele>263.7</ele>
        <time>2020-06-25T08:38:49Z</time>
      </trkpt>
      <trkpt lat="49.81784" lon="4.66701">
        <ele>263.6</ele>
        <time>2020-06-25T08:38:50Z</time>
      </trkpt>
      <trkpt lat="49.81782" lon="4.66701">
        <ele>263.4</ele>
        <time>2020-06-25T08:38:51Z</time>
      </trkpt>
      <trkpt lat="49.8178" lon="4.66702">
        <ele>263.3</ele>
        <time>2020-06-25T08:41:58Z</time>
      </trkpt>
      <trkpt lat="49.81777" lon="4.66702">
        <ele>263.2</ele>
        <time>2020-06-25T08:41:59Z</time>
      </trkpt>
      <trkpt lat="49.81774" lon="4.66705">
        <ele>262.9</ele>
        <time>2020-06-25T08:42:00Z</time>
      </trkpt>
      <trkpt lat="49.8177" lon="4.66705">
        <ele>262.7</ele>
        <time>2020-06-25T08:42:01Z</time>
      </trkpt>
      <trkpt lat="49.81766" lon="4.66707">
        <ele>262.4</ele>
        <time>2020-06-25T08:42:02Z</time>
      </trkpt>
      <trkpt lat="49.81761" lon="4.66708">
        <ele>262.1</ele>
        <time>2020-06-25T08:42:03Z</time>
      </trkpt>
      <trkpt lat="49.81756" lon="4.66708">
        <ele>261.7</ele>
        <time>2020-06-25T08:42:04Z</time>
      </trkpt>
      <trkpt lat="49.8175" lon="4.66709">
        <ele>261.3</ele>
        <time>2020-06-25T08:42:05Z</time>
      </trkpt>
      <trkpt lat="49.81744" lon="4.6671">
        <ele>260.8</ele>
        <time>2020-06-25T08:42:06Z</time>
      </trkpt>
      <trkpt lat="49.81737" lon="4.66711">
        <ele>260.2</ele>
        <time>2020-06-25T08:42:07Z</time>
      </trkpt>
      <trkpt lat="49.8173" lon="4.66713">
        <ele>259.6</ele>
        <time>2020-06-25T08:42:08Z</time>
      </trkpt>
      <trkpt lat="49.81723" lon="4.66714">
        <ele>258.9</ele>
        <time>2020-06-25T08:42:09Z</time>
      </trkpt>
      <trkpt lat="49.81715" lon="4.66716">
        <ele>258.1</ele>
        <time>2020-06-25T08:42:10Z</time>
      </trkpt>
      <trkpt lat="49.81707" lon="4.66719">
        <ele>257.2</ele>
        <time>2020-06-25T08:42:11Z</time>
      </trkpt>
      <trkpt lat="49.81699" lon="4.66724">
        <ele>256.3</ele>
        <time>2020-06-25T08:42:12Z</time>
      </trkpt>
      <trkpt lat="49.81689" lon="4.6673">
        <ele>255.1</ele>
        <time>2020-06-25T08:42:13Z</time>
      </trkpt>
      <trkpt lat="49.8168" lon="4.66736">
        <ele>253.8</ele>
        <time>2020-06-25T08:42:14Z</time>
      </trkpt>
      <trkpt lat="49.81671" lon="4.66743">
        <ele>252.5</ele>
        <time>2020-06-25T08:42:15Z</time>
      </trkpt>
      <trkpt lat="49.81661" lon="4.66751">
        <ele>251.2</ele>
        <time>2020-06-25T08:42:16Z</time>
      </trkpt>
      <trkpt lat="49.81651" lon="4.66761">
        <ele>249.9</ele>
        <time>2020-06-25T08:42:17Z</time>
      </trkpt>
      <trkpt lat="49.81642" lon="4.66772">
        <ele>248.8</ele>
        <time>2020-06-25T08:42:18Z</time>
      </trkpt>
      <trkpt lat="49.81632" lon="4.66782">
        <ele>247.7</ele>
        <time>2020-06-25T08:42:19Z</time>
      </trkpt>
      <trkpt lat="49.81623" lon="4.66793">
        <ele>246.7</ele>
        <time>2020-06-25T08:42:20Z</time>
      </trkpt>
      <trkpt lat="49.81613" lon="4.66805">
        <ele>245.8</ele>
        <time>2020-06-25T08:42:21Z</time>
      </trkpt>
      <trkpt lat="49.81603" lon="4.66816">
        <ele>245.2</ele>
        <time>2020-06-25T08:42:22Z</time>
      </trkpt>
      <trkpt lat="49.81592" lon="4.66824">
        <ele>244.8</ele>
        <time>2020-06-25T08:42:23Z</time>
      </trkpt>
      <trkpt lat="49.81581" lon="4.66829">
        <ele>244.6</ele>
        <time>2020-06-25T08:42:24Z</time>
      </trkpt>
      <trkpt lat="49.81569" lon="4.66832">
        <ele>244.6</ele>
        <time>2020-06-25T08:42:25Z</time>
      </trkpt>
      <trkpt lat="49.81559" lon="4.66828">
        <ele>244.7</ele>
        <time>2020-06-25T08:42:26Z</time>
      </trkpt>
      <trkpt lat="49.81549" lon="4.66821">
        <ele>245</ele>
        <time>2020-06-25T08:42:27Z</time>
      </trkpt>
      <trkpt lat="49.8154" lon="4.66814">
        <ele>245.4</ele>
        <time>2020-06-25T08:42:28Z</time>
      </trkpt>
      <trkpt lat="49.81532" lon="4.66807">
        <ele>245.9</ele>
        <time>2020-06-25T08:42:29Z</time>
      </trkpt>
      <trkpt lat="49.81524" lon="4.66801">
        <ele>246.4</ele>
        <time>2020-06-25T08:42:30Z</time>
      </trkpt>
      <trkpt lat="49.81517" lon="4.66794">
        <ele>246.8</ele>
        <time>2020-06-25T08:42:31Z</time>
      </trkpt>
      <trkpt lat="49.81509" lon="4.66789">
        <ele>247.3</ele>
        <time>2020-06-25T08:42:32Z</time>
      </trkpt>
      <trkpt lat="49.81503" lon="4.66783">
        <ele>247.9</ele>
        <time>2020-06-25T08:42:33Z</time>
      </trkpt>
      <trkpt lat="49.81496" lon="4.66778">
        <ele>248.4</ele>
        <time>2020-06-25T08:42:34Z</time>
      </trkpt>
      <trkpt lat="49.8149" lon="4.66773">
        <ele>248.8</ele>
        <time>2020-06-25T08:42:35Z</time>
      </trkpt>
      <trkpt lat="49.81484" lon="4.66769">
        <ele>249.3</ele>
        <time>2020-06-25T08:42:36Z</time>
      </trkpt>
      <trkpt lat="49.81479" lon="4.66765">
        <ele>249.6</ele>
        <time>2020-06-25T08:42:37Z</time>
      </trkpt>
      <trkpt lat="49.81474" lon="4.66763">
        <ele>250</ele>
        <time>2020-06-25T08:42:38Z</time>
      </trkpt>
      <trkpt lat="49.81469" lon="4.66761">
        <ele>250.3</ele>
        <time>2020-06-25T08:42:39Z</time>
      </trkpt>
      <trkpt lat="49.81464" lon="4.6676">
        <ele>250.6</ele>
        <time>2020-06-25T08:42:40Z</time>
      </trkpt>
      <trkpt lat="49.8146" lon="4.66759">
        <ele>250.9</ele>
        <time>2020-06-25T08:42:41Z</time>
      </trkpt>
      <trkpt lat="49.81455" lon="4.66759">
        <ele>251.2</ele>
        <time>2020-06-25T08:42:42Z</time>
      </trkpt>
      <trkpt lat="49.81452" lon="4.6676">
        <ele>251.4</ele>
        <time>2020-06-25T08:42:43Z</time>
      </trkpt>
      <trkpt lat="49.81448" lon="4.66761">
        <ele>251.6</ele>
        <time>2020-06-25T08:42:44Z</time>
      </trkpt>
      <trkpt lat="49.81445" lon="4.66762">
        <ele>251.8</ele>
        <time>2020-06-25T08:42:45Z</time>
      </trkpt>
      <trkpt lat="49.81442" lon="4.66762">
        <ele>252</ele>
        <time>2020-06-25T08:42:46Z</time>
      </trkpt>
      <trkpt lat="49.81439" lon="4.66764">
        <ele>252.2</ele>
        <time>2020-06-25T08:42:47Z</time>
      </trkpt>
      <trkpt lat="49.81436" lon="4.66765">
        <ele>252.4</ele>
        <time>2020-06-25T08:42:48Z</time>
      </trkpt>
      <trkpt lat="49.81433" lon="4.66766">
        <ele>252.6</ele>
        <time>2020-06-25T08:42:49Z</time>
      </trkpt>
      <trkpt lat="49.8143" lon="4.66767">
        <ele>252.8</ele>
        <time>2020-06-25T08:42:50Z</time>
      </trkpt>
      <trkpt lat="49.81426" lon="4.66769">
        <ele>252.9</ele>
        <time>2020-06-25T08:42:51Z</time>
      </trkpt>
      <trkpt lat="49.81423" lon="4.6677">
        <ele>253.1</ele>
        <time>2020-06-25T08:42:52Z</time>
      </trkpt>
      <trkpt lat="49.81422" lon="4.66771">
        <ele>253.1</ele>
        <time>2020-06-25T08:42:53Z</time>
      </trkpt>
      <trkpt lat="49.81419" lon="4.66773">
        <ele>253.2</ele>
        <time>2020-06-25T08:42:54Z</time>
      </trkpt>
      <trkpt lat="49.81416" lon="4.66774">
        <ele>253.2</ele>
        <time>2020-06-25T08:42:55Z</time>
      </trkpt>
      <trkpt lat="49.81416" lon="4.66774">
        <ele>253.2</ele>
        <time>2020-06-25T08:42:56Z</time>
      </trkpt>
      <trkpt lat="49.81413" lon="4.66775">
        <ele>253.2</ele>
        <time>2020-06-25T08:42:57Z</time>
      </trkpt>
      <trkpt lat="49.81411" lon="4.66776">
        <ele>253.2</ele>
        <time>2020-06-25T08:42:58Z</time>
      </trkpt>
      <trkpt lat="49.81408" lon="4.66777">
        <ele>253.1</ele>
        <time>2020-06-25T08:42:59Z</time>
      </trkpt>
      <trkpt lat="49.81407" lon="4.66778">
        <ele>253.1</ele>
        <time>2020-06-25T08:43:00Z</time>
      </trkpt>
      <trkpt lat="49.81404" lon="4.66781">
        <ele>252.9</ele>
        <time>2020-06-25T08:43:01Z</time>
      </trkpt>
      <trkpt lat="49.81402" lon="4.66782">
        <ele>252.8</ele>
        <time>2020-06-25T08:43:02Z</time>
      </trkpt>
      <trkpt lat="49.81398" lon="4.66783">
        <ele>252.6</ele>
        <time>2020-06-25T08:43:03Z</time>
      </trkpt>
      <trkpt lat="49.81395" lon="4.66784">
        <ele>252.5</ele>
        <time>2020-06-25T08:43:04Z</time>
      </trkpt>
      <trkpt lat="49.8139" lon="4.66786">
        <ele>252.3</ele>
        <time>2020-06-25T08:43:05Z</time>
      </trkpt>
      <trkpt lat="49.81385" lon="4.66788">
        <ele>252</ele>
        <time>2020-06-25T08:43:06Z</time>
      </trkpt>
      <trkpt lat="49.8138" lon="4.66791">
        <ele>251.6</ele>
        <time>2020-06-25T08:43:07Z</time>
      </trkpt>
      <trkpt lat="49.81375" lon="4.66794">
        <ele>251.2</ele>
        <time>2020-06-25T08:43:08Z</time>
      </trkpt>
      <trkpt lat="49.8137" lon="4.66796">
        <ele>250.8</ele>
        <time>2020-06-25T08:43:09Z</time>
      </trkpt>
      <trkpt lat="49.81365" lon="4.66798">
        <ele>250.5</ele>
        <time>2020-06-25T08:43:10Z</time>
      </trkpt>
      <trkpt lat="49.81361" lon="4.66799">
        <ele>250.2</ele>
        <time>2020-06-25T08:43:11Z</time>
      </trkpt>
      <trkpt lat="49.81358" lon="4.66801">
        <ele>250</ele>
        <time>2020-06-25T08:43:12Z</time>
      </trkpt>
      <trkpt lat="49.81355" lon="4.66802">
        <ele>249.7</ele>
        <time>2020-06-25T08:43:13Z</time>
      </trkpt>
      <trkpt lat="49.8135" lon="4.66804">
        <ele>249.4</ele>
        <time>2020-06-25T08:43:14Z</time>
      </trkpt>
      <trkpt lat="49.81346" lon="4.66806">
        <ele>249</ele>
        <time>2020-06-25T08:43:15Z</time>
      </trkpt>
      <trkpt lat="49.81341" lon="4.66807">
        <ele>248.6</ele>
        <time>2020-06-25T08:43:16Z</time>
      </trkpt>
      <trkpt lat="49.81335" lon="4.66809">
        <ele>248.1</ele>
        <time>2020-06-25T08:43:17Z</time>
      </trkpt>
      <trkpt lat="49.8133" lon="4.66811">
        <ele>247.5</ele>
        <time>2020-06-25T08:43:18Z</time>
      </trkpt>
      <trkpt lat="49.81325" lon="4.66813">
        <ele>246.8</ele>
        <time>2020-06-25T08:43:19Z</time>
      </trkpt>
      <trkpt lat="49.81319" lon="4.66816">
        <ele>246</ele>
        <time>2020-06-25T08:43:20Z</time>
      </trkpt>
      <trkpt lat="49.81314" lon="4.6682">
        <ele>245.2</ele>
        <time>2020-06-25T08:43:21Z</time>
      </trkpt>
      <trkpt lat="49.81308" lon="4.66826">
        <ele>244.3</ele>
        <time>2020-06-25T08:43:22Z</time>
      </trkpt>
      <trkpt lat="49.81301" lon="4.66832">
        <ele>243.4</ele>
        <time>2020-06-25T08:43:23Z</time>
      </trkpt>
      <trkpt lat="49.81295" lon="4.66839">
        <ele>242.6</ele>
        <time>2020-06-25T08:43:24Z</time>
      </trkpt>
      <trkpt lat="49.81287" lon="4.66847">
        <ele>241.7</ele>
        <time>2020-06-25T08:43:25Z</time>
      </trkpt>
      <trkpt lat="49.8128" lon="4.66854">
        <ele>240.5</ele>
        <time>2020-06-25T08:43:26Z</time>
      </trkpt>
      <trkpt lat="49.81273" lon="4.66861">
        <ele>239.8</ele>
        <time>2020-06-25T08:43:27Z</time>
      </trkpt>
      <trkpt lat="49.81266" lon="4.66866">
        <ele>239</ele>
        <time>2020-06-25T08:43:28Z</time>
      </trkpt>
      <trkpt lat="49.8126" lon="4.66871">
        <ele>238.3</ele>
        <time>2020-06-25T08:43:29Z</time>
      </trkpt>
      <trkpt lat="49.81254" lon="4.66876">
        <ele>237.6</ele>
        <time>2020-06-25T08:43:30Z</time>
      </trkpt>
      <trkpt lat="49.81249" lon="4.6688">
        <ele>237</ele>
        <time>2020-06-25T08:43:31Z</time>
      </trkpt>
      <trkpt lat="49.81242" lon="4.66884">
        <ele>236.3</ele>
        <time>2020-06-25T08:43:32Z</time>
      </trkpt>
      <trkpt lat="49.81235" lon="4.66889">
        <ele>235.5</ele>
        <time>2020-06-25T08:43:33Z</time>
      </trkpt>
      <trkpt lat="49.81228" lon="4.66894">
        <ele>234.6</ele>
        <time>2020-06-25T08:43:34Z</time>
      </trkpt>
      <trkpt lat="49.8122" lon="4.66898">
        <ele>233.7</ele>
        <time>2020-06-25T08:43:35Z</time>
      </trkpt>
      <trkpt lat="49.81212" lon="4.66903">
        <ele>232.7</ele>
        <time>2020-06-25T08:43:36Z</time>
      </trkpt>
      <trkpt lat="49.81203" lon="4.66909">
        <ele>231.6</ele>
        <time>2020-06-25T08:43:37Z</time>
      </trkpt>
      <trkpt lat="49.81195" lon="4.66913">
        <ele>230.6</ele>
        <time>2020-06-25T08:43:38Z</time>
      </trkpt>
      <trkpt lat="49.81187" lon="4.66918">
        <ele>229.7</ele>
        <time>2020-06-25T08:43:39Z</time>
      </trkpt>
      <trkpt lat="49.81178" lon="4.66922">
        <ele>227.8</ele>
        <time>2020-06-25T08:43:40Z</time>
      </trkpt>
      <trkpt lat="49.81169" lon="4.66927">
        <ele>226.5</ele>
        <time>2020-06-25T08:43:41Z</time>
      </trkpt>
      <trkpt lat="49.8116" lon="4.66931">
        <ele>225.2</ele>
        <time>2020-06-25T08:43:42Z</time>
      </trkpt>
      <trkpt lat="49.81151" lon="4.66937">
        <ele>223.9</ele>
        <time>2020-06-25T08:43:43Z</time>
      </trkpt>
      <trkpt lat="49.81142" lon="4.66942">
        <ele>222.5</ele>
        <time>2020-06-25T08:43:44Z</time>
      </trkpt>
      <trkpt lat="49.81132" lon="4.66947">
        <ele>221</ele>
        <time>2020-06-25T08:43:45Z</time>
      </trkpt>
      <trkpt lat="49.81123" lon="4.66951">
        <ele>219.6</ele>
        <time>2020-06-25T08:43:46Z</time>
      </trkpt>
      <trkpt lat="49.81115" lon="4.66955">
        <ele>218.4</ele>
        <time>2020-06-25T08:43:47Z</time>
      </trkpt>
      <trkpt lat="49.81108" lon="4.66959">
        <ele>217.5</ele>
        <time>2020-06-25T08:43:48Z</time>
      </trkpt>
      <trkpt lat="49.81102" lon="4.66962">
        <ele>216.6</ele>
        <time>2020-06-25T08:43:49Z</time>
      </trkpt>
      <trkpt lat="49.81097" lon="4.66966">
        <ele>216.3</ele>
        <time>2020-06-25T08:43:50Z</time>
      </trkpt>
      <trkpt lat="49.81091" lon="4.66969">
        <ele>216</ele>
        <time>2020-06-25T08:43:51Z</time>
      </trkpt>
      <trkpt lat="49.81085" lon="4.66973">
        <ele>215.7</ele>
        <time>2020-06-25T08:43:52Z</time>
      </trkpt>
      <trkpt lat="49.81079" lon="4.6698">
        <ele>215.3</ele>
        <time>2020-06-25T08:43:53Z</time>
      </trkpt>
      <trkpt lat="49.81077" lon="4.66988">
        <ele>221.2</ele>
        <time>2020-06-25T08:43:54Z</time>
      </trkpt>
      <trkpt lat="49.81077" lon="4.66995">
        <ele>221.3</ele>
        <time>2020-06-25T08:43:55Z</time>
      </trkpt>
      <trkpt lat="49.81076" lon="4.67001">
        <ele>221.3</ele>
        <time>2020-06-25T08:43:56Z</time>
      </trkpt>
      <trkpt lat="49.81075" lon="4.67005">
        <ele>221.4</ele>
        <time>2020-06-25T08:43:57Z</time>
      </trkpt>
      <trkpt lat="49.81077" lon="4.67009">
        <ele>221.4</ele>
        <time>2020-06-25T08:43:58Z</time>
      </trkpt>
      <trkpt lat="49.81077" lon="4.67011">
        <ele>221.5</ele>
        <time>2020-06-25T08:43:59Z</time>
      </trkpt>
      <trkpt lat="49.81079" lon="4.67012">
        <ele>221.5</ele>
        <time>2020-06-25T08:44:00Z</time>
      </trkpt>
      <trkpt lat="49.8108" lon="4.67013">
        <ele>221.5</ele>
        <time>2020-06-25T08:44:01Z</time>
      </trkpt>
      <trkpt lat="49.81081" lon="4.67015">
        <ele>221.5</ele>
        <time>2020-06-25T08:44:02Z</time>
      </trkpt>
      <trkpt lat="49.81081" lon="4.67016">
        <ele>221.6</ele>
        <time>2020-06-25T08:44:03Z</time>
      </trkpt>
      <trkpt lat="49.81083" lon="4.67017">
        <ele>221.6</ele>
        <time>2020-06-25T08:44:04Z</time>
      </trkpt>
      <trkpt lat="49.81082" lon="4.67018">
        <ele>221.6</ele>
        <time>2020-06-25T08:44:05Z</time>
      </trkpt>
      <trkpt lat="49.81083" lon="4.67019">
        <ele>221.6</ele>
        <time>2020-06-25T08:44:06Z</time>
      </trkpt>
      <trkpt lat="49.81083" lon="4.67019">
        <ele>221.6</ele>
        <time>2020-06-25T08:44:07Z</time>
      </trkpt>
      <trkpt lat="49.81084" lon="4.6702">
        <ele>221.6</ele>
        <time>2020-06-25T08:44:08Z</time>
      </trkpt>
      <trkpt lat="49.81085" lon="4.67021">
        <ele>221.6</ele>
        <time>2020-06-25T08:44:09Z</time>
      </trkpt>
      <trkpt lat="49.81085" lon="4.67021">
        <ele>221.7</ele>
        <time>2020-06-25T08:44:10Z</time>
      </trkpt>
      <trkpt lat="49.81085" lon="4.67022">
        <ele>221.7</ele>
        <time>2020-06-25T08:44:11Z</time>
      </trkpt>
      <trkpt lat="49.81086" lon="4.67023">
        <ele>221.7</ele>
        <time>2020-06-25T08:44:12Z</time>
      </trkpt>
      <trkpt lat="49.81086" lon="4.67024">
        <ele>221.7</ele>
        <time>2020-06-25T08:44:13Z</time>
      </trkpt>
      <trkpt lat="49.81086" lon="4.67024">
        <ele>221.7</ele>
        <time>2020-06-25T08:44:14Z</time>
      </trkpt>
      <trkpt lat="49.81087" lon="4.67024">
        <ele>221.7</ele>
        <time>2020-06-25T08:44:15Z</time>
      </trkpt>
      <trkpt lat="49.81087" lon="4.67024">
        <ele>221.7</ele>
        <time>2020-06-25T08:44:16Z</time>
      </trkpt>
      <trkpt lat="49.81087" lon="4.67024">
        <ele>221.7</ele>
        <time>2020-06-25T08:44:17Z</time>
      </trkpt>
      <trkpt lat="49.81087" lon="4.67023">
        <ele>221.7</ele>
        <time>2020-06-25T08:44:18Z</time>
      </trkpt>
      <trkpt lat="49.81087" lon="4.67023">
        <ele>221.7</ele>
        <time>2020-06-25T08:44:19Z</time>
      </trkpt>
      <trkpt lat="49.81087" lon="4.67023">
        <ele>221.7</ele>
        <time>2020-06-25T08:44:20Z</time>
      </trkpt>
      <trkpt lat="49.81086" lon="4.67023">
        <ele>221.7</ele>
        <time>2020-06-25T08:44:21Z</time>
      </trkpt>
      <trkpt lat="49.81087" lon="4.67023">
        <ele>221.7</ele>
        <time>2020-06-25T08:44:22Z</time>
      </trkpt>
      <trkpt lat="49.81085" lon="4.67014">
        <ele>221.8</ele>
        <time>2020-06-25T08:44:45Z</time>
      </trkpt>
      <trkpt lat="49.81084" lon="4.67009">
        <ele>221.9</ele>
        <time>2020-06-25T08:44:46Z</time>
      </trkpt>
      <trkpt lat="49.81084" lon="4.67002">
        <ele>221.5</ele>
        <time>2020-06-25T08:44:47Z</time>
      </trkpt>
      <trkpt lat="49.81084" lon="4.66994">
        <ele>220.2</ele>
        <time>2020-06-25T08:44:48Z</time>
      </trkpt>
      <trkpt lat="49.81082" lon="4.66987">
        <ele>219.1</ele>
        <time>2020-06-25T08:44:49Z</time>
      </trkpt>
      <trkpt lat="49.81079" lon="4.66981">
        <ele>218</ele>
        <time>2020-06-25T08:44:50Z</time>
      </trkpt>
      <trkpt lat="49.81074" lon="4.66979">
        <ele>216.9</ele>
        <time>2020-06-25T08:44:51Z</time>
      </trkpt>
      <trkpt lat="49.81069" lon="4.6698">
        <ele>215.8</ele>
        <time>2020-06-25T08:44:52Z</time>
      </trkpt>
      <trkpt lat="49.81065" lon="4.66982">
        <ele>216.2</ele>
        <time>2020-06-25T08:44:53Z</time>
      </trkpt>
      <trkpt lat="49.8106" lon="4.66985">
        <ele>215.3</ele>
        <time>2020-06-25T08:44:54Z</time>
      </trkpt>
      <trkpt lat="49.81055" lon="4.66989">
        <ele>214.5</ele>
        <time>2020-06-25T08:44:55Z</time>
      </trkpt>
      <trkpt lat="49.8105" lon="4.66992">
        <ele>213.7</ele>
        <time>2020-06-25T08:44:56Z</time>
      </trkpt>
      <trkpt lat="49.81045" lon="4.66994">
        <ele>213</ele>
        <time>2020-06-25T08:44:57Z</time>
      </trkpt>
      <trkpt lat="49.8104" lon="4.66998">
        <ele>211.9</ele>
        <time>2020-06-25T08:44:58Z</time>
      </trkpt>
      <trkpt lat="49.81036" lon="4.67004">
        <ele>211.9</ele>
        <time>2020-06-25T08:44:59Z</time>
      </trkpt>
      <trkpt lat="49.81032" lon="4.6701">
        <ele>211.8</ele>
        <time>2020-06-25T08:45:00Z</time>
      </trkpt>
      <trkpt lat="49.81028" lon="4.67016">
        <ele>211.8</ele>
        <time>2020-06-25T08:45:01Z</time>
      </trkpt>
      <trkpt lat="49.81023" lon="4.6702">
        <ele>211.8</ele>
        <time>2020-06-25T08:45:02Z</time>
      </trkpt>
      <trkpt lat="49.81019" lon="4.67023">
        <ele>211.8</ele>
        <time>2020-06-25T08:45:03Z</time>
      </trkpt>
      <trkpt lat="49.81014" lon="4.67024">
        <ele>211.8</ele>
        <time>2020-06-25T08:45:04Z</time>
      </trkpt>
      <trkpt lat="49.81009" lon="4.67023">
        <ele>211.9</ele>
        <time>2020-06-25T08:45:05Z</time>
      </trkpt>
      <trkpt lat="49.81005" lon="4.67022">
        <ele>212</ele>
        <time>2020-06-25T08:45:06Z</time>
      </trkpt>
      <trkpt lat="49.81001" lon="4.67022">
        <ele>212.2</ele>
        <time>2020-06-25T08:45:07Z</time>
      </trkpt>
      <trkpt lat="49.80996" lon="4.67021">
        <ele>212.3</ele>
        <time>2020-06-25T08:45:08Z</time>
      </trkpt>
      <trkpt lat="49.80992" lon="4.67022">
        <ele>212.5</ele>
        <time>2020-06-25T08:45:09Z</time>
      </trkpt>
      <trkpt lat="49.80987" lon="4.67023">
        <ele>212.7</ele>
        <time>2020-06-25T08:45:10Z</time>
      </trkpt>
      <trkpt lat="49.80983" lon="4.67021">
        <ele>213</ele>
        <time>2020-06-25T08:45:11Z</time>
      </trkpt>
      <trkpt lat="49.80978" lon="4.6702">
        <ele>213.2</ele>
        <time>2020-06-25T08:45:12Z</time>
      </trkpt>
      <trkpt lat="49.80975" lon="4.67019">
        <ele>213.4</ele>
        <time>2020-06-25T08:45:13Z</time>
      </trkpt>
      <trkpt lat="49.80971" lon="4.67018">
        <ele>213.5</ele>
        <time>2020-06-25T08:45:14Z</time>
      </trkpt>
      <trkpt lat="49.80968" lon="4.67018">
        <ele>213.7</ele>
        <time>2020-06-25T08:45:15Z</time>
      </trkpt>
      <trkpt lat="49.80965" lon="4.67017">
        <ele>213.8</ele>
        <time>2020-06-25T08:45:16Z</time>
      </trkpt>
      <trkpt lat="49.80961" lon="4.67016">
        <ele>214</ele>
        <time>2020-06-25T08:45:17Z</time>
      </trkpt>
      <trkpt lat="49.80958" lon="4.67015">
        <ele>214.1</ele>
        <time>2020-06-25T08:45:18Z</time>
      </trkpt>
      <trkpt lat="49.80954" lon="4.67013">
        <ele>214.2</ele>
        <time>2020-06-25T08:45:19Z</time>
      </trkpt>
      <trkpt lat="49.8095" lon="4.67013">
        <ele>214.3</ele>
        <time>2020-06-25T08:45:20Z</time>
      </trkpt>
      <trkpt lat="49.80946" lon="4.67012">
        <ele>214.5</ele>
        <time>2020-06-25T08:45:21Z</time>
      </trkpt>
      <trkpt lat="49.80942" lon="4.67011">
        <ele>214.6</ele>
        <time>2020-06-25T08:45:22Z</time>
      </trkpt>
      <trkpt lat="49.80939" lon="4.67009">
        <ele>214.8</ele>
        <time>2020-06-25T08:45:23Z</time>
      </trkpt>
      <trkpt lat="49.80935" lon="4.67009">
        <ele>214.9</ele>
        <time>2020-06-25T08:45:24Z</time>
      </trkpt>
      <trkpt lat="49.80931" lon="4.67008">
        <ele>215.1</ele>
        <time>2020-06-25T08:45:25Z</time>
      </trkpt>
      <trkpt lat="49.80927" lon="4.67006">
        <ele>215.3</ele>
        <time>2020-06-25T08:45:26Z</time>
      </trkpt>
      <trkpt lat="49.80924" lon="4.67005">
        <ele>215.5</ele>
        <time>2020-06-25T08:45:27Z</time>
      </trkpt>
      <trkpt lat="49.80921" lon="4.67004">
        <ele>215.7</ele>
        <time>2020-06-25T08:45:28Z</time>
      </trkpt>
      <trkpt lat="49.80918" lon="4.67003">
        <ele>215.9</ele>
        <time>2020-06-25T08:45:29Z</time>
      </trkpt>
      <trkpt lat="49.80914" lon="4.67002">
        <ele>216.1</ele>
        <time>2020-06-25T08:45:30Z</time>
      </trkpt>
      <trkpt lat="49.80913" lon="4.67001">
        <ele>216.2</ele>
        <time>2020-06-25T08:45:31Z</time>
      </trkpt>
      <trkpt lat="49.80909" lon="4.67">
        <ele>216.4</ele>
        <time>2020-06-25T08:45:32Z</time>
      </trkpt>
      <trkpt lat="49.80908" lon="4.66999">
        <ele>216.5</ele>
        <time>2020-06-25T08:45:33Z</time>
      </trkpt>
      <trkpt lat="49.80904" lon="4.66998">
        <ele>216.7</ele>
        <time>2020-06-25T08:45:34Z</time>
      </trkpt>
      <trkpt lat="49.80903" lon="4.66998">
        <ele>216.8</ele>
        <time>2020-06-25T08:45:35Z</time>
      </trkpt>
      <trkpt lat="49.809" lon="4.66998">
        <ele>216.9</ele>
        <time>2020-06-25T08:45:36Z</time>
      </trkpt>
      <trkpt lat="49.80897" lon="4.66997">
        <ele>217.1</ele>
        <time>2020-06-25T08:45:37Z</time>
      </trkpt>
      <trkpt lat="49.80894" lon="4.66996">
        <ele>217.3</ele>
        <time>2020-06-25T08:45:38Z</time>
      </trkpt>
      <trkpt lat="49.80892" lon="4.66996">
        <ele>217.4</ele>
        <time>2020-06-25T08:45:39Z</time>
      </trkpt>
      <trkpt lat="49.80889" lon="4.66995">
        <ele>217.6</ele>
        <time>2020-06-25T08:45:40Z</time>
      </trkpt>
      <trkpt lat="49.80888" lon="4.66994">
        <ele>217.7</ele>
        <time>2020-06-25T08:45:41Z</time>
      </trkpt>
      <trkpt lat="49.80884" lon="4.66994">
        <ele>217.9</ele>
        <time>2020-06-25T08:45:42Z</time>
      </trkpt>
      <trkpt lat="49.80883" lon="4.66994">
        <ele>218</ele>
        <time>2020-06-25T08:45:43Z</time>
      </trkpt>
      <trkpt lat="49.8088" lon="4.66993">
        <ele>218.2</ele>
        <time>2020-06-25T08:45:44Z</time>
      </trkpt>
      <trkpt lat="49.80876" lon="4.66991">
        <ele>218.4</ele>
        <time>2020-06-25T08:45:45Z</time>
      </trkpt>
      <trkpt lat="49.80875" lon="4.6699">
        <ele>218.5</ele>
        <time>2020-06-25T08:45:46Z</time>
      </trkpt>
      <trkpt lat="49.80871" lon="4.66989">
        <ele>218.8</ele>
        <time>2020-06-25T08:45:47Z</time>
      </trkpt>
      <trkpt lat="49.8087" lon="4.66988">
        <ele>218.9</ele>
        <time>2020-06-25T08:45:48Z</time>
      </trkpt>
      <trkpt lat="49.80867" lon="4.66987">
        <ele>219.1</ele>
        <time>2020-06-25T08:45:49Z</time>
      </trkpt>
      <trkpt lat="49.80864" lon="4.66986">
        <ele>219.3</ele>
        <time>2020-06-25T08:45:50Z</time>
      </trkpt>
      <trkpt lat="49.80861" lon="4.66984">
        <ele>219.6</ele>
        <time>2020-06-25T08:45:51Z</time>
      </trkpt>
      <trkpt lat="49.8086" lon="4.66984">
        <ele>219.7</ele>
        <time>2020-06-25T08:45:52Z</time>
      </trkpt>
      <trkpt lat="49.80857" lon="4.66982">
        <ele>219.9</ele>
        <time>2020-06-25T08:45:53Z</time>
      </trkpt>
      <trkpt lat="49.80856" lon="4.66981">
        <ele>220</ele>
        <time>2020-06-25T08:45:54Z</time>
      </trkpt>
      <trkpt lat="49.80853" lon="4.6698">
        <ele>220.2</ele>
        <time>2020-06-25T08:45:55Z</time>
      </trkpt>
      <trkpt lat="49.80852" lon="4.66979">
        <ele>220.3</ele>
        <time>2020-06-25T08:45:56Z</time>
      </trkpt>
      <trkpt lat="49.80849" lon="4.66978">
        <ele>220.5</ele>
        <time>2020-06-25T08:45:57Z</time>
      </trkpt>
      <trkpt lat="49.80847" lon="4.66977">
        <ele>220.6</ele>
        <time>2020-06-25T08:45:58Z</time>
      </trkpt>
      <trkpt lat="49.80844" lon="4.66976">
        <ele>220.8</ele>
        <time>2020-06-25T08:45:59Z</time>
      </trkpt>
      <trkpt lat="49.80842" lon="4.66976">
        <ele>220.9</ele>
        <time>2020-06-25T08:46:00Z</time>
      </trkpt>
      <trkpt lat="49.8084" lon="4.66974">
        <ele>221.1</ele>
        <time>2020-06-25T08:46:01Z</time>
      </trkpt>
      <trkpt lat="49.80839" lon="4.66974">
        <ele>221.2</ele>
        <time>2020-06-25T08:46:02Z</time>
      </trkpt>
      <trkpt lat="49.80836" lon="4.66973">
        <ele>221.3</ele>
        <time>2020-06-25T08:46:03Z</time>
      </trkpt>
      <trkpt lat="49.80833" lon="4.66971">
        <ele>221.5</ele>
        <time>2020-06-25T08:46:04Z</time>
      </trkpt>
      <trkpt lat="49.80832" lon="4.6697">
        <ele>221.6</ele>
        <time>2020-06-25T08:46:05Z</time>
      </trkpt>
      <trkpt lat="49.80828" lon="4.66967">
        <ele>221.8</ele>
        <time>2020-06-25T08:46:06Z</time>
      </trkpt>
      <trkpt lat="49.80827" lon="4.66966">
        <ele>221.9</ele>
        <time>2020-06-25T08:46:07Z</time>
      </trkpt>
      <trkpt lat="49.80824" lon="4.66964">
        <ele>222</ele>
        <time>2020-06-25T08:46:08Z</time>
      </trkpt>
      <trkpt lat="49.8082" lon="4.66961">
        <ele>222.3</ele>
        <time>2020-06-25T08:46:09Z</time>
      </trkpt>
      <trkpt lat="49.80819" lon="4.66959">
        <ele>222.4</ele>
        <time>2020-06-25T08:46:10Z</time>
      </trkpt>
      <trkpt lat="49.80816" lon="4.66958">
        <ele>222.5</ele>
        <time>2020-06-25T08:46:11Z</time>
      </trkpt>
      <trkpt lat="49.80813" lon="4.66955">
        <ele>222.7</ele>
        <time>2020-06-25T08:46:12Z</time>
      </trkpt>
      <trkpt lat="49.8081" lon="4.66953">
        <ele>222.8</ele>
        <time>2020-06-25T08:46:13Z</time>
      </trkpt>
      <trkpt lat="49.80809" lon="4.66953">
        <ele>222.9</ele>
        <time>2020-06-25T08:46:14Z</time>
      </trkpt>
      <trkpt lat="49.80806" lon="4.66952">
        <ele>223.1</ele>
        <time>2020-06-25T08:46:15Z</time>
      </trkpt>
      <trkpt lat="49.80802" lon="4.66949">
        <ele>223.3</ele>
        <time>2020-06-25T08:46:16Z</time>
      </trkpt>
      <trkpt lat="49.80801" lon="4.66948">
        <ele>223.3</ele>
        <time>2020-06-25T08:46:17Z</time>
      </trkpt>
      <trkpt lat="49.80797" lon="4.66946">
        <ele>223.5</ele>
        <time>2020-06-25T08:46:18Z</time>
      </trkpt>
      <trkpt lat="49.80793" lon="4.66943">
        <ele>223.8</ele>
        <time>2020-06-25T08:46:19Z</time>
      </trkpt>
      <trkpt lat="49.8079" lon="4.6694">
        <ele>224</ele>
        <time>2020-06-25T08:46:20Z</time>
      </trkpt>
      <trkpt lat="49.80787" lon="4.66938">
        <ele>224.2</ele>
        <time>2020-06-25T08:46:21Z</time>
      </trkpt>
      <trkpt lat="49.80783" lon="4.66935">
        <ele>224.4</ele>
        <time>2020-06-25T08:46:22Z</time>
      </trkpt>
      <trkpt lat="49.8078" lon="4.66933">
        <ele>224.6</ele>
        <time>2020-06-25T08:46:23Z</time>
      </trkpt>
      <trkpt lat="49.80776" lon="4.6693">
        <ele>224.8</ele>
        <time>2020-06-25T08:46:24Z</time>
      </trkpt>
      <trkpt lat="49.80772" lon="4.66927">
        <ele>225.1</ele>
        <time>2020-06-25T08:46:25Z</time>
      </trkpt>
      <trkpt lat="49.80769" lon="4.66925">
        <ele>225.3</ele>
        <time>2020-06-25T08:46:26Z</time>
      </trkpt>
      <trkpt lat="49.80765" lon="4.66924">
        <ele>225.5</ele>
        <time>2020-06-25T08:46:27Z</time>
      </trkpt>
      <trkpt lat="49.80761" lon="4.66922">
        <ele>225.7</ele>
        <time>2020-06-25T08:46:28Z</time>
      </trkpt>
      <trkpt lat="49.80758" lon="4.6692">
        <ele>225.9</ele>
        <time>2020-06-25T08:46:29Z</time>
      </trkpt>
      <trkpt lat="49.80754" lon="4.66918">
        <ele>226.1</ele>
        <time>2020-06-25T08:46:30Z</time>
      </trkpt>
      <trkpt lat="49.80751" lon="4.66916">
        <ele>226.2</ele>
        <time>2020-06-25T08:46:31Z</time>
      </trkpt>
      <trkpt lat="49.80748" lon="4.66914">
        <ele>226.4</ele>
        <time>2020-06-25T08:46:32Z</time>
      </trkpt>
      <trkpt lat="49.80744" lon="4.66912">
        <ele>226.6</ele>
        <time>2020-06-25T08:46:33Z</time>
      </trkpt>
      <trkpt lat="49.8074" lon="4.66911">
        <ele>226.8</ele>
        <time>2020-06-25T08:46:34Z</time>
      </trkpt>
      <trkpt lat="49.80735" lon="4.66909">
        <ele>227</ele>
        <time>2020-06-25T08:46:35Z</time>
      </trkpt>
      <trkpt lat="49.80731" lon="4.66908">
        <ele>227.2</ele>
        <time>2020-06-25T08:46:36Z</time>
      </trkpt>
      <trkpt lat="49.80728" lon="4.66906">
        <ele>227.3</ele>
        <time>2020-06-25T08:46:37Z</time>
      </trkpt>
      <trkpt lat="49.80725" lon="4.66904">
        <ele>227.5</ele>
        <time>2020-06-25T08:46:38Z</time>
      </trkpt>
      <trkpt lat="49.80721" lon="4.66902">
        <ele>227.7</ele>
        <time>2020-06-25T08:46:39Z</time>
      </trkpt>
      <trkpt lat="49.80717" lon="4.66901">
        <ele>227.8</ele>
        <time>2020-06-25T08:46:40Z</time>
      </trkpt>
      <trkpt lat="49.80713" lon="4.66899">
        <ele>228</ele>
        <time>2020-06-25T08:46:41Z</time>
      </trkpt>
      <trkpt lat="49.8071" lon="4.66898">
        <ele>228.1</ele>
        <time>2020-06-25T08:46:42Z</time>
      </trkpt>
      <trkpt lat="49.80706" lon="4.66897">
        <ele>228.3</ele>
        <time>2020-06-25T08:46:43Z</time>
      </trkpt>
      <trkpt lat="49.80702" lon="4.66896">
        <ele>228.4</ele>
        <time>2020-06-25T08:46:44Z</time>
      </trkpt>
      <trkpt lat="49.80698" lon="4.66894">
        <ele>228.5</ele>
        <time>2020-06-25T08:46:45Z</time>
      </trkpt>
      <trkpt lat="49.80694" lon="4.66893">
        <ele>228.5</ele>
        <time>2020-06-25T08:46:46Z</time>
      </trkpt>
      <trkpt lat="49.8069" lon="4.66893">
        <ele>228.6</ele>
        <time>2020-06-25T08:46:47Z</time>
      </trkpt>
      <trkpt lat="49.80687" lon="4.66893">
        <ele>228.6</ele>
        <time>2020-06-25T08:46:48Z</time>
      </trkpt>
      <trkpt lat="49.80683" lon="4.66893">
        <ele>228.5</ele>
        <time>2020-06-25T08:46:49Z</time>
      </trkpt>
      <trkpt lat="49.8068" lon="4.66893">
        <ele>228.5</ele>
        <time>2020-06-25T08:46:50Z</time>
      </trkpt>
      <trkpt lat="49.80676" lon="4.66893">
        <ele>228.4</ele>
        <time>2020-06-25T08:46:51Z</time>
      </trkpt>
      <trkpt lat="49.80672" lon="4.66893">
        <ele>228.3</ele>
        <time>2020-06-25T08:46:52Z</time>
      </trkpt>
      <trkpt lat="49.80668" lon="4.66892">
        <ele>228.2</ele>
        <time>2020-06-25T08:46:53Z</time>
      </trkpt>
      <trkpt lat="49.80664" lon="4.66893">
        <ele>228</ele>
        <time>2020-06-25T08:46:54Z</time>
      </trkpt>
      <trkpt lat="49.80661" lon="4.66894">
        <ele>227.8</ele>
        <time>2020-06-25T08:46:55Z</time>
      </trkpt>
      <trkpt lat="49.80658" lon="4.66895">
        <ele>227.6</ele>
        <time>2020-06-25T08:46:56Z</time>
      </trkpt>
      <trkpt lat="49.80653" lon="4.66896">
        <ele>227.4</ele>
        <time>2020-06-25T08:46:57Z</time>
      </trkpt>
      <trkpt lat="49.80649" lon="4.66897">
        <ele>227.1</ele>
        <time>2020-06-25T08:46:58Z</time>
      </trkpt>
      <trkpt lat="49.80644" lon="4.66898">
        <ele>226.8</ele>
        <time>2020-06-25T08:46:59Z</time>
      </trkpt>
      <trkpt lat="49.80638" lon="4.66898">
        <ele>226.3</ele>
        <time>2020-06-25T08:47:00Z</time>
      </trkpt>
      <trkpt lat="49.80632" lon="4.669">
        <ele>225.8</ele>
        <time>2020-06-25T08:47:01Z</time>
      </trkpt>
      <trkpt lat="49.80626" lon="4.66901">
        <ele>225.3</ele>
        <time>2020-06-25T08:47:02Z</time>
      </trkpt>
      <trkpt lat="49.8062" lon="4.66904">
        <ele>224.7</ele>
        <time>2020-06-25T08:47:03Z</time>
      </trkpt>
      <trkpt lat="49.80613" lon="4.66905">
        <ele>224.1</ele>
        <time>2020-06-25T08:47:04Z</time>
      </trkpt>
      <trkpt lat="49.80607" lon="4.66906">
        <ele>223.4</ele>
        <time>2020-06-25T08:47:05Z</time>
      </trkpt>
      <trkpt lat="49.80599" lon="4.66906">
        <ele>222.6</ele>
        <time>2020-06-25T08:47:06Z</time>
      </trkpt>
      <trkpt lat="49.80592" lon="4.66908">
        <ele>221.7</ele>
        <time>2020-06-25T08:47:07Z</time>
      </trkpt>
      <trkpt lat="49.80584" lon="4.66909">
        <ele>220.8</ele>
        <time>2020-06-25T08:47:08Z</time>
      </trkpt>
      <trkpt lat="49.80575" lon="4.66911">
        <ele>219.8</ele>
        <time>2020-06-25T08:47:09Z</time>
      </trkpt>
      <trkpt lat="49.80566" lon="4.66914">
        <ele>218.8</ele>
        <time>2020-06-25T08:47:10Z</time>
      </trkpt>
      <trkpt lat="49.80558" lon="4.66918">
        <ele>217.2</ele>
        <time>2020-06-25T08:47:11Z</time>
      </trkpt>
      <trkpt lat="49.80549" lon="4.66922">
        <ele>216.4</ele>
        <time>2020-06-25T08:47:12Z</time>
      </trkpt>
      <trkpt lat="49.80541" lon="4.66927">
        <ele>215.7</ele>
        <time>2020-06-25T08:47:13Z</time>
      </trkpt>
      <trkpt lat="49.80531" lon="4.66931">
        <ele>214.9</ele>
        <time>2020-06-25T08:47:14Z</time>
      </trkpt>
      <trkpt lat="49.80521" lon="4.66934">
        <ele>214.2</ele>
        <time>2020-06-25T08:47:15Z</time>
      </trkpt>
      <trkpt lat="49.80511" lon="4.66937">
        <ele>213.7</ele>
        <time>2020-06-25T08:47:16Z</time>
      </trkpt>
      <trkpt lat="49.805" lon="4.66937">
        <ele>213.2</ele>
        <time>2020-06-25T08:47:17Z</time>
      </trkpt>
      <trkpt lat="49.80489" lon="4.66936">
        <ele>212.9</ele>
        <time>2020-06-25T08:47:18Z</time>
      </trkpt>
      <trkpt lat="49.80479" lon="4.66932">
        <ele>212.6</ele>
        <time>2020-06-25T08:47:19Z</time>
      </trkpt>
      <trkpt lat="49.80469" lon="4.66927">
        <ele>212.4</ele>
        <time>2020-06-25T08:47:20Z</time>
      </trkpt>
      <trkpt lat="49.80459" lon="4.66923">
        <ele>212.3</ele>
        <time>2020-06-25T08:47:21Z</time>
      </trkpt>
      <trkpt lat="49.80449" lon="4.66919">
        <ele>212.4</ele>
        <time>2020-06-25T08:47:22Z</time>
      </trkpt>
      <trkpt lat="49.80439" lon="4.66915">
        <ele>212.6</ele>
        <time>2020-06-25T08:47:23Z</time>
      </trkpt>
      <trkpt lat="49.8043" lon="4.6691">
        <ele>212.9</ele>
        <time>2020-06-25T08:47:24Z</time>
      </trkpt>
      <trkpt lat="49.8042" lon="4.66905">
        <ele>213.3</ele>
        <time>2020-06-25T08:47:25Z</time>
      </trkpt>
      <trkpt lat="49.80412" lon="4.66901">
        <ele>213.8</ele>
        <time>2020-06-25T08:47:26Z</time>
      </trkpt>
      <trkpt lat="49.80403" lon="4.66897">
        <ele>214.3</ele>
        <time>2020-06-25T08:47:27Z</time>
      </trkpt>
      <trkpt lat="49.80395" lon="4.66893">
        <ele>214.9</ele>
        <time>2020-06-25T08:47:28Z</time>
      </trkpt>
      <trkpt lat="49.80388" lon="4.66889">
        <ele>215.4</ele>
        <time>2020-06-25T08:47:29Z</time>
      </trkpt>
      <trkpt lat="49.80381" lon="4.66886">
        <ele>215.8</ele>
        <time>2020-06-25T08:47:30Z</time>
      </trkpt>
      <trkpt lat="49.80374" lon="4.66884">
        <ele>216.2</ele>
        <time>2020-06-25T08:47:31Z</time>
      </trkpt>
      <trkpt lat="49.80368" lon="4.66882">
        <ele>216.9</ele>
        <time>2020-06-25T08:47:32Z</time>
      </trkpt>
      <trkpt lat="49.80362" lon="4.66881">
        <ele>217.5</ele>
        <time>2020-06-25T08:47:33Z</time>
      </trkpt>
      <trkpt lat="49.80357" lon="4.66882">
        <ele>218</ele>
        <time>2020-06-25T08:47:34Z</time>
      </trkpt>
      <trkpt lat="49.80351" lon="4.66883">
        <ele>218.4</ele>
        <time>2020-06-25T08:47:35Z</time>
      </trkpt>
      <trkpt lat="49.80346" lon="4.66883">
        <ele>218.8</ele>
        <time>2020-06-25T08:47:36Z</time>
      </trkpt>
      <trkpt lat="49.80341" lon="4.66883">
        <ele>219.1</ele>
        <time>2020-06-25T08:47:37Z</time>
      </trkpt>
      <trkpt lat="49.80335" lon="4.66883">
        <ele>219.4</ele>
        <time>2020-06-25T08:47:38Z</time>
      </trkpt>
      <trkpt lat="49.80331" lon="4.66884">
        <ele>219.6</ele>
        <time>2020-06-25T08:47:39Z</time>
      </trkpt>
      <trkpt lat="49.80327" lon="4.66886">
        <ele>219.7</ele>
        <time>2020-06-25T08:47:40Z</time>
      </trkpt>
      <trkpt lat="49.80323" lon="4.66888">
        <ele>219.9</ele>
        <time>2020-06-25T08:47:41Z</time>
      </trkpt>
      <trkpt lat="49.80318" lon="4.66891">
        <ele>220</ele>
        <time>2020-06-25T08:47:42Z</time>
      </trkpt>
      <trkpt lat="49.80313" lon="4.66894">
        <ele>220.2</ele>
        <time>2020-06-25T08:47:43Z</time>
      </trkpt>
      <trkpt lat="49.80308" lon="4.66896">
        <ele>220.3</ele>
        <time>2020-06-25T08:47:44Z</time>
      </trkpt>
      <trkpt lat="49.80304" lon="4.66898">
        <ele>220.3</ele>
        <time>2020-06-25T08:47:45Z</time>
      </trkpt>
      <trkpt lat="49.80299" lon="4.66901">
        <ele>220.4</ele>
        <time>2020-06-25T08:47:46Z</time>
      </trkpt>
      <trkpt lat="49.80295" lon="4.66903">
        <ele>220.4</ele>
        <time>2020-06-25T08:47:47Z</time>
      </trkpt>
      <trkpt lat="49.8029" lon="4.66905">
        <ele>220.5</ele>
        <time>2020-06-25T08:47:48Z</time>
      </trkpt>
      <trkpt lat="49.80286" lon="4.66907">
        <ele>220.5</ele>
        <time>2020-06-25T08:47:49Z</time>
      </trkpt>
      <trkpt lat="49.80282" lon="4.6691">
        <ele>220.4</ele>
        <time>2020-06-25T08:47:50Z</time>
      </trkpt>
      <trkpt lat="49.80277" lon="4.66914">
        <ele>220.4</ele>
        <time>2020-06-25T08:47:51Z</time>
      </trkpt>
      <trkpt lat="49.80272" lon="4.66918">
        <ele>220.3</ele>
        <time>2020-06-25T08:47:52Z</time>
      </trkpt>
      <trkpt lat="49.80267" lon="4.66922">
        <ele>220.3</ele>
        <time>2020-06-25T08:47:53Z</time>
      </trkpt>
      <trkpt lat="49.80262" lon="4.66927">
        <ele>220.1</ele>
        <time>2020-06-25T08:47:54Z</time>
      </trkpt>
      <trkpt lat="49.80257" lon="4.66931">
        <ele>220</ele>
        <time>2020-06-25T08:47:55Z</time>
      </trkpt>
      <trkpt lat="49.80252" lon="4.66935">
        <ele>219.9</ele>
        <time>2020-06-25T08:47:56Z</time>
      </trkpt>
      <trkpt lat="49.80246" lon="4.6694">
        <ele>219.8</ele>
        <time>2020-06-25T08:47:57Z</time>
      </trkpt>
      <trkpt lat="49.80241" lon="4.66944">
        <ele>219.7</ele>
        <time>2020-06-25T08:47:58Z</time>
      </trkpt>
      <trkpt lat="49.80236" lon="4.66948">
        <ele>219.6</ele>
        <time>2020-06-25T08:47:59Z</time>
      </trkpt>
      <trkpt lat="49.80231" lon="4.66953">
        <ele>219.6</ele>
        <time>2020-06-25T08:48:00Z</time>
      </trkpt>
      <trkpt lat="49.80225" lon="4.66959">
        <ele>219.5</ele>
        <time>2020-06-25T08:48:01Z</time>
      </trkpt>
      <trkpt lat="49.8022" lon="4.66964">
        <ele>219.5</ele>
        <time>2020-06-25T08:48:02Z</time>
      </trkpt>
      <trkpt lat="49.80215" lon="4.66969">
        <ele>219.4</ele>
        <time>2020-06-25T08:48:03Z</time>
      </trkpt>
      <trkpt lat="49.8021" lon="4.66974">
        <ele>219.4</ele>
        <time>2020-06-25T08:48:04Z</time>
      </trkpt>
      <trkpt lat="49.80206" lon="4.66979">
        <ele>219.3</ele>
        <time>2020-06-25T08:48:05Z</time>
      </trkpt>
      <trkpt lat="49.80203" lon="4.66983">
        <ele>219.3</ele>
        <time>2020-06-25T08:48:06Z</time>
      </trkpt>
      <trkpt lat="49.80199" lon="4.66987">
        <ele>219.3</ele>
        <time>2020-06-25T08:48:07Z</time>
      </trkpt>
      <trkpt lat="49.80196" lon="4.66992">
        <ele>219.2</ele>
        <time>2020-06-25T08:48:08Z</time>
      </trkpt>
      <trkpt lat="49.80191" lon="4.66998">
        <ele>219.2</ele>
        <time>2020-06-25T08:48:09Z</time>
      </trkpt>
      <trkpt lat="49.80187" lon="4.67003">
        <ele>219.2</ele>
        <time>2020-06-25T08:48:10Z</time>
      </trkpt>
      <trkpt lat="49.80183" lon="4.67008">
        <ele>219.1</ele>
        <time>2020-06-25T08:48:11Z</time>
      </trkpt>
      <trkpt lat="49.80178" lon="4.67013">
        <ele>219</ele>
        <time>2020-06-25T08:48:12Z</time>
      </trkpt>
      <trkpt lat="49.80174" lon="4.67016">
        <ele>219</ele>
        <time>2020-06-25T08:48:13Z</time>
      </trkpt>
      <trkpt lat="49.80169" lon="4.67019">
        <ele>218.9</ele>
        <time>2020-06-25T08:48:14Z</time>
      </trkpt>
      <trkpt lat="49.80164" lon="4.67021">
        <ele>218.9</ele>
        <time>2020-06-25T08:48:15Z</time>
      </trkpt>
      <trkpt lat="49.80158" lon="4.67023">
        <ele>218.8</ele>
        <time>2020-06-25T08:48:16Z</time>
      </trkpt>
      <trkpt lat="49.80152" lon="4.67026">
        <ele>218.7</ele>
        <time>2020-06-25T08:48:17Z</time>
      </trkpt>
      <trkpt lat="49.80147" lon="4.67027">
        <ele>218.6</ele>
        <time>2020-06-25T08:48:18Z</time>
      </trkpt>
      <trkpt lat="49.80141" lon="4.67027">
        <ele>218.4</ele>
        <time>2020-06-25T08:48:19Z</time>
      </trkpt>
      <trkpt lat="49.80136" lon="4.67028">
        <ele>218.4</ele>
        <time>2020-06-25T08:48:20Z</time>
      </trkpt>
      <trkpt lat="49.8013" lon="4.67028">
        <ele>218.3</ele>
        <time>2020-06-25T08:48:21Z</time>
      </trkpt>
      <trkpt lat="49.80124" lon="4.67029">
        <ele>218.2</ele>
        <time>2020-06-25T08:48:22Z</time>
      </trkpt>
      <trkpt lat="49.80119" lon="4.6703">
        <ele>218.2</ele>
        <time>2020-06-25T08:48:23Z</time>
      </trkpt>
      <trkpt lat="49.80112" lon="4.67031">
        <ele>218.1</ele>
        <time>2020-06-25T08:48:24Z</time>
      </trkpt>
      <trkpt lat="49.80107" lon="4.67032">
        <ele>218</ele>
        <time>2020-06-25T08:48:25Z</time>
      </trkpt>
      <trkpt lat="49.80102" lon="4.67032">
        <ele>218</ele>
        <time>2020-06-25T08:48:26Z</time>
      </trkpt>
      <trkpt lat="49.80097" lon="4.67031">
        <ele>217.9</ele>
        <time>2020-06-25T08:48:27Z</time>
      </trkpt>
      <trkpt lat="49.80093" lon="4.67031">
        <ele>217.8</ele>
        <time>2020-06-25T08:48:28Z</time>
      </trkpt>
      <trkpt lat="49.80088" lon="4.67032">
        <ele>217.8</ele>
        <time>2020-06-25T08:48:29Z</time>
      </trkpt>
      <trkpt lat="49.80082" lon="4.67032">
        <ele>217.7</ele>
        <time>2020-06-25T08:48:30Z</time>
      </trkpt>
      <trkpt lat="49.80076" lon="4.67034">
        <ele>217.6</ele>
        <time>2020-06-25T08:48:31Z</time>
      </trkpt>
      <trkpt lat="49.8007" lon="4.67034">
        <ele>217.4</ele>
        <time>2020-06-25T08:48:32Z</time>
      </trkpt>
      <trkpt lat="49.80064" lon="4.67034">
        <ele>217.3</ele>
        <time>2020-06-25T08:48:33Z</time>
      </trkpt>
      <trkpt lat="49.80057" lon="4.67035">
        <ele>217.1</ele>
        <time>2020-06-25T08:48:34Z</time>
      </trkpt>
      <trkpt lat="49.80052" lon="4.67035">
        <ele>217</ele>
        <time>2020-06-25T08:48:35Z</time>
      </trkpt>
      <trkpt lat="49.80047" lon="4.67034">
        <ele>216.8</ele>
        <time>2020-06-25T08:48:36Z</time>
      </trkpt>
      <trkpt lat="49.80041" lon="4.67033">
        <ele>216.6</ele>
        <time>2020-06-25T08:48:37Z</time>
      </trkpt>
      <trkpt lat="49.80035" lon="4.67033">
        <ele>216.3</ele>
        <time>2020-06-25T08:48:38Z</time>
      </trkpt>
      <trkpt lat="49.80028" lon="4.67031">
        <ele>216.1</ele>
        <time>2020-06-25T08:48:39Z</time>
      </trkpt>
      <trkpt lat="49.80022" lon="4.67031">
        <ele>215.9</ele>
        <time>2020-06-25T08:48:40Z</time>
      </trkpt>
      <trkpt lat="49.80016" lon="4.6703">
        <ele>215.7</ele>
        <time>2020-06-25T08:48:41Z</time>
      </trkpt>
      <trkpt lat="49.8001" lon="4.67029">
        <ele>215.5</ele>
        <time>2020-06-25T08:48:42Z</time>
      </trkpt>
      <trkpt lat="49.80004" lon="4.67029">
        <ele>215.3</ele>
        <time>2020-06-25T08:48:43Z</time>
      </trkpt>
      <trkpt lat="49.79998" lon="4.67029">
        <ele>215.1</ele>
        <time>2020-06-25T08:48:44Z</time>
      </trkpt>
      <trkpt lat="49.79991" lon="4.67029">
        <ele>214.9</ele>
        <time>2020-06-25T08:48:45Z</time>
      </trkpt>
      <trkpt lat="49.79983" lon="4.67029">
        <ele>214.7</ele>
        <time>2020-06-25T08:48:46Z</time>
      </trkpt>
      <trkpt lat="49.79977" lon="4.67028">
        <ele>214.6</ele>
        <time>2020-06-25T08:48:47Z</time>
      </trkpt>
      <trkpt lat="49.79971" lon="4.67027">
        <ele>214.4</ele>
        <time>2020-06-25T08:48:48Z</time>
      </trkpt>
      <trkpt lat="49.79964" lon="4.67027">
        <ele>214.2</ele>
        <time>2020-06-25T08:48:49Z</time>
      </trkpt>
      <trkpt lat="49.79958" lon="4.67026">
        <ele>213.9</ele>
        <time>2020-06-25T08:48:50Z</time>
      </trkpt>
      <trkpt lat="49.79951" lon="4.67026">
        <ele>213.7</ele>
        <time>2020-06-25T08:48:51Z</time>
      </trkpt>
      <trkpt lat="49.79944" lon="4.67026">
        <ele>213.4</ele>
        <time>2020-06-25T08:48:52Z</time>
      </trkpt>
      <trkpt lat="49.79937" lon="4.67025">
        <ele>213.2</ele>
        <time>2020-06-25T08:48:53Z</time>
      </trkpt>
      <trkpt lat="49.7993" lon="4.67024">
        <ele>212.9</ele>
        <time>2020-06-25T08:48:54Z</time>
      </trkpt>
      <trkpt lat="49.79924" lon="4.67024">
        <ele>212.6</ele>
        <time>2020-06-25T08:48:55Z</time>
      </trkpt>
      <trkpt lat="49.79917" lon="4.67024">
        <ele>212.3</ele>
        <time>2020-06-25T08:48:56Z</time>
      </trkpt>
      <trkpt lat="49.7991" lon="4.67024">
        <ele>212</ele>
        <time>2020-06-25T08:48:57Z</time>
      </trkpt>
      <trkpt lat="49.79904" lon="4.67023">
        <ele>211.8</ele>
        <time>2020-06-25T08:48:58Z</time>
      </trkpt>
      <trkpt lat="49.79897" lon="4.67022">
        <ele>211.5</ele>
        <time>2020-06-25T08:48:59Z</time>
      </trkpt>
      <trkpt lat="49.7989" lon="4.67022">
        <ele>211.2</ele>
        <time>2020-06-25T08:49:00Z</time>
      </trkpt>
      <trkpt lat="49.79883" lon="4.67021">
        <ele>210.9</ele>
        <time>2020-06-25T08:49:01Z</time>
      </trkpt>
      <trkpt lat="49.79875" lon="4.6702">
        <ele>210.5</ele>
        <time>2020-06-25T08:49:02Z</time>
      </trkpt>
      <trkpt lat="49.79868" lon="4.67019">
        <ele>210.2</ele>
        <time>2020-06-25T08:49:03Z</time>
      </trkpt>
      <trkpt lat="49.7986" lon="4.67017">
        <ele>209.9</ele>
        <time>2020-06-25T08:49:04Z</time>
      </trkpt>
      <trkpt lat="49.79853" lon="4.67016">
        <ele>209.6</ele>
        <time>2020-06-25T08:49:05Z</time>
      </trkpt>
      <trkpt lat="49.79846" lon="4.67015">
        <ele>209.3</ele>
        <time>2020-06-25T08:49:06Z</time>
      </trkpt>
      <trkpt lat="49.79838" lon="4.67014">
        <ele>208.9</ele>
        <time>2020-06-25T08:49:07Z</time>
      </trkpt>
      <trkpt lat="49.7983" lon="4.67013">
        <ele>208.6</ele>
        <time>2020-06-25T08:49:08Z</time>
      </trkpt>
      <trkpt lat="49.79822" lon="4.67011">
        <ele>208.3</ele>
        <time>2020-06-25T08:49:09Z</time>
      </trkpt>
      <trkpt lat="49.79814" lon="4.67008">
        <ele>208</ele>
        <time>2020-06-25T08:49:10Z</time>
      </trkpt>
      <trkpt lat="49.79806" lon="4.67005">
        <ele>207.7</ele>
        <time>2020-06-25T08:49:11Z</time>
      </trkpt>
      <trkpt lat="49.79798" lon="4.67004">
        <ele>207.5</ele>
        <time>2020-06-25T08:49:12Z</time>
      </trkpt>
      <trkpt lat="49.7979" lon="4.67002">
        <ele>207.2</ele>
        <time>2020-06-25T08:49:13Z</time>
      </trkpt>
      <trkpt lat="49.79781" lon="4.67">
        <ele>207</ele>
        <time>2020-06-25T08:49:14Z</time>
      </trkpt>
      <trkpt lat="49.79773" lon="4.66998">
        <ele>206.8</ele>
        <time>2020-06-25T08:49:15Z</time>
      </trkpt>
      <trkpt lat="49.79765" lon="4.66997">
        <ele>206.6</ele>
        <time>2020-06-25T08:49:16Z</time>
      </trkpt>
      <trkpt lat="49.79758" lon="4.66995">
        <ele>206.4</ele>
        <time>2020-06-25T08:49:17Z</time>
      </trkpt>
      <trkpt lat="49.7975" lon="4.66994">
        <ele>206.2</ele>
        <time>2020-06-25T08:49:18Z</time>
      </trkpt>
      <trkpt lat="49.79743" lon="4.66992">
        <ele>206.1</ele>
        <time>2020-06-25T08:49:19Z</time>
      </trkpt>
      <trkpt lat="49.79736" lon="4.66991">
        <ele>205.9</ele>
        <time>2020-06-25T08:49:20Z</time>
      </trkpt>
      <trkpt lat="49.79729" lon="4.66989">
        <ele>205.8</ele>
        <time>2020-06-25T08:49:21Z</time>
      </trkpt>
      <trkpt lat="49.79722" lon="4.66987">
        <ele>205.7</ele>
        <time>2020-06-25T08:49:22Z</time>
      </trkpt>
      <trkpt lat="49.79715" lon="4.66986">
        <ele>205.5</ele>
        <time>2020-06-25T08:49:23Z</time>
      </trkpt>
      <trkpt lat="49.79708" lon="4.66985">
        <ele>205.3</ele>
        <time>2020-06-25T08:49:24Z</time>
      </trkpt>
      <trkpt lat="49.79701" lon="4.66983">
        <ele>205.2</ele>
        <time>2020-06-25T08:49:25Z</time>
      </trkpt>
      <trkpt lat="49.79694" lon="4.66981">
        <ele>205.1</ele>
        <time>2020-06-25T08:49:26Z</time>
      </trkpt>
      <trkpt lat="49.79688" lon="4.66978">
        <ele>205</ele>
        <time>2020-06-25T08:49:27Z</time>
      </trkpt>
      <trkpt lat="49.79681" lon="4.66977">
        <ele>204.9</ele>
        <time>2020-06-25T08:49:28Z</time>
      </trkpt>
      <trkpt lat="49.79674" lon="4.66976">
        <ele>204.8</ele>
        <time>2020-06-25T08:49:29Z</time>
      </trkpt>
      <trkpt lat="49.79667" lon="4.66975">
        <ele>204.6</ele>
        <time>2020-06-25T08:49:30Z</time>
      </trkpt>
      <trkpt lat="49.79661" lon="4.66974">
        <ele>204.4</ele>
        <time>2020-06-25T08:49:31Z</time>
      </trkpt>
      <trkpt lat="49.79654" lon="4.66974">
        <ele>204.3</ele>
        <time>2020-06-25T08:49:32Z</time>
      </trkpt>
      <trkpt lat="49.79647" lon="4.66973">
        <ele>204.2</ele>
        <time>2020-06-25T08:49:33Z</time>
      </trkpt>
      <trkpt lat="49.7964" lon="4.66973">
        <ele>204.1</ele>
        <time>2020-06-25T08:49:34Z</time>
      </trkpt>
      <trkpt lat="49.79633" lon="4.66973">
        <ele>203.9</ele>
        <time>2020-06-25T08:49:35Z</time>
      </trkpt>
      <trkpt lat="49.79627" lon="4.66973">
        <ele>203.8</ele>
        <time>2020-06-25T08:49:36Z</time>
      </trkpt>
      <trkpt lat="49.7962" lon="4.66974">
        <ele>203.9</ele>
        <time>2020-06-25T08:49:37Z</time>
      </trkpt>
      <trkpt lat="49.79614" lon="4.66974">
        <ele>203.9</ele>
        <time>2020-06-25T08:49:38Z</time>
      </trkpt>
      <trkpt lat="49.79608" lon="4.66974">
        <ele>204</ele>
        <time>2020-06-25T08:49:39Z</time>
      </trkpt>
      <trkpt lat="49.79601" lon="4.66975">
        <ele>204.1</ele>
        <time>2020-06-25T08:49:40Z</time>
      </trkpt>
      <trkpt lat="49.79595" lon="4.66976">
        <ele>204.1</ele>
        <time>2020-06-25T08:49:41Z</time>
      </trkpt>
      <trkpt lat="49.7959" lon="4.66977">
        <ele>204.1</ele>
        <time>2020-06-25T08:49:42Z</time>
      </trkpt>
      <trkpt lat="49.79584" lon="4.66979">
        <ele>204.1</ele>
        <time>2020-06-25T08:49:43Z</time>
      </trkpt>
      <trkpt lat="49.79578" lon="4.6698">
        <ele>204.1</ele>
        <time>2020-06-25T08:49:44Z</time>
      </trkpt>
      <trkpt lat="49.79573" lon="4.66981">
        <ele>204.1</ele>
        <time>2020-06-25T08:49:45Z</time>
      </trkpt>
      <trkpt lat="49.79568" lon="4.66982">
        <ele>204</ele>
        <time>2020-06-25T08:49:46Z</time>
      </trkpt>
      <trkpt lat="49.79563" lon="4.66984">
        <ele>203.9</ele>
        <time>2020-06-25T08:49:47Z</time>
      </trkpt>
      <trkpt lat="49.79558" lon="4.66986">
        <ele>203.9</ele>
        <time>2020-06-25T08:49:48Z</time>
      </trkpt>
      <trkpt lat="49.79553" lon="4.66987">
        <ele>203.8</ele>
        <time>2020-06-25T08:49:49Z</time>
      </trkpt>
      <trkpt lat="49.79549" lon="4.6699">
        <ele>203.7</ele>
        <time>2020-06-25T08:49:50Z</time>
      </trkpt>
      <trkpt lat="49.79544" lon="4.66993">
        <ele>203.6</ele>
        <time>2020-06-25T08:49:51Z</time>
      </trkpt>
      <trkpt lat="49.79539" lon="4.66998">
        <ele>203.6</ele>
        <time>2020-06-25T08:49:52Z</time>
      </trkpt>
      <trkpt lat="49.79535" lon="4.67003">
        <ele>203.5</ele>
        <time>2020-06-25T08:49:53Z</time>
      </trkpt>
      <trkpt lat="49.79531" lon="4.67008">
        <ele>203.4</ele>
        <time>2020-06-25T08:49:54Z</time>
      </trkpt>
      <trkpt lat="49.79526" lon="4.67012">
        <ele>203.3</ele>
        <time>2020-06-25T08:49:55Z</time>
      </trkpt>
      <trkpt lat="49.79521" lon="4.67016">
        <ele>203.1</ele>
        <time>2020-06-25T08:49:56Z</time>
      </trkpt>
      <trkpt lat="49.79517" lon="4.67022">
        <ele>203</ele>
        <time>2020-06-25T08:49:57Z</time>
      </trkpt>
      <trkpt lat="49.79512" lon="4.67027">
        <ele>202.9</ele>
        <time>2020-06-25T08:49:58Z</time>
      </trkpt>
      <trkpt lat="49.79508" lon="4.67033">
        <ele>202.7</ele>
        <time>2020-06-25T08:49:59Z</time>
      </trkpt>
      <trkpt lat="49.79503" lon="4.67039">
        <ele>202.6</ele>
        <time>2020-06-25T08:50:00Z</time>
      </trkpt>
      <trkpt lat="49.79498" lon="4.67044">
        <ele>202.6</ele>
        <time>2020-06-25T08:50:01Z</time>
      </trkpt>
      <trkpt lat="49.79494" lon="4.67049">
        <ele>202.5</ele>
        <time>2020-06-25T08:50:02Z</time>
      </trkpt>
      <trkpt lat="49.79489" lon="4.67054">
        <ele>202.4</ele>
        <time>2020-06-25T08:50:03Z</time>
      </trkpt>
      <trkpt lat="49.79484" lon="4.6706">
        <ele>202.3</ele>
        <time>2020-06-25T08:50:04Z</time>
      </trkpt>
      <trkpt lat="49.79479" lon="4.67066">
        <ele>202.2</ele>
        <time>2020-06-25T08:50:05Z</time>
      </trkpt>
      <trkpt lat="49.79475" lon="4.67072">
        <ele>202.1</ele>
        <time>2020-06-25T08:50:06Z</time>
      </trkpt>
      <trkpt lat="49.7947" lon="4.67078">
        <ele>202</ele>
        <time>2020-06-25T08:50:07Z</time>
      </trkpt>
      <trkpt lat="49.79465" lon="4.67084">
        <ele>201.9</ele>
        <time>2020-06-25T08:50:08Z</time>
      </trkpt>
      <trkpt lat="49.7946" lon="4.67089">
        <ele>201.8</ele>
        <time>2020-06-25T08:50:09Z</time>
      </trkpt>
      <trkpt lat="49.79456" lon="4.67095">
        <ele>201.6</ele>
        <time>2020-06-25T08:50:10Z</time>
      </trkpt>
      <trkpt lat="49.79452" lon="4.671">
        <ele>201.4</ele>
        <time>2020-06-25T08:50:11Z</time>
      </trkpt>
      <trkpt lat="49.79447" lon="4.67106">
        <ele>201.3</ele>
        <time>2020-06-25T08:50:12Z</time>
      </trkpt>
      <trkpt lat="49.79443" lon="4.67112">
        <ele>201.1</ele>
        <time>2020-06-25T08:50:13Z</time>
      </trkpt>
      <trkpt lat="49.79438" lon="4.67118">
        <ele>200.9</ele>
        <time>2020-06-25T08:50:14Z</time>
      </trkpt>
      <trkpt lat="49.79433" lon="4.67124">
        <ele>200.8</ele>
        <time>2020-06-25T08:50:15Z</time>
      </trkpt>
      <trkpt lat="49.79428" lon="4.6713">
        <ele>200.5</ele>
        <time>2020-06-25T08:50:16Z</time>
      </trkpt>
      <trkpt lat="49.79422" lon="4.67135">
        <ele>200.3</ele>
        <time>2020-06-25T08:50:17Z</time>
      </trkpt>
      <trkpt lat="49.79417" lon="4.67141">
        <ele>200.1</ele>
        <time>2020-06-25T08:50:18Z</time>
      </trkpt>
      <trkpt lat="49.79412" lon="4.67147">
        <ele>199.8</ele>
        <time>2020-06-25T08:50:19Z</time>
      </trkpt>
      <trkpt lat="49.79406" lon="4.67152">
        <ele>199.6</ele>
        <time>2020-06-25T08:50:20Z</time>
      </trkpt>
      <trkpt lat="49.79401" lon="4.67159">
        <ele>199.5</ele>
        <time>2020-06-25T08:50:21Z</time>
      </trkpt>
      <trkpt lat="49.79396" lon="4.67165">
        <ele>199.3</ele>
        <time>2020-06-25T08:50:22Z</time>
      </trkpt>
      <trkpt lat="49.79391" lon="4.67171">
        <ele>199.2</ele>
        <time>2020-06-25T08:50:23Z</time>
      </trkpt>
      <trkpt lat="49.79386" lon="4.67177">
        <ele>199.1</ele>
        <time>2020-06-25T08:50:24Z</time>
      </trkpt>
      <trkpt lat="49.79381" lon="4.67184">
        <ele>199</ele>
        <time>2020-06-25T08:50:25Z</time>
      </trkpt>
      <trkpt lat="49.79376" lon="4.6719">
        <ele>198.9</ele>
        <time>2020-06-25T08:50:26Z</time>
      </trkpt>
      <trkpt lat="49.79371" lon="4.67196">
        <ele>198.8</ele>
        <time>2020-06-25T08:50:27Z</time>
      </trkpt>
      <trkpt lat="49.79366" lon="4.67203">
        <ele>198.8</ele>
        <time>2020-06-25T08:50:28Z</time>
      </trkpt>
      <trkpt lat="49.79361" lon="4.67209">
        <ele>198.8</ele>
        <time>2020-06-25T08:50:29Z</time>
      </trkpt>
      <trkpt lat="49.79357" lon="4.67215">
        <ele>198.8</ele>
        <time>2020-06-25T08:50:30Z</time>
      </trkpt>
      <trkpt lat="49.79352" lon="4.67221">
        <ele>198.9</ele>
        <time>2020-06-25T08:50:31Z</time>
      </trkpt>
      <trkpt lat="49.79348" lon="4.67228">
        <ele>198.9</ele>
        <time>2020-06-25T08:50:32Z</time>
      </trkpt>
      <trkpt lat="49.79344" lon="4.67234">
        <ele>198.9</ele>
        <time>2020-06-25T08:50:33Z</time>
      </trkpt>
      <trkpt lat="49.7934" lon="4.67241">
        <ele>198.9</ele>
        <time>2020-06-25T08:50:34Z</time>
      </trkpt>
      <trkpt lat="49.79336" lon="4.67247">
        <ele>198.9</ele>
        <time>2020-06-25T08:50:35Z</time>
      </trkpt>
      <trkpt lat="49.79332" lon="4.67254">
        <ele>198.9</ele>
        <time>2020-06-25T08:50:36Z</time>
      </trkpt>
      <trkpt lat="49.79328" lon="4.67261">
        <ele>198.9</ele>
        <time>2020-06-25T08:50:37Z</time>
      </trkpt>
      <trkpt lat="49.79324" lon="4.67268">
        <ele>198.9</ele>
        <time>2020-06-25T08:50:38Z</time>
      </trkpt>
      <trkpt lat="49.7932" lon="4.67274">
        <ele>198.9</ele>
        <time>2020-06-25T08:50:39Z</time>
      </trkpt>
      <trkpt lat="49.79317" lon="4.67281">
        <ele>198.9</ele>
        <time>2020-06-25T08:50:40Z</time>
      </trkpt>
      <trkpt lat="49.79313" lon="4.67287">
        <ele>199</ele>
        <time>2020-06-25T08:50:41Z</time>
      </trkpt>
      <trkpt lat="49.7931" lon="4.67294">
        <ele>199</ele>
        <time>2020-06-25T08:50:42Z</time>
      </trkpt>
      <trkpt lat="49.79306" lon="4.673">
        <ele>199.1</ele>
        <time>2020-06-25T08:50:43Z</time>
      </trkpt>
      <trkpt lat="49.79302" lon="4.67306">
        <ele>199.1</ele>
        <time>2020-06-25T08:50:44Z</time>
      </trkpt>
      <trkpt lat="49.79298" lon="4.67313">
        <ele>199.1</ele>
        <time>2020-06-25T08:50:45Z</time>
      </trkpt>
      <trkpt lat="49.79294" lon="4.67319">
        <ele>199.2</ele>
        <time>2020-06-25T08:50:46Z</time>
      </trkpt>
      <trkpt lat="49.79291" lon="4.67326">
        <ele>199.2</ele>
        <time>2020-06-25T08:50:47Z</time>
      </trkpt>
      <trkpt lat="49.79287" lon="4.67333">
        <ele>199.3</ele>
        <time>2020-06-25T08:50:48Z</time>
      </trkpt>
      <trkpt lat="49.79283" lon="4.67339">
        <ele>199.3</ele>
        <time>2020-06-25T08:50:49Z</time>
      </trkpt>
      <trkpt lat="49.79279" lon="4.67345">
        <ele>199.4</ele>
        <time>2020-06-25T08:50:50Z</time>
      </trkpt>
      <trkpt lat="49.79275" lon="4.67351">
        <ele>199.5</ele>
        <time>2020-06-25T08:50:51Z</time>
      </trkpt>
      <trkpt lat="49.79271" lon="4.67357">
        <ele>199.5</ele>
        <time>2020-06-25T08:50:52Z</time>
      </trkpt>
      <trkpt lat="49.79267" lon="4.67363">
        <ele>199.6</ele>
        <time>2020-06-25T08:50:53Z</time>
      </trkpt>
      <trkpt lat="49.79263" lon="4.67368">
        <ele>199.7</ele>
        <time>2020-06-25T08:50:54Z</time>
      </trkpt>
      <trkpt lat="49.79259" lon="4.67374">
        <ele>199.8</ele>
        <time>2020-06-25T08:50:55Z</time>
      </trkpt>
      <trkpt lat="49.79255" lon="4.67379">
        <ele>199.9</ele>
        <time>2020-06-25T08:50:56Z</time>
      </trkpt>
      <trkpt lat="49.79251" lon="4.67384">
        <ele>200</ele>
        <time>2020-06-25T08:50:57Z</time>
      </trkpt>
      <trkpt lat="49.79246" lon="4.67387">
        <ele>200.1</ele>
        <time>2020-06-25T08:50:58Z</time>
      </trkpt>
      <trkpt lat="49.79242" lon="4.67392">
        <ele>200.2</ele>
        <time>2020-06-25T08:50:59Z</time>
      </trkpt>
      <trkpt lat="49.79237" lon="4.67396">
        <ele>200.2</ele>
        <time>2020-06-25T08:51:00Z</time>
      </trkpt>
      <trkpt lat="49.79233" lon="4.67399">
        <ele>200.3</ele>
        <time>2020-06-25T08:51:01Z</time>
      </trkpt>
      <trkpt lat="49.79228" lon="4.67402">
        <ele>200.3</ele>
        <time>2020-06-25T08:51:02Z</time>
      </trkpt>
      <trkpt lat="49.79224" lon="4.67405">
        <ele>200.3</ele>
        <time>2020-06-25T08:51:03Z</time>
      </trkpt>
      <trkpt lat="49.7922" lon="4.67408">
        <ele>200.3</ele>
        <time>2020-06-25T08:51:04Z</time>
      </trkpt>
      <trkpt lat="49.79215" lon="4.67411">
        <ele>200.2</ele>
        <time>2020-06-25T08:51:05Z</time>
      </trkpt>
      <trkpt lat="49.79211" lon="4.67415">
        <ele>200.2</ele>
        <time>2020-06-25T08:51:06Z</time>
      </trkpt>
      <trkpt lat="49.79207" lon="4.67418">
        <ele>200.1</ele>
        <time>2020-06-25T08:51:07Z</time>
      </trkpt>
      <trkpt lat="49.79203" lon="4.67421">
        <ele>200</ele>
        <time>2020-06-25T08:51:08Z</time>
      </trkpt>
      <trkpt lat="49.79199" lon="4.67425">
        <ele>199.9</ele>
        <time>2020-06-25T08:51:09Z</time>
      </trkpt>
      <trkpt lat="49.79194" lon="4.67427">
        <ele>199.8</ele>
        <time>2020-06-25T08:51:10Z</time>
      </trkpt>
      <trkpt lat="49.79189" lon="4.6743">
        <ele>199.7</ele>
        <time>2020-06-25T08:51:11Z</time>
      </trkpt>
      <trkpt lat="49.79184" lon="4.67433">
        <ele>199.6</ele>
        <time>2020-06-25T08:51:12Z</time>
      </trkpt>
      <trkpt lat="49.79179" lon="4.67435">
        <ele>199.4</ele>
        <time>2020-06-25T08:51:13Z</time>
      </trkpt>
      <trkpt lat="49.79174" lon="4.67439">
        <ele>199.2</ele>
        <time>2020-06-25T08:51:14Z</time>
      </trkpt>
      <trkpt lat="49.79168" lon="4.67441">
        <ele>199</ele>
        <time>2020-06-25T08:51:15Z</time>
      </trkpt>
      <trkpt lat="49.79162" lon="4.67444">
        <ele>198.8</ele>
        <time>2020-06-25T08:51:16Z</time>
      </trkpt>
      <trkpt lat="49.79157" lon="4.67446">
        <ele>198.6</ele>
        <time>2020-06-25T08:51:17Z</time>
      </trkpt>
      <trkpt lat="49.79151" lon="4.67448">
        <ele>198.4</ele>
        <time>2020-06-25T08:51:18Z</time>
      </trkpt>
      <trkpt lat="49.79145" lon="4.67448">
        <ele>198.3</ele>
        <time>2020-06-25T08:51:19Z</time>
      </trkpt>
      <trkpt lat="49.79139" lon="4.6745">
        <ele>198.1</ele>
        <time>2020-06-25T08:51:20Z</time>
      </trkpt>
      <trkpt lat="49.79133" lon="4.67451">
        <ele>198</ele>
        <time>2020-06-25T08:51:21Z</time>
      </trkpt>
      <trkpt lat="49.79128" lon="4.67455">
        <ele>197.9</ele>
        <time>2020-06-25T08:51:22Z</time>
      </trkpt>
      <trkpt lat="49.79122" lon="4.67457">
        <ele>197.8</ele>
        <time>2020-06-25T08:51:23Z</time>
      </trkpt>
      <trkpt lat="49.79116" lon="4.67459">
        <ele>197.7</ele>
        <time>2020-06-25T08:51:24Z</time>
      </trkpt>
      <trkpt lat="49.7911" lon="4.67461">
        <ele>197.6</ele>
        <time>2020-06-25T08:51:25Z</time>
      </trkpt>
      <trkpt lat="49.79104" lon="4.67463">
        <ele>197.5</ele>
        <time>2020-06-25T08:51:26Z</time>
      </trkpt>
      <trkpt lat="49.79098" lon="4.67465">
        <ele>197.4</ele>
        <time>2020-06-25T08:51:27Z</time>
      </trkpt>
      <trkpt lat="49.79091" lon="4.67466">
        <ele>197.4</ele>
        <time>2020-06-25T08:51:28Z</time>
      </trkpt>
      <trkpt lat="49.79085" lon="4.67469">
        <ele>197.3</ele>
        <time>2020-06-25T08:51:29Z</time>
      </trkpt>
      <trkpt lat="49.79079" lon="4.67471">
        <ele>197.2</ele>
        <time>2020-06-25T08:51:30Z</time>
      </trkpt>
      <trkpt lat="49.79074" lon="4.67473">
        <ele>197.2</ele>
        <time>2020-06-25T08:51:31Z</time>
      </trkpt>
      <trkpt lat="49.79068" lon="4.67475">
        <ele>197.1</ele>
        <time>2020-06-25T08:51:32Z</time>
      </trkpt>
      <trkpt lat="49.79063" lon="4.67478">
        <ele>197.1</ele>
        <time>2020-06-25T08:51:33Z</time>
      </trkpt>
      <trkpt lat="49.79057" lon="4.6748">
        <ele>197</ele>
        <time>2020-06-25T08:51:34Z</time>
      </trkpt>
      <trkpt lat="49.79052" lon="4.67483">
        <ele>197</ele>
        <time>2020-06-25T08:51:35Z</time>
      </trkpt>
      <trkpt lat="49.79046" lon="4.67486">
        <ele>196.9</ele>
        <time>2020-06-25T08:51:36Z</time>
      </trkpt>
      <trkpt lat="49.79041" lon="4.67489">
        <ele>196.9</ele>
        <time>2020-06-25T08:51:37Z</time>
      </trkpt>
      <trkpt lat="49.79035" lon="4.6749">
        <ele>196.9</ele>
        <time>2020-06-25T08:51:38Z</time>
      </trkpt>
      <trkpt lat="49.79029" lon="4.67491">
        <ele>197</ele>
        <time>2020-06-25T08:51:39Z</time>
      </trkpt>
      <trkpt lat="49.79024" lon="4.67493">
        <ele>197</ele>
        <time>2020-06-25T08:51:40Z</time>
      </trkpt>
      <trkpt lat="49.79017" lon="4.67494">
        <ele>197</ele>
        <time>2020-06-25T08:51:41Z</time>
      </trkpt>
      <trkpt lat="49.79011" lon="4.67494">
        <ele>197.1</ele>
        <time>2020-06-25T08:51:42Z</time>
      </trkpt>
      <trkpt lat="49.79005" lon="4.67495">
        <ele>197.1</ele>
        <time>2020-06-25T08:51:43Z</time>
      </trkpt>
      <trkpt lat="49.79" lon="4.67495">
        <ele>197.2</ele>
        <time>2020-06-25T08:51:44Z</time>
      </trkpt>
      <trkpt lat="49.78994" lon="4.67494">
        <ele>197.2</ele>
        <time>2020-06-25T08:51:45Z</time>
      </trkpt>
      <trkpt lat="49.78989" lon="4.67491">
        <ele>197.3</ele>
        <time>2020-06-25T08:51:46Z</time>
      </trkpt>
      <trkpt lat="49.78984" lon="4.67489">
        <ele>197.4</ele>
        <time>2020-06-25T08:51:47Z</time>
      </trkpt>
      <trkpt lat="49.78979" lon="4.67486">
        <ele>197.4</ele>
        <time>2020-06-25T08:51:48Z</time>
      </trkpt>
      <trkpt lat="49.78974" lon="4.67484">
        <ele>197.5</ele>
        <time>2020-06-25T08:51:49Z</time>
      </trkpt>
      <trkpt lat="49.78968" lon="4.67483">
        <ele>197.6</ele>
        <time>2020-06-25T08:51:50Z</time>
      </trkpt>
      <trkpt lat="49.78963" lon="4.67481">
        <ele>197.7</ele>
        <time>2020-06-25T08:51:51Z</time>
      </trkpt>
      <trkpt lat="49.78957" lon="4.67478">
        <ele>197.7</ele>
        <time>2020-06-25T08:51:52Z</time>
      </trkpt>
      <trkpt lat="49.78952" lon="4.67476">
        <ele>197.8</ele>
        <time>2020-06-25T08:51:53Z</time>
      </trkpt>
      <trkpt lat="49.78947" lon="4.67474">
        <ele>197.9</ele>
        <time>2020-06-25T08:51:54Z</time>
      </trkpt>
      <trkpt lat="49.78941" lon="4.67472">
        <ele>197.9</ele>
        <time>2020-06-25T08:51:55Z</time>
      </trkpt>
      <trkpt lat="49.78936" lon="4.6747">
        <ele>198</ele>
        <time>2020-06-25T08:51:56Z</time>
      </trkpt>
      <trkpt lat="49.78931" lon="4.67469">
        <ele>198.1</ele>
        <time>2020-06-25T08:51:57Z</time>
      </trkpt>
      <trkpt lat="49.78926" lon="4.67468">
        <ele>198.1</ele>
        <time>2020-06-25T08:51:58Z</time>
      </trkpt>
      <trkpt lat="49.78921" lon="4.67467">
        <ele>198.1</ele>
        <time>2020-06-25T08:51:59Z</time>
      </trkpt>
      <trkpt lat="49.78917" lon="4.67467">
        <ele>198.1</ele>
        <time>2020-06-25T08:52:00Z</time>
      </trkpt>
      <trkpt lat="49.78912" lon="4.67467">
        <ele>198</ele>
        <time>2020-06-25T08:52:01Z</time>
      </trkpt>
      <trkpt lat="49.78907" lon="4.67468">
        <ele>198</ele>
        <time>2020-06-25T08:52:02Z</time>
      </trkpt>
      <trkpt lat="49.78902" lon="4.67469">
        <ele>197.8</ele>
        <time>2020-06-25T08:52:03Z</time>
      </trkpt>
      <trkpt lat="49.78897" lon="4.67471">
        <ele>197.6</ele>
        <time>2020-06-25T08:52:04Z</time>
      </trkpt>
      <trkpt lat="49.78892" lon="4.67473">
        <ele>197.4</ele>
        <time>2020-06-25T08:52:05Z</time>
      </trkpt>
      <trkpt lat="49.78888" lon="4.67477">
        <ele>197.2</ele>
        <time>2020-06-25T08:52:06Z</time>
      </trkpt>
      <trkpt lat="49.78882" lon="4.6748">
        <ele>197</ele>
        <time>2020-06-25T08:52:07Z</time>
      </trkpt>
      <trkpt lat="49.78877" lon="4.67483">
        <ele>196.7</ele>
        <time>2020-06-25T08:52:08Z</time>
      </trkpt>
      <trkpt lat="49.78872" lon="4.67488">
        <ele>196.3</ele>
        <time>2020-06-25T08:52:09Z</time>
      </trkpt>
      <trkpt lat="49.78866" lon="4.67493">
        <ele>195.9</ele>
        <time>2020-06-25T08:52:10Z</time>
      </trkpt>
      <trkpt lat="49.7886" lon="4.67498">
        <ele>195.5</ele>
        <time>2020-06-25T08:52:11Z</time>
      </trkpt>
      <trkpt lat="49.78855" lon="4.67504">
        <ele>195</ele>
        <time>2020-06-25T08:52:12Z</time>
      </trkpt>
      <trkpt lat="49.78849" lon="4.6751">
        <ele>194.5</ele>
        <time>2020-06-25T08:52:13Z</time>
      </trkpt>
      <trkpt lat="49.78842" lon="4.67516">
        <ele>194</ele>
        <time>2020-06-25T08:52:14Z</time>
      </trkpt>
      <trkpt lat="49.78835" lon="4.67521">
        <ele>193.5</ele>
        <time>2020-06-25T08:52:15Z</time>
      </trkpt>
      <trkpt lat="49.78829" lon="4.67528">
        <ele>193</ele>
        <time>2020-06-25T08:52:16Z</time>
      </trkpt>
      <trkpt lat="49.78823" lon="4.67535">
        <ele>192.4</ele>
        <time>2020-06-25T08:52:17Z</time>
      </trkpt>
      <trkpt lat="49.78816" lon="4.67542">
        <ele>191.9</ele>
        <time>2020-06-25T08:52:18Z</time>
      </trkpt>
      <trkpt lat="49.78809" lon="4.6755">
        <ele>191.4</ele>
        <time>2020-06-25T08:52:19Z</time>
      </trkpt>
      <trkpt lat="49.78802" lon="4.67556">
        <ele>190.9</ele>
        <time>2020-06-25T08:52:20Z</time>
      </trkpt>
      <trkpt lat="49.78795" lon="4.67563">
        <ele>190.5</ele>
        <time>2020-06-25T08:52:21Z</time>
      </trkpt>
      <trkpt lat="49.78787" lon="4.67571">
        <ele>190.1</ele>
        <time>2020-06-25T08:52:22Z</time>
      </trkpt>
      <trkpt lat="49.7878" lon="4.67577">
        <ele>189.7</ele>
        <time>2020-06-25T08:52:23Z</time>
      </trkpt>
      <trkpt lat="49.78773" lon="4.67584">
        <ele>189.4</ele>
        <time>2020-06-25T08:52:24Z</time>
      </trkpt>
      <trkpt lat="49.78765" lon="4.67591">
        <ele>189.2</ele>
        <time>2020-06-25T08:52:25Z</time>
      </trkpt>
      <trkpt lat="49.78758" lon="4.67598">
        <ele>189</ele>
        <time>2020-06-25T08:52:26Z</time>
      </trkpt>
      <trkpt lat="49.78752" lon="4.67605">
        <ele>188.8</ele>
        <time>2020-06-25T08:52:27Z</time>
      </trkpt>
      <trkpt lat="49.78746" lon="4.67613">
        <ele>188.6</ele>
        <time>2020-06-25T08:52:28Z</time>
      </trkpt>
      <trkpt lat="49.78739" lon="4.6762">
        <ele>188.4</ele>
        <time>2020-06-25T08:52:29Z</time>
      </trkpt>
      <trkpt lat="49.78733" lon="4.67626">
        <ele>188.2</ele>
        <time>2020-06-25T08:52:30Z</time>
      </trkpt>
      <trkpt lat="49.78728" lon="4.67634">
        <ele>188.2</ele>
        <time>2020-06-25T08:52:31Z</time>
      </trkpt>
      <trkpt lat="49.78722" lon="4.67641">
        <ele>188.2</ele>
        <time>2020-06-25T08:52:32Z</time>
      </trkpt>
      <trkpt lat="49.78716" lon="4.67649">
        <ele>188.3</ele>
        <time>2020-06-25T08:52:33Z</time>
      </trkpt>
      <trkpt lat="49.7871" lon="4.67656">
        <ele>188.3</ele>
        <time>2020-06-25T08:52:34Z</time>
      </trkpt>
      <trkpt lat="49.78705" lon="4.67662">
        <ele>188.3</ele>
        <time>2020-06-25T08:52:35Z</time>
      </trkpt>
      <trkpt lat="49.787" lon="4.67669">
        <ele>188.4</ele>
        <time>2020-06-25T08:52:36Z</time>
      </trkpt>
      <trkpt lat="49.78694" lon="4.67675">
        <ele>188.5</ele>
        <time>2020-06-25T08:52:37Z</time>
      </trkpt>
      <trkpt lat="49.78689" lon="4.67681">
        <ele>188.5</ele>
        <time>2020-06-25T08:52:38Z</time>
      </trkpt>
      <trkpt lat="49.78684" lon="4.67687">
        <ele>188.6</ele>
        <time>2020-06-25T08:52:39Z</time>
      </trkpt>
      <trkpt lat="49.7868" lon="4.67693">
        <ele>188.6</ele>
        <time>2020-06-25T08:52:40Z</time>
      </trkpt>
      <trkpt lat="49.78675" lon="4.67699">
        <ele>188.7</ele>
        <time>2020-06-25T08:52:41Z</time>
      </trkpt>
      <trkpt lat="49.78671" lon="4.67705">
        <ele>188.7</ele>
        <time>2020-06-25T08:52:42Z</time>
      </trkpt>
      <trkpt lat="49.78666" lon="4.6771">
        <ele>188.8</ele>
        <time>2020-06-25T08:52:43Z</time>
      </trkpt>
      <trkpt lat="49.78661" lon="4.67715">
        <ele>188.9</ele>
        <time>2020-06-25T08:52:44Z</time>
      </trkpt>
      <trkpt lat="49.78657" lon="4.6772">
        <ele>188.9</ele>
        <time>2020-06-25T08:52:45Z</time>
      </trkpt>
      <trkpt lat="49.78653" lon="4.67726">
        <ele>189</ele>
        <time>2020-06-25T08:52:46Z</time>
      </trkpt>
      <trkpt lat="49.7865" lon="4.67731">
        <ele>189.1</ele>
        <time>2020-06-25T08:52:47Z</time>
      </trkpt>
      <trkpt lat="49.78646" lon="4.67736">
        <ele>189.2</ele>
        <time>2020-06-25T08:52:48Z</time>
      </trkpt>
      <trkpt lat="49.78642" lon="4.67742">
        <ele>189.3</ele>
        <time>2020-06-25T08:52:49Z</time>
      </trkpt>
      <trkpt lat="49.78638" lon="4.67747">
        <ele>189.4</ele>
        <time>2020-06-25T08:52:50Z</time>
      </trkpt>
      <trkpt lat="49.78634" lon="4.67751">
        <ele>189.5</ele>
        <time>2020-06-25T08:52:51Z</time>
      </trkpt>
      <trkpt lat="49.7863" lon="4.67755">
        <ele>189.6</ele>
        <time>2020-06-25T08:52:52Z</time>
      </trkpt>
      <trkpt lat="49.78626" lon="4.67758">
        <ele>189.7</ele>
        <time>2020-06-25T08:52:53Z</time>
      </trkpt>
      <trkpt lat="49.78624" lon="4.67762">
        <ele>189.8</ele>
        <time>2020-06-25T08:52:54Z</time>
      </trkpt>
      <trkpt lat="49.7862" lon="4.67761">
        <ele>189.9</ele>
        <time>2020-06-25T08:52:55Z</time>
      </trkpt>
      <trkpt lat="49.78616" lon="4.67761">
        <ele>190.2</ele>
        <time>2020-06-25T08:52:56Z</time>
      </trkpt>
      <trkpt lat="49.78615" lon="4.67761">
        <ele>190.2</ele>
        <time>2020-06-25T08:52:57Z</time>
      </trkpt>
      <trkpt lat="49.78611" lon="4.6776">
        <ele>190.3</ele>
        <time>2020-06-25T08:52:58Z</time>
      </trkpt>
      <trkpt lat="49.7861" lon="4.6776">
        <ele>190.3</ele>
        <time>2020-06-25T08:52:59Z</time>
      </trkpt>
      <trkpt lat="49.78607" lon="4.67762">
        <ele>190.4</ele>
        <time>2020-06-25T08:53:00Z</time>
      </trkpt>
      <trkpt lat="49.78606" lon="4.67763">
        <ele>190.4</ele>
        <time>2020-06-25T08:53:01Z</time>
      </trkpt>
      <trkpt lat="49.78604" lon="4.67768">
        <ele>190.5</ele>
        <time>2020-06-25T08:53:02Z</time>
      </trkpt>
      <trkpt lat="49.78603" lon="4.67769">
        <ele>190.5</ele>
        <time>2020-06-25T08:53:03Z</time>
      </trkpt>
      <trkpt lat="49.78601" lon="4.67774">
        <ele>190.6</ele>
        <time>2020-06-25T08:53:04Z</time>
      </trkpt>
      <trkpt lat="49.786" lon="4.67776">
        <ele>190.6</ele>
        <time>2020-06-25T08:53:05Z</time>
      </trkpt>
      <trkpt lat="49.78597" lon="4.67779">
        <ele>190.7</ele>
        <time>2020-06-25T08:53:06Z</time>
      </trkpt>
      <trkpt lat="49.78595" lon="4.67782">
        <ele>190.7</ele>
        <time>2020-06-25T08:53:07Z</time>
      </trkpt>
      <trkpt lat="49.78594" lon="4.67787">
        <ele>190.8</ele>
        <time>2020-06-25T08:53:08Z</time>
      </trkpt>
      <trkpt lat="49.78592" lon="4.67791">
        <ele>190.8</ele>
        <time>2020-06-25T08:53:09Z</time>
      </trkpt>
      <trkpt lat="49.78591" lon="4.67796">
        <ele>190.9</ele>
        <time>2020-06-25T08:53:10Z</time>
      </trkpt>
      <trkpt lat="49.78589" lon="4.67801">
        <ele>191</ele>
        <time>2020-06-25T08:53:11Z</time>
      </trkpt>
      <trkpt lat="49.78588" lon="4.67806">
        <ele>191.1</ele>
        <time>2020-06-25T08:53:12Z</time>
      </trkpt>
      <trkpt lat="49.78587" lon="4.67811">
        <ele>191.2</ele>
        <time>2020-06-25T08:53:13Z</time>
      </trkpt>
      <trkpt lat="49.78586" lon="4.67816">
        <ele>191.3</ele>
        <time>2020-06-25T08:53:14Z</time>
      </trkpt>
      <trkpt lat="49.78585" lon="4.67822">
        <ele>191.4</ele>
        <time>2020-06-25T08:53:15Z</time>
      </trkpt>
      <trkpt lat="49.78584" lon="4.67827">
        <ele>191.4</ele>
        <time>2020-06-25T08:53:16Z</time>
      </trkpt>
      <trkpt lat="49.78583" lon="4.67832">
        <ele>191.5</ele>
        <time>2020-06-25T08:53:17Z</time>
      </trkpt>
      <trkpt lat="49.78581" lon="4.67838">
        <ele>191.6</ele>
        <time>2020-06-25T08:53:18Z</time>
      </trkpt>
      <trkpt lat="49.78579" lon="4.67843">
        <ele>191.7</ele>
        <time>2020-06-25T08:53:19Z</time>
      </trkpt>
      <trkpt lat="49.78578" lon="4.67849">
        <ele>191.8</ele>
        <time>2020-06-25T08:53:20Z</time>
      </trkpt>
      <trkpt lat="49.78575" lon="4.67853">
        <ele>191.9</ele>
        <time>2020-06-25T08:53:21Z</time>
      </trkpt>
      <trkpt lat="49.78574" lon="4.67857">
        <ele>191.9</ele>
        <time>2020-06-25T08:53:22Z</time>
      </trkpt>
      <trkpt lat="49.78571" lon="4.67861">
        <ele>192</ele>
        <time>2020-06-25T08:53:23Z</time>
      </trkpt>
      <trkpt lat="49.78569" lon="4.67867">
        <ele>192.1</ele>
        <time>2020-06-25T08:53:24Z</time>
      </trkpt>
      <trkpt lat="49.78569" lon="4.67872">
        <ele>192.1</ele>
        <time>2020-06-25T08:53:25Z</time>
      </trkpt>
      <trkpt lat="49.78568" lon="4.67879">
        <ele>192.2</ele>
        <time>2020-06-25T08:53:26Z</time>
      </trkpt>
      <trkpt lat="49.78567" lon="4.67886">
        <ele>192.2</ele>
        <time>2020-06-25T08:53:27Z</time>
      </trkpt>
      <trkpt lat="49.78565" lon="4.67891">
        <ele>192.2</ele>
        <time>2020-06-25T08:53:28Z</time>
      </trkpt>
      <trkpt lat="49.78564" lon="4.67897">
        <ele>192.2</ele>
        <time>2020-06-25T08:53:29Z</time>
      </trkpt>
      <trkpt lat="49.78562" lon="4.67902">
        <ele>192.2</ele>
        <time>2020-06-25T08:53:30Z</time>
      </trkpt>
      <trkpt lat="49.7856" lon="4.67909">
        <ele>192.2</ele>
        <time>2020-06-25T08:53:31Z</time>
      </trkpt>
      <trkpt lat="49.78558" lon="4.67916">
        <ele>192.2</ele>
        <time>2020-06-25T08:53:32Z</time>
      </trkpt>
      <trkpt lat="49.78557" lon="4.67922">
        <ele>192.2</ele>
        <time>2020-06-25T08:53:33Z</time>
      </trkpt>
      <trkpt lat="49.78555" lon="4.67927">
        <ele>192.2</ele>
        <time>2020-06-25T08:53:34Z</time>
      </trkpt>
      <trkpt lat="49.78554" lon="4.67933">
        <ele>192.2</ele>
        <time>2020-06-25T08:53:35Z</time>
      </trkpt>
      <trkpt lat="49.78553" lon="4.67938">
        <ele>192.2</ele>
        <time>2020-06-25T08:53:36Z</time>
      </trkpt>
      <trkpt lat="49.78549" lon="4.67946">
        <ele>192.1</ele>
        <time>2020-06-25T08:53:37Z</time>
      </trkpt>
      <trkpt lat="49.78546" lon="4.67952">
        <ele>192.1</ele>
        <time>2020-06-25T08:53:38Z</time>
      </trkpt>
      <trkpt lat="49.78545" lon="4.67957">
        <ele>192.1</ele>
        <time>2020-06-25T08:53:39Z</time>
      </trkpt>
      <trkpt lat="49.78544" lon="4.67964">
        <ele>192.1</ele>
        <time>2020-06-25T08:53:40Z</time>
      </trkpt>
      <trkpt lat="49.78543" lon="4.67969">
        <ele>192.1</ele>
        <time>2020-06-25T08:53:41Z</time>
      </trkpt>
      <trkpt lat="49.78542" lon="4.67974">
        <ele>192.1</ele>
        <time>2020-06-25T08:53:42Z</time>
      </trkpt>
      <trkpt lat="49.7854" lon="4.67979">
        <ele>192.1</ele>
        <time>2020-06-25T08:53:43Z</time>
      </trkpt>
      <trkpt lat="49.78539" lon="4.67985">
        <ele>192</ele>
        <time>2020-06-25T08:53:44Z</time>
      </trkpt>
      <trkpt lat="49.78537" lon="4.6799">
        <ele>192</ele>
        <time>2020-06-25T08:53:45Z</time>
      </trkpt>
      <trkpt lat="49.78534" lon="4.67997">
        <ele>192</ele>
        <time>2020-06-25T08:53:46Z</time>
      </trkpt>
      <trkpt lat="49.78532" lon="4.68003">
        <ele>191.9</ele>
        <time>2020-06-25T08:53:47Z</time>
      </trkpt>
      <trkpt lat="49.7853" lon="4.68008">
        <ele>191.9</ele>
        <time>2020-06-25T08:53:48Z</time>
      </trkpt>
      <trkpt lat="49.78529" lon="4.68013">
        <ele>191.9</ele>
        <time>2020-06-25T08:53:49Z</time>
      </trkpt>
      <trkpt lat="49.78527" lon="4.68017">
        <ele>191.8</ele>
        <time>2020-06-25T08:53:50Z</time>
      </trkpt>
      <trkpt lat="49.78525" lon="4.68023">
        <ele>191.8</ele>
        <time>2020-06-25T08:53:51Z</time>
      </trkpt>
      <trkpt lat="49.78523" lon="4.68029">
        <ele>191.7</ele>
        <time>2020-06-25T08:53:52Z</time>
      </trkpt>
      <trkpt lat="49.78521" lon="4.68034">
        <ele>191.6</ele>
        <time>2020-06-25T08:53:53Z</time>
      </trkpt>
      <trkpt lat="49.78519" lon="4.68039">
        <ele>191.6</ele>
        <time>2020-06-25T08:53:54Z</time>
      </trkpt>
      <trkpt lat="49.78516" lon="4.68046">
        <ele>191.5</ele>
        <time>2020-06-25T08:53:55Z</time>
      </trkpt>
      <trkpt lat="49.78513" lon="4.68052">
        <ele>191.4</ele>
        <time>2020-06-25T08:53:56Z</time>
      </trkpt>
      <trkpt lat="49.78511" lon="4.68057">
        <ele>191.4</ele>
        <time>2020-06-25T08:53:57Z</time>
      </trkpt>
      <trkpt lat="49.78508" lon="4.68062">
        <ele>191.3</ele>
        <time>2020-06-25T08:53:58Z</time>
      </trkpt>
      <trkpt lat="49.78506" lon="4.68067">
        <ele>191.3</ele>
        <time>2020-06-25T08:53:59Z</time>
      </trkpt>
      <trkpt lat="49.78503" lon="4.68074">
        <ele>191.3</ele>
        <time>2020-06-25T08:54:00Z</time>
      </trkpt>
      <trkpt lat="49.785" lon="4.68081">
        <ele>191.3</ele>
        <time>2020-06-25T08:54:01Z</time>
      </trkpt>
      <trkpt lat="49.78498" lon="4.68088">
        <ele>191.2</ele>
        <time>2020-06-25T08:54:02Z</time>
      </trkpt>
      <trkpt lat="49.78496" lon="4.68094">
        <ele>191.2</ele>
        <time>2020-06-25T08:54:03Z</time>
      </trkpt>
      <trkpt lat="49.78494" lon="4.68099">
        <ele>191.1</ele>
        <time>2020-06-25T08:54:04Z</time>
      </trkpt>
      <trkpt lat="49.78492" lon="4.68105">
        <ele>191.1</ele>
        <time>2020-06-25T08:54:05Z</time>
      </trkpt>
      <trkpt lat="49.78489" lon="4.6811">
        <ele>191</ele>
        <time>2020-06-25T08:54:06Z</time>
      </trkpt>
      <trkpt lat="49.78487" lon="4.68117">
        <ele>191</ele>
        <time>2020-06-25T08:54:07Z</time>
      </trkpt>
      <trkpt lat="49.78484" lon="4.68124">
        <ele>190.9</ele>
        <time>2020-06-25T08:54:08Z</time>
      </trkpt>
      <trkpt lat="49.78481" lon="4.6813">
        <ele>190.9</ele>
        <time>2020-06-25T08:54:09Z</time>
      </trkpt>
      <trkpt lat="49.78478" lon="4.68137">
        <ele>190.9</ele>
        <time>2020-06-25T08:54:10Z</time>
      </trkpt>
      <trkpt lat="49.78475" lon="4.68143">
        <ele>190.9</ele>
        <time>2020-06-25T08:54:11Z</time>
      </trkpt>
      <trkpt lat="49.78472" lon="4.68149">
        <ele>190.8</ele>
        <time>2020-06-25T08:54:12Z</time>
      </trkpt>
      <trkpt lat="49.78469" lon="4.68154">
        <ele>190.8</ele>
        <time>2020-06-25T08:54:13Z</time>
      </trkpt>
      <trkpt lat="49.78466" lon="4.6816">
        <ele>190.8</ele>
        <time>2020-06-25T08:54:14Z</time>
      </trkpt>
      <trkpt lat="49.78463" lon="4.68167">
        <ele>190.8</ele>
        <time>2020-06-25T08:54:15Z</time>
      </trkpt>
      <trkpt lat="49.7846" lon="4.68174">
        <ele>190.8</ele>
        <time>2020-06-25T08:54:16Z</time>
      </trkpt>
      <trkpt lat="49.78458" lon="4.6818">
        <ele>190.7</ele>
        <time>2020-06-25T08:54:17Z</time>
      </trkpt>
      <trkpt lat="49.78455" lon="4.68187">
        <ele>190.7</ele>
        <time>2020-06-25T08:54:18Z</time>
      </trkpt>
      <trkpt lat="49.78452" lon="4.68193">
        <ele>190.6</ele>
        <time>2020-06-25T08:54:19Z</time>
      </trkpt>
      <trkpt lat="49.78449" lon="4.68199">
        <ele>190.6</ele>
        <time>2020-06-25T08:54:20Z</time>
      </trkpt>
      <trkpt lat="49.78445" lon="4.68206">
        <ele>190.5</ele>
        <time>2020-06-25T08:54:21Z</time>
      </trkpt>
      <trkpt lat="49.78442" lon="4.68213">
        <ele>190.5</ele>
        <time>2020-06-25T08:54:22Z</time>
      </trkpt>
      <trkpt lat="49.78439" lon="4.68219">
        <ele>190.4</ele>
        <time>2020-06-25T08:54:23Z</time>
      </trkpt>
      <trkpt lat="49.78436" lon="4.68226">
        <ele>190.3</ele>
        <time>2020-06-25T08:54:24Z</time>
      </trkpt>
      <trkpt lat="49.78432" lon="4.68233">
        <ele>190.2</ele>
        <time>2020-06-25T08:54:25Z</time>
      </trkpt>
      <trkpt lat="49.78428" lon="4.6824">
        <ele>190.1</ele>
        <time>2020-06-25T08:54:26Z</time>
      </trkpt>
      <trkpt lat="49.78425" lon="4.68247">
        <ele>190.1</ele>
        <time>2020-06-25T08:54:27Z</time>
      </trkpt>
      <trkpt lat="49.78421" lon="4.68255">
        <ele>189.9</ele>
        <time>2020-06-25T08:54:28Z</time>
      </trkpt>
      <trkpt lat="49.78418" lon="4.68264">
        <ele>189.8</ele>
        <time>2020-06-25T08:54:29Z</time>
      </trkpt>
      <trkpt lat="49.78414" lon="4.68272">
        <ele>189.8</ele>
        <time>2020-06-25T08:54:30Z</time>
      </trkpt>
      <trkpt lat="49.7841" lon="4.68281">
        <ele>189.7</ele>
        <time>2020-06-25T08:54:31Z</time>
      </trkpt>
      <trkpt lat="49.78406" lon="4.68289">
        <ele>189.7</ele>
        <time>2020-06-25T08:54:32Z</time>
      </trkpt>
      <trkpt lat="49.78402" lon="4.68298">
        <ele>189.6</ele>
        <time>2020-06-25T08:54:33Z</time>
      </trkpt>
      <trkpt lat="49.78398" lon="4.68306">
        <ele>189.5</ele>
        <time>2020-06-25T08:54:34Z</time>
      </trkpt>
      <trkpt lat="49.78395" lon="4.68314">
        <ele>189.4</ele>
        <time>2020-06-25T08:54:35Z</time>
      </trkpt>
      <trkpt lat="49.78391" lon="4.68322">
        <ele>189.3</ele>
        <time>2020-06-25T08:54:36Z</time>
      </trkpt>
      <trkpt lat="49.78388" lon="4.6833">
        <ele>189.2</ele>
        <time>2020-06-25T08:54:37Z</time>
      </trkpt>
      <trkpt lat="49.78385" lon="4.68337">
        <ele>189.2</ele>
        <time>2020-06-25T08:54:38Z</time>
      </trkpt>
      <trkpt lat="49.78382" lon="4.68345">
        <ele>189.1</ele>
        <time>2020-06-25T08:54:39Z</time>
      </trkpt>
      <trkpt lat="49.78379" lon="4.68352">
        <ele>189</ele>
        <time>2020-06-25T08:54:40Z</time>
      </trkpt>
      <trkpt lat="49.78375" lon="4.6836">
        <ele>188.9</ele>
        <time>2020-06-25T08:54:41Z</time>
      </trkpt>
      <trkpt lat="49.78371" lon="4.68367">
        <ele>188.7</ele>
        <time>2020-06-25T08:54:42Z</time>
      </trkpt>
      <trkpt lat="49.78368" lon="4.68373">
        <ele>188.6</ele>
        <time>2020-06-25T08:54:43Z</time>
      </trkpt>
      <trkpt lat="49.78365" lon="4.6838">
        <ele>188.5</ele>
        <time>2020-06-25T08:54:44Z</time>
      </trkpt>
      <trkpt lat="49.78362" lon="4.68387">
        <ele>188.4</ele>
        <time>2020-06-25T08:54:45Z</time>
      </trkpt>
      <trkpt lat="49.78358" lon="4.68394">
        <ele>188.2</ele>
        <time>2020-06-25T08:54:46Z</time>
      </trkpt>
      <trkpt lat="49.78355" lon="4.68401">
        <ele>188.1</ele>
        <time>2020-06-25T08:54:47Z</time>
      </trkpt>
      <trkpt lat="49.78352" lon="4.68409">
        <ele>187.9</ele>
        <time>2020-06-25T08:54:48Z</time>
      </trkpt>
      <trkpt lat="49.7835" lon="4.68417">
        <ele>187.8</ele>
        <time>2020-06-25T08:54:49Z</time>
      </trkpt>
      <trkpt lat="49.78348" lon="4.68424">
        <ele>187.6</ele>
        <time>2020-06-25T08:54:50Z</time>
      </trkpt>
      <trkpt lat="49.78345" lon="4.68431">
        <ele>187.4</ele>
        <time>2020-06-25T08:54:51Z</time>
      </trkpt>
      <trkpt lat="49.7834" lon="4.6844">
        <ele>187.2</ele>
        <time>2020-06-25T08:54:52Z</time>
      </trkpt>
      <trkpt lat="49.78336" lon="4.6845">
        <ele>186.9</ele>
        <time>2020-06-25T08:54:53Z</time>
      </trkpt>
      <trkpt lat="49.78333" lon="4.68459">
        <ele>186.7</ele>
        <time>2020-06-25T08:54:54Z</time>
      </trkpt>
      <trkpt lat="49.78329" lon="4.68468">
        <ele>186.7</ele>
        <time>2020-06-25T08:54:55Z</time>
      </trkpt>
      <trkpt lat="49.78325" lon="4.68477">
        <ele>186.5</ele>
        <time>2020-06-25T08:54:56Z</time>
      </trkpt>
      <trkpt lat="49.78321" lon="4.68487">
        <ele>186.2</ele>
        <time>2020-06-25T08:54:57Z</time>
      </trkpt>
      <trkpt lat="49.78317" lon="4.68495">
        <ele>186</ele>
        <time>2020-06-25T08:54:58Z</time>
      </trkpt>
      <trkpt lat="49.78313" lon="4.68504">
        <ele>185.9</ele>
        <time>2020-06-25T08:54:59Z</time>
      </trkpt>
      <trkpt lat="49.78309" lon="4.68512">
        <ele>185.7</ele>
        <time>2020-06-25T08:55:00Z</time>
      </trkpt>
      <trkpt lat="49.78305" lon="4.68521">
        <ele>185.5</ele>
        <time>2020-06-25T08:55:01Z</time>
      </trkpt>
      <trkpt lat="49.78301" lon="4.6853">
        <ele>185.3</ele>
        <time>2020-06-25T08:55:02Z</time>
      </trkpt>
      <trkpt lat="49.78296" lon="4.68539">
        <ele>185.1</ele>
        <time>2020-06-25T08:55:03Z</time>
      </trkpt>
      <trkpt lat="49.78292" lon="4.68547">
        <ele>185</ele>
        <time>2020-06-25T08:55:04Z</time>
      </trkpt>
      <trkpt lat="49.78289" lon="4.68554">
        <ele>184.8</ele>
        <time>2020-06-25T08:55:05Z</time>
      </trkpt>
      <trkpt lat="49.78285" lon="4.68562">
        <ele>184.8</ele>
        <time>2020-06-25T08:55:06Z</time>
      </trkpt>
      <trkpt lat="49.78282" lon="4.68569">
        <ele>184.7</ele>
        <time>2020-06-25T08:55:07Z</time>
      </trkpt>
      <trkpt lat="49.78278" lon="4.68577">
        <ele>184.6</ele>
        <time>2020-06-25T08:55:08Z</time>
      </trkpt>
      <trkpt lat="49.78274" lon="4.68586">
        <ele>184.5</ele>
        <time>2020-06-25T08:55:09Z</time>
      </trkpt>
      <trkpt lat="49.7827" lon="4.68594">
        <ele>184.4</ele>
        <time>2020-06-25T08:55:10Z</time>
      </trkpt>
      <trkpt lat="49.78266" lon="4.68603">
        <ele>184.2</ele>
        <time>2020-06-25T08:55:11Z</time>
      </trkpt>
      <trkpt lat="49.78263" lon="4.68611">
        <ele>184.1</ele>
        <time>2020-06-25T08:55:12Z</time>
      </trkpt>
      <trkpt lat="49.78259" lon="4.68619">
        <ele>184</ele>
        <time>2020-06-25T08:55:13Z</time>
      </trkpt>
      <trkpt lat="49.78256" lon="4.68626">
        <ele>183.9</ele>
        <time>2020-06-25T08:55:14Z</time>
      </trkpt>
      <trkpt lat="49.78253" lon="4.68634">
        <ele>183.8</ele>
        <time>2020-06-25T08:55:15Z</time>
      </trkpt>
      <trkpt lat="49.78249" lon="4.68642">
        <ele>183.6</ele>
        <time>2020-06-25T08:55:16Z</time>
      </trkpt>
      <trkpt lat="49.78246" lon="4.68649">
        <ele>183.5</ele>
        <time>2020-06-25T08:55:17Z</time>
      </trkpt>
      <trkpt lat="49.78243" lon="4.68657">
        <ele>183.3</ele>
        <time>2020-06-25T08:55:18Z</time>
      </trkpt>
      <trkpt lat="49.78239" lon="4.68665">
        <ele>183.1</ele>
        <time>2020-06-25T08:55:19Z</time>
      </trkpt>
      <trkpt lat="49.78235" lon="4.68672">
        <ele>182.9</ele>
        <time>2020-06-25T08:55:20Z</time>
      </trkpt>
      <trkpt lat="49.78232" lon="4.6868">
        <ele>182.8</ele>
        <time>2020-06-25T08:55:21Z</time>
      </trkpt>
      <trkpt lat="49.78228" lon="4.68688">
        <ele>182.6</ele>
        <time>2020-06-25T08:55:22Z</time>
      </trkpt>
      <trkpt lat="49.78225" lon="4.68695">
        <ele>182.4</ele>
        <time>2020-06-25T08:55:23Z</time>
      </trkpt>
      <trkpt lat="49.78222" lon="4.68703">
        <ele>182.2</ele>
        <time>2020-06-25T08:55:24Z</time>
      </trkpt>
      <trkpt lat="49.78218" lon="4.68711">
        <ele>182</ele>
        <time>2020-06-25T08:55:25Z</time>
      </trkpt>
      <trkpt lat="49.78214" lon="4.68718">
        <ele>181.8</ele>
        <time>2020-06-25T08:55:26Z</time>
      </trkpt>
      <trkpt lat="49.7821" lon="4.68727">
        <ele>181.6</ele>
        <time>2020-06-25T08:55:27Z</time>
      </trkpt>
      <trkpt lat="49.78206" lon="4.68736">
        <ele>181.5</ele>
        <time>2020-06-25T08:55:28Z</time>
      </trkpt>
      <trkpt lat="49.78203" lon="4.68745">
        <ele>181.3</ele>
        <time>2020-06-25T08:55:29Z</time>
      </trkpt>
      <trkpt lat="49.78199" lon="4.68754">
        <ele>181.2</ele>
        <time>2020-06-25T08:55:30Z</time>
      </trkpt>
      <trkpt lat="49.78196" lon="4.68762">
        <ele>181</ele>
        <time>2020-06-25T08:55:31Z</time>
      </trkpt>
      <trkpt lat="49.78192" lon="4.68771">
        <ele>180.9</ele>
        <time>2020-06-25T08:55:32Z</time>
      </trkpt>
      <trkpt lat="49.78189" lon="4.68779">
        <ele>180.7</ele>
        <time>2020-06-25T08:55:33Z</time>
      </trkpt>
      <trkpt lat="49.78185" lon="4.68788">
        <ele>180.5</ele>
        <time>2020-06-25T08:55:34Z</time>
      </trkpt>
      <trkpt lat="49.78181" lon="4.68797">
        <ele>180.3</ele>
        <time>2020-06-25T08:55:35Z</time>
      </trkpt>
      <trkpt lat="49.78177" lon="4.68805">
        <ele>180.2</ele>
        <time>2020-06-25T08:55:36Z</time>
      </trkpt>
      <trkpt lat="49.78174" lon="4.68814">
        <ele>180.1</ele>
        <time>2020-06-25T08:55:37Z</time>
      </trkpt>
      <trkpt lat="49.7817" lon="4.68823">
        <ele>180</ele>
        <time>2020-06-25T08:55:38Z</time>
      </trkpt>
      <trkpt lat="49.78166" lon="4.68832">
        <ele>179.9</ele>
        <time>2020-06-25T08:55:39Z</time>
      </trkpt>
      <trkpt lat="49.78162" lon="4.6884">
        <ele>179.8</ele>
        <time>2020-06-25T08:55:40Z</time>
      </trkpt>
      <trkpt lat="49.78159" lon="4.68848">
        <ele>179.6</ele>
        <time>2020-06-25T08:55:41Z</time>
      </trkpt>
      <trkpt lat="49.78155" lon="4.68857">
        <ele>179.5</ele>
        <time>2020-06-25T08:55:42Z</time>
      </trkpt>
      <trkpt lat="49.78152" lon="4.68865">
        <ele>179.3</ele>
        <time>2020-06-25T08:55:43Z</time>
      </trkpt>
      <trkpt lat="49.78148" lon="4.68872">
        <ele>179.2</ele>
        <time>2020-06-25T08:55:44Z</time>
      </trkpt>
      <trkpt lat="49.78145" lon="4.68879">
        <ele>179.1</ele>
        <time>2020-06-25T08:55:45Z</time>
      </trkpt>
      <trkpt lat="49.78142" lon="4.68887">
        <ele>179</ele>
        <time>2020-06-25T08:55:46Z</time>
      </trkpt>
      <trkpt lat="49.78139" lon="4.68894">
        <ele>178.9</ele>
        <time>2020-06-25T08:55:47Z</time>
      </trkpt>
      <trkpt lat="49.78136" lon="4.68902">
        <ele>178.7</ele>
        <time>2020-06-25T08:55:48Z</time>
      </trkpt>
      <trkpt lat="49.78133" lon="4.68909">
        <ele>178.5</ele>
        <time>2020-06-25T08:55:49Z</time>
      </trkpt>
      <trkpt lat="49.78129" lon="4.68916">
        <ele>178.3</ele>
        <time>2020-06-25T08:55:50Z</time>
      </trkpt>
      <trkpt lat="49.78126" lon="4.68924">
        <ele>178.1</ele>
        <time>2020-06-25T08:55:51Z</time>
      </trkpt>
      <trkpt lat="49.78122" lon="4.68932">
        <ele>177.9</ele>
        <time>2020-06-25T08:55:52Z</time>
      </trkpt>
      <trkpt lat="49.78118" lon="4.68941">
        <ele>177.7</ele>
        <time>2020-06-25T08:55:53Z</time>
      </trkpt>
      <trkpt lat="49.78114" lon="4.6895">
        <ele>177.5</ele>
        <time>2020-06-25T08:55:54Z</time>
      </trkpt>
      <trkpt lat="49.78111" lon="4.68959">
        <ele>177.3</ele>
        <time>2020-06-25T08:55:55Z</time>
      </trkpt>
      <trkpt lat="49.78107" lon="4.68968">
        <ele>177</ele>
        <time>2020-06-25T08:55:56Z</time>
      </trkpt>
      <trkpt lat="49.78102" lon="4.68978">
        <ele>176.9</ele>
        <time>2020-06-25T08:55:57Z</time>
      </trkpt>
      <trkpt lat="49.78099" lon="4.68987">
        <ele>176.8</ele>
        <time>2020-06-25T08:55:58Z</time>
      </trkpt>
      <trkpt lat="49.78095" lon="4.68995">
        <ele>176.6</ele>
        <time>2020-06-25T08:55:59Z</time>
      </trkpt>
      <trkpt lat="49.78091" lon="4.69004">
        <ele>176.4</ele>
        <time>2020-06-25T08:56:00Z</time>
      </trkpt>
      <trkpt lat="49.78087" lon="4.69012">
        <ele>176.4</ele>
        <time>2020-06-25T08:56:01Z</time>
      </trkpt>
      <trkpt lat="49.78083" lon="4.69021">
        <ele>176.3</ele>
        <time>2020-06-25T08:56:02Z</time>
      </trkpt>
      <trkpt lat="49.78079" lon="4.69029">
        <ele>176.3</ele>
        <time>2020-06-25T08:56:03Z</time>
      </trkpt>
      <trkpt lat="49.78075" lon="4.69037">
        <ele>176.2</ele>
        <time>2020-06-25T08:56:04Z</time>
      </trkpt>
      <trkpt lat="49.78072" lon="4.69045">
        <ele>176.1</ele>
        <time>2020-06-25T08:56:05Z</time>
      </trkpt>
      <trkpt lat="49.78068" lon="4.69054">
        <ele>176</ele>
        <time>2020-06-25T08:56:06Z</time>
      </trkpt>
      <trkpt lat="49.78064" lon="4.69062">
        <ele>175.9</ele>
        <time>2020-06-25T08:56:07Z</time>
      </trkpt>
      <trkpt lat="49.78061" lon="4.6907">
        <ele>175.8</ele>
        <time>2020-06-25T08:56:08Z</time>
      </trkpt>
      <trkpt lat="49.78057" lon="4.69078">
        <ele>175.8</ele>
        <time>2020-06-25T08:56:09Z</time>
      </trkpt>
      <trkpt lat="49.78054" lon="4.69085">
        <ele>175.7</ele>
        <time>2020-06-25T08:56:10Z</time>
      </trkpt>
      <trkpt lat="49.7805" lon="4.69093">
        <ele>175.6</ele>
        <time>2020-06-25T08:56:11Z</time>
      </trkpt>
      <trkpt lat="49.78047" lon="4.69101">
        <ele>175.5</ele>
        <time>2020-06-25T08:56:12Z</time>
      </trkpt>
      <trkpt lat="49.78044" lon="4.69108">
        <ele>175.4</ele>
        <time>2020-06-25T08:56:13Z</time>
      </trkpt>
      <trkpt lat="49.7804" lon="4.69115">
        <ele>175.4</ele>
        <time>2020-06-25T08:56:14Z</time>
      </trkpt>
      <trkpt lat="49.78038" lon="4.69122">
        <ele>175.3</ele>
        <time>2020-06-25T08:56:15Z</time>
      </trkpt>
      <trkpt lat="49.78035" lon="4.69128">
        <ele>175.3</ele>
        <time>2020-06-25T08:56:16Z</time>
      </trkpt>
      <trkpt lat="49.78033" lon="4.69133">
        <ele>175.3</ele>
        <time>2020-06-25T08:56:17Z</time>
      </trkpt>
      <trkpt lat="49.78031" lon="4.69137">
        <ele>175.3</ele>
        <time>2020-06-25T08:56:18Z</time>
      </trkpt>
      <trkpt lat="49.78029" lon="4.69142">
        <ele>175.2</ele>
        <time>2020-06-25T08:56:19Z</time>
      </trkpt>
      <trkpt lat="49.78027" lon="4.69146">
        <ele>175.2</ele>
        <time>2020-06-25T08:56:20Z</time>
      </trkpt>
      <trkpt lat="49.78026" lon="4.69152">
        <ele>175.2</ele>
        <time>2020-06-25T08:56:21Z</time>
      </trkpt>
      <trkpt lat="49.78027" lon="4.69154">
        <ele>175.2</ele>
        <time>2020-06-25T08:56:22Z</time>
      </trkpt>
      <trkpt lat="49.78028" lon="4.69159">
        <ele>175.1</ele>
        <time>2020-06-25T08:56:23Z</time>
      </trkpt>
      <trkpt lat="49.7803" lon="4.69164">
        <ele>175.1</ele>
        <time>2020-06-25T08:56:24Z</time>
      </trkpt>
      <trkpt lat="49.78032" lon="4.69167">
        <ele>175.1</ele>
        <time>2020-06-25T08:56:25Z</time>
      </trkpt>
      <trkpt lat="49.78035" lon="4.69171">
        <ele>175</ele>
        <time>2020-06-25T08:56:26Z</time>
      </trkpt>
      <trkpt lat="49.78036" lon="4.69172">
        <ele>175</ele>
        <time>2020-06-25T08:56:27Z</time>
      </trkpt>
      <trkpt lat="49.78038" lon="4.69176">
        <ele>175</ele>
        <time>2020-06-25T08:56:28Z</time>
      </trkpt>
      <trkpt lat="49.78039" lon="4.69177">
        <ele>175</ele>
        <time>2020-06-25T08:56:29Z</time>
      </trkpt>
      <trkpt lat="49.78041" lon="4.6918">
        <ele>174.9</ele>
        <time>2020-06-25T08:56:30Z</time>
      </trkpt>
      <trkpt lat="49.78042" lon="4.6918">
        <ele>174.9</ele>
        <time>2020-06-25T08:56:31Z</time>
      </trkpt>
      <trkpt lat="49.78045" lon="4.69181">
        <ele>174.9</ele>
        <time>2020-06-25T08:56:32Z</time>
      </trkpt>
      <trkpt lat="49.78049" lon="4.69182">
        <ele>174.8</ele>
        <time>2020-06-25T08:56:33Z</time>
      </trkpt>
      <trkpt lat="49.7805" lon="4.69182">
        <ele>174.8</ele>
        <time>2020-06-25T08:56:34Z</time>
      </trkpt>
      <trkpt lat="49.78051" lon="4.69181">
        <ele>174.8</ele>
        <time>2020-06-25T08:56:35Z</time>
      </trkpt>
      <trkpt lat="49.78052" lon="4.6918">
        <ele>174.8</ele>
        <time>2020-06-25T08:56:36Z</time>
      </trkpt>
      <trkpt lat="49.78053" lon="4.69179">
        <ele>174.8</ele>
        <time>2020-06-25T08:56:37Z</time>
      </trkpt>
      <trkpt lat="49.78054" lon="4.69179">
        <ele>174.8</ele>
        <time>2020-06-25T08:56:38Z</time>
      </trkpt>
      <trkpt lat="49.78054" lon="4.6918">
        <ele>174.8</ele>
        <time>2020-06-25T08:56:39Z</time>
      </trkpt>
      <trkpt lat="49.78054" lon="4.69181">
        <ele>174.8</ele>
        <time>2020-06-25T08:56:40Z</time>
      </trkpt>
      <trkpt lat="49.78054" lon="4.6918">
        <ele>174.7</ele>
        <time>2020-06-25T08:56:41Z</time>
      </trkpt>
      <trkpt lat="49.78054" lon="4.69181">
        <ele>174.7</ele>
        <time>2020-06-25T08:56:42Z</time>
      </trkpt>
      <trkpt lat="49.78055" lon="4.69182">
        <ele>174.7</ele>
        <time>2020-06-25T08:56:43Z</time>
      </trkpt>
      <trkpt lat="49.78056" lon="4.69182">
        <ele>174.7</ele>
        <time>2020-06-25T08:56:44Z</time>
      </trkpt>
      <trkpt lat="49.78057" lon="4.69181">
        <ele>174.7</ele>
        <time>2020-06-25T08:56:45Z</time>
      </trkpt>
      <trkpt lat="49.78057" lon="4.69181">
        <ele>174.7</ele>
        <time>2020-06-25T08:56:46Z</time>
      </trkpt>
      <trkpt lat="49.78057" lon="4.69181">
        <ele>174.7</ele>
        <time>2020-06-25T08:56:47Z</time>
      </trkpt>
      <trkpt lat="49.78057" lon="4.69181">
        <ele>174.7</ele>
        <time>2020-06-25T08:56:48Z</time>
      </trkpt>
      <trkpt lat="49.78057" lon="4.69182">
        <ele>174.7</ele>
        <time>2020-06-25T08:56:49Z</time>
      </trkpt>
      <trkpt lat="49.78057" lon="4.69181">
        <ele>174.7</ele>
        <time>2020-06-25T08:56:50Z</time>
      </trkpt>
      <trkpt lat="49.78057" lon="4.69182">
        <ele>174.7</ele>
        <time>2020-06-25T08:56:51Z</time>
      </trkpt>
      <trkpt lat="49.78058" lon="4.69183">
        <ele>174.7</ele>
        <time>2020-06-25T08:56:52Z</time>
      </trkpt>
      <trkpt lat="49.78058" lon="4.69183">
        <ele>174.7</ele>
        <time>2020-06-25T08:56:53Z</time>
      </trkpt>
      <trkpt lat="49.78058" lon="4.69182">
        <ele>174.6</ele>
        <time>2020-06-25T08:56:54Z</time>
      </trkpt>
      <trkpt lat="49.78058" lon="4.69182">
        <ele>174.6</ele>
        <time>2020-06-25T08:56:55Z</time>
      </trkpt>
      <trkpt lat="49.78063" lon="4.69179">
        <ele>174.6</ele>
        <time>2020-06-25T09:08:00Z</time>
      </trkpt>
      <trkpt lat="49.78063" lon="4.69182">
        <ele>174.5</ele>
        <time>2020-06-25T09:08:01Z</time>
      </trkpt>
      <trkpt lat="49.78063" lon="4.69183">
        <ele>174.5</ele>
        <time>2020-06-25T09:08:02Z</time>
      </trkpt>
      <trkpt lat="49.78062" lon="4.69184">
        <ele>174.5</ele>
        <time>2020-06-25T09:08:03Z</time>
      </trkpt>
      <trkpt lat="49.78058" lon="4.69186">
        <ele>174.5</ele>
        <time>2020-06-25T09:08:04Z</time>
      </trkpt>
      <trkpt lat="49.78057" lon="4.69187">
        <ele>174.4</ele>
        <time>2020-06-25T09:08:05Z</time>
      </trkpt>
      <trkpt lat="49.78054" lon="4.69189">
        <ele>174.4</ele>
        <time>2020-06-25T09:08:06Z</time>
      </trkpt>
      <trkpt lat="49.7805" lon="4.69191">
        <ele>174.3</ele>
        <time>2020-06-25T09:08:07Z</time>
      </trkpt>
      <trkpt lat="49.78045" lon="4.69194">
        <ele>174.2</ele>
        <time>2020-06-25T09:08:08Z</time>
      </trkpt>
      <trkpt lat="49.78043" lon="4.69196">
        <ele>174.1</ele>
        <time>2020-06-25T09:08:09Z</time>
      </trkpt>
      <trkpt lat="49.7804" lon="4.69197">
        <ele>174.1</ele>
        <time>2020-06-25T09:08:10Z</time>
      </trkpt>
      <trkpt lat="49.78037" lon="4.692">
        <ele>174</ele>
        <time>2020-06-25T09:08:11Z</time>
      </trkpt>
      <trkpt lat="49.78036" lon="4.69201">
        <ele>174</ele>
        <time>2020-06-25T09:08:12Z</time>
      </trkpt>
      <trkpt lat="49.78032" lon="4.69204">
        <ele>173.9</ele>
        <time>2020-06-25T09:08:13Z</time>
      </trkpt>
      <trkpt lat="49.78031" lon="4.69205">
        <ele>173.9</ele>
        <time>2020-06-25T09:08:14Z</time>
      </trkpt>
      <trkpt lat="49.78027" lon="4.69206">
        <ele>173.8</ele>
        <time>2020-06-25T09:08:15Z</time>
      </trkpt>
      <trkpt lat="49.78024" lon="4.69206">
        <ele>173.7</ele>
        <time>2020-06-25T09:08:16Z</time>
      </trkpt>
      <trkpt lat="49.78021" lon="4.69205">
        <ele>173.7</ele>
        <time>2020-06-25T09:08:17Z</time>
      </trkpt>
      <trkpt lat="49.7802" lon="4.69205">
        <ele>173.6</ele>
        <time>2020-06-25T09:08:18Z</time>
      </trkpt>
      <trkpt lat="49.78019" lon="4.69205">
        <ele>173.6</ele>
        <time>2020-06-25T09:08:19Z</time>
      </trkpt>
      <trkpt lat="49.78017" lon="4.69205">
        <ele>173.6</ele>
        <time>2020-06-25T09:08:20Z</time>
      </trkpt>
      <trkpt lat="49.78014" lon="4.69205">
        <ele>173.5</ele>
        <time>2020-06-25T09:08:21Z</time>
      </trkpt>
      <trkpt lat="49.78013" lon="4.69206">
        <ele>173.5</ele>
        <time>2020-06-25T09:08:22Z</time>
      </trkpt>
      <trkpt lat="49.78011" lon="4.69206">
        <ele>173.5</ele>
        <time>2020-06-25T09:08:23Z</time>
      </trkpt>
      <trkpt lat="49.78007" lon="4.69212">
        <ele>173.3</ele>
        <time>2020-06-25T09:08:24Z</time>
      </trkpt>
      <trkpt lat="49.78002" lon="4.69219">
        <ele>173.2</ele>
        <time>2020-06-25T09:08:25Z</time>
      </trkpt>
      <trkpt lat="49.77997" lon="4.69226">
        <ele>173</ele>
        <time>2020-06-25T09:08:26Z</time>
      </trkpt>
      <trkpt lat="49.77994" lon="4.69231">
        <ele>172.9</ele>
        <time>2020-06-25T09:08:27Z</time>
      </trkpt>
      <trkpt lat="49.7799" lon="4.69237">
        <ele>172.8</ele>
        <time>2020-06-25T09:08:28Z</time>
      </trkpt>
      <trkpt lat="49.77987" lon="4.69243">
        <ele>172.7</ele>
        <time>2020-06-25T09:08:29Z</time>
      </trkpt>
      <trkpt lat="49.77983" lon="4.6925">
        <ele>172.5</ele>
        <time>2020-06-25T09:08:30Z</time>
      </trkpt>
      <trkpt lat="49.7798" lon="4.69257">
        <ele>172.4</ele>
        <time>2020-06-25T09:08:31Z</time>
      </trkpt>
      <trkpt lat="49.77976" lon="4.69264">
        <ele>172.2</ele>
        <time>2020-06-25T09:08:32Z</time>
      </trkpt>
      <trkpt lat="49.77973" lon="4.69271">
        <ele>172.1</ele>
        <time>2020-06-25T09:08:33Z</time>
      </trkpt>
      <trkpt lat="49.77969" lon="4.69278">
        <ele>172</ele>
        <time>2020-06-25T09:08:34Z</time>
      </trkpt>
      <trkpt lat="49.77965" lon="4.69286">
        <ele>171.8</ele>
        <time>2020-06-25T09:08:35Z</time>
      </trkpt>
      <trkpt lat="49.77961" lon="4.69293">
        <ele>171.6</ele>
        <time>2020-06-25T09:08:36Z</time>
      </trkpt>
      <trkpt lat="49.77957" lon="4.69299">
        <ele>171.5</ele>
        <time>2020-06-25T09:08:37Z</time>
      </trkpt>
      <trkpt lat="49.77954" lon="4.69306">
        <ele>171.3</ele>
        <time>2020-06-25T09:08:38Z</time>
      </trkpt>
      <trkpt lat="49.77951" lon="4.69314">
        <ele>171.2</ele>
        <time>2020-06-25T09:08:39Z</time>
      </trkpt>
      <trkpt lat="49.77947" lon="4.6932">
        <ele>171.1</ele>
        <time>2020-06-25T09:08:40Z</time>
      </trkpt>
      <trkpt lat="49.77943" lon="4.69326">
        <ele>171</ele>
        <time>2020-06-25T09:08:41Z</time>
      </trkpt>
      <trkpt lat="49.77939" lon="4.69333">
        <ele>170.9</ele>
        <time>2020-06-25T09:08:42Z</time>
      </trkpt>
      <trkpt lat="49.77935" lon="4.69339">
        <ele>170.8</ele>
        <time>2020-06-25T09:08:43Z</time>
      </trkpt>
      <trkpt lat="49.77932" lon="4.69346">
        <ele>170.6</ele>
        <time>2020-06-25T09:08:44Z</time>
      </trkpt>
      <trkpt lat="49.77928" lon="4.69354">
        <ele>170.5</ele>
        <time>2020-06-25T09:08:45Z</time>
      </trkpt>
      <trkpt lat="49.77923" lon="4.69362">
        <ele>170.4</ele>
        <time>2020-06-25T09:08:46Z</time>
      </trkpt>
      <trkpt lat="49.77919" lon="4.6937">
        <ele>170.4</ele>
        <time>2020-06-25T09:08:47Z</time>
      </trkpt>
      <trkpt lat="49.77914" lon="4.69378">
        <ele>170.3</ele>
        <time>2020-06-25T09:08:48Z</time>
      </trkpt>
      <trkpt lat="49.7791" lon="4.69386">
        <ele>170.2</ele>
        <time>2020-06-25T09:08:49Z</time>
      </trkpt>
      <trkpt lat="49.77905" lon="4.69394">
        <ele>170.1</ele>
        <time>2020-06-25T09:08:50Z</time>
      </trkpt>
      <trkpt lat="49.77901" lon="4.69401">
        <ele>170.1</ele>
        <time>2020-06-25T09:08:51Z</time>
      </trkpt>
      <trkpt lat="49.77897" lon="4.69408">
        <ele>170</ele>
        <time>2020-06-25T09:08:52Z</time>
      </trkpt>
      <trkpt lat="49.77893" lon="4.69415">
        <ele>170</ele>
        <time>2020-06-25T09:08:53Z</time>
      </trkpt>
      <trkpt lat="49.77889" lon="4.69422">
        <ele>170</ele>
        <time>2020-06-25T09:08:54Z</time>
      </trkpt>
      <trkpt lat="49.77885" lon="4.6943">
        <ele>170</ele>
        <time>2020-06-25T09:08:55Z</time>
      </trkpt>
      <trkpt lat="49.77881" lon="4.69437">
        <ele>170.1</ele>
        <time>2020-06-25T09:08:56Z</time>
      </trkpt>
      <trkpt lat="49.77877" lon="4.69445">
        <ele>170.2</ele>
        <time>2020-06-25T09:08:57Z</time>
      </trkpt>
      <trkpt lat="49.77873" lon="4.69452">
        <ele>170.3</ele>
        <time>2020-06-25T09:08:58Z</time>
      </trkpt>
      <trkpt lat="49.7787" lon="4.69458">
        <ele>170.3</ele>
        <time>2020-06-25T09:08:59Z</time>
      </trkpt>
      <trkpt lat="49.77867" lon="4.69465">
        <ele>170.3</ele>
        <time>2020-06-25T09:09:00Z</time>
      </trkpt>
      <trkpt lat="49.77864" lon="4.69471">
        <ele>170.4</ele>
        <time>2020-06-25T09:09:01Z</time>
      </trkpt>
      <trkpt lat="49.77861" lon="4.69479">
        <ele>170.5</ele>
        <time>2020-06-25T09:09:02Z</time>
      </trkpt>
      <trkpt lat="49.77858" lon="4.69485">
        <ele>170.6</ele>
        <time>2020-06-25T09:09:03Z</time>
      </trkpt>
      <trkpt lat="49.77855" lon="4.69491">
        <ele>170.6</ele>
        <time>2020-06-25T09:09:04Z</time>
      </trkpt>
      <trkpt lat="49.77852" lon="4.69497">
        <ele>170.7</ele>
        <time>2020-06-25T09:09:05Z</time>
      </trkpt>
      <trkpt lat="49.7785" lon="4.69502">
        <ele>170.8</ele>
        <time>2020-06-25T09:09:06Z</time>
      </trkpt>
      <trkpt lat="49.77847" lon="4.69507">
        <ele>170.8</ele>
        <time>2020-06-25T09:09:07Z</time>
      </trkpt>
      <trkpt lat="49.77844" lon="4.69512">
        <ele>170.9</ele>
        <time>2020-06-25T09:09:08Z</time>
      </trkpt>
      <trkpt lat="49.77842" lon="4.69517">
        <ele>171</ele>
        <time>2020-06-25T09:09:09Z</time>
      </trkpt>
      <trkpt lat="49.77839" lon="4.69522">
        <ele>171.1</ele>
        <time>2020-06-25T09:09:10Z</time>
      </trkpt>
      <trkpt lat="49.77836" lon="4.69526">
        <ele>171.1</ele>
        <time>2020-06-25T09:09:11Z</time>
      </trkpt>
      <trkpt lat="49.77835" lon="4.6953">
        <ele>171.2</ele>
        <time>2020-06-25T09:09:12Z</time>
      </trkpt>
      <trkpt lat="49.77832" lon="4.69534">
        <ele>171.3</ele>
        <time>2020-06-25T09:09:13Z</time>
      </trkpt>
      <trkpt lat="49.7783" lon="4.69537">
        <ele>171.3</ele>
        <time>2020-06-25T09:09:14Z</time>
      </trkpt>
      <trkpt lat="49.77828" lon="4.69543">
        <ele>171.4</ele>
        <time>2020-06-25T09:09:15Z</time>
      </trkpt>
      <trkpt lat="49.77827" lon="4.69545">
        <ele>171.5</ele>
        <time>2020-06-25T09:09:16Z</time>
      </trkpt>
      <trkpt lat="49.77825" lon="4.69549">
        <ele>171.6</ele>
        <time>2020-06-25T09:09:17Z</time>
      </trkpt>
      <trkpt lat="49.77822" lon="4.69554">
        <ele>171.7</ele>
        <time>2020-06-25T09:09:18Z</time>
      </trkpt>
      <trkpt lat="49.7782" lon="4.69559">
        <ele>171.8</ele>
        <time>2020-06-25T09:09:19Z</time>
      </trkpt>
      <trkpt lat="49.77817" lon="4.69564">
        <ele>171.9</ele>
        <time>2020-06-25T09:09:20Z</time>
      </trkpt>
      <trkpt lat="49.77813" lon="4.69571">
        <ele>172</ele>
        <time>2020-06-25T09:09:21Z</time>
      </trkpt>
      <trkpt lat="49.77811" lon="4.69576">
        <ele>172.1</ele>
        <time>2020-06-25T09:09:22Z</time>
      </trkpt>
      <trkpt lat="49.77808" lon="4.69581">
        <ele>172.1</ele>
        <time>2020-06-25T09:09:23Z</time>
      </trkpt>
      <trkpt lat="49.77803" lon="4.69587">
        <ele>172.3</ele>
        <time>2020-06-25T09:09:24Z</time>
      </trkpt>
      <trkpt lat="49.778" lon="4.69594">
        <ele>172.4</ele>
        <time>2020-06-25T09:09:25Z</time>
      </trkpt>
      <trkpt lat="49.77797" lon="4.696">
        <ele>172.6</ele>
        <time>2020-06-25T09:09:26Z</time>
      </trkpt>
      <trkpt lat="49.77794" lon="4.69605">
        <ele>172.7</ele>
        <time>2020-06-25T09:09:27Z</time>
      </trkpt>
      <trkpt lat="49.77791" lon="4.69611">
        <ele>172.9</ele>
        <time>2020-06-25T09:09:28Z</time>
      </trkpt>
      <trkpt lat="49.77788" lon="4.69617">
        <ele>173</ele>
        <time>2020-06-25T09:09:29Z</time>
      </trkpt>
      <trkpt lat="49.77786" lon="4.69623">
        <ele>173.2</ele>
        <time>2020-06-25T09:09:30Z</time>
      </trkpt>
      <trkpt lat="49.77784" lon="4.69629">
        <ele>173.4</ele>
        <time>2020-06-25T09:09:31Z</time>
      </trkpt>
      <trkpt lat="49.77781" lon="4.69633">
        <ele>173.5</ele>
        <time>2020-06-25T09:09:32Z</time>
      </trkpt>
      <trkpt lat="49.77779" lon="4.69638">
        <ele>173.7</ele>
        <time>2020-06-25T09:09:33Z</time>
      </trkpt>
      <trkpt lat="49.77776" lon="4.69643">
        <ele>173.8</ele>
        <time>2020-06-25T09:09:34Z</time>
      </trkpt>
      <trkpt lat="49.77774" lon="4.69648">
        <ele>174</ele>
        <time>2020-06-25T09:09:35Z</time>
      </trkpt>
      <trkpt lat="49.77772" lon="4.69653">
        <ele>174.1</ele>
        <time>2020-06-25T09:09:36Z</time>
      </trkpt>
      <trkpt lat="49.7777" lon="4.69657">
        <ele>174.3</ele>
        <time>2020-06-25T09:09:37Z</time>
      </trkpt>
      <trkpt lat="49.77767" lon="4.69663">
        <ele>174.5</ele>
        <time>2020-06-25T09:09:38Z</time>
      </trkpt>
      <trkpt lat="49.77764" lon="4.69667">
        <ele>174.7</ele>
        <time>2020-06-25T09:09:39Z</time>
      </trkpt>
      <trkpt lat="49.77762" lon="4.69671">
        <ele>174.9</ele>
        <time>2020-06-25T09:09:40Z</time>
      </trkpt>
      <trkpt lat="49.77759" lon="4.69677">
        <ele>175.2</ele>
        <time>2020-06-25T09:09:41Z</time>
      </trkpt>
      <trkpt lat="49.77757" lon="4.69682">
        <ele>175.4</ele>
        <time>2020-06-25T09:09:42Z</time>
      </trkpt>
      <trkpt lat="49.77754" lon="4.69687">
        <ele>175.6</ele>
        <time>2020-06-25T09:09:43Z</time>
      </trkpt>
      <trkpt lat="49.77752" lon="4.69691">
        <ele>175.8</ele>
        <time>2020-06-25T09:09:44Z</time>
      </trkpt>
      <trkpt lat="49.77749" lon="4.69696">
        <ele>176</ele>
        <time>2020-06-25T09:09:45Z</time>
      </trkpt>
      <trkpt lat="49.77747" lon="4.69702">
        <ele>176.2</ele>
        <time>2020-06-25T09:09:46Z</time>
      </trkpt>
      <trkpt lat="49.77744" lon="4.69707">
        <ele>176.5</ele>
        <time>2020-06-25T09:09:47Z</time>
      </trkpt>
      <trkpt lat="49.77742" lon="4.69712">
        <ele>176.7</ele>
        <time>2020-06-25T09:09:48Z</time>
      </trkpt>
      <trkpt lat="49.77739" lon="4.69718">
        <ele>176.9</ele>
        <time>2020-06-25T09:09:49Z</time>
      </trkpt>
      <trkpt lat="49.77737" lon="4.69722">
        <ele>177.1</ele>
        <time>2020-06-25T09:09:50Z</time>
      </trkpt>
      <trkpt lat="49.77734" lon="4.69727">
        <ele>177.3</ele>
        <time>2020-06-25T09:09:51Z</time>
      </trkpt>
      <trkpt lat="49.77732" lon="4.69731">
        <ele>177.4</ele>
        <time>2020-06-25T09:09:52Z</time>
      </trkpt>
      <trkpt lat="49.7773" lon="4.69736">
        <ele>177.7</ele>
        <time>2020-06-25T09:09:53Z</time>
      </trkpt>
      <trkpt lat="49.77727" lon="4.69741">
        <ele>177.7</ele>
        <time>2020-06-25T09:09:54Z</time>
      </trkpt>
      <trkpt lat="49.77725" lon="4.69745">
        <ele>177.8</ele>
        <time>2020-06-25T09:09:55Z</time>
      </trkpt>
      <trkpt lat="49.77722" lon="4.6975">
        <ele>177.9</ele>
        <time>2020-06-25T09:09:56Z</time>
      </trkpt>
      <trkpt lat="49.7772" lon="4.69755">
        <ele>178.1</ele>
        <time>2020-06-25T09:09:57Z</time>
      </trkpt>
      <trkpt lat="49.77718" lon="4.6976">
        <ele>178.3</ele>
        <time>2020-06-25T09:09:58Z</time>
      </trkpt>
      <trkpt lat="49.77715" lon="4.69765">
        <ele>178.4</ele>
        <time>2020-06-25T09:09:59Z</time>
      </trkpt>
      <trkpt lat="49.77714" lon="4.69769">
        <ele>178.6</ele>
        <time>2020-06-25T09:10:00Z</time>
      </trkpt>
      <trkpt lat="49.77712" lon="4.69773">
        <ele>178.7</ele>
        <time>2020-06-25T09:10:01Z</time>
      </trkpt>
      <trkpt lat="49.77711" lon="4.69776">
        <ele>178.8</ele>
        <time>2020-06-25T09:10:02Z</time>
      </trkpt>
      <trkpt lat="49.77709" lon="4.69782">
        <ele>179</ele>
        <time>2020-06-25T09:10:03Z</time>
      </trkpt>
      <trkpt lat="49.77706" lon="4.69788">
        <ele>179.2</ele>
        <time>2020-06-25T09:10:04Z</time>
      </trkpt>
      <trkpt lat="49.77704" lon="4.69793">
        <ele>179.4</ele>
        <time>2020-06-25T09:10:05Z</time>
      </trkpt>
      <trkpt lat="49.77702" lon="4.69798">
        <ele>179.5</ele>
        <time>2020-06-25T09:10:06Z</time>
      </trkpt>
      <trkpt lat="49.77699" lon="4.69803">
        <ele>179.7</ele>
        <time>2020-06-25T09:10:07Z</time>
      </trkpt>
      <trkpt lat="49.77696" lon="4.69807">
        <ele>179.8</ele>
        <time>2020-06-25T09:10:08Z</time>
      </trkpt>
      <trkpt lat="49.77693" lon="4.69811">
        <ele>180</ele>
        <time>2020-06-25T09:10:09Z</time>
      </trkpt>
      <trkpt lat="49.77691" lon="4.69815">
        <ele>180.1</ele>
        <time>2020-06-25T09:10:10Z</time>
      </trkpt>
      <trkpt lat="49.77689" lon="4.6982">
        <ele>180.3</ele>
        <time>2020-06-25T09:10:11Z</time>
      </trkpt>
      <trkpt lat="49.77687" lon="4.69824">
        <ele>180.4</ele>
        <time>2020-06-25T09:10:12Z</time>
      </trkpt>
      <trkpt lat="49.77685" lon="4.69828">
        <ele>180.5</ele>
        <time>2020-06-25T09:10:13Z</time>
      </trkpt>
      <trkpt lat="49.77683" lon="4.69832">
        <ele>180.6</ele>
        <time>2020-06-25T09:10:14Z</time>
      </trkpt>
      <trkpt lat="49.77681" lon="4.69836">
        <ele>180.8</ele>
        <time>2020-06-25T09:10:15Z</time>
      </trkpt>
      <trkpt lat="49.77679" lon="4.69841">
        <ele>180.9</ele>
        <time>2020-06-25T09:10:16Z</time>
      </trkpt>
      <trkpt lat="49.77676" lon="4.69846">
        <ele>181.1</ele>
        <time>2020-06-25T09:10:17Z</time>
      </trkpt>
      <trkpt lat="49.77674" lon="4.69851">
        <ele>181.2</ele>
        <time>2020-06-25T09:10:18Z</time>
      </trkpt>
      <trkpt lat="49.77672" lon="4.69856">
        <ele>181.3</ele>
        <time>2020-06-25T09:10:19Z</time>
      </trkpt>
      <trkpt lat="49.77669" lon="4.69863">
        <ele>181.5</ele>
        <time>2020-06-25T09:10:20Z</time>
      </trkpt>
      <trkpt lat="49.77667" lon="4.69867">
        <ele>181.6</ele>
        <time>2020-06-25T09:10:21Z</time>
      </trkpt>
      <trkpt lat="49.77664" lon="4.69873">
        <ele>181.7</ele>
        <time>2020-06-25T09:10:22Z</time>
      </trkpt>
      <trkpt lat="49.77662" lon="4.69878">
        <ele>181.8</ele>
        <time>2020-06-25T09:10:23Z</time>
      </trkpt>
      <trkpt lat="49.7766" lon="4.69881">
        <ele>181.9</ele>
        <time>2020-06-25T09:10:24Z</time>
      </trkpt>
      <trkpt lat="49.77658" lon="4.69886">
        <ele>182</ele>
        <time>2020-06-25T09:10:25Z</time>
      </trkpt>
      <trkpt lat="49.77656" lon="4.69889">
        <ele>182</ele>
        <time>2020-06-25T09:10:26Z</time>
      </trkpt>
      <trkpt lat="49.77654" lon="4.69892">
        <ele>182.1</ele>
        <time>2020-06-25T09:10:27Z</time>
      </trkpt>
      <trkpt lat="49.77652" lon="4.69896">
        <ele>182.1</ele>
        <time>2020-06-25T09:10:28Z</time>
      </trkpt>
      <trkpt lat="49.7765" lon="4.69901">
        <ele>182.2</ele>
        <time>2020-06-25T09:10:29Z</time>
      </trkpt>
      <trkpt lat="49.77647" lon="4.69906">
        <ele>182.3</ele>
        <time>2020-06-25T09:10:30Z</time>
      </trkpt>
      <trkpt lat="49.77645" lon="4.6991">
        <ele>182.4</ele>
        <time>2020-06-25T09:10:31Z</time>
      </trkpt>
      <trkpt lat="49.77643" lon="4.69914">
        <ele>182.5</ele>
        <time>2020-06-25T09:10:32Z</time>
      </trkpt>
      <trkpt lat="49.77641" lon="4.69918">
        <ele>182.6</ele>
        <time>2020-06-25T09:10:33Z</time>
      </trkpt>
      <trkpt lat="49.77639" lon="4.69924">
        <ele>182.7</ele>
        <time>2020-06-25T09:10:34Z</time>
      </trkpt>
      <trkpt lat="49.77636" lon="4.6993">
        <ele>182.8</ele>
        <time>2020-06-25T09:10:35Z</time>
      </trkpt>
      <trkpt lat="49.77634" lon="4.69933">
        <ele>182.8</ele>
        <time>2020-06-25T09:10:36Z</time>
      </trkpt>
      <trkpt lat="49.77632" lon="4.69938">
        <ele>182.9</ele>
        <time>2020-06-25T09:10:37Z</time>
      </trkpt>
      <trkpt lat="49.7763" lon="4.69943">
        <ele>183</ele>
        <time>2020-06-25T09:10:38Z</time>
      </trkpt>
      <trkpt lat="49.77628" lon="4.69948">
        <ele>183.1</ele>
        <time>2020-06-25T09:10:39Z</time>
      </trkpt>
      <trkpt lat="49.77625" lon="4.69954">
        <ele>183.1</ele>
        <time>2020-06-25T09:10:40Z</time>
      </trkpt>
      <trkpt lat="49.77623" lon="4.69959">
        <ele>183.2</ele>
        <time>2020-06-25T09:10:41Z</time>
      </trkpt>
      <trkpt lat="49.7762" lon="4.69965">
        <ele>183.3</ele>
        <time>2020-06-25T09:10:42Z</time>
      </trkpt>
      <trkpt lat="49.77618" lon="4.6997">
        <ele>183.4</ele>
        <time>2020-06-25T09:10:43Z</time>
      </trkpt>
      <trkpt lat="49.77615" lon="4.69976">
        <ele>183.4</ele>
        <time>2020-06-25T09:10:44Z</time>
      </trkpt>
      <trkpt lat="49.77612" lon="4.69982">
        <ele>183.5</ele>
        <time>2020-06-25T09:10:45Z</time>
      </trkpt>
      <trkpt lat="49.77609" lon="4.69988">
        <ele>183.6</ele>
        <time>2020-06-25T09:10:46Z</time>
      </trkpt>
      <trkpt lat="49.77607" lon="4.69993">
        <ele>183.6</ele>
        <time>2020-06-25T09:10:47Z</time>
      </trkpt>
      <trkpt lat="49.77604" lon="4.69999">
        <ele>183.7</ele>
        <time>2020-06-25T09:10:48Z</time>
      </trkpt>
      <trkpt lat="49.77601" lon="4.70004">
        <ele>183.7</ele>
        <time>2020-06-25T09:10:49Z</time>
      </trkpt>
      <trkpt lat="49.77598" lon="4.70008">
        <ele>183.7</ele>
        <time>2020-06-25T09:10:50Z</time>
      </trkpt>
      <trkpt lat="49.77595" lon="4.70012">
        <ele>183.8</ele>
        <time>2020-06-25T09:10:51Z</time>
      </trkpt>
      <trkpt lat="49.77591" lon="4.70016">
        <ele>183.8</ele>
        <time>2020-06-25T09:10:52Z</time>
      </trkpt>
      <trkpt lat="49.77587" lon="4.7002">
        <ele>183.9</ele>
        <time>2020-06-25T09:10:53Z</time>
      </trkpt>
      <trkpt lat="49.77585" lon="4.70026">
        <ele>184</ele>
        <time>2020-06-25T09:10:54Z</time>
      </trkpt>
      <trkpt lat="49.77583" lon="4.7003">
        <ele>184.1</ele>
        <time>2020-06-25T09:10:55Z</time>
      </trkpt>
      <trkpt lat="49.7758" lon="4.70035">
        <ele>184.1</ele>
        <time>2020-06-25T09:10:56Z</time>
      </trkpt>
      <trkpt lat="49.77578" lon="4.7004">
        <ele>184.2</ele>
        <time>2020-06-25T09:10:57Z</time>
      </trkpt>
      <trkpt lat="49.77575" lon="4.70045">
        <ele>184.2</ele>
        <time>2020-06-25T09:10:58Z</time>
      </trkpt>
      <trkpt lat="49.77573" lon="4.70051">
        <ele>184.2</ele>
        <time>2020-06-25T09:10:59Z</time>
      </trkpt>
      <trkpt lat="49.77571" lon="4.70056">
        <ele>184.2</ele>
        <time>2020-06-25T09:11:00Z</time>
      </trkpt>
      <trkpt lat="49.77568" lon="4.70062">
        <ele>184.2</ele>
        <time>2020-06-25T09:11:01Z</time>
      </trkpt>
      <trkpt lat="49.77565" lon="4.70066">
        <ele>184.1</ele>
        <time>2020-06-25T09:11:02Z</time>
      </trkpt>
      <trkpt lat="49.77562" lon="4.70071">
        <ele>184.1</ele>
        <time>2020-06-25T09:11:03Z</time>
      </trkpt>
      <trkpt lat="49.77559" lon="4.70076">
        <ele>184</ele>
        <time>2020-06-25T09:11:04Z</time>
      </trkpt>
      <trkpt lat="49.77556" lon="4.70082">
        <ele>183.9</ele>
        <time>2020-06-25T09:11:05Z</time>
      </trkpt>
      <trkpt lat="49.77553" lon="4.70088">
        <ele>183.9</ele>
        <time>2020-06-25T09:11:06Z</time>
      </trkpt>
      <trkpt lat="49.77551" lon="4.70094">
        <ele>183.8</ele>
        <time>2020-06-25T09:11:07Z</time>
      </trkpt>
      <trkpt lat="49.77549" lon="4.701">
        <ele>183.7</ele>
        <time>2020-06-25T09:11:08Z</time>
      </trkpt>
      <trkpt lat="49.77546" lon="4.70106">
        <ele>183.6</ele>
        <time>2020-06-25T09:11:09Z</time>
      </trkpt>
      <trkpt lat="49.77543" lon="4.70112">
        <ele>183.5</ele>
        <time>2020-06-25T09:11:10Z</time>
      </trkpt>
      <trkpt lat="49.7754" lon="4.70118">
        <ele>183.4</ele>
        <time>2020-06-25T09:11:11Z</time>
      </trkpt>
      <trkpt lat="49.77537" lon="4.70124">
        <ele>183.4</ele>
        <time>2020-06-25T09:11:12Z</time>
      </trkpt>
      <trkpt lat="49.77534" lon="4.70129">
        <ele>183.3</ele>
        <time>2020-06-25T09:11:13Z</time>
      </trkpt>
      <trkpt lat="49.77532" lon="4.70135">
        <ele>183.2</ele>
        <time>2020-06-25T09:11:14Z</time>
      </trkpt>
      <trkpt lat="49.77529" lon="4.70141">
        <ele>183.2</ele>
        <time>2020-06-25T09:11:15Z</time>
      </trkpt>
      <trkpt lat="49.77526" lon="4.70147">
        <ele>183.1</ele>
        <time>2020-06-25T09:11:16Z</time>
      </trkpt>
      <trkpt lat="49.77522" lon="4.70154">
        <ele>183</ele>
        <time>2020-06-25T09:11:17Z</time>
      </trkpt>
      <trkpt lat="49.77519" lon="4.70161">
        <ele>183</ele>
        <time>2020-06-25T09:11:18Z</time>
      </trkpt>
      <trkpt lat="49.77516" lon="4.70169">
        <ele>182.9</ele>
        <time>2020-06-25T09:11:19Z</time>
      </trkpt>
      <trkpt lat="49.77513" lon="4.70176">
        <ele>182.9</ele>
        <time>2020-06-25T09:11:20Z</time>
      </trkpt>
      <trkpt lat="49.77509" lon="4.70183">
        <ele>182.9</ele>
        <time>2020-06-25T09:11:21Z</time>
      </trkpt>
      <trkpt lat="49.77506" lon="4.7019">
        <ele>182.8</ele>
        <time>2020-06-25T09:11:22Z</time>
      </trkpt>
      <trkpt lat="49.77503" lon="4.70197">
        <ele>182.8</ele>
        <time>2020-06-25T09:11:23Z</time>
      </trkpt>
      <trkpt lat="49.775" lon="4.70203">
        <ele>182.8</ele>
        <time>2020-06-25T09:11:24Z</time>
      </trkpt>
      <trkpt lat="49.77496" lon="4.70211">
        <ele>182.8</ele>
        <time>2020-06-25T09:11:25Z</time>
      </trkpt>
      <trkpt lat="49.77492" lon="4.70218">
        <ele>182.7</ele>
        <time>2020-06-25T09:11:26Z</time>
      </trkpt>
      <trkpt lat="49.77488" lon="4.70226">
        <ele>182.7</ele>
        <time>2020-06-25T09:11:27Z</time>
      </trkpt>
      <trkpt lat="49.77484" lon="4.70234">
        <ele>182.7</ele>
        <time>2020-06-25T09:11:28Z</time>
      </trkpt>
      <trkpt lat="49.77481" lon="4.70243">
        <ele>182.7</ele>
        <time>2020-06-25T09:11:29Z</time>
      </trkpt>
      <trkpt lat="49.77477" lon="4.7025">
        <ele>182.8</ele>
        <time>2020-06-25T09:11:30Z</time>
      </trkpt>
      <trkpt lat="49.77474" lon="4.70258">
        <ele>182.8</ele>
        <time>2020-06-25T09:11:31Z</time>
      </trkpt>
      <trkpt lat="49.77469" lon="4.70265">
        <ele>182.9</ele>
        <time>2020-06-25T09:11:32Z</time>
      </trkpt>
      <trkpt lat="49.77466" lon="4.70272">
        <ele>182.9</ele>
        <time>2020-06-25T09:11:33Z</time>
      </trkpt>
      <trkpt lat="49.77462" lon="4.70279">
        <ele>182.9</ele>
        <time>2020-06-25T09:11:34Z</time>
      </trkpt>
      <trkpt lat="49.77458" lon="4.70286">
        <ele>183</ele>
        <time>2020-06-25T09:11:35Z</time>
      </trkpt>
      <trkpt lat="49.77455" lon="4.70293">
        <ele>183</ele>
        <time>2020-06-25T09:11:36Z</time>
      </trkpt>
      <trkpt lat="49.77451" lon="4.70299">
        <ele>183.1</ele>
        <time>2020-06-25T09:11:37Z</time>
      </trkpt>
      <trkpt lat="49.77448" lon="4.70306">
        <ele>183.2</ele>
        <time>2020-06-25T09:11:38Z</time>
      </trkpt>
      <trkpt lat="49.77444" lon="4.70313">
        <ele>183.2</ele>
        <time>2020-06-25T09:11:39Z</time>
      </trkpt>
      <trkpt lat="49.77441" lon="4.70319">
        <ele>183.3</ele>
        <time>2020-06-25T09:11:40Z</time>
      </trkpt>
      <trkpt lat="49.77437" lon="4.70326">
        <ele>183.3</ele>
        <time>2020-06-25T09:11:41Z</time>
      </trkpt>
      <trkpt lat="49.77434" lon="4.70333">
        <ele>183.4</ele>
        <time>2020-06-25T09:11:42Z</time>
      </trkpt>
      <trkpt lat="49.77431" lon="4.7034">
        <ele>183.4</ele>
        <time>2020-06-25T09:11:43Z</time>
      </trkpt>
      <trkpt lat="49.77429" lon="4.70347">
        <ele>183.5</ele>
        <time>2020-06-25T09:11:44Z</time>
      </trkpt>
      <trkpt lat="49.77426" lon="4.70354">
        <ele>183.5</ele>
        <time>2020-06-25T09:11:45Z</time>
      </trkpt>
      <trkpt lat="49.77423" lon="4.7036">
        <ele>183.5</ele>
        <time>2020-06-25T09:11:46Z</time>
      </trkpt>
      <trkpt lat="49.77421" lon="4.70366">
        <ele>183.7</ele>
        <time>2020-06-25T09:11:47Z</time>
      </trkpt>
      <trkpt lat="49.77418" lon="4.70371">
        <ele>183.7</ele>
        <time>2020-06-25T09:11:48Z</time>
      </trkpt>
      <trkpt lat="49.77416" lon="4.70376">
        <ele>183.8</ele>
        <time>2020-06-25T09:11:49Z</time>
      </trkpt>
      <trkpt lat="49.77414" lon="4.70383">
        <ele>184</ele>
        <time>2020-06-25T09:11:50Z</time>
      </trkpt>
      <trkpt lat="49.77412" lon="4.7039">
        <ele>184.2</ele>
        <time>2020-06-25T09:11:51Z</time>
      </trkpt>
      <trkpt lat="49.77409" lon="4.70398">
        <ele>184.3</ele>
        <time>2020-06-25T09:11:52Z</time>
      </trkpt>
      <trkpt lat="49.77406" lon="4.70405">
        <ele>184.5</ele>
        <time>2020-06-25T09:11:53Z</time>
      </trkpt>
      <trkpt lat="49.77403" lon="4.70411">
        <ele>184.6</ele>
        <time>2020-06-25T09:11:54Z</time>
      </trkpt>
      <trkpt lat="49.774" lon="4.70417">
        <ele>184.7</ele>
        <time>2020-06-25T09:11:55Z</time>
      </trkpt>
      <trkpt lat="49.77397" lon="4.70422">
        <ele>184.8</ele>
        <time>2020-06-25T09:11:56Z</time>
      </trkpt>
      <trkpt lat="49.77393" lon="4.70426">
        <ele>184.9</ele>
        <time>2020-06-25T09:11:57Z</time>
      </trkpt>
      <trkpt lat="49.7739" lon="4.70431">
        <ele>185</ele>
        <time>2020-06-25T09:11:58Z</time>
      </trkpt>
      <trkpt lat="49.77388" lon="4.70435">
        <ele>185.1</ele>
        <time>2020-06-25T09:11:59Z</time>
      </trkpt>
      <trkpt lat="49.77385" lon="4.7044">
        <ele>185.2</ele>
        <time>2020-06-25T09:12:00Z</time>
      </trkpt>
      <trkpt lat="49.77383" lon="4.70444">
        <ele>185.3</ele>
        <time>2020-06-25T09:12:01Z</time>
      </trkpt>
      <trkpt lat="49.77381" lon="4.70449">
        <ele>185.4</ele>
        <time>2020-06-25T09:12:02Z</time>
      </trkpt>
      <trkpt lat="49.77378" lon="4.70454">
        <ele>185.5</ele>
        <time>2020-06-25T09:12:03Z</time>
      </trkpt>
      <trkpt lat="49.77375" lon="4.7046">
        <ele>185.6</ele>
        <time>2020-06-25T09:12:04Z</time>
      </trkpt>
      <trkpt lat="49.77372" lon="4.70466">
        <ele>185.7</ele>
        <time>2020-06-25T09:12:05Z</time>
      </trkpt>
      <trkpt lat="49.77371" lon="4.70471">
        <ele>185.7</ele>
        <time>2020-06-25T09:12:06Z</time>
      </trkpt>
      <trkpt lat="49.77369" lon="4.70475">
        <ele>185.8</ele>
        <time>2020-06-25T09:12:07Z</time>
      </trkpt>
      <trkpt lat="49.77367" lon="4.70479">
        <ele>185.9</ele>
        <time>2020-06-25T09:12:08Z</time>
      </trkpt>
      <trkpt lat="49.77365" lon="4.70483">
        <ele>186</ele>
        <time>2020-06-25T09:12:09Z</time>
      </trkpt>
      <trkpt lat="49.77363" lon="4.70488">
        <ele>186</ele>
        <time>2020-06-25T09:12:10Z</time>
      </trkpt>
      <trkpt lat="49.77361" lon="4.70492">
        <ele>186.1</ele>
        <time>2020-06-25T09:12:11Z</time>
      </trkpt>
      <trkpt lat="49.77358" lon="4.70495">
        <ele>186.2</ele>
        <time>2020-06-25T09:12:12Z</time>
      </trkpt>
      <trkpt lat="49.77354" lon="4.705">
        <ele>186.3</ele>
        <time>2020-06-25T09:12:13Z</time>
      </trkpt>
      <trkpt lat="49.7735" lon="4.70505">
        <ele>186.3</ele>
        <time>2020-06-25T09:12:14Z</time>
      </trkpt>
      <trkpt lat="49.77346" lon="4.7051">
        <ele>186.3</ele>
        <time>2020-06-25T09:12:15Z</time>
      </trkpt>
      <trkpt lat="49.77343" lon="4.70515">
        <ele>186.2</ele>
        <time>2020-06-25T09:12:16Z</time>
      </trkpt>
      <trkpt lat="49.77339" lon="4.7052">
        <ele>186.2</ele>
        <time>2020-06-25T09:12:17Z</time>
      </trkpt>
      <trkpt lat="49.77335" lon="4.70527">
        <ele>186.1</ele>
        <time>2020-06-25T09:12:18Z</time>
      </trkpt>
      <trkpt lat="49.77333" lon="4.70533">
        <ele>186.1</ele>
        <time>2020-06-25T09:12:19Z</time>
      </trkpt>
      <trkpt lat="49.77331" lon="4.70539">
        <ele>186</ele>
        <time>2020-06-25T09:12:20Z</time>
      </trkpt>
      <trkpt lat="49.77327" lon="4.70545">
        <ele>185.9</ele>
        <time>2020-06-25T09:12:21Z</time>
      </trkpt>
      <trkpt lat="49.77323" lon="4.70551">
        <ele>185.7</ele>
        <time>2020-06-25T09:12:22Z</time>
      </trkpt>
      <trkpt lat="49.7732" lon="4.70556">
        <ele>185.7</ele>
        <time>2020-06-25T09:12:23Z</time>
      </trkpt>
      <trkpt lat="49.77316" lon="4.70562">
        <ele>185.6</ele>
        <time>2020-06-25T09:12:24Z</time>
      </trkpt>
      <trkpt lat="49.77313" lon="4.70568">
        <ele>185.5</ele>
        <time>2020-06-25T09:12:25Z</time>
      </trkpt>
      <trkpt lat="49.77311" lon="4.70574">
        <ele>185.5</ele>
        <time>2020-06-25T09:12:26Z</time>
      </trkpt>
      <trkpt lat="49.77307" lon="4.7058">
        <ele>185.5</ele>
        <time>2020-06-25T09:12:27Z</time>
      </trkpt>
      <trkpt lat="49.77303" lon="4.70586">
        <ele>185.4</ele>
        <time>2020-06-25T09:12:28Z</time>
      </trkpt>
      <trkpt lat="49.77301" lon="4.70592">
        <ele>185.3</ele>
        <time>2020-06-25T09:12:29Z</time>
      </trkpt>
      <trkpt lat="49.77297" lon="4.70598">
        <ele>185.2</ele>
        <time>2020-06-25T09:12:30Z</time>
      </trkpt>
      <trkpt lat="49.77294" lon="4.70605">
        <ele>185.1</ele>
        <time>2020-06-25T09:12:31Z</time>
      </trkpt>
      <trkpt lat="49.77291" lon="4.70612">
        <ele>184.9</ele>
        <time>2020-06-25T09:12:32Z</time>
      </trkpt>
      <trkpt lat="49.77288" lon="4.70618">
        <ele>184.7</ele>
        <time>2020-06-25T09:12:33Z</time>
      </trkpt>
      <trkpt lat="49.77285" lon="4.70626">
        <ele>184.5</ele>
        <time>2020-06-25T09:12:34Z</time>
      </trkpt>
      <trkpt lat="49.77281" lon="4.70633">
        <ele>184.3</ele>
        <time>2020-06-25T09:12:35Z</time>
      </trkpt>
      <trkpt lat="49.77277" lon="4.70641">
        <ele>184.1</ele>
        <time>2020-06-25T09:12:36Z</time>
      </trkpt>
      <trkpt lat="49.77272" lon="4.70649">
        <ele>183.9</ele>
        <time>2020-06-25T09:12:37Z</time>
      </trkpt>
      <trkpt lat="49.77269" lon="4.70656">
        <ele>183.7</ele>
        <time>2020-06-25T09:12:38Z</time>
      </trkpt>
      <trkpt lat="49.77265" lon="4.70664">
        <ele>183.5</ele>
        <time>2020-06-25T09:12:39Z</time>
      </trkpt>
      <trkpt lat="49.77262" lon="4.70672">
        <ele>183.2</ele>
        <time>2020-06-25T09:12:40Z</time>
      </trkpt>
      <trkpt lat="49.77258" lon="4.70679">
        <ele>182.9</ele>
        <time>2020-06-25T09:12:41Z</time>
      </trkpt>
      <trkpt lat="49.77255" lon="4.70688">
        <ele>182.6</ele>
        <time>2020-06-25T09:12:42Z</time>
      </trkpt>
      <trkpt lat="49.77252" lon="4.70696">
        <ele>182.3</ele>
        <time>2020-06-25T09:12:43Z</time>
      </trkpt>
      <trkpt lat="49.77248" lon="4.70705">
        <ele>182</ele>
        <time>2020-06-25T09:12:44Z</time>
      </trkpt>
      <trkpt lat="49.77244" lon="4.70714">
        <ele>181.7</ele>
        <time>2020-06-25T09:12:45Z</time>
      </trkpt>
      <trkpt lat="49.77239" lon="4.70723">
        <ele>181.3</ele>
        <time>2020-06-25T09:12:46Z</time>
      </trkpt>
      <trkpt lat="49.77235" lon="4.70733">
        <ele>180.8</ele>
        <time>2020-06-25T09:12:47Z</time>
      </trkpt>
      <trkpt lat="49.77229" lon="4.70744">
        <ele>180.3</ele>
        <time>2020-06-25T09:12:48Z</time>
      </trkpt>
      <trkpt lat="49.77224" lon="4.70753">
        <ele>179.8</ele>
        <time>2020-06-25T09:12:49Z</time>
      </trkpt>
      <trkpt lat="49.77218" lon="4.70762">
        <ele>179.2</ele>
        <time>2020-06-25T09:12:50Z</time>
      </trkpt>
      <trkpt lat="49.77213" lon="4.70771">
        <ele>178.8</ele>
        <time>2020-06-25T09:12:51Z</time>
      </trkpt>
      <trkpt lat="49.77207" lon="4.7078">
        <ele>178.5</ele>
        <time>2020-06-25T09:12:52Z</time>
      </trkpt>
      <trkpt lat="49.77203" lon="4.70789">
        <ele>178.1</ele>
        <time>2020-06-25T09:12:53Z</time>
      </trkpt>
      <trkpt lat="49.77198" lon="4.70797">
        <ele>177.8</ele>
        <time>2020-06-25T09:12:54Z</time>
      </trkpt>
      <trkpt lat="49.77193" lon="4.70805">
        <ele>177.4</ele>
        <time>2020-06-25T09:12:55Z</time>
      </trkpt>
      <trkpt lat="49.77189" lon="4.70814">
        <ele>177</ele>
        <time>2020-06-25T09:12:56Z</time>
      </trkpt>
      <trkpt lat="49.77185" lon="4.70822">
        <ele>176.5</ele>
        <time>2020-06-25T09:12:57Z</time>
      </trkpt>
      <trkpt lat="49.77181" lon="4.70831">
        <ele>176</ele>
        <time>2020-06-25T09:12:58Z</time>
      </trkpt>
      <trkpt lat="49.77176" lon="4.70839">
        <ele>175.5</ele>
        <time>2020-06-25T09:12:59Z</time>
      </trkpt>
      <trkpt lat="49.77171" lon="4.70847">
        <ele>175.1</ele>
        <time>2020-06-25T09:13:00Z</time>
      </trkpt>
      <trkpt lat="49.77167" lon="4.70856">
        <ele>174.5</ele>
        <time>2020-06-25T09:13:01Z</time>
      </trkpt>
      <trkpt lat="49.77163" lon="4.70864">
        <ele>174</ele>
        <time>2020-06-25T09:13:02Z</time>
      </trkpt>
      <trkpt lat="49.7716" lon="4.7087">
        <ele>173.5</ele>
        <time>2020-06-25T09:13:03Z</time>
      </trkpt>
      <trkpt lat="49.77157" lon="4.70875">
        <ele>173.1</ele>
        <time>2020-06-25T09:13:04Z</time>
      </trkpt>
      <trkpt lat="49.77155" lon="4.7088">
        <ele>172.8</ele>
        <time>2020-06-25T09:13:05Z</time>
      </trkpt>
      <trkpt lat="49.77152" lon="4.70885">
        <ele>172.3</ele>
        <time>2020-06-25T09:13:06Z</time>
      </trkpt>
      <trkpt lat="49.7715" lon="4.70892">
        <ele>172</ele>
        <time>2020-06-25T09:13:07Z</time>
      </trkpt>
      <trkpt lat="49.77148" lon="4.70899">
        <ele>171.7</ele>
        <time>2020-06-25T09:13:08Z</time>
      </trkpt>
      <trkpt lat="49.77144" lon="4.70905">
        <ele>171.5</ele>
        <time>2020-06-25T09:13:09Z</time>
      </trkpt>
      <trkpt lat="49.77141" lon="4.7091">
        <ele>171.3</ele>
        <time>2020-06-25T09:13:10Z</time>
      </trkpt>
      <trkpt lat="49.77138" lon="4.70917">
        <ele>171.1</ele>
        <time>2020-06-25T09:13:11Z</time>
      </trkpt>
      <trkpt lat="49.77135" lon="4.70924">
        <ele>170.9</ele>
        <time>2020-06-25T09:13:12Z</time>
      </trkpt>
      <trkpt lat="49.77133" lon="4.7093">
        <ele>170.7</ele>
        <time>2020-06-25T09:13:13Z</time>
      </trkpt>
      <trkpt lat="49.77131" lon="4.70936">
        <ele>170.5</ele>
        <time>2020-06-25T09:13:14Z</time>
      </trkpt>
      <trkpt lat="49.77128" lon="4.70941">
        <ele>170.3</ele>
        <time>2020-06-25T09:13:15Z</time>
      </trkpt>
      <trkpt lat="49.77126" lon="4.70947">
        <ele>170.2</ele>
        <time>2020-06-25T09:13:16Z</time>
      </trkpt>
      <trkpt lat="49.77123" lon="4.70952">
        <ele>170</ele>
        <time>2020-06-25T09:13:17Z</time>
      </trkpt>
      <trkpt lat="49.77121" lon="4.70957">
        <ele>169.8</ele>
        <time>2020-06-25T09:13:18Z</time>
      </trkpt>
      <trkpt lat="49.77119" lon="4.70962">
        <ele>169.7</ele>
        <time>2020-06-25T09:13:19Z</time>
      </trkpt>
      <trkpt lat="49.77117" lon="4.70966">
        <ele>169.5</ele>
        <time>2020-06-25T09:13:20Z</time>
      </trkpt>
      <trkpt lat="49.77115" lon="4.7097">
        <ele>169.4</ele>
        <time>2020-06-25T09:13:21Z</time>
      </trkpt>
      <trkpt lat="49.77113" lon="4.70973">
        <ele>169.3</ele>
        <time>2020-06-25T09:13:22Z</time>
      </trkpt>
      <trkpt lat="49.77112" lon="4.70974">
        <ele>169.3</ele>
        <time>2020-06-25T09:13:23Z</time>
      </trkpt>
      <trkpt lat="49.7711" lon="4.70976">
        <ele>169.2</ele>
        <time>2020-06-25T09:13:24Z</time>
      </trkpt>
      <trkpt lat="49.7711" lon="4.70977">
        <ele>169.2</ele>
        <time>2020-06-25T09:13:25Z</time>
      </trkpt>
      <trkpt lat="49.77109" lon="4.70978">
        <ele>169.2</ele>
        <time>2020-06-25T09:13:26Z</time>
      </trkpt>
      <trkpt lat="49.77107" lon="4.70979">
        <ele>169.1</ele>
        <time>2020-06-25T09:13:27Z</time>
      </trkpt>
      <trkpt lat="49.77107" lon="4.70981">
        <ele>169.1</ele>
        <time>2020-06-25T09:13:28Z</time>
      </trkpt>
      <trkpt lat="49.77105" lon="4.70985">
        <ele>169</ele>
        <time>2020-06-25T09:13:29Z</time>
      </trkpt>
      <trkpt lat="49.77104" lon="4.70986">
        <ele>168.9</ele>
        <time>2020-06-25T09:13:30Z</time>
      </trkpt>
      <trkpt lat="49.77102" lon="4.7099">
        <ele>168.9</ele>
        <time>2020-06-25T09:13:31Z</time>
      </trkpt>
      <trkpt lat="49.77102" lon="4.7099">
        <ele>168.7</ele>
        <time>2020-06-25T09:13:32Z</time>
      </trkpt>
      <trkpt lat="49.77099" lon="4.70992">
        <ele>168.6</ele>
        <time>2020-06-25T09:13:33Z</time>
      </trkpt>
      <trkpt lat="49.77098" lon="4.70993">
        <ele>168.5</ele>
        <time>2020-06-25T09:13:34Z</time>
      </trkpt>
      <trkpt lat="49.77096" lon="4.70996">
        <ele>168.4</ele>
        <time>2020-06-25T09:13:35Z</time>
      </trkpt>
      <trkpt lat="49.77094" lon="4.71">
        <ele>168.2</ele>
        <time>2020-06-25T09:13:36Z</time>
      </trkpt>
      <trkpt lat="49.77091" lon="4.71004">
        <ele>168</ele>
        <time>2020-06-25T09:13:37Z</time>
      </trkpt>
      <trkpt lat="49.77088" lon="4.71009">
        <ele>167.8</ele>
        <time>2020-06-25T09:13:38Z</time>
      </trkpt>
      <trkpt lat="49.77085" lon="4.71014">
        <ele>167.6</ele>
        <time>2020-06-25T09:13:39Z</time>
      </trkpt>
      <trkpt lat="49.77082" lon="4.71019">
        <ele>167.4</ele>
        <time>2020-06-25T09:13:40Z</time>
      </trkpt>
      <trkpt lat="49.77079" lon="4.71025">
        <ele>167.2</ele>
        <time>2020-06-25T09:13:41Z</time>
      </trkpt>
      <trkpt lat="49.77076" lon="4.71031">
        <ele>167.1</ele>
        <time>2020-06-25T09:13:42Z</time>
      </trkpt>
      <trkpt lat="49.77072" lon="4.71037">
        <ele>166.9</ele>
        <time>2020-06-25T09:13:43Z</time>
      </trkpt>
      <trkpt lat="49.77068" lon="4.71043">
        <ele>166.6</ele>
        <time>2020-06-25T09:13:44Z</time>
      </trkpt>
      <trkpt lat="49.77065" lon="4.71051">
        <ele>166.9</ele>
        <time>2020-06-25T09:13:45Z</time>
      </trkpt>
      <trkpt lat="49.77062" lon="4.71058">
        <ele>166.8</ele>
        <time>2020-06-25T09:13:46Z</time>
      </trkpt>
      <trkpt lat="49.77059" lon="4.71066">
        <ele>166.7</ele>
        <time>2020-06-25T09:13:47Z</time>
      </trkpt>
      <trkpt lat="49.77056" lon="4.71072">
        <ele>166.6</ele>
        <time>2020-06-25T09:13:48Z</time>
      </trkpt>
      <trkpt lat="49.77054" lon="4.71077">
        <ele>166.5</ele>
        <time>2020-06-25T09:13:49Z</time>
      </trkpt>
      <trkpt lat="49.77052" lon="4.71081">
        <ele>166.4</ele>
        <time>2020-06-25T09:13:50Z</time>
      </trkpt>
      <trkpt lat="49.77049" lon="4.71084">
        <ele>166.3</ele>
        <time>2020-06-25T09:13:51Z</time>
      </trkpt>
      <trkpt lat="49.77047" lon="4.71087">
        <ele>166.1</ele>
        <time>2020-06-25T09:13:52Z</time>
      </trkpt>
      <trkpt lat="49.77046" lon="4.7109">
        <ele>166</ele>
        <time>2020-06-25T09:13:53Z</time>
      </trkpt>
      <trkpt lat="49.77045" lon="4.71091">
        <ele>166</ele>
        <time>2020-06-25T09:13:54Z</time>
      </trkpt>
      <trkpt lat="49.77043" lon="4.71091">
        <ele>165.9</ele>
        <time>2020-06-25T09:13:55Z</time>
      </trkpt>
      <trkpt lat="49.77043" lon="4.71092">
        <ele>165.9</ele>
        <time>2020-06-25T09:13:56Z</time>
      </trkpt>
      <trkpt lat="49.77042" lon="4.71093">
        <ele>165.8</ele>
        <time>2020-06-25T09:13:57Z</time>
      </trkpt>
      <trkpt lat="49.77042" lon="4.71095">
        <ele>165.8</ele>
        <time>2020-06-25T09:13:58Z</time>
      </trkpt>
      <trkpt lat="49.77041" lon="4.71097">
        <ele>165.7</ele>
        <time>2020-06-25T09:13:59Z</time>
      </trkpt>
      <trkpt lat="49.7704" lon="4.71097">
        <ele>165.6</ele>
        <time>2020-06-25T09:14:00Z</time>
      </trkpt>
      <trkpt lat="49.77039" lon="4.71097">
        <ele>165.6</ele>
        <time>2020-06-25T09:14:01Z</time>
      </trkpt>
      <trkpt lat="49.77037" lon="4.71097">
        <ele>165.5</ele>
        <time>2020-06-25T09:14:02Z</time>
      </trkpt>
      <trkpt lat="49.77035" lon="4.71099">
        <ele>165.4</ele>
        <time>2020-06-25T09:14:03Z</time>
      </trkpt>
      <trkpt lat="49.77035" lon="4.711">
        <ele>165.3</ele>
        <time>2020-06-25T09:14:04Z</time>
      </trkpt>
      <trkpt lat="49.77035" lon="4.71101">
        <ele>165.3</ele>
        <time>2020-06-25T09:14:05Z</time>
      </trkpt>
      <trkpt lat="49.77036" lon="4.71101">
        <ele>165.3</ele>
        <time>2020-06-25T09:14:06Z</time>
      </trkpt>
      <trkpt lat="49.77035" lon="4.711">
        <ele>165.3</ele>
        <time>2020-06-25T09:14:07Z</time>
      </trkpt>
      <trkpt lat="49.77036" lon="4.71101">
        <ele>165.2</ele>
        <time>2020-06-25T09:14:08Z</time>
      </trkpt>
      <trkpt lat="49.77036" lon="4.711">
        <ele>165.2</ele>
        <time>2020-06-25T09:14:09Z</time>
      </trkpt>
      <trkpt lat="49.77036" lon="4.71101">
        <ele>165.1</ele>
        <time>2020-06-25T09:14:10Z</time>
      </trkpt>
      <trkpt lat="49.77036" lon="4.71101">
        <ele>165.1</ele>
        <time>2020-06-25T09:14:11Z</time>
      </trkpt>
      <trkpt lat="49.77037" lon="4.71102">
        <ele>165.1</ele>
        <time>2020-06-25T09:14:12Z</time>
      </trkpt>
      <trkpt lat="49.77038" lon="4.71102">
        <ele>165</ele>
        <time>2020-06-25T09:14:13Z</time>
      </trkpt>
      <trkpt lat="49.77037" lon="4.71103">
        <ele>165</ele>
        <time>2020-06-25T09:14:14Z</time>
      </trkpt>
      <trkpt lat="49.77038" lon="4.71103">
        <ele>165</ele>
        <time>2020-06-25T09:14:15Z</time>
      </trkpt>
      <trkpt lat="49.77038" lon="4.71104">
        <ele>164.9</ele>
        <time>2020-06-25T09:14:16Z</time>
      </trkpt>
      <trkpt lat="49.77038" lon="4.71104">
        <ele>164.9</ele>
        <time>2020-06-25T09:14:17Z</time>
      </trkpt>
      <trkpt lat="49.77038" lon="4.71105">
        <ele>164.9</ele>
        <time>2020-06-25T09:14:18Z</time>
      </trkpt>
      <trkpt lat="49.77038" lon="4.71105">
        <ele>164.9</ele>
        <time>2020-06-25T09:14:19Z</time>
      </trkpt>
      <trkpt lat="49.77038" lon="4.71105">
        <ele>164.9</ele>
        <time>2020-06-25T09:14:20Z</time>
      </trkpt>
      <trkpt lat="49.77038" lon="4.71105">
        <ele>164.9</ele>
        <time>2020-06-25T09:14:21Z</time>
      </trkpt>
      <trkpt lat="49.77038" lon="4.71106">
        <ele>164.8</ele>
        <time>2020-06-25T09:14:22Z</time>
      </trkpt>
      <trkpt lat="49.77038" lon="4.71106">
        <ele>164.8</ele>
        <time>2020-06-25T09:14:23Z</time>
      </trkpt>
      <trkpt lat="49.77031" lon="4.7112">
        <ele>164.4</ele>
        <time>2020-06-25T09:15:05Z</time>
      </trkpt>
      <trkpt lat="49.77031" lon="4.71124">
        <ele>164.2</ele>
        <time>2020-06-25T09:15:06Z</time>
      </trkpt>
      <trkpt lat="49.77031" lon="4.71129">
        <ele>164</ele>
        <time>2020-06-25T09:15:07Z</time>
      </trkpt>
      <trkpt lat="49.77031" lon="4.71134">
        <ele>163.9</ele>
        <time>2020-06-25T09:15:08Z</time>
      </trkpt>
      <trkpt lat="49.77031" lon="4.71135">
        <ele>163.8</ele>
        <time>2020-06-25T09:15:09Z</time>
      </trkpt>
      <trkpt lat="49.77031" lon="4.7114">
        <ele>163.7</ele>
        <time>2020-06-25T09:15:10Z</time>
      </trkpt>
      <trkpt lat="49.77031" lon="4.71142">
        <ele>163.6</ele>
        <time>2020-06-25T09:15:11Z</time>
      </trkpt>
      <trkpt lat="49.77028" lon="4.71144">
        <ele>163.4</ele>
        <time>2020-06-25T09:15:12Z</time>
      </trkpt>
      <trkpt lat="49.77026" lon="4.71149">
        <ele>163.3</ele>
        <time>2020-06-25T09:15:13Z</time>
      </trkpt>
      <trkpt lat="49.77025" lon="4.71154">
        <ele>163.1</ele>
        <time>2020-06-25T09:15:14Z</time>
      </trkpt>
      <trkpt lat="49.77023" lon="4.7116">
        <ele>162.5</ele>
        <time>2020-06-25T09:15:15Z</time>
      </trkpt>
      <trkpt lat="49.7702" lon="4.71167">
        <ele>162.4</ele>
        <time>2020-06-25T09:15:16Z</time>
      </trkpt>
      <trkpt lat="49.77017" lon="4.71174">
        <ele>162.3</ele>
        <time>2020-06-25T09:15:17Z</time>
      </trkpt>
      <trkpt lat="49.77014" lon="4.7118">
        <ele>162.2</ele>
        <time>2020-06-25T09:15:18Z</time>
      </trkpt>
      <trkpt lat="49.77011" lon="4.71188">
        <ele>162.1</ele>
        <time>2020-06-25T09:15:19Z</time>
      </trkpt>
      <trkpt lat="49.77008" lon="4.71195">
        <ele>162</ele>
        <time>2020-06-25T09:15:20Z</time>
      </trkpt>
      <trkpt lat="49.77005" lon="4.71202">
        <ele>162</ele>
        <time>2020-06-25T09:15:21Z</time>
      </trkpt>
      <trkpt lat="49.77001" lon="4.7121">
        <ele>161.9</ele>
        <time>2020-06-25T09:15:22Z</time>
      </trkpt>
      <trkpt lat="49.76998" lon="4.71218">
        <ele>161.6</ele>
        <time>2020-06-25T09:15:23Z</time>
      </trkpt>
      <trkpt lat="49.76993" lon="4.71225">
        <ele>161.3</ele>
        <time>2020-06-25T09:15:24Z</time>
      </trkpt>
      <trkpt lat="49.76989" lon="4.71233">
        <ele>161</ele>
        <time>2020-06-25T09:15:25Z</time>
      </trkpt>
      <trkpt lat="49.76985" lon="4.71241">
        <ele>160.7</ele>
        <time>2020-06-25T09:15:26Z</time>
      </trkpt>
      <trkpt lat="49.76981" lon="4.71249">
        <ele>160.5</ele>
        <time>2020-06-25T09:15:27Z</time>
      </trkpt>
      <trkpt lat="49.76977" lon="4.71258">
        <ele>160.1</ele>
        <time>2020-06-25T09:15:28Z</time>
      </trkpt>
      <trkpt lat="49.76973" lon="4.71267">
        <ele>159.7</ele>
        <time>2020-06-25T09:15:29Z</time>
      </trkpt>
      <trkpt lat="49.76968" lon="4.71277">
        <ele>159.3</ele>
        <time>2020-06-25T09:15:30Z</time>
      </trkpt>
      <trkpt lat="49.76963" lon="4.71287">
        <ele>158.8</ele>
        <time>2020-06-25T09:15:31Z</time>
      </trkpt>
      <trkpt lat="49.76958" lon="4.71296">
        <ele>158.4</ele>
        <time>2020-06-25T09:15:32Z</time>
      </trkpt>
      <trkpt lat="49.76954" lon="4.71306">
        <ele>158</ele>
        <time>2020-06-25T09:15:33Z</time>
      </trkpt>
      <trkpt lat="49.7695" lon="4.71315">
        <ele>157.6</ele>
        <time>2020-06-25T09:15:34Z</time>
      </trkpt>
      <trkpt lat="49.76946" lon="4.71323">
        <ele>157.3</ele>
        <time>2020-06-25T09:15:35Z</time>
      </trkpt>
      <trkpt lat="49.76942" lon="4.71331">
        <ele>157</ele>
        <time>2020-06-25T09:15:36Z</time>
      </trkpt>
      <trkpt lat="49.76938" lon="4.7134">
        <ele>156.6</ele>
        <time>2020-06-25T09:15:37Z</time>
      </trkpt>
      <trkpt lat="49.76935" lon="4.71348">
        <ele>156.4</ele>
        <time>2020-06-25T09:15:38Z</time>
      </trkpt>
      <trkpt lat="49.76931" lon="4.71355">
        <ele>156.1</ele>
        <time>2020-06-25T09:15:39Z</time>
      </trkpt>
      <trkpt lat="49.76929" lon="4.71361">
        <ele>155.9</ele>
        <time>2020-06-25T09:15:40Z</time>
      </trkpt>
      <trkpt lat="49.76925" lon="4.71369">
        <ele>155.6</ele>
        <time>2020-06-25T09:15:41Z</time>
      </trkpt>
      <trkpt lat="49.76922" lon="4.71375">
        <ele>155.3</ele>
        <time>2020-06-25T09:15:42Z</time>
      </trkpt>
      <trkpt lat="49.76918" lon="4.71383">
        <ele>155</ele>
        <time>2020-06-25T09:15:43Z</time>
      </trkpt>
      <trkpt lat="49.76915" lon="4.7139">
        <ele>154.7</ele>
        <time>2020-06-25T09:15:44Z</time>
      </trkpt>
      <trkpt lat="49.76911" lon="4.71398">
        <ele>154.4</ele>
        <time>2020-06-25T09:15:45Z</time>
      </trkpt>
      <trkpt lat="49.76908" lon="4.71404">
        <ele>154.1</ele>
        <time>2020-06-25T09:15:46Z</time>
      </trkpt>
      <trkpt lat="49.76905" lon="4.71412">
        <ele>153.8</ele>
        <time>2020-06-25T09:15:47Z</time>
      </trkpt>
      <trkpt lat="49.769" lon="4.71418">
        <ele>153.6</ele>
        <time>2020-06-25T09:15:48Z</time>
      </trkpt>
      <trkpt lat="49.76896" lon="4.71427">
        <ele>153.4</ele>
        <time>2020-06-25T09:15:49Z</time>
      </trkpt>
      <trkpt lat="49.76892" lon="4.71433">
        <ele>153.3</ele>
        <time>2020-06-25T09:15:50Z</time>
      </trkpt>
      <trkpt lat="49.76888" lon="4.71442">
        <ele>153.1</ele>
        <time>2020-06-25T09:15:51Z</time>
      </trkpt>
      <trkpt lat="49.76884" lon="4.7145">
        <ele>153</ele>
        <time>2020-06-25T09:15:52Z</time>
      </trkpt>
      <trkpt lat="49.7688" lon="4.71458">
        <ele>153</ele>
        <time>2020-06-25T09:15:53Z</time>
      </trkpt>
      <trkpt lat="49.76876" lon="4.71466">
        <ele>152.9</ele>
        <time>2020-06-25T09:15:54Z</time>
      </trkpt>
      <trkpt lat="49.76872" lon="4.71472">
        <ele>152.9</ele>
        <time>2020-06-25T09:15:55Z</time>
      </trkpt>
      <trkpt lat="49.76869" lon="4.71478">
        <ele>152.9</ele>
        <time>2020-06-25T09:15:56Z</time>
      </trkpt>
      <trkpt lat="49.76867" lon="4.71483">
        <ele>152.8</ele>
        <time>2020-06-25T09:15:57Z</time>
      </trkpt>
      <trkpt lat="49.76865" lon="4.71488">
        <ele>152.8</ele>
        <time>2020-06-25T09:15:58Z</time>
      </trkpt>
      <trkpt lat="49.76863" lon="4.71493">
        <ele>152.7</ele>
        <time>2020-06-25T09:15:59Z</time>
      </trkpt>
      <trkpt lat="49.76862" lon="4.71494">
        <ele>152.7</ele>
        <time>2020-06-25T09:16:00Z</time>
      </trkpt>
      <trkpt lat="49.76859" lon="4.71497">
        <ele>152.6</ele>
        <time>2020-06-25T09:16:01Z</time>
      </trkpt>
      <trkpt lat="49.76858" lon="4.71498">
        <ele>152.6</ele>
        <time>2020-06-25T09:16:02Z</time>
      </trkpt>
      <trkpt lat="49.76857" lon="4.71499">
        <ele>152.5</ele>
        <time>2020-06-25T09:16:03Z</time>
      </trkpt>
      <trkpt lat="49.76857" lon="4.715">
        <ele>152.5</ele>
        <time>2020-06-25T09:16:04Z</time>
      </trkpt>
      <trkpt lat="49.76855" lon="4.71502">
        <ele>152.5</ele>
        <time>2020-06-25T09:16:05Z</time>
      </trkpt>
      <trkpt lat="49.76855" lon="4.71503">
        <ele>152.4</ele>
        <time>2020-06-25T09:16:06Z</time>
      </trkpt>
      <trkpt lat="49.76854" lon="4.71504">
        <ele>152.4</ele>
        <time>2020-06-25T09:16:07Z</time>
      </trkpt>
      <trkpt lat="49.76852" lon="4.71509">
        <ele>152.3</ele>
        <time>2020-06-25T09:16:08Z</time>
      </trkpt>
      <trkpt lat="49.76851" lon="4.71511">
        <ele>152.3</ele>
        <time>2020-06-25T09:16:09Z</time>
      </trkpt>
      <trkpt lat="49.7685" lon="4.71514">
        <ele>152.3</ele>
        <time>2020-06-25T09:16:10Z</time>
      </trkpt>
      <trkpt lat="49.76848" lon="4.71519">
        <ele>152.2</ele>
        <time>2020-06-25T09:16:11Z</time>
      </trkpt>
      <trkpt lat="49.76846" lon="4.71524">
        <ele>152.2</ele>
        <time>2020-06-25T09:16:12Z</time>
      </trkpt>
      <trkpt lat="49.76843" lon="4.71532">
        <ele>152.2</ele>
        <time>2020-06-25T09:16:13Z</time>
      </trkpt>
      <trkpt lat="49.7684" lon="4.71538">
        <ele>152.2</ele>
        <time>2020-06-25T09:16:14Z</time>
      </trkpt>
      <trkpt lat="49.76836" lon="4.71545">
        <ele>152.2</ele>
        <time>2020-06-25T09:16:15Z</time>
      </trkpt>
      <trkpt lat="49.76833" lon="4.71551">
        <ele>152.3</ele>
        <time>2020-06-25T09:16:16Z</time>
      </trkpt>
      <trkpt lat="49.7683" lon="4.71557">
        <ele>152.3</ele>
        <time>2020-06-25T09:16:17Z</time>
      </trkpt>
      <trkpt lat="49.76827" lon="4.71564">
        <ele>152.4</ele>
        <time>2020-06-25T09:16:18Z</time>
      </trkpt>
      <trkpt lat="49.76824" lon="4.7157">
        <ele>152.4</ele>
        <time>2020-06-25T09:16:19Z</time>
      </trkpt>
      <trkpt lat="49.7682" lon="4.71577">
        <ele>152.2</ele>
        <time>2020-06-25T09:16:20Z</time>
      </trkpt>
      <trkpt lat="49.76817" lon="4.71584">
        <ele>151.9</ele>
        <time>2020-06-25T09:16:21Z</time>
      </trkpt>
      <trkpt lat="49.76813" lon="4.71591">
        <ele>151.7</ele>
        <time>2020-06-25T09:16:22Z</time>
      </trkpt>
      <trkpt lat="49.76809" lon="4.71599">
        <ele>151.5</ele>
        <time>2020-06-25T09:16:23Z</time>
      </trkpt>
      <trkpt lat="49.76806" lon="4.71605">
        <ele>151.3</ele>
        <time>2020-06-25T09:16:24Z</time>
      </trkpt>
      <trkpt lat="49.76803" lon="4.71614">
        <ele>151</ele>
        <time>2020-06-25T09:16:25Z</time>
      </trkpt>
      <trkpt lat="49.76799" lon="4.71622">
        <ele>150.8</ele>
        <time>2020-06-25T09:16:26Z</time>
      </trkpt>
      <trkpt lat="49.76796" lon="4.7163">
        <ele>150.6</ele>
        <time>2020-06-25T09:16:27Z</time>
      </trkpt>
      <trkpt lat="49.76792" lon="4.71637">
        <ele>150.4</ele>
        <time>2020-06-25T09:16:28Z</time>
      </trkpt>
      <trkpt lat="49.76789" lon="4.71645">
        <ele>150.1</ele>
        <time>2020-06-25T09:16:29Z</time>
      </trkpt>
      <trkpt lat="49.76784" lon="4.71653">
        <ele>149.9</ele>
        <time>2020-06-25T09:16:30Z</time>
      </trkpt>
      <trkpt lat="49.76779" lon="4.71661">
        <ele>149.7</ele>
        <time>2020-06-25T09:16:31Z</time>
      </trkpt>
      <trkpt lat="49.76776" lon="4.71667">
        <ele>149.5</ele>
        <time>2020-06-25T09:16:32Z</time>
      </trkpt>
      <trkpt lat="49.76772" lon="4.71674">
        <ele>149.4</ele>
        <time>2020-06-25T09:16:33Z</time>
      </trkpt>
      <trkpt lat="49.76769" lon="4.71681">
        <ele>149.3</ele>
        <time>2020-06-25T09:16:34Z</time>
      </trkpt>
      <trkpt lat="49.76767" lon="4.71688">
        <ele>149.2</ele>
        <time>2020-06-25T09:16:35Z</time>
      </trkpt>
      <trkpt lat="49.76763" lon="4.71695">
        <ele>149</ele>
        <time>2020-06-25T09:16:36Z</time>
      </trkpt>
      <trkpt lat="49.7676" lon="4.71701">
        <ele>148.9</ele>
        <time>2020-06-25T09:16:37Z</time>
      </trkpt>
      <trkpt lat="49.76757" lon="4.71708">
        <ele>148.8</ele>
        <time>2020-06-25T09:16:38Z</time>
      </trkpt>
      <trkpt lat="49.76752" lon="4.71716">
        <ele>148.6</ele>
        <time>2020-06-25T09:16:39Z</time>
      </trkpt>
      <trkpt lat="49.76748" lon="4.71723">
        <ele>148.5</ele>
        <time>2020-06-25T09:16:40Z</time>
      </trkpt>
      <trkpt lat="49.76744" lon="4.7173">
        <ele>148.3</ele>
        <time>2020-06-25T09:16:41Z</time>
      </trkpt>
      <trkpt lat="49.7674" lon="4.71737">
        <ele>148.2</ele>
        <time>2020-06-25T09:16:42Z</time>
      </trkpt>
      <trkpt lat="49.76737" lon="4.71743">
        <ele>148.1</ele>
        <time>2020-06-25T09:16:43Z</time>
      </trkpt>
      <trkpt lat="49.76733" lon="4.7175">
        <ele>148</ele>
        <time>2020-06-25T09:16:44Z</time>
      </trkpt>
      <trkpt lat="49.7673" lon="4.71758">
        <ele>147.9</ele>
        <time>2020-06-25T09:16:45Z</time>
      </trkpt>
      <trkpt lat="49.76727" lon="4.71764">
        <ele>147.8</ele>
        <time>2020-06-25T09:16:46Z</time>
      </trkpt>
      <trkpt lat="49.76723" lon="4.71771">
        <ele>147.7</ele>
        <time>2020-06-25T09:16:47Z</time>
      </trkpt>
      <trkpt lat="49.76719" lon="4.71779">
        <ele>147.6</ele>
        <time>2020-06-25T09:16:48Z</time>
      </trkpt>
      <trkpt lat="49.76715" lon="4.71786">
        <ele>147.6</ele>
        <time>2020-06-25T09:16:49Z</time>
      </trkpt>
      <trkpt lat="49.76711" lon="4.71794">
        <ele>147.5</ele>
        <time>2020-06-25T09:16:50Z</time>
      </trkpt>
      <trkpt lat="49.76708" lon="4.718">
        <ele>147.5</ele>
        <time>2020-06-25T09:16:51Z</time>
      </trkpt>
      <trkpt lat="49.76705" lon="4.71807">
        <ele>147.4</ele>
        <time>2020-06-25T09:16:52Z</time>
      </trkpt>
      <trkpt lat="49.76702" lon="4.71814">
        <ele>147.4</ele>
        <time>2020-06-25T09:16:53Z</time>
      </trkpt>
      <trkpt lat="49.76698" lon="4.71821">
        <ele>147.3</ele>
        <time>2020-06-25T09:16:54Z</time>
      </trkpt>
      <trkpt lat="49.76694" lon="4.71829">
        <ele>147.3</ele>
        <time>2020-06-25T09:16:55Z</time>
      </trkpt>
      <trkpt lat="49.76692" lon="4.71837">
        <ele>147.2</ele>
        <time>2020-06-25T09:16:56Z</time>
      </trkpt>
      <trkpt lat="49.76689" lon="4.71845">
        <ele>147.2</ele>
        <time>2020-06-25T09:16:57Z</time>
      </trkpt>
      <trkpt lat="49.76686" lon="4.71853">
        <ele>147.2</ele>
        <time>2020-06-25T09:16:58Z</time>
      </trkpt>
      <trkpt lat="49.76684" lon="4.7186">
        <ele>147.2</ele>
        <time>2020-06-25T09:16:59Z</time>
      </trkpt>
      <trkpt lat="49.76681" lon="4.71867">
        <ele>147.3</ele>
        <time>2020-06-25T09:17:00Z</time>
      </trkpt>
      <trkpt lat="49.76678" lon="4.71873">
        <ele>147.3</ele>
        <time>2020-06-25T09:17:01Z</time>
      </trkpt>
      <trkpt lat="49.76675" lon="4.71881">
        <ele>147.3</ele>
        <time>2020-06-25T09:17:02Z</time>
      </trkpt>
      <trkpt lat="49.76673" lon="4.71886">
        <ele>147.3</ele>
        <time>2020-06-25T09:17:03Z</time>
      </trkpt>
      <trkpt lat="49.76671" lon="4.71891">
        <ele>147.3</ele>
        <time>2020-06-25T09:17:04Z</time>
      </trkpt>
      <trkpt lat="49.7667" lon="4.71896">
        <ele>147.3</ele>
        <time>2020-06-25T09:17:05Z</time>
      </trkpt>
      <trkpt lat="49.76667" lon="4.71902">
        <ele>147.3</ele>
        <time>2020-06-25T09:17:06Z</time>
      </trkpt>
      <trkpt lat="49.76666" lon="4.71907">
        <ele>147.3</ele>
        <time>2020-06-25T09:17:07Z</time>
      </trkpt>
      <trkpt lat="49.76663" lon="4.71912">
        <ele>147.3</ele>
        <time>2020-06-25T09:17:08Z</time>
      </trkpt>
      <trkpt lat="49.76661" lon="4.71917">
        <ele>147.2</ele>
        <time>2020-06-25T09:17:09Z</time>
      </trkpt>
      <trkpt lat="49.76659" lon="4.71922">
        <ele>147.2</ele>
        <time>2020-06-25T09:17:10Z</time>
      </trkpt>
      <trkpt lat="49.76658" lon="4.71924">
        <ele>147.2</ele>
        <time>2020-06-25T09:17:11Z</time>
      </trkpt>
      <trkpt lat="49.76657" lon="4.71926">
        <ele>147.2</ele>
        <time>2020-06-25T09:17:12Z</time>
      </trkpt>
      <trkpt lat="49.76656" lon="4.71926">
        <ele>147.2</ele>
        <time>2020-06-25T09:17:13Z</time>
      </trkpt>
      <trkpt lat="49.76656" lon="4.71926">
        <ele>147.2</ele>
        <time>2020-06-25T09:17:14Z</time>
      </trkpt>
      <trkpt lat="49.76656" lon="4.71927">
        <ele>147.2</ele>
        <time>2020-06-25T09:17:15Z</time>
      </trkpt>
      <trkpt lat="49.76656" lon="4.71927">
        <ele>147.2</ele>
        <time>2020-06-25T09:17:16Z</time>
      </trkpt>
      <trkpt lat="49.76656" lon="4.71926">
        <ele>147.2</ele>
        <time>2020-06-25T09:17:17Z</time>
      </trkpt>
      <trkpt lat="49.76656" lon="4.71926">
        <ele>147.2</ele>
        <time>2020-06-25T09:17:18Z</time>
      </trkpt>
      <trkpt lat="49.76656" lon="4.71926">
        <ele>147.2</ele>
        <time>2020-06-25T09:17:19Z</time>
      </trkpt>
      <trkpt lat="49.76656" lon="4.71926">
        <ele>147.2</ele>
        <time>2020-06-25T09:17:20Z</time>
      </trkpt>
      <trkpt lat="49.76656" lon="4.71924">
        <ele>147.2</ele>
        <time>2020-06-25T09:17:21Z</time>
      </trkpt>
      <trkpt lat="49.76656" lon="4.71924">
        <ele>147.2</ele>
        <time>2020-06-25T09:17:22Z</time>
      </trkpt>
      <trkpt lat="49.76656" lon="4.71924">
        <ele>147.2</ele>
        <time>2020-06-25T09:17:23Z</time>
      </trkpt>
      <trkpt lat="49.76655" lon="4.71925">
        <ele>147.2</ele>
        <time>2020-06-25T09:17:24Z</time>
      </trkpt>
      <trkpt lat="49.76654" lon="4.71925">
        <ele>147.2</ele>
        <time>2020-06-25T09:17:25Z</time>
      </trkpt>
      <trkpt lat="49.76653" lon="4.71927">
        <ele>147.2</ele>
        <time>2020-06-25T09:17:26Z</time>
      </trkpt>
      <trkpt lat="49.76651" lon="4.71928">
        <ele>147.2</ele>
        <time>2020-06-25T09:17:27Z</time>
      </trkpt>
      <trkpt lat="49.76651" lon="4.71928">
        <ele>147.2</ele>
        <time>2020-06-25T09:17:28Z</time>
      </trkpt>
      <trkpt lat="49.76649" lon="4.71929">
        <ele>147.2</ele>
        <time>2020-06-25T09:17:29Z</time>
      </trkpt>
      <trkpt lat="49.76649" lon="4.7193">
        <ele>147.2</ele>
        <time>2020-06-25T09:17:30Z</time>
      </trkpt>
      <trkpt lat="49.76647" lon="4.7193">
        <ele>147.1</ele>
        <time>2020-06-25T09:17:31Z</time>
      </trkpt>
      <trkpt lat="49.76646" lon="4.71929">
        <ele>147.1</ele>
        <time>2020-06-25T09:17:32Z</time>
      </trkpt>
      <trkpt lat="49.76646" lon="4.7193">
        <ele>147.1</ele>
        <time>2020-06-25T09:17:33Z</time>
      </trkpt>
      <trkpt lat="49.76646" lon="4.71929">
        <ele>147.1</ele>
        <time>2020-06-25T09:17:34Z</time>
      </trkpt>
      <trkpt lat="49.76645" lon="4.7193">
        <ele>147.1</ele>
        <time>2020-06-25T09:17:35Z</time>
      </trkpt>
      <trkpt lat="49.76645" lon="4.7193">
        <ele>147.1</ele>
        <time>2020-06-25T09:17:36Z</time>
      </trkpt>
      <trkpt lat="49.76645" lon="4.7193">
        <ele>147.1</ele>
        <time>2020-06-25T09:17:37Z</time>
      </trkpt>
      <trkpt lat="49.76646" lon="4.7193">
        <ele>147.1</ele>
        <time>2020-06-25T09:17:38Z</time>
      </trkpt>
      <trkpt lat="49.76647" lon="4.71929">
        <ele>147.1</ele>
        <time>2020-06-25T09:17:39Z</time>
      </trkpt>
      <trkpt lat="49.76648" lon="4.71927">
        <ele>147</ele>
        <time>2020-06-25T09:17:40Z</time>
      </trkpt>
      <trkpt lat="49.76649" lon="4.71925">
        <ele>147.1</ele>
        <time>2020-06-25T09:17:41Z</time>
      </trkpt>
      <trkpt lat="49.76651" lon="4.71924">
        <ele>147.1</ele>
        <time>2020-06-25T09:17:42Z</time>
      </trkpt>
      <trkpt lat="49.76652" lon="4.71922">
        <ele>147.1</ele>
        <time>2020-06-25T09:17:43Z</time>
      </trkpt>
      <trkpt lat="49.76653" lon="4.71921">
        <ele>147.1</ele>
        <time>2020-06-25T09:17:44Z</time>
      </trkpt>
      <trkpt lat="49.76653" lon="4.7192">
        <ele>147.2</ele>
        <time>2020-06-25T09:17:45Z</time>
      </trkpt>
      <trkpt lat="49.76654" lon="4.71919">
        <ele>147.2</ele>
        <time>2020-06-25T09:17:46Z</time>
      </trkpt>
      <trkpt lat="49.76654" lon="4.71919">
        <ele>147.2</ele>
        <time>2020-06-25T09:17:47Z</time>
      </trkpt>
      <trkpt lat="49.76655" lon="4.71918">
        <ele>147.2</ele>
        <time>2020-06-25T09:17:48Z</time>
      </trkpt>
      <trkpt lat="49.76657" lon="4.71915">
        <ele>147.2</ele>
        <time>2020-06-25T09:17:49Z</time>
      </trkpt>
      <trkpt lat="49.76658" lon="4.71914">
        <ele>147.2</ele>
        <time>2020-06-25T09:17:50Z</time>
      </trkpt>
      <trkpt lat="49.76659" lon="4.71912">
        <ele>147.2</ele>
        <time>2020-06-25T09:17:51Z</time>
      </trkpt>
      <trkpt lat="49.7666" lon="4.7191">
        <ele>147.2</ele>
        <time>2020-06-25T09:17:52Z</time>
      </trkpt>
      <trkpt lat="49.76662" lon="4.71907">
        <ele>147.2</ele>
        <time>2020-06-25T09:17:53Z</time>
      </trkpt>
      <trkpt lat="49.76662" lon="4.71906">
        <ele>147.2</ele>
        <time>2020-06-25T09:17:54Z</time>
      </trkpt>
      <trkpt lat="49.76663" lon="4.71904">
        <ele>147.2</ele>
        <time>2020-06-25T09:17:55Z</time>
      </trkpt>
      <trkpt lat="49.76664" lon="4.71902">
        <ele>147.3</ele>
        <time>2020-06-25T09:17:56Z</time>
      </trkpt>
      <trkpt lat="49.76665" lon="4.71901">
        <ele>147.3</ele>
        <time>2020-06-25T09:17:57Z</time>
      </trkpt>
      <trkpt lat="49.76666" lon="4.719">
        <ele>147.3</ele>
        <time>2020-06-25T09:17:58Z</time>
      </trkpt>
      <trkpt lat="49.76668" lon="4.71898">
        <ele>147.3</ele>
        <time>2020-06-25T09:17:59Z</time>
      </trkpt>
      <trkpt lat="49.7667" lon="4.71897">
        <ele>147.3</ele>
        <time>2020-06-25T09:18:00Z</time>
      </trkpt>
      <trkpt lat="49.76671" lon="4.71895">
        <ele>147.3</ele>
        <time>2020-06-25T09:18:01Z</time>
      </trkpt>
      <trkpt lat="49.76673" lon="4.71892">
        <ele>147.3</ele>
        <time>2020-06-25T09:18:02Z</time>
      </trkpt>
      <trkpt lat="49.76673" lon="4.7189">
        <ele>147.3</ele>
        <time>2020-06-25T09:18:03Z</time>
      </trkpt>
      <trkpt lat="49.76675" lon="4.71885">
        <ele>147.3</ele>
        <time>2020-06-25T09:18:04Z</time>
      </trkpt>
      <trkpt lat="49.76675" lon="4.71883">
        <ele>147.3</ele>
        <time>2020-06-25T09:18:05Z</time>
      </trkpt>
      <trkpt lat="49.76676" lon="4.7188">
        <ele>147.3</ele>
        <time>2020-06-25T09:18:06Z</time>
      </trkpt>
      <trkpt lat="49.76677" lon="4.71878">
        <ele>147.4</ele>
        <time>2020-06-25T09:18:07Z</time>
      </trkpt>
      <trkpt lat="49.76677" lon="4.71876">
        <ele>147.4</ele>
        <time>2020-06-25T09:18:08Z</time>
      </trkpt>
      <trkpt lat="49.76678" lon="4.71874">
        <ele>147.4</ele>
        <time>2020-06-25T09:18:09Z</time>
      </trkpt>
      <trkpt lat="49.76678" lon="4.71872">
        <ele>147.5</ele>
        <time>2020-06-25T09:18:10Z</time>
      </trkpt>
      <trkpt lat="49.76679" lon="4.7187">
        <ele>147.5</ele>
        <time>2020-06-25T09:18:11Z</time>
      </trkpt>
      <trkpt lat="49.76679" lon="4.7187">
        <ele>147.5</ele>
        <time>2020-06-25T09:18:12Z</time>
      </trkpt>
      <trkpt lat="49.76679" lon="4.71871">
        <ele>147.5</ele>
        <time>2020-06-25T09:18:13Z</time>
      </trkpt>
      <trkpt lat="49.76679" lon="4.71871">
        <ele>147.5</ele>
        <time>2020-06-25T09:18:14Z</time>
      </trkpt>
      <trkpt lat="49.7668" lon="4.71871">
        <ele>147.5</ele>
        <time>2020-06-25T09:18:15Z</time>
      </trkpt>
      <trkpt lat="49.7668" lon="4.71872">
        <ele>147.5</ele>
        <time>2020-06-25T09:18:16Z</time>
      </trkpt>
      <trkpt lat="49.7668" lon="4.71871">
        <ele>147.6</ele>
        <time>2020-06-25T09:18:17Z</time>
      </trkpt>
      <trkpt lat="49.7668" lon="4.71871">
        <ele>147.6</ele>
        <time>2020-06-25T09:18:18Z</time>
      </trkpt>
      <trkpt lat="49.7668" lon="4.71872">
        <ele>147.6</ele>
        <time>2020-06-25T09:18:19Z</time>
      </trkpt>
      <trkpt lat="49.76681" lon="4.71872">
        <ele>147.6</ele>
        <time>2020-06-25T09:18:20Z</time>
      </trkpt>
      <trkpt lat="49.76681" lon="4.71872">
        <ele>147.6</ele>
        <time>2020-06-25T09:18:21Z</time>
      </trkpt>
      <trkpt lat="49.76682" lon="4.71873">
        <ele>147.6</ele>
        <time>2020-06-25T09:18:22Z</time>
      </trkpt>
      <trkpt lat="49.76682" lon="4.71873">
        <ele>147.6</ele>
        <time>2020-06-25T09:18:23Z</time>
      </trkpt>
      <trkpt lat="49.76682" lon="4.71873">
        <ele>147.6</ele>
        <time>2020-06-25T09:18:24Z</time>
      </trkpt>
      <trkpt lat="49.76682" lon="4.71873">
        <ele>147.6</ele>
        <time>2020-06-25T09:18:25Z</time>
      </trkpt>
      <trkpt lat="49.76682" lon="4.71873">
        <ele>147.6</ele>
        <time>2020-06-25T09:18:26Z</time>
      </trkpt>
      <trkpt lat="49.76682" lon="4.71873">
        <ele>147.6</ele>
        <time>2020-06-25T09:18:27Z</time>
      </trkpt>
      <trkpt lat="49.76682" lon="4.71873">
        <ele>147.6</ele>
        <time>2020-06-25T09:18:28Z</time>
      </trkpt>
      <trkpt lat="49.76682" lon="4.71873">
        <ele>147.6</ele>
        <time>2020-06-25T09:18:29Z</time>
      </trkpt>
      <trkpt lat="49.76682" lon="4.71873">
        <ele>147.6</ele>
        <time>2020-06-25T09:18:30Z</time>
      </trkpt>
      <trkpt lat="49.76682" lon="4.71873">
        <ele>147.6</ele>
        <time>2020-06-25T09:18:31Z</time>
      </trkpt>
      <trkpt lat="49.76676" lon="4.71871">
        <ele>147.8</ele>
        <time>2020-06-25T09:23:21Z</time>
      </trkpt>
      <trkpt lat="49.76675" lon="4.7187">
        <ele>147.8</ele>
        <time>2020-06-25T09:23:22Z</time>
      </trkpt>
      <trkpt lat="49.76675" lon="4.71871">
        <ele>147.8</ele>
        <time>2020-06-25T09:23:23Z</time>
      </trkpt>
      <trkpt lat="49.76675" lon="4.71871">
        <ele>147.8</ele>
        <time>2020-06-25T09:23:24Z</time>
      </trkpt>
      <trkpt lat="49.76675" lon="4.71871">
        <ele>147.8</ele>
        <time>2020-06-25T09:23:25Z</time>
      </trkpt>
      <trkpt lat="49.76675" lon="4.71873">
        <ele>147.8</ele>
        <time>2020-06-25T09:23:26Z</time>
      </trkpt>
      <trkpt lat="49.76675" lon="4.71873">
        <ele>147.8</ele>
        <time>2020-06-25T09:23:27Z</time>
      </trkpt>
      <trkpt lat="49.76676" lon="4.71875">
        <ele>147.9</ele>
        <time>2020-06-25T09:23:28Z</time>
      </trkpt>
      <trkpt lat="49.76676" lon="4.71875">
        <ele>147.9</ele>
        <time>2020-06-25T09:23:29Z</time>
      </trkpt>
      <trkpt lat="49.76676" lon="4.71875">
        <ele>147.9</ele>
        <time>2020-06-25T09:23:30Z</time>
      </trkpt>
      <trkpt lat="49.76676" lon="4.71875">
        <ele>147.9</ele>
        <time>2020-06-25T09:23:31Z</time>
      </trkpt>
      <trkpt lat="49.76677" lon="4.71875">
        <ele>147.9</ele>
        <time>2020-06-25T09:23:32Z</time>
      </trkpt>
      <trkpt lat="49.76677" lon="4.71876">
        <ele>147.9</ele>
        <time>2020-06-25T09:23:33Z</time>
      </trkpt>
      <trkpt lat="49.76677" lon="4.71876">
        <ele>147.9</ele>
        <time>2020-06-25T09:23:34Z</time>
      </trkpt>
      <trkpt lat="49.76678" lon="4.71875">
        <ele>147.9</ele>
        <time>2020-06-25T09:23:35Z</time>
      </trkpt>
      <trkpt lat="49.76678" lon="4.71876">
        <ele>147.9</ele>
        <time>2020-06-25T09:23:36Z</time>
      </trkpt>
      <trkpt lat="49.76678" lon="4.71877">
        <ele>148</ele>
        <time>2020-06-25T09:23:37Z</time>
      </trkpt>
      <trkpt lat="49.76679" lon="4.71877">
        <ele>148</ele>
        <time>2020-06-25T09:23:38Z</time>
      </trkpt>
      <trkpt lat="49.76679" lon="4.71878">
        <ele>148</ele>
        <time>2020-06-25T09:23:39Z</time>
      </trkpt>
      <trkpt lat="49.7668" lon="4.71879">
        <ele>148</ele>
        <time>2020-06-25T09:23:40Z</time>
      </trkpt>
      <trkpt lat="49.7668" lon="4.71879">
        <ele>148</ele>
        <time>2020-06-25T09:23:41Z</time>
      </trkpt>
      <trkpt lat="49.7668" lon="4.71878">
        <ele>148</ele>
        <time>2020-06-25T09:23:42Z</time>
      </trkpt>
      <trkpt lat="49.7668" lon="4.71877">
        <ele>148</ele>
        <time>2020-06-25T09:23:43Z</time>
      </trkpt>
      <trkpt lat="49.7668" lon="4.71877">
        <ele>148</ele>
        <time>2020-06-25T09:23:44Z</time>
      </trkpt>
      <trkpt lat="49.7668" lon="4.71876">
        <ele>148</ele>
        <time>2020-06-25T09:23:45Z</time>
      </trkpt>
      <trkpt lat="49.76681" lon="4.71876">
        <ele>148.1</ele>
        <time>2020-06-25T09:23:46Z</time>
      </trkpt>
      <trkpt lat="49.76681" lon="4.71877">
        <ele>148.1</ele>
        <time>2020-06-25T09:23:47Z</time>
      </trkpt>
      <trkpt lat="49.7668" lon="4.71877">
        <ele>148.1</ele>
        <time>2020-06-25T09:23:48Z</time>
      </trkpt>
      <trkpt lat="49.76681" lon="4.71877">
        <ele>148.1</ele>
        <time>2020-06-25T09:23:49Z</time>
      </trkpt>
      <trkpt lat="49.76681" lon="4.71878">
        <ele>148.1</ele>
        <time>2020-06-25T09:23:50Z</time>
      </trkpt>
      <trkpt lat="49.76682" lon="4.71879">
        <ele>148.1</ele>
        <time>2020-06-25T09:23:51Z</time>
      </trkpt>
      <trkpt lat="49.76682" lon="4.7188">
        <ele>148.1</ele>
        <time>2020-06-25T09:23:52Z</time>
      </trkpt>
      <trkpt lat="49.76682" lon="4.7188">
        <ele>148.1</ele>
        <time>2020-06-25T09:23:53Z</time>
      </trkpt>
      <trkpt lat="49.76682" lon="4.71881">
        <ele>148.1</ele>
        <time>2020-06-25T09:23:54Z</time>
      </trkpt>
      <trkpt lat="49.76682" lon="4.71882">
        <ele>148.2</ele>
        <time>2020-06-25T09:23:55Z</time>
      </trkpt>
      <trkpt lat="49.76682" lon="4.71882">
        <ele>148.2</ele>
        <time>2020-06-25T09:23:56Z</time>
      </trkpt>
      <trkpt lat="49.76682" lon="4.71884">
        <ele>148.2</ele>
        <time>2020-06-25T09:23:57Z</time>
      </trkpt>
      <trkpt lat="49.76682" lon="4.71885">
        <ele>148.2</ele>
        <time>2020-06-25T09:23:58Z</time>
      </trkpt>
      <trkpt lat="49.76682" lon="4.71885">
        <ele>148.2</ele>
        <time>2020-06-25T09:23:59Z</time>
      </trkpt>
      <trkpt lat="49.76682" lon="4.71886">
        <ele>148.2</ele>
        <time>2020-06-25T09:24:00Z</time>
      </trkpt>
      <trkpt lat="49.76682" lon="4.71886">
        <ele>148.2</ele>
        <time>2020-06-25T09:24:01Z</time>
      </trkpt>
      <trkpt lat="49.76682" lon="4.71889">
        <ele>148.3</ele>
        <time>2020-06-25T09:24:02Z</time>
      </trkpt>
      <trkpt lat="49.76682" lon="4.7189">
        <ele>148.3</ele>
        <time>2020-06-25T09:24:03Z</time>
      </trkpt>
      <trkpt lat="49.76682" lon="4.71891">
        <ele>148.3</ele>
        <time>2020-06-25T09:24:04Z</time>
      </trkpt>
      <trkpt lat="49.76682" lon="4.71892">
        <ele>148.3</ele>
        <time>2020-06-25T09:24:05Z</time>
      </trkpt>
      <trkpt lat="49.76683" lon="4.71892">
        <ele>148.3</ele>
        <time>2020-06-25T09:24:06Z</time>
      </trkpt>
      <trkpt lat="49.76683" lon="4.71892">
        <ele>148.3</ele>
        <time>2020-06-25T09:24:07Z</time>
      </trkpt>
      <trkpt lat="49.76683" lon="4.71892">
        <ele>148.3</ele>
        <time>2020-06-25T09:24:08Z</time>
      </trkpt>
      <trkpt lat="49.76683" lon="4.71892">
        <ele>148.3</ele>
        <time>2020-06-25T09:24:09Z</time>
      </trkpt>
      <trkpt lat="49.76684" lon="4.71892">
        <ele>148.3</ele>
        <time>2020-06-25T09:24:10Z</time>
      </trkpt>
      <trkpt lat="49.76684" lon="4.71892">
        <ele>148.4</ele>
        <time>2020-06-25T09:24:11Z</time>
      </trkpt>
      <trkpt lat="49.76684" lon="4.71891">
        <ele>148.4</ele>
        <time>2020-06-25T09:24:12Z</time>
      </trkpt>
      <trkpt lat="49.76684" lon="4.71891">
        <ele>148.4</ele>
        <time>2020-06-25T09:24:13Z</time>
      </trkpt>
      <trkpt lat="49.76685" lon="4.71891">
        <ele>148.4</ele>
        <time>2020-06-25T09:24:14Z</time>
      </trkpt>
      <trkpt lat="49.76685" lon="4.71891">
        <ele>148.4</ele>
        <time>2020-06-25T09:24:15Z</time>
      </trkpt>
      <trkpt lat="49.76685" lon="4.71891">
        <ele>148.4</ele>
        <time>2020-06-25T09:24:16Z</time>
      </trkpt>
      <trkpt lat="49.76685" lon="4.71891">
        <ele>148.4</ele>
        <time>2020-06-25T09:24:17Z</time>
      </trkpt>
      <trkpt lat="49.76685" lon="4.71891">
        <ele>148.4</ele>
        <time>2020-06-25T09:24:18Z</time>
      </trkpt>
      <trkpt lat="49.76685" lon="4.71891">
        <ele>148.4</ele>
        <time>2020-06-25T09:24:19Z</time>
      </trkpt>
      <trkpt lat="49.76686" lon="4.71891">
        <ele>148.4</ele>
        <time>2020-06-25T09:24:20Z</time>
      </trkpt>
      <trkpt lat="49.76686" lon="4.7189">
        <ele>148.4</ele>
        <time>2020-06-25T09:24:21Z</time>
      </trkpt>
      <trkpt lat="49.76686" lon="4.7189">
        <ele>148.4</ele>
        <time>2020-06-25T09:24:22Z</time>
      </trkpt>
      <trkpt lat="49.76686" lon="4.7189">
        <ele>148.4</ele>
        <time>2020-06-25T09:24:23Z</time>
      </trkpt>
      <trkpt lat="49.76686" lon="4.7189">
        <ele>148.4</ele>
        <time>2020-06-25T09:24:24Z</time>
      </trkpt>
      <trkpt lat="49.76686" lon="4.7189">
        <ele>148.4</ele>
        <time>2020-06-25T09:24:25Z</time>
      </trkpt>
      <trkpt lat="49.76685" lon="4.7189">
        <ele>148.4</ele>
        <time>2020-06-25T09:24:26Z</time>
      </trkpt>
      <trkpt lat="49.76685" lon="4.71891">
        <ele>148.4</ele>
        <time>2020-06-25T09:24:27Z</time>
      </trkpt>
      <trkpt lat="49.76685" lon="4.71892">
        <ele>148.5</ele>
        <time>2020-06-25T09:24:28Z</time>
      </trkpt>
      <trkpt lat="49.76685" lon="4.71892">
        <ele>148.5</ele>
        <time>2020-06-25T09:24:29Z</time>
      </trkpt>
      <trkpt lat="49.76684" lon="4.71893">
        <ele>148.5</ele>
        <time>2020-06-25T09:24:30Z</time>
      </trkpt>
      <trkpt lat="49.76684" lon="4.71893">
        <ele>148.5</ele>
        <time>2020-06-25T09:24:31Z</time>
      </trkpt>
      <trkpt lat="49.76684" lon="4.71892">
        <ele>148.5</ele>
        <time>2020-06-25T09:24:32Z</time>
      </trkpt>
      <trkpt lat="49.7668" lon="4.71887">
        <ele>148.6</ele>
        <time>2020-06-25T09:28:38Z</time>
      </trkpt>
      <trkpt lat="49.76679" lon="4.71886">
        <ele>148.6</ele>
        <time>2020-06-25T09:28:39Z</time>
      </trkpt>
      <trkpt lat="49.76679" lon="4.71886">
        <ele>148.6</ele>
        <time>2020-06-25T09:28:40Z</time>
      </trkpt>
      <trkpt lat="49.76679" lon="4.71885">
        <ele>148.6</ele>
        <time>2020-06-25T09:28:41Z</time>
      </trkpt>
      <trkpt lat="49.76678" lon="4.71885">
        <ele>148.7</ele>
        <time>2020-06-25T09:28:42Z</time>
      </trkpt>
      <trkpt lat="49.76678" lon="4.71885">
        <ele>148.7</ele>
        <time>2020-06-25T09:28:43Z</time>
      </trkpt>
      <trkpt lat="49.76676" lon="4.71884">
        <ele>148.7</ele>
        <time>2020-06-25T09:28:44Z</time>
      </trkpt>
      <trkpt lat="49.76676" lon="4.71885">
        <ele>148.7</ele>
        <time>2020-06-25T09:28:45Z</time>
      </trkpt>
      <trkpt lat="49.76675" lon="4.71885">
        <ele>148.7</ele>
        <time>2020-06-25T09:28:46Z</time>
      </trkpt>
      <trkpt lat="49.76674" lon="4.71886">
        <ele>148.8</ele>
        <time>2020-06-25T09:28:47Z</time>
      </trkpt>
      <trkpt lat="49.76672" lon="4.71889">
        <ele>148.8</ele>
        <time>2020-06-25T09:28:48Z</time>
      </trkpt>
      <trkpt lat="49.76672" lon="4.7189">
        <ele>148.8</ele>
        <time>2020-06-25T09:28:49Z</time>
      </trkpt>
      <trkpt lat="49.7667" lon="4.71893">
        <ele>148.9</ele>
        <time>2020-06-25T09:28:50Z</time>
      </trkpt>
      <trkpt lat="49.76668" lon="4.71898">
        <ele>149</ele>
        <time>2020-06-25T09:28:51Z</time>
      </trkpt>
      <trkpt lat="49.76667" lon="4.719">
        <ele>149</ele>
        <time>2020-06-25T09:28:52Z</time>
      </trkpt>
      <trkpt lat="49.76666" lon="4.71904">
        <ele>149</ele>
        <time>2020-06-25T09:28:53Z</time>
      </trkpt>
      <trkpt lat="49.76666" lon="4.71905">
        <ele>149</ele>
        <time>2020-06-25T09:28:54Z</time>
      </trkpt>
      <trkpt lat="49.76664" lon="4.71909">
        <ele>149.1</ele>
        <time>2020-06-25T09:28:55Z</time>
      </trkpt>
      <trkpt lat="49.76663" lon="4.7191">
        <ele>149.1</ele>
        <time>2020-06-25T09:28:56Z</time>
      </trkpt>
      <trkpt lat="49.76662" lon="4.71912">
        <ele>149.1</ele>
        <time>2020-06-25T09:28:57Z</time>
      </trkpt>
      <trkpt lat="49.7666" lon="4.71913">
        <ele>149.2</ele>
        <time>2020-06-25T09:28:58Z</time>
      </trkpt>
      <trkpt lat="49.76659" lon="4.71917">
        <ele>149.2</ele>
        <time>2020-06-25T09:28:59Z</time>
      </trkpt>
      <trkpt lat="49.76658" lon="4.71918">
        <ele>149.2</ele>
        <time>2020-06-25T09:29:00Z</time>
      </trkpt>
      <trkpt lat="49.76656" lon="4.71921">
        <ele>149.3</ele>
        <time>2020-06-25T09:29:01Z</time>
      </trkpt>
      <trkpt lat="49.76656" lon="4.71922">
        <ele>149.3</ele>
        <time>2020-06-25T09:29:02Z</time>
      </trkpt>
      <trkpt lat="49.76654" lon="4.71924">
        <ele>149.3</ele>
        <time>2020-06-25T09:29:03Z</time>
      </trkpt>
      <trkpt lat="49.76653" lon="4.71925">
        <ele>149.3</ele>
        <time>2020-06-25T09:29:04Z</time>
      </trkpt>
      <trkpt lat="49.76653" lon="4.71926">
        <ele>149.4</ele>
        <time>2020-06-25T09:29:05Z</time>
      </trkpt>
      <trkpt lat="49.76651" lon="4.71927">
        <ele>149.4</ele>
        <time>2020-06-25T09:29:06Z</time>
      </trkpt>
      <trkpt lat="49.76651" lon="4.71928">
        <ele>149.4</ele>
        <time>2020-06-25T09:29:07Z</time>
      </trkpt>
      <trkpt lat="49.7665" lon="4.71929">
        <ele>149.4</ele>
        <time>2020-06-25T09:29:08Z</time>
      </trkpt>
      <trkpt lat="49.76649" lon="4.71932">
        <ele>149.4</ele>
        <time>2020-06-25T09:29:09Z</time>
      </trkpt>
      <trkpt lat="49.76648" lon="4.71933">
        <ele>149.5</ele>
        <time>2020-06-25T09:29:10Z</time>
      </trkpt>
      <trkpt lat="49.76648" lon="4.71934">
        <ele>149.5</ele>
        <time>2020-06-25T09:29:11Z</time>
      </trkpt>
      <trkpt lat="49.76646" lon="4.71939">
        <ele>149.5</ele>
        <time>2020-06-25T09:29:12Z</time>
      </trkpt>
      <trkpt lat="49.76646" lon="4.71942">
        <ele>149.5</ele>
        <time>2020-06-25T09:29:13Z</time>
      </trkpt>
      <trkpt lat="49.76644" lon="4.71947">
        <ele>149.4</ele>
        <time>2020-06-25T09:29:14Z</time>
      </trkpt>
      <trkpt lat="49.76644" lon="4.71955">
        <ele>149.1</ele>
        <time>2020-06-25T09:29:15Z</time>
      </trkpt>
      <trkpt lat="49.76644" lon="4.71963">
        <ele>148.9</ele>
        <time>2020-06-25T09:29:16Z</time>
      </trkpt>
      <trkpt lat="49.76644" lon="4.71969">
        <ele>148.6</ele>
        <time>2020-06-25T09:29:17Z</time>
      </trkpt>
      <trkpt lat="49.76645" lon="4.71976">
        <ele>148.5</ele>
        <time>2020-06-25T09:29:18Z</time>
      </trkpt>
      <trkpt lat="49.76646" lon="4.71984">
        <ele>148.3</ele>
        <time>2020-06-25T09:29:19Z</time>
      </trkpt>
      <trkpt lat="49.76647" lon="4.71992">
        <ele>148.1</ele>
        <time>2020-06-25T09:29:20Z</time>
      </trkpt>
      <trkpt lat="49.76648" lon="4.72001">
        <ele>147.9</ele>
        <time>2020-06-25T09:29:21Z</time>
      </trkpt>
      <trkpt lat="49.76649" lon="4.72009">
        <ele>147.8</ele>
        <time>2020-06-25T09:29:22Z</time>
      </trkpt>
      <trkpt lat="49.76651" lon="4.72017">
        <ele>147.6</ele>
        <time>2020-06-25T09:29:23Z</time>
      </trkpt>
      <trkpt lat="49.76652" lon="4.72025">
        <ele>147.3</ele>
        <time>2020-06-25T09:29:24Z</time>
      </trkpt>
      <trkpt lat="49.76654" lon="4.72033">
        <ele>147.3</ele>
        <time>2020-06-25T09:29:25Z</time>
      </trkpt>
      <trkpt lat="49.76656" lon="4.72039">
        <ele>147.3</ele>
        <time>2020-06-25T09:29:26Z</time>
      </trkpt>
      <trkpt lat="49.76658" lon="4.72045">
        <ele>147.3</ele>
        <time>2020-06-25T09:29:27Z</time>
      </trkpt>
      <trkpt lat="49.76659" lon="4.72051">
        <ele>147.3</ele>
        <time>2020-06-25T09:29:28Z</time>
      </trkpt>
      <trkpt lat="49.76662" lon="4.72058">
        <ele>147.4</ele>
        <time>2020-06-25T09:29:29Z</time>
      </trkpt>
      <trkpt lat="49.76664" lon="4.72065">
        <ele>147.4</ele>
        <time>2020-06-25T09:29:30Z</time>
      </trkpt>
      <trkpt lat="49.76667" lon="4.72072">
        <ele>147.4</ele>
        <time>2020-06-25T09:29:31Z</time>
      </trkpt>
      <trkpt lat="49.76671" lon="4.72079">
        <ele>147.5</ele>
        <time>2020-06-25T09:29:32Z</time>
      </trkpt>
      <trkpt lat="49.76674" lon="4.72085">
        <ele>147.5</ele>
        <time>2020-06-25T09:29:33Z</time>
      </trkpt>
      <trkpt lat="49.76677" lon="4.7209">
        <ele>147.5</ele>
        <time>2020-06-25T09:29:34Z</time>
      </trkpt>
      <trkpt lat="49.76679" lon="4.72094">
        <ele>147.5</ele>
        <time>2020-06-25T09:29:35Z</time>
      </trkpt>
      <trkpt lat="49.76681" lon="4.72097">
        <ele>147.5</ele>
        <time>2020-06-25T09:29:36Z</time>
      </trkpt>
      <trkpt lat="49.76681" lon="4.72099">
        <ele>147.5</ele>
        <time>2020-06-25T09:29:37Z</time>
      </trkpt>
      <trkpt lat="49.76682" lon="4.72099">
        <ele>147.5</ele>
        <time>2020-06-25T09:29:38Z</time>
      </trkpt>
      <trkpt lat="49.76682" lon="4.721">
        <ele>147.5</ele>
        <time>2020-06-25T09:29:39Z</time>
      </trkpt>
      <trkpt lat="49.76682" lon="4.721">
        <ele>147.5</ele>
        <time>2020-06-25T09:29:40Z</time>
      </trkpt>
      <trkpt lat="49.76682" lon="4.721">
        <ele>147.5</ele>
        <time>2020-06-25T09:29:41Z</time>
      </trkpt>
      <trkpt lat="49.76682" lon="4.721">
        <ele>147.5</ele>
        <time>2020-06-25T09:29:42Z</time>
      </trkpt>
      <trkpt lat="49.76683" lon="4.72101">
        <ele>147.5</ele>
        <time>2020-06-25T09:29:43Z</time>
      </trkpt>
      <trkpt lat="49.76682" lon="4.721">
        <ele>147.5</ele>
        <time>2020-06-25T09:29:44Z</time>
      </trkpt>
      <trkpt lat="49.76682" lon="4.72099">
        <ele>147.5</ele>
        <time>2020-06-25T09:29:45Z</time>
      </trkpt>
      <trkpt lat="49.76682" lon="4.72099">
        <ele>147.5</ele>
        <time>2020-06-25T09:29:46Z</time>
      </trkpt>
      <trkpt lat="49.76682" lon="4.72099">
        <ele>147.5</ele>
        <time>2020-06-25T09:29:47Z</time>
      </trkpt>
      <trkpt lat="49.76682" lon="4.72099">
        <ele>147.5</ele>
        <time>2020-06-25T09:29:48Z</time>
      </trkpt>
      <trkpt lat="49.76682" lon="4.72098">
        <ele>147.5</ele>
        <time>2020-06-25T09:29:49Z</time>
      </trkpt>
      <trkpt lat="49.76682" lon="4.72098">
        <ele>147.5</ele>
        <time>2020-06-25T09:29:50Z</time>
      </trkpt>
      <trkpt lat="49.76682" lon="4.72098">
        <ele>147.5</ele>
        <time>2020-06-25T09:29:51Z</time>
      </trkpt>
      <trkpt lat="49.76682" lon="4.72098">
        <ele>147.5</ele>
        <time>2020-06-25T09:29:52Z</time>
      </trkpt>
      <trkpt lat="49.76682" lon="4.72097">
        <ele>147.5</ele>
        <time>2020-06-25T09:29:53Z</time>
      </trkpt>
      <trkpt lat="49.76681" lon="4.72097">
        <ele>147.5</ele>
        <time>2020-06-25T09:29:54Z</time>
      </trkpt>
      <trkpt lat="49.76681" lon="4.72097">
        <ele>147.5</ele>
        <time>2020-06-25T09:29:55Z</time>
      </trkpt>
      <trkpt lat="49.76681" lon="4.72097">
        <ele>147.5</ele>
        <time>2020-06-25T09:29:56Z</time>
      </trkpt>
      <trkpt lat="49.76681" lon="4.72096">
        <ele>147.5</ele>
        <time>2020-06-25T09:29:57Z</time>
      </trkpt>
      <trkpt lat="49.76681" lon="4.72096">
        <ele>147.5</ele>
        <time>2020-06-25T09:29:58Z</time>
      </trkpt>
      <trkpt lat="49.76681" lon="4.72096">
        <ele>147.5</ele>
        <time>2020-06-25T09:29:59Z</time>
      </trkpt>
      <trkpt lat="49.76681" lon="4.72096">
        <ele>147.5</ele>
        <time>2020-06-25T09:30:00Z</time>
      </trkpt>
      <trkpt lat="49.76681" lon="4.72095">
        <ele>147.5</ele>
        <time>2020-06-25T09:30:01Z</time>
      </trkpt>
      <trkpt lat="49.76681" lon="4.72095">
        <ele>147.5</ele>
        <time>2020-06-25T09:30:02Z</time>
      </trkpt>
      <trkpt lat="49.7668" lon="4.72091">
        <ele>147.5</ele>
        <time>2020-06-25T09:30:03Z</time>
      </trkpt>
      <trkpt lat="49.76679" lon="4.7209">
        <ele>147.5</ele>
        <time>2020-06-25T09:30:04Z</time>
      </trkpt>
      <trkpt lat="49.76679" lon="4.72084">
        <ele>147.5</ele>
        <time>2020-06-25T09:30:05Z</time>
      </trkpt>
      <trkpt lat="49.76679" lon="4.72081">
        <ele>147.5</ele>
        <time>2020-06-25T09:30:06Z</time>
      </trkpt>
      <trkpt lat="49.76679" lon="4.72077">
        <ele>147.5</ele>
        <time>2020-06-25T09:30:07Z</time>
      </trkpt>
      <trkpt lat="49.76679" lon="4.72072">
        <ele>147.5</ele>
        <time>2020-06-25T09:30:08Z</time>
      </trkpt>
      <trkpt lat="49.76678" lon="4.72068">
        <ele>147.4</ele>
        <time>2020-06-25T09:30:09Z</time>
      </trkpt>
      <trkpt lat="49.76678" lon="4.72062">
        <ele>147.4</ele>
        <time>2020-06-25T09:30:10Z</time>
      </trkpt>
      <trkpt lat="49.76677" lon="4.7206">
        <ele>147.4</ele>
        <time>2020-06-25T09:30:11Z</time>
      </trkpt>
      <trkpt lat="49.76676" lon="4.72055">
        <ele>147.4</ele>
        <time>2020-06-25T09:30:12Z</time>
      </trkpt>
      <trkpt lat="49.76675" lon="4.72053">
        <ele>147.4</ele>
        <time>2020-06-25T09:30:13Z</time>
      </trkpt>
      <trkpt lat="49.76674" lon="4.72049">
        <ele>147.3</ele>
        <time>2020-06-25T09:30:14Z</time>
      </trkpt>
      <trkpt lat="49.76672" lon="4.72044">
        <ele>147.3</ele>
        <time>2020-06-25T09:30:15Z</time>
      </trkpt>
      <trkpt lat="49.76671" lon="4.7204">
        <ele>147.3</ele>
        <time>2020-06-25T09:30:16Z</time>
      </trkpt>
      <trkpt lat="49.7667" lon="4.72035">
        <ele>147.3</ele>
        <time>2020-06-25T09:30:17Z</time>
      </trkpt>
      <trkpt lat="49.76669" lon="4.7203">
        <ele>147.3</ele>
        <time>2020-06-25T09:30:18Z</time>
      </trkpt>
      <trkpt lat="49.76668" lon="4.72025">
        <ele>147.3</ele>
        <time>2020-06-25T09:30:19Z</time>
      </trkpt>
      <trkpt lat="49.76667" lon="4.7202">
        <ele>147.3</ele>
        <time>2020-06-25T09:30:20Z</time>
      </trkpt>
      <trkpt lat="49.76666" lon="4.72016">
        <ele>147.5</ele>
        <time>2020-06-25T09:30:21Z</time>
      </trkpt>
      <trkpt lat="49.76666" lon="4.72014">
        <ele>147.6</ele>
        <time>2020-06-25T09:30:22Z</time>
      </trkpt>
      <trkpt lat="49.76664" lon="4.72009">
        <ele>147.6</ele>
        <time>2020-06-25T09:30:23Z</time>
      </trkpt>
      <trkpt lat="49.76663" lon="4.72005">
        <ele>147.7</ele>
        <time>2020-06-25T09:30:24Z</time>
      </trkpt>
      <trkpt lat="49.76663" lon="4.72004">
        <ele>147.7</ele>
        <time>2020-06-25T09:30:25Z</time>
      </trkpt>
      <trkpt lat="49.76662" lon="4.72003">
        <ele>147.7</ele>
        <time>2020-06-25T09:30:26Z</time>
      </trkpt>
      <trkpt lat="49.76662" lon="4.72001">
        <ele>147.8</ele>
        <time>2020-06-25T09:30:27Z</time>
      </trkpt>
      <trkpt lat="49.76662" lon="4.72002">
        <ele>147.8</ele>
        <time>2020-06-25T09:30:28Z</time>
      </trkpt>
      <trkpt lat="49.76662" lon="4.72001">
        <ele>147.8</ele>
        <time>2020-06-25T09:30:29Z</time>
      </trkpt>
      <trkpt lat="49.76661" lon="4.72">
        <ele>147.8</ele>
        <time>2020-06-25T09:30:30Z</time>
      </trkpt>
      <trkpt lat="49.76661" lon="4.71998">
        <ele>147.8</ele>
        <time>2020-06-25T09:30:31Z</time>
      </trkpt>
      <trkpt lat="49.7666" lon="4.71998">
        <ele>147.9</ele>
        <time>2020-06-25T09:30:32Z</time>
      </trkpt>
      <trkpt lat="49.76659" lon="4.71995">
        <ele>147.9</ele>
        <time>2020-06-25T09:30:33Z</time>
      </trkpt>
      <trkpt lat="49.76658" lon="4.71991">
        <ele>148</ele>
        <time>2020-06-25T09:30:34Z</time>
      </trkpt>
      <trkpt lat="49.76657" lon="4.71989">
        <ele>148</ele>
        <time>2020-06-25T09:30:35Z</time>
      </trkpt>
      <trkpt lat="49.76652" lon="4.71985">
        <ele>148.2</ele>
        <time>2020-06-25T09:30:36Z</time>
      </trkpt>
      <trkpt lat="49.7665" lon="4.71981">
        <ele>148.2</ele>
        <time>2020-06-25T09:30:37Z</time>
      </trkpt>
      <trkpt lat="49.76647" lon="4.71978">
        <ele>148.3</ele>
        <time>2020-06-25T09:30:38Z</time>
      </trkpt>
      <trkpt lat="49.76646" lon="4.71977">
        <ele>148.4</ele>
        <time>2020-06-25T09:30:39Z</time>
      </trkpt>
      <trkpt lat="49.76643" lon="4.71975">
        <ele>148.4</ele>
        <time>2020-06-25T09:30:40Z</time>
      </trkpt>
      <trkpt lat="49.76642" lon="4.71974">
        <ele>148.5</ele>
        <time>2020-06-25T09:30:41Z</time>
      </trkpt>
      <trkpt lat="49.76642" lon="4.71973">
        <ele>148.5</ele>
        <time>2020-06-25T09:30:42Z</time>
      </trkpt>
      <trkpt lat="49.76641" lon="4.71974">
        <ele>148.5</ele>
        <time>2020-06-25T09:30:43Z</time>
      </trkpt>
      <trkpt lat="49.7664" lon="4.71974">
        <ele>148.5</ele>
        <time>2020-06-25T09:30:44Z</time>
      </trkpt>
      <trkpt lat="49.7664" lon="4.71974">
        <ele>148.5</ele>
        <time>2020-06-25T09:30:45Z</time>
      </trkpt>
      <trkpt lat="49.7664" lon="4.71975">
        <ele>148.5</ele>
        <time>2020-06-25T09:30:46Z</time>
      </trkpt>
      <trkpt lat="49.7664" lon="4.71974">
        <ele>148.5</ele>
        <time>2020-06-25T09:30:47Z</time>
      </trkpt>
      <trkpt lat="49.7664" lon="4.71974">
        <ele>148.5</ele>
        <time>2020-06-25T09:30:48Z</time>
      </trkpt>
      <trkpt lat="49.7664" lon="4.71972">
        <ele>148.6</ele>
        <time>2020-06-25T09:30:49Z</time>
      </trkpt>
      <trkpt lat="49.7664" lon="4.71971">
        <ele>148.6</ele>
        <time>2020-06-25T09:30:50Z</time>
      </trkpt>
      <trkpt lat="49.76641" lon="4.7197">
        <ele>148.6</ele>
        <time>2020-06-25T09:30:51Z</time>
      </trkpt>
      <trkpt lat="49.76642" lon="4.71968">
        <ele>148.6</ele>
        <time>2020-06-25T09:30:52Z</time>
      </trkpt>
      <trkpt lat="49.76642" lon="4.71967">
        <ele>148.6</ele>
        <time>2020-06-25T09:30:53Z</time>
      </trkpt>
      <trkpt lat="49.76642" lon="4.71965">
        <ele>148.7</ele>
        <time>2020-06-25T09:30:54Z</time>
      </trkpt>
      <trkpt lat="49.76642" lon="4.71964">
        <ele>148.7</ele>
        <time>2020-06-25T09:30:55Z</time>
      </trkpt>
      <trkpt lat="49.76642" lon="4.71963">
        <ele>148.7</ele>
        <time>2020-06-25T09:30:56Z</time>
      </trkpt>
      <trkpt lat="49.76642" lon="4.71962">
        <ele>148.7</ele>
        <time>2020-06-25T09:30:57Z</time>
      </trkpt>
      <trkpt lat="49.76642" lon="4.7196">
        <ele>148.7</ele>
        <time>2020-06-25T09:30:58Z</time>
      </trkpt>
      <trkpt lat="49.76642" lon="4.71959">
        <ele>148.7</ele>
        <time>2020-06-25T09:30:59Z</time>
      </trkpt>
      <trkpt lat="49.76642" lon="4.71958">
        <ele>148.8</ele>
        <time>2020-06-25T09:31:00Z</time>
      </trkpt>
      <trkpt lat="49.76642" lon="4.71957">
        <ele>148.8</ele>
        <time>2020-06-25T09:31:01Z</time>
      </trkpt>
      <trkpt lat="49.76642" lon="4.71956">
        <ele>148.8</ele>
        <time>2020-06-25T09:31:02Z</time>
      </trkpt>
      <trkpt lat="49.76642" lon="4.71955">
        <ele>148.8</ele>
        <time>2020-06-25T09:31:03Z</time>
      </trkpt>
      <trkpt lat="49.76642" lon="4.71954">
        <ele>148.8</ele>
        <time>2020-06-25T09:31:04Z</time>
      </trkpt>
      <trkpt lat="49.76642" lon="4.71953">
        <ele>148.8</ele>
        <time>2020-06-25T09:31:37Z</time>
      </trkpt>
      <trkpt lat="49.76642" lon="4.71952">
        <ele>148.9</ele>
        <time>2020-06-25T09:31:38Z</time>
      </trkpt>
      <trkpt lat="49.76642" lon="4.71947">
        <ele>149.3</ele>
        <time>2020-06-25T09:31:39Z</time>
      </trkpt>
      <trkpt lat="49.7664" lon="4.71944">
        <ele>149.5</ele>
        <time>2020-06-25T09:31:40Z</time>
      </trkpt>
      <trkpt lat="49.76639" lon="4.71944">
        <ele>149.3</ele>
        <time>2020-06-25T09:31:41Z</time>
      </trkpt>
      <trkpt lat="49.76636" lon="4.71943">
        <ele>149.2</ele>
        <time>2020-06-25T09:31:42Z</time>
      </trkpt>
      <trkpt lat="49.76631" lon="4.71941">
        <ele>149.1</ele>
        <time>2020-06-25T09:31:43Z</time>
      </trkpt>
      <trkpt lat="49.76627" lon="4.71941">
        <ele>148.9</ele>
        <time>2020-06-25T09:31:44Z</time>
      </trkpt>
      <trkpt lat="49.76623" lon="4.71938">
        <ele>148.8</ele>
        <time>2020-06-25T09:31:45Z</time>
      </trkpt>
      <trkpt lat="49.76618" lon="4.71936">
        <ele>148.7</ele>
        <time>2020-06-25T09:31:46Z</time>
      </trkpt>
      <trkpt lat="49.76613" lon="4.71934">
        <ele>148.5</ele>
        <time>2020-06-25T09:31:47Z</time>
      </trkpt>
      <trkpt lat="49.76608" lon="4.71935">
        <ele>148.4</ele>
        <time>2020-06-25T09:31:48Z</time>
      </trkpt>
      <trkpt lat="49.76604" lon="4.71934">
        <ele>148.3</ele>
        <time>2020-06-25T09:31:49Z</time>
      </trkpt>
      <trkpt lat="49.766" lon="4.71933">
        <ele>148.2</ele>
        <time>2020-06-25T09:31:50Z</time>
      </trkpt>
      <trkpt lat="49.76596" lon="4.71934">
        <ele>148.2</ele>
        <time>2020-06-25T09:31:51Z</time>
      </trkpt>
      <trkpt lat="49.76592" lon="4.71935">
        <ele>148.2</ele>
        <time>2020-06-25T09:31:52Z</time>
      </trkpt>
      <trkpt lat="49.76588" lon="4.71936">
        <ele>148.2</ele>
        <time>2020-06-25T09:31:53Z</time>
      </trkpt>
      <trkpt lat="49.76583" lon="4.71938">
        <ele>148.2</ele>
        <time>2020-06-25T09:31:54Z</time>
      </trkpt>
      <trkpt lat="49.76578" lon="4.7194">
        <ele>148.2</ele>
        <time>2020-06-25T09:31:55Z</time>
      </trkpt>
      <trkpt lat="49.76573" lon="4.71941">
        <ele>148.2</ele>
        <time>2020-06-25T09:31:56Z</time>
      </trkpt>
      <trkpt lat="49.76568" lon="4.71943">
        <ele>148.2</ele>
        <time>2020-06-25T09:31:57Z</time>
      </trkpt>
      <trkpt lat="49.76564" lon="4.71944">
        <ele>148.2</ele>
        <time>2020-06-25T09:31:58Z</time>
      </trkpt>
      <trkpt lat="49.76559" lon="4.71943">
        <ele>148.2</ele>
        <time>2020-06-25T09:31:59Z</time>
      </trkpt>
      <trkpt lat="49.76555" lon="4.71943">
        <ele>148.2</ele>
        <time>2020-06-25T09:32:00Z</time>
      </trkpt>
      <trkpt lat="49.76552" lon="4.71944">
        <ele>148.1</ele>
        <time>2020-06-25T09:32:01Z</time>
      </trkpt>
      <trkpt lat="49.76547" lon="4.71945">
        <ele>148.1</ele>
        <time>2020-06-25T09:32:02Z</time>
      </trkpt>
      <trkpt lat="49.76543" lon="4.71946">
        <ele>148.1</ele>
        <time>2020-06-25T09:32:03Z</time>
      </trkpt>
      <trkpt lat="49.76539" lon="4.71946">
        <ele>148.1</ele>
        <time>2020-06-25T09:32:04Z</time>
      </trkpt>
      <trkpt lat="49.76535" lon="4.71947">
        <ele>148.1</ele>
        <time>2020-06-25T09:32:05Z</time>
      </trkpt>
      <trkpt lat="49.76531" lon="4.71948">
        <ele>148.1</ele>
        <time>2020-06-25T09:32:06Z</time>
      </trkpt>
      <trkpt lat="49.76524" lon="4.71947">
        <ele>148.1</ele>
        <time>2020-06-25T09:32:07Z</time>
      </trkpt>
      <trkpt lat="49.76518" lon="4.71946">
        <ele>148.1</ele>
        <time>2020-06-25T09:32:08Z</time>
      </trkpt>
      <trkpt lat="49.76511" lon="4.71945">
        <ele>148.1</ele>
        <time>2020-06-25T09:32:09Z</time>
      </trkpt>
      <trkpt lat="49.76506" lon="4.71945">
        <ele>148</ele>
        <time>2020-06-25T09:32:10Z</time>
      </trkpt>
      <trkpt lat="49.76501" lon="4.71943">
        <ele>148</ele>
        <time>2020-06-25T09:32:11Z</time>
      </trkpt>
      <trkpt lat="49.76496" lon="4.71942">
        <ele>148</ele>
        <time>2020-06-25T09:32:12Z</time>
      </trkpt>
      <trkpt lat="49.76491" lon="4.71941">
        <ele>148</ele>
        <time>2020-06-25T09:32:13Z</time>
      </trkpt>
      <trkpt lat="49.76487" lon="4.71942">
        <ele>148</ele>
        <time>2020-06-25T09:32:14Z</time>
      </trkpt>
      <trkpt lat="49.76483" lon="4.71942">
        <ele>148</ele>
        <time>2020-06-25T09:32:15Z</time>
      </trkpt>
      <trkpt lat="49.76478" lon="4.71942">
        <ele>147.9</ele>
        <time>2020-06-25T09:32:16Z</time>
      </trkpt>
      <trkpt lat="49.76473" lon="4.7194">
        <ele>147.9</ele>
        <time>2020-06-25T09:32:17Z</time>
      </trkpt>
      <trkpt lat="49.76469" lon="4.71938">
        <ele>147.9</ele>
        <time>2020-06-25T09:32:18Z</time>
      </trkpt>
      <trkpt lat="49.76463" lon="4.71937">
        <ele>147.8</ele>
        <time>2020-06-25T09:32:19Z</time>
      </trkpt>
      <trkpt lat="49.76457" lon="4.71939">
        <ele>147.8</ele>
        <time>2020-06-25T09:32:20Z</time>
      </trkpt>
      <trkpt lat="49.76452" lon="4.71938">
        <ele>147.8</ele>
        <time>2020-06-25T09:32:21Z</time>
      </trkpt>
      <trkpt lat="49.76447" lon="4.71937">
        <ele>147.8</ele>
        <time>2020-06-25T09:32:22Z</time>
      </trkpt>
      <trkpt lat="49.76442" lon="4.71936">
        <ele>147.7</ele>
        <time>2020-06-25T09:32:23Z</time>
      </trkpt>
      <trkpt lat="49.76437" lon="4.71935">
        <ele>147.7</ele>
        <time>2020-06-25T09:32:24Z</time>
      </trkpt>
      <trkpt lat="49.76433" lon="4.71932">
        <ele>147.7</ele>
        <time>2020-06-25T09:32:25Z</time>
      </trkpt>
      <trkpt lat="49.76429" lon="4.71931">
        <ele>147.6</ele>
        <time>2020-06-25T09:32:26Z</time>
      </trkpt>
      <trkpt lat="49.76425" lon="4.7193">
        <ele>147.6</ele>
        <time>2020-06-25T09:32:27Z</time>
      </trkpt>
      <trkpt lat="49.76419" lon="4.7193">
        <ele>147.6</ele>
        <time>2020-06-25T09:32:28Z</time>
      </trkpt>
      <trkpt lat="49.76416" lon="4.71927">
        <ele>147.6</ele>
        <time>2020-06-25T09:32:29Z</time>
      </trkpt>
      <trkpt lat="49.76411" lon="4.71926">
        <ele>147.6</ele>
        <time>2020-06-25T09:32:30Z</time>
      </trkpt>
      <trkpt lat="49.76406" lon="4.71925">
        <ele>147.5</ele>
        <time>2020-06-25T09:32:31Z</time>
      </trkpt>
      <trkpt lat="49.76401" lon="4.71924">
        <ele>147.5</ele>
        <time>2020-06-25T09:32:32Z</time>
      </trkpt>
      <trkpt lat="49.76395" lon="4.71924">
        <ele>147.5</ele>
        <time>2020-06-25T09:32:33Z</time>
      </trkpt>
      <trkpt lat="49.7639" lon="4.71923">
        <ele>147.4</ele>
        <time>2020-06-25T09:32:34Z</time>
      </trkpt>
      <trkpt lat="49.76385" lon="4.71923">
        <ele>147.4</ele>
        <time>2020-06-25T09:32:35Z</time>
      </trkpt>
      <trkpt lat="49.7638" lon="4.71923">
        <ele>147.4</ele>
        <time>2020-06-25T09:32:36Z</time>
      </trkpt>
      <trkpt lat="49.76375" lon="4.71921">
        <ele>147.4</ele>
        <time>2020-06-25T09:32:37Z</time>
      </trkpt>
      <trkpt lat="49.76368" lon="4.7192">
        <ele>147.5</ele>
        <time>2020-06-25T09:32:38Z</time>
      </trkpt>
      <trkpt lat="49.76363" lon="4.71921">
        <ele>147.6</ele>
        <time>2020-06-25T09:32:39Z</time>
      </trkpt>
      <trkpt lat="49.76358" lon="4.71921">
        <ele>147.6</ele>
        <time>2020-06-25T09:32:40Z</time>
      </trkpt>
      <trkpt lat="49.76352" lon="4.7192">
        <ele>147.7</ele>
        <time>2020-06-25T09:32:41Z</time>
      </trkpt>
      <trkpt lat="49.76346" lon="4.71919">
        <ele>147.7</ele>
        <time>2020-06-25T09:32:42Z</time>
      </trkpt>
      <trkpt lat="49.76339" lon="4.71917">
        <ele>147.8</ele>
        <time>2020-06-25T09:32:43Z</time>
      </trkpt>
      <trkpt lat="49.76333" lon="4.71916">
        <ele>147.8</ele>
        <time>2020-06-25T09:32:44Z</time>
      </trkpt>
      <trkpt lat="49.76327" lon="4.71915">
        <ele>147.9</ele>
        <time>2020-06-25T09:32:45Z</time>
      </trkpt>
      <trkpt lat="49.76322" lon="4.71917">
        <ele>148</ele>
        <time>2020-06-25T09:32:46Z</time>
      </trkpt>
      <trkpt lat="49.76315" lon="4.71919">
        <ele>148.1</ele>
        <time>2020-06-25T09:32:47Z</time>
      </trkpt>
      <trkpt lat="49.76308" lon="4.71921">
        <ele>148.2</ele>
        <time>2020-06-25T09:32:48Z</time>
      </trkpt>
      <trkpt lat="49.76303" lon="4.71921">
        <ele>148.3</ele>
        <time>2020-06-25T09:32:49Z</time>
      </trkpt>
      <trkpt lat="49.76298" lon="4.71921">
        <ele>148.4</ele>
        <time>2020-06-25T09:32:50Z</time>
      </trkpt>
      <trkpt lat="49.76293" lon="4.71922">
        <ele>148.5</ele>
        <time>2020-06-25T09:32:51Z</time>
      </trkpt>
      <trkpt lat="49.76287" lon="4.71922">
        <ele>148.6</ele>
        <time>2020-06-25T09:32:52Z</time>
      </trkpt>
      <trkpt lat="49.76282" lon="4.71921">
        <ele>148.7</ele>
        <time>2020-06-25T09:32:53Z</time>
      </trkpt>
      <trkpt lat="49.76276" lon="4.71921">
        <ele>148.8</ele>
        <time>2020-06-25T09:32:54Z</time>
      </trkpt>
      <trkpt lat="49.76271" lon="4.71921">
        <ele>148.8</ele>
        <time>2020-06-25T09:32:55Z</time>
      </trkpt>
      <trkpt lat="49.76267" lon="4.71922">
        <ele>148.9</ele>
        <time>2020-06-25T09:32:56Z</time>
      </trkpt>
      <trkpt lat="49.76263" lon="4.71922">
        <ele>148.9</ele>
        <time>2020-06-25T09:32:57Z</time>
      </trkpt>
      <trkpt lat="49.76259" lon="4.71921">
        <ele>148.9</ele>
        <time>2020-06-25T09:32:58Z</time>
      </trkpt>
      <trkpt lat="49.76255" lon="4.7192">
        <ele>149</ele>
        <time>2020-06-25T09:32:59Z</time>
      </trkpt>
      <trkpt lat="49.7625" lon="4.7192">
        <ele>149</ele>
        <time>2020-06-25T09:33:00Z</time>
      </trkpt>
      <trkpt lat="49.76246" lon="4.7192">
        <ele>149.1</ele>
        <time>2020-06-25T09:33:01Z</time>
      </trkpt>
      <trkpt lat="49.76243" lon="4.71918">
        <ele>149.1</ele>
        <time>2020-06-25T09:33:02Z</time>
      </trkpt>
      <trkpt lat="49.7624" lon="4.71917">
        <ele>149.1</ele>
        <time>2020-06-25T09:33:03Z</time>
      </trkpt>
      <trkpt lat="49.76236" lon="4.71914">
        <ele>149.1</ele>
        <time>2020-06-25T09:33:04Z</time>
      </trkpt>
      <trkpt lat="49.76233" lon="4.71911">
        <ele>149.2</ele>
        <time>2020-06-25T09:33:05Z</time>
      </trkpt>
      <trkpt lat="49.76229" lon="4.7191">
        <ele>149.2</ele>
        <time>2020-06-25T09:33:06Z</time>
      </trkpt>
      <trkpt lat="49.76225" lon="4.71909">
        <ele>149.2</ele>
        <time>2020-06-25T09:33:07Z</time>
      </trkpt>
      <trkpt lat="49.7622" lon="4.71907">
        <ele>149.2</ele>
        <time>2020-06-25T09:33:08Z</time>
      </trkpt>
      <trkpt lat="49.76215" lon="4.71908">
        <ele>149.3</ele>
        <time>2020-06-25T09:33:09Z</time>
      </trkpt>
      <trkpt lat="49.76211" lon="4.71907">
        <ele>149.3</ele>
        <time>2020-06-25T09:33:10Z</time>
      </trkpt>
      <trkpt lat="49.76206" lon="4.71907">
        <ele>149.3</ele>
        <time>2020-06-25T09:33:11Z</time>
      </trkpt>
      <trkpt lat="49.76202" lon="4.71908">
        <ele>149.4</ele>
        <time>2020-06-25T09:33:12Z</time>
      </trkpt>
      <trkpt lat="49.76197" lon="4.71908">
        <ele>149.4</ele>
        <time>2020-06-25T09:33:13Z</time>
      </trkpt>
      <trkpt lat="49.76195" lon="4.71909">
        <ele>149.4</ele>
        <time>2020-06-25T09:33:14Z</time>
      </trkpt>
      <trkpt lat="49.7619" lon="4.71908">
        <ele>149.4</ele>
        <time>2020-06-25T09:33:15Z</time>
      </trkpt>
      <trkpt lat="49.76186" lon="4.71908">
        <ele>149.3</ele>
        <time>2020-06-25T09:33:16Z</time>
      </trkpt>
      <trkpt lat="49.76181" lon="4.71906">
        <ele>149.3</ele>
        <time>2020-06-25T09:33:17Z</time>
      </trkpt>
      <trkpt lat="49.76177" lon="4.71905">
        <ele>149.3</ele>
        <time>2020-06-25T09:33:18Z</time>
      </trkpt>
      <trkpt lat="49.76172" lon="4.71906">
        <ele>149.3</ele>
        <time>2020-06-25T09:33:19Z</time>
      </trkpt>
      <trkpt lat="49.76168" lon="4.71905">
        <ele>149.3</ele>
        <time>2020-06-25T09:33:20Z</time>
      </trkpt>
      <trkpt lat="49.76162" lon="4.71906">
        <ele>149.3</ele>
        <time>2020-06-25T09:33:21Z</time>
      </trkpt>
      <trkpt lat="49.76157" lon="4.71906">
        <ele>149.2</ele>
        <time>2020-06-25T09:33:22Z</time>
      </trkpt>
      <trkpt lat="49.76152" lon="4.71905">
        <ele>149.2</ele>
        <time>2020-06-25T09:33:23Z</time>
      </trkpt>
      <trkpt lat="49.76146" lon="4.71904">
        <ele>149.2</ele>
        <time>2020-06-25T09:33:24Z</time>
      </trkpt>
      <trkpt lat="49.76142" lon="4.71902">
        <ele>149.1</ele>
        <time>2020-06-25T09:33:25Z</time>
      </trkpt>
      <trkpt lat="49.76139" lon="4.719">
        <ele>149.1</ele>
        <time>2020-06-25T09:33:26Z</time>
      </trkpt>
      <trkpt lat="49.76135" lon="4.719">
        <ele>149.1</ele>
        <time>2020-06-25T09:33:27Z</time>
      </trkpt>
      <trkpt lat="49.76131" lon="4.71899">
        <ele>149.1</ele>
        <time>2020-06-25T09:33:28Z</time>
      </trkpt>
      <trkpt lat="49.76126" lon="4.71897">
        <ele>149.1</ele>
        <time>2020-06-25T09:33:29Z</time>
      </trkpt>
      <trkpt lat="49.76121" lon="4.71895">
        <ele>149.1</ele>
        <time>2020-06-25T09:33:30Z</time>
      </trkpt>
      <trkpt lat="49.76117" lon="4.71893">
        <ele>149.1</ele>
        <time>2020-06-25T09:33:31Z</time>
      </trkpt>
      <trkpt lat="49.76113" lon="4.71892">
        <ele>149.1</ele>
        <time>2020-06-25T09:33:32Z</time>
      </trkpt>
      <trkpt lat="49.76108" lon="4.71893">
        <ele>149.1</ele>
        <time>2020-06-25T09:33:33Z</time>
      </trkpt>
      <trkpt lat="49.76103" lon="4.71893">
        <ele>149.1</ele>
        <time>2020-06-25T09:33:34Z</time>
      </trkpt>
      <trkpt lat="49.76099" lon="4.71893">
        <ele>149.1</ele>
        <time>2020-06-25T09:33:35Z</time>
      </trkpt>
      <trkpt lat="49.76095" lon="4.71895">
        <ele>149.1</ele>
        <time>2020-06-25T09:33:36Z</time>
      </trkpt>
      <trkpt lat="49.7609" lon="4.71898">
        <ele>149.1</ele>
        <time>2020-06-25T09:33:37Z</time>
      </trkpt>
      <trkpt lat="49.76085" lon="4.71898">
        <ele>149.2</ele>
        <time>2020-06-25T09:33:38Z</time>
      </trkpt>
      <trkpt lat="49.7608" lon="4.71898">
        <ele>149.2</ele>
        <time>2020-06-25T09:33:39Z</time>
      </trkpt>
      <trkpt lat="49.76075" lon="4.71899">
        <ele>149.2</ele>
        <time>2020-06-25T09:33:40Z</time>
      </trkpt>
      <trkpt lat="49.76071" lon="4.71899">
        <ele>149.2</ele>
        <time>2020-06-25T09:33:41Z</time>
      </trkpt>
      <trkpt lat="49.76067" lon="4.71897">
        <ele>149.2</ele>
        <time>2020-06-25T09:33:42Z</time>
      </trkpt>
      <trkpt lat="49.76065" lon="4.71895">
        <ele>149.2</ele>
        <time>2020-06-25T09:33:43Z</time>
      </trkpt>
      <trkpt lat="49.76062" lon="4.71893">
        <ele>149.2</ele>
        <time>2020-06-25T09:33:44Z</time>
      </trkpt>
      <trkpt lat="49.76061" lon="4.71893">
        <ele>149.2</ele>
        <time>2020-06-25T09:33:45Z</time>
      </trkpt>
      <trkpt lat="49.76058" lon="4.71891">
        <ele>149.2</ele>
        <time>2020-06-25T09:33:46Z</time>
      </trkpt>
      <trkpt lat="49.76057" lon="4.7189">
        <ele>149.2</ele>
        <time>2020-06-25T09:33:47Z</time>
      </trkpt>
      <trkpt lat="49.76054" lon="4.7189">
        <ele>149.2</ele>
        <time>2020-06-25T09:33:48Z</time>
      </trkpt>
      <trkpt lat="49.76053" lon="4.7189">
        <ele>149.1</ele>
        <time>2020-06-25T09:33:49Z</time>
      </trkpt>
      <trkpt lat="49.76052" lon="4.71884">
        <ele>149.1</ele>
        <time>2020-06-25T09:33:50Z</time>
      </trkpt>
      <trkpt lat="49.76052" lon="4.71882">
        <ele>149.1</ele>
        <time>2020-06-25T09:33:51Z</time>
      </trkpt>
      <trkpt lat="49.76053" lon="4.71877">
        <ele>149.1</ele>
        <time>2020-06-25T09:33:52Z</time>
      </trkpt>
      <trkpt lat="49.76054" lon="4.71872">
        <ele>149.1</ele>
        <time>2020-06-25T09:33:53Z</time>
      </trkpt>
      <trkpt lat="49.76055" lon="4.71866">
        <ele>149.1</ele>
        <time>2020-06-25T09:33:54Z</time>
      </trkpt>
      <trkpt lat="49.76056" lon="4.71864">
        <ele>149.1</ele>
        <time>2020-06-25T09:33:55Z</time>
      </trkpt>
      <trkpt lat="49.76056" lon="4.71861">
        <ele>149.1</ele>
        <time>2020-06-25T09:33:56Z</time>
      </trkpt>
      <trkpt lat="49.76056" lon="4.71858">
        <ele>149.1</ele>
        <time>2020-06-25T09:33:57Z</time>
      </trkpt>
      <trkpt lat="49.76055" lon="4.71856">
        <ele>149.1</ele>
        <time>2020-06-25T09:33:58Z</time>
      </trkpt>
      <trkpt lat="49.76056" lon="4.71854">
        <ele>149.1</ele>
        <time>2020-06-25T09:33:59Z</time>
      </trkpt>
      <trkpt lat="49.76056" lon="4.71852">
        <ele>149.2</ele>
        <time>2020-06-25T09:34:00Z</time>
      </trkpt>
      <trkpt lat="49.76056" lon="4.7185">
        <ele>149.2</ele>
        <time>2020-06-25T09:34:01Z</time>
      </trkpt>
      <trkpt lat="49.76056" lon="4.71849">
        <ele>149.2</ele>
        <time>2020-06-25T09:34:02Z</time>
      </trkpt>
      <trkpt lat="49.76056" lon="4.71848">
        <ele>149.2</ele>
        <time>2020-06-25T09:34:03Z</time>
      </trkpt>
      <trkpt lat="49.76056" lon="4.71848">
        <ele>149.2</ele>
        <time>2020-06-25T09:34:04Z</time>
      </trkpt>
      <trkpt lat="49.76056" lon="4.71847">
        <ele>149.2</ele>
        <time>2020-06-25T09:34:05Z</time>
      </trkpt>
      <trkpt lat="49.76056" lon="4.71847">
        <ele>149.2</ele>
        <time>2020-06-25T09:34:06Z</time>
      </trkpt>
      <trkpt lat="49.76056" lon="4.71846">
        <ele>149.2</ele>
        <time>2020-06-25T09:34:07Z</time>
      </trkpt>
      <trkpt lat="49.76055" lon="4.71845">
        <ele>149.2</ele>
        <time>2020-06-25T09:34:08Z</time>
      </trkpt>
      <trkpt lat="49.76054" lon="4.71842">
        <ele>149.2</ele>
        <time>2020-06-25T09:34:09Z</time>
      </trkpt>
      <trkpt lat="49.76053" lon="4.71841">
        <ele>149.2</ele>
        <time>2020-06-25T09:34:10Z</time>
      </trkpt>
      <trkpt lat="49.76053" lon="4.7184">
        <ele>149.2</ele>
        <time>2020-06-25T09:34:11Z</time>
      </trkpt>
      <trkpt lat="49.76052" lon="4.71838">
        <ele>149.2</ele>
        <time>2020-06-25T09:34:12Z</time>
      </trkpt>
      <trkpt lat="49.76052" lon="4.71836">
        <ele>149.2</ele>
        <time>2020-06-25T09:34:13Z</time>
      </trkpt>
      <trkpt lat="49.76051" lon="4.71836">
        <ele>149.2</ele>
        <time>2020-06-25T09:34:14Z</time>
      </trkpt>
      <trkpt lat="49.76051" lon="4.71836">
        <ele>149.2</ele>
        <time>2020-06-25T09:34:15Z</time>
      </trkpt>
      <trkpt lat="49.76049" lon="4.71836">
        <ele>149.2</ele>
        <time>2020-06-25T09:34:16Z</time>
      </trkpt>
      <trkpt lat="49.76048" lon="4.71837">
        <ele>149.2</ele>
        <time>2020-06-25T09:34:17Z</time>
      </trkpt>
      <trkpt lat="49.76047" lon="4.71837">
        <ele>149.2</ele>
        <time>2020-06-25T09:34:18Z</time>
      </trkpt>
      <trkpt lat="49.76047" lon="4.71837">
        <ele>149.2</ele>
        <time>2020-06-25T09:34:19Z</time>
      </trkpt>
      <trkpt lat="49.76047" lon="4.71837">
        <ele>149.2</ele>
        <time>2020-06-25T09:34:20Z</time>
      </trkpt>
      <trkpt lat="49.76047" lon="4.71838">
        <ele>149.2</ele>
        <time>2020-06-25T09:34:21Z</time>
      </trkpt>
      <trkpt lat="49.76047" lon="4.71838">
        <ele>149.2</ele>
        <time>2020-06-25T09:34:22Z</time>
      </trkpt>
      <trkpt lat="49.76047" lon="4.71839">
        <ele>149.3</ele>
        <time>2020-06-25T09:34:23Z</time>
      </trkpt>
      <trkpt lat="49.76046" lon="4.71839">
        <ele>149.3</ele>
        <time>2020-06-25T09:34:24Z</time>
      </trkpt>
      <trkpt lat="49.76047" lon="4.71838">
        <ele>149.3</ele>
        <time>2020-06-25T09:34:25Z</time>
      </trkpt>
      <trkpt lat="49.76047" lon="4.71838">
        <ele>149.3</ele>
        <time>2020-06-25T09:34:26Z</time>
      </trkpt>
      <trkpt lat="49.76048" lon="4.71837">
        <ele>149.3</ele>
        <time>2020-06-25T09:34:27Z</time>
      </trkpt>
      <trkpt lat="49.76049" lon="4.71837">
        <ele>149.3</ele>
        <time>2020-06-25T09:34:28Z</time>
      </trkpt>
      <trkpt lat="49.76049" lon="4.71836">
        <ele>149.3</ele>
        <time>2020-06-25T09:34:29Z</time>
      </trkpt>
      <trkpt lat="49.76051" lon="4.71835">
        <ele>149.3</ele>
        <time>2020-06-25T09:34:30Z</time>
      </trkpt>
      <trkpt lat="49.76051" lon="4.71835">
        <ele>149.3</ele>
        <time>2020-06-25T09:34:31Z</time>
      </trkpt>
      <trkpt lat="49.76052" lon="4.71835">
        <ele>149.3</ele>
        <time>2020-06-25T09:34:32Z</time>
      </trkpt>
      <trkpt lat="49.76053" lon="4.71834">
        <ele>149.3</ele>
        <time>2020-06-25T09:34:33Z</time>
      </trkpt>
      <trkpt lat="49.76055" lon="4.71834">
        <ele>149.3</ele>
        <time>2020-06-25T09:34:34Z</time>
      </trkpt>
      <trkpt lat="49.76056" lon="4.71834">
        <ele>149.3</ele>
        <time>2020-06-25T09:34:35Z</time>
      </trkpt>
      <trkpt lat="49.76056" lon="4.71834">
        <ele>149.3</ele>
        <time>2020-06-25T09:34:36Z</time>
      </trkpt>
      <trkpt lat="49.76057" lon="4.71834">
        <ele>149.3</ele>
        <time>2020-06-25T09:34:37Z</time>
      </trkpt>
      <trkpt lat="49.76058" lon="4.71833">
        <ele>149.3</ele>
        <time>2020-06-25T09:34:38Z</time>
      </trkpt>
      <trkpt lat="49.76059" lon="4.71832">
        <ele>149.3</ele>
        <time>2020-06-25T09:34:39Z</time>
      </trkpt>
      <trkpt lat="49.7606" lon="4.7183">
        <ele>149.3</ele>
        <time>2020-06-25T09:34:40Z</time>
      </trkpt>
      <trkpt lat="49.76061" lon="4.71833">
        <ele>149.3</ele>
        <time>2020-06-25T09:34:41Z</time>
      </trkpt>
      <trkpt lat="49.76061" lon="4.71835">
        <ele>149.3</ele>
        <time>2020-06-25T09:34:42Z</time>
      </trkpt>
      <trkpt lat="49.76061" lon="4.71838">
        <ele>149.3</ele>
        <time>2020-06-25T09:34:43Z</time>
      </trkpt>
      <trkpt lat="49.76061" lon="4.71841">
        <ele>149.3</ele>
        <time>2020-06-25T09:34:44Z</time>
      </trkpt>
      <trkpt lat="49.76059" lon="4.71843">
        <ele>149.4</ele>
        <time>2020-06-25T09:34:45Z</time>
      </trkpt>
      <trkpt lat="49.76058" lon="4.71848">
        <ele>149</ele>
        <time>2020-06-25T09:34:46Z</time>
      </trkpt>
      <trkpt lat="49.76058" lon="4.71849">
        <ele>149</ele>
        <time>2020-06-25T09:34:47Z</time>
      </trkpt>
      <trkpt lat="49.76057" lon="4.71851">
        <ele>149</ele>
        <time>2020-06-25T09:34:48Z</time>
      </trkpt>
      <trkpt lat="49.76057" lon="4.71853">
        <ele>149</ele>
        <time>2020-06-25T09:34:49Z</time>
      </trkpt>
      <trkpt lat="49.76055" lon="4.71855">
        <ele>149</ele>
        <time>2020-06-25T09:34:50Z</time>
      </trkpt>
      <trkpt lat="49.76054" lon="4.71856">
        <ele>149</ele>
        <time>2020-06-25T09:34:51Z</time>
      </trkpt>
      <trkpt lat="49.76051" lon="4.71858">
        <ele>149</ele>
        <time>2020-06-25T09:34:52Z</time>
      </trkpt>
      <trkpt lat="49.76049" lon="4.71859">
        <ele>149</ele>
        <time>2020-06-25T09:34:53Z</time>
      </trkpt>
      <trkpt lat="49.76044" lon="4.71859">
        <ele>149</ele>
        <time>2020-06-25T09:34:54Z</time>
      </trkpt>
      <trkpt lat="49.76038" lon="4.71861">
        <ele>149</ele>
        <time>2020-06-25T09:34:55Z</time>
      </trkpt>
      <trkpt lat="49.76034" lon="4.71863">
        <ele>149</ele>
        <time>2020-06-25T09:34:56Z</time>
      </trkpt>
      <trkpt lat="49.76029" lon="4.71865">
        <ele>148.9</ele>
        <time>2020-06-25T09:34:57Z</time>
      </trkpt>
      <trkpt lat="49.76023" lon="4.71865">
        <ele>148.9</ele>
        <time>2020-06-25T09:34:58Z</time>
      </trkpt>
      <trkpt lat="49.76017" lon="4.71865">
        <ele>148.8</ele>
        <time>2020-06-25T09:34:59Z</time>
      </trkpt>
      <trkpt lat="49.76011" lon="4.71865">
        <ele>148.8</ele>
        <time>2020-06-25T09:35:00Z</time>
      </trkpt>
      <trkpt lat="49.76005" lon="4.71866">
        <ele>148.7</ele>
        <time>2020-06-25T09:35:01Z</time>
      </trkpt>
      <trkpt lat="49.76" lon="4.71867">
        <ele>148.7</ele>
        <time>2020-06-25T09:35:02Z</time>
      </trkpt>
      <trkpt lat="49.75996" lon="4.71868">
        <ele>148.7</ele>
        <time>2020-06-25T09:35:03Z</time>
      </trkpt>
      <trkpt lat="49.75993" lon="4.71868">
        <ele>148.6</ele>
        <time>2020-06-25T09:35:04Z</time>
      </trkpt>
      <trkpt lat="49.75989" lon="4.71868">
        <ele>148.6</ele>
        <time>2020-06-25T09:35:05Z</time>
      </trkpt>
      <trkpt lat="49.75986" lon="4.71867">
        <ele>148.6</ele>
        <time>2020-06-25T09:35:06Z</time>
      </trkpt>
      <trkpt lat="49.75983" lon="4.71864">
        <ele>148.5</ele>
        <time>2020-06-25T09:35:07Z</time>
      </trkpt>
      <trkpt lat="49.75978" lon="4.71858">
        <ele>148.5</ele>
        <time>2020-06-25T09:35:08Z</time>
      </trkpt>
      <trkpt lat="49.75975" lon="4.71859">
        <ele>148.5</ele>
        <time>2020-06-25T09:35:09Z</time>
      </trkpt>
      <trkpt lat="49.75973" lon="4.71863">
        <ele>148.4</ele>
        <time>2020-06-25T09:35:10Z</time>
      </trkpt>
      <trkpt lat="49.75973" lon="4.71864">
        <ele>148.4</ele>
        <time>2020-06-25T09:35:11Z</time>
      </trkpt>
      <trkpt lat="49.75973" lon="4.71865">
        <ele>148.7</ele>
        <time>2020-06-25T09:35:12Z</time>
      </trkpt>
      <trkpt lat="49.75974" lon="4.71868">
        <ele>148.9</ele>
        <time>2020-06-25T09:35:13Z</time>
      </trkpt>
      <trkpt lat="49.75975" lon="4.71872">
        <ele>149</ele>
        <time>2020-06-25T09:35:14Z</time>
      </trkpt>
      <trkpt lat="49.75974" lon="4.71873">
        <ele>149.3</ele>
        <time>2020-06-25T09:35:15Z</time>
      </trkpt>
      <trkpt lat="49.75971" lon="4.71876">
        <ele>149.7</ele>
        <time>2020-06-25T09:35:16Z</time>
      </trkpt>
      <trkpt lat="49.75969" lon="4.71876">
        <ele>149.8</ele>
        <time>2020-06-25T09:35:17Z</time>
      </trkpt>
      <trkpt lat="49.75967" lon="4.71878">
        <ele>150</ele>
        <time>2020-06-25T09:35:18Z</time>
      </trkpt>
      <trkpt lat="49.75963" lon="4.71879">
        <ele>150.1</ele>
        <time>2020-06-25T09:35:19Z</time>
      </trkpt>
      <trkpt lat="49.75959" lon="4.71883">
        <ele>149.8</ele>
        <time>2020-06-25T09:35:20Z</time>
      </trkpt>
      <trkpt lat="49.75955" lon="4.71888">
        <ele>149.9</ele>
        <time>2020-06-25T09:35:21Z</time>
      </trkpt>
      <trkpt lat="49.75951" lon="4.71891">
        <ele>150.2</ele>
        <time>2020-06-25T09:35:22Z</time>
      </trkpt>
      <trkpt lat="49.75947" lon="4.7189">
        <ele>150.1</ele>
        <time>2020-06-25T09:35:23Z</time>
      </trkpt>
      <trkpt lat="49.75942" lon="4.7189">
        <ele>149.9</ele>
        <time>2020-06-25T09:35:24Z</time>
      </trkpt>
      <trkpt lat="49.75938" lon="4.7189">
        <ele>149.9</ele>
        <time>2020-06-25T09:35:25Z</time>
      </trkpt>
      <trkpt lat="49.75935" lon="4.7189">
        <ele>149.9</ele>
        <time>2020-06-25T09:35:26Z</time>
      </trkpt>
      <trkpt lat="49.75931" lon="4.71889">
        <ele>149.9</ele>
        <time>2020-06-25T09:35:27Z</time>
      </trkpt>
      <trkpt lat="49.75928" lon="4.71886">
        <ele>150</ele>
        <time>2020-06-25T09:35:28Z</time>
      </trkpt>
      <trkpt lat="49.75925" lon="4.71883">
        <ele>150</ele>
        <time>2020-06-25T09:35:29Z</time>
      </trkpt>
      <trkpt lat="49.75921" lon="4.71881">
        <ele>150</ele>
        <time>2020-06-25T09:35:30Z</time>
      </trkpt>
      <trkpt lat="49.75917" lon="4.71879">
        <ele>150</ele>
        <time>2020-06-25T09:35:31Z</time>
      </trkpt>
      <trkpt lat="49.75913" lon="4.71877">
        <ele>150.1</ele>
        <time>2020-06-25T09:35:32Z</time>
      </trkpt>
      <trkpt lat="49.7591" lon="4.71875">
        <ele>150.1</ele>
        <time>2020-06-25T09:35:33Z</time>
      </trkpt>
      <trkpt lat="49.75906" lon="4.71873">
        <ele>150.1</ele>
        <time>2020-06-25T09:35:34Z</time>
      </trkpt>
      <trkpt lat="49.75903" lon="4.71872">
        <ele>150.1</ele>
        <time>2020-06-25T09:35:35Z</time>
      </trkpt>
      <trkpt lat="49.75899" lon="4.7187">
        <ele>150</ele>
        <time>2020-06-25T09:35:36Z</time>
      </trkpt>
      <trkpt lat="49.75895" lon="4.71868">
        <ele>150</ele>
        <time>2020-06-25T09:35:37Z</time>
      </trkpt>
      <trkpt lat="49.75891" lon="4.71867">
        <ele>150</ele>
        <time>2020-06-25T09:35:38Z</time>
      </trkpt>
      <trkpt lat="49.75886" lon="4.71865">
        <ele>150</ele>
        <time>2020-06-25T09:35:39Z</time>
      </trkpt>
      <trkpt lat="49.75882" lon="4.71864">
        <ele>149.9</ele>
        <time>2020-06-25T09:35:40Z</time>
      </trkpt>
      <trkpt lat="49.75878" lon="4.71862">
        <ele>149.8</ele>
        <time>2020-06-25T09:35:41Z</time>
      </trkpt>
      <trkpt lat="49.75875" lon="4.71861">
        <ele>149.8</ele>
        <time>2020-06-25T09:35:42Z</time>
      </trkpt>
      <trkpt lat="49.7587" lon="4.71859">
        <ele>149.7</ele>
        <time>2020-06-25T09:35:43Z</time>
      </trkpt>
      <trkpt lat="49.75867" lon="4.71858">
        <ele>149.7</ele>
        <time>2020-06-25T09:35:44Z</time>
      </trkpt>
      <trkpt lat="49.75864" lon="4.71856">
        <ele>149.6</ele>
        <time>2020-06-25T09:35:45Z</time>
      </trkpt>
      <trkpt lat="49.75861" lon="4.71855">
        <ele>149.6</ele>
        <time>2020-06-25T09:35:46Z</time>
      </trkpt>
      <trkpt lat="49.75858" lon="4.71853">
        <ele>149.6</ele>
        <time>2020-06-25T09:35:47Z</time>
      </trkpt>
      <trkpt lat="49.75854" lon="4.71852">
        <ele>149.6</ele>
        <time>2020-06-25T09:35:48Z</time>
      </trkpt>
      <trkpt lat="49.7585" lon="4.7185">
        <ele>149.5</ele>
        <time>2020-06-25T09:35:49Z</time>
      </trkpt>
      <trkpt lat="49.75848" lon="4.71847">
        <ele>149.5</ele>
        <time>2020-06-25T09:35:50Z</time>
      </trkpt>
      <trkpt lat="49.75845" lon="4.71849">
        <ele>149.5</ele>
        <time>2020-06-25T09:35:51Z</time>
      </trkpt>
      <trkpt lat="49.75844" lon="4.7185">
        <ele>149.5</ele>
        <time>2020-06-25T09:35:52Z</time>
      </trkpt>
      <trkpt lat="49.75843" lon="4.71855">
        <ele>149.4</ele>
        <time>2020-06-25T09:35:53Z</time>
      </trkpt>
      <trkpt lat="49.7584" lon="4.71857">
        <ele>149.4</ele>
        <time>2020-06-25T09:35:54Z</time>
      </trkpt>
      <trkpt lat="49.75835" lon="4.71855">
        <ele>149.4</ele>
        <time>2020-06-25T09:35:55Z</time>
      </trkpt>
      <trkpt lat="49.7583" lon="4.71855">
        <ele>149.3</ele>
        <time>2020-06-25T09:35:56Z</time>
      </trkpt>
      <trkpt lat="49.75826" lon="4.71858">
        <ele>149.1</ele>
        <time>2020-06-25T09:35:57Z</time>
      </trkpt>
      <trkpt lat="49.75823" lon="4.71857">
        <ele>149</ele>
        <time>2020-06-25T09:35:58Z</time>
      </trkpt>
      <trkpt lat="49.75822" lon="4.71857">
        <ele>149</ele>
        <time>2020-06-25T09:35:59Z</time>
      </trkpt>
      <trkpt lat="49.7582" lon="4.71855">
        <ele>148.9</ele>
        <time>2020-06-25T09:36:00Z</time>
      </trkpt>
      <trkpt lat="49.75816" lon="4.71853">
        <ele>148.8</ele>
        <time>2020-06-25T09:36:01Z</time>
      </trkpt>
      <trkpt lat="49.75812" lon="4.71853">
        <ele>148.6</ele>
        <time>2020-06-25T09:36:02Z</time>
      </trkpt>
      <trkpt lat="49.7581" lon="4.71853">
        <ele>148.5</ele>
        <time>2020-06-25T09:36:03Z</time>
      </trkpt>
      <trkpt lat="49.75806" lon="4.71853">
        <ele>148.4</ele>
        <time>2020-06-25T09:36:04Z</time>
      </trkpt>
      <trkpt lat="49.75805" lon="4.71853">
        <ele>148.3</ele>
        <time>2020-06-25T09:36:05Z</time>
      </trkpt>
      <trkpt lat="49.75804" lon="4.71853">
        <ele>148.3</ele>
        <time>2020-06-25T09:36:06Z</time>
      </trkpt>
      <trkpt lat="49.75803" lon="4.71852">
        <ele>148.2</ele>
        <time>2020-06-25T09:36:07Z</time>
      </trkpt>
      <trkpt lat="49.75801" lon="4.71852">
        <ele>148.1</ele>
        <time>2020-06-25T09:36:08Z</time>
      </trkpt>
      <trkpt lat="49.758" lon="4.71851">
        <ele>148.1</ele>
        <time>2020-06-25T09:36:09Z</time>
      </trkpt>
      <trkpt lat="49.75797" lon="4.7185">
        <ele>147.9</ele>
        <time>2020-06-25T09:36:10Z</time>
      </trkpt>
      <trkpt lat="49.75795" lon="4.7185">
        <ele>147.9</ele>
        <time>2020-06-25T09:36:11Z</time>
      </trkpt>
      <trkpt lat="49.75792" lon="4.71851">
        <ele>147.7</ele>
        <time>2020-06-25T09:36:12Z</time>
      </trkpt>
      <trkpt lat="49.75789" lon="4.71852">
        <ele>147.6</ele>
        <time>2020-06-25T09:36:13Z</time>
      </trkpt>
      <trkpt lat="49.75785" lon="4.7185">
        <ele>147.5</ele>
        <time>2020-06-25T09:36:14Z</time>
      </trkpt>
      <trkpt lat="49.75782" lon="4.71849">
        <ele>147.3</ele>
        <time>2020-06-25T09:36:15Z</time>
      </trkpt>
      <trkpt lat="49.75777" lon="4.71847">
        <ele>147.1</ele>
        <time>2020-06-25T09:36:16Z</time>
      </trkpt>
      <trkpt lat="49.75772" lon="4.71845">
        <ele>147.1</ele>
        <time>2020-06-25T09:36:17Z</time>
      </trkpt>
      <trkpt lat="49.75768" lon="4.71844">
        <ele>147</ele>
        <time>2020-06-25T09:36:18Z</time>
      </trkpt>
      <trkpt lat="49.75764" lon="4.71846">
        <ele>147</ele>
        <time>2020-06-25T09:36:19Z</time>
      </trkpt>
      <trkpt lat="49.75759" lon="4.71846">
        <ele>147</ele>
        <time>2020-06-25T09:36:20Z</time>
      </trkpt>
      <trkpt lat="49.75753" lon="4.71846">
        <ele>147</ele>
        <time>2020-06-25T09:36:21Z</time>
      </trkpt>
      <trkpt lat="49.75748" lon="4.71845">
        <ele>147</ele>
        <time>2020-06-25T09:36:22Z</time>
      </trkpt>
      <trkpt lat="49.75744" lon="4.71844">
        <ele>147</ele>
        <time>2020-06-25T09:36:23Z</time>
      </trkpt>
      <trkpt lat="49.75741" lon="4.71846">
        <ele>147</ele>
        <time>2020-06-25T09:36:24Z</time>
      </trkpt>
      <trkpt lat="49.75738" lon="4.71845">
        <ele>147</ele>
        <time>2020-06-25T09:36:25Z</time>
      </trkpt>
      <trkpt lat="49.75735" lon="4.71844">
        <ele>147</ele>
        <time>2020-06-25T09:36:26Z</time>
      </trkpt>
      <trkpt lat="49.75731" lon="4.71843">
        <ele>147.1</ele>
        <time>2020-06-25T09:36:27Z</time>
      </trkpt>
      <trkpt lat="49.75728" lon="4.71843">
        <ele>147.1</ele>
        <time>2020-06-25T09:36:28Z</time>
      </trkpt>
      <trkpt lat="49.75726" lon="4.71842">
        <ele>147.1</ele>
        <time>2020-06-25T09:36:29Z</time>
      </trkpt>
      <trkpt lat="49.75726" lon="4.71842">
        <ele>147.1</ele>
        <time>2020-06-25T09:36:30Z</time>
      </trkpt>
      <trkpt lat="49.75725" lon="4.71842">
        <ele>147.1</ele>
        <time>2020-06-25T09:36:31Z</time>
      </trkpt>
      <trkpt lat="49.75725" lon="4.71842">
        <ele>147.1</ele>
        <time>2020-06-25T09:36:32Z</time>
      </trkpt>
      <trkpt lat="49.75724" lon="4.71843">
        <ele>147.1</ele>
        <time>2020-06-25T09:36:33Z</time>
      </trkpt>
      <trkpt lat="49.75724" lon="4.71844">
        <ele>147.1</ele>
        <time>2020-06-25T09:36:34Z</time>
      </trkpt>
      <trkpt lat="49.75724" lon="4.71845">
        <ele>147.1</ele>
        <time>2020-06-25T09:36:35Z</time>
      </trkpt>
      <trkpt lat="49.75724" lon="4.71845">
        <ele>147.1</ele>
        <time>2020-06-25T09:36:36Z</time>
      </trkpt>
      <trkpt lat="49.75724" lon="4.71844">
        <ele>147.1</ele>
        <time>2020-06-25T09:36:37Z</time>
      </trkpt>
      <trkpt lat="49.75723" lon="4.71843">
        <ele>147.1</ele>
        <time>2020-06-25T09:36:38Z</time>
      </trkpt>
      <trkpt lat="49.75722" lon="4.71841">
        <ele>147.2</ele>
        <time>2020-06-25T09:36:39Z</time>
      </trkpt>
      <trkpt lat="49.75718" lon="4.71839">
        <ele>147.2</ele>
        <time>2020-06-25T09:36:40Z</time>
      </trkpt>
      <trkpt lat="49.75717" lon="4.71839">
        <ele>147.2</ele>
        <time>2020-06-25T09:36:41Z</time>
      </trkpt>
      <trkpt lat="49.75713" lon="4.71838">
        <ele>147.2</ele>
        <time>2020-06-25T09:36:42Z</time>
      </trkpt>
      <trkpt lat="49.7571" lon="4.71838">
        <ele>147.2</ele>
        <time>2020-06-25T09:36:43Z</time>
      </trkpt>
      <trkpt lat="49.75706" lon="4.71838">
        <ele>147.2</ele>
        <time>2020-06-25T09:36:44Z</time>
      </trkpt>
      <trkpt lat="49.75702" lon="4.71838">
        <ele>147.3</ele>
        <time>2020-06-25T09:36:45Z</time>
      </trkpt>
      <trkpt lat="49.75698" lon="4.71837">
        <ele>147.4</ele>
        <time>2020-06-25T09:36:46Z</time>
      </trkpt>
      <trkpt lat="49.75693" lon="4.71837">
        <ele>147.4</ele>
        <time>2020-06-25T09:36:47Z</time>
      </trkpt>
      <trkpt lat="49.75689" lon="4.71836">
        <ele>147.5</ele>
        <time>2020-06-25T09:36:48Z</time>
      </trkpt>
      <trkpt lat="49.75685" lon="4.71834">
        <ele>147.5</ele>
        <time>2020-06-25T09:36:49Z</time>
      </trkpt>
      <trkpt lat="49.7568" lon="4.71833">
        <ele>147.6</ele>
        <time>2020-06-25T09:36:50Z</time>
      </trkpt>
      <trkpt lat="49.75675" lon="4.71832">
        <ele>147.7</ele>
        <time>2020-06-25T09:36:51Z</time>
      </trkpt>
      <trkpt lat="49.75671" lon="4.71832">
        <ele>147.8</ele>
        <time>2020-06-25T09:36:52Z</time>
      </trkpt>
      <trkpt lat="49.75666" lon="4.71832">
        <ele>147.9</ele>
        <time>2020-06-25T09:36:53Z</time>
      </trkpt>
      <trkpt lat="49.75661" lon="4.71831">
        <ele>148</ele>
        <time>2020-06-25T09:36:54Z</time>
      </trkpt>
      <trkpt lat="49.75657" lon="4.71832">
        <ele>148.2</ele>
        <time>2020-06-25T09:36:55Z</time>
      </trkpt>
      <trkpt lat="49.75651" lon="4.71831">
        <ele>148.4</ele>
        <time>2020-06-25T09:36:56Z</time>
      </trkpt>
      <trkpt lat="49.75644" lon="4.7183">
        <ele>148.7</ele>
        <time>2020-06-25T09:36:57Z</time>
      </trkpt>
      <trkpt lat="49.75639" lon="4.71828">
        <ele>148.9</ele>
        <time>2020-06-25T09:36:58Z</time>
      </trkpt>
      <trkpt lat="49.75634" lon="4.71827">
        <ele>149</ele>
        <time>2020-06-25T09:36:59Z</time>
      </trkpt>
      <trkpt lat="49.75631" lon="4.71825">
        <ele>149.1</ele>
        <time>2020-06-25T09:37:00Z</time>
      </trkpt>
      <trkpt lat="49.75626" lon="4.71825">
        <ele>149.2</ele>
        <time>2020-06-25T09:37:01Z</time>
      </trkpt>
      <trkpt lat="49.75622" lon="4.71825">
        <ele>149.3</ele>
        <time>2020-06-25T09:37:02Z</time>
      </trkpt>
      <trkpt lat="49.75616" lon="4.71824">
        <ele>149.4</ele>
        <time>2020-06-25T09:37:03Z</time>
      </trkpt>
      <trkpt lat="49.75611" lon="4.71823">
        <ele>149.5</ele>
        <time>2020-06-25T09:37:04Z</time>
      </trkpt>
      <trkpt lat="49.75607" lon="4.71823">
        <ele>149.6</ele>
        <time>2020-06-25T09:37:05Z</time>
      </trkpt>
      <trkpt lat="49.75603" lon="4.71825">
        <ele>149.7</ele>
        <time>2020-06-25T09:37:06Z</time>
      </trkpt>
      <trkpt lat="49.75599" lon="4.71825">
        <ele>149.8</ele>
        <time>2020-06-25T09:37:07Z</time>
      </trkpt>
      <trkpt lat="49.75595" lon="4.71823">
        <ele>150</ele>
        <time>2020-06-25T09:37:08Z</time>
      </trkpt>
      <trkpt lat="49.75591" lon="4.71822">
        <ele>150.1</ele>
        <time>2020-06-25T09:37:09Z</time>
      </trkpt>
      <trkpt lat="49.75587" lon="4.7182">
        <ele>150.2</ele>
        <time>2020-06-25T09:37:10Z</time>
      </trkpt>
      <trkpt lat="49.75582" lon="4.71818">
        <ele>150.4</ele>
        <time>2020-06-25T09:37:11Z</time>
      </trkpt>
      <trkpt lat="49.75577" lon="4.71817">
        <ele>150.5</ele>
        <time>2020-06-25T09:37:12Z</time>
      </trkpt>
      <trkpt lat="49.75573" lon="4.71816">
        <ele>150.6</ele>
        <time>2020-06-25T09:37:13Z</time>
      </trkpt>
      <trkpt lat="49.75569" lon="4.71816">
        <ele>150.7</ele>
        <time>2020-06-25T09:37:14Z</time>
      </trkpt>
      <trkpt lat="49.75565" lon="4.71817">
        <ele>151</ele>
        <time>2020-06-25T09:37:15Z</time>
      </trkpt>
      <trkpt lat="49.75561" lon="4.71818">
        <ele>151.3</ele>
        <time>2020-06-25T09:37:16Z</time>
      </trkpt>
      <trkpt lat="49.75557" lon="4.71818">
        <ele>151.5</ele>
        <time>2020-06-25T09:37:17Z</time>
      </trkpt>
      <trkpt lat="49.75553" lon="4.71819">
        <ele>151.7</ele>
        <time>2020-06-25T09:37:18Z</time>
      </trkpt>
      <trkpt lat="49.7555" lon="4.71818">
        <ele>151.9</ele>
        <time>2020-06-25T09:37:19Z</time>
      </trkpt>
      <trkpt lat="49.75545" lon="4.71817">
        <ele>152.2</ele>
        <time>2020-06-25T09:37:20Z</time>
      </trkpt>
      <trkpt lat="49.75542" lon="4.71816">
        <ele>152.4</ele>
        <time>2020-06-25T09:37:21Z</time>
      </trkpt>
      <trkpt lat="49.75539" lon="4.71816">
        <ele>152.5</ele>
        <time>2020-06-25T09:37:22Z</time>
      </trkpt>
      <trkpt lat="49.75535" lon="4.71817">
        <ele>152.7</ele>
        <time>2020-06-25T09:37:23Z</time>
      </trkpt>
      <trkpt lat="49.75531" lon="4.71819">
        <ele>152.9</ele>
        <time>2020-06-25T09:37:24Z</time>
      </trkpt>
      <trkpt lat="49.75528" lon="4.71819">
        <ele>153.3</ele>
        <time>2020-06-25T09:37:25Z</time>
      </trkpt>
      <trkpt lat="49.75527" lon="4.71819">
        <ele>153.3</ele>
        <time>2020-06-25T09:37:26Z</time>
      </trkpt>
      <trkpt lat="49.75525" lon="4.7182">
        <ele>153.3</ele>
        <time>2020-06-25T09:37:27Z</time>
      </trkpt>
      <trkpt lat="49.75524" lon="4.71821">
        <ele>153.3</ele>
        <time>2020-06-25T09:37:28Z</time>
      </trkpt>
      <trkpt lat="49.75524" lon="4.7182">
        <ele>153.2</ele>
        <time>2020-06-25T09:37:29Z</time>
      </trkpt>
      <trkpt lat="49.75524" lon="4.71819">
        <ele>153.2</ele>
        <time>2020-06-25T09:37:30Z</time>
      </trkpt>
      <trkpt lat="49.75524" lon="4.71818">
        <ele>153.2</ele>
        <time>2020-06-25T09:37:31Z</time>
      </trkpt>
      <trkpt lat="49.75525" lon="4.71817">
        <ele>153.2</ele>
        <time>2020-06-25T09:37:32Z</time>
      </trkpt>
      <trkpt lat="49.75525" lon="4.71816">
        <ele>153.2</ele>
        <time>2020-06-25T09:37:33Z</time>
      </trkpt>
      <trkpt lat="49.75525" lon="4.71816">
        <ele>153.2</ele>
        <time>2020-06-25T09:37:34Z</time>
      </trkpt>
      <trkpt lat="49.75526" lon="4.71815">
        <ele>153.2</ele>
        <time>2020-06-25T09:37:35Z</time>
      </trkpt>
      <trkpt lat="49.75526" lon="4.71814">
        <ele>153.2</ele>
        <time>2020-06-25T09:37:36Z</time>
      </trkpt>
      <trkpt lat="49.75526" lon="4.71813">
        <ele>153.2</ele>
        <time>2020-06-25T09:37:37Z</time>
      </trkpt>
      <trkpt lat="49.75526" lon="4.71812">
        <ele>153.1</ele>
        <time>2020-06-25T09:37:38Z</time>
      </trkpt>
      <trkpt lat="49.75527" lon="4.71811">
        <ele>153.1</ele>
        <time>2020-06-25T09:37:39Z</time>
      </trkpt>
      <trkpt lat="49.75527" lon="4.7181">
        <ele>153.1</ele>
        <time>2020-06-25T09:37:50Z</time>
      </trkpt>
      <trkpt lat="49.75527" lon="4.71809">
        <ele>153.1</ele>
        <time>2020-06-25T09:37:51Z</time>
      </trkpt>
      <trkpt lat="49.75528" lon="4.71806">
        <ele>153.1</ele>
        <time>2020-06-25T09:37:52Z</time>
      </trkpt>
      <trkpt lat="49.75528" lon="4.71804">
        <ele>153.1</ele>
        <time>2020-06-25T09:37:53Z</time>
      </trkpt>
      <trkpt lat="49.75529" lon="4.71804">
        <ele>153</ele>
        <time>2020-06-25T09:37:54Z</time>
      </trkpt>
      <trkpt lat="49.75529" lon="4.71803">
        <ele>153</ele>
        <time>2020-06-25T09:37:55Z</time>
      </trkpt>
      <trkpt lat="49.75529" lon="4.71803">
        <ele>153</ele>
        <time>2020-06-25T09:37:56Z</time>
      </trkpt>
      <trkpt lat="49.75529" lon="4.71802">
        <ele>153</ele>
        <time>2020-06-25T09:37:57Z</time>
      </trkpt>
      <trkpt lat="49.75529" lon="4.71801">
        <ele>153</ele>
        <time>2020-06-25T09:37:58Z</time>
      </trkpt>
      <trkpt lat="49.75529" lon="4.71799">
        <ele>153</ele>
        <time>2020-06-25T09:37:59Z</time>
      </trkpt>
      <trkpt lat="49.75529" lon="4.71796">
        <ele>153</ele>
        <time>2020-06-25T09:38:00Z</time>
      </trkpt>
      <trkpt lat="49.75529" lon="4.71794">
        <ele>152.9</ele>
        <time>2020-06-25T09:38:01Z</time>
      </trkpt>
      <trkpt lat="49.75531" lon="4.7179">
        <ele>152.9</ele>
        <time>2020-06-25T09:38:02Z</time>
      </trkpt>
      <trkpt lat="49.75531" lon="4.71788">
        <ele>152.9</ele>
        <time>2020-06-25T09:38:03Z</time>
      </trkpt>
      <trkpt lat="49.75531" lon="4.71783">
        <ele>152.8</ele>
        <time>2020-06-25T09:38:04Z</time>
      </trkpt>
      <trkpt lat="49.75531" lon="4.71777">
        <ele>152.7</ele>
        <time>2020-06-25T09:38:05Z</time>
      </trkpt>
      <trkpt lat="49.75531" lon="4.7177">
        <ele>152.6</ele>
        <time>2020-06-25T09:38:06Z</time>
      </trkpt>
      <trkpt lat="49.75532" lon="4.71762">
        <ele>152.5</ele>
        <time>2020-06-25T09:38:07Z</time>
      </trkpt>
      <trkpt lat="49.75534" lon="4.71755">
        <ele>152.4</ele>
        <time>2020-06-25T09:38:08Z</time>
      </trkpt>
      <trkpt lat="49.75535" lon="4.71746">
        <ele>152.3</ele>
        <time>2020-06-25T09:38:09Z</time>
      </trkpt>
      <trkpt lat="49.75536" lon="4.71738">
        <ele>152.1</ele>
        <time>2020-06-25T09:38:10Z</time>
      </trkpt>
      <trkpt lat="49.75538" lon="4.71731">
        <ele>152</ele>
        <time>2020-06-25T09:38:11Z</time>
      </trkpt>
      <trkpt lat="49.75539" lon="4.71721">
        <ele>151.9</ele>
        <time>2020-06-25T09:38:12Z</time>
      </trkpt>
      <trkpt lat="49.75539" lon="4.71714">
        <ele>151.9</ele>
        <time>2020-06-25T09:38:13Z</time>
      </trkpt>
      <trkpt lat="49.7554" lon="4.71705">
        <ele>151.7</ele>
        <time>2020-06-25T09:38:14Z</time>
      </trkpt>
      <trkpt lat="49.75541" lon="4.71695">
        <ele>151.6</ele>
        <time>2020-06-25T09:38:15Z</time>
      </trkpt>
      <trkpt lat="49.75541" lon="4.71686">
        <ele>151.5</ele>
        <time>2020-06-25T09:38:16Z</time>
      </trkpt>
      <trkpt lat="49.75541" lon="4.71677">
        <ele>151.4</ele>
        <time>2020-06-25T09:38:17Z</time>
      </trkpt>
      <trkpt lat="49.75541" lon="4.71669">
        <ele>151.5</ele>
        <time>2020-06-25T09:38:18Z</time>
      </trkpt>
      <trkpt lat="49.75539" lon="4.71662">
        <ele>151.6</ele>
        <time>2020-06-25T09:38:19Z</time>
      </trkpt>
      <trkpt lat="49.75538" lon="4.71655">
        <ele>151.6</ele>
        <time>2020-06-25T09:38:20Z</time>
      </trkpt>
      <trkpt lat="49.75535" lon="4.71646">
        <ele>151.7</ele>
        <time>2020-06-25T09:38:21Z</time>
      </trkpt>
      <trkpt lat="49.75533" lon="4.71639">
        <ele>151.8</ele>
        <time>2020-06-25T09:38:22Z</time>
      </trkpt>
      <trkpt lat="49.7553" lon="4.7163">
        <ele>151.9</ele>
        <time>2020-06-25T09:38:23Z</time>
      </trkpt>
      <trkpt lat="49.75527" lon="4.71621">
        <ele>151.9</ele>
        <time>2020-06-25T09:38:24Z</time>
      </trkpt>
      <trkpt lat="49.75524" lon="4.71612">
        <ele>152.1</ele>
        <time>2020-06-25T09:38:25Z</time>
      </trkpt>
      <trkpt lat="49.75521" lon="4.71603">
        <ele>152.1</ele>
        <time>2020-06-25T09:38:26Z</time>
      </trkpt>
      <trkpt lat="49.7552" lon="4.71593">
        <ele>152.2</ele>
        <time>2020-06-25T09:38:27Z</time>
      </trkpt>
      <trkpt lat="49.75518" lon="4.71583">
        <ele>152.3</ele>
        <time>2020-06-25T09:38:28Z</time>
      </trkpt>
      <trkpt lat="49.75517" lon="4.71573">
        <ele>152.4</ele>
        <time>2020-06-25T09:38:29Z</time>
      </trkpt>
      <trkpt lat="49.75515" lon="4.71562">
        <ele>152.5</ele>
        <time>2020-06-25T09:38:30Z</time>
      </trkpt>
      <trkpt lat="49.75514" lon="4.71554">
        <ele>152.6</ele>
        <time>2020-06-25T09:38:31Z</time>
      </trkpt>
      <trkpt lat="49.75515" lon="4.71545">
        <ele>152.7</ele>
        <time>2020-06-25T09:38:32Z</time>
      </trkpt>
      <trkpt lat="49.75513" lon="4.71536">
        <ele>152.8</ele>
        <time>2020-06-25T09:38:33Z</time>
      </trkpt>
      <trkpt lat="49.75513" lon="4.71528">
        <ele>152.8</ele>
        <time>2020-06-25T09:38:34Z</time>
      </trkpt>
      <trkpt lat="49.75511" lon="4.7152">
        <ele>152.9</ele>
        <time>2020-06-25T09:38:35Z</time>
      </trkpt>
      <trkpt lat="49.7551" lon="4.71512">
        <ele>153</ele>
        <time>2020-06-25T09:38:36Z</time>
      </trkpt>
      <trkpt lat="49.75508" lon="4.71504">
        <ele>153</ele>
        <time>2020-06-25T09:38:37Z</time>
      </trkpt>
      <trkpt lat="49.75507" lon="4.71495">
        <ele>153.1</ele>
        <time>2020-06-25T09:38:38Z</time>
      </trkpt>
      <trkpt lat="49.75506" lon="4.71488">
        <ele>153.2</ele>
        <time>2020-06-25T09:38:39Z</time>
      </trkpt>
      <trkpt lat="49.75504" lon="4.7148">
        <ele>153.2</ele>
        <time>2020-06-25T09:38:40Z</time>
      </trkpt>
      <trkpt lat="49.75503" lon="4.71472">
        <ele>153.3</ele>
        <time>2020-06-25T09:38:41Z</time>
      </trkpt>
      <trkpt lat="49.75502" lon="4.71463">
        <ele>153.4</ele>
        <time>2020-06-25T09:38:42Z</time>
      </trkpt>
      <trkpt lat="49.75501" lon="4.71454">
        <ele>153.4</ele>
        <time>2020-06-25T09:38:43Z</time>
      </trkpt>
      <trkpt lat="49.755" lon="4.71446">
        <ele>153.4</ele>
        <time>2020-06-25T09:38:44Z</time>
      </trkpt>
      <trkpt lat="49.75499" lon="4.71437">
        <ele>153.5</ele>
        <time>2020-06-25T09:38:45Z</time>
      </trkpt>
      <trkpt lat="49.75499" lon="4.71428">
        <ele>153.6</ele>
        <time>2020-06-25T09:38:46Z</time>
      </trkpt>
      <trkpt lat="49.75498" lon="4.71419">
        <ele>153.7</ele>
        <time>2020-06-25T09:38:47Z</time>
      </trkpt>
      <trkpt lat="49.75498" lon="4.71409">
        <ele>153.8</ele>
        <time>2020-06-25T09:38:48Z</time>
      </trkpt>
      <trkpt lat="49.75497" lon="4.714">
        <ele>153.9</ele>
        <time>2020-06-25T09:38:49Z</time>
      </trkpt>
      <trkpt lat="49.75496" lon="4.71392">
        <ele>154.1</ele>
        <time>2020-06-25T09:38:50Z</time>
      </trkpt>
      <trkpt lat="49.75496" lon="4.71383">
        <ele>154.2</ele>
        <time>2020-06-25T09:38:51Z</time>
      </trkpt>
      <trkpt lat="49.75495" lon="4.71374">
        <ele>154.4</ele>
        <time>2020-06-25T09:38:52Z</time>
      </trkpt>
      <trkpt lat="49.75494" lon="4.71366">
        <ele>154.6</ele>
        <time>2020-06-25T09:38:53Z</time>
      </trkpt>
      <trkpt lat="49.75492" lon="4.71358">
        <ele>154.7</ele>
        <time>2020-06-25T09:38:54Z</time>
      </trkpt>
      <trkpt lat="49.75492" lon="4.71349">
        <ele>154.9</ele>
        <time>2020-06-25T09:38:55Z</time>
      </trkpt>
      <trkpt lat="49.75491" lon="4.7134">
        <ele>155.1</ele>
        <time>2020-06-25T09:38:56Z</time>
      </trkpt>
      <trkpt lat="49.75491" lon="4.71332">
        <ele>155.2</ele>
        <time>2020-06-25T09:38:57Z</time>
      </trkpt>
      <trkpt lat="49.7549" lon="4.71324">
        <ele>155.4</ele>
        <time>2020-06-25T09:38:58Z</time>
      </trkpt>
      <trkpt lat="49.7549" lon="4.71316">
        <ele>155.6</ele>
        <time>2020-06-25T09:38:59Z</time>
      </trkpt>
      <trkpt lat="49.75489" lon="4.71307">
        <ele>155.8</ele>
        <time>2020-06-25T09:39:00Z</time>
      </trkpt>
      <trkpt lat="49.75489" lon="4.713">
        <ele>155.9</ele>
        <time>2020-06-25T09:39:01Z</time>
      </trkpt>
      <trkpt lat="49.75487" lon="4.71292">
        <ele>156</ele>
        <time>2020-06-25T09:39:02Z</time>
      </trkpt>
      <trkpt lat="49.75487" lon="4.71286">
        <ele>156.1</ele>
        <time>2020-06-25T09:39:03Z</time>
      </trkpt>
      <trkpt lat="49.75487" lon="4.7128">
        <ele>156.2</ele>
        <time>2020-06-25T09:39:04Z</time>
      </trkpt>
      <trkpt lat="49.75486" lon="4.71274">
        <ele>156.3</ele>
        <time>2020-06-25T09:39:05Z</time>
      </trkpt>
      <trkpt lat="49.75485" lon="4.71268">
        <ele>156.4</ele>
        <time>2020-06-25T09:39:06Z</time>
      </trkpt>
      <trkpt lat="49.75484" lon="4.71262">
        <ele>156.5</ele>
        <time>2020-06-25T09:39:07Z</time>
      </trkpt>
      <trkpt lat="49.75484" lon="4.71257">
        <ele>156.6</ele>
        <time>2020-06-25T09:39:08Z</time>
      </trkpt>
      <trkpt lat="49.75485" lon="4.7125">
        <ele>156.7</ele>
        <time>2020-06-25T09:39:09Z</time>
      </trkpt>
      <trkpt lat="49.75485" lon="4.71244">
        <ele>156.7</ele>
        <time>2020-06-25T09:39:10Z</time>
      </trkpt>
      <trkpt lat="49.75486" lon="4.71237">
        <ele>156.8</ele>
        <time>2020-06-25T09:39:11Z</time>
      </trkpt>
      <trkpt lat="49.75486" lon="4.7123">
        <ele>156.9</ele>
        <time>2020-06-25T09:39:12Z</time>
      </trkpt>
      <trkpt lat="49.75486" lon="4.71222">
        <ele>156.9</ele>
        <time>2020-06-25T09:39:13Z</time>
      </trkpt>
      <trkpt lat="49.75487" lon="4.71215">
        <ele>157</ele>
        <time>2020-06-25T09:39:14Z</time>
      </trkpt>
      <trkpt lat="49.75488" lon="4.71207">
        <ele>157.1</ele>
        <time>2020-06-25T09:39:15Z</time>
      </trkpt>
      <trkpt lat="49.75489" lon="4.71199">
        <ele>157.2</ele>
        <time>2020-06-25T09:39:16Z</time>
      </trkpt>
      <trkpt lat="49.7549" lon="4.71191">
        <ele>157.3</ele>
        <time>2020-06-25T09:39:17Z</time>
      </trkpt>
      <trkpt lat="49.75491" lon="4.71184">
        <ele>157.4</ele>
        <time>2020-06-25T09:39:18Z</time>
      </trkpt>
      <trkpt lat="49.75492" lon="4.71177">
        <ele>157.4</ele>
        <time>2020-06-25T09:39:19Z</time>
      </trkpt>
      <trkpt lat="49.75493" lon="4.71169">
        <ele>157.5</ele>
        <time>2020-06-25T09:39:20Z</time>
      </trkpt>
      <trkpt lat="49.75494" lon="4.71161">
        <ele>157.5</ele>
        <time>2020-06-25T09:39:21Z</time>
      </trkpt>
      <trkpt lat="49.75496" lon="4.71154">
        <ele>157.6</ele>
        <time>2020-06-25T09:39:22Z</time>
      </trkpt>
      <trkpt lat="49.75497" lon="4.71145">
        <ele>157.6</ele>
        <time>2020-06-25T09:39:23Z</time>
      </trkpt>
      <trkpt lat="49.75498" lon="4.71137">
        <ele>157.6</ele>
        <time>2020-06-25T09:39:24Z</time>
      </trkpt>
      <trkpt lat="49.75499" lon="4.71129">
        <ele>157.6</ele>
        <time>2020-06-25T09:39:25Z</time>
      </trkpt>
      <trkpt lat="49.75501" lon="4.71122">
        <ele>157.5</ele>
        <time>2020-06-25T09:39:26Z</time>
      </trkpt>
      <trkpt lat="49.75502" lon="4.71115">
        <ele>157.5</ele>
        <time>2020-06-25T09:39:27Z</time>
      </trkpt>
      <trkpt lat="49.75503" lon="4.71108">
        <ele>157.5</ele>
        <time>2020-06-25T09:39:28Z</time>
      </trkpt>
      <trkpt lat="49.75504" lon="4.71101">
        <ele>157.5</ele>
        <time>2020-06-25T09:39:29Z</time>
      </trkpt>
      <trkpt lat="49.75505" lon="4.71094">
        <ele>157.4</ele>
        <time>2020-06-25T09:39:30Z</time>
      </trkpt>
      <trkpt lat="49.75506" lon="4.71086">
        <ele>157.3</ele>
        <time>2020-06-25T09:39:31Z</time>
      </trkpt>
      <trkpt lat="49.75508" lon="4.71078">
        <ele>157.2</ele>
        <time>2020-06-25T09:39:32Z</time>
      </trkpt>
      <trkpt lat="49.75508" lon="4.71068">
        <ele>157.1</ele>
        <time>2020-06-25T09:39:33Z</time>
      </trkpt>
      <trkpt lat="49.7551" lon="4.7106">
        <ele>157</ele>
        <time>2020-06-25T09:39:34Z</time>
      </trkpt>
      <trkpt lat="49.75511" lon="4.71052">
        <ele>156.8</ele>
        <time>2020-06-25T09:39:35Z</time>
      </trkpt>
      <trkpt lat="49.75513" lon="4.71043">
        <ele>156.7</ele>
        <time>2020-06-25T09:39:36Z</time>
      </trkpt>
      <trkpt lat="49.75514" lon="4.71034">
        <ele>156.5</ele>
        <time>2020-06-25T09:39:37Z</time>
      </trkpt>
      <trkpt lat="49.75516" lon="4.71024">
        <ele>156.3</ele>
        <time>2020-06-25T09:39:38Z</time>
      </trkpt>
      <trkpt lat="49.75516" lon="4.71016">
        <ele>156.1</ele>
        <time>2020-06-25T09:39:39Z</time>
      </trkpt>
      <trkpt lat="49.7552" lon="4.71009">
        <ele>156</ele>
        <time>2020-06-25T09:39:40Z</time>
      </trkpt>
      <trkpt lat="49.75521" lon="4.71">
        <ele>155.8</ele>
        <time>2020-06-25T09:39:41Z</time>
      </trkpt>
      <trkpt lat="49.75523" lon="4.70992">
        <ele>155.7</ele>
        <time>2020-06-25T09:39:42Z</time>
      </trkpt>
      <trkpt lat="49.75524" lon="4.70984">
        <ele>155.5</ele>
        <time>2020-06-25T09:39:43Z</time>
      </trkpt>
      <trkpt lat="49.75526" lon="4.70974">
        <ele>155.2</ele>
        <time>2020-06-25T09:39:44Z</time>
      </trkpt>
      <trkpt lat="49.7553" lon="4.70964">
        <ele>154.9</ele>
        <time>2020-06-25T09:39:45Z</time>
      </trkpt>
      <trkpt lat="49.75532" lon="4.70955">
        <ele>154.6</ele>
        <time>2020-06-25T09:39:46Z</time>
      </trkpt>
      <trkpt lat="49.75534" lon="4.70944">
        <ele>154.4</ele>
        <time>2020-06-25T09:39:47Z</time>
      </trkpt>
      <trkpt lat="49.75535" lon="4.70935">
        <ele>154.2</ele>
        <time>2020-06-25T09:39:48Z</time>
      </trkpt>
      <trkpt lat="49.75537" lon="4.70923">
        <ele>153.9</ele>
        <time>2020-06-25T09:39:49Z</time>
      </trkpt>
      <trkpt lat="49.75538" lon="4.70912">
        <ele>153.6</ele>
        <time>2020-06-25T09:39:50Z</time>
      </trkpt>
      <trkpt lat="49.75539" lon="4.709">
        <ele>153.2</ele>
        <time>2020-06-25T09:39:51Z</time>
      </trkpt>
      <trkpt lat="49.7554" lon="4.70887">
        <ele>152.8</ele>
        <time>2020-06-25T09:39:52Z</time>
      </trkpt>
      <trkpt lat="49.75543" lon="4.70877">
        <ele>152.4</ele>
        <time>2020-06-25T09:39:53Z</time>
      </trkpt>
      <trkpt lat="49.75545" lon="4.70867">
        <ele>152</ele>
        <time>2020-06-25T09:39:54Z</time>
      </trkpt>
      <trkpt lat="49.75546" lon="4.70857">
        <ele>151.7</ele>
        <time>2020-06-25T09:39:55Z</time>
      </trkpt>
      <trkpt lat="49.75548" lon="4.70847">
        <ele>151.3</ele>
        <time>2020-06-25T09:39:56Z</time>
      </trkpt>
      <trkpt lat="49.7555" lon="4.70836">
        <ele>150.9</ele>
        <time>2020-06-25T09:39:57Z</time>
      </trkpt>
      <trkpt lat="49.75552" lon="4.70825">
        <ele>150.2</ele>
        <time>2020-06-25T09:39:58Z</time>
      </trkpt>
      <trkpt lat="49.75554" lon="4.70814">
        <ele>150.1</ele>
        <time>2020-06-25T09:39:59Z</time>
      </trkpt>
      <trkpt lat="49.75556" lon="4.70803">
        <ele>150</ele>
        <time>2020-06-25T09:40:00Z</time>
      </trkpt>
      <trkpt lat="49.75557" lon="4.70792">
        <ele>149.9</ele>
        <time>2020-06-25T09:40:01Z</time>
      </trkpt>
      <trkpt lat="49.75559" lon="4.70781">
        <ele>149.7</ele>
        <time>2020-06-25T09:40:02Z</time>
      </trkpt>
      <trkpt lat="49.7556" lon="4.70769">
        <ele>149.6</ele>
        <time>2020-06-25T09:40:03Z</time>
      </trkpt>
      <trkpt lat="49.75561" lon="4.70759">
        <ele>149.5</ele>
        <time>2020-06-25T09:40:04Z</time>
      </trkpt>
      <trkpt lat="49.75561" lon="4.70748">
        <ele>149.4</ele>
        <time>2020-06-25T09:40:05Z</time>
      </trkpt>
      <trkpt lat="49.75562" lon="4.70737">
        <ele>149.3</ele>
        <time>2020-06-25T09:40:06Z</time>
      </trkpt>
      <trkpt lat="49.75563" lon="4.70725">
        <ele>149.2</ele>
        <time>2020-06-25T09:40:07Z</time>
      </trkpt>
      <trkpt lat="49.75563" lon="4.70714">
        <ele>149.1</ele>
        <time>2020-06-25T09:40:08Z</time>
      </trkpt>
      <trkpt lat="49.75563" lon="4.70703">
        <ele>149.1</ele>
        <time>2020-06-25T09:40:09Z</time>
      </trkpt>
      <trkpt lat="49.75563" lon="4.70692">
        <ele>149</ele>
        <time>2020-06-25T09:40:10Z</time>
      </trkpt>
      <trkpt lat="49.75563" lon="4.70682">
        <ele>149</ele>
        <time>2020-06-25T09:40:11Z</time>
      </trkpt>
      <trkpt lat="49.75563" lon="4.70672">
        <ele>149</ele>
        <time>2020-06-25T09:40:12Z</time>
      </trkpt>
      <trkpt lat="49.75562" lon="4.70663">
        <ele>148.9</ele>
        <time>2020-06-25T09:40:13Z</time>
      </trkpt>
      <trkpt lat="49.75562" lon="4.70653">
        <ele>148.8</ele>
        <time>2020-06-25T09:40:14Z</time>
      </trkpt>
      <trkpt lat="49.75561" lon="4.70643">
        <ele>148.8</ele>
        <time>2020-06-25T09:40:15Z</time>
      </trkpt>
      <trkpt lat="49.7556" lon="4.70633">
        <ele>148.8</ele>
        <time>2020-06-25T09:40:16Z</time>
      </trkpt>
      <trkpt lat="49.75559" lon="4.70624">
        <ele>148.8</ele>
        <time>2020-06-25T09:40:17Z</time>
      </trkpt>
      <trkpt lat="49.75558" lon="4.70614">
        <ele>148.8</ele>
        <time>2020-06-25T09:40:18Z</time>
      </trkpt>
      <trkpt lat="49.75557" lon="4.70604">
        <ele>148.8</ele>
        <time>2020-06-25T09:40:19Z</time>
      </trkpt>
      <trkpt lat="49.75556" lon="4.70594">
        <ele>148.8</ele>
        <time>2020-06-25T09:40:20Z</time>
      </trkpt>
      <trkpt lat="49.75555" lon="4.70584">
        <ele>148.8</ele>
        <time>2020-06-25T09:40:21Z</time>
      </trkpt>
      <trkpt lat="49.75554" lon="4.70575">
        <ele>148.9</ele>
        <time>2020-06-25T09:40:22Z</time>
      </trkpt>
      <trkpt lat="49.75554" lon="4.70565">
        <ele>148.9</ele>
        <time>2020-06-25T09:40:23Z</time>
      </trkpt>
      <trkpt lat="49.75553" lon="4.70556">
        <ele>149</ele>
        <time>2020-06-25T09:40:24Z</time>
      </trkpt>
      <trkpt lat="49.75552" lon="4.70547">
        <ele>149</ele>
        <time>2020-06-25T09:40:25Z</time>
      </trkpt>
      <trkpt lat="49.75551" lon="4.70537">
        <ele>148.9</ele>
        <time>2020-06-25T09:40:26Z</time>
      </trkpt>
      <trkpt lat="49.7555" lon="4.70528">
        <ele>148.9</ele>
        <time>2020-06-25T09:40:27Z</time>
      </trkpt>
      <trkpt lat="49.7555" lon="4.70518">
        <ele>148.9</ele>
        <time>2020-06-25T09:40:28Z</time>
      </trkpt>
      <trkpt lat="49.75549" lon="4.70509">
        <ele>149</ele>
        <time>2020-06-25T09:40:29Z</time>
      </trkpt>
      <trkpt lat="49.75548" lon="4.705">
        <ele>149</ele>
        <time>2020-06-25T09:40:30Z</time>
      </trkpt>
      <trkpt lat="49.75547" lon="4.70491">
        <ele>149</ele>
        <time>2020-06-25T09:40:31Z</time>
      </trkpt>
      <trkpt lat="49.75546" lon="4.70482">
        <ele>149.1</ele>
        <time>2020-06-25T09:40:32Z</time>
      </trkpt>
      <trkpt lat="49.75545" lon="4.70475">
        <ele>149.1</ele>
        <time>2020-06-25T09:40:33Z</time>
      </trkpt>
      <trkpt lat="49.75546" lon="4.70468">
        <ele>149.2</ele>
        <time>2020-06-25T09:40:34Z</time>
      </trkpt>
      <trkpt lat="49.75546" lon="4.70461">
        <ele>149.2</ele>
        <time>2020-06-25T09:40:35Z</time>
      </trkpt>
      <trkpt lat="49.75548" lon="4.70454">
        <ele>149.2</ele>
        <time>2020-06-25T09:40:36Z</time>
      </trkpt>
      <trkpt lat="49.7555" lon="4.70447">
        <ele>149.3</ele>
        <time>2020-06-25T09:40:37Z</time>
      </trkpt>
      <trkpt lat="49.75551" lon="4.70439">
        <ele>149.3</ele>
        <time>2020-06-25T09:40:38Z</time>
      </trkpt>
      <trkpt lat="49.75552" lon="4.7043">
        <ele>149.3</ele>
        <time>2020-06-25T09:40:39Z</time>
      </trkpt>
      <trkpt lat="49.75552" lon="4.70422">
        <ele>149.3</ele>
        <time>2020-06-25T09:40:40Z</time>
      </trkpt>
      <trkpt lat="49.75549" lon="4.70415">
        <ele>149.3</ele>
        <time>2020-06-25T09:40:41Z</time>
      </trkpt>
      <trkpt lat="49.75546" lon="4.7041">
        <ele>149.4</ele>
        <time>2020-06-25T09:40:42Z</time>
      </trkpt>
      <trkpt lat="49.75542" lon="4.70406">
        <ele>149.5</ele>
        <time>2020-06-25T09:40:43Z</time>
      </trkpt>
      <trkpt lat="49.75537" lon="4.70404">
        <ele>149.7</ele>
        <time>2020-06-25T09:40:44Z</time>
      </trkpt>
      <trkpt lat="49.75532" lon="4.70404">
        <ele>149.9</ele>
        <time>2020-06-25T09:40:45Z</time>
      </trkpt>
      <trkpt lat="49.75528" lon="4.70406">
        <ele>150.1</ele>
        <time>2020-06-25T09:40:46Z</time>
      </trkpt>
      <trkpt lat="49.75525" lon="4.70411">
        <ele>150.2</ele>
        <time>2020-06-25T09:40:47Z</time>
      </trkpt>
      <trkpt lat="49.75521" lon="4.70415">
        <ele>150.3</ele>
        <time>2020-06-25T09:40:48Z</time>
      </trkpt>
      <trkpt lat="49.75519" lon="4.70422">
        <ele>150.4</ele>
        <time>2020-06-25T09:40:49Z</time>
      </trkpt>
      <trkpt lat="49.75518" lon="4.70428">
        <ele>150.3</ele>
        <time>2020-06-25T09:40:50Z</time>
      </trkpt>
      <trkpt lat="49.75518" lon="4.70433">
        <ele>150.3</ele>
        <time>2020-06-25T09:40:51Z</time>
      </trkpt>
      <trkpt lat="49.75517" lon="4.70438">
        <ele>150.4</ele>
        <time>2020-06-25T09:40:52Z</time>
      </trkpt>
      <trkpt lat="49.75516" lon="4.70439">
        <ele>150.4</ele>
        <time>2020-06-25T09:40:53Z</time>
      </trkpt>
      <trkpt lat="49.75515" lon="4.7044">
        <ele>150.4</ele>
        <time>2020-06-25T09:40:54Z</time>
      </trkpt>
      <trkpt lat="49.75513" lon="4.70439">
        <ele>150.5</ele>
        <time>2020-06-25T09:40:55Z</time>
      </trkpt>
      <trkpt lat="49.75509" lon="4.70438">
        <ele>150.6</ele>
        <time>2020-06-25T09:40:56Z</time>
      </trkpt>
      <trkpt lat="49.75508" lon="4.70438">
        <ele>150.6</ele>
        <time>2020-06-25T09:40:57Z</time>
      </trkpt>
      <trkpt lat="49.75504" lon="4.70437">
        <ele>150.7</ele>
        <time>2020-06-25T09:40:58Z</time>
      </trkpt>
      <trkpt lat="49.75503" lon="4.70437">
        <ele>150.7</ele>
        <time>2020-06-25T09:40:59Z</time>
      </trkpt>
      <trkpt lat="49.755" lon="4.70437">
        <ele>150.8</ele>
        <time>2020-06-25T09:41:00Z</time>
      </trkpt>
      <trkpt lat="49.75497" lon="4.70437">
        <ele>150.9</ele>
        <time>2020-06-25T09:41:01Z</time>
      </trkpt>
      <trkpt lat="49.75494" lon="4.70437">
        <ele>151</ele>
        <time>2020-06-25T09:41:02Z</time>
      </trkpt>
      <trkpt lat="49.75491" lon="4.70437">
        <ele>151.1</ele>
        <time>2020-06-25T09:41:03Z</time>
      </trkpt>
      <trkpt lat="49.75488" lon="4.70437">
        <ele>151.2</ele>
        <time>2020-06-25T09:41:04Z</time>
      </trkpt>
      <trkpt lat="49.75484" lon="4.70436">
        <ele>151.4</ele>
        <time>2020-06-25T09:41:05Z</time>
      </trkpt>
      <trkpt lat="49.75481" lon="4.70436">
        <ele>151.5</ele>
        <time>2020-06-25T09:41:06Z</time>
      </trkpt>
      <trkpt lat="49.75477" lon="4.70436">
        <ele>151.7</ele>
        <time>2020-06-25T09:41:07Z</time>
      </trkpt>
      <trkpt lat="49.75475" lon="4.70436">
        <ele>151.7</ele>
        <time>2020-06-25T09:41:08Z</time>
      </trkpt>
      <trkpt lat="49.75472" lon="4.70437">
        <ele>151.8</ele>
        <time>2020-06-25T09:41:09Z</time>
      </trkpt>
      <trkpt lat="49.75471" lon="4.70438">
        <ele>151.8</ele>
        <time>2020-06-25T09:41:10Z</time>
      </trkpt>
      <trkpt lat="49.75468" lon="4.7044">
        <ele>151.9</ele>
        <time>2020-06-25T09:41:11Z</time>
      </trkpt>
      <trkpt lat="49.75468" lon="4.70442">
        <ele>151.9</ele>
        <time>2020-06-25T09:41:12Z</time>
      </trkpt>
      <trkpt lat="49.75466" lon="4.70447">
        <ele>151.9</ele>
        <time>2020-06-25T09:41:13Z</time>
      </trkpt>
      <trkpt lat="49.75466" lon="4.70449">
        <ele>151.9</ele>
        <time>2020-06-25T09:41:14Z</time>
      </trkpt>
      <trkpt lat="49.75465" lon="4.70454">
        <ele>152</ele>
        <time>2020-06-25T09:41:15Z</time>
      </trkpt>
      <trkpt lat="49.75464" lon="4.7046">
        <ele>152.6</ele>
        <time>2020-06-25T09:41:16Z</time>
      </trkpt>
      <trkpt lat="49.75461" lon="4.70463">
        <ele>152.6</ele>
        <time>2020-06-25T09:41:17Z</time>
      </trkpt>
      <trkpt lat="49.75459" lon="4.70465">
        <ele>152.6</ele>
        <time>2020-06-25T09:41:18Z</time>
      </trkpt>
      <trkpt lat="49.75456" lon="4.70465">
        <ele>152.7</ele>
        <time>2020-06-25T09:41:19Z</time>
      </trkpt>
      <trkpt lat="49.75451" lon="4.70465">
        <ele>152.7</ele>
        <time>2020-06-25T09:41:20Z</time>
      </trkpt>
      <trkpt lat="49.75449" lon="4.70465">
        <ele>152.7</ele>
        <time>2020-06-25T09:41:21Z</time>
      </trkpt>
      <trkpt lat="49.75446" lon="4.70466">
        <ele>152.7</ele>
        <time>2020-06-25T09:41:22Z</time>
      </trkpt>
      <trkpt lat="49.75442" lon="4.70467">
        <ele>152.8</ele>
        <time>2020-06-25T09:41:23Z</time>
      </trkpt>
      <trkpt lat="49.75439" lon="4.70468">
        <ele>152.8</ele>
        <time>2020-06-25T09:41:24Z</time>
      </trkpt>
      <trkpt lat="49.75436" lon="4.70468">
        <ele>152.8</ele>
        <time>2020-06-25T09:41:25Z</time>
      </trkpt>
      <trkpt lat="49.75432" lon="4.70469">
        <ele>152.9</ele>
        <time>2020-06-25T09:41:26Z</time>
      </trkpt>
      <trkpt lat="49.75431" lon="4.70469">
        <ele>152.9</ele>
        <time>2020-06-25T09:41:27Z</time>
      </trkpt>
      <trkpt lat="49.75428" lon="4.7047">
        <ele>152.9</ele>
        <time>2020-06-25T09:41:28Z</time>
      </trkpt>
      <trkpt lat="49.75427" lon="4.7047">
        <ele>152.9</ele>
        <time>2020-06-25T09:41:29Z</time>
      </trkpt>
      <trkpt lat="49.75425" lon="4.70473">
        <ele>153</ele>
        <time>2020-06-25T09:41:30Z</time>
      </trkpt>
      <trkpt lat="49.75424" lon="4.70475">
        <ele>153</ele>
        <time>2020-06-25T09:41:31Z</time>
      </trkpt>
      <trkpt lat="49.75423" lon="4.70478">
        <ele>153</ele>
        <time>2020-06-25T09:41:32Z</time>
      </trkpt>
      <trkpt lat="49.75423" lon="4.7048">
        <ele>153</ele>
        <time>2020-06-25T09:41:33Z</time>
      </trkpt>
      <trkpt lat="49.75422" lon="4.70484">
        <ele>153.1</ele>
        <time>2020-06-25T09:41:34Z</time>
      </trkpt>
      <trkpt lat="49.75421" lon="4.70486">
        <ele>153.1</ele>
        <time>2020-06-25T09:41:35Z</time>
      </trkpt>
      <trkpt lat="49.75421" lon="4.7049">
        <ele>153.2</ele>
        <time>2020-06-25T09:41:36Z</time>
      </trkpt>
      <trkpt lat="49.75421" lon="4.70491">
        <ele>153.2</ele>
        <time>2020-06-25T09:41:37Z</time>
      </trkpt>
      <trkpt lat="49.75421" lon="4.70494">
        <ele>153.2</ele>
        <time>2020-06-25T09:41:38Z</time>
      </trkpt>
      <trkpt lat="49.75421" lon="4.70495">
        <ele>153.2</ele>
        <time>2020-06-25T09:41:39Z</time>
      </trkpt>
      <trkpt lat="49.75421" lon="4.70496">
        <ele>153.2</ele>
        <time>2020-06-25T09:41:40Z</time>
      </trkpt>
      <trkpt lat="49.75421" lon="4.70498">
        <ele>153.2</ele>
        <time>2020-06-25T09:41:41Z</time>
      </trkpt>
      <trkpt lat="49.75421" lon="4.70498">
        <ele>153.2</ele>
        <time>2020-06-25T09:41:42Z</time>
      </trkpt>
      <trkpt lat="49.75422" lon="4.70498">
        <ele>153.2</ele>
        <time>2020-06-25T09:41:43Z</time>
      </trkpt>
      <trkpt lat="49.75422" lon="4.70497">
        <ele>153.3</ele>
        <time>2020-06-25T09:41:44Z</time>
      </trkpt>
      <trkpt lat="49.75422" lon="4.70497">
        <ele>153.3</ele>
        <time>2020-06-25T09:41:45Z</time>
      </trkpt>
      <trkpt lat="49.75422" lon="4.70496">
        <ele>153.3</ele>
        <time>2020-06-25T09:41:46Z</time>
      </trkpt>
      <trkpt lat="49.75422" lon="4.70497">
        <ele>153.3</ele>
        <time>2020-06-25T09:41:47Z</time>
      </trkpt>
      <trkpt lat="49.75422" lon="4.70498">
        <ele>153.3</ele>
        <time>2020-06-25T09:41:48Z</time>
      </trkpt>
      <trkpt lat="49.75422" lon="4.70497">
        <ele>153.3</ele>
        <time>2020-06-25T09:41:49Z</time>
      </trkpt>
      <trkpt lat="49.75422" lon="4.70496">
        <ele>153.3</ele>
        <time>2020-06-25T09:41:50Z</time>
      </trkpt>
      <trkpt lat="49.75422" lon="4.70496">
        <ele>153.3</ele>
        <time>2020-06-25T09:41:51Z</time>
      </trkpt>
      <trkpt lat="49.75421" lon="4.70496">
        <ele>153.4</ele>
        <time>2020-06-25T09:59:28Z</time>
      </trkpt>
      <trkpt lat="49.75421" lon="4.70496">
        <ele>153.4</ele>
        <time>2020-06-25T09:59:29Z</time>
      </trkpt>
      <trkpt lat="49.75422" lon="4.70496">
        <ele>153.4</ele>
        <time>2020-06-25T09:59:30Z</time>
      </trkpt>
      <trkpt lat="49.75423" lon="4.70496">
        <ele>153.4</ele>
        <time>2020-06-25T09:59:31Z</time>
      </trkpt>
      <trkpt lat="49.75423" lon="4.70495">
        <ele>153.4</ele>
        <time>2020-06-25T09:59:32Z</time>
      </trkpt>
      <trkpt lat="49.75423" lon="4.70495">
        <ele>153.4</ele>
        <time>2020-06-25T09:59:33Z</time>
      </trkpt>
      <trkpt lat="49.75424" lon="4.70495">
        <ele>153.4</ele>
        <time>2020-06-25T09:59:34Z</time>
      </trkpt>
      <trkpt lat="49.75424" lon="4.70495">
        <ele>153.4</ele>
        <time>2020-06-25T09:59:35Z</time>
      </trkpt>
      <trkpt lat="49.75424" lon="4.70494">
        <ele>153.4</ele>
        <time>2020-06-25T09:59:36Z</time>
      </trkpt>
      <trkpt lat="49.75424" lon="4.70494">
        <ele>153.4</ele>
        <time>2020-06-25T09:59:37Z</time>
      </trkpt>
      <trkpt lat="49.75424" lon="4.70494">
        <ele>153.5</ele>
        <time>2020-06-25T09:59:38Z</time>
      </trkpt>
      <trkpt lat="49.75424" lon="4.70494">
        <ele>153.5</ele>
        <time>2020-06-25T09:59:39Z</time>
      </trkpt>
      <trkpt lat="49.75424" lon="4.70494">
        <ele>153.5</ele>
        <time>2020-06-25T09:59:40Z</time>
      </trkpt>
      <trkpt lat="49.75424" lon="4.70493">
        <ele>153.5</ele>
        <time>2020-06-25T09:59:41Z</time>
      </trkpt>
      <trkpt lat="49.75425" lon="4.70493">
        <ele>153.5</ele>
        <time>2020-06-25T09:59:42Z</time>
      </trkpt>
      <trkpt lat="49.75425" lon="4.70493">
        <ele>153.5</ele>
        <time>2020-06-25T09:59:43Z</time>
      </trkpt>
      <trkpt lat="49.75425" lon="4.70494">
        <ele>153.5</ele>
        <time>2020-06-25T09:59:44Z</time>
      </trkpt>
      <trkpt lat="49.75425" lon="4.70493">
        <ele>153.5</ele>
        <time>2020-06-25T09:59:45Z</time>
      </trkpt>
      <trkpt lat="49.75425" lon="4.70494">
        <ele>153.5</ele>
        <time>2020-06-25T09:59:46Z</time>
      </trkpt>
      <trkpt lat="49.75426" lon="4.70494">
        <ele>153.5</ele>
        <time>2020-06-25T09:59:47Z</time>
      </trkpt>
      <trkpt lat="49.75411" lon="4.70489">
        <ele>153.8</ele>
        <time>2020-06-25T10:03:07Z</time>
      </trkpt>
      <trkpt lat="49.75411" lon="4.70491">
        <ele>153.9</ele>
        <time>2020-06-25T10:03:08Z</time>
      </trkpt>
      <trkpt lat="49.75411" lon="4.70493">
        <ele>153.9</ele>
        <time>2020-06-25T10:03:09Z</time>
      </trkpt>
      <trkpt lat="49.75411" lon="4.70494">
        <ele>153.9</ele>
        <time>2020-06-25T10:03:10Z</time>
      </trkpt>
      <trkpt lat="49.7541" lon="4.70494">
        <ele>153.9</ele>
        <time>2020-06-25T10:03:11Z</time>
      </trkpt>
      <trkpt lat="49.7541" lon="4.70494">
        <ele>153.9</ele>
        <time>2020-06-25T10:03:12Z</time>
      </trkpt>
      <trkpt lat="49.7541" lon="4.70494">
        <ele>153.9</ele>
        <time>2020-06-25T10:03:13Z</time>
      </trkpt>
      <trkpt lat="49.7541" lon="4.70494">
        <ele>153.9</ele>
        <time>2020-06-25T10:03:14Z</time>
      </trkpt>
      <trkpt lat="49.7541" lon="4.70495">
        <ele>153.9</ele>
        <time>2020-06-25T10:03:15Z</time>
      </trkpt>
      <trkpt lat="49.7541" lon="4.70495">
        <ele>153.9</ele>
        <time>2020-06-25T10:03:16Z</time>
      </trkpt>
      <trkpt lat="49.7541" lon="4.70496">
        <ele>153.9</ele>
        <time>2020-06-25T10:03:17Z</time>
      </trkpt>
      <trkpt lat="49.7541" lon="4.70496">
        <ele>153.9</ele>
        <time>2020-06-25T10:03:18Z</time>
      </trkpt>
      <trkpt lat="49.75409" lon="4.70496">
        <ele>154</ele>
        <time>2020-06-25T10:03:19Z</time>
      </trkpt>
      <trkpt lat="49.75409" lon="4.70497">
        <ele>154</ele>
        <time>2020-06-25T10:03:20Z</time>
      </trkpt>
      <trkpt lat="49.75409" lon="4.70497">
        <ele>154</ele>
        <time>2020-06-25T10:03:21Z</time>
      </trkpt>
      <trkpt lat="49.75409" lon="4.70498">
        <ele>154</ele>
        <time>2020-06-25T10:03:22Z</time>
      </trkpt>
      <trkpt lat="49.75409" lon="4.705">
        <ele>154</ele>
        <time>2020-06-25T10:03:23Z</time>
      </trkpt>
      <trkpt lat="49.75409" lon="4.70501">
        <ele>154</ele>
        <time>2020-06-25T10:03:24Z</time>
      </trkpt>
      <trkpt lat="49.75409" lon="4.70502">
        <ele>154</ele>
        <time>2020-06-25T10:03:25Z</time>
      </trkpt>
      <trkpt lat="49.75409" lon="4.70502">
        <ele>154</ele>
        <time>2020-06-25T10:03:26Z</time>
      </trkpt>
      <trkpt lat="49.75409" lon="4.70501">
        <ele>154</ele>
        <time>2020-06-25T10:03:27Z</time>
      </trkpt>
      <trkpt lat="49.75408" lon="4.70501">
        <ele>154</ele>
        <time>2020-06-25T10:03:28Z</time>
      </trkpt>
      <trkpt lat="49.75401" lon="4.7049">
        <ele>154.2</ele>
        <time>2020-06-25T10:06:49Z</time>
      </trkpt>
      <trkpt lat="49.75402" lon="4.70484">
        <ele>154.3</ele>
        <time>2020-06-25T10:06:50Z</time>
      </trkpt>
      <trkpt lat="49.75402" lon="4.70479">
        <ele>154.3</ele>
        <time>2020-06-25T10:06:51Z</time>
      </trkpt>
      <trkpt lat="49.75402" lon="4.70477">
        <ele>154.4</ele>
        <time>2020-06-25T10:06:52Z</time>
      </trkpt>
      <trkpt lat="49.75402" lon="4.70472">
        <ele>154.4</ele>
        <time>2020-06-25T10:06:53Z</time>
      </trkpt>
      <trkpt lat="49.75402" lon="4.70468">
        <ele>154.4</ele>
        <time>2020-06-25T10:06:54Z</time>
      </trkpt>
      <trkpt lat="49.75402" lon="4.70463">
        <ele>154.5</ele>
        <time>2020-06-25T10:06:55Z</time>
      </trkpt>
      <trkpt lat="49.75403" lon="4.70455">
        <ele>153.8</ele>
        <time>2020-06-25T10:06:56Z</time>
      </trkpt>
      <trkpt lat="49.75404" lon="4.70449">
        <ele>153.6</ele>
        <time>2020-06-25T10:06:57Z</time>
      </trkpt>
      <trkpt lat="49.75406" lon="4.70445">
        <ele>153.5</ele>
        <time>2020-06-25T10:06:58Z</time>
      </trkpt>
      <trkpt lat="49.75409" lon="4.70446">
        <ele>153.4</ele>
        <time>2020-06-25T10:06:59Z</time>
      </trkpt>
      <trkpt lat="49.75415" lon="4.70446">
        <ele>153.2</ele>
        <time>2020-06-25T10:07:00Z</time>
      </trkpt>
      <trkpt lat="49.7542" lon="4.70447">
        <ele>153.1</ele>
        <time>2020-06-25T10:07:01Z</time>
      </trkpt>
      <trkpt lat="49.75425" lon="4.70446">
        <ele>153</ele>
        <time>2020-06-25T10:07:02Z</time>
      </trkpt>
      <trkpt lat="49.7543" lon="4.70448">
        <ele>153</ele>
        <time>2020-06-25T10:07:03Z</time>
      </trkpt>
      <trkpt lat="49.75435" lon="4.70447">
        <ele>152.9</ele>
        <time>2020-06-25T10:07:04Z</time>
      </trkpt>
      <trkpt lat="49.75441" lon="4.70446">
        <ele>152.7</ele>
        <time>2020-06-25T10:07:05Z</time>
      </trkpt>
      <trkpt lat="49.75446" lon="4.70448">
        <ele>152.6</ele>
        <time>2020-06-25T10:07:06Z</time>
      </trkpt>
      <trkpt lat="49.7545" lon="4.70448">
        <ele>152.5</ele>
        <time>2020-06-25T10:07:07Z</time>
      </trkpt>
      <trkpt lat="49.75455" lon="4.70448">
        <ele>152.3</ele>
        <time>2020-06-25T10:07:08Z</time>
      </trkpt>
      <trkpt lat="49.7546" lon="4.70447">
        <ele>152.2</ele>
        <time>2020-06-25T10:07:09Z</time>
      </trkpt>
      <trkpt lat="49.75465" lon="4.70447">
        <ele>152</ele>
        <time>2020-06-25T10:07:10Z</time>
      </trkpt>
      <trkpt lat="49.75471" lon="4.70449">
        <ele>151.9</ele>
        <time>2020-06-25T10:07:11Z</time>
      </trkpt>
      <trkpt lat="49.75474" lon="4.70446">
        <ele>151.9</ele>
        <time>2020-06-25T10:07:12Z</time>
      </trkpt>
      <trkpt lat="49.75478" lon="4.70448">
        <ele>151.8</ele>
        <time>2020-06-25T10:07:13Z</time>
      </trkpt>
      <trkpt lat="49.75482" lon="4.70447">
        <ele>151.7</ele>
        <time>2020-06-25T10:07:14Z</time>
      </trkpt>
      <trkpt lat="49.75484" lon="4.70448">
        <ele>151.6</ele>
        <time>2020-06-25T10:07:15Z</time>
      </trkpt>
      <trkpt lat="49.75487" lon="4.70447">
        <ele>151.4</ele>
        <time>2020-06-25T10:07:16Z</time>
      </trkpt>
      <trkpt lat="49.75491" lon="4.70447">
        <ele>151.2</ele>
        <time>2020-06-25T10:07:17Z</time>
      </trkpt>
      <trkpt lat="49.75495" lon="4.70445">
        <ele>151</ele>
        <time>2020-06-25T10:07:18Z</time>
      </trkpt>
      <trkpt lat="49.75498" lon="4.70445">
        <ele>150.9</ele>
        <time>2020-06-25T10:07:19Z</time>
      </trkpt>
      <trkpt lat="49.75501" lon="4.70446">
        <ele>150.8</ele>
        <time>2020-06-25T10:07:20Z</time>
      </trkpt>
      <trkpt lat="49.75505" lon="4.7045">
        <ele>150.6</ele>
        <time>2020-06-25T10:07:21Z</time>
      </trkpt>
      <trkpt lat="49.7551" lon="4.70455">
        <ele>150.5</ele>
        <time>2020-06-25T10:07:22Z</time>
      </trkpt>
      <trkpt lat="49.75512" lon="4.70459">
        <ele>150.2</ele>
        <time>2020-06-25T10:07:23Z</time>
      </trkpt>
      <trkpt lat="49.75516" lon="4.70462">
        <ele>150.2</ele>
        <time>2020-06-25T10:07:24Z</time>
      </trkpt>
      <trkpt lat="49.75517" lon="4.70463">
        <ele>150.2</ele>
        <time>2020-06-25T10:07:25Z</time>
      </trkpt>
      <trkpt lat="49.7552" lon="4.70466">
        <ele>150.1</ele>
        <time>2020-06-25T10:07:26Z</time>
      </trkpt>
      <trkpt lat="49.7552" lon="4.70466">
        <ele>150</ele>
        <time>2020-06-25T10:07:27Z</time>
      </trkpt>
      <trkpt lat="49.75523" lon="4.70469">
        <ele>150</ele>
        <time>2020-06-25T10:07:28Z</time>
      </trkpt>
      <trkpt lat="49.75525" lon="4.70471">
        <ele>149.9</ele>
        <time>2020-06-25T10:07:29Z</time>
      </trkpt>
      <trkpt lat="49.75527" lon="4.70475">
        <ele>149.8</ele>
        <time>2020-06-25T10:07:30Z</time>
      </trkpt>
      <trkpt lat="49.75528" lon="4.70477">
        <ele>149.8</ele>
        <time>2020-06-25T10:07:31Z</time>
      </trkpt>
      <trkpt lat="49.7553" lon="4.70482">
        <ele>149.7</ele>
        <time>2020-06-25T10:07:32Z</time>
      </trkpt>
      <trkpt lat="49.75531" lon="4.70486">
        <ele>149.7</ele>
        <time>2020-06-25T10:07:33Z</time>
      </trkpt>
      <trkpt lat="49.75532" lon="4.70492">
        <ele>149.6</ele>
        <time>2020-06-25T10:07:34Z</time>
      </trkpt>
      <trkpt lat="49.75533" lon="4.70497">
        <ele>149.5</ele>
        <time>2020-06-25T10:07:35Z</time>
      </trkpt>
      <trkpt lat="49.75535" lon="4.70504">
        <ele>149.4</ele>
        <time>2020-06-25T10:07:36Z</time>
      </trkpt>
      <trkpt lat="49.75536" lon="4.70509">
        <ele>149.3</ele>
        <time>2020-06-25T10:07:37Z</time>
      </trkpt>
      <trkpt lat="49.75538" lon="4.70514">
        <ele>149.2</ele>
        <time>2020-06-25T10:07:38Z</time>
      </trkpt>
      <trkpt lat="49.75539" lon="4.7052">
        <ele>149.2</ele>
        <time>2020-06-25T10:07:39Z</time>
      </trkpt>
      <trkpt lat="49.7554" lon="4.70525">
        <ele>149.1</ele>
        <time>2020-06-25T10:07:40Z</time>
      </trkpt>
      <trkpt lat="49.75541" lon="4.70532">
        <ele>149.1</ele>
        <time>2020-06-25T10:07:41Z</time>
      </trkpt>
      <trkpt lat="49.75541" lon="4.70539">
        <ele>149.1</ele>
        <time>2020-06-25T10:07:42Z</time>
      </trkpt>
      <trkpt lat="49.75543" lon="4.70546">
        <ele>149.1</ele>
        <time>2020-06-25T10:07:43Z</time>
      </trkpt>
      <trkpt lat="49.75543" lon="4.70554">
        <ele>149.1</ele>
        <time>2020-06-25T10:07:44Z</time>
      </trkpt>
      <trkpt lat="49.75543" lon="4.70562">
        <ele>149.1</ele>
        <time>2020-06-25T10:07:45Z</time>
      </trkpt>
      <trkpt lat="49.75544" lon="4.70571">
        <ele>149.1</ele>
        <time>2020-06-25T10:07:46Z</time>
      </trkpt>
      <trkpt lat="49.75545" lon="4.7058">
        <ele>149.1</ele>
        <time>2020-06-25T10:07:47Z</time>
      </trkpt>
      <trkpt lat="49.75546" lon="4.70589">
        <ele>149.1</ele>
        <time>2020-06-25T10:07:48Z</time>
      </trkpt>
      <trkpt lat="49.75546" lon="4.70597">
        <ele>149</ele>
        <time>2020-06-25T10:07:49Z</time>
      </trkpt>
      <trkpt lat="49.75547" lon="4.70605">
        <ele>149</ele>
        <time>2020-06-25T10:07:50Z</time>
      </trkpt>
      <trkpt lat="49.75548" lon="4.70612">
        <ele>149</ele>
        <time>2020-06-25T10:07:51Z</time>
      </trkpt>
      <trkpt lat="49.75549" lon="4.7062">
        <ele>149</ele>
        <time>2020-06-25T10:07:52Z</time>
      </trkpt>
      <trkpt lat="49.7555" lon="4.70627">
        <ele>148.9</ele>
        <time>2020-06-25T10:07:53Z</time>
      </trkpt>
      <trkpt lat="49.75551" lon="4.70635">
        <ele>148.9</ele>
        <time>2020-06-25T10:07:54Z</time>
      </trkpt>
      <trkpt lat="49.75553" lon="4.70644">
        <ele>148.9</ele>
        <time>2020-06-25T10:07:55Z</time>
      </trkpt>
      <trkpt lat="49.75552" lon="4.70652">
        <ele>148.9</ele>
        <time>2020-06-25T10:07:56Z</time>
      </trkpt>
      <trkpt lat="49.75554" lon="4.70661">
        <ele>148.9</ele>
        <time>2020-06-25T10:07:57Z</time>
      </trkpt>
      <trkpt lat="49.75555" lon="4.70669">
        <ele>148.9</ele>
        <time>2020-06-25T10:07:58Z</time>
      </trkpt>
      <trkpt lat="49.75556" lon="4.70678">
        <ele>148.9</ele>
        <time>2020-06-25T10:07:59Z</time>
      </trkpt>
      <trkpt lat="49.75556" lon="4.70687">
        <ele>148.9</ele>
        <time>2020-06-25T10:08:00Z</time>
      </trkpt>
      <trkpt lat="49.75557" lon="4.70696">
        <ele>148.9</ele>
        <time>2020-06-25T10:08:01Z</time>
      </trkpt>
      <trkpt lat="49.75557" lon="4.70705">
        <ele>148.9</ele>
        <time>2020-06-25T10:08:02Z</time>
      </trkpt>
      <trkpt lat="49.75558" lon="4.70714">
        <ele>148.9</ele>
        <time>2020-06-25T10:08:03Z</time>
      </trkpt>
      <trkpt lat="49.75557" lon="4.70723">
        <ele>148.9</ele>
        <time>2020-06-25T10:08:04Z</time>
      </trkpt>
      <trkpt lat="49.75558" lon="4.70732">
        <ele>149</ele>
        <time>2020-06-25T10:08:05Z</time>
      </trkpt>
      <trkpt lat="49.75557" lon="4.70741">
        <ele>149</ele>
        <time>2020-06-25T10:08:06Z</time>
      </trkpt>
      <trkpt lat="49.75556" lon="4.70748">
        <ele>149.1</ele>
        <time>2020-06-25T10:08:07Z</time>
      </trkpt>
      <trkpt lat="49.75555" lon="4.70756">
        <ele>149.1</ele>
        <time>2020-06-25T10:08:08Z</time>
      </trkpt>
      <trkpt lat="49.75555" lon="4.70764">
        <ele>149.2</ele>
        <time>2020-06-25T10:08:09Z</time>
      </trkpt>
      <trkpt lat="49.75554" lon="4.70771">
        <ele>149.3</ele>
        <time>2020-06-25T10:08:10Z</time>
      </trkpt>
      <trkpt lat="49.75553" lon="4.70777">
        <ele>149.4</ele>
        <time>2020-06-25T10:08:11Z</time>
      </trkpt>
      <trkpt lat="49.75551" lon="4.70783">
        <ele>149.5</ele>
        <time>2020-06-25T10:08:12Z</time>
      </trkpt>
      <trkpt lat="49.7555" lon="4.70788">
        <ele>149.6</ele>
        <time>2020-06-25T10:08:13Z</time>
      </trkpt>
      <trkpt lat="49.75549" lon="4.70793">
        <ele>149.7</ele>
        <time>2020-06-25T10:08:14Z</time>
      </trkpt>
      <trkpt lat="49.75547" lon="4.70798">
        <ele>149.8</ele>
        <time>2020-06-25T10:08:15Z</time>
      </trkpt>
      <trkpt lat="49.75546" lon="4.70803">
        <ele>149.8</ele>
        <time>2020-06-25T10:08:16Z</time>
      </trkpt>
      <trkpt lat="49.75545" lon="4.70807">
        <ele>149.8</ele>
        <time>2020-06-25T10:08:17Z</time>
      </trkpt>
      <trkpt lat="49.75544" lon="4.70812">
        <ele>149.9</ele>
        <time>2020-06-25T10:08:18Z</time>
      </trkpt>
      <trkpt lat="49.75542" lon="4.70816">
        <ele>149.9</ele>
        <time>2020-06-25T10:08:19Z</time>
      </trkpt>
      <trkpt lat="49.75541" lon="4.70822">
        <ele>150</ele>
        <time>2020-06-25T10:08:20Z</time>
      </trkpt>
      <trkpt lat="49.7554" lon="4.70828">
        <ele>150.1</ele>
        <time>2020-06-25T10:08:21Z</time>
      </trkpt>
      <trkpt lat="49.7554" lon="4.70834">
        <ele>150.2</ele>
        <time>2020-06-25T10:08:22Z</time>
      </trkpt>
      <trkpt lat="49.75539" lon="4.7084">
        <ele>150.3</ele>
        <time>2020-06-25T10:08:23Z</time>
      </trkpt>
      <trkpt lat="49.75539" lon="4.70845">
        <ele>150.4</ele>
        <time>2020-06-25T10:08:24Z</time>
      </trkpt>
      <trkpt lat="49.75537" lon="4.70852">
        <ele>150.5</ele>
        <time>2020-06-25T10:08:25Z</time>
      </trkpt>
      <trkpt lat="49.75536" lon="4.70857">
        <ele>150.6</ele>
        <time>2020-06-25T10:08:26Z</time>
      </trkpt>
      <trkpt lat="49.75534" lon="4.70862">
        <ele>150.8</ele>
        <time>2020-06-25T10:08:27Z</time>
      </trkpt>
      <trkpt lat="49.75533" lon="4.70868">
        <ele>150.9</ele>
        <time>2020-06-25T10:08:28Z</time>
      </trkpt>
      <trkpt lat="49.75532" lon="4.70874">
        <ele>151</ele>
        <time>2020-06-25T10:08:29Z</time>
      </trkpt>
      <trkpt lat="49.75531" lon="4.7088">
        <ele>151.2</ele>
        <time>2020-06-25T10:08:30Z</time>
      </trkpt>
      <trkpt lat="49.7553" lon="4.70886">
        <ele>151.4</ele>
        <time>2020-06-25T10:08:31Z</time>
      </trkpt>
      <trkpt lat="49.75529" lon="4.70892">
        <ele>151.5</ele>
        <time>2020-06-25T10:08:32Z</time>
      </trkpt>
      <trkpt lat="49.75528" lon="4.70898">
        <ele>151.7</ele>
        <time>2020-06-25T10:08:33Z</time>
      </trkpt>
      <trkpt lat="49.75527" lon="4.70904">
        <ele>151.8</ele>
        <time>2020-06-25T10:08:34Z</time>
      </trkpt>
      <trkpt lat="49.75526" lon="4.70909">
        <ele>152</ele>
        <time>2020-06-25T10:08:35Z</time>
      </trkpt>
      <trkpt lat="49.75526" lon="4.70914">
        <ele>152.1</ele>
        <time>2020-06-25T10:08:36Z</time>
      </trkpt>
      <trkpt lat="49.75524" lon="4.70918">
        <ele>152.3</ele>
        <time>2020-06-25T10:08:37Z</time>
      </trkpt>
      <trkpt lat="49.75523" lon="4.70923">
        <ele>152.4</ele>
        <time>2020-06-25T10:08:38Z</time>
      </trkpt>
      <trkpt lat="49.75523" lon="4.70928">
        <ele>152.5</ele>
        <time>2020-06-25T10:08:39Z</time>
      </trkpt>
      <trkpt lat="49.75521" lon="4.70933">
        <ele>152.6</ele>
        <time>2020-06-25T10:08:40Z</time>
      </trkpt>
      <trkpt lat="49.75521" lon="4.70938">
        <ele>152.8</ele>
        <time>2020-06-25T10:08:41Z</time>
      </trkpt>
      <trkpt lat="49.7552" lon="4.70943">
        <ele>152.9</ele>
        <time>2020-06-25T10:08:42Z</time>
      </trkpt>
      <trkpt lat="49.75518" lon="4.70948">
        <ele>153.1</ele>
        <time>2020-06-25T10:08:43Z</time>
      </trkpt>
      <trkpt lat="49.75516" lon="4.70952">
        <ele>153.2</ele>
        <time>2020-06-25T10:08:44Z</time>
      </trkpt>
      <trkpt lat="49.75516" lon="4.70957">
        <ele>153.3</ele>
        <time>2020-06-25T10:08:45Z</time>
      </trkpt>
      <trkpt lat="49.75516" lon="4.70961">
        <ele>153.5</ele>
        <time>2020-06-25T10:08:46Z</time>
      </trkpt>
      <trkpt lat="49.75515" lon="4.70966">
        <ele>153.6</ele>
        <time>2020-06-25T10:08:47Z</time>
      </trkpt>
      <trkpt lat="49.75514" lon="4.70972">
        <ele>153.8</ele>
        <time>2020-06-25T10:08:48Z</time>
      </trkpt>
      <trkpt lat="49.75514" lon="4.70977">
        <ele>153.9</ele>
        <time>2020-06-25T10:08:49Z</time>
      </trkpt>
      <trkpt lat="49.75513" lon="4.70982">
        <ele>154.1</ele>
        <time>2020-06-25T10:08:50Z</time>
      </trkpt>
      <trkpt lat="49.75513" lon="4.70988">
        <ele>154.2</ele>
        <time>2020-06-25T10:08:51Z</time>
      </trkpt>
      <trkpt lat="49.75513" lon="4.70993">
        <ele>154.4</ele>
        <time>2020-06-25T10:08:52Z</time>
      </trkpt>
      <trkpt lat="49.75512" lon="4.70998">
        <ele>154.5</ele>
        <time>2020-06-25T10:08:53Z</time>
      </trkpt>
      <trkpt lat="49.7551" lon="4.71003">
        <ele>154.6</ele>
        <time>2020-06-25T10:08:54Z</time>
      </trkpt>
      <trkpt lat="49.7551" lon="4.71005">
        <ele>154.7</ele>
        <time>2020-06-25T10:08:55Z</time>
      </trkpt>
      <trkpt lat="49.75509" lon="4.7101">
        <ele>154.8</ele>
        <time>2020-06-25T10:08:56Z</time>
      </trkpt>
      <trkpt lat="49.75508" lon="4.71015">
        <ele>155</ele>
        <time>2020-06-25T10:08:57Z</time>
      </trkpt>
      <trkpt lat="49.75506" lon="4.71021">
        <ele>155</ele>
        <time>2020-06-25T10:08:58Z</time>
      </trkpt>
      <trkpt lat="49.75506" lon="4.71026">
        <ele>155.1</ele>
        <time>2020-06-25T10:08:59Z</time>
      </trkpt>
      <trkpt lat="49.75504" lon="4.7103">
        <ele>155.3</ele>
        <time>2020-06-25T10:09:00Z</time>
      </trkpt>
      <trkpt lat="49.75504" lon="4.71036">
        <ele>155.4</ele>
        <time>2020-06-25T10:09:01Z</time>
      </trkpt>
      <trkpt lat="49.75504" lon="4.71041">
        <ele>155.5</ele>
        <time>2020-06-25T10:09:02Z</time>
      </trkpt>
      <trkpt lat="49.75504" lon="4.71046">
        <ele>155.7</ele>
        <time>2020-06-25T10:09:03Z</time>
      </trkpt>
      <trkpt lat="49.75503" lon="4.71051">
        <ele>155.8</ele>
        <time>2020-06-25T10:09:04Z</time>
      </trkpt>
      <trkpt lat="49.75503" lon="4.71056">
        <ele>155.9</ele>
        <time>2020-06-25T10:09:05Z</time>
      </trkpt>
      <trkpt lat="49.755" lon="4.7106">
        <ele>156</ele>
        <time>2020-06-25T10:09:06Z</time>
      </trkpt>
      <trkpt lat="49.755" lon="4.71065">
        <ele>156.1</ele>
        <time>2020-06-25T10:09:07Z</time>
      </trkpt>
      <trkpt lat="49.75499" lon="4.71071">
        <ele>156.3</ele>
        <time>2020-06-25T10:09:08Z</time>
      </trkpt>
      <trkpt lat="49.75498" lon="4.71076">
        <ele>156.4</ele>
        <time>2020-06-25T10:09:09Z</time>
      </trkpt>
      <trkpt lat="49.75497" lon="4.71082">
        <ele>156.5</ele>
        <time>2020-06-25T10:09:10Z</time>
      </trkpt>
      <trkpt lat="49.75496" lon="4.71088">
        <ele>156.6</ele>
        <time>2020-06-25T10:09:11Z</time>
      </trkpt>
      <trkpt lat="49.75495" lon="4.71095">
        <ele>156.7</ele>
        <time>2020-06-25T10:09:12Z</time>
      </trkpt>
      <trkpt lat="49.75495" lon="4.71101">
        <ele>156.8</ele>
        <time>2020-06-25T10:09:13Z</time>
      </trkpt>
      <trkpt lat="49.75494" lon="4.71106">
        <ele>156.9</ele>
        <time>2020-06-25T10:09:14Z</time>
      </trkpt>
      <trkpt lat="49.75493" lon="4.71111">
        <ele>156.9</ele>
        <time>2020-06-25T10:09:15Z</time>
      </trkpt>
      <trkpt lat="49.75493" lon="4.71117">
        <ele>157</ele>
        <time>2020-06-25T10:09:16Z</time>
      </trkpt>
      <trkpt lat="49.75491" lon="4.71122">
        <ele>157.1</ele>
        <time>2020-06-25T10:09:17Z</time>
      </trkpt>
      <trkpt lat="49.75491" lon="4.71128">
        <ele>157.2</ele>
        <time>2020-06-25T10:09:18Z</time>
      </trkpt>
      <trkpt lat="49.75489" lon="4.71132">
        <ele>157.2</ele>
        <time>2020-06-25T10:09:19Z</time>
      </trkpt>
      <trkpt lat="49.75488" lon="4.71137">
        <ele>157.3</ele>
        <time>2020-06-25T10:09:20Z</time>
      </trkpt>
      <trkpt lat="49.75487" lon="4.71143">
        <ele>157.3</ele>
        <time>2020-06-25T10:09:21Z</time>
      </trkpt>
      <trkpt lat="49.75486" lon="4.7115">
        <ele>157.4</ele>
        <time>2020-06-25T10:09:22Z</time>
      </trkpt>
      <trkpt lat="49.75486" lon="4.71155">
        <ele>157.4</ele>
        <time>2020-06-25T10:09:23Z</time>
      </trkpt>
      <trkpt lat="49.75485" lon="4.7116">
        <ele>157.4</ele>
        <time>2020-06-25T10:09:24Z</time>
      </trkpt>
      <trkpt lat="49.75484" lon="4.71165">
        <ele>157.4</ele>
        <time>2020-06-25T10:09:25Z</time>
      </trkpt>
      <trkpt lat="49.75484" lon="4.7117">
        <ele>157.5</ele>
        <time>2020-06-25T10:09:26Z</time>
      </trkpt>
      <trkpt lat="49.75481" lon="4.71174">
        <ele>157.5</ele>
        <time>2020-06-25T10:09:27Z</time>
      </trkpt>
      <trkpt lat="49.75481" lon="4.7118">
        <ele>157.5</ele>
        <time>2020-06-25T10:09:28Z</time>
      </trkpt>
      <trkpt lat="49.75481" lon="4.71186">
        <ele>157.5</ele>
        <time>2020-06-25T10:09:29Z</time>
      </trkpt>
      <trkpt lat="49.75481" lon="4.71191">
        <ele>157.5</ele>
        <time>2020-06-25T10:09:30Z</time>
      </trkpt>
      <trkpt lat="49.7548" lon="4.71197">
        <ele>157.5</ele>
        <time>2020-06-25T10:09:31Z</time>
      </trkpt>
      <trkpt lat="49.7548" lon="4.71203">
        <ele>157.5</ele>
        <time>2020-06-25T10:09:32Z</time>
      </trkpt>
      <trkpt lat="49.75479" lon="4.7121">
        <ele>157.5</ele>
        <time>2020-06-25T10:09:33Z</time>
      </trkpt>
      <trkpt lat="49.75479" lon="4.71217">
        <ele>157.4</ele>
        <time>2020-06-25T10:09:34Z</time>
      </trkpt>
      <trkpt lat="49.75477" lon="4.71224">
        <ele>157.4</ele>
        <time>2020-06-25T10:09:35Z</time>
      </trkpt>
      <trkpt lat="49.75478" lon="4.71231">
        <ele>157.4</ele>
        <time>2020-06-25T10:09:36Z</time>
      </trkpt>
      <trkpt lat="49.75478" lon="4.71237">
        <ele>157.3</ele>
        <time>2020-06-25T10:09:37Z</time>
      </trkpt>
      <trkpt lat="49.75478" lon="4.71244">
        <ele>157.2</ele>
        <time>2020-06-25T10:09:38Z</time>
      </trkpt>
      <trkpt lat="49.75478" lon="4.71251">
        <ele>157.1</ele>
        <time>2020-06-25T10:09:39Z</time>
      </trkpt>
      <trkpt lat="49.75478" lon="4.7126">
        <ele>157</ele>
        <time>2020-06-25T10:09:40Z</time>
      </trkpt>
      <trkpt lat="49.75479" lon="4.71267">
        <ele>156.9</ele>
        <time>2020-06-25T10:09:41Z</time>
      </trkpt>
      <trkpt lat="49.75479" lon="4.71276">
        <ele>156.7</ele>
        <time>2020-06-25T10:09:42Z</time>
      </trkpt>
      <trkpt lat="49.7548" lon="4.71284">
        <ele>156.6</ele>
        <time>2020-06-25T10:09:43Z</time>
      </trkpt>
      <trkpt lat="49.75481" lon="4.71291">
        <ele>156.4</ele>
        <time>2020-06-25T10:09:44Z</time>
      </trkpt>
      <trkpt lat="49.75482" lon="4.71297">
        <ele>156.3</ele>
        <time>2020-06-25T10:09:45Z</time>
      </trkpt>
      <trkpt lat="49.75483" lon="4.71304">
        <ele>156.2</ele>
        <time>2020-06-25T10:09:46Z</time>
      </trkpt>
      <trkpt lat="49.75483" lon="4.7131">
        <ele>156</ele>
        <time>2020-06-25T10:09:47Z</time>
      </trkpt>
      <trkpt lat="49.75482" lon="4.71317">
        <ele>155.9</ele>
        <time>2020-06-25T10:09:48Z</time>
      </trkpt>
      <trkpt lat="49.75483" lon="4.71324">
        <ele>155.7</ele>
        <time>2020-06-25T10:09:49Z</time>
      </trkpt>
      <trkpt lat="49.75484" lon="4.71332">
        <ele>155.6</ele>
        <time>2020-06-25T10:09:50Z</time>
      </trkpt>
      <trkpt lat="49.75484" lon="4.71339">
        <ele>155.4</ele>
        <time>2020-06-25T10:09:51Z</time>
      </trkpt>
      <trkpt lat="49.75485" lon="4.71345">
        <ele>155.3</ele>
        <time>2020-06-25T10:09:52Z</time>
      </trkpt>
      <trkpt lat="49.75485" lon="4.71353">
        <ele>155.1</ele>
        <time>2020-06-25T10:09:53Z</time>
      </trkpt>
      <trkpt lat="49.75485" lon="4.71359">
        <ele>154.9</ele>
        <time>2020-06-25T10:09:54Z</time>
      </trkpt>
      <trkpt lat="49.75487" lon="4.71366">
        <ele>154.8</ele>
        <time>2020-06-25T10:09:55Z</time>
      </trkpt>
      <trkpt lat="49.75487" lon="4.71373">
        <ele>154.7</ele>
        <time>2020-06-25T10:09:56Z</time>
      </trkpt>
      <trkpt lat="49.75488" lon="4.7138">
        <ele>154.5</ele>
        <time>2020-06-25T10:09:57Z</time>
      </trkpt>
      <trkpt lat="49.75489" lon="4.71387">
        <ele>154.4</ele>
        <time>2020-06-25T10:09:58Z</time>
      </trkpt>
      <trkpt lat="49.75491" lon="4.71395">
        <ele>154.2</ele>
        <time>2020-06-25T10:09:59Z</time>
      </trkpt>
      <trkpt lat="49.75493" lon="4.71402">
        <ele>154.1</ele>
        <time>2020-06-25T10:10:00Z</time>
      </trkpt>
      <trkpt lat="49.75494" lon="4.7141">
        <ele>153.9</ele>
        <time>2020-06-25T10:10:01Z</time>
      </trkpt>
      <trkpt lat="49.75494" lon="4.71418">
        <ele>153.7</ele>
        <time>2020-06-25T10:10:02Z</time>
      </trkpt>
      <trkpt lat="49.75493" lon="4.71424">
        <ele>153.6</ele>
        <time>2020-06-25T10:10:03Z</time>
      </trkpt>
      <trkpt lat="49.75494" lon="4.7143">
        <ele>153.4</ele>
        <time>2020-06-25T10:10:04Z</time>
      </trkpt>
      <trkpt lat="49.75494" lon="4.71435">
        <ele>153.4</ele>
        <time>2020-06-25T10:10:05Z</time>
      </trkpt>
      <trkpt lat="49.75495" lon="4.71442">
        <ele>153.3</ele>
        <time>2020-06-25T10:10:06Z</time>
      </trkpt>
      <trkpt lat="49.75495" lon="4.71448">
        <ele>153.3</ele>
        <time>2020-06-25T10:10:07Z</time>
      </trkpt>
      <trkpt lat="49.75495" lon="4.71454">
        <ele>153.3</ele>
        <time>2020-06-25T10:10:08Z</time>
      </trkpt>
      <trkpt lat="49.75496" lon="4.71461">
        <ele>153.2</ele>
        <time>2020-06-25T10:10:09Z</time>
      </trkpt>
      <trkpt lat="49.75496" lon="4.71467">
        <ele>153.2</ele>
        <time>2020-06-25T10:10:10Z</time>
      </trkpt>
      <trkpt lat="49.75496" lon="4.71474">
        <ele>153.2</ele>
        <time>2020-06-25T10:10:11Z</time>
      </trkpt>
      <trkpt lat="49.75497" lon="4.71483">
        <ele>153.1</ele>
        <time>2020-06-25T10:10:12Z</time>
      </trkpt>
      <trkpt lat="49.75498" lon="4.71492">
        <ele>153.1</ele>
        <time>2020-06-25T10:10:13Z</time>
      </trkpt>
      <trkpt lat="49.75499" lon="4.71501">
        <ele>153</ele>
        <time>2020-06-25T10:10:14Z</time>
      </trkpt>
      <trkpt lat="49.755" lon="4.7151">
        <ele>152.9</ele>
        <time>2020-06-25T10:10:15Z</time>
      </trkpt>
      <trkpt lat="49.75501" lon="4.71518">
        <ele>152.9</ele>
        <time>2020-06-25T10:10:16Z</time>
      </trkpt>
      <trkpt lat="49.75502" lon="4.71527">
        <ele>152.8</ele>
        <time>2020-06-25T10:10:17Z</time>
      </trkpt>
      <trkpt lat="49.75504" lon="4.71535">
        <ele>152.7</ele>
        <time>2020-06-25T10:10:18Z</time>
      </trkpt>
      <trkpt lat="49.75505" lon="4.71543">
        <ele>152.7</ele>
        <time>2020-06-25T10:10:19Z</time>
      </trkpt>
      <trkpt lat="49.75506" lon="4.71551">
        <ele>152.6</ele>
        <time>2020-06-25T10:10:20Z</time>
      </trkpt>
      <trkpt lat="49.75507" lon="4.71558">
        <ele>152.5</ele>
        <time>2020-06-25T10:10:21Z</time>
      </trkpt>
      <trkpt lat="49.75507" lon="4.71566">
        <ele>152.5</ele>
        <time>2020-06-25T10:10:22Z</time>
      </trkpt>
      <trkpt lat="49.75508" lon="4.71574">
        <ele>152.5</ele>
        <time>2020-06-25T10:10:23Z</time>
      </trkpt>
      <trkpt lat="49.75509" lon="4.71582">
        <ele>152.4</ele>
        <time>2020-06-25T10:10:24Z</time>
      </trkpt>
      <trkpt lat="49.7551" lon="4.7159">
        <ele>152.4</ele>
        <time>2020-06-25T10:10:25Z</time>
      </trkpt>
      <trkpt lat="49.75512" lon="4.71598">
        <ele>152.4</ele>
        <time>2020-06-25T10:10:26Z</time>
      </trkpt>
      <trkpt lat="49.75513" lon="4.71607">
        <ele>152.3</ele>
        <time>2020-06-25T10:10:27Z</time>
      </trkpt>
      <trkpt lat="49.75515" lon="4.71615">
        <ele>152.2</ele>
        <time>2020-06-25T10:10:28Z</time>
      </trkpt>
      <trkpt lat="49.75516" lon="4.71624">
        <ele>152.1</ele>
        <time>2020-06-25T10:10:29Z</time>
      </trkpt>
      <trkpt lat="49.75518" lon="4.71634">
        <ele>152</ele>
        <time>2020-06-25T10:10:30Z</time>
      </trkpt>
      <trkpt lat="49.7552" lon="4.71642">
        <ele>152</ele>
        <time>2020-06-25T10:10:31Z</time>
      </trkpt>
      <trkpt lat="49.75522" lon="4.71651">
        <ele>152</ele>
        <time>2020-06-25T10:10:32Z</time>
      </trkpt>
      <trkpt lat="49.75524" lon="4.7166">
        <ele>152</ele>
        <time>2020-06-25T10:10:33Z</time>
      </trkpt>
      <trkpt lat="49.75525" lon="4.71668">
        <ele>152</ele>
        <time>2020-06-25T10:10:34Z</time>
      </trkpt>
      <trkpt lat="49.75526" lon="4.71678">
        <ele>151.9</ele>
        <time>2020-06-25T10:10:35Z</time>
      </trkpt>
      <trkpt lat="49.75527" lon="4.71687">
        <ele>151.9</ele>
        <time>2020-06-25T10:10:36Z</time>
      </trkpt>
      <trkpt lat="49.75528" lon="4.71697">
        <ele>151.8</ele>
        <time>2020-06-25T10:10:37Z</time>
      </trkpt>
      <trkpt lat="49.75528" lon="4.71706">
        <ele>151.8</ele>
        <time>2020-06-25T10:10:38Z</time>
      </trkpt>
      <trkpt lat="49.75529" lon="4.71716">
        <ele>151.8</ele>
        <time>2020-06-25T10:10:39Z</time>
      </trkpt>
      <trkpt lat="49.75529" lon="4.71725">
        <ele>151.8</ele>
        <time>2020-06-25T10:10:40Z</time>
      </trkpt>
      <trkpt lat="49.75528" lon="4.71733">
        <ele>151.9</ele>
        <time>2020-06-25T10:10:41Z</time>
      </trkpt>
      <trkpt lat="49.75528" lon="4.71742">
        <ele>152</ele>
        <time>2020-06-25T10:10:42Z</time>
      </trkpt>
      <trkpt lat="49.75526" lon="4.7175">
        <ele>152</ele>
        <time>2020-06-25T10:10:43Z</time>
      </trkpt>
      <trkpt lat="49.75524" lon="4.71759">
        <ele>152.1</ele>
        <time>2020-06-25T10:10:44Z</time>
      </trkpt>
      <trkpt lat="49.75523" lon="4.71768">
        <ele>152.3</ele>
        <time>2020-06-25T10:10:45Z</time>
      </trkpt>
      <trkpt lat="49.75522" lon="4.71777">
        <ele>152.5</ele>
        <time>2020-06-25T10:10:46Z</time>
      </trkpt>
      <trkpt lat="49.75521" lon="4.71785">
        <ele>152.6</ele>
        <time>2020-06-25T10:10:47Z</time>
      </trkpt>
      <trkpt lat="49.7552" lon="4.71793">
        <ele>152.6</ele>
        <time>2020-06-25T10:10:48Z</time>
      </trkpt>
      <trkpt lat="49.7552" lon="4.71801">
        <ele>152.7</ele>
        <time>2020-06-25T10:10:49Z</time>
      </trkpt>
      <trkpt lat="49.7552" lon="4.71807">
        <ele>152.8</ele>
        <time>2020-06-25T10:10:50Z</time>
      </trkpt>
      <trkpt lat="49.7552" lon="4.71814">
        <ele>152.9</ele>
        <time>2020-06-25T10:10:51Z</time>
      </trkpt>
      <trkpt lat="49.7552" lon="4.71818">
        <ele>153</ele>
        <time>2020-06-25T10:10:52Z</time>
      </trkpt>
      <trkpt lat="49.75519" lon="4.71822">
        <ele>153.1</ele>
        <time>2020-06-25T10:10:53Z</time>
      </trkpt>
      <trkpt lat="49.75518" lon="4.71828">
        <ele>153.2</ele>
        <time>2020-06-25T10:10:54Z</time>
      </trkpt>
      <trkpt lat="49.75518" lon="4.7183">
        <ele>153.2</ele>
        <time>2020-06-25T10:10:55Z</time>
      </trkpt>
      <trkpt lat="49.75515" lon="4.71835">
        <ele>153.3</ele>
        <time>2020-06-25T10:10:56Z</time>
      </trkpt>
      <trkpt lat="49.75515" lon="4.71837">
        <ele>153.4</ele>
        <time>2020-06-25T10:10:57Z</time>
      </trkpt>
      <trkpt lat="49.75514" lon="4.71841">
        <ele>153.5</ele>
        <time>2020-06-25T10:10:58Z</time>
      </trkpt>
      <trkpt lat="49.75513" lon="4.71847">
        <ele>153.6</ele>
        <time>2020-06-25T10:10:59Z</time>
      </trkpt>
      <trkpt lat="49.75512" lon="4.71849">
        <ele>153.6</ele>
        <time>2020-06-25T10:11:00Z</time>
      </trkpt>
      <trkpt lat="49.75511" lon="4.71856">
        <ele>153.8</ele>
        <time>2020-06-25T10:11:01Z</time>
      </trkpt>
      <trkpt lat="49.7551" lon="4.71863">
        <ele>153.9</ele>
        <time>2020-06-25T10:11:02Z</time>
      </trkpt>
      <trkpt lat="49.75509" lon="4.71868">
        <ele>154</ele>
        <time>2020-06-25T10:11:03Z</time>
      </trkpt>
      <trkpt lat="49.75508" lon="4.71874">
        <ele>154.1</ele>
        <time>2020-06-25T10:11:04Z</time>
      </trkpt>
      <trkpt lat="49.75508" lon="4.71881">
        <ele>154.2</ele>
        <time>2020-06-25T10:11:05Z</time>
      </trkpt>
      <trkpt lat="49.75507" lon="4.71887">
        <ele>154.4</ele>
        <time>2020-06-25T10:11:06Z</time>
      </trkpt>
      <trkpt lat="49.75506" lon="4.71892">
        <ele>154.5</ele>
        <time>2020-06-25T10:11:07Z</time>
      </trkpt>
      <trkpt lat="49.75506" lon="4.71898">
        <ele>154.6</ele>
        <time>2020-06-25T10:11:08Z</time>
      </trkpt>
      <trkpt lat="49.75506" lon="4.71903">
        <ele>154.6</ele>
        <time>2020-06-25T10:11:09Z</time>
      </trkpt>
      <trkpt lat="49.75506" lon="4.71909">
        <ele>154.7</ele>
        <time>2020-06-25T10:11:10Z</time>
      </trkpt>
      <trkpt lat="49.75505" lon="4.71915">
        <ele>154.8</ele>
        <time>2020-06-25T10:11:11Z</time>
      </trkpt>
      <trkpt lat="49.75505" lon="4.71921">
        <ele>154.9</ele>
        <time>2020-06-25T10:11:12Z</time>
      </trkpt>
      <trkpt lat="49.75504" lon="4.71928">
        <ele>154.9</ele>
        <time>2020-06-25T10:11:13Z</time>
      </trkpt>
      <trkpt lat="49.75503" lon="4.71934">
        <ele>155</ele>
        <time>2020-06-25T10:11:14Z</time>
      </trkpt>
      <trkpt lat="49.75502" lon="4.7194">
        <ele>155.1</ele>
        <time>2020-06-25T10:11:15Z</time>
      </trkpt>
      <trkpt lat="49.75501" lon="4.71945">
        <ele>155.1</ele>
        <time>2020-06-25T10:11:16Z</time>
      </trkpt>
      <trkpt lat="49.755" lon="4.71951">
        <ele>155.2</ele>
        <time>2020-06-25T10:11:17Z</time>
      </trkpt>
      <trkpt lat="49.75499" lon="4.71957">
        <ele>155.2</ele>
        <time>2020-06-25T10:11:18Z</time>
      </trkpt>
      <trkpt lat="49.75496" lon="4.71962">
        <ele>155.3</ele>
        <time>2020-06-25T10:11:19Z</time>
      </trkpt>
      <trkpt lat="49.75495" lon="4.71969">
        <ele>155.4</ele>
        <time>2020-06-25T10:11:20Z</time>
      </trkpt>
      <trkpt lat="49.75493" lon="4.71974">
        <ele>155.4</ele>
        <time>2020-06-25T10:11:21Z</time>
      </trkpt>
      <trkpt lat="49.75492" lon="4.71981">
        <ele>155.5</ele>
        <time>2020-06-25T10:11:22Z</time>
      </trkpt>
      <trkpt lat="49.7549" lon="4.71986">
        <ele>155.6</ele>
        <time>2020-06-25T10:11:23Z</time>
      </trkpt>
      <trkpt lat="49.7549" lon="4.71994">
        <ele>155.5</ele>
        <time>2020-06-25T10:11:24Z</time>
      </trkpt>
      <trkpt lat="49.75489" lon="4.72">
        <ele>155.5</ele>
        <time>2020-06-25T10:11:25Z</time>
      </trkpt>
      <trkpt lat="49.75488" lon="4.72006">
        <ele>155.4</ele>
        <time>2020-06-25T10:11:26Z</time>
      </trkpt>
      <trkpt lat="49.75486" lon="4.72013">
        <ele>155.4</ele>
        <time>2020-06-25T10:11:27Z</time>
      </trkpt>
      <trkpt lat="49.75485" lon="4.72021">
        <ele>155.3</ele>
        <time>2020-06-25T10:11:28Z</time>
      </trkpt>
      <trkpt lat="49.75484" lon="4.72029">
        <ele>155.3</ele>
        <time>2020-06-25T10:11:29Z</time>
      </trkpt>
      <trkpt lat="49.75483" lon="4.72037">
        <ele>155.2</ele>
        <time>2020-06-25T10:11:30Z</time>
      </trkpt>
      <trkpt lat="49.75481" lon="4.72045">
        <ele>155.1</ele>
        <time>2020-06-25T10:11:31Z</time>
      </trkpt>
      <trkpt lat="49.7548" lon="4.72053">
        <ele>155.1</ele>
        <time>2020-06-25T10:11:32Z</time>
      </trkpt>
      <trkpt lat="49.7548" lon="4.72061">
        <ele>155</ele>
        <time>2020-06-25T10:11:33Z</time>
      </trkpt>
      <trkpt lat="49.75478" lon="4.72067">
        <ele>155</ele>
        <time>2020-06-25T10:11:34Z</time>
      </trkpt>
      <trkpt lat="49.75476" lon="4.72072">
        <ele>155</ele>
        <time>2020-06-25T10:11:35Z</time>
      </trkpt>
      <trkpt lat="49.75475" lon="4.72079">
        <ele>154.9</ele>
        <time>2020-06-25T10:11:36Z</time>
      </trkpt>
      <trkpt lat="49.75474" lon="4.72085">
        <ele>154.9</ele>
        <time>2020-06-25T10:11:37Z</time>
      </trkpt>
      <trkpt lat="49.75472" lon="4.72092">
        <ele>154.8</ele>
        <time>2020-06-25T10:11:38Z</time>
      </trkpt>
      <trkpt lat="49.75471" lon="4.72099">
        <ele>154.8</ele>
        <time>2020-06-25T10:11:39Z</time>
      </trkpt>
      <trkpt lat="49.75469" lon="4.72105">
        <ele>154.8</ele>
        <time>2020-06-25T10:11:40Z</time>
      </trkpt>
      <trkpt lat="49.75466" lon="4.72112">
        <ele>154.8</ele>
        <time>2020-06-25T10:11:41Z</time>
      </trkpt>
      <trkpt lat="49.75465" lon="4.72116">
        <ele>154.8</ele>
        <time>2020-06-25T10:11:42Z</time>
      </trkpt>
      <trkpt lat="49.75464" lon="4.72121">
        <ele>154.8</ele>
        <time>2020-06-25T10:11:43Z</time>
      </trkpt>
      <trkpt lat="49.75463" lon="4.72122">
        <ele>154.8</ele>
        <time>2020-06-25T10:11:44Z</time>
      </trkpt>
      <trkpt lat="49.75461" lon="4.72124">
        <ele>154.8</ele>
        <time>2020-06-25T10:11:45Z</time>
      </trkpt>
      <trkpt lat="49.75461" lon="4.72125">
        <ele>154.8</ele>
        <time>2020-06-25T10:11:46Z</time>
      </trkpt>
      <trkpt lat="49.7546" lon="4.72126">
        <ele>154.7</ele>
        <time>2020-06-25T10:11:47Z</time>
      </trkpt>
      <trkpt lat="49.75459" lon="4.72125">
        <ele>154.7</ele>
        <time>2020-06-25T10:11:48Z</time>
      </trkpt>
      <trkpt lat="49.75461" lon="4.72127">
        <ele>154.7</ele>
        <time>2020-06-25T10:11:49Z</time>
      </trkpt>
      <trkpt lat="49.7546" lon="4.72126">
        <ele>154.7</ele>
        <time>2020-06-25T10:11:50Z</time>
      </trkpt>
      <trkpt lat="49.7546" lon="4.72125">
        <ele>154.7</ele>
        <time>2020-06-25T10:11:51Z</time>
      </trkpt>
      <trkpt lat="49.7546" lon="4.72124">
        <ele>154.7</ele>
        <time>2020-06-25T10:11:52Z</time>
      </trkpt>
      <trkpt lat="49.75461" lon="4.72124">
        <ele>154.7</ele>
        <time>2020-06-25T10:11:53Z</time>
      </trkpt>
      <trkpt lat="49.7546" lon="4.72122">
        <ele>154.7</ele>
        <time>2020-06-25T10:11:54Z</time>
      </trkpt>
      <trkpt lat="49.75459" lon="4.72122">
        <ele>154.7</ele>
        <time>2020-06-25T10:11:55Z</time>
      </trkpt>
      <trkpt lat="49.75458" lon="4.72121">
        <ele>154.7</ele>
        <time>2020-06-25T10:11:56Z</time>
      </trkpt>
      <trkpt lat="49.75458" lon="4.72122">
        <ele>154.7</ele>
        <time>2020-06-25T10:11:57Z</time>
      </trkpt>
      <trkpt lat="49.75458" lon="4.72122">
        <ele>154.7</ele>
        <time>2020-06-25T10:11:58Z</time>
      </trkpt>
      <trkpt lat="49.75458" lon="4.72122">
        <ele>154.7</ele>
        <time>2020-06-25T10:11:59Z</time>
      </trkpt>
      <trkpt lat="49.75458" lon="4.72135">
        <ele>154.7</ele>
        <time>2020-06-25T10:12:09Z</time>
      </trkpt>
      <trkpt lat="49.75458" lon="4.7214">
        <ele>154.7</ele>
        <time>2020-06-25T10:12:10Z</time>
      </trkpt>
      <trkpt lat="49.75456" lon="4.72146">
        <ele>154.8</ele>
        <time>2020-06-25T10:12:11Z</time>
      </trkpt>
      <trkpt lat="49.75456" lon="4.72152">
        <ele>154.8</ele>
        <time>2020-06-25T10:12:12Z</time>
      </trkpt>
      <trkpt lat="49.75455" lon="4.7216">
        <ele>154.9</ele>
        <time>2020-06-25T10:12:13Z</time>
      </trkpt>
      <trkpt lat="49.75454" lon="4.72165">
        <ele>154.9</ele>
        <time>2020-06-25T10:12:14Z</time>
      </trkpt>
      <trkpt lat="49.75454" lon="4.72171">
        <ele>155</ele>
        <time>2020-06-25T10:12:15Z</time>
      </trkpt>
      <trkpt lat="49.75453" lon="4.72177">
        <ele>155.3</ele>
        <time>2020-06-25T10:12:16Z</time>
      </trkpt>
      <trkpt lat="49.75453" lon="4.72183">
        <ele>155.6</ele>
        <time>2020-06-25T10:12:17Z</time>
      </trkpt>
      <trkpt lat="49.75453" lon="4.7219">
        <ele>156</ele>
        <time>2020-06-25T10:12:18Z</time>
      </trkpt>
      <trkpt lat="49.75453" lon="4.72196">
        <ele>156.4</ele>
        <time>2020-06-25T10:12:19Z</time>
      </trkpt>
      <trkpt lat="49.75452" lon="4.72203">
        <ele>156.8</ele>
        <time>2020-06-25T10:12:20Z</time>
      </trkpt>
      <trkpt lat="49.75452" lon="4.72208">
        <ele>157.1</ele>
        <time>2020-06-25T10:12:21Z</time>
      </trkpt>
      <trkpt lat="49.7545" lon="4.72213">
        <ele>157.4</ele>
        <time>2020-06-25T10:12:22Z</time>
      </trkpt>
      <trkpt lat="49.75449" lon="4.72218">
        <ele>157.8</ele>
        <time>2020-06-25T10:12:23Z</time>
      </trkpt>
      <trkpt lat="49.75449" lon="4.72223">
        <ele>158.1</ele>
        <time>2020-06-25T10:12:24Z</time>
      </trkpt>
      <trkpt lat="49.75448" lon="4.72229">
        <ele>158.4</ele>
        <time>2020-06-25T10:12:25Z</time>
      </trkpt>
      <trkpt lat="49.75448" lon="4.72234">
        <ele>158.8</ele>
        <time>2020-06-25T10:12:26Z</time>
      </trkpt>
      <trkpt lat="49.75448" lon="4.7224">
        <ele>158.9</ele>
        <time>2020-06-25T10:12:27Z</time>
      </trkpt>
      <trkpt lat="49.75447" lon="4.72245">
        <ele>158.9</ele>
        <time>2020-06-25T10:12:28Z</time>
      </trkpt>
      <trkpt lat="49.75447" lon="4.7225">
        <ele>158.9</ele>
        <time>2020-06-25T10:12:29Z</time>
      </trkpt>
      <trkpt lat="49.75446" lon="4.72257">
        <ele>159</ele>
        <time>2020-06-25T10:12:30Z</time>
      </trkpt>
      <trkpt lat="49.75446" lon="4.72263">
        <ele>159</ele>
        <time>2020-06-25T10:12:31Z</time>
      </trkpt>
      <trkpt lat="49.75444" lon="4.72269">
        <ele>159</ele>
        <time>2020-06-25T10:12:32Z</time>
      </trkpt>
      <trkpt lat="49.75442" lon="4.72274">
        <ele>159.2</ele>
        <time>2020-06-25T10:12:33Z</time>
      </trkpt>
      <trkpt lat="49.75442" lon="4.72278">
        <ele>159.3</ele>
        <time>2020-06-25T10:12:34Z</time>
      </trkpt>
      <trkpt lat="49.75441" lon="4.72283">
        <ele>159.4</ele>
        <time>2020-06-25T10:12:35Z</time>
      </trkpt>
      <trkpt lat="49.7544" lon="4.7229">
        <ele>159.6</ele>
        <time>2020-06-25T10:12:36Z</time>
      </trkpt>
      <trkpt lat="49.75439" lon="4.72298">
        <ele>159.8</ele>
        <time>2020-06-25T10:12:37Z</time>
      </trkpt>
      <trkpt lat="49.75437" lon="4.72304">
        <ele>159.9</ele>
        <time>2020-06-25T10:12:38Z</time>
      </trkpt>
      <trkpt lat="49.75436" lon="4.72309">
        <ele>160.1</ele>
        <time>2020-06-25T10:12:39Z</time>
      </trkpt>
      <trkpt lat="49.75435" lon="4.72314">
        <ele>160.2</ele>
        <time>2020-06-25T10:12:40Z</time>
      </trkpt>
      <trkpt lat="49.75434" lon="4.7232">
        <ele>160.3</ele>
        <time>2020-06-25T10:12:41Z</time>
      </trkpt>
      <trkpt lat="49.75433" lon="4.72325">
        <ele>160.4</ele>
        <time>2020-06-25T10:12:42Z</time>
      </trkpt>
      <trkpt lat="49.75433" lon="4.72331">
        <ele>160.5</ele>
        <time>2020-06-25T10:12:43Z</time>
      </trkpt>
      <trkpt lat="49.75433" lon="4.72337">
        <ele>160.7</ele>
        <time>2020-06-25T10:12:44Z</time>
      </trkpt>
      <trkpt lat="49.75432" lon="4.72343">
        <ele>160.8</ele>
        <time>2020-06-25T10:12:45Z</time>
      </trkpt>
      <trkpt lat="49.75431" lon="4.72349">
        <ele>160.9</ele>
        <time>2020-06-25T10:12:46Z</time>
      </trkpt>
      <trkpt lat="49.75431" lon="4.72355">
        <ele>161</ele>
        <time>2020-06-25T10:12:47Z</time>
      </trkpt>
      <trkpt lat="49.75429" lon="4.72362">
        <ele>161.1</ele>
        <time>2020-06-25T10:12:48Z</time>
      </trkpt>
      <trkpt lat="49.75426" lon="4.72368">
        <ele>161.2</ele>
        <time>2020-06-25T10:12:49Z</time>
      </trkpt>
      <trkpt lat="49.75425" lon="4.72373">
        <ele>161.2</ele>
        <time>2020-06-25T10:12:50Z</time>
      </trkpt>
      <trkpt lat="49.75424" lon="4.72378">
        <ele>161.3</ele>
        <time>2020-06-25T10:12:51Z</time>
      </trkpt>
      <trkpt lat="49.75424" lon="4.72384">
        <ele>161.4</ele>
        <time>2020-06-25T10:12:52Z</time>
      </trkpt>
      <trkpt lat="49.75423" lon="4.7239">
        <ele>161.4</ele>
        <time>2020-06-25T10:12:53Z</time>
      </trkpt>
      <trkpt lat="49.75422" lon="4.72396">
        <ele>161.5</ele>
        <time>2020-06-25T10:12:54Z</time>
      </trkpt>
      <trkpt lat="49.7542" lon="4.724">
        <ele>161.6</ele>
        <time>2020-06-25T10:12:55Z</time>
      </trkpt>
      <trkpt lat="49.7542" lon="4.72406">
        <ele>161.7</ele>
        <time>2020-06-25T10:12:56Z</time>
      </trkpt>
      <trkpt lat="49.75418" lon="4.72412">
        <ele>161.9</ele>
        <time>2020-06-25T10:12:57Z</time>
      </trkpt>
      <trkpt lat="49.75417" lon="4.72417">
        <ele>162</ele>
        <time>2020-06-25T10:12:58Z</time>
      </trkpt>
      <trkpt lat="49.75416" lon="4.72423">
        <ele>162.1</ele>
        <time>2020-06-25T10:12:59Z</time>
      </trkpt>
      <trkpt lat="49.75415" lon="4.72429">
        <ele>162.2</ele>
        <time>2020-06-25T10:13:00Z</time>
      </trkpt>
      <trkpt lat="49.75414" lon="4.72434">
        <ele>162.3</ele>
        <time>2020-06-25T10:13:01Z</time>
      </trkpt>
      <trkpt lat="49.75413" lon="4.72439">
        <ele>162.4</ele>
        <time>2020-06-25T10:13:02Z</time>
      </trkpt>
      <trkpt lat="49.75412" lon="4.72445">
        <ele>162.5</ele>
        <time>2020-06-25T10:13:03Z</time>
      </trkpt>
      <trkpt lat="49.75411" lon="4.72451">
        <ele>162.6</ele>
        <time>2020-06-25T10:13:04Z</time>
      </trkpt>
      <trkpt lat="49.7541" lon="4.72458">
        <ele>162.7</ele>
        <time>2020-06-25T10:13:05Z</time>
      </trkpt>
      <trkpt lat="49.75409" lon="4.72462">
        <ele>162.7</ele>
        <time>2020-06-25T10:13:06Z</time>
      </trkpt>
      <trkpt lat="49.75407" lon="4.72466">
        <ele>162.8</ele>
        <time>2020-06-25T10:13:07Z</time>
      </trkpt>
      <trkpt lat="49.75407" lon="4.72467">
        <ele>162.8</ele>
        <time>2020-06-25T10:13:08Z</time>
      </trkpt>
      <trkpt lat="49.75407" lon="4.72469">
        <ele>162.8</ele>
        <time>2020-06-25T10:13:09Z</time>
      </trkpt>
      <trkpt lat="49.75407" lon="4.72471">
        <ele>162.8</ele>
        <time>2020-06-25T10:13:10Z</time>
      </trkpt>
      <trkpt lat="49.75407" lon="4.72473">
        <ele>162.8</ele>
        <time>2020-06-25T10:13:11Z</time>
      </trkpt>
      <trkpt lat="49.75406" lon="4.72476">
        <ele>163</ele>
        <time>2020-06-25T10:13:12Z</time>
      </trkpt>
      <trkpt lat="49.75405" lon="4.72481">
        <ele>163.1</ele>
        <time>2020-06-25T10:13:13Z</time>
      </trkpt>
      <trkpt lat="49.75404" lon="4.72488">
        <ele>163.3</ele>
        <time>2020-06-25T10:13:14Z</time>
      </trkpt>
      <trkpt lat="49.75403" lon="4.72494">
        <ele>163.4</ele>
        <time>2020-06-25T10:13:15Z</time>
      </trkpt>
      <trkpt lat="49.75403" lon="4.725">
        <ele>163.5</ele>
        <time>2020-06-25T10:13:16Z</time>
      </trkpt>
      <trkpt lat="49.75402" lon="4.72506">
        <ele>163.6</ele>
        <time>2020-06-25T10:13:17Z</time>
      </trkpt>
      <trkpt lat="49.75401" lon="4.7251">
        <ele>163.7</ele>
        <time>2020-06-25T10:13:18Z</time>
      </trkpt>
      <trkpt lat="49.75401" lon="4.72517">
        <ele>163.8</ele>
        <time>2020-06-25T10:13:19Z</time>
      </trkpt>
      <trkpt lat="49.754" lon="4.72525">
        <ele>163.9</ele>
        <time>2020-06-25T10:13:20Z</time>
      </trkpt>
      <trkpt lat="49.754" lon="4.72533">
        <ele>164</ele>
        <time>2020-06-25T10:13:21Z</time>
      </trkpt>
      <trkpt lat="49.75399" lon="4.7254">
        <ele>164.1</ele>
        <time>2020-06-25T10:13:22Z</time>
      </trkpt>
      <trkpt lat="49.75398" lon="4.72546">
        <ele>164.1</ele>
        <time>2020-06-25T10:13:23Z</time>
      </trkpt>
      <trkpt lat="49.75397" lon="4.72553">
        <ele>164.2</ele>
        <time>2020-06-25T10:13:24Z</time>
      </trkpt>
      <trkpt lat="49.75396" lon="4.72559">
        <ele>164.2</ele>
        <time>2020-06-25T10:13:25Z</time>
      </trkpt>
      <trkpt lat="49.75395" lon="4.72564">
        <ele>164.2</ele>
        <time>2020-06-25T10:13:26Z</time>
      </trkpt>
      <trkpt lat="49.75395" lon="4.72569">
        <ele>164.2</ele>
        <time>2020-06-25T10:13:27Z</time>
      </trkpt>
      <trkpt lat="49.75394" lon="4.72574">
        <ele>164.2</ele>
        <time>2020-06-25T10:13:28Z</time>
      </trkpt>
      <trkpt lat="49.75393" lon="4.72579">
        <ele>164.2</ele>
        <time>2020-06-25T10:13:29Z</time>
      </trkpt>
      <trkpt lat="49.75393" lon="4.72586">
        <ele>164.2</ele>
        <time>2020-06-25T10:13:30Z</time>
      </trkpt>
      <trkpt lat="49.75392" lon="4.72592">
        <ele>164.2</ele>
        <time>2020-06-25T10:13:31Z</time>
      </trkpt>
      <trkpt lat="49.75391" lon="4.72597">
        <ele>164.2</ele>
        <time>2020-06-25T10:13:32Z</time>
      </trkpt>
      <trkpt lat="49.7539" lon="4.72602">
        <ele>164.1</ele>
        <time>2020-06-25T10:13:33Z</time>
      </trkpt>
      <trkpt lat="49.75389" lon="4.72608">
        <ele>164.1</ele>
        <time>2020-06-25T10:13:34Z</time>
      </trkpt>
      <trkpt lat="49.75387" lon="4.72614">
        <ele>164.1</ele>
        <time>2020-06-25T10:13:35Z</time>
      </trkpt>
      <trkpt lat="49.75386" lon="4.72621">
        <ele>164.1</ele>
        <time>2020-06-25T10:13:36Z</time>
      </trkpt>
      <trkpt lat="49.75384" lon="4.72626">
        <ele>164</ele>
        <time>2020-06-25T10:13:37Z</time>
      </trkpt>
      <trkpt lat="49.75382" lon="4.72631">
        <ele>164</ele>
        <time>2020-06-25T10:13:38Z</time>
      </trkpt>
      <trkpt lat="49.7538" lon="4.72638">
        <ele>164</ele>
        <time>2020-06-25T10:13:39Z</time>
      </trkpt>
      <trkpt lat="49.75379" lon="4.72644">
        <ele>164</ele>
        <time>2020-06-25T10:13:40Z</time>
      </trkpt>
      <trkpt lat="49.75376" lon="4.72651">
        <ele>164</ele>
        <time>2020-06-25T10:13:41Z</time>
      </trkpt>
      <trkpt lat="49.75373" lon="4.72657">
        <ele>163.9</ele>
        <time>2020-06-25T10:13:42Z</time>
      </trkpt>
      <trkpt lat="49.7537" lon="4.72663">
        <ele>163.8</ele>
        <time>2020-06-25T10:13:43Z</time>
      </trkpt>
      <trkpt lat="49.75367" lon="4.72669">
        <ele>163.8</ele>
        <time>2020-06-25T10:13:44Z</time>
      </trkpt>
      <trkpt lat="49.75363" lon="4.72676">
        <ele>163.7</ele>
        <time>2020-06-25T10:13:45Z</time>
      </trkpt>
      <trkpt lat="49.7536" lon="4.72682">
        <ele>163.6</ele>
        <time>2020-06-25T10:13:46Z</time>
      </trkpt>
      <trkpt lat="49.75356" lon="4.72689">
        <ele>163.5</ele>
        <time>2020-06-25T10:13:47Z</time>
      </trkpt>
      <trkpt lat="49.75353" lon="4.72695">
        <ele>163.4</ele>
        <time>2020-06-25T10:13:48Z</time>
      </trkpt>
      <trkpt lat="49.75349" lon="4.727">
        <ele>163.3</ele>
        <time>2020-06-25T10:13:49Z</time>
      </trkpt>
      <trkpt lat="49.75345" lon="4.72705">
        <ele>163.2</ele>
        <time>2020-06-25T10:13:50Z</time>
      </trkpt>
      <trkpt lat="49.75342" lon="4.72709">
        <ele>163.1</ele>
        <time>2020-06-25T10:13:51Z</time>
      </trkpt>
      <trkpt lat="49.75338" lon="4.72713">
        <ele>163</ele>
        <time>2020-06-25T10:13:52Z</time>
      </trkpt>
      <trkpt lat="49.75333" lon="4.72716">
        <ele>162.9</ele>
        <time>2020-06-25T10:13:53Z</time>
      </trkpt>
      <trkpt lat="49.75329" lon="4.72719">
        <ele>162.7</ele>
        <time>2020-06-25T10:13:54Z</time>
      </trkpt>
      <trkpt lat="49.75326" lon="4.72722">
        <ele>162.6</ele>
        <time>2020-06-25T10:13:55Z</time>
      </trkpt>
      <trkpt lat="49.75321" lon="4.72723">
        <ele>162.5</ele>
        <time>2020-06-25T10:13:56Z</time>
      </trkpt>
      <trkpt lat="49.75317" lon="4.72724">
        <ele>162.4</ele>
        <time>2020-06-25T10:13:57Z</time>
      </trkpt>
      <trkpt lat="49.75311" lon="4.72724">
        <ele>162.3</ele>
        <time>2020-06-25T10:13:58Z</time>
      </trkpt>
      <trkpt lat="49.75305" lon="4.72725">
        <ele>162.1</ele>
        <time>2020-06-25T10:13:59Z</time>
      </trkpt>
      <trkpt lat="49.753" lon="4.72725">
        <ele>162</ele>
        <time>2020-06-25T10:14:00Z</time>
      </trkpt>
      <trkpt lat="49.75294" lon="4.72726">
        <ele>161.8</ele>
        <time>2020-06-25T10:14:01Z</time>
      </trkpt>
      <trkpt lat="49.75288" lon="4.72726">
        <ele>161.7</ele>
        <time>2020-06-25T10:14:02Z</time>
      </trkpt>
      <trkpt lat="49.75282" lon="4.7273">
        <ele>161.6</ele>
        <time>2020-06-25T10:14:03Z</time>
      </trkpt>
      <trkpt lat="49.75278" lon="4.7273">
        <ele>161.5</ele>
        <time>2020-06-25T10:14:04Z</time>
      </trkpt>
      <trkpt lat="49.75273" lon="4.72732">
        <ele>161.5</ele>
        <time>2020-06-25T10:14:05Z</time>
      </trkpt>
      <trkpt lat="49.75269" lon="4.72735">
        <ele>161.4</ele>
        <time>2020-06-25T10:14:06Z</time>
      </trkpt>
      <trkpt lat="49.75265" lon="4.72741">
        <ele>161.4</ele>
        <time>2020-06-25T10:14:07Z</time>
      </trkpt>
      <trkpt lat="49.75262" lon="4.72746">
        <ele>161.2</ele>
        <time>2020-06-25T10:14:08Z</time>
      </trkpt>
      <trkpt lat="49.75259" lon="4.72751">
        <ele>161</ele>
        <time>2020-06-25T10:14:09Z</time>
      </trkpt>
      <trkpt lat="49.75258" lon="4.72758">
        <ele>161</ele>
        <time>2020-06-25T10:14:10Z</time>
      </trkpt>
      <trkpt lat="49.75256" lon="4.72766">
        <ele>160.8</ele>
        <time>2020-06-25T10:14:11Z</time>
      </trkpt>
      <trkpt lat="49.75254" lon="4.72773">
        <ele>160.7</ele>
        <time>2020-06-25T10:14:12Z</time>
      </trkpt>
      <trkpt lat="49.75252" lon="4.72781">
        <ele>160.5</ele>
        <time>2020-06-25T10:14:13Z</time>
      </trkpt>
      <trkpt lat="49.75251" lon="4.72791">
        <ele>160.4</ele>
        <time>2020-06-25T10:14:14Z</time>
      </trkpt>
      <trkpt lat="49.75249" lon="4.72801">
        <ele>160.2</ele>
        <time>2020-06-25T10:14:15Z</time>
      </trkpt>
      <trkpt lat="49.75248" lon="4.72808">
        <ele>160</ele>
        <time>2020-06-25T10:14:16Z</time>
      </trkpt>
      <trkpt lat="49.75248" lon="4.72816">
        <ele>159.8</ele>
        <time>2020-06-25T10:14:17Z</time>
      </trkpt>
      <trkpt lat="49.75246" lon="4.72823">
        <ele>159.6</ele>
        <time>2020-06-25T10:14:18Z</time>
      </trkpt>
      <trkpt lat="49.75245" lon="4.72828">
        <ele>159.5</ele>
        <time>2020-06-25T10:14:19Z</time>
      </trkpt>
      <trkpt lat="49.75245" lon="4.72835">
        <ele>159.4</ele>
        <time>2020-06-25T10:14:20Z</time>
      </trkpt>
      <trkpt lat="49.75244" lon="4.7284">
        <ele>159.3</ele>
        <time>2020-06-25T10:14:21Z</time>
      </trkpt>
      <trkpt lat="49.75244" lon="4.72845">
        <ele>159.2</ele>
        <time>2020-06-25T10:14:22Z</time>
      </trkpt>
      <trkpt lat="49.75244" lon="4.7285">
        <ele>159.1</ele>
        <time>2020-06-25T10:14:23Z</time>
      </trkpt>
      <trkpt lat="49.75244" lon="4.72854">
        <ele>159.1</ele>
        <time>2020-06-25T10:14:24Z</time>
      </trkpt>
      <trkpt lat="49.75244" lon="4.72859">
        <ele>159</ele>
        <time>2020-06-25T10:14:25Z</time>
      </trkpt>
      <trkpt lat="49.75243" lon="4.72864">
        <ele>158.9</ele>
        <time>2020-06-25T10:14:26Z</time>
      </trkpt>
      <trkpt lat="49.75242" lon="4.72871">
        <ele>158.8</ele>
        <time>2020-06-25T10:14:27Z</time>
      </trkpt>
      <trkpt lat="49.75242" lon="4.7288">
        <ele>158.7</ele>
        <time>2020-06-25T10:14:28Z</time>
      </trkpt>
      <trkpt lat="49.75241" lon="4.72887">
        <ele>158.6</ele>
        <time>2020-06-25T10:14:29Z</time>
      </trkpt>
      <trkpt lat="49.75241" lon="4.72895">
        <ele>158.4</ele>
        <time>2020-06-25T10:14:30Z</time>
      </trkpt>
      <trkpt lat="49.7524" lon="4.72901">
        <ele>158.3</ele>
        <time>2020-06-25T10:14:31Z</time>
      </trkpt>
      <trkpt lat="49.75239" lon="4.72907">
        <ele>158.2</ele>
        <time>2020-06-25T10:14:32Z</time>
      </trkpt>
      <trkpt lat="49.75239" lon="4.72914">
        <ele>158.1</ele>
        <time>2020-06-25T10:14:33Z</time>
      </trkpt>
      <trkpt lat="49.75238" lon="4.72923">
        <ele>157.9</ele>
        <time>2020-06-25T10:14:34Z</time>
      </trkpt>
      <trkpt lat="49.75237" lon="4.7293">
        <ele>157.8</ele>
        <time>2020-06-25T10:14:35Z</time>
      </trkpt>
      <trkpt lat="49.75237" lon="4.72936">
        <ele>157.6</ele>
        <time>2020-06-25T10:14:36Z</time>
      </trkpt>
      <trkpt lat="49.75235" lon="4.72941">
        <ele>157.5</ele>
        <time>2020-06-25T10:14:37Z</time>
      </trkpt>
      <trkpt lat="49.75235" lon="4.72945">
        <ele>157.4</ele>
        <time>2020-06-25T10:14:38Z</time>
      </trkpt>
      <trkpt lat="49.75234" lon="4.72951">
        <ele>157.3</ele>
        <time>2020-06-25T10:14:39Z</time>
      </trkpt>
      <trkpt lat="49.75233" lon="4.72957">
        <ele>157.2</ele>
        <time>2020-06-25T10:14:40Z</time>
      </trkpt>
      <trkpt lat="49.75233" lon="4.7296">
        <ele>157.1</ele>
        <time>2020-06-25T10:14:41Z</time>
      </trkpt>
      <trkpt lat="49.75231" lon="4.72965">
        <ele>157</ele>
        <time>2020-06-25T10:14:42Z</time>
      </trkpt>
      <trkpt lat="49.7523" lon="4.72971">
        <ele>156.9</ele>
        <time>2020-06-25T10:14:43Z</time>
      </trkpt>
      <trkpt lat="49.75229" lon="4.72976">
        <ele>156.9</ele>
        <time>2020-06-25T10:14:44Z</time>
      </trkpt>
      <trkpt lat="49.75228" lon="4.72981">
        <ele>156.8</ele>
        <time>2020-06-25T10:14:45Z</time>
      </trkpt>
      <trkpt lat="49.75228" lon="4.72987">
        <ele>156.6</ele>
        <time>2020-06-25T10:14:46Z</time>
      </trkpt>
      <trkpt lat="49.75227" lon="4.72993">
        <ele>156.5</ele>
        <time>2020-06-25T10:14:47Z</time>
      </trkpt>
      <trkpt lat="49.75226" lon="4.72998">
        <ele>156.4</ele>
        <time>2020-06-25T10:14:48Z</time>
      </trkpt>
      <trkpt lat="49.75226" lon="4.73003">
        <ele>156.4</ele>
        <time>2020-06-25T10:14:49Z</time>
      </trkpt>
      <trkpt lat="49.75225" lon="4.73008">
        <ele>156.3</ele>
        <time>2020-06-25T10:14:50Z</time>
      </trkpt>
      <trkpt lat="49.75222" lon="4.73012">
        <ele>156.2</ele>
        <time>2020-06-25T10:14:51Z</time>
      </trkpt>
      <trkpt lat="49.75221" lon="4.73016">
        <ele>156.1</ele>
        <time>2020-06-25T10:14:52Z</time>
      </trkpt>
      <trkpt lat="49.7522" lon="4.73022">
        <ele>156</ele>
        <time>2020-06-25T10:14:53Z</time>
      </trkpt>
      <trkpt lat="49.7522" lon="4.73024">
        <ele>155.9</ele>
        <time>2020-06-25T10:14:54Z</time>
      </trkpt>
      <trkpt lat="49.7522" lon="4.73029">
        <ele>155.8</ele>
        <time>2020-06-25T10:14:55Z</time>
      </trkpt>
      <trkpt lat="49.7522" lon="4.73036">
        <ele>155.7</ele>
        <time>2020-06-25T10:14:56Z</time>
      </trkpt>
      <trkpt lat="49.7522" lon="4.73043">
        <ele>155.6</ele>
        <time>2020-06-25T10:14:57Z</time>
      </trkpt>
      <trkpt lat="49.75222" lon="4.7305">
        <ele>155.5</ele>
        <time>2020-06-25T10:14:58Z</time>
      </trkpt>
      <trkpt lat="49.75222" lon="4.73057">
        <ele>155.4</ele>
        <time>2020-06-25T10:14:59Z</time>
      </trkpt>
      <trkpt lat="49.75223" lon="4.73063">
        <ele>155.3</ele>
        <time>2020-06-25T10:15:00Z</time>
      </trkpt>
      <trkpt lat="49.75223" lon="4.7307">
        <ele>155.1</ele>
        <time>2020-06-25T10:15:01Z</time>
      </trkpt>
      <trkpt lat="49.75223" lon="4.73077">
        <ele>155</ele>
        <time>2020-06-25T10:15:02Z</time>
      </trkpt>
      <trkpt lat="49.75222" lon="4.73084">
        <ele>154.9</ele>
        <time>2020-06-25T10:15:03Z</time>
      </trkpt>
      <trkpt lat="49.75222" lon="4.7309">
        <ele>154.8</ele>
        <time>2020-06-25T10:15:04Z</time>
      </trkpt>
      <trkpt lat="49.75221" lon="4.73097">
        <ele>154.6</ele>
        <time>2020-06-25T10:15:05Z</time>
      </trkpt>
      <trkpt lat="49.7522" lon="4.73105">
        <ele>154.5</ele>
        <time>2020-06-25T10:15:06Z</time>
      </trkpt>
      <trkpt lat="49.75219" lon="4.73113">
        <ele>154.3</ele>
        <time>2020-06-25T10:15:07Z</time>
      </trkpt>
      <trkpt lat="49.75218" lon="4.7312">
        <ele>154.2</ele>
        <time>2020-06-25T10:15:08Z</time>
      </trkpt>
      <trkpt lat="49.75218" lon="4.73127">
        <ele>154.1</ele>
        <time>2020-06-25T10:15:09Z</time>
      </trkpt>
      <trkpt lat="49.75217" lon="4.73134">
        <ele>154</ele>
        <time>2020-06-25T10:15:10Z</time>
      </trkpt>
      <trkpt lat="49.75217" lon="4.73143">
        <ele>153.8</ele>
        <time>2020-06-25T10:15:11Z</time>
      </trkpt>
      <trkpt lat="49.75217" lon="4.73152">
        <ele>153.7</ele>
        <time>2020-06-25T10:15:12Z</time>
      </trkpt>
      <trkpt lat="49.75216" lon="4.73161">
        <ele>153.5</ele>
        <time>2020-06-25T10:15:13Z</time>
      </trkpt>
      <trkpt lat="49.75215" lon="4.73168">
        <ele>153.4</ele>
        <time>2020-06-25T10:15:14Z</time>
      </trkpt>
      <trkpt lat="49.75213" lon="4.73173">
        <ele>153.3</ele>
        <time>2020-06-25T10:15:15Z</time>
      </trkpt>
      <trkpt lat="49.7521" lon="4.73175">
        <ele>153.3</ele>
        <time>2020-06-25T10:15:16Z</time>
      </trkpt>
      <trkpt lat="49.75209" lon="4.73181">
        <ele>153.2</ele>
        <time>2020-06-25T10:15:17Z</time>
      </trkpt>
      <trkpt lat="49.75208" lon="4.73184">
        <ele>153.1</ele>
        <time>2020-06-25T10:15:18Z</time>
      </trkpt>
      <trkpt lat="49.75207" lon="4.73188">
        <ele>153</ele>
        <time>2020-06-25T10:15:19Z</time>
      </trkpt>
      <trkpt lat="49.75206" lon="4.73193">
        <ele>152.9</ele>
        <time>2020-06-25T10:15:20Z</time>
      </trkpt>
      <trkpt lat="49.75205" lon="4.73199">
        <ele>152.8</ele>
        <time>2020-06-25T10:15:21Z</time>
      </trkpt>
      <trkpt lat="49.75204" lon="4.73205">
        <ele>152.6</ele>
        <time>2020-06-25T10:15:22Z</time>
      </trkpt>
      <trkpt lat="49.75204" lon="4.73213">
        <ele>152.5</ele>
        <time>2020-06-25T10:15:23Z</time>
      </trkpt>
      <trkpt lat="49.75203" lon="4.73222">
        <ele>152.3</ele>
        <time>2020-06-25T10:15:24Z</time>
      </trkpt>
      <trkpt lat="49.75203" lon="4.7323">
        <ele>152.2</ele>
        <time>2020-06-25T10:15:25Z</time>
      </trkpt>
      <trkpt lat="49.75202" lon="4.73237">
        <ele>152.1</ele>
        <time>2020-06-25T10:15:26Z</time>
      </trkpt>
      <trkpt lat="49.75201" lon="4.73246">
        <ele>152</ele>
        <time>2020-06-25T10:15:27Z</time>
      </trkpt>
      <trkpt lat="49.752" lon="4.73255">
        <ele>152</ele>
        <time>2020-06-25T10:15:28Z</time>
      </trkpt>
      <trkpt lat="49.752" lon="4.73264">
        <ele>151.9</ele>
        <time>2020-06-25T10:15:29Z</time>
      </trkpt>
      <trkpt lat="49.75199" lon="4.73272">
        <ele>151.9</ele>
        <time>2020-06-25T10:15:30Z</time>
      </trkpt>
      <trkpt lat="49.75198" lon="4.73281">
        <ele>151.8</ele>
        <time>2020-06-25T10:15:31Z</time>
      </trkpt>
      <trkpt lat="49.75197" lon="4.73289">
        <ele>151.8</ele>
        <time>2020-06-25T10:15:32Z</time>
      </trkpt>
      <trkpt lat="49.75196" lon="4.73297">
        <ele>151.8</ele>
        <time>2020-06-25T10:15:33Z</time>
      </trkpt>
      <trkpt lat="49.75196" lon="4.73304">
        <ele>151.9</ele>
        <time>2020-06-25T10:15:34Z</time>
      </trkpt>
      <trkpt lat="49.75195" lon="4.73312">
        <ele>151.9</ele>
        <time>2020-06-25T10:15:35Z</time>
      </trkpt>
      <trkpt lat="49.75194" lon="4.7332">
        <ele>151.9</ele>
        <time>2020-06-25T10:15:36Z</time>
      </trkpt>
      <trkpt lat="49.75192" lon="4.73328">
        <ele>151.9</ele>
        <time>2020-06-25T10:15:37Z</time>
      </trkpt>
      <trkpt lat="49.75191" lon="4.73335">
        <ele>151.9</ele>
        <time>2020-06-25T10:15:38Z</time>
      </trkpt>
      <trkpt lat="49.75191" lon="4.73343">
        <ele>152</ele>
        <time>2020-06-25T10:15:39Z</time>
      </trkpt>
      <trkpt lat="49.75189" lon="4.73349">
        <ele>152</ele>
        <time>2020-06-25T10:15:40Z</time>
      </trkpt>
      <trkpt lat="49.75188" lon="4.73356">
        <ele>152</ele>
        <time>2020-06-25T10:15:41Z</time>
      </trkpt>
      <trkpt lat="49.75187" lon="4.73363">
        <ele>152</ele>
        <time>2020-06-25T10:15:42Z</time>
      </trkpt>
      <trkpt lat="49.75185" lon="4.7337">
        <ele>152</ele>
        <time>2020-06-25T10:15:43Z</time>
      </trkpt>
      <trkpt lat="49.75184" lon="4.73376">
        <ele>152</ele>
        <time>2020-06-25T10:15:44Z</time>
      </trkpt>
      <trkpt lat="49.75182" lon="4.73382">
        <ele>152.1</ele>
        <time>2020-06-25T10:15:45Z</time>
      </trkpt>
      <trkpt lat="49.75181" lon="4.73388">
        <ele>152.1</ele>
        <time>2020-06-25T10:15:46Z</time>
      </trkpt>
      <trkpt lat="49.75181" lon="4.73395">
        <ele>152</ele>
        <time>2020-06-25T10:15:47Z</time>
      </trkpt>
      <trkpt lat="49.7518" lon="4.73402">
        <ele>152</ele>
        <time>2020-06-25T10:15:48Z</time>
      </trkpt>
      <trkpt lat="49.75178" lon="4.73408">
        <ele>151.9</ele>
        <time>2020-06-25T10:15:49Z</time>
      </trkpt>
      <trkpt lat="49.75177" lon="4.73414">
        <ele>151.9</ele>
        <time>2020-06-25T10:15:50Z</time>
      </trkpt>
      <trkpt lat="49.75176" lon="4.73421">
        <ele>151.8</ele>
        <time>2020-06-25T10:15:51Z</time>
      </trkpt>
      <trkpt lat="49.75175" lon="4.73427">
        <ele>151.8</ele>
        <time>2020-06-25T10:15:52Z</time>
      </trkpt>
      <trkpt lat="49.75173" lon="4.73434">
        <ele>151.7</ele>
        <time>2020-06-25T10:15:53Z</time>
      </trkpt>
      <trkpt lat="49.75171" lon="4.7344">
        <ele>151.7</ele>
        <time>2020-06-25T10:15:54Z</time>
      </trkpt>
      <trkpt lat="49.75168" lon="4.73447">
        <ele>151.6</ele>
        <time>2020-06-25T10:15:55Z</time>
      </trkpt>
      <trkpt lat="49.75167" lon="4.73455">
        <ele>151.6</ele>
        <time>2020-06-25T10:15:56Z</time>
      </trkpt>
      <trkpt lat="49.75164" lon="4.73461">
        <ele>151.5</ele>
        <time>2020-06-25T10:15:57Z</time>
      </trkpt>
      <trkpt lat="49.75161" lon="4.73466">
        <ele>151.5</ele>
        <time>2020-06-25T10:15:58Z</time>
      </trkpt>
      <trkpt lat="49.75159" lon="4.73472">
        <ele>151.5</ele>
        <time>2020-06-25T10:15:59Z</time>
      </trkpt>
      <trkpt lat="49.75157" lon="4.73479">
        <ele>151.5</ele>
        <time>2020-06-25T10:16:00Z</time>
      </trkpt>
      <trkpt lat="49.75154" lon="4.73484">
        <ele>151.4</ele>
        <time>2020-06-25T10:16:01Z</time>
      </trkpt>
      <trkpt lat="49.7515" lon="4.73488">
        <ele>151.4</ele>
        <time>2020-06-25T10:16:02Z</time>
      </trkpt>
      <trkpt lat="49.75146" lon="4.73493">
        <ele>151.4</ele>
        <time>2020-06-25T10:16:03Z</time>
      </trkpt>
      <trkpt lat="49.75142" lon="4.73499">
        <ele>151.3</ele>
        <time>2020-06-25T10:16:04Z</time>
      </trkpt>
      <trkpt lat="49.75137" lon="4.73505">
        <ele>151.3</ele>
        <time>2020-06-25T10:16:05Z</time>
      </trkpt>
      <trkpt lat="49.75132" lon="4.7351">
        <ele>151.3</ele>
        <time>2020-06-25T10:16:06Z</time>
      </trkpt>
      <trkpt lat="49.75128" lon="4.73516">
        <ele>151.2</ele>
        <time>2020-06-25T10:16:07Z</time>
      </trkpt>
      <trkpt lat="49.75124" lon="4.73521">
        <ele>151.2</ele>
        <time>2020-06-25T10:16:08Z</time>
      </trkpt>
      <trkpt lat="49.75119" lon="4.73526">
        <ele>151.2</ele>
        <time>2020-06-25T10:16:09Z</time>
      </trkpt>
      <trkpt lat="49.75113" lon="4.7353">
        <ele>151.2</ele>
        <time>2020-06-25T10:16:10Z</time>
      </trkpt>
      <trkpt lat="49.75109" lon="4.73534">
        <ele>151.2</ele>
        <time>2020-06-25T10:16:11Z</time>
      </trkpt>
      <trkpt lat="49.75104" lon="4.73536">
        <ele>151.2</ele>
        <time>2020-06-25T10:16:12Z</time>
      </trkpt>
      <trkpt lat="49.75098" lon="4.73537">
        <ele>151.2</ele>
        <time>2020-06-25T10:16:13Z</time>
      </trkpt>
      <trkpt lat="49.75092" lon="4.73539">
        <ele>151.2</ele>
        <time>2020-06-25T10:16:14Z</time>
      </trkpt>
      <trkpt lat="49.75087" lon="4.73541">
        <ele>151.2</ele>
        <time>2020-06-25T10:16:15Z</time>
      </trkpt>
      <trkpt lat="49.75082" lon="4.73543">
        <ele>151.2</ele>
        <time>2020-06-25T10:16:16Z</time>
      </trkpt>
      <trkpt lat="49.75077" lon="4.73546">
        <ele>151.1</ele>
        <time>2020-06-25T10:16:17Z</time>
      </trkpt>
      <trkpt lat="49.75072" lon="4.73549">
        <ele>151.1</ele>
        <time>2020-06-25T10:16:18Z</time>
      </trkpt>
      <trkpt lat="49.75066" lon="4.73552">
        <ele>151.1</ele>
        <time>2020-06-25T10:16:19Z</time>
      </trkpt>
      <trkpt lat="49.75061" lon="4.73554">
        <ele>151.1</ele>
        <time>2020-06-25T10:16:20Z</time>
      </trkpt>
      <trkpt lat="49.75056" lon="4.73556">
        <ele>151.1</ele>
        <time>2020-06-25T10:16:21Z</time>
      </trkpt>
      <trkpt lat="49.75051" lon="4.73559">
        <ele>151.1</ele>
        <time>2020-06-25T10:16:22Z</time>
      </trkpt>
      <trkpt lat="49.75044" lon="4.73562">
        <ele>151.1</ele>
        <time>2020-06-25T10:16:23Z</time>
      </trkpt>
      <trkpt lat="49.75039" lon="4.73564">
        <ele>151.1</ele>
        <time>2020-06-25T10:16:24Z</time>
      </trkpt>
      <trkpt lat="49.75033" lon="4.73566">
        <ele>151.1</ele>
        <time>2020-06-25T10:16:25Z</time>
      </trkpt>
      <trkpt lat="49.75028" lon="4.7357">
        <ele>151.1</ele>
        <time>2020-06-25T10:16:26Z</time>
      </trkpt>
      <trkpt lat="49.75022" lon="4.73571">
        <ele>151.1</ele>
        <time>2020-06-25T10:16:27Z</time>
      </trkpt>
      <trkpt lat="49.75017" lon="4.73573">
        <ele>151.1</ele>
        <time>2020-06-25T10:16:28Z</time>
      </trkpt>
      <trkpt lat="49.75011" lon="4.73575">
        <ele>151.1</ele>
        <time>2020-06-25T10:16:29Z</time>
      </trkpt>
      <trkpt lat="49.75007" lon="4.73578">
        <ele>151.1</ele>
        <time>2020-06-25T10:16:30Z</time>
      </trkpt>
      <trkpt lat="49.75002" lon="4.73581">
        <ele>151.1</ele>
        <time>2020-06-25T10:16:31Z</time>
      </trkpt>
      <trkpt lat="49.74996" lon="4.73584">
        <ele>151.1</ele>
        <time>2020-06-25T10:16:32Z</time>
      </trkpt>
      <trkpt lat="49.74991" lon="4.73587">
        <ele>151.1</ele>
        <time>2020-06-25T10:16:33Z</time>
      </trkpt>
      <trkpt lat="49.74985" lon="4.7359">
        <ele>151.1</ele>
        <time>2020-06-25T10:16:34Z</time>
      </trkpt>
      <trkpt lat="49.7498" lon="4.73592">
        <ele>151.1</ele>
        <time>2020-06-25T10:16:35Z</time>
      </trkpt>
      <trkpt lat="49.74974" lon="4.73594">
        <ele>151.1</ele>
        <time>2020-06-25T10:16:36Z</time>
      </trkpt>
      <trkpt lat="49.74969" lon="4.73598">
        <ele>151.1</ele>
        <time>2020-06-25T10:16:37Z</time>
      </trkpt>
      <trkpt lat="49.74963" lon="4.73601">
        <ele>151.1</ele>
        <time>2020-06-25T10:16:38Z</time>
      </trkpt>
      <trkpt lat="49.74958" lon="4.73605">
        <ele>151.1</ele>
        <time>2020-06-25T10:16:39Z</time>
      </trkpt>
      <trkpt lat="49.74953" lon="4.73607">
        <ele>151</ele>
        <time>2020-06-25T10:16:40Z</time>
      </trkpt>
      <trkpt lat="49.74948" lon="4.7361">
        <ele>151</ele>
        <time>2020-06-25T10:16:41Z</time>
      </trkpt>
      <trkpt lat="49.74943" lon="4.73613">
        <ele>151</ele>
        <time>2020-06-25T10:16:42Z</time>
      </trkpt>
      <trkpt lat="49.74938" lon="4.73616">
        <ele>151</ele>
        <time>2020-06-25T10:16:43Z</time>
      </trkpt>
      <trkpt lat="49.74932" lon="4.73618">
        <ele>151</ele>
        <time>2020-06-25T10:16:44Z</time>
      </trkpt>
      <trkpt lat="49.74926" lon="4.7362">
        <ele>151</ele>
        <time>2020-06-25T10:16:45Z</time>
      </trkpt>
      <trkpt lat="49.74921" lon="4.73624">
        <ele>151.1</ele>
        <time>2020-06-25T10:16:46Z</time>
      </trkpt>
      <trkpt lat="49.74915" lon="4.73625">
        <ele>151.1</ele>
        <time>2020-06-25T10:16:47Z</time>
      </trkpt>
      <trkpt lat="49.7491" lon="4.73628">
        <ele>151.1</ele>
        <time>2020-06-25T10:16:48Z</time>
      </trkpt>
      <trkpt lat="49.74905" lon="4.7363">
        <ele>151.1</ele>
        <time>2020-06-25T10:16:49Z</time>
      </trkpt>
      <trkpt lat="49.749" lon="4.73631">
        <ele>151.1</ele>
        <time>2020-06-25T10:16:50Z</time>
      </trkpt>
      <trkpt lat="49.74895" lon="4.73632">
        <ele>151.1</ele>
        <time>2020-06-25T10:16:51Z</time>
      </trkpt>
      <trkpt lat="49.74889" lon="4.73634">
        <ele>151.1</ele>
        <time>2020-06-25T10:16:52Z</time>
      </trkpt>
      <trkpt lat="49.74883" lon="4.73634">
        <ele>151.1</ele>
        <time>2020-06-25T10:16:53Z</time>
      </trkpt>
      <trkpt lat="49.74878" lon="4.73636">
        <ele>151.1</ele>
        <time>2020-06-25T10:16:54Z</time>
      </trkpt>
      <trkpt lat="49.74872" lon="4.73637">
        <ele>151.1</ele>
        <time>2020-06-25T10:16:55Z</time>
      </trkpt>
      <trkpt lat="49.74867" lon="4.73639">
        <ele>151.1</ele>
        <time>2020-06-25T10:16:56Z</time>
      </trkpt>
      <trkpt lat="49.74863" lon="4.73639">
        <ele>151.1</ele>
        <time>2020-06-25T10:16:57Z</time>
      </trkpt>
      <trkpt lat="49.74856" lon="4.73638">
        <ele>151.1</ele>
        <time>2020-06-25T10:16:58Z</time>
      </trkpt>
      <trkpt lat="49.74851" lon="4.73638">
        <ele>151.1</ele>
        <time>2020-06-25T10:16:59Z</time>
      </trkpt>
      <trkpt lat="49.74844" lon="4.73638">
        <ele>151.1</ele>
        <time>2020-06-25T10:17:00Z</time>
      </trkpt>
      <trkpt lat="49.74839" lon="4.73638">
        <ele>151.1</ele>
        <time>2020-06-25T10:17:01Z</time>
      </trkpt>
      <trkpt lat="49.74833" lon="4.73638">
        <ele>151.1</ele>
        <time>2020-06-25T10:17:02Z</time>
      </trkpt>
      <trkpt lat="49.74828" lon="4.73638">
        <ele>151.1</ele>
        <time>2020-06-25T10:17:03Z</time>
      </trkpt>
      <trkpt lat="49.74822" lon="4.73639">
        <ele>151.1</ele>
        <time>2020-06-25T10:17:04Z</time>
      </trkpt>
      <trkpt lat="49.74817" lon="4.73639">
        <ele>151.1</ele>
        <time>2020-06-25T10:17:05Z</time>
      </trkpt>
      <trkpt lat="49.74811" lon="4.73639">
        <ele>151.1</ele>
        <time>2020-06-25T10:17:06Z</time>
      </trkpt>
      <trkpt lat="49.74805" lon="4.73639">
        <ele>151.1</ele>
        <time>2020-06-25T10:17:07Z</time>
      </trkpt>
      <trkpt lat="49.74799" lon="4.73639">
        <ele>151.1</ele>
        <time>2020-06-25T10:17:08Z</time>
      </trkpt>
      <trkpt lat="49.74792" lon="4.73638">
        <ele>151</ele>
        <time>2020-06-25T10:17:09Z</time>
      </trkpt>
      <trkpt lat="49.74788" lon="4.73638">
        <ele>151</ele>
        <time>2020-06-25T10:17:10Z</time>
      </trkpt>
      <trkpt lat="49.74783" lon="4.73637">
        <ele>151</ele>
        <time>2020-06-25T10:17:11Z</time>
      </trkpt>
      <trkpt lat="49.74778" lon="4.73636">
        <ele>151.1</ele>
        <time>2020-06-25T10:17:12Z</time>
      </trkpt>
      <trkpt lat="49.74773" lon="4.73633">
        <ele>151.1</ele>
        <time>2020-06-25T10:17:13Z</time>
      </trkpt>
      <trkpt lat="49.74769" lon="4.7363">
        <ele>151.1</ele>
        <time>2020-06-25T10:17:14Z</time>
      </trkpt>
      <trkpt lat="49.74765" lon="4.73629">
        <ele>151.1</ele>
        <time>2020-06-25T10:17:15Z</time>
      </trkpt>
      <trkpt lat="49.7476" lon="4.73628">
        <ele>151.1</ele>
        <time>2020-06-25T10:17:16Z</time>
      </trkpt>
      <trkpt lat="49.74754" lon="4.73626">
        <ele>151.1</ele>
        <time>2020-06-25T10:17:17Z</time>
      </trkpt>
      <trkpt lat="49.74749" lon="4.73625">
        <ele>151.1</ele>
        <time>2020-06-25T10:17:18Z</time>
      </trkpt>
      <trkpt lat="49.74744" lon="4.73624">
        <ele>151.1</ele>
        <time>2020-06-25T10:17:19Z</time>
      </trkpt>
      <trkpt lat="49.74738" lon="4.73622">
        <ele>151.1</ele>
        <time>2020-06-25T10:17:20Z</time>
      </trkpt>
      <trkpt lat="49.74733" lon="4.73619">
        <ele>151.1</ele>
        <time>2020-06-25T10:17:21Z</time>
      </trkpt>
      <trkpt lat="49.74727" lon="4.73617">
        <ele>151.1</ele>
        <time>2020-06-25T10:17:22Z</time>
      </trkpt>
      <trkpt lat="49.74722" lon="4.73615">
        <ele>151.1</ele>
        <time>2020-06-25T10:17:23Z</time>
      </trkpt>
      <trkpt lat="49.74717" lon="4.73613">
        <ele>151.1</ele>
        <time>2020-06-25T10:17:24Z</time>
      </trkpt>
      <trkpt lat="49.74712" lon="4.73612">
        <ele>151.1</ele>
        <time>2020-06-25T10:17:25Z</time>
      </trkpt>
      <trkpt lat="49.74707" lon="4.73611">
        <ele>151.1</ele>
        <time>2020-06-25T10:17:26Z</time>
      </trkpt>
      <trkpt lat="49.74702" lon="4.73609">
        <ele>151.1</ele>
        <time>2020-06-25T10:17:27Z</time>
      </trkpt>
      <trkpt lat="49.74696" lon="4.73606">
        <ele>151.1</ele>
        <time>2020-06-25T10:17:28Z</time>
      </trkpt>
      <trkpt lat="49.74692" lon="4.73604">
        <ele>151.1</ele>
        <time>2020-06-25T10:17:29Z</time>
      </trkpt>
      <trkpt lat="49.74687" lon="4.73602">
        <ele>151.1</ele>
        <time>2020-06-25T10:17:30Z</time>
      </trkpt>
      <trkpt lat="49.74682" lon="4.736">
        <ele>151.1</ele>
        <time>2020-06-25T10:17:31Z</time>
      </trkpt>
      <trkpt lat="49.74677" lon="4.73597">
        <ele>151.1</ele>
        <time>2020-06-25T10:17:32Z</time>
      </trkpt>
      <trkpt lat="49.74671" lon="4.73592">
        <ele>151.1</ele>
        <time>2020-06-25T10:17:33Z</time>
      </trkpt>
      <trkpt lat="49.74667" lon="4.73589">
        <ele>151.1</ele>
        <time>2020-06-25T10:17:34Z</time>
      </trkpt>
      <trkpt lat="49.74661" lon="4.73585">
        <ele>151.1</ele>
        <time>2020-06-25T10:17:35Z</time>
      </trkpt>
      <trkpt lat="49.74657" lon="4.73583">
        <ele>151.1</ele>
        <time>2020-06-25T10:17:36Z</time>
      </trkpt>
      <trkpt lat="49.74652" lon="4.7358">
        <ele>151.1</ele>
        <time>2020-06-25T10:17:37Z</time>
      </trkpt>
      <trkpt lat="49.74648" lon="4.73577">
        <ele>151.1</ele>
        <time>2020-06-25T10:17:38Z</time>
      </trkpt>
      <trkpt lat="49.74643" lon="4.73574">
        <ele>151.1</ele>
        <time>2020-06-25T10:17:39Z</time>
      </trkpt>
      <trkpt lat="49.74638" lon="4.73572">
        <ele>151.1</ele>
        <time>2020-06-25T10:17:40Z</time>
      </trkpt>
      <trkpt lat="49.74634" lon="4.73569">
        <ele>151.1</ele>
        <time>2020-06-25T10:17:41Z</time>
      </trkpt>
      <trkpt lat="49.74629" lon="4.73566">
        <ele>151.1</ele>
        <time>2020-06-25T10:17:42Z</time>
      </trkpt>
      <trkpt lat="49.74623" lon="4.73563">
        <ele>151.2</ele>
        <time>2020-06-25T10:17:43Z</time>
      </trkpt>
      <trkpt lat="49.74618" lon="4.7356">
        <ele>151.2</ele>
        <time>2020-06-25T10:17:44Z</time>
      </trkpt>
      <trkpt lat="49.74613" lon="4.73557">
        <ele>151.2</ele>
        <time>2020-06-25T10:17:45Z</time>
      </trkpt>
      <trkpt lat="49.74608" lon="4.73554">
        <ele>151.2</ele>
        <time>2020-06-25T10:17:46Z</time>
      </trkpt>
      <trkpt lat="49.74603" lon="4.73551">
        <ele>151.2</ele>
        <time>2020-06-25T10:17:47Z</time>
      </trkpt>
      <trkpt lat="49.74598" lon="4.73547">
        <ele>151.2</ele>
        <time>2020-06-25T10:17:48Z</time>
      </trkpt>
      <trkpt lat="49.74594" lon="4.73544">
        <ele>151.2</ele>
        <time>2020-06-25T10:17:49Z</time>
      </trkpt>
      <trkpt lat="49.74589" lon="4.73541">
        <ele>151.2</ele>
        <time>2020-06-25T10:17:50Z</time>
      </trkpt>
      <trkpt lat="49.74585" lon="4.73538">
        <ele>151.2</ele>
        <time>2020-06-25T10:17:51Z</time>
      </trkpt>
      <trkpt lat="49.74581" lon="4.73536">
        <ele>151.3</ele>
        <time>2020-06-25T10:17:52Z</time>
      </trkpt>
      <trkpt lat="49.74577" lon="4.73532">
        <ele>151.4</ele>
        <time>2020-06-25T10:17:53Z</time>
      </trkpt>
      <trkpt lat="49.74573" lon="4.73529">
        <ele>151.5</ele>
        <time>2020-06-25T10:17:54Z</time>
      </trkpt>
      <trkpt lat="49.74568" lon="4.73527">
        <ele>151.6</ele>
        <time>2020-06-25T10:17:55Z</time>
      </trkpt>
      <trkpt lat="49.74564" lon="4.73524">
        <ele>151.7</ele>
        <time>2020-06-25T10:17:56Z</time>
      </trkpt>
      <trkpt lat="49.74559" lon="4.73521">
        <ele>151.8</ele>
        <time>2020-06-25T10:17:57Z</time>
      </trkpt>
      <trkpt lat="49.74555" lon="4.73518">
        <ele>151.9</ele>
        <time>2020-06-25T10:17:58Z</time>
      </trkpt>
      <trkpt lat="49.74551" lon="4.73514">
        <ele>152</ele>
        <time>2020-06-25T10:17:59Z</time>
      </trkpt>
      <trkpt lat="49.74547" lon="4.73512">
        <ele>152.2</ele>
        <time>2020-06-25T10:18:00Z</time>
      </trkpt>
      <trkpt lat="49.74543" lon="4.73508">
        <ele>152.4</ele>
        <time>2020-06-25T10:18:01Z</time>
      </trkpt>
      <trkpt lat="49.74539" lon="4.73507">
        <ele>152.7</ele>
        <time>2020-06-25T10:18:02Z</time>
      </trkpt>
      <trkpt lat="49.74535" lon="4.73505">
        <ele>152.8</ele>
        <time>2020-06-25T10:18:03Z</time>
      </trkpt>
      <trkpt lat="49.74531" lon="4.73502">
        <ele>153</ele>
        <time>2020-06-25T10:18:04Z</time>
      </trkpt>
      <trkpt lat="49.74528" lon="4.73501">
        <ele>153.2</ele>
        <time>2020-06-25T10:18:05Z</time>
      </trkpt>
      <trkpt lat="49.74525" lon="4.73499">
        <ele>153.3</ele>
        <time>2020-06-25T10:18:06Z</time>
      </trkpt>
      <trkpt lat="49.74522" lon="4.73497">
        <ele>153.5</ele>
        <time>2020-06-25T10:18:07Z</time>
      </trkpt>
      <trkpt lat="49.74518" lon="4.73496">
        <ele>153.7</ele>
        <time>2020-06-25T10:18:08Z</time>
      </trkpt>
      <trkpt lat="49.74515" lon="4.73495">
        <ele>153.9</ele>
        <time>2020-06-25T10:18:09Z</time>
      </trkpt>
      <trkpt lat="49.74511" lon="4.73492">
        <ele>154.1</ele>
        <time>2020-06-25T10:18:10Z</time>
      </trkpt>
      <trkpt lat="49.74507" lon="4.7349">
        <ele>154.3</ele>
        <time>2020-06-25T10:18:11Z</time>
      </trkpt>
      <trkpt lat="49.74503" lon="4.73488">
        <ele>154.5</ele>
        <time>2020-06-25T10:18:12Z</time>
      </trkpt>
      <trkpt lat="49.745" lon="4.73487">
        <ele>154.7</ele>
        <time>2020-06-25T10:18:13Z</time>
      </trkpt>
      <trkpt lat="49.74496" lon="4.73485">
        <ele>154.9</ele>
        <time>2020-06-25T10:18:14Z</time>
      </trkpt>
      <trkpt lat="49.74492" lon="4.73483">
        <ele>155.1</ele>
        <time>2020-06-25T10:18:15Z</time>
      </trkpt>
      <trkpt lat="49.74488" lon="4.73482">
        <ele>155.3</ele>
        <time>2020-06-25T10:18:16Z</time>
      </trkpt>
      <trkpt lat="49.74484" lon="4.7348">
        <ele>155.5</ele>
        <time>2020-06-25T10:18:17Z</time>
      </trkpt>
      <trkpt lat="49.7448" lon="4.73479">
        <ele>155.7</ele>
        <time>2020-06-25T10:18:18Z</time>
      </trkpt>
      <trkpt lat="49.74476" lon="4.73478">
        <ele>155.8</ele>
        <time>2020-06-25T10:18:19Z</time>
      </trkpt>
      <trkpt lat="49.74473" lon="4.73477">
        <ele>155.9</ele>
        <time>2020-06-25T10:18:20Z</time>
      </trkpt>
      <trkpt lat="49.74469" lon="4.73477">
        <ele>156.1</ele>
        <time>2020-06-25T10:18:21Z</time>
      </trkpt>
      <trkpt lat="49.74466" lon="4.73476">
        <ele>156.2</ele>
        <time>2020-06-25T10:18:22Z</time>
      </trkpt>
      <trkpt lat="49.74463" lon="4.73475">
        <ele>156.3</ele>
        <time>2020-06-25T10:18:23Z</time>
      </trkpt>
      <trkpt lat="49.74459" lon="4.73476">
        <ele>156.4</ele>
        <time>2020-06-25T10:18:24Z</time>
      </trkpt>
      <trkpt lat="49.74455" lon="4.73475">
        <ele>156.5</ele>
        <time>2020-06-25T10:18:25Z</time>
      </trkpt>
      <trkpt lat="49.74451" lon="4.73476">
        <ele>156.6</ele>
        <time>2020-06-25T10:18:26Z</time>
      </trkpt>
      <trkpt lat="49.74448" lon="4.73477">
        <ele>156.7</ele>
        <time>2020-06-25T10:18:27Z</time>
      </trkpt>
      <trkpt lat="49.74444" lon="4.73477">
        <ele>156.8</ele>
        <time>2020-06-25T10:18:28Z</time>
      </trkpt>
      <trkpt lat="49.7444" lon="4.73478">
        <ele>156.8</ele>
        <time>2020-06-25T10:18:29Z</time>
      </trkpt>
      <trkpt lat="49.74437" lon="4.7348">
        <ele>156.8</ele>
        <time>2020-06-25T10:18:30Z</time>
      </trkpt>
      <trkpt lat="49.74434" lon="4.73483">
        <ele>156.8</ele>
        <time>2020-06-25T10:18:31Z</time>
      </trkpt>
      <trkpt lat="49.74431" lon="4.73484">
        <ele>156.8</ele>
        <time>2020-06-25T10:18:32Z</time>
      </trkpt>
      <trkpt lat="49.74427" lon="4.73486">
        <ele>156.8</ele>
        <time>2020-06-25T10:18:33Z</time>
      </trkpt>
      <trkpt lat="49.74424" lon="4.73487">
        <ele>156.8</ele>
        <time>2020-06-25T10:18:34Z</time>
      </trkpt>
      <trkpt lat="49.7442" lon="4.73489">
        <ele>156.8</ele>
        <time>2020-06-25T10:18:35Z</time>
      </trkpt>
      <trkpt lat="49.74417" lon="4.73492">
        <ele>156.8</ele>
        <time>2020-06-25T10:18:36Z</time>
      </trkpt>
      <trkpt lat="49.74415" lon="4.73494">
        <ele>156.8</ele>
        <time>2020-06-25T10:18:37Z</time>
      </trkpt>
      <trkpt lat="49.74411" lon="4.73498">
        <ele>156.7</ele>
        <time>2020-06-25T10:18:38Z</time>
      </trkpt>
      <trkpt lat="49.74407" lon="4.73501">
        <ele>156.7</ele>
        <time>2020-06-25T10:18:39Z</time>
      </trkpt>
      <trkpt lat="49.74404" lon="4.73506">
        <ele>156.7</ele>
        <time>2020-06-25T10:18:40Z</time>
      </trkpt>
      <trkpt lat="49.74401" lon="4.73511">
        <ele>156.6</ele>
        <time>2020-06-25T10:18:41Z</time>
      </trkpt>
      <trkpt lat="49.74396" lon="4.73516">
        <ele>156.5</ele>
        <time>2020-06-25T10:18:42Z</time>
      </trkpt>
      <trkpt lat="49.74392" lon="4.7352">
        <ele>156.5</ele>
        <time>2020-06-25T10:18:43Z</time>
      </trkpt>
      <trkpt lat="49.74388" lon="4.73524">
        <ele>156.4</ele>
        <time>2020-06-25T10:18:44Z</time>
      </trkpt>
      <trkpt lat="49.74385" lon="4.73528">
        <ele>156.3</ele>
        <time>2020-06-25T10:18:45Z</time>
      </trkpt>
      <trkpt lat="49.74381" lon="4.73533">
        <ele>156.1</ele>
        <time>2020-06-25T10:18:46Z</time>
      </trkpt>
      <trkpt lat="49.74377" lon="4.73539">
        <ele>156</ele>
        <time>2020-06-25T10:18:47Z</time>
      </trkpt>
      <trkpt lat="49.74373" lon="4.73543">
        <ele>155.9</ele>
        <time>2020-06-25T10:18:48Z</time>
      </trkpt>
      <trkpt lat="49.74369" lon="4.73548">
        <ele>155.7</ele>
        <time>2020-06-25T10:18:49Z</time>
      </trkpt>
      <trkpt lat="49.74365" lon="4.73554">
        <ele>155.6</ele>
        <time>2020-06-25T10:18:50Z</time>
      </trkpt>
      <trkpt lat="49.74361" lon="4.73559">
        <ele>155.4</ele>
        <time>2020-06-25T10:18:51Z</time>
      </trkpt>
      <trkpt lat="49.74357" lon="4.73565">
        <ele>155.3</ele>
        <time>2020-06-25T10:18:52Z</time>
      </trkpt>
      <trkpt lat="49.74354" lon="4.73571">
        <ele>155.1</ele>
        <time>2020-06-25T10:18:53Z</time>
      </trkpt>
      <trkpt lat="49.7435" lon="4.73576">
        <ele>154.9</ele>
        <time>2020-06-25T10:18:54Z</time>
      </trkpt>
      <trkpt lat="49.74345" lon="4.73582">
        <ele>154.8</ele>
        <time>2020-06-25T10:18:55Z</time>
      </trkpt>
      <trkpt lat="49.74341" lon="4.73588">
        <ele>154.6</ele>
        <time>2020-06-25T10:18:56Z</time>
      </trkpt>
      <trkpt lat="49.74336" lon="4.73593">
        <ele>154.4</ele>
        <time>2020-06-25T10:18:57Z</time>
      </trkpt>
      <trkpt lat="49.74332" lon="4.73599">
        <ele>154.2</ele>
        <time>2020-06-25T10:18:58Z</time>
      </trkpt>
      <trkpt lat="49.74328" lon="4.73607">
        <ele>154</ele>
        <time>2020-06-25T10:18:59Z</time>
      </trkpt>
      <trkpt lat="49.74324" lon="4.73613">
        <ele>153.8</ele>
        <time>2020-06-25T10:19:00Z</time>
      </trkpt>
      <trkpt lat="49.7432" lon="4.7362">
        <ele>153.6</ele>
        <time>2020-06-25T10:19:01Z</time>
      </trkpt>
      <trkpt lat="49.74316" lon="4.73626">
        <ele>153.4</ele>
        <time>2020-06-25T10:19:02Z</time>
      </trkpt>
      <trkpt lat="49.74313" lon="4.73634">
        <ele>153.3</ele>
        <time>2020-06-25T10:19:03Z</time>
      </trkpt>
      <trkpt lat="49.74309" lon="4.7364">
        <ele>153.1</ele>
        <time>2020-06-25T10:19:04Z</time>
      </trkpt>
      <trkpt lat="49.74306" lon="4.73647">
        <ele>153</ele>
        <time>2020-06-25T10:19:05Z</time>
      </trkpt>
      <trkpt lat="49.74303" lon="4.73655">
        <ele>152.9</ele>
        <time>2020-06-25T10:19:06Z</time>
      </trkpt>
      <trkpt lat="49.74299" lon="4.73664">
        <ele>152.8</ele>
        <time>2020-06-25T10:19:07Z</time>
      </trkpt>
      <trkpt lat="49.74296" lon="4.73672">
        <ele>152.7</ele>
        <time>2020-06-25T10:19:08Z</time>
      </trkpt>
      <trkpt lat="49.74292" lon="4.73682">
        <ele>152.7</ele>
        <time>2020-06-25T10:19:09Z</time>
      </trkpt>
      <trkpt lat="49.74289" lon="4.73691">
        <ele>152.6</ele>
        <time>2020-06-25T10:19:10Z</time>
      </trkpt>
      <trkpt lat="49.74286" lon="4.737">
        <ele>152.6</ele>
        <time>2020-06-25T10:19:11Z</time>
      </trkpt>
      <trkpt lat="49.74283" lon="4.73708">
        <ele>152.5</ele>
        <time>2020-06-25T10:19:12Z</time>
      </trkpt>
      <trkpt lat="49.7428" lon="4.73718">
        <ele>152.5</ele>
        <time>2020-06-25T10:19:13Z</time>
      </trkpt>
      <trkpt lat="49.74278" lon="4.73728">
        <ele>152.4</ele>
        <time>2020-06-25T10:19:14Z</time>
      </trkpt>
      <trkpt lat="49.74275" lon="4.73738">
        <ele>152.4</ele>
        <time>2020-06-25T10:19:15Z</time>
      </trkpt>
      <trkpt lat="49.74273" lon="4.73746">
        <ele>152.3</ele>
        <time>2020-06-25T10:19:16Z</time>
      </trkpt>
      <trkpt lat="49.74271" lon="4.73759">
        <ele>152.3</ele>
        <time>2020-06-25T10:19:17Z</time>
      </trkpt>
      <trkpt lat="49.74269" lon="4.73769">
        <ele>152.3</ele>
        <time>2020-06-25T10:19:18Z</time>
      </trkpt>
      <trkpt lat="49.74268" lon="4.73781">
        <ele>152.3</ele>
        <time>2020-06-25T10:19:19Z</time>
      </trkpt>
      <trkpt lat="49.74267" lon="4.73792">
        <ele>152.3</ele>
        <time>2020-06-25T10:19:20Z</time>
      </trkpt>
      <trkpt lat="49.74266" lon="4.73804">
        <ele>152.5</ele>
        <time>2020-06-25T10:19:21Z</time>
      </trkpt>
      <trkpt lat="49.74265" lon="4.73814">
        <ele>152.6</ele>
        <time>2020-06-25T10:19:22Z</time>
      </trkpt>
      <trkpt lat="49.74264" lon="4.73823">
        <ele>152.7</ele>
        <time>2020-06-25T10:19:23Z</time>
      </trkpt>
      <trkpt lat="49.74264" lon="4.73833">
        <ele>152.8</ele>
        <time>2020-06-25T10:19:24Z</time>
      </trkpt>
      <trkpt lat="49.74263" lon="4.73842">
        <ele>152.9</ele>
        <time>2020-06-25T10:19:25Z</time>
      </trkpt>
      <trkpt lat="49.74263" lon="4.73849">
        <ele>153</ele>
        <time>2020-06-25T10:19:26Z</time>
      </trkpt>
      <trkpt lat="49.74263" lon="4.73857">
        <ele>153.1</ele>
        <time>2020-06-25T10:19:27Z</time>
      </trkpt>
      <trkpt lat="49.74263" lon="4.73866">
        <ele>153.2</ele>
        <time>2020-06-25T10:19:28Z</time>
      </trkpt>
      <trkpt lat="49.74263" lon="4.73875">
        <ele>153.4</ele>
        <time>2020-06-25T10:19:29Z</time>
      </trkpt>
      <trkpt lat="49.74263" lon="4.73883">
        <ele>153.5</ele>
        <time>2020-06-25T10:19:30Z</time>
      </trkpt>
      <trkpt lat="49.74263" lon="4.73892">
        <ele>153.6</ele>
        <time>2020-06-25T10:19:31Z</time>
      </trkpt>
      <trkpt lat="49.74264" lon="4.73901">
        <ele>153.7</ele>
        <time>2020-06-25T10:19:32Z</time>
      </trkpt>
      <trkpt lat="49.74265" lon="4.7391">
        <ele>153.8</ele>
        <time>2020-06-25T10:19:33Z</time>
      </trkpt>
      <trkpt lat="49.74265" lon="4.73917">
        <ele>153.9</ele>
        <time>2020-06-25T10:19:34Z</time>
      </trkpt>
      <trkpt lat="49.74266" lon="4.73924">
        <ele>154.1</ele>
        <time>2020-06-25T10:19:35Z</time>
      </trkpt>
      <trkpt lat="49.74266" lon="4.73932">
        <ele>154.2</ele>
        <time>2020-06-25T10:19:36Z</time>
      </trkpt>
      <trkpt lat="49.74267" lon="4.73939">
        <ele>154.3</ele>
        <time>2020-06-25T10:19:37Z</time>
      </trkpt>
      <trkpt lat="49.74267" lon="4.73945">
        <ele>154.3</ele>
        <time>2020-06-25T10:19:38Z</time>
      </trkpt>
      <trkpt lat="49.74268" lon="4.73951">
        <ele>154.4</ele>
        <time>2020-06-25T10:19:39Z</time>
      </trkpt>
      <trkpt lat="49.74268" lon="4.73956">
        <ele>154.4</ele>
        <time>2020-06-25T10:19:40Z</time>
      </trkpt>
      <trkpt lat="49.74268" lon="4.7396">
        <ele>154.4</ele>
        <time>2020-06-25T10:19:41Z</time>
      </trkpt>
      <trkpt lat="49.74267" lon="4.73964">
        <ele>154.4</ele>
        <time>2020-06-25T10:19:42Z</time>
      </trkpt>
      <trkpt lat="49.74266" lon="4.7397">
        <ele>154.5</ele>
        <time>2020-06-25T10:19:43Z</time>
      </trkpt>
      <trkpt lat="49.74267" lon="4.73975">
        <ele>154.6</ele>
        <time>2020-06-25T10:19:44Z</time>
      </trkpt>
      <trkpt lat="49.74266" lon="4.7398">
        <ele>154.7</ele>
        <time>2020-06-25T10:19:45Z</time>
      </trkpt>
      <trkpt lat="49.74266" lon="4.73982">
        <ele>154.7</ele>
        <time>2020-06-25T10:19:46Z</time>
      </trkpt>
      <trkpt lat="49.74266" lon="4.73986">
        <ele>154.8</ele>
        <time>2020-06-25T10:19:47Z</time>
      </trkpt>
      <trkpt lat="49.74266" lon="4.73988">
        <ele>154.8</ele>
        <time>2020-06-25T10:19:48Z</time>
      </trkpt>
      <trkpt lat="49.74266" lon="4.73993">
        <ele>154.9</ele>
        <time>2020-06-25T10:19:49Z</time>
      </trkpt>
      <trkpt lat="49.74266" lon="4.73995">
        <ele>154.9</ele>
        <time>2020-06-25T10:19:50Z</time>
      </trkpt>
      <trkpt lat="49.74266" lon="4.74001">
        <ele>155</ele>
        <time>2020-06-25T10:19:51Z</time>
      </trkpt>
      <trkpt lat="49.74266" lon="4.74006">
        <ele>155.1</ele>
        <time>2020-06-25T10:19:52Z</time>
      </trkpt>
      <trkpt lat="49.74264" lon="4.74013">
        <ele>155.2</ele>
        <time>2020-06-25T10:19:53Z</time>
      </trkpt>
      <trkpt lat="49.74264" lon="4.74015">
        <ele>155.2</ele>
        <time>2020-06-25T10:19:54Z</time>
      </trkpt>
      <trkpt lat="49.74263" lon="4.74021">
        <ele>155.3</ele>
        <time>2020-06-25T10:19:55Z</time>
      </trkpt>
      <trkpt lat="49.74262" lon="4.74026">
        <ele>155.4</ele>
        <time>2020-06-25T10:19:56Z</time>
      </trkpt>
      <trkpt lat="49.74261" lon="4.74029">
        <ele>155.4</ele>
        <time>2020-06-25T10:19:57Z</time>
      </trkpt>
      <trkpt lat="49.74259" lon="4.74034">
        <ele>155.5</ele>
        <time>2020-06-25T10:19:58Z</time>
      </trkpt>
      <trkpt lat="49.74258" lon="4.74039">
        <ele>155.6</ele>
        <time>2020-06-25T10:19:59Z</time>
      </trkpt>
      <trkpt lat="49.74257" lon="4.74042">
        <ele>155.7</ele>
        <time>2020-06-25T10:20:00Z</time>
      </trkpt>
      <trkpt lat="49.74256" lon="4.74047">
        <ele>155.8</ele>
        <time>2020-06-25T10:20:01Z</time>
      </trkpt>
      <trkpt lat="49.74255" lon="4.74051">
        <ele>155.8</ele>
        <time>2020-06-25T10:20:02Z</time>
      </trkpt>
      <trkpt lat="49.74255" lon="4.74057">
        <ele>155.9</ele>
        <time>2020-06-25T10:20:03Z</time>
      </trkpt>
      <trkpt lat="49.74253" lon="4.74064">
        <ele>156</ele>
        <time>2020-06-25T10:20:04Z</time>
      </trkpt>
      <trkpt lat="49.7425" lon="4.74069">
        <ele>156.1</ele>
        <time>2020-06-25T10:20:05Z</time>
      </trkpt>
      <trkpt lat="49.74248" lon="4.74074">
        <ele>156.1</ele>
        <time>2020-06-25T10:20:06Z</time>
      </trkpt>
      <trkpt lat="49.74245" lon="4.74078">
        <ele>156.2</ele>
        <time>2020-06-25T10:20:07Z</time>
      </trkpt>
      <trkpt lat="49.74244" lon="4.74082">
        <ele>156.3</ele>
        <time>2020-06-25T10:20:08Z</time>
      </trkpt>
      <trkpt lat="49.74243" lon="4.74086">
        <ele>156.4</ele>
        <time>2020-06-25T10:20:09Z</time>
      </trkpt>
      <trkpt lat="49.7424" lon="4.74092">
        <ele>156.5</ele>
        <time>2020-06-25T10:20:10Z</time>
      </trkpt>
      <trkpt lat="49.74238" lon="4.74099">
        <ele>156.6</ele>
        <time>2020-06-25T10:20:11Z</time>
      </trkpt>
      <trkpt lat="49.74235" lon="4.74102">
        <ele>156.7</ele>
        <time>2020-06-25T10:20:12Z</time>
      </trkpt>
      <trkpt lat="49.74232" lon="4.74107">
        <ele>156.8</ele>
        <time>2020-06-25T10:20:13Z</time>
      </trkpt>
      <trkpt lat="49.74229" lon="4.74114">
        <ele>156.9</ele>
        <time>2020-06-25T10:20:14Z</time>
      </trkpt>
      <trkpt lat="49.74228" lon="4.74119">
        <ele>156.9</ele>
        <time>2020-06-25T10:20:15Z</time>
      </trkpt>
      <trkpt lat="49.74226" lon="4.74124">
        <ele>156.9</ele>
        <time>2020-06-25T10:20:16Z</time>
      </trkpt>
      <trkpt lat="49.74224" lon="4.74131">
        <ele>157</ele>
        <time>2020-06-25T10:20:17Z</time>
      </trkpt>
      <trkpt lat="49.74222" lon="4.74138">
        <ele>157.1</ele>
        <time>2020-06-25T10:20:18Z</time>
      </trkpt>
      <trkpt lat="49.74219" lon="4.74144">
        <ele>157.2</ele>
        <time>2020-06-25T10:20:19Z</time>
      </trkpt>
      <trkpt lat="49.74217" lon="4.74149">
        <ele>157.3</ele>
        <time>2020-06-25T10:20:20Z</time>
      </trkpt>
      <trkpt lat="49.74215" lon="4.74155">
        <ele>157.4</ele>
        <time>2020-06-25T10:20:21Z</time>
      </trkpt>
      <trkpt lat="49.74213" lon="4.74161">
        <ele>157.5</ele>
        <time>2020-06-25T10:20:22Z</time>
      </trkpt>
      <trkpt lat="49.7421" lon="4.74165">
        <ele>157.6</ele>
        <time>2020-06-25T10:20:23Z</time>
      </trkpt>
      <trkpt lat="49.74208" lon="4.74171">
        <ele>157.7</ele>
        <time>2020-06-25T10:20:24Z</time>
      </trkpt>
      <trkpt lat="49.74205" lon="4.74176">
        <ele>157.9</ele>
        <time>2020-06-25T10:20:25Z</time>
      </trkpt>
      <trkpt lat="49.74203" lon="4.74184">
        <ele>158</ele>
        <time>2020-06-25T10:20:26Z</time>
      </trkpt>
      <trkpt lat="49.742" lon="4.74191">
        <ele>158.1</ele>
        <time>2020-06-25T10:20:27Z</time>
      </trkpt>
      <trkpt lat="49.74197" lon="4.74197">
        <ele>158.3</ele>
        <time>2020-06-25T10:20:28Z</time>
      </trkpt>
      <trkpt lat="49.74195" lon="4.74203">
        <ele>158.4</ele>
        <time>2020-06-25T10:20:29Z</time>
      </trkpt>
      <trkpt lat="49.74193" lon="4.74209">
        <ele>158.5</ele>
        <time>2020-06-25T10:20:30Z</time>
      </trkpt>
      <trkpt lat="49.7419" lon="4.74212">
        <ele>158.6</ele>
        <time>2020-06-25T10:20:31Z</time>
      </trkpt>
      <trkpt lat="49.74189" lon="4.74218">
        <ele>158.6</ele>
        <time>2020-06-25T10:20:32Z</time>
      </trkpt>
      <trkpt lat="49.74186" lon="4.74223">
        <ele>158.7</ele>
        <time>2020-06-25T10:20:33Z</time>
      </trkpt>
      <trkpt lat="49.74184" lon="4.74229">
        <ele>158.8</ele>
        <time>2020-06-25T10:20:34Z</time>
      </trkpt>
      <trkpt lat="49.74181" lon="4.74233">
        <ele>158.9</ele>
        <time>2020-06-25T10:20:35Z</time>
      </trkpt>
      <trkpt lat="49.74178" lon="4.74237">
        <ele>159</ele>
        <time>2020-06-25T10:20:36Z</time>
      </trkpt>
      <trkpt lat="49.74176" lon="4.74242">
        <ele>159.1</ele>
        <time>2020-06-25T10:20:37Z</time>
      </trkpt>
      <trkpt lat="49.74173" lon="4.74247">
        <ele>159.2</ele>
        <time>2020-06-25T10:20:38Z</time>
      </trkpt>
      <trkpt lat="49.74171" lon="4.74253">
        <ele>159.4</ele>
        <time>2020-06-25T10:20:39Z</time>
      </trkpt>
      <trkpt lat="49.7417" lon="4.74259">
        <ele>159.5</ele>
        <time>2020-06-25T10:20:40Z</time>
      </trkpt>
      <trkpt lat="49.74167" lon="4.74264">
        <ele>159.6</ele>
        <time>2020-06-25T10:20:41Z</time>
      </trkpt>
      <trkpt lat="49.74165" lon="4.7427">
        <ele>159.7</ele>
        <time>2020-06-25T10:20:42Z</time>
      </trkpt>
      <trkpt lat="49.74163" lon="4.74275">
        <ele>159.8</ele>
        <time>2020-06-25T10:20:43Z</time>
      </trkpt>
      <trkpt lat="49.74161" lon="4.7428">
        <ele>159.9</ele>
        <time>2020-06-25T10:20:44Z</time>
      </trkpt>
      <trkpt lat="49.74158" lon="4.74285">
        <ele>160</ele>
        <time>2020-06-25T10:20:45Z</time>
      </trkpt>
      <trkpt lat="49.74156" lon="4.74291">
        <ele>160.1</ele>
        <time>2020-06-25T10:20:46Z</time>
      </trkpt>
      <trkpt lat="49.74154" lon="4.74296">
        <ele>160.2</ele>
        <time>2020-06-25T10:20:47Z</time>
      </trkpt>
      <trkpt lat="49.74152" lon="4.74302">
        <ele>160.2</ele>
        <time>2020-06-25T10:20:48Z</time>
      </trkpt>
      <trkpt lat="49.7415" lon="4.74307">
        <ele>160.4</ele>
        <time>2020-06-25T10:20:49Z</time>
      </trkpt>
      <trkpt lat="49.74148" lon="4.74313">
        <ele>160.5</ele>
        <time>2020-06-25T10:20:50Z</time>
      </trkpt>
      <trkpt lat="49.74146" lon="4.74318">
        <ele>160.6</ele>
        <time>2020-06-25T10:20:51Z</time>
      </trkpt>
      <trkpt lat="49.74144" lon="4.74325">
        <ele>160.8</ele>
        <time>2020-06-25T10:20:52Z</time>
      </trkpt>
      <trkpt lat="49.74142" lon="4.74328">
        <ele>160.9</ele>
        <time>2020-06-25T10:20:53Z</time>
      </trkpt>
      <trkpt lat="49.7414" lon="4.74333">
        <ele>161</ele>
        <time>2020-06-25T10:20:54Z</time>
      </trkpt>
      <trkpt lat="49.74137" lon="4.74337">
        <ele>161.1</ele>
        <time>2020-06-25T10:20:55Z</time>
      </trkpt>
      <trkpt lat="49.74136" lon="4.74344">
        <ele>161.2</ele>
        <time>2020-06-25T10:20:56Z</time>
      </trkpt>
      <trkpt lat="49.74134" lon="4.74348">
        <ele>161.4</ele>
        <time>2020-06-25T10:20:57Z</time>
      </trkpt>
      <trkpt lat="49.74131" lon="4.74354">
        <ele>161.5</ele>
        <time>2020-06-25T10:20:58Z</time>
      </trkpt>
      <trkpt lat="49.74129" lon="4.74358">
        <ele>161.6</ele>
        <time>2020-06-25T10:20:59Z</time>
      </trkpt>
      <trkpt lat="49.74128" lon="4.74362">
        <ele>161.7</ele>
        <time>2020-06-25T10:21:00Z</time>
      </trkpt>
      <trkpt lat="49.74125" lon="4.74368">
        <ele>161.8</ele>
        <time>2020-06-25T10:21:01Z</time>
      </trkpt>
      <trkpt lat="49.74123" lon="4.74371">
        <ele>161.9</ele>
        <time>2020-06-25T10:21:02Z</time>
      </trkpt>
      <trkpt lat="49.74121" lon="4.74378">
        <ele>162</ele>
        <time>2020-06-25T10:21:03Z</time>
      </trkpt>
      <trkpt lat="49.74118" lon="4.74386">
        <ele>162.2</ele>
        <time>2020-06-25T10:21:04Z</time>
      </trkpt>
      <trkpt lat="49.74116" lon="4.7439">
        <ele>162.2</ele>
        <time>2020-06-25T10:21:05Z</time>
      </trkpt>
      <trkpt lat="49.74114" lon="4.74396">
        <ele>162.3</ele>
        <time>2020-06-25T10:21:06Z</time>
      </trkpt>
      <trkpt lat="49.74111" lon="4.74401">
        <ele>162.3</ele>
        <time>2020-06-25T10:21:07Z</time>
      </trkpt>
      <trkpt lat="49.74109" lon="4.74406">
        <ele>162.4</ele>
        <time>2020-06-25T10:21:08Z</time>
      </trkpt>
      <trkpt lat="49.74106" lon="4.7441">
        <ele>162.4</ele>
        <time>2020-06-25T10:21:09Z</time>
      </trkpt>
      <trkpt lat="49.74104" lon="4.74415">
        <ele>162.5</ele>
        <time>2020-06-25T10:21:10Z</time>
      </trkpt>
      <trkpt lat="49.74102" lon="4.74419">
        <ele>162.5</ele>
        <time>2020-06-25T10:21:11Z</time>
      </trkpt>
      <trkpt lat="49.74098" lon="4.74425">
        <ele>162.6</ele>
        <time>2020-06-25T10:21:12Z</time>
      </trkpt>
      <trkpt lat="49.74096" lon="4.74431">
        <ele>162.7</ele>
        <time>2020-06-25T10:21:13Z</time>
      </trkpt>
      <trkpt lat="49.74094" lon="4.74436">
        <ele>162.8</ele>
        <time>2020-06-25T10:21:14Z</time>
      </trkpt>
      <trkpt lat="49.74091" lon="4.74442">
        <ele>162.9</ele>
        <time>2020-06-25T10:21:15Z</time>
      </trkpt>
      <trkpt lat="49.74089" lon="4.74447">
        <ele>163</ele>
        <time>2020-06-25T10:21:16Z</time>
      </trkpt>
      <trkpt lat="49.74087" lon="4.74453">
        <ele>163</ele>
        <time>2020-06-25T10:21:17Z</time>
      </trkpt>
      <trkpt lat="49.74085" lon="4.74458">
        <ele>163.1</ele>
        <time>2020-06-25T10:21:18Z</time>
      </trkpt>
      <trkpt lat="49.74082" lon="4.74465">
        <ele>163.2</ele>
        <time>2020-06-25T10:21:19Z</time>
      </trkpt>
      <trkpt lat="49.74079" lon="4.74472">
        <ele>163.3</ele>
        <time>2020-06-25T10:21:20Z</time>
      </trkpt>
      <trkpt lat="49.74077" lon="4.74477">
        <ele>163.4</ele>
        <time>2020-06-25T10:21:21Z</time>
      </trkpt>
      <trkpt lat="49.74075" lon="4.74481">
        <ele>163.5</ele>
        <time>2020-06-25T10:21:22Z</time>
      </trkpt>
      <trkpt lat="49.74074" lon="4.74483">
        <ele>163.5</ele>
        <time>2020-06-25T10:21:23Z</time>
      </trkpt>
      <trkpt lat="49.74073" lon="4.74486">
        <ele>163.6</ele>
        <time>2020-06-25T10:21:24Z</time>
      </trkpt>
      <trkpt lat="49.74072" lon="4.74491">
        <ele>163.7</ele>
        <time>2020-06-25T10:21:25Z</time>
      </trkpt>
      <trkpt lat="49.7407" lon="4.74496">
        <ele>163.8</ele>
        <time>2020-06-25T10:21:26Z</time>
      </trkpt>
      <trkpt lat="49.74068" lon="4.74502">
        <ele>163.9</ele>
        <time>2020-06-25T10:21:27Z</time>
      </trkpt>
      <trkpt lat="49.74066" lon="4.74507">
        <ele>164</ele>
        <time>2020-06-25T10:21:28Z</time>
      </trkpt>
      <trkpt lat="49.74064" lon="4.74513">
        <ele>164.1</ele>
        <time>2020-06-25T10:21:29Z</time>
      </trkpt>
      <trkpt lat="49.7406" lon="4.74521">
        <ele>164.3</ele>
        <time>2020-06-25T10:21:30Z</time>
      </trkpt>
      <trkpt lat="49.74058" lon="4.74525">
        <ele>164.4</ele>
        <time>2020-06-25T10:21:31Z</time>
      </trkpt>
      <trkpt lat="49.74056" lon="4.7453">
        <ele>164.5</ele>
        <time>2020-06-25T10:21:32Z</time>
      </trkpt>
      <trkpt lat="49.74054" lon="4.74536">
        <ele>164.6</ele>
        <time>2020-06-25T10:21:33Z</time>
      </trkpt>
      <trkpt lat="49.74052" lon="4.7454">
        <ele>164.7</ele>
        <time>2020-06-25T10:21:34Z</time>
      </trkpt>
      <trkpt lat="49.74049" lon="4.74544">
        <ele>164.8</ele>
        <time>2020-06-25T10:21:35Z</time>
      </trkpt>
      <trkpt lat="49.74047" lon="4.7455">
        <ele>164.9</ele>
        <time>2020-06-25T10:21:36Z</time>
      </trkpt>
      <trkpt lat="49.74044" lon="4.74555">
        <ele>165</ele>
        <time>2020-06-25T10:21:37Z</time>
      </trkpt>
      <trkpt lat="49.74042" lon="4.74561">
        <ele>165.1</ele>
        <time>2020-06-25T10:21:38Z</time>
      </trkpt>
      <trkpt lat="49.74039" lon="4.74566">
        <ele>165.3</ele>
        <time>2020-06-25T10:21:39Z</time>
      </trkpt>
      <trkpt lat="49.74037" lon="4.7457">
        <ele>165.4</ele>
        <time>2020-06-25T10:21:40Z</time>
      </trkpt>
      <trkpt lat="49.74034" lon="4.74575">
        <ele>165.5</ele>
        <time>2020-06-25T10:21:41Z</time>
      </trkpt>
      <trkpt lat="49.74032" lon="4.74581">
        <ele>165.7</ele>
        <time>2020-06-25T10:21:42Z</time>
      </trkpt>
      <trkpt lat="49.7403" lon="4.74588">
        <ele>165.8</ele>
        <time>2020-06-25T10:21:43Z</time>
      </trkpt>
      <trkpt lat="49.74028" lon="4.74592">
        <ele>165.9</ele>
        <time>2020-06-25T10:21:44Z</time>
      </trkpt>
      <trkpt lat="49.74026" lon="4.74596">
        <ele>166</ele>
        <time>2020-06-25T10:21:45Z</time>
      </trkpt>
      <trkpt lat="49.74024" lon="4.74601">
        <ele>166.1</ele>
        <time>2020-06-25T10:21:46Z</time>
      </trkpt>
      <trkpt lat="49.74023" lon="4.74607">
        <ele>166.2</ele>
        <time>2020-06-25T10:21:47Z</time>
      </trkpt>
      <trkpt lat="49.74021" lon="4.74612">
        <ele>166.2</ele>
        <time>2020-06-25T10:21:48Z</time>
      </trkpt>
      <trkpt lat="49.74019" lon="4.74618">
        <ele>166.3</ele>
        <time>2020-06-25T10:21:49Z</time>
      </trkpt>
      <trkpt lat="49.74017" lon="4.74623">
        <ele>166.4</ele>
        <time>2020-06-25T10:21:50Z</time>
      </trkpt>
      <trkpt lat="49.74015" lon="4.74628">
        <ele>166.5</ele>
        <time>2020-06-25T10:21:51Z</time>
      </trkpt>
      <trkpt lat="49.74012" lon="4.74635">
        <ele>166.6</ele>
        <time>2020-06-25T10:21:52Z</time>
      </trkpt>
      <trkpt lat="49.7401" lon="4.7464">
        <ele>166.7</ele>
        <time>2020-06-25T10:21:53Z</time>
      </trkpt>
      <trkpt lat="49.74007" lon="4.74645">
        <ele>166.8</ele>
        <time>2020-06-25T10:21:54Z</time>
      </trkpt>
      <trkpt lat="49.74005" lon="4.74648">
        <ele>166.8</ele>
        <time>2020-06-25T10:21:55Z</time>
      </trkpt>
      <trkpt lat="49.74002" lon="4.74653">
        <ele>166.9</ele>
        <time>2020-06-25T10:21:56Z</time>
      </trkpt>
      <trkpt lat="49.73999" lon="4.74657">
        <ele>167</ele>
        <time>2020-06-25T10:21:57Z</time>
      </trkpt>
      <trkpt lat="49.73996" lon="4.74662">
        <ele>167</ele>
        <time>2020-06-25T10:21:58Z</time>
      </trkpt>
      <trkpt lat="49.73994" lon="4.74666">
        <ele>167.1</ele>
        <time>2020-06-25T10:21:59Z</time>
      </trkpt>
      <trkpt lat="49.73992" lon="4.74671">
        <ele>167.1</ele>
        <time>2020-06-25T10:22:00Z</time>
      </trkpt>
      <trkpt lat="49.73988" lon="4.7468">
        <ele>167.1</ele>
        <time>2020-06-25T10:22:01Z</time>
      </trkpt>
      <trkpt lat="49.73985" lon="4.74684">
        <ele>167.1</ele>
        <time>2020-06-25T10:22:02Z</time>
      </trkpt>
      <trkpt lat="49.73982" lon="4.74687">
        <ele>167.1</ele>
        <time>2020-06-25T10:22:03Z</time>
      </trkpt>
      <trkpt lat="49.73979" lon="4.74691">
        <ele>167</ele>
        <time>2020-06-25T10:22:04Z</time>
      </trkpt>
      <trkpt lat="49.73977" lon="4.74695">
        <ele>167</ele>
        <time>2020-06-25T10:22:05Z</time>
      </trkpt>
      <trkpt lat="49.73974" lon="4.747">
        <ele>166.9</ele>
        <time>2020-06-25T10:22:06Z</time>
      </trkpt>
      <trkpt lat="49.73972" lon="4.74704">
        <ele>166.8</ele>
        <time>2020-06-25T10:22:07Z</time>
      </trkpt>
      <trkpt lat="49.73968" lon="4.7471">
        <ele>166.7</ele>
        <time>2020-06-25T10:22:08Z</time>
      </trkpt>
      <trkpt lat="49.73964" lon="4.74715">
        <ele>166.6</ele>
        <time>2020-06-25T10:22:09Z</time>
      </trkpt>
      <trkpt lat="49.73961" lon="4.7472">
        <ele>166.5</ele>
        <time>2020-06-25T10:22:10Z</time>
      </trkpt>
      <trkpt lat="49.73959" lon="4.74724">
        <ele>166.5</ele>
        <time>2020-06-25T10:22:11Z</time>
      </trkpt>
      <trkpt lat="49.73956" lon="4.74729">
        <ele>166.4</ele>
        <time>2020-06-25T10:22:12Z</time>
      </trkpt>
      <trkpt lat="49.73953" lon="4.74734">
        <ele>166.3</ele>
        <time>2020-06-25T10:22:13Z</time>
      </trkpt>
      <trkpt lat="49.7395" lon="4.74739">
        <ele>166.3</ele>
        <time>2020-06-25T10:22:14Z</time>
      </trkpt>
      <trkpt lat="49.73947" lon="4.74742">
        <ele>166.3</ele>
        <time>2020-06-25T10:22:15Z</time>
      </trkpt>
      <trkpt lat="49.73945" lon="4.74745">
        <ele>166.2</ele>
        <time>2020-06-25T10:22:16Z</time>
      </trkpt>
      <trkpt lat="49.73941" lon="4.74748">
        <ele>166.2</ele>
        <time>2020-06-25T10:22:17Z</time>
      </trkpt>
      <trkpt lat="49.73939" lon="4.74751">
        <ele>166.2</ele>
        <time>2020-06-25T10:22:18Z</time>
      </trkpt>
      <trkpt lat="49.73935" lon="4.74754">
        <ele>166.1</ele>
        <time>2020-06-25T10:22:19Z</time>
      </trkpt>
      <trkpt lat="49.73933" lon="4.74756">
        <ele>166.1</ele>
        <time>2020-06-25T10:22:20Z</time>
      </trkpt>
      <trkpt lat="49.7393" lon="4.74759">
        <ele>166</ele>
        <time>2020-06-25T10:22:21Z</time>
      </trkpt>
      <trkpt lat="49.73927" lon="4.74763">
        <ele>166</ele>
        <time>2020-06-25T10:22:22Z</time>
      </trkpt>
      <trkpt lat="49.73923" lon="4.74766">
        <ele>165.9</ele>
        <time>2020-06-25T10:22:23Z</time>
      </trkpt>
      <trkpt lat="49.73921" lon="4.74769">
        <ele>165.9</ele>
        <time>2020-06-25T10:22:24Z</time>
      </trkpt>
      <trkpt lat="49.73918" lon="4.74772">
        <ele>165.8</ele>
        <time>2020-06-25T10:22:25Z</time>
      </trkpt>
      <trkpt lat="49.73915" lon="4.74776">
        <ele>165.8</ele>
        <time>2020-06-25T10:22:26Z</time>
      </trkpt>
      <trkpt lat="49.73912" lon="4.7478">
        <ele>165.7</ele>
        <time>2020-06-25T10:22:27Z</time>
      </trkpt>
      <trkpt lat="49.73908" lon="4.74783">
        <ele>165.6</ele>
        <time>2020-06-25T10:22:28Z</time>
      </trkpt>
      <trkpt lat="49.73905" lon="4.74785">
        <ele>165.6</ele>
        <time>2020-06-25T10:22:29Z</time>
      </trkpt>
      <trkpt lat="49.73901" lon="4.74785">
        <ele>165.5</ele>
        <time>2020-06-25T10:22:30Z</time>
      </trkpt>
      <trkpt lat="49.73899" lon="4.74789">
        <ele>165.4</ele>
        <time>2020-06-25T10:22:31Z</time>
      </trkpt>
      <trkpt lat="49.73895" lon="4.74792">
        <ele>165.3</ele>
        <time>2020-06-25T10:22:32Z</time>
      </trkpt>
      <trkpt lat="49.73891" lon="4.74795">
        <ele>165.2</ele>
        <time>2020-06-25T10:22:33Z</time>
      </trkpt>
      <trkpt lat="49.73887" lon="4.74797">
        <ele>165.1</ele>
        <time>2020-06-25T10:22:34Z</time>
      </trkpt>
      <trkpt lat="49.73883" lon="4.748">
        <ele>164.9</ele>
        <time>2020-06-25T10:22:35Z</time>
      </trkpt>
      <trkpt lat="49.73877" lon="4.74802">
        <ele>164.8</ele>
        <time>2020-06-25T10:22:36Z</time>
      </trkpt>
      <trkpt lat="49.73873" lon="4.74805">
        <ele>164.6</ele>
        <time>2020-06-25T10:22:37Z</time>
      </trkpt>
      <trkpt lat="49.73867" lon="4.74808">
        <ele>164.4</ele>
        <time>2020-06-25T10:22:38Z</time>
      </trkpt>
      <trkpt lat="49.73863" lon="4.74811">
        <ele>164.2</ele>
        <time>2020-06-25T10:22:39Z</time>
      </trkpt>
      <trkpt lat="49.73858" lon="4.74816">
        <ele>164.1</ele>
        <time>2020-06-25T10:22:40Z</time>
      </trkpt>
      <trkpt lat="49.73854" lon="4.74818">
        <ele>163.9</ele>
        <time>2020-06-25T10:22:41Z</time>
      </trkpt>
      <trkpt lat="49.7385" lon="4.7482">
        <ele>163.7</ele>
        <time>2020-06-25T10:22:42Z</time>
      </trkpt>
      <trkpt lat="49.73845" lon="4.74824">
        <ele>163.5</ele>
        <time>2020-06-25T10:22:43Z</time>
      </trkpt>
      <trkpt lat="49.7384" lon="4.74827">
        <ele>163.3</ele>
        <time>2020-06-25T10:22:44Z</time>
      </trkpt>
      <trkpt lat="49.73836" lon="4.74831">
        <ele>163.1</ele>
        <time>2020-06-25T10:22:45Z</time>
      </trkpt>
      <trkpt lat="49.73831" lon="4.74834">
        <ele>162.9</ele>
        <time>2020-06-25T10:22:46Z</time>
      </trkpt>
      <trkpt lat="49.73827" lon="4.74838">
        <ele>162.7</ele>
        <time>2020-06-25T10:22:47Z</time>
      </trkpt>
      <trkpt lat="49.73822" lon="4.74841">
        <ele>162.5</ele>
        <time>2020-06-25T10:22:48Z</time>
      </trkpt>
      <trkpt lat="49.73817" lon="4.74845">
        <ele>162.3</ele>
        <time>2020-06-25T10:22:49Z</time>
      </trkpt>
      <trkpt lat="49.73812" lon="4.74849">
        <ele>162.3</ele>
        <time>2020-06-25T10:22:50Z</time>
      </trkpt>
      <trkpt lat="49.73806" lon="4.74853">
        <ele>162.2</ele>
        <time>2020-06-25T10:22:51Z</time>
      </trkpt>
      <trkpt lat="49.738" lon="4.74858">
        <ele>162.2</ele>
        <time>2020-06-25T10:22:52Z</time>
      </trkpt>
      <trkpt lat="49.73793" lon="4.74863">
        <ele>162</ele>
        <time>2020-06-25T10:22:53Z</time>
      </trkpt>
      <trkpt lat="49.73787" lon="4.74866">
        <ele>161.7</ele>
        <time>2020-06-25T10:22:54Z</time>
      </trkpt>
      <trkpt lat="49.73781" lon="4.74872">
        <ele>161.4</ele>
        <time>2020-06-25T10:22:55Z</time>
      </trkpt>
      <trkpt lat="49.73775" lon="4.74876">
        <ele>161</ele>
        <time>2020-06-25T10:22:56Z</time>
      </trkpt>
      <trkpt lat="49.73768" lon="4.7488">
        <ele>160.6</ele>
        <time>2020-06-25T10:22:57Z</time>
      </trkpt>
      <trkpt lat="49.73761" lon="4.74884">
        <ele>160.3</ele>
        <time>2020-06-25T10:22:58Z</time>
      </trkpt>
      <trkpt lat="49.73754" lon="4.74888">
        <ele>159.9</ele>
        <time>2020-06-25T10:22:59Z</time>
      </trkpt>
      <trkpt lat="49.73748" lon="4.74893">
        <ele>159.5</ele>
        <time>2020-06-25T10:23:00Z</time>
      </trkpt>
      <trkpt lat="49.73741" lon="4.74897">
        <ele>159.1</ele>
        <time>2020-06-25T10:23:01Z</time>
      </trkpt>
      <trkpt lat="49.73733" lon="4.74903">
        <ele>158.6</ele>
        <time>2020-06-25T10:23:02Z</time>
      </trkpt>
      <trkpt lat="49.73726" lon="4.74909">
        <ele>158.1</ele>
        <time>2020-06-25T10:23:03Z</time>
      </trkpt>
      <trkpt lat="49.73719" lon="4.74914">
        <ele>157.7</ele>
        <time>2020-06-25T10:23:04Z</time>
      </trkpt>
      <trkpt lat="49.73713" lon="4.74919">
        <ele>157.3</ele>
        <time>2020-06-25T10:23:05Z</time>
      </trkpt>
      <trkpt lat="49.73706" lon="4.74924">
        <ele>156.8</ele>
        <time>2020-06-25T10:23:06Z</time>
      </trkpt>
      <trkpt lat="49.73699" lon="4.74929">
        <ele>156.4</ele>
        <time>2020-06-25T10:23:07Z</time>
      </trkpt>
      <trkpt lat="49.73691" lon="4.74934">
        <ele>155.9</ele>
        <time>2020-06-25T10:23:08Z</time>
      </trkpt>
      <trkpt lat="49.73684" lon="4.7494">
        <ele>155.5</ele>
        <time>2020-06-25T10:23:09Z</time>
      </trkpt>
      <trkpt lat="49.73676" lon="4.74946">
        <ele>155</ele>
        <time>2020-06-25T10:23:10Z</time>
      </trkpt>
      <trkpt lat="49.73669" lon="4.74951">
        <ele>154.6</ele>
        <time>2020-06-25T10:23:11Z</time>
      </trkpt>
      <trkpt lat="49.73661" lon="4.74956">
        <ele>154.2</ele>
        <time>2020-06-25T10:23:12Z</time>
      </trkpt>
      <trkpt lat="49.73653" lon="4.74962">
        <ele>153.8</ele>
        <time>2020-06-25T10:23:13Z</time>
      </trkpt>
      <trkpt lat="49.73644" lon="4.74967">
        <ele>153.4</ele>
        <time>2020-06-25T10:23:14Z</time>
      </trkpt>
      <trkpt lat="49.73636" lon="4.74973">
        <ele>153.1</ele>
        <time>2020-06-25T10:23:15Z</time>
      </trkpt>
      <trkpt lat="49.73627" lon="4.74978">
        <ele>152.9</ele>
        <time>2020-06-25T10:23:16Z</time>
      </trkpt>
      <trkpt lat="49.7362" lon="4.74984">
        <ele>152.8</ele>
        <time>2020-06-25T10:23:17Z</time>
      </trkpt>
      <trkpt lat="49.73612" lon="4.7499">
        <ele>152.7</ele>
        <time>2020-06-25T10:23:18Z</time>
      </trkpt>
      <trkpt lat="49.73604" lon="4.74997">
        <ele>152.6</ele>
        <time>2020-06-25T10:23:19Z</time>
      </trkpt>
      <trkpt lat="49.73597" lon="4.75003">
        <ele>152.5</ele>
        <time>2020-06-25T10:23:20Z</time>
      </trkpt>
      <trkpt lat="49.7359" lon="4.75009">
        <ele>152.5</ele>
        <time>2020-06-25T10:23:21Z</time>
      </trkpt>
      <trkpt lat="49.73583" lon="4.75014">
        <ele>152.4</ele>
        <time>2020-06-25T10:23:22Z</time>
      </trkpt>
      <trkpt lat="49.73577" lon="4.75019">
        <ele>152.3</ele>
        <time>2020-06-25T10:23:23Z</time>
      </trkpt>
      <trkpt lat="49.73571" lon="4.75022">
        <ele>152.2</ele>
        <time>2020-06-25T10:23:24Z</time>
      </trkpt>
      <trkpt lat="49.73564" lon="4.75025">
        <ele>152.1</ele>
        <time>2020-06-25T10:23:25Z</time>
      </trkpt>
      <trkpt lat="49.73558" lon="4.75028">
        <ele>152.1</ele>
        <time>2020-06-25T10:23:26Z</time>
      </trkpt>
      <trkpt lat="49.73552" lon="4.75032">
        <ele>152.1</ele>
        <time>2020-06-25T10:23:27Z</time>
      </trkpt>
      <trkpt lat="49.73546" lon="4.75036">
        <ele>152.1</ele>
        <time>2020-06-25T10:23:28Z</time>
      </trkpt>
      <trkpt lat="49.73541" lon="4.75041">
        <ele>152.1</ele>
        <time>2020-06-25T10:23:29Z</time>
      </trkpt>
      <trkpt lat="49.73535" lon="4.75044">
        <ele>152.1</ele>
        <time>2020-06-25T10:23:30Z</time>
      </trkpt>
      <trkpt lat="49.73529" lon="4.75047">
        <ele>152.1</ele>
        <time>2020-06-25T10:23:31Z</time>
      </trkpt>
      <trkpt lat="49.73524" lon="4.7505">
        <ele>152.1</ele>
        <time>2020-06-25T10:23:32Z</time>
      </trkpt>
      <trkpt lat="49.73518" lon="4.75054">
        <ele>152.1</ele>
        <time>2020-06-25T10:23:33Z</time>
      </trkpt>
      <trkpt lat="49.73513" lon="4.75058">
        <ele>152.2</ele>
        <time>2020-06-25T10:23:34Z</time>
      </trkpt>
      <trkpt lat="49.73508" lon="4.75061">
        <ele>152.2</ele>
        <time>2020-06-25T10:23:35Z</time>
      </trkpt>
      <trkpt lat="49.73503" lon="4.75064">
        <ele>152.2</ele>
        <time>2020-06-25T10:23:36Z</time>
      </trkpt>
      <trkpt lat="49.73498" lon="4.75067">
        <ele>152.2</ele>
        <time>2020-06-25T10:23:37Z</time>
      </trkpt>
      <trkpt lat="49.73493" lon="4.7507">
        <ele>152.2</ele>
        <time>2020-06-25T10:23:38Z</time>
      </trkpt>
      <trkpt lat="49.73488" lon="4.75072">
        <ele>152.2</ele>
        <time>2020-06-25T10:23:39Z</time>
      </trkpt>
      <trkpt lat="49.73483" lon="4.75074">
        <ele>152.1</ele>
        <time>2020-06-25T10:23:40Z</time>
      </trkpt>
      <trkpt lat="49.73478" lon="4.75077">
        <ele>152.1</ele>
        <time>2020-06-25T10:23:41Z</time>
      </trkpt>
      <trkpt lat="49.73473" lon="4.7508">
        <ele>152.1</ele>
        <time>2020-06-25T10:23:42Z</time>
      </trkpt>
      <trkpt lat="49.73468" lon="4.75082">
        <ele>152.1</ele>
        <time>2020-06-25T10:23:43Z</time>
      </trkpt>
      <trkpt lat="49.73463" lon="4.75085">
        <ele>152.1</ele>
        <time>2020-06-25T10:23:44Z</time>
      </trkpt>
      <trkpt lat="49.73458" lon="4.75088">
        <ele>152.1</ele>
        <time>2020-06-25T10:23:45Z</time>
      </trkpt>
      <trkpt lat="49.73455" lon="4.75091">
        <ele>152</ele>
        <time>2020-06-25T10:23:46Z</time>
      </trkpt>
      <trkpt lat="49.73451" lon="4.7509">
        <ele>152</ele>
        <time>2020-06-25T10:23:47Z</time>
      </trkpt>
      <trkpt lat="49.73448" lon="4.75092">
        <ele>152</ele>
        <time>2020-06-25T10:23:48Z</time>
      </trkpt>
      <trkpt lat="49.73446" lon="4.75095">
        <ele>152</ele>
        <time>2020-06-25T10:23:49Z</time>
      </trkpt>
      <trkpt lat="49.73443" lon="4.75097">
        <ele>152</ele>
        <time>2020-06-25T10:23:50Z</time>
      </trkpt>
      <trkpt lat="49.73442" lon="4.75098">
        <ele>152</ele>
        <time>2020-06-25T10:23:51Z</time>
      </trkpt>
      <trkpt lat="49.73438" lon="4.75101">
        <ele>152</ele>
        <time>2020-06-25T10:23:52Z</time>
      </trkpt>
      <trkpt lat="49.73437" lon="4.75102">
        <ele>152</ele>
        <time>2020-06-25T10:23:53Z</time>
      </trkpt>
      <trkpt lat="49.73433" lon="4.75103">
        <ele>151.9</ele>
        <time>2020-06-25T10:23:54Z</time>
      </trkpt>
      <trkpt lat="49.7343" lon="4.75105">
        <ele>151.9</ele>
        <time>2020-06-25T10:23:55Z</time>
      </trkpt>
      <trkpt lat="49.73426" lon="4.75105">
        <ele>151.9</ele>
        <time>2020-06-25T10:23:56Z</time>
      </trkpt>
      <trkpt lat="49.73422" lon="4.75106">
        <ele>151.8</ele>
        <time>2020-06-25T10:23:57Z</time>
      </trkpt>
      <trkpt lat="49.73417" lon="4.75109">
        <ele>151.8</ele>
        <time>2020-06-25T10:23:58Z</time>
      </trkpt>
      <trkpt lat="49.73413" lon="4.75111">
        <ele>151.8</ele>
        <time>2020-06-25T10:23:59Z</time>
      </trkpt>
      <trkpt lat="49.73408" lon="4.75113">
        <ele>151.7</ele>
        <time>2020-06-25T10:24:00Z</time>
      </trkpt>
      <trkpt lat="49.73403" lon="4.75115">
        <ele>151.7</ele>
        <time>2020-06-25T10:24:01Z</time>
      </trkpt>
      <trkpt lat="49.73398" lon="4.75117">
        <ele>151.7</ele>
        <time>2020-06-25T10:24:02Z</time>
      </trkpt>
      <trkpt lat="49.73393" lon="4.7512">
        <ele>151.7</ele>
        <time>2020-06-25T10:24:03Z</time>
      </trkpt>
      <trkpt lat="49.73388" lon="4.75122">
        <ele>151.7</ele>
        <time>2020-06-25T10:24:04Z</time>
      </trkpt>
      <trkpt lat="49.73383" lon="4.75124">
        <ele>151.6</ele>
        <time>2020-06-25T10:24:05Z</time>
      </trkpt>
      <trkpt lat="49.73378" lon="4.75127">
        <ele>151.6</ele>
        <time>2020-06-25T10:24:06Z</time>
      </trkpt>
      <trkpt lat="49.73374" lon="4.75129">
        <ele>151.6</ele>
        <time>2020-06-25T10:24:07Z</time>
      </trkpt>
      <trkpt lat="49.73369" lon="4.75132">
        <ele>151.6</ele>
        <time>2020-06-25T10:24:08Z</time>
      </trkpt>
      <trkpt lat="49.73365" lon="4.75133">
        <ele>151.6</ele>
        <time>2020-06-25T10:24:09Z</time>
      </trkpt>
      <trkpt lat="49.7336" lon="4.75133">
        <ele>151.6</ele>
        <time>2020-06-25T10:24:10Z</time>
      </trkpt>
      <trkpt lat="49.73355" lon="4.75135">
        <ele>151.6</ele>
        <time>2020-06-25T10:24:11Z</time>
      </trkpt>
      <trkpt lat="49.73349" lon="4.75136">
        <ele>151.6</ele>
        <time>2020-06-25T10:24:12Z</time>
      </trkpt>
      <trkpt lat="49.73343" lon="4.75138">
        <ele>151.5</ele>
        <time>2020-06-25T10:24:13Z</time>
      </trkpt>
      <trkpt lat="49.73337" lon="4.7514">
        <ele>151.5</ele>
        <time>2020-06-25T10:24:14Z</time>
      </trkpt>
      <trkpt lat="49.73332" lon="4.75142">
        <ele>151.5</ele>
        <time>2020-06-25T10:24:15Z</time>
      </trkpt>
      <trkpt lat="49.73326" lon="4.75144">
        <ele>151.5</ele>
        <time>2020-06-25T10:24:16Z</time>
      </trkpt>
      <trkpt lat="49.73319" lon="4.75148">
        <ele>151.4</ele>
        <time>2020-06-25T10:24:17Z</time>
      </trkpt>
      <trkpt lat="49.73314" lon="4.75151">
        <ele>151.4</ele>
        <time>2020-06-25T10:24:18Z</time>
      </trkpt>
      <trkpt lat="49.73309" lon="4.75154">
        <ele>151.4</ele>
        <time>2020-06-25T10:24:19Z</time>
      </trkpt>
      <trkpt lat="49.73304" lon="4.75158">
        <ele>151.4</ele>
        <time>2020-06-25T10:24:20Z</time>
      </trkpt>
      <trkpt lat="49.73299" lon="4.75161">
        <ele>151.3</ele>
        <time>2020-06-25T10:24:21Z</time>
      </trkpt>
      <trkpt lat="49.73294" lon="4.75166">
        <ele>151.3</ele>
        <time>2020-06-25T10:24:22Z</time>
      </trkpt>
      <trkpt lat="49.73288" lon="4.75168">
        <ele>151.2</ele>
        <time>2020-06-25T10:24:23Z</time>
      </trkpt>
      <trkpt lat="49.73282" lon="4.75172">
        <ele>151.2</ele>
        <time>2020-06-25T10:24:24Z</time>
      </trkpt>
      <trkpt lat="49.73278" lon="4.75177">
        <ele>151.1</ele>
        <time>2020-06-25T10:24:25Z</time>
      </trkpt>
      <trkpt lat="49.73273" lon="4.75181">
        <ele>151.1</ele>
        <time>2020-06-25T10:24:26Z</time>
      </trkpt>
      <trkpt lat="49.73269" lon="4.75185">
        <ele>151</ele>
        <time>2020-06-25T10:24:27Z</time>
      </trkpt>
      <trkpt lat="49.73264" lon="4.75191">
        <ele>151</ele>
        <time>2020-06-25T10:24:28Z</time>
      </trkpt>
      <trkpt lat="49.73259" lon="4.75195">
        <ele>150.9</ele>
        <time>2020-06-25T10:24:29Z</time>
      </trkpt>
      <trkpt lat="49.73254" lon="4.752">
        <ele>150.9</ele>
        <time>2020-06-25T10:24:30Z</time>
      </trkpt>
      <trkpt lat="49.7325" lon="4.75203">
        <ele>150.8</ele>
        <time>2020-06-25T10:24:31Z</time>
      </trkpt>
      <trkpt lat="49.73244" lon="4.75204">
        <ele>150.8</ele>
        <time>2020-06-25T10:24:32Z</time>
      </trkpt>
      <trkpt lat="49.73238" lon="4.75202">
        <ele>149.5</ele>
        <time>2020-06-25T10:24:33Z</time>
      </trkpt>
      <trkpt lat="49.73233" lon="4.75201">
        <ele>149.3</ele>
        <time>2020-06-25T10:24:34Z</time>
      </trkpt>
      <trkpt lat="49.73228" lon="4.75203">
        <ele>149.1</ele>
        <time>2020-06-25T10:24:35Z</time>
      </trkpt>
      <trkpt lat="49.73223" lon="4.75206">
        <ele>148.9</ele>
        <time>2020-06-25T10:24:36Z</time>
      </trkpt>
      <trkpt lat="49.73218" lon="4.7521">
        <ele>148.9</ele>
        <time>2020-06-25T10:24:37Z</time>
      </trkpt>
      <trkpt lat="49.73214" lon="4.75216">
        <ele>148.9</ele>
        <time>2020-06-25T10:24:38Z</time>
      </trkpt>
      <trkpt lat="49.73209" lon="4.75223">
        <ele>149</ele>
        <time>2020-06-25T10:24:39Z</time>
      </trkpt>
      <trkpt lat="49.73205" lon="4.75229">
        <ele>149.1</ele>
        <time>2020-06-25T10:24:40Z</time>
      </trkpt>
      <trkpt lat="49.732" lon="4.75234">
        <ele>149.2</ele>
        <time>2020-06-25T10:24:41Z</time>
      </trkpt>
      <trkpt lat="49.73194" lon="4.75237">
        <ele>149.3</ele>
        <time>2020-06-25T10:24:42Z</time>
      </trkpt>
      <trkpt lat="49.73188" lon="4.7524">
        <ele>149.3</ele>
        <time>2020-06-25T10:24:43Z</time>
      </trkpt>
      <trkpt lat="49.73181" lon="4.7524">
        <ele>149.4</ele>
        <time>2020-06-25T10:24:44Z</time>
      </trkpt>
      <trkpt lat="49.73174" lon="4.75243">
        <ele>149.4</ele>
        <time>2020-06-25T10:24:45Z</time>
      </trkpt>
      <trkpt lat="49.73168" lon="4.75244">
        <ele>149.5</ele>
        <time>2020-06-25T10:24:46Z</time>
      </trkpt>
      <trkpt lat="49.73161" lon="4.75245">
        <ele>149.5</ele>
        <time>2020-06-25T10:24:47Z</time>
      </trkpt>
      <trkpt lat="49.73154" lon="4.75246">
        <ele>149.6</ele>
        <time>2020-06-25T10:24:48Z</time>
      </trkpt>
      <trkpt lat="49.73148" lon="4.75247">
        <ele>149.7</ele>
        <time>2020-06-25T10:24:49Z</time>
      </trkpt>
      <trkpt lat="49.73142" lon="4.75249">
        <ele>149.7</ele>
        <time>2020-06-25T10:24:50Z</time>
      </trkpt>
      <trkpt lat="49.73136" lon="4.75252">
        <ele>149.8</ele>
        <time>2020-06-25T10:24:51Z</time>
      </trkpt>
      <trkpt lat="49.73131" lon="4.75256">
        <ele>149.8</ele>
        <time>2020-06-25T10:24:52Z</time>
      </trkpt>
      <trkpt lat="49.73126" lon="4.7526">
        <ele>149.8</ele>
        <time>2020-06-25T10:24:53Z</time>
      </trkpt>
      <trkpt lat="49.73121" lon="4.75264">
        <ele>149.9</ele>
        <time>2020-06-25T10:24:54Z</time>
      </trkpt>
      <trkpt lat="49.73116" lon="4.75269">
        <ele>149.9</ele>
        <time>2020-06-25T10:24:55Z</time>
      </trkpt>
      <trkpt lat="49.73112" lon="4.75274">
        <ele>149.9</ele>
        <time>2020-06-25T10:24:56Z</time>
      </trkpt>
      <trkpt lat="49.73105" lon="4.75279">
        <ele>149.9</ele>
        <time>2020-06-25T10:24:57Z</time>
      </trkpt>
      <trkpt lat="49.731" lon="4.75283">
        <ele>149.9</ele>
        <time>2020-06-25T10:24:58Z</time>
      </trkpt>
      <trkpt lat="49.73095" lon="4.75288">
        <ele>150</ele>
        <time>2020-06-25T10:24:59Z</time>
      </trkpt>
      <trkpt lat="49.7309" lon="4.75292">
        <ele>150</ele>
        <time>2020-06-25T10:25:00Z</time>
      </trkpt>
      <trkpt lat="49.73085" lon="4.75297">
        <ele>150</ele>
        <time>2020-06-25T10:25:01Z</time>
      </trkpt>
      <trkpt lat="49.73079" lon="4.75302">
        <ele>150</ele>
        <time>2020-06-25T10:25:02Z</time>
      </trkpt>
      <trkpt lat="49.73073" lon="4.75307">
        <ele>150.1</ele>
        <time>2020-06-25T10:25:03Z</time>
      </trkpt>
      <trkpt lat="49.73069" lon="4.75311">
        <ele>150.1</ele>
        <time>2020-06-25T10:25:04Z</time>
      </trkpt>
      <trkpt lat="49.73063" lon="4.75316">
        <ele>150.2</ele>
        <time>2020-06-25T10:25:05Z</time>
      </trkpt>
      <trkpt lat="49.73058" lon="4.7532">
        <ele>150.2</ele>
        <time>2020-06-25T10:25:06Z</time>
      </trkpt>
      <trkpt lat="49.73052" lon="4.75326">
        <ele>150.3</ele>
        <time>2020-06-25T10:25:07Z</time>
      </trkpt>
      <trkpt lat="49.73047" lon="4.75329">
        <ele>150.3</ele>
        <time>2020-06-25T10:25:08Z</time>
      </trkpt>
      <trkpt lat="49.73042" lon="4.75333">
        <ele>150.4</ele>
        <time>2020-06-25T10:25:09Z</time>
      </trkpt>
      <trkpt lat="49.73037" lon="4.75337">
        <ele>150.5</ele>
        <time>2020-06-25T10:25:10Z</time>
      </trkpt>
      <trkpt lat="49.73032" lon="4.7534">
        <ele>150.5</ele>
        <time>2020-06-25T10:25:11Z</time>
      </trkpt>
      <trkpt lat="49.73026" lon="4.75342">
        <ele>150.6</ele>
        <time>2020-06-25T10:25:12Z</time>
      </trkpt>
      <trkpt lat="49.73019" lon="4.75346">
        <ele>150.6</ele>
        <time>2020-06-25T10:25:13Z</time>
      </trkpt>
      <trkpt lat="49.73014" lon="4.75349">
        <ele>150.6</ele>
        <time>2020-06-25T10:25:14Z</time>
      </trkpt>
      <trkpt lat="49.73009" lon="4.75352">
        <ele>150.6</ele>
        <time>2020-06-25T10:25:15Z</time>
      </trkpt>
      <trkpt lat="49.73003" lon="4.75356">
        <ele>150.6</ele>
        <time>2020-06-25T10:25:16Z</time>
      </trkpt>
      <trkpt lat="49.72997" lon="4.7536">
        <ele>150.6</ele>
        <time>2020-06-25T10:25:17Z</time>
      </trkpt>
      <trkpt lat="49.72992" lon="4.75363">
        <ele>150.6</ele>
        <time>2020-06-25T10:25:18Z</time>
      </trkpt>
      <trkpt lat="49.72986" lon="4.75365">
        <ele>150.6</ele>
        <time>2020-06-25T10:25:19Z</time>
      </trkpt>
      <trkpt lat="49.72981" lon="4.75369">
        <ele>150.6</ele>
        <time>2020-06-25T10:25:20Z</time>
      </trkpt>
      <trkpt lat="49.72976" lon="4.75372">
        <ele>150.6</ele>
        <time>2020-06-25T10:25:21Z</time>
      </trkpt>
      <trkpt lat="49.72971" lon="4.75374">
        <ele>150.7</ele>
        <time>2020-06-25T10:25:22Z</time>
      </trkpt>
      <trkpt lat="49.72967" lon="4.75376">
        <ele>150.7</ele>
        <time>2020-06-25T10:25:23Z</time>
      </trkpt>
      <trkpt lat="49.72961" lon="4.75378">
        <ele>150.7</ele>
        <time>2020-06-25T10:25:24Z</time>
      </trkpt>
      <trkpt lat="49.72956" lon="4.75381">
        <ele>150.7</ele>
        <time>2020-06-25T10:25:25Z</time>
      </trkpt>
      <trkpt lat="49.7295" lon="4.75385">
        <ele>150.7</ele>
        <time>2020-06-25T10:25:26Z</time>
      </trkpt>
      <trkpt lat="49.72945" lon="4.75388">
        <ele>150.8</ele>
        <time>2020-06-25T10:25:27Z</time>
      </trkpt>
      <trkpt lat="49.7294" lon="4.75391">
        <ele>150.8</ele>
        <time>2020-06-25T10:25:28Z</time>
      </trkpt>
      <trkpt lat="49.72936" lon="4.75394">
        <ele>150.8</ele>
        <time>2020-06-25T10:25:29Z</time>
      </trkpt>
      <trkpt lat="49.72931" lon="4.75396">
        <ele>150.9</ele>
        <time>2020-06-25T10:25:30Z</time>
      </trkpt>
      <trkpt lat="49.72928" lon="4.75399">
        <ele>150.9</ele>
        <time>2020-06-25T10:25:31Z</time>
      </trkpt>
      <trkpt lat="49.72923" lon="4.75402">
        <ele>150.9</ele>
        <time>2020-06-25T10:25:32Z</time>
      </trkpt>
      <trkpt lat="49.72919" lon="4.75404">
        <ele>150.9</ele>
        <time>2020-06-25T10:25:33Z</time>
      </trkpt>
      <trkpt lat="49.72916" lon="4.75406">
        <ele>151</ele>
        <time>2020-06-25T10:25:34Z</time>
      </trkpt>
      <trkpt lat="49.72912" lon="4.75408">
        <ele>151</ele>
        <time>2020-06-25T10:25:35Z</time>
      </trkpt>
      <trkpt lat="49.72908" lon="4.7541">
        <ele>151</ele>
        <time>2020-06-25T10:25:36Z</time>
      </trkpt>
      <trkpt lat="49.72905" lon="4.75413">
        <ele>151</ele>
        <time>2020-06-25T10:25:37Z</time>
      </trkpt>
      <trkpt lat="49.729" lon="4.75415">
        <ele>151</ele>
        <time>2020-06-25T10:25:38Z</time>
      </trkpt>
      <trkpt lat="49.72897" lon="4.75417">
        <ele>151.1</ele>
        <time>2020-06-25T10:25:39Z</time>
      </trkpt>
      <trkpt lat="49.72893" lon="4.7542">
        <ele>151.1</ele>
        <time>2020-06-25T10:25:40Z</time>
      </trkpt>
      <trkpt lat="49.7289" lon="4.75421">
        <ele>151.1</ele>
        <time>2020-06-25T10:25:41Z</time>
      </trkpt>
      <trkpt lat="49.72885" lon="4.75424">
        <ele>151.1</ele>
        <time>2020-06-25T10:25:42Z</time>
      </trkpt>
      <trkpt lat="49.72881" lon="4.75427">
        <ele>151.1</ele>
        <time>2020-06-25T10:25:43Z</time>
      </trkpt>
      <trkpt lat="49.72875" lon="4.7543">
        <ele>151.1</ele>
        <time>2020-06-25T10:25:44Z</time>
      </trkpt>
      <trkpt lat="49.72871" lon="4.75433">
        <ele>151.1</ele>
        <time>2020-06-25T10:25:45Z</time>
      </trkpt>
      <trkpt lat="49.72866" lon="4.75436">
        <ele>151.1</ele>
        <time>2020-06-25T10:25:46Z</time>
      </trkpt>
      <trkpt lat="49.72862" lon="4.75438">
        <ele>151.1</ele>
        <time>2020-06-25T10:25:47Z</time>
      </trkpt>
      <trkpt lat="49.72857" lon="4.7544">
        <ele>151.1</ele>
        <time>2020-06-25T10:25:48Z</time>
      </trkpt>
      <trkpt lat="49.72852" lon="4.75443">
        <ele>151</ele>
        <time>2020-06-25T10:25:49Z</time>
      </trkpt>
      <trkpt lat="49.72847" lon="4.75445">
        <ele>150.9</ele>
        <time>2020-06-25T10:25:50Z</time>
      </trkpt>
      <trkpt lat="49.72842" lon="4.75448">
        <ele>150.8</ele>
        <time>2020-06-25T10:25:51Z</time>
      </trkpt>
      <trkpt lat="49.72838" lon="4.75449">
        <ele>150.7</ele>
        <time>2020-06-25T10:25:52Z</time>
      </trkpt>
      <trkpt lat="49.72834" lon="4.7545">
        <ele>150.6</ele>
        <time>2020-06-25T10:25:53Z</time>
      </trkpt>
      <trkpt lat="49.7283" lon="4.75453">
        <ele>150.6</ele>
        <time>2020-06-25T10:25:54Z</time>
      </trkpt>
      <trkpt lat="49.72826" lon="4.75455">
        <ele>150.5</ele>
        <time>2020-06-25T10:25:55Z</time>
      </trkpt>
      <trkpt lat="49.72821" lon="4.75459">
        <ele>150.5</ele>
        <time>2020-06-25T10:25:56Z</time>
      </trkpt>
      <trkpt lat="49.72816" lon="4.75461">
        <ele>150.4</ele>
        <time>2020-06-25T10:25:57Z</time>
      </trkpt>
      <trkpt lat="49.72812" lon="4.75464">
        <ele>150.4</ele>
        <time>2020-06-25T10:25:58Z</time>
      </trkpt>
      <trkpt lat="49.72807" lon="4.75466">
        <ele>150.3</ele>
        <time>2020-06-25T10:25:59Z</time>
      </trkpt>
      <trkpt lat="49.72802" lon="4.75469">
        <ele>150.3</ele>
        <time>2020-06-25T10:26:00Z</time>
      </trkpt>
      <trkpt lat="49.72798" lon="4.75469">
        <ele>150.3</ele>
        <time>2020-06-25T10:26:01Z</time>
      </trkpt>
      <trkpt lat="49.72794" lon="4.75472">
        <ele>150.3</ele>
        <time>2020-06-25T10:26:02Z</time>
      </trkpt>
      <trkpt lat="49.7279" lon="4.75475">
        <ele>150.2</ele>
        <time>2020-06-25T10:26:03Z</time>
      </trkpt>
      <trkpt lat="49.72786" lon="4.75478">
        <ele>150.2</ele>
        <time>2020-06-25T10:26:04Z</time>
      </trkpt>
      <trkpt lat="49.72782" lon="4.75481">
        <ele>150.2</ele>
        <time>2020-06-25T10:26:05Z</time>
      </trkpt>
      <trkpt lat="49.72778" lon="4.75484">
        <ele>150.2</ele>
        <time>2020-06-25T10:26:06Z</time>
      </trkpt>
      <trkpt lat="49.72773" lon="4.75486">
        <ele>150.1</ele>
        <time>2020-06-25T10:26:07Z</time>
      </trkpt>
      <trkpt lat="49.72768" lon="4.75488">
        <ele>150.1</ele>
        <time>2020-06-25T10:26:08Z</time>
      </trkpt>
      <trkpt lat="49.72763" lon="4.7549">
        <ele>150.1</ele>
        <time>2020-06-25T10:26:09Z</time>
      </trkpt>
      <trkpt lat="49.72758" lon="4.75492">
        <ele>150</ele>
        <time>2020-06-25T10:26:10Z</time>
      </trkpt>
      <trkpt lat="49.72753" lon="4.75494">
        <ele>150</ele>
        <time>2020-06-25T10:26:11Z</time>
      </trkpt>
      <trkpt lat="49.72748" lon="4.75495">
        <ele>149.9</ele>
        <time>2020-06-25T10:26:12Z</time>
      </trkpt>
      <trkpt lat="49.72743" lon="4.75495">
        <ele>149.7</ele>
        <time>2020-06-25T10:26:13Z</time>
      </trkpt>
      <trkpt lat="49.72739" lon="4.7549">
        <ele>149.5</ele>
        <time>2020-06-25T10:26:14Z</time>
      </trkpt>
      <trkpt lat="49.72736" lon="4.75484">
        <ele>149.5</ele>
        <time>2020-06-25T10:26:15Z</time>
      </trkpt>
      <trkpt lat="49.72731" lon="4.75479">
        <ele>149.5</ele>
        <time>2020-06-25T10:26:16Z</time>
      </trkpt>
      <trkpt lat="49.72725" lon="4.75475">
        <ele>149.5</ele>
        <time>2020-06-25T10:26:17Z</time>
      </trkpt>
      <trkpt lat="49.7272" lon="4.75472">
        <ele>149.5</ele>
        <time>2020-06-25T10:26:18Z</time>
      </trkpt>
      <trkpt lat="49.72714" lon="4.7547">
        <ele>149.5</ele>
        <time>2020-06-25T10:26:19Z</time>
      </trkpt>
      <trkpt lat="49.72709" lon="4.75472">
        <ele>149.5</ele>
        <time>2020-06-25T10:26:20Z</time>
      </trkpt>
      <trkpt lat="49.72704" lon="4.75474">
        <ele>149.5</ele>
        <time>2020-06-25T10:26:21Z</time>
      </trkpt>
      <trkpt lat="49.72698" lon="4.75478">
        <ele>149.5</ele>
        <time>2020-06-25T10:26:22Z</time>
      </trkpt>
      <trkpt lat="49.72693" lon="4.75482">
        <ele>149.5</ele>
        <time>2020-06-25T10:26:23Z</time>
      </trkpt>
      <trkpt lat="49.7269" lon="4.75488">
        <ele>149.5</ele>
        <time>2020-06-25T10:26:24Z</time>
      </trkpt>
      <trkpt lat="49.72686" lon="4.75496">
        <ele>149.5</ele>
        <time>2020-06-25T10:26:25Z</time>
      </trkpt>
      <trkpt lat="49.72683" lon="4.75504">
        <ele>149.5</ele>
        <time>2020-06-25T10:26:26Z</time>
      </trkpt>
      <trkpt lat="49.72681" lon="4.75513">
        <ele>149.4</ele>
        <time>2020-06-25T10:26:27Z</time>
      </trkpt>
      <trkpt lat="49.72679" lon="4.75519">
        <ele>149.5</ele>
        <time>2020-06-25T10:26:28Z</time>
      </trkpt>
      <trkpt lat="49.72677" lon="4.75526">
        <ele>149.6</ele>
        <time>2020-06-25T10:26:29Z</time>
      </trkpt>
      <trkpt lat="49.72674" lon="4.75532">
        <ele>149.7</ele>
        <time>2020-06-25T10:26:30Z</time>
      </trkpt>
      <trkpt lat="49.72671" lon="4.75539">
        <ele>149.9</ele>
        <time>2020-06-25T10:26:31Z</time>
      </trkpt>
      <trkpt lat="49.72667" lon="4.75547">
        <ele>150</ele>
        <time>2020-06-25T10:26:32Z</time>
      </trkpt>
      <trkpt lat="49.72663" lon="4.75551">
        <ele>150</ele>
        <time>2020-06-25T10:26:33Z</time>
      </trkpt>
      <trkpt lat="49.72658" lon="4.75553">
        <ele>150.1</ele>
        <time>2020-06-25T10:26:34Z</time>
      </trkpt>
      <trkpt lat="49.72651" lon="4.75556">
        <ele>150.2</ele>
        <time>2020-06-25T10:26:35Z</time>
      </trkpt>
      <trkpt lat="49.72645" lon="4.75558">
        <ele>150.3</ele>
        <time>2020-06-25T10:26:36Z</time>
      </trkpt>
      <trkpt lat="49.72639" lon="4.75558">
        <ele>150.4</ele>
        <time>2020-06-25T10:26:37Z</time>
      </trkpt>
      <trkpt lat="49.72634" lon="4.75561">
        <ele>150.6</ele>
        <time>2020-06-25T10:26:38Z</time>
      </trkpt>
      <trkpt lat="49.72628" lon="4.75563">
        <ele>150.7</ele>
        <time>2020-06-25T10:26:39Z</time>
      </trkpt>
      <trkpt lat="49.72622" lon="4.75565">
        <ele>151</ele>
        <time>2020-06-25T10:26:40Z</time>
      </trkpt>
      <trkpt lat="49.72616" lon="4.75565">
        <ele>151</ele>
        <time>2020-06-25T10:26:41Z</time>
      </trkpt>
      <trkpt lat="49.7261" lon="4.75566">
        <ele>151</ele>
        <time>2020-06-25T10:26:42Z</time>
      </trkpt>
      <trkpt lat="49.72604" lon="4.75567">
        <ele>151</ele>
        <time>2020-06-25T10:26:43Z</time>
      </trkpt>
      <trkpt lat="49.72597" lon="4.75566">
        <ele>151</ele>
        <time>2020-06-25T10:26:44Z</time>
      </trkpt>
      <trkpt lat="49.72589" lon="4.75565">
        <ele>151.1</ele>
        <time>2020-06-25T10:26:45Z</time>
      </trkpt>
      <trkpt lat="49.72583" lon="4.75563">
        <ele>151.1</ele>
        <time>2020-06-25T10:26:46Z</time>
      </trkpt>
      <trkpt lat="49.72576" lon="4.7556">
        <ele>151.1</ele>
        <time>2020-06-25T10:26:47Z</time>
      </trkpt>
      <trkpt lat="49.72571" lon="4.75559">
        <ele>151.1</ele>
        <time>2020-06-25T10:26:48Z</time>
      </trkpt>
      <trkpt lat="49.72564" lon="4.75557">
        <ele>151.1</ele>
        <time>2020-06-25T10:26:49Z</time>
      </trkpt>
      <trkpt lat="49.72558" lon="4.75553">
        <ele>151.2</ele>
        <time>2020-06-25T10:26:50Z</time>
      </trkpt>
      <trkpt lat="49.72552" lon="4.75551">
        <ele>151.2</ele>
        <time>2020-06-25T10:26:51Z</time>
      </trkpt>
      <trkpt lat="49.72546" lon="4.7555">
        <ele>151.3</ele>
        <time>2020-06-25T10:26:52Z</time>
      </trkpt>
      <trkpt lat="49.7254" lon="4.75548">
        <ele>151.3</ele>
        <time>2020-06-25T10:26:53Z</time>
      </trkpt>
      <trkpt lat="49.72534" lon="4.75547">
        <ele>151.4</ele>
        <time>2020-06-25T10:26:54Z</time>
      </trkpt>
      <trkpt lat="49.72529" lon="4.75547">
        <ele>151.4</ele>
        <time>2020-06-25T10:26:55Z</time>
      </trkpt>
      <trkpt lat="49.72521" lon="4.75544">
        <ele>151.5</ele>
        <time>2020-06-25T10:26:56Z</time>
      </trkpt>
      <trkpt lat="49.72515" lon="4.75544">
        <ele>151.5</ele>
        <time>2020-06-25T10:26:57Z</time>
      </trkpt>
      <trkpt lat="49.7251" lon="4.75541">
        <ele>151.6</ele>
        <time>2020-06-25T10:26:58Z</time>
      </trkpt>
      <trkpt lat="49.72504" lon="4.75541">
        <ele>151.6</ele>
        <time>2020-06-25T10:26:59Z</time>
      </trkpt>
      <trkpt lat="49.72499" lon="4.75542">
        <ele>151.6</ele>
        <time>2020-06-25T10:27:00Z</time>
      </trkpt>
      <trkpt lat="49.72493" lon="4.75543">
        <ele>151.7</ele>
        <time>2020-06-25T10:27:01Z</time>
      </trkpt>
      <trkpt lat="49.72487" lon="4.75543">
        <ele>151.8</ele>
        <time>2020-06-25T10:27:02Z</time>
      </trkpt>
      <trkpt lat="49.72481" lon="4.75544">
        <ele>151.8</ele>
        <time>2020-06-25T10:27:03Z</time>
      </trkpt>
      <trkpt lat="49.72475" lon="4.75543">
        <ele>151.8</ele>
        <time>2020-06-25T10:27:04Z</time>
      </trkpt>
      <trkpt lat="49.7247" lon="4.75544">
        <ele>151.9</ele>
        <time>2020-06-25T10:27:05Z</time>
      </trkpt>
      <trkpt lat="49.72464" lon="4.75545">
        <ele>151.9</ele>
        <time>2020-06-25T10:27:06Z</time>
      </trkpt>
      <trkpt lat="49.72459" lon="4.75547">
        <ele>151.9</ele>
        <time>2020-06-25T10:27:07Z</time>
      </trkpt>
      <trkpt lat="49.72454" lon="4.75548">
        <ele>152</ele>
        <time>2020-06-25T10:27:08Z</time>
      </trkpt>
      <trkpt lat="49.72448" lon="4.75548">
        <ele>152</ele>
        <time>2020-06-25T10:27:09Z</time>
      </trkpt>
      <trkpt lat="49.72442" lon="4.7555">
        <ele>152</ele>
        <time>2020-06-25T10:27:10Z</time>
      </trkpt>
      <trkpt lat="49.72436" lon="4.75551">
        <ele>152.1</ele>
        <time>2020-06-25T10:27:11Z</time>
      </trkpt>
      <trkpt lat="49.72432" lon="4.75553">
        <ele>152.1</ele>
        <time>2020-06-25T10:27:12Z</time>
      </trkpt>
      <trkpt lat="49.72427" lon="4.75555">
        <ele>152.2</ele>
        <time>2020-06-25T10:27:13Z</time>
      </trkpt>
      <trkpt lat="49.7242" lon="4.75556">
        <ele>152.2</ele>
        <time>2020-06-25T10:27:14Z</time>
      </trkpt>
      <trkpt lat="49.72414" lon="4.75558">
        <ele>152.3</ele>
        <time>2020-06-25T10:27:15Z</time>
      </trkpt>
      <trkpt lat="49.72408" lon="4.7556">
        <ele>152.4</ele>
        <time>2020-06-25T10:27:16Z</time>
      </trkpt>
      <trkpt lat="49.72403" lon="4.75564">
        <ele>152.4</ele>
        <time>2020-06-25T10:27:17Z</time>
      </trkpt>
      <trkpt lat="49.72398" lon="4.75566">
        <ele>152.5</ele>
        <time>2020-06-25T10:27:18Z</time>
      </trkpt>
      <trkpt lat="49.72392" lon="4.7557">
        <ele>152.5</ele>
        <time>2020-06-25T10:27:19Z</time>
      </trkpt>
      <trkpt lat="49.72387" lon="4.75573">
        <ele>152.6</ele>
        <time>2020-06-25T10:27:20Z</time>
      </trkpt>
      <trkpt lat="49.72382" lon="4.75575">
        <ele>152.6</ele>
        <time>2020-06-25T10:27:21Z</time>
      </trkpt>
      <trkpt lat="49.72377" lon="4.75577">
        <ele>152.6</ele>
        <time>2020-06-25T10:27:22Z</time>
      </trkpt>
      <trkpt lat="49.72374" lon="4.75579">
        <ele>152.6</ele>
        <time>2020-06-25T10:27:23Z</time>
      </trkpt>
      <trkpt lat="49.72369" lon="4.7558">
        <ele>152.7</ele>
        <time>2020-06-25T10:27:24Z</time>
      </trkpt>
      <trkpt lat="49.72364" lon="4.75583">
        <ele>152.7</ele>
        <time>2020-06-25T10:27:25Z</time>
      </trkpt>
      <trkpt lat="49.72359" lon="4.75585">
        <ele>152.7</ele>
        <time>2020-06-25T10:27:26Z</time>
      </trkpt>
      <trkpt lat="49.72353" lon="4.75587">
        <ele>152.8</ele>
        <time>2020-06-25T10:27:27Z</time>
      </trkpt>
      <trkpt lat="49.72347" lon="4.7559">
        <ele>152.8</ele>
        <time>2020-06-25T10:27:28Z</time>
      </trkpt>
      <trkpt lat="49.72341" lon="4.75592">
        <ele>152.9</ele>
        <time>2020-06-25T10:27:29Z</time>
      </trkpt>
      <trkpt lat="49.72336" lon="4.75594">
        <ele>152.9</ele>
        <time>2020-06-25T10:27:30Z</time>
      </trkpt>
      <trkpt lat="49.72331" lon="4.75596">
        <ele>152.9</ele>
        <time>2020-06-25T10:27:31Z</time>
      </trkpt>
      <trkpt lat="49.72326" lon="4.75599">
        <ele>152.9</ele>
        <time>2020-06-25T10:27:32Z</time>
      </trkpt>
      <trkpt lat="49.72321" lon="4.75601">
        <ele>152.9</ele>
        <time>2020-06-25T10:27:33Z</time>
      </trkpt>
      <trkpt lat="49.72316" lon="4.75603">
        <ele>152.9</ele>
        <time>2020-06-25T10:27:34Z</time>
      </trkpt>
      <trkpt lat="49.72311" lon="4.75605">
        <ele>152.9</ele>
        <time>2020-06-25T10:27:35Z</time>
      </trkpt>
      <trkpt lat="49.72306" lon="4.75608">
        <ele>152.9</ele>
        <time>2020-06-25T10:27:36Z</time>
      </trkpt>
      <trkpt lat="49.72301" lon="4.7561">
        <ele>152.9</ele>
        <time>2020-06-25T10:27:37Z</time>
      </trkpt>
      <trkpt lat="49.72297" lon="4.75611">
        <ele>152.9</ele>
        <time>2020-06-25T10:27:38Z</time>
      </trkpt>
      <trkpt lat="49.7229" lon="4.75614">
        <ele>153</ele>
        <time>2020-06-25T10:27:39Z</time>
      </trkpt>
      <trkpt lat="49.72284" lon="4.75617">
        <ele>153</ele>
        <time>2020-06-25T10:27:40Z</time>
      </trkpt>
      <trkpt lat="49.7228" lon="4.75619">
        <ele>153</ele>
        <time>2020-06-25T10:27:41Z</time>
      </trkpt>
      <trkpt lat="49.72275" lon="4.75621">
        <ele>153</ele>
        <time>2020-06-25T10:27:42Z</time>
      </trkpt>
      <trkpt lat="49.72271" lon="4.75623">
        <ele>153</ele>
        <time>2020-06-25T10:27:43Z</time>
      </trkpt>
      <trkpt lat="49.72266" lon="4.75624">
        <ele>153.1</ele>
        <time>2020-06-25T10:27:44Z</time>
      </trkpt>
      <trkpt lat="49.72261" lon="4.75626">
        <ele>153.1</ele>
        <time>2020-06-25T10:27:45Z</time>
      </trkpt>
      <trkpt lat="49.72256" lon="4.75628">
        <ele>153.1</ele>
        <time>2020-06-25T10:27:46Z</time>
      </trkpt>
      <trkpt lat="49.72251" lon="4.75631">
        <ele>153.1</ele>
        <time>2020-06-25T10:27:47Z</time>
      </trkpt>
      <trkpt lat="49.72244" lon="4.75631">
        <ele>153.2</ele>
        <time>2020-06-25T10:27:48Z</time>
      </trkpt>
      <trkpt lat="49.72238" lon="4.75633">
        <ele>153.2</ele>
        <time>2020-06-25T10:27:49Z</time>
      </trkpt>
      <trkpt lat="49.72232" lon="4.75636">
        <ele>153.2</ele>
        <time>2020-06-25T10:27:50Z</time>
      </trkpt>
      <trkpt lat="49.72227" lon="4.75639">
        <ele>153.1</ele>
        <time>2020-06-25T10:27:51Z</time>
      </trkpt>
      <trkpt lat="49.72222" lon="4.75642">
        <ele>153.1</ele>
        <time>2020-06-25T10:27:52Z</time>
      </trkpt>
      <trkpt lat="49.72216" lon="4.75646">
        <ele>153.1</ele>
        <time>2020-06-25T10:27:53Z</time>
      </trkpt>
      <trkpt lat="49.7221" lon="4.75649">
        <ele>153</ele>
        <time>2020-06-25T10:27:54Z</time>
      </trkpt>
      <trkpt lat="49.72203" lon="4.75652">
        <ele>152.9</ele>
        <time>2020-06-25T10:27:55Z</time>
      </trkpt>
      <trkpt lat="49.72198" lon="4.75654">
        <ele>152.9</ele>
        <time>2020-06-25T10:27:56Z</time>
      </trkpt>
      <trkpt lat="49.72192" lon="4.75657">
        <ele>152.8</ele>
        <time>2020-06-25T10:27:57Z</time>
      </trkpt>
      <trkpt lat="49.72187" lon="4.75659">
        <ele>152.7</ele>
        <time>2020-06-25T10:27:58Z</time>
      </trkpt>
      <trkpt lat="49.72181" lon="4.75661">
        <ele>152.7</ele>
        <time>2020-06-25T10:27:59Z</time>
      </trkpt>
      <trkpt lat="49.72175" lon="4.75663">
        <ele>152.6</ele>
        <time>2020-06-25T10:28:00Z</time>
      </trkpt>
      <trkpt lat="49.7217" lon="4.75665">
        <ele>152.6</ele>
        <time>2020-06-25T10:28:01Z</time>
      </trkpt>
      <trkpt lat="49.72164" lon="4.75667">
        <ele>152.6</ele>
        <time>2020-06-25T10:28:02Z</time>
      </trkpt>
      <trkpt lat="49.72158" lon="4.7567">
        <ele>152.5</ele>
        <time>2020-06-25T10:28:03Z</time>
      </trkpt>
      <trkpt lat="49.72151" lon="4.75671">
        <ele>152.4</ele>
        <time>2020-06-25T10:28:04Z</time>
      </trkpt>
      <trkpt lat="49.72144" lon="4.75674">
        <ele>152.3</ele>
        <time>2020-06-25T10:28:05Z</time>
      </trkpt>
      <trkpt lat="49.72138" lon="4.75676">
        <ele>152.3</ele>
        <time>2020-06-25T10:28:06Z</time>
      </trkpt>
      <trkpt lat="49.72132" lon="4.75679">
        <ele>152.2</ele>
        <time>2020-06-25T10:28:07Z</time>
      </trkpt>
      <trkpt lat="49.72125" lon="4.75682">
        <ele>152.2</ele>
        <time>2020-06-25T10:28:08Z</time>
      </trkpt>
      <trkpt lat="49.7212" lon="4.75683">
        <ele>152.2</ele>
        <time>2020-06-25T10:28:09Z</time>
      </trkpt>
      <trkpt lat="49.72113" lon="4.75686">
        <ele>152.1</ele>
        <time>2020-06-25T10:28:10Z</time>
      </trkpt>
      <trkpt lat="49.72108" lon="4.75688">
        <ele>152.1</ele>
        <time>2020-06-25T10:28:11Z</time>
      </trkpt>
      <trkpt lat="49.72102" lon="4.75691">
        <ele>152.1</ele>
        <time>2020-06-25T10:28:12Z</time>
      </trkpt>
      <trkpt lat="49.72096" lon="4.75693">
        <ele>152.1</ele>
        <time>2020-06-25T10:28:13Z</time>
      </trkpt>
      <trkpt lat="49.72091" lon="4.75695">
        <ele>152.1</ele>
        <time>2020-06-25T10:28:14Z</time>
      </trkpt>
      <trkpt lat="49.72085" lon="4.75698">
        <ele>152.1</ele>
        <time>2020-06-25T10:28:15Z</time>
      </trkpt>
      <trkpt lat="49.72079" lon="4.75701">
        <ele>152.1</ele>
        <time>2020-06-25T10:28:16Z</time>
      </trkpt>
      <trkpt lat="49.72074" lon="4.75703">
        <ele>152</ele>
        <time>2020-06-25T10:28:17Z</time>
      </trkpt>
      <trkpt lat="49.72068" lon="4.75706">
        <ele>152</ele>
        <time>2020-06-25T10:28:18Z</time>
      </trkpt>
      <trkpt lat="49.72063" lon="4.75709">
        <ele>152</ele>
        <time>2020-06-25T10:28:19Z</time>
      </trkpt>
      <trkpt lat="49.72057" lon="4.75713">
        <ele>152</ele>
        <time>2020-06-25T10:28:20Z</time>
      </trkpt>
      <trkpt lat="49.72051" lon="4.75716">
        <ele>152</ele>
        <time>2020-06-25T10:28:21Z</time>
      </trkpt>
      <trkpt lat="49.72045" lon="4.75719">
        <ele>152</ele>
        <time>2020-06-25T10:28:22Z</time>
      </trkpt>
      <trkpt lat="49.7204" lon="4.75722">
        <ele>152</ele>
        <time>2020-06-25T10:28:23Z</time>
      </trkpt>
      <trkpt lat="49.72034" lon="4.75726">
        <ele>151.9</ele>
        <time>2020-06-25T10:28:24Z</time>
      </trkpt>
      <trkpt lat="49.72028" lon="4.75729">
        <ele>151.9</ele>
        <time>2020-06-25T10:28:25Z</time>
      </trkpt>
      <trkpt lat="49.72023" lon="4.75733">
        <ele>151.9</ele>
        <time>2020-06-25T10:28:26Z</time>
      </trkpt>
      <trkpt lat="49.72016" lon="4.75737">
        <ele>151.8</ele>
        <time>2020-06-25T10:28:27Z</time>
      </trkpt>
      <trkpt lat="49.72011" lon="4.75742">
        <ele>151.8</ele>
        <time>2020-06-25T10:28:28Z</time>
      </trkpt>
      <trkpt lat="49.72005" lon="4.75746">
        <ele>151.7</ele>
        <time>2020-06-25T10:28:29Z</time>
      </trkpt>
      <trkpt lat="49.72" lon="4.75751">
        <ele>151.7</ele>
        <time>2020-06-25T10:28:30Z</time>
      </trkpt>
      <trkpt lat="49.71994" lon="4.75755">
        <ele>151.7</ele>
        <time>2020-06-25T10:28:31Z</time>
      </trkpt>
      <trkpt lat="49.71988" lon="4.7576">
        <ele>151.7</ele>
        <time>2020-06-25T10:28:32Z</time>
      </trkpt>
      <trkpt lat="49.71982" lon="4.75765">
        <ele>151.7</ele>
        <time>2020-06-25T10:28:33Z</time>
      </trkpt>
      <trkpt lat="49.71976" lon="4.75769">
        <ele>151.7</ele>
        <time>2020-06-25T10:28:34Z</time>
      </trkpt>
      <trkpt lat="49.7197" lon="4.75775">
        <ele>151.7</ele>
        <time>2020-06-25T10:28:35Z</time>
      </trkpt>
      <trkpt lat="49.71965" lon="4.75779">
        <ele>151.7</ele>
        <time>2020-06-25T10:28:36Z</time>
      </trkpt>
      <trkpt lat="49.7196" lon="4.75783">
        <ele>151.7</ele>
        <time>2020-06-25T10:28:37Z</time>
      </trkpt>
      <trkpt lat="49.71955" lon="4.75787">
        <ele>151.7</ele>
        <time>2020-06-25T10:28:38Z</time>
      </trkpt>
      <trkpt lat="49.7195" lon="4.75792">
        <ele>151.7</ele>
        <time>2020-06-25T10:28:39Z</time>
      </trkpt>
      <trkpt lat="49.71944" lon="4.75798">
        <ele>151.6</ele>
        <time>2020-06-25T10:28:40Z</time>
      </trkpt>
      <trkpt lat="49.71941" lon="4.75801">
        <ele>151.6</ele>
        <time>2020-06-25T10:28:41Z</time>
      </trkpt>
      <trkpt lat="49.71937" lon="4.75805">
        <ele>151.6</ele>
        <time>2020-06-25T10:28:42Z</time>
      </trkpt>
      <trkpt lat="49.71931" lon="4.7581">
        <ele>151.6</ele>
        <time>2020-06-25T10:28:43Z</time>
      </trkpt>
      <trkpt lat="49.71926" lon="4.75815">
        <ele>151.6</ele>
        <time>2020-06-25T10:28:44Z</time>
      </trkpt>
      <trkpt lat="49.7192" lon="4.7582">
        <ele>151.5</ele>
        <time>2020-06-25T10:28:45Z</time>
      </trkpt>
      <trkpt lat="49.71915" lon="4.75826">
        <ele>151.5</ele>
        <time>2020-06-25T10:28:46Z</time>
      </trkpt>
      <trkpt lat="49.7191" lon="4.75832">
        <ele>151.5</ele>
        <time>2020-06-25T10:28:47Z</time>
      </trkpt>
      <trkpt lat="49.71904" lon="4.75837">
        <ele>151.6</ele>
        <time>2020-06-25T10:28:48Z</time>
      </trkpt>
      <trkpt lat="49.71898" lon="4.75842">
        <ele>151.6</ele>
        <time>2020-06-25T10:28:49Z</time>
      </trkpt>
      <trkpt lat="49.71893" lon="4.75846">
        <ele>151.6</ele>
        <time>2020-06-25T10:28:50Z</time>
      </trkpt>
      <trkpt lat="49.71889" lon="4.75849">
        <ele>151.6</ele>
        <time>2020-06-25T10:28:51Z</time>
      </trkpt>
      <trkpt lat="49.71884" lon="4.75853">
        <ele>151.7</ele>
        <time>2020-06-25T10:28:52Z</time>
      </trkpt>
      <trkpt lat="49.7188" lon="4.75856">
        <ele>151.7</ele>
        <time>2020-06-25T10:28:53Z</time>
      </trkpt>
      <trkpt lat="49.71876" lon="4.75859">
        <ele>151.7</ele>
        <time>2020-06-25T10:28:54Z</time>
      </trkpt>
      <trkpt lat="49.71871" lon="4.75863">
        <ele>151.7</ele>
        <time>2020-06-25T10:28:55Z</time>
      </trkpt>
      <trkpt lat="49.71867" lon="4.75865">
        <ele>151.7</ele>
        <time>2020-06-25T10:28:56Z</time>
      </trkpt>
      <trkpt lat="49.71861" lon="4.75868">
        <ele>151.7</ele>
        <time>2020-06-25T10:28:57Z</time>
      </trkpt>
      <trkpt lat="49.71856" lon="4.75872">
        <ele>151.8</ele>
        <time>2020-06-25T10:28:58Z</time>
      </trkpt>
      <trkpt lat="49.71851" lon="4.75876">
        <ele>151.8</ele>
        <time>2020-06-25T10:28:59Z</time>
      </trkpt>
      <trkpt lat="49.71847" lon="4.75881">
        <ele>151.8</ele>
        <time>2020-06-25T10:29:00Z</time>
      </trkpt>
      <trkpt lat="49.71843" lon="4.75885">
        <ele>151.9</ele>
        <time>2020-06-25T10:29:01Z</time>
      </trkpt>
      <trkpt lat="49.71838" lon="4.7589">
        <ele>151.9</ele>
        <time>2020-06-25T10:29:02Z</time>
      </trkpt>
      <trkpt lat="49.71833" lon="4.75895">
        <ele>151.9</ele>
        <time>2020-06-25T10:29:03Z</time>
      </trkpt>
      <trkpt lat="49.71829" lon="4.759">
        <ele>151.9</ele>
        <time>2020-06-25T10:29:04Z</time>
      </trkpt>
      <trkpt lat="49.71825" lon="4.75904">
        <ele>152</ele>
        <time>2020-06-25T10:29:05Z</time>
      </trkpt>
      <trkpt lat="49.71819" lon="4.75909">
        <ele>152</ele>
        <time>2020-06-25T10:29:06Z</time>
      </trkpt>
      <trkpt lat="49.71814" lon="4.75915">
        <ele>152</ele>
        <time>2020-06-25T10:29:07Z</time>
      </trkpt>
      <trkpt lat="49.71809" lon="4.75918">
        <ele>152</ele>
        <time>2020-06-25T10:29:08Z</time>
      </trkpt>
      <trkpt lat="49.71804" lon="4.75921">
        <ele>152</ele>
        <time>2020-06-25T10:29:09Z</time>
      </trkpt>
      <trkpt lat="49.718" lon="4.75924">
        <ele>152</ele>
        <time>2020-06-25T10:29:10Z</time>
      </trkpt>
      <trkpt lat="49.71795" lon="4.75928">
        <ele>152</ele>
        <time>2020-06-25T10:29:11Z</time>
      </trkpt>
      <trkpt lat="49.71789" lon="4.75933">
        <ele>152</ele>
        <time>2020-06-25T10:29:12Z</time>
      </trkpt>
      <trkpt lat="49.71784" lon="4.75938">
        <ele>152</ele>
        <time>2020-06-25T10:29:13Z</time>
      </trkpt>
      <trkpt lat="49.7178" lon="4.75942">
        <ele>151.9</ele>
        <time>2020-06-25T10:29:14Z</time>
      </trkpt>
      <trkpt lat="49.71773" lon="4.75947">
        <ele>151.9</ele>
        <time>2020-06-25T10:29:15Z</time>
      </trkpt>
      <trkpt lat="49.71768" lon="4.75951">
        <ele>151.8</ele>
        <time>2020-06-25T10:29:16Z</time>
      </trkpt>
      <trkpt lat="49.71764" lon="4.75955">
        <ele>151.8</ele>
        <time>2020-06-25T10:29:17Z</time>
      </trkpt>
      <trkpt lat="49.71761" lon="4.75959">
        <ele>151.8</ele>
        <time>2020-06-25T10:29:18Z</time>
      </trkpt>
      <trkpt lat="49.71756" lon="4.75964">
        <ele>151.8</ele>
        <time>2020-06-25T10:29:19Z</time>
      </trkpt>
      <trkpt lat="49.71751" lon="4.75968">
        <ele>151.8</ele>
        <time>2020-06-25T10:29:20Z</time>
      </trkpt>
      <trkpt lat="49.71746" lon="4.75972">
        <ele>151.8</ele>
        <time>2020-06-25T10:29:21Z</time>
      </trkpt>
      <trkpt lat="49.71741" lon="4.75977">
        <ele>151.9</ele>
        <time>2020-06-25T10:29:22Z</time>
      </trkpt>
      <trkpt lat="49.71737" lon="4.75982">
        <ele>151.9</ele>
        <time>2020-06-25T10:29:23Z</time>
      </trkpt>
      <trkpt lat="49.71732" lon="4.75986">
        <ele>151.9</ele>
        <time>2020-06-25T10:29:24Z</time>
      </trkpt>
      <trkpt lat="49.71728" lon="4.7599">
        <ele>151.9</ele>
        <time>2020-06-25T10:29:25Z</time>
      </trkpt>
      <trkpt lat="49.71723" lon="4.75996">
        <ele>151.9</ele>
        <time>2020-06-25T10:29:26Z</time>
      </trkpt>
      <trkpt lat="49.71717" lon="4.76001">
        <ele>151.9</ele>
        <time>2020-06-25T10:29:27Z</time>
      </trkpt>
      <trkpt lat="49.71713" lon="4.76005">
        <ele>151.9</ele>
        <time>2020-06-25T10:29:28Z</time>
      </trkpt>
      <trkpt lat="49.71708" lon="4.76011">
        <ele>151.9</ele>
        <time>2020-06-25T10:29:29Z</time>
      </trkpt>
      <trkpt lat="49.71703" lon="4.76015">
        <ele>151.9</ele>
        <time>2020-06-25T10:29:30Z</time>
      </trkpt>
      <trkpt lat="49.71698" lon="4.7602">
        <ele>151.9</ele>
        <time>2020-06-25T10:29:31Z</time>
      </trkpt>
      <trkpt lat="49.71693" lon="4.76024">
        <ele>151.9</ele>
        <time>2020-06-25T10:29:32Z</time>
      </trkpt>
      <trkpt lat="49.71687" lon="4.7603">
        <ele>151.8</ele>
        <time>2020-06-25T10:29:33Z</time>
      </trkpt>
      <trkpt lat="49.71682" lon="4.76035">
        <ele>151.8</ele>
        <time>2020-06-25T10:29:34Z</time>
      </trkpt>
      <trkpt lat="49.71677" lon="4.7604">
        <ele>151.8</ele>
        <time>2020-06-25T10:29:35Z</time>
      </trkpt>
      <trkpt lat="49.71672" lon="4.76044">
        <ele>151.8</ele>
        <time>2020-06-25T10:29:36Z</time>
      </trkpt>
      <trkpt lat="49.71666" lon="4.76049">
        <ele>151.8</ele>
        <time>2020-06-25T10:29:37Z</time>
      </trkpt>
      <trkpt lat="49.71661" lon="4.76053">
        <ele>151.7</ele>
        <time>2020-06-25T10:29:38Z</time>
      </trkpt>
      <trkpt lat="49.71656" lon="4.76057">
        <ele>151.7</ele>
        <time>2020-06-25T10:29:39Z</time>
      </trkpt>
      <trkpt lat="49.71652" lon="4.76062">
        <ele>151.7</ele>
        <time>2020-06-25T10:29:40Z</time>
      </trkpt>
      <trkpt lat="49.71646" lon="4.76066">
        <ele>151.7</ele>
        <time>2020-06-25T10:29:41Z</time>
      </trkpt>
      <trkpt lat="49.71641" lon="4.7607">
        <ele>151.7</ele>
        <time>2020-06-25T10:29:42Z</time>
      </trkpt>
      <trkpt lat="49.71637" lon="4.76074">
        <ele>151.7</ele>
        <time>2020-06-25T10:29:43Z</time>
      </trkpt>
      <trkpt lat="49.71633" lon="4.76078">
        <ele>151.8</ele>
        <time>2020-06-25T10:29:44Z</time>
      </trkpt>
      <trkpt lat="49.71628" lon="4.76083">
        <ele>151.8</ele>
        <time>2020-06-25T10:29:45Z</time>
      </trkpt>
      <trkpt lat="49.71623" lon="4.76087">
        <ele>151.8</ele>
        <time>2020-06-25T10:29:46Z</time>
      </trkpt>
      <trkpt lat="49.71618" lon="4.76092">
        <ele>151.8</ele>
        <time>2020-06-25T10:29:47Z</time>
      </trkpt>
      <trkpt lat="49.71612" lon="4.76097">
        <ele>151.7</ele>
        <time>2020-06-25T10:29:48Z</time>
      </trkpt>
      <trkpt lat="49.71607" lon="4.76103">
        <ele>151.7</ele>
        <time>2020-06-25T10:29:49Z</time>
      </trkpt>
      <trkpt lat="49.71602" lon="4.76109">
        <ele>151.7</ele>
        <time>2020-06-25T10:29:50Z</time>
      </trkpt>
      <trkpt lat="49.71597" lon="4.76113">
        <ele>151.7</ele>
        <time>2020-06-25T10:29:51Z</time>
      </trkpt>
      <trkpt lat="49.71593" lon="4.76117">
        <ele>151.6</ele>
        <time>2020-06-25T10:29:52Z</time>
      </trkpt>
      <trkpt lat="49.71588" lon="4.7612">
        <ele>151.6</ele>
        <time>2020-06-25T10:29:53Z</time>
      </trkpt>
      <trkpt lat="49.71583" lon="4.76127">
        <ele>151.6</ele>
        <time>2020-06-25T10:29:54Z</time>
      </trkpt>
      <trkpt lat="49.71578" lon="4.76132">
        <ele>151.6</ele>
        <time>2020-06-25T10:29:55Z</time>
      </trkpt>
      <trkpt lat="49.71572" lon="4.76137">
        <ele>151.6</ele>
        <time>2020-06-25T10:29:56Z</time>
      </trkpt>
      <trkpt lat="49.71567" lon="4.76143">
        <ele>151.6</ele>
        <time>2020-06-25T10:29:57Z</time>
      </trkpt>
      <trkpt lat="49.7156" lon="4.76148">
        <ele>151.6</ele>
        <time>2020-06-25T10:29:58Z</time>
      </trkpt>
      <trkpt lat="49.71555" lon="4.76153">
        <ele>151.7</ele>
        <time>2020-06-25T10:29:59Z</time>
      </trkpt>
      <trkpt lat="49.7155" lon="4.76157">
        <ele>151.7</ele>
        <time>2020-06-25T10:30:00Z</time>
      </trkpt>
      <trkpt lat="49.71545" lon="4.76161">
        <ele>151.7</ele>
        <time>2020-06-25T10:30:01Z</time>
      </trkpt>
      <trkpt lat="49.71539" lon="4.76165">
        <ele>151.8</ele>
        <time>2020-06-25T10:30:02Z</time>
      </trkpt>
      <trkpt lat="49.71535" lon="4.76169">
        <ele>151.8</ele>
        <time>2020-06-25T10:30:03Z</time>
      </trkpt>
      <trkpt lat="49.7153" lon="4.76174">
        <ele>151.8</ele>
        <time>2020-06-25T10:30:04Z</time>
      </trkpt>
      <trkpt lat="49.71525" lon="4.76179">
        <ele>151.9</ele>
        <time>2020-06-25T10:30:05Z</time>
      </trkpt>
      <trkpt lat="49.7152" lon="4.76184">
        <ele>151.9</ele>
        <time>2020-06-25T10:30:06Z</time>
      </trkpt>
      <trkpt lat="49.71516" lon="4.76189">
        <ele>151.9</ele>
        <time>2020-06-25T10:30:07Z</time>
      </trkpt>
      <trkpt lat="49.7151" lon="4.76193">
        <ele>152</ele>
        <time>2020-06-25T10:30:08Z</time>
      </trkpt>
      <trkpt lat="49.71504" lon="4.76198">
        <ele>152</ele>
        <time>2020-06-25T10:30:09Z</time>
      </trkpt>
      <trkpt lat="49.71499" lon="4.76203">
        <ele>152</ele>
        <time>2020-06-25T10:30:10Z</time>
      </trkpt>
      <trkpt lat="49.71496" lon="4.76207">
        <ele>152</ele>
        <time>2020-06-25T10:30:11Z</time>
      </trkpt>
      <trkpt lat="49.71491" lon="4.76211">
        <ele>152</ele>
        <time>2020-06-25T10:30:12Z</time>
      </trkpt>
      <trkpt lat="49.71487" lon="4.76215">
        <ele>152</ele>
        <time>2020-06-25T10:30:13Z</time>
      </trkpt>
      <trkpt lat="49.71482" lon="4.7622">
        <ele>152</ele>
        <time>2020-06-25T10:30:14Z</time>
      </trkpt>
      <trkpt lat="49.71477" lon="4.76225">
        <ele>152</ele>
        <time>2020-06-25T10:30:15Z</time>
      </trkpt>
      <trkpt lat="49.71473" lon="4.76229">
        <ele>152</ele>
        <time>2020-06-25T10:30:16Z</time>
      </trkpt>
      <trkpt lat="49.71467" lon="4.76234">
        <ele>152</ele>
        <time>2020-06-25T10:30:17Z</time>
      </trkpt>
      <trkpt lat="49.71463" lon="4.76239">
        <ele>152</ele>
        <time>2020-06-25T10:30:18Z</time>
      </trkpt>
      <trkpt lat="49.71458" lon="4.76244">
        <ele>151.9</ele>
        <time>2020-06-25T10:30:19Z</time>
      </trkpt>
      <trkpt lat="49.71452" lon="4.76249">
        <ele>151.9</ele>
        <time>2020-06-25T10:30:20Z</time>
      </trkpt>
      <trkpt lat="49.71446" lon="4.76255">
        <ele>151.9</ele>
        <time>2020-06-25T10:30:21Z</time>
      </trkpt>
      <trkpt lat="49.71441" lon="4.76259">
        <ele>151.9</ele>
        <time>2020-06-25T10:30:22Z</time>
      </trkpt>
      <trkpt lat="49.71436" lon="4.76264">
        <ele>151.9</ele>
        <time>2020-06-25T10:30:23Z</time>
      </trkpt>
      <trkpt lat="49.71431" lon="4.76267">
        <ele>151.9</ele>
        <time>2020-06-25T10:30:24Z</time>
      </trkpt>
      <trkpt lat="49.71426" lon="4.76272">
        <ele>151.9</ele>
        <time>2020-06-25T10:30:25Z</time>
      </trkpt>
      <trkpt lat="49.7142" lon="4.76277">
        <ele>151.9</ele>
        <time>2020-06-25T10:30:26Z</time>
      </trkpt>
      <trkpt lat="49.71415" lon="4.76283">
        <ele>151.9</ele>
        <time>2020-06-25T10:30:27Z</time>
      </trkpt>
      <trkpt lat="49.7141" lon="4.76288">
        <ele>151.9</ele>
        <time>2020-06-25T10:30:28Z</time>
      </trkpt>
      <trkpt lat="49.71406" lon="4.76292">
        <ele>151.9</ele>
        <time>2020-06-25T10:30:29Z</time>
      </trkpt>
      <trkpt lat="49.714" lon="4.76297">
        <ele>151.9</ele>
        <time>2020-06-25T10:30:30Z</time>
      </trkpt>
      <trkpt lat="49.71395" lon="4.76301">
        <ele>151.9</ele>
        <time>2020-06-25T10:30:31Z</time>
      </trkpt>
      <trkpt lat="49.7139" lon="4.76308">
        <ele>151.9</ele>
        <time>2020-06-25T10:30:32Z</time>
      </trkpt>
      <trkpt lat="49.71385" lon="4.76313">
        <ele>151.9</ele>
        <time>2020-06-25T10:30:33Z</time>
      </trkpt>
      <trkpt lat="49.7138" lon="4.76317">
        <ele>151.9</ele>
        <time>2020-06-25T10:30:34Z</time>
      </trkpt>
      <trkpt lat="49.71375" lon="4.76321">
        <ele>152</ele>
        <time>2020-06-25T10:30:35Z</time>
      </trkpt>
      <trkpt lat="49.7137" lon="4.76326">
        <ele>152</ele>
        <time>2020-06-25T10:30:36Z</time>
      </trkpt>
      <trkpt lat="49.71365" lon="4.7633">
        <ele>152</ele>
        <time>2020-06-25T10:30:37Z</time>
      </trkpt>
      <trkpt lat="49.71361" lon="4.76333">
        <ele>152</ele>
        <time>2020-06-25T10:30:38Z</time>
      </trkpt>
      <trkpt lat="49.71356" lon="4.76337">
        <ele>152</ele>
        <time>2020-06-25T10:30:39Z</time>
      </trkpt>
      <trkpt lat="49.7135" lon="4.76343">
        <ele>152</ele>
        <time>2020-06-25T10:30:40Z</time>
      </trkpt>
      <trkpt lat="49.71346" lon="4.76348">
        <ele>152</ele>
        <time>2020-06-25T10:30:41Z</time>
      </trkpt>
      <trkpt lat="49.71341" lon="4.76352">
        <ele>152</ele>
        <time>2020-06-25T10:30:42Z</time>
      </trkpt>
      <trkpt lat="49.71335" lon="4.76357">
        <ele>152</ele>
        <time>2020-06-25T10:30:43Z</time>
      </trkpt>
      <trkpt lat="49.71331" lon="4.76361">
        <ele>152.1</ele>
        <time>2020-06-25T10:30:44Z</time>
      </trkpt>
      <trkpt lat="49.71326" lon="4.76365">
        <ele>152.1</ele>
        <time>2020-06-25T10:30:45Z</time>
      </trkpt>
      <trkpt lat="49.71322" lon="4.76369">
        <ele>152.1</ele>
        <time>2020-06-25T10:30:46Z</time>
      </trkpt>
      <trkpt lat="49.71316" lon="4.76373">
        <ele>152.1</ele>
        <time>2020-06-25T10:30:47Z</time>
      </trkpt>
      <trkpt lat="49.71311" lon="4.76377">
        <ele>152</ele>
        <time>2020-06-25T10:30:48Z</time>
      </trkpt>
      <trkpt lat="49.71307" lon="4.76381">
        <ele>152</ele>
        <time>2020-06-25T10:30:49Z</time>
      </trkpt>
      <trkpt lat="49.71301" lon="4.76386">
        <ele>152</ele>
        <time>2020-06-25T10:30:50Z</time>
      </trkpt>
      <trkpt lat="49.71295" lon="4.76391">
        <ele>152</ele>
        <time>2020-06-25T10:30:51Z</time>
      </trkpt>
      <trkpt lat="49.7129" lon="4.76396">
        <ele>152</ele>
        <time>2020-06-25T10:30:52Z</time>
      </trkpt>
      <trkpt lat="49.71285" lon="4.76402">
        <ele>152</ele>
        <time>2020-06-25T10:30:53Z</time>
      </trkpt>
      <trkpt lat="49.71281" lon="4.76406">
        <ele>152</ele>
        <time>2020-06-25T10:30:54Z</time>
      </trkpt>
      <trkpt lat="49.71276" lon="4.7641">
        <ele>152</ele>
        <time>2020-06-25T10:30:55Z</time>
      </trkpt>
      <trkpt lat="49.7127" lon="4.76415">
        <ele>152</ele>
        <time>2020-06-25T10:30:56Z</time>
      </trkpt>
      <trkpt lat="49.71264" lon="4.7642">
        <ele>152</ele>
        <time>2020-06-25T10:30:57Z</time>
      </trkpt>
      <trkpt lat="49.71259" lon="4.76424">
        <ele>152</ele>
        <time>2020-06-25T10:30:58Z</time>
      </trkpt>
      <trkpt lat="49.71254" lon="4.76429">
        <ele>152.1</ele>
        <time>2020-06-25T10:30:59Z</time>
      </trkpt>
      <trkpt lat="49.7125" lon="4.76433">
        <ele>152.1</ele>
        <time>2020-06-25T10:31:00Z</time>
      </trkpt>
      <trkpt lat="49.71245" lon="4.76437">
        <ele>152.1</ele>
        <time>2020-06-25T10:31:01Z</time>
      </trkpt>
      <trkpt lat="49.71241" lon="4.76441">
        <ele>152.1</ele>
        <time>2020-06-25T10:31:02Z</time>
      </trkpt>
      <trkpt lat="49.71235" lon="4.76446">
        <ele>152.2</ele>
        <time>2020-06-25T10:31:03Z</time>
      </trkpt>
      <trkpt lat="49.7123" lon="4.76451">
        <ele>152.2</ele>
        <time>2020-06-25T10:31:04Z</time>
      </trkpt>
      <trkpt lat="49.71225" lon="4.76456">
        <ele>152.2</ele>
        <time>2020-06-25T10:31:05Z</time>
      </trkpt>
      <trkpt lat="49.7122" lon="4.7646">
        <ele>152.3</ele>
        <time>2020-06-25T10:31:06Z</time>
      </trkpt>
      <trkpt lat="49.71216" lon="4.76464">
        <ele>152.3</ele>
        <time>2020-06-25T10:31:07Z</time>
      </trkpt>
      <trkpt lat="49.71212" lon="4.76468">
        <ele>152.3</ele>
        <time>2020-06-25T10:31:08Z</time>
      </trkpt>
      <trkpt lat="49.71207" lon="4.76472">
        <ele>152.4</ele>
        <time>2020-06-25T10:31:09Z</time>
      </trkpt>
      <trkpt lat="49.71201" lon="4.76477">
        <ele>152.4</ele>
        <time>2020-06-25T10:31:10Z</time>
      </trkpt>
      <trkpt lat="49.71196" lon="4.7648">
        <ele>152.4</ele>
        <time>2020-06-25T10:31:11Z</time>
      </trkpt>
      <trkpt lat="49.71192" lon="4.76484">
        <ele>152.4</ele>
        <time>2020-06-25T10:31:12Z</time>
      </trkpt>
      <trkpt lat="49.71187" lon="4.7649">
        <ele>152.4</ele>
        <time>2020-06-25T10:31:13Z</time>
      </trkpt>
      <trkpt lat="49.71184" lon="4.76493">
        <ele>152.4</ele>
        <time>2020-06-25T10:31:14Z</time>
      </trkpt>
      <trkpt lat="49.7118" lon="4.76497">
        <ele>152.5</ele>
        <time>2020-06-25T10:31:15Z</time>
      </trkpt>
      <trkpt lat="49.71176" lon="4.765">
        <ele>152.5</ele>
        <time>2020-06-25T10:31:16Z</time>
      </trkpt>
      <trkpt lat="49.71173" lon="4.76503">
        <ele>152.5</ele>
        <time>2020-06-25T10:31:17Z</time>
      </trkpt>
      <trkpt lat="49.7117" lon="4.76505">
        <ele>152.6</ele>
        <time>2020-06-25T10:31:18Z</time>
      </trkpt>
      <trkpt lat="49.71166" lon="4.76508">
        <ele>152.6</ele>
        <time>2020-06-25T10:31:19Z</time>
      </trkpt>
      <trkpt lat="49.71161" lon="4.7651">
        <ele>152.6</ele>
        <time>2020-06-25T10:31:20Z</time>
      </trkpt>
      <trkpt lat="49.71157" lon="4.76513">
        <ele>152.7</ele>
        <time>2020-06-25T10:31:21Z</time>
      </trkpt>
      <trkpt lat="49.71152" lon="4.76517">
        <ele>152.7</ele>
        <time>2020-06-25T10:31:22Z</time>
      </trkpt>
      <trkpt lat="49.71147" lon="4.76521">
        <ele>152.7</ele>
        <time>2020-06-25T10:31:23Z</time>
      </trkpt>
      <trkpt lat="49.71143" lon="4.76524">
        <ele>152.7</ele>
        <time>2020-06-25T10:31:24Z</time>
      </trkpt>
      <trkpt lat="49.71138" lon="4.76526">
        <ele>152.8</ele>
        <time>2020-06-25T10:31:25Z</time>
      </trkpt>
      <trkpt lat="49.71133" lon="4.76529">
        <ele>152.8</ele>
        <time>2020-06-25T10:31:26Z</time>
      </trkpt>
      <trkpt lat="49.71127" lon="4.76534">
        <ele>152.8</ele>
        <time>2020-06-25T10:31:27Z</time>
      </trkpt>
      <trkpt lat="49.71122" lon="4.76538">
        <ele>152.8</ele>
        <time>2020-06-25T10:31:28Z</time>
      </trkpt>
      <trkpt lat="49.71117" lon="4.76543">
        <ele>152.8</ele>
        <time>2020-06-25T10:31:29Z</time>
      </trkpt>
      <trkpt lat="49.71113" lon="4.76547">
        <ele>152.8</ele>
        <time>2020-06-25T10:31:30Z</time>
      </trkpt>
      <trkpt lat="49.71111" lon="4.76549">
        <ele>152.8</ele>
        <time>2020-06-25T10:31:31Z</time>
      </trkpt>
      <trkpt lat="49.71106" lon="4.76553">
        <ele>152.9</ele>
        <time>2020-06-25T10:31:32Z</time>
      </trkpt>
      <trkpt lat="49.71103" lon="4.76555">
        <ele>152.9</ele>
        <time>2020-06-25T10:31:33Z</time>
      </trkpt>
      <trkpt lat="49.71099" lon="4.7656">
        <ele>152.9</ele>
        <time>2020-06-25T10:31:34Z</time>
      </trkpt>
      <trkpt lat="49.71096" lon="4.76564">
        <ele>152.9</ele>
        <time>2020-06-25T10:31:35Z</time>
      </trkpt>
      <trkpt lat="49.71092" lon="4.76569">
        <ele>152.9</ele>
        <time>2020-06-25T10:31:36Z</time>
      </trkpt>
      <trkpt lat="49.71089" lon="4.76572">
        <ele>152.9</ele>
        <time>2020-06-25T10:31:37Z</time>
      </trkpt>
      <trkpt lat="49.71085" lon="4.76577">
        <ele>153</ele>
        <time>2020-06-25T10:31:38Z</time>
      </trkpt>
      <trkpt lat="49.71081" lon="4.76583">
        <ele>153</ele>
        <time>2020-06-25T10:31:39Z</time>
      </trkpt>
      <trkpt lat="49.71077" lon="4.76586">
        <ele>153.1</ele>
        <time>2020-06-25T10:31:40Z</time>
      </trkpt>
      <trkpt lat="49.71073" lon="4.76592">
        <ele>153.1</ele>
        <time>2020-06-25T10:31:41Z</time>
      </trkpt>
      <trkpt lat="49.71068" lon="4.76598">
        <ele>153.2</ele>
        <time>2020-06-25T10:31:42Z</time>
      </trkpt>
      <trkpt lat="49.71063" lon="4.76605">
        <ele>153.2</ele>
        <time>2020-06-25T10:31:43Z</time>
      </trkpt>
      <trkpt lat="49.71057" lon="4.7661">
        <ele>153.3</ele>
        <time>2020-06-25T10:31:44Z</time>
      </trkpt>
      <trkpt lat="49.71052" lon="4.76616">
        <ele>153.3</ele>
        <time>2020-06-25T10:31:45Z</time>
      </trkpt>
      <trkpt lat="49.71048" lon="4.76622">
        <ele>153.2</ele>
        <time>2020-06-25T10:31:46Z</time>
      </trkpt>
      <trkpt lat="49.71043" lon="4.76627">
        <ele>153.2</ele>
        <time>2020-06-25T10:31:47Z</time>
      </trkpt>
      <trkpt lat="49.71038" lon="4.76632">
        <ele>153.2</ele>
        <time>2020-06-25T10:31:48Z</time>
      </trkpt>
      <trkpt lat="49.71034" lon="4.76636">
        <ele>153.1</ele>
        <time>2020-06-25T10:31:49Z</time>
      </trkpt>
      <trkpt lat="49.7103" lon="4.76639">
        <ele>153.1</ele>
        <time>2020-06-25T10:31:50Z</time>
      </trkpt>
      <trkpt lat="49.71025" lon="4.76643">
        <ele>153.1</ele>
        <time>2020-06-25T10:31:51Z</time>
      </trkpt>
      <trkpt lat="49.7102" lon="4.76647">
        <ele>153.1</ele>
        <time>2020-06-25T10:31:52Z</time>
      </trkpt>
      <trkpt lat="49.71015" lon="4.7665">
        <ele>153.1</ele>
        <time>2020-06-25T10:31:53Z</time>
      </trkpt>
      <trkpt lat="49.7101" lon="4.76654">
        <ele>153.1</ele>
        <time>2020-06-25T10:31:54Z</time>
      </trkpt>
      <trkpt lat="49.71006" lon="4.76657">
        <ele>153.1</ele>
        <time>2020-06-25T10:31:55Z</time>
      </trkpt>
      <trkpt lat="49.70999" lon="4.76661">
        <ele>153.1</ele>
        <time>2020-06-25T10:31:56Z</time>
      </trkpt>
      <trkpt lat="49.70994" lon="4.76662">
        <ele>153.1</ele>
        <time>2020-06-25T10:31:57Z</time>
      </trkpt>
      <trkpt lat="49.70989" lon="4.76666">
        <ele>153.1</ele>
        <time>2020-06-25T10:31:58Z</time>
      </trkpt>
      <trkpt lat="49.70984" lon="4.7667">
        <ele>153.1</ele>
        <time>2020-06-25T10:31:59Z</time>
      </trkpt>
      <trkpt lat="49.7098" lon="4.76673">
        <ele>153.1</ele>
        <time>2020-06-25T10:32:00Z</time>
      </trkpt>
      <trkpt lat="49.70974" lon="4.76676">
        <ele>153.1</ele>
        <time>2020-06-25T10:32:01Z</time>
      </trkpt>
      <trkpt lat="49.70968" lon="4.7668">
        <ele>153.1</ele>
        <time>2020-06-25T10:32:02Z</time>
      </trkpt>
      <trkpt lat="49.70961" lon="4.76683">
        <ele>153.1</ele>
        <time>2020-06-25T10:32:03Z</time>
      </trkpt>
      <trkpt lat="49.70956" lon="4.76686">
        <ele>153.1</ele>
        <time>2020-06-25T10:32:04Z</time>
      </trkpt>
      <trkpt lat="49.7095" lon="4.76691">
        <ele>153.1</ele>
        <time>2020-06-25T10:32:05Z</time>
      </trkpt>
      <trkpt lat="49.70944" lon="4.76694">
        <ele>153.2</ele>
        <time>2020-06-25T10:32:06Z</time>
      </trkpt>
      <trkpt lat="49.70939" lon="4.76697">
        <ele>153.2</ele>
        <time>2020-06-25T10:32:07Z</time>
      </trkpt>
      <trkpt lat="49.70933" lon="4.76701">
        <ele>153.2</ele>
        <time>2020-06-25T10:32:08Z</time>
      </trkpt>
      <trkpt lat="49.70929" lon="4.76704">
        <ele>153.2</ele>
        <time>2020-06-25T10:32:09Z</time>
      </trkpt>
      <trkpt lat="49.70923" lon="4.76707">
        <ele>153.2</ele>
        <time>2020-06-25T10:32:10Z</time>
      </trkpt>
      <trkpt lat="49.70918" lon="4.76709">
        <ele>153.2</ele>
        <time>2020-06-25T10:32:11Z</time>
      </trkpt>
      <trkpt lat="49.70912" lon="4.76713">
        <ele>153.2</ele>
        <time>2020-06-25T10:32:12Z</time>
      </trkpt>
      <trkpt lat="49.70907" lon="4.76716">
        <ele>153.2</ele>
        <time>2020-06-25T10:32:13Z</time>
      </trkpt>
      <trkpt lat="49.70902" lon="4.7672">
        <ele>153.3</ele>
        <time>2020-06-25T10:32:14Z</time>
      </trkpt>
      <trkpt lat="49.70897" lon="4.76725">
        <ele>153.3</ele>
        <time>2020-06-25T10:32:15Z</time>
      </trkpt>
      <trkpt lat="49.70892" lon="4.76729">
        <ele>153.4</ele>
        <time>2020-06-25T10:32:16Z</time>
      </trkpt>
      <trkpt lat="49.70886" lon="4.76735">
        <ele>153.5</ele>
        <time>2020-06-25T10:32:17Z</time>
      </trkpt>
      <trkpt lat="49.70881" lon="4.7674">
        <ele>153.6</ele>
        <time>2020-06-25T10:32:18Z</time>
      </trkpt>
      <trkpt lat="49.70876" lon="4.76745">
        <ele>153.6</ele>
        <time>2020-06-25T10:32:19Z</time>
      </trkpt>
      <trkpt lat="49.7087" lon="4.76749">
        <ele>153.7</ele>
        <time>2020-06-25T10:32:20Z</time>
      </trkpt>
      <trkpt lat="49.70864" lon="4.76755">
        <ele>153.7</ele>
        <time>2020-06-25T10:32:21Z</time>
      </trkpt>
      <trkpt lat="49.70859" lon="4.76759">
        <ele>153.8</ele>
        <time>2020-06-25T10:32:22Z</time>
      </trkpt>
      <trkpt lat="49.70854" lon="4.76765">
        <ele>153.8</ele>
        <time>2020-06-25T10:32:23Z</time>
      </trkpt>
      <trkpt lat="49.70849" lon="4.7677">
        <ele>153.8</ele>
        <time>2020-06-25T10:32:24Z</time>
      </trkpt>
      <trkpt lat="49.70845" lon="4.76774">
        <ele>153.8</ele>
        <time>2020-06-25T10:32:25Z</time>
      </trkpt>
      <trkpt lat="49.7084" lon="4.76779">
        <ele>153.9</ele>
        <time>2020-06-25T10:32:26Z</time>
      </trkpt>
      <trkpt lat="49.70835" lon="4.76784">
        <ele>153.9</ele>
        <time>2020-06-25T10:32:27Z</time>
      </trkpt>
      <trkpt lat="49.7083" lon="4.76789">
        <ele>153.8</ele>
        <time>2020-06-25T10:32:28Z</time>
      </trkpt>
      <trkpt lat="49.70825" lon="4.76795">
        <ele>153.8</ele>
        <time>2020-06-25T10:32:29Z</time>
      </trkpt>
      <trkpt lat="49.70821" lon="4.768">
        <ele>153.7</ele>
        <time>2020-06-25T10:32:30Z</time>
      </trkpt>
      <trkpt lat="49.70817" lon="4.76806">
        <ele>153.6</ele>
        <time>2020-06-25T10:32:31Z</time>
      </trkpt>
      <trkpt lat="49.70812" lon="4.76814">
        <ele>153.5</ele>
        <time>2020-06-25T10:32:32Z</time>
      </trkpt>
      <trkpt lat="49.70807" lon="4.76821">
        <ele>153.5</ele>
        <time>2020-06-25T10:32:33Z</time>
      </trkpt>
      <trkpt lat="49.70802" lon="4.76829">
        <ele>153.4</ele>
        <time>2020-06-25T10:32:34Z</time>
      </trkpt>
      <trkpt lat="49.70797" lon="4.76837">
        <ele>153.3</ele>
        <time>2020-06-25T10:32:35Z</time>
      </trkpt>
      <trkpt lat="49.70791" lon="4.76843">
        <ele>153.2</ele>
        <time>2020-06-25T10:32:36Z</time>
      </trkpt>
      <trkpt lat="49.70787" lon="4.76847">
        <ele>153.2</ele>
        <time>2020-06-25T10:32:37Z</time>
      </trkpt>
      <trkpt lat="49.70783" lon="4.76854">
        <ele>153.1</ele>
        <time>2020-06-25T10:32:38Z</time>
      </trkpt>
      <trkpt lat="49.70778" lon="4.76861">
        <ele>153.1</ele>
        <time>2020-06-25T10:32:39Z</time>
      </trkpt>
      <trkpt lat="49.70773" lon="4.76867">
        <ele>153.1</ele>
        <time>2020-06-25T10:32:40Z</time>
      </trkpt>
      <trkpt lat="49.70768" lon="4.76874">
        <ele>153.1</ele>
        <time>2020-06-25T10:32:41Z</time>
      </trkpt>
      <trkpt lat="49.70762" lon="4.76881">
        <ele>153.1</ele>
        <time>2020-06-25T10:32:42Z</time>
      </trkpt>
      <trkpt lat="49.70758" lon="4.76887">
        <ele>153.1</ele>
        <time>2020-06-25T10:32:43Z</time>
      </trkpt>
      <trkpt lat="49.70752" lon="4.76894">
        <ele>153.1</ele>
        <time>2020-06-25T10:32:44Z</time>
      </trkpt>
      <trkpt lat="49.70747" lon="4.769">
        <ele>153.1</ele>
        <time>2020-06-25T10:32:45Z</time>
      </trkpt>
      <trkpt lat="49.70743" lon="4.76906">
        <ele>153.1</ele>
        <time>2020-06-25T10:32:46Z</time>
      </trkpt>
      <trkpt lat="49.70738" lon="4.76913">
        <ele>153</ele>
        <time>2020-06-25T10:32:47Z</time>
      </trkpt>
      <trkpt lat="49.70734" lon="4.7692">
        <ele>153</ele>
        <time>2020-06-25T10:32:48Z</time>
      </trkpt>
      <trkpt lat="49.70729" lon="4.76926">
        <ele>152.9</ele>
        <time>2020-06-25T10:32:49Z</time>
      </trkpt>
      <trkpt lat="49.70724" lon="4.76932">
        <ele>152.9</ele>
        <time>2020-06-25T10:32:50Z</time>
      </trkpt>
      <trkpt lat="49.70719" lon="4.76938">
        <ele>152.8</ele>
        <time>2020-06-25T10:32:51Z</time>
      </trkpt>
      <trkpt lat="49.70714" lon="4.76944">
        <ele>152.8</ele>
        <time>2020-06-25T10:32:52Z</time>
      </trkpt>
      <trkpt lat="49.70709" lon="4.76951">
        <ele>152.7</ele>
        <time>2020-06-25T10:32:53Z</time>
      </trkpt>
      <trkpt lat="49.70703" lon="4.76956">
        <ele>152.7</ele>
        <time>2020-06-25T10:32:54Z</time>
      </trkpt>
      <trkpt lat="49.70698" lon="4.76962">
        <ele>152.6</ele>
        <time>2020-06-25T10:32:55Z</time>
      </trkpt>
      <trkpt lat="49.70693" lon="4.76968">
        <ele>152.6</ele>
        <time>2020-06-25T10:32:56Z</time>
      </trkpt>
      <trkpt lat="49.70687" lon="4.76973">
        <ele>152.5</ele>
        <time>2020-06-25T10:32:57Z</time>
      </trkpt>
      <trkpt lat="49.70682" lon="4.76979">
        <ele>152.5</ele>
        <time>2020-06-25T10:32:58Z</time>
      </trkpt>
      <trkpt lat="49.70677" lon="4.76985">
        <ele>152.5</ele>
        <time>2020-06-25T10:32:59Z</time>
      </trkpt>
      <trkpt lat="49.70671" lon="4.7699">
        <ele>152.5</ele>
        <time>2020-06-25T10:33:00Z</time>
      </trkpt>
      <trkpt lat="49.70666" lon="4.76996">
        <ele>152.5</ele>
        <time>2020-06-25T10:33:01Z</time>
      </trkpt>
      <trkpt lat="49.70661" lon="4.77002">
        <ele>152.4</ele>
        <time>2020-06-25T10:33:02Z</time>
      </trkpt>
      <trkpt lat="49.70656" lon="4.77007">
        <ele>152.4</ele>
        <time>2020-06-25T10:33:03Z</time>
      </trkpt>
      <trkpt lat="49.70651" lon="4.77013">
        <ele>152.4</ele>
        <time>2020-06-25T10:33:04Z</time>
      </trkpt>
      <trkpt lat="49.70645" lon="4.77018">
        <ele>152.4</ele>
        <time>2020-06-25T10:33:05Z</time>
      </trkpt>
      <trkpt lat="49.7064" lon="4.77024">
        <ele>152.3</ele>
        <time>2020-06-25T10:33:06Z</time>
      </trkpt>
      <trkpt lat="49.70635" lon="4.77029">
        <ele>152.3</ele>
        <time>2020-06-25T10:33:07Z</time>
      </trkpt>
      <trkpt lat="49.7063" lon="4.77034">
        <ele>152.3</ele>
        <time>2020-06-25T10:33:08Z</time>
      </trkpt>
      <trkpt lat="49.70625" lon="4.7704">
        <ele>152.2</ele>
        <time>2020-06-25T10:33:09Z</time>
      </trkpt>
      <trkpt lat="49.7062" lon="4.77046">
        <ele>152.2</ele>
        <time>2020-06-25T10:33:10Z</time>
      </trkpt>
      <trkpt lat="49.70615" lon="4.77051">
        <ele>152.2</ele>
        <time>2020-06-25T10:33:11Z</time>
      </trkpt>
      <trkpt lat="49.7061" lon="4.77057">
        <ele>152.2</ele>
        <time>2020-06-25T10:33:12Z</time>
      </trkpt>
      <trkpt lat="49.70605" lon="4.77063">
        <ele>152.2</ele>
        <time>2020-06-25T10:33:13Z</time>
      </trkpt>
      <trkpt lat="49.706" lon="4.77068">
        <ele>152.1</ele>
        <time>2020-06-25T10:33:14Z</time>
      </trkpt>
      <trkpt lat="49.70594" lon="4.77074">
        <ele>152.1</ele>
        <time>2020-06-25T10:33:15Z</time>
      </trkpt>
      <trkpt lat="49.70589" lon="4.77079">
        <ele>152.1</ele>
        <time>2020-06-25T10:33:16Z</time>
      </trkpt>
      <trkpt lat="49.70584" lon="4.77085">
        <ele>152</ele>
        <time>2020-06-25T10:33:17Z</time>
      </trkpt>
      <trkpt lat="49.70579" lon="4.77091">
        <ele>152</ele>
        <time>2020-06-25T10:33:18Z</time>
      </trkpt>
      <trkpt lat="49.70574" lon="4.77096">
        <ele>151.9</ele>
        <time>2020-06-25T10:33:19Z</time>
      </trkpt>
      <trkpt lat="49.70569" lon="4.77101">
        <ele>151.9</ele>
        <time>2020-06-25T10:33:20Z</time>
      </trkpt>
      <trkpt lat="49.70564" lon="4.77106">
        <ele>151.9</ele>
        <time>2020-06-25T10:33:21Z</time>
      </trkpt>
      <trkpt lat="49.70559" lon="4.77112">
        <ele>151.8</ele>
        <time>2020-06-25T10:33:22Z</time>
      </trkpt>
      <trkpt lat="49.70554" lon="4.77118">
        <ele>151.7</ele>
        <time>2020-06-25T10:33:23Z</time>
      </trkpt>
      <trkpt lat="49.70548" lon="4.77123">
        <ele>151.6</ele>
        <time>2020-06-25T10:33:24Z</time>
      </trkpt>
      <trkpt lat="49.70543" lon="4.77129">
        <ele>151.5</ele>
        <time>2020-06-25T10:33:25Z</time>
      </trkpt>
      <trkpt lat="49.70538" lon="4.77135">
        <ele>151.4</ele>
        <time>2020-06-25T10:33:26Z</time>
      </trkpt>
      <trkpt lat="49.70533" lon="4.77141">
        <ele>151.3</ele>
        <time>2020-06-25T10:33:27Z</time>
      </trkpt>
      <trkpt lat="49.70527" lon="4.77147">
        <ele>151.3</ele>
        <time>2020-06-25T10:33:28Z</time>
      </trkpt>
      <trkpt lat="49.70522" lon="4.77153">
        <ele>151.2</ele>
        <time>2020-06-25T10:33:29Z</time>
      </trkpt>
      <trkpt lat="49.70517" lon="4.77158">
        <ele>151.1</ele>
        <time>2020-06-25T10:33:30Z</time>
      </trkpt>
      <trkpt lat="49.70512" lon="4.77164">
        <ele>151.1</ele>
        <time>2020-06-25T10:33:31Z</time>
      </trkpt>
      <trkpt lat="49.70506" lon="4.77169">
        <ele>151</ele>
        <time>2020-06-25T10:33:32Z</time>
      </trkpt>
      <trkpt lat="49.70501" lon="4.77175">
        <ele>151</ele>
        <time>2020-06-25T10:33:33Z</time>
      </trkpt>
      <trkpt lat="49.70496" lon="4.77181">
        <ele>151</ele>
        <time>2020-06-25T10:33:34Z</time>
      </trkpt>
      <trkpt lat="49.70491" lon="4.77186">
        <ele>150.9</ele>
        <time>2020-06-25T10:33:35Z</time>
      </trkpt>
      <trkpt lat="49.70486" lon="4.77191">
        <ele>150.9</ele>
        <time>2020-06-25T10:33:36Z</time>
      </trkpt>
      <trkpt lat="49.70481" lon="4.77197">
        <ele>150.9</ele>
        <time>2020-06-25T10:33:37Z</time>
      </trkpt>
      <trkpt lat="49.70476" lon="4.77202">
        <ele>150.9</ele>
        <time>2020-06-25T10:33:38Z</time>
      </trkpt>
      <trkpt lat="49.7047" lon="4.77207">
        <ele>150.9</ele>
        <time>2020-06-25T10:33:39Z</time>
      </trkpt>
      <trkpt lat="49.70465" lon="4.77212">
        <ele>150.9</ele>
        <time>2020-06-25T10:33:40Z</time>
      </trkpt>
      <trkpt lat="49.7046" lon="4.77217">
        <ele>150.9</ele>
        <time>2020-06-25T10:33:41Z</time>
      </trkpt>
      <trkpt lat="49.70455" lon="4.77221">
        <ele>150.9</ele>
        <time>2020-06-25T10:33:42Z</time>
      </trkpt>
      <trkpt lat="49.7045" lon="4.77226">
        <ele>150.9</ele>
        <time>2020-06-25T10:33:43Z</time>
      </trkpt>
      <trkpt lat="49.70445" lon="4.77231">
        <ele>150.9</ele>
        <time>2020-06-25T10:33:44Z</time>
      </trkpt>
      <trkpt lat="49.7044" lon="4.77235">
        <ele>150.9</ele>
        <time>2020-06-25T10:33:45Z</time>
      </trkpt>
      <trkpt lat="49.70436" lon="4.7724">
        <ele>150.9</ele>
        <time>2020-06-25T10:33:46Z</time>
      </trkpt>
      <trkpt lat="49.70431" lon="4.77246">
        <ele>150.9</ele>
        <time>2020-06-25T10:33:47Z</time>
      </trkpt>
      <trkpt lat="49.70427" lon="4.77252">
        <ele>150.9</ele>
        <time>2020-06-25T10:33:48Z</time>
      </trkpt>
      <trkpt lat="49.70423" lon="4.77258">
        <ele>150.9</ele>
        <time>2020-06-25T10:33:49Z</time>
      </trkpt>
      <trkpt lat="49.70418" lon="4.77262">
        <ele>151</ele>
        <time>2020-06-25T10:33:50Z</time>
      </trkpt>
      <trkpt lat="49.70413" lon="4.77267">
        <ele>151</ele>
        <time>2020-06-25T10:33:51Z</time>
      </trkpt>
      <trkpt lat="49.70408" lon="4.77272">
        <ele>151</ele>
        <time>2020-06-25T10:33:52Z</time>
      </trkpt>
      <trkpt lat="49.70404" lon="4.77277">
        <ele>151</ele>
        <time>2020-06-25T10:33:53Z</time>
      </trkpt>
      <trkpt lat="49.70399" lon="4.77281">
        <ele>151</ele>
        <time>2020-06-25T10:33:54Z</time>
      </trkpt>
      <trkpt lat="49.70394" lon="4.77286">
        <ele>151</ele>
        <time>2020-06-25T10:33:55Z</time>
      </trkpt>
      <trkpt lat="49.70389" lon="4.77291">
        <ele>151</ele>
        <time>2020-06-25T10:33:56Z</time>
      </trkpt>
      <trkpt lat="49.70385" lon="4.77297">
        <ele>151</ele>
        <time>2020-06-25T10:33:57Z</time>
      </trkpt>
      <trkpt lat="49.7038" lon="4.773">
        <ele>151</ele>
        <time>2020-06-25T10:33:58Z</time>
      </trkpt>
      <trkpt lat="49.70375" lon="4.77305">
        <ele>151</ele>
        <time>2020-06-25T10:33:59Z</time>
      </trkpt>
      <trkpt lat="49.7037" lon="4.77311">
        <ele>151</ele>
        <time>2020-06-25T10:34:00Z</time>
      </trkpt>
      <trkpt lat="49.70366" lon="4.77316">
        <ele>151</ele>
        <time>2020-06-25T10:34:01Z</time>
      </trkpt>
      <trkpt lat="49.70361" lon="4.7732">
        <ele>151</ele>
        <time>2020-06-25T10:34:02Z</time>
      </trkpt>
      <trkpt lat="49.70356" lon="4.77326">
        <ele>151</ele>
        <time>2020-06-25T10:34:03Z</time>
      </trkpt>
      <trkpt lat="49.70351" lon="4.77331">
        <ele>151</ele>
        <time>2020-06-25T10:34:04Z</time>
      </trkpt>
      <trkpt lat="49.70345" lon="4.77338">
        <ele>151</ele>
        <time>2020-06-25T10:34:05Z</time>
      </trkpt>
      <trkpt lat="49.70341" lon="4.77344">
        <ele>150.9</ele>
        <time>2020-06-25T10:34:06Z</time>
      </trkpt>
      <trkpt lat="49.70336" lon="4.77347">
        <ele>150.9</ele>
        <time>2020-06-25T10:34:07Z</time>
      </trkpt>
      <trkpt lat="49.7033" lon="4.77353">
        <ele>150.9</ele>
        <time>2020-06-25T10:34:08Z</time>
      </trkpt>
      <trkpt lat="49.70325" lon="4.77359">
        <ele>150.9</ele>
        <time>2020-06-25T10:34:09Z</time>
      </trkpt>
      <trkpt lat="49.70321" lon="4.77365">
        <ele>150.9</ele>
        <time>2020-06-25T10:34:10Z</time>
      </trkpt>
      <trkpt lat="49.70315" lon="4.7737">
        <ele>151</ele>
        <time>2020-06-25T10:34:11Z</time>
      </trkpt>
      <trkpt lat="49.70309" lon="4.77377">
        <ele>151</ele>
        <time>2020-06-25T10:34:12Z</time>
      </trkpt>
      <trkpt lat="49.70304" lon="4.77381">
        <ele>151</ele>
        <time>2020-06-25T10:34:13Z</time>
      </trkpt>
      <trkpt lat="49.70298" lon="4.77386">
        <ele>151.1</ele>
        <time>2020-06-25T10:34:14Z</time>
      </trkpt>
      <trkpt lat="49.70293" lon="4.77392">
        <ele>151.1</ele>
        <time>2020-06-25T10:34:15Z</time>
      </trkpt>
      <trkpt lat="49.70287" lon="4.77398">
        <ele>151.2</ele>
        <time>2020-06-25T10:34:16Z</time>
      </trkpt>
      <trkpt lat="49.70283" lon="4.77402">
        <ele>151.2</ele>
        <time>2020-06-25T10:34:17Z</time>
      </trkpt>
      <trkpt lat="49.70278" lon="4.77406">
        <ele>151.2</ele>
        <time>2020-06-25T10:34:18Z</time>
      </trkpt>
      <trkpt lat="49.70274" lon="4.77411">
        <ele>151.2</ele>
        <time>2020-06-25T10:34:19Z</time>
      </trkpt>
      <trkpt lat="49.70269" lon="4.77414">
        <ele>151.3</ele>
        <time>2020-06-25T10:34:20Z</time>
      </trkpt>
      <trkpt lat="49.70263" lon="4.77419">
        <ele>151.3</ele>
        <time>2020-06-25T10:34:21Z</time>
      </trkpt>
      <trkpt lat="49.70259" lon="4.77423">
        <ele>151.4</ele>
        <time>2020-06-25T10:34:22Z</time>
      </trkpt>
      <trkpt lat="49.70254" lon="4.77428">
        <ele>151.4</ele>
        <time>2020-06-25T10:34:23Z</time>
      </trkpt>
      <trkpt lat="49.70249" lon="4.77431">
        <ele>151.4</ele>
        <time>2020-06-25T10:34:24Z</time>
      </trkpt>
      <trkpt lat="49.70245" lon="4.77435">
        <ele>151.4</ele>
        <time>2020-06-25T10:34:25Z</time>
      </trkpt>
      <trkpt lat="49.70241" lon="4.77438">
        <ele>151.5</ele>
        <time>2020-06-25T10:34:26Z</time>
      </trkpt>
      <trkpt lat="49.70237" lon="4.77442">
        <ele>151.5</ele>
        <time>2020-06-25T10:34:27Z</time>
      </trkpt>
      <trkpt lat="49.70232" lon="4.77447">
        <ele>151.5</ele>
        <time>2020-06-25T10:34:28Z</time>
      </trkpt>
      <trkpt lat="49.70228" lon="4.77452">
        <ele>151.6</ele>
        <time>2020-06-25T10:34:29Z</time>
      </trkpt>
      <trkpt lat="49.70222" lon="4.77457">
        <ele>151.6</ele>
        <time>2020-06-25T10:34:30Z</time>
      </trkpt>
      <trkpt lat="49.70216" lon="4.77462">
        <ele>151.7</ele>
        <time>2020-06-25T10:34:31Z</time>
      </trkpt>
      <trkpt lat="49.7021" lon="4.77466">
        <ele>151.8</ele>
        <time>2020-06-25T10:34:32Z</time>
      </trkpt>
      <trkpt lat="49.70205" lon="4.7747">
        <ele>151.8</ele>
        <time>2020-06-25T10:34:33Z</time>
      </trkpt>
      <trkpt lat="49.70201" lon="4.77472">
        <ele>151.9</ele>
        <time>2020-06-25T10:34:34Z</time>
      </trkpt>
      <trkpt lat="49.70196" lon="4.77474">
        <ele>151.9</ele>
        <time>2020-06-25T10:34:35Z</time>
      </trkpt>
      <trkpt lat="49.70191" lon="4.77476">
        <ele>151.9</ele>
        <time>2020-06-25T10:34:36Z</time>
      </trkpt>
      <trkpt lat="49.70186" lon="4.77478">
        <ele>152</ele>
        <time>2020-06-25T10:34:37Z</time>
      </trkpt>
      <trkpt lat="49.70181" lon="4.7748">
        <ele>152</ele>
        <time>2020-06-25T10:34:38Z</time>
      </trkpt>
      <trkpt lat="49.70175" lon="4.77482">
        <ele>152.1</ele>
        <time>2020-06-25T10:34:39Z</time>
      </trkpt>
      <trkpt lat="49.70169" lon="4.77483">
        <ele>152.2</ele>
        <time>2020-06-25T10:34:40Z</time>
      </trkpt>
      <trkpt lat="49.70163" lon="4.77485">
        <ele>152.3</ele>
        <time>2020-06-25T10:34:41Z</time>
      </trkpt>
      <trkpt lat="49.70157" lon="4.77486">
        <ele>152.4</ele>
        <time>2020-06-25T10:34:42Z</time>
      </trkpt>
      <trkpt lat="49.70152" lon="4.77485">
        <ele>152.4</ele>
        <time>2020-06-25T10:34:43Z</time>
      </trkpt>
      <trkpt lat="49.70147" lon="4.77484">
        <ele>152.5</ele>
        <time>2020-06-25T10:34:44Z</time>
      </trkpt>
      <trkpt lat="49.70141" lon="4.77483">
        <ele>152.6</ele>
        <time>2020-06-25T10:34:45Z</time>
      </trkpt>
      <trkpt lat="49.70137" lon="4.77482">
        <ele>152.7</ele>
        <time>2020-06-25T10:34:46Z</time>
      </trkpt>
      <trkpt lat="49.70132" lon="4.77479">
        <ele>152.7</ele>
        <time>2020-06-25T10:34:47Z</time>
      </trkpt>
      <trkpt lat="49.70127" lon="4.77476">
        <ele>152.8</ele>
        <time>2020-06-25T10:34:48Z</time>
      </trkpt>
      <trkpt lat="49.70121" lon="4.77475">
        <ele>152.8</ele>
        <time>2020-06-25T10:34:49Z</time>
      </trkpt>
      <trkpt lat="49.70116" lon="4.77472">
        <ele>152.9</ele>
        <time>2020-06-25T10:34:50Z</time>
      </trkpt>
      <trkpt lat="49.70111" lon="4.7747">
        <ele>152.9</ele>
        <time>2020-06-25T10:34:51Z</time>
      </trkpt>
      <trkpt lat="49.70107" lon="4.77468">
        <ele>152.9</ele>
        <time>2020-06-25T10:34:52Z</time>
      </trkpt>
      <trkpt lat="49.70101" lon="4.77465">
        <ele>153</ele>
        <time>2020-06-25T10:34:53Z</time>
      </trkpt>
      <trkpt lat="49.70097" lon="4.77461">
        <ele>153</ele>
        <time>2020-06-25T10:34:54Z</time>
      </trkpt>
      <trkpt lat="49.70091" lon="4.77458">
        <ele>153.1</ele>
        <time>2020-06-25T10:34:55Z</time>
      </trkpt>
      <trkpt lat="49.70085" lon="4.77455">
        <ele>153.1</ele>
        <time>2020-06-25T10:34:56Z</time>
      </trkpt>
      <trkpt lat="49.7008" lon="4.77452">
        <ele>153.1</ele>
        <time>2020-06-25T10:34:57Z</time>
      </trkpt>
      <trkpt lat="49.70074" lon="4.77449">
        <ele>153.1</ele>
        <time>2020-06-25T10:34:58Z</time>
      </trkpt>
      <trkpt lat="49.70067" lon="4.77446">
        <ele>153.1</ele>
        <time>2020-06-25T10:34:59Z</time>
      </trkpt>
      <trkpt lat="49.7006" lon="4.77443">
        <ele>153.1</ele>
        <time>2020-06-25T10:35:00Z</time>
      </trkpt>
      <trkpt lat="49.70053" lon="4.7744">
        <ele>153.1</ele>
        <time>2020-06-25T10:35:01Z</time>
      </trkpt>
      <trkpt lat="49.70047" lon="4.77436">
        <ele>153.1</ele>
        <time>2020-06-25T10:35:02Z</time>
      </trkpt>
      <trkpt lat="49.70042" lon="4.77433">
        <ele>153.1</ele>
        <time>2020-06-25T10:35:03Z</time>
      </trkpt>
      <trkpt lat="49.70037" lon="4.7743">
        <ele>153.1</ele>
        <time>2020-06-25T10:35:04Z</time>
      </trkpt>
      <trkpt lat="49.70031" lon="4.77427">
        <ele>153.1</ele>
        <time>2020-06-25T10:35:05Z</time>
      </trkpt>
      <trkpt lat="49.70027" lon="4.77426">
        <ele>153</ele>
        <time>2020-06-25T10:35:06Z</time>
      </trkpt>
      <trkpt lat="49.70023" lon="4.77424">
        <ele>153</ele>
        <time>2020-06-25T10:35:07Z</time>
      </trkpt>
      <trkpt lat="49.70017" lon="4.77422">
        <ele>153</ele>
        <time>2020-06-25T10:35:08Z</time>
      </trkpt>
      <trkpt lat="49.70011" lon="4.77419">
        <ele>153</ele>
        <time>2020-06-25T10:35:09Z</time>
      </trkpt>
      <trkpt lat="49.70005" lon="4.77415">
        <ele>152.9</ele>
        <time>2020-06-25T10:35:10Z</time>
      </trkpt>
      <trkpt lat="49.69999" lon="4.77413">
        <ele>152.9</ele>
        <time>2020-06-25T10:35:11Z</time>
      </trkpt>
      <trkpt lat="49.69994" lon="4.77414">
        <ele>152.8</ele>
        <time>2020-06-25T10:35:12Z</time>
      </trkpt>
      <trkpt lat="49.69989" lon="4.77411">
        <ele>152.8</ele>
        <time>2020-06-25T10:35:13Z</time>
      </trkpt>
      <trkpt lat="49.69984" lon="4.77408">
        <ele>152.7</ele>
        <time>2020-06-25T10:35:14Z</time>
      </trkpt>
      <trkpt lat="49.69979" lon="4.77404">
        <ele>152.7</ele>
        <time>2020-06-25T10:35:15Z</time>
      </trkpt>
      <trkpt lat="49.69973" lon="4.77401">
        <ele>152.6</ele>
        <time>2020-06-25T10:35:16Z</time>
      </trkpt>
      <trkpt lat="49.69966" lon="4.77398">
        <ele>152.5</ele>
        <time>2020-06-25T10:35:17Z</time>
      </trkpt>
      <trkpt lat="49.6996" lon="4.77395">
        <ele>152.4</ele>
        <time>2020-06-25T10:35:18Z</time>
      </trkpt>
      <trkpt lat="49.69955" lon="4.77392">
        <ele>152.3</ele>
        <time>2020-06-25T10:35:19Z</time>
      </trkpt>
      <trkpt lat="49.69948" lon="4.77389">
        <ele>152.1</ele>
        <time>2020-06-25T10:35:20Z</time>
      </trkpt>
      <trkpt lat="49.69943" lon="4.77387">
        <ele>152</ele>
        <time>2020-06-25T10:35:21Z</time>
      </trkpt>
      <trkpt lat="49.69938" lon="4.77384">
        <ele>151.9</ele>
        <time>2020-06-25T10:35:22Z</time>
      </trkpt>
      <trkpt lat="49.69932" lon="4.77381">
        <ele>151.7</ele>
        <time>2020-06-25T10:35:23Z</time>
      </trkpt>
      <trkpt lat="49.69926" lon="4.77379">
        <ele>151.5</ele>
        <time>2020-06-25T10:35:24Z</time>
      </trkpt>
      <trkpt lat="49.69919" lon="4.77376">
        <ele>151.3</ele>
        <time>2020-06-25T10:35:25Z</time>
      </trkpt>
      <trkpt lat="49.69913" lon="4.77374">
        <ele>151.2</ele>
        <time>2020-06-25T10:35:26Z</time>
      </trkpt>
      <trkpt lat="49.69906" lon="4.77372">
        <ele>151</ele>
        <time>2020-06-25T10:35:27Z</time>
      </trkpt>
      <trkpt lat="49.699" lon="4.77371">
        <ele>150.8</ele>
        <time>2020-06-25T10:35:28Z</time>
      </trkpt>
      <trkpt lat="49.69893" lon="4.77369">
        <ele>150.4</ele>
        <time>2020-06-25T10:35:29Z</time>
      </trkpt>
      <trkpt lat="49.69887" lon="4.77368">
        <ele>150.4</ele>
        <time>2020-06-25T10:35:30Z</time>
      </trkpt>
      <trkpt lat="49.6988" lon="4.77371">
        <ele>150.4</ele>
        <time>2020-06-25T10:35:31Z</time>
      </trkpt>
      <trkpt lat="49.69874" lon="4.77375">
        <ele>150.4</ele>
        <time>2020-06-25T10:35:32Z</time>
      </trkpt>
      <trkpt lat="49.69868" lon="4.7738">
        <ele>150.4</ele>
        <time>2020-06-25T10:35:33Z</time>
      </trkpt>
      <trkpt lat="49.69862" lon="4.77386">
        <ele>150.4</ele>
        <time>2020-06-25T10:35:34Z</time>
      </trkpt>
      <trkpt lat="49.69857" lon="4.77394">
        <ele>150.5</ele>
        <time>2020-06-25T10:35:35Z</time>
      </trkpt>
      <trkpt lat="49.69853" lon="4.774">
        <ele>150.5</ele>
        <time>2020-06-25T10:35:36Z</time>
      </trkpt>
      <trkpt lat="49.69849" lon="4.77408">
        <ele>150.5</ele>
        <time>2020-06-25T10:35:37Z</time>
      </trkpt>
      <trkpt lat="49.69847" lon="4.77418">
        <ele>150.5</ele>
        <time>2020-06-25T10:35:38Z</time>
      </trkpt>
      <trkpt lat="49.69846" lon="4.77429">
        <ele>150.6</ele>
        <time>2020-06-25T10:35:39Z</time>
      </trkpt>
      <trkpt lat="49.69845" lon="4.77439">
        <ele>150.6</ele>
        <time>2020-06-25T10:35:40Z</time>
      </trkpt>
      <trkpt lat="49.69844" lon="4.7745">
        <ele>150.6</ele>
        <time>2020-06-25T10:35:41Z</time>
      </trkpt>
      <trkpt lat="49.69843" lon="4.7746">
        <ele>150.7</ele>
        <time>2020-06-25T10:35:42Z</time>
      </trkpt>
      <trkpt lat="49.69844" lon="4.77473">
        <ele>150.8</ele>
        <time>2020-06-25T10:35:43Z</time>
      </trkpt>
      <trkpt lat="49.69843" lon="4.77481">
        <ele>150.8</ele>
        <time>2020-06-25T10:35:44Z</time>
      </trkpt>
      <trkpt lat="49.69842" lon="4.77487">
        <ele>150.9</ele>
        <time>2020-06-25T10:35:45Z</time>
      </trkpt>
      <trkpt lat="49.69841" lon="4.77495">
        <ele>150.9</ele>
        <time>2020-06-25T10:35:46Z</time>
      </trkpt>
      <trkpt lat="49.6984" lon="4.77506">
        <ele>151</ele>
        <time>2020-06-25T10:35:47Z</time>
      </trkpt>
      <trkpt lat="49.69841" lon="4.77515">
        <ele>151.1</ele>
        <time>2020-06-25T10:35:48Z</time>
      </trkpt>
      <trkpt lat="49.6984" lon="4.77524">
        <ele>151.2</ele>
        <time>2020-06-25T10:35:49Z</time>
      </trkpt>
      <trkpt lat="49.69839" lon="4.77532">
        <ele>151.2</ele>
        <time>2020-06-25T10:35:50Z</time>
      </trkpt>
      <trkpt lat="49.69838" lon="4.7754">
        <ele>151.3</ele>
        <time>2020-06-25T10:35:51Z</time>
      </trkpt>
      <trkpt lat="49.69837" lon="4.77548">
        <ele>151.4</ele>
        <time>2020-06-25T10:35:52Z</time>
      </trkpt>
      <trkpt lat="49.69835" lon="4.77557">
        <ele>151.5</ele>
        <time>2020-06-25T10:35:53Z</time>
      </trkpt>
      <trkpt lat="49.69835" lon="4.77565">
        <ele>151.6</ele>
        <time>2020-06-25T10:35:54Z</time>
      </trkpt>
      <trkpt lat="49.69834" lon="4.77572">
        <ele>151.7</ele>
        <time>2020-06-25T10:35:55Z</time>
      </trkpt>
      <trkpt lat="49.69833" lon="4.77579">
        <ele>151.8</ele>
        <time>2020-06-25T10:35:56Z</time>
      </trkpt>
      <trkpt lat="49.69833" lon="4.77586">
        <ele>151.9</ele>
        <time>2020-06-25T10:35:57Z</time>
      </trkpt>
      <trkpt lat="49.69832" lon="4.77595">
        <ele>152.1</ele>
        <time>2020-06-25T10:35:58Z</time>
      </trkpt>
      <trkpt lat="49.69832" lon="4.77603">
        <ele>152.2</ele>
        <time>2020-06-25T10:35:59Z</time>
      </trkpt>
      <trkpt lat="49.69831" lon="4.77611">
        <ele>152.3</ele>
        <time>2020-06-25T10:36:00Z</time>
      </trkpt>
      <trkpt lat="49.6983" lon="4.77619">
        <ele>152.5</ele>
        <time>2020-06-25T10:36:01Z</time>
      </trkpt>
      <trkpt lat="49.69828" lon="4.77629">
        <ele>152.6</ele>
        <time>2020-06-25T10:36:02Z</time>
      </trkpt>
      <trkpt lat="49.69827" lon="4.77636">
        <ele>152.7</ele>
        <time>2020-06-25T10:36:03Z</time>
      </trkpt>
      <trkpt lat="49.69825" lon="4.77643">
        <ele>152.8</ele>
        <time>2020-06-25T10:36:04Z</time>
      </trkpt>
      <trkpt lat="49.69824" lon="4.77652">
        <ele>152.9</ele>
        <time>2020-06-25T10:36:05Z</time>
      </trkpt>
      <trkpt lat="49.69822" lon="4.7766">
        <ele>153.1</ele>
        <time>2020-06-25T10:36:06Z</time>
      </trkpt>
      <trkpt lat="49.69822" lon="4.7767">
        <ele>153.3</ele>
        <time>2020-06-25T10:36:07Z</time>
      </trkpt>
      <trkpt lat="49.69821" lon="4.77677">
        <ele>153.4</ele>
        <time>2020-06-25T10:36:08Z</time>
      </trkpt>
      <trkpt lat="49.69819" lon="4.77684">
        <ele>153.6</ele>
        <time>2020-06-25T10:36:09Z</time>
      </trkpt>
      <trkpt lat="49.69819" lon="4.77692">
        <ele>153.8</ele>
        <time>2020-06-25T10:36:10Z</time>
      </trkpt>
      <trkpt lat="49.69818" lon="4.77701">
        <ele>154</ele>
        <time>2020-06-25T10:36:11Z</time>
      </trkpt>
      <trkpt lat="49.69817" lon="4.77708">
        <ele>154.1</ele>
        <time>2020-06-25T10:36:12Z</time>
      </trkpt>
      <trkpt lat="49.69816" lon="4.77715">
        <ele>154.3</ele>
        <time>2020-06-25T10:36:13Z</time>
      </trkpt>
      <trkpt lat="49.69816" lon="4.77722">
        <ele>154.4</ele>
        <time>2020-06-25T10:36:14Z</time>
      </trkpt>
      <trkpt lat="49.69815" lon="4.77729">
        <ele>154.6</ele>
        <time>2020-06-25T10:36:15Z</time>
      </trkpt>
      <trkpt lat="49.69813" lon="4.77737">
        <ele>154.8</ele>
        <time>2020-06-25T10:36:16Z</time>
      </trkpt>
      <trkpt lat="49.69812" lon="4.77746">
        <ele>155</ele>
        <time>2020-06-25T10:36:17Z</time>
      </trkpt>
      <trkpt lat="49.69812" lon="4.77752">
        <ele>155.1</ele>
        <time>2020-06-25T10:36:18Z</time>
      </trkpt>
      <trkpt lat="49.6981" lon="4.77761">
        <ele>155.4</ele>
        <time>2020-06-25T10:36:19Z</time>
      </trkpt>
      <trkpt lat="49.69809" lon="4.77767">
        <ele>155.5</ele>
        <time>2020-06-25T10:36:20Z</time>
      </trkpt>
      <trkpt lat="49.69809" lon="4.77776">
        <ele>155.8</ele>
        <time>2020-06-25T10:36:21Z</time>
      </trkpt>
      <trkpt lat="49.69807" lon="4.77783">
        <ele>156</ele>
        <time>2020-06-25T10:36:22Z</time>
      </trkpt>
      <trkpt lat="49.69806" lon="4.77791">
        <ele>156.3</ele>
        <time>2020-06-25T10:36:23Z</time>
      </trkpt>
      <trkpt lat="49.69804" lon="4.77797">
        <ele>156.5</ele>
        <time>2020-06-25T10:36:24Z</time>
      </trkpt>
      <trkpt lat="49.69802" lon="4.77804">
        <ele>156.7</ele>
        <time>2020-06-25T10:36:25Z</time>
      </trkpt>
      <trkpt lat="49.69802" lon="4.77807">
        <ele>156.8</ele>
        <time>2020-06-25T10:36:26Z</time>
      </trkpt>
      <trkpt lat="49.698" lon="4.77812">
        <ele>157</ele>
        <time>2020-06-25T10:36:27Z</time>
      </trkpt>
      <trkpt lat="49.69798" lon="4.77818">
        <ele>157.2</ele>
        <time>2020-06-25T10:36:28Z</time>
      </trkpt>
      <trkpt lat="49.69797" lon="4.77821">
        <ele>157.3</ele>
        <time>2020-06-25T10:36:29Z</time>
      </trkpt>
      <trkpt lat="49.69795" lon="4.77827">
        <ele>157.5</ele>
        <time>2020-06-25T10:36:30Z</time>
      </trkpt>
      <trkpt lat="49.69793" lon="4.77831">
        <ele>157.7</ele>
        <time>2020-06-25T10:36:31Z</time>
      </trkpt>
      <trkpt lat="49.69789" lon="4.77835">
        <ele>157.8</ele>
        <time>2020-06-25T10:36:32Z</time>
      </trkpt>
      <trkpt lat="49.69787" lon="4.77839">
        <ele>158</ele>
        <time>2020-06-25T10:36:33Z</time>
      </trkpt>
      <trkpt lat="49.69786" lon="4.77845">
        <ele>158.1</ele>
        <time>2020-06-25T10:36:34Z</time>
      </trkpt>
      <trkpt lat="49.69784" lon="4.7785">
        <ele>158.2</ele>
        <time>2020-06-25T10:36:35Z</time>
      </trkpt>
      <trkpt lat="49.69782" lon="4.77854">
        <ele>158.4</ele>
        <time>2020-06-25T10:36:36Z</time>
      </trkpt>
      <trkpt lat="49.69779" lon="4.77859">
        <ele>158.5</ele>
        <time>2020-06-25T10:36:37Z</time>
      </trkpt>
      <trkpt lat="49.69776" lon="4.77861">
        <ele>158.6</ele>
        <time>2020-06-25T10:36:38Z</time>
      </trkpt>
      <trkpt lat="49.69773" lon="4.77865">
        <ele>158.7</ele>
        <time>2020-06-25T10:36:39Z</time>
      </trkpt>
      <trkpt lat="49.6977" lon="4.7787">
        <ele>158.8</ele>
        <time>2020-06-25T10:36:40Z</time>
      </trkpt>
      <trkpt lat="49.69767" lon="4.77875">
        <ele>158.9</ele>
        <time>2020-06-25T10:36:41Z</time>
      </trkpt>
      <trkpt lat="49.69764" lon="4.7788">
        <ele>158.9</ele>
        <time>2020-06-25T10:36:42Z</time>
      </trkpt>
      <trkpt lat="49.6976" lon="4.77885">
        <ele>159</ele>
        <time>2020-06-25T10:36:43Z</time>
      </trkpt>
      <trkpt lat="49.69757" lon="4.77889">
        <ele>159</ele>
        <time>2020-06-25T10:36:44Z</time>
      </trkpt>
      <trkpt lat="49.69755" lon="4.77893">
        <ele>159.1</ele>
        <time>2020-06-25T10:36:45Z</time>
      </trkpt>
      <trkpt lat="49.69752" lon="4.77898">
        <ele>159.1</ele>
        <time>2020-06-25T10:36:46Z</time>
      </trkpt>
      <trkpt lat="49.69749" lon="4.77902">
        <ele>159.2</ele>
        <time>2020-06-25T10:36:47Z</time>
      </trkpt>
      <trkpt lat="49.69747" lon="4.77907">
        <ele>159.2</ele>
        <time>2020-06-25T10:36:48Z</time>
      </trkpt>
      <trkpt lat="49.69744" lon="4.77912">
        <ele>159.3</ele>
        <time>2020-06-25T10:36:49Z</time>
      </trkpt>
      <trkpt lat="49.6974" lon="4.77917">
        <ele>159.4</ele>
        <time>2020-06-25T10:36:50Z</time>
      </trkpt>
      <trkpt lat="49.69736" lon="4.77922">
        <ele>159.5</ele>
        <time>2020-06-25T10:36:51Z</time>
      </trkpt>
      <trkpt lat="49.69732" lon="4.77927">
        <ele>159.6</ele>
        <time>2020-06-25T10:36:52Z</time>
      </trkpt>
      <trkpt lat="49.69729" lon="4.77932">
        <ele>159.6</ele>
        <time>2020-06-25T10:36:53Z</time>
      </trkpt>
      <trkpt lat="49.69727" lon="4.77937">
        <ele>159.7</ele>
        <time>2020-06-25T10:36:54Z</time>
      </trkpt>
      <trkpt lat="49.69725" lon="4.77943">
        <ele>159.7</ele>
        <time>2020-06-25T10:36:55Z</time>
      </trkpt>
      <trkpt lat="49.69722" lon="4.77948">
        <ele>159.8</ele>
        <time>2020-06-25T10:36:56Z</time>
      </trkpt>
      <trkpt lat="49.6972" lon="4.77953">
        <ele>159.8</ele>
        <time>2020-06-25T10:36:57Z</time>
      </trkpt>
      <trkpt lat="49.69718" lon="4.77958">
        <ele>159.8</ele>
        <time>2020-06-25T10:36:58Z</time>
      </trkpt>
      <trkpt lat="49.69715" lon="4.77962">
        <ele>159.8</ele>
        <time>2020-06-25T10:36:59Z</time>
      </trkpt>
      <trkpt lat="49.69712" lon="4.77965">
        <ele>159.8</ele>
        <time>2020-06-25T10:37:00Z</time>
      </trkpt>
      <trkpt lat="49.69712" lon="4.77967">
        <ele>159.8</ele>
        <time>2020-06-25T10:37:01Z</time>
      </trkpt>
      <trkpt lat="49.6971" lon="4.77968">
        <ele>159.8</ele>
        <time>2020-06-25T10:37:02Z</time>
      </trkpt>
      <trkpt lat="49.69708" lon="4.77971">
        <ele>159.8</ele>
        <time>2020-06-25T10:37:03Z</time>
      </trkpt>
      <trkpt lat="49.69707" lon="4.77971">
        <ele>159.7</ele>
        <time>2020-06-25T10:37:04Z</time>
      </trkpt>
      <trkpt lat="49.69707" lon="4.77972">
        <ele>159.7</ele>
        <time>2020-06-25T10:37:05Z</time>
      </trkpt>
      <trkpt lat="49.69708" lon="4.77975">
        <ele>159.7</ele>
        <time>2020-06-25T10:37:06Z</time>
      </trkpt>
      <trkpt lat="49.69711" lon="4.77975">
        <ele>159.7</ele>
        <time>2020-06-25T10:37:07Z</time>
      </trkpt>
      <trkpt lat="49.69714" lon="4.77973">
        <ele>159.7</ele>
        <time>2020-06-25T10:37:08Z</time>
      </trkpt>
      <trkpt lat="49.69716" lon="4.77971">
        <ele>159.7</ele>
        <time>2020-06-25T10:37:09Z</time>
      </trkpt>
      <trkpt lat="49.69718" lon="4.7797">
        <ele>159.8</ele>
        <time>2020-06-25T10:37:10Z</time>
      </trkpt>
      <trkpt lat="49.69721" lon="4.77967">
        <ele>159.8</ele>
        <time>2020-06-25T10:37:11Z</time>
      </trkpt>
      <trkpt lat="49.69722" lon="4.77966">
        <ele>159.8</ele>
        <time>2020-06-25T10:37:12Z</time>
      </trkpt>
      <trkpt lat="49.69724" lon="4.77963">
        <ele>159.8</ele>
        <time>2020-06-25T10:37:13Z</time>
      </trkpt>
      <trkpt lat="49.69726" lon="4.7796">
        <ele>159.8</ele>
        <time>2020-06-25T10:37:14Z</time>
      </trkpt>
      <trkpt lat="49.69727" lon="4.77959">
        <ele>159.8</ele>
        <time>2020-06-25T10:37:15Z</time>
      </trkpt>
      <trkpt lat="49.69728" lon="4.77959">
        <ele>159.8</ele>
        <time>2020-06-25T10:37:16Z</time>
      </trkpt>
      <trkpt lat="49.6973" lon="4.77956">
        <ele>159.8</ele>
        <time>2020-06-25T10:37:17Z</time>
      </trkpt>
      <trkpt lat="49.69732" lon="4.77951">
        <ele>159.8</ele>
        <time>2020-06-25T10:37:18Z</time>
      </trkpt>
      <trkpt lat="49.69733" lon="4.7795">
        <ele>159.8</ele>
        <time>2020-06-25T10:37:19Z</time>
      </trkpt>
      <trkpt lat="49.69735" lon="4.77946">
        <ele>159.7</ele>
        <time>2020-06-25T10:37:20Z</time>
      </trkpt>
      <trkpt lat="49.69736" lon="4.77944">
        <ele>159.7</ele>
        <time>2020-06-25T10:37:21Z</time>
      </trkpt>
      <trkpt lat="49.69738" lon="4.77941">
        <ele>159.7</ele>
        <time>2020-06-25T10:37:22Z</time>
      </trkpt>
      <trkpt lat="49.69739" lon="4.77939">
        <ele>159.7</ele>
        <time>2020-06-25T10:37:23Z</time>
      </trkpt>
      <trkpt lat="49.69741" lon="4.77936">
        <ele>159.6</ele>
        <time>2020-06-25T10:37:24Z</time>
      </trkpt>
      <trkpt lat="49.69742" lon="4.77933">
        <ele>159.6</ele>
        <time>2020-06-25T10:37:25Z</time>
      </trkpt>
      <trkpt lat="49.69742" lon="4.77932">
        <ele>159.6</ele>
        <time>2020-06-25T10:37:26Z</time>
      </trkpt>
      <trkpt lat="49.69742" lon="4.77931">
        <ele>159.6</ele>
        <time>2020-06-25T10:37:27Z</time>
      </trkpt>
      <trkpt lat="49.69742" lon="4.77932">
        <ele>159.6</ele>
        <time>2020-06-25T10:37:28Z</time>
      </trkpt>
      <trkpt lat="49.69742" lon="4.77932">
        <ele>159.6</ele>
        <time>2020-06-25T10:37:29Z</time>
      </trkpt>
      <trkpt lat="49.69742" lon="4.77932">
        <ele>159.6</ele>
        <time>2020-06-25T10:37:30Z</time>
      </trkpt>
      <trkpt lat="49.69742" lon="4.77932">
        <ele>159.6</ele>
        <time>2020-06-25T10:37:31Z</time>
      </trkpt>
      <trkpt lat="49.69742" lon="4.77932">
        <ele>159.6</ele>
        <time>2020-06-25T10:37:32Z</time>
      </trkpt>
      <trkpt lat="49.69742" lon="4.77932">
        <ele>159.6</ele>
        <time>2020-06-25T10:37:33Z</time>
      </trkpt>
      <trkpt lat="49.69742" lon="4.77931">
        <ele>159.6</ele>
        <time>2020-06-25T10:37:34Z</time>
      </trkpt>
      <trkpt lat="49.69741" lon="4.77932">
        <ele>159.5</ele>
        <time>2020-06-25T10:37:35Z</time>
      </trkpt>
      <trkpt lat="49.69741" lon="4.77931">
        <ele>159.5</ele>
        <time>2020-06-25T10:37:36Z</time>
      </trkpt>
      <trkpt lat="49.69741" lon="4.77931">
        <ele>159.5</ele>
        <time>2020-06-25T10:37:37Z</time>
      </trkpt>
      <trkpt lat="49.69746" lon="4.77925">
        <ele>159.4</ele>
        <time>2020-06-25T10:37:57Z</time>
      </trkpt>
      <trkpt lat="49.69749" lon="4.77922">
        <ele>159.4</ele>
        <time>2020-06-25T10:37:58Z</time>
      </trkpt>
      <trkpt lat="49.69752" lon="4.77918">
        <ele>159.3</ele>
        <time>2020-06-25T10:37:59Z</time>
      </trkpt>
      <trkpt lat="49.69753" lon="4.77917">
        <ele>159.3</ele>
        <time>2020-06-25T10:38:00Z</time>
      </trkpt>
      <trkpt lat="49.69756" lon="4.77914">
        <ele>159.2</ele>
        <time>2020-06-25T10:38:01Z</time>
      </trkpt>
      <trkpt lat="49.69758" lon="4.77912">
        <ele>159.2</ele>
        <time>2020-06-25T10:38:02Z</time>
      </trkpt>
      <trkpt lat="49.69761" lon="4.77908">
        <ele>159.1</ele>
        <time>2020-06-25T10:38:03Z</time>
      </trkpt>
      <trkpt lat="49.69765" lon="4.77903">
        <ele>159.1</ele>
        <time>2020-06-25T10:38:04Z</time>
      </trkpt>
      <trkpt lat="49.69767" lon="4.77899">
        <ele>159</ele>
        <time>2020-06-25T10:38:05Z</time>
      </trkpt>
      <trkpt lat="49.69769" lon="4.77895">
        <ele>159</ele>
        <time>2020-06-25T10:38:06Z</time>
      </trkpt>
      <trkpt lat="49.69772" lon="4.7789">
        <ele>158.9</ele>
        <time>2020-06-25T10:38:07Z</time>
      </trkpt>
      <trkpt lat="49.69776" lon="4.77886">
        <ele>158.9</ele>
        <time>2020-06-25T10:38:08Z</time>
      </trkpt>
      <trkpt lat="49.69779" lon="4.77882">
        <ele>158.8</ele>
        <time>2020-06-25T10:38:09Z</time>
      </trkpt>
      <trkpt lat="49.69781" lon="4.77878">
        <ele>158.7</ele>
        <time>2020-06-25T10:38:10Z</time>
      </trkpt>
      <trkpt lat="49.69785" lon="4.77873">
        <ele>158.6</ele>
        <time>2020-06-25T10:38:11Z</time>
      </trkpt>
      <trkpt lat="49.69788" lon="4.7787">
        <ele>158.5</ele>
        <time>2020-06-25T10:38:12Z</time>
      </trkpt>
      <trkpt lat="49.69792" lon="4.77866">
        <ele>158.4</ele>
        <time>2020-06-25T10:38:13Z</time>
      </trkpt>
      <trkpt lat="49.69796" lon="4.77861">
        <ele>158.2</ele>
        <time>2020-06-25T10:38:14Z</time>
      </trkpt>
      <trkpt lat="49.69799" lon="4.77855">
        <ele>158</ele>
        <time>2020-06-25T10:38:15Z</time>
      </trkpt>
      <trkpt lat="49.698" lon="4.77851">
        <ele>156.6</ele>
        <time>2020-06-25T10:38:16Z</time>
      </trkpt>
      <trkpt lat="49.69802" lon="4.77847">
        <ele>156.6</ele>
        <time>2020-06-25T10:38:17Z</time>
      </trkpt>
      <trkpt lat="49.69804" lon="4.77847">
        <ele>156.6</ele>
        <time>2020-06-25T10:38:18Z</time>
      </trkpt>
      <trkpt lat="49.69805" lon="4.77848">
        <ele>156.6</ele>
        <time>2020-06-25T10:38:19Z</time>
      </trkpt>
      <trkpt lat="49.69806" lon="4.77849">
        <ele>156.6</ele>
        <time>2020-06-25T10:38:20Z</time>
      </trkpt>
      <trkpt lat="49.69808" lon="4.77854">
        <ele>156.6</ele>
        <time>2020-06-25T10:38:21Z</time>
      </trkpt>
      <trkpt lat="49.69809" lon="4.77859">
        <ele>156.6</ele>
        <time>2020-06-25T10:38:22Z</time>
      </trkpt>
      <trkpt lat="49.69809" lon="4.77865">
        <ele>154.4</ele>
        <time>2020-06-25T10:38:23Z</time>
      </trkpt>
      <trkpt lat="49.69809" lon="4.77867">
        <ele>154.2</ele>
        <time>2020-06-25T10:38:24Z</time>
      </trkpt>
      <trkpt lat="49.6981" lon="4.77873">
        <ele>153.7</ele>
        <time>2020-06-25T10:38:25Z</time>
      </trkpt>
      <trkpt lat="49.69809" lon="4.77881">
        <ele>153.1</ele>
        <time>2020-06-25T10:38:26Z</time>
      </trkpt>
      <trkpt lat="49.69809" lon="4.77889">
        <ele>152.3</ele>
        <time>2020-06-25T10:38:27Z</time>
      </trkpt>
      <trkpt lat="49.69809" lon="4.77898">
        <ele>151.7</ele>
        <time>2020-06-25T10:38:28Z</time>
      </trkpt>
      <trkpt lat="49.69809" lon="4.77908">
        <ele>150.9</ele>
        <time>2020-06-25T10:38:29Z</time>
      </trkpt>
      <trkpt lat="49.6981" lon="4.77918">
        <ele>150.3</ele>
        <time>2020-06-25T10:38:30Z</time>
      </trkpt>
      <trkpt lat="49.6981" lon="4.77928">
        <ele>149.7</ele>
        <time>2020-06-25T10:38:31Z</time>
      </trkpt>
      <trkpt lat="49.69812" lon="4.77937">
        <ele>149.2</ele>
        <time>2020-06-25T10:38:32Z</time>
      </trkpt>
      <trkpt lat="49.69812" lon="4.77944">
        <ele>148.9</ele>
        <time>2020-06-25T10:38:33Z</time>
      </trkpt>
      <trkpt lat="49.69816" lon="4.77951">
        <ele>148.4</ele>
        <time>2020-06-25T10:38:34Z</time>
      </trkpt>
      <trkpt lat="49.69819" lon="4.77954">
        <ele>148.1</ele>
        <time>2020-06-25T10:38:35Z</time>
      </trkpt>
      <trkpt lat="49.69822" lon="4.7796">
        <ele>147.8</ele>
        <time>2020-06-25T10:38:36Z</time>
      </trkpt>
      <trkpt lat="49.69825" lon="4.77965">
        <ele>147.5</ele>
        <time>2020-06-25T10:38:37Z</time>
      </trkpt>
      <trkpt lat="49.69828" lon="4.77969">
        <ele>147.3</ele>
        <time>2020-06-25T10:38:38Z</time>
      </trkpt>
      <trkpt lat="49.6983" lon="4.77971">
        <ele>147.2</ele>
        <time>2020-06-25T10:38:39Z</time>
      </trkpt>
      <trkpt lat="49.69835" lon="4.77982">
        <ele>146.8</ele>
        <time>2020-06-25T10:38:40Z</time>
      </trkpt>
      <trkpt lat="49.69837" lon="4.77986">
        <ele>146.7</ele>
        <time>2020-06-25T10:38:41Z</time>
      </trkpt>
      <trkpt lat="49.69837" lon="4.77991">
        <ele>146.6</ele>
        <time>2020-06-25T10:38:42Z</time>
      </trkpt>
      <trkpt lat="49.69834" lon="4.77996">
        <ele>146.6</ele>
        <time>2020-06-25T10:38:43Z</time>
      </trkpt>
      <trkpt lat="49.69831" lon="4.78002">
        <ele>146.6</ele>
        <time>2020-06-25T10:38:44Z</time>
      </trkpt>
      <trkpt lat="49.69828" lon="4.78008">
        <ele>146.6</ele>
        <time>2020-06-25T10:38:45Z</time>
      </trkpt>
      <trkpt lat="49.69826" lon="4.78015">
        <ele>146.6</ele>
        <time>2020-06-25T10:38:46Z</time>
      </trkpt>
      <trkpt lat="49.69824" lon="4.78022">
        <ele>146.6</ele>
        <time>2020-06-25T10:38:47Z</time>
      </trkpt>
      <trkpt lat="49.69819" lon="4.78031">
        <ele>146.6</ele>
        <time>2020-06-25T10:38:48Z</time>
      </trkpt>
      <trkpt lat="49.69818" lon="4.78039">
        <ele>146.6</ele>
        <time>2020-06-25T10:38:49Z</time>
      </trkpt>
      <trkpt lat="49.69816" lon="4.78045">
        <ele>146.6</ele>
        <time>2020-06-25T10:38:50Z</time>
      </trkpt>
      <trkpt lat="49.69813" lon="4.78051">
        <ele>146.6</ele>
        <time>2020-06-25T10:38:51Z</time>
      </trkpt>
      <trkpt lat="49.69811" lon="4.78057">
        <ele>146.6</ele>
        <time>2020-06-25T10:38:52Z</time>
      </trkpt>
      <trkpt lat="49.6981" lon="4.78062">
        <ele>146.6</ele>
        <time>2020-06-25T10:38:53Z</time>
      </trkpt>
      <trkpt lat="49.69808" lon="4.78069">
        <ele>146.6</ele>
        <time>2020-06-25T10:38:54Z</time>
      </trkpt>
      <trkpt lat="49.69807" lon="4.78073">
        <ele>146.6</ele>
        <time>2020-06-25T10:38:55Z</time>
      </trkpt>
      <trkpt lat="49.69805" lon="4.78079">
        <ele>146.6</ele>
        <time>2020-06-25T10:38:56Z</time>
      </trkpt>
      <trkpt lat="49.69803" lon="4.78084">
        <ele>146.6</ele>
        <time>2020-06-25T10:38:57Z</time>
      </trkpt>
      <trkpt lat="49.69799" lon="4.78093">
        <ele>146.6</ele>
        <time>2020-06-25T10:38:58Z</time>
      </trkpt>
      <trkpt lat="49.69797" lon="4.78099">
        <ele>146.6</ele>
        <time>2020-06-25T10:38:59Z</time>
      </trkpt>
      <trkpt lat="49.69795" lon="4.78105">
        <ele>146.6</ele>
        <time>2020-06-25T10:39:00Z</time>
      </trkpt>
      <trkpt lat="49.69793" lon="4.7811">
        <ele>146.6</ele>
        <time>2020-06-25T10:39:01Z</time>
      </trkpt>
      <trkpt lat="49.69791" lon="4.78116">
        <ele>146.6</ele>
        <time>2020-06-25T10:39:02Z</time>
      </trkpt>
      <trkpt lat="49.69788" lon="4.78124">
        <ele>146.6</ele>
        <time>2020-06-25T10:39:03Z</time>
      </trkpt>
      <trkpt lat="49.69786" lon="4.78131">
        <ele>146.6</ele>
        <time>2020-06-25T10:39:04Z</time>
      </trkpt>
      <trkpt lat="49.69784" lon="4.78137">
        <ele>146.6</ele>
        <time>2020-06-25T10:39:05Z</time>
      </trkpt>
      <trkpt lat="49.69782" lon="4.78145">
        <ele>146.6</ele>
        <time>2020-06-25T10:39:06Z</time>
      </trkpt>
      <trkpt lat="49.6978" lon="4.78154">
        <ele>146.6</ele>
        <time>2020-06-25T10:39:07Z</time>
      </trkpt>
      <trkpt lat="49.69776" lon="4.78161">
        <ele>146.7</ele>
        <time>2020-06-25T10:39:08Z</time>
      </trkpt>
      <trkpt lat="49.69773" lon="4.78168">
        <ele>146.7</ele>
        <time>2020-06-25T10:39:09Z</time>
      </trkpt>
      <trkpt lat="49.6977" lon="4.78177">
        <ele>146.7</ele>
        <time>2020-06-25T10:39:10Z</time>
      </trkpt>
      <trkpt lat="49.69768" lon="4.78184">
        <ele>146.7</ele>
        <time>2020-06-25T10:39:11Z</time>
      </trkpt>
      <trkpt lat="49.69765" lon="4.78192">
        <ele>146.8</ele>
        <time>2020-06-25T10:39:12Z</time>
      </trkpt>
      <trkpt lat="49.69763" lon="4.78198">
        <ele>146.8</ele>
        <time>2020-06-25T10:39:13Z</time>
      </trkpt>
      <trkpt lat="49.69761" lon="4.78204">
        <ele>146.8</ele>
        <time>2020-06-25T10:39:14Z</time>
      </trkpt>
      <trkpt lat="49.69759" lon="4.78211">
        <ele>146.8</ele>
        <time>2020-06-25T10:39:15Z</time>
      </trkpt>
      <trkpt lat="49.69757" lon="4.78219">
        <ele>146.8</ele>
        <time>2020-06-25T10:39:16Z</time>
      </trkpt>
      <trkpt lat="49.69753" lon="4.78231">
        <ele>146.8</ele>
        <time>2020-06-25T10:39:17Z</time>
      </trkpt>
      <trkpt lat="49.6975" lon="4.78237">
        <ele>146.8</ele>
        <time>2020-06-25T10:39:18Z</time>
      </trkpt>
      <trkpt lat="49.69747" lon="4.78245">
        <ele>146.7</ele>
        <time>2020-06-25T10:39:19Z</time>
      </trkpt>
      <trkpt lat="49.69744" lon="4.78254">
        <ele>146.7</ele>
        <time>2020-06-25T10:39:20Z</time>
      </trkpt>
      <trkpt lat="49.69743" lon="4.78261">
        <ele>146.7</ele>
        <time>2020-06-25T10:39:21Z</time>
      </trkpt>
      <trkpt lat="49.6974" lon="4.78268">
        <ele>146.7</ele>
        <time>2020-06-25T10:39:22Z</time>
      </trkpt>
      <trkpt lat="49.69738" lon="4.78276">
        <ele>146.7</ele>
        <time>2020-06-25T10:39:23Z</time>
      </trkpt>
      <trkpt lat="49.69736" lon="4.78282">
        <ele>146.7</ele>
        <time>2020-06-25T10:39:24Z</time>
      </trkpt>
      <trkpt lat="49.69733" lon="4.78291">
        <ele>146.8</ele>
        <time>2020-06-25T10:39:25Z</time>
      </trkpt>
      <trkpt lat="49.6973" lon="4.783">
        <ele>146.8</ele>
        <time>2020-06-25T10:39:26Z</time>
      </trkpt>
      <trkpt lat="49.69728" lon="4.78307">
        <ele>146.8</ele>
        <time>2020-06-25T10:39:27Z</time>
      </trkpt>
      <trkpt lat="49.69725" lon="4.78314">
        <ele>146.8</ele>
        <time>2020-06-25T10:39:28Z</time>
      </trkpt>
      <trkpt lat="49.69722" lon="4.7832">
        <ele>146.9</ele>
        <time>2020-06-25T10:39:29Z</time>
      </trkpt>
      <trkpt lat="49.69719" lon="4.78329">
        <ele>146.9</ele>
        <time>2020-06-25T10:39:30Z</time>
      </trkpt>
      <trkpt lat="49.69716" lon="4.78339">
        <ele>146.9</ele>
        <time>2020-06-25T10:39:31Z</time>
      </trkpt>
      <trkpt lat="49.69713" lon="4.78348">
        <ele>146.9</ele>
        <time>2020-06-25T10:39:32Z</time>
      </trkpt>
      <trkpt lat="49.69711" lon="4.78356">
        <ele>146.9</ele>
        <time>2020-06-25T10:39:33Z</time>
      </trkpt>
      <trkpt lat="49.6971" lon="4.78364">
        <ele>146.9</ele>
        <time>2020-06-25T10:39:34Z</time>
      </trkpt>
      <trkpt lat="49.69708" lon="4.78371">
        <ele>146.9</ele>
        <time>2020-06-25T10:39:35Z</time>
      </trkpt>
      <trkpt lat="49.69705" lon="4.78379">
        <ele>146.8</ele>
        <time>2020-06-25T10:39:36Z</time>
      </trkpt>
      <trkpt lat="49.69705" lon="4.78386">
        <ele>146.8</ele>
        <time>2020-06-25T10:39:37Z</time>
      </trkpt>
      <trkpt lat="49.69703" lon="4.78392">
        <ele>146.8</ele>
        <time>2020-06-25T10:39:38Z</time>
      </trkpt>
      <trkpt lat="49.69702" lon="4.784">
        <ele>146.8</ele>
        <time>2020-06-25T10:39:39Z</time>
      </trkpt>
      <trkpt lat="49.697" lon="4.78407">
        <ele>146.8</ele>
        <time>2020-06-25T10:39:40Z</time>
      </trkpt>
      <trkpt lat="49.69698" lon="4.78414">
        <ele>146.9</ele>
        <time>2020-06-25T10:39:41Z</time>
      </trkpt>
      <trkpt lat="49.69695" lon="4.78422">
        <ele>146.9</ele>
        <time>2020-06-25T10:39:42Z</time>
      </trkpt>
      <trkpt lat="49.69692" lon="4.7843">
        <ele>146.9</ele>
        <time>2020-06-25T10:39:43Z</time>
      </trkpt>
      <trkpt lat="49.6969" lon="4.7844">
        <ele>146.9</ele>
        <time>2020-06-25T10:39:44Z</time>
      </trkpt>
      <trkpt lat="49.69689" lon="4.78445">
        <ele>146.9</ele>
        <time>2020-06-25T10:39:45Z</time>
      </trkpt>
      <trkpt lat="49.69687" lon="4.78453">
        <ele>146.9</ele>
        <time>2020-06-25T10:39:46Z</time>
      </trkpt>
      <trkpt lat="49.69684" lon="4.78461">
        <ele>146.9</ele>
        <time>2020-06-25T10:39:47Z</time>
      </trkpt>
      <trkpt lat="49.69681" lon="4.78469">
        <ele>146.9</ele>
        <time>2020-06-25T10:39:48Z</time>
      </trkpt>
      <trkpt lat="49.69679" lon="4.78477">
        <ele>146.9</ele>
        <time>2020-06-25T10:39:49Z</time>
      </trkpt>
      <trkpt lat="49.69677" lon="4.78484">
        <ele>146.9</ele>
        <time>2020-06-25T10:39:50Z</time>
      </trkpt>
      <trkpt lat="49.69673" lon="4.78495">
        <ele>146.9</ele>
        <time>2020-06-25T10:39:51Z</time>
      </trkpt>
      <trkpt lat="49.69671" lon="4.78503">
        <ele>146.9</ele>
        <time>2020-06-25T10:39:52Z</time>
      </trkpt>
      <trkpt lat="49.6967" lon="4.78509">
        <ele>146.9</ele>
        <time>2020-06-25T10:39:53Z</time>
      </trkpt>
      <trkpt lat="49.69667" lon="4.78518">
        <ele>147</ele>
        <time>2020-06-25T10:39:54Z</time>
      </trkpt>
      <trkpt lat="49.69665" lon="4.78527">
        <ele>147</ele>
        <time>2020-06-25T10:39:55Z</time>
      </trkpt>
      <trkpt lat="49.69663" lon="4.78536">
        <ele>147</ele>
        <time>2020-06-25T10:39:56Z</time>
      </trkpt>
      <trkpt lat="49.69661" lon="4.78544">
        <ele>147</ele>
        <time>2020-06-25T10:39:57Z</time>
      </trkpt>
      <trkpt lat="49.69659" lon="4.78553">
        <ele>147</ele>
        <time>2020-06-25T10:39:58Z</time>
      </trkpt>
      <trkpt lat="49.69656" lon="4.78562">
        <ele>147</ele>
        <time>2020-06-25T10:39:59Z</time>
      </trkpt>
      <trkpt lat="49.69653" lon="4.7857">
        <ele>147</ele>
        <time>2020-06-25T10:40:00Z</time>
      </trkpt>
      <trkpt lat="49.6965" lon="4.78577">
        <ele>147</ele>
        <time>2020-06-25T10:40:01Z</time>
      </trkpt>
      <trkpt lat="49.69648" lon="4.78585">
        <ele>147</ele>
        <time>2020-06-25T10:40:02Z</time>
      </trkpt>
      <trkpt lat="49.69645" lon="4.78592">
        <ele>147</ele>
        <time>2020-06-25T10:40:03Z</time>
      </trkpt>
      <trkpt lat="49.69643" lon="4.78599">
        <ele>147</ele>
        <time>2020-06-25T10:40:04Z</time>
      </trkpt>
      <trkpt lat="49.6964" lon="4.78606">
        <ele>147</ele>
        <time>2020-06-25T10:40:05Z</time>
      </trkpt>
      <trkpt lat="49.69638" lon="4.78613">
        <ele>146.9</ele>
        <time>2020-06-25T10:40:06Z</time>
      </trkpt>
      <trkpt lat="49.69636" lon="4.78619">
        <ele>146.9</ele>
        <time>2020-06-25T10:40:07Z</time>
      </trkpt>
      <trkpt lat="49.69635" lon="4.78626">
        <ele>146.9</ele>
        <time>2020-06-25T10:40:08Z</time>
      </trkpt>
      <trkpt lat="49.69633" lon="4.78635">
        <ele>146.9</ele>
        <time>2020-06-25T10:40:09Z</time>
      </trkpt>
      <trkpt lat="49.69632" lon="4.78644">
        <ele>146.8</ele>
        <time>2020-06-25T10:40:10Z</time>
      </trkpt>
      <trkpt lat="49.6963" lon="4.78656">
        <ele>146.7</ele>
        <time>2020-06-25T10:40:11Z</time>
      </trkpt>
      <trkpt lat="49.69629" lon="4.78667">
        <ele>146.7</ele>
        <time>2020-06-25T10:40:12Z</time>
      </trkpt>
      <trkpt lat="49.69628" lon="4.78677">
        <ele>146.6</ele>
        <time>2020-06-25T10:40:13Z</time>
      </trkpt>
      <trkpt lat="49.69627" lon="4.78686">
        <ele>146.6</ele>
        <time>2020-06-25T10:40:14Z</time>
      </trkpt>
      <trkpt lat="49.69626" lon="4.78694">
        <ele>146.6</ele>
        <time>2020-06-25T10:40:15Z</time>
      </trkpt>
      <trkpt lat="49.69625" lon="4.787">
        <ele>146.5</ele>
        <time>2020-06-25T10:40:16Z</time>
      </trkpt>
      <trkpt lat="49.69623" lon="4.78707">
        <ele>146.5</ele>
        <time>2020-06-25T10:40:17Z</time>
      </trkpt>
      <trkpt lat="49.69622" lon="4.78715">
        <ele>146.5</ele>
        <time>2020-06-25T10:40:18Z</time>
      </trkpt>
      <trkpt lat="49.69621" lon="4.78725">
        <ele>146.5</ele>
        <time>2020-06-25T10:40:19Z</time>
      </trkpt>
      <trkpt lat="49.6962" lon="4.78734">
        <ele>146.6</ele>
        <time>2020-06-25T10:40:20Z</time>
      </trkpt>
      <trkpt lat="49.69619" lon="4.78742">
        <ele>146.6</ele>
        <time>2020-06-25T10:40:21Z</time>
      </trkpt>
      <trkpt lat="49.69618" lon="4.7875">
        <ele>146.6</ele>
        <time>2020-06-25T10:40:22Z</time>
      </trkpt>
      <trkpt lat="49.69617" lon="4.7876">
        <ele>146.7</ele>
        <time>2020-06-25T10:40:23Z</time>
      </trkpt>
      <trkpt lat="49.69615" lon="4.78767">
        <ele>146.7</ele>
        <time>2020-06-25T10:40:24Z</time>
      </trkpt>
      <trkpt lat="49.69614" lon="4.78775">
        <ele>146.7</ele>
        <time>2020-06-25T10:40:25Z</time>
      </trkpt>
      <trkpt lat="49.69612" lon="4.78783">
        <ele>146.7</ele>
        <time>2020-06-25T10:40:26Z</time>
      </trkpt>
      <trkpt lat="49.6961" lon="4.78792">
        <ele>146.7</ele>
        <time>2020-06-25T10:40:27Z</time>
      </trkpt>
      <trkpt lat="49.69608" lon="4.78799">
        <ele>146.7</ele>
        <time>2020-06-25T10:40:28Z</time>
      </trkpt>
      <trkpt lat="49.69607" lon="4.78807">
        <ele>146.7</ele>
        <time>2020-06-25T10:40:29Z</time>
      </trkpt>
      <trkpt lat="49.69606" lon="4.78815">
        <ele>146.7</ele>
        <time>2020-06-25T10:40:30Z</time>
      </trkpt>
      <trkpt lat="49.69605" lon="4.78822">
        <ele>146.7</ele>
        <time>2020-06-25T10:40:31Z</time>
      </trkpt>
      <trkpt lat="49.69603" lon="4.7883">
        <ele>146.7</ele>
        <time>2020-06-25T10:40:32Z</time>
      </trkpt>
      <trkpt lat="49.69602" lon="4.78837">
        <ele>146.7</ele>
        <time>2020-06-25T10:40:33Z</time>
      </trkpt>
      <trkpt lat="49.69601" lon="4.78846">
        <ele>146.7</ele>
        <time>2020-06-25T10:40:34Z</time>
      </trkpt>
      <trkpt lat="49.696" lon="4.78854">
        <ele>146.8</ele>
        <time>2020-06-25T10:40:35Z</time>
      </trkpt>
      <trkpt lat="49.69599" lon="4.78861">
        <ele>146.8</ele>
        <time>2020-06-25T10:40:36Z</time>
      </trkpt>
      <trkpt lat="49.69598" lon="4.78867">
        <ele>146.8</ele>
        <time>2020-06-25T10:40:37Z</time>
      </trkpt>
      <trkpt lat="49.69597" lon="4.78875">
        <ele>146.9</ele>
        <time>2020-06-25T10:40:38Z</time>
      </trkpt>
      <trkpt lat="49.69596" lon="4.78883">
        <ele>146.9</ele>
        <time>2020-06-25T10:40:39Z</time>
      </trkpt>
      <trkpt lat="49.69594" lon="4.78891">
        <ele>146.9</ele>
        <time>2020-06-25T10:40:40Z</time>
      </trkpt>
      <trkpt lat="49.69593" lon="4.789">
        <ele>146.9</ele>
        <time>2020-06-25T10:40:41Z</time>
      </trkpt>
      <trkpt lat="49.69591" lon="4.78909">
        <ele>146.9</ele>
        <time>2020-06-25T10:40:42Z</time>
      </trkpt>
      <trkpt lat="49.6959" lon="4.78917">
        <ele>146.9</ele>
        <time>2020-06-25T10:40:43Z</time>
      </trkpt>
      <trkpt lat="49.69589" lon="4.78926">
        <ele>146.9</ele>
        <time>2020-06-25T10:40:44Z</time>
      </trkpt>
      <trkpt lat="49.69587" lon="4.78934">
        <ele>146.9</ele>
        <time>2020-06-25T10:40:45Z</time>
      </trkpt>
      <trkpt lat="49.69585" lon="4.78943">
        <ele>146.9</ele>
        <time>2020-06-25T10:40:46Z</time>
      </trkpt>
      <trkpt lat="49.69584" lon="4.7895">
        <ele>146.9</ele>
        <time>2020-06-25T10:40:47Z</time>
      </trkpt>
      <trkpt lat="49.69583" lon="4.78958">
        <ele>146.9</ele>
        <time>2020-06-25T10:40:48Z</time>
      </trkpt>
      <trkpt lat="49.69582" lon="4.78966">
        <ele>146.9</ele>
        <time>2020-06-25T10:40:49Z</time>
      </trkpt>
      <trkpt lat="49.69581" lon="4.78974">
        <ele>146.9</ele>
        <time>2020-06-25T10:40:50Z</time>
      </trkpt>
      <trkpt lat="49.6958" lon="4.78982">
        <ele>146.9</ele>
        <time>2020-06-25T10:40:51Z</time>
      </trkpt>
      <trkpt lat="49.69579" lon="4.7899">
        <ele>146.9</ele>
        <time>2020-06-25T10:40:52Z</time>
      </trkpt>
      <trkpt lat="49.69577" lon="4.78999">
        <ele>146.9</ele>
        <time>2020-06-25T10:40:53Z</time>
      </trkpt>
      <trkpt lat="49.69576" lon="4.79008">
        <ele>146.9</ele>
        <time>2020-06-25T10:40:54Z</time>
      </trkpt>
      <trkpt lat="49.69575" lon="4.79016">
        <ele>147</ele>
        <time>2020-06-25T10:40:55Z</time>
      </trkpt>
      <trkpt lat="49.69574" lon="4.79024">
        <ele>147</ele>
        <time>2020-06-25T10:40:56Z</time>
      </trkpt>
      <trkpt lat="49.69573" lon="4.79032">
        <ele>147</ele>
        <time>2020-06-25T10:40:57Z</time>
      </trkpt>
      <trkpt lat="49.69572" lon="4.79039">
        <ele>147</ele>
        <time>2020-06-25T10:40:58Z</time>
      </trkpt>
      <trkpt lat="49.69571" lon="4.79046">
        <ele>147</ele>
        <time>2020-06-25T10:40:59Z</time>
      </trkpt>
      <trkpt lat="49.69569" lon="4.79054">
        <ele>146.9</ele>
        <time>2020-06-25T10:41:00Z</time>
      </trkpt>
      <trkpt lat="49.69569" lon="4.79061">
        <ele>146.9</ele>
        <time>2020-06-25T10:41:01Z</time>
      </trkpt>
      <trkpt lat="49.69568" lon="4.79069">
        <ele>146.9</ele>
        <time>2020-06-25T10:41:02Z</time>
      </trkpt>
      <trkpt lat="49.69567" lon="4.79077">
        <ele>146.9</ele>
        <time>2020-06-25T10:41:03Z</time>
      </trkpt>
      <trkpt lat="49.69567" lon="4.79084">
        <ele>146.9</ele>
        <time>2020-06-25T10:41:04Z</time>
      </trkpt>
      <trkpt lat="49.69566" lon="4.79092">
        <ele>146.9</ele>
        <time>2020-06-25T10:41:05Z</time>
      </trkpt>
      <trkpt lat="49.69566" lon="4.79099">
        <ele>146.8</ele>
        <time>2020-06-25T10:41:06Z</time>
      </trkpt>
      <trkpt lat="49.69566" lon="4.79107">
        <ele>146.8</ele>
        <time>2020-06-25T10:41:07Z</time>
      </trkpt>
      <trkpt lat="49.69566" lon="4.79115">
        <ele>146.8</ele>
        <time>2020-06-25T10:41:08Z</time>
      </trkpt>
      <trkpt lat="49.69566" lon="4.79123">
        <ele>146.7</ele>
        <time>2020-06-25T10:41:09Z</time>
      </trkpt>
      <trkpt lat="49.69565" lon="4.79131">
        <ele>146.7</ele>
        <time>2020-06-25T10:41:10Z</time>
      </trkpt>
      <trkpt lat="49.69565" lon="4.7914">
        <ele>146.7</ele>
        <time>2020-06-25T10:41:11Z</time>
      </trkpt>
      <trkpt lat="49.69564" lon="4.79148">
        <ele>146.6</ele>
        <time>2020-06-25T10:41:12Z</time>
      </trkpt>
      <trkpt lat="49.69564" lon="4.79157">
        <ele>146.6</ele>
        <time>2020-06-25T10:41:13Z</time>
      </trkpt>
      <trkpt lat="49.69564" lon="4.79164">
        <ele>146.6</ele>
        <time>2020-06-25T10:41:14Z</time>
      </trkpt>
      <trkpt lat="49.69564" lon="4.79171">
        <ele>146.6</ele>
        <time>2020-06-25T10:41:15Z</time>
      </trkpt>
      <trkpt lat="49.69563" lon="4.79177">
        <ele>146.6</ele>
        <time>2020-06-25T10:41:16Z</time>
      </trkpt>
      <trkpt lat="49.69562" lon="4.79185">
        <ele>146.6</ele>
        <time>2020-06-25T10:41:17Z</time>
      </trkpt>
      <trkpt lat="49.69562" lon="4.79192">
        <ele>146.6</ele>
        <time>2020-06-25T10:41:18Z</time>
      </trkpt>
      <trkpt lat="49.69561" lon="4.79199">
        <ele>146.6</ele>
        <time>2020-06-25T10:41:19Z</time>
      </trkpt>
      <trkpt lat="49.69561" lon="4.79208">
        <ele>146.6</ele>
        <time>2020-06-25T10:41:20Z</time>
      </trkpt>
      <trkpt lat="49.6956" lon="4.79217">
        <ele>146.6</ele>
        <time>2020-06-25T10:41:21Z</time>
      </trkpt>
      <trkpt lat="49.69559" lon="4.79225">
        <ele>146.6</ele>
        <time>2020-06-25T10:41:22Z</time>
      </trkpt>
      <trkpt lat="49.69557" lon="4.79234">
        <ele>146.6</ele>
        <time>2020-06-25T10:41:23Z</time>
      </trkpt>
      <trkpt lat="49.69556" lon="4.79243">
        <ele>146.6</ele>
        <time>2020-06-25T10:41:24Z</time>
      </trkpt>
      <trkpt lat="49.69554" lon="4.7925">
        <ele>146.6</ele>
        <time>2020-06-25T10:41:25Z</time>
      </trkpt>
      <trkpt lat="49.69552" lon="4.79257">
        <ele>146.6</ele>
        <time>2020-06-25T10:41:26Z</time>
      </trkpt>
      <trkpt lat="49.69551" lon="4.79266">
        <ele>146.6</ele>
        <time>2020-06-25T10:41:27Z</time>
      </trkpt>
      <trkpt lat="49.69549" lon="4.79275">
        <ele>146.7</ele>
        <time>2020-06-25T10:41:28Z</time>
      </trkpt>
      <trkpt lat="49.69547" lon="4.79283">
        <ele>146.7</ele>
        <time>2020-06-25T10:41:29Z</time>
      </trkpt>
      <trkpt lat="49.69547" lon="4.79289">
        <ele>146.7</ele>
        <time>2020-06-25T10:41:30Z</time>
      </trkpt>
      <trkpt lat="49.69547" lon="4.79294">
        <ele>146.7</ele>
        <time>2020-06-25T10:41:31Z</time>
      </trkpt>
      <trkpt lat="49.69546" lon="4.79303">
        <ele>146.7</ele>
        <time>2020-06-25T10:41:32Z</time>
      </trkpt>
      <trkpt lat="49.69546" lon="4.79312">
        <ele>146.7</ele>
        <time>2020-06-25T10:41:33Z</time>
      </trkpt>
      <trkpt lat="49.69546" lon="4.79321">
        <ele>146.7</ele>
        <time>2020-06-25T10:41:34Z</time>
      </trkpt>
      <trkpt lat="49.69545" lon="4.79328">
        <ele>146.7</ele>
        <time>2020-06-25T10:41:35Z</time>
      </trkpt>
      <trkpt lat="49.69544" lon="4.79336">
        <ele>146.8</ele>
        <time>2020-06-25T10:41:36Z</time>
      </trkpt>
      <trkpt lat="49.69544" lon="4.79343">
        <ele>146.8</ele>
        <time>2020-06-25T10:41:37Z</time>
      </trkpt>
      <trkpt lat="49.69543" lon="4.79351">
        <ele>146.9</ele>
        <time>2020-06-25T10:41:38Z</time>
      </trkpt>
      <trkpt lat="49.69542" lon="4.7936">
        <ele>146.9</ele>
        <time>2020-06-25T10:41:39Z</time>
      </trkpt>
      <trkpt lat="49.69542" lon="4.79369">
        <ele>146.9</ele>
        <time>2020-06-25T10:41:40Z</time>
      </trkpt>
      <trkpt lat="49.69542" lon="4.79375">
        <ele>146.9</ele>
        <time>2020-06-25T10:41:41Z</time>
      </trkpt>
      <trkpt lat="49.69542" lon="4.79382">
        <ele>146.9</ele>
        <time>2020-06-25T10:41:42Z</time>
      </trkpt>
      <trkpt lat="49.69542" lon="4.79388">
        <ele>146.9</ele>
        <time>2020-06-25T10:41:43Z</time>
      </trkpt>
      <trkpt lat="49.69541" lon="4.79394">
        <ele>146.9</ele>
        <time>2020-06-25T10:41:44Z</time>
      </trkpt>
      <trkpt lat="49.69541" lon="4.794">
        <ele>146.9</ele>
        <time>2020-06-25T10:41:45Z</time>
      </trkpt>
      <trkpt lat="49.69539" lon="4.79408">
        <ele>146.9</ele>
        <time>2020-06-25T10:41:46Z</time>
      </trkpt>
      <trkpt lat="49.69539" lon="4.79416">
        <ele>146.9</ele>
        <time>2020-06-25T10:41:47Z</time>
      </trkpt>
      <trkpt lat="49.69538" lon="4.79424">
        <ele>146.9</ele>
        <time>2020-06-25T10:41:48Z</time>
      </trkpt>
      <trkpt lat="49.69538" lon="4.79431">
        <ele>146.9</ele>
        <time>2020-06-25T10:41:49Z</time>
      </trkpt>
      <trkpt lat="49.69538" lon="4.79439">
        <ele>146.9</ele>
        <time>2020-06-25T10:41:50Z</time>
      </trkpt>
      <trkpt lat="49.69537" lon="4.79445">
        <ele>146.9</ele>
        <time>2020-06-25T10:41:51Z</time>
      </trkpt>
      <trkpt lat="49.69536" lon="4.79454">
        <ele>146.9</ele>
        <time>2020-06-25T10:41:52Z</time>
      </trkpt>
      <trkpt lat="49.69535" lon="4.79463">
        <ele>146.8</ele>
        <time>2020-06-25T10:41:53Z</time>
      </trkpt>
      <trkpt lat="49.69534" lon="4.79471">
        <ele>146.8</ele>
        <time>2020-06-25T10:41:54Z</time>
      </trkpt>
      <trkpt lat="49.69534" lon="4.79479">
        <ele>146.8</ele>
        <time>2020-06-25T10:41:55Z</time>
      </trkpt>
      <trkpt lat="49.69532" lon="4.79487">
        <ele>146.8</ele>
        <time>2020-06-25T10:41:56Z</time>
      </trkpt>
      <trkpt lat="49.69531" lon="4.79496">
        <ele>146.8</ele>
        <time>2020-06-25T10:41:57Z</time>
      </trkpt>
      <trkpt lat="49.6953" lon="4.79506">
        <ele>146.7</ele>
        <time>2020-06-25T10:41:58Z</time>
      </trkpt>
      <trkpt lat="49.69529" lon="4.79516">
        <ele>146.7</ele>
        <time>2020-06-25T10:41:59Z</time>
      </trkpt>
      <trkpt lat="49.69528" lon="4.79526">
        <ele>146.7</ele>
        <time>2020-06-25T10:42:00Z</time>
      </trkpt>
      <trkpt lat="49.69526" lon="4.79534">
        <ele>146.7</ele>
        <time>2020-06-25T10:42:01Z</time>
      </trkpt>
      <trkpt lat="49.69525" lon="4.79542">
        <ele>146.7</ele>
        <time>2020-06-25T10:42:02Z</time>
      </trkpt>
      <trkpt lat="49.69524" lon="4.79549">
        <ele>146.7</ele>
        <time>2020-06-25T10:42:03Z</time>
      </trkpt>
      <trkpt lat="49.69524" lon="4.79557">
        <ele>146.7</ele>
        <time>2020-06-25T10:42:04Z</time>
      </trkpt>
      <trkpt lat="49.69523" lon="4.79565">
        <ele>146.6</ele>
        <time>2020-06-25T10:42:05Z</time>
      </trkpt>
      <trkpt lat="49.69521" lon="4.79573">
        <ele>146.6</ele>
        <time>2020-06-25T10:42:06Z</time>
      </trkpt>
      <trkpt lat="49.6952" lon="4.79581">
        <ele>146.6</ele>
        <time>2020-06-25T10:42:07Z</time>
      </trkpt>
      <trkpt lat="49.69518" lon="4.79589">
        <ele>146.6</ele>
        <time>2020-06-25T10:42:08Z</time>
      </trkpt>
      <trkpt lat="49.69517" lon="4.79598">
        <ele>146.6</ele>
        <time>2020-06-25T10:42:09Z</time>
      </trkpt>
      <trkpt lat="49.69516" lon="4.79607">
        <ele>146.6</ele>
        <time>2020-06-25T10:42:10Z</time>
      </trkpt>
      <trkpt lat="49.69516" lon="4.79615">
        <ele>146.6</ele>
        <time>2020-06-25T10:42:11Z</time>
      </trkpt>
      <trkpt lat="49.69515" lon="4.79622">
        <ele>146.6</ele>
        <time>2020-06-25T10:42:12Z</time>
      </trkpt>
      <trkpt lat="49.69514" lon="4.7963">
        <ele>146.6</ele>
        <time>2020-06-25T10:42:13Z</time>
      </trkpt>
      <trkpt lat="49.69513" lon="4.79638">
        <ele>146.6</ele>
        <time>2020-06-25T10:42:14Z</time>
      </trkpt>
      <trkpt lat="49.69512" lon="4.79647">
        <ele>146.6</ele>
        <time>2020-06-25T10:42:15Z</time>
      </trkpt>
      <trkpt lat="49.69511" lon="4.79655">
        <ele>146.6</ele>
        <time>2020-06-25T10:42:16Z</time>
      </trkpt>
      <trkpt lat="49.6951" lon="4.79663">
        <ele>146.6</ele>
        <time>2020-06-25T10:42:17Z</time>
      </trkpt>
      <trkpt lat="49.6951" lon="4.79671">
        <ele>146.6</ele>
        <time>2020-06-25T10:42:18Z</time>
      </trkpt>
      <trkpt lat="49.69509" lon="4.79679">
        <ele>146.5</ele>
        <time>2020-06-25T10:42:19Z</time>
      </trkpt>
      <trkpt lat="49.69509" lon="4.79686">
        <ele>146.5</ele>
        <time>2020-06-25T10:42:20Z</time>
      </trkpt>
      <trkpt lat="49.69509" lon="4.79695">
        <ele>146.5</ele>
        <time>2020-06-25T10:42:21Z</time>
      </trkpt>
      <trkpt lat="49.69508" lon="4.79703">
        <ele>146.5</ele>
        <time>2020-06-25T10:42:22Z</time>
      </trkpt>
      <trkpt lat="49.69507" lon="4.79712">
        <ele>146.5</ele>
        <time>2020-06-25T10:42:23Z</time>
      </trkpt>
      <trkpt lat="49.69506" lon="4.7972">
        <ele>146.5</ele>
        <time>2020-06-25T10:42:24Z</time>
      </trkpt>
      <trkpt lat="49.69507" lon="4.79728">
        <ele>146.5</ele>
        <time>2020-06-25T10:42:25Z</time>
      </trkpt>
      <trkpt lat="49.69506" lon="4.79736">
        <ele>146.5</ele>
        <time>2020-06-25T10:42:26Z</time>
      </trkpt>
      <trkpt lat="49.69507" lon="4.79744">
        <ele>146.5</ele>
        <time>2020-06-25T10:42:27Z</time>
      </trkpt>
      <trkpt lat="49.69506" lon="4.79753">
        <ele>146.5</ele>
        <time>2020-06-25T10:42:28Z</time>
      </trkpt>
      <trkpt lat="49.69506" lon="4.79761">
        <ele>146.5</ele>
        <time>2020-06-25T10:42:29Z</time>
      </trkpt>
      <trkpt lat="49.69506" lon="4.79768">
        <ele>146.5</ele>
        <time>2020-06-25T10:42:30Z</time>
      </trkpt>
      <trkpt lat="49.69505" lon="4.79776">
        <ele>146.5</ele>
        <time>2020-06-25T10:42:31Z</time>
      </trkpt>
      <trkpt lat="49.69505" lon="4.79783">
        <ele>146.5</ele>
        <time>2020-06-25T10:42:32Z</time>
      </trkpt>
      <trkpt lat="49.69504" lon="4.79789">
        <ele>146.5</ele>
        <time>2020-06-25T10:42:33Z</time>
      </trkpt>
      <trkpt lat="49.69504" lon="4.79796">
        <ele>146.5</ele>
        <time>2020-06-25T10:42:34Z</time>
      </trkpt>
      <trkpt lat="49.69504" lon="4.79804">
        <ele>146.5</ele>
        <time>2020-06-25T10:42:35Z</time>
      </trkpt>
      <trkpt lat="49.69505" lon="4.79811">
        <ele>146.4</ele>
        <time>2020-06-25T10:42:36Z</time>
      </trkpt>
      <trkpt lat="49.69505" lon="4.79819">
        <ele>146.4</ele>
        <time>2020-06-25T10:42:37Z</time>
      </trkpt>
      <trkpt lat="49.69505" lon="4.79827">
        <ele>146.4</ele>
        <time>2020-06-25T10:42:38Z</time>
      </trkpt>
      <trkpt lat="49.69506" lon="4.79834">
        <ele>146.4</ele>
        <time>2020-06-25T10:42:39Z</time>
      </trkpt>
      <trkpt lat="49.69506" lon="4.7984">
        <ele>146.3</ele>
        <time>2020-06-25T10:42:40Z</time>
      </trkpt>
      <trkpt lat="49.69506" lon="4.79847">
        <ele>146.3</ele>
        <time>2020-06-25T10:42:41Z</time>
      </trkpt>
      <trkpt lat="49.69506" lon="4.79856">
        <ele>146.3</ele>
        <time>2020-06-25T10:42:42Z</time>
      </trkpt>
      <trkpt lat="49.69505" lon="4.79864">
        <ele>146.3</ele>
        <time>2020-06-25T10:42:43Z</time>
      </trkpt>
      <trkpt lat="49.69505" lon="4.79872">
        <ele>146.3</ele>
        <time>2020-06-25T10:42:44Z</time>
      </trkpt>
      <trkpt lat="49.69504" lon="4.7988">
        <ele>146.3</ele>
        <time>2020-06-25T10:42:45Z</time>
      </trkpt>
      <trkpt lat="49.69505" lon="4.79888">
        <ele>146.3</ele>
        <time>2020-06-25T10:42:46Z</time>
      </trkpt>
      <trkpt lat="49.69504" lon="4.79897">
        <ele>146.3</ele>
        <time>2020-06-25T10:42:47Z</time>
      </trkpt>
      <trkpt lat="49.69503" lon="4.79907">
        <ele>146.3</ele>
        <time>2020-06-25T10:42:48Z</time>
      </trkpt>
      <trkpt lat="49.69503" lon="4.79914">
        <ele>146.3</ele>
        <time>2020-06-25T10:42:49Z</time>
      </trkpt>
      <trkpt lat="49.69502" lon="4.79922">
        <ele>146.3</ele>
        <time>2020-06-25T10:42:50Z</time>
      </trkpt>
      <trkpt lat="49.69502" lon="4.79929">
        <ele>146.3</ele>
        <time>2020-06-25T10:42:51Z</time>
      </trkpt>
      <trkpt lat="49.69502" lon="4.79937">
        <ele>146.3</ele>
        <time>2020-06-25T10:42:52Z</time>
      </trkpt>
      <trkpt lat="49.69502" lon="4.79944">
        <ele>146.3</ele>
        <time>2020-06-25T10:42:53Z</time>
      </trkpt>
      <trkpt lat="49.69501" lon="4.79952">
        <ele>146.3</ele>
        <time>2020-06-25T10:42:54Z</time>
      </trkpt>
      <trkpt lat="49.69499" lon="4.79961">
        <ele>146.3</ele>
        <time>2020-06-25T10:42:55Z</time>
      </trkpt>
      <trkpt lat="49.69498" lon="4.79969">
        <ele>146.4</ele>
        <time>2020-06-25T10:42:56Z</time>
      </trkpt>
      <trkpt lat="49.69496" lon="4.79977">
        <ele>146.4</ele>
        <time>2020-06-25T10:42:57Z</time>
      </trkpt>
      <trkpt lat="49.69495" lon="4.79986">
        <ele>146.4</ele>
        <time>2020-06-25T10:42:58Z</time>
      </trkpt>
      <trkpt lat="49.69494" lon="4.79994">
        <ele>146.4</ele>
        <time>2020-06-25T10:42:59Z</time>
      </trkpt>
      <trkpt lat="49.69494" lon="4.80002">
        <ele>146.4</ele>
        <time>2020-06-25T10:43:00Z</time>
      </trkpt>
      <trkpt lat="49.69493" lon="4.80011">
        <ele>146.4</ele>
        <time>2020-06-25T10:43:01Z</time>
      </trkpt>
      <trkpt lat="49.69493" lon="4.80019">
        <ele>146.4</ele>
        <time>2020-06-25T10:43:02Z</time>
      </trkpt>
      <trkpt lat="49.69493" lon="4.80028">
        <ele>146.4</ele>
        <time>2020-06-25T10:43:03Z</time>
      </trkpt>
      <trkpt lat="49.69492" lon="4.80036">
        <ele>146.4</ele>
        <time>2020-06-25T10:43:04Z</time>
      </trkpt>
      <trkpt lat="49.69493" lon="4.80045">
        <ele>146.4</ele>
        <time>2020-06-25T10:43:05Z</time>
      </trkpt>
      <trkpt lat="49.69493" lon="4.80052">
        <ele>146.4</ele>
        <time>2020-06-25T10:43:06Z</time>
      </trkpt>
      <trkpt lat="49.69493" lon="4.80061">
        <ele>146.4</ele>
        <time>2020-06-25T10:43:07Z</time>
      </trkpt>
      <trkpt lat="49.69493" lon="4.80068">
        <ele>146.4</ele>
        <time>2020-06-25T10:43:08Z</time>
      </trkpt>
      <trkpt lat="49.69493" lon="4.80074">
        <ele>146.4</ele>
        <time>2020-06-25T10:43:09Z</time>
      </trkpt>
      <trkpt lat="49.69493" lon="4.80082">
        <ele>146.4</ele>
        <time>2020-06-25T10:43:10Z</time>
      </trkpt>
      <trkpt lat="49.69492" lon="4.80089">
        <ele>146.4</ele>
        <time>2020-06-25T10:43:11Z</time>
      </trkpt>
      <trkpt lat="49.69493" lon="4.80095">
        <ele>146.4</ele>
        <time>2020-06-25T10:43:12Z</time>
      </trkpt>
      <trkpt lat="49.69493" lon="4.80103">
        <ele>146.5</ele>
        <time>2020-06-25T10:43:13Z</time>
      </trkpt>
      <trkpt lat="49.69493" lon="4.80111">
        <ele>146.5</ele>
        <time>2020-06-25T10:43:14Z</time>
      </trkpt>
      <trkpt lat="49.69493" lon="4.8012">
        <ele>146.5</ele>
        <time>2020-06-25T10:43:15Z</time>
      </trkpt>
      <trkpt lat="49.69493" lon="4.80128">
        <ele>146.5</ele>
        <time>2020-06-25T10:43:16Z</time>
      </trkpt>
      <trkpt lat="49.69493" lon="4.80134">
        <ele>146.5</ele>
        <time>2020-06-25T10:43:17Z</time>
      </trkpt>
      <trkpt lat="49.69493" lon="4.8014">
        <ele>146.5</ele>
        <time>2020-06-25T10:43:18Z</time>
      </trkpt>
      <trkpt lat="49.69494" lon="4.80147">
        <ele>146.5</ele>
        <time>2020-06-25T10:43:19Z</time>
      </trkpt>
      <trkpt lat="49.69494" lon="4.80155">
        <ele>146.5</ele>
        <time>2020-06-25T10:43:20Z</time>
      </trkpt>
      <trkpt lat="49.69494" lon="4.80161">
        <ele>146.6</ele>
        <time>2020-06-25T10:43:21Z</time>
      </trkpt>
      <trkpt lat="49.69494" lon="4.80168">
        <ele>146.6</ele>
        <time>2020-06-25T10:43:22Z</time>
      </trkpt>
      <trkpt lat="49.69495" lon="4.80176">
        <ele>146.6</ele>
        <time>2020-06-25T10:43:23Z</time>
      </trkpt>
      <trkpt lat="49.69496" lon="4.80183">
        <ele>146.6</ele>
        <time>2020-06-25T10:43:24Z</time>
      </trkpt>
      <trkpt lat="49.69497" lon="4.8019">
        <ele>146.6</ele>
        <time>2020-06-25T10:43:25Z</time>
      </trkpt>
      <trkpt lat="49.69497" lon="4.80195">
        <ele>146.7</ele>
        <time>2020-06-25T10:43:26Z</time>
      </trkpt>
      <trkpt lat="49.69497" lon="4.80202">
        <ele>146.7</ele>
        <time>2020-06-25T10:43:27Z</time>
      </trkpt>
      <trkpt lat="49.69497" lon="4.80209">
        <ele>146.7</ele>
        <time>2020-06-25T10:43:28Z</time>
      </trkpt>
      <trkpt lat="49.69497" lon="4.80216">
        <ele>146.7</ele>
        <time>2020-06-25T10:43:29Z</time>
      </trkpt>
      <trkpt lat="49.69497" lon="4.80223">
        <ele>146.7</ele>
        <time>2020-06-25T10:43:30Z</time>
      </trkpt>
      <trkpt lat="49.69497" lon="4.80229">
        <ele>146.7</ele>
        <time>2020-06-25T10:43:31Z</time>
      </trkpt>
      <trkpt lat="49.69496" lon="4.80236">
        <ele>146.7</ele>
        <time>2020-06-25T10:43:32Z</time>
      </trkpt>
      <trkpt lat="49.69495" lon="4.80243">
        <ele>146.7</ele>
        <time>2020-06-25T10:43:33Z</time>
      </trkpt>
      <trkpt lat="49.69495" lon="4.80251">
        <ele>146.7</ele>
        <time>2020-06-25T10:43:34Z</time>
      </trkpt>
      <trkpt lat="49.69495" lon="4.80259">
        <ele>146.7</ele>
        <time>2020-06-25T10:43:35Z</time>
      </trkpt>
      <trkpt lat="49.69495" lon="4.80266">
        <ele>146.7</ele>
        <time>2020-06-25T10:43:36Z</time>
      </trkpt>
      <trkpt lat="49.69494" lon="4.80272">
        <ele>146.7</ele>
        <time>2020-06-25T10:43:37Z</time>
      </trkpt>
      <trkpt lat="49.69494" lon="4.80279">
        <ele>146.6</ele>
        <time>2020-06-25T10:43:38Z</time>
      </trkpt>
      <trkpt lat="49.69494" lon="4.80285">
        <ele>146.6</ele>
        <time>2020-06-25T10:43:39Z</time>
      </trkpt>
      <trkpt lat="49.69495" lon="4.80291">
        <ele>146.6</ele>
        <time>2020-06-25T10:43:40Z</time>
      </trkpt>
      <trkpt lat="49.69496" lon="4.80297">
        <ele>146.6</ele>
        <time>2020-06-25T10:43:41Z</time>
      </trkpt>
      <trkpt lat="49.69496" lon="4.80302">
        <ele>146.6</ele>
        <time>2020-06-25T10:43:42Z</time>
      </trkpt>
      <trkpt lat="49.69498" lon="4.8031">
        <ele>146.6</ele>
        <time>2020-06-25T10:43:43Z</time>
      </trkpt>
      <trkpt lat="49.69498" lon="4.80312">
        <ele>146.6</ele>
        <time>2020-06-25T10:43:44Z</time>
      </trkpt>
      <trkpt lat="49.69498" lon="4.80314">
        <ele>146.6</ele>
        <time>2020-06-25T10:43:45Z</time>
      </trkpt>
      <trkpt lat="49.69498" lon="4.80314">
        <ele>146.6</ele>
        <time>2020-06-25T10:43:46Z</time>
      </trkpt>
      <trkpt lat="49.69499" lon="4.80315">
        <ele>146.6</ele>
        <time>2020-06-25T10:43:47Z</time>
      </trkpt>
      <trkpt lat="49.69499" lon="4.80315">
        <ele>146.6</ele>
        <time>2020-06-25T10:43:48Z</time>
      </trkpt>
      <trkpt lat="49.69499" lon="4.80314">
        <ele>146.6</ele>
        <time>2020-06-25T10:43:49Z</time>
      </trkpt>
      <trkpt lat="49.69499" lon="4.80314">
        <ele>146.6</ele>
        <time>2020-06-25T10:43:50Z</time>
      </trkpt>
      <trkpt lat="49.69499" lon="4.80314">
        <ele>146.6</ele>
        <time>2020-06-25T10:43:51Z</time>
      </trkpt>
      <trkpt lat="49.695" lon="4.80315">
        <ele>146.6</ele>
        <time>2020-06-25T10:43:52Z</time>
      </trkpt>
      <trkpt lat="49.695" lon="4.80315">
        <ele>146.6</ele>
        <time>2020-06-25T10:43:53Z</time>
      </trkpt>
      <trkpt lat="49.695" lon="4.80315">
        <ele>146.6</ele>
        <time>2020-06-25T10:43:54Z</time>
      </trkpt>
      <trkpt lat="49.695" lon="4.80316">
        <ele>146.6</ele>
        <time>2020-06-25T10:43:55Z</time>
      </trkpt>
      <trkpt lat="49.695" lon="4.80317">
        <ele>146.6</ele>
        <time>2020-06-25T10:43:56Z</time>
      </trkpt>
      <trkpt lat="49.695" lon="4.80317">
        <ele>146.6</ele>
        <time>2020-06-25T10:43:57Z</time>
      </trkpt>
      <trkpt lat="49.695" lon="4.80318">
        <ele>146.6</ele>
        <time>2020-06-25T10:43:58Z</time>
      </trkpt>
      <trkpt lat="49.695" lon="4.80318">
        <ele>146.6</ele>
        <time>2020-06-25T10:43:59Z</time>
      </trkpt>
      <trkpt lat="49.695" lon="4.80319">
        <ele>146.6</ele>
        <time>2020-06-25T10:44:00Z</time>
      </trkpt>
      <trkpt lat="49.695" lon="4.8032">
        <ele>146.6</ele>
        <time>2020-06-25T10:44:01Z</time>
      </trkpt>
      <trkpt lat="49.695" lon="4.8032">
        <ele>146.6</ele>
        <time>2020-06-25T10:44:02Z</time>
      </trkpt>
      <trkpt lat="49.69501" lon="4.80321">
        <ele>146.6</ele>
        <time>2020-06-25T10:44:03Z</time>
      </trkpt>
      <trkpt lat="49.69501" lon="4.80321">
        <ele>146.6</ele>
        <time>2020-06-25T10:44:04Z</time>
      </trkpt>
      <trkpt lat="49.69501" lon="4.80322">
        <ele>146.6</ele>
        <time>2020-06-25T10:44:05Z</time>
      </trkpt>
      <trkpt lat="49.69501" lon="4.80322">
        <ele>146.6</ele>
        <time>2020-06-25T10:44:06Z</time>
      </trkpt>
      <trkpt lat="49.69501" lon="4.80323">
        <ele>146.6</ele>
        <time>2020-06-25T10:44:07Z</time>
      </trkpt>
      <trkpt lat="49.69501" lon="4.80324">
        <ele>146.6</ele>
        <time>2020-06-25T10:44:08Z</time>
      </trkpt>
      <trkpt lat="49.69501" lon="4.80324">
        <ele>146.6</ele>
        <time>2020-06-25T10:44:09Z</time>
      </trkpt>
      <trkpt lat="49.69501" lon="4.80325">
        <ele>146.6</ele>
        <time>2020-06-25T10:44:10Z</time>
      </trkpt>
      <trkpt lat="49.69501" lon="4.80325">
        <ele>146.6</ele>
        <time>2020-06-25T10:44:11Z</time>
      </trkpt>
      <trkpt lat="49.69501" lon="4.80326">
        <ele>146.6</ele>
        <time>2020-06-25T10:44:12Z</time>
      </trkpt>
      <trkpt lat="49.69501" lon="4.80326">
        <ele>146.6</ele>
        <time>2020-06-25T10:44:13Z</time>
      </trkpt>
      <trkpt lat="49.69501" lon="4.80327">
        <ele>146.6</ele>
        <time>2020-06-25T10:45:03Z</time>
      </trkpt>
      <trkpt lat="49.69501" lon="4.80328">
        <ele>146.6</ele>
        <time>2020-06-25T10:45:04Z</time>
      </trkpt>
      <trkpt lat="49.69502" lon="4.80334">
        <ele>146.6</ele>
        <time>2020-06-25T10:45:05Z</time>
      </trkpt>
      <trkpt lat="49.69503" lon="4.80341">
        <ele>146.6</ele>
        <time>2020-06-25T10:45:06Z</time>
      </trkpt>
      <trkpt lat="49.69504" lon="4.8035">
        <ele>146.6</ele>
        <time>2020-06-25T10:45:07Z</time>
      </trkpt>
      <trkpt lat="49.69505" lon="4.80358">
        <ele>146.5</ele>
        <time>2020-06-25T10:45:08Z</time>
      </trkpt>
      <trkpt lat="49.69506" lon="4.80366">
        <ele>146.5</ele>
        <time>2020-06-25T10:45:09Z</time>
      </trkpt>
      <trkpt lat="49.69507" lon="4.80375">
        <ele>146.5</ele>
        <time>2020-06-25T10:45:10Z</time>
      </trkpt>
      <trkpt lat="49.69509" lon="4.80383">
        <ele>146.5</ele>
        <time>2020-06-25T10:45:11Z</time>
      </trkpt>
      <trkpt lat="49.69511" lon="4.80392">
        <ele>146.4</ele>
        <time>2020-06-25T10:45:12Z</time>
      </trkpt>
      <trkpt lat="49.69512" lon="4.80402">
        <ele>146.4</ele>
        <time>2020-06-25T10:45:13Z</time>
      </trkpt>
      <trkpt lat="49.69514" lon="4.8041">
        <ele>146.4</ele>
        <time>2020-06-25T10:45:14Z</time>
      </trkpt>
      <trkpt lat="49.69516" lon="4.80417">
        <ele>146.4</ele>
        <time>2020-06-25T10:45:15Z</time>
      </trkpt>
      <trkpt lat="49.69517" lon="4.80425">
        <ele>146.4</ele>
        <time>2020-06-25T10:45:16Z</time>
      </trkpt>
      <trkpt lat="49.69518" lon="4.80435">
        <ele>146.4</ele>
        <time>2020-06-25T10:45:17Z</time>
      </trkpt>
      <trkpt lat="49.69521" lon="4.80444">
        <ele>146.4</ele>
        <time>2020-06-25T10:45:18Z</time>
      </trkpt>
      <trkpt lat="49.69522" lon="4.80452">
        <ele>146.4</ele>
        <time>2020-06-25T10:45:19Z</time>
      </trkpt>
      <trkpt lat="49.69524" lon="4.8046">
        <ele>146.4</ele>
        <time>2020-06-25T10:45:20Z</time>
      </trkpt>
      <trkpt lat="49.69525" lon="4.80469">
        <ele>146.4</ele>
        <time>2020-06-25T10:45:21Z</time>
      </trkpt>
      <trkpt lat="49.69527" lon="4.80477">
        <ele>146.4</ele>
        <time>2020-06-25T10:45:22Z</time>
      </trkpt>
      <trkpt lat="49.69529" lon="4.80486">
        <ele>146.4</ele>
        <time>2020-06-25T10:45:23Z</time>
      </trkpt>
      <trkpt lat="49.6953" lon="4.80494">
        <ele>146.5</ele>
        <time>2020-06-25T10:45:24Z</time>
      </trkpt>
      <trkpt lat="49.69532" lon="4.80502">
        <ele>146.5</ele>
        <time>2020-06-25T10:45:25Z</time>
      </trkpt>
      <trkpt lat="49.69534" lon="4.80511">
        <ele>146.6</ele>
        <time>2020-06-25T10:45:26Z</time>
      </trkpt>
      <trkpt lat="49.69535" lon="4.8052">
        <ele>146.6</ele>
        <time>2020-06-25T10:45:27Z</time>
      </trkpt>
      <trkpt lat="49.69536" lon="4.80527">
        <ele>146.6</ele>
        <time>2020-06-25T10:45:28Z</time>
      </trkpt>
      <trkpt lat="49.69537" lon="4.80535">
        <ele>146.6</ele>
        <time>2020-06-25T10:45:29Z</time>
      </trkpt>
      <trkpt lat="49.69538" lon="4.80544">
        <ele>146.6</ele>
        <time>2020-06-25T10:45:30Z</time>
      </trkpt>
      <trkpt lat="49.69539" lon="4.80553">
        <ele>146.6</ele>
        <time>2020-06-25T10:45:31Z</time>
      </trkpt>
      <trkpt lat="49.6954" lon="4.80562">
        <ele>146.6</ele>
        <time>2020-06-25T10:45:32Z</time>
      </trkpt>
      <trkpt lat="49.69541" lon="4.8057">
        <ele>146.6</ele>
        <time>2020-06-25T10:45:33Z</time>
      </trkpt>
      <trkpt lat="49.69542" lon="4.80579">
        <ele>146.6</ele>
        <time>2020-06-25T10:45:34Z</time>
      </trkpt>
      <trkpt lat="49.69543" lon="4.80587">
        <ele>146.6</ele>
        <time>2020-06-25T10:45:35Z</time>
      </trkpt>
      <trkpt lat="49.69544" lon="4.80596">
        <ele>146.6</ele>
        <time>2020-06-25T10:45:36Z</time>
      </trkpt>
      <trkpt lat="49.69546" lon="4.80605">
        <ele>146.6</ele>
        <time>2020-06-25T10:45:37Z</time>
      </trkpt>
      <trkpt lat="49.69547" lon="4.80613">
        <ele>146.6</ele>
        <time>2020-06-25T10:45:38Z</time>
      </trkpt>
      <trkpt lat="49.69548" lon="4.80622">
        <ele>146.6</ele>
        <time>2020-06-25T10:45:39Z</time>
      </trkpt>
      <trkpt lat="49.69549" lon="4.8063">
        <ele>146.6</ele>
        <time>2020-06-25T10:45:40Z</time>
      </trkpt>
      <trkpt lat="49.6955" lon="4.80639">
        <ele>146.5</ele>
        <time>2020-06-25T10:45:41Z</time>
      </trkpt>
      <trkpt lat="49.69552" lon="4.80648">
        <ele>146.5</ele>
        <time>2020-06-25T10:45:42Z</time>
      </trkpt>
      <trkpt lat="49.69553" lon="4.80657">
        <ele>146.5</ele>
        <time>2020-06-25T10:45:43Z</time>
      </trkpt>
      <trkpt lat="49.69554" lon="4.80666">
        <ele>146.5</ele>
        <time>2020-06-25T10:45:44Z</time>
      </trkpt>
      <trkpt lat="49.69556" lon="4.80675">
        <ele>146.5</ele>
        <time>2020-06-25T10:45:45Z</time>
      </trkpt>
      <trkpt lat="49.69557" lon="4.80684">
        <ele>146.5</ele>
        <time>2020-06-25T10:45:46Z</time>
      </trkpt>
      <trkpt lat="49.69559" lon="4.80693">
        <ele>146.5</ele>
        <time>2020-06-25T10:45:47Z</time>
      </trkpt>
      <trkpt lat="49.6956" lon="4.80702">
        <ele>146.5</ele>
        <time>2020-06-25T10:45:48Z</time>
      </trkpt>
      <trkpt lat="49.69561" lon="4.8071">
        <ele>146.5</ele>
        <time>2020-06-25T10:45:49Z</time>
      </trkpt>
      <trkpt lat="49.69561" lon="4.80719">
        <ele>146.5</ele>
        <time>2020-06-25T10:45:50Z</time>
      </trkpt>
      <trkpt lat="49.69562" lon="4.80727">
        <ele>146.5</ele>
        <time>2020-06-25T10:45:51Z</time>
      </trkpt>
      <trkpt lat="49.69562" lon="4.80736">
        <ele>146.5</ele>
        <time>2020-06-25T10:45:52Z</time>
      </trkpt>
      <trkpt lat="49.69563" lon="4.80746">
        <ele>146.5</ele>
        <time>2020-06-25T10:45:53Z</time>
      </trkpt>
      <trkpt lat="49.69564" lon="4.80756">
        <ele>146.5</ele>
        <time>2020-06-25T10:45:54Z</time>
      </trkpt>
      <trkpt lat="49.69564" lon="4.80765">
        <ele>146.5</ele>
        <time>2020-06-25T10:45:55Z</time>
      </trkpt>
      <trkpt lat="49.69564" lon="4.80774">
        <ele>146.5</ele>
        <time>2020-06-25T10:45:56Z</time>
      </trkpt>
      <trkpt lat="49.69564" lon="4.80783">
        <ele>146.6</ele>
        <time>2020-06-25T10:45:57Z</time>
      </trkpt>
      <trkpt lat="49.69564" lon="4.80792">
        <ele>146.6</ele>
        <time>2020-06-25T10:45:58Z</time>
      </trkpt>
      <trkpt lat="49.69564" lon="4.808">
        <ele>146.7</ele>
        <time>2020-06-25T10:45:59Z</time>
      </trkpt>
      <trkpt lat="49.69565" lon="4.80808">
        <ele>146.7</ele>
        <time>2020-06-25T10:46:00Z</time>
      </trkpt>
      <trkpt lat="49.69565" lon="4.80816">
        <ele>146.8</ele>
        <time>2020-06-25T10:46:01Z</time>
      </trkpt>
      <trkpt lat="49.69565" lon="4.80823">
        <ele>146.8</ele>
        <time>2020-06-25T10:46:02Z</time>
      </trkpt>
      <trkpt lat="49.69564" lon="4.8083">
        <ele>146.8</ele>
        <time>2020-06-25T10:46:03Z</time>
      </trkpt>
      <trkpt lat="49.69564" lon="4.80838">
        <ele>146.9</ele>
        <time>2020-06-25T10:46:04Z</time>
      </trkpt>
      <trkpt lat="49.69564" lon="4.80845">
        <ele>146.9</ele>
        <time>2020-06-25T10:46:05Z</time>
      </trkpt>
      <trkpt lat="49.69564" lon="4.80853">
        <ele>147</ele>
        <time>2020-06-25T10:46:06Z</time>
      </trkpt>
      <trkpt lat="49.69564" lon="4.80862">
        <ele>147.1</ele>
        <time>2020-06-25T10:46:07Z</time>
      </trkpt>
      <trkpt lat="49.69564" lon="4.8087">
        <ele>147.1</ele>
        <time>2020-06-25T10:46:08Z</time>
      </trkpt>
      <trkpt lat="49.69564" lon="4.80877">
        <ele>147.2</ele>
        <time>2020-06-25T10:46:09Z</time>
      </trkpt>
      <trkpt lat="49.69564" lon="4.80885">
        <ele>147.3</ele>
        <time>2020-06-25T10:46:10Z</time>
      </trkpt>
      <trkpt lat="49.69565" lon="4.80893">
        <ele>147.3</ele>
        <time>2020-06-25T10:46:11Z</time>
      </trkpt>
      <trkpt lat="49.69565" lon="4.809">
        <ele>147.4</ele>
        <time>2020-06-25T10:46:12Z</time>
      </trkpt>
      <trkpt lat="49.69565" lon="4.80909">
        <ele>147.4</ele>
        <time>2020-06-25T10:46:13Z</time>
      </trkpt>
      <trkpt lat="49.69565" lon="4.80917">
        <ele>147.4</ele>
        <time>2020-06-25T10:46:14Z</time>
      </trkpt>
      <trkpt lat="49.69564" lon="4.80926">
        <ele>147.4</ele>
        <time>2020-06-25T10:46:15Z</time>
      </trkpt>
      <trkpt lat="49.69564" lon="4.80934">
        <ele>147.5</ele>
        <time>2020-06-25T10:46:16Z</time>
      </trkpt>
      <trkpt lat="49.69563" lon="4.80941">
        <ele>147.5</ele>
        <time>2020-06-25T10:46:17Z</time>
      </trkpt>
      <trkpt lat="49.69562" lon="4.80948">
        <ele>147.6</ele>
        <time>2020-06-25T10:46:18Z</time>
      </trkpt>
      <trkpt lat="49.69561" lon="4.80954">
        <ele>147.6</ele>
        <time>2020-06-25T10:46:19Z</time>
      </trkpt>
      <trkpt lat="49.69561" lon="4.80961">
        <ele>147.7</ele>
        <time>2020-06-25T10:46:20Z</time>
      </trkpt>
      <trkpt lat="49.6956" lon="4.80966">
        <ele>147.8</ele>
        <time>2020-06-25T10:46:21Z</time>
      </trkpt>
      <trkpt lat="49.6956" lon="4.80971">
        <ele>147.8</ele>
        <time>2020-06-25T10:46:22Z</time>
      </trkpt>
      <trkpt lat="49.6956" lon="4.80977">
        <ele>147.9</ele>
        <time>2020-06-25T10:46:23Z</time>
      </trkpt>
      <trkpt lat="49.69559" lon="4.80983">
        <ele>147.9</ele>
        <time>2020-06-25T10:46:24Z</time>
      </trkpt>
      <trkpt lat="49.69559" lon="4.80985">
        <ele>148</ele>
        <time>2020-06-25T10:46:25Z</time>
      </trkpt>
      <trkpt lat="49.69558" lon="4.8099">
        <ele>148</ele>
        <time>2020-06-25T10:46:26Z</time>
      </trkpt>
      <trkpt lat="49.69558" lon="4.80992">
        <ele>148.1</ele>
        <time>2020-06-25T10:46:27Z</time>
      </trkpt>
      <trkpt lat="49.69557" lon="4.80994">
        <ele>148.1</ele>
        <time>2020-06-25T10:46:28Z</time>
      </trkpt>
      <trkpt lat="49.69557" lon="4.80994">
        <ele>148.1</ele>
        <time>2020-06-25T10:46:29Z</time>
      </trkpt>
      <trkpt lat="49.69557" lon="4.80995">
        <ele>148.1</ele>
        <time>2020-06-25T10:46:30Z</time>
      </trkpt>
      <trkpt lat="49.69556" lon="4.80994">
        <ele>148.1</ele>
        <time>2020-06-25T10:46:31Z</time>
      </trkpt>
      <trkpt lat="49.69555" lon="4.80994">
        <ele>148.1</ele>
        <time>2020-06-25T10:46:32Z</time>
      </trkpt>
      <trkpt lat="49.69555" lon="4.80994">
        <ele>148.2</ele>
        <time>2020-06-25T10:46:33Z</time>
      </trkpt>
      <trkpt lat="49.69555" lon="4.80996">
        <ele>148.2</ele>
        <time>2020-06-25T10:46:34Z</time>
      </trkpt>
      <trkpt lat="49.69555" lon="4.80997">
        <ele>148.2</ele>
        <time>2020-06-25T10:46:35Z</time>
      </trkpt>
      <trkpt lat="49.69555" lon="4.80998">
        <ele>148.2</ele>
        <time>2020-06-25T10:46:36Z</time>
      </trkpt>
      <trkpt lat="49.69555" lon="4.80999">
        <ele>148.2</ele>
        <time>2020-06-25T10:46:37Z</time>
      </trkpt>
      <trkpt lat="49.69555" lon="4.81">
        <ele>148.2</ele>
        <time>2020-06-25T10:46:38Z</time>
      </trkpt>
      <trkpt lat="49.69555" lon="4.81001">
        <ele>148.3</ele>
        <time>2020-06-25T10:46:39Z</time>
      </trkpt>
      <trkpt lat="49.69556" lon="4.81003">
        <ele>148.3</ele>
        <time>2020-06-25T10:46:40Z</time>
      </trkpt>
      <trkpt lat="49.69556" lon="4.81004">
        <ele>148.3</ele>
        <time>2020-06-25T10:53:44Z</time>
      </trkpt>
      <trkpt lat="49.69556" lon="4.81005">
        <ele>148.3</ele>
        <time>2020-06-25T10:53:45Z</time>
      </trkpt>
      <trkpt lat="49.69556" lon="4.81009">
        <ele>148.3</ele>
        <time>2020-06-25T10:53:46Z</time>
      </trkpt>
      <trkpt lat="49.69555" lon="4.81011">
        <ele>148.4</ele>
        <time>2020-06-25T10:53:47Z</time>
      </trkpt>
      <trkpt lat="49.69555" lon="4.81016">
        <ele>148.4</ele>
        <time>2020-06-25T10:53:48Z</time>
      </trkpt>
      <trkpt lat="49.69554" lon="4.81018">
        <ele>148.4</ele>
        <time>2020-06-25T10:53:49Z</time>
      </trkpt>
      <trkpt lat="49.69553" lon="4.81023">
        <ele>148.4</ele>
        <time>2020-06-25T10:53:50Z</time>
      </trkpt>
      <trkpt lat="49.69552" lon="4.81024">
        <ele>148.5</ele>
        <time>2020-06-25T10:53:51Z</time>
      </trkpt>
      <trkpt lat="49.6955" lon="4.8103">
        <ele>148.5</ele>
        <time>2020-06-25T10:53:52Z</time>
      </trkpt>
      <trkpt lat="49.6955" lon="4.81032">
        <ele>148.5</ele>
        <time>2020-06-25T10:53:53Z</time>
      </trkpt>
      <trkpt lat="49.69548" lon="4.81035">
        <ele>148.5</ele>
        <time>2020-06-25T10:53:54Z</time>
      </trkpt>
      <trkpt lat="49.69546" lon="4.81039">
        <ele>148.5</ele>
        <time>2020-06-25T10:53:55Z</time>
      </trkpt>
      <trkpt lat="49.69545" lon="4.81044">
        <ele>148.5</ele>
        <time>2020-06-25T10:53:56Z</time>
      </trkpt>
      <trkpt lat="49.69544" lon="4.81049">
        <ele>148.5</ele>
        <time>2020-06-25T10:53:57Z</time>
      </trkpt>
      <trkpt lat="49.69544" lon="4.81055">
        <ele>148.5</ele>
        <time>2020-06-25T10:53:58Z</time>
      </trkpt>
      <trkpt lat="49.69543" lon="4.81061">
        <ele>148.4</ele>
        <time>2020-06-25T10:53:59Z</time>
      </trkpt>
      <trkpt lat="49.6954" lon="4.81065">
        <ele>148.4</ele>
        <time>2020-06-25T10:54:00Z</time>
      </trkpt>
      <trkpt lat="49.69539" lon="4.81071">
        <ele>148.4</ele>
        <time>2020-06-25T10:54:01Z</time>
      </trkpt>
      <trkpt lat="49.69537" lon="4.81077">
        <ele>148.4</ele>
        <time>2020-06-25T10:54:02Z</time>
      </trkpt>
      <trkpt lat="49.69536" lon="4.81083">
        <ele>148.4</ele>
        <time>2020-06-25T10:54:03Z</time>
      </trkpt>
      <trkpt lat="49.69535" lon="4.81089">
        <ele>148.4</ele>
        <time>2020-06-25T10:54:04Z</time>
      </trkpt>
      <trkpt lat="49.69534" lon="4.81096">
        <ele>148.4</ele>
        <time>2020-06-25T10:54:05Z</time>
      </trkpt>
      <trkpt lat="49.69533" lon="4.81102">
        <ele>148.4</ele>
        <time>2020-06-25T10:54:06Z</time>
      </trkpt>
      <trkpt lat="49.69533" lon="4.81108">
        <ele>148.5</ele>
        <time>2020-06-25T10:54:07Z</time>
      </trkpt>
      <trkpt lat="49.69532" lon="4.81114">
        <ele>148.5</ele>
        <time>2020-06-25T10:54:08Z</time>
      </trkpt>
      <trkpt lat="49.69531" lon="4.8112">
        <ele>148.5</ele>
        <time>2020-06-25T10:54:09Z</time>
      </trkpt>
      <trkpt lat="49.69528" lon="4.81125">
        <ele>148.6</ele>
        <time>2020-06-25T10:54:10Z</time>
      </trkpt>
      <trkpt lat="49.69527" lon="4.81131">
        <ele>148.6</ele>
        <time>2020-06-25T10:54:11Z</time>
      </trkpt>
      <trkpt lat="49.69525" lon="4.81137">
        <ele>148.7</ele>
        <time>2020-06-25T10:54:12Z</time>
      </trkpt>
      <trkpt lat="49.69524" lon="4.81143">
        <ele>148.7</ele>
        <time>2020-06-25T10:54:13Z</time>
      </trkpt>
      <trkpt lat="49.69522" lon="4.81149">
        <ele>148.7</ele>
        <time>2020-06-25T10:54:14Z</time>
      </trkpt>
      <trkpt lat="49.69521" lon="4.81156">
        <ele>148.8</ele>
        <time>2020-06-25T10:54:15Z</time>
      </trkpt>
      <trkpt lat="49.69519" lon="4.81161">
        <ele>148.8</ele>
        <time>2020-06-25T10:54:16Z</time>
      </trkpt>
      <trkpt lat="49.69517" lon="4.81168">
        <ele>148.8</ele>
        <time>2020-06-25T10:54:17Z</time>
      </trkpt>
      <trkpt lat="49.69515" lon="4.81173">
        <ele>148.8</ele>
        <time>2020-06-25T10:54:18Z</time>
      </trkpt>
      <trkpt lat="49.69512" lon="4.81178">
        <ele>148.8</ele>
        <time>2020-06-25T10:54:19Z</time>
      </trkpt>
      <trkpt lat="49.69509" lon="4.81184">
        <ele>148.8</ele>
        <time>2020-06-25T10:54:20Z</time>
      </trkpt>
      <trkpt lat="49.69507" lon="4.81191">
        <ele>148.8</ele>
        <time>2020-06-25T10:54:21Z</time>
      </trkpt>
      <trkpt lat="49.69505" lon="4.81197">
        <ele>148.8</ele>
        <time>2020-06-25T10:54:22Z</time>
      </trkpt>
      <trkpt lat="49.69504" lon="4.81205">
        <ele>148.9</ele>
        <time>2020-06-25T10:54:23Z</time>
      </trkpt>
      <trkpt lat="49.69501" lon="4.81213">
        <ele>148.9</ele>
        <time>2020-06-25T10:54:24Z</time>
      </trkpt>
      <trkpt lat="49.695" lon="4.8122">
        <ele>149</ele>
        <time>2020-06-25T10:54:25Z</time>
      </trkpt>
      <trkpt lat="49.69498" lon="4.81228">
        <ele>149</ele>
        <time>2020-06-25T10:54:26Z</time>
      </trkpt>
      <trkpt lat="49.69496" lon="4.81234">
        <ele>149</ele>
        <time>2020-06-25T10:54:27Z</time>
      </trkpt>
      <trkpt lat="49.69494" lon="4.81241">
        <ele>149</ele>
        <time>2020-06-25T10:54:28Z</time>
      </trkpt>
      <trkpt lat="49.69491" lon="4.81249">
        <ele>149</ele>
        <time>2020-06-25T10:54:29Z</time>
      </trkpt>
      <trkpt lat="49.6949" lon="4.81253">
        <ele>149</ele>
        <time>2020-06-25T10:54:30Z</time>
      </trkpt>
      <trkpt lat="49.69486" lon="4.8126">
        <ele>149</ele>
        <time>2020-06-25T10:54:31Z</time>
      </trkpt>
      <trkpt lat="49.69483" lon="4.81266">
        <ele>149</ele>
        <time>2020-06-25T10:54:32Z</time>
      </trkpt>
      <trkpt lat="49.69481" lon="4.81272">
        <ele>149</ele>
        <time>2020-06-25T10:54:33Z</time>
      </trkpt>
      <trkpt lat="49.69478" lon="4.81279">
        <ele>149</ele>
        <time>2020-06-25T10:54:34Z</time>
      </trkpt>
      <trkpt lat="49.69474" lon="4.81284">
        <ele>149</ele>
        <time>2020-06-25T10:54:35Z</time>
      </trkpt>
      <trkpt lat="49.69471" lon="4.8129">
        <ele>149</ele>
        <time>2020-06-25T10:54:36Z</time>
      </trkpt>
      <trkpt lat="49.69467" lon="4.81296">
        <ele>149</ele>
        <time>2020-06-25T10:54:37Z</time>
      </trkpt>
      <trkpt lat="49.69463" lon="4.81303">
        <ele>149.1</ele>
        <time>2020-06-25T10:54:38Z</time>
      </trkpt>
      <trkpt lat="49.6946" lon="4.81309">
        <ele>149.1</ele>
        <time>2020-06-25T10:54:39Z</time>
      </trkpt>
      <trkpt lat="49.69457" lon="4.81314">
        <ele>149.1</ele>
        <time>2020-06-25T10:54:40Z</time>
      </trkpt>
      <trkpt lat="49.69455" lon="4.81319">
        <ele>149.1</ele>
        <time>2020-06-25T10:54:41Z</time>
      </trkpt>
      <trkpt lat="49.69452" lon="4.81324">
        <ele>149.1</ele>
        <time>2020-06-25T10:54:42Z</time>
      </trkpt>
      <trkpt lat="49.6945" lon="4.81328">
        <ele>149.1</ele>
        <time>2020-06-25T10:54:43Z</time>
      </trkpt>
      <trkpt lat="49.69448" lon="4.81332">
        <ele>149.2</ele>
        <time>2020-06-25T10:54:44Z</time>
      </trkpt>
      <trkpt lat="49.69444" lon="4.81339">
        <ele>149.2</ele>
        <time>2020-06-25T10:54:45Z</time>
      </trkpt>
      <trkpt lat="49.69442" lon="4.81345">
        <ele>149.2</ele>
        <time>2020-06-25T10:54:46Z</time>
      </trkpt>
      <trkpt lat="49.69438" lon="4.81352">
        <ele>149.1</ele>
        <time>2020-06-25T10:54:47Z</time>
      </trkpt>
      <trkpt lat="49.69436" lon="4.81358">
        <ele>149.1</ele>
        <time>2020-06-25T10:54:48Z</time>
      </trkpt>
      <trkpt lat="49.69433" lon="4.81363">
        <ele>149.1</ele>
        <time>2020-06-25T10:54:49Z</time>
      </trkpt>
      <trkpt lat="49.69431" lon="4.81368">
        <ele>149.1</ele>
        <time>2020-06-25T10:54:50Z</time>
      </trkpt>
      <trkpt lat="49.69427" lon="4.81375">
        <ele>149.1</ele>
        <time>2020-06-25T10:54:51Z</time>
      </trkpt>
      <trkpt lat="49.69424" lon="4.8138">
        <ele>149.1</ele>
        <time>2020-06-25T10:54:52Z</time>
      </trkpt>
      <trkpt lat="49.69421" lon="4.81386">
        <ele>149.1</ele>
        <time>2020-06-25T10:54:53Z</time>
      </trkpt>
      <trkpt lat="49.69418" lon="4.81392">
        <ele>149.1</ele>
        <time>2020-06-25T10:54:54Z</time>
      </trkpt>
      <trkpt lat="49.69415" lon="4.81399">
        <ele>149.1</ele>
        <time>2020-06-25T10:54:55Z</time>
      </trkpt>
      <trkpt lat="49.69412" lon="4.81405">
        <ele>149.1</ele>
        <time>2020-06-25T10:54:56Z</time>
      </trkpt>
      <trkpt lat="49.69411" lon="4.81409">
        <ele>149.1</ele>
        <time>2020-06-25T10:54:57Z</time>
      </trkpt>
      <trkpt lat="49.69407" lon="4.81417">
        <ele>149.1</ele>
        <time>2020-06-25T10:54:58Z</time>
      </trkpt>
      <trkpt lat="49.69403" lon="4.81425">
        <ele>149.1</ele>
        <time>2020-06-25T10:54:59Z</time>
      </trkpt>
      <trkpt lat="49.69399" lon="4.81433">
        <ele>149.1</ele>
        <time>2020-06-25T10:55:00Z</time>
      </trkpt>
      <trkpt lat="49.69398" lon="4.8144">
        <ele>149</ele>
        <time>2020-06-25T10:55:01Z</time>
      </trkpt>
      <trkpt lat="49.69397" lon="4.81446">
        <ele>149</ele>
        <time>2020-06-25T10:55:02Z</time>
      </trkpt>
      <trkpt lat="49.69394" lon="4.81456">
        <ele>149</ele>
        <time>2020-06-25T10:55:03Z</time>
      </trkpt>
      <trkpt lat="49.69392" lon="4.81465">
        <ele>149.1</ele>
        <time>2020-06-25T10:55:04Z</time>
      </trkpt>
      <trkpt lat="49.69389" lon="4.81475">
        <ele>149.1</ele>
        <time>2020-06-25T10:55:05Z</time>
      </trkpt>
      <trkpt lat="49.69387" lon="4.81482">
        <ele>149.1</ele>
        <time>2020-06-25T10:55:06Z</time>
      </trkpt>
      <trkpt lat="49.69386" lon="4.81488">
        <ele>149.1</ele>
        <time>2020-06-25T10:55:07Z</time>
      </trkpt>
      <trkpt lat="49.69386" lon="4.81495">
        <ele>149.1</ele>
        <time>2020-06-25T10:55:08Z</time>
      </trkpt>
      <trkpt lat="49.69384" lon="4.81502">
        <ele>149.2</ele>
        <time>2020-06-25T10:55:09Z</time>
      </trkpt>
      <trkpt lat="49.69382" lon="4.81509">
        <ele>149.2</ele>
        <time>2020-06-25T10:55:10Z</time>
      </trkpt>
      <trkpt lat="49.6938" lon="4.81516">
        <ele>149.2</ele>
        <time>2020-06-25T10:55:11Z</time>
      </trkpt>
      <trkpt lat="49.6938" lon="4.81524">
        <ele>149.2</ele>
        <time>2020-06-25T10:55:12Z</time>
      </trkpt>
      <trkpt lat="49.69379" lon="4.81531">
        <ele>149.2</ele>
        <time>2020-06-25T10:55:13Z</time>
      </trkpt>
      <trkpt lat="49.69378" lon="4.81538">
        <ele>149.2</ele>
        <time>2020-06-25T10:55:14Z</time>
      </trkpt>
      <trkpt lat="49.69378" lon="4.81546">
        <ele>149.2</ele>
        <time>2020-06-25T10:55:15Z</time>
      </trkpt>
      <trkpt lat="49.69378" lon="4.81554">
        <ele>149.2</ele>
        <time>2020-06-25T10:55:16Z</time>
      </trkpt>
      <trkpt lat="49.69376" lon="4.81563">
        <ele>149.2</ele>
        <time>2020-06-25T10:55:17Z</time>
      </trkpt>
      <trkpt lat="49.69374" lon="4.81572">
        <ele>149.1</ele>
        <time>2020-06-25T10:55:18Z</time>
      </trkpt>
      <trkpt lat="49.69373" lon="4.81579">
        <ele>149.1</ele>
        <time>2020-06-25T10:55:19Z</time>
      </trkpt>
      <trkpt lat="49.69372" lon="4.81587">
        <ele>149.1</ele>
        <time>2020-06-25T10:55:20Z</time>
      </trkpt>
      <trkpt lat="49.6937" lon="4.81593">
        <ele>149.1</ele>
        <time>2020-06-25T10:55:21Z</time>
      </trkpt>
      <trkpt lat="49.6937" lon="4.816">
        <ele>149</ele>
        <time>2020-06-25T10:55:22Z</time>
      </trkpt>
      <trkpt lat="49.69369" lon="4.81608">
        <ele>149</ele>
        <time>2020-06-25T10:55:23Z</time>
      </trkpt>
      <trkpt lat="49.69368" lon="4.81616">
        <ele>149</ele>
        <time>2020-06-25T10:55:24Z</time>
      </trkpt>
      <trkpt lat="49.69366" lon="4.81622">
        <ele>148.9</ele>
        <time>2020-06-25T10:55:25Z</time>
      </trkpt>
      <trkpt lat="49.69365" lon="4.8163">
        <ele>148.8</ele>
        <time>2020-06-25T10:55:26Z</time>
      </trkpt>
      <trkpt lat="49.69364" lon="4.8164">
        <ele>148.7</ele>
        <time>2020-06-25T10:55:27Z</time>
      </trkpt>
      <trkpt lat="49.69363" lon="4.81649">
        <ele>148.5</ele>
        <time>2020-06-25T10:55:28Z</time>
      </trkpt>
      <trkpt lat="49.6936" lon="4.81659">
        <ele>148.3</ele>
        <time>2020-06-25T10:55:29Z</time>
      </trkpt>
      <trkpt lat="49.69358" lon="4.81669">
        <ele>148</ele>
        <time>2020-06-25T10:55:30Z</time>
      </trkpt>
      <trkpt lat="49.69356" lon="4.81679">
        <ele>147.8</ele>
        <time>2020-06-25T10:55:31Z</time>
      </trkpt>
      <trkpt lat="49.69355" lon="4.81688">
        <ele>147.6</ele>
        <time>2020-06-25T10:55:32Z</time>
      </trkpt>
      <trkpt lat="49.69352" lon="4.81699">
        <ele>147.4</ele>
        <time>2020-06-25T10:55:33Z</time>
      </trkpt>
      <trkpt lat="49.69351" lon="4.8171">
        <ele>147.2</ele>
        <time>2020-06-25T10:55:34Z</time>
      </trkpt>
      <trkpt lat="49.69349" lon="4.81722">
        <ele>147.1</ele>
        <time>2020-06-25T10:55:35Z</time>
      </trkpt>
      <trkpt lat="49.69348" lon="4.81732">
        <ele>147.1</ele>
        <time>2020-06-25T10:55:36Z</time>
      </trkpt>
      <trkpt lat="49.69346" lon="4.81742">
        <ele>147.1</ele>
        <time>2020-06-25T10:55:37Z</time>
      </trkpt>
      <trkpt lat="49.69344" lon="4.81751">
        <ele>147.1</ele>
        <time>2020-06-25T10:55:38Z</time>
      </trkpt>
      <trkpt lat="49.69343" lon="4.8176">
        <ele>147.1</ele>
        <time>2020-06-25T10:55:39Z</time>
      </trkpt>
      <trkpt lat="49.69342" lon="4.81769">
        <ele>147.1</ele>
        <time>2020-06-25T10:55:40Z</time>
      </trkpt>
      <trkpt lat="49.6934" lon="4.81779">
        <ele>147</ele>
        <time>2020-06-25T10:55:41Z</time>
      </trkpt>
      <trkpt lat="49.69339" lon="4.81787">
        <ele>147</ele>
        <time>2020-06-25T10:55:42Z</time>
      </trkpt>
      <trkpt lat="49.69337" lon="4.81796">
        <ele>147</ele>
        <time>2020-06-25T10:55:43Z</time>
      </trkpt>
      <trkpt lat="49.69336" lon="4.81805">
        <ele>147</ele>
        <time>2020-06-25T10:55:44Z</time>
      </trkpt>
      <trkpt lat="49.69335" lon="4.81814">
        <ele>147</ele>
        <time>2020-06-25T10:55:45Z</time>
      </trkpt>
      <trkpt lat="49.69334" lon="4.81822">
        <ele>147</ele>
        <time>2020-06-25T10:55:46Z</time>
      </trkpt>
      <trkpt lat="49.69332" lon="4.81832">
        <ele>147.1</ele>
        <time>2020-06-25T10:55:47Z</time>
      </trkpt>
      <trkpt lat="49.69332" lon="4.81842">
        <ele>147.1</ele>
        <time>2020-06-25T10:55:48Z</time>
      </trkpt>
      <trkpt lat="49.69331" lon="4.81852">
        <ele>147.1</ele>
        <time>2020-06-25T10:55:49Z</time>
      </trkpt>
      <trkpt lat="49.69332" lon="4.81859">
        <ele>147.2</ele>
        <time>2020-06-25T10:55:50Z</time>
      </trkpt>
      <trkpt lat="49.69331" lon="4.81865">
        <ele>147.2</ele>
        <time>2020-06-25T10:55:51Z</time>
      </trkpt>
      <trkpt lat="49.69328" lon="4.81874">
        <ele>147.2</ele>
        <time>2020-06-25T10:55:52Z</time>
      </trkpt>
      <trkpt lat="49.69327" lon="4.81882">
        <ele>147.2</ele>
        <time>2020-06-25T10:55:53Z</time>
      </trkpt>
      <trkpt lat="49.69327" lon="4.81887">
        <ele>147.2</ele>
        <time>2020-06-25T10:55:54Z</time>
      </trkpt>
      <trkpt lat="49.69327" lon="4.81896">
        <ele>147.3</ele>
        <time>2020-06-25T10:55:55Z</time>
      </trkpt>
      <trkpt lat="49.69328" lon="4.81906">
        <ele>147.3</ele>
        <time>2020-06-25T10:55:56Z</time>
      </trkpt>
      <trkpt lat="49.69326" lon="4.81916">
        <ele>147.3</ele>
        <time>2020-06-25T10:55:57Z</time>
      </trkpt>
      <trkpt lat="49.69326" lon="4.81924">
        <ele>147.3</ele>
        <time>2020-06-25T10:55:58Z</time>
      </trkpt>
      <trkpt lat="49.69325" lon="4.81933">
        <ele>147.3</ele>
        <time>2020-06-25T10:55:59Z</time>
      </trkpt>
      <trkpt lat="49.69324" lon="4.81941">
        <ele>147.3</ele>
        <time>2020-06-25T10:56:00Z</time>
      </trkpt>
      <trkpt lat="49.69324" lon="4.81949">
        <ele>147.2</ele>
        <time>2020-06-25T10:56:01Z</time>
      </trkpt>
      <trkpt lat="49.69323" lon="4.81957">
        <ele>147.2</ele>
        <time>2020-06-25T10:56:02Z</time>
      </trkpt>
      <trkpt lat="49.69322" lon="4.81966">
        <ele>147.1</ele>
        <time>2020-06-25T10:56:03Z</time>
      </trkpt>
      <trkpt lat="49.69321" lon="4.81973">
        <ele>147.1</ele>
        <time>2020-06-25T10:56:04Z</time>
      </trkpt>
      <trkpt lat="49.6932" lon="4.8198">
        <ele>147</ele>
        <time>2020-06-25T10:56:05Z</time>
      </trkpt>
      <trkpt lat="49.69319" lon="4.81992">
        <ele>147</ele>
        <time>2020-06-25T10:56:06Z</time>
      </trkpt>
      <trkpt lat="49.69319" lon="4.82004">
        <ele>146.9</ele>
        <time>2020-06-25T10:56:07Z</time>
      </trkpt>
      <trkpt lat="49.69319" lon="4.82013">
        <ele>146.8</ele>
        <time>2020-06-25T10:56:08Z</time>
      </trkpt>
      <trkpt lat="49.69319" lon="4.82023">
        <ele>146.8</ele>
        <time>2020-06-25T10:56:09Z</time>
      </trkpt>
      <trkpt lat="49.69319" lon="4.82034">
        <ele>146.7</ele>
        <time>2020-06-25T10:56:10Z</time>
      </trkpt>
      <trkpt lat="49.69319" lon="4.82043">
        <ele>146.7</ele>
        <time>2020-06-25T10:56:11Z</time>
      </trkpt>
      <trkpt lat="49.69319" lon="4.82053">
        <ele>146.7</ele>
        <time>2020-06-25T10:56:12Z</time>
      </trkpt>
      <trkpt lat="49.69318" lon="4.82063">
        <ele>146.7</ele>
        <time>2020-06-25T10:56:13Z</time>
      </trkpt>
      <trkpt lat="49.69318" lon="4.82072">
        <ele>146.7</ele>
        <time>2020-06-25T10:56:14Z</time>
      </trkpt>
      <trkpt lat="49.69317" lon="4.82081">
        <ele>146.7</ele>
        <time>2020-06-25T10:56:15Z</time>
      </trkpt>
      <trkpt lat="49.69317" lon="4.8209">
        <ele>146.7</ele>
        <time>2020-06-25T10:56:16Z</time>
      </trkpt>
      <trkpt lat="49.69317" lon="4.82098">
        <ele>146.7</ele>
        <time>2020-06-25T10:56:17Z</time>
      </trkpt>
      <trkpt lat="49.69317" lon="4.82106">
        <ele>146.6</ele>
        <time>2020-06-25T10:56:18Z</time>
      </trkpt>
      <trkpt lat="49.69319" lon="4.82113">
        <ele>146.6</ele>
        <time>2020-06-25T10:56:19Z</time>
      </trkpt>
      <trkpt lat="49.69319" lon="4.82123">
        <ele>146.6</ele>
        <time>2020-06-25T10:56:20Z</time>
      </trkpt>
      <trkpt lat="49.69319" lon="4.82133">
        <ele>146.6</ele>
        <time>2020-06-25T10:56:21Z</time>
      </trkpt>
      <trkpt lat="49.69318" lon="4.82142">
        <ele>146.6</ele>
        <time>2020-06-25T10:56:22Z</time>
      </trkpt>
      <trkpt lat="49.69319" lon="4.82151">
        <ele>146.7</ele>
        <time>2020-06-25T10:56:23Z</time>
      </trkpt>
      <trkpt lat="49.69319" lon="4.8216">
        <ele>146.7</ele>
        <time>2020-06-25T10:56:24Z</time>
      </trkpt>
      <trkpt lat="49.69319" lon="4.82168">
        <ele>146.7</ele>
        <time>2020-06-25T10:56:25Z</time>
      </trkpt>
      <trkpt lat="49.69319" lon="4.82179">
        <ele>146.7</ele>
        <time>2020-06-25T10:56:26Z</time>
      </trkpt>
      <trkpt lat="49.69319" lon="4.82189">
        <ele>146.6</ele>
        <time>2020-06-25T10:56:27Z</time>
      </trkpt>
      <trkpt lat="49.6932" lon="4.82198">
        <ele>146.6</ele>
        <time>2020-06-25T10:56:28Z</time>
      </trkpt>
      <trkpt lat="49.6932" lon="4.82208">
        <ele>146.6</ele>
        <time>2020-06-25T10:56:29Z</time>
      </trkpt>
      <trkpt lat="49.6932" lon="4.82217">
        <ele>146.6</ele>
        <time>2020-06-25T10:56:30Z</time>
      </trkpt>
      <trkpt lat="49.6932" lon="4.82225">
        <ele>146.7</ele>
        <time>2020-06-25T10:56:31Z</time>
      </trkpt>
      <trkpt lat="49.6932" lon="4.82233">
        <ele>146.7</ele>
        <time>2020-06-25T10:56:32Z</time>
      </trkpt>
      <trkpt lat="49.69319" lon="4.82243">
        <ele>146.8</ele>
        <time>2020-06-25T10:56:33Z</time>
      </trkpt>
      <trkpt lat="49.6932" lon="4.82251">
        <ele>146.8</ele>
        <time>2020-06-25T10:56:34Z</time>
      </trkpt>
      <trkpt lat="49.6932" lon="4.8226">
        <ele>146.8</ele>
        <time>2020-06-25T10:56:35Z</time>
      </trkpt>
      <trkpt lat="49.69319" lon="4.82268">
        <ele>146.7</ele>
        <time>2020-06-25T10:56:36Z</time>
      </trkpt>
      <trkpt lat="49.69319" lon="4.82276">
        <ele>146.7</ele>
        <time>2020-06-25T10:56:37Z</time>
      </trkpt>
      <trkpt lat="49.69319" lon="4.82285">
        <ele>146.7</ele>
        <time>2020-06-25T10:56:38Z</time>
      </trkpt>
      <trkpt lat="49.69318" lon="4.82293">
        <ele>146.7</ele>
        <time>2020-06-25T10:56:39Z</time>
      </trkpt>
      <trkpt lat="49.69319" lon="4.82302">
        <ele>146.7</ele>
        <time>2020-06-25T10:56:40Z</time>
      </trkpt>
      <trkpt lat="49.69318" lon="4.82314">
        <ele>146.7</ele>
        <time>2020-06-25T10:56:41Z</time>
      </trkpt>
      <trkpt lat="49.69318" lon="4.82322">
        <ele>146.7</ele>
        <time>2020-06-25T10:56:42Z</time>
      </trkpt>
      <trkpt lat="49.69318" lon="4.82332">
        <ele>146.7</ele>
        <time>2020-06-25T10:56:43Z</time>
      </trkpt>
      <trkpt lat="49.69318" lon="4.8234">
        <ele>146.7</ele>
        <time>2020-06-25T10:56:44Z</time>
      </trkpt>
      <trkpt lat="49.69319" lon="4.82348">
        <ele>146.7</ele>
        <time>2020-06-25T10:56:45Z</time>
      </trkpt>
      <trkpt lat="49.69319" lon="4.82356">
        <ele>146.7</ele>
        <time>2020-06-25T10:56:46Z</time>
      </trkpt>
      <trkpt lat="49.69319" lon="4.82365">
        <ele>146.8</ele>
        <time>2020-06-25T10:56:47Z</time>
      </trkpt>
      <trkpt lat="49.6932" lon="4.82374">
        <ele>146.8</ele>
        <time>2020-06-25T10:56:48Z</time>
      </trkpt>
      <trkpt lat="49.69321" lon="4.82382">
        <ele>146.8</ele>
        <time>2020-06-25T10:56:49Z</time>
      </trkpt>
      <trkpt lat="49.69321" lon="4.82391">
        <ele>146.8</ele>
        <time>2020-06-25T10:56:50Z</time>
      </trkpt>
      <trkpt lat="49.69322" lon="4.82398">
        <ele>146.8</ele>
        <time>2020-06-25T10:56:51Z</time>
      </trkpt>
      <trkpt lat="49.69322" lon="4.82406">
        <ele>146.8</ele>
        <time>2020-06-25T10:56:52Z</time>
      </trkpt>
      <trkpt lat="49.69323" lon="4.82414">
        <ele>146.8</ele>
        <time>2020-06-25T10:56:53Z</time>
      </trkpt>
      <trkpt lat="49.69323" lon="4.82423">
        <ele>146.7</ele>
        <time>2020-06-25T10:56:54Z</time>
      </trkpt>
      <trkpt lat="49.69324" lon="4.82435">
        <ele>146.7</ele>
        <time>2020-06-25T10:56:55Z</time>
      </trkpt>
      <trkpt lat="49.69324" lon="4.82444">
        <ele>146.7</ele>
        <time>2020-06-25T10:56:56Z</time>
      </trkpt>
      <trkpt lat="49.69325" lon="4.82453">
        <ele>146.7</ele>
        <time>2020-06-25T10:56:57Z</time>
      </trkpt>
      <trkpt lat="49.69326" lon="4.82459">
        <ele>146.7</ele>
        <time>2020-06-25T10:56:58Z</time>
      </trkpt>
      <trkpt lat="49.69327" lon="4.82468">
        <ele>146.7</ele>
        <time>2020-06-25T10:56:59Z</time>
      </trkpt>
      <trkpt lat="49.69327" lon="4.82478">
        <ele>146.7</ele>
        <time>2020-06-25T10:57:00Z</time>
      </trkpt>
      <trkpt lat="49.69328" lon="4.82487">
        <ele>146.7</ele>
        <time>2020-06-25T10:57:01Z</time>
      </trkpt>
      <trkpt lat="49.69328" lon="4.82495">
        <ele>146.7</ele>
        <time>2020-06-25T10:57:02Z</time>
      </trkpt>
      <trkpt lat="49.69329" lon="4.82503">
        <ele>146.7</ele>
        <time>2020-06-25T10:57:03Z</time>
      </trkpt>
      <trkpt lat="49.6933" lon="4.82511">
        <ele>146.7</ele>
        <time>2020-06-25T10:57:04Z</time>
      </trkpt>
      <trkpt lat="49.69331" lon="4.82519">
        <ele>146.7</ele>
        <time>2020-06-25T10:57:05Z</time>
      </trkpt>
      <trkpt lat="49.69332" lon="4.82528">
        <ele>146.8</ele>
        <time>2020-06-25T10:57:06Z</time>
      </trkpt>
      <trkpt lat="49.69333" lon="4.82536">
        <ele>146.8</ele>
        <time>2020-06-25T10:57:07Z</time>
      </trkpt>
      <trkpt lat="49.69333" lon="4.82545">
        <ele>146.8</ele>
        <time>2020-06-25T10:57:08Z</time>
      </trkpt>
      <trkpt lat="49.69335" lon="4.82551">
        <ele>146.8</ele>
        <time>2020-06-25T10:57:09Z</time>
      </trkpt>
      <trkpt lat="49.69337" lon="4.82561">
        <ele>146.8</ele>
        <time>2020-06-25T10:57:10Z</time>
      </trkpt>
      <trkpt lat="49.69337" lon="4.82569">
        <ele>146.9</ele>
        <time>2020-06-25T10:57:11Z</time>
      </trkpt>
      <trkpt lat="49.69337" lon="4.82577">
        <ele>146.9</ele>
        <time>2020-06-25T10:57:12Z</time>
      </trkpt>
      <trkpt lat="49.69338" lon="4.82585">
        <ele>146.9</ele>
        <time>2020-06-25T10:57:13Z</time>
      </trkpt>
      <trkpt lat="49.69339" lon="4.82593">
        <ele>146.9</ele>
        <time>2020-06-25T10:57:14Z</time>
      </trkpt>
      <trkpt lat="49.6934" lon="4.82602">
        <ele>146.9</ele>
        <time>2020-06-25T10:57:15Z</time>
      </trkpt>
      <trkpt lat="49.6934" lon="4.8261">
        <ele>146.9</ele>
        <time>2020-06-25T10:57:16Z</time>
      </trkpt>
      <trkpt lat="49.6934" lon="4.82617">
        <ele>146.9</ele>
        <time>2020-06-25T10:57:17Z</time>
      </trkpt>
      <trkpt lat="49.6934" lon="4.82627">
        <ele>146.9</ele>
        <time>2020-06-25T10:57:18Z</time>
      </trkpt>
      <trkpt lat="49.6934" lon="4.82636">
        <ele>146.9</ele>
        <time>2020-06-25T10:57:19Z</time>
      </trkpt>
      <trkpt lat="49.69341" lon="4.82643">
        <ele>146.8</ele>
        <time>2020-06-25T10:57:20Z</time>
      </trkpt>
      <trkpt lat="49.69342" lon="4.82653">
        <ele>146.8</ele>
        <time>2020-06-25T10:57:21Z</time>
      </trkpt>
      <trkpt lat="49.69342" lon="4.82659">
        <ele>146.8</ele>
        <time>2020-06-25T10:57:22Z</time>
      </trkpt>
      <trkpt lat="49.69342" lon="4.82667">
        <ele>146.7</ele>
        <time>2020-06-25T10:57:23Z</time>
      </trkpt>
      <trkpt lat="49.69343" lon="4.82676">
        <ele>146.7</ele>
        <time>2020-06-25T10:57:24Z</time>
      </trkpt>
      <trkpt lat="49.69344" lon="4.82688">
        <ele>146.7</ele>
        <time>2020-06-25T10:57:25Z</time>
      </trkpt>
      <trkpt lat="49.69345" lon="4.82695">
        <ele>146.6</ele>
        <time>2020-06-25T10:57:26Z</time>
      </trkpt>
      <trkpt lat="49.69346" lon="4.82704">
        <ele>146.6</ele>
        <time>2020-06-25T10:57:27Z</time>
      </trkpt>
      <trkpt lat="49.69348" lon="4.82712">
        <ele>146.6</ele>
        <time>2020-06-25T10:57:28Z</time>
      </trkpt>
      <trkpt lat="49.69349" lon="4.8272">
        <ele>146.6</ele>
        <time>2020-06-25T10:57:29Z</time>
      </trkpt>
      <trkpt lat="49.6935" lon="4.82729">
        <ele>146.6</ele>
        <time>2020-06-25T10:57:30Z</time>
      </trkpt>
      <trkpt lat="49.69351" lon="4.82737">
        <ele>146.6</ele>
        <time>2020-06-25T10:57:31Z</time>
      </trkpt>
      <trkpt lat="49.69352" lon="4.82746">
        <ele>146.6</ele>
        <time>2020-06-25T10:57:32Z</time>
      </trkpt>
      <trkpt lat="49.69352" lon="4.82754">
        <ele>146.7</ele>
        <time>2020-06-25T10:57:33Z</time>
      </trkpt>
      <trkpt lat="49.69353" lon="4.82764">
        <ele>146.8</ele>
        <time>2020-06-25T10:57:34Z</time>
      </trkpt>
      <trkpt lat="49.69353" lon="4.82772">
        <ele>146.8</ele>
        <time>2020-06-25T10:57:35Z</time>
      </trkpt>
      <trkpt lat="49.69354" lon="4.82782">
        <ele>147</ele>
        <time>2020-06-25T10:57:36Z</time>
      </trkpt>
      <trkpt lat="49.69354" lon="4.8279">
        <ele>147.1</ele>
        <time>2020-06-25T10:57:37Z</time>
      </trkpt>
      <trkpt lat="49.69355" lon="4.82798">
        <ele>147.2</ele>
        <time>2020-06-25T10:57:38Z</time>
      </trkpt>
      <trkpt lat="49.69355" lon="4.82805">
        <ele>147.3</ele>
        <time>2020-06-25T10:57:39Z</time>
      </trkpt>
      <trkpt lat="49.69355" lon="4.82812">
        <ele>147.4</ele>
        <time>2020-06-25T10:57:40Z</time>
      </trkpt>
      <trkpt lat="49.69355" lon="4.82819">
        <ele>147.5</ele>
        <time>2020-06-25T10:57:41Z</time>
      </trkpt>
      <trkpt lat="49.69356" lon="4.82827">
        <ele>147.7</ele>
        <time>2020-06-25T10:57:42Z</time>
      </trkpt>
      <trkpt lat="49.69356" lon="4.82834">
        <ele>147.8</ele>
        <time>2020-06-25T10:57:43Z</time>
      </trkpt>
      <trkpt lat="49.69355" lon="4.82841">
        <ele>148</ele>
        <time>2020-06-25T10:57:44Z</time>
      </trkpt>
      <trkpt lat="49.69356" lon="4.82848">
        <ele>148.2</ele>
        <time>2020-06-25T10:57:45Z</time>
      </trkpt>
      <trkpt lat="49.69356" lon="4.82857">
        <ele>148.4</ele>
        <time>2020-06-25T10:57:46Z</time>
      </trkpt>
      <trkpt lat="49.69357" lon="4.82863">
        <ele>148.6</ele>
        <time>2020-06-25T10:57:47Z</time>
      </trkpt>
      <trkpt lat="49.69357" lon="4.8287">
        <ele>148.8</ele>
        <time>2020-06-25T10:57:48Z</time>
      </trkpt>
      <trkpt lat="49.69357" lon="4.82876">
        <ele>148.9</ele>
        <time>2020-06-25T10:57:49Z</time>
      </trkpt>
      <trkpt lat="49.69357" lon="4.82882">
        <ele>149.1</ele>
        <time>2020-06-25T10:57:50Z</time>
      </trkpt>
      <trkpt lat="49.69357" lon="4.82889">
        <ele>149.3</ele>
        <time>2020-06-25T10:57:51Z</time>
      </trkpt>
      <trkpt lat="49.69357" lon="4.82895">
        <ele>149.5</ele>
        <time>2020-06-25T10:57:52Z</time>
      </trkpt>
      <trkpt lat="49.69357" lon="4.82902">
        <ele>149.7</ele>
        <time>2020-06-25T10:57:53Z</time>
      </trkpt>
      <trkpt lat="49.69357" lon="4.82908">
        <ele>149.9</ele>
        <time>2020-06-25T10:57:54Z</time>
      </trkpt>
      <trkpt lat="49.69356" lon="4.82912">
        <ele>150.2</ele>
        <time>2020-06-25T10:57:55Z</time>
      </trkpt>
      <trkpt lat="49.69354" lon="4.82917">
        <ele>150.2</ele>
        <time>2020-06-25T10:57:56Z</time>
      </trkpt>
      <trkpt lat="49.69353" lon="4.82919">
        <ele>150.2</ele>
        <time>2020-06-25T10:57:57Z</time>
      </trkpt>
      <trkpt lat="49.69354" lon="4.82923">
        <ele>150.3</ele>
        <time>2020-06-25T10:57:58Z</time>
      </trkpt>
      <trkpt lat="49.69355" lon="4.82924">
        <ele>150.3</ele>
        <time>2020-06-25T10:57:59Z</time>
      </trkpt>
      <trkpt lat="49.69356" lon="4.82925">
        <ele>150.3</ele>
        <time>2020-06-25T10:58:00Z</time>
      </trkpt>
      <trkpt lat="49.69358" lon="4.82925">
        <ele>150.3</ele>
        <time>2020-06-25T10:58:01Z</time>
      </trkpt>
      <trkpt lat="49.69358" lon="4.82925">
        <ele>150.3</ele>
        <time>2020-06-25T10:58:02Z</time>
      </trkpt>
      <trkpt lat="49.69358" lon="4.82926">
        <ele>150.3</ele>
        <time>2020-06-25T10:58:03Z</time>
      </trkpt>
      <trkpt lat="49.69358" lon="4.82926">
        <ele>150.3</ele>
        <time>2020-06-25T10:58:04Z</time>
      </trkpt>
      <trkpt lat="49.69358" lon="4.82926">
        <ele>150.3</ele>
        <time>2020-06-25T10:58:05Z</time>
      </trkpt>
      <trkpt lat="49.69359" lon="4.82926">
        <ele>150.3</ele>
        <time>2020-06-25T10:58:06Z</time>
      </trkpt>
      <trkpt lat="49.69359" lon="4.82927">
        <ele>150.3</ele>
        <time>2020-06-25T10:58:07Z</time>
      </trkpt>
      <trkpt lat="49.69359" lon="4.82927">
        <ele>150.3</ele>
        <time>2020-06-25T10:58:08Z</time>
      </trkpt>
      <trkpt lat="49.69359" lon="4.82928">
        <ele>150.3</ele>
        <time>2020-06-25T10:58:09Z</time>
      </trkpt>
      <trkpt lat="49.6936" lon="4.82928">
        <ele>150.3</ele>
        <time>2020-06-25T10:58:10Z</time>
      </trkpt>
      <trkpt lat="49.6936" lon="4.82928">
        <ele>150.3</ele>
        <time>2020-06-25T10:58:11Z</time>
      </trkpt>
      <trkpt lat="49.6936" lon="4.82928">
        <ele>150.3</ele>
        <time>2020-06-25T10:58:12Z</time>
      </trkpt>
      <trkpt lat="49.69361" lon="4.82929">
        <ele>150.3</ele>
        <time>2020-06-25T10:58:13Z</time>
      </trkpt>
      <trkpt lat="49.69362" lon="4.82929">
        <ele>150.3</ele>
        <time>2020-06-25T10:58:14Z</time>
      </trkpt>
      <trkpt lat="49.69363" lon="4.8293">
        <ele>150.3</ele>
        <time>2020-06-25T10:58:15Z</time>
      </trkpt>
      <trkpt lat="49.69364" lon="4.8293">
        <ele>150.3</ele>
        <time>2020-06-25T10:58:16Z</time>
      </trkpt>
      <trkpt lat="49.69366" lon="4.8293">
        <ele>150.3</ele>
        <time>2020-06-25T10:58:17Z</time>
      </trkpt>
      <trkpt lat="49.69367" lon="4.8293">
        <ele>150.3</ele>
        <time>2020-06-25T10:58:18Z</time>
      </trkpt>
      <trkpt lat="49.69368" lon="4.82931">
        <ele>150.3</ele>
        <time>2020-06-25T10:58:19Z</time>
      </trkpt>
      <trkpt lat="49.69369" lon="4.82931">
        <ele>150.3</ele>
        <time>2020-06-25T10:58:20Z</time>
      </trkpt>
      <trkpt lat="49.6937" lon="4.82931">
        <ele>150.3</ele>
        <time>2020-06-25T10:58:21Z</time>
      </trkpt>
      <trkpt lat="49.69371" lon="4.82932">
        <ele>150.3</ele>
        <time>2020-06-25T10:58:22Z</time>
      </trkpt>
      <trkpt lat="49.69372" lon="4.82932">
        <ele>150.3</ele>
        <time>2020-06-25T10:58:23Z</time>
      </trkpt>
      <trkpt lat="49.69373" lon="4.82932">
        <ele>150.3</ele>
        <time>2020-06-25T10:58:51Z</time>
      </trkpt>
      <trkpt lat="49.69374" lon="4.82933">
        <ele>150.3</ele>
        <time>2020-06-25T10:58:52Z</time>
      </trkpt>
      <trkpt lat="49.69376" lon="4.82936">
        <ele>150</ele>
        <time>2020-06-25T10:58:53Z</time>
      </trkpt>
      <trkpt lat="49.6938" lon="4.82942">
        <ele>149.7</ele>
        <time>2020-06-25T10:58:54Z</time>
      </trkpt>
      <trkpt lat="49.69382" lon="4.82948">
        <ele>149.5</ele>
        <time>2020-06-25T10:58:55Z</time>
      </trkpt>
      <trkpt lat="49.69385" lon="4.82954">
        <ele>149.2</ele>
        <time>2020-06-25T10:58:56Z</time>
      </trkpt>
      <trkpt lat="49.69388" lon="4.8296">
        <ele>149</ele>
        <time>2020-06-25T10:58:57Z</time>
      </trkpt>
      <trkpt lat="49.69391" lon="4.82967">
        <ele>148.6</ele>
        <time>2020-06-25T10:58:58Z</time>
      </trkpt>
      <trkpt lat="49.69394" lon="4.82973">
        <ele>148.3</ele>
        <time>2020-06-25T10:58:59Z</time>
      </trkpt>
      <trkpt lat="49.69397" lon="4.8298">
        <ele>147.9</ele>
        <time>2020-06-25T10:59:00Z</time>
      </trkpt>
      <trkpt lat="49.694" lon="4.82987">
        <ele>147.7</ele>
        <time>2020-06-25T10:59:01Z</time>
      </trkpt>
      <trkpt lat="49.69403" lon="4.82995">
        <ele>147.4</ele>
        <time>2020-06-25T10:59:02Z</time>
      </trkpt>
      <trkpt lat="49.69406" lon="4.83005">
        <ele>147.1</ele>
        <time>2020-06-25T10:59:03Z</time>
      </trkpt>
      <trkpt lat="49.6941" lon="4.83014">
        <ele>146.9</ele>
        <time>2020-06-25T10:59:04Z</time>
      </trkpt>
      <trkpt lat="49.69414" lon="4.83023">
        <ele>146.7</ele>
        <time>2020-06-25T10:59:05Z</time>
      </trkpt>
      <trkpt lat="49.69418" lon="4.83032">
        <ele>146.5</ele>
        <time>2020-06-25T10:59:06Z</time>
      </trkpt>
      <trkpt lat="49.69422" lon="4.8304">
        <ele>146.4</ele>
        <time>2020-06-25T10:59:07Z</time>
      </trkpt>
      <trkpt lat="49.69425" lon="4.83047">
        <ele>146.3</ele>
        <time>2020-06-25T10:59:08Z</time>
      </trkpt>
      <trkpt lat="49.69427" lon="4.83054">
        <ele>146.2</ele>
        <time>2020-06-25T10:59:09Z</time>
      </trkpt>
      <trkpt lat="49.69431" lon="4.83065">
        <ele>146.2</ele>
        <time>2020-06-25T10:59:10Z</time>
      </trkpt>
      <trkpt lat="49.69432" lon="4.83072">
        <ele>146.1</ele>
        <time>2020-06-25T10:59:11Z</time>
      </trkpt>
      <trkpt lat="49.69435" lon="4.83079">
        <ele>146.1</ele>
        <time>2020-06-25T10:59:12Z</time>
      </trkpt>
      <trkpt lat="49.69438" lon="4.83083">
        <ele>146.1</ele>
        <time>2020-06-25T10:59:13Z</time>
      </trkpt>
      <trkpt lat="49.6944" lon="4.83088">
        <ele>146.1</ele>
        <time>2020-06-25T10:59:14Z</time>
      </trkpt>
      <trkpt lat="49.69443" lon="4.83094">
        <ele>146.1</ele>
        <time>2020-06-25T10:59:15Z</time>
      </trkpt>
      <trkpt lat="49.69445" lon="4.831">
        <ele>146</ele>
        <time>2020-06-25T10:59:16Z</time>
      </trkpt>
      <trkpt lat="49.69448" lon="4.83107">
        <ele>146</ele>
        <time>2020-06-25T10:59:17Z</time>
      </trkpt>
      <trkpt lat="49.6945" lon="4.83114">
        <ele>146</ele>
        <time>2020-06-25T10:59:18Z</time>
      </trkpt>
      <trkpt lat="49.69452" lon="4.83117">
        <ele>146</ele>
        <time>2020-06-25T10:59:19Z</time>
      </trkpt>
      <trkpt lat="49.69454" lon="4.83123">
        <ele>146</ele>
        <time>2020-06-25T10:59:20Z</time>
      </trkpt>
      <trkpt lat="49.69456" lon="4.83127">
        <ele>146</ele>
        <time>2020-06-25T10:59:21Z</time>
      </trkpt>
      <trkpt lat="49.69458" lon="4.83132">
        <ele>146</ele>
        <time>2020-06-25T10:59:22Z</time>
      </trkpt>
      <trkpt lat="49.69461" lon="4.83137">
        <ele>146</ele>
        <time>2020-06-25T10:59:23Z</time>
      </trkpt>
      <trkpt lat="49.69463" lon="4.8314">
        <ele>146</ele>
        <time>2020-06-25T10:59:24Z</time>
      </trkpt>
      <trkpt lat="49.69464" lon="4.83145">
        <ele>146</ele>
        <time>2020-06-25T10:59:25Z</time>
      </trkpt>
      <trkpt lat="49.69465" lon="4.8315">
        <ele>146</ele>
        <time>2020-06-25T10:59:26Z</time>
      </trkpt>
      <trkpt lat="49.69467" lon="4.83155">
        <ele>146</ele>
        <time>2020-06-25T10:59:27Z</time>
      </trkpt>
      <trkpt lat="49.69468" lon="4.83156">
        <ele>146</ele>
        <time>2020-06-25T10:59:28Z</time>
      </trkpt>
      <trkpt lat="49.69471" lon="4.83158">
        <ele>146.1</ele>
        <time>2020-06-25T10:59:29Z</time>
      </trkpt>
      <trkpt lat="49.69474" lon="4.83161">
        <ele>146.1</ele>
        <time>2020-06-25T10:59:30Z</time>
      </trkpt>
      <trkpt lat="49.69476" lon="4.83166">
        <ele>146.1</ele>
        <time>2020-06-25T10:59:31Z</time>
      </trkpt>
      <trkpt lat="49.69479" lon="4.83171">
        <ele>146.1</ele>
        <time>2020-06-25T10:59:32Z</time>
      </trkpt>
      <trkpt lat="49.69481" lon="4.83175">
        <ele>146</ele>
        <time>2020-06-25T10:59:33Z</time>
      </trkpt>
      <trkpt lat="49.69484" lon="4.83181">
        <ele>146</ele>
        <time>2020-06-25T10:59:34Z</time>
      </trkpt>
      <trkpt lat="49.69488" lon="4.83186">
        <ele>146</ele>
        <time>2020-06-25T10:59:35Z</time>
      </trkpt>
      <trkpt lat="49.6949" lon="4.83188">
        <ele>146</ele>
        <time>2020-06-25T10:59:36Z</time>
      </trkpt>
      <trkpt lat="49.69493" lon="4.83193">
        <ele>145.9</ele>
        <time>2020-06-25T10:59:37Z</time>
      </trkpt>
      <trkpt lat="49.69497" lon="4.83199">
        <ele>145.9</ele>
        <time>2020-06-25T10:59:38Z</time>
      </trkpt>
      <trkpt lat="49.695" lon="4.83203">
        <ele>145.9</ele>
        <time>2020-06-25T10:59:39Z</time>
      </trkpt>
      <trkpt lat="49.69505" lon="4.83212">
        <ele>145.9</ele>
        <time>2020-06-25T10:59:40Z</time>
      </trkpt>
      <trkpt lat="49.69508" lon="4.83217">
        <ele>145.9</ele>
        <time>2020-06-25T10:59:41Z</time>
      </trkpt>
      <trkpt lat="49.69511" lon="4.83221">
        <ele>145.9</ele>
        <time>2020-06-25T10:59:42Z</time>
      </trkpt>
      <trkpt lat="49.69515" lon="4.83226">
        <ele>145.9</ele>
        <time>2020-06-25T10:59:43Z</time>
      </trkpt>
      <trkpt lat="49.69519" lon="4.83231">
        <ele>145.9</ele>
        <time>2020-06-25T10:59:44Z</time>
      </trkpt>
      <trkpt lat="49.69523" lon="4.83237">
        <ele>146</ele>
        <time>2020-06-25T10:59:45Z</time>
      </trkpt>
      <trkpt lat="49.69526" lon="4.83243">
        <ele>146</ele>
        <time>2020-06-25T10:59:46Z</time>
      </trkpt>
      <trkpt lat="49.69529" lon="4.83247">
        <ele>146</ele>
        <time>2020-06-25T10:59:47Z</time>
      </trkpt>
      <trkpt lat="49.69533" lon="4.83252">
        <ele>146.1</ele>
        <time>2020-06-25T10:59:48Z</time>
      </trkpt>
      <trkpt lat="49.69536" lon="4.83256">
        <ele>146.1</ele>
        <time>2020-06-25T10:59:49Z</time>
      </trkpt>
      <trkpt lat="49.6954" lon="4.83262">
        <ele>146.2</ele>
        <time>2020-06-25T10:59:50Z</time>
      </trkpt>
      <trkpt lat="49.69543" lon="4.83266">
        <ele>146.2</ele>
        <time>2020-06-25T10:59:51Z</time>
      </trkpt>
      <trkpt lat="49.69547" lon="4.83273">
        <ele>146.3</ele>
        <time>2020-06-25T10:59:52Z</time>
      </trkpt>
      <trkpt lat="49.69551" lon="4.83278">
        <ele>146.3</ele>
        <time>2020-06-25T10:59:53Z</time>
      </trkpt>
      <trkpt lat="49.69554" lon="4.83282">
        <ele>146.3</ele>
        <time>2020-06-25T10:59:54Z</time>
      </trkpt>
      <trkpt lat="49.69558" lon="4.83289">
        <ele>146.2</ele>
        <time>2020-06-25T10:59:55Z</time>
      </trkpt>
      <trkpt lat="49.69561" lon="4.83294">
        <ele>146.2</ele>
        <time>2020-06-25T10:59:56Z</time>
      </trkpt>
      <trkpt lat="49.69564" lon="4.83299">
        <ele>146.2</ele>
        <time>2020-06-25T10:59:57Z</time>
      </trkpt>
      <trkpt lat="49.69568" lon="4.83304">
        <ele>146.3</ele>
        <time>2020-06-25T10:59:58Z</time>
      </trkpt>
      <trkpt lat="49.69572" lon="4.8331">
        <ele>146.3</ele>
        <time>2020-06-25T10:59:59Z</time>
      </trkpt>
      <trkpt lat="49.69574" lon="4.83315">
        <ele>146.3</ele>
        <time>2020-06-25T11:00:00Z</time>
      </trkpt>
      <trkpt lat="49.69577" lon="4.8332">
        <ele>146.3</ele>
        <time>2020-06-25T11:00:01Z</time>
      </trkpt>
      <trkpt lat="49.69581" lon="4.83327">
        <ele>146.3</ele>
        <time>2020-06-25T11:00:02Z</time>
      </trkpt>
      <trkpt lat="49.69583" lon="4.83332">
        <ele>146.3</ele>
        <time>2020-06-25T11:00:03Z</time>
      </trkpt>
      <trkpt lat="49.69586" lon="4.8334">
        <ele>146.3</ele>
        <time>2020-06-25T11:00:04Z</time>
      </trkpt>
      <trkpt lat="49.69589" lon="4.83345">
        <ele>146.3</ele>
        <time>2020-06-25T11:00:05Z</time>
      </trkpt>
      <trkpt lat="49.69591" lon="4.8335">
        <ele>146.3</ele>
        <time>2020-06-25T11:00:06Z</time>
      </trkpt>
      <trkpt lat="49.69595" lon="4.83355">
        <ele>146.3</ele>
        <time>2020-06-25T11:00:07Z</time>
      </trkpt>
      <trkpt lat="49.69598" lon="4.8336">
        <ele>146.3</ele>
        <time>2020-06-25T11:00:08Z</time>
      </trkpt>
      <trkpt lat="49.69602" lon="4.83366">
        <ele>146.3</ele>
        <time>2020-06-25T11:00:09Z</time>
      </trkpt>
      <trkpt lat="49.69606" lon="4.8337">
        <ele>146.3</ele>
        <time>2020-06-25T11:00:10Z</time>
      </trkpt>
      <trkpt lat="49.69607" lon="4.83373">
        <ele>146.3</ele>
        <time>2020-06-25T11:00:11Z</time>
      </trkpt>
      <trkpt lat="49.6961" lon="4.83378">
        <ele>146.3</ele>
        <time>2020-06-25T11:00:12Z</time>
      </trkpt>
      <trkpt lat="49.69614" lon="4.83383">
        <ele>146.3</ele>
        <time>2020-06-25T11:00:13Z</time>
      </trkpt>
      <trkpt lat="49.69617" lon="4.83389">
        <ele>146.3</ele>
        <time>2020-06-25T11:00:14Z</time>
      </trkpt>
      <trkpt lat="49.6962" lon="4.83395">
        <ele>146.4</ele>
        <time>2020-06-25T11:00:15Z</time>
      </trkpt>
      <trkpt lat="49.69623" lon="4.83402">
        <ele>146.4</ele>
        <time>2020-06-25T11:00:16Z</time>
      </trkpt>
      <trkpt lat="49.69625" lon="4.83405">
        <ele>146.4</ele>
        <time>2020-06-25T11:00:17Z</time>
      </trkpt>
      <trkpt lat="49.69628" lon="4.83413">
        <ele>146.4</ele>
        <time>2020-06-25T11:00:18Z</time>
      </trkpt>
      <trkpt lat="49.69631" lon="4.83419">
        <ele>146.4</ele>
        <time>2020-06-25T11:00:19Z</time>
      </trkpt>
      <trkpt lat="49.69635" lon="4.83427">
        <ele>146.5</ele>
        <time>2020-06-25T11:00:20Z</time>
      </trkpt>
      <trkpt lat="49.69637" lon="4.83432">
        <ele>146.5</ele>
        <time>2020-06-25T11:00:21Z</time>
      </trkpt>
      <trkpt lat="49.69639" lon="4.83436">
        <ele>146.5</ele>
        <time>2020-06-25T11:00:22Z</time>
      </trkpt>
      <trkpt lat="49.69642" lon="4.83442">
        <ele>146.5</ele>
        <time>2020-06-25T11:00:23Z</time>
      </trkpt>
      <trkpt lat="49.69644" lon="4.83448">
        <ele>146.4</ele>
        <time>2020-06-25T11:00:24Z</time>
      </trkpt>
      <trkpt lat="49.69647" lon="4.83453">
        <ele>146.4</ele>
        <time>2020-06-25T11:00:25Z</time>
      </trkpt>
      <trkpt lat="49.6965" lon="4.83456">
        <ele>146.4</ele>
        <time>2020-06-25T11:00:26Z</time>
      </trkpt>
      <trkpt lat="49.69654" lon="4.83461">
        <ele>146.4</ele>
        <time>2020-06-25T11:00:27Z</time>
      </trkpt>
      <trkpt lat="49.69659" lon="4.8347">
        <ele>146.4</ele>
        <time>2020-06-25T11:00:28Z</time>
      </trkpt>
      <trkpt lat="49.69663" lon="4.83479">
        <ele>146.5</ele>
        <time>2020-06-25T11:00:29Z</time>
      </trkpt>
      <trkpt lat="49.69667" lon="4.83484">
        <ele>146.5</ele>
        <time>2020-06-25T11:00:30Z</time>
      </trkpt>
      <trkpt lat="49.6967" lon="4.83497">
        <ele>146.5</ele>
        <time>2020-06-25T11:00:31Z</time>
      </trkpt>
      <trkpt lat="49.69671" lon="4.83502">
        <ele>146.5</ele>
        <time>2020-06-25T11:00:32Z</time>
      </trkpt>
      <trkpt lat="49.69673" lon="4.83509">
        <ele>146.5</ele>
        <time>2020-06-25T11:00:33Z</time>
      </trkpt>
      <trkpt lat="49.69675" lon="4.83517">
        <ele>146.5</ele>
        <time>2020-06-25T11:00:34Z</time>
      </trkpt>
      <trkpt lat="49.69677" lon="4.83523">
        <ele>146.5</ele>
        <time>2020-06-25T11:00:35Z</time>
      </trkpt>
      <trkpt lat="49.6968" lon="4.83529">
        <ele>146.5</ele>
        <time>2020-06-25T11:00:36Z</time>
      </trkpt>
      <trkpt lat="49.69683" lon="4.83535">
        <ele>146.4</ele>
        <time>2020-06-25T11:00:37Z</time>
      </trkpt>
      <trkpt lat="49.69686" lon="4.8354">
        <ele>146.4</ele>
        <time>2020-06-25T11:00:38Z</time>
      </trkpt>
      <trkpt lat="49.69689" lon="4.83546">
        <ele>146.4</ele>
        <time>2020-06-25T11:00:39Z</time>
      </trkpt>
      <trkpt lat="49.69692" lon="4.83553">
        <ele>146.3</ele>
        <time>2020-06-25T11:00:40Z</time>
      </trkpt>
      <trkpt lat="49.69695" lon="4.83559">
        <ele>146.3</ele>
        <time>2020-06-25T11:00:41Z</time>
      </trkpt>
      <trkpt lat="49.69699" lon="4.83566">
        <ele>146.3</ele>
        <time>2020-06-25T11:00:42Z</time>
      </trkpt>
      <trkpt lat="49.69701" lon="4.8357">
        <ele>146.3</ele>
        <time>2020-06-25T11:00:43Z</time>
      </trkpt>
      <trkpt lat="49.69704" lon="4.83577">
        <ele>146.3</ele>
        <time>2020-06-25T11:00:44Z</time>
      </trkpt>
      <trkpt lat="49.69707" lon="4.83586">
        <ele>146.3</ele>
        <time>2020-06-25T11:00:45Z</time>
      </trkpt>
      <trkpt lat="49.69711" lon="4.83595">
        <ele>146.3</ele>
        <time>2020-06-25T11:00:46Z</time>
      </trkpt>
      <trkpt lat="49.69713" lon="4.83601">
        <ele>146.3</ele>
        <time>2020-06-25T11:00:47Z</time>
      </trkpt>
      <trkpt lat="49.69717" lon="4.83607">
        <ele>146.3</ele>
        <time>2020-06-25T11:00:48Z</time>
      </trkpt>
      <trkpt lat="49.69719" lon="4.83613">
        <ele>146.3</ele>
        <time>2020-06-25T11:00:49Z</time>
      </trkpt>
      <trkpt lat="49.69721" lon="4.8362">
        <ele>146.2</ele>
        <time>2020-06-25T11:00:50Z</time>
      </trkpt>
      <trkpt lat="49.69725" lon="4.8363">
        <ele>146.2</ele>
        <time>2020-06-25T11:00:51Z</time>
      </trkpt>
      <trkpt lat="49.69726" lon="4.83637">
        <ele>146.2</ele>
        <time>2020-06-25T11:00:52Z</time>
      </trkpt>
      <trkpt lat="49.69728" lon="4.83644">
        <ele>146.2</ele>
        <time>2020-06-25T11:00:53Z</time>
      </trkpt>
      <trkpt lat="49.69731" lon="4.83653">
        <ele>146.2</ele>
        <time>2020-06-25T11:00:54Z</time>
      </trkpt>
      <trkpt lat="49.69733" lon="4.83661">
        <ele>146.2</ele>
        <time>2020-06-25T11:00:55Z</time>
      </trkpt>
      <trkpt lat="49.69735" lon="4.83669">
        <ele>146.3</ele>
        <time>2020-06-25T11:00:56Z</time>
      </trkpt>
      <trkpt lat="49.69737" lon="4.83675">
        <ele>146.3</ele>
        <time>2020-06-25T11:00:57Z</time>
      </trkpt>
      <trkpt lat="49.69738" lon="4.83683">
        <ele>146.4</ele>
        <time>2020-06-25T11:00:58Z</time>
      </trkpt>
      <trkpt lat="49.6974" lon="4.83691">
        <ele>146.5</ele>
        <time>2020-06-25T11:00:59Z</time>
      </trkpt>
      <trkpt lat="49.69741" lon="4.83699">
        <ele>146.5</ele>
        <time>2020-06-25T11:01:00Z</time>
      </trkpt>
      <trkpt lat="49.69743" lon="4.83705">
        <ele>146.6</ele>
        <time>2020-06-25T11:01:01Z</time>
      </trkpt>
      <trkpt lat="49.69744" lon="4.83715">
        <ele>146.7</ele>
        <time>2020-06-25T11:01:02Z</time>
      </trkpt>
      <trkpt lat="49.69745" lon="4.83723">
        <ele>146.7</ele>
        <time>2020-06-25T11:01:03Z</time>
      </trkpt>
      <trkpt lat="49.69746" lon="4.83731">
        <ele>146.8</ele>
        <time>2020-06-25T11:01:04Z</time>
      </trkpt>
      <trkpt lat="49.69747" lon="4.83739">
        <ele>146.8</ele>
        <time>2020-06-25T11:01:05Z</time>
      </trkpt>
      <trkpt lat="49.69748" lon="4.83747">
        <ele>146.9</ele>
        <time>2020-06-25T11:01:06Z</time>
      </trkpt>
      <trkpt lat="49.69749" lon="4.83756">
        <ele>146.9</ele>
        <time>2020-06-25T11:01:07Z</time>
      </trkpt>
      <trkpt lat="49.6975" lon="4.83764">
        <ele>146.9</ele>
        <time>2020-06-25T11:01:08Z</time>
      </trkpt>
      <trkpt lat="49.6975" lon="4.83774">
        <ele>146.9</ele>
        <time>2020-06-25T11:01:09Z</time>
      </trkpt>
      <trkpt lat="49.69751" lon="4.83784">
        <ele>146.9</ele>
        <time>2020-06-25T11:01:10Z</time>
      </trkpt>
      <trkpt lat="49.69751" lon="4.83792">
        <ele>147</ele>
        <time>2020-06-25T11:01:11Z</time>
      </trkpt>
      <trkpt lat="49.69752" lon="4.838">
        <ele>147</ele>
        <time>2020-06-25T11:01:12Z</time>
      </trkpt>
      <trkpt lat="49.69751" lon="4.83808">
        <ele>147</ele>
        <time>2020-06-25T11:01:13Z</time>
      </trkpt>
      <trkpt lat="49.69751" lon="4.83816">
        <ele>147.1</ele>
        <time>2020-06-25T11:01:14Z</time>
      </trkpt>
      <trkpt lat="49.6975" lon="4.83824">
        <ele>147.1</ele>
        <time>2020-06-25T11:01:15Z</time>
      </trkpt>
      <trkpt lat="49.69748" lon="4.83832">
        <ele>147.1</ele>
        <time>2020-06-25T11:01:16Z</time>
      </trkpt>
      <trkpt lat="49.69747" lon="4.8384">
        <ele>147.1</ele>
        <time>2020-06-25T11:01:17Z</time>
      </trkpt>
      <trkpt lat="49.69745" lon="4.83847">
        <ele>147.1</ele>
        <time>2020-06-25T11:01:18Z</time>
      </trkpt>
      <trkpt lat="49.69743" lon="4.83856">
        <ele>147.1</ele>
        <time>2020-06-25T11:01:19Z</time>
      </trkpt>
      <trkpt lat="49.69741" lon="4.83864">
        <ele>147.1</ele>
        <time>2020-06-25T11:01:20Z</time>
      </trkpt>
      <trkpt lat="49.6974" lon="4.83872">
        <ele>147.1</ele>
        <time>2020-06-25T11:01:21Z</time>
      </trkpt>
      <trkpt lat="49.69738" lon="4.8388">
        <ele>147.1</ele>
        <time>2020-06-25T11:01:22Z</time>
      </trkpt>
      <trkpt lat="49.69736" lon="4.83888">
        <ele>147.1</ele>
        <time>2020-06-25T11:01:23Z</time>
      </trkpt>
      <trkpt lat="49.69735" lon="4.83897">
        <ele>147.1</ele>
        <time>2020-06-25T11:01:24Z</time>
      </trkpt>
      <trkpt lat="49.69733" lon="4.83907">
        <ele>147.1</ele>
        <time>2020-06-25T11:01:25Z</time>
      </trkpt>
      <trkpt lat="49.69732" lon="4.83912">
        <ele>147.1</ele>
        <time>2020-06-25T11:01:26Z</time>
      </trkpt>
      <trkpt lat="49.69729" lon="4.83921">
        <ele>147.1</ele>
        <time>2020-06-25T11:01:27Z</time>
      </trkpt>
      <trkpt lat="49.69727" lon="4.8393">
        <ele>147.1</ele>
        <time>2020-06-25T11:01:28Z</time>
      </trkpt>
      <trkpt lat="49.69724" lon="4.83938">
        <ele>147.1</ele>
        <time>2020-06-25T11:01:29Z</time>
      </trkpt>
      <trkpt lat="49.69723" lon="4.83946">
        <ele>147.1</ele>
        <time>2020-06-25T11:01:30Z</time>
      </trkpt>
      <trkpt lat="49.69721" lon="4.83955">
        <ele>147.1</ele>
        <time>2020-06-25T11:01:31Z</time>
      </trkpt>
      <trkpt lat="49.6972" lon="4.83964">
        <ele>147.1</ele>
        <time>2020-06-25T11:01:32Z</time>
      </trkpt>
      <trkpt lat="49.69718" lon="4.83973">
        <ele>147.1</ele>
        <time>2020-06-25T11:01:33Z</time>
      </trkpt>
      <trkpt lat="49.69717" lon="4.83982">
        <ele>147.1</ele>
        <time>2020-06-25T11:01:34Z</time>
      </trkpt>
      <trkpt lat="49.69717" lon="4.83991">
        <ele>147.1</ele>
        <time>2020-06-25T11:01:35Z</time>
      </trkpt>
      <trkpt lat="49.69717" lon="4.83997">
        <ele>147.1</ele>
        <time>2020-06-25T11:01:36Z</time>
      </trkpt>
      <trkpt lat="49.69716" lon="4.84004">
        <ele>147.1</ele>
        <time>2020-06-25T11:01:37Z</time>
      </trkpt>
      <trkpt lat="49.69715" lon="4.84011">
        <ele>147.1</ele>
        <time>2020-06-25T11:01:38Z</time>
      </trkpt>
      <trkpt lat="49.69715" lon="4.84018">
        <ele>147.1</ele>
        <time>2020-06-25T11:01:39Z</time>
      </trkpt>
      <trkpt lat="49.69715" lon="4.84024">
        <ele>147.1</ele>
        <time>2020-06-25T11:01:40Z</time>
      </trkpt>
      <trkpt lat="49.69714" lon="4.84031">
        <ele>147.1</ele>
        <time>2020-06-25T11:01:41Z</time>
      </trkpt>
      <trkpt lat="49.69714" lon="4.84038">
        <ele>147</ele>
        <time>2020-06-25T11:01:42Z</time>
      </trkpt>
      <trkpt lat="49.69713" lon="4.84045">
        <ele>147</ele>
        <time>2020-06-25T11:01:43Z</time>
      </trkpt>
      <trkpt lat="49.69713" lon="4.84051">
        <ele>147</ele>
        <time>2020-06-25T11:01:44Z</time>
      </trkpt>
      <trkpt lat="49.69713" lon="4.84057">
        <ele>147</ele>
        <time>2020-06-25T11:01:45Z</time>
      </trkpt>
      <trkpt lat="49.69714" lon="4.84065">
        <ele>147</ele>
        <time>2020-06-25T11:01:46Z</time>
      </trkpt>
      <trkpt lat="49.69713" lon="4.8407">
        <ele>147</ele>
        <time>2020-06-25T11:01:47Z</time>
      </trkpt>
      <trkpt lat="49.69713" lon="4.84076">
        <ele>147</ele>
        <time>2020-06-25T11:01:48Z</time>
      </trkpt>
      <trkpt lat="49.69713" lon="4.84079">
        <ele>147</ele>
        <time>2020-06-25T11:01:49Z</time>
      </trkpt>
      <trkpt lat="49.69715" lon="4.84083">
        <ele>147.1</ele>
        <time>2020-06-25T11:01:50Z</time>
      </trkpt>
      <trkpt lat="49.69717" lon="4.84086">
        <ele>147.1</ele>
        <time>2020-06-25T11:01:51Z</time>
      </trkpt>
      <trkpt lat="49.69719" lon="4.84092">
        <ele>147.1</ele>
        <time>2020-06-25T11:01:52Z</time>
      </trkpt>
      <trkpt lat="49.6972" lon="4.841">
        <ele>147.1</ele>
        <time>2020-06-25T11:01:53Z</time>
      </trkpt>
      <trkpt lat="49.69722" lon="4.84106">
        <ele>147.1</ele>
        <time>2020-06-25T11:01:54Z</time>
      </trkpt>
      <trkpt lat="49.69723" lon="4.84112">
        <ele>147.2</ele>
        <time>2020-06-25T11:01:55Z</time>
      </trkpt>
      <trkpt lat="49.69725" lon="4.84117">
        <ele>147.2</ele>
        <time>2020-06-25T11:01:56Z</time>
      </trkpt>
      <trkpt lat="49.69727" lon="4.84124">
        <ele>147.2</ele>
        <time>2020-06-25T11:01:57Z</time>
      </trkpt>
      <trkpt lat="49.69728" lon="4.8413">
        <ele>147.2</ele>
        <time>2020-06-25T11:01:58Z</time>
      </trkpt>
      <trkpt lat="49.6973" lon="4.84137">
        <ele>147.2</ele>
        <time>2020-06-25T11:01:59Z</time>
      </trkpt>
      <trkpt lat="49.69732" lon="4.84145">
        <ele>147.2</ele>
        <time>2020-06-25T11:02:00Z</time>
      </trkpt>
      <trkpt lat="49.69734" lon="4.8415">
        <ele>147.2</ele>
        <time>2020-06-25T11:02:01Z</time>
      </trkpt>
      <trkpt lat="49.69735" lon="4.84158">
        <ele>147.2</ele>
        <time>2020-06-25T11:02:02Z</time>
      </trkpt>
      <trkpt lat="49.69738" lon="4.84166">
        <ele>147.2</ele>
        <time>2020-06-25T11:02:03Z</time>
      </trkpt>
      <trkpt lat="49.69739" lon="4.84174">
        <ele>147.3</ele>
        <time>2020-06-25T11:02:04Z</time>
      </trkpt>
      <trkpt lat="49.69741" lon="4.84182">
        <ele>147.3</ele>
        <time>2020-06-25T11:02:05Z</time>
      </trkpt>
      <trkpt lat="49.69743" lon="4.84192">
        <ele>147.3</ele>
        <time>2020-06-25T11:02:06Z</time>
      </trkpt>
      <trkpt lat="49.69743" lon="4.842">
        <ele>147.3</ele>
        <time>2020-06-25T11:02:07Z</time>
      </trkpt>
      <trkpt lat="49.69744" lon="4.8421">
        <ele>147.3</ele>
        <time>2020-06-25T11:02:08Z</time>
      </trkpt>
      <trkpt lat="49.69745" lon="4.84219">
        <ele>147.3</ele>
        <time>2020-06-25T11:02:09Z</time>
      </trkpt>
      <trkpt lat="49.69746" lon="4.84226">
        <ele>147.4</ele>
        <time>2020-06-25T11:02:10Z</time>
      </trkpt>
      <trkpt lat="49.69748" lon="4.84234">
        <ele>147.4</ele>
        <time>2020-06-25T11:02:11Z</time>
      </trkpt>
      <trkpt lat="49.69749" lon="4.84243">
        <ele>147.4</ele>
        <time>2020-06-25T11:02:12Z</time>
      </trkpt>
      <trkpt lat="49.6975" lon="4.84251">
        <ele>147.4</ele>
        <time>2020-06-25T11:02:13Z</time>
      </trkpt>
      <trkpt lat="49.69751" lon="4.84258">
        <ele>147.4</ele>
        <time>2020-06-25T11:02:14Z</time>
      </trkpt>
      <trkpt lat="49.69752" lon="4.84266">
        <ele>147.4</ele>
        <time>2020-06-25T11:02:15Z</time>
      </trkpt>
      <trkpt lat="49.69752" lon="4.84275">
        <ele>147.4</ele>
        <time>2020-06-25T11:02:16Z</time>
      </trkpt>
      <trkpt lat="49.69752" lon="4.84287">
        <ele>147.4</ele>
        <time>2020-06-25T11:02:17Z</time>
      </trkpt>
      <trkpt lat="49.69753" lon="4.84298">
        <ele>147.4</ele>
        <time>2020-06-25T11:02:18Z</time>
      </trkpt>
      <trkpt lat="49.69754" lon="4.84307">
        <ele>147.4</ele>
        <time>2020-06-25T11:02:19Z</time>
      </trkpt>
      <trkpt lat="49.69754" lon="4.84315">
        <ele>147.4</ele>
        <time>2020-06-25T11:02:20Z</time>
      </trkpt>
      <trkpt lat="49.69754" lon="4.84323">
        <ele>147.4</ele>
        <time>2020-06-25T11:02:21Z</time>
      </trkpt>
      <trkpt lat="49.69755" lon="4.8433">
        <ele>147.4</ele>
        <time>2020-06-25T11:02:22Z</time>
      </trkpt>
      <trkpt lat="49.69755" lon="4.84338">
        <ele>147.4</ele>
        <time>2020-06-25T11:02:23Z</time>
      </trkpt>
      <trkpt lat="49.69756" lon="4.84347">
        <ele>147.5</ele>
        <time>2020-06-25T11:02:24Z</time>
      </trkpt>
      <trkpt lat="49.69757" lon="4.84355">
        <ele>147.5</ele>
        <time>2020-06-25T11:02:25Z</time>
      </trkpt>
      <trkpt lat="49.69758" lon="4.84364">
        <ele>147.5</ele>
        <time>2020-06-25T11:02:26Z</time>
      </trkpt>
      <trkpt lat="49.69758" lon="4.84371">
        <ele>147.5</ele>
        <time>2020-06-25T11:02:27Z</time>
      </trkpt>
      <trkpt lat="49.69758" lon="4.84381">
        <ele>147.6</ele>
        <time>2020-06-25T11:02:28Z</time>
      </trkpt>
      <trkpt lat="49.69758" lon="4.8439">
        <ele>147.6</ele>
        <time>2020-06-25T11:02:29Z</time>
      </trkpt>
      <trkpt lat="49.69757" lon="4.844">
        <ele>147.6</ele>
        <time>2020-06-25T11:02:30Z</time>
      </trkpt>
      <trkpt lat="49.69757" lon="4.84409">
        <ele>147.6</ele>
        <time>2020-06-25T11:02:31Z</time>
      </trkpt>
      <trkpt lat="49.69757" lon="4.84415">
        <ele>147.6</ele>
        <time>2020-06-25T11:02:32Z</time>
      </trkpt>
      <trkpt lat="49.69756" lon="4.84422">
        <ele>147.6</ele>
        <time>2020-06-25T11:02:33Z</time>
      </trkpt>
      <trkpt lat="49.69756" lon="4.84432">
        <ele>147.6</ele>
        <time>2020-06-25T11:02:34Z</time>
      </trkpt>
      <trkpt lat="49.69754" lon="4.8444">
        <ele>147.6</ele>
        <time>2020-06-25T11:02:35Z</time>
      </trkpt>
      <trkpt lat="49.69752" lon="4.84448">
        <ele>147.6</ele>
        <time>2020-06-25T11:02:36Z</time>
      </trkpt>
      <trkpt lat="49.69751" lon="4.84457">
        <ele>147.6</ele>
        <time>2020-06-25T11:02:37Z</time>
      </trkpt>
      <trkpt lat="49.6975" lon="4.84466">
        <ele>147.5</ele>
        <time>2020-06-25T11:02:38Z</time>
      </trkpt>
      <trkpt lat="49.6975" lon="4.84474">
        <ele>147.5</ele>
        <time>2020-06-25T11:02:39Z</time>
      </trkpt>
      <trkpt lat="49.69749" lon="4.84485">
        <ele>147.5</ele>
        <time>2020-06-25T11:02:40Z</time>
      </trkpt>
      <trkpt lat="49.69749" lon="4.84495">
        <ele>147.5</ele>
        <time>2020-06-25T11:02:41Z</time>
      </trkpt>
      <trkpt lat="49.69747" lon="4.84503">
        <ele>147.5</ele>
        <time>2020-06-25T11:02:42Z</time>
      </trkpt>
      <trkpt lat="49.69746" lon="4.8451">
        <ele>147.5</ele>
        <time>2020-06-25T11:02:43Z</time>
      </trkpt>
      <trkpt lat="49.69745" lon="4.8452">
        <ele>147.4</ele>
        <time>2020-06-25T11:02:44Z</time>
      </trkpt>
      <trkpt lat="49.69744" lon="4.84529">
        <ele>147.4</ele>
        <time>2020-06-25T11:02:45Z</time>
      </trkpt>
      <trkpt lat="49.69742" lon="4.84538">
        <ele>147.3</ele>
        <time>2020-06-25T11:02:46Z</time>
      </trkpt>
      <trkpt lat="49.69741" lon="4.84543">
        <ele>147.3</ele>
        <time>2020-06-25T11:02:47Z</time>
      </trkpt>
      <trkpt lat="49.6974" lon="4.84553">
        <ele>147.3</ele>
        <time>2020-06-25T11:02:48Z</time>
      </trkpt>
      <trkpt lat="49.6974" lon="4.84561">
        <ele>147.2</ele>
        <time>2020-06-25T11:02:49Z</time>
      </trkpt>
      <trkpt lat="49.69739" lon="4.84569">
        <ele>147.2</ele>
        <time>2020-06-25T11:02:50Z</time>
      </trkpt>
      <trkpt lat="49.69739" lon="4.84576">
        <ele>147.2</ele>
        <time>2020-06-25T11:02:51Z</time>
      </trkpt>
      <trkpt lat="49.69738" lon="4.84584">
        <ele>147.2</ele>
        <time>2020-06-25T11:02:52Z</time>
      </trkpt>
      <trkpt lat="49.69736" lon="4.84591">
        <ele>147.1</ele>
        <time>2020-06-25T11:02:53Z</time>
      </trkpt>
      <trkpt lat="49.69735" lon="4.846">
        <ele>147.1</ele>
        <time>2020-06-25T11:02:54Z</time>
      </trkpt>
      <trkpt lat="49.69733" lon="4.84609">
        <ele>147.1</ele>
        <time>2020-06-25T11:02:55Z</time>
      </trkpt>
      <trkpt lat="49.69732" lon="4.84619">
        <ele>147.1</ele>
        <time>2020-06-25T11:02:56Z</time>
      </trkpt>
      <trkpt lat="49.6973" lon="4.84629">
        <ele>147.1</ele>
        <time>2020-06-25T11:02:57Z</time>
      </trkpt>
      <trkpt lat="49.69729" lon="4.8464">
        <ele>147.2</ele>
        <time>2020-06-25T11:02:58Z</time>
      </trkpt>
      <trkpt lat="49.69727" lon="4.84649">
        <ele>147.2</ele>
        <time>2020-06-25T11:02:59Z</time>
      </trkpt>
      <trkpt lat="49.69725" lon="4.84658">
        <ele>147.2</ele>
        <time>2020-06-25T11:03:00Z</time>
      </trkpt>
      <trkpt lat="49.69724" lon="4.84667">
        <ele>147.2</ele>
        <time>2020-06-25T11:03:01Z</time>
      </trkpt>
      <trkpt lat="49.69722" lon="4.84677">
        <ele>147.4</ele>
        <time>2020-06-25T11:03:02Z</time>
      </trkpt>
      <trkpt lat="49.69721" lon="4.84687">
        <ele>147.4</ele>
        <time>2020-06-25T11:03:03Z</time>
      </trkpt>
      <trkpt lat="49.6972" lon="4.84696">
        <ele>147.5</ele>
        <time>2020-06-25T11:03:04Z</time>
      </trkpt>
      <trkpt lat="49.6972" lon="4.84704">
        <ele>147.5</ele>
        <time>2020-06-25T11:03:05Z</time>
      </trkpt>
      <trkpt lat="49.69718" lon="4.84715">
        <ele>147.5</ele>
        <time>2020-06-25T11:03:06Z</time>
      </trkpt>
      <trkpt lat="49.69718" lon="4.84724">
        <ele>147.5</ele>
        <time>2020-06-25T11:03:07Z</time>
      </trkpt>
      <trkpt lat="49.69717" lon="4.84735">
        <ele>147.5</ele>
        <time>2020-06-25T11:03:08Z</time>
      </trkpt>
      <trkpt lat="49.69718" lon="4.84742">
        <ele>147.5</ele>
        <time>2020-06-25T11:03:09Z</time>
      </trkpt>
      <trkpt lat="49.69716" lon="4.84753">
        <ele>147.5</ele>
        <time>2020-06-25T11:03:10Z</time>
      </trkpt>
      <trkpt lat="49.69715" lon="4.84762">
        <ele>147.5</ele>
        <time>2020-06-25T11:03:11Z</time>
      </trkpt>
      <trkpt lat="49.69713" lon="4.84771">
        <ele>147.5</ele>
        <time>2020-06-25T11:03:12Z</time>
      </trkpt>
      <trkpt lat="49.69713" lon="4.8478">
        <ele>147.5</ele>
        <time>2020-06-25T11:03:13Z</time>
      </trkpt>
      <trkpt lat="49.69712" lon="4.84789">
        <ele>147.5</ele>
        <time>2020-06-25T11:03:14Z</time>
      </trkpt>
      <trkpt lat="49.69711" lon="4.84799">
        <ele>147.5</ele>
        <time>2020-06-25T11:03:15Z</time>
      </trkpt>
      <trkpt lat="49.6971" lon="4.84808">
        <ele>147.5</ele>
        <time>2020-06-25T11:03:16Z</time>
      </trkpt>
      <trkpt lat="49.69709" lon="4.84818">
        <ele>147.5</ele>
        <time>2020-06-25T11:03:17Z</time>
      </trkpt>
      <trkpt lat="49.69708" lon="4.84827">
        <ele>147.5</ele>
        <time>2020-06-25T11:03:18Z</time>
      </trkpt>
      <trkpt lat="49.69708" lon="4.84836">
        <ele>147.5</ele>
        <time>2020-06-25T11:03:19Z</time>
      </trkpt>
      <trkpt lat="49.69707" lon="4.84844">
        <ele>147.5</ele>
        <time>2020-06-25T11:03:20Z</time>
      </trkpt>
      <trkpt lat="49.69709" lon="4.8485">
        <ele>147.5</ele>
        <time>2020-06-25T11:03:21Z</time>
      </trkpt>
      <trkpt lat="49.69709" lon="4.84854">
        <ele>147.5</ele>
        <time>2020-06-25T11:03:22Z</time>
      </trkpt>
      <trkpt lat="49.6971" lon="4.84862">
        <ele>147.5</ele>
        <time>2020-06-25T11:03:23Z</time>
      </trkpt>
      <trkpt lat="49.6971" lon="4.84869">
        <ele>147.5</ele>
        <time>2020-06-25T11:03:24Z</time>
      </trkpt>
      <trkpt lat="49.6971" lon="4.84877">
        <ele>147.5</ele>
        <time>2020-06-25T11:03:25Z</time>
      </trkpt>
      <trkpt lat="49.6971" lon="4.84886">
        <ele>147.5</ele>
        <time>2020-06-25T11:03:26Z</time>
      </trkpt>
      <trkpt lat="49.69711" lon="4.84896">
        <ele>147.5</ele>
        <time>2020-06-25T11:03:27Z</time>
      </trkpt>
      <trkpt lat="49.69711" lon="4.84906">
        <ele>147.4</ele>
        <time>2020-06-25T11:03:28Z</time>
      </trkpt>
      <trkpt lat="49.69711" lon="4.84915">
        <ele>147.4</ele>
        <time>2020-06-25T11:03:29Z</time>
      </trkpt>
      <trkpt lat="49.69711" lon="4.84925">
        <ele>147.4</ele>
        <time>2020-06-25T11:03:30Z</time>
      </trkpt>
      <trkpt lat="49.69711" lon="4.84934">
        <ele>147.4</ele>
        <time>2020-06-25T11:03:31Z</time>
      </trkpt>
      <trkpt lat="49.69711" lon="4.84944">
        <ele>147.4</ele>
        <time>2020-06-25T11:03:32Z</time>
      </trkpt>
      <trkpt lat="49.69712" lon="4.84952">
        <ele>147.4</ele>
        <time>2020-06-25T11:03:33Z</time>
      </trkpt>
      <trkpt lat="49.69712" lon="4.84962">
        <ele>147.4</ele>
        <time>2020-06-25T11:03:34Z</time>
      </trkpt>
      <trkpt lat="49.69713" lon="4.84974">
        <ele>147.4</ele>
        <time>2020-06-25T11:03:35Z</time>
      </trkpt>
      <trkpt lat="49.69714" lon="4.84985">
        <ele>147.4</ele>
        <time>2020-06-25T11:03:36Z</time>
      </trkpt>
      <trkpt lat="49.69715" lon="4.84996">
        <ele>147.5</ele>
        <time>2020-06-25T11:03:37Z</time>
      </trkpt>
      <trkpt lat="49.69716" lon="4.85006">
        <ele>147.5</ele>
        <time>2020-06-25T11:03:38Z</time>
      </trkpt>
      <trkpt lat="49.69716" lon="4.85014">
        <ele>147.5</ele>
        <time>2020-06-25T11:03:39Z</time>
      </trkpt>
      <trkpt lat="49.69717" lon="4.85023">
        <ele>147.5</ele>
        <time>2020-06-25T11:03:40Z</time>
      </trkpt>
      <trkpt lat="49.69716" lon="4.85033">
        <ele>147.5</ele>
        <time>2020-06-25T11:03:41Z</time>
      </trkpt>
      <trkpt lat="49.69716" lon="4.85043">
        <ele>147.6</ele>
        <time>2020-06-25T11:03:42Z</time>
      </trkpt>
      <trkpt lat="49.69717" lon="4.85051">
        <ele>147.6</ele>
        <time>2020-06-25T11:03:43Z</time>
      </trkpt>
      <trkpt lat="49.69718" lon="4.8506">
        <ele>147.6</ele>
        <time>2020-06-25T11:03:44Z</time>
      </trkpt>
      <trkpt lat="49.69719" lon="4.85069">
        <ele>147.6</ele>
        <time>2020-06-25T11:03:45Z</time>
      </trkpt>
      <trkpt lat="49.69721" lon="4.85076">
        <ele>147.5</ele>
        <time>2020-06-25T11:03:46Z</time>
      </trkpt>
      <trkpt lat="49.69724" lon="4.85083">
        <ele>147.5</ele>
        <time>2020-06-25T11:03:47Z</time>
      </trkpt>
      <trkpt lat="49.69726" lon="4.85092">
        <ele>147.5</ele>
        <time>2020-06-25T11:03:48Z</time>
      </trkpt>
      <trkpt lat="49.69729" lon="4.85102">
        <ele>147.5</ele>
        <time>2020-06-25T11:03:49Z</time>
      </trkpt>
      <trkpt lat="49.69732" lon="4.85111">
        <ele>147.4</ele>
        <time>2020-06-25T11:03:50Z</time>
      </trkpt>
      <trkpt lat="49.69736" lon="4.85121">
        <ele>147.4</ele>
        <time>2020-06-25T11:03:51Z</time>
      </trkpt>
      <trkpt lat="49.69738" lon="4.85129">
        <ele>147.4</ele>
        <time>2020-06-25T11:03:52Z</time>
      </trkpt>
      <trkpt lat="49.69741" lon="4.85136">
        <ele>147.4</ele>
        <time>2020-06-25T11:03:53Z</time>
      </trkpt>
      <trkpt lat="49.69744" lon="4.85144">
        <ele>147.4</ele>
        <time>2020-06-25T11:03:54Z</time>
      </trkpt>
      <trkpt lat="49.69748" lon="4.85153">
        <ele>147.4</ele>
        <time>2020-06-25T11:03:55Z</time>
      </trkpt>
      <trkpt lat="49.69751" lon="4.85161">
        <ele>147.4</ele>
        <time>2020-06-25T11:03:56Z</time>
      </trkpt>
      <trkpt lat="49.69755" lon="4.85171">
        <ele>147.4</ele>
        <time>2020-06-25T11:03:57Z</time>
      </trkpt>
      <trkpt lat="49.69758" lon="4.85178">
        <ele>147.4</ele>
        <time>2020-06-25T11:03:58Z</time>
      </trkpt>
      <trkpt lat="49.69762" lon="4.85187">
        <ele>147.3</ele>
        <time>2020-06-25T11:03:59Z</time>
      </trkpt>
      <trkpt lat="49.69767" lon="4.85197">
        <ele>147.3</ele>
        <time>2020-06-25T11:04:00Z</time>
      </trkpt>
      <trkpt lat="49.69772" lon="4.85206">
        <ele>147.3</ele>
        <time>2020-06-25T11:04:01Z</time>
      </trkpt>
      <trkpt lat="49.69776" lon="4.85214">
        <ele>147.2</ele>
        <time>2020-06-25T11:04:02Z</time>
      </trkpt>
      <trkpt lat="49.6978" lon="4.85224">
        <ele>147.2</ele>
        <time>2020-06-25T11:04:03Z</time>
      </trkpt>
      <trkpt lat="49.69784" lon="4.85233">
        <ele>147.2</ele>
        <time>2020-06-25T11:04:04Z</time>
      </trkpt>
      <trkpt lat="49.69787" lon="4.85242">
        <ele>147.2</ele>
        <time>2020-06-25T11:04:05Z</time>
      </trkpt>
      <trkpt lat="49.6979" lon="4.85251">
        <ele>147.2</ele>
        <time>2020-06-25T11:04:06Z</time>
      </trkpt>
      <trkpt lat="49.69793" lon="4.85261">
        <ele>147.2</ele>
        <time>2020-06-25T11:04:07Z</time>
      </trkpt>
      <trkpt lat="49.69795" lon="4.85271">
        <ele>147.2</ele>
        <time>2020-06-25T11:04:08Z</time>
      </trkpt>
      <trkpt lat="49.69797" lon="4.8528">
        <ele>147.2</ele>
        <time>2020-06-25T11:04:09Z</time>
      </trkpt>
      <trkpt lat="49.69799" lon="4.85288">
        <ele>147.2</ele>
        <time>2020-06-25T11:04:10Z</time>
      </trkpt>
      <trkpt lat="49.69801" lon="4.85298">
        <ele>147.3</ele>
        <time>2020-06-25T11:04:11Z</time>
      </trkpt>
      <trkpt lat="49.69804" lon="4.85308">
        <ele>147.3</ele>
        <time>2020-06-25T11:04:12Z</time>
      </trkpt>
      <trkpt lat="49.69806" lon="4.85316">
        <ele>147.3</ele>
        <time>2020-06-25T11:04:13Z</time>
      </trkpt>
      <trkpt lat="49.69809" lon="4.85326">
        <ele>147.3</ele>
        <time>2020-06-25T11:04:14Z</time>
      </trkpt>
      <trkpt lat="49.69812" lon="4.85335">
        <ele>147.3</ele>
        <time>2020-06-25T11:04:15Z</time>
      </trkpt>
      <trkpt lat="49.69814" lon="4.85343">
        <ele>147.3</ele>
        <time>2020-06-25T11:04:16Z</time>
      </trkpt>
      <trkpt lat="49.69816" lon="4.85353">
        <ele>147.3</ele>
        <time>2020-06-25T11:04:17Z</time>
      </trkpt>
      <trkpt lat="49.69818" lon="4.85363">
        <ele>147.3</ele>
        <time>2020-06-25T11:04:18Z</time>
      </trkpt>
      <trkpt lat="49.69821" lon="4.85372">
        <ele>147.3</ele>
        <time>2020-06-25T11:04:19Z</time>
      </trkpt>
      <trkpt lat="49.69823" lon="4.85377">
        <ele>147.3</ele>
        <time>2020-06-25T11:04:20Z</time>
      </trkpt>
      <trkpt lat="49.69826" lon="4.85388">
        <ele>147.3</ele>
        <time>2020-06-25T11:04:21Z</time>
      </trkpt>
      <trkpt lat="49.69829" lon="4.85396">
        <ele>147.3</ele>
        <time>2020-06-25T11:04:22Z</time>
      </trkpt>
      <trkpt lat="49.69831" lon="4.85403">
        <ele>147.4</ele>
        <time>2020-06-25T11:04:23Z</time>
      </trkpt>
      <trkpt lat="49.69833" lon="4.85413">
        <ele>147.4</ele>
        <time>2020-06-25T11:04:24Z</time>
      </trkpt>
      <trkpt lat="49.69835" lon="4.85421">
        <ele>147.4</ele>
        <time>2020-06-25T11:04:25Z</time>
      </trkpt>
      <trkpt lat="49.69837" lon="4.85428">
        <ele>147.4</ele>
        <time>2020-06-25T11:04:26Z</time>
      </trkpt>
      <trkpt lat="49.69839" lon="4.85436">
        <ele>147.4</ele>
        <time>2020-06-25T11:04:27Z</time>
      </trkpt>
      <trkpt lat="49.6984" lon="4.85445">
        <ele>147.4</ele>
        <time>2020-06-25T11:04:28Z</time>
      </trkpt>
      <trkpt lat="49.69842" lon="4.85455">
        <ele>147.4</ele>
        <time>2020-06-25T11:04:29Z</time>
      </trkpt>
      <trkpt lat="49.69843" lon="4.85467">
        <ele>147.4</ele>
        <time>2020-06-25T11:04:30Z</time>
      </trkpt>
      <trkpt lat="49.69843" lon="4.85477">
        <ele>147.4</ele>
        <time>2020-06-25T11:04:31Z</time>
      </trkpt>
      <trkpt lat="49.69843" lon="4.85486">
        <ele>147.4</ele>
        <time>2020-06-25T11:04:32Z</time>
      </trkpt>
      <trkpt lat="49.69844" lon="4.85495">
        <ele>147.4</ele>
        <time>2020-06-25T11:04:33Z</time>
      </trkpt>
      <trkpt lat="49.69844" lon="4.85505">
        <ele>147.4</ele>
        <time>2020-06-25T11:04:34Z</time>
      </trkpt>
      <trkpt lat="49.69845" lon="4.85515">
        <ele>147.4</ele>
        <time>2020-06-25T11:04:35Z</time>
      </trkpt>
      <trkpt lat="49.69845" lon="4.85524">
        <ele>147.4</ele>
        <time>2020-06-25T11:04:36Z</time>
      </trkpt>
      <trkpt lat="49.69845" lon="4.85533">
        <ele>147.4</ele>
        <time>2020-06-25T11:04:37Z</time>
      </trkpt>
      <trkpt lat="49.69843" lon="4.85544">
        <ele>147.4</ele>
        <time>2020-06-25T11:04:38Z</time>
      </trkpt>
      <trkpt lat="49.69842" lon="4.85555">
        <ele>147.4</ele>
        <time>2020-06-25T11:04:39Z</time>
      </trkpt>
      <trkpt lat="49.69841" lon="4.85562">
        <ele>147.4</ele>
        <time>2020-06-25T11:04:40Z</time>
      </trkpt>
      <trkpt lat="49.69839" lon="4.85572">
        <ele>147.4</ele>
        <time>2020-06-25T11:04:41Z</time>
      </trkpt>
      <trkpt lat="49.69838" lon="4.8558">
        <ele>147.4</ele>
        <time>2020-06-25T11:04:42Z</time>
      </trkpt>
      <trkpt lat="49.69836" lon="4.85588">
        <ele>147.4</ele>
        <time>2020-06-25T11:04:43Z</time>
      </trkpt>
      <trkpt lat="49.69834" lon="4.85598">
        <ele>147.4</ele>
        <time>2020-06-25T11:04:44Z</time>
      </trkpt>
      <trkpt lat="49.69831" lon="4.85608">
        <ele>147.4</ele>
        <time>2020-06-25T11:04:45Z</time>
      </trkpt>
      <trkpt lat="49.69829" lon="4.85615">
        <ele>147.4</ele>
        <time>2020-06-25T11:04:46Z</time>
      </trkpt>
      <trkpt lat="49.69827" lon="4.85622">
        <ele>147.4</ele>
        <time>2020-06-25T11:04:47Z</time>
      </trkpt>
      <trkpt lat="49.69823" lon="4.85631">
        <ele>147.4</ele>
        <time>2020-06-25T11:04:48Z</time>
      </trkpt>
      <trkpt lat="49.6982" lon="4.85639">
        <ele>147.4</ele>
        <time>2020-06-25T11:04:49Z</time>
      </trkpt>
      <trkpt lat="49.69817" lon="4.85646">
        <ele>147.3</ele>
        <time>2020-06-25T11:04:50Z</time>
      </trkpt>
      <trkpt lat="49.69813" lon="4.85655">
        <ele>147.3</ele>
        <time>2020-06-25T11:04:51Z</time>
      </trkpt>
      <trkpt lat="49.6981" lon="4.85662">
        <ele>147.3</ele>
        <time>2020-06-25T11:04:52Z</time>
      </trkpt>
      <trkpt lat="49.69805" lon="4.8567">
        <ele>147.2</ele>
        <time>2020-06-25T11:04:53Z</time>
      </trkpt>
      <trkpt lat="49.69799" lon="4.85678">
        <ele>147.2</ele>
        <time>2020-06-25T11:04:54Z</time>
      </trkpt>
      <trkpt lat="49.69795" lon="4.85685">
        <ele>147.2</ele>
        <time>2020-06-25T11:04:55Z</time>
      </trkpt>
      <trkpt lat="49.6979" lon="4.85692">
        <ele>147.2</ele>
        <time>2020-06-25T11:04:56Z</time>
      </trkpt>
      <trkpt lat="49.69786" lon="4.85698">
        <ele>147.2</ele>
        <time>2020-06-25T11:04:57Z</time>
      </trkpt>
      <trkpt lat="49.69781" lon="4.85704">
        <ele>147.2</ele>
        <time>2020-06-25T11:04:58Z</time>
      </trkpt>
      <trkpt lat="49.69776" lon="4.85709">
        <ele>147.2</ele>
        <time>2020-06-25T11:04:59Z</time>
      </trkpt>
      <trkpt lat="49.69771" lon="4.85715">
        <ele>147.2</ele>
        <time>2020-06-25T11:05:00Z</time>
      </trkpt>
      <trkpt lat="49.69766" lon="4.8572">
        <ele>147.2</ele>
        <time>2020-06-25T11:05:01Z</time>
      </trkpt>
      <trkpt lat="49.69761" lon="4.85725">
        <ele>147.2</ele>
        <time>2020-06-25T11:05:02Z</time>
      </trkpt>
      <trkpt lat="49.69757" lon="4.85729">
        <ele>147.2</ele>
        <time>2020-06-25T11:05:03Z</time>
      </trkpt>
      <trkpt lat="49.69752" lon="4.85733">
        <ele>147.3</ele>
        <time>2020-06-25T11:05:04Z</time>
      </trkpt>
      <trkpt lat="49.69747" lon="4.85736">
        <ele>147.3</ele>
        <time>2020-06-25T11:05:05Z</time>
      </trkpt>
      <trkpt lat="49.69742" lon="4.85739">
        <ele>147.3</ele>
        <time>2020-06-25T11:05:06Z</time>
      </trkpt>
      <trkpt lat="49.69735" lon="4.85744">
        <ele>147.4</ele>
        <time>2020-06-25T11:05:07Z</time>
      </trkpt>
      <trkpt lat="49.6973" lon="4.85747">
        <ele>147.4</ele>
        <time>2020-06-25T11:05:08Z</time>
      </trkpt>
      <trkpt lat="49.69724" lon="4.85751">
        <ele>147.4</ele>
        <time>2020-06-25T11:05:09Z</time>
      </trkpt>
      <trkpt lat="49.69719" lon="4.85754">
        <ele>147.4</ele>
        <time>2020-06-25T11:05:10Z</time>
      </trkpt>
      <trkpt lat="49.69713" lon="4.85758">
        <ele>147.4</ele>
        <time>2020-06-25T11:05:11Z</time>
      </trkpt>
      <trkpt lat="49.69709" lon="4.85761">
        <ele>147.4</ele>
        <time>2020-06-25T11:05:12Z</time>
      </trkpt>
      <trkpt lat="49.69704" lon="4.85764">
        <ele>147.4</ele>
        <time>2020-06-25T11:05:13Z</time>
      </trkpt>
      <trkpt lat="49.69699" lon="4.85767">
        <ele>147.4</ele>
        <time>2020-06-25T11:05:14Z</time>
      </trkpt>
      <trkpt lat="49.69693" lon="4.85771">
        <ele>147.4</ele>
        <time>2020-06-25T11:05:15Z</time>
      </trkpt>
      <trkpt lat="49.69689" lon="4.85773">
        <ele>147.4</ele>
        <time>2020-06-25T11:05:16Z</time>
      </trkpt>
      <trkpt lat="49.69683" lon="4.85776">
        <ele>147.4</ele>
        <time>2020-06-25T11:05:17Z</time>
      </trkpt>
      <trkpt lat="49.69675" lon="4.85781">
        <ele>147.4</ele>
        <time>2020-06-25T11:05:18Z</time>
      </trkpt>
      <trkpt lat="49.69669" lon="4.85784">
        <ele>147.4</ele>
        <time>2020-06-25T11:05:19Z</time>
      </trkpt>
      <trkpt lat="49.69663" lon="4.85788">
        <ele>147.4</ele>
        <time>2020-06-25T11:05:20Z</time>
      </trkpt>
      <trkpt lat="49.69658" lon="4.85791">
        <ele>147.5</ele>
        <time>2020-06-25T11:05:21Z</time>
      </trkpt>
      <trkpt lat="49.69652" lon="4.85795">
        <ele>147.5</ele>
        <time>2020-06-25T11:05:22Z</time>
      </trkpt>
      <trkpt lat="49.69646" lon="4.85798">
        <ele>147.5</ele>
        <time>2020-06-25T11:05:23Z</time>
      </trkpt>
      <trkpt lat="49.6964" lon="4.85802">
        <ele>147.6</ele>
        <time>2020-06-25T11:05:24Z</time>
      </trkpt>
      <trkpt lat="49.69634" lon="4.85806">
        <ele>147.7</ele>
        <time>2020-06-25T11:05:25Z</time>
      </trkpt>
      <trkpt lat="49.69628" lon="4.85809">
        <ele>147.7</ele>
        <time>2020-06-25T11:05:26Z</time>
      </trkpt>
      <trkpt lat="49.69623" lon="4.85812">
        <ele>147.7</ele>
        <time>2020-06-25T11:05:27Z</time>
      </trkpt>
      <trkpt lat="49.69617" lon="4.85816">
        <ele>147.7</ele>
        <time>2020-06-25T11:05:28Z</time>
      </trkpt>
      <trkpt lat="49.69611" lon="4.85821">
        <ele>147.7</ele>
        <time>2020-06-25T11:05:29Z</time>
      </trkpt>
      <trkpt lat="49.69605" lon="4.85824">
        <ele>147.7</ele>
        <time>2020-06-25T11:05:30Z</time>
      </trkpt>
      <trkpt lat="49.696" lon="4.85828">
        <ele>147.7</ele>
        <time>2020-06-25T11:05:31Z</time>
      </trkpt>
      <trkpt lat="49.69594" lon="4.85831">
        <ele>147.7</ele>
        <time>2020-06-25T11:05:32Z</time>
      </trkpt>
      <trkpt lat="49.69588" lon="4.85836">
        <ele>147.7</ele>
        <time>2020-06-25T11:05:33Z</time>
      </trkpt>
      <trkpt lat="49.69582" lon="4.8584">
        <ele>147.7</ele>
        <time>2020-06-25T11:05:34Z</time>
      </trkpt>
      <trkpt lat="49.69576" lon="4.85845">
        <ele>147.8</ele>
        <time>2020-06-25T11:05:35Z</time>
      </trkpt>
      <trkpt lat="49.6957" lon="4.8585">
        <ele>147.8</ele>
        <time>2020-06-25T11:05:36Z</time>
      </trkpt>
      <trkpt lat="49.69565" lon="4.85854">
        <ele>147.8</ele>
        <time>2020-06-25T11:05:37Z</time>
      </trkpt>
      <trkpt lat="49.69561" lon="4.85858">
        <ele>147.8</ele>
        <time>2020-06-25T11:05:38Z</time>
      </trkpt>
      <trkpt lat="49.69555" lon="4.85864">
        <ele>147.8</ele>
        <time>2020-06-25T11:05:39Z</time>
      </trkpt>
      <trkpt lat="49.6955" lon="4.85869">
        <ele>147.8</ele>
        <time>2020-06-25T11:05:40Z</time>
      </trkpt>
      <trkpt lat="49.69546" lon="4.85874">
        <ele>147.8</ele>
        <time>2020-06-25T11:05:41Z</time>
      </trkpt>
      <trkpt lat="49.69541" lon="4.85879">
        <ele>147.8</ele>
        <time>2020-06-25T11:05:42Z</time>
      </trkpt>
      <trkpt lat="49.69537" lon="4.85884">
        <ele>147.8</ele>
        <time>2020-06-25T11:05:43Z</time>
      </trkpt>
      <trkpt lat="49.69532" lon="4.8589">
        <ele>147.8</ele>
        <time>2020-06-25T11:05:44Z</time>
      </trkpt>
      <trkpt lat="49.69528" lon="4.85896">
        <ele>147.8</ele>
        <time>2020-06-25T11:05:45Z</time>
      </trkpt>
      <trkpt lat="49.69523" lon="4.85903">
        <ele>147.8</ele>
        <time>2020-06-25T11:05:46Z</time>
      </trkpt>
      <trkpt lat="49.6952" lon="4.85908">
        <ele>147.8</ele>
        <time>2020-06-25T11:05:47Z</time>
      </trkpt>
      <trkpt lat="49.69515" lon="4.85915">
        <ele>147.8</ele>
        <time>2020-06-25T11:05:48Z</time>
      </trkpt>
      <trkpt lat="49.69511" lon="4.85921">
        <ele>147.8</ele>
        <time>2020-06-25T11:05:49Z</time>
      </trkpt>
      <trkpt lat="49.69507" lon="4.85927">
        <ele>147.7</ele>
        <time>2020-06-25T11:05:50Z</time>
      </trkpt>
      <trkpt lat="49.69502" lon="4.85933">
        <ele>147.7</ele>
        <time>2020-06-25T11:05:51Z</time>
      </trkpt>
      <trkpt lat="49.69499" lon="4.85939">
        <ele>147.7</ele>
        <time>2020-06-25T11:05:52Z</time>
      </trkpt>
      <trkpt lat="49.69495" lon="4.85944">
        <ele>147.7</ele>
        <time>2020-06-25T11:05:53Z</time>
      </trkpt>
      <trkpt lat="49.6949" lon="4.85952">
        <ele>147.7</ele>
        <time>2020-06-25T11:05:54Z</time>
      </trkpt>
      <trkpt lat="49.69485" lon="4.85959">
        <ele>147.6</ele>
        <time>2020-06-25T11:05:55Z</time>
      </trkpt>
      <trkpt lat="49.69481" lon="4.85966">
        <ele>147.6</ele>
        <time>2020-06-25T11:05:56Z</time>
      </trkpt>
      <trkpt lat="49.69476" lon="4.85971">
        <ele>147.6</ele>
        <time>2020-06-25T11:05:57Z</time>
      </trkpt>
      <trkpt lat="49.69472" lon="4.85977">
        <ele>147.6</ele>
        <time>2020-06-25T11:05:58Z</time>
      </trkpt>
      <trkpt lat="49.69466" lon="4.85982">
        <ele>147.6</ele>
        <time>2020-06-25T11:05:59Z</time>
      </trkpt>
      <trkpt lat="49.69462" lon="4.85987">
        <ele>147.6</ele>
        <time>2020-06-25T11:06:00Z</time>
      </trkpt>
      <trkpt lat="49.69456" lon="4.85992">
        <ele>147.6</ele>
        <time>2020-06-25T11:06:01Z</time>
      </trkpt>
      <trkpt lat="49.69451" lon="4.85997">
        <ele>147.6</ele>
        <time>2020-06-25T11:06:02Z</time>
      </trkpt>
      <trkpt lat="49.69445" lon="4.86002">
        <ele>147.6</ele>
        <time>2020-06-25T11:06:03Z</time>
      </trkpt>
      <trkpt lat="49.69439" lon="4.86008">
        <ele>147.6</ele>
        <time>2020-06-25T11:06:04Z</time>
      </trkpt>
      <trkpt lat="49.69434" lon="4.86014">
        <ele>147.6</ele>
        <time>2020-06-25T11:06:05Z</time>
      </trkpt>
      <trkpt lat="49.6943" lon="4.86018">
        <ele>147.6</ele>
        <time>2020-06-25T11:06:06Z</time>
      </trkpt>
      <trkpt lat="49.69425" lon="4.86024">
        <ele>147.6</ele>
        <time>2020-06-25T11:06:07Z</time>
      </trkpt>
      <trkpt lat="49.69421" lon="4.8603">
        <ele>147.6</ele>
        <time>2020-06-25T11:06:08Z</time>
      </trkpt>
      <trkpt lat="49.69416" lon="4.86036">
        <ele>147.6</ele>
        <time>2020-06-25T11:06:09Z</time>
      </trkpt>
      <trkpt lat="49.69412" lon="4.86044">
        <ele>147.6</ele>
        <time>2020-06-25T11:06:10Z</time>
      </trkpt>
      <trkpt lat="49.69407" lon="4.86052">
        <ele>147.6</ele>
        <time>2020-06-25T11:06:11Z</time>
      </trkpt>
      <trkpt lat="49.69403" lon="4.8606">
        <ele>147.6</ele>
        <time>2020-06-25T11:06:12Z</time>
      </trkpt>
      <trkpt lat="49.694" lon="4.86067">
        <ele>147.6</ele>
        <time>2020-06-25T11:06:13Z</time>
      </trkpt>
      <trkpt lat="49.69396" lon="4.86075">
        <ele>147.6</ele>
        <time>2020-06-25T11:06:14Z</time>
      </trkpt>
      <trkpt lat="49.69393" lon="4.86082">
        <ele>147.6</ele>
        <time>2020-06-25T11:06:15Z</time>
      </trkpt>
      <trkpt lat="49.6939" lon="4.86089">
        <ele>147.5</ele>
        <time>2020-06-25T11:06:16Z</time>
      </trkpt>
      <trkpt lat="49.69387" lon="4.86097">
        <ele>147.5</ele>
        <time>2020-06-25T11:06:17Z</time>
      </trkpt>
      <trkpt lat="49.69383" lon="4.86104">
        <ele>147.5</ele>
        <time>2020-06-25T11:06:18Z</time>
      </trkpt>
      <trkpt lat="49.6938" lon="4.86111">
        <ele>147.5</ele>
        <time>2020-06-25T11:06:19Z</time>
      </trkpt>
      <trkpt lat="49.69377" lon="4.86119">
        <ele>147.5</ele>
        <time>2020-06-25T11:06:20Z</time>
      </trkpt>
      <trkpt lat="49.69374" lon="4.86126">
        <ele>147.5</ele>
        <time>2020-06-25T11:06:21Z</time>
      </trkpt>
      <trkpt lat="49.6937" lon="4.86134">
        <ele>147.5</ele>
        <time>2020-06-25T11:06:22Z</time>
      </trkpt>
      <trkpt lat="49.69368" lon="4.86141">
        <ele>147.5</ele>
        <time>2020-06-25T11:06:23Z</time>
      </trkpt>
      <trkpt lat="49.69364" lon="4.86149">
        <ele>147.5</ele>
        <time>2020-06-25T11:06:24Z</time>
      </trkpt>
      <trkpt lat="49.69361" lon="4.86156">
        <ele>147.5</ele>
        <time>2020-06-25T11:06:25Z</time>
      </trkpt>
      <trkpt lat="49.69358" lon="4.86164">
        <ele>147.4</ele>
        <time>2020-06-25T11:06:26Z</time>
      </trkpt>
      <trkpt lat="49.69356" lon="4.8617">
        <ele>147.4</ele>
        <time>2020-06-25T11:06:27Z</time>
      </trkpt>
      <trkpt lat="49.69353" lon="4.86178">
        <ele>147.4</ele>
        <time>2020-06-25T11:06:28Z</time>
      </trkpt>
      <trkpt lat="49.6935" lon="4.86185">
        <ele>147.4</ele>
        <time>2020-06-25T11:06:29Z</time>
      </trkpt>
      <trkpt lat="49.69349" lon="4.86189">
        <ele>147.4</ele>
        <time>2020-06-25T11:06:30Z</time>
      </trkpt>
      <trkpt lat="49.69346" lon="4.86196">
        <ele>147.4</ele>
        <time>2020-06-25T11:06:31Z</time>
      </trkpt>
      <trkpt lat="49.69344" lon="4.86202">
        <ele>147.4</ele>
        <time>2020-06-25T11:06:32Z</time>
      </trkpt>
      <trkpt lat="49.69342" lon="4.86208">
        <ele>147.4</ele>
        <time>2020-06-25T11:06:33Z</time>
      </trkpt>
      <trkpt lat="49.69339" lon="4.86214">
        <ele>147.4</ele>
        <time>2020-06-25T11:06:34Z</time>
      </trkpt>
      <trkpt lat="49.69337" lon="4.86219">
        <ele>147.4</ele>
        <time>2020-06-25T11:06:35Z</time>
      </trkpt>
      <trkpt lat="49.69334" lon="4.86226">
        <ele>147.4</ele>
        <time>2020-06-25T11:06:36Z</time>
      </trkpt>
      <trkpt lat="49.69331" lon="4.86234">
        <ele>147.4</ele>
        <time>2020-06-25T11:06:37Z</time>
      </trkpt>
      <trkpt lat="49.69329" lon="4.86242">
        <ele>147.4</ele>
        <time>2020-06-25T11:06:38Z</time>
      </trkpt>
      <trkpt lat="49.69327" lon="4.86247">
        <ele>147.4</ele>
        <time>2020-06-25T11:06:39Z</time>
      </trkpt>
      <trkpt lat="49.69325" lon="4.86255">
        <ele>147.4</ele>
        <time>2020-06-25T11:06:40Z</time>
      </trkpt>
      <trkpt lat="49.69323" lon="4.86263">
        <ele>147.5</ele>
        <time>2020-06-25T11:06:41Z</time>
      </trkpt>
      <trkpt lat="49.69321" lon="4.8627">
        <ele>147.5</ele>
        <time>2020-06-25T11:06:42Z</time>
      </trkpt>
      <trkpt lat="49.69319" lon="4.86277">
        <ele>147.5</ele>
        <time>2020-06-25T11:06:43Z</time>
      </trkpt>
      <trkpt lat="49.69317" lon="4.86285">
        <ele>147.6</ele>
        <time>2020-06-25T11:06:44Z</time>
      </trkpt>
      <trkpt lat="49.69315" lon="4.86293">
        <ele>147.6</ele>
        <time>2020-06-25T11:06:45Z</time>
      </trkpt>
      <trkpt lat="49.69313" lon="4.86302">
        <ele>147.6</ele>
        <time>2020-06-25T11:06:46Z</time>
      </trkpt>
      <trkpt lat="49.69311" lon="4.8631">
        <ele>147.6</ele>
        <time>2020-06-25T11:06:47Z</time>
      </trkpt>
      <trkpt lat="49.69308" lon="4.86319">
        <ele>147.6</ele>
        <time>2020-06-25T11:06:48Z</time>
      </trkpt>
      <trkpt lat="49.69307" lon="4.86327">
        <ele>147.6</ele>
        <time>2020-06-25T11:06:49Z</time>
      </trkpt>
      <trkpt lat="49.69306" lon="4.86335">
        <ele>147.6</ele>
        <time>2020-06-25T11:06:50Z</time>
      </trkpt>
      <trkpt lat="49.69306" lon="4.86344">
        <ele>147.6</ele>
        <time>2020-06-25T11:06:51Z</time>
      </trkpt>
      <trkpt lat="49.69306" lon="4.86353">
        <ele>147.6</ele>
        <time>2020-06-25T11:06:52Z</time>
      </trkpt>
      <trkpt lat="49.69306" lon="4.8636">
        <ele>147.6</ele>
        <time>2020-06-25T11:06:53Z</time>
      </trkpt>
      <trkpt lat="49.69306" lon="4.86367">
        <ele>147.6</ele>
        <time>2020-06-25T11:06:54Z</time>
      </trkpt>
      <trkpt lat="49.69305" lon="4.86374">
        <ele>147.6</ele>
        <time>2020-06-25T11:06:55Z</time>
      </trkpt>
      <trkpt lat="49.69304" lon="4.86382">
        <ele>147.6</ele>
        <time>2020-06-25T11:06:56Z</time>
      </trkpt>
      <trkpt lat="49.69303" lon="4.86391">
        <ele>147.6</ele>
        <time>2020-06-25T11:06:57Z</time>
      </trkpt>
      <trkpt lat="49.69303" lon="4.86398">
        <ele>147.6</ele>
        <time>2020-06-25T11:06:58Z</time>
      </trkpt>
      <trkpt lat="49.69302" lon="4.86407">
        <ele>147.6</ele>
        <time>2020-06-25T11:06:59Z</time>
      </trkpt>
      <trkpt lat="49.69301" lon="4.86415">
        <ele>147.6</ele>
        <time>2020-06-25T11:07:00Z</time>
      </trkpt>
      <trkpt lat="49.693" lon="4.86423">
        <ele>147.6</ele>
        <time>2020-06-25T11:07:01Z</time>
      </trkpt>
      <trkpt lat="49.69299" lon="4.86431">
        <ele>147.6</ele>
        <time>2020-06-25T11:07:02Z</time>
      </trkpt>
      <trkpt lat="49.69298" lon="4.86439">
        <ele>147.6</ele>
        <time>2020-06-25T11:07:03Z</time>
      </trkpt>
      <trkpt lat="49.69296" lon="4.86448">
        <ele>147.7</ele>
        <time>2020-06-25T11:07:04Z</time>
      </trkpt>
      <trkpt lat="49.69296" lon="4.86454">
        <ele>147.7</ele>
        <time>2020-06-25T11:07:05Z</time>
      </trkpt>
      <trkpt lat="49.69297" lon="4.86463">
        <ele>147.8</ele>
        <time>2020-06-25T11:07:06Z</time>
      </trkpt>
      <trkpt lat="49.69296" lon="4.86474">
        <ele>147.8</ele>
        <time>2020-06-25T11:07:07Z</time>
      </trkpt>
      <trkpt lat="49.69295" lon="4.86483">
        <ele>147.8</ele>
        <time>2020-06-25T11:07:08Z</time>
      </trkpt>
      <trkpt lat="49.69295" lon="4.8649">
        <ele>147.8</ele>
        <time>2020-06-25T11:07:09Z</time>
      </trkpt>
      <trkpt lat="49.69295" lon="4.86499">
        <ele>147.8</ele>
        <time>2020-06-25T11:07:10Z</time>
      </trkpt>
      <trkpt lat="49.69295" lon="4.86508">
        <ele>147.8</ele>
        <time>2020-06-25T11:07:11Z</time>
      </trkpt>
      <trkpt lat="49.69295" lon="4.86515">
        <ele>147.8</ele>
        <time>2020-06-25T11:07:12Z</time>
      </trkpt>
      <trkpt lat="49.69296" lon="4.86523">
        <ele>147.8</ele>
        <time>2020-06-25T11:07:13Z</time>
      </trkpt>
      <trkpt lat="49.69296" lon="4.86534">
        <ele>147.8</ele>
        <time>2020-06-25T11:07:14Z</time>
      </trkpt>
      <trkpt lat="49.69296" lon="4.86543">
        <ele>147.8</ele>
        <time>2020-06-25T11:07:15Z</time>
      </trkpt>
      <trkpt lat="49.69296" lon="4.86551">
        <ele>147.8</ele>
        <time>2020-06-25T11:07:16Z</time>
      </trkpt>
      <trkpt lat="49.69296" lon="4.86558">
        <ele>147.8</ele>
        <time>2020-06-25T11:07:17Z</time>
      </trkpt>
      <trkpt lat="49.69296" lon="4.86567">
        <ele>147.8</ele>
        <time>2020-06-25T11:07:18Z</time>
      </trkpt>
      <trkpt lat="49.69296" lon="4.86575">
        <ele>147.8</ele>
        <time>2020-06-25T11:07:19Z</time>
      </trkpt>
      <trkpt lat="49.69297" lon="4.86585">
        <ele>147.8</ele>
        <time>2020-06-25T11:07:20Z</time>
      </trkpt>
      <trkpt lat="49.69298" lon="4.86591">
        <ele>147.8</ele>
        <time>2020-06-25T11:07:21Z</time>
      </trkpt>
      <trkpt lat="49.69298" lon="4.866">
        <ele>147.7</ele>
        <time>2020-06-25T11:07:22Z</time>
      </trkpt>
      <trkpt lat="49.69298" lon="4.86609">
        <ele>147.7</ele>
        <time>2020-06-25T11:07:23Z</time>
      </trkpt>
      <trkpt lat="49.69299" lon="4.86618">
        <ele>147.7</ele>
        <time>2020-06-25T11:07:24Z</time>
      </trkpt>
      <trkpt lat="49.69301" lon="4.86625">
        <ele>147.7</ele>
        <time>2020-06-25T11:07:25Z</time>
      </trkpt>
      <trkpt lat="49.69302" lon="4.86632">
        <ele>147.7</ele>
        <time>2020-06-25T11:07:26Z</time>
      </trkpt>
      <trkpt lat="49.69303" lon="4.8664">
        <ele>147.7</ele>
        <time>2020-06-25T11:07:27Z</time>
      </trkpt>
      <trkpt lat="49.69304" lon="4.86649">
        <ele>147.7</ele>
        <time>2020-06-25T11:07:28Z</time>
      </trkpt>
      <trkpt lat="49.69304" lon="4.86658">
        <ele>147.7</ele>
        <time>2020-06-25T11:07:29Z</time>
      </trkpt>
      <trkpt lat="49.69305" lon="4.86667">
        <ele>147.7</ele>
        <time>2020-06-25T11:07:30Z</time>
      </trkpt>
      <trkpt lat="49.69305" lon="4.86676">
        <ele>147.7</ele>
        <time>2020-06-25T11:07:31Z</time>
      </trkpt>
      <trkpt lat="49.69306" lon="4.86683">
        <ele>147.7</ele>
        <time>2020-06-25T11:07:32Z</time>
      </trkpt>
      <trkpt lat="49.69306" lon="4.86691">
        <ele>147.7</ele>
        <time>2020-06-25T11:07:33Z</time>
      </trkpt>
      <trkpt lat="49.69306" lon="4.86699">
        <ele>147.7</ele>
        <time>2020-06-25T11:07:34Z</time>
      </trkpt>
      <trkpt lat="49.69305" lon="4.86706">
        <ele>147.8</ele>
        <time>2020-06-25T11:07:35Z</time>
      </trkpt>
      <trkpt lat="49.69304" lon="4.86714">
        <ele>147.8</ele>
        <time>2020-06-25T11:07:36Z</time>
      </trkpt>
      <trkpt lat="49.69303" lon="4.86722">
        <ele>147.8</ele>
        <time>2020-06-25T11:07:37Z</time>
      </trkpt>
      <trkpt lat="49.69303" lon="4.86732">
        <ele>147.9</ele>
        <time>2020-06-25T11:07:38Z</time>
      </trkpt>
      <trkpt lat="49.69303" lon="4.8674">
        <ele>147.9</ele>
        <time>2020-06-25T11:07:39Z</time>
      </trkpt>
      <trkpt lat="49.69303" lon="4.86747">
        <ele>148</ele>
        <time>2020-06-25T11:07:40Z</time>
      </trkpt>
      <trkpt lat="49.69303" lon="4.86755">
        <ele>148</ele>
        <time>2020-06-25T11:07:41Z</time>
      </trkpt>
      <trkpt lat="49.69303" lon="4.86763">
        <ele>148</ele>
        <time>2020-06-25T11:07:42Z</time>
      </trkpt>
      <trkpt lat="49.69303" lon="4.86772">
        <ele>148.1</ele>
        <time>2020-06-25T11:07:43Z</time>
      </trkpt>
      <trkpt lat="49.69303" lon="4.86779">
        <ele>148.1</ele>
        <time>2020-06-25T11:07:44Z</time>
      </trkpt>
      <trkpt lat="49.69303" lon="4.86788">
        <ele>148.1</ele>
        <time>2020-06-25T11:07:45Z</time>
      </trkpt>
      <trkpt lat="49.69303" lon="4.86797">
        <ele>148.1</ele>
        <time>2020-06-25T11:07:46Z</time>
      </trkpt>
      <trkpt lat="49.69304" lon="4.86804">
        <ele>148.2</ele>
        <time>2020-06-25T11:07:47Z</time>
      </trkpt>
      <trkpt lat="49.69304" lon="4.86811">
        <ele>148.2</ele>
        <time>2020-06-25T11:07:48Z</time>
      </trkpt>
      <trkpt lat="49.69304" lon="4.86817">
        <ele>148.3</ele>
        <time>2020-06-25T11:07:49Z</time>
      </trkpt>
      <trkpt lat="49.69305" lon="4.86828">
        <ele>148.4</ele>
        <time>2020-06-25T11:07:50Z</time>
      </trkpt>
      <trkpt lat="49.69306" lon="4.86835">
        <ele>148.4</ele>
        <time>2020-06-25T11:07:51Z</time>
      </trkpt>
      <trkpt lat="49.69306" lon="4.86842">
        <ele>148.5</ele>
        <time>2020-06-25T11:07:52Z</time>
      </trkpt>
      <trkpt lat="49.69306" lon="4.86849">
        <ele>148.6</ele>
        <time>2020-06-25T11:07:53Z</time>
      </trkpt>
      <trkpt lat="49.69306" lon="4.86852">
        <ele>148.6</ele>
        <time>2020-06-25T11:07:54Z</time>
      </trkpt>
      <trkpt lat="49.69305" lon="4.86859">
        <ele>148.7</ele>
        <time>2020-06-25T11:07:55Z</time>
      </trkpt>
      <trkpt lat="49.69305" lon="4.86865">
        <ele>148.8</ele>
        <time>2020-06-25T11:07:56Z</time>
      </trkpt>
      <trkpt lat="49.69305" lon="4.8687">
        <ele>148.8</ele>
        <time>2020-06-25T11:07:57Z</time>
      </trkpt>
      <trkpt lat="49.69307" lon="4.86875">
        <ele>148.9</ele>
        <time>2020-06-25T11:07:58Z</time>
      </trkpt>
      <trkpt lat="49.69307" lon="4.86878">
        <ele>148.9</ele>
        <time>2020-06-25T11:07:59Z</time>
      </trkpt>
      <trkpt lat="49.69307" lon="4.86883">
        <ele>149</ele>
        <time>2020-06-25T11:08:00Z</time>
      </trkpt>
      <trkpt lat="49.69306" lon="4.86889">
        <ele>149.1</ele>
        <time>2020-06-25T11:08:01Z</time>
      </trkpt>
      <trkpt lat="49.69305" lon="4.86896">
        <ele>149.2</ele>
        <time>2020-06-25T11:08:02Z</time>
      </trkpt>
      <trkpt lat="49.69304" lon="4.86903">
        <ele>149.3</ele>
        <time>2020-06-25T11:08:03Z</time>
      </trkpt>
      <trkpt lat="49.69302" lon="4.86909">
        <ele>149.4</ele>
        <time>2020-06-25T11:08:04Z</time>
      </trkpt>
      <trkpt lat="49.69299" lon="4.86917">
        <ele>149.5</ele>
        <time>2020-06-25T11:08:05Z</time>
      </trkpt>
      <trkpt lat="49.69297" lon="4.86924">
        <ele>149.7</ele>
        <time>2020-06-25T11:08:06Z</time>
      </trkpt>
      <trkpt lat="49.69294" lon="4.86929">
        <ele>149.7</ele>
        <time>2020-06-25T11:08:07Z</time>
      </trkpt>
      <trkpt lat="49.69292" lon="4.86934">
        <ele>149.8</ele>
        <time>2020-06-25T11:08:08Z</time>
      </trkpt>
      <trkpt lat="49.6929" lon="4.86939">
        <ele>149.8</ele>
        <time>2020-06-25T11:08:09Z</time>
      </trkpt>
      <trkpt lat="49.69289" lon="4.86944">
        <ele>149.9</ele>
        <time>2020-06-25T11:08:10Z</time>
      </trkpt>
      <trkpt lat="49.69287" lon="4.86948">
        <ele>150</ele>
        <time>2020-06-25T11:08:11Z</time>
      </trkpt>
      <trkpt lat="49.69287" lon="4.86952">
        <ele>150</ele>
        <time>2020-06-25T11:08:12Z</time>
      </trkpt>
      <trkpt lat="49.69286" lon="4.86958">
        <ele>150.1</ele>
        <time>2020-06-25T11:08:13Z</time>
      </trkpt>
      <trkpt lat="49.69285" lon="4.86964">
        <ele>150.1</ele>
        <time>2020-06-25T11:08:14Z</time>
      </trkpt>
      <trkpt lat="49.69284" lon="4.86971">
        <ele>150.1</ele>
        <time>2020-06-25T11:08:15Z</time>
      </trkpt>
      <trkpt lat="49.69282" lon="4.8698">
        <ele>150.1</ele>
        <time>2020-06-25T11:08:16Z</time>
      </trkpt>
      <trkpt lat="49.69281" lon="4.86987">
        <ele>150.1</ele>
        <time>2020-06-25T11:08:17Z</time>
      </trkpt>
      <trkpt lat="49.69279" lon="4.86993">
        <ele>150.1</ele>
        <time>2020-06-25T11:08:18Z</time>
      </trkpt>
      <trkpt lat="49.69278" lon="4.87001">
        <ele>150.2</ele>
        <time>2020-06-25T11:08:19Z</time>
      </trkpt>
      <trkpt lat="49.69276" lon="4.87007">
        <ele>150.2</ele>
        <time>2020-06-25T11:08:20Z</time>
      </trkpt>
      <trkpt lat="49.69275" lon="4.87016">
        <ele>150.2</ele>
        <time>2020-06-25T11:08:21Z</time>
      </trkpt>
      <trkpt lat="49.69274" lon="4.87025">
        <ele>150.2</ele>
        <time>2020-06-25T11:08:22Z</time>
      </trkpt>
      <trkpt lat="49.69273" lon="4.87032">
        <ele>150.2</ele>
        <time>2020-06-25T11:08:23Z</time>
      </trkpt>
      <trkpt lat="49.69272" lon="4.8704">
        <ele>150.1</ele>
        <time>2020-06-25T11:08:24Z</time>
      </trkpt>
      <trkpt lat="49.69271" lon="4.87048">
        <ele>150.1</ele>
        <time>2020-06-25T11:08:25Z</time>
      </trkpt>
      <trkpt lat="49.6927" lon="4.87054">
        <ele>150.1</ele>
        <time>2020-06-25T11:08:26Z</time>
      </trkpt>
      <trkpt lat="49.69269" lon="4.8706">
        <ele>150.1</ele>
        <time>2020-06-25T11:08:27Z</time>
      </trkpt>
      <trkpt lat="49.69268" lon="4.87067">
        <ele>150.1</ele>
        <time>2020-06-25T11:08:28Z</time>
      </trkpt>
      <trkpt lat="49.69266" lon="4.87074">
        <ele>150.1</ele>
        <time>2020-06-25T11:08:29Z</time>
      </trkpt>
      <trkpt lat="49.69265" lon="4.87082">
        <ele>150.1</ele>
        <time>2020-06-25T11:08:30Z</time>
      </trkpt>
      <trkpt lat="49.69263" lon="4.8709">
        <ele>150.1</ele>
        <time>2020-06-25T11:08:31Z</time>
      </trkpt>
      <trkpt lat="49.69262" lon="4.87099">
        <ele>150.1</ele>
        <time>2020-06-25T11:08:32Z</time>
      </trkpt>
      <trkpt lat="49.69261" lon="4.87107">
        <ele>150.1</ele>
        <time>2020-06-25T11:08:33Z</time>
      </trkpt>
      <trkpt lat="49.69259" lon="4.87114">
        <ele>150.1</ele>
        <time>2020-06-25T11:08:34Z</time>
      </trkpt>
      <trkpt lat="49.69257" lon="4.87122">
        <ele>150.1</ele>
        <time>2020-06-25T11:08:35Z</time>
      </trkpt>
      <trkpt lat="49.69256" lon="4.87129">
        <ele>150.1</ele>
        <time>2020-06-25T11:08:36Z</time>
      </trkpt>
      <trkpt lat="49.69255" lon="4.87136">
        <ele>150.2</ele>
        <time>2020-06-25T11:08:37Z</time>
      </trkpt>
      <trkpt lat="49.69253" lon="4.87144">
        <ele>150.2</ele>
        <time>2020-06-25T11:08:38Z</time>
      </trkpt>
      <trkpt lat="49.69251" lon="4.87151">
        <ele>150.2</ele>
        <time>2020-06-25T11:08:39Z</time>
      </trkpt>
      <trkpt lat="49.69249" lon="4.87158">
        <ele>150.3</ele>
        <time>2020-06-25T11:08:40Z</time>
      </trkpt>
      <trkpt lat="49.69248" lon="4.87167">
        <ele>150.3</ele>
        <time>2020-06-25T11:08:41Z</time>
      </trkpt>
      <trkpt lat="49.69246" lon="4.87174">
        <ele>150.3</ele>
        <time>2020-06-25T11:08:42Z</time>
      </trkpt>
      <trkpt lat="49.69244" lon="4.87181">
        <ele>150.3</ele>
        <time>2020-06-25T11:08:43Z</time>
      </trkpt>
      <trkpt lat="49.69243" lon="4.87189">
        <ele>150.3</ele>
        <time>2020-06-25T11:08:44Z</time>
      </trkpt>
      <trkpt lat="49.69242" lon="4.87196">
        <ele>150.3</ele>
        <time>2020-06-25T11:08:45Z</time>
      </trkpt>
      <trkpt lat="49.69243" lon="4.87201">
        <ele>150.3</ele>
        <time>2020-06-25T11:08:46Z</time>
      </trkpt>
      <trkpt lat="49.69243" lon="4.87207">
        <ele>150.3</ele>
        <time>2020-06-25T11:08:47Z</time>
      </trkpt>
      <trkpt lat="49.69242" lon="4.87215">
        <ele>150.3</ele>
        <time>2020-06-25T11:08:48Z</time>
      </trkpt>
      <trkpt lat="49.69241" lon="4.87222">
        <ele>150.4</ele>
        <time>2020-06-25T11:08:49Z</time>
      </trkpt>
      <trkpt lat="49.6924" lon="4.8723">
        <ele>150.4</ele>
        <time>2020-06-25T11:08:50Z</time>
      </trkpt>
      <trkpt lat="49.69238" lon="4.87237">
        <ele>150.5</ele>
        <time>2020-06-25T11:08:51Z</time>
      </trkpt>
      <trkpt lat="49.69237" lon="4.87245">
        <ele>150.5</ele>
        <time>2020-06-25T11:08:52Z</time>
      </trkpt>
      <trkpt lat="49.69235" lon="4.87254">
        <ele>150.6</ele>
        <time>2020-06-25T11:08:53Z</time>
      </trkpt>
      <trkpt lat="49.69234" lon="4.87261">
        <ele>150.6</ele>
        <time>2020-06-25T11:08:54Z</time>
      </trkpt>
      <trkpt lat="49.69233" lon="4.87268">
        <ele>150.7</ele>
        <time>2020-06-25T11:08:55Z</time>
      </trkpt>
      <trkpt lat="49.6923" lon="4.87275">
        <ele>150.7</ele>
        <time>2020-06-25T11:08:56Z</time>
      </trkpt>
      <trkpt lat="49.69229" lon="4.87282">
        <ele>150.7</ele>
        <time>2020-06-25T11:08:57Z</time>
      </trkpt>
      <trkpt lat="49.69227" lon="4.87291">
        <ele>150.7</ele>
        <time>2020-06-25T11:08:58Z</time>
      </trkpt>
      <trkpt lat="49.69225" lon="4.87297">
        <ele>150.7</ele>
        <time>2020-06-25T11:08:59Z</time>
      </trkpt>
      <trkpt lat="49.69224" lon="4.87304">
        <ele>150.7</ele>
        <time>2020-06-25T11:09:00Z</time>
      </trkpt>
      <trkpt lat="49.69223" lon="4.87312">
        <ele>150.7</ele>
        <time>2020-06-25T11:09:01Z</time>
      </trkpt>
      <trkpt lat="49.69222" lon="4.87318">
        <ele>150.6</ele>
        <time>2020-06-25T11:09:02Z</time>
      </trkpt>
      <trkpt lat="49.69221" lon="4.87327">
        <ele>150.6</ele>
        <time>2020-06-25T11:09:03Z</time>
      </trkpt>
      <trkpt lat="49.6922" lon="4.87336">
        <ele>150.6</ele>
        <time>2020-06-25T11:09:04Z</time>
      </trkpt>
      <trkpt lat="49.69219" lon="4.87343">
        <ele>150.6</ele>
        <time>2020-06-25T11:09:05Z</time>
      </trkpt>
      <trkpt lat="49.69218" lon="4.87348">
        <ele>150.6</ele>
        <time>2020-06-25T11:09:06Z</time>
      </trkpt>
      <trkpt lat="49.69217" lon="4.87354">
        <ele>150.5</ele>
        <time>2020-06-25T11:09:07Z</time>
      </trkpt>
      <trkpt lat="49.69217" lon="4.87361">
        <ele>150.5</ele>
        <time>2020-06-25T11:09:08Z</time>
      </trkpt>
      <trkpt lat="49.69217" lon="4.87368">
        <ele>150.6</ele>
        <time>2020-06-25T11:09:09Z</time>
      </trkpt>
      <trkpt lat="49.69217" lon="4.87375">
        <ele>150.6</ele>
        <time>2020-06-25T11:09:10Z</time>
      </trkpt>
      <trkpt lat="49.69216" lon="4.87381">
        <ele>150.6</ele>
        <time>2020-06-25T11:09:11Z</time>
      </trkpt>
      <trkpt lat="49.69215" lon="4.87387">
        <ele>150.6</ele>
        <time>2020-06-25T11:09:12Z</time>
      </trkpt>
      <trkpt lat="49.69213" lon="4.87395">
        <ele>151</ele>
        <time>2020-06-25T11:09:13Z</time>
      </trkpt>
      <trkpt lat="49.6921" lon="4.87403">
        <ele>151.9</ele>
        <time>2020-06-25T11:09:14Z</time>
      </trkpt>
      <trkpt lat="49.69208" lon="4.87407">
        <ele>152.6</ele>
        <time>2020-06-25T11:09:15Z</time>
      </trkpt>
      <trkpt lat="49.69205" lon="4.87408">
        <ele>153.1</ele>
        <time>2020-06-25T11:09:16Z</time>
      </trkpt>
      <trkpt lat="49.69204" lon="4.87406">
        <ele>153.2</ele>
        <time>2020-06-25T11:09:17Z</time>
      </trkpt>
      <trkpt lat="49.69203" lon="4.87402">
        <ele>153.6</ele>
        <time>2020-06-25T11:09:18Z</time>
      </trkpt>
      <trkpt lat="49.69201" lon="4.87398">
        <ele>153.7</ele>
        <time>2020-06-25T11:09:19Z</time>
      </trkpt>
      <trkpt lat="49.69201" lon="4.87396">
        <ele>153.7</ele>
        <time>2020-06-25T11:09:20Z</time>
      </trkpt>
      <trkpt lat="49.69199" lon="4.87392">
        <ele>153.8</ele>
        <time>2020-06-25T11:09:21Z</time>
      </trkpt>
      <trkpt lat="49.69198" lon="4.87391">
        <ele>153.8</ele>
        <time>2020-06-25T11:09:22Z</time>
      </trkpt>
      <trkpt lat="49.69196" lon="4.87394">
        <ele>153.8</ele>
        <time>2020-06-25T11:09:23Z</time>
      </trkpt>
      <trkpt lat="49.69195" lon="4.87399">
        <ele>153.7</ele>
        <time>2020-06-25T11:09:24Z</time>
      </trkpt>
      <trkpt lat="49.69194" lon="4.874">
        <ele>153.7</ele>
        <time>2020-06-25T11:09:25Z</time>
      </trkpt>
      <trkpt lat="49.69192" lon="4.87405">
        <ele>153.7</ele>
        <time>2020-06-25T11:09:26Z</time>
      </trkpt>
      <trkpt lat="49.69192" lon="4.87407">
        <ele>153.7</ele>
        <time>2020-06-25T11:09:27Z</time>
      </trkpt>
      <trkpt lat="49.69191" lon="4.87412">
        <ele>153.7</ele>
        <time>2020-06-25T11:09:28Z</time>
      </trkpt>
      <trkpt lat="49.69191" lon="4.87417">
        <ele>153.7</ele>
        <time>2020-06-25T11:09:29Z</time>
      </trkpt>
      <trkpt lat="49.6919" lon="4.87422">
        <ele>153.7</ele>
        <time>2020-06-25T11:09:30Z</time>
      </trkpt>
      <trkpt lat="49.6919" lon="4.87427">
        <ele>153.7</ele>
        <time>2020-06-25T11:09:31Z</time>
      </trkpt>
      <trkpt lat="49.69189" lon="4.87431">
        <ele>153.7</ele>
        <time>2020-06-25T11:09:32Z</time>
      </trkpt>
      <trkpt lat="49.69188" lon="4.87437">
        <ele>153.7</ele>
        <time>2020-06-25T11:09:33Z</time>
      </trkpt>
      <trkpt lat="49.69189" lon="4.87444">
        <ele>153.7</ele>
        <time>2020-06-25T11:09:34Z</time>
      </trkpt>
      <trkpt lat="49.69189" lon="4.87446">
        <ele>153.7</ele>
        <time>2020-06-25T11:09:35Z</time>
      </trkpt>
      <trkpt lat="49.69189" lon="4.87452">
        <ele>153.7</ele>
        <time>2020-06-25T11:09:36Z</time>
      </trkpt>
      <trkpt lat="49.69189" lon="4.87458">
        <ele>153.7</ele>
        <time>2020-06-25T11:09:37Z</time>
      </trkpt>
      <trkpt lat="49.69189" lon="4.87464">
        <ele>153.7</ele>
        <time>2020-06-25T11:09:38Z</time>
      </trkpt>
      <trkpt lat="49.69189" lon="4.87469">
        <ele>153.7</ele>
        <time>2020-06-25T11:09:39Z</time>
      </trkpt>
      <trkpt lat="49.6919" lon="4.87476">
        <ele>153.6</ele>
        <time>2020-06-25T11:09:40Z</time>
      </trkpt>
      <trkpt lat="49.6919" lon="4.87481">
        <ele>153.6</ele>
        <time>2020-06-25T11:09:41Z</time>
      </trkpt>
      <trkpt lat="49.6919" lon="4.87486">
        <ele>153.5</ele>
        <time>2020-06-25T11:09:42Z</time>
      </trkpt>
      <trkpt lat="49.69193" lon="4.87489">
        <ele>153.5</ele>
        <time>2020-06-25T11:09:43Z</time>
      </trkpt>
      <trkpt lat="49.69195" lon="4.87492">
        <ele>153.5</ele>
        <time>2020-06-25T11:09:44Z</time>
      </trkpt>
      <trkpt lat="49.69198" lon="4.87494">
        <ele>153.5</ele>
        <time>2020-06-25T11:09:45Z</time>
      </trkpt>
      <trkpt lat="49.69199" lon="4.87494">
        <ele>153.4</ele>
        <time>2020-06-25T11:09:46Z</time>
      </trkpt>
      <trkpt lat="49.69201" lon="4.87495">
        <ele>153.4</ele>
        <time>2020-06-25T11:09:47Z</time>
      </trkpt>
      <trkpt lat="49.69202" lon="4.87493">
        <ele>153.4</ele>
        <time>2020-06-25T11:09:48Z</time>
      </trkpt>
      <trkpt lat="49.69204" lon="4.87493">
        <ele>153.4</ele>
        <time>2020-06-25T11:09:49Z</time>
      </trkpt>
      <trkpt lat="49.69205" lon="4.87494">
        <ele>153.4</ele>
        <time>2020-06-25T11:09:50Z</time>
      </trkpt>
      <trkpt lat="49.69206" lon="4.87495">
        <ele>153.4</ele>
        <time>2020-06-25T11:09:51Z</time>
      </trkpt>
      <trkpt lat="49.69206" lon="4.87496">
        <ele>153.4</ele>
        <time>2020-06-25T11:09:52Z</time>
      </trkpt>
      <trkpt lat="49.69207" lon="4.87498">
        <ele>153.4</ele>
        <time>2020-06-25T11:09:53Z</time>
      </trkpt>
      <trkpt lat="49.69207" lon="4.87499">
        <ele>153.4</ele>
        <time>2020-06-25T11:09:54Z</time>
      </trkpt>
      <trkpt lat="49.69207" lon="4.87501">
        <ele>153.4</ele>
        <time>2020-06-25T11:09:55Z</time>
      </trkpt>
      <trkpt lat="49.69207" lon="4.87504">
        <ele>153.3</ele>
        <time>2020-06-25T11:09:56Z</time>
      </trkpt>
      <trkpt lat="49.69205" lon="4.8751">
        <ele>153.3</ele>
        <time>2020-06-25T11:09:57Z</time>
      </trkpt>
      <trkpt lat="49.69205" lon="4.87513">
        <ele>153.3</ele>
        <time>2020-06-25T11:09:58Z</time>
      </trkpt>
      <trkpt lat="49.69204" lon="4.87518">
        <ele>153.3</ele>
        <time>2020-06-25T11:09:59Z</time>
      </trkpt>
      <trkpt lat="49.69203" lon="4.87525">
        <ele>153.3</ele>
        <time>2020-06-25T11:10:00Z</time>
      </trkpt>
      <trkpt lat="49.69201" lon="4.8753">
        <ele>153.2</ele>
        <time>2020-06-25T11:10:01Z</time>
      </trkpt>
      <trkpt lat="49.692" lon="4.87538">
        <ele>153.2</ele>
        <time>2020-06-25T11:10:02Z</time>
      </trkpt>
      <trkpt lat="49.69199" lon="4.87546">
        <ele>153.2</ele>
        <time>2020-06-25T11:10:03Z</time>
      </trkpt>
      <trkpt lat="49.69198" lon="4.87552">
        <ele>153.2</ele>
        <time>2020-06-25T11:10:04Z</time>
      </trkpt>
      <trkpt lat="49.69198" lon="4.87559">
        <ele>153</ele>
        <time>2020-06-25T11:10:05Z</time>
      </trkpt>
      <trkpt lat="49.69199" lon="4.87565">
        <ele>152.5</ele>
        <time>2020-06-25T11:10:06Z</time>
      </trkpt>
      <trkpt lat="49.692" lon="4.87573">
        <ele>151.8</ele>
        <time>2020-06-25T11:10:07Z</time>
      </trkpt>
      <trkpt lat="49.69201" lon="4.87581">
        <ele>151.3</ele>
        <time>2020-06-25T11:10:08Z</time>
      </trkpt>
      <trkpt lat="49.69201" lon="4.8759">
        <ele>151.3</ele>
        <time>2020-06-25T11:10:09Z</time>
      </trkpt>
      <trkpt lat="49.69201" lon="4.876">
        <ele>151.4</ele>
        <time>2020-06-25T11:10:10Z</time>
      </trkpt>
      <trkpt lat="49.69202" lon="4.87608">
        <ele>151.4</ele>
        <time>2020-06-25T11:10:11Z</time>
      </trkpt>
      <trkpt lat="49.69202" lon="4.87615">
        <ele>151.4</ele>
        <time>2020-06-25T11:10:12Z</time>
      </trkpt>
      <trkpt lat="49.69202" lon="4.87622">
        <ele>151.4</ele>
        <time>2020-06-25T11:10:13Z</time>
      </trkpt>
      <trkpt lat="49.69202" lon="4.87629">
        <ele>151.4</ele>
        <time>2020-06-25T11:10:14Z</time>
      </trkpt>
      <trkpt lat="49.69202" lon="4.87635">
        <ele>151.3</ele>
        <time>2020-06-25T11:10:15Z</time>
      </trkpt>
      <trkpt lat="49.69203" lon="4.87642">
        <ele>151.3</ele>
        <time>2020-06-25T11:10:16Z</time>
      </trkpt>
      <trkpt lat="49.69203" lon="4.87649">
        <ele>151.3</ele>
        <time>2020-06-25T11:10:17Z</time>
      </trkpt>
      <trkpt lat="49.69204" lon="4.87656">
        <ele>151.3</ele>
        <time>2020-06-25T11:10:18Z</time>
      </trkpt>
      <trkpt lat="49.69207" lon="4.87666">
        <ele>151.2</ele>
        <time>2020-06-25T11:10:19Z</time>
      </trkpt>
      <trkpt lat="49.69209" lon="4.87673">
        <ele>151.1</ele>
        <time>2020-06-25T11:10:20Z</time>
      </trkpt>
      <trkpt lat="49.69212" lon="4.87681">
        <ele>151.1</ele>
        <time>2020-06-25T11:10:21Z</time>
      </trkpt>
      <trkpt lat="49.69214" lon="4.87689">
        <ele>151</ele>
        <time>2020-06-25T11:10:22Z</time>
      </trkpt>
      <trkpt lat="49.69217" lon="4.87697">
        <ele>150.9</ele>
        <time>2020-06-25T11:10:23Z</time>
      </trkpt>
      <trkpt lat="49.6922" lon="4.87705">
        <ele>150.9</ele>
        <time>2020-06-25T11:10:24Z</time>
      </trkpt>
      <trkpt lat="49.69223" lon="4.87714">
        <ele>150.8</ele>
        <time>2020-06-25T11:10:25Z</time>
      </trkpt>
      <trkpt lat="49.69225" lon="4.87723">
        <ele>150.7</ele>
        <time>2020-06-25T11:10:26Z</time>
      </trkpt>
      <trkpt lat="49.69228" lon="4.87732">
        <ele>150.6</ele>
        <time>2020-06-25T11:10:27Z</time>
      </trkpt>
      <trkpt lat="49.69231" lon="4.8774">
        <ele>150.6</ele>
        <time>2020-06-25T11:10:28Z</time>
      </trkpt>
      <trkpt lat="49.69233" lon="4.87749">
        <ele>150.5</ele>
        <time>2020-06-25T11:10:29Z</time>
      </trkpt>
      <trkpt lat="49.69235" lon="4.87757">
        <ele>150.3</ele>
        <time>2020-06-25T11:10:30Z</time>
      </trkpt>
      <trkpt lat="49.69238" lon="4.87765">
        <ele>150.2</ele>
        <time>2020-06-25T11:10:31Z</time>
      </trkpt>
      <trkpt lat="49.69241" lon="4.87774">
        <ele>150.1</ele>
        <time>2020-06-25T11:10:32Z</time>
      </trkpt>
      <trkpt lat="49.69243" lon="4.87783">
        <ele>150</ele>
        <time>2020-06-25T11:10:33Z</time>
      </trkpt>
      <trkpt lat="49.69246" lon="4.87793">
        <ele>149.9</ele>
        <time>2020-06-25T11:10:34Z</time>
      </trkpt>
      <trkpt lat="49.69249" lon="4.87803">
        <ele>149.8</ele>
        <time>2020-06-25T11:10:35Z</time>
      </trkpt>
      <trkpt lat="49.69252" lon="4.87811">
        <ele>149.7</ele>
        <time>2020-06-25T11:10:36Z</time>
      </trkpt>
      <trkpt lat="49.69255" lon="4.8782">
        <ele>149.6</ele>
        <time>2020-06-25T11:10:37Z</time>
      </trkpt>
      <trkpt lat="49.69257" lon="4.8783">
        <ele>149.6</ele>
        <time>2020-06-25T11:10:38Z</time>
      </trkpt>
      <trkpt lat="49.6926" lon="4.87841">
        <ele>149.6</ele>
        <time>2020-06-25T11:10:39Z</time>
      </trkpt>
      <trkpt lat="49.69262" lon="4.87851">
        <ele>149.6</ele>
        <time>2020-06-25T11:10:40Z</time>
      </trkpt>
      <trkpt lat="49.69265" lon="4.8786">
        <ele>149.6</ele>
        <time>2020-06-25T11:10:41Z</time>
      </trkpt>
      <trkpt lat="49.69267" lon="4.87869">
        <ele>149.5</ele>
        <time>2020-06-25T11:10:42Z</time>
      </trkpt>
      <trkpt lat="49.69269" lon="4.87878">
        <ele>149.5</ele>
        <time>2020-06-25T11:10:43Z</time>
      </trkpt>
      <trkpt lat="49.69272" lon="4.87887">
        <ele>149.5</ele>
        <time>2020-06-25T11:10:44Z</time>
      </trkpt>
      <trkpt lat="49.69275" lon="4.87897">
        <ele>149.4</ele>
        <time>2020-06-25T11:10:45Z</time>
      </trkpt>
      <trkpt lat="49.69278" lon="4.87906">
        <ele>149.4</ele>
        <time>2020-06-25T11:10:46Z</time>
      </trkpt>
      <trkpt lat="49.6928" lon="4.87915">
        <ele>149.4</ele>
        <time>2020-06-25T11:10:47Z</time>
      </trkpt>
      <trkpt lat="49.69282" lon="4.87925">
        <ele>149.4</ele>
        <time>2020-06-25T11:10:48Z</time>
      </trkpt>
      <trkpt lat="49.69284" lon="4.87935">
        <ele>149.4</ele>
        <time>2020-06-25T11:10:49Z</time>
      </trkpt>
      <trkpt lat="49.69286" lon="4.87945">
        <ele>149.4</ele>
        <time>2020-06-25T11:10:50Z</time>
      </trkpt>
      <trkpt lat="49.69289" lon="4.87955">
        <ele>149.4</ele>
        <time>2020-06-25T11:10:51Z</time>
      </trkpt>
      <trkpt lat="49.69292" lon="4.87964">
        <ele>149.3</ele>
        <time>2020-06-25T11:10:52Z</time>
      </trkpt>
      <trkpt lat="49.69295" lon="4.87974">
        <ele>149.3</ele>
        <time>2020-06-25T11:10:53Z</time>
      </trkpt>
      <trkpt lat="49.69298" lon="4.87984">
        <ele>149.3</ele>
        <time>2020-06-25T11:10:54Z</time>
      </trkpt>
      <trkpt lat="49.693" lon="4.87994">
        <ele>149.3</ele>
        <time>2020-06-25T11:10:55Z</time>
      </trkpt>
      <trkpt lat="49.69303" lon="4.88003">
        <ele>149.3</ele>
        <time>2020-06-25T11:10:56Z</time>
      </trkpt>
      <trkpt lat="49.69305" lon="4.88012">
        <ele>149.3</ele>
        <time>2020-06-25T11:10:57Z</time>
      </trkpt>
      <trkpt lat="49.69307" lon="4.88022">
        <ele>149.2</ele>
        <time>2020-06-25T11:10:58Z</time>
      </trkpt>
      <trkpt lat="49.6931" lon="4.88032">
        <ele>149.2</ele>
        <time>2020-06-25T11:10:59Z</time>
      </trkpt>
      <trkpt lat="49.69312" lon="4.88042">
        <ele>149.1</ele>
        <time>2020-06-25T11:11:00Z</time>
      </trkpt>
      <trkpt lat="49.69314" lon="4.88052">
        <ele>149</ele>
        <time>2020-06-25T11:11:01Z</time>
      </trkpt>
      <trkpt lat="49.69315" lon="4.88063">
        <ele>148.9</ele>
        <time>2020-06-25T11:11:02Z</time>
      </trkpt>
      <trkpt lat="49.69315" lon="4.88074">
        <ele>148.8</ele>
        <time>2020-06-25T11:11:03Z</time>
      </trkpt>
      <trkpt lat="49.69314" lon="4.88084">
        <ele>148.7</ele>
        <time>2020-06-25T11:11:04Z</time>
      </trkpt>
      <trkpt lat="49.69314" lon="4.88095">
        <ele>148.7</ele>
        <time>2020-06-25T11:11:05Z</time>
      </trkpt>
      <trkpt lat="49.69313" lon="4.88105">
        <ele>148.6</ele>
        <time>2020-06-25T11:11:06Z</time>
      </trkpt>
      <trkpt lat="49.69313" lon="4.88116">
        <ele>148.5</ele>
        <time>2020-06-25T11:11:07Z</time>
      </trkpt>
      <trkpt lat="49.69313" lon="4.88126">
        <ele>148.4</ele>
        <time>2020-06-25T11:11:08Z</time>
      </trkpt>
      <trkpt lat="49.69313" lon="4.88136">
        <ele>148.3</ele>
        <time>2020-06-25T11:11:09Z</time>
      </trkpt>
      <trkpt lat="49.69313" lon="4.88147">
        <ele>148.2</ele>
        <time>2020-06-25T11:11:10Z</time>
      </trkpt>
      <trkpt lat="49.69312" lon="4.88157">
        <ele>148.2</ele>
        <time>2020-06-25T11:11:11Z</time>
      </trkpt>
      <trkpt lat="49.6931" lon="4.88167">
        <ele>148.2</ele>
        <time>2020-06-25T11:11:12Z</time>
      </trkpt>
      <trkpt lat="49.69309" lon="4.88178">
        <ele>148.1</ele>
        <time>2020-06-25T11:11:13Z</time>
      </trkpt>
      <trkpt lat="49.69307" lon="4.88188">
        <ele>148</ele>
        <time>2020-06-25T11:11:14Z</time>
      </trkpt>
      <trkpt lat="49.69306" lon="4.88198">
        <ele>148</ele>
        <time>2020-06-25T11:11:15Z</time>
      </trkpt>
      <trkpt lat="49.69304" lon="4.88207">
        <ele>148</ele>
        <time>2020-06-25T11:11:16Z</time>
      </trkpt>
      <trkpt lat="49.69302" lon="4.88216">
        <ele>148</ele>
        <time>2020-06-25T11:11:17Z</time>
      </trkpt>
      <trkpt lat="49.693" lon="4.88224">
        <ele>148</ele>
        <time>2020-06-25T11:11:18Z</time>
      </trkpt>
      <trkpt lat="49.693" lon="4.88233">
        <ele>148</ele>
        <time>2020-06-25T11:11:19Z</time>
      </trkpt>
      <trkpt lat="49.69299" lon="4.88241">
        <ele>148</ele>
        <time>2020-06-25T11:11:20Z</time>
      </trkpt>
      <trkpt lat="49.69297" lon="4.8825">
        <ele>148</ele>
        <time>2020-06-25T11:11:21Z</time>
      </trkpt>
      <trkpt lat="49.69295" lon="4.88259">
        <ele>148</ele>
        <time>2020-06-25T11:11:22Z</time>
      </trkpt>
      <trkpt lat="49.69293" lon="4.88267">
        <ele>148</ele>
        <time>2020-06-25T11:11:23Z</time>
      </trkpt>
      <trkpt lat="49.69291" lon="4.88276">
        <ele>148</ele>
        <time>2020-06-25T11:11:24Z</time>
      </trkpt>
      <trkpt lat="49.69289" lon="4.88284">
        <ele>148</ele>
        <time>2020-06-25T11:11:25Z</time>
      </trkpt>
      <trkpt lat="49.69287" lon="4.88293">
        <ele>148</ele>
        <time>2020-06-25T11:11:26Z</time>
      </trkpt>
      <trkpt lat="49.69286" lon="4.88301">
        <ele>148</ele>
        <time>2020-06-25T11:11:27Z</time>
      </trkpt>
      <trkpt lat="49.69284" lon="4.8831">
        <ele>148</ele>
        <time>2020-06-25T11:11:28Z</time>
      </trkpt>
      <trkpt lat="49.69282" lon="4.88319">
        <ele>148</ele>
        <time>2020-06-25T11:11:29Z</time>
      </trkpt>
      <trkpt lat="49.6928" lon="4.88327">
        <ele>148</ele>
        <time>2020-06-25T11:11:30Z</time>
      </trkpt>
      <trkpt lat="49.69279" lon="4.88336">
        <ele>148</ele>
        <time>2020-06-25T11:11:31Z</time>
      </trkpt>
      <trkpt lat="49.69278" lon="4.88345">
        <ele>148</ele>
        <time>2020-06-25T11:11:32Z</time>
      </trkpt>
      <trkpt lat="49.69276" lon="4.88354">
        <ele>148</ele>
        <time>2020-06-25T11:11:33Z</time>
      </trkpt>
      <trkpt lat="49.69275" lon="4.88362">
        <ele>148.1</ele>
        <time>2020-06-25T11:11:34Z</time>
      </trkpt>
      <trkpt lat="49.69274" lon="4.88371">
        <ele>148.1</ele>
        <time>2020-06-25T11:11:35Z</time>
      </trkpt>
      <trkpt lat="49.69273" lon="4.8838">
        <ele>148.1</ele>
        <time>2020-06-25T11:11:36Z</time>
      </trkpt>
      <trkpt lat="49.69273" lon="4.88389">
        <ele>148.2</ele>
        <time>2020-06-25T11:11:37Z</time>
      </trkpt>
      <trkpt lat="49.69272" lon="4.88399">
        <ele>148.3</ele>
        <time>2020-06-25T11:11:38Z</time>
      </trkpt>
      <trkpt lat="49.69272" lon="4.8841">
        <ele>148.3</ele>
        <time>2020-06-25T11:11:39Z</time>
      </trkpt>
      <trkpt lat="49.69271" lon="4.88421">
        <ele>148.4</ele>
        <time>2020-06-25T11:11:40Z</time>
      </trkpt>
      <trkpt lat="49.69271" lon="4.88432">
        <ele>148.4</ele>
        <time>2020-06-25T11:11:41Z</time>
      </trkpt>
      <trkpt lat="49.6927" lon="4.88442">
        <ele>148.4</ele>
        <time>2020-06-25T11:11:42Z</time>
      </trkpt>
      <trkpt lat="49.6927" lon="4.88451">
        <ele>148.4</ele>
        <time>2020-06-25T11:11:43Z</time>
      </trkpt>
      <trkpt lat="49.69269" lon="4.8846">
        <ele>148.4</ele>
        <time>2020-06-25T11:11:44Z</time>
      </trkpt>
      <trkpt lat="49.69269" lon="4.88469">
        <ele>148.4</ele>
        <time>2020-06-25T11:11:45Z</time>
      </trkpt>
      <trkpt lat="49.69268" lon="4.88479">
        <ele>148.4</ele>
        <time>2020-06-25T11:11:46Z</time>
      </trkpt>
      <trkpt lat="49.69267" lon="4.88488">
        <ele>148.4</ele>
        <time>2020-06-25T11:11:47Z</time>
      </trkpt>
      <trkpt lat="49.69267" lon="4.88496">
        <ele>148.4</ele>
        <time>2020-06-25T11:11:48Z</time>
      </trkpt>
      <trkpt lat="49.69266" lon="4.88504">
        <ele>148.4</ele>
        <time>2020-06-25T11:11:49Z</time>
      </trkpt>
      <trkpt lat="49.69265" lon="4.88513">
        <ele>148.4</ele>
        <time>2020-06-25T11:11:50Z</time>
      </trkpt>
      <trkpt lat="49.69265" lon="4.8852">
        <ele>148.4</ele>
        <time>2020-06-25T11:11:51Z</time>
      </trkpt>
      <trkpt lat="49.69263" lon="4.88527">
        <ele>148.4</ele>
        <time>2020-06-25T11:11:52Z</time>
      </trkpt>
      <trkpt lat="49.69265" lon="4.88531">
        <ele>148.4</ele>
        <time>2020-06-25T11:11:53Z</time>
      </trkpt>
      <trkpt lat="49.69266" lon="4.88536">
        <ele>148.4</ele>
        <time>2020-06-25T11:11:54Z</time>
      </trkpt>
      <trkpt lat="49.69266" lon="4.88542">
        <ele>148.4</ele>
        <time>2020-06-25T11:11:55Z</time>
      </trkpt>
      <trkpt lat="49.69265" lon="4.8855">
        <ele>148.4</ele>
        <time>2020-06-25T11:11:56Z</time>
      </trkpt>
      <trkpt lat="49.69265" lon="4.8856">
        <ele>148.4</ele>
        <time>2020-06-25T11:11:57Z</time>
      </trkpt>
      <trkpt lat="49.69264" lon="4.88569">
        <ele>148.4</ele>
        <time>2020-06-25T11:11:58Z</time>
      </trkpt>
      <trkpt lat="49.69263" lon="4.88578">
        <ele>148.4</ele>
        <time>2020-06-25T11:11:59Z</time>
      </trkpt>
      <trkpt lat="49.69261" lon="4.88586">
        <ele>148.4</ele>
        <time>2020-06-25T11:12:00Z</time>
      </trkpt>
      <trkpt lat="49.69261" lon="4.88594">
        <ele>148.4</ele>
        <time>2020-06-25T11:12:01Z</time>
      </trkpt>
      <trkpt lat="49.6926" lon="4.88602">
        <ele>148.4</ele>
        <time>2020-06-25T11:12:02Z</time>
      </trkpt>
      <trkpt lat="49.69259" lon="4.8861">
        <ele>148.3</ele>
        <time>2020-06-25T11:12:03Z</time>
      </trkpt>
      <trkpt lat="49.69258" lon="4.88618">
        <ele>148.3</ele>
        <time>2020-06-25T11:12:04Z</time>
      </trkpt>
      <trkpt lat="49.69258" lon="4.88627">
        <ele>148.3</ele>
        <time>2020-06-25T11:12:05Z</time>
      </trkpt>
      <trkpt lat="49.69256" lon="4.88637">
        <ele>148.3</ele>
        <time>2020-06-25T11:12:06Z</time>
      </trkpt>
      <trkpt lat="49.69257" lon="4.88642">
        <ele>148.3</ele>
        <time>2020-06-25T11:12:07Z</time>
      </trkpt>
      <trkpt lat="49.69256" lon="4.8865">
        <ele>148.3</ele>
        <time>2020-06-25T11:12:08Z</time>
      </trkpt>
      <trkpt lat="49.69255" lon="4.88658">
        <ele>148.3</ele>
        <time>2020-06-25T11:12:09Z</time>
      </trkpt>
      <trkpt lat="49.69254" lon="4.88667">
        <ele>148.4</ele>
        <time>2020-06-25T11:12:10Z</time>
      </trkpt>
      <trkpt lat="49.69253" lon="4.88675">
        <ele>148.4</ele>
        <time>2020-06-25T11:12:11Z</time>
      </trkpt>
      <trkpt lat="49.69253" lon="4.88683">
        <ele>148.4</ele>
        <time>2020-06-25T11:12:12Z</time>
      </trkpt>
      <trkpt lat="49.69253" lon="4.88691">
        <ele>148.4</ele>
        <time>2020-06-25T11:12:13Z</time>
      </trkpt>
      <trkpt lat="49.69253" lon="4.88698">
        <ele>148.4</ele>
        <time>2020-06-25T11:12:14Z</time>
      </trkpt>
      <trkpt lat="49.69254" lon="4.88706">
        <ele>148.4</ele>
        <time>2020-06-25T11:12:15Z</time>
      </trkpt>
      <trkpt lat="49.69254" lon="4.88714">
        <ele>148.4</ele>
        <time>2020-06-25T11:12:16Z</time>
      </trkpt>
      <trkpt lat="49.69254" lon="4.88722">
        <ele>148.4</ele>
        <time>2020-06-25T11:12:17Z</time>
      </trkpt>
      <trkpt lat="49.69254" lon="4.88729">
        <ele>148.4</ele>
        <time>2020-06-25T11:12:18Z</time>
      </trkpt>
      <trkpt lat="49.69253" lon="4.88737">
        <ele>148.4</ele>
        <time>2020-06-25T11:12:19Z</time>
      </trkpt>
      <trkpt lat="49.69253" lon="4.88745">
        <ele>148.4</ele>
        <time>2020-06-25T11:12:20Z</time>
      </trkpt>
      <trkpt lat="49.69253" lon="4.88753">
        <ele>148.4</ele>
        <time>2020-06-25T11:12:21Z</time>
      </trkpt>
      <trkpt lat="49.69252" lon="4.88761">
        <ele>148.4</ele>
        <time>2020-06-25T11:12:22Z</time>
      </trkpt>
      <trkpt lat="49.69252" lon="4.88768">
        <ele>148.4</ele>
        <time>2020-06-25T11:12:23Z</time>
      </trkpt>
      <trkpt lat="49.69251" lon="4.88778">
        <ele>148.4</ele>
        <time>2020-06-25T11:12:24Z</time>
      </trkpt>
      <trkpt lat="49.69251" lon="4.88786">
        <ele>148.4</ele>
        <time>2020-06-25T11:12:25Z</time>
      </trkpt>
      <trkpt lat="49.6925" lon="4.88795">
        <ele>148.3</ele>
        <time>2020-06-25T11:12:26Z</time>
      </trkpt>
      <trkpt lat="49.6925" lon="4.88803">
        <ele>148.3</ele>
        <time>2020-06-25T11:12:27Z</time>
      </trkpt>
      <trkpt lat="49.69249" lon="4.88811">
        <ele>148.3</ele>
        <time>2020-06-25T11:12:28Z</time>
      </trkpt>
      <trkpt lat="49.69248" lon="4.88817">
        <ele>148.3</ele>
        <time>2020-06-25T11:12:29Z</time>
      </trkpt>
      <trkpt lat="49.69247" lon="4.88824">
        <ele>148.3</ele>
        <time>2020-06-25T11:12:30Z</time>
      </trkpt>
      <trkpt lat="49.69247" lon="4.88832">
        <ele>148.4</ele>
        <time>2020-06-25T11:12:31Z</time>
      </trkpt>
      <trkpt lat="49.69247" lon="4.88841">
        <ele>148.4</ele>
        <time>2020-06-25T11:12:32Z</time>
      </trkpt>
      <trkpt lat="49.69246" lon="4.88851">
        <ele>148.5</ele>
        <time>2020-06-25T11:12:33Z</time>
      </trkpt>
      <trkpt lat="49.69246" lon="4.88859">
        <ele>148.6</ele>
        <time>2020-06-25T11:12:34Z</time>
      </trkpt>
      <trkpt lat="49.69246" lon="4.88867">
        <ele>148.6</ele>
        <time>2020-06-25T11:12:35Z</time>
      </trkpt>
      <trkpt lat="49.69246" lon="4.88872">
        <ele>148.6</ele>
        <time>2020-06-25T11:12:36Z</time>
      </trkpt>
      <trkpt lat="49.69246" lon="4.88879">
        <ele>148.6</ele>
        <time>2020-06-25T11:12:37Z</time>
      </trkpt>
      <trkpt lat="49.69245" lon="4.88886">
        <ele>148.7</ele>
        <time>2020-06-25T11:12:38Z</time>
      </trkpt>
      <trkpt lat="49.69245" lon="4.88893">
        <ele>148.7</ele>
        <time>2020-06-25T11:12:39Z</time>
      </trkpt>
      <trkpt lat="49.69244" lon="4.889">
        <ele>148.7</ele>
        <time>2020-06-25T11:12:40Z</time>
      </trkpt>
      <trkpt lat="49.69244" lon="4.8891">
        <ele>148.7</ele>
        <time>2020-06-25T11:12:41Z</time>
      </trkpt>
      <trkpt lat="49.69244" lon="4.88919">
        <ele>148.7</ele>
        <time>2020-06-25T11:12:42Z</time>
      </trkpt>
      <trkpt lat="49.69244" lon="4.88927">
        <ele>148.8</ele>
        <time>2020-06-25T11:12:43Z</time>
      </trkpt>
      <trkpt lat="49.69244" lon="4.88936">
        <ele>148.8</ele>
        <time>2020-06-25T11:12:44Z</time>
      </trkpt>
      <trkpt lat="49.69244" lon="4.88942">
        <ele>148.8</ele>
        <time>2020-06-25T11:12:45Z</time>
      </trkpt>
      <trkpt lat="49.69244" lon="4.8895">
        <ele>148.8</ele>
        <time>2020-06-25T11:12:46Z</time>
      </trkpt>
      <trkpt lat="49.69244" lon="4.88958">
        <ele>148.9</ele>
        <time>2020-06-25T11:12:47Z</time>
      </trkpt>
      <trkpt lat="49.69243" lon="4.88964">
        <ele>148.9</ele>
        <time>2020-06-25T11:12:48Z</time>
      </trkpt>
      <trkpt lat="49.69243" lon="4.88972">
        <ele>148.9</ele>
        <time>2020-06-25T11:12:49Z</time>
      </trkpt>
      <trkpt lat="49.69242" lon="4.88981">
        <ele>148.9</ele>
        <time>2020-06-25T11:12:50Z</time>
      </trkpt>
      <trkpt lat="49.69242" lon="4.88988">
        <ele>149</ele>
        <time>2020-06-25T11:12:51Z</time>
      </trkpt>
      <trkpt lat="49.69242" lon="4.88995">
        <ele>149</ele>
        <time>2020-06-25T11:12:52Z</time>
      </trkpt>
      <trkpt lat="49.69242" lon="4.89002">
        <ele>149</ele>
        <time>2020-06-25T11:12:53Z</time>
      </trkpt>
      <trkpt lat="49.69241" lon="4.8901">
        <ele>149</ele>
        <time>2020-06-25T11:12:54Z</time>
      </trkpt>
      <trkpt lat="49.69241" lon="4.89019">
        <ele>149.1</ele>
        <time>2020-06-25T11:12:55Z</time>
      </trkpt>
      <trkpt lat="49.69241" lon="4.89025">
        <ele>149.1</ele>
        <time>2020-06-25T11:12:56Z</time>
      </trkpt>
      <trkpt lat="49.69241" lon="4.89034">
        <ele>149.1</ele>
        <time>2020-06-25T11:12:57Z</time>
      </trkpt>
      <trkpt lat="49.69241" lon="4.89043">
        <ele>149.1</ele>
        <time>2020-06-25T11:12:58Z</time>
      </trkpt>
      <trkpt lat="49.69241" lon="4.8905">
        <ele>149.1</ele>
        <time>2020-06-25T11:12:59Z</time>
      </trkpt>
      <trkpt lat="49.6924" lon="4.89057">
        <ele>149.2</ele>
        <time>2020-06-25T11:13:00Z</time>
      </trkpt>
      <trkpt lat="49.6924" lon="4.89066">
        <ele>149.2</ele>
        <time>2020-06-25T11:13:01Z</time>
      </trkpt>
      <trkpt lat="49.6924" lon="4.89074">
        <ele>149.2</ele>
        <time>2020-06-25T11:13:02Z</time>
      </trkpt>
      <trkpt lat="49.69239" lon="4.89082">
        <ele>149.3</ele>
        <time>2020-06-25T11:13:03Z</time>
      </trkpt>
      <trkpt lat="49.69239" lon="4.89089">
        <ele>149.3</ele>
        <time>2020-06-25T11:13:04Z</time>
      </trkpt>
      <trkpt lat="49.69238" lon="4.89096">
        <ele>149.3</ele>
        <time>2020-06-25T11:13:05Z</time>
      </trkpt>
      <trkpt lat="49.69237" lon="4.89104">
        <ele>149.4</ele>
        <time>2020-06-25T11:13:06Z</time>
      </trkpt>
      <trkpt lat="49.69237" lon="4.89112">
        <ele>149.4</ele>
        <time>2020-06-25T11:13:07Z</time>
      </trkpt>
      <trkpt lat="49.69237" lon="4.8912">
        <ele>149.4</ele>
        <time>2020-06-25T11:13:08Z</time>
      </trkpt>
      <trkpt lat="49.69237" lon="4.89128">
        <ele>149.4</ele>
        <time>2020-06-25T11:13:09Z</time>
      </trkpt>
      <trkpt lat="49.69237" lon="4.89135">
        <ele>149.4</ele>
        <time>2020-06-25T11:13:10Z</time>
      </trkpt>
      <trkpt lat="49.69238" lon="4.89143">
        <ele>149.4</ele>
        <time>2020-06-25T11:13:11Z</time>
      </trkpt>
      <trkpt lat="49.69238" lon="4.89151">
        <ele>149.4</ele>
        <time>2020-06-25T11:13:12Z</time>
      </trkpt>
      <trkpt lat="49.69238" lon="4.89159">
        <ele>149.4</ele>
        <time>2020-06-25T11:13:13Z</time>
      </trkpt>
      <trkpt lat="49.69239" lon="4.89168">
        <ele>149.4</ele>
        <time>2020-06-25T11:13:14Z</time>
      </trkpt>
      <trkpt lat="49.69239" lon="4.89175">
        <ele>149.4</ele>
        <time>2020-06-25T11:13:15Z</time>
      </trkpt>
      <trkpt lat="49.69239" lon="4.89185">
        <ele>149.3</ele>
        <time>2020-06-25T11:13:16Z</time>
      </trkpt>
      <trkpt lat="49.69239" lon="4.89193">
        <ele>149.3</ele>
        <time>2020-06-25T11:13:17Z</time>
      </trkpt>
      <trkpt lat="49.69239" lon="4.89199">
        <ele>149.3</ele>
        <time>2020-06-25T11:13:18Z</time>
      </trkpt>
      <trkpt lat="49.6924" lon="4.89208">
        <ele>149.3</ele>
        <time>2020-06-25T11:13:19Z</time>
      </trkpt>
      <trkpt lat="49.69241" lon="4.89214">
        <ele>149.3</ele>
        <time>2020-06-25T11:13:20Z</time>
      </trkpt>
      <trkpt lat="49.69242" lon="4.89222">
        <ele>149.2</ele>
        <time>2020-06-25T11:13:21Z</time>
      </trkpt>
      <trkpt lat="49.69243" lon="4.89229">
        <ele>149.2</ele>
        <time>2020-06-25T11:13:22Z</time>
      </trkpt>
      <trkpt lat="49.69243" lon="4.89238">
        <ele>149.2</ele>
        <time>2020-06-25T11:13:23Z</time>
      </trkpt>
      <trkpt lat="49.69244" lon="4.89248">
        <ele>149.3</ele>
        <time>2020-06-25T11:13:24Z</time>
      </trkpt>
      <trkpt lat="49.69245" lon="4.89257">
        <ele>149.3</ele>
        <time>2020-06-25T11:13:25Z</time>
      </trkpt>
      <trkpt lat="49.69245" lon="4.89266">
        <ele>149.4</ele>
        <time>2020-06-25T11:13:26Z</time>
      </trkpt>
      <trkpt lat="49.69246" lon="4.89275">
        <ele>149.5</ele>
        <time>2020-06-25T11:13:27Z</time>
      </trkpt>
      <trkpt lat="49.69247" lon="4.89285">
        <ele>149.6</ele>
        <time>2020-06-25T11:13:28Z</time>
      </trkpt>
      <trkpt lat="49.69248" lon="4.89293">
        <ele>149.6</ele>
        <time>2020-06-25T11:13:29Z</time>
      </trkpt>
      <trkpt lat="49.69248" lon="4.89302">
        <ele>149.7</ele>
        <time>2020-06-25T11:13:30Z</time>
      </trkpt>
      <trkpt lat="49.69249" lon="4.89309">
        <ele>149.8</ele>
        <time>2020-06-25T11:13:31Z</time>
      </trkpt>
      <trkpt lat="49.69249" lon="4.89314">
        <ele>149.8</ele>
        <time>2020-06-25T11:13:32Z</time>
      </trkpt>
      <trkpt lat="49.6925" lon="4.8932">
        <ele>149.9</ele>
        <time>2020-06-25T11:13:33Z</time>
      </trkpt>
      <trkpt lat="49.69251" lon="4.89326">
        <ele>149.9</ele>
        <time>2020-06-25T11:13:34Z</time>
      </trkpt>
      <trkpt lat="49.69252" lon="4.89334">
        <ele>149.9</ele>
        <time>2020-06-25T11:13:35Z</time>
      </trkpt>
      <trkpt lat="49.69252" lon="4.89343">
        <ele>150</ele>
        <time>2020-06-25T11:13:36Z</time>
      </trkpt>
      <trkpt lat="49.69252" lon="4.89351">
        <ele>150</ele>
        <time>2020-06-25T11:13:37Z</time>
      </trkpt>
      <trkpt lat="49.69252" lon="4.89359">
        <ele>150</ele>
        <time>2020-06-25T11:13:38Z</time>
      </trkpt>
      <trkpt lat="49.69253" lon="4.89367">
        <ele>150</ele>
        <time>2020-06-25T11:13:39Z</time>
      </trkpt>
      <trkpt lat="49.69253" lon="4.89373">
        <ele>150.1</ele>
        <time>2020-06-25T11:13:40Z</time>
      </trkpt>
      <trkpt lat="49.69254" lon="4.89382">
        <ele>150.1</ele>
        <time>2020-06-25T11:13:41Z</time>
      </trkpt>
      <trkpt lat="49.69255" lon="4.89391">
        <ele>150.1</ele>
        <time>2020-06-25T11:13:42Z</time>
      </trkpt>
      <trkpt lat="49.69255" lon="4.89398">
        <ele>150.2</ele>
        <time>2020-06-25T11:13:43Z</time>
      </trkpt>
      <trkpt lat="49.69256" lon="4.89405">
        <ele>150.2</ele>
        <time>2020-06-25T11:13:44Z</time>
      </trkpt>
      <trkpt lat="49.69258" lon="4.89411">
        <ele>150.2</ele>
        <time>2020-06-25T11:13:45Z</time>
      </trkpt>
      <trkpt lat="49.69259" lon="4.89418">
        <ele>150.2</ele>
        <time>2020-06-25T11:13:46Z</time>
      </trkpt>
      <trkpt lat="49.69261" lon="4.89424">
        <ele>150.2</ele>
        <time>2020-06-25T11:13:47Z</time>
      </trkpt>
      <trkpt lat="49.69263" lon="4.89431">
        <ele>150.2</ele>
        <time>2020-06-25T11:13:48Z</time>
      </trkpt>
      <trkpt lat="49.69264" lon="4.89439">
        <ele>150.1</ele>
        <time>2020-06-25T11:13:49Z</time>
      </trkpt>
      <trkpt lat="49.69266" lon="4.89447">
        <ele>150.1</ele>
        <time>2020-06-25T11:13:50Z</time>
      </trkpt>
      <trkpt lat="49.69267" lon="4.89456">
        <ele>150</ele>
        <time>2020-06-25T11:13:51Z</time>
      </trkpt>
      <trkpt lat="49.69269" lon="4.89464">
        <ele>150</ele>
        <time>2020-06-25T11:13:52Z</time>
      </trkpt>
      <trkpt lat="49.69271" lon="4.89471">
        <ele>150</ele>
        <time>2020-06-25T11:13:53Z</time>
      </trkpt>
      <trkpt lat="49.69273" lon="4.89479">
        <ele>150</ele>
        <time>2020-06-25T11:13:54Z</time>
      </trkpt>
      <trkpt lat="49.69274" lon="4.89486">
        <ele>150</ele>
        <time>2020-06-25T11:13:55Z</time>
      </trkpt>
      <trkpt lat="49.69276" lon="4.89494">
        <ele>150.1</ele>
        <time>2020-06-25T11:13:56Z</time>
      </trkpt>
      <trkpt lat="49.69278" lon="4.89501">
        <ele>150.1</ele>
        <time>2020-06-25T11:13:57Z</time>
      </trkpt>
      <trkpt lat="49.69279" lon="4.89508">
        <ele>150.2</ele>
        <time>2020-06-25T11:13:58Z</time>
      </trkpt>
      <trkpt lat="49.6928" lon="4.89515">
        <ele>150.2</ele>
        <time>2020-06-25T11:13:59Z</time>
      </trkpt>
      <trkpt lat="49.69282" lon="4.89522">
        <ele>150.3</ele>
        <time>2020-06-25T11:14:00Z</time>
      </trkpt>
      <trkpt lat="49.69283" lon="4.89529">
        <ele>150.4</ele>
        <time>2020-06-25T11:14:01Z</time>
      </trkpt>
      <trkpt lat="49.69284" lon="4.89535">
        <ele>150.4</ele>
        <time>2020-06-25T11:14:02Z</time>
      </trkpt>
      <trkpt lat="49.69285" lon="4.89542">
        <ele>150.5</ele>
        <time>2020-06-25T11:14:03Z</time>
      </trkpt>
      <trkpt lat="49.69286" lon="4.89549">
        <ele>150.5</ele>
        <time>2020-06-25T11:14:04Z</time>
      </trkpt>
      <trkpt lat="49.69288" lon="4.89556">
        <ele>150.5</ele>
        <time>2020-06-25T11:14:05Z</time>
      </trkpt>
      <trkpt lat="49.69289" lon="4.89562">
        <ele>150.5</ele>
        <time>2020-06-25T11:14:06Z</time>
      </trkpt>
      <trkpt lat="49.69291" lon="4.89568">
        <ele>150.5</ele>
        <time>2020-06-25T11:14:07Z</time>
      </trkpt>
      <trkpt lat="49.69294" lon="4.89575">
        <ele>150.5</ele>
        <time>2020-06-25T11:14:08Z</time>
      </trkpt>
      <trkpt lat="49.69296" lon="4.89581">
        <ele>150.5</ele>
        <time>2020-06-25T11:14:09Z</time>
      </trkpt>
      <trkpt lat="49.69298" lon="4.89588">
        <ele>150.5</ele>
        <time>2020-06-25T11:14:10Z</time>
      </trkpt>
      <trkpt lat="49.69301" lon="4.89595">
        <ele>150.5</ele>
        <time>2020-06-25T11:14:11Z</time>
      </trkpt>
      <trkpt lat="49.69303" lon="4.89603">
        <ele>150.5</ele>
        <time>2020-06-25T11:14:12Z</time>
      </trkpt>
      <trkpt lat="49.69306" lon="4.89611">
        <ele>150.4</ele>
        <time>2020-06-25T11:14:13Z</time>
      </trkpt>
      <trkpt lat="49.69309" lon="4.89619">
        <ele>150.4</ele>
        <time>2020-06-25T11:14:14Z</time>
      </trkpt>
      <trkpt lat="49.69313" lon="4.89627">
        <ele>150.3</ele>
        <time>2020-06-25T11:14:15Z</time>
      </trkpt>
      <trkpt lat="49.69315" lon="4.89636">
        <ele>150.3</ele>
        <time>2020-06-25T11:14:16Z</time>
      </trkpt>
      <trkpt lat="49.69318" lon="4.89642">
        <ele>150.3</ele>
        <time>2020-06-25T11:14:17Z</time>
      </trkpt>
      <trkpt lat="49.69321" lon="4.8965">
        <ele>150.2</ele>
        <time>2020-06-25T11:14:18Z</time>
      </trkpt>
      <trkpt lat="49.69324" lon="4.89657">
        <ele>150.2</ele>
        <time>2020-06-25T11:14:19Z</time>
      </trkpt>
      <trkpt lat="49.69327" lon="4.89664">
        <ele>150.1</ele>
        <time>2020-06-25T11:14:20Z</time>
      </trkpt>
      <trkpt lat="49.69329" lon="4.8967">
        <ele>150.1</ele>
        <time>2020-06-25T11:14:21Z</time>
      </trkpt>
      <trkpt lat="49.69332" lon="4.89675">
        <ele>150.1</ele>
        <time>2020-06-25T11:14:22Z</time>
      </trkpt>
      <trkpt lat="49.69335" lon="4.89681">
        <ele>150.1</ele>
        <time>2020-06-25T11:14:23Z</time>
      </trkpt>
      <trkpt lat="49.69337" lon="4.89687">
        <ele>150.1</ele>
        <time>2020-06-25T11:14:24Z</time>
      </trkpt>
      <trkpt lat="49.69339" lon="4.89692">
        <ele>150.1</ele>
        <time>2020-06-25T11:14:25Z</time>
      </trkpt>
      <trkpt lat="49.69343" lon="4.89701">
        <ele>150.1</ele>
        <time>2020-06-25T11:14:26Z</time>
      </trkpt>
      <trkpt lat="49.69347" lon="4.89709">
        <ele>150.1</ele>
        <time>2020-06-25T11:14:27Z</time>
      </trkpt>
      <trkpt lat="49.6935" lon="4.89715">
        <ele>150.2</ele>
        <time>2020-06-25T11:14:28Z</time>
      </trkpt>
      <trkpt lat="49.69353" lon="4.8972">
        <ele>150.2</ele>
        <time>2020-06-25T11:14:29Z</time>
      </trkpt>
      <trkpt lat="49.69356" lon="4.89725">
        <ele>150.2</ele>
        <time>2020-06-25T11:14:30Z</time>
      </trkpt>
      <trkpt lat="49.69358" lon="4.89729">
        <ele>150.2</ele>
        <time>2020-06-25T11:14:31Z</time>
      </trkpt>
      <trkpt lat="49.6936" lon="4.89734">
        <ele>150.2</ele>
        <time>2020-06-25T11:14:32Z</time>
      </trkpt>
      <trkpt lat="49.69362" lon="4.89739">
        <ele>150.2</ele>
        <time>2020-06-25T11:14:33Z</time>
      </trkpt>
      <trkpt lat="49.69365" lon="4.89744">
        <ele>150.2</ele>
        <time>2020-06-25T11:14:34Z</time>
      </trkpt>
      <trkpt lat="49.69365" lon="4.89746">
        <ele>150.2</ele>
        <time>2020-06-25T11:14:35Z</time>
      </trkpt>
      <trkpt lat="49.69368" lon="4.8975">
        <ele>150.2</ele>
        <time>2020-06-25T11:14:36Z</time>
      </trkpt>
      <trkpt lat="49.69369" lon="4.89751">
        <ele>150.2</ele>
        <time>2020-06-25T11:14:37Z</time>
      </trkpt>
      <trkpt lat="49.69372" lon="4.89754">
        <ele>150.1</ele>
        <time>2020-06-25T11:14:38Z</time>
      </trkpt>
      <trkpt lat="49.69375" lon="4.89758">
        <ele>150.1</ele>
        <time>2020-06-25T11:14:39Z</time>
      </trkpt>
      <trkpt lat="49.69378" lon="4.89761">
        <ele>150</ele>
        <time>2020-06-25T11:14:40Z</time>
      </trkpt>
      <trkpt lat="49.69381" lon="4.89765">
        <ele>150</ele>
        <time>2020-06-25T11:14:41Z</time>
      </trkpt>
      <trkpt lat="49.69385" lon="4.89768">
        <ele>149.9</ele>
        <time>2020-06-25T11:14:42Z</time>
      </trkpt>
      <trkpt lat="49.69388" lon="4.89772">
        <ele>149.8</ele>
        <time>2020-06-25T11:14:43Z</time>
      </trkpt>
      <trkpt lat="49.69392" lon="4.89775">
        <ele>149.8</ele>
        <time>2020-06-25T11:14:44Z</time>
      </trkpt>
      <trkpt lat="49.69396" lon="4.89778">
        <ele>149.8</ele>
        <time>2020-06-25T11:14:45Z</time>
      </trkpt>
      <trkpt lat="49.694" lon="4.8978">
        <ele>149.7</ele>
        <time>2020-06-25T11:14:46Z</time>
      </trkpt>
      <trkpt lat="49.69404" lon="4.89783">
        <ele>149.7</ele>
        <time>2020-06-25T11:14:47Z</time>
      </trkpt>
      <trkpt lat="49.69407" lon="4.89784">
        <ele>149.7</ele>
        <time>2020-06-25T11:14:48Z</time>
      </trkpt>
      <trkpt lat="49.6941" lon="4.89787">
        <ele>149.7</ele>
        <time>2020-06-25T11:14:49Z</time>
      </trkpt>
      <trkpt lat="49.69414" lon="4.89791">
        <ele>149.7</ele>
        <time>2020-06-25T11:14:50Z</time>
      </trkpt>
      <trkpt lat="49.69417" lon="4.89795">
        <ele>149.7</ele>
        <time>2020-06-25T11:14:51Z</time>
      </trkpt>
      <trkpt lat="49.6942" lon="4.89799">
        <ele>149.7</ele>
        <time>2020-06-25T11:14:52Z</time>
      </trkpt>
      <trkpt lat="49.69423" lon="4.89802">
        <ele>149.6</ele>
        <time>2020-06-25T11:14:53Z</time>
      </trkpt>
      <trkpt lat="49.69427" lon="4.89806">
        <ele>149.6</ele>
        <time>2020-06-25T11:14:54Z</time>
      </trkpt>
      <trkpt lat="49.69429" lon="4.89808">
        <ele>149.6</ele>
        <time>2020-06-25T11:14:55Z</time>
      </trkpt>
      <trkpt lat="49.69433" lon="4.8981">
        <ele>149.6</ele>
        <time>2020-06-25T11:14:56Z</time>
      </trkpt>
      <trkpt lat="49.69435" lon="4.89814">
        <ele>149.6</ele>
        <time>2020-06-25T11:14:57Z</time>
      </trkpt>
      <trkpt lat="49.69438" lon="4.89816">
        <ele>149.6</ele>
        <time>2020-06-25T11:14:58Z</time>
      </trkpt>
      <trkpt lat="49.69441" lon="4.89818">
        <ele>149.5</ele>
        <time>2020-06-25T11:14:59Z</time>
      </trkpt>
      <trkpt lat="49.69443" lon="4.8982">
        <ele>149.5</ele>
        <time>2020-06-25T11:15:00Z</time>
      </trkpt>
      <trkpt lat="49.69446" lon="4.89822">
        <ele>149.5</ele>
        <time>2020-06-25T11:15:01Z</time>
      </trkpt>
      <trkpt lat="49.69448" lon="4.89824">
        <ele>149.5</ele>
        <time>2020-06-25T11:15:02Z</time>
      </trkpt>
      <trkpt lat="49.69451" lon="4.89826">
        <ele>149.4</ele>
        <time>2020-06-25T11:15:03Z</time>
      </trkpt>
      <trkpt lat="49.69454" lon="4.89831">
        <ele>149.4</ele>
        <time>2020-06-25T11:15:04Z</time>
      </trkpt>
      <trkpt lat="49.69456" lon="4.89833">
        <ele>149.4</ele>
        <time>2020-06-25T11:15:05Z</time>
      </trkpt>
      <trkpt lat="49.69459" lon="4.89835">
        <ele>149.3</ele>
        <time>2020-06-25T11:15:06Z</time>
      </trkpt>
      <trkpt lat="49.69462" lon="4.89838">
        <ele>149.3</ele>
        <time>2020-06-25T11:15:07Z</time>
      </trkpt>
      <trkpt lat="49.69465" lon="4.89841">
        <ele>149.3</ele>
        <time>2020-06-25T11:15:08Z</time>
      </trkpt>
      <trkpt lat="49.69468" lon="4.89843">
        <ele>149.3</ele>
        <time>2020-06-25T11:15:09Z</time>
      </trkpt>
      <trkpt lat="49.69471" lon="4.89846">
        <ele>149.2</ele>
        <time>2020-06-25T11:15:10Z</time>
      </trkpt>
      <trkpt lat="49.69474" lon="4.89848">
        <ele>149.2</ele>
        <time>2020-06-25T11:15:11Z</time>
      </trkpt>
      <trkpt lat="49.69477" lon="4.8985">
        <ele>149.2</ele>
        <time>2020-06-25T11:15:12Z</time>
      </trkpt>
      <trkpt lat="49.6948" lon="4.89853">
        <ele>149.2</ele>
        <time>2020-06-25T11:15:13Z</time>
      </trkpt>
      <trkpt lat="49.69483" lon="4.89855">
        <ele>149.2</ele>
        <time>2020-06-25T11:15:14Z</time>
      </trkpt>
      <trkpt lat="49.69486" lon="4.89858">
        <ele>149.2</ele>
        <time>2020-06-25T11:15:15Z</time>
      </trkpt>
      <trkpt lat="49.69488" lon="4.89859">
        <ele>149.2</ele>
        <time>2020-06-25T11:15:16Z</time>
      </trkpt>
      <trkpt lat="49.69492" lon="4.89861">
        <ele>149.2</ele>
        <time>2020-06-25T11:15:17Z</time>
      </trkpt>
      <trkpt lat="49.69493" lon="4.89861">
        <ele>149.2</ele>
        <time>2020-06-25T11:15:18Z</time>
      </trkpt>
      <trkpt lat="49.69496" lon="4.89864">
        <ele>149.1</ele>
        <time>2020-06-25T11:15:19Z</time>
      </trkpt>
      <trkpt lat="49.69497" lon="4.89864">
        <ele>149.1</ele>
        <time>2020-06-25T11:15:20Z</time>
      </trkpt>
      <trkpt lat="49.695" lon="4.89865">
        <ele>149.1</ele>
        <time>2020-06-25T11:15:21Z</time>
      </trkpt>
      <trkpt lat="49.69501" lon="4.89866">
        <ele>149.1</ele>
        <time>2020-06-25T11:15:22Z</time>
      </trkpt>
      <trkpt lat="49.69502" lon="4.89865">
        <ele>149.1</ele>
        <time>2020-06-25T11:15:23Z</time>
      </trkpt>
      <trkpt lat="49.69502" lon="4.89865">
        <ele>149.1</ele>
        <time>2020-06-25T11:15:24Z</time>
      </trkpt>
      <trkpt lat="49.69502" lon="4.89866">
        <ele>149.1</ele>
        <time>2020-06-25T11:15:25Z</time>
      </trkpt>
      <trkpt lat="49.69502" lon="4.89866">
        <ele>149.1</ele>
        <time>2020-06-25T11:15:26Z</time>
      </trkpt>
      <trkpt lat="49.69502" lon="4.89866">
        <ele>149.1</ele>
        <time>2020-06-25T11:15:27Z</time>
      </trkpt>
      <trkpt lat="49.69502" lon="4.89866">
        <ele>149.1</ele>
        <time>2020-06-25T11:15:28Z</time>
      </trkpt>
      <trkpt lat="49.69502" lon="4.89868">
        <ele>149.1</ele>
        <time>2020-06-25T11:15:29Z</time>
      </trkpt>
      <trkpt lat="49.69502" lon="4.89868">
        <ele>149.1</ele>
        <time>2020-06-25T11:15:30Z</time>
      </trkpt>
      <trkpt lat="49.69503" lon="4.89866">
        <ele>149.1</ele>
        <time>2020-06-25T11:15:31Z</time>
      </trkpt>
      <trkpt lat="49.69503" lon="4.89865">
        <ele>149.1</ele>
        <time>2020-06-25T11:15:32Z</time>
      </trkpt>
      <trkpt lat="49.69503" lon="4.89864">
        <ele>149</ele>
        <time>2020-06-25T11:15:33Z</time>
      </trkpt>
      <trkpt lat="49.69503" lon="4.89862">
        <ele>149</ele>
        <time>2020-06-25T11:15:34Z</time>
      </trkpt>
      <trkpt lat="49.69504" lon="4.89861">
        <ele>149</ele>
        <time>2020-06-25T11:15:35Z</time>
      </trkpt>
      <trkpt lat="49.69507" lon="4.89877">
        <ele>148.8</ele>
        <time>2020-06-25T11:17:21Z</time>
      </trkpt>
      <trkpt lat="49.69509" lon="4.89877">
        <ele>148.8</ele>
        <time>2020-06-25T11:17:22Z</time>
      </trkpt>
      <trkpt lat="49.69512" lon="4.89879">
        <ele>148.7</ele>
        <time>2020-06-25T11:17:23Z</time>
      </trkpt>
      <trkpt lat="49.69514" lon="4.89879">
        <ele>148.7</ele>
        <time>2020-06-25T11:17:24Z</time>
      </trkpt>
      <trkpt lat="49.69517" lon="4.8988">
        <ele>148.6</ele>
        <time>2020-06-25T11:17:25Z</time>
      </trkpt>
      <trkpt lat="49.69521" lon="4.89881">
        <ele>148.5</ele>
        <time>2020-06-25T11:17:26Z</time>
      </trkpt>
      <trkpt lat="49.69525" lon="4.89882">
        <ele>148.5</ele>
        <time>2020-06-25T11:17:27Z</time>
      </trkpt>
      <trkpt lat="49.69528" lon="4.89883">
        <ele>148.4</ele>
        <time>2020-06-25T11:17:28Z</time>
      </trkpt>
      <trkpt lat="49.69533" lon="4.89885">
        <ele>148.3</ele>
        <time>2020-06-25T11:17:29Z</time>
      </trkpt>
      <trkpt lat="49.69537" lon="4.89886">
        <ele>148.2</ele>
        <time>2020-06-25T11:17:30Z</time>
      </trkpt>
      <trkpt lat="49.69542" lon="4.89888">
        <ele>148.1</ele>
        <time>2020-06-25T11:17:31Z</time>
      </trkpt>
      <trkpt lat="49.69546" lon="4.89889">
        <ele>148</ele>
        <time>2020-06-25T11:17:32Z</time>
      </trkpt>
      <trkpt lat="49.6955" lon="4.8989">
        <ele>148</ele>
        <time>2020-06-25T11:17:33Z</time>
      </trkpt>
      <trkpt lat="49.69555" lon="4.89892">
        <ele>147.9</ele>
        <time>2020-06-25T11:17:34Z</time>
      </trkpt>
      <trkpt lat="49.69559" lon="4.89893">
        <ele>147.9</ele>
        <time>2020-06-25T11:17:35Z</time>
      </trkpt>
      <trkpt lat="49.69563" lon="4.89895">
        <ele>147.9</ele>
        <time>2020-06-25T11:17:36Z</time>
      </trkpt>
      <trkpt lat="49.69568" lon="4.89896">
        <ele>147.9</ele>
        <time>2020-06-25T11:17:37Z</time>
      </trkpt>
      <trkpt lat="49.69573" lon="4.89897">
        <ele>147.9</ele>
        <time>2020-06-25T11:17:38Z</time>
      </trkpt>
      <trkpt lat="49.69579" lon="4.89896">
        <ele>147.9</ele>
        <time>2020-06-25T11:17:39Z</time>
      </trkpt>
      <trkpt lat="49.69584" lon="4.89898">
        <ele>148</ele>
        <time>2020-06-25T11:17:40Z</time>
      </trkpt>
      <trkpt lat="49.6959" lon="4.89899">
        <ele>148</ele>
        <time>2020-06-25T11:17:41Z</time>
      </trkpt>
      <trkpt lat="49.69595" lon="4.89901">
        <ele>148.1</ele>
        <time>2020-06-25T11:17:42Z</time>
      </trkpt>
      <trkpt lat="49.69601" lon="4.89903">
        <ele>148.1</ele>
        <time>2020-06-25T11:17:43Z</time>
      </trkpt>
      <trkpt lat="49.69606" lon="4.89905">
        <ele>148.2</ele>
        <time>2020-06-25T11:17:44Z</time>
      </trkpt>
      <trkpt lat="49.69611" lon="4.89906">
        <ele>148.2</ele>
        <time>2020-06-25T11:17:45Z</time>
      </trkpt>
      <trkpt lat="49.69617" lon="4.89908">
        <ele>148.3</ele>
        <time>2020-06-25T11:17:46Z</time>
      </trkpt>
      <trkpt lat="49.69622" lon="4.8991">
        <ele>148.3</ele>
        <time>2020-06-25T11:17:47Z</time>
      </trkpt>
      <trkpt lat="49.69627" lon="4.89912">
        <ele>148.4</ele>
        <time>2020-06-25T11:17:48Z</time>
      </trkpt>
      <trkpt lat="49.69633" lon="4.89914">
        <ele>148.4</ele>
        <time>2020-06-25T11:17:49Z</time>
      </trkpt>
      <trkpt lat="49.69639" lon="4.89916">
        <ele>148.5</ele>
        <time>2020-06-25T11:17:50Z</time>
      </trkpt>
      <trkpt lat="49.69644" lon="4.89918">
        <ele>148.5</ele>
        <time>2020-06-25T11:17:51Z</time>
      </trkpt>
      <trkpt lat="49.6965" lon="4.89919">
        <ele>148.5</ele>
        <time>2020-06-25T11:17:52Z</time>
      </trkpt>
      <trkpt lat="49.69656" lon="4.89919">
        <ele>148.6</ele>
        <time>2020-06-25T11:17:53Z</time>
      </trkpt>
      <trkpt lat="49.69661" lon="4.8992">
        <ele>148.6</ele>
        <time>2020-06-25T11:17:54Z</time>
      </trkpt>
      <trkpt lat="49.69667" lon="4.8992">
        <ele>148.6</ele>
        <time>2020-06-25T11:17:55Z</time>
      </trkpt>
      <trkpt lat="49.69672" lon="4.8992">
        <ele>148.6</ele>
        <time>2020-06-25T11:17:56Z</time>
      </trkpt>
      <trkpt lat="49.69679" lon="4.8992">
        <ele>148.6</ele>
        <time>2020-06-25T11:17:57Z</time>
      </trkpt>
      <trkpt lat="49.69685" lon="4.89919">
        <ele>148.6</ele>
        <time>2020-06-25T11:17:58Z</time>
      </trkpt>
      <trkpt lat="49.69691" lon="4.89919">
        <ele>148.6</ele>
        <time>2020-06-25T11:17:59Z</time>
      </trkpt>
      <trkpt lat="49.69697" lon="4.89919">
        <ele>148.6</ele>
        <time>2020-06-25T11:18:00Z</time>
      </trkpt>
      <trkpt lat="49.69701" lon="4.89918">
        <ele>148.5</ele>
        <time>2020-06-25T11:18:01Z</time>
      </trkpt>
      <trkpt lat="49.69707" lon="4.89917">
        <ele>148.5</ele>
        <time>2020-06-25T11:18:02Z</time>
      </trkpt>
      <trkpt lat="49.69713" lon="4.89918">
        <ele>148.5</ele>
        <time>2020-06-25T11:18:03Z</time>
      </trkpt>
      <trkpt lat="49.6972" lon="4.89917">
        <ele>148.5</ele>
        <time>2020-06-25T11:18:04Z</time>
      </trkpt>
      <trkpt lat="49.69726" lon="4.89916">
        <ele>148.5</ele>
        <time>2020-06-25T11:18:05Z</time>
      </trkpt>
      <trkpt lat="49.69732" lon="4.89915">
        <ele>148.4</ele>
        <time>2020-06-25T11:18:06Z</time>
      </trkpt>
      <trkpt lat="49.69739" lon="4.89914">
        <ele>148.4</ele>
        <time>2020-06-25T11:18:07Z</time>
      </trkpt>
      <trkpt lat="49.69744" lon="4.89914">
        <ele>148.4</ele>
        <time>2020-06-25T11:18:08Z</time>
      </trkpt>
      <trkpt lat="49.69751" lon="4.89913">
        <ele>148.4</ele>
        <time>2020-06-25T11:18:09Z</time>
      </trkpt>
      <trkpt lat="49.69757" lon="4.89914">
        <ele>148.4</ele>
        <time>2020-06-25T11:18:10Z</time>
      </trkpt>
      <trkpt lat="49.69763" lon="4.89914">
        <ele>148.4</ele>
        <time>2020-06-25T11:18:11Z</time>
      </trkpt>
      <trkpt lat="49.69769" lon="4.89914">
        <ele>148.4</ele>
        <time>2020-06-25T11:18:12Z</time>
      </trkpt>
      <trkpt lat="49.69775" lon="4.89915">
        <ele>148.4</ele>
        <time>2020-06-25T11:18:13Z</time>
      </trkpt>
      <trkpt lat="49.6978" lon="4.89916">
        <ele>148.4</ele>
        <time>2020-06-25T11:18:14Z</time>
      </trkpt>
      <trkpt lat="49.69786" lon="4.89918">
        <ele>148.4</ele>
        <time>2020-06-25T11:18:15Z</time>
      </trkpt>
      <trkpt lat="49.69793" lon="4.8992">
        <ele>148.3</ele>
        <time>2020-06-25T11:18:16Z</time>
      </trkpt>
      <trkpt lat="49.69799" lon="4.89922">
        <ele>148.3</ele>
        <time>2020-06-25T11:18:17Z</time>
      </trkpt>
      <trkpt lat="49.69806" lon="4.89925">
        <ele>148.3</ele>
        <time>2020-06-25T11:18:18Z</time>
      </trkpt>
      <trkpt lat="49.69811" lon="4.89928">
        <ele>148.2</ele>
        <time>2020-06-25T11:18:19Z</time>
      </trkpt>
      <trkpt lat="49.69818" lon="4.8993">
        <ele>148.2</ele>
        <time>2020-06-25T11:18:20Z</time>
      </trkpt>
      <trkpt lat="49.69825" lon="4.89933">
        <ele>148.2</ele>
        <time>2020-06-25T11:18:21Z</time>
      </trkpt>
      <trkpt lat="49.69831" lon="4.89936">
        <ele>148.2</ele>
        <time>2020-06-25T11:18:22Z</time>
      </trkpt>
      <trkpt lat="49.69837" lon="4.89939">
        <ele>148.2</ele>
        <time>2020-06-25T11:18:23Z</time>
      </trkpt>
      <trkpt lat="49.69843" lon="4.89942">
        <ele>148.3</ele>
        <time>2020-06-25T11:18:24Z</time>
      </trkpt>
      <trkpt lat="49.6985" lon="4.89945">
        <ele>148.3</ele>
        <time>2020-06-25T11:18:25Z</time>
      </trkpt>
      <trkpt lat="49.69857" lon="4.89948">
        <ele>148.3</ele>
        <time>2020-06-25T11:18:26Z</time>
      </trkpt>
      <trkpt lat="49.69863" lon="4.89951">
        <ele>148.3</ele>
        <time>2020-06-25T11:18:27Z</time>
      </trkpt>
      <trkpt lat="49.69869" lon="4.89954">
        <ele>148.3</ele>
        <time>2020-06-25T11:18:28Z</time>
      </trkpt>
      <trkpt lat="49.69875" lon="4.89956">
        <ele>148.4</ele>
        <time>2020-06-25T11:18:29Z</time>
      </trkpt>
      <trkpt lat="49.69881" lon="4.89958">
        <ele>148.4</ele>
        <time>2020-06-25T11:18:30Z</time>
      </trkpt>
      <trkpt lat="49.69888" lon="4.89961">
        <ele>148.4</ele>
        <time>2020-06-25T11:18:31Z</time>
      </trkpt>
      <trkpt lat="49.69893" lon="4.89963">
        <ele>148.4</ele>
        <time>2020-06-25T11:18:32Z</time>
      </trkpt>
      <trkpt lat="49.69899" lon="4.89966">
        <ele>148.5</ele>
        <time>2020-06-25T11:18:33Z</time>
      </trkpt>
      <trkpt lat="49.69904" lon="4.89968">
        <ele>148.5</ele>
        <time>2020-06-25T11:18:34Z</time>
      </trkpt>
      <trkpt lat="49.6991" lon="4.89971">
        <ele>148.5</ele>
        <time>2020-06-25T11:18:35Z</time>
      </trkpt>
      <trkpt lat="49.69916" lon="4.89973">
        <ele>148.6</ele>
        <time>2020-06-25T11:18:36Z</time>
      </trkpt>
      <trkpt lat="49.69921" lon="4.89975">
        <ele>148.7</ele>
        <time>2020-06-25T11:18:37Z</time>
      </trkpt>
      <trkpt lat="49.69927" lon="4.89978">
        <ele>148.8</ele>
        <time>2020-06-25T11:18:38Z</time>
      </trkpt>
      <trkpt lat="49.69932" lon="4.89982">
        <ele>148.9</ele>
        <time>2020-06-25T11:18:39Z</time>
      </trkpt>
      <trkpt lat="49.69937" lon="4.89984">
        <ele>149</ele>
        <time>2020-06-25T11:18:40Z</time>
      </trkpt>
      <trkpt lat="49.69942" lon="4.89987">
        <ele>149.1</ele>
        <time>2020-06-25T11:18:41Z</time>
      </trkpt>
      <trkpt lat="49.69946" lon="4.89989">
        <ele>149.1</ele>
        <time>2020-06-25T11:18:42Z</time>
      </trkpt>
      <trkpt lat="49.6995" lon="4.89991">
        <ele>149.2</ele>
        <time>2020-06-25T11:18:43Z</time>
      </trkpt>
      <trkpt lat="49.69957" lon="4.89994">
        <ele>149.3</ele>
        <time>2020-06-25T11:18:44Z</time>
      </trkpt>
      <trkpt lat="49.69964" lon="4.89997">
        <ele>149.4</ele>
        <time>2020-06-25T11:18:45Z</time>
      </trkpt>
      <trkpt lat="49.69969" lon="4.89999">
        <ele>149.4</ele>
        <time>2020-06-25T11:18:46Z</time>
      </trkpt>
      <trkpt lat="49.69974" lon="4.90001">
        <ele>149.5</ele>
        <time>2020-06-25T11:18:47Z</time>
      </trkpt>
      <trkpt lat="49.6998" lon="4.90003">
        <ele>149.5</ele>
        <time>2020-06-25T11:18:48Z</time>
      </trkpt>
      <trkpt lat="49.69985" lon="4.90005">
        <ele>149.6</ele>
        <time>2020-06-25T11:18:49Z</time>
      </trkpt>
      <trkpt lat="49.69991" lon="4.90006">
        <ele>149.6</ele>
        <time>2020-06-25T11:18:50Z</time>
      </trkpt>
      <trkpt lat="49.69997" lon="4.90007">
        <ele>149.6</ele>
        <time>2020-06-25T11:18:51Z</time>
      </trkpt>
      <trkpt lat="49.70001" lon="4.90008">
        <ele>149.7</ele>
        <time>2020-06-25T11:18:52Z</time>
      </trkpt>
      <trkpt lat="49.70005" lon="4.90009">
        <ele>149.7</ele>
        <time>2020-06-25T11:18:53Z</time>
      </trkpt>
      <trkpt lat="49.7001" lon="4.9001">
        <ele>149.8</ele>
        <time>2020-06-25T11:18:54Z</time>
      </trkpt>
      <trkpt lat="49.70015" lon="4.9001">
        <ele>149.8</ele>
        <time>2020-06-25T11:18:55Z</time>
      </trkpt>
      <trkpt lat="49.7002" lon="4.9001">
        <ele>149.9</ele>
        <time>2020-06-25T11:18:56Z</time>
      </trkpt>
      <trkpt lat="49.70025" lon="4.9001">
        <ele>149.9</ele>
        <time>2020-06-25T11:18:57Z</time>
      </trkpt>
      <trkpt lat="49.7003" lon="4.90011">
        <ele>150</ele>
        <time>2020-06-25T11:18:58Z</time>
      </trkpt>
      <trkpt lat="49.70036" lon="4.90011">
        <ele>150</ele>
        <time>2020-06-25T11:18:59Z</time>
      </trkpt>
      <trkpt lat="49.70041" lon="4.90011">
        <ele>150</ele>
        <time>2020-06-25T11:19:00Z</time>
      </trkpt>
      <trkpt lat="49.70048" lon="4.90008">
        <ele>149.9</ele>
        <time>2020-06-25T11:19:01Z</time>
      </trkpt>
      <trkpt lat="49.70053" lon="4.90004">
        <ele>149.8</ele>
        <time>2020-06-25T11:19:02Z</time>
      </trkpt>
      <trkpt lat="49.70059" lon="4.89997">
        <ele>149.6</ele>
        <time>2020-06-25T11:19:03Z</time>
      </trkpt>
      <trkpt lat="49.70067" lon="4.89987">
        <ele>149.3</ele>
        <time>2020-06-25T11:19:04Z</time>
      </trkpt>
      <trkpt lat="49.70073" lon="4.8998">
        <ele>149.1</ele>
        <time>2020-06-25T11:19:05Z</time>
      </trkpt>
      <trkpt lat="49.70079" lon="4.89974">
        <ele>149</ele>
        <time>2020-06-25T11:19:06Z</time>
      </trkpt>
      <trkpt lat="49.70085" lon="4.89968">
        <ele>148.9</ele>
        <time>2020-06-25T11:19:07Z</time>
      </trkpt>
      <trkpt lat="49.70091" lon="4.89962">
        <ele>148.8</ele>
        <time>2020-06-25T11:19:08Z</time>
      </trkpt>
      <trkpt lat="49.701" lon="4.89951">
        <ele>148.6</ele>
        <time>2020-06-25T11:19:09Z</time>
      </trkpt>
      <trkpt lat="49.70106" lon="4.89943">
        <ele>148.5</ele>
        <time>2020-06-25T11:19:10Z</time>
      </trkpt>
      <trkpt lat="49.70111" lon="4.89935">
        <ele>148.4</ele>
        <time>2020-06-25T11:19:11Z</time>
      </trkpt>
      <trkpt lat="49.70115" lon="4.89927">
        <ele>148.3</ele>
        <time>2020-06-25T11:19:12Z</time>
      </trkpt>
      <trkpt lat="49.70119" lon="4.89918">
        <ele>148.3</ele>
        <time>2020-06-25T11:19:13Z</time>
      </trkpt>
      <trkpt lat="49.70122" lon="4.89909">
        <ele>148.2</ele>
        <time>2020-06-25T11:19:14Z</time>
      </trkpt>
      <trkpt lat="49.70125" lon="4.89901">
        <ele>148.2</ele>
        <time>2020-06-25T11:19:15Z</time>
      </trkpt>
      <trkpt lat="49.70127" lon="4.89896">
        <ele>148.2</ele>
        <time>2020-06-25T11:19:16Z</time>
      </trkpt>
      <trkpt lat="49.7013" lon="4.89888">
        <ele>148.2</ele>
        <time>2020-06-25T11:19:17Z</time>
      </trkpt>
      <trkpt lat="49.70134" lon="4.8988">
        <ele>148.2</ele>
        <time>2020-06-25T11:19:18Z</time>
      </trkpt>
      <trkpt lat="49.70136" lon="4.89874">
        <ele>148.2</ele>
        <time>2020-06-25T11:19:19Z</time>
      </trkpt>
      <trkpt lat="49.70138" lon="4.89868">
        <ele>148.2</ele>
        <time>2020-06-25T11:19:20Z</time>
      </trkpt>
      <trkpt lat="49.70141" lon="4.8986">
        <ele>148.2</ele>
        <time>2020-06-25T11:19:21Z</time>
      </trkpt>
      <trkpt lat="49.70144" lon="4.89853">
        <ele>148.2</ele>
        <time>2020-06-25T11:19:22Z</time>
      </trkpt>
      <trkpt lat="49.70145" lon="4.89846">
        <ele>148.2</ele>
        <time>2020-06-25T11:19:23Z</time>
      </trkpt>
      <trkpt lat="49.70147" lon="4.89838">
        <ele>148.2</ele>
        <time>2020-06-25T11:19:24Z</time>
      </trkpt>
      <trkpt lat="49.7015" lon="4.89829">
        <ele>148.2</ele>
        <time>2020-06-25T11:19:25Z</time>
      </trkpt>
      <trkpt lat="49.70153" lon="4.8982">
        <ele>148.2</ele>
        <time>2020-06-25T11:19:26Z</time>
      </trkpt>
      <trkpt lat="49.70156" lon="4.89812">
        <ele>148.2</ele>
        <time>2020-06-25T11:19:27Z</time>
      </trkpt>
      <trkpt lat="49.7016" lon="4.89804">
        <ele>148.2</ele>
        <time>2020-06-25T11:19:28Z</time>
      </trkpt>
      <trkpt lat="49.70163" lon="4.89795">
        <ele>148.2</ele>
        <time>2020-06-25T11:19:29Z</time>
      </trkpt>
      <trkpt lat="49.70167" lon="4.89787">
        <ele>148.3</ele>
        <time>2020-06-25T11:19:30Z</time>
      </trkpt>
      <trkpt lat="49.70171" lon="4.89779">
        <ele>148.3</ele>
        <time>2020-06-25T11:19:31Z</time>
      </trkpt>
      <trkpt lat="49.70174" lon="4.89771">
        <ele>148.3</ele>
        <time>2020-06-25T11:19:32Z</time>
      </trkpt>
      <trkpt lat="49.70178" lon="4.89765">
        <ele>148.3</ele>
        <time>2020-06-25T11:19:33Z</time>
      </trkpt>
      <trkpt lat="49.70182" lon="4.8976">
        <ele>148.3</ele>
        <time>2020-06-25T11:19:34Z</time>
      </trkpt>
      <trkpt lat="49.70187" lon="4.89753">
        <ele>148.3</ele>
        <time>2020-06-25T11:19:35Z</time>
      </trkpt>
      <trkpt lat="49.70191" lon="4.89748">
        <ele>148.3</ele>
        <time>2020-06-25T11:19:36Z</time>
      </trkpt>
      <trkpt lat="49.70196" lon="4.89742">
        <ele>148.3</ele>
        <time>2020-06-25T11:19:37Z</time>
      </trkpt>
      <trkpt lat="49.702" lon="4.89737">
        <ele>148.3</ele>
        <time>2020-06-25T11:19:38Z</time>
      </trkpt>
      <trkpt lat="49.70204" lon="4.89731">
        <ele>148.3</ele>
        <time>2020-06-25T11:19:39Z</time>
      </trkpt>
      <trkpt lat="49.70209" lon="4.89724">
        <ele>148.4</ele>
        <time>2020-06-25T11:19:40Z</time>
      </trkpt>
      <trkpt lat="49.70213" lon="4.89718">
        <ele>148.4</ele>
        <time>2020-06-25T11:19:41Z</time>
      </trkpt>
      <trkpt lat="49.70218" lon="4.89711">
        <ele>148.4</ele>
        <time>2020-06-25T11:19:42Z</time>
      </trkpt>
      <trkpt lat="49.70223" lon="4.89705">
        <ele>148.4</ele>
        <time>2020-06-25T11:19:43Z</time>
      </trkpt>
      <trkpt lat="49.70227" lon="4.89698">
        <ele>148.5</ele>
        <time>2020-06-25T11:19:44Z</time>
      </trkpt>
      <trkpt lat="49.70232" lon="4.89693">
        <ele>148.5</ele>
        <time>2020-06-25T11:19:45Z</time>
      </trkpt>
      <trkpt lat="49.70237" lon="4.89687">
        <ele>148.5</ele>
        <time>2020-06-25T11:19:46Z</time>
      </trkpt>
      <trkpt lat="49.70241" lon="4.89683">
        <ele>148.5</ele>
        <time>2020-06-25T11:19:47Z</time>
      </trkpt>
      <trkpt lat="49.70245" lon="4.89679">
        <ele>148.5</ele>
        <time>2020-06-25T11:19:48Z</time>
      </trkpt>
      <trkpt lat="49.7025" lon="4.89676">
        <ele>148.5</ele>
        <time>2020-06-25T11:19:49Z</time>
      </trkpt>
      <trkpt lat="49.70255" lon="4.89673">
        <ele>148.5</ele>
        <time>2020-06-25T11:19:50Z</time>
      </trkpt>
      <trkpt lat="49.70262" lon="4.89668">
        <ele>148.4</ele>
        <time>2020-06-25T11:19:51Z</time>
      </trkpt>
      <trkpt lat="49.70269" lon="4.89664">
        <ele>148.4</ele>
        <time>2020-06-25T11:19:52Z</time>
      </trkpt>
      <trkpt lat="49.70274" lon="4.89659">
        <ele>148.4</ele>
        <time>2020-06-25T11:19:53Z</time>
      </trkpt>
      <trkpt lat="49.70279" lon="4.89655">
        <ele>148.4</ele>
        <time>2020-06-25T11:19:54Z</time>
      </trkpt>
      <trkpt lat="49.70285" lon="4.89651">
        <ele>148.4</ele>
        <time>2020-06-25T11:19:55Z</time>
      </trkpt>
      <trkpt lat="49.70291" lon="4.89647">
        <ele>148.4</ele>
        <time>2020-06-25T11:19:56Z</time>
      </trkpt>
      <trkpt lat="49.70296" lon="4.89644">
        <ele>148.4</ele>
        <time>2020-06-25T11:19:57Z</time>
      </trkpt>
      <trkpt lat="49.70302" lon="4.89641">
        <ele>148.4</ele>
        <time>2020-06-25T11:19:58Z</time>
      </trkpt>
      <trkpt lat="49.70307" lon="4.8964">
        <ele>148.4</ele>
        <time>2020-06-25T11:19:59Z</time>
      </trkpt>
      <trkpt lat="49.70314" lon="4.8964">
        <ele>148.4</ele>
        <time>2020-06-25T11:20:00Z</time>
      </trkpt>
      <trkpt lat="49.70321" lon="4.89642">
        <ele>148.4</ele>
        <time>2020-06-25T11:20:01Z</time>
      </trkpt>
      <trkpt lat="49.70327" lon="4.89647">
        <ele>148.4</ele>
        <time>2020-06-25T11:20:02Z</time>
      </trkpt>
      <trkpt lat="49.70333" lon="4.89652">
        <ele>148.4</ele>
        <time>2020-06-25T11:20:03Z</time>
      </trkpt>
      <trkpt lat="49.7034" lon="4.89657">
        <ele>148.4</ele>
        <time>2020-06-25T11:20:04Z</time>
      </trkpt>
      <trkpt lat="49.70345" lon="4.89662">
        <ele>148.3</ele>
        <time>2020-06-25T11:20:05Z</time>
      </trkpt>
      <trkpt lat="49.70351" lon="4.89667">
        <ele>148.3</ele>
        <time>2020-06-25T11:20:06Z</time>
      </trkpt>
      <trkpt lat="49.70357" lon="4.89671">
        <ele>148.3</ele>
        <time>2020-06-25T11:20:07Z</time>
      </trkpt>
      <trkpt lat="49.70363" lon="4.89676">
        <ele>148.3</ele>
        <time>2020-06-25T11:20:08Z</time>
      </trkpt>
      <trkpt lat="49.70369" lon="4.8968">
        <ele>148.3</ele>
        <time>2020-06-25T11:20:09Z</time>
      </trkpt>
      <trkpt lat="49.70375" lon="4.89683">
        <ele>148.3</ele>
        <time>2020-06-25T11:20:10Z</time>
      </trkpt>
      <trkpt lat="49.7038" lon="4.89686">
        <ele>148.3</ele>
        <time>2020-06-25T11:20:11Z</time>
      </trkpt>
      <trkpt lat="49.70386" lon="4.8969">
        <ele>148.3</ele>
        <time>2020-06-25T11:20:12Z</time>
      </trkpt>
      <trkpt lat="49.70392" lon="4.89694">
        <ele>148.3</ele>
        <time>2020-06-25T11:20:13Z</time>
      </trkpt>
      <trkpt lat="49.70397" lon="4.89698">
        <ele>148.3</ele>
        <time>2020-06-25T11:20:14Z</time>
      </trkpt>
      <trkpt lat="49.70403" lon="4.89702">
        <ele>148.3</ele>
        <time>2020-06-25T11:20:15Z</time>
      </trkpt>
      <trkpt lat="49.70408" lon="4.89706">
        <ele>148.3</ele>
        <time>2020-06-25T11:20:16Z</time>
      </trkpt>
      <trkpt lat="49.70413" lon="4.8971">
        <ele>148.3</ele>
        <time>2020-06-25T11:20:17Z</time>
      </trkpt>
      <trkpt lat="49.70419" lon="4.89715">
        <ele>148.2</ele>
        <time>2020-06-25T11:20:18Z</time>
      </trkpt>
      <trkpt lat="49.70425" lon="4.89721">
        <ele>148.2</ele>
        <time>2020-06-25T11:20:19Z</time>
      </trkpt>
      <trkpt lat="49.7043" lon="4.89725">
        <ele>148.2</ele>
        <time>2020-06-25T11:20:20Z</time>
      </trkpt>
      <trkpt lat="49.70434" lon="4.8973">
        <ele>148.2</ele>
        <time>2020-06-25T11:20:21Z</time>
      </trkpt>
      <trkpt lat="49.7044" lon="4.89735">
        <ele>148.2</ele>
        <time>2020-06-25T11:20:22Z</time>
      </trkpt>
      <trkpt lat="49.70445" lon="4.8974">
        <ele>148.2</ele>
        <time>2020-06-25T11:20:23Z</time>
      </trkpt>
      <trkpt lat="49.7045" lon="4.89744">
        <ele>148.2</ele>
        <time>2020-06-25T11:20:24Z</time>
      </trkpt>
      <trkpt lat="49.70456" lon="4.89748">
        <ele>148.2</ele>
        <time>2020-06-25T11:20:25Z</time>
      </trkpt>
      <trkpt lat="49.70461" lon="4.89751">
        <ele>148.2</ele>
        <time>2020-06-25T11:20:26Z</time>
      </trkpt>
      <trkpt lat="49.70467" lon="4.89755">
        <ele>148.2</ele>
        <time>2020-06-25T11:20:27Z</time>
      </trkpt>
      <trkpt lat="49.70472" lon="4.89758">
        <ele>148.2</ele>
        <time>2020-06-25T11:20:28Z</time>
      </trkpt>
      <trkpt lat="49.70478" lon="4.89761">
        <ele>148.2</ele>
        <time>2020-06-25T11:20:29Z</time>
      </trkpt>
      <trkpt lat="49.70483" lon="4.89765">
        <ele>148.3</ele>
        <time>2020-06-25T11:20:30Z</time>
      </trkpt>
      <trkpt lat="49.7049" lon="4.89768">
        <ele>148.3</ele>
        <time>2020-06-25T11:20:31Z</time>
      </trkpt>
      <trkpt lat="49.70496" lon="4.89772">
        <ele>148.3</ele>
        <time>2020-06-25T11:20:32Z</time>
      </trkpt>
      <trkpt lat="49.70502" lon="4.89775">
        <ele>148.3</ele>
        <time>2020-06-25T11:20:33Z</time>
      </trkpt>
      <trkpt lat="49.70508" lon="4.89778">
        <ele>148.3</ele>
        <time>2020-06-25T11:20:34Z</time>
      </trkpt>
      <trkpt lat="49.70513" lon="4.8978">
        <ele>148.4</ele>
        <time>2020-06-25T11:20:35Z</time>
      </trkpt>
      <trkpt lat="49.70518" lon="4.89783">
        <ele>148.4</ele>
        <time>2020-06-25T11:20:36Z</time>
      </trkpt>
      <trkpt lat="49.70525" lon="4.89784">
        <ele>148.4</ele>
        <time>2020-06-25T11:20:37Z</time>
      </trkpt>
      <trkpt lat="49.70531" lon="4.89785">
        <ele>148.4</ele>
        <time>2020-06-25T11:20:38Z</time>
      </trkpt>
      <trkpt lat="49.70537" lon="4.89785">
        <ele>148.4</ele>
        <time>2020-06-25T11:20:39Z</time>
      </trkpt>
      <trkpt lat="49.70541" lon="4.89786">
        <ele>148.4</ele>
        <time>2020-06-25T11:20:40Z</time>
      </trkpt>
      <trkpt lat="49.70546" lon="4.89787">
        <ele>148.4</ele>
        <time>2020-06-25T11:20:41Z</time>
      </trkpt>
      <trkpt lat="49.70551" lon="4.89788">
        <ele>148.4</ele>
        <time>2020-06-25T11:20:42Z</time>
      </trkpt>
      <trkpt lat="49.70556" lon="4.89789">
        <ele>148.5</ele>
        <time>2020-06-25T11:20:43Z</time>
      </trkpt>
      <trkpt lat="49.70561" lon="4.89791">
        <ele>148.5</ele>
        <time>2020-06-25T11:20:44Z</time>
      </trkpt>
      <trkpt lat="49.70567" lon="4.89792">
        <ele>148.5</ele>
        <time>2020-06-25T11:20:45Z</time>
      </trkpt>
      <trkpt lat="49.70573" lon="4.89792">
        <ele>148.6</ele>
        <time>2020-06-25T11:20:46Z</time>
      </trkpt>
      <trkpt lat="49.70578" lon="4.89791">
        <ele>148.6</ele>
        <time>2020-06-25T11:20:47Z</time>
      </trkpt>
      <trkpt lat="49.70584" lon="4.89792">
        <ele>148.7</ele>
        <time>2020-06-25T11:20:48Z</time>
      </trkpt>
      <trkpt lat="49.70589" lon="4.89792">
        <ele>148.8</ele>
        <time>2020-06-25T11:20:49Z</time>
      </trkpt>
      <trkpt lat="49.70594" lon="4.89792">
        <ele>148.9</ele>
        <time>2020-06-25T11:20:50Z</time>
      </trkpt>
      <trkpt lat="49.706" lon="4.89792">
        <ele>149.1</ele>
        <time>2020-06-25T11:20:51Z</time>
      </trkpt>
      <trkpt lat="49.70605" lon="4.89793">
        <ele>149.2</ele>
        <time>2020-06-25T11:20:52Z</time>
      </trkpt>
      <trkpt lat="49.7061" lon="4.89793">
        <ele>149.4</ele>
        <time>2020-06-25T11:20:53Z</time>
      </trkpt>
      <trkpt lat="49.70614" lon="4.89794">
        <ele>149.5</ele>
        <time>2020-06-25T11:20:54Z</time>
      </trkpt>
      <trkpt lat="49.70619" lon="4.89795">
        <ele>149.6</ele>
        <time>2020-06-25T11:20:55Z</time>
      </trkpt>
      <trkpt lat="49.70623" lon="4.89794">
        <ele>149.8</ele>
        <time>2020-06-25T11:20:56Z</time>
      </trkpt>
      <trkpt lat="49.70626" lon="4.89794">
        <ele>149.9</ele>
        <time>2020-06-25T11:20:57Z</time>
      </trkpt>
      <trkpt lat="49.7063" lon="4.89794">
        <ele>150</ele>
        <time>2020-06-25T11:20:58Z</time>
      </trkpt>
      <trkpt lat="49.70634" lon="4.89794">
        <ele>150.2</ele>
        <time>2020-06-25T11:20:59Z</time>
      </trkpt>
      <trkpt lat="49.70638" lon="4.89794">
        <ele>150.3</ele>
        <time>2020-06-25T11:21:00Z</time>
      </trkpt>
      <trkpt lat="49.70643" lon="4.89794">
        <ele>150.5</ele>
        <time>2020-06-25T11:21:01Z</time>
      </trkpt>
      <trkpt lat="49.70648" lon="4.89796">
        <ele>150.6</ele>
        <time>2020-06-25T11:21:02Z</time>
      </trkpt>
      <trkpt lat="49.70652" lon="4.89797">
        <ele>150.7</ele>
        <time>2020-06-25T11:21:03Z</time>
      </trkpt>
      <trkpt lat="49.70657" lon="4.89799">
        <ele>150.8</ele>
        <time>2020-06-25T11:21:04Z</time>
      </trkpt>
      <trkpt lat="49.7066" lon="4.89802">
        <ele>150.9</ele>
        <time>2020-06-25T11:21:05Z</time>
      </trkpt>
      <trkpt lat="49.70664" lon="4.89804">
        <ele>151</ele>
        <time>2020-06-25T11:21:06Z</time>
      </trkpt>
      <trkpt lat="49.70669" lon="4.89807">
        <ele>151.1</ele>
        <time>2020-06-25T11:21:07Z</time>
      </trkpt>
      <trkpt lat="49.70672" lon="4.8981">
        <ele>151.1</ele>
        <time>2020-06-25T11:21:08Z</time>
      </trkpt>
      <trkpt lat="49.70677" lon="4.89813">
        <ele>151.2</ele>
        <time>2020-06-25T11:21:09Z</time>
      </trkpt>
      <trkpt lat="49.70681" lon="4.89816">
        <ele>151.2</ele>
        <time>2020-06-25T11:21:10Z</time>
      </trkpt>
      <trkpt lat="49.70686" lon="4.89819">
        <ele>151.3</ele>
        <time>2020-06-25T11:21:11Z</time>
      </trkpt>
      <trkpt lat="49.70689" lon="4.8982">
        <ele>151.3</ele>
        <time>2020-06-25T11:21:12Z</time>
      </trkpt>
      <trkpt lat="49.70693" lon="4.89824">
        <ele>151.3</ele>
        <time>2020-06-25T11:21:13Z</time>
      </trkpt>
      <trkpt lat="49.70699" lon="4.89827">
        <ele>151.3</ele>
        <time>2020-06-25T11:21:14Z</time>
      </trkpt>
      <trkpt lat="49.70703" lon="4.89832">
        <ele>151.3</ele>
        <time>2020-06-25T11:21:15Z</time>
      </trkpt>
      <trkpt lat="49.70708" lon="4.89836">
        <ele>151.3</ele>
        <time>2020-06-25T11:21:16Z</time>
      </trkpt>
      <trkpt lat="49.70713" lon="4.8984">
        <ele>151.3</ele>
        <time>2020-06-25T11:21:17Z</time>
      </trkpt>
      <trkpt lat="49.70718" lon="4.89843">
        <ele>151.3</ele>
        <time>2020-06-25T11:21:18Z</time>
      </trkpt>
      <trkpt lat="49.70722" lon="4.89847">
        <ele>151.3</ele>
        <time>2020-06-25T11:21:19Z</time>
      </trkpt>
      <trkpt lat="49.70727" lon="4.89851">
        <ele>151.3</ele>
        <time>2020-06-25T11:21:20Z</time>
      </trkpt>
      <trkpt lat="49.70732" lon="4.89856">
        <ele>151.4</ele>
        <time>2020-06-25T11:21:21Z</time>
      </trkpt>
      <trkpt lat="49.70737" lon="4.89861">
        <ele>151.4</ele>
        <time>2020-06-25T11:21:22Z</time>
      </trkpt>
      <trkpt lat="49.70741" lon="4.89865">
        <ele>151.4</ele>
        <time>2020-06-25T11:21:23Z</time>
      </trkpt>
      <trkpt lat="49.70745" lon="4.8987">
        <ele>151.5</ele>
        <time>2020-06-25T11:21:24Z</time>
      </trkpt>
      <trkpt lat="49.70749" lon="4.89875">
        <ele>151.6</ele>
        <time>2020-06-25T11:21:25Z</time>
      </trkpt>
      <trkpt lat="49.70752" lon="4.89881">
        <ele>151.6</ele>
        <time>2020-06-25T11:21:26Z</time>
      </trkpt>
      <trkpt lat="49.70753" lon="4.89885">
        <ele>151.7</ele>
        <time>2020-06-25T11:21:27Z</time>
      </trkpt>
      <trkpt lat="49.70755" lon="4.8989">
        <ele>151.7</ele>
        <time>2020-06-25T11:21:28Z</time>
      </trkpt>
      <trkpt lat="49.70755" lon="4.89898">
        <ele>151.8</ele>
        <time>2020-06-25T11:21:29Z</time>
      </trkpt>
      <trkpt lat="49.70756" lon="4.89908">
        <ele>151.9</ele>
        <time>2020-06-25T11:21:30Z</time>
      </trkpt>
      <trkpt lat="49.70757" lon="4.89915">
        <ele>152.1</ele>
        <time>2020-06-25T11:21:31Z</time>
      </trkpt>
      <trkpt lat="49.70758" lon="4.89922">
        <ele>152.4</ele>
        <time>2020-06-25T11:21:32Z</time>
      </trkpt>
      <trkpt lat="49.7076" lon="4.8993">
        <ele>152.7</ele>
        <time>2020-06-25T11:21:33Z</time>
      </trkpt>
      <trkpt lat="49.70762" lon="4.89937">
        <ele>152.9</ele>
        <time>2020-06-25T11:21:34Z</time>
      </trkpt>
      <trkpt lat="49.70763" lon="4.89943">
        <ele>153.1</ele>
        <time>2020-06-25T11:21:35Z</time>
      </trkpt>
      <trkpt lat="49.70765" lon="4.8995">
        <ele>153.4</ele>
        <time>2020-06-25T11:21:36Z</time>
      </trkpt>
      <trkpt lat="49.70767" lon="4.89958">
        <ele>153.6</ele>
        <time>2020-06-25T11:21:37Z</time>
      </trkpt>
      <trkpt lat="49.70768" lon="4.89964">
        <ele>153.8</ele>
        <time>2020-06-25T11:21:38Z</time>
      </trkpt>
      <trkpt lat="49.70769" lon="4.89971">
        <ele>153.9</ele>
        <time>2020-06-25T11:21:39Z</time>
      </trkpt>
      <trkpt lat="49.70772" lon="4.89975">
        <ele>154</ele>
        <time>2020-06-25T11:21:40Z</time>
      </trkpt>
      <trkpt lat="49.70775" lon="4.89981">
        <ele>154.2</ele>
        <time>2020-06-25T11:21:41Z</time>
      </trkpt>
      <trkpt lat="49.70778" lon="4.89988">
        <ele>154.3</ele>
        <time>2020-06-25T11:21:42Z</time>
      </trkpt>
      <trkpt lat="49.70781" lon="4.89996">
        <ele>154.4</ele>
        <time>2020-06-25T11:21:43Z</time>
      </trkpt>
      <trkpt lat="49.70783" lon="4.90003">
        <ele>154.5</ele>
        <time>2020-06-25T11:21:44Z</time>
      </trkpt>
      <trkpt lat="49.70786" lon="4.90009">
        <ele>154.6</ele>
        <time>2020-06-25T11:21:45Z</time>
      </trkpt>
      <trkpt lat="49.70789" lon="4.90015">
        <ele>154.7</ele>
        <time>2020-06-25T11:21:46Z</time>
      </trkpt>
      <trkpt lat="49.70791" lon="4.90022">
        <ele>154.7</ele>
        <time>2020-06-25T11:21:47Z</time>
      </trkpt>
      <trkpt lat="49.70793" lon="4.90029">
        <ele>154.7</ele>
        <time>2020-06-25T11:21:48Z</time>
      </trkpt>
      <trkpt lat="49.70796" lon="4.90036">
        <ele>154.8</ele>
        <time>2020-06-25T11:21:49Z</time>
      </trkpt>
      <trkpt lat="49.70797" lon="4.9004">
        <ele>154.8</ele>
        <time>2020-06-25T11:21:50Z</time>
      </trkpt>
      <trkpt lat="49.70799" lon="4.90046">
        <ele>154.8</ele>
        <time>2020-06-25T11:21:51Z</time>
      </trkpt>
      <trkpt lat="49.70801" lon="4.90054">
        <ele>154.8</ele>
        <time>2020-06-25T11:21:52Z</time>
      </trkpt>
      <trkpt lat="49.70803" lon="4.90062">
        <ele>154.8</ele>
        <time>2020-06-25T11:21:53Z</time>
      </trkpt>
      <trkpt lat="49.70804" lon="4.90069">
        <ele>154.8</ele>
        <time>2020-06-25T11:21:54Z</time>
      </trkpt>
      <trkpt lat="49.70806" lon="4.90076">
        <ele>154.8</ele>
        <time>2020-06-25T11:21:55Z</time>
      </trkpt>
      <trkpt lat="49.70807" lon="4.90083">
        <ele>154.8</ele>
        <time>2020-06-25T11:21:56Z</time>
      </trkpt>
      <trkpt lat="49.70809" lon="4.90089">
        <ele>154.9</ele>
        <time>2020-06-25T11:21:57Z</time>
      </trkpt>
      <trkpt lat="49.70811" lon="4.90096">
        <ele>154.9</ele>
        <time>2020-06-25T11:21:58Z</time>
      </trkpt>
      <trkpt lat="49.70813" lon="4.90102">
        <ele>154.9</ele>
        <time>2020-06-25T11:21:59Z</time>
      </trkpt>
      <trkpt lat="49.70815" lon="4.90109">
        <ele>154.9</ele>
        <time>2020-06-25T11:22:00Z</time>
      </trkpt>
      <trkpt lat="49.70816" lon="4.90117">
        <ele>154.9</ele>
        <time>2020-06-25T11:22:01Z</time>
      </trkpt>
      <trkpt lat="49.70819" lon="4.90127">
        <ele>155</ele>
        <time>2020-06-25T11:22:02Z</time>
      </trkpt>
      <trkpt lat="49.70822" lon="4.90135">
        <ele>155</ele>
        <time>2020-06-25T11:22:03Z</time>
      </trkpt>
      <trkpt lat="49.70824" lon="4.90142">
        <ele>155.1</ele>
        <time>2020-06-25T11:22:04Z</time>
      </trkpt>
      <trkpt lat="49.70826" lon="4.90148">
        <ele>155.1</ele>
        <time>2020-06-25T11:22:05Z</time>
      </trkpt>
      <trkpt lat="49.70827" lon="4.90155">
        <ele>155.2</ele>
        <time>2020-06-25T11:22:06Z</time>
      </trkpt>
      <trkpt lat="49.70827" lon="4.90164">
        <ele>155.3</ele>
        <time>2020-06-25T11:22:07Z</time>
      </trkpt>
      <trkpt lat="49.70825" lon="4.90173">
        <ele>155.4</ele>
        <time>2020-06-25T11:22:08Z</time>
      </trkpt>
      <trkpt lat="49.70821" lon="4.9018">
        <ele>155.6</ele>
        <time>2020-06-25T11:22:09Z</time>
      </trkpt>
      <trkpt lat="49.70817" lon="4.90185">
        <ele>155.7</ele>
        <time>2020-06-25T11:22:10Z</time>
      </trkpt>
      <trkpt lat="49.70813" lon="4.9019">
        <ele>155.8</ele>
        <time>2020-06-25T11:22:11Z</time>
      </trkpt>
      <trkpt lat="49.7081" lon="4.90196">
        <ele>155.9</ele>
        <time>2020-06-25T11:22:12Z</time>
      </trkpt>
      <trkpt lat="49.70807" lon="4.90201">
        <ele>156</ele>
        <time>2020-06-25T11:22:13Z</time>
      </trkpt>
      <trkpt lat="49.70804" lon="4.90206">
        <ele>156.1</ele>
        <time>2020-06-25T11:22:14Z</time>
      </trkpt>
      <trkpt lat="49.70801" lon="4.9021">
        <ele>156.2</ele>
        <time>2020-06-25T11:22:15Z</time>
      </trkpt>
      <trkpt lat="49.708" lon="4.90216">
        <ele>156.2</ele>
        <time>2020-06-25T11:22:16Z</time>
      </trkpt>
      <trkpt lat="49.70799" lon="4.90222">
        <ele>156.3</ele>
        <time>2020-06-25T11:22:17Z</time>
      </trkpt>
      <trkpt lat="49.70799" lon="4.90226">
        <ele>156.2</ele>
        <time>2020-06-25T11:22:18Z</time>
      </trkpt>
      <trkpt lat="49.708" lon="4.90232">
        <ele>156.1</ele>
        <time>2020-06-25T11:22:19Z</time>
      </trkpt>
      <trkpt lat="49.70799" lon="4.90238">
        <ele>156</ele>
        <time>2020-06-25T11:22:20Z</time>
      </trkpt>
      <trkpt lat="49.70798" lon="4.9024">
        <ele>156</ele>
        <time>2020-06-25T11:22:21Z</time>
      </trkpt>
      <trkpt lat="49.70796" lon="4.90245">
        <ele>155.9</ele>
        <time>2020-06-25T11:22:22Z</time>
      </trkpt>
      <trkpt lat="49.70796" lon="4.90246">
        <ele>155.9</ele>
        <time>2020-06-25T11:22:23Z</time>
      </trkpt>
      <trkpt lat="49.70794" lon="4.90249">
        <ele>155.9</ele>
        <time>2020-06-25T11:22:24Z</time>
      </trkpt>
      <trkpt lat="49.70793" lon="4.90251">
        <ele>156</ele>
        <time>2020-06-25T11:22:25Z</time>
      </trkpt>
      <trkpt lat="49.70792" lon="4.90251">
        <ele>156</ele>
        <time>2020-06-25T11:22:26Z</time>
      </trkpt>
      <trkpt lat="49.70792" lon="4.90252">
        <ele>156</ele>
        <time>2020-06-25T11:22:27Z</time>
      </trkpt>
      <trkpt lat="49.70792" lon="4.90252">
        <ele>156</ele>
        <time>2020-06-25T11:22:28Z</time>
      </trkpt>
      <trkpt lat="49.70793" lon="4.9025">
        <ele>156</ele>
        <time>2020-06-25T11:22:29Z</time>
      </trkpt>
      <trkpt lat="49.70793" lon="4.90249">
        <ele>156</ele>
        <time>2020-06-25T11:22:30Z</time>
      </trkpt>
      <trkpt lat="49.70795" lon="4.90245">
        <ele>156</ele>
        <time>2020-06-25T11:22:31Z</time>
      </trkpt>
      <trkpt lat="49.70796" lon="4.90243">
        <ele>156.1</ele>
        <time>2020-06-25T11:22:32Z</time>
      </trkpt>
      <trkpt lat="49.70796" lon="4.9024">
        <ele>156.1</ele>
        <time>2020-06-25T11:22:33Z</time>
      </trkpt>
      <trkpt lat="49.70797" lon="4.90237">
        <ele>156.1</ele>
        <time>2020-06-25T11:22:34Z</time>
      </trkpt>
      <trkpt lat="49.70798" lon="4.90235">
        <ele>156.1</ele>
        <time>2020-06-25T11:22:35Z</time>
      </trkpt>
      <trkpt lat="49.70799" lon="4.90232">
        <ele>156.1</ele>
        <time>2020-06-25T11:22:36Z</time>
      </trkpt>
      <trkpt lat="49.708" lon="4.9023">
        <ele>156.2</ele>
        <time>2020-06-25T11:22:37Z</time>
      </trkpt>
      <trkpt lat="49.70801" lon="4.90227">
        <ele>156.2</ele>
        <time>2020-06-25T11:22:38Z</time>
      </trkpt>
      <trkpt lat="49.70802" lon="4.90225">
        <ele>156.2</ele>
        <time>2020-06-25T11:22:39Z</time>
      </trkpt>
      <trkpt lat="49.70803" lon="4.90222">
        <ele>156.2</ele>
        <time>2020-06-25T11:23:41Z</time>
      </trkpt>
      <trkpt lat="49.70804" lon="4.90219">
        <ele>156.3</ele>
        <time>2020-06-25T11:23:42Z</time>
      </trkpt>
      <trkpt lat="49.70807" lon="4.90214">
        <ele>156.2</ele>
        <time>2020-06-25T11:23:43Z</time>
      </trkpt>
      <trkpt lat="49.70809" lon="4.9021">
        <ele>156.2</ele>
        <time>2020-06-25T11:23:44Z</time>
      </trkpt>
      <trkpt lat="49.70812" lon="4.90205">
        <ele>156.2</ele>
        <time>2020-06-25T11:23:45Z</time>
      </trkpt>
      <trkpt lat="49.70815" lon="4.90199">
        <ele>156.2</ele>
        <time>2020-06-25T11:23:46Z</time>
      </trkpt>
      <trkpt lat="49.70819" lon="4.90193">
        <ele>156.2</ele>
        <time>2020-06-25T11:23:47Z</time>
      </trkpt>
      <trkpt lat="49.70823" lon="4.90187">
        <ele>156.2</ele>
        <time>2020-06-25T11:23:48Z</time>
      </trkpt>
      <trkpt lat="49.70826" lon="4.90183">
        <ele>156.2</ele>
        <time>2020-06-25T11:23:49Z</time>
      </trkpt>
      <trkpt lat="49.7083" lon="4.9018">
        <ele>156.2</ele>
        <time>2020-06-25T11:23:50Z</time>
      </trkpt>
      <trkpt lat="49.70832" lon="4.90178">
        <ele>156.2</ele>
        <time>2020-06-25T11:23:51Z</time>
      </trkpt>
      <trkpt lat="49.70835" lon="4.90177">
        <ele>156.2</ele>
        <time>2020-06-25T11:23:52Z</time>
      </trkpt>
      <trkpt lat="49.70838" lon="4.90175">
        <ele>156.2</ele>
        <time>2020-06-25T11:23:53Z</time>
      </trkpt>
      <trkpt lat="49.70842" lon="4.90172">
        <ele>156.3</ele>
        <time>2020-06-25T11:23:54Z</time>
      </trkpt>
      <trkpt lat="49.70845" lon="4.90171">
        <ele>156.3</ele>
        <time>2020-06-25T11:23:55Z</time>
      </trkpt>
      <trkpt lat="49.70849" lon="4.90169">
        <ele>156.3</ele>
        <time>2020-06-25T11:23:56Z</time>
      </trkpt>
      <trkpt lat="49.70853" lon="4.90166">
        <ele>156.3</ele>
        <time>2020-06-25T11:23:57Z</time>
      </trkpt>
      <trkpt lat="49.70857" lon="4.90165">
        <ele>156.3</ele>
        <time>2020-06-25T11:23:58Z</time>
      </trkpt>
      <trkpt lat="49.7086" lon="4.90163">
        <ele>156.4</ele>
        <time>2020-06-25T11:23:59Z</time>
      </trkpt>
      <trkpt lat="49.70863" lon="4.90161">
        <ele>156.4</ele>
        <time>2020-06-25T11:24:00Z</time>
      </trkpt>
      <trkpt lat="49.70866" lon="4.90158">
        <ele>156.4</ele>
        <time>2020-06-25T11:24:01Z</time>
      </trkpt>
      <trkpt lat="49.70869" lon="4.90154">
        <ele>156.5</ele>
        <time>2020-06-25T11:24:02Z</time>
      </trkpt>
      <trkpt lat="49.70872" lon="4.9015">
        <ele>156.5</ele>
        <time>2020-06-25T11:24:03Z</time>
      </trkpt>
      <trkpt lat="49.70872" lon="4.90149">
        <ele>156.5</ele>
        <time>2020-06-25T11:24:04Z</time>
      </trkpt>
      <trkpt lat="49.70876" lon="4.9015">
        <ele>156.5</ele>
        <time>2020-06-25T11:24:05Z</time>
      </trkpt>
      <trkpt lat="49.70877" lon="4.90152">
        <ele>156.6</ele>
        <time>2020-06-25T11:24:06Z</time>
      </trkpt>
      <trkpt lat="49.70879" lon="4.90158">
        <ele>156.6</ele>
        <time>2020-06-25T11:24:07Z</time>
      </trkpt>
      <trkpt lat="49.70881" lon="4.90164">
        <ele>156.6</ele>
        <time>2020-06-25T11:24:08Z</time>
      </trkpt>
      <trkpt lat="49.70883" lon="4.9017">
        <ele>156.6</ele>
        <time>2020-06-25T11:24:09Z</time>
      </trkpt>
      <trkpt lat="49.70885" lon="4.90177">
        <ele>156.6</ele>
        <time>2020-06-25T11:24:10Z</time>
      </trkpt>
      <trkpt lat="49.70887" lon="4.90184">
        <ele>156.6</ele>
        <time>2020-06-25T11:24:11Z</time>
      </trkpt>
      <trkpt lat="49.70889" lon="4.90189">
        <ele>156.6</ele>
        <time>2020-06-25T11:24:12Z</time>
      </trkpt>
      <trkpt lat="49.70892" lon="4.90193">
        <ele>156.6</ele>
        <time>2020-06-25T11:24:13Z</time>
      </trkpt>
      <trkpt lat="49.70893" lon="4.90197">
        <ele>156.6</ele>
        <time>2020-06-25T11:24:14Z</time>
      </trkpt>
      <trkpt lat="49.70895" lon="4.90202">
        <ele>156.6</ele>
        <time>2020-06-25T11:24:15Z</time>
      </trkpt>
      <trkpt lat="49.70898" lon="4.90209">
        <ele>156.6</ele>
        <time>2020-06-25T11:24:16Z</time>
      </trkpt>
      <trkpt lat="49.709" lon="4.90217">
        <ele>156.5</ele>
        <time>2020-06-25T11:24:17Z</time>
      </trkpt>
      <trkpt lat="49.70903" lon="4.90225">
        <ele>156.4</ele>
        <time>2020-06-25T11:24:18Z</time>
      </trkpt>
      <trkpt lat="49.70905" lon="4.90232">
        <ele>156.4</ele>
        <time>2020-06-25T11:24:19Z</time>
      </trkpt>
      <trkpt lat="49.70907" lon="4.90239">
        <ele>156.3</ele>
        <time>2020-06-25T11:24:20Z</time>
      </trkpt>
      <trkpt lat="49.70909" lon="4.90244">
        <ele>156.2</ele>
        <time>2020-06-25T11:24:21Z</time>
      </trkpt>
      <trkpt lat="49.70911" lon="4.9025">
        <ele>156.2</ele>
        <time>2020-06-25T11:24:22Z</time>
      </trkpt>
      <trkpt lat="49.70914" lon="4.90256">
        <ele>156.1</ele>
        <time>2020-06-25T11:24:23Z</time>
      </trkpt>
      <trkpt lat="49.70916" lon="4.90263">
        <ele>156</ele>
        <time>2020-06-25T11:24:24Z</time>
      </trkpt>
      <trkpt lat="49.70918" lon="4.90271">
        <ele>155.9</ele>
        <time>2020-06-25T11:24:25Z</time>
      </trkpt>
      <trkpt lat="49.7092" lon="4.90278">
        <ele>155.8</ele>
        <time>2020-06-25T11:24:26Z</time>
      </trkpt>
      <trkpt lat="49.70923" lon="4.90285">
        <ele>155.7</ele>
        <time>2020-06-25T11:24:27Z</time>
      </trkpt>
      <trkpt lat="49.70927" lon="4.90293">
        <ele>155.7</ele>
        <time>2020-06-25T11:24:28Z</time>
      </trkpt>
      <trkpt lat="49.7093" lon="4.90302">
        <ele>155.6</ele>
        <time>2020-06-25T11:24:29Z</time>
      </trkpt>
      <trkpt lat="49.70934" lon="4.9031">
        <ele>155.5</ele>
        <time>2020-06-25T11:24:30Z</time>
      </trkpt>
      <trkpt lat="49.70936" lon="4.9032">
        <ele>155.5</ele>
        <time>2020-06-25T11:24:31Z</time>
      </trkpt>
      <trkpt lat="49.70939" lon="4.90329">
        <ele>155.4</ele>
        <time>2020-06-25T11:24:32Z</time>
      </trkpt>
      <trkpt lat="49.70942" lon="4.90336">
        <ele>155.3</ele>
        <time>2020-06-25T11:24:33Z</time>
      </trkpt>
      <trkpt lat="49.70945" lon="4.90343">
        <ele>155.3</ele>
        <time>2020-06-25T11:24:34Z</time>
      </trkpt>
      <trkpt lat="49.70947" lon="4.90351">
        <ele>155.2</ele>
        <time>2020-06-25T11:24:35Z</time>
      </trkpt>
      <trkpt lat="49.7095" lon="4.9036">
        <ele>155.1</ele>
        <time>2020-06-25T11:24:36Z</time>
      </trkpt>
      <trkpt lat="49.70953" lon="4.90368">
        <ele>155</ele>
        <time>2020-06-25T11:24:37Z</time>
      </trkpt>
      <trkpt lat="49.70956" lon="4.90376">
        <ele>154.9</ele>
        <time>2020-06-25T11:24:38Z</time>
      </trkpt>
      <trkpt lat="49.70959" lon="4.90386">
        <ele>154.8</ele>
        <time>2020-06-25T11:24:39Z</time>
      </trkpt>
      <trkpt lat="49.70961" lon="4.90394">
        <ele>154.7</ele>
        <time>2020-06-25T11:24:40Z</time>
      </trkpt>
      <trkpt lat="49.70964" lon="4.90402">
        <ele>154.6</ele>
        <time>2020-06-25T11:24:41Z</time>
      </trkpt>
      <trkpt lat="49.70967" lon="4.9041">
        <ele>154.6</ele>
        <time>2020-06-25T11:24:42Z</time>
      </trkpt>
      <trkpt lat="49.7097" lon="4.90418">
        <ele>154.5</ele>
        <time>2020-06-25T11:24:43Z</time>
      </trkpt>
      <trkpt lat="49.70972" lon="4.90426">
        <ele>154.5</ele>
        <time>2020-06-25T11:24:44Z</time>
      </trkpt>
      <trkpt lat="49.70975" lon="4.90434">
        <ele>154.5</ele>
        <time>2020-06-25T11:24:45Z</time>
      </trkpt>
      <trkpt lat="49.70977" lon="4.90442">
        <ele>154.4</ele>
        <time>2020-06-25T11:24:46Z</time>
      </trkpt>
      <trkpt lat="49.70979" lon="4.90451">
        <ele>154.4</ele>
        <time>2020-06-25T11:24:47Z</time>
      </trkpt>
      <trkpt lat="49.70982" lon="4.90461">
        <ele>154.3</ele>
        <time>2020-06-25T11:24:48Z</time>
      </trkpt>
      <trkpt lat="49.70984" lon="4.90468">
        <ele>154.2</ele>
        <time>2020-06-25T11:24:49Z</time>
      </trkpt>
      <trkpt lat="49.70987" lon="4.90477">
        <ele>154.2</ele>
        <time>2020-06-25T11:24:50Z</time>
      </trkpt>
      <trkpt lat="49.70989" lon="4.90483">
        <ele>154.2</ele>
        <time>2020-06-25T11:24:51Z</time>
      </trkpt>
      <trkpt lat="49.7099" lon="4.90487">
        <ele>154.1</ele>
        <time>2020-06-25T11:24:52Z</time>
      </trkpt>
      <trkpt lat="49.70993" lon="4.90494">
        <ele>154.1</ele>
        <time>2020-06-25T11:24:53Z</time>
      </trkpt>
      <trkpt lat="49.70995" lon="4.905">
        <ele>154.1</ele>
        <time>2020-06-25T11:24:54Z</time>
      </trkpt>
      <trkpt lat="49.70998" lon="4.90509">
        <ele>154</ele>
        <time>2020-06-25T11:24:55Z</time>
      </trkpt>
      <trkpt lat="49.71001" lon="4.90518">
        <ele>154</ele>
        <time>2020-06-25T11:24:56Z</time>
      </trkpt>
      <trkpt lat="49.71003" lon="4.90523">
        <ele>154</ele>
        <time>2020-06-25T11:24:57Z</time>
      </trkpt>
      <trkpt lat="49.71005" lon="4.90529">
        <ele>153.9</ele>
        <time>2020-06-25T11:24:58Z</time>
      </trkpt>
      <trkpt lat="49.71007" lon="4.90534">
        <ele>153.9</ele>
        <time>2020-06-25T11:24:59Z</time>
      </trkpt>
      <trkpt lat="49.71009" lon="4.9054">
        <ele>153.9</ele>
        <time>2020-06-25T11:25:00Z</time>
      </trkpt>
      <trkpt lat="49.71012" lon="4.90547">
        <ele>153.8</ele>
        <time>2020-06-25T11:25:01Z</time>
      </trkpt>
      <trkpt lat="49.71014" lon="4.90554">
        <ele>153.8</ele>
        <time>2020-06-25T11:25:02Z</time>
      </trkpt>
      <trkpt lat="49.71016" lon="4.90561">
        <ele>153.8</ele>
        <time>2020-06-25T11:25:03Z</time>
      </trkpt>
      <trkpt lat="49.71018" lon="4.9057">
        <ele>153.8</ele>
        <time>2020-06-25T11:25:04Z</time>
      </trkpt>
      <trkpt lat="49.71021" lon="4.90578">
        <ele>153.8</ele>
        <time>2020-06-25T11:25:05Z</time>
      </trkpt>
      <trkpt lat="49.71024" lon="4.90587">
        <ele>153.7</ele>
        <time>2020-06-25T11:25:06Z</time>
      </trkpt>
      <trkpt lat="49.71027" lon="4.90595">
        <ele>153.7</ele>
        <time>2020-06-25T11:25:07Z</time>
      </trkpt>
      <trkpt lat="49.71029" lon="4.90603">
        <ele>153.6</ele>
        <time>2020-06-25T11:25:08Z</time>
      </trkpt>
      <trkpt lat="49.71032" lon="4.90612">
        <ele>153.6</ele>
        <time>2020-06-25T11:25:09Z</time>
      </trkpt>
      <trkpt lat="49.71034" lon="4.90619">
        <ele>153.6</ele>
        <time>2020-06-25T11:25:10Z</time>
      </trkpt>
      <trkpt lat="49.71037" lon="4.90627">
        <ele>153.6</ele>
        <time>2020-06-25T11:25:11Z</time>
      </trkpt>
      <trkpt lat="49.71039" lon="4.90636">
        <ele>153.6</ele>
        <time>2020-06-25T11:25:12Z</time>
      </trkpt>
      <trkpt lat="49.71041" lon="4.90643">
        <ele>153.6</ele>
        <time>2020-06-25T11:25:13Z</time>
      </trkpt>
      <trkpt lat="49.71044" lon="4.9065">
        <ele>153.7</ele>
        <time>2020-06-25T11:25:14Z</time>
      </trkpt>
      <trkpt lat="49.71047" lon="4.90657">
        <ele>153.7</ele>
        <time>2020-06-25T11:25:15Z</time>
      </trkpt>
      <trkpt lat="49.71049" lon="4.90665">
        <ele>153.7</ele>
        <time>2020-06-25T11:25:16Z</time>
      </trkpt>
      <trkpt lat="49.71051" lon="4.90671">
        <ele>153.7</ele>
        <time>2020-06-25T11:25:17Z</time>
      </trkpt>
      <trkpt lat="49.71054" lon="4.9068">
        <ele>153.6</ele>
        <time>2020-06-25T11:25:18Z</time>
      </trkpt>
      <trkpt lat="49.71057" lon="4.90688">
        <ele>153.6</ele>
        <time>2020-06-25T11:25:19Z</time>
      </trkpt>
      <trkpt lat="49.7106" lon="4.90696">
        <ele>153.5</ele>
        <time>2020-06-25T11:25:20Z</time>
      </trkpt>
      <trkpt lat="49.71063" lon="4.90704">
        <ele>153.5</ele>
        <time>2020-06-25T11:25:21Z</time>
      </trkpt>
      <trkpt lat="49.71066" lon="4.90713">
        <ele>153.4</ele>
        <time>2020-06-25T11:25:22Z</time>
      </trkpt>
      <trkpt lat="49.71069" lon="4.9072">
        <ele>153.4</ele>
        <time>2020-06-25T11:25:23Z</time>
      </trkpt>
      <trkpt lat="49.71072" lon="4.90729">
        <ele>153.4</ele>
        <time>2020-06-25T11:25:24Z</time>
      </trkpt>
      <trkpt lat="49.71073" lon="4.90735">
        <ele>153.3</ele>
        <time>2020-06-25T11:25:25Z</time>
      </trkpt>
      <trkpt lat="49.71076" lon="4.90742">
        <ele>153.3</ele>
        <time>2020-06-25T11:25:26Z</time>
      </trkpt>
      <trkpt lat="49.71079" lon="4.90751">
        <ele>153.3</ele>
        <time>2020-06-25T11:25:27Z</time>
      </trkpt>
      <trkpt lat="49.71083" lon="4.90759">
        <ele>153.2</ele>
        <time>2020-06-25T11:25:28Z</time>
      </trkpt>
      <trkpt lat="49.71087" lon="4.90767">
        <ele>153.2</ele>
        <time>2020-06-25T11:25:29Z</time>
      </trkpt>
      <trkpt lat="49.71089" lon="4.90774">
        <ele>153.1</ele>
        <time>2020-06-25T11:25:30Z</time>
      </trkpt>
      <trkpt lat="49.71092" lon="4.90782">
        <ele>153.1</ele>
        <time>2020-06-25T11:25:31Z</time>
      </trkpt>
      <trkpt lat="49.71095" lon="4.90791">
        <ele>153.1</ele>
        <time>2020-06-25T11:25:32Z</time>
      </trkpt>
      <trkpt lat="49.71098" lon="4.908">
        <ele>153.1</ele>
        <time>2020-06-25T11:25:33Z</time>
      </trkpt>
      <trkpt lat="49.711" lon="4.90808">
        <ele>153.1</ele>
        <time>2020-06-25T11:25:34Z</time>
      </trkpt>
      <trkpt lat="49.71103" lon="4.90812">
        <ele>153</ele>
        <time>2020-06-25T11:25:35Z</time>
      </trkpt>
      <trkpt lat="49.71107" lon="4.9082">
        <ele>153</ele>
        <time>2020-06-25T11:25:36Z</time>
      </trkpt>
      <trkpt lat="49.7111" lon="4.90827">
        <ele>152.9</ele>
        <time>2020-06-25T11:25:37Z</time>
      </trkpt>
      <trkpt lat="49.71113" lon="4.90835">
        <ele>152.9</ele>
        <time>2020-06-25T11:25:38Z</time>
      </trkpt>
      <trkpt lat="49.71116" lon="4.90843">
        <ele>152.9</ele>
        <time>2020-06-25T11:25:39Z</time>
      </trkpt>
      <trkpt lat="49.71118" lon="4.90851">
        <ele>152.8</ele>
        <time>2020-06-25T11:25:40Z</time>
      </trkpt>
      <trkpt lat="49.71121" lon="4.90858">
        <ele>152.8</ele>
        <time>2020-06-25T11:25:41Z</time>
      </trkpt>
      <trkpt lat="49.71124" lon="4.90867">
        <ele>152.8</ele>
        <time>2020-06-25T11:25:42Z</time>
      </trkpt>
      <trkpt lat="49.71126" lon="4.90875">
        <ele>152.8</ele>
        <time>2020-06-25T11:25:43Z</time>
      </trkpt>
      <trkpt lat="49.71129" lon="4.90886">
        <ele>152.7</ele>
        <time>2020-06-25T11:25:44Z</time>
      </trkpt>
      <trkpt lat="49.71133" lon="4.90895">
        <ele>152.7</ele>
        <time>2020-06-25T11:25:45Z</time>
      </trkpt>
      <trkpt lat="49.71134" lon="4.909">
        <ele>152.7</ele>
        <time>2020-06-25T11:25:46Z</time>
      </trkpt>
      <trkpt lat="49.71138" lon="4.90911">
        <ele>152.7</ele>
        <time>2020-06-25T11:25:47Z</time>
      </trkpt>
      <trkpt lat="49.71141" lon="4.90917">
        <ele>152.7</ele>
        <time>2020-06-25T11:25:48Z</time>
      </trkpt>
      <trkpt lat="49.71143" lon="4.90929">
        <ele>152.7</ele>
        <time>2020-06-25T11:25:49Z</time>
      </trkpt>
      <trkpt lat="49.71146" lon="4.90937">
        <ele>152.7</ele>
        <time>2020-06-25T11:25:50Z</time>
      </trkpt>
      <trkpt lat="49.7115" lon="4.90947">
        <ele>152.7</ele>
        <time>2020-06-25T11:25:51Z</time>
      </trkpt>
      <trkpt lat="49.71153" lon="4.90955">
        <ele>152.7</ele>
        <time>2020-06-25T11:25:52Z</time>
      </trkpt>
      <trkpt lat="49.71156" lon="4.9096">
        <ele>152.7</ele>
        <time>2020-06-25T11:25:53Z</time>
      </trkpt>
      <trkpt lat="49.71159" lon="4.90966">
        <ele>152.6</ele>
        <time>2020-06-25T11:25:54Z</time>
      </trkpt>
      <trkpt lat="49.71162" lon="4.90974">
        <ele>152.6</ele>
        <time>2020-06-25T11:25:55Z</time>
      </trkpt>
      <trkpt lat="49.71164" lon="4.90983">
        <ele>152.6</ele>
        <time>2020-06-25T11:25:56Z</time>
      </trkpt>
      <trkpt lat="49.71167" lon="4.90992">
        <ele>152.6</ele>
        <time>2020-06-25T11:25:57Z</time>
      </trkpt>
      <trkpt lat="49.71171" lon="4.91001">
        <ele>152.6</ele>
        <time>2020-06-25T11:25:58Z</time>
      </trkpt>
      <trkpt lat="49.71174" lon="4.91008">
        <ele>152.6</ele>
        <time>2020-06-25T11:25:59Z</time>
      </trkpt>
      <trkpt lat="49.71176" lon="4.91017">
        <ele>152.6</ele>
        <time>2020-06-25T11:26:00Z</time>
      </trkpt>
      <trkpt lat="49.71179" lon="4.91026">
        <ele>152.5</ele>
        <time>2020-06-25T11:26:01Z</time>
      </trkpt>
      <trkpt lat="49.71182" lon="4.91033">
        <ele>152.5</ele>
        <time>2020-06-25T11:26:02Z</time>
      </trkpt>
      <trkpt lat="49.71184" lon="4.91041">
        <ele>152.5</ele>
        <time>2020-06-25T11:26:03Z</time>
      </trkpt>
      <trkpt lat="49.71186" lon="4.9105">
        <ele>152.5</ele>
        <time>2020-06-25T11:26:04Z</time>
      </trkpt>
      <trkpt lat="49.71188" lon="4.91058">
        <ele>152.6</ele>
        <time>2020-06-25T11:26:05Z</time>
      </trkpt>
      <trkpt lat="49.71191" lon="4.91066">
        <ele>152.6</ele>
        <time>2020-06-25T11:26:06Z</time>
      </trkpt>
      <trkpt lat="49.71193" lon="4.91072">
        <ele>152.6</ele>
        <time>2020-06-25T11:26:07Z</time>
      </trkpt>
      <trkpt lat="49.71196" lon="4.91079">
        <ele>152.7</ele>
        <time>2020-06-25T11:26:08Z</time>
      </trkpt>
      <trkpt lat="49.71198" lon="4.91086">
        <ele>152.7</ele>
        <time>2020-06-25T11:26:09Z</time>
      </trkpt>
      <trkpt lat="49.71201" lon="4.91094">
        <ele>152.8</ele>
        <time>2020-06-25T11:26:10Z</time>
      </trkpt>
      <trkpt lat="49.71202" lon="4.91102">
        <ele>152.9</ele>
        <time>2020-06-25T11:26:11Z</time>
      </trkpt>
      <trkpt lat="49.71205" lon="4.9111">
        <ele>153</ele>
        <time>2020-06-25T11:26:12Z</time>
      </trkpt>
      <trkpt lat="49.71208" lon="4.91117">
        <ele>153.1</ele>
        <time>2020-06-25T11:26:13Z</time>
      </trkpt>
      <trkpt lat="49.71211" lon="4.91124">
        <ele>153.2</ele>
        <time>2020-06-25T11:26:14Z</time>
      </trkpt>
      <trkpt lat="49.71214" lon="4.9113">
        <ele>153.3</ele>
        <time>2020-06-25T11:26:15Z</time>
      </trkpt>
      <trkpt lat="49.71216" lon="4.91138">
        <ele>153.5</ele>
        <time>2020-06-25T11:26:16Z</time>
      </trkpt>
      <trkpt lat="49.7122" lon="4.91145">
        <ele>153.6</ele>
        <time>2020-06-25T11:26:17Z</time>
      </trkpt>
      <trkpt lat="49.71223" lon="4.91153">
        <ele>153.8</ele>
        <time>2020-06-25T11:26:18Z</time>
      </trkpt>
      <trkpt lat="49.71225" lon="4.91161">
        <ele>154</ele>
        <time>2020-06-25T11:26:19Z</time>
      </trkpt>
      <trkpt lat="49.71226" lon="4.91169">
        <ele>154.1</ele>
        <time>2020-06-25T11:26:20Z</time>
      </trkpt>
      <trkpt lat="49.71228" lon="4.91176">
        <ele>154.3</ele>
        <time>2020-06-25T11:26:21Z</time>
      </trkpt>
      <trkpt lat="49.7123" lon="4.9118">
        <ele>154.5</ele>
        <time>2020-06-25T11:26:22Z</time>
      </trkpt>
      <trkpt lat="49.71231" lon="4.91184">
        <ele>154.6</ele>
        <time>2020-06-25T11:26:23Z</time>
      </trkpt>
      <trkpt lat="49.71233" lon="4.91188">
        <ele>154.9</ele>
        <time>2020-06-25T11:26:24Z</time>
      </trkpt>
      <trkpt lat="49.71233" lon="4.9119">
        <ele>154.9</ele>
        <time>2020-06-25T11:26:25Z</time>
      </trkpt>
      <trkpt lat="49.71232" lon="4.91195">
        <ele>154.9</ele>
        <time>2020-06-25T11:26:26Z</time>
      </trkpt>
      <trkpt lat="49.71228" lon="4.912">
        <ele>154.9</ele>
        <time>2020-06-25T11:26:27Z</time>
      </trkpt>
      <trkpt lat="49.71226" lon="4.91202">
        <ele>154.9</ele>
        <time>2020-06-25T11:26:28Z</time>
      </trkpt>
      <trkpt lat="49.71222" lon="4.91204">
        <ele>155</ele>
        <time>2020-06-25T11:26:29Z</time>
      </trkpt>
      <trkpt lat="49.71217" lon="4.91207">
        <ele>155</ele>
        <time>2020-06-25T11:26:30Z</time>
      </trkpt>
      <trkpt lat="49.71213" lon="4.91209">
        <ele>155</ele>
        <time>2020-06-25T11:26:31Z</time>
      </trkpt>
      <trkpt lat="49.71208" lon="4.91212">
        <ele>154.9</ele>
        <time>2020-06-25T11:26:32Z</time>
      </trkpt>
      <trkpt lat="49.71204" lon="4.91217">
        <ele>154.9</ele>
        <time>2020-06-25T11:26:33Z</time>
      </trkpt>
      <trkpt lat="49.71201" lon="4.9122">
        <ele>154.9</ele>
        <time>2020-06-25T11:26:34Z</time>
      </trkpt>
      <trkpt lat="49.71196" lon="4.91221">
        <ele>154.9</ele>
        <time>2020-06-25T11:26:35Z</time>
      </trkpt>
      <trkpt lat="49.71192" lon="4.91224">
        <ele>154.9</ele>
        <time>2020-06-25T11:26:36Z</time>
      </trkpt>
      <trkpt lat="49.7119" lon="4.91227">
        <ele>154.9</ele>
        <time>2020-06-25T11:26:37Z</time>
      </trkpt>
      <trkpt lat="49.7119" lon="4.91232">
        <ele>154.9</ele>
        <time>2020-06-25T11:26:38Z</time>
      </trkpt>
      <trkpt lat="49.71192" lon="4.91236">
        <ele>154.9</ele>
        <time>2020-06-25T11:26:39Z</time>
      </trkpt>
      <trkpt lat="49.71195" lon="4.91241">
        <ele>154.8</ele>
        <time>2020-06-25T11:26:40Z</time>
      </trkpt>
      <trkpt lat="49.71196" lon="4.91246">
        <ele>154.7</ele>
        <time>2020-06-25T11:26:41Z</time>
      </trkpt>
      <trkpt lat="49.71198" lon="4.91252">
        <ele>154.6</ele>
        <time>2020-06-25T11:26:42Z</time>
      </trkpt>
      <trkpt lat="49.712" lon="4.91257">
        <ele>154.6</ele>
        <time>2020-06-25T11:26:43Z</time>
      </trkpt>
      <trkpt lat="49.71202" lon="4.91264">
        <ele>154.5</ele>
        <time>2020-06-25T11:26:44Z</time>
      </trkpt>
      <trkpt lat="49.71206" lon="4.9127">
        <ele>154.4</ele>
        <time>2020-06-25T11:26:45Z</time>
      </trkpt>
      <trkpt lat="49.71209" lon="4.91276">
        <ele>154.4</ele>
        <time>2020-06-25T11:26:46Z</time>
      </trkpt>
      <trkpt lat="49.71212" lon="4.91282">
        <ele>154.4</ele>
        <time>2020-06-25T11:26:47Z</time>
      </trkpt>
      <trkpt lat="49.71215" lon="4.9129">
        <ele>154.3</ele>
        <time>2020-06-25T11:26:48Z</time>
      </trkpt>
      <trkpt lat="49.71218" lon="4.91296">
        <ele>154.3</ele>
        <time>2020-06-25T11:26:49Z</time>
      </trkpt>
      <trkpt lat="49.71221" lon="4.91304">
        <ele>154.3</ele>
        <time>2020-06-25T11:26:50Z</time>
      </trkpt>
      <trkpt lat="49.71224" lon="4.91311">
        <ele>154.2</ele>
        <time>2020-06-25T11:26:51Z</time>
      </trkpt>
      <trkpt lat="49.71226" lon="4.9132">
        <ele>154.1</ele>
        <time>2020-06-25T11:26:52Z</time>
      </trkpt>
      <trkpt lat="49.71228" lon="4.91327">
        <ele>154.1</ele>
        <time>2020-06-25T11:26:53Z</time>
      </trkpt>
      <trkpt lat="49.7123" lon="4.91336">
        <ele>154</ele>
        <time>2020-06-25T11:26:54Z</time>
      </trkpt>
      <trkpt lat="49.71232" lon="4.91345">
        <ele>153.9</ele>
        <time>2020-06-25T11:26:55Z</time>
      </trkpt>
      <trkpt lat="49.71235" lon="4.91355">
        <ele>153.7</ele>
        <time>2020-06-25T11:26:56Z</time>
      </trkpt>
      <trkpt lat="49.71238" lon="4.91363">
        <ele>153.6</ele>
        <time>2020-06-25T11:26:57Z</time>
      </trkpt>
      <trkpt lat="49.7124" lon="4.91372">
        <ele>153.5</ele>
        <time>2020-06-25T11:26:58Z</time>
      </trkpt>
      <trkpt lat="49.71243" lon="4.91381">
        <ele>153.4</ele>
        <time>2020-06-25T11:26:59Z</time>
      </trkpt>
      <trkpt lat="49.71246" lon="4.91391">
        <ele>153.3</ele>
        <time>2020-06-25T11:27:00Z</time>
      </trkpt>
      <trkpt lat="49.71249" lon="4.91401">
        <ele>153.2</ele>
        <time>2020-06-25T11:27:01Z</time>
      </trkpt>
      <trkpt lat="49.71253" lon="4.91411">
        <ele>153.1</ele>
        <time>2020-06-25T11:27:02Z</time>
      </trkpt>
      <trkpt lat="49.71256" lon="4.9142">
        <ele>153</ele>
        <time>2020-06-25T11:27:03Z</time>
      </trkpt>
      <trkpt lat="49.7126" lon="4.9143">
        <ele>153</ele>
        <time>2020-06-25T11:27:04Z</time>
      </trkpt>
      <trkpt lat="49.71263" lon="4.91439">
        <ele>153</ele>
        <time>2020-06-25T11:27:05Z</time>
      </trkpt>
      <trkpt lat="49.71265" lon="4.91449">
        <ele>153</ele>
        <time>2020-06-25T11:27:06Z</time>
      </trkpt>
      <trkpt lat="49.71268" lon="4.91459">
        <ele>153</ele>
        <time>2020-06-25T11:27:07Z</time>
      </trkpt>
      <trkpt lat="49.71271" lon="4.91469">
        <ele>152.9</ele>
        <time>2020-06-25T11:27:08Z</time>
      </trkpt>
      <trkpt lat="49.71274" lon="4.91481">
        <ele>152.9</ele>
        <time>2020-06-25T11:27:09Z</time>
      </trkpt>
      <trkpt lat="49.71276" lon="4.91492">
        <ele>152.8</ele>
        <time>2020-06-25T11:27:10Z</time>
      </trkpt>
      <trkpt lat="49.71279" lon="4.91501">
        <ele>152.7</ele>
        <time>2020-06-25T11:27:11Z</time>
      </trkpt>
      <trkpt lat="49.71281" lon="4.91511">
        <ele>152.7</ele>
        <time>2020-06-25T11:27:12Z</time>
      </trkpt>
      <trkpt lat="49.71283" lon="4.91521">
        <ele>152.7</ele>
        <time>2020-06-25T11:27:13Z</time>
      </trkpt>
      <trkpt lat="49.71284" lon="4.91531">
        <ele>152.7</ele>
        <time>2020-06-25T11:27:14Z</time>
      </trkpt>
      <trkpt lat="49.71286" lon="4.91541">
        <ele>152.6</ele>
        <time>2020-06-25T11:27:15Z</time>
      </trkpt>
      <trkpt lat="49.71288" lon="4.9155">
        <ele>152.6</ele>
        <time>2020-06-25T11:27:16Z</time>
      </trkpt>
      <trkpt lat="49.71289" lon="4.91559">
        <ele>152.6</ele>
        <time>2020-06-25T11:27:17Z</time>
      </trkpt>
      <trkpt lat="49.7129" lon="4.91569">
        <ele>152.6</ele>
        <time>2020-06-25T11:27:18Z</time>
      </trkpt>
      <trkpt lat="49.71291" lon="4.91577">
        <ele>152.6</ele>
        <time>2020-06-25T11:27:19Z</time>
      </trkpt>
      <trkpt lat="49.71292" lon="4.91586">
        <ele>152.6</ele>
        <time>2020-06-25T11:27:20Z</time>
      </trkpt>
      <trkpt lat="49.71293" lon="4.91594">
        <ele>152.6</ele>
        <time>2020-06-25T11:27:21Z</time>
      </trkpt>
      <trkpt lat="49.71295" lon="4.91603">
        <ele>152.6</ele>
        <time>2020-06-25T11:27:22Z</time>
      </trkpt>
      <trkpt lat="49.71296" lon="4.91611">
        <ele>152.6</ele>
        <time>2020-06-25T11:27:23Z</time>
      </trkpt>
      <trkpt lat="49.71298" lon="4.91618">
        <ele>152.5</ele>
        <time>2020-06-25T11:27:24Z</time>
      </trkpt>
      <trkpt lat="49.71298" lon="4.91626">
        <ele>152.5</ele>
        <time>2020-06-25T11:27:25Z</time>
      </trkpt>
      <trkpt lat="49.71298" lon="4.91634">
        <ele>152.4</ele>
        <time>2020-06-25T11:27:26Z</time>
      </trkpt>
      <trkpt lat="49.71298" lon="4.91643">
        <ele>152.4</ele>
        <time>2020-06-25T11:27:27Z</time>
      </trkpt>
      <trkpt lat="49.71298" lon="4.91651">
        <ele>152.3</ele>
        <time>2020-06-25T11:27:28Z</time>
      </trkpt>
      <trkpt lat="49.71299" lon="4.91659">
        <ele>152.2</ele>
        <time>2020-06-25T11:27:29Z</time>
      </trkpt>
      <trkpt lat="49.71299" lon="4.91669">
        <ele>152.2</ele>
        <time>2020-06-25T11:27:30Z</time>
      </trkpt>
      <trkpt lat="49.713" lon="4.91679">
        <ele>152.1</ele>
        <time>2020-06-25T11:27:31Z</time>
      </trkpt>
      <trkpt lat="49.713" lon="4.91689">
        <ele>152</ele>
        <time>2020-06-25T11:27:32Z</time>
      </trkpt>
      <trkpt lat="49.71301" lon="4.91699">
        <ele>152</ele>
        <time>2020-06-25T11:27:33Z</time>
      </trkpt>
      <trkpt lat="49.71301" lon="4.91708">
        <ele>151.9</ele>
        <time>2020-06-25T11:27:34Z</time>
      </trkpt>
      <trkpt lat="49.71302" lon="4.91718">
        <ele>151.9</ele>
        <time>2020-06-25T11:27:35Z</time>
      </trkpt>
      <trkpt lat="49.71302" lon="4.91727">
        <ele>151.9</ele>
        <time>2020-06-25T11:27:36Z</time>
      </trkpt>
      <trkpt lat="49.71302" lon="4.91737">
        <ele>151.8</ele>
        <time>2020-06-25T11:27:37Z</time>
      </trkpt>
      <trkpt lat="49.71302" lon="4.91746">
        <ele>151.7</ele>
        <time>2020-06-25T11:27:38Z</time>
      </trkpt>
      <trkpt lat="49.71302" lon="4.91756">
        <ele>151.7</ele>
        <time>2020-06-25T11:27:39Z</time>
      </trkpt>
      <trkpt lat="49.71302" lon="4.91766">
        <ele>151.6</ele>
        <time>2020-06-25T11:27:40Z</time>
      </trkpt>
      <trkpt lat="49.71301" lon="4.91776">
        <ele>151.5</ele>
        <time>2020-06-25T11:27:41Z</time>
      </trkpt>
      <trkpt lat="49.71301" lon="4.91786">
        <ele>151.3</ele>
        <time>2020-06-25T11:27:42Z</time>
      </trkpt>
      <trkpt lat="49.71301" lon="4.91796">
        <ele>151.1</ele>
        <time>2020-06-25T11:27:43Z</time>
      </trkpt>
      <trkpt lat="49.71301" lon="4.91806">
        <ele>151</ele>
        <time>2020-06-25T11:27:44Z</time>
      </trkpt>
      <trkpt lat="49.713" lon="4.91817">
        <ele>150.8</ele>
        <time>2020-06-25T11:27:45Z</time>
      </trkpt>
      <trkpt lat="49.713" lon="4.91828">
        <ele>150.7</ele>
        <time>2020-06-25T11:27:46Z</time>
      </trkpt>
      <trkpt lat="49.71299" lon="4.9184">
        <ele>150.6</ele>
        <time>2020-06-25T11:27:47Z</time>
      </trkpt>
      <trkpt lat="49.71298" lon="4.91851">
        <ele>150.4</ele>
        <time>2020-06-25T11:27:48Z</time>
      </trkpt>
      <trkpt lat="49.71297" lon="4.91861">
        <ele>150.4</ele>
        <time>2020-06-25T11:27:49Z</time>
      </trkpt>
      <trkpt lat="49.71297" lon="4.91872">
        <ele>150.3</ele>
        <time>2020-06-25T11:27:50Z</time>
      </trkpt>
      <trkpt lat="49.71296" lon="4.91882">
        <ele>150.3</ele>
        <time>2020-06-25T11:27:51Z</time>
      </trkpt>
      <trkpt lat="49.71295" lon="4.91892">
        <ele>150.2</ele>
        <time>2020-06-25T11:27:52Z</time>
      </trkpt>
      <trkpt lat="49.71294" lon="4.91902">
        <ele>150.2</ele>
        <time>2020-06-25T11:27:53Z</time>
      </trkpt>
      <trkpt lat="49.71294" lon="4.91913">
        <ele>150.1</ele>
        <time>2020-06-25T11:27:54Z</time>
      </trkpt>
      <trkpt lat="49.71292" lon="4.91923">
        <ele>150.1</ele>
        <time>2020-06-25T11:27:55Z</time>
      </trkpt>
      <trkpt lat="49.71291" lon="4.91932">
        <ele>150.1</ele>
        <time>2020-06-25T11:27:56Z</time>
      </trkpt>
      <trkpt lat="49.7129" lon="4.91942">
        <ele>150.1</ele>
        <time>2020-06-25T11:27:57Z</time>
      </trkpt>
      <trkpt lat="49.71288" lon="4.91952">
        <ele>150.1</ele>
        <time>2020-06-25T11:27:58Z</time>
      </trkpt>
      <trkpt lat="49.71286" lon="4.91961">
        <ele>150.1</ele>
        <time>2020-06-25T11:27:59Z</time>
      </trkpt>
      <trkpt lat="49.71283" lon="4.91971">
        <ele>150.1</ele>
        <time>2020-06-25T11:28:00Z</time>
      </trkpt>
      <trkpt lat="49.71281" lon="4.9198">
        <ele>150.2</ele>
        <time>2020-06-25T11:28:01Z</time>
      </trkpt>
      <trkpt lat="49.7128" lon="4.91989">
        <ele>150.2</ele>
        <time>2020-06-25T11:28:02Z</time>
      </trkpt>
      <trkpt lat="49.71278" lon="4.91998">
        <ele>150.2</ele>
        <time>2020-06-25T11:28:03Z</time>
      </trkpt>
      <trkpt lat="49.71276" lon="4.92007">
        <ele>150.2</ele>
        <time>2020-06-25T11:28:04Z</time>
      </trkpt>
      <trkpt lat="49.71274" lon="4.92016">
        <ele>150.2</ele>
        <time>2020-06-25T11:28:05Z</time>
      </trkpt>
      <trkpt lat="49.71272" lon="4.92025">
        <ele>150.2</ele>
        <time>2020-06-25T11:28:06Z</time>
      </trkpt>
      <trkpt lat="49.7127" lon="4.92033">
        <ele>150.2</ele>
        <time>2020-06-25T11:28:07Z</time>
      </trkpt>
      <trkpt lat="49.71268" lon="4.92041">
        <ele>150.2</ele>
        <time>2020-06-25T11:28:08Z</time>
      </trkpt>
      <trkpt lat="49.71266" lon="4.92049">
        <ele>150.2</ele>
        <time>2020-06-25T11:28:09Z</time>
      </trkpt>
      <trkpt lat="49.71264" lon="4.92058">
        <ele>150.2</ele>
        <time>2020-06-25T11:28:10Z</time>
      </trkpt>
      <trkpt lat="49.71262" lon="4.92066">
        <ele>150.3</ele>
        <time>2020-06-25T11:28:11Z</time>
      </trkpt>
      <trkpt lat="49.71259" lon="4.92075">
        <ele>150.3</ele>
        <time>2020-06-25T11:28:12Z</time>
      </trkpt>
      <trkpt lat="49.71256" lon="4.92083">
        <ele>150.3</ele>
        <time>2020-06-25T11:28:13Z</time>
      </trkpt>
      <trkpt lat="49.71254" lon="4.92091">
        <ele>150.3</ele>
        <time>2020-06-25T11:28:14Z</time>
      </trkpt>
      <trkpt lat="49.71252" lon="4.921">
        <ele>150.3</ele>
        <time>2020-06-25T11:28:15Z</time>
      </trkpt>
      <trkpt lat="49.71249" lon="4.92108">
        <ele>150.3</ele>
        <time>2020-06-25T11:28:16Z</time>
      </trkpt>
      <trkpt lat="49.71247" lon="4.92117">
        <ele>150.3</ele>
        <time>2020-06-25T11:28:17Z</time>
      </trkpt>
      <trkpt lat="49.71244" lon="4.92125">
        <ele>150.3</ele>
        <time>2020-06-25T11:28:18Z</time>
      </trkpt>
      <trkpt lat="49.71242" lon="4.92133">
        <ele>150.3</ele>
        <time>2020-06-25T11:28:19Z</time>
      </trkpt>
      <trkpt lat="49.7124" lon="4.92141">
        <ele>150.3</ele>
        <time>2020-06-25T11:28:20Z</time>
      </trkpt>
      <trkpt lat="49.71237" lon="4.92149">
        <ele>150.3</ele>
        <time>2020-06-25T11:28:21Z</time>
      </trkpt>
      <trkpt lat="49.71235" lon="4.92158">
        <ele>150.3</ele>
        <time>2020-06-25T11:28:22Z</time>
      </trkpt>
      <trkpt lat="49.71233" lon="4.92166">
        <ele>150.3</ele>
        <time>2020-06-25T11:28:23Z</time>
      </trkpt>
      <trkpt lat="49.7123" lon="4.92175">
        <ele>150.3</ele>
        <time>2020-06-25T11:28:24Z</time>
      </trkpt>
      <trkpt lat="49.71228" lon="4.92183">
        <ele>150.4</ele>
        <time>2020-06-25T11:28:25Z</time>
      </trkpt>
      <trkpt lat="49.71225" lon="4.92191">
        <ele>150.4</ele>
        <time>2020-06-25T11:28:26Z</time>
      </trkpt>
      <trkpt lat="49.71222" lon="4.92199">
        <ele>150.4</ele>
        <time>2020-06-25T11:28:27Z</time>
      </trkpt>
      <trkpt lat="49.7122" lon="4.92208">
        <ele>150.4</ele>
        <time>2020-06-25T11:28:28Z</time>
      </trkpt>
      <trkpt lat="49.71218" lon="4.92216">
        <ele>150.4</ele>
        <time>2020-06-25T11:28:29Z</time>
      </trkpt>
      <trkpt lat="49.71215" lon="4.92225">
        <ele>150.4</ele>
        <time>2020-06-25T11:28:30Z</time>
      </trkpt>
      <trkpt lat="49.71213" lon="4.92234">
        <ele>150.5</ele>
        <time>2020-06-25T11:28:31Z</time>
      </trkpt>
      <trkpt lat="49.71211" lon="4.92242">
        <ele>150.5</ele>
        <time>2020-06-25T11:28:32Z</time>
      </trkpt>
      <trkpt lat="49.71209" lon="4.9225">
        <ele>150.5</ele>
        <time>2020-06-25T11:28:33Z</time>
      </trkpt>
      <trkpt lat="49.71206" lon="4.92259">
        <ele>150.6</ele>
        <time>2020-06-25T11:28:34Z</time>
      </trkpt>
      <trkpt lat="49.71203" lon="4.92269">
        <ele>150.6</ele>
        <time>2020-06-25T11:28:35Z</time>
      </trkpt>
      <trkpt lat="49.712" lon="4.92278">
        <ele>150.6</ele>
        <time>2020-06-25T11:28:36Z</time>
      </trkpt>
      <trkpt lat="49.71197" lon="4.92287">
        <ele>150.6</ele>
        <time>2020-06-25T11:28:37Z</time>
      </trkpt>
      <trkpt lat="49.71194" lon="4.92297">
        <ele>150.6</ele>
        <time>2020-06-25T11:28:38Z</time>
      </trkpt>
      <trkpt lat="49.71192" lon="4.92307">
        <ele>150.6</ele>
        <time>2020-06-25T11:28:39Z</time>
      </trkpt>
      <trkpt lat="49.71189" lon="4.92316">
        <ele>150.6</ele>
        <time>2020-06-25T11:28:40Z</time>
      </trkpt>
      <trkpt lat="49.71187" lon="4.92324">
        <ele>150.6</ele>
        <time>2020-06-25T11:28:41Z</time>
      </trkpt>
      <trkpt lat="49.71184" lon="4.92332">
        <ele>150.6</ele>
        <time>2020-06-25T11:28:42Z</time>
      </trkpt>
      <trkpt lat="49.71182" lon="4.9234">
        <ele>150.6</ele>
        <time>2020-06-25T11:28:43Z</time>
      </trkpt>
      <trkpt lat="49.71181" lon="4.92347">
        <ele>150.6</ele>
        <time>2020-06-25T11:28:44Z</time>
      </trkpt>
      <trkpt lat="49.71179" lon="4.92353">
        <ele>150.7</ele>
        <time>2020-06-25T11:28:45Z</time>
      </trkpt>
      <trkpt lat="49.71176" lon="4.92359">
        <ele>150.7</ele>
        <time>2020-06-25T11:28:46Z</time>
      </trkpt>
      <trkpt lat="49.71174" lon="4.92364">
        <ele>150.7</ele>
        <time>2020-06-25T11:28:47Z</time>
      </trkpt>
      <trkpt lat="49.71171" lon="4.9237">
        <ele>150.7</ele>
        <time>2020-06-25T11:28:48Z</time>
      </trkpt>
      <trkpt lat="49.71168" lon="4.92377">
        <ele>150.7</ele>
        <time>2020-06-25T11:28:49Z</time>
      </trkpt>
      <trkpt lat="49.71165" lon="4.92383">
        <ele>150.7</ele>
        <time>2020-06-25T11:28:50Z</time>
      </trkpt>
      <trkpt lat="49.71163" lon="4.92389">
        <ele>150.7</ele>
        <time>2020-06-25T11:28:51Z</time>
      </trkpt>
      <trkpt lat="49.71162" lon="4.92392">
        <ele>150.7</ele>
        <time>2020-06-25T11:28:52Z</time>
      </trkpt>
      <trkpt lat="49.71159" lon="4.92401">
        <ele>150.7</ele>
        <time>2020-06-25T11:28:53Z</time>
      </trkpt>
      <trkpt lat="49.71156" lon="4.92409">
        <ele>150.7</ele>
        <time>2020-06-25T11:28:54Z</time>
      </trkpt>
      <trkpt lat="49.71153" lon="4.92416">
        <ele>150.7</ele>
        <time>2020-06-25T11:28:55Z</time>
      </trkpt>
      <trkpt lat="49.7115" lon="4.92424">
        <ele>150.7</ele>
        <time>2020-06-25T11:28:56Z</time>
      </trkpt>
      <trkpt lat="49.71147" lon="4.92432">
        <ele>150.7</ele>
        <time>2020-06-25T11:28:57Z</time>
      </trkpt>
      <trkpt lat="49.71144" lon="4.92441">
        <ele>150.7</ele>
        <time>2020-06-25T11:28:58Z</time>
      </trkpt>
      <trkpt lat="49.71141" lon="4.92447">
        <ele>150.7</ele>
        <time>2020-06-25T11:28:59Z</time>
      </trkpt>
      <trkpt lat="49.71137" lon="4.92456">
        <ele>150.7</ele>
        <time>2020-06-25T11:29:00Z</time>
      </trkpt>
      <trkpt lat="49.71135" lon="4.92462">
        <ele>150.7</ele>
        <time>2020-06-25T11:29:01Z</time>
      </trkpt>
      <trkpt lat="49.71134" lon="4.92465">
        <ele>150.7</ele>
        <time>2020-06-25T11:29:02Z</time>
      </trkpt>
      <trkpt lat="49.71131" lon="4.92471">
        <ele>150.6</ele>
        <time>2020-06-25T11:29:03Z</time>
      </trkpt>
      <trkpt lat="49.71129" lon="4.92479">
        <ele>150.6</ele>
        <time>2020-06-25T11:29:04Z</time>
      </trkpt>
      <trkpt lat="49.71126" lon="4.92486">
        <ele>150.6</ele>
        <time>2020-06-25T11:29:05Z</time>
      </trkpt>
      <trkpt lat="49.71123" lon="4.92496">
        <ele>150.6</ele>
        <time>2020-06-25T11:29:06Z</time>
      </trkpt>
      <trkpt lat="49.7112" lon="4.92505">
        <ele>150.5</ele>
        <time>2020-06-25T11:29:07Z</time>
      </trkpt>
      <trkpt lat="49.71117" lon="4.92513">
        <ele>150.5</ele>
        <time>2020-06-25T11:29:08Z</time>
      </trkpt>
      <trkpt lat="49.71114" lon="4.92522">
        <ele>150.5</ele>
        <time>2020-06-25T11:29:09Z</time>
      </trkpt>
      <trkpt lat="49.71111" lon="4.9253">
        <ele>150.5</ele>
        <time>2020-06-25T11:29:10Z</time>
      </trkpt>
      <trkpt lat="49.71108" lon="4.92538">
        <ele>150.5</ele>
        <time>2020-06-25T11:29:11Z</time>
      </trkpt>
      <trkpt lat="49.71104" lon="4.92548">
        <ele>150.6</ele>
        <time>2020-06-25T11:29:12Z</time>
      </trkpt>
      <trkpt lat="49.71101" lon="4.92557">
        <ele>150.6</ele>
        <time>2020-06-25T11:29:13Z</time>
      </trkpt>
      <trkpt lat="49.71097" lon="4.92565">
        <ele>150.6</ele>
        <time>2020-06-25T11:29:14Z</time>
      </trkpt>
      <trkpt lat="49.71093" lon="4.92574">
        <ele>150.6</ele>
        <time>2020-06-25T11:29:15Z</time>
      </trkpt>
      <trkpt lat="49.7109" lon="4.92582">
        <ele>150.6</ele>
        <time>2020-06-25T11:29:16Z</time>
      </trkpt>
      <trkpt lat="49.71086" lon="4.92589">
        <ele>150.6</ele>
        <time>2020-06-25T11:29:17Z</time>
      </trkpt>
      <trkpt lat="49.71084" lon="4.92597">
        <ele>150.6</ele>
        <time>2020-06-25T11:29:18Z</time>
      </trkpt>
      <trkpt lat="49.7108" lon="4.92607">
        <ele>150.6</ele>
        <time>2020-06-25T11:29:19Z</time>
      </trkpt>
      <trkpt lat="49.71075" lon="4.92617">
        <ele>150.6</ele>
        <time>2020-06-25T11:29:20Z</time>
      </trkpt>
      <trkpt lat="49.71072" lon="4.92625">
        <ele>150.6</ele>
        <time>2020-06-25T11:29:21Z</time>
      </trkpt>
      <trkpt lat="49.71068" lon="4.92634">
        <ele>150.5</ele>
        <time>2020-06-25T11:29:22Z</time>
      </trkpt>
      <trkpt lat="49.71065" lon="4.92644">
        <ele>150.5</ele>
        <time>2020-06-25T11:29:23Z</time>
      </trkpt>
      <trkpt lat="49.71061" lon="4.92653">
        <ele>150.5</ele>
        <time>2020-06-25T11:29:24Z</time>
      </trkpt>
      <trkpt lat="49.71059" lon="4.92661">
        <ele>150.5</ele>
        <time>2020-06-25T11:29:25Z</time>
      </trkpt>
      <trkpt lat="49.71056" lon="4.9267">
        <ele>150.4</ele>
        <time>2020-06-25T11:29:26Z</time>
      </trkpt>
      <trkpt lat="49.71053" lon="4.92679">
        <ele>150.4</ele>
        <time>2020-06-25T11:29:27Z</time>
      </trkpt>
      <trkpt lat="49.71049" lon="4.92689">
        <ele>150.3</ele>
        <time>2020-06-25T11:29:28Z</time>
      </trkpt>
      <trkpt lat="49.71047" lon="4.92696">
        <ele>150.3</ele>
        <time>2020-06-25T11:29:29Z</time>
      </trkpt>
      <trkpt lat="49.71045" lon="4.92703">
        <ele>150.2</ele>
        <time>2020-06-25T11:29:30Z</time>
      </trkpt>
      <trkpt lat="49.71042" lon="4.92714">
        <ele>150.2</ele>
        <time>2020-06-25T11:29:31Z</time>
      </trkpt>
      <trkpt lat="49.71039" lon="4.92723">
        <ele>150.2</ele>
        <time>2020-06-25T11:29:32Z</time>
      </trkpt>
      <trkpt lat="49.71036" lon="4.92733">
        <ele>150.2</ele>
        <time>2020-06-25T11:29:33Z</time>
      </trkpt>
      <trkpt lat="49.71033" lon="4.92742">
        <ele>150.1</ele>
        <time>2020-06-25T11:29:34Z</time>
      </trkpt>
      <trkpt lat="49.71031" lon="4.9275">
        <ele>150</ele>
        <time>2020-06-25T11:29:35Z</time>
      </trkpt>
      <trkpt lat="49.71029" lon="4.9276">
        <ele>149.9</ele>
        <time>2020-06-25T11:29:36Z</time>
      </trkpt>
      <trkpt lat="49.71026" lon="4.9277">
        <ele>149.9</ele>
        <time>2020-06-25T11:29:37Z</time>
      </trkpt>
      <trkpt lat="49.71024" lon="4.9278">
        <ele>149.8</ele>
        <time>2020-06-25T11:29:38Z</time>
      </trkpt>
      <trkpt lat="49.71022" lon="4.9279">
        <ele>149.7</ele>
        <time>2020-06-25T11:29:39Z</time>
      </trkpt>
      <trkpt lat="49.71019" lon="4.92799">
        <ele>149.7</ele>
        <time>2020-06-25T11:29:40Z</time>
      </trkpt>
      <trkpt lat="49.71017" lon="4.92808">
        <ele>149.7</ele>
        <time>2020-06-25T11:29:41Z</time>
      </trkpt>
      <trkpt lat="49.71015" lon="4.92817">
        <ele>149.7</ele>
        <time>2020-06-25T11:29:42Z</time>
      </trkpt>
      <trkpt lat="49.71013" lon="4.92825">
        <ele>149.7</ele>
        <time>2020-06-25T11:29:43Z</time>
      </trkpt>
      <trkpt lat="49.71011" lon="4.92833">
        <ele>149.6</ele>
        <time>2020-06-25T11:29:44Z</time>
      </trkpt>
      <trkpt lat="49.71009" lon="4.9284">
        <ele>149.6</ele>
        <time>2020-06-25T11:29:45Z</time>
      </trkpt>
      <trkpt lat="49.71007" lon="4.92849">
        <ele>149.6</ele>
        <time>2020-06-25T11:29:46Z</time>
      </trkpt>
      <trkpt lat="49.71005" lon="4.92856">
        <ele>149.6</ele>
        <time>2020-06-25T11:29:47Z</time>
      </trkpt>
      <trkpt lat="49.71002" lon="4.92866">
        <ele>149.6</ele>
        <time>2020-06-25T11:29:48Z</time>
      </trkpt>
      <trkpt lat="49.71" lon="4.92875">
        <ele>149.6</ele>
        <time>2020-06-25T11:29:49Z</time>
      </trkpt>
      <trkpt lat="49.70997" lon="4.92885">
        <ele>149.6</ele>
        <time>2020-06-25T11:29:50Z</time>
      </trkpt>
      <trkpt lat="49.70994" lon="4.92894">
        <ele>149.7</ele>
        <time>2020-06-25T11:29:51Z</time>
      </trkpt>
      <trkpt lat="49.70992" lon="4.92903">
        <ele>149.7</ele>
        <time>2020-06-25T11:29:52Z</time>
      </trkpt>
      <trkpt lat="49.7099" lon="4.92912">
        <ele>149.7</ele>
        <time>2020-06-25T11:29:53Z</time>
      </trkpt>
      <trkpt lat="49.70987" lon="4.92921">
        <ele>149.8</ele>
        <time>2020-06-25T11:29:54Z</time>
      </trkpt>
      <trkpt lat="49.70985" lon="4.9293">
        <ele>149.8</ele>
        <time>2020-06-25T11:29:55Z</time>
      </trkpt>
      <trkpt lat="49.70982" lon="4.92939">
        <ele>149.8</ele>
        <time>2020-06-25T11:29:56Z</time>
      </trkpt>
      <trkpt lat="49.70979" lon="4.92948">
        <ele>149.9</ele>
        <time>2020-06-25T11:29:57Z</time>
      </trkpt>
      <trkpt lat="49.70977" lon="4.92957">
        <ele>149.9</ele>
        <time>2020-06-25T11:29:58Z</time>
      </trkpt>
      <trkpt lat="49.70974" lon="4.92966">
        <ele>149.9</ele>
        <time>2020-06-25T11:29:59Z</time>
      </trkpt>
      <trkpt lat="49.70971" lon="4.92975">
        <ele>149.9</ele>
        <time>2020-06-25T11:30:00Z</time>
      </trkpt>
      <trkpt lat="49.70968" lon="4.92985">
        <ele>150</ele>
        <time>2020-06-25T11:30:01Z</time>
      </trkpt>
      <trkpt lat="49.70965" lon="4.92994">
        <ele>150</ele>
        <time>2020-06-25T11:30:02Z</time>
      </trkpt>
      <trkpt lat="49.70963" lon="4.93003">
        <ele>150</ele>
        <time>2020-06-25T11:30:03Z</time>
      </trkpt>
      <trkpt lat="49.7096" lon="4.93013">
        <ele>150.1</ele>
        <time>2020-06-25T11:30:04Z</time>
      </trkpt>
      <trkpt lat="49.70957" lon="4.93021">
        <ele>150.1</ele>
        <time>2020-06-25T11:30:05Z</time>
      </trkpt>
      <trkpt lat="49.70954" lon="4.93031">
        <ele>150.1</ele>
        <time>2020-06-25T11:30:06Z</time>
      </trkpt>
      <trkpt lat="49.70951" lon="4.93038">
        <ele>150.1</ele>
        <time>2020-06-25T11:30:07Z</time>
      </trkpt>
      <trkpt lat="49.70948" lon="4.93046">
        <ele>150.1</ele>
        <time>2020-06-25T11:30:08Z</time>
      </trkpt>
      <trkpt lat="49.70946" lon="4.93054">
        <ele>150.2</ele>
        <time>2020-06-25T11:30:09Z</time>
      </trkpt>
      <trkpt lat="49.70942" lon="4.93062">
        <ele>150.2</ele>
        <time>2020-06-25T11:30:10Z</time>
      </trkpt>
      <trkpt lat="49.70939" lon="4.93069">
        <ele>150.2</ele>
        <time>2020-06-25T11:30:11Z</time>
      </trkpt>
      <trkpt lat="49.70936" lon="4.93078">
        <ele>150.3</ele>
        <time>2020-06-25T11:30:12Z</time>
      </trkpt>
      <trkpt lat="49.70932" lon="4.93085">
        <ele>150.3</ele>
        <time>2020-06-25T11:30:13Z</time>
      </trkpt>
      <trkpt lat="49.70929" lon="4.93093">
        <ele>150.3</ele>
        <time>2020-06-25T11:30:14Z</time>
      </trkpt>
      <trkpt lat="49.70926" lon="4.93101">
        <ele>150.3</ele>
        <time>2020-06-25T11:30:15Z</time>
      </trkpt>
      <trkpt lat="49.70922" lon="4.93112">
        <ele>150.2</ele>
        <time>2020-06-25T11:30:16Z</time>
      </trkpt>
      <trkpt lat="49.70919" lon="4.93119">
        <ele>150.2</ele>
        <time>2020-06-25T11:30:17Z</time>
      </trkpt>
      <trkpt lat="49.70917" lon="4.93126">
        <ele>150.2</ele>
        <time>2020-06-25T11:30:18Z</time>
      </trkpt>
      <trkpt lat="49.70913" lon="4.93134">
        <ele>150.1</ele>
        <time>2020-06-25T11:30:19Z</time>
      </trkpt>
      <trkpt lat="49.7091" lon="4.93142">
        <ele>150.1</ele>
        <time>2020-06-25T11:30:20Z</time>
      </trkpt>
      <trkpt lat="49.70907" lon="4.93151">
        <ele>150.1</ele>
        <time>2020-06-25T11:30:21Z</time>
      </trkpt>
      <trkpt lat="49.70903" lon="4.93159">
        <ele>150</ele>
        <time>2020-06-25T11:30:22Z</time>
      </trkpt>
      <trkpt lat="49.709" lon="4.93167">
        <ele>150</ele>
        <time>2020-06-25T11:30:23Z</time>
      </trkpt>
      <trkpt lat="49.70897" lon="4.93176">
        <ele>149.9</ele>
        <time>2020-06-25T11:30:24Z</time>
      </trkpt>
      <trkpt lat="49.70893" lon="4.93185">
        <ele>149.9</ele>
        <time>2020-06-25T11:30:25Z</time>
      </trkpt>
      <trkpt lat="49.70889" lon="4.93193">
        <ele>149.9</ele>
        <time>2020-06-25T11:30:26Z</time>
      </trkpt>
      <trkpt lat="49.70886" lon="4.93201">
        <ele>149.9</ele>
        <time>2020-06-25T11:30:27Z</time>
      </trkpt>
      <trkpt lat="49.70883" lon="4.9321">
        <ele>149.9</ele>
        <time>2020-06-25T11:30:28Z</time>
      </trkpt>
      <trkpt lat="49.70879" lon="4.93218">
        <ele>149.9</ele>
        <time>2020-06-25T11:30:29Z</time>
      </trkpt>
      <trkpt lat="49.70876" lon="4.93224">
        <ele>150</ele>
        <time>2020-06-25T11:30:30Z</time>
      </trkpt>
      <trkpt lat="49.70872" lon="4.9323">
        <ele>150</ele>
        <time>2020-06-25T11:30:31Z</time>
      </trkpt>
      <trkpt lat="49.70867" lon="4.93236">
        <ele>150</ele>
        <time>2020-06-25T11:30:32Z</time>
      </trkpt>
      <trkpt lat="49.70862" lon="4.93242">
        <ele>150</ele>
        <time>2020-06-25T11:30:33Z</time>
      </trkpt>
      <trkpt lat="49.70856" lon="4.93247">
        <ele>149.9</ele>
        <time>2020-06-25T11:30:34Z</time>
      </trkpt>
      <trkpt lat="49.70851" lon="4.93252">
        <ele>149.9</ele>
        <time>2020-06-25T11:30:35Z</time>
      </trkpt>
      <trkpt lat="49.70846" lon="4.93256">
        <ele>149.9</ele>
        <time>2020-06-25T11:30:36Z</time>
      </trkpt>
      <trkpt lat="49.7084" lon="4.93261">
        <ele>149.9</ele>
        <time>2020-06-25T11:30:37Z</time>
      </trkpt>
      <trkpt lat="49.70834" lon="4.93264">
        <ele>149.8</ele>
        <time>2020-06-25T11:30:38Z</time>
      </trkpt>
      <trkpt lat="49.70828" lon="4.93267">
        <ele>149.8</ele>
        <time>2020-06-25T11:30:39Z</time>
      </trkpt>
      <trkpt lat="49.70822" lon="4.9327">
        <ele>149.8</ele>
        <time>2020-06-25T11:30:40Z</time>
      </trkpt>
      <trkpt lat="49.70816" lon="4.93272">
        <ele>149.9</ele>
        <time>2020-06-25T11:30:41Z</time>
      </trkpt>
      <trkpt lat="49.70811" lon="4.93275">
        <ele>149.9</ele>
        <time>2020-06-25T11:30:42Z</time>
      </trkpt>
      <trkpt lat="49.70806" lon="4.93277">
        <ele>149.9</ele>
        <time>2020-06-25T11:30:43Z</time>
      </trkpt>
      <trkpt lat="49.708" lon="4.9328">
        <ele>149.9</ele>
        <time>2020-06-25T11:30:44Z</time>
      </trkpt>
      <trkpt lat="49.70794" lon="4.93282">
        <ele>149.9</ele>
        <time>2020-06-25T11:30:45Z</time>
      </trkpt>
      <trkpt lat="49.70788" lon="4.93285">
        <ele>149.8</ele>
        <time>2020-06-25T11:30:46Z</time>
      </trkpt>
      <trkpt lat="49.70782" lon="4.93288">
        <ele>149.8</ele>
        <time>2020-06-25T11:30:47Z</time>
      </trkpt>
      <trkpt lat="49.70776" lon="4.9329">
        <ele>149.8</ele>
        <time>2020-06-25T11:30:48Z</time>
      </trkpt>
      <trkpt lat="49.7077" lon="4.93293">
        <ele>149.8</ele>
        <time>2020-06-25T11:30:49Z</time>
      </trkpt>
      <trkpt lat="49.70764" lon="4.93296">
        <ele>149.8</ele>
        <time>2020-06-25T11:30:50Z</time>
      </trkpt>
      <trkpt lat="49.70757" lon="4.93298">
        <ele>149.8</ele>
        <time>2020-06-25T11:30:51Z</time>
      </trkpt>
      <trkpt lat="49.70751" lon="4.933">
        <ele>149.8</ele>
        <time>2020-06-25T11:30:52Z</time>
      </trkpt>
      <trkpt lat="49.70745" lon="4.93302">
        <ele>149.9</ele>
        <time>2020-06-25T11:30:53Z</time>
      </trkpt>
      <trkpt lat="49.70739" lon="4.93305">
        <ele>149.9</ele>
        <time>2020-06-25T11:30:54Z</time>
      </trkpt>
      <trkpt lat="49.70733" lon="4.93307">
        <ele>149.9</ele>
        <time>2020-06-25T11:30:55Z</time>
      </trkpt>
      <trkpt lat="49.70728" lon="4.93309">
        <ele>149.9</ele>
        <time>2020-06-25T11:30:56Z</time>
      </trkpt>
      <trkpt lat="49.70722" lon="4.93311">
        <ele>149.9</ele>
        <time>2020-06-25T11:30:57Z</time>
      </trkpt>
      <trkpt lat="49.70716" lon="4.93313">
        <ele>150</ele>
        <time>2020-06-25T11:30:58Z</time>
      </trkpt>
      <trkpt lat="49.7071" lon="4.93315">
        <ele>150</ele>
        <time>2020-06-25T11:30:59Z</time>
      </trkpt>
      <trkpt lat="49.70704" lon="4.93318">
        <ele>150</ele>
        <time>2020-06-25T11:31:00Z</time>
      </trkpt>
      <trkpt lat="49.70698" lon="4.93321">
        <ele>150</ele>
        <time>2020-06-25T11:31:01Z</time>
      </trkpt>
      <trkpt lat="49.70692" lon="4.93323">
        <ele>150</ele>
        <time>2020-06-25T11:31:02Z</time>
      </trkpt>
      <trkpt lat="49.70686" lon="4.93326">
        <ele>150</ele>
        <time>2020-06-25T11:31:03Z</time>
      </trkpt>
      <trkpt lat="49.7068" lon="4.93328">
        <ele>150</ele>
        <time>2020-06-25T11:31:04Z</time>
      </trkpt>
      <trkpt lat="49.70674" lon="4.93331">
        <ele>150</ele>
        <time>2020-06-25T11:31:05Z</time>
      </trkpt>
      <trkpt lat="49.70668" lon="4.93333">
        <ele>150</ele>
        <time>2020-06-25T11:31:06Z</time>
      </trkpt>
      <trkpt lat="49.70661" lon="4.93337">
        <ele>150</ele>
        <time>2020-06-25T11:31:07Z</time>
      </trkpt>
      <trkpt lat="49.70654" lon="4.9334">
        <ele>150</ele>
        <time>2020-06-25T11:31:08Z</time>
      </trkpt>
      <trkpt lat="49.70647" lon="4.93342">
        <ele>150</ele>
        <time>2020-06-25T11:31:09Z</time>
      </trkpt>
      <trkpt lat="49.7064" lon="4.93345">
        <ele>150.1</ele>
        <time>2020-06-25T11:31:10Z</time>
      </trkpt>
      <trkpt lat="49.70634" lon="4.93347">
        <ele>150.1</ele>
        <time>2020-06-25T11:31:11Z</time>
      </trkpt>
      <trkpt lat="49.70627" lon="4.93351">
        <ele>150.1</ele>
        <time>2020-06-25T11:31:12Z</time>
      </trkpt>
      <trkpt lat="49.70621" lon="4.93354">
        <ele>150.1</ele>
        <time>2020-06-25T11:31:13Z</time>
      </trkpt>
      <trkpt lat="49.70615" lon="4.93356">
        <ele>150.2</ele>
        <time>2020-06-25T11:31:14Z</time>
      </trkpt>
      <trkpt lat="49.70609" lon="4.93359">
        <ele>150.2</ele>
        <time>2020-06-25T11:31:15Z</time>
      </trkpt>
      <trkpt lat="49.70603" lon="4.93361">
        <ele>150.2</ele>
        <time>2020-06-25T11:31:16Z</time>
      </trkpt>
      <trkpt lat="49.70598" lon="4.93363">
        <ele>150.2</ele>
        <time>2020-06-25T11:31:17Z</time>
      </trkpt>
      <trkpt lat="49.70592" lon="4.93365">
        <ele>150.2</ele>
        <time>2020-06-25T11:31:18Z</time>
      </trkpt>
      <trkpt lat="49.70585" lon="4.93368">
        <ele>150.2</ele>
        <time>2020-06-25T11:31:19Z</time>
      </trkpt>
      <trkpt lat="49.70579" lon="4.9337">
        <ele>150.2</ele>
        <time>2020-06-25T11:31:20Z</time>
      </trkpt>
      <trkpt lat="49.70574" lon="4.93372">
        <ele>150.2</ele>
        <time>2020-06-25T11:31:21Z</time>
      </trkpt>
      <trkpt lat="49.70569" lon="4.93375">
        <ele>150.2</ele>
        <time>2020-06-25T11:31:22Z</time>
      </trkpt>
      <trkpt lat="49.70563" lon="4.93378">
        <ele>150.2</ele>
        <time>2020-06-25T11:31:23Z</time>
      </trkpt>
      <trkpt lat="49.70557" lon="4.93382">
        <ele>150.3</ele>
        <time>2020-06-25T11:31:24Z</time>
      </trkpt>
      <trkpt lat="49.70552" lon="4.93385">
        <ele>150.3</ele>
        <time>2020-06-25T11:31:25Z</time>
      </trkpt>
      <trkpt lat="49.70547" lon="4.9339">
        <ele>150.3</ele>
        <time>2020-06-25T11:31:26Z</time>
      </trkpt>
      <trkpt lat="49.70543" lon="4.93394">
        <ele>150.3</ele>
        <time>2020-06-25T11:31:27Z</time>
      </trkpt>
      <trkpt lat="49.70538" lon="4.93398">
        <ele>150.3</ele>
        <time>2020-06-25T11:31:28Z</time>
      </trkpt>
      <trkpt lat="49.70534" lon="4.93403">
        <ele>150.3</ele>
        <time>2020-06-25T11:31:29Z</time>
      </trkpt>
      <trkpt lat="49.70529" lon="4.93408">
        <ele>150.3</ele>
        <time>2020-06-25T11:31:30Z</time>
      </trkpt>
      <trkpt lat="49.70524" lon="4.93412">
        <ele>150.2</ele>
        <time>2020-06-25T11:31:31Z</time>
      </trkpt>
      <trkpt lat="49.7052" lon="4.93417">
        <ele>150.1</ele>
        <time>2020-06-25T11:31:32Z</time>
      </trkpt>
      <trkpt lat="49.70516" lon="4.93423">
        <ele>150.1</ele>
        <time>2020-06-25T11:31:33Z</time>
      </trkpt>
      <trkpt lat="49.70511" lon="4.93431">
        <ele>150</ele>
        <time>2020-06-25T11:31:34Z</time>
      </trkpt>
      <trkpt lat="49.70509" lon="4.93435">
        <ele>150</ele>
        <time>2020-06-25T11:31:35Z</time>
      </trkpt>
      <trkpt lat="49.70507" lon="4.93439">
        <ele>150</ele>
        <time>2020-06-25T11:31:36Z</time>
      </trkpt>
      <trkpt lat="49.70504" lon="4.93444">
        <ele>150</ele>
        <time>2020-06-25T11:31:37Z</time>
      </trkpt>
      <trkpt lat="49.70502" lon="4.93449">
        <ele>150</ele>
        <time>2020-06-25T11:31:38Z</time>
      </trkpt>
      <trkpt lat="49.70498" lon="4.93452">
        <ele>150</ele>
        <time>2020-06-25T11:31:39Z</time>
      </trkpt>
      <trkpt lat="49.70496" lon="4.93453">
        <ele>150</ele>
        <time>2020-06-25T11:31:40Z</time>
      </trkpt>
      <trkpt lat="49.70495" lon="4.93453">
        <ele>150</ele>
        <time>2020-06-25T11:31:41Z</time>
      </trkpt>
      <trkpt lat="49.70496" lon="4.93453">
        <ele>150</ele>
        <time>2020-06-25T11:31:42Z</time>
      </trkpt>
      <trkpt lat="49.70496" lon="4.93453">
        <ele>150</ele>
        <time>2020-06-25T11:31:43Z</time>
      </trkpt>
      <trkpt lat="49.70496" lon="4.93453">
        <ele>150</ele>
        <time>2020-06-25T11:31:44Z</time>
      </trkpt>
      <trkpt lat="49.70496" lon="4.93453">
        <ele>150</ele>
        <time>2020-06-25T11:31:45Z</time>
      </trkpt>
      <trkpt lat="49.70496" lon="4.93453">
        <ele>150</ele>
        <time>2020-06-25T11:31:46Z</time>
      </trkpt>
      <trkpt lat="49.70497" lon="4.93453">
        <ele>150</ele>
        <time>2020-06-25T11:31:47Z</time>
      </trkpt>
      <trkpt lat="49.70498" lon="4.93453">
        <ele>150</ele>
        <time>2020-06-25T11:31:48Z</time>
      </trkpt>
      <trkpt lat="49.70498" lon="4.93453">
        <ele>150</ele>
        <time>2020-06-25T11:31:49Z</time>
      </trkpt>
      <trkpt lat="49.70498" lon="4.93453">
        <ele>150</ele>
        <time>2020-06-25T11:31:50Z</time>
      </trkpt>
      <trkpt lat="49.70499" lon="4.93453">
        <ele>150</ele>
        <time>2020-06-25T11:31:51Z</time>
      </trkpt>
      <trkpt lat="49.70499" lon="4.93453">
        <ele>150</ele>
        <time>2020-06-25T11:31:52Z</time>
      </trkpt>
      <trkpt lat="49.70499" lon="4.93453">
        <ele>150</ele>
        <time>2020-06-25T11:31:53Z</time>
      </trkpt>
      <trkpt lat="49.70498" lon="4.93453">
        <ele>150</ele>
        <time>2020-06-25T11:31:54Z</time>
      </trkpt>
      <trkpt lat="49.70498" lon="4.93453">
        <ele>150</ele>
        <time>2020-06-25T11:31:55Z</time>
      </trkpt>
      <trkpt lat="49.7049" lon="4.93451">
        <ele>150</ele>
        <time>2020-06-25T11:32:47Z</time>
      </trkpt>
      <trkpt lat="49.70488" lon="4.93451">
        <ele>150</ele>
        <time>2020-06-25T11:32:48Z</time>
      </trkpt>
      <trkpt lat="49.70487" lon="4.93451">
        <ele>150</ele>
        <time>2020-06-25T11:32:49Z</time>
      </trkpt>
      <trkpt lat="49.70486" lon="4.93451">
        <ele>150</ele>
        <time>2020-06-25T11:32:50Z</time>
      </trkpt>
      <trkpt lat="49.70486" lon="4.93451">
        <ele>150</ele>
        <time>2020-06-25T11:32:51Z</time>
      </trkpt>
      <trkpt lat="49.70487" lon="4.93452">
        <ele>150</ele>
        <time>2020-06-25T11:32:52Z</time>
      </trkpt>
      <trkpt lat="49.70486" lon="4.93451">
        <ele>150</ele>
        <time>2020-06-25T11:32:53Z</time>
      </trkpt>
      <trkpt lat="49.70485" lon="4.93451">
        <ele>150</ele>
        <time>2020-06-25T11:32:54Z</time>
      </trkpt>
      <trkpt lat="49.70484" lon="4.9345">
        <ele>150</ele>
        <time>2020-06-25T11:32:55Z</time>
      </trkpt>
      <trkpt lat="49.70484" lon="4.9345">
        <ele>150</ele>
        <time>2020-06-25T11:32:56Z</time>
      </trkpt>
      <trkpt lat="49.70484" lon="4.93449">
        <ele>150</ele>
        <time>2020-06-25T11:32:57Z</time>
      </trkpt>
      <trkpt lat="49.70486" lon="4.93449">
        <ele>150</ele>
        <time>2020-06-25T11:32:58Z</time>
      </trkpt>
      <trkpt lat="49.70487" lon="4.93449">
        <ele>150</ele>
        <time>2020-06-25T11:32:59Z</time>
      </trkpt>
      <trkpt lat="49.70488" lon="4.93449">
        <ele>150</ele>
        <time>2020-06-25T11:33:00Z</time>
      </trkpt>
      <trkpt lat="49.70489" lon="4.93448">
        <ele>150</ele>
        <time>2020-06-25T11:33:01Z</time>
      </trkpt>
      <trkpt lat="49.70489" lon="4.93449">
        <ele>150</ele>
        <time>2020-06-25T11:33:02Z</time>
      </trkpt>
      <trkpt lat="49.70489" lon="4.9345">
        <ele>150</ele>
        <time>2020-06-25T11:33:03Z</time>
      </trkpt>
      <trkpt lat="49.7049" lon="4.9345">
        <ele>150</ele>
        <time>2020-06-25T11:33:04Z</time>
      </trkpt>
      <trkpt lat="49.7049" lon="4.9345">
        <ele>150</ele>
        <time>2020-06-25T11:33:05Z</time>
      </trkpt>
      <trkpt lat="49.7049" lon="4.9345">
        <ele>150</ele>
        <time>2020-06-25T11:33:06Z</time>
      </trkpt>
      <trkpt lat="49.70489" lon="4.9345">
        <ele>150</ele>
        <time>2020-06-25T11:33:07Z</time>
      </trkpt>
      <trkpt lat="49.70489" lon="4.93449">
        <ele>150</ele>
        <time>2020-06-25T11:33:08Z</time>
      </trkpt>
      <trkpt lat="49.70489" lon="4.93449">
        <ele>150</ele>
        <time>2020-06-25T11:33:09Z</time>
      </trkpt>
      <trkpt lat="49.70489" lon="4.93449">
        <ele>150</ele>
        <time>2020-06-25T11:33:10Z</time>
      </trkpt>
      <trkpt lat="49.70489" lon="4.9345">
        <ele>150</ele>
        <time>2020-06-25T11:33:11Z</time>
      </trkpt>
      <trkpt lat="49.70489" lon="4.9345">
        <ele>150</ele>
        <time>2020-06-25T11:33:12Z</time>
      </trkpt>
      <trkpt lat="49.70489" lon="4.93451">
        <ele>150</ele>
        <time>2020-06-25T11:33:13Z</time>
      </trkpt>
      <trkpt lat="49.70488" lon="4.93451">
        <ele>150</ele>
        <time>2020-06-25T11:33:14Z</time>
      </trkpt>
      <trkpt lat="49.70489" lon="4.93452">
        <ele>150</ele>
        <time>2020-06-25T11:33:15Z</time>
      </trkpt>
      <trkpt lat="49.7049" lon="4.93452">
        <ele>150</ele>
        <time>2020-06-25T11:33:16Z</time>
      </trkpt>
      <trkpt lat="49.7049" lon="4.93452">
        <ele>150</ele>
        <time>2020-06-25T11:33:17Z</time>
      </trkpt>
      <trkpt lat="49.70489" lon="4.93451">
        <ele>150</ele>
        <time>2020-06-25T11:33:18Z</time>
      </trkpt>
      <trkpt lat="49.70489" lon="4.93451">
        <ele>150</ele>
        <time>2020-06-25T11:33:19Z</time>
      </trkpt>
      <trkpt lat="49.70489" lon="4.93451">
        <ele>150</ele>
        <time>2020-06-25T11:33:20Z</time>
      </trkpt>
      <trkpt lat="49.70488" lon="4.9345">
        <ele>150</ele>
        <time>2020-06-25T11:33:21Z</time>
      </trkpt>
      <trkpt lat="49.70487" lon="4.93448">
        <ele>150</ele>
        <time>2020-06-25T11:33:22Z</time>
      </trkpt>
      <trkpt lat="49.70485" lon="4.93446">
        <ele>150</ele>
        <time>2020-06-25T11:33:23Z</time>
      </trkpt>
      <trkpt lat="49.70485" lon="4.93445">
        <ele>150</ele>
        <time>2020-06-25T11:33:24Z</time>
      </trkpt>
      <trkpt lat="49.70484" lon="4.93445">
        <ele>150</ele>
        <time>2020-06-25T11:33:25Z</time>
      </trkpt>
      <trkpt lat="49.70484" lon="4.93445">
        <ele>150</ele>
        <time>2020-06-25T11:33:26Z</time>
      </trkpt>
      <trkpt lat="49.70483" lon="4.93444">
        <ele>150</ele>
        <time>2020-06-25T11:33:27Z</time>
      </trkpt>
      <trkpt lat="49.70483" lon="4.93445">
        <ele>150</ele>
        <time>2020-06-25T11:33:28Z</time>
      </trkpt>
      <trkpt lat="49.70483" lon="4.93444">
        <ele>150</ele>
        <time>2020-06-25T11:33:29Z</time>
      </trkpt>
      <trkpt lat="49.70482" lon="4.93443">
        <ele>150</ele>
        <time>2020-06-25T11:33:30Z</time>
      </trkpt>
      <trkpt lat="49.70482" lon="4.93443">
        <ele>150</ele>
        <time>2020-06-25T11:33:31Z</time>
      </trkpt>
      <trkpt lat="49.70483" lon="4.93442">
        <ele>150</ele>
        <time>2020-06-25T11:33:32Z</time>
      </trkpt>
      <trkpt lat="49.70482" lon="4.9344">
        <ele>150.1</ele>
        <time>2020-06-25T11:33:33Z</time>
      </trkpt>
      <trkpt lat="49.70483" lon="4.93439">
        <ele>150.1</ele>
        <time>2020-06-25T11:33:34Z</time>
      </trkpt>
      <trkpt lat="49.70484" lon="4.93438">
        <ele>150.1</ele>
        <time>2020-06-25T11:33:35Z</time>
      </trkpt>
      <trkpt lat="49.70484" lon="4.93436">
        <ele>150.1</ele>
        <time>2020-06-25T11:33:36Z</time>
      </trkpt>
      <trkpt lat="49.70483" lon="4.93436">
        <ele>150.1</ele>
        <time>2020-06-25T11:33:37Z</time>
      </trkpt>
      <trkpt lat="49.70483" lon="4.93435">
        <ele>150.1</ele>
        <time>2020-06-25T11:33:38Z</time>
      </trkpt>
      <trkpt lat="49.70484" lon="4.93435">
        <ele>150.1</ele>
        <time>2020-06-25T11:33:39Z</time>
      </trkpt>
      <trkpt lat="49.70484" lon="4.93435">
        <ele>150.1</ele>
        <time>2020-06-25T11:33:40Z</time>
      </trkpt>
      <trkpt lat="49.70484" lon="4.93435">
        <ele>150.1</ele>
        <time>2020-06-25T11:33:41Z</time>
      </trkpt>
      <trkpt lat="49.70485" lon="4.93435">
        <ele>150.1</ele>
        <time>2020-06-25T11:33:42Z</time>
      </trkpt>
      <trkpt lat="49.70486" lon="4.93436">
        <ele>150.1</ele>
        <time>2020-06-25T11:33:43Z</time>
      </trkpt>
      <trkpt lat="49.70487" lon="4.93437">
        <ele>150.1</ele>
        <time>2020-06-25T11:33:44Z</time>
      </trkpt>
      <trkpt lat="49.70487" lon="4.93437">
        <ele>150.1</ele>
        <time>2020-06-25T11:33:45Z</time>
      </trkpt>
      <trkpt lat="49.70488" lon="4.93438">
        <ele>150.1</ele>
        <time>2020-06-25T11:33:46Z</time>
      </trkpt>
      <trkpt lat="49.70489" lon="4.9344">
        <ele>150.1</ele>
        <time>2020-06-25T11:33:47Z</time>
      </trkpt>
      <trkpt lat="49.70489" lon="4.93441">
        <ele>150.1</ele>
        <time>2020-06-25T11:33:48Z</time>
      </trkpt>
      <trkpt lat="49.7049" lon="4.93441">
        <ele>150.1</ele>
        <time>2020-06-25T11:33:49Z</time>
      </trkpt>
      <trkpt lat="49.7049" lon="4.93441">
        <ele>150.1</ele>
        <time>2020-06-25T11:33:50Z</time>
      </trkpt>
      <trkpt lat="49.7049" lon="4.93441">
        <ele>150.1</ele>
        <time>2020-06-25T11:33:51Z</time>
      </trkpt>
      <trkpt lat="49.7049" lon="4.93441">
        <ele>150.1</ele>
        <time>2020-06-25T11:33:52Z</time>
      </trkpt>
      <trkpt lat="49.7049" lon="4.9344">
        <ele>150.1</ele>
        <time>2020-06-25T11:33:53Z</time>
      </trkpt>
      <trkpt lat="49.7049" lon="4.9344">
        <ele>150.1</ele>
        <time>2020-06-25T11:33:54Z</time>
      </trkpt>
      <trkpt lat="49.70489" lon="4.93438">
        <ele>150.1</ele>
        <time>2020-06-25T11:33:55Z</time>
      </trkpt>
      <trkpt lat="49.70489" lon="4.93437">
        <ele>150.1</ele>
        <time>2020-06-25T11:33:56Z</time>
      </trkpt>
      <trkpt lat="49.70489" lon="4.93436">
        <ele>150.1</ele>
        <time>2020-06-25T11:33:57Z</time>
      </trkpt>
      <trkpt lat="49.70489" lon="4.93435">
        <ele>150.1</ele>
        <time>2020-06-25T11:33:58Z</time>
      </trkpt>
      <trkpt lat="49.70489" lon="4.93435">
        <ele>150.1</ele>
        <time>2020-06-25T11:33:59Z</time>
      </trkpt>
      <trkpt lat="49.70489" lon="4.93435">
        <ele>150.1</ele>
        <time>2020-06-25T11:34:00Z</time>
      </trkpt>
      <trkpt lat="49.70489" lon="4.93434">
        <ele>150.1</ele>
        <time>2020-06-25T11:34:01Z</time>
      </trkpt>
      <trkpt lat="49.70489" lon="4.93433">
        <ele>150.1</ele>
        <time>2020-06-25T11:34:02Z</time>
      </trkpt>
      <trkpt lat="49.70488" lon="4.93434">
        <ele>150.1</ele>
        <time>2020-06-25T11:34:03Z</time>
      </trkpt>
      <trkpt lat="49.70488" lon="4.93434">
        <ele>150.1</ele>
        <time>2020-06-25T11:34:04Z</time>
      </trkpt>
      <trkpt lat="49.70488" lon="4.93435">
        <ele>150.1</ele>
        <time>2020-06-25T11:34:05Z</time>
      </trkpt>
      <trkpt lat="49.70487" lon="4.93435">
        <ele>150.1</ele>
        <time>2020-06-25T11:34:06Z</time>
      </trkpt>
      <trkpt lat="49.70486" lon="4.93434">
        <ele>150.1</ele>
        <time>2020-06-25T11:34:07Z</time>
      </trkpt>
      <trkpt lat="49.70486" lon="4.93434">
        <ele>150.1</ele>
        <time>2020-06-25T11:34:08Z</time>
      </trkpt>
      <trkpt lat="49.70486" lon="4.93433">
        <ele>150.1</ele>
        <time>2020-06-25T11:34:09Z</time>
      </trkpt>
      <trkpt lat="49.70485" lon="4.93434">
        <ele>150.1</ele>
        <time>2020-06-25T11:34:10Z</time>
      </trkpt>
      <trkpt lat="49.70486" lon="4.93458">
        <ele>150.1</ele>
        <time>2020-06-25T11:34:49Z</time>
      </trkpt>
      <trkpt lat="49.70485" lon="4.93458">
        <ele>150.1</ele>
        <time>2020-06-25T11:34:50Z</time>
      </trkpt>
      <trkpt lat="49.70484" lon="4.93458">
        <ele>150.1</ele>
        <time>2020-06-25T11:34:51Z</time>
      </trkpt>
      <trkpt lat="49.70483" lon="4.93457">
        <ele>150.1</ele>
        <time>2020-06-25T11:34:52Z</time>
      </trkpt>
      <trkpt lat="49.70483" lon="4.93458">
        <ele>150.1</ele>
        <time>2020-06-25T11:34:53Z</time>
      </trkpt>
      <trkpt lat="49.70482" lon="4.93459">
        <ele>150.1</ele>
        <time>2020-06-25T11:34:54Z</time>
      </trkpt>
      <trkpt lat="49.70481" lon="4.93461">
        <ele>150.1</ele>
        <time>2020-06-25T11:34:55Z</time>
      </trkpt>
      <trkpt lat="49.70479" lon="4.93464">
        <ele>150.1</ele>
        <time>2020-06-25T11:34:56Z</time>
      </trkpt>
      <trkpt lat="49.70478" lon="4.93466">
        <ele>150.2</ele>
        <time>2020-06-25T11:34:57Z</time>
      </trkpt>
      <trkpt lat="49.70476" lon="4.93469">
        <ele>150.2</ele>
        <time>2020-06-25T11:34:58Z</time>
      </trkpt>
      <trkpt lat="49.70475" lon="4.9347">
        <ele>150.3</ele>
        <time>2020-06-25T11:34:59Z</time>
      </trkpt>
      <trkpt lat="49.70472" lon="4.93474">
        <ele>150.4</ele>
        <time>2020-06-25T11:35:00Z</time>
      </trkpt>
      <trkpt lat="49.70471" lon="4.93476">
        <ele>150.4</ele>
        <time>2020-06-25T11:35:01Z</time>
      </trkpt>
      <trkpt lat="49.70468" lon="4.93479">
        <ele>150.5</ele>
        <time>2020-06-25T11:35:02Z</time>
      </trkpt>
      <trkpt lat="49.70465" lon="4.93481">
        <ele>150.7</ele>
        <time>2020-06-25T11:35:03Z</time>
      </trkpt>
      <trkpt lat="49.70462" lon="4.93483">
        <ele>150.8</ele>
        <time>2020-06-25T11:35:04Z</time>
      </trkpt>
      <trkpt lat="49.70459" lon="4.93485">
        <ele>150.9</ele>
        <time>2020-06-25T11:35:05Z</time>
      </trkpt>
      <trkpt lat="49.70455" lon="4.93486">
        <ele>151.1</ele>
        <time>2020-06-25T11:35:06Z</time>
      </trkpt>
      <trkpt lat="49.70452" lon="4.93487">
        <ele>151.2</ele>
        <time>2020-06-25T11:35:07Z</time>
      </trkpt>
      <trkpt lat="49.70449" lon="4.93488">
        <ele>151.3</ele>
        <time>2020-06-25T11:35:08Z</time>
      </trkpt>
      <trkpt lat="49.70446" lon="4.9349">
        <ele>151.4</ele>
        <time>2020-06-25T11:35:09Z</time>
      </trkpt>
      <trkpt lat="49.70445" lon="4.9349">
        <ele>151.4</ele>
        <time>2020-06-25T11:35:10Z</time>
      </trkpt>
      <trkpt lat="49.70442" lon="4.93491">
        <ele>151.5</ele>
        <time>2020-06-25T11:35:11Z</time>
      </trkpt>
      <trkpt lat="49.70439" lon="4.93491">
        <ele>151.6</ele>
        <time>2020-06-25T11:35:12Z</time>
      </trkpt>
      <trkpt lat="49.70436" lon="4.93493">
        <ele>151.7</ele>
        <time>2020-06-25T11:35:13Z</time>
      </trkpt>
      <trkpt lat="49.70432" lon="4.93494">
        <ele>151.7</ele>
        <time>2020-06-25T11:35:14Z</time>
      </trkpt>
      <trkpt lat="49.70428" lon="4.93495">
        <ele>151.8</ele>
        <time>2020-06-25T11:35:15Z</time>
      </trkpt>
      <trkpt lat="49.70424" lon="4.93495">
        <ele>151.8</ele>
        <time>2020-06-25T11:35:16Z</time>
      </trkpt>
      <trkpt lat="49.70421" lon="4.93495">
        <ele>151.9</ele>
        <time>2020-06-25T11:35:17Z</time>
      </trkpt>
      <trkpt lat="49.70417" lon="4.93495">
        <ele>151.9</ele>
        <time>2020-06-25T11:35:18Z</time>
      </trkpt>
      <trkpt lat="49.70414" lon="4.93496">
        <ele>151.9</ele>
        <time>2020-06-25T11:35:19Z</time>
      </trkpt>
      <trkpt lat="49.7041" lon="4.93497">
        <ele>151.9</ele>
        <time>2020-06-25T11:35:20Z</time>
      </trkpt>
      <trkpt lat="49.70407" lon="4.93498">
        <ele>152</ele>
        <time>2020-06-25T11:35:21Z</time>
      </trkpt>
      <trkpt lat="49.70403" lon="4.93499">
        <ele>152</ele>
        <time>2020-06-25T11:35:22Z</time>
      </trkpt>
      <trkpt lat="49.704" lon="4.935">
        <ele>152</ele>
        <time>2020-06-25T11:35:23Z</time>
      </trkpt>
      <trkpt lat="49.70395" lon="4.93501">
        <ele>152</ele>
        <time>2020-06-25T11:35:24Z</time>
      </trkpt>
      <trkpt lat="49.70391" lon="4.93502">
        <ele>152</ele>
        <time>2020-06-25T11:35:25Z</time>
      </trkpt>
      <trkpt lat="49.70386" lon="4.93502">
        <ele>152</ele>
        <time>2020-06-25T11:35:26Z</time>
      </trkpt>
      <trkpt lat="49.70381" lon="4.93504">
        <ele>152</ele>
        <time>2020-06-25T11:35:27Z</time>
      </trkpt>
      <trkpt lat="49.70376" lon="4.93504">
        <ele>152</ele>
        <time>2020-06-25T11:35:28Z</time>
      </trkpt>
      <trkpt lat="49.7037" lon="4.93506">
        <ele>152</ele>
        <time>2020-06-25T11:35:29Z</time>
      </trkpt>
      <trkpt lat="49.70365" lon="4.93508">
        <ele>152</ele>
        <time>2020-06-25T11:35:30Z</time>
      </trkpt>
      <trkpt lat="49.70359" lon="4.93509">
        <ele>152</ele>
        <time>2020-06-25T11:35:31Z</time>
      </trkpt>
      <trkpt lat="49.70354" lon="4.93511">
        <ele>151.9</ele>
        <time>2020-06-25T11:35:32Z</time>
      </trkpt>
      <trkpt lat="49.70349" lon="4.93511">
        <ele>151.9</ele>
        <time>2020-06-25T11:35:33Z</time>
      </trkpt>
      <trkpt lat="49.70345" lon="4.93512">
        <ele>151.9</ele>
        <time>2020-06-25T11:35:34Z</time>
      </trkpt>
      <trkpt lat="49.70341" lon="4.93512">
        <ele>151.9</ele>
        <time>2020-06-25T11:35:35Z</time>
      </trkpt>
      <trkpt lat="49.70336" lon="4.93513">
        <ele>151.9</ele>
        <time>2020-06-25T11:35:36Z</time>
      </trkpt>
      <trkpt lat="49.70332" lon="4.93513">
        <ele>152</ele>
        <time>2020-06-25T11:35:37Z</time>
      </trkpt>
      <trkpt lat="49.70328" lon="4.93512">
        <ele>152.1</ele>
        <time>2020-06-25T11:35:38Z</time>
      </trkpt>
      <trkpt lat="49.70325" lon="4.93508">
        <ele>152.2</ele>
        <time>2020-06-25T11:35:39Z</time>
      </trkpt>
      <trkpt lat="49.70325" lon="4.93507">
        <ele>152.2</ele>
        <time>2020-06-25T11:35:40Z</time>
      </trkpt>
      <trkpt lat="49.70324" lon="4.93501">
        <ele>152.3</ele>
        <time>2020-06-25T11:35:41Z</time>
      </trkpt>
      <trkpt lat="49.70323" lon="4.93496">
        <ele>152.3</ele>
        <time>2020-06-25T11:35:42Z</time>
      </trkpt>
      <trkpt lat="49.70322" lon="4.93491">
        <ele>152.4</ele>
        <time>2020-06-25T11:35:43Z</time>
      </trkpt>
      <trkpt lat="49.70321" lon="4.93487">
        <ele>152.4</ele>
        <time>2020-06-25T11:35:44Z</time>
      </trkpt>
      <trkpt lat="49.7032" lon="4.93482">
        <ele>152.4</ele>
        <time>2020-06-25T11:35:45Z</time>
      </trkpt>
      <trkpt lat="49.70319" lon="4.93477">
        <ele>152.5</ele>
        <time>2020-06-25T11:35:46Z</time>
      </trkpt>
      <trkpt lat="49.70317" lon="4.93473">
        <ele>152.5</ele>
        <time>2020-06-25T11:35:47Z</time>
      </trkpt>
      <trkpt lat="49.70315" lon="4.93468">
        <ele>152.6</ele>
        <time>2020-06-25T11:35:48Z</time>
      </trkpt>
      <trkpt lat="49.70312" lon="4.93462">
        <ele>152.6</ele>
        <time>2020-06-25T11:35:49Z</time>
      </trkpt>
      <trkpt lat="49.70309" lon="4.93456">
        <ele>152.7</ele>
        <time>2020-06-25T11:35:50Z</time>
      </trkpt>
      <trkpt lat="49.70307" lon="4.93452">
        <ele>152.8</ele>
        <time>2020-06-25T11:35:51Z</time>
      </trkpt>
      <trkpt lat="49.70304" lon="4.93447">
        <ele>152.8</ele>
        <time>2020-06-25T11:35:52Z</time>
      </trkpt>
      <trkpt lat="49.70302" lon="4.93442">
        <ele>152.9</ele>
        <time>2020-06-25T11:35:53Z</time>
      </trkpt>
      <trkpt lat="49.70299" lon="4.93437">
        <ele>153</ele>
        <time>2020-06-25T11:35:54Z</time>
      </trkpt>
      <trkpt lat="49.70297" lon="4.93433">
        <ele>153</ele>
        <time>2020-06-25T11:35:55Z</time>
      </trkpt>
      <trkpt lat="49.70294" lon="4.93429">
        <ele>153.1</ele>
        <time>2020-06-25T11:35:56Z</time>
      </trkpt>
      <trkpt lat="49.70292" lon="4.93423">
        <ele>153.2</ele>
        <time>2020-06-25T11:35:57Z</time>
      </trkpt>
      <trkpt lat="49.70291" lon="4.93421">
        <ele>153.2</ele>
        <time>2020-06-25T11:35:58Z</time>
      </trkpt>
      <trkpt lat="49.70289" lon="4.93417">
        <ele>153.2</ele>
        <time>2020-06-25T11:35:59Z</time>
      </trkpt>
      <trkpt lat="49.70287" lon="4.93413">
        <ele>153.3</ele>
        <time>2020-06-25T11:36:00Z</time>
      </trkpt>
      <trkpt lat="49.70285" lon="4.93409">
        <ele>153.4</ele>
        <time>2020-06-25T11:36:01Z</time>
      </trkpt>
      <trkpt lat="49.70283" lon="4.93403">
        <ele>153.4</ele>
        <time>2020-06-25T11:36:02Z</time>
      </trkpt>
      <trkpt lat="49.70281" lon="4.93397">
        <ele>153.5</ele>
        <time>2020-06-25T11:36:03Z</time>
      </trkpt>
      <trkpt lat="49.70278" lon="4.93392">
        <ele>153.5</ele>
        <time>2020-06-25T11:36:04Z</time>
      </trkpt>
      <trkpt lat="49.70275" lon="4.93386">
        <ele>153.6</ele>
        <time>2020-06-25T11:36:05Z</time>
      </trkpt>
      <trkpt lat="49.70273" lon="4.93381">
        <ele>153.7</ele>
        <time>2020-06-25T11:36:06Z</time>
      </trkpt>
      <trkpt lat="49.7027" lon="4.93375">
        <ele>153.8</ele>
        <time>2020-06-25T11:36:07Z</time>
      </trkpt>
      <trkpt lat="49.70268" lon="4.93369">
        <ele>153.8</ele>
        <time>2020-06-25T11:36:08Z</time>
      </trkpt>
      <trkpt lat="49.70266" lon="4.93364">
        <ele>153.9</ele>
        <time>2020-06-25T11:36:09Z</time>
      </trkpt>
      <trkpt lat="49.70264" lon="4.93359">
        <ele>154</ele>
        <time>2020-06-25T11:36:10Z</time>
      </trkpt>
      <trkpt lat="49.70261" lon="4.93353">
        <ele>154</ele>
        <time>2020-06-25T11:36:11Z</time>
      </trkpt>
      <trkpt lat="49.70259" lon="4.93348">
        <ele>154.1</ele>
        <time>2020-06-25T11:36:12Z</time>
      </trkpt>
      <trkpt lat="49.70256" lon="4.93342">
        <ele>154.1</ele>
        <time>2020-06-25T11:36:13Z</time>
      </trkpt>
      <trkpt lat="49.70254" lon="4.93336">
        <ele>154.2</ele>
        <time>2020-06-25T11:36:14Z</time>
      </trkpt>
      <trkpt lat="49.70252" lon="4.93329">
        <ele>154.2</ele>
        <time>2020-06-25T11:36:15Z</time>
      </trkpt>
      <trkpt lat="49.70249" lon="4.93322">
        <ele>154.2</ele>
        <time>2020-06-25T11:36:16Z</time>
      </trkpt>
      <trkpt lat="49.70246" lon="4.93317">
        <ele>154.2</ele>
        <time>2020-06-25T11:36:17Z</time>
      </trkpt>
      <trkpt lat="49.70244" lon="4.93313">
        <ele>154.2</ele>
        <time>2020-06-25T11:36:18Z</time>
      </trkpt>
      <trkpt lat="49.70241" lon="4.93307">
        <ele>154.2</ele>
        <time>2020-06-25T11:36:19Z</time>
      </trkpt>
      <trkpt lat="49.70239" lon="4.93302">
        <ele>154.2</ele>
        <time>2020-06-25T11:36:20Z</time>
      </trkpt>
      <trkpt lat="49.70237" lon="4.93297">
        <ele>154.2</ele>
        <time>2020-06-25T11:36:21Z</time>
      </trkpt>
      <trkpt lat="49.70234" lon="4.93293">
        <ele>154.2</ele>
        <time>2020-06-25T11:36:22Z</time>
      </trkpt>
      <trkpt lat="49.70233" lon="4.93288">
        <ele>154.2</ele>
        <time>2020-06-25T11:36:23Z</time>
      </trkpt>
      <trkpt lat="49.70233" lon="4.93287">
        <ele>154.2</ele>
        <time>2020-06-25T11:36:24Z</time>
      </trkpt>
      <trkpt lat="49.70231" lon="4.93286">
        <ele>154.2</ele>
        <time>2020-06-25T11:36:25Z</time>
      </trkpt>
      <trkpt lat="49.70231" lon="4.93286">
        <ele>154.2</ele>
        <time>2020-06-25T11:36:26Z</time>
      </trkpt>
      <trkpt lat="49.7023" lon="4.93286">
        <ele>154.2</ele>
        <time>2020-06-25T11:36:27Z</time>
      </trkpt>
      <trkpt lat="49.7023" lon="4.93286">
        <ele>154.2</ele>
        <time>2020-06-25T11:36:28Z</time>
      </trkpt>
      <trkpt lat="49.70229" lon="4.93286">
        <ele>154.2</ele>
        <time>2020-06-25T11:36:29Z</time>
      </trkpt>
      <trkpt lat="49.70229" lon="4.93286">
        <ele>154.2</ele>
        <time>2020-06-25T11:36:30Z</time>
      </trkpt>
      <trkpt lat="49.70227" lon="4.93287">
        <ele>154.2</ele>
        <time>2020-06-25T11:36:31Z</time>
      </trkpt>
      <trkpt lat="49.70225" lon="4.93287">
        <ele>154.2</ele>
        <time>2020-06-25T11:36:32Z</time>
      </trkpt>
      <trkpt lat="49.70224" lon="4.93288">
        <ele>154.2</ele>
        <time>2020-06-25T11:36:33Z</time>
      </trkpt>
      <trkpt lat="49.7022" lon="4.9329">
        <ele>154.2</ele>
        <time>2020-06-25T11:36:34Z</time>
      </trkpt>
      <trkpt lat="49.70217" lon="4.93294">
        <ele>154.3</ele>
        <time>2020-06-25T11:36:35Z</time>
      </trkpt>
      <trkpt lat="49.70215" lon="4.93295">
        <ele>154.3</ele>
        <time>2020-06-25T11:36:36Z</time>
      </trkpt>
      <trkpt lat="49.70211" lon="4.93296">
        <ele>154.3</ele>
        <time>2020-06-25T11:36:37Z</time>
      </trkpt>
      <trkpt lat="49.70208" lon="4.93298">
        <ele>154.3</ele>
        <time>2020-06-25T11:36:38Z</time>
      </trkpt>
      <trkpt lat="49.70204" lon="4.93301">
        <ele>154.4</ele>
        <time>2020-06-25T11:36:39Z</time>
      </trkpt>
      <trkpt lat="49.70201" lon="4.93303">
        <ele>154.4</ele>
        <time>2020-06-25T11:36:40Z</time>
      </trkpt>
      <trkpt lat="49.70197" lon="4.93306">
        <ele>154.5</ele>
        <time>2020-06-25T11:36:41Z</time>
      </trkpt>
      <trkpt lat="49.70194" lon="4.9331">
        <ele>154.5</ele>
        <time>2020-06-25T11:36:42Z</time>
      </trkpt>
      <trkpt lat="49.7019" lon="4.93313">
        <ele>154.6</ele>
        <time>2020-06-25T11:36:43Z</time>
      </trkpt>
      <trkpt lat="49.70187" lon="4.93315">
        <ele>154.6</ele>
        <time>2020-06-25T11:36:44Z</time>
      </trkpt>
      <trkpt lat="49.70184" lon="4.93318">
        <ele>154.6</ele>
        <time>2020-06-25T11:36:45Z</time>
      </trkpt>
      <trkpt lat="49.70181" lon="4.93319">
        <ele>154.7</ele>
        <time>2020-06-25T11:36:46Z</time>
      </trkpt>
      <trkpt lat="49.70178" lon="4.93322">
        <ele>154.7</ele>
        <time>2020-06-25T11:36:47Z</time>
      </trkpt>
      <trkpt lat="49.70175" lon="4.93324">
        <ele>154.7</ele>
        <time>2020-06-25T11:36:48Z</time>
      </trkpt>
      <trkpt lat="49.70172" lon="4.93328">
        <ele>154.7</ele>
        <time>2020-06-25T11:36:49Z</time>
      </trkpt>
      <trkpt lat="49.70171" lon="4.93329">
        <ele>154.7</ele>
        <time>2020-06-25T11:36:50Z</time>
      </trkpt>
      <trkpt lat="49.70169" lon="4.93334">
        <ele>154.7</ele>
        <time>2020-06-25T11:36:51Z</time>
      </trkpt>
      <trkpt lat="49.70166" lon="4.93339">
        <ele>154.7</ele>
        <time>2020-06-25T11:36:52Z</time>
      </trkpt>
      <trkpt lat="49.70162" lon="4.93342">
        <ele>154.7</ele>
        <time>2020-06-25T11:36:53Z</time>
      </trkpt>
      <trkpt lat="49.70158" lon="4.93346">
        <ele>154.7</ele>
        <time>2020-06-25T11:36:54Z</time>
      </trkpt>
      <trkpt lat="49.70154" lon="4.93351">
        <ele>154.7</ele>
        <time>2020-06-25T11:36:55Z</time>
      </trkpt>
      <trkpt lat="49.70149" lon="4.93353">
        <ele>154.7</ele>
        <time>2020-06-25T11:36:56Z</time>
      </trkpt>
      <trkpt lat="49.70145" lon="4.93357">
        <ele>154.6</ele>
        <time>2020-06-25T11:36:57Z</time>
      </trkpt>
      <trkpt lat="49.70143" lon="4.93362">
        <ele>154.6</ele>
        <time>2020-06-25T11:36:58Z</time>
      </trkpt>
      <trkpt lat="49.70142" lon="4.93367">
        <ele>154.6</ele>
        <time>2020-06-25T11:36:59Z</time>
      </trkpt>
      <trkpt lat="49.7014" lon="4.93373">
        <ele>154.6</ele>
        <time>2020-06-25T11:37:00Z</time>
      </trkpt>
      <trkpt lat="49.70136" lon="4.93377">
        <ele>154.6</ele>
        <time>2020-06-25T11:37:01Z</time>
      </trkpt>
      <trkpt lat="49.70132" lon="4.93379">
        <ele>154.6</ele>
        <time>2020-06-25T11:37:02Z</time>
      </trkpt>
      <trkpt lat="49.70129" lon="4.93384">
        <ele>154.6</ele>
        <time>2020-06-25T11:37:03Z</time>
      </trkpt>
      <trkpt lat="49.70126" lon="4.93387">
        <ele>154.7</ele>
        <time>2020-06-25T11:37:04Z</time>
      </trkpt>
      <trkpt lat="49.70121" lon="4.93388">
        <ele>154.7</ele>
        <time>2020-06-25T11:37:05Z</time>
      </trkpt>
      <trkpt lat="49.70117" lon="4.9339">
        <ele>154.7</ele>
        <time>2020-06-25T11:37:06Z</time>
      </trkpt>
      <trkpt lat="49.70113" lon="4.93392">
        <ele>154.7</ele>
        <time>2020-06-25T11:37:07Z</time>
      </trkpt>
      <trkpt lat="49.70109" lon="4.93392">
        <ele>154.8</ele>
        <time>2020-06-25T11:37:08Z</time>
      </trkpt>
      <trkpt lat="49.70108" lon="4.93392">
        <ele>154.8</ele>
        <time>2020-06-25T11:37:09Z</time>
      </trkpt>
      <trkpt lat="49.70106" lon="4.93392">
        <ele>154.8</ele>
        <time>2020-06-25T11:37:10Z</time>
      </trkpt>
      <trkpt lat="49.70105" lon="4.93391">
        <ele>154.8</ele>
        <time>2020-06-25T11:37:11Z</time>
      </trkpt>
      <trkpt lat="49.70105" lon="4.9339">
        <ele>154.8</ele>
        <time>2020-06-25T11:37:12Z</time>
      </trkpt>
      <trkpt lat="49.70103" lon="4.9339">
        <ele>154.8</ele>
        <time>2020-06-25T11:37:13Z</time>
      </trkpt>
      <trkpt lat="49.70102" lon="4.9339">
        <ele>154.8</ele>
        <time>2020-06-25T11:37:14Z</time>
      </trkpt>
      <trkpt lat="49.701" lon="4.93389">
        <ele>154.9</ele>
        <time>2020-06-25T11:37:15Z</time>
      </trkpt>
      <trkpt lat="49.70099" lon="4.93391">
        <ele>154.9</ele>
        <time>2020-06-25T11:37:16Z</time>
      </trkpt>
      <trkpt lat="49.70098" lon="4.93389">
        <ele>154.9</ele>
        <time>2020-06-25T11:37:17Z</time>
      </trkpt>
      <trkpt lat="49.70097" lon="4.93387">
        <ele>154.9</ele>
        <time>2020-06-25T11:37:18Z</time>
      </trkpt>
      <trkpt lat="49.70096" lon="4.93385">
        <ele>154.9</ele>
        <time>2020-06-25T11:37:19Z</time>
      </trkpt>
      <trkpt lat="49.70096" lon="4.9338">
        <ele>155</ele>
        <time>2020-06-25T11:37:20Z</time>
      </trkpt>
      <trkpt lat="49.70095" lon="4.93375">
        <ele>155</ele>
        <time>2020-06-25T11:37:21Z</time>
      </trkpt>
      <trkpt lat="49.70094" lon="4.9337">
        <ele>155.1</ele>
        <time>2020-06-25T11:37:22Z</time>
      </trkpt>
      <trkpt lat="49.70093" lon="4.93365">
        <ele>155.1</ele>
        <time>2020-06-25T11:37:23Z</time>
      </trkpt>
      <trkpt lat="49.70093" lon="4.9336">
        <ele>155.2</ele>
        <time>2020-06-25T11:37:24Z</time>
      </trkpt>
      <trkpt lat="49.70092" lon="4.93353">
        <ele>155.2</ele>
        <time>2020-06-25T11:37:25Z</time>
      </trkpt>
      <trkpt lat="49.7009" lon="4.93345">
        <ele>155.3</ele>
        <time>2020-06-25T11:37:26Z</time>
      </trkpt>
      <trkpt lat="49.70089" lon="4.93337">
        <ele>155.4</ele>
        <time>2020-06-25T11:37:27Z</time>
      </trkpt>
      <trkpt lat="49.70087" lon="4.93329">
        <ele>155.4</ele>
        <time>2020-06-25T11:37:28Z</time>
      </trkpt>
      <trkpt lat="49.70085" lon="4.93321">
        <ele>155.5</ele>
        <time>2020-06-25T11:37:29Z</time>
      </trkpt>
      <trkpt lat="49.70084" lon="4.93313">
        <ele>155.6</ele>
        <time>2020-06-25T11:37:30Z</time>
      </trkpt>
      <trkpt lat="49.70081" lon="4.93305">
        <ele>155.6</ele>
        <time>2020-06-25T11:37:31Z</time>
      </trkpt>
      <trkpt lat="49.70079" lon="4.93297">
        <ele>155.7</ele>
        <time>2020-06-25T11:37:32Z</time>
      </trkpt>
      <trkpt lat="49.70077" lon="4.93289">
        <ele>155.8</ele>
        <time>2020-06-25T11:37:33Z</time>
      </trkpt>
      <trkpt lat="49.70075" lon="4.93281">
        <ele>155.8</ele>
        <time>2020-06-25T11:37:34Z</time>
      </trkpt>
      <trkpt lat="49.70073" lon="4.93273">
        <ele>155.9</ele>
        <time>2020-06-25T11:37:35Z</time>
      </trkpt>
      <trkpt lat="49.70072" lon="4.93264">
        <ele>156</ele>
        <time>2020-06-25T11:37:36Z</time>
      </trkpt>
      <trkpt lat="49.7007" lon="4.93256">
        <ele>156.1</ele>
        <time>2020-06-25T11:37:37Z</time>
      </trkpt>
      <trkpt lat="49.70069" lon="4.93249">
        <ele>156.2</ele>
        <time>2020-06-25T11:37:38Z</time>
      </trkpt>
      <trkpt lat="49.70067" lon="4.93242">
        <ele>156.3</ele>
        <time>2020-06-25T11:37:39Z</time>
      </trkpt>
      <trkpt lat="49.70065" lon="4.93235">
        <ele>156.3</ele>
        <time>2020-06-25T11:37:40Z</time>
      </trkpt>
      <trkpt lat="49.70063" lon="4.93228">
        <ele>156.4</ele>
        <time>2020-06-25T11:37:41Z</time>
      </trkpt>
      <trkpt lat="49.70061" lon="4.93221">
        <ele>156.4</ele>
        <time>2020-06-25T11:37:42Z</time>
      </trkpt>
      <trkpt lat="49.70059" lon="4.93213">
        <ele>156.5</ele>
        <time>2020-06-25T11:37:43Z</time>
      </trkpt>
      <trkpt lat="49.70058" lon="4.93206">
        <ele>156.5</ele>
        <time>2020-06-25T11:37:44Z</time>
      </trkpt>
      <trkpt lat="49.70056" lon="4.93199">
        <ele>156.6</ele>
        <time>2020-06-25T11:37:45Z</time>
      </trkpt>
      <trkpt lat="49.70054" lon="4.93192">
        <ele>156.6</ele>
        <time>2020-06-25T11:37:46Z</time>
      </trkpt>
      <trkpt lat="49.70052" lon="4.93185">
        <ele>156.7</ele>
        <time>2020-06-25T11:37:47Z</time>
      </trkpt>
      <trkpt lat="49.7005" lon="4.93179">
        <ele>156.8</ele>
        <time>2020-06-25T11:37:48Z</time>
      </trkpt>
      <trkpt lat="49.70048" lon="4.93172">
        <ele>156.9</ele>
        <time>2020-06-25T11:37:49Z</time>
      </trkpt>
      <trkpt lat="49.70046" lon="4.93165">
        <ele>157</ele>
        <time>2020-06-25T11:37:50Z</time>
      </trkpt>
      <trkpt lat="49.70044" lon="4.93159">
        <ele>157.1</ele>
        <time>2020-06-25T11:37:51Z</time>
      </trkpt>
      <trkpt lat="49.70042" lon="4.93152">
        <ele>157.1</ele>
        <time>2020-06-25T11:37:52Z</time>
      </trkpt>
      <trkpt lat="49.70043" lon="4.93143">
        <ele>157.2</ele>
        <time>2020-06-25T11:37:53Z</time>
      </trkpt>
      <trkpt lat="49.70041" lon="4.93135">
        <ele>157.3</ele>
        <time>2020-06-25T11:37:54Z</time>
      </trkpt>
      <trkpt lat="49.70039" lon="4.93126">
        <ele>157.4</ele>
        <time>2020-06-25T11:37:55Z</time>
      </trkpt>
      <trkpt lat="49.70037" lon="4.93118">
        <ele>157.5</ele>
        <time>2020-06-25T11:37:56Z</time>
      </trkpt>
      <trkpt lat="49.70034" lon="4.93111">
        <ele>157.6</ele>
        <time>2020-06-25T11:37:57Z</time>
      </trkpt>
      <trkpt lat="49.70032" lon="4.93103">
        <ele>157.7</ele>
        <time>2020-06-25T11:37:58Z</time>
      </trkpt>
      <trkpt lat="49.7003" lon="4.93094">
        <ele>157.8</ele>
        <time>2020-06-25T11:37:59Z</time>
      </trkpt>
      <trkpt lat="49.70028" lon="4.93085">
        <ele>157.8</ele>
        <time>2020-06-25T11:38:00Z</time>
      </trkpt>
      <trkpt lat="49.70025" lon="4.93078">
        <ele>157.9</ele>
        <time>2020-06-25T11:38:01Z</time>
      </trkpt>
      <trkpt lat="49.70023" lon="4.9307">
        <ele>157.9</ele>
        <time>2020-06-25T11:38:02Z</time>
      </trkpt>
      <trkpt lat="49.70021" lon="4.93062">
        <ele>158</ele>
        <time>2020-06-25T11:38:03Z</time>
      </trkpt>
      <trkpt lat="49.70019" lon="4.93055">
        <ele>158</ele>
        <time>2020-06-25T11:38:04Z</time>
      </trkpt>
      <trkpt lat="49.70017" lon="4.93048">
        <ele>158.1</ele>
        <time>2020-06-25T11:38:05Z</time>
      </trkpt>
      <trkpt lat="49.70014" lon="4.93039">
        <ele>158.1</ele>
        <time>2020-06-25T11:38:06Z</time>
      </trkpt>
      <trkpt lat="49.70011" lon="4.9303">
        <ele>158.1</ele>
        <time>2020-06-25T11:38:07Z</time>
      </trkpt>
      <trkpt lat="49.70009" lon="4.93023">
        <ele>158.2</ele>
        <time>2020-06-25T11:38:08Z</time>
      </trkpt>
      <trkpt lat="49.70006" lon="4.93016">
        <ele>158.2</ele>
        <time>2020-06-25T11:38:09Z</time>
      </trkpt>
      <trkpt lat="49.70004" lon="4.93009">
        <ele>158.3</ele>
        <time>2020-06-25T11:38:10Z</time>
      </trkpt>
      <trkpt lat="49.70002" lon="4.93002">
        <ele>158.3</ele>
        <time>2020-06-25T11:38:11Z</time>
      </trkpt>
      <trkpt lat="49.7" lon="4.92994">
        <ele>158.3</ele>
        <time>2020-06-25T11:38:12Z</time>
      </trkpt>
      <trkpt lat="49.69998" lon="4.92986">
        <ele>158.4</ele>
        <time>2020-06-25T11:38:13Z</time>
      </trkpt>
      <trkpt lat="49.69997" lon="4.92978">
        <ele>158.4</ele>
        <time>2020-06-25T11:38:14Z</time>
      </trkpt>
      <trkpt lat="49.69995" lon="4.92971">
        <ele>158.4</ele>
        <time>2020-06-25T11:38:15Z</time>
      </trkpt>
      <trkpt lat="49.69994" lon="4.92964">
        <ele>158.4</ele>
        <time>2020-06-25T11:38:16Z</time>
      </trkpt>
      <trkpt lat="49.69993" lon="4.92956">
        <ele>158.4</ele>
        <time>2020-06-25T11:38:17Z</time>
      </trkpt>
      <trkpt lat="49.69991" lon="4.92948">
        <ele>158.5</ele>
        <time>2020-06-25T11:38:18Z</time>
      </trkpt>
      <trkpt lat="49.69989" lon="4.9294">
        <ele>158.5</ele>
        <time>2020-06-25T11:38:19Z</time>
      </trkpt>
      <trkpt lat="49.69989" lon="4.92932">
        <ele>158.5</ele>
        <time>2020-06-25T11:38:20Z</time>
      </trkpt>
      <trkpt lat="49.69988" lon="4.92925">
        <ele>158.5</ele>
        <time>2020-06-25T11:38:21Z</time>
      </trkpt>
      <trkpt lat="49.69987" lon="4.92917">
        <ele>158.5</ele>
        <time>2020-06-25T11:38:22Z</time>
      </trkpt>
      <trkpt lat="49.69986" lon="4.92909">
        <ele>158.5</ele>
        <time>2020-06-25T11:38:23Z</time>
      </trkpt>
      <trkpt lat="49.69984" lon="4.92901">
        <ele>158.5</ele>
        <time>2020-06-25T11:38:24Z</time>
      </trkpt>
      <trkpt lat="49.69981" lon="4.92893">
        <ele>158.5</ele>
        <time>2020-06-25T11:38:25Z</time>
      </trkpt>
      <trkpt lat="49.69979" lon="4.92886">
        <ele>158.5</ele>
        <time>2020-06-25T11:38:26Z</time>
      </trkpt>
      <trkpt lat="49.69978" lon="4.92877">
        <ele>158.4</ele>
        <time>2020-06-25T11:38:27Z</time>
      </trkpt>
      <trkpt lat="49.69976" lon="4.92869">
        <ele>158.5</ele>
        <time>2020-06-25T11:38:28Z</time>
      </trkpt>
      <trkpt lat="49.69973" lon="4.92862">
        <ele>158.5</ele>
        <time>2020-06-25T11:38:29Z</time>
      </trkpt>
      <trkpt lat="49.69973" lon="4.92856">
        <ele>158.6</ele>
        <time>2020-06-25T11:38:30Z</time>
      </trkpt>
      <trkpt lat="49.69971" lon="4.9285">
        <ele>158.6</ele>
        <time>2020-06-25T11:38:31Z</time>
      </trkpt>
      <trkpt lat="49.69969" lon="4.92845">
        <ele>158.7</ele>
        <time>2020-06-25T11:38:32Z</time>
      </trkpt>
      <trkpt lat="49.69965" lon="4.9284">
        <ele>158.7</ele>
        <time>2020-06-25T11:38:33Z</time>
      </trkpt>
      <trkpt lat="49.69964" lon="4.92836">
        <ele>158.8</ele>
        <time>2020-06-25T11:38:34Z</time>
      </trkpt>
      <trkpt lat="49.69961" lon="4.92832">
        <ele>158.8</ele>
        <time>2020-06-25T11:38:35Z</time>
      </trkpt>
      <trkpt lat="49.69962" lon="4.92826">
        <ele>158.8</ele>
        <time>2020-06-25T11:38:36Z</time>
      </trkpt>
      <trkpt lat="49.6996" lon="4.92819">
        <ele>158.9</ele>
        <time>2020-06-25T11:38:37Z</time>
      </trkpt>
      <trkpt lat="49.69959" lon="4.92816">
        <ele>158.9</ele>
        <time>2020-06-25T11:38:38Z</time>
      </trkpt>
      <trkpt lat="49.69959" lon="4.9281">
        <ele>158.8</ele>
        <time>2020-06-25T11:38:39Z</time>
      </trkpt>
      <trkpt lat="49.69959" lon="4.92805">
        <ele>158.7</ele>
        <time>2020-06-25T11:38:40Z</time>
      </trkpt>
      <trkpt lat="49.69957" lon="4.92801">
        <ele>158.7</ele>
        <time>2020-06-25T11:38:41Z</time>
      </trkpt>
      <trkpt lat="49.69954" lon="4.92797">
        <ele>158.6</ele>
        <time>2020-06-25T11:38:42Z</time>
      </trkpt>
      <trkpt lat="49.6995" lon="4.92795">
        <ele>158.5</ele>
        <time>2020-06-25T11:38:43Z</time>
      </trkpt>
      <trkpt lat="49.69943" lon="4.92798">
        <ele>158.1</ele>
        <time>2020-06-25T11:38:44Z</time>
      </trkpt>
      <trkpt lat="49.69937" lon="4.92799">
        <ele>157.5</ele>
        <time>2020-06-25T11:38:45Z</time>
      </trkpt>
      <trkpt lat="49.69933" lon="4.92799">
        <ele>157</ele>
        <time>2020-06-25T11:38:46Z</time>
      </trkpt>
      <trkpt lat="49.69927" lon="4.92802">
        <ele>156.9</ele>
        <time>2020-06-25T11:38:47Z</time>
      </trkpt>
      <trkpt lat="49.69922" lon="4.92806">
        <ele>156.9</ele>
        <time>2020-06-25T11:38:48Z</time>
      </trkpt>
      <trkpt lat="49.69918" lon="4.92811">
        <ele>156.8</ele>
        <time>2020-06-25T11:38:49Z</time>
      </trkpt>
      <trkpt lat="49.69915" lon="4.92816">
        <ele>156.7</ele>
        <time>2020-06-25T11:38:50Z</time>
      </trkpt>
      <trkpt lat="49.69911" lon="4.92819">
        <ele>156.6</ele>
        <time>2020-06-25T11:38:51Z</time>
      </trkpt>
      <trkpt lat="49.69907" lon="4.92823">
        <ele>156.6</ele>
        <time>2020-06-25T11:38:52Z</time>
      </trkpt>
      <trkpt lat="49.69903" lon="4.92822">
        <ele>156.5</ele>
        <time>2020-06-25T11:38:53Z</time>
      </trkpt>
      <trkpt lat="49.699" lon="4.92819">
        <ele>156.7</ele>
        <time>2020-06-25T11:38:54Z</time>
      </trkpt>
      <trkpt lat="49.69897" lon="4.92816">
        <ele>157</ele>
        <time>2020-06-25T11:38:55Z</time>
      </trkpt>
      <trkpt lat="49.69895" lon="4.9281">
        <ele>157.3</ele>
        <time>2020-06-25T11:38:56Z</time>
      </trkpt>
      <trkpt lat="49.69894" lon="4.92804">
        <ele>157.6</ele>
        <time>2020-06-25T11:38:57Z</time>
      </trkpt>
      <trkpt lat="49.69892" lon="4.92799">
        <ele>157.9</ele>
        <time>2020-06-25T11:38:58Z</time>
      </trkpt>
      <trkpt lat="49.6989" lon="4.92794">
        <ele>158.2</ele>
        <time>2020-06-25T11:38:59Z</time>
      </trkpt>
      <trkpt lat="49.69887" lon="4.9279">
        <ele>158.3</ele>
        <time>2020-06-25T11:39:00Z</time>
      </trkpt>
      <trkpt lat="49.69883" lon="4.92789">
        <ele>158.3</ele>
        <time>2020-06-25T11:39:01Z</time>
      </trkpt>
      <trkpt lat="49.69879" lon="4.9279">
        <ele>158.3</ele>
        <time>2020-06-25T11:39:02Z</time>
      </trkpt>
      <trkpt lat="49.69875" lon="4.92792">
        <ele>158.3</ele>
        <time>2020-06-25T11:39:03Z</time>
      </trkpt>
      <trkpt lat="49.69872" lon="4.92794">
        <ele>158.3</ele>
        <time>2020-06-25T11:39:04Z</time>
      </trkpt>
      <trkpt lat="49.69869" lon="4.92795">
        <ele>158.3</ele>
        <time>2020-06-25T11:39:05Z</time>
      </trkpt>
      <trkpt lat="49.69866" lon="4.92797">
        <ele>158.3</ele>
        <time>2020-06-25T11:39:06Z</time>
      </trkpt>
      <trkpt lat="49.69863" lon="4.92798">
        <ele>158.3</ele>
        <time>2020-06-25T11:39:07Z</time>
      </trkpt>
      <trkpt lat="49.69862" lon="4.92799">
        <ele>158.3</ele>
        <time>2020-06-25T11:39:08Z</time>
      </trkpt>
      <trkpt lat="49.69859" lon="4.92801">
        <ele>158.3</ele>
        <time>2020-06-25T11:39:09Z</time>
      </trkpt>
      <trkpt lat="49.69858" lon="4.92802">
        <ele>158.3</ele>
        <time>2020-06-25T11:39:10Z</time>
      </trkpt>
      <trkpt lat="49.69855" lon="4.92805">
        <ele>158.3</ele>
        <time>2020-06-25T11:39:11Z</time>
      </trkpt>
      <trkpt lat="49.69854" lon="4.92806">
        <ele>158.3</ele>
        <time>2020-06-25T11:39:12Z</time>
      </trkpt>
      <trkpt lat="49.6985" lon="4.92807">
        <ele>158.3</ele>
        <time>2020-06-25T11:39:13Z</time>
      </trkpt>
      <trkpt lat="49.69849" lon="4.92808">
        <ele>158.3</ele>
        <time>2020-06-25T11:39:14Z</time>
      </trkpt>
      <trkpt lat="49.69846" lon="4.9281">
        <ele>158.3</ele>
        <time>2020-06-25T11:39:15Z</time>
      </trkpt>
      <trkpt lat="49.69843" lon="4.92811">
        <ele>158.3</ele>
        <time>2020-06-25T11:39:16Z</time>
      </trkpt>
      <trkpt lat="49.6984" lon="4.92813">
        <ele>158.3</ele>
        <time>2020-06-25T11:39:17Z</time>
      </trkpt>
      <trkpt lat="49.69839" lon="4.92813">
        <ele>158.3</ele>
        <time>2020-06-25T11:39:18Z</time>
      </trkpt>
      <trkpt lat="49.69837" lon="4.92813">
        <ele>158.3</ele>
        <time>2020-06-25T11:39:19Z</time>
      </trkpt>
      <trkpt lat="49.69837" lon="4.92809">
        <ele>158.4</ele>
        <time>2020-06-25T11:39:20Z</time>
      </trkpt>
      <trkpt lat="49.69836" lon="4.92804">
        <ele>158.4</ele>
        <time>2020-06-25T11:39:21Z</time>
      </trkpt>
      <trkpt lat="49.69837" lon="4.928">
        <ele>158.4</ele>
        <time>2020-06-25T11:39:22Z</time>
      </trkpt>
      <trkpt lat="49.69839" lon="4.92794">
        <ele>158.3</ele>
        <time>2020-06-25T11:39:23Z</time>
      </trkpt>
      <trkpt lat="49.6984" lon="4.92789">
        <ele>158.2</ele>
        <time>2020-06-25T11:39:24Z</time>
      </trkpt>
      <trkpt lat="49.69842" lon="4.92783">
        <ele>158.2</ele>
        <time>2020-06-25T11:39:25Z</time>
      </trkpt>
      <trkpt lat="49.69842" lon="4.92776">
        <ele>158.1</ele>
        <time>2020-06-25T11:39:26Z</time>
      </trkpt>
      <trkpt lat="49.69842" lon="4.92769">
        <ele>158.1</ele>
        <time>2020-06-25T11:39:27Z</time>
      </trkpt>
      <trkpt lat="49.69842" lon="4.92764">
        <ele>158</ele>
        <time>2020-06-25T11:39:28Z</time>
      </trkpt>
      <trkpt lat="49.69841" lon="4.92757">
        <ele>158</ele>
        <time>2020-06-25T11:39:29Z</time>
      </trkpt>
      <trkpt lat="49.69841" lon="4.92752">
        <ele>157.9</ele>
        <time>2020-06-25T11:39:30Z</time>
      </trkpt>
      <trkpt lat="49.69841" lon="4.92747">
        <ele>157.9</ele>
        <time>2020-06-25T11:39:31Z</time>
      </trkpt>
      <trkpt lat="49.69841" lon="4.92743">
        <ele>157.8</ele>
        <time>2020-06-25T11:39:32Z</time>
      </trkpt>
      <trkpt lat="49.69839" lon="4.92738">
        <ele>157.8</ele>
        <time>2020-06-25T11:39:33Z</time>
      </trkpt>
      <trkpt lat="49.69838" lon="4.92733">
        <ele>157.7</ele>
        <time>2020-06-25T11:39:34Z</time>
      </trkpt>
      <trkpt lat="49.69837" lon="4.92728">
        <ele>157.7</ele>
        <time>2020-06-25T11:39:35Z</time>
      </trkpt>
      <trkpt lat="49.69836" lon="4.92723">
        <ele>157.6</ele>
        <time>2020-06-25T11:39:36Z</time>
      </trkpt>
      <trkpt lat="49.69835" lon="4.92719">
        <ele>157.6</ele>
        <time>2020-06-25T11:39:37Z</time>
      </trkpt>
      <trkpt lat="49.69833" lon="4.92714">
        <ele>157.6</ele>
        <time>2020-06-25T11:39:38Z</time>
      </trkpt>
      <trkpt lat="49.69831" lon="4.92712">
        <ele>157.5</ele>
        <time>2020-06-25T11:39:39Z</time>
      </trkpt>
      <trkpt lat="49.69828" lon="4.92709">
        <ele>157.5</ele>
        <time>2020-06-25T11:39:40Z</time>
      </trkpt>
      <trkpt lat="49.69827" lon="4.92708">
        <ele>157.5</ele>
        <time>2020-06-25T11:39:41Z</time>
      </trkpt>
      <trkpt lat="49.69826" lon="4.92707">
        <ele>157.5</ele>
        <time>2020-06-25T11:39:42Z</time>
      </trkpt>
      <trkpt lat="49.69825" lon="4.92704">
        <ele>157.5</ele>
        <time>2020-06-25T11:39:43Z</time>
      </trkpt>
      <trkpt lat="49.69823" lon="4.927">
        <ele>157.4</ele>
        <time>2020-06-25T11:39:44Z</time>
      </trkpt>
      <trkpt lat="49.69822" lon="4.92696">
        <ele>157.4</ele>
        <time>2020-06-25T11:39:45Z</time>
      </trkpt>
      <trkpt lat="49.69822" lon="4.92694">
        <ele>157.4</ele>
        <time>2020-06-25T11:39:46Z</time>
      </trkpt>
      <trkpt lat="49.69821" lon="4.92692">
        <ele>157.4</ele>
        <time>2020-06-25T11:39:47Z</time>
      </trkpt>
      <trkpt lat="49.6982" lon="4.9269">
        <ele>157.4</ele>
        <time>2020-06-25T11:39:48Z</time>
      </trkpt>
      <trkpt lat="49.69819" lon="4.92688">
        <ele>157.4</ele>
        <time>2020-06-25T11:39:49Z</time>
      </trkpt>
      <trkpt lat="49.69819" lon="4.92687">
        <ele>157.4</ele>
        <time>2020-06-25T11:39:50Z</time>
      </trkpt>
      <trkpt lat="49.69818" lon="4.92686">
        <ele>157.4</ele>
        <time>2020-06-25T11:39:51Z</time>
      </trkpt>
      <trkpt lat="49.69818" lon="4.92684">
        <ele>157.4</ele>
        <time>2020-06-25T11:39:52Z</time>
      </trkpt>
      <trkpt lat="49.69818" lon="4.92684">
        <ele>157.4</ele>
        <time>2020-06-25T11:39:53Z</time>
      </trkpt>
      <trkpt lat="49.69817" lon="4.92683">
        <ele>157.4</ele>
        <time>2020-06-25T11:39:54Z</time>
      </trkpt>
      <trkpt lat="49.69817" lon="4.92682">
        <ele>157.4</ele>
        <time>2020-06-25T11:39:55Z</time>
      </trkpt>
      <trkpt lat="49.69817" lon="4.92682">
        <ele>157.4</ele>
        <time>2020-06-25T11:39:56Z</time>
      </trkpt>
      <trkpt lat="49.69817" lon="4.92681">
        <ele>157.4</ele>
        <time>2020-06-25T11:39:57Z</time>
      </trkpt>
      <trkpt lat="49.69817" lon="4.92681">
        <ele>157.4</ele>
        <time>2020-06-25T11:39:58Z</time>
      </trkpt>
      <trkpt lat="49.69818" lon="4.9268">
        <ele>157.4</ele>
        <time>2020-06-25T11:39:59Z</time>
      </trkpt>
      <trkpt lat="49.69818" lon="4.9268">
        <ele>157.4</ele>
        <time>2020-06-25T11:40:00Z</time>
      </trkpt>
      <trkpt lat="49.69818" lon="4.9268">
        <ele>157.4</ele>
        <time>2020-06-25T11:40:01Z</time>
      </trkpt>
      <trkpt lat="49.69817" lon="4.92679">
        <ele>157.4</ele>
        <time>2020-06-25T11:40:02Z</time>
      </trkpt>
      <trkpt lat="49.69817" lon="4.92679">
        <ele>157.4</ele>
        <time>2020-06-25T11:40:03Z</time>
      </trkpt>
      <trkpt lat="49.69817" lon="4.92679">
        <ele>157.4</ele>
        <time>2020-06-25T11:40:04Z</time>
      </trkpt>
      <trkpt lat="49.69816" lon="4.9268">
        <ele>157.4</ele>
        <time>2020-06-25T11:40:05Z</time>
      </trkpt>
      <trkpt lat="49.69815" lon="4.9268">
        <ele>157.4</ele>
        <time>2020-06-25T11:40:06Z</time>
      </trkpt>
      <trkpt lat="49.69815" lon="4.9268">
        <ele>157.4</ele>
        <time>2020-06-25T11:40:07Z</time>
      </trkpt>
      <trkpt lat="49.69814" lon="4.92681">
        <ele>157.4</ele>
        <time>2020-06-25T11:40:08Z</time>
      </trkpt>
      <trkpt lat="49.69814" lon="4.92682">
        <ele>157.4</ele>
        <time>2020-06-25T11:40:09Z</time>
      </trkpt>
      <trkpt lat="49.69814" lon="4.92683">
        <ele>157.4</ele>
        <time>2020-06-25T11:40:10Z</time>
      </trkpt>
      <trkpt lat="49.69814" lon="4.92683">
        <ele>157.4</ele>
        <time>2020-06-25T11:40:11Z</time>
      </trkpt>
      <trkpt lat="49.69815" lon="4.92682">
        <ele>157.4</ele>
        <time>2020-06-25T11:40:12Z</time>
      </trkpt>
      <trkpt lat="49.69815" lon="4.92683">
        <ele>157.4</ele>
        <time>2020-06-25T11:40:13Z</time>
      </trkpt>
      <trkpt lat="49.69816" lon="4.92682">
        <ele>157.4</ele>
        <time>2020-06-25T11:40:14Z</time>
      </trkpt>
      <trkpt lat="49.69816" lon="4.92682">
        <ele>157.4</ele>
        <time>2020-06-25T11:40:15Z</time>
      </trkpt>
      <trkpt lat="49.69816" lon="4.92682">
        <ele>157.4</ele>
        <time>2020-06-25T11:40:16Z</time>
      </trkpt>
      <trkpt lat="49.69817" lon="4.92682">
        <ele>157.4</ele>
        <time>2020-06-25T11:40:17Z</time>
      </trkpt>
      <trkpt lat="49.69816" lon="4.92682">
        <ele>157.4</ele>
        <time>2020-06-25T11:40:18Z</time>
      </trkpt>
      <trkpt lat="49.69824" lon="4.92692">
        <ele>157.4</ele>
        <time>2020-06-25T11:50:14Z</time>
      </trkpt>
      <trkpt lat="49.69824" lon="4.92695">
        <ele>157.4</ele>
        <time>2020-06-25T11:50:15Z</time>
      </trkpt>
      <trkpt lat="49.69824" lon="4.92701">
        <ele>157.4</ele>
        <time>2020-06-25T11:50:16Z</time>
      </trkpt>
      <trkpt lat="49.69825" lon="4.92703">
        <ele>157.4</ele>
        <time>2020-06-25T11:50:17Z</time>
      </trkpt>
      <trkpt lat="49.69826" lon="4.92708">
        <ele>157.5</ele>
        <time>2020-06-25T11:50:18Z</time>
      </trkpt>
      <trkpt lat="49.69828" lon="4.92714">
        <ele>157.5</ele>
        <time>2020-06-25T11:50:19Z</time>
      </trkpt>
      <trkpt lat="49.69829" lon="4.92719">
        <ele>157.6</ele>
        <time>2020-06-25T11:50:20Z</time>
      </trkpt>
      <trkpt lat="49.69831" lon="4.92725">
        <ele>157.6</ele>
        <time>2020-06-25T11:50:21Z</time>
      </trkpt>
      <trkpt lat="49.69832" lon="4.9273">
        <ele>157.6</ele>
        <time>2020-06-25T11:50:22Z</time>
      </trkpt>
      <trkpt lat="49.69833" lon="4.92735">
        <ele>157.7</ele>
        <time>2020-06-25T11:50:23Z</time>
      </trkpt>
      <trkpt lat="49.69834" lon="4.9274">
        <ele>157.8</ele>
        <time>2020-06-25T11:50:24Z</time>
      </trkpt>
      <trkpt lat="49.69834" lon="4.92746">
        <ele>157.8</ele>
        <time>2020-06-25T11:50:25Z</time>
      </trkpt>
      <trkpt lat="49.69835" lon="4.92751">
        <ele>157.9</ele>
        <time>2020-06-25T11:50:26Z</time>
      </trkpt>
      <trkpt lat="49.69836" lon="4.92756">
        <ele>157.9</ele>
        <time>2020-06-25T11:50:27Z</time>
      </trkpt>
      <trkpt lat="49.69836" lon="4.92761">
        <ele>158</ele>
        <time>2020-06-25T11:50:28Z</time>
      </trkpt>
      <trkpt lat="49.69837" lon="4.92765">
        <ele>158</ele>
        <time>2020-06-25T11:50:29Z</time>
      </trkpt>
      <trkpt lat="49.69838" lon="4.92769">
        <ele>158.1</ele>
        <time>2020-06-25T11:50:30Z</time>
      </trkpt>
      <trkpt lat="49.69838" lon="4.92775">
        <ele>158.1</ele>
        <time>2020-06-25T11:50:31Z</time>
      </trkpt>
      <trkpt lat="49.69837" lon="4.92777">
        <ele>158.1</ele>
        <time>2020-06-25T11:50:32Z</time>
      </trkpt>
      <trkpt lat="49.69837" lon="4.9278">
        <ele>158.1</ele>
        <time>2020-06-25T11:50:33Z</time>
      </trkpt>
      <trkpt lat="49.69837" lon="4.92782">
        <ele>158.2</ele>
        <time>2020-06-25T11:50:34Z</time>
      </trkpt>
      <trkpt lat="49.69836" lon="4.92783">
        <ele>158.2</ele>
        <time>2020-06-25T11:50:35Z</time>
      </trkpt>
      <trkpt lat="49.69836" lon="4.92785">
        <ele>158.2</ele>
        <time>2020-06-25T11:50:36Z</time>
      </trkpt>
      <trkpt lat="49.69835" lon="4.92786">
        <ele>158.2</ele>
        <time>2020-06-25T11:50:37Z</time>
      </trkpt>
      <trkpt lat="49.69833" lon="4.9279">
        <ele>158.3</ele>
        <time>2020-06-25T11:50:38Z</time>
      </trkpt>
      <trkpt lat="49.69833" lon="4.92791">
        <ele>158.3</ele>
        <time>2020-06-25T11:50:39Z</time>
      </trkpt>
      <trkpt lat="49.69833" lon="4.92796">
        <ele>158.4</ele>
        <time>2020-06-25T11:50:40Z</time>
      </trkpt>
      <trkpt lat="49.69833" lon="4.92799">
        <ele>158.4</ele>
        <time>2020-06-25T11:50:41Z</time>
      </trkpt>
      <trkpt lat="49.69833" lon="4.92804">
        <ele>158.4</ele>
        <time>2020-06-25T11:50:42Z</time>
      </trkpt>
      <trkpt lat="49.69833" lon="4.92805">
        <ele>158.4</ele>
        <time>2020-06-25T11:50:43Z</time>
      </trkpt>
      <trkpt lat="49.69833" lon="4.92807">
        <ele>158.4</ele>
        <time>2020-06-25T11:50:44Z</time>
      </trkpt>
      <trkpt lat="49.69833" lon="4.92809">
        <ele>158.4</ele>
        <time>2020-06-25T11:50:45Z</time>
      </trkpt>
      <trkpt lat="49.69835" lon="4.92811">
        <ele>158.3</ele>
        <time>2020-06-25T11:50:46Z</time>
      </trkpt>
      <trkpt lat="49.69835" lon="4.92813">
        <ele>158.3</ele>
        <time>2020-06-25T11:50:47Z</time>
      </trkpt>
      <trkpt lat="49.69835" lon="4.92815">
        <ele>158.3</ele>
        <time>2020-06-25T11:50:48Z</time>
      </trkpt>
      <trkpt lat="49.69834" lon="4.92821">
        <ele>158.3</ele>
        <time>2020-06-25T11:50:49Z</time>
      </trkpt>
      <trkpt lat="49.69834" lon="4.92823">
        <ele>158.3</ele>
        <time>2020-06-25T11:50:50Z</time>
      </trkpt>
      <trkpt lat="49.69831" lon="4.92827">
        <ele>158.1</ele>
        <time>2020-06-25T11:50:51Z</time>
      </trkpt>
      <trkpt lat="49.6983" lon="4.92828">
        <ele>158</ele>
        <time>2020-06-25T11:50:52Z</time>
      </trkpt>
      <trkpt lat="49.69828" lon="4.92829">
        <ele>157.9</ele>
        <time>2020-06-25T11:50:53Z</time>
      </trkpt>
      <trkpt lat="49.69824" lon="4.92832">
        <ele>157.8</ele>
        <time>2020-06-25T11:50:54Z</time>
      </trkpt>
      <trkpt lat="49.69821" lon="4.92834">
        <ele>157.7</ele>
        <time>2020-06-25T11:50:55Z</time>
      </trkpt>
      <trkpt lat="49.69818" lon="4.92837">
        <ele>157.6</ele>
        <time>2020-06-25T11:50:56Z</time>
      </trkpt>
      <trkpt lat="49.69815" lon="4.92839">
        <ele>157.5</ele>
        <time>2020-06-25T11:50:57Z</time>
      </trkpt>
      <trkpt lat="49.69811" lon="4.9284">
        <ele>157.4</ele>
        <time>2020-06-25T11:50:58Z</time>
      </trkpt>
      <trkpt lat="49.69807" lon="4.92841">
        <ele>157.3</ele>
        <time>2020-06-25T11:50:59Z</time>
      </trkpt>
      <trkpt lat="49.69804" lon="4.92842">
        <ele>157.2</ele>
        <time>2020-06-25T11:51:00Z</time>
      </trkpt>
      <trkpt lat="49.698" lon="4.92843">
        <ele>157.1</ele>
        <time>2020-06-25T11:51:01Z</time>
      </trkpt>
      <trkpt lat="49.69796" lon="4.92844">
        <ele>157</ele>
        <time>2020-06-25T11:51:02Z</time>
      </trkpt>
      <trkpt lat="49.69793" lon="4.92845">
        <ele>156.9</ele>
        <time>2020-06-25T11:51:03Z</time>
      </trkpt>
      <trkpt lat="49.6979" lon="4.92847">
        <ele>156.8</ele>
        <time>2020-06-25T11:51:04Z</time>
      </trkpt>
      <trkpt lat="49.69786" lon="4.9285">
        <ele>156.7</ele>
        <time>2020-06-25T11:51:05Z</time>
      </trkpt>
      <trkpt lat="49.69783" lon="4.92852">
        <ele>156.6</ele>
        <time>2020-06-25T11:51:06Z</time>
      </trkpt>
      <trkpt lat="49.69781" lon="4.92853">
        <ele>156.5</ele>
        <time>2020-06-25T11:51:07Z</time>
      </trkpt>
      <trkpt lat="49.69777" lon="4.92856">
        <ele>156.4</ele>
        <time>2020-06-25T11:51:08Z</time>
      </trkpt>
      <trkpt lat="49.69773" lon="4.9286">
        <ele>156.2</ele>
        <time>2020-06-25T11:51:09Z</time>
      </trkpt>
      <trkpt lat="49.69769" lon="4.92865">
        <ele>155.8</ele>
        <time>2020-06-25T11:51:10Z</time>
      </trkpt>
      <trkpt lat="49.69766" lon="4.92869">
        <ele>155.8</ele>
        <time>2020-06-25T11:51:11Z</time>
      </trkpt>
      <trkpt lat="49.69762" lon="4.92874">
        <ele>155.7</ele>
        <time>2020-06-25T11:51:12Z</time>
      </trkpt>
      <trkpt lat="49.69758" lon="4.92878">
        <ele>155.7</ele>
        <time>2020-06-25T11:51:13Z</time>
      </trkpt>
      <trkpt lat="49.69754" lon="4.92883">
        <ele>155.7</ele>
        <time>2020-06-25T11:51:14Z</time>
      </trkpt>
      <trkpt lat="49.69749" lon="4.92886">
        <ele>155.7</ele>
        <time>2020-06-25T11:51:15Z</time>
      </trkpt>
      <trkpt lat="49.69745" lon="4.92889">
        <ele>155.7</ele>
        <time>2020-06-25T11:51:16Z</time>
      </trkpt>
      <trkpt lat="49.6974" lon="4.92893">
        <ele>155.7</ele>
        <time>2020-06-25T11:51:17Z</time>
      </trkpt>
      <trkpt lat="49.69736" lon="4.92896">
        <ele>155.7</ele>
        <time>2020-06-25T11:51:18Z</time>
      </trkpt>
      <trkpt lat="49.69732" lon="4.92899">
        <ele>155.6</ele>
        <time>2020-06-25T11:51:19Z</time>
      </trkpt>
      <trkpt lat="49.69727" lon="4.92902">
        <ele>155.6</ele>
        <time>2020-06-25T11:51:20Z</time>
      </trkpt>
      <trkpt lat="49.69722" lon="4.92906">
        <ele>155.6</ele>
        <time>2020-06-25T11:51:21Z</time>
      </trkpt>
      <trkpt lat="49.69717" lon="4.92909">
        <ele>155.6</ele>
        <time>2020-06-25T11:51:22Z</time>
      </trkpt>
      <trkpt lat="49.69712" lon="4.92912">
        <ele>155.6</ele>
        <time>2020-06-25T11:51:23Z</time>
      </trkpt>
      <trkpt lat="49.69708" lon="4.92914">
        <ele>155.6</ele>
        <time>2020-06-25T11:51:24Z</time>
      </trkpt>
      <trkpt lat="49.69704" lon="4.92916">
        <ele>155.6</ele>
        <time>2020-06-25T11:51:25Z</time>
      </trkpt>
      <trkpt lat="49.697" lon="4.92919">
        <ele>155.7</ele>
        <time>2020-06-25T11:51:26Z</time>
      </trkpt>
      <trkpt lat="49.69695" lon="4.92922">
        <ele>155.7</ele>
        <time>2020-06-25T11:51:27Z</time>
      </trkpt>
      <trkpt lat="49.69691" lon="4.92924">
        <ele>155.7</ele>
        <time>2020-06-25T11:51:28Z</time>
      </trkpt>
      <trkpt lat="49.69687" lon="4.92926">
        <ele>155.7</ele>
        <time>2020-06-25T11:51:29Z</time>
      </trkpt>
      <trkpt lat="49.69684" lon="4.92928">
        <ele>155.8</ele>
        <time>2020-06-25T11:51:30Z</time>
      </trkpt>
      <trkpt lat="49.6968" lon="4.9293">
        <ele>155.8</ele>
        <time>2020-06-25T11:51:31Z</time>
      </trkpt>
      <trkpt lat="49.69676" lon="4.92931">
        <ele>155.8</ele>
        <time>2020-06-25T11:51:32Z</time>
      </trkpt>
      <trkpt lat="49.69673" lon="4.92933">
        <ele>155.8</ele>
        <time>2020-06-25T11:51:33Z</time>
      </trkpt>
      <trkpt lat="49.69669" lon="4.92935">
        <ele>155.9</ele>
        <time>2020-06-25T11:51:34Z</time>
      </trkpt>
      <trkpt lat="49.69665" lon="4.92936">
        <ele>155.9</ele>
        <time>2020-06-25T11:51:35Z</time>
      </trkpt>
      <trkpt lat="49.6966" lon="4.92939">
        <ele>155.9</ele>
        <time>2020-06-25T11:51:36Z</time>
      </trkpt>
      <trkpt lat="49.69656" lon="4.9294">
        <ele>155.9</ele>
        <time>2020-06-25T11:51:37Z</time>
      </trkpt>
      <trkpt lat="49.69651" lon="4.92943">
        <ele>156</ele>
        <time>2020-06-25T11:51:38Z</time>
      </trkpt>
      <trkpt lat="49.69648" lon="4.92945">
        <ele>156</ele>
        <time>2020-06-25T11:51:39Z</time>
      </trkpt>
      <trkpt lat="49.69645" lon="4.92945">
        <ele>156</ele>
        <time>2020-06-25T11:51:40Z</time>
      </trkpt>
      <trkpt lat="49.69642" lon="4.92947">
        <ele>156</ele>
        <time>2020-06-25T11:51:41Z</time>
      </trkpt>
      <trkpt lat="49.69638" lon="4.92949">
        <ele>156</ele>
        <time>2020-06-25T11:51:42Z</time>
      </trkpt>
      <trkpt lat="49.69635" lon="4.9295">
        <ele>156</ele>
        <time>2020-06-25T11:51:43Z</time>
      </trkpt>
      <trkpt lat="49.69632" lon="4.92952">
        <ele>156</ele>
        <time>2020-06-25T11:51:44Z</time>
      </trkpt>
      <trkpt lat="49.69628" lon="4.92956">
        <ele>156</ele>
        <time>2020-06-25T11:51:45Z</time>
      </trkpt>
      <trkpt lat="49.69626" lon="4.92958">
        <ele>156</ele>
        <time>2020-06-25T11:51:46Z</time>
      </trkpt>
      <trkpt lat="49.69623" lon="4.9296">
        <ele>156</ele>
        <time>2020-06-25T11:51:47Z</time>
      </trkpt>
      <trkpt lat="49.69619" lon="4.92963">
        <ele>156.1</ele>
        <time>2020-06-25T11:51:48Z</time>
      </trkpt>
      <trkpt lat="49.69616" lon="4.92965">
        <ele>156.1</ele>
        <time>2020-06-25T11:51:49Z</time>
      </trkpt>
      <trkpt lat="49.69612" lon="4.92968">
        <ele>156.1</ele>
        <time>2020-06-25T11:51:50Z</time>
      </trkpt>
      <trkpt lat="49.69608" lon="4.92971">
        <ele>156.1</ele>
        <time>2020-06-25T11:51:51Z</time>
      </trkpt>
      <trkpt lat="49.69605" lon="4.92972">
        <ele>156.2</ele>
        <time>2020-06-25T11:51:52Z</time>
      </trkpt>
      <trkpt lat="49.69601" lon="4.92974">
        <ele>156.2</ele>
        <time>2020-06-25T11:51:53Z</time>
      </trkpt>
      <trkpt lat="49.69598" lon="4.92975">
        <ele>156.2</ele>
        <time>2020-06-25T11:51:54Z</time>
      </trkpt>
      <trkpt lat="49.69594" lon="4.92976">
        <ele>156.2</ele>
        <time>2020-06-25T11:51:55Z</time>
      </trkpt>
      <trkpt lat="49.69593" lon="4.92976">
        <ele>156.3</ele>
        <time>2020-06-25T11:51:56Z</time>
      </trkpt>
      <trkpt lat="49.69591" lon="4.92977">
        <ele>156.4</ele>
        <time>2020-06-25T11:51:57Z</time>
      </trkpt>
      <trkpt lat="49.6959" lon="4.92978">
        <ele>156.4</ele>
        <time>2020-06-25T11:51:58Z</time>
      </trkpt>
      <trkpt lat="49.69589" lon="4.92979">
        <ele>156.5</ele>
        <time>2020-06-25T11:51:59Z</time>
      </trkpt>
      <trkpt lat="49.69588" lon="4.92979">
        <ele>156.5</ele>
        <time>2020-06-25T11:52:00Z</time>
      </trkpt>
      <trkpt lat="49.69589" lon="4.9298">
        <ele>156.5</ele>
        <time>2020-06-25T11:52:01Z</time>
      </trkpt>
      <trkpt lat="49.69588" lon="4.92982">
        <ele>156.6</ele>
        <time>2020-06-25T11:52:02Z</time>
      </trkpt>
      <trkpt lat="49.69585" lon="4.92985">
        <ele>156.7</ele>
        <time>2020-06-25T11:52:03Z</time>
      </trkpt>
      <trkpt lat="49.69584" lon="4.92985">
        <ele>156.7</ele>
        <time>2020-06-25T11:52:04Z</time>
      </trkpt>
      <trkpt lat="49.69581" lon="4.92988">
        <ele>156.9</ele>
        <time>2020-06-25T11:52:05Z</time>
      </trkpt>
      <trkpt lat="49.69579" lon="4.92989">
        <ele>157</ele>
        <time>2020-06-25T11:52:06Z</time>
      </trkpt>
      <trkpt lat="49.69575" lon="4.92992">
        <ele>156.9</ele>
        <time>2020-06-25T11:52:07Z</time>
      </trkpt>
      <trkpt lat="49.69571" lon="4.92995">
        <ele>156.9</ele>
        <time>2020-06-25T11:52:08Z</time>
      </trkpt>
      <trkpt lat="49.69566" lon="4.92998">
        <ele>156.9</ele>
        <time>2020-06-25T11:52:09Z</time>
      </trkpt>
      <trkpt lat="49.69563" lon="4.92999">
        <ele>156.8</ele>
        <time>2020-06-25T11:52:10Z</time>
      </trkpt>
      <trkpt lat="49.69559" lon="4.93002">
        <ele>156.8</ele>
        <time>2020-06-25T11:52:11Z</time>
      </trkpt>
      <trkpt lat="49.69556" lon="4.93005">
        <ele>156.8</ele>
        <time>2020-06-25T11:52:12Z</time>
      </trkpt>
      <trkpt lat="49.69554" lon="4.93006">
        <ele>156.8</ele>
        <time>2020-06-25T11:52:13Z</time>
      </trkpt>
      <trkpt lat="49.69551" lon="4.93009">
        <ele>156.9</ele>
        <time>2020-06-25T11:52:14Z</time>
      </trkpt>
      <trkpt lat="49.69549" lon="4.93011">
        <ele>156.9</ele>
        <time>2020-06-25T11:52:15Z</time>
      </trkpt>
      <trkpt lat="49.69546" lon="4.93015">
        <ele>156.9</ele>
        <time>2020-06-25T11:52:16Z</time>
      </trkpt>
      <trkpt lat="49.69542" lon="4.9302">
        <ele>156.9</ele>
        <time>2020-06-25T11:52:17Z</time>
      </trkpt>
      <trkpt lat="49.69538" lon="4.93025">
        <ele>157</ele>
        <time>2020-06-25T11:52:18Z</time>
      </trkpt>
      <trkpt lat="49.69535" lon="4.93031">
        <ele>157</ele>
        <time>2020-06-25T11:52:19Z</time>
      </trkpt>
      <trkpt lat="49.69531" lon="4.93037">
        <ele>157.1</ele>
        <time>2020-06-25T11:52:20Z</time>
      </trkpt>
      <trkpt lat="49.69528" lon="4.93043">
        <ele>157.1</ele>
        <time>2020-06-25T11:52:21Z</time>
      </trkpt>
      <trkpt lat="49.69525" lon="4.93048">
        <ele>157.1</ele>
        <time>2020-06-25T11:52:22Z</time>
      </trkpt>
      <trkpt lat="49.69523" lon="4.93054">
        <ele>157.2</ele>
        <time>2020-06-25T11:52:23Z</time>
      </trkpt>
      <trkpt lat="49.69521" lon="4.9306">
        <ele>157.6</ele>
        <time>2020-06-25T11:52:24Z</time>
      </trkpt>
      <trkpt lat="49.69518" lon="4.93065">
        <ele>157.6</ele>
        <time>2020-06-25T11:52:25Z</time>
      </trkpt>
      <trkpt lat="49.69516" lon="4.9307">
        <ele>157.7</ele>
        <time>2020-06-25T11:52:26Z</time>
      </trkpt>
      <trkpt lat="49.69514" lon="4.93077">
        <ele>157.4</ele>
        <time>2020-06-25T11:52:27Z</time>
      </trkpt>
      <trkpt lat="49.69511" lon="4.93085">
        <ele>157.2</ele>
        <time>2020-06-25T11:52:28Z</time>
      </trkpt>
      <trkpt lat="49.69509" lon="4.93092">
        <ele>157.1</ele>
        <time>2020-06-25T11:52:29Z</time>
      </trkpt>
      <trkpt lat="49.69509" lon="4.93098">
        <ele>157.1</ele>
        <time>2020-06-25T11:52:30Z</time>
      </trkpt>
      <trkpt lat="49.69509" lon="4.93104">
        <ele>157</ele>
        <time>2020-06-25T11:52:31Z</time>
      </trkpt>
      <trkpt lat="49.69508" lon="4.93109">
        <ele>156.9</ele>
        <time>2020-06-25T11:52:32Z</time>
      </trkpt>
      <trkpt lat="49.69509" lon="4.93114">
        <ele>156.9</ele>
        <time>2020-06-25T11:52:33Z</time>
      </trkpt>
      <trkpt lat="49.6951" lon="4.93119">
        <ele>156.8</ele>
        <time>2020-06-25T11:52:34Z</time>
      </trkpt>
      <trkpt lat="49.6951" lon="4.93124">
        <ele>156.8</ele>
        <time>2020-06-25T11:52:35Z</time>
      </trkpt>
      <trkpt lat="49.69511" lon="4.93132">
        <ele>156.7</ele>
        <time>2020-06-25T11:52:36Z</time>
      </trkpt>
      <trkpt lat="49.69512" lon="4.93138">
        <ele>156.7</ele>
        <time>2020-06-25T11:52:37Z</time>
      </trkpt>
      <trkpt lat="49.69514" lon="4.93145">
        <ele>156.8</ele>
        <time>2020-06-25T11:52:38Z</time>
      </trkpt>
      <trkpt lat="49.69516" lon="4.93152">
        <ele>156.8</ele>
        <time>2020-06-25T11:52:39Z</time>
      </trkpt>
      <trkpt lat="49.69518" lon="4.93158">
        <ele>156.8</ele>
        <time>2020-06-25T11:52:40Z</time>
      </trkpt>
      <trkpt lat="49.6952" lon="4.93165">
        <ele>156.8</ele>
        <time>2020-06-25T11:52:41Z</time>
      </trkpt>
      <trkpt lat="49.69523" lon="4.9317">
        <ele>156.8</ele>
        <time>2020-06-25T11:52:42Z</time>
      </trkpt>
      <trkpt lat="49.69526" lon="4.93176">
        <ele>156.9</ele>
        <time>2020-06-25T11:52:43Z</time>
      </trkpt>
      <trkpt lat="49.69529" lon="4.93182">
        <ele>156.7</ele>
        <time>2020-06-25T11:52:44Z</time>
      </trkpt>
      <trkpt lat="49.69531" lon="4.93188">
        <ele>156.4</ele>
        <time>2020-06-25T11:52:45Z</time>
      </trkpt>
      <trkpt lat="49.69533" lon="4.93194">
        <ele>156.2</ele>
        <time>2020-06-25T11:52:46Z</time>
      </trkpt>
      <trkpt lat="49.69534" lon="4.932">
        <ele>155.7</ele>
        <time>2020-06-25T11:52:47Z</time>
      </trkpt>
      <trkpt lat="49.69534" lon="4.93208">
        <ele>155.8</ele>
        <time>2020-06-25T11:52:48Z</time>
      </trkpt>
      <trkpt lat="49.69535" lon="4.93215">
        <ele>155.8</ele>
        <time>2020-06-25T11:52:49Z</time>
      </trkpt>
      <trkpt lat="49.69535" lon="4.93222">
        <ele>155.8</ele>
        <time>2020-06-25T11:52:50Z</time>
      </trkpt>
      <trkpt lat="49.69536" lon="4.93227">
        <ele>155.8</ele>
        <time>2020-06-25T11:52:51Z</time>
      </trkpt>
      <trkpt lat="49.69537" lon="4.93235">
        <ele>155.8</ele>
        <time>2020-06-25T11:52:52Z</time>
      </trkpt>
      <trkpt lat="49.69537" lon="4.93241">
        <ele>155.8</ele>
        <time>2020-06-25T11:52:53Z</time>
      </trkpt>
      <trkpt lat="49.69539" lon="4.93247">
        <ele>155.8</ele>
        <time>2020-06-25T11:52:54Z</time>
      </trkpt>
      <trkpt lat="49.69541" lon="4.93254">
        <ele>155.9</ele>
        <time>2020-06-25T11:52:55Z</time>
      </trkpt>
      <trkpt lat="49.69543" lon="4.93259">
        <ele>155.9</ele>
        <time>2020-06-25T11:52:56Z</time>
      </trkpt>
      <trkpt lat="49.69543" lon="4.93267">
        <ele>155.9</ele>
        <time>2020-06-25T11:52:57Z</time>
      </trkpt>
      <trkpt lat="49.69546" lon="4.93272">
        <ele>155.9</ele>
        <time>2020-06-25T11:52:58Z</time>
      </trkpt>
      <trkpt lat="49.69546" lon="4.93279">
        <ele>156</ele>
        <time>2020-06-25T11:52:59Z</time>
      </trkpt>
      <trkpt lat="49.69548" lon="4.93285">
        <ele>156</ele>
        <time>2020-06-25T11:53:00Z</time>
      </trkpt>
      <trkpt lat="49.69549" lon="4.93292">
        <ele>156.1</ele>
        <time>2020-06-25T11:53:01Z</time>
      </trkpt>
      <trkpt lat="49.69551" lon="4.933">
        <ele>156.2</ele>
        <time>2020-06-25T11:53:02Z</time>
      </trkpt>
      <trkpt lat="49.69553" lon="4.93306">
        <ele>156.2</ele>
        <time>2020-06-25T11:53:03Z</time>
      </trkpt>
      <trkpt lat="49.69555" lon="4.93312">
        <ele>156.3</ele>
        <time>2020-06-25T11:53:04Z</time>
      </trkpt>
      <trkpt lat="49.69556" lon="4.93318">
        <ele>156.4</ele>
        <time>2020-06-25T11:53:05Z</time>
      </trkpt>
      <trkpt lat="49.69557" lon="4.93324">
        <ele>156.4</ele>
        <time>2020-06-25T11:53:06Z</time>
      </trkpt>
      <trkpt lat="49.69558" lon="4.93329">
        <ele>156.4</ele>
        <time>2020-06-25T11:53:07Z</time>
      </trkpt>
      <trkpt lat="49.69559" lon="4.93333">
        <ele>156.5</ele>
        <time>2020-06-25T11:53:08Z</time>
      </trkpt>
      <trkpt lat="49.6956" lon="4.93337">
        <ele>156.5</ele>
        <time>2020-06-25T11:53:09Z</time>
      </trkpt>
      <trkpt lat="49.69561" lon="4.93342">
        <ele>156.5</ele>
        <time>2020-06-25T11:53:10Z</time>
      </trkpt>
      <trkpt lat="49.69561" lon="4.93343">
        <ele>156.5</ele>
        <time>2020-06-25T11:53:11Z</time>
      </trkpt>
      <trkpt lat="49.69561" lon="4.93345">
        <ele>156.5</ele>
        <time>2020-06-25T11:53:12Z</time>
      </trkpt>
      <trkpt lat="49.69562" lon="4.93345">
        <ele>156.5</ele>
        <time>2020-06-25T11:53:13Z</time>
      </trkpt>
      <trkpt lat="49.69561" lon="4.93346">
        <ele>156.5</ele>
        <time>2020-06-25T11:53:14Z</time>
      </trkpt>
      <trkpt lat="49.69562" lon="4.93347">
        <ele>156.5</ele>
        <time>2020-06-25T11:53:15Z</time>
      </trkpt>
      <trkpt lat="49.69561" lon="4.93348">
        <ele>156.6</ele>
        <time>2020-06-25T11:53:16Z</time>
      </trkpt>
      <trkpt lat="49.69561" lon="4.93349">
        <ele>156.6</ele>
        <time>2020-06-25T11:53:17Z</time>
      </trkpt>
      <trkpt lat="49.6956" lon="4.93349">
        <ele>155.6</ele>
        <time>2020-06-25T11:53:18Z</time>
      </trkpt>
      <trkpt lat="49.69559" lon="4.9335">
        <ele>155.6</ele>
        <time>2020-06-25T11:53:19Z</time>
      </trkpt>
      <trkpt lat="49.69559" lon="4.9335">
        <ele>155.5</ele>
        <time>2020-06-25T11:53:20Z</time>
      </trkpt>
      <trkpt lat="49.69558" lon="4.93351">
        <ele>155.4</ele>
        <time>2020-06-25T11:53:21Z</time>
      </trkpt>
      <trkpt lat="49.69558" lon="4.93351">
        <ele>155.3</ele>
        <time>2020-06-25T11:53:22Z</time>
      </trkpt>
      <trkpt lat="49.69557" lon="4.93352">
        <ele>155.2</ele>
        <time>2020-06-25T11:53:23Z</time>
      </trkpt>
      <trkpt lat="49.69557" lon="4.93352">
        <ele>155.1</ele>
        <time>2020-06-25T11:53:24Z</time>
      </trkpt>
      <trkpt lat="49.69556" lon="4.93353">
        <ele>155</ele>
        <time>2020-06-25T11:53:38Z</time>
      </trkpt>
      <trkpt lat="49.69556" lon="4.93353">
        <ele>154.9</ele>
        <time>2020-06-25T11:53:39Z</time>
      </trkpt>
      <trkpt lat="49.69554" lon="4.93354">
        <ele>154.6</ele>
        <time>2020-06-25T11:53:40Z</time>
      </trkpt>
      <trkpt lat="49.69552" lon="4.93355">
        <ele>154.4</ele>
        <time>2020-06-25T11:53:41Z</time>
      </trkpt>
      <trkpt lat="49.69551" lon="4.93356">
        <ele>154.1</ele>
        <time>2020-06-25T11:53:42Z</time>
      </trkpt>
      <trkpt lat="49.69549" lon="4.93358">
        <ele>153.8</ele>
        <time>2020-06-25T11:53:43Z</time>
      </trkpt>
      <trkpt lat="49.69546" lon="4.93361">
        <ele>151.9</ele>
        <time>2020-06-25T11:53:44Z</time>
      </trkpt>
      <trkpt lat="49.69544" lon="4.93363">
        <ele>151.9</ele>
        <time>2020-06-25T11:53:45Z</time>
      </trkpt>
      <trkpt lat="49.69539" lon="4.93366">
        <ele>151.9</ele>
        <time>2020-06-25T11:53:46Z</time>
      </trkpt>
      <trkpt lat="49.69535" lon="4.93371">
        <ele>151.8</ele>
        <time>2020-06-25T11:53:47Z</time>
      </trkpt>
      <trkpt lat="49.69529" lon="4.93377">
        <ele>151.8</ele>
        <time>2020-06-25T11:53:48Z</time>
      </trkpt>
      <trkpt lat="49.69521" lon="4.93384">
        <ele>151.7</ele>
        <time>2020-06-25T11:53:49Z</time>
      </trkpt>
      <trkpt lat="49.69515" lon="4.93389">
        <ele>151.7</ele>
        <time>2020-06-25T11:53:50Z</time>
      </trkpt>
      <trkpt lat="49.69509" lon="4.93392">
        <ele>151.7</ele>
        <time>2020-06-25T11:53:51Z</time>
      </trkpt>
      <trkpt lat="49.69503" lon="4.93394">
        <ele>151.7</ele>
        <time>2020-06-25T11:53:52Z</time>
      </trkpt>
      <trkpt lat="49.69496" lon="4.93397">
        <ele>151.7</ele>
        <time>2020-06-25T11:53:53Z</time>
      </trkpt>
      <trkpt lat="49.6949" lon="4.934">
        <ele>151.7</ele>
        <time>2020-06-25T11:53:54Z</time>
      </trkpt>
      <trkpt lat="49.69484" lon="4.93404">
        <ele>151.7</ele>
        <time>2020-06-25T11:53:55Z</time>
      </trkpt>
      <trkpt lat="49.69478" lon="4.93406">
        <ele>151.7</ele>
        <time>2020-06-25T11:53:56Z</time>
      </trkpt>
      <trkpt lat="49.69473" lon="4.93408">
        <ele>151.7</ele>
        <time>2020-06-25T11:53:57Z</time>
      </trkpt>
      <trkpt lat="49.69467" lon="4.93411">
        <ele>151.7</ele>
        <time>2020-06-25T11:53:58Z</time>
      </trkpt>
      <trkpt lat="49.69462" lon="4.93412">
        <ele>151.7</ele>
        <time>2020-06-25T11:53:59Z</time>
      </trkpt>
      <trkpt lat="49.69457" lon="4.93414">
        <ele>151.6</ele>
        <time>2020-06-25T11:54:00Z</time>
      </trkpt>
      <trkpt lat="49.69452" lon="4.93418">
        <ele>151.6</ele>
        <time>2020-06-25T11:54:01Z</time>
      </trkpt>
      <trkpt lat="49.69446" lon="4.9342">
        <ele>151.5</ele>
        <time>2020-06-25T11:54:02Z</time>
      </trkpt>
      <trkpt lat="49.69442" lon="4.93424">
        <ele>151.5</ele>
        <time>2020-06-25T11:54:03Z</time>
      </trkpt>
      <trkpt lat="49.69437" lon="4.9343">
        <ele>151.5</ele>
        <time>2020-06-25T11:54:04Z</time>
      </trkpt>
      <trkpt lat="49.69432" lon="4.93438">
        <ele>151.5</ele>
        <time>2020-06-25T11:54:05Z</time>
      </trkpt>
      <trkpt lat="49.69426" lon="4.93445">
        <ele>151.5</ele>
        <time>2020-06-25T11:54:06Z</time>
      </trkpt>
      <trkpt lat="49.69421" lon="4.93452">
        <ele>151.5</ele>
        <time>2020-06-25T11:54:07Z</time>
      </trkpt>
      <trkpt lat="49.69416" lon="4.9346">
        <ele>151.5</ele>
        <time>2020-06-25T11:54:08Z</time>
      </trkpt>
      <trkpt lat="49.69411" lon="4.93468">
        <ele>151.5</ele>
        <time>2020-06-25T11:54:09Z</time>
      </trkpt>
      <trkpt lat="49.69407" lon="4.93475">
        <ele>151.4</ele>
        <time>2020-06-25T11:54:10Z</time>
      </trkpt>
      <trkpt lat="49.69403" lon="4.93481">
        <ele>151.4</ele>
        <time>2020-06-25T11:54:11Z</time>
      </trkpt>
      <trkpt lat="49.69399" lon="4.93488">
        <ele>151.4</ele>
        <time>2020-06-25T11:54:12Z</time>
      </trkpt>
      <trkpt lat="49.69396" lon="4.93495">
        <ele>151.4</ele>
        <time>2020-06-25T11:54:13Z</time>
      </trkpt>
      <trkpt lat="49.69392" lon="4.93501">
        <ele>151.4</ele>
        <time>2020-06-25T11:54:14Z</time>
      </trkpt>
      <trkpt lat="49.69389" lon="4.93507">
        <ele>151.4</ele>
        <time>2020-06-25T11:54:15Z</time>
      </trkpt>
      <trkpt lat="49.69386" lon="4.93514">
        <ele>151.4</ele>
        <time>2020-06-25T11:54:16Z</time>
      </trkpt>
      <trkpt lat="49.69383" lon="4.9352">
        <ele>151.5</ele>
        <time>2020-06-25T11:54:17Z</time>
      </trkpt>
      <trkpt lat="49.6938" lon="4.93527">
        <ele>151.5</ele>
        <time>2020-06-25T11:54:18Z</time>
      </trkpt>
      <trkpt lat="49.69377" lon="4.93534">
        <ele>151.5</ele>
        <time>2020-06-25T11:54:19Z</time>
      </trkpt>
      <trkpt lat="49.69375" lon="4.93541">
        <ele>151.5</ele>
        <time>2020-06-25T11:54:20Z</time>
      </trkpt>
      <trkpt lat="49.69373" lon="4.93547">
        <ele>151.5</ele>
        <time>2020-06-25T11:54:21Z</time>
      </trkpt>
      <trkpt lat="49.69371" lon="4.93554">
        <ele>151.5</ele>
        <time>2020-06-25T11:54:22Z</time>
      </trkpt>
      <trkpt lat="49.69368" lon="4.93562">
        <ele>151.5</ele>
        <time>2020-06-25T11:54:23Z</time>
      </trkpt>
      <trkpt lat="49.69366" lon="4.93568">
        <ele>151.5</ele>
        <time>2020-06-25T11:54:24Z</time>
      </trkpt>
      <trkpt lat="49.69363" lon="4.93575">
        <ele>151.5</ele>
        <time>2020-06-25T11:54:25Z</time>
      </trkpt>
      <trkpt lat="49.6936" lon="4.93581">
        <ele>151.5</ele>
        <time>2020-06-25T11:54:26Z</time>
      </trkpt>
      <trkpt lat="49.69358" lon="4.93587">
        <ele>151.6</ele>
        <time>2020-06-25T11:54:27Z</time>
      </trkpt>
      <trkpt lat="49.69355" lon="4.93594">
        <ele>151.5</ele>
        <time>2020-06-25T11:54:28Z</time>
      </trkpt>
      <trkpt lat="49.69352" lon="4.93602">
        <ele>151.5</ele>
        <time>2020-06-25T11:54:29Z</time>
      </trkpt>
      <trkpt lat="49.69349" lon="4.93608">
        <ele>151.5</ele>
        <time>2020-06-25T11:54:30Z</time>
      </trkpt>
      <trkpt lat="49.69347" lon="4.93615">
        <ele>151.5</ele>
        <time>2020-06-25T11:54:31Z</time>
      </trkpt>
      <trkpt lat="49.69344" lon="4.93622">
        <ele>151.5</ele>
        <time>2020-06-25T11:54:32Z</time>
      </trkpt>
      <trkpt lat="49.69341" lon="4.93629">
        <ele>151.5</ele>
        <time>2020-06-25T11:54:33Z</time>
      </trkpt>
      <trkpt lat="49.69338" lon="4.93637">
        <ele>151.6</ele>
        <time>2020-06-25T11:54:34Z</time>
      </trkpt>
      <trkpt lat="49.69335" lon="4.93644">
        <ele>151.6</ele>
        <time>2020-06-25T11:54:35Z</time>
      </trkpt>
      <trkpt lat="49.69332" lon="4.93651">
        <ele>151.7</ele>
        <time>2020-06-25T11:54:36Z</time>
      </trkpt>
      <trkpt lat="49.69329" lon="4.93657">
        <ele>151.9</ele>
        <time>2020-06-25T11:54:37Z</time>
      </trkpt>
      <trkpt lat="49.69324" lon="4.93663">
        <ele>152</ele>
        <time>2020-06-25T11:54:38Z</time>
      </trkpt>
      <trkpt lat="49.6932" lon="4.93668">
        <ele>152.1</ele>
        <time>2020-06-25T11:54:39Z</time>
      </trkpt>
      <trkpt lat="49.69315" lon="4.93675">
        <ele>152.3</ele>
        <time>2020-06-25T11:54:40Z</time>
      </trkpt>
      <trkpt lat="49.69312" lon="4.93681">
        <ele>152.3</ele>
        <time>2020-06-25T11:54:41Z</time>
      </trkpt>
      <trkpt lat="49.69309" lon="4.93687">
        <ele>152.4</ele>
        <time>2020-06-25T11:54:42Z</time>
      </trkpt>
      <trkpt lat="49.69306" lon="4.93693">
        <ele>152.5</ele>
        <time>2020-06-25T11:54:43Z</time>
      </trkpt>
      <trkpt lat="49.69304" lon="4.93698">
        <ele>152.5</ele>
        <time>2020-06-25T11:54:44Z</time>
      </trkpt>
      <trkpt lat="49.69301" lon="4.93701">
        <ele>152.5</ele>
        <time>2020-06-25T11:54:45Z</time>
      </trkpt>
      <trkpt lat="49.69298" lon="4.93705">
        <ele>152.6</ele>
        <time>2020-06-25T11:54:46Z</time>
      </trkpt>
      <trkpt lat="49.69295" lon="4.93708">
        <ele>152.6</ele>
        <time>2020-06-25T11:54:47Z</time>
      </trkpt>
      <trkpt lat="49.69292" lon="4.93713">
        <ele>152.6</ele>
        <time>2020-06-25T11:54:48Z</time>
      </trkpt>
      <trkpt lat="49.69289" lon="4.93718">
        <ele>152.6</ele>
        <time>2020-06-25T11:54:49Z</time>
      </trkpt>
      <trkpt lat="49.69285" lon="4.93723">
        <ele>152.6</ele>
        <time>2020-06-25T11:54:50Z</time>
      </trkpt>
      <trkpt lat="49.69282" lon="4.93728">
        <ele>152.6</ele>
        <time>2020-06-25T11:54:51Z</time>
      </trkpt>
      <trkpt lat="49.69277" lon="4.93733">
        <ele>152.6</ele>
        <time>2020-06-25T11:54:52Z</time>
      </trkpt>
      <trkpt lat="49.69273" lon="4.93738">
        <ele>152.6</ele>
        <time>2020-06-25T11:54:53Z</time>
      </trkpt>
      <trkpt lat="49.69268" lon="4.93744">
        <ele>152.7</ele>
        <time>2020-06-25T11:54:54Z</time>
      </trkpt>
      <trkpt lat="49.69263" lon="4.9375">
        <ele>152.7</ele>
        <time>2020-06-25T11:54:55Z</time>
      </trkpt>
      <trkpt lat="49.69258" lon="4.93754">
        <ele>152.7</ele>
        <time>2020-06-25T11:54:56Z</time>
      </trkpt>
      <trkpt lat="49.69254" lon="4.93759">
        <ele>152.7</ele>
        <time>2020-06-25T11:54:57Z</time>
      </trkpt>
      <trkpt lat="49.6925" lon="4.93765">
        <ele>152.7</ele>
        <time>2020-06-25T11:54:58Z</time>
      </trkpt>
      <trkpt lat="49.69245" lon="4.93769">
        <ele>152.7</ele>
        <time>2020-06-25T11:54:59Z</time>
      </trkpt>
      <trkpt lat="49.6924" lon="4.93773">
        <ele>152.7</ele>
        <time>2020-06-25T11:55:00Z</time>
      </trkpt>
      <trkpt lat="49.69236" lon="4.93778">
        <ele>152.7</ele>
        <time>2020-06-25T11:55:01Z</time>
      </trkpt>
      <trkpt lat="49.69231" lon="4.93783">
        <ele>152.7</ele>
        <time>2020-06-25T11:55:02Z</time>
      </trkpt>
      <trkpt lat="49.69226" lon="4.93789">
        <ele>152.7</ele>
        <time>2020-06-25T11:55:03Z</time>
      </trkpt>
      <trkpt lat="49.69222" lon="4.93795">
        <ele>152.7</ele>
        <time>2020-06-25T11:55:04Z</time>
      </trkpt>
      <trkpt lat="49.69217" lon="4.93802">
        <ele>152.7</ele>
        <time>2020-06-25T11:55:05Z</time>
      </trkpt>
      <trkpt lat="49.69212" lon="4.93808">
        <ele>152.6</ele>
        <time>2020-06-25T11:55:06Z</time>
      </trkpt>
      <trkpt lat="49.69207" lon="4.93813">
        <ele>152.6</ele>
        <time>2020-06-25T11:55:07Z</time>
      </trkpt>
      <trkpt lat="49.69202" lon="4.93819">
        <ele>152.5</ele>
        <time>2020-06-25T11:55:08Z</time>
      </trkpt>
      <trkpt lat="49.69198" lon="4.93826">
        <ele>152.5</ele>
        <time>2020-06-25T11:55:09Z</time>
      </trkpt>
      <trkpt lat="49.69194" lon="4.93831">
        <ele>152.5</ele>
        <time>2020-06-25T11:55:10Z</time>
      </trkpt>
      <trkpt lat="49.6919" lon="4.93836">
        <ele>152.5</ele>
        <time>2020-06-25T11:55:11Z</time>
      </trkpt>
      <trkpt lat="49.69186" lon="4.9384">
        <ele>152.5</ele>
        <time>2020-06-25T11:55:12Z</time>
      </trkpt>
      <trkpt lat="49.69182" lon="4.93843">
        <ele>152.5</ele>
        <time>2020-06-25T11:55:13Z</time>
      </trkpt>
      <trkpt lat="49.69178" lon="4.93846">
        <ele>152.5</ele>
        <time>2020-06-25T11:55:14Z</time>
      </trkpt>
      <trkpt lat="49.69173" lon="4.93851">
        <ele>152.5</ele>
        <time>2020-06-25T11:55:15Z</time>
      </trkpt>
      <trkpt lat="49.69169" lon="4.93855">
        <ele>152.5</ele>
        <time>2020-06-25T11:55:16Z</time>
      </trkpt>
      <trkpt lat="49.69165" lon="4.93859">
        <ele>152.5</ele>
        <time>2020-06-25T11:55:17Z</time>
      </trkpt>
      <trkpt lat="49.6916" lon="4.93863">
        <ele>152.5</ele>
        <time>2020-06-25T11:55:18Z</time>
      </trkpt>
      <trkpt lat="49.69155" lon="4.93868">
        <ele>152.5</ele>
        <time>2020-06-25T11:55:19Z</time>
      </trkpt>
      <trkpt lat="49.69151" lon="4.93873">
        <ele>152.5</ele>
        <time>2020-06-25T11:55:20Z</time>
      </trkpt>
      <trkpt lat="49.69147" lon="4.93878">
        <ele>152.5</ele>
        <time>2020-06-25T11:55:21Z</time>
      </trkpt>
      <trkpt lat="49.69143" lon="4.93885">
        <ele>152.5</ele>
        <time>2020-06-25T11:55:22Z</time>
      </trkpt>
      <trkpt lat="49.6914" lon="4.93891">
        <ele>152.5</ele>
        <time>2020-06-25T11:55:23Z</time>
      </trkpt>
      <trkpt lat="49.69136" lon="4.93898">
        <ele>152.5</ele>
        <time>2020-06-25T11:55:24Z</time>
      </trkpt>
      <trkpt lat="49.69132" lon="4.93903">
        <ele>152.5</ele>
        <time>2020-06-25T11:55:25Z</time>
      </trkpt>
      <trkpt lat="49.69128" lon="4.93909">
        <ele>152.5</ele>
        <time>2020-06-25T11:55:26Z</time>
      </trkpt>
      <trkpt lat="49.69124" lon="4.93914">
        <ele>152.5</ele>
        <time>2020-06-25T11:55:27Z</time>
      </trkpt>
      <trkpt lat="49.6912" lon="4.93921">
        <ele>152.5</ele>
        <time>2020-06-25T11:55:28Z</time>
      </trkpt>
      <trkpt lat="49.69115" lon="4.93928">
        <ele>152.5</ele>
        <time>2020-06-25T11:55:29Z</time>
      </trkpt>
      <trkpt lat="49.69109" lon="4.93936">
        <ele>152.5</ele>
        <time>2020-06-25T11:55:30Z</time>
      </trkpt>
      <trkpt lat="49.69105" lon="4.93942">
        <ele>152.5</ele>
        <time>2020-06-25T11:55:31Z</time>
      </trkpt>
      <trkpt lat="49.69101" lon="4.93948">
        <ele>152.5</ele>
        <time>2020-06-25T11:55:32Z</time>
      </trkpt>
      <trkpt lat="49.69098" lon="4.93954">
        <ele>152.5</ele>
        <time>2020-06-25T11:55:33Z</time>
      </trkpt>
      <trkpt lat="49.69094" lon="4.9396">
        <ele>152.5</ele>
        <time>2020-06-25T11:55:34Z</time>
      </trkpt>
      <trkpt lat="49.69091" lon="4.93965">
        <ele>152.5</ele>
        <time>2020-06-25T11:55:35Z</time>
      </trkpt>
      <trkpt lat="49.69087" lon="4.93971">
        <ele>152.5</ele>
        <time>2020-06-25T11:55:36Z</time>
      </trkpt>
      <trkpt lat="49.69084" lon="4.93977">
        <ele>152.5</ele>
        <time>2020-06-25T11:55:37Z</time>
      </trkpt>
      <trkpt lat="49.6908" lon="4.93984">
        <ele>152.5</ele>
        <time>2020-06-25T11:55:38Z</time>
      </trkpt>
      <trkpt lat="49.69076" lon="4.93991">
        <ele>152.5</ele>
        <time>2020-06-25T11:55:39Z</time>
      </trkpt>
      <trkpt lat="49.69072" lon="4.93998">
        <ele>152.4</ele>
        <time>2020-06-25T11:55:40Z</time>
      </trkpt>
      <trkpt lat="49.69068" lon="4.94007">
        <ele>152.4</ele>
        <time>2020-06-25T11:55:41Z</time>
      </trkpt>
      <trkpt lat="49.69063" lon="4.94014">
        <ele>152.3</ele>
        <time>2020-06-25T11:55:42Z</time>
      </trkpt>
      <trkpt lat="49.69059" lon="4.94022">
        <ele>152.3</ele>
        <time>2020-06-25T11:55:43Z</time>
      </trkpt>
      <trkpt lat="49.69056" lon="4.9403">
        <ele>152.2</ele>
        <time>2020-06-25T11:55:44Z</time>
      </trkpt>
      <trkpt lat="49.69052" lon="4.94037">
        <ele>152.1</ele>
        <time>2020-06-25T11:55:45Z</time>
      </trkpt>
      <trkpt lat="49.69048" lon="4.94045">
        <ele>152.1</ele>
        <time>2020-06-25T11:55:46Z</time>
      </trkpt>
      <trkpt lat="49.69044" lon="4.94054">
        <ele>152</ele>
        <time>2020-06-25T11:55:47Z</time>
      </trkpt>
      <trkpt lat="49.6904" lon="4.94061">
        <ele>151.9</ele>
        <time>2020-06-25T11:55:48Z</time>
      </trkpt>
      <trkpt lat="49.69036" lon="4.94069">
        <ele>151.8</ele>
        <time>2020-06-25T11:55:49Z</time>
      </trkpt>
      <trkpt lat="49.69031" lon="4.94078">
        <ele>151.8</ele>
        <time>2020-06-25T11:55:50Z</time>
      </trkpt>
      <trkpt lat="49.69026" lon="4.94087">
        <ele>151.7</ele>
        <time>2020-06-25T11:55:51Z</time>
      </trkpt>
      <trkpt lat="49.69022" lon="4.94097">
        <ele>151.6</ele>
        <time>2020-06-25T11:55:52Z</time>
      </trkpt>
      <trkpt lat="49.69018" lon="4.94107">
        <ele>151.5</ele>
        <time>2020-06-25T11:55:53Z</time>
      </trkpt>
      <trkpt lat="49.69014" lon="4.94119">
        <ele>151.5</ele>
        <time>2020-06-25T11:55:54Z</time>
      </trkpt>
      <trkpt lat="49.6901" lon="4.94128">
        <ele>151.5</ele>
        <time>2020-06-25T11:55:55Z</time>
      </trkpt>
      <trkpt lat="49.69006" lon="4.9414">
        <ele>151.5</ele>
        <time>2020-06-25T11:55:56Z</time>
      </trkpt>
      <trkpt lat="49.69003" lon="4.94149">
        <ele>151.4</ele>
        <time>2020-06-25T11:55:57Z</time>
      </trkpt>
      <trkpt lat="49.68999" lon="4.94156">
        <ele>151.4</ele>
        <time>2020-06-25T11:55:58Z</time>
      </trkpt>
      <trkpt lat="49.68994" lon="4.94164">
        <ele>151.4</ele>
        <time>2020-06-25T11:55:59Z</time>
      </trkpt>
      <trkpt lat="49.6899" lon="4.94171">
        <ele>151.4</ele>
        <time>2020-06-25T11:56:00Z</time>
      </trkpt>
      <trkpt lat="49.68986" lon="4.94179">
        <ele>151.4</ele>
        <time>2020-06-25T11:56:01Z</time>
      </trkpt>
      <trkpt lat="49.68981" lon="4.94186">
        <ele>151.5</ele>
        <time>2020-06-25T11:56:02Z</time>
      </trkpt>
      <trkpt lat="49.68976" lon="4.94193">
        <ele>151.5</ele>
        <time>2020-06-25T11:56:03Z</time>
      </trkpt>
      <trkpt lat="49.68971" lon="4.942">
        <ele>151.5</ele>
        <time>2020-06-25T11:56:04Z</time>
      </trkpt>
      <trkpt lat="49.68966" lon="4.94208">
        <ele>151.5</ele>
        <time>2020-06-25T11:56:05Z</time>
      </trkpt>
      <trkpt lat="49.6896" lon="4.94215">
        <ele>151.5</ele>
        <time>2020-06-25T11:56:06Z</time>
      </trkpt>
      <trkpt lat="49.68956" lon="4.94221">
        <ele>151.5</ele>
        <time>2020-06-25T11:56:07Z</time>
      </trkpt>
      <trkpt lat="49.68951" lon="4.94226">
        <ele>151.5</ele>
        <time>2020-06-25T11:56:08Z</time>
      </trkpt>
      <trkpt lat="49.68945" lon="4.94231">
        <ele>151.5</ele>
        <time>2020-06-25T11:56:09Z</time>
      </trkpt>
      <trkpt lat="49.6894" lon="4.94236">
        <ele>151.6</ele>
        <time>2020-06-25T11:56:10Z</time>
      </trkpt>
      <trkpt lat="49.68935" lon="4.94241">
        <ele>151.6</ele>
        <time>2020-06-25T11:56:11Z</time>
      </trkpt>
      <trkpt lat="49.6893" lon="4.94245">
        <ele>151.6</ele>
        <time>2020-06-25T11:56:12Z</time>
      </trkpt>
      <trkpt lat="49.68924" lon="4.9425">
        <ele>151.6</ele>
        <time>2020-06-25T11:56:13Z</time>
      </trkpt>
      <trkpt lat="49.68919" lon="4.94254">
        <ele>151.6</ele>
        <time>2020-06-25T11:56:14Z</time>
      </trkpt>
      <trkpt lat="49.68914" lon="4.94258">
        <ele>151.7</ele>
        <time>2020-06-25T11:56:15Z</time>
      </trkpt>
      <trkpt lat="49.68907" lon="4.94263">
        <ele>151.7</ele>
        <time>2020-06-25T11:56:16Z</time>
      </trkpt>
      <trkpt lat="49.68901" lon="4.94267">
        <ele>151.7</ele>
        <time>2020-06-25T11:56:17Z</time>
      </trkpt>
      <trkpt lat="49.68895" lon="4.94271">
        <ele>151.7</ele>
        <time>2020-06-25T11:56:18Z</time>
      </trkpt>
      <trkpt lat="49.68888" lon="4.94274">
        <ele>151.7</ele>
        <time>2020-06-25T11:56:19Z</time>
      </trkpt>
      <trkpt lat="49.68882" lon="4.94278">
        <ele>151.7</ele>
        <time>2020-06-25T11:56:20Z</time>
      </trkpt>
      <trkpt lat="49.68875" lon="4.94281">
        <ele>151.7</ele>
        <time>2020-06-25T11:56:21Z</time>
      </trkpt>
      <trkpt lat="49.68869" lon="4.94285">
        <ele>151.7</ele>
        <time>2020-06-25T11:56:22Z</time>
      </trkpt>
      <trkpt lat="49.68864" lon="4.94289">
        <ele>151.7</ele>
        <time>2020-06-25T11:56:23Z</time>
      </trkpt>
      <trkpt lat="49.68857" lon="4.94293">
        <ele>151.7</ele>
        <time>2020-06-25T11:56:24Z</time>
      </trkpt>
      <trkpt lat="49.68851" lon="4.94297">
        <ele>151.7</ele>
        <time>2020-06-25T11:56:25Z</time>
      </trkpt>
      <trkpt lat="49.68845" lon="4.943">
        <ele>151.7</ele>
        <time>2020-06-25T11:56:26Z</time>
      </trkpt>
      <trkpt lat="49.68839" lon="4.94303">
        <ele>151.7</ele>
        <time>2020-06-25T11:56:27Z</time>
      </trkpt>
      <trkpt lat="49.68833" lon="4.94307">
        <ele>151.6</ele>
        <time>2020-06-25T11:56:28Z</time>
      </trkpt>
      <trkpt lat="49.68827" lon="4.9431">
        <ele>151.6</ele>
        <time>2020-06-25T11:56:29Z</time>
      </trkpt>
      <trkpt lat="49.6882" lon="4.94312">
        <ele>151.6</ele>
        <time>2020-06-25T11:56:30Z</time>
      </trkpt>
      <trkpt lat="49.68815" lon="4.94316">
        <ele>151.6</ele>
        <time>2020-06-25T11:56:31Z</time>
      </trkpt>
      <trkpt lat="49.68809" lon="4.94319">
        <ele>151.6</ele>
        <time>2020-06-25T11:56:32Z</time>
      </trkpt>
      <trkpt lat="49.68803" lon="4.9432">
        <ele>151.7</ele>
        <time>2020-06-25T11:56:33Z</time>
      </trkpt>
      <trkpt lat="49.68798" lon="4.94321">
        <ele>151.7</ele>
        <time>2020-06-25T11:56:34Z</time>
      </trkpt>
      <trkpt lat="49.68793" lon="4.94322">
        <ele>151.7</ele>
        <time>2020-06-25T11:56:35Z</time>
      </trkpt>
      <trkpt lat="49.68788" lon="4.94322">
        <ele>151.7</ele>
        <time>2020-06-25T11:56:36Z</time>
      </trkpt>
      <trkpt lat="49.68782" lon="4.94322">
        <ele>151.7</ele>
        <time>2020-06-25T11:56:37Z</time>
      </trkpt>
      <trkpt lat="49.68775" lon="4.94323">
        <ele>151.7</ele>
        <time>2020-06-25T11:56:38Z</time>
      </trkpt>
      <trkpt lat="49.68768" lon="4.94324">
        <ele>151.6</ele>
        <time>2020-06-25T11:56:39Z</time>
      </trkpt>
      <trkpt lat="49.6876" lon="4.94326">
        <ele>151.6</ele>
        <time>2020-06-25T11:56:40Z</time>
      </trkpt>
      <trkpt lat="49.68754" lon="4.9433">
        <ele>151.6</ele>
        <time>2020-06-25T11:56:41Z</time>
      </trkpt>
      <trkpt lat="49.68747" lon="4.94332">
        <ele>151.5</ele>
        <time>2020-06-25T11:56:42Z</time>
      </trkpt>
      <trkpt lat="49.68741" lon="4.94335">
        <ele>151.5</ele>
        <time>2020-06-25T11:56:43Z</time>
      </trkpt>
      <trkpt lat="49.68736" lon="4.94337">
        <ele>151.4</ele>
        <time>2020-06-25T11:56:44Z</time>
      </trkpt>
      <trkpt lat="49.6873" lon="4.94339">
        <ele>151.4</ele>
        <time>2020-06-25T11:56:45Z</time>
      </trkpt>
      <trkpt lat="49.68725" lon="4.9434">
        <ele>151.4</ele>
        <time>2020-06-25T11:56:46Z</time>
      </trkpt>
      <trkpt lat="49.68719" lon="4.94342">
        <ele>151.3</ele>
        <time>2020-06-25T11:56:47Z</time>
      </trkpt>
      <trkpt lat="49.68713" lon="4.94343">
        <ele>151.3</ele>
        <time>2020-06-25T11:56:48Z</time>
      </trkpt>
      <trkpt lat="49.68705" lon="4.94345">
        <ele>151.2</ele>
        <time>2020-06-25T11:56:49Z</time>
      </trkpt>
      <trkpt lat="49.68698" lon="4.94345">
        <ele>151.2</ele>
        <time>2020-06-25T11:56:50Z</time>
      </trkpt>
      <trkpt lat="49.68691" lon="4.94346">
        <ele>151.2</ele>
        <time>2020-06-25T11:56:51Z</time>
      </trkpt>
      <trkpt lat="49.68685" lon="4.94347">
        <ele>151.2</ele>
        <time>2020-06-25T11:56:52Z</time>
      </trkpt>
      <trkpt lat="49.68678" lon="4.94347">
        <ele>151.2</ele>
        <time>2020-06-25T11:56:53Z</time>
      </trkpt>
      <trkpt lat="49.6867" lon="4.94348">
        <ele>151.3</ele>
        <time>2020-06-25T11:56:54Z</time>
      </trkpt>
      <trkpt lat="49.68663" lon="4.94349">
        <ele>151.3</ele>
        <time>2020-06-25T11:56:55Z</time>
      </trkpt>
      <trkpt lat="49.68656" lon="4.9435">
        <ele>151.3</ele>
        <time>2020-06-25T11:56:56Z</time>
      </trkpt>
      <trkpt lat="49.68651" lon="4.94351">
        <ele>151.3</ele>
        <time>2020-06-25T11:56:57Z</time>
      </trkpt>
      <trkpt lat="49.68645" lon="4.94353">
        <ele>151.3</ele>
        <time>2020-06-25T11:56:58Z</time>
      </trkpt>
      <trkpt lat="49.68639" lon="4.94355">
        <ele>151.3</ele>
        <time>2020-06-25T11:56:59Z</time>
      </trkpt>
      <trkpt lat="49.68632" lon="4.94357">
        <ele>151.3</ele>
        <time>2020-06-25T11:57:00Z</time>
      </trkpt>
      <trkpt lat="49.68626" lon="4.94359">
        <ele>151.3</ele>
        <time>2020-06-25T11:57:01Z</time>
      </trkpt>
      <trkpt lat="49.6862" lon="4.94359">
        <ele>151.3</ele>
        <time>2020-06-25T11:57:02Z</time>
      </trkpt>
      <trkpt lat="49.68614" lon="4.9436">
        <ele>151.2</ele>
        <time>2020-06-25T11:57:03Z</time>
      </trkpt>
      <trkpt lat="49.68608" lon="4.94362">
        <ele>151.2</ele>
        <time>2020-06-25T11:57:04Z</time>
      </trkpt>
      <trkpt lat="49.68601" lon="4.94363">
        <ele>151.2</ele>
        <time>2020-06-25T11:57:05Z</time>
      </trkpt>
      <trkpt lat="49.68595" lon="4.94365">
        <ele>151.1</ele>
        <time>2020-06-25T11:57:06Z</time>
      </trkpt>
      <trkpt lat="49.68589" lon="4.94367">
        <ele>151.1</ele>
        <time>2020-06-25T11:57:07Z</time>
      </trkpt>
      <trkpt lat="49.68583" lon="4.94367">
        <ele>151.1</ele>
        <time>2020-06-25T11:57:08Z</time>
      </trkpt>
      <trkpt lat="49.68578" lon="4.94367">
        <ele>151.1</ele>
        <time>2020-06-25T11:57:09Z</time>
      </trkpt>
      <trkpt lat="49.68573" lon="4.94367">
        <ele>151.1</ele>
        <time>2020-06-25T11:57:10Z</time>
      </trkpt>
      <trkpt lat="49.68568" lon="4.94367">
        <ele>151.1</ele>
        <time>2020-06-25T11:57:11Z</time>
      </trkpt>
      <trkpt lat="49.68563" lon="4.94365">
        <ele>151.1</ele>
        <time>2020-06-25T11:57:12Z</time>
      </trkpt>
      <trkpt lat="49.68556" lon="4.94365">
        <ele>151.1</ele>
        <time>2020-06-25T11:57:13Z</time>
      </trkpt>
      <trkpt lat="49.68549" lon="4.94368">
        <ele>151.1</ele>
        <time>2020-06-25T11:57:14Z</time>
      </trkpt>
      <trkpt lat="49.68543" lon="4.94371">
        <ele>151.1</ele>
        <time>2020-06-25T11:57:15Z</time>
      </trkpt>
      <trkpt lat="49.68538" lon="4.94375">
        <ele>151.1</ele>
        <time>2020-06-25T11:57:16Z</time>
      </trkpt>
      <trkpt lat="49.68533" lon="4.94379">
        <ele>151.1</ele>
        <time>2020-06-25T11:57:17Z</time>
      </trkpt>
      <trkpt lat="49.6853" lon="4.94383">
        <ele>151.1</ele>
        <time>2020-06-25T11:57:18Z</time>
      </trkpt>
      <trkpt lat="49.68525" lon="4.94387">
        <ele>151.1</ele>
        <time>2020-06-25T11:57:19Z</time>
      </trkpt>
      <trkpt lat="49.6852" lon="4.94391">
        <ele>151.2</ele>
        <time>2020-06-25T11:57:20Z</time>
      </trkpt>
      <trkpt lat="49.68513" lon="4.94395">
        <ele>151.2</ele>
        <time>2020-06-25T11:57:21Z</time>
      </trkpt>
      <trkpt lat="49.68507" lon="4.94399">
        <ele>151.2</ele>
        <time>2020-06-25T11:57:22Z</time>
      </trkpt>
      <trkpt lat="49.68502" lon="4.94402">
        <ele>151.2</ele>
        <time>2020-06-25T11:57:23Z</time>
      </trkpt>
      <trkpt lat="49.68497" lon="4.94405">
        <ele>151.2</ele>
        <time>2020-06-25T11:57:24Z</time>
      </trkpt>
      <trkpt lat="49.68493" lon="4.94406">
        <ele>151.1</ele>
        <time>2020-06-25T11:57:25Z</time>
      </trkpt>
      <trkpt lat="49.68489" lon="4.94406">
        <ele>151.1</ele>
        <time>2020-06-25T11:57:26Z</time>
      </trkpt>
      <trkpt lat="49.68483" lon="4.94409">
        <ele>151.1</ele>
        <time>2020-06-25T11:57:27Z</time>
      </trkpt>
      <trkpt lat="49.68477" lon="4.9441">
        <ele>151.1</ele>
        <time>2020-06-25T11:57:28Z</time>
      </trkpt>
      <trkpt lat="49.68472" lon="4.94412">
        <ele>151.1</ele>
        <time>2020-06-25T11:57:29Z</time>
      </trkpt>
      <trkpt lat="49.68467" lon="4.94414">
        <ele>151.1</ele>
        <time>2020-06-25T11:57:30Z</time>
      </trkpt>
      <trkpt lat="49.68461" lon="4.94416">
        <ele>151.1</ele>
        <time>2020-06-25T11:57:31Z</time>
      </trkpt>
      <trkpt lat="49.68455" lon="4.94417">
        <ele>151.2</ele>
        <time>2020-06-25T11:57:32Z</time>
      </trkpt>
      <trkpt lat="49.68449" lon="4.94419">
        <ele>151.2</ele>
        <time>2020-06-25T11:57:33Z</time>
      </trkpt>
      <trkpt lat="49.68442" lon="4.94421">
        <ele>151.2</ele>
        <time>2020-06-25T11:57:34Z</time>
      </trkpt>
      <trkpt lat="49.68436" lon="4.94422">
        <ele>151.2</ele>
        <time>2020-06-25T11:57:35Z</time>
      </trkpt>
      <trkpt lat="49.68429" lon="4.94426">
        <ele>151.2</ele>
        <time>2020-06-25T11:57:36Z</time>
      </trkpt>
      <trkpt lat="49.68423" lon="4.94429">
        <ele>151.2</ele>
        <time>2020-06-25T11:57:37Z</time>
      </trkpt>
      <trkpt lat="49.68418" lon="4.94431">
        <ele>151.2</ele>
        <time>2020-06-25T11:57:38Z</time>
      </trkpt>
      <trkpt lat="49.68413" lon="4.94434">
        <ele>151.2</ele>
        <time>2020-06-25T11:57:39Z</time>
      </trkpt>
      <trkpt lat="49.68406" lon="4.94435">
        <ele>151.2</ele>
        <time>2020-06-25T11:57:40Z</time>
      </trkpt>
      <trkpt lat="49.68401" lon="4.94438">
        <ele>151.2</ele>
        <time>2020-06-25T11:57:41Z</time>
      </trkpt>
      <trkpt lat="49.68396" lon="4.9444">
        <ele>151.2</ele>
        <time>2020-06-25T11:57:42Z</time>
      </trkpt>
      <trkpt lat="49.6839" lon="4.94442">
        <ele>151.2</ele>
        <time>2020-06-25T11:57:43Z</time>
      </trkpt>
      <trkpt lat="49.68385" lon="4.94443">
        <ele>151.2</ele>
        <time>2020-06-25T11:57:44Z</time>
      </trkpt>
      <trkpt lat="49.68381" lon="4.94444">
        <ele>151.2</ele>
        <time>2020-06-25T11:57:45Z</time>
      </trkpt>
      <trkpt lat="49.68379" lon="4.94444">
        <ele>151.2</ele>
        <time>2020-06-25T11:57:46Z</time>
      </trkpt>
      <trkpt lat="49.68378" lon="4.94443">
        <ele>151.2</ele>
        <time>2020-06-25T11:57:47Z</time>
      </trkpt>
      <trkpt lat="49.68378" lon="4.94443">
        <ele>151.2</ele>
        <time>2020-06-25T11:57:48Z</time>
      </trkpt>
      <trkpt lat="49.68378" lon="4.94443">
        <ele>151.2</ele>
        <time>2020-06-25T11:57:49Z</time>
      </trkpt>
      <trkpt lat="49.68378" lon="4.94443">
        <ele>151.2</ele>
        <time>2020-06-25T11:57:50Z</time>
      </trkpt>
      <trkpt lat="49.68379" lon="4.94445">
        <ele>151.2</ele>
        <time>2020-06-25T11:57:51Z</time>
      </trkpt>
      <trkpt lat="49.68379" lon="4.94445">
        <ele>151.2</ele>
        <time>2020-06-25T11:57:52Z</time>
      </trkpt>
      <trkpt lat="49.68379" lon="4.94446">
        <ele>151.2</ele>
        <time>2020-06-25T11:57:53Z</time>
      </trkpt>
      <trkpt lat="49.6838" lon="4.94448">
        <ele>151.2</ele>
        <time>2020-06-25T11:57:54Z</time>
      </trkpt>
      <trkpt lat="49.68383" lon="4.94447">
        <ele>151.2</ele>
        <time>2020-06-25T11:57:55Z</time>
      </trkpt>
      <trkpt lat="49.68384" lon="4.94447">
        <ele>151.2</ele>
        <time>2020-06-25T11:57:56Z</time>
      </trkpt>
      <trkpt lat="49.68387" lon="4.94446">
        <ele>151.2</ele>
        <time>2020-06-25T11:57:57Z</time>
      </trkpt>
      <trkpt lat="49.6839" lon="4.94447">
        <ele>151.2</ele>
        <time>2020-06-25T11:57:58Z</time>
      </trkpt>
      <trkpt lat="49.68392" lon="4.94447">
        <ele>151.2</ele>
        <time>2020-06-25T11:57:59Z</time>
      </trkpt>
      <trkpt lat="49.68393" lon="4.94446">
        <ele>151.2</ele>
        <time>2020-06-25T11:58:00Z</time>
      </trkpt>
      <trkpt lat="49.68394" lon="4.94447">
        <ele>151.2</ele>
        <time>2020-06-25T11:58:01Z</time>
      </trkpt>
      <trkpt lat="49.68393" lon="4.94448">
        <ele>151.2</ele>
        <time>2020-06-25T11:58:02Z</time>
      </trkpt>
      <trkpt lat="49.68393" lon="4.94446">
        <ele>151.2</ele>
        <time>2020-06-25T11:58:03Z</time>
      </trkpt>
      <trkpt lat="49.68393" lon="4.94447">
        <ele>151.2</ele>
        <time>2020-06-25T11:58:04Z</time>
      </trkpt>
      <trkpt lat="49.68393" lon="4.94447">
        <ele>151.2</ele>
        <time>2020-06-25T11:58:05Z</time>
      </trkpt>
      <trkpt lat="49.68394" lon="4.94448">
        <ele>151.2</ele>
        <time>2020-06-25T11:58:06Z</time>
      </trkpt>
      <trkpt lat="49.68394" lon="4.94447">
        <ele>151.2</ele>
        <time>2020-06-25T11:58:07Z</time>
      </trkpt>
      <trkpt lat="49.68394" lon="4.94447">
        <ele>151.2</ele>
        <time>2020-06-25T11:58:08Z</time>
      </trkpt>
      <trkpt lat="49.68394" lon="4.94447">
        <ele>151.2</ele>
        <time>2020-06-25T11:58:09Z</time>
      </trkpt>
      <trkpt lat="49.68394" lon="4.94446">
        <ele>151.2</ele>
        <time>2020-06-25T11:58:10Z</time>
      </trkpt>
      <trkpt lat="49.68395" lon="4.94445">
        <ele>151.2</ele>
        <time>2020-06-25T11:58:11Z</time>
      </trkpt>
      <trkpt lat="49.68395" lon="4.94445">
        <ele>151.2</ele>
        <time>2020-06-25T11:58:12Z</time>
      </trkpt>
      <trkpt lat="49.68389" lon="4.94442">
        <ele>151.2</ele>
        <time>2020-06-25T14:41:26Z</time>
      </trkpt>
      <trkpt lat="49.68385" lon="4.94443">
        <ele>151.2</ele>
        <time>2020-06-25T14:41:27Z</time>
      </trkpt>
      <trkpt lat="49.6838" lon="4.94445">
        <ele>151.2</ele>
        <time>2020-06-25T14:41:28Z</time>
      </trkpt>
      <trkpt lat="49.68376" lon="4.94446">
        <ele>151.2</ele>
        <time>2020-06-25T14:41:29Z</time>
      </trkpt>
      <trkpt lat="49.68372" lon="4.94448">
        <ele>151.2</ele>
        <time>2020-06-25T14:41:30Z</time>
      </trkpt>
      <trkpt lat="49.68367" lon="4.94449">
        <ele>151.2</ele>
        <time>2020-06-25T14:41:31Z</time>
      </trkpt>
      <trkpt lat="49.68362" lon="4.94451">
        <ele>151.2</ele>
        <time>2020-06-25T14:41:32Z</time>
      </trkpt>
      <trkpt lat="49.68358" lon="4.94452">
        <ele>151.2</ele>
        <time>2020-06-25T14:41:33Z</time>
      </trkpt>
      <trkpt lat="49.68354" lon="4.94453">
        <ele>151.2</ele>
        <time>2020-06-25T14:41:34Z</time>
      </trkpt>
      <trkpt lat="49.6835" lon="4.94454">
        <ele>151.2</ele>
        <time>2020-06-25T14:41:35Z</time>
      </trkpt>
      <trkpt lat="49.68346" lon="4.94455">
        <ele>151.2</ele>
        <time>2020-06-25T14:41:36Z</time>
      </trkpt>
      <trkpt lat="49.68343" lon="4.94457">
        <ele>151.2</ele>
        <time>2020-06-25T14:41:37Z</time>
      </trkpt>
      <trkpt lat="49.68339" lon="4.94457">
        <ele>151.2</ele>
        <time>2020-06-25T14:41:38Z</time>
      </trkpt>
      <trkpt lat="49.68335" lon="4.94459">
        <ele>151.2</ele>
        <time>2020-06-25T14:41:39Z</time>
      </trkpt>
      <trkpt lat="49.68331" lon="4.9446">
        <ele>151.2</ele>
        <time>2020-06-25T14:41:40Z</time>
      </trkpt>
      <trkpt lat="49.68328" lon="4.94461">
        <ele>151.2</ele>
        <time>2020-06-25T14:41:41Z</time>
      </trkpt>
      <trkpt lat="49.68323" lon="4.94462">
        <ele>151.2</ele>
        <time>2020-06-25T14:41:42Z</time>
      </trkpt>
      <trkpt lat="49.68318" lon="4.94464">
        <ele>151.2</ele>
        <time>2020-06-25T14:41:43Z</time>
      </trkpt>
      <trkpt lat="49.68314" lon="4.94465">
        <ele>151.2</ele>
        <time>2020-06-25T14:41:44Z</time>
      </trkpt>
      <trkpt lat="49.68309" lon="4.94466">
        <ele>151.2</ele>
        <time>2020-06-25T14:41:45Z</time>
      </trkpt>
      <trkpt lat="49.68306" lon="4.94468">
        <ele>151.2</ele>
        <time>2020-06-25T14:41:46Z</time>
      </trkpt>
      <trkpt lat="49.68302" lon="4.94469">
        <ele>151.2</ele>
        <time>2020-06-25T14:41:47Z</time>
      </trkpt>
      <trkpt lat="49.68297" lon="4.9447">
        <ele>151.2</ele>
        <time>2020-06-25T14:41:48Z</time>
      </trkpt>
      <trkpt lat="49.68293" lon="4.9447">
        <ele>151.2</ele>
        <time>2020-06-25T14:41:49Z</time>
      </trkpt>
      <trkpt lat="49.68289" lon="4.94471">
        <ele>151.2</ele>
        <time>2020-06-25T14:41:50Z</time>
      </trkpt>
      <trkpt lat="49.68286" lon="4.94472">
        <ele>151.2</ele>
        <time>2020-06-25T14:41:51Z</time>
      </trkpt>
      <trkpt lat="49.68283" lon="4.94473">
        <ele>151.3</ele>
        <time>2020-06-25T14:41:52Z</time>
      </trkpt>
      <trkpt lat="49.68279" lon="4.94473">
        <ele>151.3</ele>
        <time>2020-06-25T14:41:53Z</time>
      </trkpt>
      <trkpt lat="49.68275" lon="4.94473">
        <ele>151.3</ele>
        <time>2020-06-25T14:41:54Z</time>
      </trkpt>
      <trkpt lat="49.68272" lon="4.94474">
        <ele>151.3</ele>
        <time>2020-06-25T14:41:55Z</time>
      </trkpt>
      <trkpt lat="49.68268" lon="4.94475">
        <ele>151.3</ele>
        <time>2020-06-25T14:41:56Z</time>
      </trkpt>
      <trkpt lat="49.68265" lon="4.94476">
        <ele>151.3</ele>
        <time>2020-06-25T14:41:57Z</time>
      </trkpt>
      <trkpt lat="49.68261" lon="4.94477">
        <ele>151.3</ele>
        <time>2020-06-25T14:41:58Z</time>
      </trkpt>
      <trkpt lat="49.68257" lon="4.94477">
        <ele>151.3</ele>
        <time>2020-06-25T14:41:59Z</time>
      </trkpt>
      <trkpt lat="49.68254" lon="4.94477">
        <ele>151.3</ele>
        <time>2020-06-25T14:42:00Z</time>
      </trkpt>
      <trkpt lat="49.68251" lon="4.94478">
        <ele>151.3</ele>
        <time>2020-06-25T14:42:01Z</time>
      </trkpt>
      <trkpt lat="49.68248" lon="4.9448">
        <ele>151.3</ele>
        <time>2020-06-25T14:42:02Z</time>
      </trkpt>
      <trkpt lat="49.68244" lon="4.9448">
        <ele>151.3</ele>
        <time>2020-06-25T14:42:03Z</time>
      </trkpt>
      <trkpt lat="49.68241" lon="4.94481">
        <ele>151.3</ele>
        <time>2020-06-25T14:42:04Z</time>
      </trkpt>
      <trkpt lat="49.68238" lon="4.94483">
        <ele>151.3</ele>
        <time>2020-06-25T14:42:05Z</time>
      </trkpt>
      <trkpt lat="49.68234" lon="4.94484">
        <ele>151.3</ele>
        <time>2020-06-25T14:42:06Z</time>
      </trkpt>
      <trkpt lat="49.68231" lon="4.94486">
        <ele>151.3</ele>
        <time>2020-06-25T14:42:07Z</time>
      </trkpt>
      <trkpt lat="49.68227" lon="4.94487">
        <ele>151.4</ele>
        <time>2020-06-25T14:42:08Z</time>
      </trkpt>
      <trkpt lat="49.68223" lon="4.94489">
        <ele>151.4</ele>
        <time>2020-06-25T14:42:09Z</time>
      </trkpt>
      <trkpt lat="49.68219" lon="4.94491">
        <ele>151.4</ele>
        <time>2020-06-25T14:42:10Z</time>
      </trkpt>
      <trkpt lat="49.68215" lon="4.94491">
        <ele>151.4</ele>
        <time>2020-06-25T14:42:11Z</time>
      </trkpt>
      <trkpt lat="49.68211" lon="4.94492">
        <ele>151.3</ele>
        <time>2020-06-25T14:42:12Z</time>
      </trkpt>
      <trkpt lat="49.68206" lon="4.94494">
        <ele>151.3</ele>
        <time>2020-06-25T14:42:13Z</time>
      </trkpt>
      <trkpt lat="49.68202" lon="4.94495">
        <ele>151.3</ele>
        <time>2020-06-25T14:42:14Z</time>
      </trkpt>
      <trkpt lat="49.68198" lon="4.94496">
        <ele>151.3</ele>
        <time>2020-06-25T14:42:15Z</time>
      </trkpt>
      <trkpt lat="49.68193" lon="4.94497">
        <ele>151.3</ele>
        <time>2020-06-25T14:42:16Z</time>
      </trkpt>
      <trkpt lat="49.68189" lon="4.94499">
        <ele>151.3</ele>
        <time>2020-06-25T14:42:17Z</time>
      </trkpt>
      <trkpt lat="49.68185" lon="4.94501">
        <ele>151.3</ele>
        <time>2020-06-25T14:42:18Z</time>
      </trkpt>
      <trkpt lat="49.6818" lon="4.94502">
        <ele>151.3</ele>
        <time>2020-06-25T14:42:19Z</time>
      </trkpt>
      <trkpt lat="49.68176" lon="4.94504">
        <ele>151.3</ele>
        <time>2020-06-25T14:42:20Z</time>
      </trkpt>
      <trkpt lat="49.68172" lon="4.94506">
        <ele>151.3</ele>
        <time>2020-06-25T14:42:21Z</time>
      </trkpt>
      <trkpt lat="49.68168" lon="4.94509">
        <ele>151.2</ele>
        <time>2020-06-25T14:42:22Z</time>
      </trkpt>
      <trkpt lat="49.68163" lon="4.94511">
        <ele>151.2</ele>
        <time>2020-06-25T14:42:23Z</time>
      </trkpt>
      <trkpt lat="49.68158" lon="4.94513">
        <ele>151.2</ele>
        <time>2020-06-25T14:42:24Z</time>
      </trkpt>
      <trkpt lat="49.68153" lon="4.94515">
        <ele>151.2</ele>
        <time>2020-06-25T14:42:25Z</time>
      </trkpt>
      <trkpt lat="49.68148" lon="4.94517">
        <ele>151.2</ele>
        <time>2020-06-25T14:42:26Z</time>
      </trkpt>
      <trkpt lat="49.68144" lon="4.9452">
        <ele>151.2</ele>
        <time>2020-06-25T14:42:27Z</time>
      </trkpt>
      <trkpt lat="49.6814" lon="4.94523">
        <ele>151.2</ele>
        <time>2020-06-25T14:42:28Z</time>
      </trkpt>
      <trkpt lat="49.68136" lon="4.94526">
        <ele>151.2</ele>
        <time>2020-06-25T14:42:29Z</time>
      </trkpt>
      <trkpt lat="49.68132" lon="4.94529">
        <ele>151.3</ele>
        <time>2020-06-25T14:42:30Z</time>
      </trkpt>
      <trkpt lat="49.68128" lon="4.94532">
        <ele>151.3</ele>
        <time>2020-06-25T14:42:31Z</time>
      </trkpt>
      <trkpt lat="49.68124" lon="4.94534">
        <ele>151.3</ele>
        <time>2020-06-25T14:42:32Z</time>
      </trkpt>
      <trkpt lat="49.6812" lon="4.94536">
        <ele>151.3</ele>
        <time>2020-06-25T14:42:33Z</time>
      </trkpt>
      <trkpt lat="49.68116" lon="4.94538">
        <ele>151.3</ele>
        <time>2020-06-25T14:42:34Z</time>
      </trkpt>
      <trkpt lat="49.68113" lon="4.94541">
        <ele>151.3</ele>
        <time>2020-06-25T14:42:35Z</time>
      </trkpt>
      <trkpt lat="49.68108" lon="4.94544">
        <ele>151.3</ele>
        <time>2020-06-25T14:42:36Z</time>
      </trkpt>
      <trkpt lat="49.68104" lon="4.94548">
        <ele>151.3</ele>
        <time>2020-06-25T14:42:37Z</time>
      </trkpt>
      <trkpt lat="49.681" lon="4.9455">
        <ele>151.3</ele>
        <time>2020-06-25T14:42:38Z</time>
      </trkpt>
      <trkpt lat="49.68096" lon="4.94553">
        <ele>151.3</ele>
        <time>2020-06-25T14:42:39Z</time>
      </trkpt>
      <trkpt lat="49.68092" lon="4.94556">
        <ele>151.3</ele>
        <time>2020-06-25T14:42:40Z</time>
      </trkpt>
      <trkpt lat="49.68087" lon="4.94558">
        <ele>151.3</ele>
        <time>2020-06-25T14:42:41Z</time>
      </trkpt>
      <trkpt lat="49.68082" lon="4.94561">
        <ele>151.3</ele>
        <time>2020-06-25T14:42:42Z</time>
      </trkpt>
      <trkpt lat="49.68078" lon="4.94563">
        <ele>151.3</ele>
        <time>2020-06-25T14:42:43Z</time>
      </trkpt>
      <trkpt lat="49.68074" lon="4.94566">
        <ele>151.3</ele>
        <time>2020-06-25T14:42:44Z</time>
      </trkpt>
      <trkpt lat="49.68069" lon="4.94569">
        <ele>151.4</ele>
        <time>2020-06-25T14:42:45Z</time>
      </trkpt>
      <trkpt lat="49.68065" lon="4.94572">
        <ele>151.3</ele>
        <time>2020-06-25T14:42:46Z</time>
      </trkpt>
      <trkpt lat="49.68061" lon="4.94575">
        <ele>151.3</ele>
        <time>2020-06-25T14:42:47Z</time>
      </trkpt>
      <trkpt lat="49.68056" lon="4.94578">
        <ele>151.3</ele>
        <time>2020-06-25T14:42:48Z</time>
      </trkpt>
      <trkpt lat="49.68052" lon="4.94582">
        <ele>151.3</ele>
        <time>2020-06-25T14:42:49Z</time>
      </trkpt>
      <trkpt lat="49.68048" lon="4.94585">
        <ele>151.3</ele>
        <time>2020-06-25T14:42:50Z</time>
      </trkpt>
      <trkpt lat="49.68044" lon="4.94588">
        <ele>151.3</ele>
        <time>2020-06-25T14:42:51Z</time>
      </trkpt>
      <trkpt lat="49.68039" lon="4.94591">
        <ele>151.3</ele>
        <time>2020-06-25T14:42:52Z</time>
      </trkpt>
      <trkpt lat="49.68035" lon="4.94594">
        <ele>151.3</ele>
        <time>2020-06-25T14:42:53Z</time>
      </trkpt>
      <trkpt lat="49.6803" lon="4.94597">
        <ele>151.3</ele>
        <time>2020-06-25T14:42:54Z</time>
      </trkpt>
      <trkpt lat="49.68026" lon="4.946">
        <ele>151.3</ele>
        <time>2020-06-25T14:42:55Z</time>
      </trkpt>
      <trkpt lat="49.68022" lon="4.94604">
        <ele>151.3</ele>
        <time>2020-06-25T14:42:56Z</time>
      </trkpt>
      <trkpt lat="49.68017" lon="4.94607">
        <ele>151.3</ele>
        <time>2020-06-25T14:42:57Z</time>
      </trkpt>
      <trkpt lat="49.68013" lon="4.94611">
        <ele>151.3</ele>
        <time>2020-06-25T14:42:58Z</time>
      </trkpt>
      <trkpt lat="49.68008" lon="4.94614">
        <ele>151.3</ele>
        <time>2020-06-25T14:42:59Z</time>
      </trkpt>
      <trkpt lat="49.68004" lon="4.94618">
        <ele>151.3</ele>
        <time>2020-06-25T14:43:00Z</time>
      </trkpt>
      <trkpt lat="49.68" lon="4.94622">
        <ele>151.3</ele>
        <time>2020-06-25T14:43:01Z</time>
      </trkpt>
      <trkpt lat="49.67995" lon="4.94626">
        <ele>151.3</ele>
        <time>2020-06-25T14:43:02Z</time>
      </trkpt>
      <trkpt lat="49.6799" lon="4.9463">
        <ele>151.3</ele>
        <time>2020-06-25T14:43:03Z</time>
      </trkpt>
      <trkpt lat="49.67986" lon="4.94634">
        <ele>151.3</ele>
        <time>2020-06-25T14:43:04Z</time>
      </trkpt>
      <trkpt lat="49.67981" lon="4.94637">
        <ele>151.3</ele>
        <time>2020-06-25T14:43:05Z</time>
      </trkpt>
      <trkpt lat="49.67977" lon="4.94641">
        <ele>151.3</ele>
        <time>2020-06-25T14:43:06Z</time>
      </trkpt>
      <trkpt lat="49.67973" lon="4.94644">
        <ele>151.3</ele>
        <time>2020-06-25T14:43:07Z</time>
      </trkpt>
      <trkpt lat="49.67969" lon="4.94646">
        <ele>151.3</ele>
        <time>2020-06-25T14:43:08Z</time>
      </trkpt>
      <trkpt lat="49.67965" lon="4.94648">
        <ele>151.3</ele>
        <time>2020-06-25T14:43:09Z</time>
      </trkpt>
      <trkpt lat="49.67962" lon="4.94651">
        <ele>151.3</ele>
        <time>2020-06-25T14:43:10Z</time>
      </trkpt>
      <trkpt lat="49.67957" lon="4.94652">
        <ele>151.3</ele>
        <time>2020-06-25T14:43:11Z</time>
      </trkpt>
      <trkpt lat="49.67952" lon="4.94652">
        <ele>151.3</ele>
        <time>2020-06-25T14:43:12Z</time>
      </trkpt>
      <trkpt lat="49.67947" lon="4.94652">
        <ele>151.3</ele>
        <time>2020-06-25T14:43:13Z</time>
      </trkpt>
      <trkpt lat="49.67942" lon="4.94652">
        <ele>151.3</ele>
        <time>2020-06-25T14:43:14Z</time>
      </trkpt>
      <trkpt lat="49.67937" lon="4.94654">
        <ele>151.4</ele>
        <time>2020-06-25T14:43:15Z</time>
      </trkpt>
      <trkpt lat="49.67932" lon="4.94654">
        <ele>151.4</ele>
        <time>2020-06-25T14:43:16Z</time>
      </trkpt>
      <trkpt lat="49.67927" lon="4.94655">
        <ele>151.4</ele>
        <time>2020-06-25T14:43:17Z</time>
      </trkpt>
      <trkpt lat="49.67923" lon="4.94656">
        <ele>151.4</ele>
        <time>2020-06-25T14:43:18Z</time>
      </trkpt>
      <trkpt lat="49.6792" lon="4.94657">
        <ele>151.4</ele>
        <time>2020-06-25T14:43:19Z</time>
      </trkpt>
      <trkpt lat="49.67916" lon="4.94659">
        <ele>151.4</ele>
        <time>2020-06-25T14:43:20Z</time>
      </trkpt>
      <trkpt lat="49.67912" lon="4.9466">
        <ele>151.4</ele>
        <time>2020-06-25T14:43:21Z</time>
      </trkpt>
      <trkpt lat="49.67906" lon="4.94661">
        <ele>151.4</ele>
        <time>2020-06-25T14:43:22Z</time>
      </trkpt>
      <trkpt lat="49.67901" lon="4.94662">
        <ele>151.4</ele>
        <time>2020-06-25T14:43:23Z</time>
      </trkpt>
      <trkpt lat="49.67896" lon="4.94662">
        <ele>151.4</ele>
        <time>2020-06-25T14:43:24Z</time>
      </trkpt>
      <trkpt lat="49.6789" lon="4.94662">
        <ele>151.4</ele>
        <time>2020-06-25T14:43:25Z</time>
      </trkpt>
      <trkpt lat="49.67884" lon="4.94661">
        <ele>151.5</ele>
        <time>2020-06-25T14:43:26Z</time>
      </trkpt>
      <trkpt lat="49.67879" lon="4.94661">
        <ele>151.5</ele>
        <time>2020-06-25T14:43:27Z</time>
      </trkpt>
      <trkpt lat="49.67874" lon="4.94661">
        <ele>151.5</ele>
        <time>2020-06-25T14:43:28Z</time>
      </trkpt>
      <trkpt lat="49.6787" lon="4.94661">
        <ele>151.5</ele>
        <time>2020-06-25T14:43:29Z</time>
      </trkpt>
      <trkpt lat="49.67866" lon="4.94661">
        <ele>151.5</ele>
        <time>2020-06-25T14:43:30Z</time>
      </trkpt>
      <trkpt lat="49.67861" lon="4.94662">
        <ele>151.5</ele>
        <time>2020-06-25T14:43:31Z</time>
      </trkpt>
      <trkpt lat="49.67857" lon="4.94661">
        <ele>151.5</ele>
        <time>2020-06-25T14:43:32Z</time>
      </trkpt>
      <trkpt lat="49.67851" lon="4.94661">
        <ele>151.6</ele>
        <time>2020-06-25T14:43:33Z</time>
      </trkpt>
      <trkpt lat="49.67847" lon="4.94661">
        <ele>151.6</ele>
        <time>2020-06-25T14:43:34Z</time>
      </trkpt>
      <trkpt lat="49.67842" lon="4.94661">
        <ele>151.6</ele>
        <time>2020-06-25T14:43:35Z</time>
      </trkpt>
      <trkpt lat="49.67838" lon="4.94661">
        <ele>151.5</ele>
        <time>2020-06-25T14:43:36Z</time>
      </trkpt>
      <trkpt lat="49.67833" lon="4.94661">
        <ele>151.5</ele>
        <time>2020-06-25T14:43:37Z</time>
      </trkpt>
      <trkpt lat="49.67828" lon="4.94661">
        <ele>151.5</ele>
        <time>2020-06-25T14:43:38Z</time>
      </trkpt>
      <trkpt lat="49.67822" lon="4.9466">
        <ele>151.5</ele>
        <time>2020-06-25T14:43:39Z</time>
      </trkpt>
      <trkpt lat="49.67817" lon="4.9466">
        <ele>151.5</ele>
        <time>2020-06-25T14:43:40Z</time>
      </trkpt>
      <trkpt lat="49.67812" lon="4.94659">
        <ele>151.5</ele>
        <time>2020-06-25T14:43:41Z</time>
      </trkpt>
      <trkpt lat="49.67807" lon="4.94659">
        <ele>151.5</ele>
        <time>2020-06-25T14:43:42Z</time>
      </trkpt>
      <trkpt lat="49.67801" lon="4.94659">
        <ele>151.5</ele>
        <time>2020-06-25T14:43:43Z</time>
      </trkpt>
      <trkpt lat="49.67796" lon="4.9466">
        <ele>151.5</ele>
        <time>2020-06-25T14:43:44Z</time>
      </trkpt>
      <trkpt lat="49.67791" lon="4.9466">
        <ele>151.5</ele>
        <time>2020-06-25T14:43:45Z</time>
      </trkpt>
      <trkpt lat="49.67786" lon="4.94661">
        <ele>151.5</ele>
        <time>2020-06-25T14:43:46Z</time>
      </trkpt>
      <trkpt lat="49.6778" lon="4.94662">
        <ele>151.5</ele>
        <time>2020-06-25T14:43:47Z</time>
      </trkpt>
      <trkpt lat="49.67775" lon="4.94663">
        <ele>151.5</ele>
        <time>2020-06-25T14:43:48Z</time>
      </trkpt>
      <trkpt lat="49.6777" lon="4.94664">
        <ele>151.5</ele>
        <time>2020-06-25T14:43:49Z</time>
      </trkpt>
      <trkpt lat="49.67764" lon="4.94665">
        <ele>151.5</ele>
        <time>2020-06-25T14:43:50Z</time>
      </trkpt>
      <trkpt lat="49.67759" lon="4.94665">
        <ele>151.5</ele>
        <time>2020-06-25T14:43:51Z</time>
      </trkpt>
      <trkpt lat="49.67754" lon="4.94666">
        <ele>151.5</ele>
        <time>2020-06-25T14:43:52Z</time>
      </trkpt>
      <trkpt lat="49.67749" lon="4.94666">
        <ele>151.6</ele>
        <time>2020-06-25T14:43:53Z</time>
      </trkpt>
      <trkpt lat="49.67744" lon="4.94666">
        <ele>151.6</ele>
        <time>2020-06-25T14:43:54Z</time>
      </trkpt>
      <trkpt lat="49.67739" lon="4.94666">
        <ele>151.6</ele>
        <time>2020-06-25T14:43:55Z</time>
      </trkpt>
      <trkpt lat="49.67734" lon="4.94667">
        <ele>151.6</ele>
        <time>2020-06-25T14:43:56Z</time>
      </trkpt>
      <trkpt lat="49.6773" lon="4.94669">
        <ele>151.6</ele>
        <time>2020-06-25T14:43:57Z</time>
      </trkpt>
      <trkpt lat="49.67725" lon="4.94669">
        <ele>151.6</ele>
        <time>2020-06-25T14:43:58Z</time>
      </trkpt>
      <trkpt lat="49.67721" lon="4.94669">
        <ele>151.6</ele>
        <time>2020-06-25T14:43:59Z</time>
      </trkpt>
      <trkpt lat="49.67716" lon="4.94669">
        <ele>151.6</ele>
        <time>2020-06-25T14:44:00Z</time>
      </trkpt>
      <trkpt lat="49.67711" lon="4.94669">
        <ele>151.6</ele>
        <time>2020-06-25T14:44:01Z</time>
      </trkpt>
      <trkpt lat="49.67707" lon="4.94669">
        <ele>151.7</ele>
        <time>2020-06-25T14:44:02Z</time>
      </trkpt>
      <trkpt lat="49.67702" lon="4.94669">
        <ele>151.7</ele>
        <time>2020-06-25T14:44:03Z</time>
      </trkpt>
      <trkpt lat="49.67696" lon="4.94669">
        <ele>151.7</ele>
        <time>2020-06-25T14:44:04Z</time>
      </trkpt>
      <trkpt lat="49.67691" lon="4.94669">
        <ele>151.8</ele>
        <time>2020-06-25T14:44:05Z</time>
      </trkpt>
      <trkpt lat="49.67686" lon="4.9467">
        <ele>151.8</ele>
        <time>2020-06-25T14:44:06Z</time>
      </trkpt>
      <trkpt lat="49.6768" lon="4.9467">
        <ele>151.8</ele>
        <time>2020-06-25T14:44:07Z</time>
      </trkpt>
      <trkpt lat="49.67675" lon="4.94671">
        <ele>151.9</ele>
        <time>2020-06-25T14:44:08Z</time>
      </trkpt>
      <trkpt lat="49.67669" lon="4.94672">
        <ele>151.9</ele>
        <time>2020-06-25T14:44:09Z</time>
      </trkpt>
      <trkpt lat="49.67664" lon="4.94671">
        <ele>151.9</ele>
        <time>2020-06-25T14:44:10Z</time>
      </trkpt>
      <trkpt lat="49.67658" lon="4.94671">
        <ele>151.9</ele>
        <time>2020-06-25T14:44:11Z</time>
      </trkpt>
      <trkpt lat="49.67653" lon="4.94672">
        <ele>151.9</ele>
        <time>2020-06-25T14:44:12Z</time>
      </trkpt>
      <trkpt lat="49.67648" lon="4.94673">
        <ele>151.9</ele>
        <time>2020-06-25T14:44:13Z</time>
      </trkpt>
      <trkpt lat="49.67643" lon="4.94674">
        <ele>151.8</ele>
        <time>2020-06-25T14:44:14Z</time>
      </trkpt>
      <trkpt lat="49.67638" lon="4.94675">
        <ele>151.7</ele>
        <time>2020-06-25T14:44:15Z</time>
      </trkpt>
      <trkpt lat="49.67633" lon="4.94676">
        <ele>151.7</ele>
        <time>2020-06-25T14:44:16Z</time>
      </trkpt>
      <trkpt lat="49.67628" lon="4.94678">
        <ele>151.6</ele>
        <time>2020-06-25T14:44:17Z</time>
      </trkpt>
      <trkpt lat="49.67623" lon="4.9468">
        <ele>151.5</ele>
        <time>2020-06-25T14:44:18Z</time>
      </trkpt>
      <trkpt lat="49.67618" lon="4.94682">
        <ele>151.4</ele>
        <time>2020-06-25T14:44:19Z</time>
      </trkpt>
      <trkpt lat="49.67613" lon="4.94683">
        <ele>151.4</ele>
        <time>2020-06-25T14:44:20Z</time>
      </trkpt>
      <trkpt lat="49.67608" lon="4.94685">
        <ele>151.3</ele>
        <time>2020-06-25T14:44:21Z</time>
      </trkpt>
      <trkpt lat="49.67602" lon="4.94687">
        <ele>151.3</ele>
        <time>2020-06-25T14:44:22Z</time>
      </trkpt>
      <trkpt lat="49.67596" lon="4.94688">
        <ele>151.3</ele>
        <time>2020-06-25T14:44:23Z</time>
      </trkpt>
      <trkpt lat="49.6759" lon="4.94688">
        <ele>151.3</ele>
        <time>2020-06-25T14:44:24Z</time>
      </trkpt>
      <trkpt lat="49.67584" lon="4.9469">
        <ele>151.4</ele>
        <time>2020-06-25T14:44:25Z</time>
      </trkpt>
      <trkpt lat="49.67577" lon="4.94691">
        <ele>151.5</ele>
        <time>2020-06-25T14:44:26Z</time>
      </trkpt>
      <trkpt lat="49.67572" lon="4.94691">
        <ele>151.6</ele>
        <time>2020-06-25T14:44:27Z</time>
      </trkpt>
      <trkpt lat="49.67566" lon="4.94691">
        <ele>151.7</ele>
        <time>2020-06-25T14:44:28Z</time>
      </trkpt>
      <trkpt lat="49.67561" lon="4.94692">
        <ele>151.8</ele>
        <time>2020-06-25T14:44:29Z</time>
      </trkpt>
      <trkpt lat="49.67555" lon="4.94692">
        <ele>152</ele>
        <time>2020-06-25T14:44:30Z</time>
      </trkpt>
      <trkpt lat="49.67551" lon="4.94693">
        <ele>152.1</ele>
        <time>2020-06-25T14:44:31Z</time>
      </trkpt>
      <trkpt lat="49.67546" lon="4.94694">
        <ele>152.2</ele>
        <time>2020-06-25T14:44:32Z</time>
      </trkpt>
      <trkpt lat="49.67542" lon="4.94695">
        <ele>152.3</ele>
        <time>2020-06-25T14:44:33Z</time>
      </trkpt>
      <trkpt lat="49.67537" lon="4.94696">
        <ele>152.4</ele>
        <time>2020-06-25T14:44:34Z</time>
      </trkpt>
      <trkpt lat="49.67534" lon="4.94697">
        <ele>152.4</ele>
        <time>2020-06-25T14:44:35Z</time>
      </trkpt>
      <trkpt lat="49.67531" lon="4.94698">
        <ele>152.4</ele>
        <time>2020-06-25T14:44:36Z</time>
      </trkpt>
      <trkpt lat="49.67528" lon="4.947">
        <ele>152.5</ele>
        <time>2020-06-25T14:44:37Z</time>
      </trkpt>
      <trkpt lat="49.67524" lon="4.947">
        <ele>152.5</ele>
        <time>2020-06-25T14:44:38Z</time>
      </trkpt>
      <trkpt lat="49.67521" lon="4.94701">
        <ele>152.5</ele>
        <time>2020-06-25T14:44:39Z</time>
      </trkpt>
      <trkpt lat="49.67518" lon="4.94703">
        <ele>152.6</ele>
        <time>2020-06-25T14:44:40Z</time>
      </trkpt>
      <trkpt lat="49.67514" lon="4.94705">
        <ele>152.6</ele>
        <time>2020-06-25T14:44:41Z</time>
      </trkpt>
      <trkpt lat="49.67511" lon="4.94707">
        <ele>152.6</ele>
        <time>2020-06-25T14:44:42Z</time>
      </trkpt>
      <trkpt lat="49.67507" lon="4.9471">
        <ele>152.6</ele>
        <time>2020-06-25T14:44:43Z</time>
      </trkpt>
      <trkpt lat="49.67503" lon="4.94712">
        <ele>152.7</ele>
        <time>2020-06-25T14:44:44Z</time>
      </trkpt>
      <trkpt lat="49.67499" lon="4.94714">
        <ele>152.7</ele>
        <time>2020-06-25T14:44:45Z</time>
      </trkpt>
      <trkpt lat="49.67495" lon="4.94716">
        <ele>152.7</ele>
        <time>2020-06-25T14:44:46Z</time>
      </trkpt>
      <trkpt lat="49.67491" lon="4.94718">
        <ele>152.7</ele>
        <time>2020-06-25T14:44:47Z</time>
      </trkpt>
      <trkpt lat="49.67487" lon="4.9472">
        <ele>152.8</ele>
        <time>2020-06-25T14:44:48Z</time>
      </trkpt>
      <trkpt lat="49.67482" lon="4.94721">
        <ele>152.8</ele>
        <time>2020-06-25T14:44:49Z</time>
      </trkpt>
      <trkpt lat="49.67476" lon="4.94723">
        <ele>152.8</ele>
        <time>2020-06-25T14:44:50Z</time>
      </trkpt>
      <trkpt lat="49.67471" lon="4.94725">
        <ele>152.7</ele>
        <time>2020-06-25T14:44:51Z</time>
      </trkpt>
      <trkpt lat="49.67466" lon="4.94727">
        <ele>152.7</ele>
        <time>2020-06-25T14:44:52Z</time>
      </trkpt>
      <trkpt lat="49.67462" lon="4.94729">
        <ele>152.7</ele>
        <time>2020-06-25T14:44:53Z</time>
      </trkpt>
      <trkpt lat="49.67457" lon="4.94732">
        <ele>152.7</ele>
        <time>2020-06-25T14:44:54Z</time>
      </trkpt>
      <trkpt lat="49.67453" lon="4.94735">
        <ele>152.7</ele>
        <time>2020-06-25T14:44:55Z</time>
      </trkpt>
      <trkpt lat="49.67448" lon="4.94737">
        <ele>152.7</ele>
        <time>2020-06-25T14:44:56Z</time>
      </trkpt>
      <trkpt lat="49.67443" lon="4.9474">
        <ele>152.7</ele>
        <time>2020-06-25T14:44:57Z</time>
      </trkpt>
      <trkpt lat="49.67438" lon="4.94742">
        <ele>152.6</ele>
        <time>2020-06-25T14:44:58Z</time>
      </trkpt>
      <trkpt lat="49.67434" lon="4.94746">
        <ele>152.6</ele>
        <time>2020-06-25T14:44:59Z</time>
      </trkpt>
      <trkpt lat="49.6743" lon="4.9475">
        <ele>152.5</ele>
        <time>2020-06-25T14:45:00Z</time>
      </trkpt>
      <trkpt lat="49.67426" lon="4.94754">
        <ele>152.5</ele>
        <time>2020-06-25T14:45:01Z</time>
      </trkpt>
      <trkpt lat="49.67422" lon="4.94757">
        <ele>152.4</ele>
        <time>2020-06-25T14:45:02Z</time>
      </trkpt>
      <trkpt lat="49.67418" lon="4.9476">
        <ele>152.3</ele>
        <time>2020-06-25T14:45:03Z</time>
      </trkpt>
      <trkpt lat="49.67413" lon="4.94763">
        <ele>152.3</ele>
        <time>2020-06-25T14:45:04Z</time>
      </trkpt>
      <trkpt lat="49.67408" lon="4.94766">
        <ele>152.2</ele>
        <time>2020-06-25T14:45:05Z</time>
      </trkpt>
      <trkpt lat="49.67403" lon="4.9477">
        <ele>152.1</ele>
        <time>2020-06-25T14:45:06Z</time>
      </trkpt>
      <trkpt lat="49.67398" lon="4.94775">
        <ele>152</ele>
        <time>2020-06-25T14:45:07Z</time>
      </trkpt>
      <trkpt lat="49.67393" lon="4.94779">
        <ele>151.9</ele>
        <time>2020-06-25T14:45:08Z</time>
      </trkpt>
      <trkpt lat="49.67388" lon="4.94784">
        <ele>151.8</ele>
        <time>2020-06-25T14:45:09Z</time>
      </trkpt>
      <trkpt lat="49.67382" lon="4.94788">
        <ele>151.8</ele>
        <time>2020-06-25T14:45:10Z</time>
      </trkpt>
      <trkpt lat="49.67378" lon="4.94792">
        <ele>151.8</ele>
        <time>2020-06-25T14:45:11Z</time>
      </trkpt>
      <trkpt lat="49.67372" lon="4.94797">
        <ele>151.7</ele>
        <time>2020-06-25T14:45:12Z</time>
      </trkpt>
      <trkpt lat="49.67368" lon="4.94802">
        <ele>151.7</ele>
        <time>2020-06-25T14:45:13Z</time>
      </trkpt>
      <trkpt lat="49.67363" lon="4.94809">
        <ele>151.7</ele>
        <time>2020-06-25T14:45:14Z</time>
      </trkpt>
      <trkpt lat="49.67359" lon="4.94816">
        <ele>151.6</ele>
        <time>2020-06-25T14:45:15Z</time>
      </trkpt>
      <trkpt lat="49.67356" lon="4.94824">
        <ele>151.6</ele>
        <time>2020-06-25T14:45:16Z</time>
      </trkpt>
      <trkpt lat="49.67353" lon="4.94832">
        <ele>151.6</ele>
        <time>2020-06-25T14:45:17Z</time>
      </trkpt>
      <trkpt lat="49.6735" lon="4.9484">
        <ele>151.6</ele>
        <time>2020-06-25T14:45:18Z</time>
      </trkpt>
      <trkpt lat="49.67348" lon="4.94845">
        <ele>151.6</ele>
        <time>2020-06-25T14:45:19Z</time>
      </trkpt>
      <trkpt lat="49.67347" lon="4.94853">
        <ele>151.6</ele>
        <time>2020-06-25T14:45:20Z</time>
      </trkpt>
      <trkpt lat="49.67344" lon="4.94862">
        <ele>151.6</ele>
        <time>2020-06-25T14:45:21Z</time>
      </trkpt>
      <trkpt lat="49.67342" lon="4.94869">
        <ele>151.6</ele>
        <time>2020-06-25T14:45:22Z</time>
      </trkpt>
      <trkpt lat="49.6734" lon="4.94878">
        <ele>151.6</ele>
        <time>2020-06-25T14:45:23Z</time>
      </trkpt>
      <trkpt lat="49.67339" lon="4.94887">
        <ele>151.6</ele>
        <time>2020-06-25T14:45:24Z</time>
      </trkpt>
      <trkpt lat="49.67338" lon="4.94897">
        <ele>151.6</ele>
        <time>2020-06-25T14:45:25Z</time>
      </trkpt>
      <trkpt lat="49.67336" lon="4.94906">
        <ele>151.6</ele>
        <time>2020-06-25T14:45:26Z</time>
      </trkpt>
      <trkpt lat="49.67335" lon="4.94914">
        <ele>151.6</ele>
        <time>2020-06-25T14:45:27Z</time>
      </trkpt>
      <trkpt lat="49.67334" lon="4.94921">
        <ele>151.5</ele>
        <time>2020-06-25T14:45:28Z</time>
      </trkpt>
      <trkpt lat="49.67332" lon="4.94928">
        <ele>151.5</ele>
        <time>2020-06-25T14:45:29Z</time>
      </trkpt>
      <trkpt lat="49.6733" lon="4.94935">
        <ele>151.5</ele>
        <time>2020-06-25T14:45:30Z</time>
      </trkpt>
      <trkpt lat="49.67328" lon="4.94944">
        <ele>151.5</ele>
        <time>2020-06-25T14:45:31Z</time>
      </trkpt>
      <trkpt lat="49.67327" lon="4.94952">
        <ele>151.5</ele>
        <time>2020-06-25T14:45:32Z</time>
      </trkpt>
      <trkpt lat="49.67325" lon="4.9496">
        <ele>151.5</ele>
        <time>2020-06-25T14:45:33Z</time>
      </trkpt>
      <trkpt lat="49.67323" lon="4.94968">
        <ele>151.4</ele>
        <time>2020-06-25T14:45:34Z</time>
      </trkpt>
      <trkpt lat="49.67322" lon="4.94974">
        <ele>151.4</ele>
        <time>2020-06-25T14:45:35Z</time>
      </trkpt>
      <trkpt lat="49.6732" lon="4.94981">
        <ele>151.4</ele>
        <time>2020-06-25T14:45:36Z</time>
      </trkpt>
      <trkpt lat="49.67319" lon="4.94989">
        <ele>151.4</ele>
        <time>2020-06-25T14:45:37Z</time>
      </trkpt>
      <trkpt lat="49.67317" lon="4.94996">
        <ele>151.4</ele>
        <time>2020-06-25T14:45:38Z</time>
      </trkpt>
      <trkpt lat="49.67317" lon="4.95003">
        <ele>151.4</ele>
        <time>2020-06-25T14:45:39Z</time>
      </trkpt>
      <trkpt lat="49.67316" lon="4.95009">
        <ele>151.4</ele>
        <time>2020-06-25T14:45:40Z</time>
      </trkpt>
      <trkpt lat="49.67315" lon="4.95017">
        <ele>151.4</ele>
        <time>2020-06-25T14:45:41Z</time>
      </trkpt>
      <trkpt lat="49.67313" lon="4.95025">
        <ele>151.4</ele>
        <time>2020-06-25T14:45:42Z</time>
      </trkpt>
      <trkpt lat="49.67312" lon="4.95032">
        <ele>151.4</ele>
        <time>2020-06-25T14:45:43Z</time>
      </trkpt>
      <trkpt lat="49.67311" lon="4.9504">
        <ele>151.4</ele>
        <time>2020-06-25T14:45:44Z</time>
      </trkpt>
      <trkpt lat="49.6731" lon="4.95047">
        <ele>151.4</ele>
        <time>2020-06-25T14:45:45Z</time>
      </trkpt>
      <trkpt lat="49.67308" lon="4.95055">
        <ele>151.4</ele>
        <time>2020-06-25T14:45:46Z</time>
      </trkpt>
      <trkpt lat="49.67307" lon="4.95063">
        <ele>151.4</ele>
        <time>2020-06-25T14:45:47Z</time>
      </trkpt>
      <trkpt lat="49.67306" lon="4.95071">
        <ele>151.4</ele>
        <time>2020-06-25T14:45:48Z</time>
      </trkpt>
      <trkpt lat="49.67304" lon="4.95079">
        <ele>151.4</ele>
        <time>2020-06-25T14:45:49Z</time>
      </trkpt>
      <trkpt lat="49.67303" lon="4.95087">
        <ele>151.4</ele>
        <time>2020-06-25T14:45:50Z</time>
      </trkpt>
      <trkpt lat="49.67301" lon="4.95095">
        <ele>151.4</ele>
        <time>2020-06-25T14:45:51Z</time>
      </trkpt>
      <trkpt lat="49.67299" lon="4.95104">
        <ele>151.4</ele>
        <time>2020-06-25T14:45:52Z</time>
      </trkpt>
      <trkpt lat="49.67298" lon="4.95111">
        <ele>151.4</ele>
        <time>2020-06-25T14:45:53Z</time>
      </trkpt>
      <trkpt lat="49.67297" lon="4.95118">
        <ele>151.4</ele>
        <time>2020-06-25T14:45:54Z</time>
      </trkpt>
      <trkpt lat="49.67296" lon="4.95128">
        <ele>151.4</ele>
        <time>2020-06-25T14:45:55Z</time>
      </trkpt>
      <trkpt lat="49.67294" lon="4.95135">
        <ele>151.4</ele>
        <time>2020-06-25T14:45:56Z</time>
      </trkpt>
      <trkpt lat="49.67292" lon="4.95141">
        <ele>151.5</ele>
        <time>2020-06-25T14:45:57Z</time>
      </trkpt>
      <trkpt lat="49.67291" lon="4.95149">
        <ele>151.5</ele>
        <time>2020-06-25T14:45:58Z</time>
      </trkpt>
      <trkpt lat="49.67289" lon="4.95157">
        <ele>151.5</ele>
        <time>2020-06-25T14:45:59Z</time>
      </trkpt>
      <trkpt lat="49.67288" lon="4.95165">
        <ele>151.5</ele>
        <time>2020-06-25T14:46:00Z</time>
      </trkpt>
      <trkpt lat="49.67286" lon="4.95173">
        <ele>151.5</ele>
        <time>2020-06-25T14:46:01Z</time>
      </trkpt>
      <trkpt lat="49.67285" lon="4.95181">
        <ele>151.5</ele>
        <time>2020-06-25T14:46:02Z</time>
      </trkpt>
      <trkpt lat="49.67283" lon="4.95188">
        <ele>151.5</ele>
        <time>2020-06-25T14:46:03Z</time>
      </trkpt>
      <trkpt lat="49.67281" lon="4.95196">
        <ele>151.5</ele>
        <time>2020-06-25T14:46:04Z</time>
      </trkpt>
      <trkpt lat="49.67279" lon="4.95204">
        <ele>151.5</ele>
        <time>2020-06-25T14:46:05Z</time>
      </trkpt>
      <trkpt lat="49.67278" lon="4.95211">
        <ele>151.5</ele>
        <time>2020-06-25T14:46:06Z</time>
      </trkpt>
      <trkpt lat="49.67276" lon="4.95219">
        <ele>151.6</ele>
        <time>2020-06-25T14:46:07Z</time>
      </trkpt>
      <trkpt lat="49.67275" lon="4.95227">
        <ele>151.6</ele>
        <time>2020-06-25T14:46:08Z</time>
      </trkpt>
      <trkpt lat="49.67274" lon="4.95234">
        <ele>151.6</ele>
        <time>2020-06-25T14:46:09Z</time>
      </trkpt>
      <trkpt lat="49.67273" lon="4.95241">
        <ele>151.6</ele>
        <time>2020-06-25T14:46:10Z</time>
      </trkpt>
      <trkpt lat="49.67271" lon="4.95248">
        <ele>151.6</ele>
        <time>2020-06-25T14:46:11Z</time>
      </trkpt>
      <trkpt lat="49.67269" lon="4.95255">
        <ele>151.7</ele>
        <time>2020-06-25T14:46:12Z</time>
      </trkpt>
      <trkpt lat="49.67268" lon="4.95261">
        <ele>151.7</ele>
        <time>2020-06-25T14:46:13Z</time>
      </trkpt>
      <trkpt lat="49.67265" lon="4.95267">
        <ele>151.7</ele>
        <time>2020-06-25T14:46:14Z</time>
      </trkpt>
      <trkpt lat="49.67263" lon="4.95274">
        <ele>151.7</ele>
        <time>2020-06-25T14:46:15Z</time>
      </trkpt>
      <trkpt lat="49.67261" lon="4.95281">
        <ele>151.7</ele>
        <time>2020-06-25T14:46:16Z</time>
      </trkpt>
      <trkpt lat="49.67259" lon="4.95288">
        <ele>151.7</ele>
        <time>2020-06-25T14:46:17Z</time>
      </trkpt>
      <trkpt lat="49.67257" lon="4.95297">
        <ele>151.8</ele>
        <time>2020-06-25T14:46:18Z</time>
      </trkpt>
      <trkpt lat="49.67256" lon="4.95303">
        <ele>151.8</ele>
        <time>2020-06-25T14:46:19Z</time>
      </trkpt>
      <trkpt lat="49.67253" lon="4.9531">
        <ele>151.8</ele>
        <time>2020-06-25T14:46:20Z</time>
      </trkpt>
      <trkpt lat="49.67251" lon="4.95319">
        <ele>151.8</ele>
        <time>2020-06-25T14:46:21Z</time>
      </trkpt>
      <trkpt lat="49.67248" lon="4.95326">
        <ele>151.8</ele>
        <time>2020-06-25T14:46:22Z</time>
      </trkpt>
      <trkpt lat="49.67246" lon="4.95334">
        <ele>151.8</ele>
        <time>2020-06-25T14:46:23Z</time>
      </trkpt>
      <trkpt lat="49.67243" lon="4.95341">
        <ele>151.8</ele>
        <time>2020-06-25T14:46:24Z</time>
      </trkpt>
      <trkpt lat="49.67241" lon="4.95348">
        <ele>151.8</ele>
        <time>2020-06-25T14:46:25Z</time>
      </trkpt>
      <trkpt lat="49.67239" lon="4.95356">
        <ele>151.8</ele>
        <time>2020-06-25T14:46:26Z</time>
      </trkpt>
      <trkpt lat="49.67237" lon="4.95363">
        <ele>151.8</ele>
        <time>2020-06-25T14:46:27Z</time>
      </trkpt>
      <trkpt lat="49.67235" lon="4.95372">
        <ele>151.8</ele>
        <time>2020-06-25T14:46:28Z</time>
      </trkpt>
      <trkpt lat="49.67233" lon="4.95378">
        <ele>151.8</ele>
        <time>2020-06-25T14:46:29Z</time>
      </trkpt>
      <trkpt lat="49.67231" lon="4.95385">
        <ele>151.8</ele>
        <time>2020-06-25T14:46:30Z</time>
      </trkpt>
      <trkpt lat="49.67229" lon="4.95392">
        <ele>151.8</ele>
        <time>2020-06-25T14:46:31Z</time>
      </trkpt>
      <trkpt lat="49.67226" lon="4.954">
        <ele>151.8</ele>
        <time>2020-06-25T14:46:32Z</time>
      </trkpt>
      <trkpt lat="49.67224" lon="4.95408">
        <ele>151.8</ele>
        <time>2020-06-25T14:46:33Z</time>
      </trkpt>
      <trkpt lat="49.67222" lon="4.95417">
        <ele>151.8</ele>
        <time>2020-06-25T14:46:34Z</time>
      </trkpt>
      <trkpt lat="49.6722" lon="4.95424">
        <ele>151.8</ele>
        <time>2020-06-25T14:46:35Z</time>
      </trkpt>
      <trkpt lat="49.67218" lon="4.95429">
        <ele>151.8</ele>
        <time>2020-06-25T14:46:36Z</time>
      </trkpt>
      <trkpt lat="49.67216" lon="4.95436">
        <ele>151.8</ele>
        <time>2020-06-25T14:46:37Z</time>
      </trkpt>
      <trkpt lat="49.67214" lon="4.95444">
        <ele>151.8</ele>
        <time>2020-06-25T14:46:38Z</time>
      </trkpt>
      <trkpt lat="49.67213" lon="4.95452">
        <ele>151.8</ele>
        <time>2020-06-25T14:46:39Z</time>
      </trkpt>
      <trkpt lat="49.67211" lon="4.95459">
        <ele>151.8</ele>
        <time>2020-06-25T14:46:40Z</time>
      </trkpt>
      <trkpt lat="49.67208" lon="4.95467">
        <ele>151.8</ele>
        <time>2020-06-25T14:46:41Z</time>
      </trkpt>
      <trkpt lat="49.67206" lon="4.95474">
        <ele>151.8</ele>
        <time>2020-06-25T14:46:42Z</time>
      </trkpt>
      <trkpt lat="49.67204" lon="4.95482">
        <ele>151.8</ele>
        <time>2020-06-25T14:46:43Z</time>
      </trkpt>
      <trkpt lat="49.67201" lon="4.9549">
        <ele>151.8</ele>
        <time>2020-06-25T14:46:44Z</time>
      </trkpt>
      <trkpt lat="49.67199" lon="4.95498">
        <ele>151.8</ele>
        <time>2020-06-25T14:46:45Z</time>
      </trkpt>
      <trkpt lat="49.67196" lon="4.95506">
        <ele>151.8</ele>
        <time>2020-06-25T14:46:46Z</time>
      </trkpt>
      <trkpt lat="49.67194" lon="4.95512">
        <ele>151.8</ele>
        <time>2020-06-25T14:46:47Z</time>
      </trkpt>
      <trkpt lat="49.67192" lon="4.95519">
        <ele>151.8</ele>
        <time>2020-06-25T14:46:48Z</time>
      </trkpt>
      <trkpt lat="49.6719" lon="4.95525">
        <ele>151.8</ele>
        <time>2020-06-25T14:46:49Z</time>
      </trkpt>
      <trkpt lat="49.67188" lon="4.95531">
        <ele>151.8</ele>
        <time>2020-06-25T14:46:50Z</time>
      </trkpt>
      <trkpt lat="49.67186" lon="4.95538">
        <ele>151.8</ele>
        <time>2020-06-25T14:46:51Z</time>
      </trkpt>
      <trkpt lat="49.67184" lon="4.95544">
        <ele>151.8</ele>
        <time>2020-06-25T14:46:52Z</time>
      </trkpt>
      <trkpt lat="49.67179" lon="4.95552">
        <ele>151.7</ele>
        <time>2020-06-25T14:46:53Z</time>
      </trkpt>
      <trkpt lat="49.67176" lon="4.95559">
        <ele>151.7</ele>
        <time>2020-06-25T14:46:54Z</time>
      </trkpt>
      <trkpt lat="49.67173" lon="4.95566">
        <ele>151.7</ele>
        <time>2020-06-25T14:46:55Z</time>
      </trkpt>
      <trkpt lat="49.6717" lon="4.95571">
        <ele>151.8</ele>
        <time>2020-06-25T14:46:56Z</time>
      </trkpt>
      <trkpt lat="49.67167" lon="4.95577">
        <ele>151.8</ele>
        <time>2020-06-25T14:46:57Z</time>
      </trkpt>
      <trkpt lat="49.67163" lon="4.95583">
        <ele>151.8</ele>
        <time>2020-06-25T14:46:58Z</time>
      </trkpt>
      <trkpt lat="49.67158" lon="4.95588">
        <ele>151.8</ele>
        <time>2020-06-25T14:46:59Z</time>
      </trkpt>
      <trkpt lat="49.67155" lon="4.95594">
        <ele>151.8</ele>
        <time>2020-06-25T14:47:00Z</time>
      </trkpt>
      <trkpt lat="49.6715" lon="4.956">
        <ele>151.8</ele>
        <time>2020-06-25T14:47:01Z</time>
      </trkpt>
      <trkpt lat="49.67146" lon="4.95605">
        <ele>151.8</ele>
        <time>2020-06-25T14:47:02Z</time>
      </trkpt>
      <trkpt lat="49.67142" lon="4.95611">
        <ele>151.8</ele>
        <time>2020-06-25T14:47:03Z</time>
      </trkpt>
      <trkpt lat="49.67137" lon="4.95615">
        <ele>151.8</ele>
        <time>2020-06-25T14:47:04Z</time>
      </trkpt>
      <trkpt lat="49.67132" lon="4.9562">
        <ele>151.8</ele>
        <time>2020-06-25T14:47:05Z</time>
      </trkpt>
      <trkpt lat="49.67126" lon="4.95625">
        <ele>151.8</ele>
        <time>2020-06-25T14:47:06Z</time>
      </trkpt>
      <trkpt lat="49.67122" lon="4.95629">
        <ele>151.8</ele>
        <time>2020-06-25T14:47:07Z</time>
      </trkpt>
      <trkpt lat="49.67116" lon="4.95634">
        <ele>151.8</ele>
        <time>2020-06-25T14:47:08Z</time>
      </trkpt>
      <trkpt lat="49.67111" lon="4.95638">
        <ele>151.8</ele>
        <time>2020-06-25T14:47:09Z</time>
      </trkpt>
      <trkpt lat="49.67105" lon="4.95643">
        <ele>151.8</ele>
        <time>2020-06-25T14:47:10Z</time>
      </trkpt>
      <trkpt lat="49.671" lon="4.95647">
        <ele>151.8</ele>
        <time>2020-06-25T14:47:11Z</time>
      </trkpt>
      <trkpt lat="49.67095" lon="4.95651">
        <ele>151.9</ele>
        <time>2020-06-25T14:47:12Z</time>
      </trkpt>
      <trkpt lat="49.6709" lon="4.95655">
        <ele>151.9</ele>
        <time>2020-06-25T14:47:13Z</time>
      </trkpt>
      <trkpt lat="49.67086" lon="4.95659">
        <ele>151.9</ele>
        <time>2020-06-25T14:47:14Z</time>
      </trkpt>
      <trkpt lat="49.67081" lon="4.95663">
        <ele>151.9</ele>
        <time>2020-06-25T14:47:15Z</time>
      </trkpt>
      <trkpt lat="49.67076" lon="4.95667">
        <ele>151.9</ele>
        <time>2020-06-25T14:47:16Z</time>
      </trkpt>
      <trkpt lat="49.67071" lon="4.95672">
        <ele>151.9</ele>
        <time>2020-06-25T14:47:17Z</time>
      </trkpt>
      <trkpt lat="49.67066" lon="4.95677">
        <ele>151.9</ele>
        <time>2020-06-25T14:47:18Z</time>
      </trkpt>
      <trkpt lat="49.67061" lon="4.95681">
        <ele>151.8</ele>
        <time>2020-06-25T14:47:19Z</time>
      </trkpt>
      <trkpt lat="49.67055" lon="4.95685">
        <ele>151.8</ele>
        <time>2020-06-25T14:47:20Z</time>
      </trkpt>
      <trkpt lat="49.6705" lon="4.9569">
        <ele>151.8</ele>
        <time>2020-06-25T14:47:21Z</time>
      </trkpt>
      <trkpt lat="49.67044" lon="4.95694">
        <ele>151.9</ele>
        <time>2020-06-25T14:47:22Z</time>
      </trkpt>
      <trkpt lat="49.67038" lon="4.95699">
        <ele>151.9</ele>
        <time>2020-06-25T14:47:23Z</time>
      </trkpt>
      <trkpt lat="49.67033" lon="4.95704">
        <ele>151.9</ele>
        <time>2020-06-25T14:47:24Z</time>
      </trkpt>
      <trkpt lat="49.67029" lon="4.95709">
        <ele>151.9</ele>
        <time>2020-06-25T14:47:25Z</time>
      </trkpt>
      <trkpt lat="49.67024" lon="4.95714">
        <ele>151.9</ele>
        <time>2020-06-25T14:47:26Z</time>
      </trkpt>
      <trkpt lat="49.6702" lon="4.9572">
        <ele>152</ele>
        <time>2020-06-25T14:47:27Z</time>
      </trkpt>
      <trkpt lat="49.67017" lon="4.95725">
        <ele>152</ele>
        <time>2020-06-25T14:47:28Z</time>
      </trkpt>
      <trkpt lat="49.67012" lon="4.9573">
        <ele>152</ele>
        <time>2020-06-25T14:47:29Z</time>
      </trkpt>
      <trkpt lat="49.67008" lon="4.95736">
        <ele>152</ele>
        <time>2020-06-25T14:47:30Z</time>
      </trkpt>
      <trkpt lat="49.67003" lon="4.95741">
        <ele>152</ele>
        <time>2020-06-25T14:47:31Z</time>
      </trkpt>
      <trkpt lat="49.66999" lon="4.95746">
        <ele>152</ele>
        <time>2020-06-25T14:47:32Z</time>
      </trkpt>
      <trkpt lat="49.66994" lon="4.95752">
        <ele>152</ele>
        <time>2020-06-25T14:47:33Z</time>
      </trkpt>
      <trkpt lat="49.6699" lon="4.95757">
        <ele>152</ele>
        <time>2020-06-25T14:47:34Z</time>
      </trkpt>
      <trkpt lat="49.66986" lon="4.95763">
        <ele>152</ele>
        <time>2020-06-25T14:47:35Z</time>
      </trkpt>
      <trkpt lat="49.6698" lon="4.9577">
        <ele>152</ele>
        <time>2020-06-25T14:47:36Z</time>
      </trkpt>
      <trkpt lat="49.66975" lon="4.95776">
        <ele>152</ele>
        <time>2020-06-25T14:47:37Z</time>
      </trkpt>
      <trkpt lat="49.66971" lon="4.95782">
        <ele>152</ele>
        <time>2020-06-25T14:47:38Z</time>
      </trkpt>
      <trkpt lat="49.66966" lon="4.95788">
        <ele>152</ele>
        <time>2020-06-25T14:47:39Z</time>
      </trkpt>
      <trkpt lat="49.66963" lon="4.95793">
        <ele>152.1</ele>
        <time>2020-06-25T14:47:40Z</time>
      </trkpt>
      <trkpt lat="49.66959" lon="4.95798">
        <ele>152.1</ele>
        <time>2020-06-25T14:47:41Z</time>
      </trkpt>
      <trkpt lat="49.66955" lon="4.95803">
        <ele>152.1</ele>
        <time>2020-06-25T14:47:42Z</time>
      </trkpt>
      <trkpt lat="49.66951" lon="4.95809">
        <ele>152.1</ele>
        <time>2020-06-25T14:47:43Z</time>
      </trkpt>
      <trkpt lat="49.66948" lon="4.95814">
        <ele>152.1</ele>
        <time>2020-06-25T14:47:44Z</time>
      </trkpt>
      <trkpt lat="49.66945" lon="4.95819">
        <ele>152.1</ele>
        <time>2020-06-25T14:47:45Z</time>
      </trkpt>
      <trkpt lat="49.66941" lon="4.95824">
        <ele>152.1</ele>
        <time>2020-06-25T14:47:46Z</time>
      </trkpt>
      <trkpt lat="49.66938" lon="4.9583">
        <ele>152.1</ele>
        <time>2020-06-25T14:47:47Z</time>
      </trkpt>
      <trkpt lat="49.66935" lon="4.95835">
        <ele>152.1</ele>
        <time>2020-06-25T14:47:48Z</time>
      </trkpt>
      <trkpt lat="49.66931" lon="4.95839">
        <ele>152.1</ele>
        <time>2020-06-25T14:47:49Z</time>
      </trkpt>
      <trkpt lat="49.66928" lon="4.95845">
        <ele>152.1</ele>
        <time>2020-06-25T14:47:50Z</time>
      </trkpt>
      <trkpt lat="49.66925" lon="4.9585">
        <ele>152.1</ele>
        <time>2020-06-25T14:47:51Z</time>
      </trkpt>
      <trkpt lat="49.66922" lon="4.95855">
        <ele>152.1</ele>
        <time>2020-06-25T14:47:52Z</time>
      </trkpt>
      <trkpt lat="49.6692" lon="4.95861">
        <ele>152.1</ele>
        <time>2020-06-25T14:47:53Z</time>
      </trkpt>
      <trkpt lat="49.66919" lon="4.95867">
        <ele>152.1</ele>
        <time>2020-06-25T14:47:54Z</time>
      </trkpt>
      <trkpt lat="49.66917" lon="4.95874">
        <ele>152.1</ele>
        <time>2020-06-25T14:47:55Z</time>
      </trkpt>
      <trkpt lat="49.66915" lon="4.9588">
        <ele>152.1</ele>
        <time>2020-06-25T14:47:56Z</time>
      </trkpt>
      <trkpt lat="49.66909" lon="4.95882">
        <ele>152.3</ele>
        <time>2020-06-25T14:47:57Z</time>
      </trkpt>
      <trkpt lat="49.66905" lon="4.95884">
        <ele>152.5</ele>
        <time>2020-06-25T14:47:58Z</time>
      </trkpt>
      <trkpt lat="49.66901" lon="4.95889">
        <ele>152.6</ele>
        <time>2020-06-25T14:47:59Z</time>
      </trkpt>
      <trkpt lat="49.66899" lon="4.95897">
        <ele>152.9</ele>
        <time>2020-06-25T14:48:00Z</time>
      </trkpt>
      <trkpt lat="49.66897" lon="4.95903">
        <ele>153</ele>
        <time>2020-06-25T14:48:01Z</time>
      </trkpt>
      <trkpt lat="49.66895" lon="4.95908">
        <ele>153.2</ele>
        <time>2020-06-25T14:48:02Z</time>
      </trkpt>
      <trkpt lat="49.66893" lon="4.95917">
        <ele>153.4</ele>
        <time>2020-06-25T14:48:03Z</time>
      </trkpt>
      <trkpt lat="49.6689" lon="4.95923">
        <ele>153.6</ele>
        <time>2020-06-25T14:48:04Z</time>
      </trkpt>
      <trkpt lat="49.66888" lon="4.95929">
        <ele>153.8</ele>
        <time>2020-06-25T14:48:05Z</time>
      </trkpt>
      <trkpt lat="49.66886" lon="4.95935">
        <ele>153.9</ele>
        <time>2020-06-25T14:48:06Z</time>
      </trkpt>
      <trkpt lat="49.66885" lon="4.95937">
        <ele>153.9</ele>
        <time>2020-06-25T14:48:07Z</time>
      </trkpt>
      <trkpt lat="49.66883" lon="4.95942">
        <ele>154</ele>
        <time>2020-06-25T14:48:08Z</time>
      </trkpt>
      <trkpt lat="49.66881" lon="4.95947">
        <ele>154.1</ele>
        <time>2020-06-25T14:48:09Z</time>
      </trkpt>
      <trkpt lat="49.66879" lon="4.95952">
        <ele>154.1</ele>
        <time>2020-06-25T14:48:10Z</time>
      </trkpt>
      <trkpt lat="49.66879" lon="4.95954">
        <ele>154.1</ele>
        <time>2020-06-25T14:48:11Z</time>
      </trkpt>
      <trkpt lat="49.66878" lon="4.95959">
        <ele>154.1</ele>
        <time>2020-06-25T14:48:12Z</time>
      </trkpt>
      <trkpt lat="49.66876" lon="4.95962">
        <ele>154</ele>
        <time>2020-06-25T14:48:13Z</time>
      </trkpt>
      <trkpt lat="49.66875" lon="4.95968">
        <ele>154</ele>
        <time>2020-06-25T14:48:14Z</time>
      </trkpt>
      <trkpt lat="49.66874" lon="4.95973">
        <ele>153.9</ele>
        <time>2020-06-25T14:48:15Z</time>
      </trkpt>
      <trkpt lat="49.66871" lon="4.95978">
        <ele>153.8</ele>
        <time>2020-06-25T14:48:16Z</time>
      </trkpt>
      <trkpt lat="49.66869" lon="4.95984">
        <ele>153.6</ele>
        <time>2020-06-25T14:48:17Z</time>
      </trkpt>
      <trkpt lat="49.66867" lon="4.9599">
        <ele>153.5</ele>
        <time>2020-06-25T14:48:18Z</time>
      </trkpt>
      <trkpt lat="49.66865" lon="4.95997">
        <ele>153.4</ele>
        <time>2020-06-25T14:48:19Z</time>
      </trkpt>
      <trkpt lat="49.66862" lon="4.96004">
        <ele>153.2</ele>
        <time>2020-06-25T14:48:20Z</time>
      </trkpt>
      <trkpt lat="49.66858" lon="4.96011">
        <ele>153.1</ele>
        <time>2020-06-25T14:48:21Z</time>
      </trkpt>
      <trkpt lat="49.66855" lon="4.96018">
        <ele>153.1</ele>
        <time>2020-06-25T14:48:22Z</time>
      </trkpt>
      <trkpt lat="49.66852" lon="4.96024">
        <ele>153</ele>
        <time>2020-06-25T14:48:23Z</time>
      </trkpt>
      <trkpt lat="49.6685" lon="4.96029">
        <ele>152.9</ele>
        <time>2020-06-25T14:48:24Z</time>
      </trkpt>
      <trkpt lat="49.66846" lon="4.96034">
        <ele>152.9</ele>
        <time>2020-06-25T14:48:25Z</time>
      </trkpt>
      <trkpt lat="49.66844" lon="4.9604">
        <ele>152.8</ele>
        <time>2020-06-25T14:48:26Z</time>
      </trkpt>
      <trkpt lat="49.66841" lon="4.96047">
        <ele>152.7</ele>
        <time>2020-06-25T14:48:27Z</time>
      </trkpt>
      <trkpt lat="49.66837" lon="4.96054">
        <ele>152.7</ele>
        <time>2020-06-25T14:48:28Z</time>
      </trkpt>
      <trkpt lat="49.66835" lon="4.96061">
        <ele>152.6</ele>
        <time>2020-06-25T14:48:29Z</time>
      </trkpt>
      <trkpt lat="49.66831" lon="4.96068">
        <ele>152.5</ele>
        <time>2020-06-25T14:48:30Z</time>
      </trkpt>
      <trkpt lat="49.66828" lon="4.96074">
        <ele>152.4</ele>
        <time>2020-06-25T14:48:31Z</time>
      </trkpt>
      <trkpt lat="49.66825" lon="4.96081">
        <ele>152.4</ele>
        <time>2020-06-25T14:48:32Z</time>
      </trkpt>
      <trkpt lat="49.66822" lon="4.96088">
        <ele>152.3</ele>
        <time>2020-06-25T14:48:33Z</time>
      </trkpt>
      <trkpt lat="49.66818" lon="4.96095">
        <ele>152.3</ele>
        <time>2020-06-25T14:48:34Z</time>
      </trkpt>
      <trkpt lat="49.66815" lon="4.96103">
        <ele>152.3</ele>
        <time>2020-06-25T14:48:35Z</time>
      </trkpt>
      <trkpt lat="49.66811" lon="4.96111">
        <ele>152.3</ele>
        <time>2020-06-25T14:48:36Z</time>
      </trkpt>
      <trkpt lat="49.66808" lon="4.96119">
        <ele>152.2</ele>
        <time>2020-06-25T14:48:37Z</time>
      </trkpt>
      <trkpt lat="49.66805" lon="4.96127">
        <ele>152.3</ele>
        <time>2020-06-25T14:48:38Z</time>
      </trkpt>
      <trkpt lat="49.66803" lon="4.96135">
        <ele>152.3</ele>
        <time>2020-06-25T14:48:39Z</time>
      </trkpt>
      <trkpt lat="49.668" lon="4.96144">
        <ele>152.4</ele>
        <time>2020-06-25T14:48:40Z</time>
      </trkpt>
      <trkpt lat="49.66798" lon="4.96152">
        <ele>152.5</ele>
        <time>2020-06-25T14:48:41Z</time>
      </trkpt>
      <trkpt lat="49.66796" lon="4.9616">
        <ele>152.5</ele>
        <time>2020-06-25T14:48:42Z</time>
      </trkpt>
      <trkpt lat="49.66794" lon="4.96167">
        <ele>152.6</ele>
        <time>2020-06-25T14:48:43Z</time>
      </trkpt>
      <trkpt lat="49.66792" lon="4.96175">
        <ele>152.6</ele>
        <time>2020-06-25T14:48:44Z</time>
      </trkpt>
      <trkpt lat="49.66791" lon="4.96183">
        <ele>152.7</ele>
        <time>2020-06-25T14:48:45Z</time>
      </trkpt>
      <trkpt lat="49.66789" lon="4.9619">
        <ele>152.7</ele>
        <time>2020-06-25T14:48:46Z</time>
      </trkpt>
      <trkpt lat="49.66788" lon="4.96196">
        <ele>152.7</ele>
        <time>2020-06-25T14:48:47Z</time>
      </trkpt>
      <trkpt lat="49.66786" lon="4.96204">
        <ele>152.7</ele>
        <time>2020-06-25T14:48:48Z</time>
      </trkpt>
      <trkpt lat="49.66784" lon="4.96213">
        <ele>152.7</ele>
        <time>2020-06-25T14:48:49Z</time>
      </trkpt>
      <trkpt lat="49.66781" lon="4.96222">
        <ele>152.7</ele>
        <time>2020-06-25T14:48:50Z</time>
      </trkpt>
      <trkpt lat="49.66779" lon="4.96229">
        <ele>152.6</ele>
        <time>2020-06-25T14:48:51Z</time>
      </trkpt>
      <trkpt lat="49.66777" lon="4.96237">
        <ele>152.6</ele>
        <time>2020-06-25T14:48:52Z</time>
      </trkpt>
      <trkpt lat="49.66775" lon="4.96245">
        <ele>152.6</ele>
        <time>2020-06-25T14:48:53Z</time>
      </trkpt>
      <trkpt lat="49.66773" lon="4.96254">
        <ele>152.6</ele>
        <time>2020-06-25T14:48:54Z</time>
      </trkpt>
      <trkpt lat="49.66771" lon="4.96262">
        <ele>152.6</ele>
        <time>2020-06-25T14:48:55Z</time>
      </trkpt>
      <trkpt lat="49.66769" lon="4.96271">
        <ele>152.5</ele>
        <time>2020-06-25T14:48:56Z</time>
      </trkpt>
      <trkpt lat="49.66767" lon="4.96278">
        <ele>152.5</ele>
        <time>2020-06-25T14:48:57Z</time>
      </trkpt>
      <trkpt lat="49.66765" lon="4.96289">
        <ele>152.5</ele>
        <time>2020-06-25T14:48:58Z</time>
      </trkpt>
      <trkpt lat="49.66764" lon="4.96298">
        <ele>152.5</ele>
        <time>2020-06-25T14:48:59Z</time>
      </trkpt>
      <trkpt lat="49.66763" lon="4.96307">
        <ele>152.4</ele>
        <time>2020-06-25T14:49:00Z</time>
      </trkpt>
      <trkpt lat="49.66762" lon="4.96316">
        <ele>152.4</ele>
        <time>2020-06-25T14:49:01Z</time>
      </trkpt>
      <trkpt lat="49.66762" lon="4.96324">
        <ele>152.3</ele>
        <time>2020-06-25T14:49:02Z</time>
      </trkpt>
      <trkpt lat="49.66762" lon="4.96333">
        <ele>152.3</ele>
        <time>2020-06-25T14:49:03Z</time>
      </trkpt>
      <trkpt lat="49.66762" lon="4.96342">
        <ele>152.3</ele>
        <time>2020-06-25T14:49:04Z</time>
      </trkpt>
      <trkpt lat="49.66763" lon="4.9635">
        <ele>152.3</ele>
        <time>2020-06-25T14:49:05Z</time>
      </trkpt>
      <trkpt lat="49.66763" lon="4.9636">
        <ele>152.2</ele>
        <time>2020-06-25T14:49:06Z</time>
      </trkpt>
      <trkpt lat="49.66764" lon="4.96368">
        <ele>152.2</ele>
        <time>2020-06-25T14:49:07Z</time>
      </trkpt>
      <trkpt lat="49.66764" lon="4.96376">
        <ele>152.1</ele>
        <time>2020-06-25T14:49:08Z</time>
      </trkpt>
      <trkpt lat="49.66765" lon="4.96384">
        <ele>152.1</ele>
        <time>2020-06-25T14:49:09Z</time>
      </trkpt>
      <trkpt lat="49.66766" lon="4.96392">
        <ele>152</ele>
        <time>2020-06-25T14:49:10Z</time>
      </trkpt>
      <trkpt lat="49.66766" lon="4.964">
        <ele>152</ele>
        <time>2020-06-25T14:49:11Z</time>
      </trkpt>
      <trkpt lat="49.66768" lon="4.96407">
        <ele>151.9</ele>
        <time>2020-06-25T14:49:12Z</time>
      </trkpt>
      <trkpt lat="49.6677" lon="4.96415">
        <ele>151.9</ele>
        <time>2020-06-25T14:49:13Z</time>
      </trkpt>
      <trkpt lat="49.66772" lon="4.96424">
        <ele>151.9</ele>
        <time>2020-06-25T14:49:14Z</time>
      </trkpt>
      <trkpt lat="49.66775" lon="4.96429">
        <ele>151.9</ele>
        <time>2020-06-25T14:49:15Z</time>
      </trkpt>
      <trkpt lat="49.66778" lon="4.96438">
        <ele>151.9</ele>
        <time>2020-06-25T14:49:16Z</time>
      </trkpt>
      <trkpt lat="49.66781" lon="4.96445">
        <ele>151.9</ele>
        <time>2020-06-25T14:49:17Z</time>
      </trkpt>
      <trkpt lat="49.66782" lon="4.96452">
        <ele>151.9</ele>
        <time>2020-06-25T14:49:18Z</time>
      </trkpt>
      <trkpt lat="49.66784" lon="4.96459">
        <ele>151.9</ele>
        <time>2020-06-25T14:49:19Z</time>
      </trkpt>
      <trkpt lat="49.66786" lon="4.96465">
        <ele>151.9</ele>
        <time>2020-06-25T14:49:20Z</time>
      </trkpt>
      <trkpt lat="49.66788" lon="4.96472">
        <ele>151.9</ele>
        <time>2020-06-25T14:49:21Z</time>
      </trkpt>
      <trkpt lat="49.66791" lon="4.96479">
        <ele>151.9</ele>
        <time>2020-06-25T14:49:22Z</time>
      </trkpt>
      <trkpt lat="49.66792" lon="4.96486">
        <ele>151.9</ele>
        <time>2020-06-25T14:49:23Z</time>
      </trkpt>
      <trkpt lat="49.66794" lon="4.96494">
        <ele>151.9</ele>
        <time>2020-06-25T14:49:24Z</time>
      </trkpt>
      <trkpt lat="49.66795" lon="4.96501">
        <ele>151.9</ele>
        <time>2020-06-25T14:49:25Z</time>
      </trkpt>
      <trkpt lat="49.66796" lon="4.96508">
        <ele>151.9</ele>
        <time>2020-06-25T14:49:26Z</time>
      </trkpt>
      <trkpt lat="49.66797" lon="4.96516">
        <ele>152</ele>
        <time>2020-06-25T14:49:27Z</time>
      </trkpt>
      <trkpt lat="49.66797" lon="4.96523">
        <ele>152</ele>
        <time>2020-06-25T14:49:28Z</time>
      </trkpt>
      <trkpt lat="49.66798" lon="4.96532">
        <ele>152</ele>
        <time>2020-06-25T14:49:29Z</time>
      </trkpt>
      <trkpt lat="49.66799" lon="4.96542">
        <ele>152</ele>
        <time>2020-06-25T14:49:30Z</time>
      </trkpt>
      <trkpt lat="49.668" lon="4.96549">
        <ele>152.1</ele>
        <time>2020-06-25T14:49:31Z</time>
      </trkpt>
      <trkpt lat="49.66801" lon="4.96556">
        <ele>152.1</ele>
        <time>2020-06-25T14:49:32Z</time>
      </trkpt>
      <trkpt lat="49.66803" lon="4.96565">
        <ele>152.1</ele>
        <time>2020-06-25T14:49:33Z</time>
      </trkpt>
      <trkpt lat="49.66807" lon="4.96578">
        <ele>152.1</ele>
        <time>2020-06-25T14:49:34Z</time>
      </trkpt>
      <trkpt lat="49.6681" lon="4.9659">
        <ele>152.2</ele>
        <time>2020-06-25T14:49:35Z</time>
      </trkpt>
      <trkpt lat="49.66813" lon="4.96601">
        <ele>152.2</ele>
        <time>2020-06-25T14:49:36Z</time>
      </trkpt>
      <trkpt lat="49.66815" lon="4.96611">
        <ele>152.2</ele>
        <time>2020-06-25T14:49:37Z</time>
      </trkpt>
      <trkpt lat="49.66817" lon="4.9662">
        <ele>152.2</ele>
        <time>2020-06-25T14:49:38Z</time>
      </trkpt>
      <trkpt lat="49.66819" lon="4.9663">
        <ele>152.2</ele>
        <time>2020-06-25T14:49:39Z</time>
      </trkpt>
      <trkpt lat="49.6682" lon="4.96638">
        <ele>152.2</ele>
        <time>2020-06-25T14:49:40Z</time>
      </trkpt>
      <trkpt lat="49.66822" lon="4.96647">
        <ele>152.1</ele>
        <time>2020-06-25T14:49:41Z</time>
      </trkpt>
      <trkpt lat="49.66823" lon="4.96655">
        <ele>152.1</ele>
        <time>2020-06-25T14:49:42Z</time>
      </trkpt>
      <trkpt lat="49.66824" lon="4.96663">
        <ele>152.1</ele>
        <time>2020-06-25T14:49:43Z</time>
      </trkpt>
      <trkpt lat="49.66825" lon="4.96671">
        <ele>152.1</ele>
        <time>2020-06-25T14:49:44Z</time>
      </trkpt>
      <trkpt lat="49.66826" lon="4.96679">
        <ele>152.1</ele>
        <time>2020-06-25T14:49:45Z</time>
      </trkpt>
      <trkpt lat="49.66827" lon="4.96687">
        <ele>152.1</ele>
        <time>2020-06-25T14:49:46Z</time>
      </trkpt>
      <trkpt lat="49.66827" lon="4.96694">
        <ele>152.1</ele>
        <time>2020-06-25T14:49:47Z</time>
      </trkpt>
      <trkpt lat="49.66827" lon="4.96701">
        <ele>152.1</ele>
        <time>2020-06-25T14:49:48Z</time>
      </trkpt>
      <trkpt lat="49.66827" lon="4.96709">
        <ele>152.1</ele>
        <time>2020-06-25T14:49:49Z</time>
      </trkpt>
      <trkpt lat="49.66828" lon="4.96718">
        <ele>152.1</ele>
        <time>2020-06-25T14:49:50Z</time>
      </trkpt>
      <trkpt lat="49.66829" lon="4.96724">
        <ele>152.1</ele>
        <time>2020-06-25T14:49:51Z</time>
      </trkpt>
      <trkpt lat="49.6683" lon="4.96732">
        <ele>152.1</ele>
        <time>2020-06-25T14:49:52Z</time>
      </trkpt>
      <trkpt lat="49.66831" lon="4.96741">
        <ele>152</ele>
        <time>2020-06-25T14:49:53Z</time>
      </trkpt>
      <trkpt lat="49.66831" lon="4.9675">
        <ele>152</ele>
        <time>2020-06-25T14:49:54Z</time>
      </trkpt>
      <trkpt lat="49.6683" lon="4.96759">
        <ele>152</ele>
        <time>2020-06-25T14:49:55Z</time>
      </trkpt>
      <trkpt lat="49.66829" lon="4.96768">
        <ele>152</ele>
        <time>2020-06-25T14:49:56Z</time>
      </trkpt>
      <trkpt lat="49.66829" lon="4.9678">
        <ele>152</ele>
        <time>2020-06-25T14:49:57Z</time>
      </trkpt>
      <trkpt lat="49.66828" lon="4.9679">
        <ele>152</ele>
        <time>2020-06-25T14:49:58Z</time>
      </trkpt>
      <trkpt lat="49.66826" lon="4.968">
        <ele>152</ele>
        <time>2020-06-25T14:49:59Z</time>
      </trkpt>
      <trkpt lat="49.66824" lon="4.96809">
        <ele>152</ele>
        <time>2020-06-25T14:50:00Z</time>
      </trkpt>
      <trkpt lat="49.66823" lon="4.96817">
        <ele>152</ele>
        <time>2020-06-25T14:50:01Z</time>
      </trkpt>
      <trkpt lat="49.66822" lon="4.96826">
        <ele>152.1</ele>
        <time>2020-06-25T14:50:02Z</time>
      </trkpt>
      <trkpt lat="49.6682" lon="4.96832">
        <ele>152.1</ele>
        <time>2020-06-25T14:50:03Z</time>
      </trkpt>
      <trkpt lat="49.66818" lon="4.96837">
        <ele>152.1</ele>
        <time>2020-06-25T14:50:04Z</time>
      </trkpt>
      <trkpt lat="49.66815" lon="4.96845">
        <ele>152.1</ele>
        <time>2020-06-25T14:50:05Z</time>
      </trkpt>
      <trkpt lat="49.66813" lon="4.96852">
        <ele>152.1</ele>
        <time>2020-06-25T14:50:06Z</time>
      </trkpt>
      <trkpt lat="49.66809" lon="4.96858">
        <ele>152.1</ele>
        <time>2020-06-25T14:50:07Z</time>
      </trkpt>
      <trkpt lat="49.66807" lon="4.96864">
        <ele>152.2</ele>
        <time>2020-06-25T14:50:08Z</time>
      </trkpt>
      <trkpt lat="49.66803" lon="4.96868">
        <ele>152.2</ele>
        <time>2020-06-25T14:50:09Z</time>
      </trkpt>
      <trkpt lat="49.66799" lon="4.96875">
        <ele>152.1</ele>
        <time>2020-06-25T14:50:10Z</time>
      </trkpt>
      <trkpt lat="49.66798" lon="4.96879">
        <ele>152.1</ele>
        <time>2020-06-25T14:50:11Z</time>
      </trkpt>
      <trkpt lat="49.66796" lon="4.96883">
        <ele>152.1</ele>
        <time>2020-06-25T14:50:12Z</time>
      </trkpt>
      <trkpt lat="49.66793" lon="4.96888">
        <ele>152.1</ele>
        <time>2020-06-25T14:50:13Z</time>
      </trkpt>
      <trkpt lat="49.66792" lon="4.9689">
        <ele>152.1</ele>
        <time>2020-06-25T14:50:14Z</time>
      </trkpt>
      <trkpt lat="49.66788" lon="4.96897">
        <ele>152</ele>
        <time>2020-06-25T14:50:15Z</time>
      </trkpt>
      <trkpt lat="49.66785" lon="4.96903">
        <ele>152</ele>
        <time>2020-06-25T14:50:16Z</time>
      </trkpt>
      <trkpt lat="49.66783" lon="4.96909">
        <ele>152</ele>
        <time>2020-06-25T14:50:17Z</time>
      </trkpt>
      <trkpt lat="49.66782" lon="4.96914">
        <ele>152</ele>
        <time>2020-06-25T14:50:18Z</time>
      </trkpt>
      <trkpt lat="49.66779" lon="4.96919">
        <ele>151.9</ele>
        <time>2020-06-25T14:50:19Z</time>
      </trkpt>
      <trkpt lat="49.66775" lon="4.96923">
        <ele>151.9</ele>
        <time>2020-06-25T14:50:20Z</time>
      </trkpt>
      <trkpt lat="49.66771" lon="4.96926">
        <ele>151.9</ele>
        <time>2020-06-25T14:50:21Z</time>
      </trkpt>
      <trkpt lat="49.66765" lon="4.96933">
        <ele>152</ele>
        <time>2020-06-25T14:50:22Z</time>
      </trkpt>
      <trkpt lat="49.66759" lon="4.96939">
        <ele>152</ele>
        <time>2020-06-25T14:50:23Z</time>
      </trkpt>
      <trkpt lat="49.66753" lon="4.96947">
        <ele>152</ele>
        <time>2020-06-25T14:50:24Z</time>
      </trkpt>
      <trkpt lat="49.66748" lon="4.96954">
        <ele>152</ele>
        <time>2020-06-25T14:50:25Z</time>
      </trkpt>
      <trkpt lat="49.66744" lon="4.96961">
        <ele>152</ele>
        <time>2020-06-25T14:50:26Z</time>
      </trkpt>
      <trkpt lat="49.6674" lon="4.96967">
        <ele>152</ele>
        <time>2020-06-25T14:50:27Z</time>
      </trkpt>
      <trkpt lat="49.66736" lon="4.96971">
        <ele>152</ele>
        <time>2020-06-25T14:50:28Z</time>
      </trkpt>
      <trkpt lat="49.66732" lon="4.96976">
        <ele>152</ele>
        <time>2020-06-25T14:50:29Z</time>
      </trkpt>
      <trkpt lat="49.66728" lon="4.96981">
        <ele>152</ele>
        <time>2020-06-25T14:50:30Z</time>
      </trkpt>
      <trkpt lat="49.66725" lon="4.96986">
        <ele>152</ele>
        <time>2020-06-25T14:50:31Z</time>
      </trkpt>
      <trkpt lat="49.66723" lon="4.9699">
        <ele>152</ele>
        <time>2020-06-25T14:50:32Z</time>
      </trkpt>
      <trkpt lat="49.66721" lon="4.96994">
        <ele>152</ele>
        <time>2020-06-25T14:50:33Z</time>
      </trkpt>
      <trkpt lat="49.66718" lon="4.96999">
        <ele>152</ele>
        <time>2020-06-25T14:50:34Z</time>
      </trkpt>
      <trkpt lat="49.66715" lon="4.97003">
        <ele>152</ele>
        <time>2020-06-25T14:50:35Z</time>
      </trkpt>
      <trkpt lat="49.66712" lon="4.97008">
        <ele>152</ele>
        <time>2020-06-25T14:50:36Z</time>
      </trkpt>
      <trkpt lat="49.6671" lon="4.97013">
        <ele>152</ele>
        <time>2020-06-25T14:50:37Z</time>
      </trkpt>
      <trkpt lat="49.66706" lon="4.97019">
        <ele>152</ele>
        <time>2020-06-25T14:50:38Z</time>
      </trkpt>
      <trkpt lat="49.66701" lon="4.97024">
        <ele>152.1</ele>
        <time>2020-06-25T14:50:39Z</time>
      </trkpt>
      <trkpt lat="49.66698" lon="4.9703">
        <ele>152.1</ele>
        <time>2020-06-25T14:50:40Z</time>
      </trkpt>
      <trkpt lat="49.66695" lon="4.97036">
        <ele>152.1</ele>
        <time>2020-06-25T14:50:41Z</time>
      </trkpt>
      <trkpt lat="49.6669" lon="4.97042">
        <ele>152.1</ele>
        <time>2020-06-25T14:50:42Z</time>
      </trkpt>
      <trkpt lat="49.66687" lon="4.97049">
        <ele>152.1</ele>
        <time>2020-06-25T14:50:43Z</time>
      </trkpt>
      <trkpt lat="49.66683" lon="4.97055">
        <ele>152.1</ele>
        <time>2020-06-25T14:50:44Z</time>
      </trkpt>
      <trkpt lat="49.6668" lon="4.97059">
        <ele>152.1</ele>
        <time>2020-06-25T14:50:45Z</time>
      </trkpt>
      <trkpt lat="49.66677" lon="4.97064">
        <ele>152.1</ele>
        <time>2020-06-25T14:50:46Z</time>
      </trkpt>
      <trkpt lat="49.66674" lon="4.97071">
        <ele>152.1</ele>
        <time>2020-06-25T14:50:47Z</time>
      </trkpt>
      <trkpt lat="49.66671" lon="4.97079">
        <ele>152.1</ele>
        <time>2020-06-25T14:50:48Z</time>
      </trkpt>
      <trkpt lat="49.66669" lon="4.97087">
        <ele>152.1</ele>
        <time>2020-06-25T14:50:49Z</time>
      </trkpt>
      <trkpt lat="49.66667" lon="4.97095">
        <ele>152.1</ele>
        <time>2020-06-25T14:50:50Z</time>
      </trkpt>
      <trkpt lat="49.66665" lon="4.97103">
        <ele>152.1</ele>
        <time>2020-06-25T14:50:51Z</time>
      </trkpt>
      <trkpt lat="49.66662" lon="4.9711">
        <ele>152.1</ele>
        <time>2020-06-25T14:50:52Z</time>
      </trkpt>
      <trkpt lat="49.6666" lon="4.97117">
        <ele>152.1</ele>
        <time>2020-06-25T14:50:53Z</time>
      </trkpt>
      <trkpt lat="49.66659" lon="4.97124">
        <ele>152.1</ele>
        <time>2020-06-25T14:50:54Z</time>
      </trkpt>
      <trkpt lat="49.66657" lon="4.97132">
        <ele>152.2</ele>
        <time>2020-06-25T14:50:55Z</time>
      </trkpt>
      <trkpt lat="49.66656" lon="4.97139">
        <ele>152.2</ele>
        <time>2020-06-25T14:50:56Z</time>
      </trkpt>
      <trkpt lat="49.66654" lon="4.97147">
        <ele>152.2</ele>
        <time>2020-06-25T14:50:57Z</time>
      </trkpt>
      <trkpt lat="49.66652" lon="4.97155">
        <ele>152.2</ele>
        <time>2020-06-25T14:50:58Z</time>
      </trkpt>
      <trkpt lat="49.66649" lon="4.97163">
        <ele>152.3</ele>
        <time>2020-06-25T14:50:59Z</time>
      </trkpt>
      <trkpt lat="49.66647" lon="4.97171">
        <ele>152.3</ele>
        <time>2020-06-25T14:51:00Z</time>
      </trkpt>
      <trkpt lat="49.66644" lon="4.97179">
        <ele>152.3</ele>
        <time>2020-06-25T14:51:01Z</time>
      </trkpt>
      <trkpt lat="49.66642" lon="4.97186">
        <ele>152.3</ele>
        <time>2020-06-25T14:51:02Z</time>
      </trkpt>
      <trkpt lat="49.66639" lon="4.97194">
        <ele>152.3</ele>
        <time>2020-06-25T14:51:03Z</time>
      </trkpt>
      <trkpt lat="49.66637" lon="4.97201">
        <ele>152.3</ele>
        <time>2020-06-25T14:51:04Z</time>
      </trkpt>
      <trkpt lat="49.66635" lon="4.97209">
        <ele>152.3</ele>
        <time>2020-06-25T14:51:05Z</time>
      </trkpt>
      <trkpt lat="49.66633" lon="4.97216">
        <ele>152.3</ele>
        <time>2020-06-25T14:51:06Z</time>
      </trkpt>
      <trkpt lat="49.66631" lon="4.97224">
        <ele>152.3</ele>
        <time>2020-06-25T14:51:07Z</time>
      </trkpt>
      <trkpt lat="49.66629" lon="4.97231">
        <ele>152.3</ele>
        <time>2020-06-25T14:51:08Z</time>
      </trkpt>
      <trkpt lat="49.66627" lon="4.97237">
        <ele>152.3</ele>
        <time>2020-06-25T14:51:09Z</time>
      </trkpt>
      <trkpt lat="49.66625" lon="4.97242">
        <ele>152.3</ele>
        <time>2020-06-25T14:51:10Z</time>
      </trkpt>
      <trkpt lat="49.66624" lon="4.97247">
        <ele>152.3</ele>
        <time>2020-06-25T14:51:11Z</time>
      </trkpt>
      <trkpt lat="49.66622" lon="4.97253">
        <ele>152.3</ele>
        <time>2020-06-25T14:51:12Z</time>
      </trkpt>
      <trkpt lat="49.6662" lon="4.97257">
        <ele>152.3</ele>
        <time>2020-06-25T14:51:13Z</time>
      </trkpt>
      <trkpt lat="49.66619" lon="4.97264">
        <ele>152.3</ele>
        <time>2020-06-25T14:51:14Z</time>
      </trkpt>
      <trkpt lat="49.66616" lon="4.97269">
        <ele>152.3</ele>
        <time>2020-06-25T14:51:15Z</time>
      </trkpt>
      <trkpt lat="49.66613" lon="4.97274">
        <ele>152.2</ele>
        <time>2020-06-25T14:51:16Z</time>
      </trkpt>
      <trkpt lat="49.6661" lon="4.97279">
        <ele>152.2</ele>
        <time>2020-06-25T14:51:17Z</time>
      </trkpt>
      <trkpt lat="49.66606" lon="4.97285">
        <ele>152.2</ele>
        <time>2020-06-25T14:51:18Z</time>
      </trkpt>
      <trkpt lat="49.66603" lon="4.9729">
        <ele>152.2</ele>
        <time>2020-06-25T14:51:19Z</time>
      </trkpt>
      <trkpt lat="49.666" lon="4.97296">
        <ele>152.2</ele>
        <time>2020-06-25T14:51:20Z</time>
      </trkpt>
      <trkpt lat="49.66597" lon="4.97302">
        <ele>152.2</ele>
        <time>2020-06-25T14:51:21Z</time>
      </trkpt>
      <trkpt lat="49.66593" lon="4.97309">
        <ele>152.1</ele>
        <time>2020-06-25T14:51:22Z</time>
      </trkpt>
      <trkpt lat="49.6659" lon="4.97315">
        <ele>152.1</ele>
        <time>2020-06-25T14:51:23Z</time>
      </trkpt>
      <trkpt lat="49.66587" lon="4.97321">
        <ele>152.1</ele>
        <time>2020-06-25T14:51:24Z</time>
      </trkpt>
      <trkpt lat="49.66583" lon="4.97327">
        <ele>152.1</ele>
        <time>2020-06-25T14:51:25Z</time>
      </trkpt>
      <trkpt lat="49.66579" lon="4.97334">
        <ele>152.1</ele>
        <time>2020-06-25T14:51:26Z</time>
      </trkpt>
      <trkpt lat="49.66575" lon="4.97341">
        <ele>152.1</ele>
        <time>2020-06-25T14:51:27Z</time>
      </trkpt>
      <trkpt lat="49.66572" lon="4.97348">
        <ele>152.1</ele>
        <time>2020-06-25T14:51:28Z</time>
      </trkpt>
      <trkpt lat="49.66569" lon="4.97355">
        <ele>152.1</ele>
        <time>2020-06-25T14:51:29Z</time>
      </trkpt>
      <trkpt lat="49.66566" lon="4.97363">
        <ele>152.1</ele>
        <time>2020-06-25T14:51:30Z</time>
      </trkpt>
      <trkpt lat="49.66562" lon="4.97371">
        <ele>152.1</ele>
        <time>2020-06-25T14:51:31Z</time>
      </trkpt>
      <trkpt lat="49.6656" lon="4.97378">
        <ele>152.2</ele>
        <time>2020-06-25T14:51:32Z</time>
      </trkpt>
      <trkpt lat="49.66556" lon="4.97385">
        <ele>152.2</ele>
        <time>2020-06-25T14:51:33Z</time>
      </trkpt>
      <trkpt lat="49.66553" lon="4.97391">
        <ele>152.3</ele>
        <time>2020-06-25T14:51:34Z</time>
      </trkpt>
      <trkpt lat="49.6655" lon="4.97397">
        <ele>152.4</ele>
        <time>2020-06-25T14:51:35Z</time>
      </trkpt>
      <trkpt lat="49.66546" lon="4.97403">
        <ele>152.5</ele>
        <time>2020-06-25T14:51:36Z</time>
      </trkpt>
      <trkpt lat="49.66543" lon="4.97409">
        <ele>152.7</ele>
        <time>2020-06-25T14:51:37Z</time>
      </trkpt>
      <trkpt lat="49.6654" lon="4.97414">
        <ele>152.8</ele>
        <time>2020-06-25T14:51:38Z</time>
      </trkpt>
      <trkpt lat="49.66536" lon="4.97418">
        <ele>153</ele>
        <time>2020-06-25T14:51:39Z</time>
      </trkpt>
      <trkpt lat="49.66532" lon="4.97423">
        <ele>153.2</ele>
        <time>2020-06-25T14:51:40Z</time>
      </trkpt>
      <trkpt lat="49.66529" lon="4.97428">
        <ele>153.4</ele>
        <time>2020-06-25T14:51:41Z</time>
      </trkpt>
      <trkpt lat="49.66526" lon="4.97433">
        <ele>153.6</ele>
        <time>2020-06-25T14:51:42Z</time>
      </trkpt>
      <trkpt lat="49.66523" lon="4.97437">
        <ele>153.7</ele>
        <time>2020-06-25T14:51:43Z</time>
      </trkpt>
      <trkpt lat="49.66522" lon="4.9744">
        <ele>153.8</ele>
        <time>2020-06-25T14:51:44Z</time>
      </trkpt>
      <trkpt lat="49.6652" lon="4.97445">
        <ele>153.9</ele>
        <time>2020-06-25T14:51:45Z</time>
      </trkpt>
      <trkpt lat="49.66519" lon="4.9745">
        <ele>154</ele>
        <time>2020-06-25T14:51:46Z</time>
      </trkpt>
      <trkpt lat="49.66518" lon="4.97454">
        <ele>154</ele>
        <time>2020-06-25T14:51:47Z</time>
      </trkpt>
      <trkpt lat="49.66516" lon="4.97458">
        <ele>154.1</ele>
        <time>2020-06-25T14:51:48Z</time>
      </trkpt>
      <trkpt lat="49.66515" lon="4.97463">
        <ele>154.1</ele>
        <time>2020-06-25T14:51:49Z</time>
      </trkpt>
      <trkpt lat="49.66514" lon="4.97467">
        <ele>154.2</ele>
        <time>2020-06-25T14:51:50Z</time>
      </trkpt>
      <trkpt lat="49.66512" lon="4.97471">
        <ele>154.2</ele>
        <time>2020-06-25T14:51:51Z</time>
      </trkpt>
      <trkpt lat="49.66511" lon="4.97474">
        <ele>154.2</ele>
        <time>2020-06-25T14:51:52Z</time>
      </trkpt>
      <trkpt lat="49.66509" lon="4.97479">
        <ele>154.3</ele>
        <time>2020-06-25T14:51:53Z</time>
      </trkpt>
      <trkpt lat="49.66506" lon="4.97485">
        <ele>154.3</ele>
        <time>2020-06-25T14:51:54Z</time>
      </trkpt>
      <trkpt lat="49.66503" lon="4.9749">
        <ele>154.3</ele>
        <time>2020-06-25T14:51:55Z</time>
      </trkpt>
      <trkpt lat="49.66501" lon="4.97496">
        <ele>154.3</ele>
        <time>2020-06-25T14:51:56Z</time>
      </trkpt>
      <trkpt lat="49.66499" lon="4.97501">
        <ele>154.3</ele>
        <time>2020-06-25T14:51:57Z</time>
      </trkpt>
      <trkpt lat="49.66496" lon="4.97506">
        <ele>154.3</ele>
        <time>2020-06-25T14:51:58Z</time>
      </trkpt>
      <trkpt lat="49.66494" lon="4.97511">
        <ele>154.3</ele>
        <time>2020-06-25T14:51:59Z</time>
      </trkpt>
      <trkpt lat="49.66491" lon="4.97516">
        <ele>154.3</ele>
        <time>2020-06-25T14:52:00Z</time>
      </trkpt>
      <trkpt lat="49.66489" lon="4.97521">
        <ele>154.2</ele>
        <time>2020-06-25T14:52:01Z</time>
      </trkpt>
      <trkpt lat="49.66486" lon="4.97526">
        <ele>154.2</ele>
        <time>2020-06-25T14:52:02Z</time>
      </trkpt>
      <trkpt lat="49.66484" lon="4.97531">
        <ele>154.2</ele>
        <time>2020-06-25T14:52:03Z</time>
      </trkpt>
      <trkpt lat="49.66481" lon="4.97536">
        <ele>154.2</ele>
        <time>2020-06-25T14:52:04Z</time>
      </trkpt>
      <trkpt lat="49.66477" lon="4.97541">
        <ele>154.2</ele>
        <time>2020-06-25T14:52:05Z</time>
      </trkpt>
      <trkpt lat="49.66474" lon="4.97546">
        <ele>154.2</ele>
        <time>2020-06-25T14:52:06Z</time>
      </trkpt>
      <trkpt lat="49.6647" lon="4.97551">
        <ele>154.2</ele>
        <time>2020-06-25T14:52:07Z</time>
      </trkpt>
      <trkpt lat="49.66467" lon="4.97556">
        <ele>154.2</ele>
        <time>2020-06-25T14:52:08Z</time>
      </trkpt>
      <trkpt lat="49.66464" lon="4.97561">
        <ele>154.2</ele>
        <time>2020-06-25T14:52:09Z</time>
      </trkpt>
      <trkpt lat="49.6646" lon="4.97565">
        <ele>154.2</ele>
        <time>2020-06-25T14:52:10Z</time>
      </trkpt>
      <trkpt lat="49.66456" lon="4.97571">
        <ele>154.2</ele>
        <time>2020-06-25T14:52:11Z</time>
      </trkpt>
      <trkpt lat="49.66452" lon="4.97577">
        <ele>154.2</ele>
        <time>2020-06-25T14:52:12Z</time>
      </trkpt>
      <trkpt lat="49.66449" lon="4.97583">
        <ele>154.2</ele>
        <time>2020-06-25T14:52:13Z</time>
      </trkpt>
      <trkpt lat="49.66446" lon="4.97588">
        <ele>154.2</ele>
        <time>2020-06-25T14:52:14Z</time>
      </trkpt>
      <trkpt lat="49.66442" lon="4.97594">
        <ele>154.2</ele>
        <time>2020-06-25T14:52:15Z</time>
      </trkpt>
      <trkpt lat="49.66439" lon="4.976">
        <ele>154.2</ele>
        <time>2020-06-25T14:52:16Z</time>
      </trkpt>
      <trkpt lat="49.66435" lon="4.97607">
        <ele>154.2</ele>
        <time>2020-06-25T14:52:17Z</time>
      </trkpt>
      <trkpt lat="49.66433" lon="4.97612">
        <ele>154.3</ele>
        <time>2020-06-25T14:52:18Z</time>
      </trkpt>
      <trkpt lat="49.6643" lon="4.97618">
        <ele>154.3</ele>
        <time>2020-06-25T14:52:19Z</time>
      </trkpt>
      <trkpt lat="49.66427" lon="4.97624">
        <ele>154.3</ele>
        <time>2020-06-25T14:52:20Z</time>
      </trkpt>
      <trkpt lat="49.66424" lon="4.97629">
        <ele>154.3</ele>
        <time>2020-06-25T14:52:21Z</time>
      </trkpt>
      <trkpt lat="49.66421" lon="4.97635">
        <ele>154.2</ele>
        <time>2020-06-25T14:52:22Z</time>
      </trkpt>
      <trkpt lat="49.66418" lon="4.97641">
        <ele>154.2</ele>
        <time>2020-06-25T14:52:23Z</time>
      </trkpt>
      <trkpt lat="49.66415" lon="4.97648">
        <ele>154.2</ele>
        <time>2020-06-25T14:52:24Z</time>
      </trkpt>
      <trkpt lat="49.66412" lon="4.97654">
        <ele>154.2</ele>
        <time>2020-06-25T14:52:25Z</time>
      </trkpt>
      <trkpt lat="49.66409" lon="4.9766">
        <ele>154.2</ele>
        <time>2020-06-25T14:52:26Z</time>
      </trkpt>
      <trkpt lat="49.66406" lon="4.97667">
        <ele>154.2</ele>
        <time>2020-06-25T14:52:27Z</time>
      </trkpt>
      <trkpt lat="49.66403" lon="4.97674">
        <ele>154.2</ele>
        <time>2020-06-25T14:52:28Z</time>
      </trkpt>
      <trkpt lat="49.664" lon="4.9768">
        <ele>154.2</ele>
        <time>2020-06-25T14:52:29Z</time>
      </trkpt>
      <trkpt lat="49.66396" lon="4.97687">
        <ele>154.2</ele>
        <time>2020-06-25T14:52:30Z</time>
      </trkpt>
      <trkpt lat="49.66392" lon="4.97694">
        <ele>154.2</ele>
        <time>2020-06-25T14:52:31Z</time>
      </trkpt>
      <trkpt lat="49.66388" lon="4.97702">
        <ele>154.2</ele>
        <time>2020-06-25T14:52:32Z</time>
      </trkpt>
      <trkpt lat="49.66385" lon="4.97707">
        <ele>154.2</ele>
        <time>2020-06-25T14:52:33Z</time>
      </trkpt>
      <trkpt lat="49.66382" lon="4.97713">
        <ele>154.2</ele>
        <time>2020-06-25T14:52:34Z</time>
      </trkpt>
      <trkpt lat="49.66379" lon="4.97719">
        <ele>154.2</ele>
        <time>2020-06-25T14:52:35Z</time>
      </trkpt>
      <trkpt lat="49.66376" lon="4.97725">
        <ele>154.2</ele>
        <time>2020-06-25T14:52:36Z</time>
      </trkpt>
      <trkpt lat="49.66373" lon="4.97731">
        <ele>154.2</ele>
        <time>2020-06-25T14:52:37Z</time>
      </trkpt>
      <trkpt lat="49.6637" lon="4.97736">
        <ele>154.2</ele>
        <time>2020-06-25T14:52:38Z</time>
      </trkpt>
      <trkpt lat="49.66367" lon="4.97742">
        <ele>154.2</ele>
        <time>2020-06-25T14:52:39Z</time>
      </trkpt>
      <trkpt lat="49.66365" lon="4.97748">
        <ele>154.2</ele>
        <time>2020-06-25T14:52:40Z</time>
      </trkpt>
      <trkpt lat="49.66362" lon="4.97753">
        <ele>154.2</ele>
        <time>2020-06-25T14:52:41Z</time>
      </trkpt>
      <trkpt lat="49.66359" lon="4.97759">
        <ele>154.2</ele>
        <time>2020-06-25T14:52:42Z</time>
      </trkpt>
      <trkpt lat="49.66355" lon="4.97765">
        <ele>154.2</ele>
        <time>2020-06-25T14:52:43Z</time>
      </trkpt>
      <trkpt lat="49.66352" lon="4.97771">
        <ele>154.2</ele>
        <time>2020-06-25T14:52:44Z</time>
      </trkpt>
      <trkpt lat="49.66348" lon="4.97778">
        <ele>154.2</ele>
        <time>2020-06-25T14:52:45Z</time>
      </trkpt>
      <trkpt lat="49.66346" lon="4.97784">
        <ele>154.2</ele>
        <time>2020-06-25T14:52:46Z</time>
      </trkpt>
      <trkpt lat="49.66343" lon="4.97791">
        <ele>154.1</ele>
        <time>2020-06-25T14:52:47Z</time>
      </trkpt>
      <trkpt lat="49.6634" lon="4.97798">
        <ele>154.1</ele>
        <time>2020-06-25T14:52:48Z</time>
      </trkpt>
      <trkpt lat="49.66337" lon="4.97805">
        <ele>154.1</ele>
        <time>2020-06-25T14:52:49Z</time>
      </trkpt>
      <trkpt lat="49.66334" lon="4.97811">
        <ele>154.1</ele>
        <time>2020-06-25T14:52:50Z</time>
      </trkpt>
      <trkpt lat="49.6633" lon="4.97818">
        <ele>154.1</ele>
        <time>2020-06-25T14:52:51Z</time>
      </trkpt>
      <trkpt lat="49.66327" lon="4.97824">
        <ele>154.1</ele>
        <time>2020-06-25T14:52:52Z</time>
      </trkpt>
      <trkpt lat="49.66323" lon="4.97831">
        <ele>154.1</ele>
        <time>2020-06-25T14:52:53Z</time>
      </trkpt>
      <trkpt lat="49.66319" lon="4.97837">
        <ele>154.1</ele>
        <time>2020-06-25T14:52:54Z</time>
      </trkpt>
      <trkpt lat="49.66316" lon="4.97844">
        <ele>154.1</ele>
        <time>2020-06-25T14:52:55Z</time>
      </trkpt>
      <trkpt lat="49.66313" lon="4.9785">
        <ele>154.1</ele>
        <time>2020-06-25T14:52:56Z</time>
      </trkpt>
      <trkpt lat="49.6631" lon="4.97855">
        <ele>154.1</ele>
        <time>2020-06-25T14:52:57Z</time>
      </trkpt>
      <trkpt lat="49.66306" lon="4.97862">
        <ele>154.1</ele>
        <time>2020-06-25T14:52:58Z</time>
      </trkpt>
      <trkpt lat="49.66302" lon="4.97868">
        <ele>154.1</ele>
        <time>2020-06-25T14:52:59Z</time>
      </trkpt>
      <trkpt lat="49.663" lon="4.97874">
        <ele>154.1</ele>
        <time>2020-06-25T14:53:00Z</time>
      </trkpt>
      <trkpt lat="49.66296" lon="4.9788">
        <ele>154.1</ele>
        <time>2020-06-25T14:53:01Z</time>
      </trkpt>
      <trkpt lat="49.66294" lon="4.97886">
        <ele>154.1</ele>
        <time>2020-06-25T14:53:02Z</time>
      </trkpt>
      <trkpt lat="49.6629" lon="4.97892">
        <ele>154.2</ele>
        <time>2020-06-25T14:53:03Z</time>
      </trkpt>
      <trkpt lat="49.66287" lon="4.97898">
        <ele>154.2</ele>
        <time>2020-06-25T14:53:04Z</time>
      </trkpt>
      <trkpt lat="49.66284" lon="4.97904">
        <ele>154.2</ele>
        <time>2020-06-25T14:53:05Z</time>
      </trkpt>
      <trkpt lat="49.66281" lon="4.9791">
        <ele>154.2</ele>
        <time>2020-06-25T14:53:06Z</time>
      </trkpt>
      <trkpt lat="49.66278" lon="4.97916">
        <ele>154.3</ele>
        <time>2020-06-25T14:53:07Z</time>
      </trkpt>
      <trkpt lat="49.66275" lon="4.97922">
        <ele>154.3</ele>
        <time>2020-06-25T14:53:08Z</time>
      </trkpt>
      <trkpt lat="49.66271" lon="4.97928">
        <ele>154.3</ele>
        <time>2020-06-25T14:53:09Z</time>
      </trkpt>
      <trkpt lat="49.66266" lon="4.97935">
        <ele>154.3</ele>
        <time>2020-06-25T14:53:10Z</time>
      </trkpt>
      <trkpt lat="49.66264" lon="4.97942">
        <ele>154.3</ele>
        <time>2020-06-25T14:53:11Z</time>
      </trkpt>
      <trkpt lat="49.66259" lon="4.97948">
        <ele>154.3</ele>
        <time>2020-06-25T14:53:12Z</time>
      </trkpt>
      <trkpt lat="49.66255" lon="4.97954">
        <ele>154.3</ele>
        <time>2020-06-25T14:53:13Z</time>
      </trkpt>
      <trkpt lat="49.66252" lon="4.9796">
        <ele>154.3</ele>
        <time>2020-06-25T14:53:14Z</time>
      </trkpt>
      <trkpt lat="49.66248" lon="4.97966">
        <ele>154.3</ele>
        <time>2020-06-25T14:53:15Z</time>
      </trkpt>
      <trkpt lat="49.66245" lon="4.97972">
        <ele>154.3</ele>
        <time>2020-06-25T14:53:16Z</time>
      </trkpt>
      <trkpt lat="49.66242" lon="4.97978">
        <ele>154.3</ele>
        <time>2020-06-25T14:53:17Z</time>
      </trkpt>
      <trkpt lat="49.6624" lon="4.97984">
        <ele>154.3</ele>
        <time>2020-06-25T14:53:18Z</time>
      </trkpt>
      <trkpt lat="49.66238" lon="4.97989">
        <ele>154.2</ele>
        <time>2020-06-25T14:53:19Z</time>
      </trkpt>
      <trkpt lat="49.66235" lon="4.97995">
        <ele>154.2</ele>
        <time>2020-06-25T14:53:20Z</time>
      </trkpt>
      <trkpt lat="49.66232" lon="4.98">
        <ele>154.2</ele>
        <time>2020-06-25T14:53:21Z</time>
      </trkpt>
      <trkpt lat="49.66229" lon="4.98007">
        <ele>154.2</ele>
        <time>2020-06-25T14:53:22Z</time>
      </trkpt>
      <trkpt lat="49.66225" lon="4.98012">
        <ele>154.2</ele>
        <time>2020-06-25T14:53:23Z</time>
      </trkpt>
      <trkpt lat="49.66222" lon="4.98018">
        <ele>154.2</ele>
        <time>2020-06-25T14:53:24Z</time>
      </trkpt>
      <trkpt lat="49.66219" lon="4.98025">
        <ele>154.2</ele>
        <time>2020-06-25T14:53:25Z</time>
      </trkpt>
      <trkpt lat="49.66217" lon="4.98031">
        <ele>154.2</ele>
        <time>2020-06-25T14:53:26Z</time>
      </trkpt>
      <trkpt lat="49.66213" lon="4.98036">
        <ele>154.2</ele>
        <time>2020-06-25T14:53:27Z</time>
      </trkpt>
      <trkpt lat="49.66209" lon="4.98041">
        <ele>154.3</ele>
        <time>2020-06-25T14:53:28Z</time>
      </trkpt>
      <trkpt lat="49.66206" lon="4.98047">
        <ele>154.3</ele>
        <time>2020-06-25T14:53:29Z</time>
      </trkpt>
      <trkpt lat="49.66203" lon="4.98052">
        <ele>154.3</ele>
        <time>2020-06-25T14:53:30Z</time>
      </trkpt>
      <trkpt lat="49.662" lon="4.98058">
        <ele>154.3</ele>
        <time>2020-06-25T14:53:31Z</time>
      </trkpt>
      <trkpt lat="49.66197" lon="4.98064">
        <ele>154.3</ele>
        <time>2020-06-25T14:53:32Z</time>
      </trkpt>
      <trkpt lat="49.66193" lon="4.98069">
        <ele>154.3</ele>
        <time>2020-06-25T14:53:33Z</time>
      </trkpt>
      <trkpt lat="49.66191" lon="4.98075">
        <ele>154.3</ele>
        <time>2020-06-25T14:53:34Z</time>
      </trkpt>
      <trkpt lat="49.66188" lon="4.98081">
        <ele>154.3</ele>
        <time>2020-06-25T14:53:35Z</time>
      </trkpt>
      <trkpt lat="49.66184" lon="4.98086">
        <ele>154.3</ele>
        <time>2020-06-25T14:53:36Z</time>
      </trkpt>
      <trkpt lat="49.66182" lon="4.98091">
        <ele>154.3</ele>
        <time>2020-06-25T14:53:37Z</time>
      </trkpt>
      <trkpt lat="49.6618" lon="4.98098">
        <ele>154.3</ele>
        <time>2020-06-25T14:53:38Z</time>
      </trkpt>
      <trkpt lat="49.66178" lon="4.98105">
        <ele>154.3</ele>
        <time>2020-06-25T14:53:39Z</time>
      </trkpt>
      <trkpt lat="49.66175" lon="4.9811">
        <ele>154.3</ele>
        <time>2020-06-25T14:53:40Z</time>
      </trkpt>
      <trkpt lat="49.66172" lon="4.98116">
        <ele>154.3</ele>
        <time>2020-06-25T14:53:41Z</time>
      </trkpt>
      <trkpt lat="49.66169" lon="4.98122">
        <ele>154.3</ele>
        <time>2020-06-25T14:53:42Z</time>
      </trkpt>
      <trkpt lat="49.66165" lon="4.98127">
        <ele>154.3</ele>
        <time>2020-06-25T14:53:43Z</time>
      </trkpt>
      <trkpt lat="49.66161" lon="4.98132">
        <ele>154.3</ele>
        <time>2020-06-25T14:53:44Z</time>
      </trkpt>
      <trkpt lat="49.66159" lon="4.98138">
        <ele>154.3</ele>
        <time>2020-06-25T14:53:45Z</time>
      </trkpt>
      <trkpt lat="49.66156" lon="4.98144">
        <ele>154.3</ele>
        <time>2020-06-25T14:53:46Z</time>
      </trkpt>
      <trkpt lat="49.66153" lon="4.9815">
        <ele>154.2</ele>
        <time>2020-06-25T14:53:47Z</time>
      </trkpt>
      <trkpt lat="49.6615" lon="4.98157">
        <ele>154.2</ele>
        <time>2020-06-25T14:53:48Z</time>
      </trkpt>
      <trkpt lat="49.66147" lon="4.98163">
        <ele>154.2</ele>
        <time>2020-06-25T14:53:49Z</time>
      </trkpt>
      <trkpt lat="49.66144" lon="4.98169">
        <ele>154.2</ele>
        <time>2020-06-25T14:53:50Z</time>
      </trkpt>
      <trkpt lat="49.66141" lon="4.98175">
        <ele>154.2</ele>
        <time>2020-06-25T14:53:51Z</time>
      </trkpt>
      <trkpt lat="49.66138" lon="4.98181">
        <ele>154.2</ele>
        <time>2020-06-25T14:53:52Z</time>
      </trkpt>
      <trkpt lat="49.66135" lon="4.98187">
        <ele>154.2</ele>
        <time>2020-06-25T14:53:53Z</time>
      </trkpt>
      <trkpt lat="49.66132" lon="4.98194">
        <ele>154.2</ele>
        <time>2020-06-25T14:53:54Z</time>
      </trkpt>
      <trkpt lat="49.66129" lon="4.98199">
        <ele>154.2</ele>
        <time>2020-06-25T14:53:55Z</time>
      </trkpt>
      <trkpt lat="49.66125" lon="4.98205">
        <ele>154.2</ele>
        <time>2020-06-25T14:53:56Z</time>
      </trkpt>
      <trkpt lat="49.66121" lon="4.98211">
        <ele>154.2</ele>
        <time>2020-06-25T14:53:57Z</time>
      </trkpt>
      <trkpt lat="49.66118" lon="4.98218">
        <ele>154.2</ele>
        <time>2020-06-25T14:53:58Z</time>
      </trkpt>
      <trkpt lat="49.66115" lon="4.98225">
        <ele>154.2</ele>
        <time>2020-06-25T14:53:59Z</time>
      </trkpt>
      <trkpt lat="49.66112" lon="4.98232">
        <ele>154.2</ele>
        <time>2020-06-25T14:54:00Z</time>
      </trkpt>
      <trkpt lat="49.66108" lon="4.98239">
        <ele>154.2</ele>
        <time>2020-06-25T14:54:01Z</time>
      </trkpt>
      <trkpt lat="49.66107" lon="4.98246">
        <ele>154.2</ele>
        <time>2020-06-25T14:54:02Z</time>
      </trkpt>
      <trkpt lat="49.66103" lon="4.98253">
        <ele>154.2</ele>
        <time>2020-06-25T14:54:03Z</time>
      </trkpt>
      <trkpt lat="49.66099" lon="4.98259">
        <ele>154.2</ele>
        <time>2020-06-25T14:54:04Z</time>
      </trkpt>
      <trkpt lat="49.66096" lon="4.98266">
        <ele>154.2</ele>
        <time>2020-06-25T14:54:05Z</time>
      </trkpt>
      <trkpt lat="49.66093" lon="4.98272">
        <ele>154.2</ele>
        <time>2020-06-25T14:54:06Z</time>
      </trkpt>
      <trkpt lat="49.66089" lon="4.98278">
        <ele>154.2</ele>
        <time>2020-06-25T14:54:07Z</time>
      </trkpt>
      <trkpt lat="49.66086" lon="4.98284">
        <ele>154.1</ele>
        <time>2020-06-25T14:54:08Z</time>
      </trkpt>
      <trkpt lat="49.66082" lon="4.98291">
        <ele>154.1</ele>
        <time>2020-06-25T14:54:09Z</time>
      </trkpt>
      <trkpt lat="49.66078" lon="4.98297">
        <ele>154.1</ele>
        <time>2020-06-25T14:54:10Z</time>
      </trkpt>
      <trkpt lat="49.66075" lon="4.98303">
        <ele>154.1</ele>
        <time>2020-06-25T14:54:11Z</time>
      </trkpt>
      <trkpt lat="49.66071" lon="4.9831">
        <ele>154.1</ele>
        <time>2020-06-25T14:54:12Z</time>
      </trkpt>
      <trkpt lat="49.66068" lon="4.98318">
        <ele>154.1</ele>
        <time>2020-06-25T14:54:13Z</time>
      </trkpt>
      <trkpt lat="49.66065" lon="4.98324">
        <ele>154.1</ele>
        <time>2020-06-25T14:54:14Z</time>
      </trkpt>
      <trkpt lat="49.66061" lon="4.98331">
        <ele>154.1</ele>
        <time>2020-06-25T14:54:15Z</time>
      </trkpt>
      <trkpt lat="49.66058" lon="4.98337">
        <ele>154.2</ele>
        <time>2020-06-25T14:54:16Z</time>
      </trkpt>
      <trkpt lat="49.66054" lon="4.98343">
        <ele>154.2</ele>
        <time>2020-06-25T14:54:17Z</time>
      </trkpt>
      <trkpt lat="49.6605" lon="4.98349">
        <ele>154.2</ele>
        <time>2020-06-25T14:54:18Z</time>
      </trkpt>
      <trkpt lat="49.66047" lon="4.98355">
        <ele>154.2</ele>
        <time>2020-06-25T14:54:19Z</time>
      </trkpt>
      <trkpt lat="49.66043" lon="4.98362">
        <ele>154.2</ele>
        <time>2020-06-25T14:54:20Z</time>
      </trkpt>
      <trkpt lat="49.6604" lon="4.98369">
        <ele>154.2</ele>
        <time>2020-06-25T14:54:21Z</time>
      </trkpt>
      <trkpt lat="49.66036" lon="4.98375">
        <ele>154.2</ele>
        <time>2020-06-25T14:54:22Z</time>
      </trkpt>
      <trkpt lat="49.66033" lon="4.9838">
        <ele>154.2</ele>
        <time>2020-06-25T14:54:23Z</time>
      </trkpt>
      <trkpt lat="49.6603" lon="4.98386">
        <ele>154.2</ele>
        <time>2020-06-25T14:54:24Z</time>
      </trkpt>
      <trkpt lat="49.66027" lon="4.98392">
        <ele>154.2</ele>
        <time>2020-06-25T14:54:25Z</time>
      </trkpt>
      <trkpt lat="49.66024" lon="4.98398">
        <ele>154.2</ele>
        <time>2020-06-25T14:54:26Z</time>
      </trkpt>
      <trkpt lat="49.66021" lon="4.98404">
        <ele>154.2</ele>
        <time>2020-06-25T14:54:27Z</time>
      </trkpt>
      <trkpt lat="49.66018" lon="4.9841">
        <ele>154.2</ele>
        <time>2020-06-25T14:54:28Z</time>
      </trkpt>
      <trkpt lat="49.66017" lon="4.98415">
        <ele>154.2</ele>
        <time>2020-06-25T14:54:29Z</time>
      </trkpt>
      <trkpt lat="49.66014" lon="4.9842">
        <ele>154.2</ele>
        <time>2020-06-25T14:54:30Z</time>
      </trkpt>
      <trkpt lat="49.66012" lon="4.98426">
        <ele>154.2</ele>
        <time>2020-06-25T14:54:31Z</time>
      </trkpt>
      <trkpt lat="49.6601" lon="4.98431">
        <ele>154.2</ele>
        <time>2020-06-25T14:54:32Z</time>
      </trkpt>
      <trkpt lat="49.66009" lon="4.98436">
        <ele>154.2</ele>
        <time>2020-06-25T14:54:33Z</time>
      </trkpt>
      <trkpt lat="49.66007" lon="4.98441">
        <ele>154.2</ele>
        <time>2020-06-25T14:54:34Z</time>
      </trkpt>
      <trkpt lat="49.66005" lon="4.98447">
        <ele>154.1</ele>
        <time>2020-06-25T14:54:35Z</time>
      </trkpt>
      <trkpt lat="49.66002" lon="4.98452">
        <ele>154.1</ele>
        <time>2020-06-25T14:54:36Z</time>
      </trkpt>
      <trkpt lat="49.66" lon="4.98457">
        <ele>154.1</ele>
        <time>2020-06-25T14:54:37Z</time>
      </trkpt>
      <trkpt lat="49.65997" lon="4.98463">
        <ele>154.1</ele>
        <time>2020-06-25T14:54:38Z</time>
      </trkpt>
      <trkpt lat="49.65994" lon="4.98468">
        <ele>154.1</ele>
        <time>2020-06-25T14:54:39Z</time>
      </trkpt>
      <trkpt lat="49.65991" lon="4.98474">
        <ele>154.1</ele>
        <time>2020-06-25T14:54:40Z</time>
      </trkpt>
      <trkpt lat="49.65987" lon="4.98479">
        <ele>154.1</ele>
        <time>2020-06-25T14:54:41Z</time>
      </trkpt>
      <trkpt lat="49.65984" lon="4.98484">
        <ele>154.1</ele>
        <time>2020-06-25T14:54:42Z</time>
      </trkpt>
      <trkpt lat="49.65981" lon="4.9849">
        <ele>154.1</ele>
        <time>2020-06-25T14:54:43Z</time>
      </trkpt>
      <trkpt lat="49.65978" lon="4.98495">
        <ele>154.2</ele>
        <time>2020-06-25T14:54:44Z</time>
      </trkpt>
      <trkpt lat="49.65976" lon="4.98501">
        <ele>154.2</ele>
        <time>2020-06-25T14:54:45Z</time>
      </trkpt>
      <trkpt lat="49.65973" lon="4.98506">
        <ele>154.2</ele>
        <time>2020-06-25T14:54:46Z</time>
      </trkpt>
      <trkpt lat="49.65971" lon="4.98511">
        <ele>154.2</ele>
        <time>2020-06-25T14:54:47Z</time>
      </trkpt>
      <trkpt lat="49.65969" lon="4.98514">
        <ele>154.2</ele>
        <time>2020-06-25T14:54:48Z</time>
      </trkpt>
      <trkpt lat="49.65965" lon="4.98517">
        <ele>154.2</ele>
        <time>2020-06-25T14:54:49Z</time>
      </trkpt>
      <trkpt lat="49.65961" lon="4.9852">
        <ele>154.2</ele>
        <time>2020-06-25T14:54:50Z</time>
      </trkpt>
      <trkpt lat="49.65957" lon="4.98525">
        <ele>154.2</ele>
        <time>2020-06-25T14:54:51Z</time>
      </trkpt>
      <trkpt lat="49.65954" lon="4.9853">
        <ele>154.2</ele>
        <time>2020-06-25T14:54:52Z</time>
      </trkpt>
      <trkpt lat="49.65951" lon="4.98535">
        <ele>154.2</ele>
        <time>2020-06-25T14:54:53Z</time>
      </trkpt>
      <trkpt lat="49.65948" lon="4.9854">
        <ele>154.2</ele>
        <time>2020-06-25T14:54:54Z</time>
      </trkpt>
      <trkpt lat="49.65945" lon="4.98546">
        <ele>154.2</ele>
        <time>2020-06-25T14:54:55Z</time>
      </trkpt>
      <trkpt lat="49.65942" lon="4.98552">
        <ele>154.2</ele>
        <time>2020-06-25T14:54:56Z</time>
      </trkpt>
      <trkpt lat="49.65939" lon="4.98557">
        <ele>154.2</ele>
        <time>2020-06-25T14:54:57Z</time>
      </trkpt>
      <trkpt lat="49.65937" lon="4.98562">
        <ele>154.2</ele>
        <time>2020-06-25T14:54:58Z</time>
      </trkpt>
      <trkpt lat="49.65935" lon="4.98567">
        <ele>154.2</ele>
        <time>2020-06-25T14:54:59Z</time>
      </trkpt>
      <trkpt lat="49.65933" lon="4.98572">
        <ele>154.2</ele>
        <time>2020-06-25T14:55:00Z</time>
      </trkpt>
      <trkpt lat="49.6593" lon="4.98575">
        <ele>154.3</ele>
        <time>2020-06-25T14:55:01Z</time>
      </trkpt>
      <trkpt lat="49.65928" lon="4.98579">
        <ele>154.3</ele>
        <time>2020-06-25T14:55:02Z</time>
      </trkpt>
      <trkpt lat="49.65925" lon="4.98582">
        <ele>154.3</ele>
        <time>2020-06-25T14:55:03Z</time>
      </trkpt>
      <trkpt lat="49.65923" lon="4.98588">
        <ele>154.3</ele>
        <time>2020-06-25T14:55:04Z</time>
      </trkpt>
      <trkpt lat="49.65921" lon="4.98592">
        <ele>154.3</ele>
        <time>2020-06-25T14:55:05Z</time>
      </trkpt>
      <trkpt lat="49.65919" lon="4.98599">
        <ele>154.3</ele>
        <time>2020-06-25T14:55:06Z</time>
      </trkpt>
      <trkpt lat="49.65916" lon="4.98605">
        <ele>154.3</ele>
        <time>2020-06-25T14:55:07Z</time>
      </trkpt>
      <trkpt lat="49.65913" lon="4.98611">
        <ele>154.4</ele>
        <time>2020-06-25T14:55:08Z</time>
      </trkpt>
      <trkpt lat="49.6591" lon="4.98618">
        <ele>154.4</ele>
        <time>2020-06-25T14:55:09Z</time>
      </trkpt>
      <trkpt lat="49.65906" lon="4.98623">
        <ele>154.4</ele>
        <time>2020-06-25T14:55:10Z</time>
      </trkpt>
      <trkpt lat="49.65903" lon="4.98629">
        <ele>154.4</ele>
        <time>2020-06-25T14:55:11Z</time>
      </trkpt>
      <trkpt lat="49.659" lon="4.98634">
        <ele>154.4</ele>
        <time>2020-06-25T14:55:12Z</time>
      </trkpt>
      <trkpt lat="49.65896" lon="4.98638">
        <ele>154.4</ele>
        <time>2020-06-25T14:55:13Z</time>
      </trkpt>
      <trkpt lat="49.65894" lon="4.98644">
        <ele>154.4</ele>
        <time>2020-06-25T14:55:14Z</time>
      </trkpt>
      <trkpt lat="49.65891" lon="4.9865">
        <ele>154.3</ele>
        <time>2020-06-25T14:55:15Z</time>
      </trkpt>
      <trkpt lat="49.65888" lon="4.98656">
        <ele>154.3</ele>
        <time>2020-06-25T14:55:16Z</time>
      </trkpt>
      <trkpt lat="49.65886" lon="4.98663">
        <ele>154.4</ele>
        <time>2020-06-25T14:55:17Z</time>
      </trkpt>
      <trkpt lat="49.65883" lon="4.9867">
        <ele>154.4</ele>
        <time>2020-06-25T14:55:18Z</time>
      </trkpt>
      <trkpt lat="49.65879" lon="4.98677">
        <ele>154.4</ele>
        <time>2020-06-25T14:55:19Z</time>
      </trkpt>
      <trkpt lat="49.65876" lon="4.98683">
        <ele>154.4</ele>
        <time>2020-06-25T14:55:20Z</time>
      </trkpt>
      <trkpt lat="49.65872" lon="4.98688">
        <ele>154.4</ele>
        <time>2020-06-25T14:55:21Z</time>
      </trkpt>
      <trkpt lat="49.65869" lon="4.98694">
        <ele>154.4</ele>
        <time>2020-06-25T14:55:22Z</time>
      </trkpt>
      <trkpt lat="49.65866" lon="4.987">
        <ele>154.5</ele>
        <time>2020-06-25T14:55:23Z</time>
      </trkpt>
      <trkpt lat="49.65863" lon="4.98707">
        <ele>154.5</ele>
        <time>2020-06-25T14:55:24Z</time>
      </trkpt>
      <trkpt lat="49.6586" lon="4.98714">
        <ele>154.5</ele>
        <time>2020-06-25T14:55:25Z</time>
      </trkpt>
      <trkpt lat="49.65857" lon="4.98721">
        <ele>154.5</ele>
        <time>2020-06-25T14:55:26Z</time>
      </trkpt>
      <trkpt lat="49.65854" lon="4.98726">
        <ele>154.5</ele>
        <time>2020-06-25T14:55:27Z</time>
      </trkpt>
      <trkpt lat="49.65851" lon="4.98732">
        <ele>154.5</ele>
        <time>2020-06-25T14:55:28Z</time>
      </trkpt>
      <trkpt lat="49.65848" lon="4.98738">
        <ele>154.5</ele>
        <time>2020-06-25T14:55:29Z</time>
      </trkpt>
      <trkpt lat="49.65845" lon="4.98744">
        <ele>154.5</ele>
        <time>2020-06-25T14:55:30Z</time>
      </trkpt>
      <trkpt lat="49.65842" lon="4.98751">
        <ele>154.5</ele>
        <time>2020-06-25T14:55:31Z</time>
      </trkpt>
      <trkpt lat="49.65839" lon="4.98757">
        <ele>154.5</ele>
        <time>2020-06-25T14:55:32Z</time>
      </trkpt>
      <trkpt lat="49.65836" lon="4.98763">
        <ele>154.5</ele>
        <time>2020-06-25T14:55:33Z</time>
      </trkpt>
      <trkpt lat="49.65833" lon="4.98768">
        <ele>154.5</ele>
        <time>2020-06-25T14:55:34Z</time>
      </trkpt>
      <trkpt lat="49.6583" lon="4.98772">
        <ele>154.5</ele>
        <time>2020-06-25T14:55:35Z</time>
      </trkpt>
      <trkpt lat="49.65827" lon="4.98777">
        <ele>154.5</ele>
        <time>2020-06-25T14:55:36Z</time>
      </trkpt>
      <trkpt lat="49.65824" lon="4.98782">
        <ele>154.5</ele>
        <time>2020-06-25T14:55:37Z</time>
      </trkpt>
      <trkpt lat="49.65823" lon="4.98788">
        <ele>154.5</ele>
        <time>2020-06-25T14:55:38Z</time>
      </trkpt>
      <trkpt lat="49.6582" lon="4.98794">
        <ele>154.6</ele>
        <time>2020-06-25T14:55:39Z</time>
      </trkpt>
      <trkpt lat="49.65818" lon="4.98801">
        <ele>154.6</ele>
        <time>2020-06-25T14:55:40Z</time>
      </trkpt>
      <trkpt lat="49.65815" lon="4.98807">
        <ele>154.6</ele>
        <time>2020-06-25T14:55:41Z</time>
      </trkpt>
      <trkpt lat="49.65813" lon="4.98813">
        <ele>154.6</ele>
        <time>2020-06-25T14:55:42Z</time>
      </trkpt>
      <trkpt lat="49.6581" lon="4.98819">
        <ele>154.6</ele>
        <time>2020-06-25T14:55:43Z</time>
      </trkpt>
      <trkpt lat="49.65807" lon="4.98825">
        <ele>154.6</ele>
        <time>2020-06-25T14:55:44Z</time>
      </trkpt>
      <trkpt lat="49.65804" lon="4.98831">
        <ele>154.6</ele>
        <time>2020-06-25T14:55:45Z</time>
      </trkpt>
      <trkpt lat="49.65801" lon="4.98838">
        <ele>154.6</ele>
        <time>2020-06-25T14:55:46Z</time>
      </trkpt>
      <trkpt lat="49.65797" lon="4.98843">
        <ele>154.6</ele>
        <time>2020-06-25T14:55:47Z</time>
      </trkpt>
      <trkpt lat="49.65794" lon="4.98849">
        <ele>154.7</ele>
        <time>2020-06-25T14:55:48Z</time>
      </trkpt>
      <trkpt lat="49.65791" lon="4.98854">
        <ele>154.7</ele>
        <time>2020-06-25T14:55:49Z</time>
      </trkpt>
      <trkpt lat="49.65787" lon="4.9886">
        <ele>154.7</ele>
        <time>2020-06-25T14:55:50Z</time>
      </trkpt>
      <trkpt lat="49.65783" lon="4.98865">
        <ele>154.7</ele>
        <time>2020-06-25T14:55:51Z</time>
      </trkpt>
      <trkpt lat="49.6578" lon="4.98871">
        <ele>154.7</ele>
        <time>2020-06-25T14:55:52Z</time>
      </trkpt>
      <trkpt lat="49.65777" lon="4.98876">
        <ele>154.7</ele>
        <time>2020-06-25T14:55:53Z</time>
      </trkpt>
      <trkpt lat="49.65773" lon="4.98883">
        <ele>154.7</ele>
        <time>2020-06-25T14:55:54Z</time>
      </trkpt>
      <trkpt lat="49.6577" lon="4.98889">
        <ele>154.7</ele>
        <time>2020-06-25T14:55:55Z</time>
      </trkpt>
      <trkpt lat="49.65766" lon="4.98895">
        <ele>154.7</ele>
        <time>2020-06-25T14:55:56Z</time>
      </trkpt>
      <trkpt lat="49.65763" lon="4.98901">
        <ele>154.8</ele>
        <time>2020-06-25T14:55:57Z</time>
      </trkpt>
      <trkpt lat="49.65759" lon="4.98908">
        <ele>154.8</ele>
        <time>2020-06-25T14:55:58Z</time>
      </trkpt>
      <trkpt lat="49.65756" lon="4.98913">
        <ele>154.8</ele>
        <time>2020-06-25T14:55:59Z</time>
      </trkpt>
      <trkpt lat="49.65752" lon="4.98919">
        <ele>154.8</ele>
        <time>2020-06-25T14:56:00Z</time>
      </trkpt>
      <trkpt lat="49.65749" lon="4.98924">
        <ele>154.8</ele>
        <time>2020-06-25T14:56:01Z</time>
      </trkpt>
      <trkpt lat="49.65746" lon="4.9893">
        <ele>154.8</ele>
        <time>2020-06-25T14:56:02Z</time>
      </trkpt>
      <trkpt lat="49.65742" lon="4.98936">
        <ele>154.8</ele>
        <time>2020-06-25T14:56:03Z</time>
      </trkpt>
      <trkpt lat="49.65739" lon="4.98942">
        <ele>154.7</ele>
        <time>2020-06-25T14:56:04Z</time>
      </trkpt>
      <trkpt lat="49.65735" lon="4.98947">
        <ele>154.7</ele>
        <time>2020-06-25T14:56:05Z</time>
      </trkpt>
      <trkpt lat="49.65732" lon="4.98953">
        <ele>154.7</ele>
        <time>2020-06-25T14:56:06Z</time>
      </trkpt>
      <trkpt lat="49.65729" lon="4.98959">
        <ele>154.7</ele>
        <time>2020-06-25T14:56:07Z</time>
      </trkpt>
      <trkpt lat="49.65726" lon="4.98966">
        <ele>154.8</ele>
        <time>2020-06-25T14:56:08Z</time>
      </trkpt>
      <trkpt lat="49.65723" lon="4.98972">
        <ele>154.8</ele>
        <time>2020-06-25T14:56:09Z</time>
      </trkpt>
      <trkpt lat="49.65719" lon="4.98978">
        <ele>154.8</ele>
        <time>2020-06-25T14:56:10Z</time>
      </trkpt>
      <trkpt lat="49.65715" lon="4.98984">
        <ele>154.8</ele>
        <time>2020-06-25T14:56:11Z</time>
      </trkpt>
      <trkpt lat="49.65712" lon="4.98989">
        <ele>154.8</ele>
        <time>2020-06-25T14:56:12Z</time>
      </trkpt>
      <trkpt lat="49.65709" lon="4.98994">
        <ele>154.9</ele>
        <time>2020-06-25T14:56:13Z</time>
      </trkpt>
      <trkpt lat="49.65705" lon="4.98999">
        <ele>154.9</ele>
        <time>2020-06-25T14:56:14Z</time>
      </trkpt>
      <trkpt lat="49.65702" lon="4.99005">
        <ele>154.9</ele>
        <time>2020-06-25T14:56:15Z</time>
      </trkpt>
      <trkpt lat="49.65699" lon="4.99011">
        <ele>154.9</ele>
        <time>2020-06-25T14:56:16Z</time>
      </trkpt>
      <trkpt lat="49.65696" lon="4.99017">
        <ele>154.9</ele>
        <time>2020-06-25T14:56:17Z</time>
      </trkpt>
      <trkpt lat="49.65693" lon="4.99023">
        <ele>155</ele>
        <time>2020-06-25T14:56:18Z</time>
      </trkpt>
      <trkpt lat="49.65689" lon="4.99029">
        <ele>155</ele>
        <time>2020-06-25T14:56:19Z</time>
      </trkpt>
      <trkpt lat="49.65685" lon="4.99035">
        <ele>154.9</ele>
        <time>2020-06-25T14:56:20Z</time>
      </trkpt>
      <trkpt lat="49.65682" lon="4.9904">
        <ele>154.9</ele>
        <time>2020-06-25T14:56:21Z</time>
      </trkpt>
      <trkpt lat="49.65678" lon="4.99046">
        <ele>154.9</ele>
        <time>2020-06-25T14:56:22Z</time>
      </trkpt>
      <trkpt lat="49.65674" lon="4.99052">
        <ele>154.9</ele>
        <time>2020-06-25T14:56:23Z</time>
      </trkpt>
      <trkpt lat="49.65671" lon="4.99058">
        <ele>154.9</ele>
        <time>2020-06-25T14:56:24Z</time>
      </trkpt>
      <trkpt lat="49.65668" lon="4.99065">
        <ele>154.9</ele>
        <time>2020-06-25T14:56:25Z</time>
      </trkpt>
      <trkpt lat="49.65665" lon="4.99071">
        <ele>154.9</ele>
        <time>2020-06-25T14:56:26Z</time>
      </trkpt>
      <trkpt lat="49.65663" lon="4.99076">
        <ele>154.9</ele>
        <time>2020-06-25T14:56:27Z</time>
      </trkpt>
      <trkpt lat="49.65661" lon="4.9908">
        <ele>154.9</ele>
        <time>2020-06-25T14:56:28Z</time>
      </trkpt>
      <trkpt lat="49.65658" lon="4.99084">
        <ele>155</ele>
        <time>2020-06-25T14:56:29Z</time>
      </trkpt>
      <trkpt lat="49.65655" lon="4.9909">
        <ele>155</ele>
        <time>2020-06-25T14:56:30Z</time>
      </trkpt>
      <trkpt lat="49.65652" lon="4.99095">
        <ele>155</ele>
        <time>2020-06-25T14:56:31Z</time>
      </trkpt>
      <trkpt lat="49.65649" lon="4.991">
        <ele>155</ele>
        <time>2020-06-25T14:56:32Z</time>
      </trkpt>
      <trkpt lat="49.65646" lon="4.99106">
        <ele>155</ele>
        <time>2020-06-25T14:56:33Z</time>
      </trkpt>
      <trkpt lat="49.65643" lon="4.99112">
        <ele>155</ele>
        <time>2020-06-25T14:56:34Z</time>
      </trkpt>
      <trkpt lat="49.6564" lon="4.99118">
        <ele>155.1</ele>
        <time>2020-06-25T14:56:35Z</time>
      </trkpt>
      <trkpt lat="49.65636" lon="4.99123">
        <ele>155.1</ele>
        <time>2020-06-25T14:56:36Z</time>
      </trkpt>
      <trkpt lat="49.65633" lon="4.99129">
        <ele>155.1</ele>
        <time>2020-06-25T14:56:37Z</time>
      </trkpt>
      <trkpt lat="49.65629" lon="4.99132">
        <ele>155.1</ele>
        <time>2020-06-25T14:56:38Z</time>
      </trkpt>
      <trkpt lat="49.65626" lon="4.99138">
        <ele>155.1</ele>
        <time>2020-06-25T14:56:39Z</time>
      </trkpt>
      <trkpt lat="49.65623" lon="4.99144">
        <ele>155.1</ele>
        <time>2020-06-25T14:56:40Z</time>
      </trkpt>
      <trkpt lat="49.6562" lon="4.99152">
        <ele>155.1</ele>
        <time>2020-06-25T14:56:41Z</time>
      </trkpt>
      <trkpt lat="49.65617" lon="4.99158">
        <ele>155.1</ele>
        <time>2020-06-25T14:56:42Z</time>
      </trkpt>
      <trkpt lat="49.65614" lon="4.99164">
        <ele>155.1</ele>
        <time>2020-06-25T14:56:43Z</time>
      </trkpt>
      <trkpt lat="49.65611" lon="4.99169">
        <ele>155.1</ele>
        <time>2020-06-25T14:56:44Z</time>
      </trkpt>
      <trkpt lat="49.65608" lon="4.99175">
        <ele>155.1</ele>
        <time>2020-06-25T14:56:45Z</time>
      </trkpt>
      <trkpt lat="49.65604" lon="4.99181">
        <ele>155.1</ele>
        <time>2020-06-25T14:56:46Z</time>
      </trkpt>
      <trkpt lat="49.65601" lon="4.99186">
        <ele>155.2</ele>
        <time>2020-06-25T14:56:47Z</time>
      </trkpt>
      <trkpt lat="49.65597" lon="4.99191">
        <ele>155.2</ele>
        <time>2020-06-25T14:56:48Z</time>
      </trkpt>
      <trkpt lat="49.65594" lon="4.99196">
        <ele>155.2</ele>
        <time>2020-06-25T14:56:49Z</time>
      </trkpt>
      <trkpt lat="49.65591" lon="4.99202">
        <ele>155.2</ele>
        <time>2020-06-25T14:56:50Z</time>
      </trkpt>
      <trkpt lat="49.65587" lon="4.99207">
        <ele>155.2</ele>
        <time>2020-06-25T14:56:51Z</time>
      </trkpt>
      <trkpt lat="49.65585" lon="4.99213">
        <ele>155.2</ele>
        <time>2020-06-25T14:56:52Z</time>
      </trkpt>
      <trkpt lat="49.65582" lon="4.99219">
        <ele>155.2</ele>
        <time>2020-06-25T14:56:53Z</time>
      </trkpt>
      <trkpt lat="49.65579" lon="4.99224">
        <ele>155.2</ele>
        <time>2020-06-25T14:56:54Z</time>
      </trkpt>
      <trkpt lat="49.65576" lon="4.9923">
        <ele>155.3</ele>
        <time>2020-06-25T14:56:55Z</time>
      </trkpt>
      <trkpt lat="49.65572" lon="4.99235">
        <ele>155.3</ele>
        <time>2020-06-25T14:56:56Z</time>
      </trkpt>
      <trkpt lat="49.65568" lon="4.99239">
        <ele>155.3</ele>
        <time>2020-06-25T14:56:57Z</time>
      </trkpt>
      <trkpt lat="49.65564" lon="4.99245">
        <ele>155.3</ele>
        <time>2020-06-25T14:56:58Z</time>
      </trkpt>
      <trkpt lat="49.6556" lon="4.9925">
        <ele>155.4</ele>
        <time>2020-06-25T14:56:59Z</time>
      </trkpt>
      <trkpt lat="49.65557" lon="4.99256">
        <ele>155.4</ele>
        <time>2020-06-25T14:57:00Z</time>
      </trkpt>
      <trkpt lat="49.65553" lon="4.99262">
        <ele>155.5</ele>
        <time>2020-06-25T14:57:01Z</time>
      </trkpt>
      <trkpt lat="49.65549" lon="4.99267">
        <ele>155.5</ele>
        <time>2020-06-25T14:57:02Z</time>
      </trkpt>
      <trkpt lat="49.65545" lon="4.99273">
        <ele>155.5</ele>
        <time>2020-06-25T14:57:03Z</time>
      </trkpt>
      <trkpt lat="49.65542" lon="4.99277">
        <ele>155.5</ele>
        <time>2020-06-25T14:57:04Z</time>
      </trkpt>
      <trkpt lat="49.65538" lon="4.99281">
        <ele>155.5</ele>
        <time>2020-06-25T14:57:05Z</time>
      </trkpt>
      <trkpt lat="49.65534" lon="4.99287">
        <ele>155.5</ele>
        <time>2020-06-25T14:57:06Z</time>
      </trkpt>
      <trkpt lat="49.65531" lon="4.99292">
        <ele>155.5</ele>
        <time>2020-06-25T14:57:07Z</time>
      </trkpt>
      <trkpt lat="49.65527" lon="4.99297">
        <ele>155.5</ele>
        <time>2020-06-25T14:57:08Z</time>
      </trkpt>
      <trkpt lat="49.65524" lon="4.99303">
        <ele>155.5</ele>
        <time>2020-06-25T14:57:09Z</time>
      </trkpt>
      <trkpt lat="49.65521" lon="4.99309">
        <ele>155.5</ele>
        <time>2020-06-25T14:57:10Z</time>
      </trkpt>
      <trkpt lat="49.65518" lon="4.99315">
        <ele>155.4</ele>
        <time>2020-06-25T14:57:11Z</time>
      </trkpt>
      <trkpt lat="49.65515" lon="4.99322">
        <ele>155.4</ele>
        <time>2020-06-25T14:57:12Z</time>
      </trkpt>
      <trkpt lat="49.65512" lon="4.99329">
        <ele>155.4</ele>
        <time>2020-06-25T14:57:13Z</time>
      </trkpt>
      <trkpt lat="49.65509" lon="4.99335">
        <ele>155.4</ele>
        <time>2020-06-25T14:57:14Z</time>
      </trkpt>
      <trkpt lat="49.65506" lon="4.99341">
        <ele>155.4</ele>
        <time>2020-06-25T14:57:15Z</time>
      </trkpt>
      <trkpt lat="49.65502" lon="4.99348">
        <ele>155.3</ele>
        <time>2020-06-25T14:57:16Z</time>
      </trkpt>
      <trkpt lat="49.65499" lon="4.99354">
        <ele>155.3</ele>
        <time>2020-06-25T14:57:17Z</time>
      </trkpt>
      <trkpt lat="49.65496" lon="4.99359">
        <ele>155.3</ele>
        <time>2020-06-25T14:57:18Z</time>
      </trkpt>
      <trkpt lat="49.65493" lon="4.99365">
        <ele>155.3</ele>
        <time>2020-06-25T14:57:19Z</time>
      </trkpt>
      <trkpt lat="49.65489" lon="4.99371">
        <ele>155.3</ele>
        <time>2020-06-25T14:57:20Z</time>
      </trkpt>
      <trkpt lat="49.65486" lon="4.99378">
        <ele>155.3</ele>
        <time>2020-06-25T14:57:21Z</time>
      </trkpt>
      <trkpt lat="49.65482" lon="4.99383">
        <ele>155.3</ele>
        <time>2020-06-25T14:57:22Z</time>
      </trkpt>
      <trkpt lat="49.65478" lon="4.99389">
        <ele>155.3</ele>
        <time>2020-06-25T14:57:23Z</time>
      </trkpt>
      <trkpt lat="49.65474" lon="4.99395">
        <ele>155.3</ele>
        <time>2020-06-25T14:57:24Z</time>
      </trkpt>
      <trkpt lat="49.6547" lon="4.99402">
        <ele>155.3</ele>
        <time>2020-06-25T14:57:25Z</time>
      </trkpt>
      <trkpt lat="49.65467" lon="4.99408">
        <ele>155.2</ele>
        <time>2020-06-25T14:57:26Z</time>
      </trkpt>
      <trkpt lat="49.65463" lon="4.99414">
        <ele>155.2</ele>
        <time>2020-06-25T14:57:27Z</time>
      </trkpt>
      <trkpt lat="49.65459" lon="4.99419">
        <ele>155.2</ele>
        <time>2020-06-25T14:57:28Z</time>
      </trkpt>
      <trkpt lat="49.65455" lon="4.99425">
        <ele>155.2</ele>
        <time>2020-06-25T14:57:29Z</time>
      </trkpt>
      <trkpt lat="49.65452" lon="4.9943">
        <ele>155.2</ele>
        <time>2020-06-25T14:57:30Z</time>
      </trkpt>
      <trkpt lat="49.65448" lon="4.99436">
        <ele>155.2</ele>
        <time>2020-06-25T14:57:31Z</time>
      </trkpt>
      <trkpt lat="49.65444" lon="4.99442">
        <ele>155.2</ele>
        <time>2020-06-25T14:57:32Z</time>
      </trkpt>
      <trkpt lat="49.65441" lon="4.99448">
        <ele>155.2</ele>
        <time>2020-06-25T14:57:33Z</time>
      </trkpt>
      <trkpt lat="49.65437" lon="4.99455">
        <ele>155.2</ele>
        <time>2020-06-25T14:57:34Z</time>
      </trkpt>
      <trkpt lat="49.65433" lon="4.9946">
        <ele>155.2</ele>
        <time>2020-06-25T14:57:35Z</time>
      </trkpt>
      <trkpt lat="49.6543" lon="4.99465">
        <ele>155.2</ele>
        <time>2020-06-25T14:57:36Z</time>
      </trkpt>
      <trkpt lat="49.65426" lon="4.9947">
        <ele>155.2</ele>
        <time>2020-06-25T14:57:37Z</time>
      </trkpt>
      <trkpt lat="49.65422" lon="4.99476">
        <ele>155.2</ele>
        <time>2020-06-25T14:57:38Z</time>
      </trkpt>
      <trkpt lat="49.65419" lon="4.99483">
        <ele>155.2</ele>
        <time>2020-06-25T14:57:39Z</time>
      </trkpt>
      <trkpt lat="49.65416" lon="4.99488">
        <ele>155.2</ele>
        <time>2020-06-25T14:57:40Z</time>
      </trkpt>
      <trkpt lat="49.65412" lon="4.99494">
        <ele>155.2</ele>
        <time>2020-06-25T14:57:41Z</time>
      </trkpt>
      <trkpt lat="49.65409" lon="4.995">
        <ele>155.2</ele>
        <time>2020-06-25T14:57:42Z</time>
      </trkpt>
      <trkpt lat="49.65406" lon="4.99506">
        <ele>155.2</ele>
        <time>2020-06-25T14:57:43Z</time>
      </trkpt>
      <trkpt lat="49.65402" lon="4.99511">
        <ele>155.3</ele>
        <time>2020-06-25T14:57:44Z</time>
      </trkpt>
      <trkpt lat="49.65399" lon="4.99517">
        <ele>155.3</ele>
        <time>2020-06-25T14:57:45Z</time>
      </trkpt>
      <trkpt lat="49.65396" lon="4.99523">
        <ele>155.3</ele>
        <time>2020-06-25T14:57:46Z</time>
      </trkpt>
      <trkpt lat="49.65392" lon="4.99529">
        <ele>155.3</ele>
        <time>2020-06-25T14:57:47Z</time>
      </trkpt>
      <trkpt lat="49.65388" lon="4.99535">
        <ele>155.3</ele>
        <time>2020-06-25T14:57:48Z</time>
      </trkpt>
      <trkpt lat="49.65383" lon="4.99541">
        <ele>155.3</ele>
        <time>2020-06-25T14:57:49Z</time>
      </trkpt>
      <trkpt lat="49.6538" lon="4.99546">
        <ele>155.3</ele>
        <time>2020-06-25T14:57:50Z</time>
      </trkpt>
      <trkpt lat="49.65377" lon="4.99552">
        <ele>155.3</ele>
        <time>2020-06-25T14:57:51Z</time>
      </trkpt>
      <trkpt lat="49.65374" lon="4.99557">
        <ele>155.3</ele>
        <time>2020-06-25T14:57:52Z</time>
      </trkpt>
      <trkpt lat="49.6537" lon="4.99563">
        <ele>155.3</ele>
        <time>2020-06-25T14:57:53Z</time>
      </trkpt>
      <trkpt lat="49.65366" lon="4.99568">
        <ele>155.3</ele>
        <time>2020-06-25T14:57:54Z</time>
      </trkpt>
      <trkpt lat="49.65362" lon="4.99574">
        <ele>155.3</ele>
        <time>2020-06-25T14:57:55Z</time>
      </trkpt>
      <trkpt lat="49.65359" lon="4.9958">
        <ele>155.2</ele>
        <time>2020-06-25T14:57:56Z</time>
      </trkpt>
      <trkpt lat="49.65356" lon="4.99586">
        <ele>155.2</ele>
        <time>2020-06-25T14:57:57Z</time>
      </trkpt>
      <trkpt lat="49.65353" lon="4.99591">
        <ele>155.2</ele>
        <time>2020-06-25T14:57:58Z</time>
      </trkpt>
      <trkpt lat="49.65349" lon="4.99597">
        <ele>155.2</ele>
        <time>2020-06-25T14:57:59Z</time>
      </trkpt>
      <trkpt lat="49.65346" lon="4.99603">
        <ele>155.2</ele>
        <time>2020-06-25T14:58:00Z</time>
      </trkpt>
      <trkpt lat="49.65342" lon="4.99609">
        <ele>155.1</ele>
        <time>2020-06-25T14:58:01Z</time>
      </trkpt>
      <trkpt lat="49.65338" lon="4.99615">
        <ele>155.1</ele>
        <time>2020-06-25T14:58:02Z</time>
      </trkpt>
      <trkpt lat="49.65334" lon="4.99621">
        <ele>155</ele>
        <time>2020-06-25T14:58:03Z</time>
      </trkpt>
      <trkpt lat="49.65331" lon="4.99628">
        <ele>155</ele>
        <time>2020-06-25T14:58:04Z</time>
      </trkpt>
      <trkpt lat="49.65328" lon="4.99634">
        <ele>155</ele>
        <time>2020-06-25T14:58:05Z</time>
      </trkpt>
      <trkpt lat="49.65326" lon="4.9964">
        <ele>154.9</ele>
        <time>2020-06-25T14:58:06Z</time>
      </trkpt>
      <trkpt lat="49.65322" lon="4.99647">
        <ele>154.9</ele>
        <time>2020-06-25T14:58:07Z</time>
      </trkpt>
      <trkpt lat="49.6532" lon="4.99653">
        <ele>154.9</ele>
        <time>2020-06-25T14:58:08Z</time>
      </trkpt>
      <trkpt lat="49.65317" lon="4.99661">
        <ele>154.8</ele>
        <time>2020-06-25T14:58:09Z</time>
      </trkpt>
      <trkpt lat="49.65314" lon="4.99668">
        <ele>154.8</ele>
        <time>2020-06-25T14:58:10Z</time>
      </trkpt>
      <trkpt lat="49.65312" lon="4.99675">
        <ele>154.8</ele>
        <time>2020-06-25T14:58:11Z</time>
      </trkpt>
      <trkpt lat="49.65309" lon="4.99682">
        <ele>154.8</ele>
        <time>2020-06-25T14:58:12Z</time>
      </trkpt>
      <trkpt lat="49.65306" lon="4.99689">
        <ele>154.8</ele>
        <time>2020-06-25T14:58:13Z</time>
      </trkpt>
      <trkpt lat="49.65303" lon="4.99694">
        <ele>154.8</ele>
        <time>2020-06-25T14:58:14Z</time>
      </trkpt>
      <trkpt lat="49.653" lon="4.99702">
        <ele>154.8</ele>
        <time>2020-06-25T14:58:15Z</time>
      </trkpt>
      <trkpt lat="49.65297" lon="4.99709">
        <ele>154.9</ele>
        <time>2020-06-25T14:58:16Z</time>
      </trkpt>
      <trkpt lat="49.65295" lon="4.99716">
        <ele>154.9</ele>
        <time>2020-06-25T14:58:17Z</time>
      </trkpt>
      <trkpt lat="49.65292" lon="4.99723">
        <ele>154.9</ele>
        <time>2020-06-25T14:58:18Z</time>
      </trkpt>
      <trkpt lat="49.65289" lon="4.9973">
        <ele>154.9</ele>
        <time>2020-06-25T14:58:19Z</time>
      </trkpt>
      <trkpt lat="49.65287" lon="4.99737">
        <ele>155</ele>
        <time>2020-06-25T14:58:20Z</time>
      </trkpt>
      <trkpt lat="49.65284" lon="4.99744">
        <ele>155</ele>
        <time>2020-06-25T14:58:21Z</time>
      </trkpt>
      <trkpt lat="49.65281" lon="4.9975">
        <ele>155.1</ele>
        <time>2020-06-25T14:58:22Z</time>
      </trkpt>
      <trkpt lat="49.65279" lon="4.99755">
        <ele>155.1</ele>
        <time>2020-06-25T14:58:23Z</time>
      </trkpt>
      <trkpt lat="49.65277" lon="4.99761">
        <ele>155.1</ele>
        <time>2020-06-25T14:58:24Z</time>
      </trkpt>
      <trkpt lat="49.65275" lon="4.99767">
        <ele>155.1</ele>
        <time>2020-06-25T14:58:25Z</time>
      </trkpt>
      <trkpt lat="49.65272" lon="4.99773">
        <ele>155.2</ele>
        <time>2020-06-25T14:58:26Z</time>
      </trkpt>
      <trkpt lat="49.6527" lon="4.9978">
        <ele>155.2</ele>
        <time>2020-06-25T14:58:27Z</time>
      </trkpt>
      <trkpt lat="49.65266" lon="4.99788">
        <ele>155.2</ele>
        <time>2020-06-25T14:58:28Z</time>
      </trkpt>
      <trkpt lat="49.65263" lon="4.99795">
        <ele>155.3</ele>
        <time>2020-06-25T14:58:29Z</time>
      </trkpt>
      <trkpt lat="49.6526" lon="4.998">
        <ele>155.3</ele>
        <time>2020-06-25T14:58:30Z</time>
      </trkpt>
      <trkpt lat="49.65257" lon="4.99805">
        <ele>155.3</ele>
        <time>2020-06-25T14:58:31Z</time>
      </trkpt>
      <trkpt lat="49.65254" lon="4.9981">
        <ele>155.4</ele>
        <time>2020-06-25T14:58:32Z</time>
      </trkpt>
      <trkpt lat="49.65251" lon="4.99815">
        <ele>155.5</ele>
        <time>2020-06-25T14:58:33Z</time>
      </trkpt>
      <trkpt lat="49.65248" lon="4.99821">
        <ele>155.6</ele>
        <time>2020-06-25T14:58:34Z</time>
      </trkpt>
      <trkpt lat="49.65246" lon="4.99827">
        <ele>155.7</ele>
        <time>2020-06-25T14:58:35Z</time>
      </trkpt>
      <trkpt lat="49.65243" lon="4.99831">
        <ele>155.9</ele>
        <time>2020-06-25T14:58:36Z</time>
      </trkpt>
      <trkpt lat="49.65242" lon="4.99836">
        <ele>156</ele>
        <time>2020-06-25T14:58:37Z</time>
      </trkpt>
      <trkpt lat="49.65238" lon="4.9984">
        <ele>156.2</ele>
        <time>2020-06-25T14:58:38Z</time>
      </trkpt>
      <trkpt lat="49.65235" lon="4.99843">
        <ele>156.4</ele>
        <time>2020-06-25T14:58:39Z</time>
      </trkpt>
      <trkpt lat="49.65232" lon="4.99846">
        <ele>156.6</ele>
        <time>2020-06-25T14:58:40Z</time>
      </trkpt>
      <trkpt lat="49.65228" lon="4.99851">
        <ele>156.9</ele>
        <time>2020-06-25T14:58:41Z</time>
      </trkpt>
      <trkpt lat="49.65226" lon="4.99855">
        <ele>157.1</ele>
        <time>2020-06-25T14:58:42Z</time>
      </trkpt>
      <trkpt lat="49.65223" lon="4.99859">
        <ele>157.4</ele>
        <time>2020-06-25T14:58:43Z</time>
      </trkpt>
      <trkpt lat="49.6522" lon="4.99864">
        <ele>157.7</ele>
        <time>2020-06-25T14:58:44Z</time>
      </trkpt>
      <trkpt lat="49.65217" lon="4.99869">
        <ele>158.1</ele>
        <time>2020-06-25T14:58:45Z</time>
      </trkpt>
      <trkpt lat="49.65215" lon="4.99873">
        <ele>158.4</ele>
        <time>2020-06-25T14:58:46Z</time>
      </trkpt>
      <trkpt lat="49.65213" lon="4.99876">
        <ele>158.6</ele>
        <time>2020-06-25T14:58:47Z</time>
      </trkpt>
      <trkpt lat="49.65211" lon="4.9988">
        <ele>158.9</ele>
        <time>2020-06-25T14:58:48Z</time>
      </trkpt>
      <trkpt lat="49.6521" lon="4.99882">
        <ele>159</ele>
        <time>2020-06-25T14:58:49Z</time>
      </trkpt>
      <trkpt lat="49.65209" lon="4.99883">
        <ele>159.1</ele>
        <time>2020-06-25T14:58:50Z</time>
      </trkpt>
      <trkpt lat="49.65209" lon="4.99883">
        <ele>159.1</ele>
        <time>2020-06-25T14:58:51Z</time>
      </trkpt>
      <trkpt lat="49.65208" lon="4.99885">
        <ele>159.3</ele>
        <time>2020-06-25T14:58:52Z</time>
      </trkpt>
      <trkpt lat="49.65208" lon="4.99886">
        <ele>159.3</ele>
        <time>2020-06-25T14:58:53Z</time>
      </trkpt>
      <trkpt lat="49.65208" lon="4.99887">
        <ele>159.4</ele>
        <time>2020-06-25T14:58:54Z</time>
      </trkpt>
      <trkpt lat="49.65207" lon="4.99889">
        <ele>159.5</ele>
        <time>2020-06-25T14:58:55Z</time>
      </trkpt>
      <trkpt lat="49.6521" lon="4.99891">
        <ele>159.7</ele>
        <time>2020-06-25T14:58:56Z</time>
      </trkpt>
      <trkpt lat="49.65211" lon="4.99892">
        <ele>159.8</ele>
        <time>2020-06-25T14:58:57Z</time>
      </trkpt>
      <trkpt lat="49.65213" lon="4.99894">
        <ele>159.8</ele>
        <time>2020-06-25T14:58:58Z</time>
      </trkpt>
      <trkpt lat="49.65216" lon="4.99899">
        <ele>159.8</ele>
        <time>2020-06-25T14:58:59Z</time>
      </trkpt>
      <trkpt lat="49.65217" lon="4.99901">
        <ele>159.8</ele>
        <time>2020-06-25T14:59:00Z</time>
      </trkpt>
      <trkpt lat="49.6522" lon="4.99904">
        <ele>159.9</ele>
        <time>2020-06-25T14:59:01Z</time>
      </trkpt>
      <trkpt lat="49.65221" lon="4.99905">
        <ele>159.9</ele>
        <time>2020-06-25T14:59:02Z</time>
      </trkpt>
      <trkpt lat="49.65223" lon="4.99907">
        <ele>160</ele>
        <time>2020-06-25T14:59:03Z</time>
      </trkpt>
      <trkpt lat="49.65224" lon="4.99908">
        <ele>160</ele>
        <time>2020-06-25T14:59:04Z</time>
      </trkpt>
      <trkpt lat="49.65228" lon="4.9991">
        <ele>160</ele>
        <time>2020-06-25T14:59:05Z</time>
      </trkpt>
      <trkpt lat="49.65229" lon="4.99912">
        <ele>160.1</ele>
        <time>2020-06-25T14:59:06Z</time>
      </trkpt>
      <trkpt lat="49.65232" lon="4.99915">
        <ele>160.1</ele>
        <time>2020-06-25T14:59:07Z</time>
      </trkpt>
      <trkpt lat="49.65234" lon="4.99917">
        <ele>160.1</ele>
        <time>2020-06-25T14:59:08Z</time>
      </trkpt>
      <trkpt lat="49.65237" lon="4.9992">
        <ele>160.1</ele>
        <time>2020-06-25T14:59:09Z</time>
      </trkpt>
      <trkpt lat="49.65239" lon="4.99921">
        <ele>160.1</ele>
        <time>2020-06-25T14:59:10Z</time>
      </trkpt>
      <trkpt lat="49.65241" lon="4.99924">
        <ele>160.2</ele>
        <time>2020-06-25T14:59:11Z</time>
      </trkpt>
      <trkpt lat="49.65244" lon="4.99927">
        <ele>160.2</ele>
        <time>2020-06-25T14:59:12Z</time>
      </trkpt>
      <trkpt lat="49.65248" lon="4.99931">
        <ele>160.2</ele>
        <time>2020-06-25T14:59:13Z</time>
      </trkpt>
      <trkpt lat="49.6525" lon="4.99933">
        <ele>160.2</ele>
        <time>2020-06-25T14:59:14Z</time>
      </trkpt>
      <trkpt lat="49.65253" lon="4.99937">
        <ele>160.2</ele>
        <time>2020-06-25T14:59:15Z</time>
      </trkpt>
      <trkpt lat="49.65255" lon="4.9994">
        <ele>160.2</ele>
        <time>2020-06-25T14:59:16Z</time>
      </trkpt>
      <trkpt lat="49.65257" lon="4.99943">
        <ele>160.1</ele>
        <time>2020-06-25T14:59:17Z</time>
      </trkpt>
      <trkpt lat="49.6526" lon="4.99945">
        <ele>160</ele>
        <time>2020-06-25T14:59:18Z</time>
      </trkpt>
      <trkpt lat="49.65263" lon="4.99948">
        <ele>159.9</ele>
        <time>2020-06-25T14:59:19Z</time>
      </trkpt>
      <trkpt lat="49.65267" lon="4.99953">
        <ele>159.8</ele>
        <time>2020-06-25T14:59:20Z</time>
      </trkpt>
      <trkpt lat="49.6527" lon="4.99958">
        <ele>159.6</ele>
        <time>2020-06-25T14:59:21Z</time>
      </trkpt>
      <trkpt lat="49.65274" lon="4.99962">
        <ele>159.4</ele>
        <time>2020-06-25T14:59:22Z</time>
      </trkpt>
      <trkpt lat="49.65277" lon="4.99967">
        <ele>159.2</ele>
        <time>2020-06-25T14:59:23Z</time>
      </trkpt>
      <trkpt lat="49.6528" lon="4.99973">
        <ele>159.1</ele>
        <time>2020-06-25T14:59:24Z</time>
      </trkpt>
      <trkpt lat="49.65284" lon="4.99978">
        <ele>158.8</ele>
        <time>2020-06-25T14:59:25Z</time>
      </trkpt>
      <trkpt lat="49.65287" lon="4.99984">
        <ele>158.6</ele>
        <time>2020-06-25T14:59:26Z</time>
      </trkpt>
      <trkpt lat="49.65291" lon="4.99989">
        <ele>158.3</ele>
        <time>2020-06-25T14:59:27Z</time>
      </trkpt>
      <trkpt lat="49.65297" lon="4.99995">
        <ele>158</ele>
        <time>2020-06-25T14:59:28Z</time>
      </trkpt>
      <trkpt lat="49.65303" lon="5">
        <ele>157.7</ele>
        <time>2020-06-25T14:59:29Z</time>
      </trkpt>
      <trkpt lat="49.65309" lon="5.00007">
        <ele>157.4</ele>
        <time>2020-06-25T14:59:30Z</time>
      </trkpt>
      <trkpt lat="49.65314" lon="5.00015">
        <ele>157.1</ele>
        <time>2020-06-25T14:59:31Z</time>
      </trkpt>
      <trkpt lat="49.6532" lon="5.00022">
        <ele>157</ele>
        <time>2020-06-25T14:59:32Z</time>
      </trkpt>
      <trkpt lat="49.65327" lon="5.00028">
        <ele>156.9</ele>
        <time>2020-06-25T14:59:33Z</time>
      </trkpt>
      <trkpt lat="49.65333" lon="5.00035">
        <ele>156.7</ele>
        <time>2020-06-25T14:59:34Z</time>
      </trkpt>
      <trkpt lat="49.6534" lon="5.00043">
        <ele>156.5</ele>
        <time>2020-06-25T14:59:35Z</time>
      </trkpt>
      <trkpt lat="49.65346" lon="5.0005">
        <ele>156.3</ele>
        <time>2020-06-25T14:59:36Z</time>
      </trkpt>
      <trkpt lat="49.65351" lon="5.00056">
        <ele>156.1</ele>
        <time>2020-06-25T14:59:37Z</time>
      </trkpt>
      <trkpt lat="49.65356" lon="5.00061">
        <ele>155.9</ele>
        <time>2020-06-25T14:59:38Z</time>
      </trkpt>
      <trkpt lat="49.65361" lon="5.00067">
        <ele>155.7</ele>
        <time>2020-06-25T14:59:39Z</time>
      </trkpt>
      <trkpt lat="49.65365" lon="5.00074">
        <ele>155.5</ele>
        <time>2020-06-25T14:59:40Z</time>
      </trkpt>
      <trkpt lat="49.6537" lon="5.00081">
        <ele>155.3</ele>
        <time>2020-06-25T14:59:41Z</time>
      </trkpt>
      <trkpt lat="49.65376" lon="5.00088">
        <ele>155</ele>
        <time>2020-06-25T14:59:42Z</time>
      </trkpt>
      <trkpt lat="49.65382" lon="5.00093">
        <ele>154.7</ele>
        <time>2020-06-25T14:59:43Z</time>
      </trkpt>
      <trkpt lat="49.65386" lon="5.00098">
        <ele>154.5</ele>
        <time>2020-06-25T14:59:44Z</time>
      </trkpt>
      <trkpt lat="49.65392" lon="5.00107">
        <ele>154.2</ele>
        <time>2020-06-25T14:59:45Z</time>
      </trkpt>
      <trkpt lat="49.65399" lon="5.00119">
        <ele>153.8</ele>
        <time>2020-06-25T14:59:46Z</time>
      </trkpt>
      <trkpt lat="49.65405" lon="5.0013">
        <ele>153.6</ele>
        <time>2020-06-25T14:59:47Z</time>
      </trkpt>
      <trkpt lat="49.65409" lon="5.00137">
        <ele>153.5</ele>
        <time>2020-06-25T14:59:48Z</time>
      </trkpt>
      <trkpt lat="49.65412" lon="5.00142">
        <ele>153.5</ele>
        <time>2020-06-25T14:59:49Z</time>
      </trkpt>
      <trkpt lat="49.65416" lon="5.00152">
        <ele>153.4</ele>
        <time>2020-06-25T14:59:50Z</time>
      </trkpt>
      <trkpt lat="49.65419" lon="5.00162">
        <ele>153.2</ele>
        <time>2020-06-25T14:59:51Z</time>
      </trkpt>
      <trkpt lat="49.65422" lon="5.00171">
        <ele>153.1</ele>
        <time>2020-06-25T14:59:52Z</time>
      </trkpt>
      <trkpt lat="49.65425" lon="5.0018">
        <ele>153</ele>
        <time>2020-06-25T14:59:53Z</time>
      </trkpt>
      <trkpt lat="49.65428" lon="5.00189">
        <ele>153</ele>
        <time>2020-06-25T14:59:54Z</time>
      </trkpt>
      <trkpt lat="49.65432" lon="5.00196">
        <ele>152.9</ele>
        <time>2020-06-25T14:59:55Z</time>
      </trkpt>
      <trkpt lat="49.65436" lon="5.00205">
        <ele>152.9</ele>
        <time>2020-06-25T14:59:56Z</time>
      </trkpt>
      <trkpt lat="49.6544" lon="5.00211">
        <ele>152.9</ele>
        <time>2020-06-25T14:59:57Z</time>
      </trkpt>
      <trkpt lat="49.65444" lon="5.00218">
        <ele>152.9</ele>
        <time>2020-06-25T14:59:58Z</time>
      </trkpt>
      <trkpt lat="49.65448" lon="5.00224">
        <ele>152.9</ele>
        <time>2020-06-25T14:59:59Z</time>
      </trkpt>
      <trkpt lat="49.65452" lon="5.00228">
        <ele>152.9</ele>
        <time>2020-06-25T15:00:00Z</time>
      </trkpt>
      <trkpt lat="49.65456" lon="5.00234">
        <ele>152.9</ele>
        <time>2020-06-25T15:00:01Z</time>
      </trkpt>
      <trkpt lat="49.65459" lon="5.00241">
        <ele>152.9</ele>
        <time>2020-06-25T15:00:02Z</time>
      </trkpt>
      <trkpt lat="49.65464" lon="5.00247">
        <ele>152.8</ele>
        <time>2020-06-25T15:00:03Z</time>
      </trkpt>
      <trkpt lat="49.65468" lon="5.00254">
        <ele>152.8</ele>
        <time>2020-06-25T15:00:04Z</time>
      </trkpt>
      <trkpt lat="49.65472" lon="5.00261">
        <ele>152.8</ele>
        <time>2020-06-25T15:00:05Z</time>
      </trkpt>
      <trkpt lat="49.65476" lon="5.00268">
        <ele>152.7</ele>
        <time>2020-06-25T15:00:06Z</time>
      </trkpt>
      <trkpt lat="49.6548" lon="5.00276">
        <ele>152.7</ele>
        <time>2020-06-25T15:00:07Z</time>
      </trkpt>
      <trkpt lat="49.65483" lon="5.00283">
        <ele>152.7</ele>
        <time>2020-06-25T15:00:08Z</time>
      </trkpt>
      <trkpt lat="49.65487" lon="5.00292">
        <ele>152.7</ele>
        <time>2020-06-25T15:00:09Z</time>
      </trkpt>
      <trkpt lat="49.65491" lon="5.003">
        <ele>152.7</ele>
        <time>2020-06-25T15:00:10Z</time>
      </trkpt>
      <trkpt lat="49.65494" lon="5.00307">
        <ele>152.8</ele>
        <time>2020-06-25T15:00:11Z</time>
      </trkpt>
      <trkpt lat="49.65497" lon="5.00314">
        <ele>152.8</ele>
        <time>2020-06-25T15:00:12Z</time>
      </trkpt>
      <trkpt lat="49.65501" lon="5.00322">
        <ele>152.8</ele>
        <time>2020-06-25T15:00:13Z</time>
      </trkpt>
      <trkpt lat="49.65503" lon="5.00329">
        <ele>152.9</ele>
        <time>2020-06-25T15:00:14Z</time>
      </trkpt>
      <trkpt lat="49.65506" lon="5.00337">
        <ele>152.9</ele>
        <time>2020-06-25T15:00:15Z</time>
      </trkpt>
      <trkpt lat="49.65509" lon="5.00344">
        <ele>152.9</ele>
        <time>2020-06-25T15:00:16Z</time>
      </trkpt>
      <trkpt lat="49.65512" lon="5.00352">
        <ele>152.9</ele>
        <time>2020-06-25T15:00:17Z</time>
      </trkpt>
      <trkpt lat="49.65516" lon="5.00358">
        <ele>152.8</ele>
        <time>2020-06-25T15:00:18Z</time>
      </trkpt>
      <trkpt lat="49.65519" lon="5.00365">
        <ele>152.8</ele>
        <time>2020-06-25T15:00:19Z</time>
      </trkpt>
      <trkpt lat="49.65523" lon="5.00372">
        <ele>152.8</ele>
        <time>2020-06-25T15:00:20Z</time>
      </trkpt>
      <trkpt lat="49.65527" lon="5.0038">
        <ele>152.8</ele>
        <time>2020-06-25T15:00:21Z</time>
      </trkpt>
      <trkpt lat="49.6553" lon="5.00387">
        <ele>152.9</ele>
        <time>2020-06-25T15:00:22Z</time>
      </trkpt>
      <trkpt lat="49.65533" lon="5.00395">
        <ele>152.9</ele>
        <time>2020-06-25T15:00:23Z</time>
      </trkpt>
      <trkpt lat="49.65537" lon="5.00402">
        <ele>152.9</ele>
        <time>2020-06-25T15:00:24Z</time>
      </trkpt>
      <trkpt lat="49.65541" lon="5.00409">
        <ele>152.9</ele>
        <time>2020-06-25T15:00:25Z</time>
      </trkpt>
      <trkpt lat="49.65545" lon="5.00416">
        <ele>152.9</ele>
        <time>2020-06-25T15:00:26Z</time>
      </trkpt>
      <trkpt lat="49.65548" lon="5.00423">
        <ele>153</ele>
        <time>2020-06-25T15:00:27Z</time>
      </trkpt>
      <trkpt lat="49.65552" lon="5.0043">
        <ele>153</ele>
        <time>2020-06-25T15:00:28Z</time>
      </trkpt>
      <trkpt lat="49.65555" lon="5.00437">
        <ele>153</ele>
        <time>2020-06-25T15:00:29Z</time>
      </trkpt>
      <trkpt lat="49.65559" lon="5.00444">
        <ele>153</ele>
        <time>2020-06-25T15:00:30Z</time>
      </trkpt>
      <trkpt lat="49.65562" lon="5.00452">
        <ele>153</ele>
        <time>2020-06-25T15:00:31Z</time>
      </trkpt>
      <trkpt lat="49.65565" lon="5.00459">
        <ele>153</ele>
        <time>2020-06-25T15:00:32Z</time>
      </trkpt>
      <trkpt lat="49.65569" lon="5.00466">
        <ele>153.1</ele>
        <time>2020-06-25T15:00:33Z</time>
      </trkpt>
      <trkpt lat="49.65572" lon="5.00473">
        <ele>153.1</ele>
        <time>2020-06-25T15:00:34Z</time>
      </trkpt>
      <trkpt lat="49.65575" lon="5.00481">
        <ele>153.1</ele>
        <time>2020-06-25T15:00:35Z</time>
      </trkpt>
      <trkpt lat="49.65578" lon="5.00489">
        <ele>153.1</ele>
        <time>2020-06-25T15:00:36Z</time>
      </trkpt>
      <trkpt lat="49.65581" lon="5.00496">
        <ele>153.1</ele>
        <time>2020-06-25T15:00:37Z</time>
      </trkpt>
      <trkpt lat="49.65585" lon="5.00502">
        <ele>153.1</ele>
        <time>2020-06-25T15:00:38Z</time>
      </trkpt>
      <trkpt lat="49.65588" lon="5.0051">
        <ele>153.1</ele>
        <time>2020-06-25T15:00:39Z</time>
      </trkpt>
      <trkpt lat="49.65592" lon="5.00518">
        <ele>153.1</ele>
        <time>2020-06-25T15:00:40Z</time>
      </trkpt>
      <trkpt lat="49.65595" lon="5.00527">
        <ele>153.1</ele>
        <time>2020-06-25T15:00:41Z</time>
      </trkpt>
      <trkpt lat="49.65598" lon="5.00535">
        <ele>153.1</ele>
        <time>2020-06-25T15:00:42Z</time>
      </trkpt>
      <trkpt lat="49.65601" lon="5.00543">
        <ele>153.1</ele>
        <time>2020-06-25T15:00:43Z</time>
      </trkpt>
      <trkpt lat="49.65604" lon="5.0055">
        <ele>153.1</ele>
        <time>2020-06-25T15:00:44Z</time>
      </trkpt>
      <trkpt lat="49.65607" lon="5.00558">
        <ele>153.2</ele>
        <time>2020-06-25T15:00:45Z</time>
      </trkpt>
      <trkpt lat="49.6561" lon="5.00565">
        <ele>153.2</ele>
        <time>2020-06-25T15:00:46Z</time>
      </trkpt>
      <trkpt lat="49.65613" lon="5.00573">
        <ele>153.2</ele>
        <time>2020-06-25T15:00:47Z</time>
      </trkpt>
      <trkpt lat="49.65617" lon="5.00579">
        <ele>153.2</ele>
        <time>2020-06-25T15:00:48Z</time>
      </trkpt>
      <trkpt lat="49.6562" lon="5.00588">
        <ele>153.2</ele>
        <time>2020-06-25T15:00:49Z</time>
      </trkpt>
      <trkpt lat="49.65623" lon="5.00595">
        <ele>153.2</ele>
        <time>2020-06-25T15:00:50Z</time>
      </trkpt>
      <trkpt lat="49.65625" lon="5.00603">
        <ele>153.2</ele>
        <time>2020-06-25T15:00:51Z</time>
      </trkpt>
      <trkpt lat="49.65627" lon="5.00611">
        <ele>153.2</ele>
        <time>2020-06-25T15:00:52Z</time>
      </trkpt>
      <trkpt lat="49.65631" lon="5.00618">
        <ele>153.2</ele>
        <time>2020-06-25T15:00:53Z</time>
      </trkpt>
      <trkpt lat="49.65634" lon="5.00625">
        <ele>153.2</ele>
        <time>2020-06-25T15:00:54Z</time>
      </trkpt>
      <trkpt lat="49.65636" lon="5.00632">
        <ele>153.2</ele>
        <time>2020-06-25T15:00:55Z</time>
      </trkpt>
      <trkpt lat="49.65639" lon="5.0064">
        <ele>153.2</ele>
        <time>2020-06-25T15:00:56Z</time>
      </trkpt>
      <trkpt lat="49.65641" lon="5.00648">
        <ele>153.2</ele>
        <time>2020-06-25T15:00:57Z</time>
      </trkpt>
      <trkpt lat="49.65644" lon="5.00657">
        <ele>153.2</ele>
        <time>2020-06-25T15:00:58Z</time>
      </trkpt>
      <trkpt lat="49.65645" lon="5.00665">
        <ele>153.1</ele>
        <time>2020-06-25T15:00:59Z</time>
      </trkpt>
      <trkpt lat="49.65647" lon="5.00674">
        <ele>153.1</ele>
        <time>2020-06-25T15:01:00Z</time>
      </trkpt>
      <trkpt lat="49.65649" lon="5.00683">
        <ele>153.1</ele>
        <time>2020-06-25T15:01:01Z</time>
      </trkpt>
      <trkpt lat="49.6565" lon="5.00691">
        <ele>153.1</ele>
        <time>2020-06-25T15:01:02Z</time>
      </trkpt>
      <trkpt lat="49.65651" lon="5.007">
        <ele>153.1</ele>
        <time>2020-06-25T15:01:03Z</time>
      </trkpt>
      <trkpt lat="49.65653" lon="5.00708">
        <ele>153.1</ele>
        <time>2020-06-25T15:01:04Z</time>
      </trkpt>
      <trkpt lat="49.65654" lon="5.00717">
        <ele>153.1</ele>
        <time>2020-06-25T15:01:05Z</time>
      </trkpt>
      <trkpt lat="49.65655" lon="5.00726">
        <ele>153.2</ele>
        <time>2020-06-25T15:01:06Z</time>
      </trkpt>
      <trkpt lat="49.65655" lon="5.00735">
        <ele>153.2</ele>
        <time>2020-06-25T15:01:07Z</time>
      </trkpt>
      <trkpt lat="49.65655" lon="5.00744">
        <ele>153.2</ele>
        <time>2020-06-25T15:01:08Z</time>
      </trkpt>
      <trkpt lat="49.65657" lon="5.00753">
        <ele>153.3</ele>
        <time>2020-06-25T15:01:09Z</time>
      </trkpt>
      <trkpt lat="49.65657" lon="5.00762">
        <ele>153.4</ele>
        <time>2020-06-25T15:01:10Z</time>
      </trkpt>
      <trkpt lat="49.65658" lon="5.00771">
        <ele>153.5</ele>
        <time>2020-06-25T15:01:11Z</time>
      </trkpt>
      <trkpt lat="49.65659" lon="5.00779">
        <ele>153.5</ele>
        <time>2020-06-25T15:01:12Z</time>
      </trkpt>
      <trkpt lat="49.6566" lon="5.00788">
        <ele>153.5</ele>
        <time>2020-06-25T15:01:13Z</time>
      </trkpt>
      <trkpt lat="49.65661" lon="5.00796">
        <ele>153.4</ele>
        <time>2020-06-25T15:01:14Z</time>
      </trkpt>
      <trkpt lat="49.65662" lon="5.00805">
        <ele>153.4</ele>
        <time>2020-06-25T15:01:15Z</time>
      </trkpt>
      <trkpt lat="49.65662" lon="5.00814">
        <ele>153.4</ele>
        <time>2020-06-25T15:01:16Z</time>
      </trkpt>
      <trkpt lat="49.65662" lon="5.00823">
        <ele>153.4</ele>
        <time>2020-06-25T15:01:17Z</time>
      </trkpt>
      <trkpt lat="49.65663" lon="5.00832">
        <ele>153.4</ele>
        <time>2020-06-25T15:01:18Z</time>
      </trkpt>
      <trkpt lat="49.65664" lon="5.00841">
        <ele>153.4</ele>
        <time>2020-06-25T15:01:19Z</time>
      </trkpt>
      <trkpt lat="49.65665" lon="5.0085">
        <ele>153.4</ele>
        <time>2020-06-25T15:01:20Z</time>
      </trkpt>
      <trkpt lat="49.65667" lon="5.0086">
        <ele>153.4</ele>
        <time>2020-06-25T15:01:21Z</time>
      </trkpt>
      <trkpt lat="49.65668" lon="5.00871">
        <ele>153.4</ele>
        <time>2020-06-25T15:01:22Z</time>
      </trkpt>
      <trkpt lat="49.65669" lon="5.0088">
        <ele>153.4</ele>
        <time>2020-06-25T15:01:23Z</time>
      </trkpt>
      <trkpt lat="49.65671" lon="5.00889">
        <ele>153.4</ele>
        <time>2020-06-25T15:01:24Z</time>
      </trkpt>
      <trkpt lat="49.65672" lon="5.00899">
        <ele>153.4</ele>
        <time>2020-06-25T15:01:25Z</time>
      </trkpt>
      <trkpt lat="49.65674" lon="5.00908">
        <ele>153.4</ele>
        <time>2020-06-25T15:01:26Z</time>
      </trkpt>
      <trkpt lat="49.65675" lon="5.00917">
        <ele>153.4</ele>
        <time>2020-06-25T15:01:27Z</time>
      </trkpt>
      <trkpt lat="49.65677" lon="5.00926">
        <ele>153.4</ele>
        <time>2020-06-25T15:01:28Z</time>
      </trkpt>
      <trkpt lat="49.65678" lon="5.00935">
        <ele>153.4</ele>
        <time>2020-06-25T15:01:29Z</time>
      </trkpt>
      <trkpt lat="49.65679" lon="5.00944">
        <ele>153.4</ele>
        <time>2020-06-25T15:01:30Z</time>
      </trkpt>
      <trkpt lat="49.6568" lon="5.00952">
        <ele>153.4</ele>
        <time>2020-06-25T15:01:31Z</time>
      </trkpt>
      <trkpt lat="49.65681" lon="5.00963">
        <ele>153.5</ele>
        <time>2020-06-25T15:01:32Z</time>
      </trkpt>
      <trkpt lat="49.65682" lon="5.00971">
        <ele>153.5</ele>
        <time>2020-06-25T15:01:33Z</time>
      </trkpt>
      <trkpt lat="49.65682" lon="5.00979">
        <ele>153.5</ele>
        <time>2020-06-25T15:01:34Z</time>
      </trkpt>
      <trkpt lat="49.65683" lon="5.00988">
        <ele>153.5</ele>
        <time>2020-06-25T15:01:35Z</time>
      </trkpt>
      <trkpt lat="49.65684" lon="5.00996">
        <ele>153.5</ele>
        <time>2020-06-25T15:01:36Z</time>
      </trkpt>
      <trkpt lat="49.65684" lon="5.01005">
        <ele>153.5</ele>
        <time>2020-06-25T15:01:37Z</time>
      </trkpt>
      <trkpt lat="49.65684" lon="5.01011">
        <ele>153.5</ele>
        <time>2020-06-25T15:01:38Z</time>
      </trkpt>
      <trkpt lat="49.65685" lon="5.01022">
        <ele>153.5</ele>
        <time>2020-06-25T15:01:39Z</time>
      </trkpt>
      <trkpt lat="49.65684" lon="5.01027">
        <ele>153.5</ele>
        <time>2020-06-25T15:01:40Z</time>
      </trkpt>
      <trkpt lat="49.65684" lon="5.01037">
        <ele>153.6</ele>
        <time>2020-06-25T15:01:41Z</time>
      </trkpt>
      <trkpt lat="49.65684" lon="5.01046">
        <ele>153.6</ele>
        <time>2020-06-25T15:01:42Z</time>
      </trkpt>
      <trkpt lat="49.65684" lon="5.01053">
        <ele>153.6</ele>
        <time>2020-06-25T15:01:43Z</time>
      </trkpt>
      <trkpt lat="49.65684" lon="5.01061">
        <ele>153.6</ele>
        <time>2020-06-25T15:01:44Z</time>
      </trkpt>
      <trkpt lat="49.65686" lon="5.0107">
        <ele>153.7</ele>
        <time>2020-06-25T15:01:45Z</time>
      </trkpt>
      <trkpt lat="49.65687" lon="5.01077">
        <ele>153.7</ele>
        <time>2020-06-25T15:01:46Z</time>
      </trkpt>
      <trkpt lat="49.65688" lon="5.01084">
        <ele>153.7</ele>
        <time>2020-06-25T15:01:47Z</time>
      </trkpt>
      <trkpt lat="49.6569" lon="5.01092">
        <ele>153.7</ele>
        <time>2020-06-25T15:01:48Z</time>
      </trkpt>
      <trkpt lat="49.65691" lon="5.011">
        <ele>153.7</ele>
        <time>2020-06-25T15:01:49Z</time>
      </trkpt>
      <trkpt lat="49.65692" lon="5.01107">
        <ele>153.8</ele>
        <time>2020-06-25T15:01:50Z</time>
      </trkpt>
      <trkpt lat="49.65693" lon="5.01116">
        <ele>153.8</ele>
        <time>2020-06-25T15:01:51Z</time>
      </trkpt>
      <trkpt lat="49.65694" lon="5.01126">
        <ele>153.8</ele>
        <time>2020-06-25T15:01:52Z</time>
      </trkpt>
      <trkpt lat="49.65694" lon="5.01136">
        <ele>153.8</ele>
        <time>2020-06-25T15:01:53Z</time>
      </trkpt>
      <trkpt lat="49.65694" lon="5.01145">
        <ele>153.7</ele>
        <time>2020-06-25T15:01:54Z</time>
      </trkpt>
      <trkpt lat="49.65695" lon="5.01154">
        <ele>153.7</ele>
        <time>2020-06-25T15:01:55Z</time>
      </trkpt>
      <trkpt lat="49.65695" lon="5.01161">
        <ele>153.7</ele>
        <time>2020-06-25T15:01:56Z</time>
      </trkpt>
      <trkpt lat="49.65696" lon="5.0117">
        <ele>153.6</ele>
        <time>2020-06-25T15:01:57Z</time>
      </trkpt>
      <trkpt lat="49.65698" lon="5.01177">
        <ele>153.6</ele>
        <time>2020-06-25T15:01:58Z</time>
      </trkpt>
      <trkpt lat="49.65698" lon="5.01184">
        <ele>153.6</ele>
        <time>2020-06-25T15:01:59Z</time>
      </trkpt>
      <trkpt lat="49.65699" lon="5.01191">
        <ele>153.6</ele>
        <time>2020-06-25T15:02:00Z</time>
      </trkpt>
      <trkpt lat="49.65699" lon="5.01197">
        <ele>153.6</ele>
        <time>2020-06-25T15:02:01Z</time>
      </trkpt>
      <trkpt lat="49.65699" lon="5.01205">
        <ele>153.6</ele>
        <time>2020-06-25T15:02:02Z</time>
      </trkpt>
      <trkpt lat="49.65699" lon="5.01212">
        <ele>153.6</ele>
        <time>2020-06-25T15:02:03Z</time>
      </trkpt>
      <trkpt lat="49.657" lon="5.0122">
        <ele>153.6</ele>
        <time>2020-06-25T15:02:04Z</time>
      </trkpt>
      <trkpt lat="49.65702" lon="5.01227">
        <ele>153.6</ele>
        <time>2020-06-25T15:02:05Z</time>
      </trkpt>
      <trkpt lat="49.65703" lon="5.01235">
        <ele>153.6</ele>
        <time>2020-06-25T15:02:06Z</time>
      </trkpt>
      <trkpt lat="49.65703" lon="5.01243">
        <ele>153.6</ele>
        <time>2020-06-25T15:02:07Z</time>
      </trkpt>
      <trkpt lat="49.65705" lon="5.01252">
        <ele>153.6</ele>
        <time>2020-06-25T15:02:08Z</time>
      </trkpt>
      <trkpt lat="49.65705" lon="5.0126">
        <ele>153.6</ele>
        <time>2020-06-25T15:02:09Z</time>
      </trkpt>
      <trkpt lat="49.65705" lon="5.0127">
        <ele>153.6</ele>
        <time>2020-06-25T15:02:10Z</time>
      </trkpt>
      <trkpt lat="49.65706" lon="5.01279">
        <ele>153.7</ele>
        <time>2020-06-25T15:02:11Z</time>
      </trkpt>
      <trkpt lat="49.65706" lon="5.01288">
        <ele>153.7</ele>
        <time>2020-06-25T15:02:12Z</time>
      </trkpt>
      <trkpt lat="49.65707" lon="5.01297">
        <ele>153.7</ele>
        <time>2020-06-25T15:02:13Z</time>
      </trkpt>
      <trkpt lat="49.65707" lon="5.01302">
        <ele>153.8</ele>
        <time>2020-06-25T15:02:14Z</time>
      </trkpt>
      <trkpt lat="49.65708" lon="5.01311">
        <ele>153.8</ele>
        <time>2020-06-25T15:02:15Z</time>
      </trkpt>
      <trkpt lat="49.65709" lon="5.01321">
        <ele>153.8</ele>
        <time>2020-06-25T15:02:16Z</time>
      </trkpt>
      <trkpt lat="49.65709" lon="5.0133">
        <ele>153.8</ele>
        <time>2020-06-25T15:02:17Z</time>
      </trkpt>
      <trkpt lat="49.65709" lon="5.01338">
        <ele>153.8</ele>
        <time>2020-06-25T15:02:18Z</time>
      </trkpt>
      <trkpt lat="49.65709" lon="5.01345">
        <ele>153.8</ele>
        <time>2020-06-25T15:02:19Z</time>
      </trkpt>
      <trkpt lat="49.6571" lon="5.01356">
        <ele>153.8</ele>
        <time>2020-06-25T15:02:20Z</time>
      </trkpt>
      <trkpt lat="49.6571" lon="5.01363">
        <ele>153.8</ele>
        <time>2020-06-25T15:02:21Z</time>
      </trkpt>
      <trkpt lat="49.65711" lon="5.01371">
        <ele>153.8</ele>
        <time>2020-06-25T15:02:22Z</time>
      </trkpt>
      <trkpt lat="49.65712" lon="5.01378">
        <ele>153.8</ele>
        <time>2020-06-25T15:02:23Z</time>
      </trkpt>
      <trkpt lat="49.65713" lon="5.01387">
        <ele>153.8</ele>
        <time>2020-06-25T15:02:24Z</time>
      </trkpt>
      <trkpt lat="49.65713" lon="5.01392">
        <ele>153.8</ele>
        <time>2020-06-25T15:02:25Z</time>
      </trkpt>
      <trkpt lat="49.65715" lon="5.01398">
        <ele>153.8</ele>
        <time>2020-06-25T15:02:26Z</time>
      </trkpt>
      <trkpt lat="49.65715" lon="5.01406">
        <ele>153.8</ele>
        <time>2020-06-25T15:02:27Z</time>
      </trkpt>
      <trkpt lat="49.65715" lon="5.01413">
        <ele>153.7</ele>
        <time>2020-06-25T15:02:28Z</time>
      </trkpt>
      <trkpt lat="49.65715" lon="5.0142">
        <ele>153.7</ele>
        <time>2020-06-25T15:02:29Z</time>
      </trkpt>
      <trkpt lat="49.65716" lon="5.01425">
        <ele>153.7</ele>
        <time>2020-06-25T15:02:30Z</time>
      </trkpt>
      <trkpt lat="49.65718" lon="5.0143">
        <ele>153.7</ele>
        <time>2020-06-25T15:02:31Z</time>
      </trkpt>
      <trkpt lat="49.6572" lon="5.01433">
        <ele>153.7</ele>
        <time>2020-06-25T15:02:32Z</time>
      </trkpt>
      <trkpt lat="49.65721" lon="5.01437">
        <ele>153.8</ele>
        <time>2020-06-25T15:02:33Z</time>
      </trkpt>
      <trkpt lat="49.65722" lon="5.01445">
        <ele>153.8</ele>
        <time>2020-06-25T15:02:34Z</time>
      </trkpt>
      <trkpt lat="49.65722" lon="5.01452">
        <ele>153.8</ele>
        <time>2020-06-25T15:02:35Z</time>
      </trkpt>
      <trkpt lat="49.65722" lon="5.0146">
        <ele>153.8</ele>
        <time>2020-06-25T15:02:36Z</time>
      </trkpt>
      <trkpt lat="49.65722" lon="5.01467">
        <ele>153.9</ele>
        <time>2020-06-25T15:02:37Z</time>
      </trkpt>
      <trkpt lat="49.65723" lon="5.01474">
        <ele>153.9</ele>
        <time>2020-06-25T15:02:38Z</time>
      </trkpt>
      <trkpt lat="49.65723" lon="5.0148">
        <ele>153.9</ele>
        <time>2020-06-25T15:02:39Z</time>
      </trkpt>
      <trkpt lat="49.65724" lon="5.01488">
        <ele>153.9</ele>
        <time>2020-06-25T15:02:40Z</time>
      </trkpt>
      <trkpt lat="49.65725" lon="5.01495">
        <ele>153.9</ele>
        <time>2020-06-25T15:02:41Z</time>
      </trkpt>
      <trkpt lat="49.65726" lon="5.01503">
        <ele>154</ele>
        <time>2020-06-25T15:02:42Z</time>
      </trkpt>
      <trkpt lat="49.65727" lon="5.0151">
        <ele>154</ele>
        <time>2020-06-25T15:02:43Z</time>
      </trkpt>
      <trkpt lat="49.6573" lon="5.01516">
        <ele>154</ele>
        <time>2020-06-25T15:02:44Z</time>
      </trkpt>
      <trkpt lat="49.65733" lon="5.01521">
        <ele>154</ele>
        <time>2020-06-25T15:02:45Z</time>
      </trkpt>
      <trkpt lat="49.65735" lon="5.01527">
        <ele>154</ele>
        <time>2020-06-25T15:02:46Z</time>
      </trkpt>
      <trkpt lat="49.65738" lon="5.01534">
        <ele>154</ele>
        <time>2020-06-25T15:02:47Z</time>
      </trkpt>
      <trkpt lat="49.65741" lon="5.01543">
        <ele>154</ele>
        <time>2020-06-25T15:02:48Z</time>
      </trkpt>
      <trkpt lat="49.65744" lon="5.0155">
        <ele>154</ele>
        <time>2020-06-25T15:02:49Z</time>
      </trkpt>
      <trkpt lat="49.65747" lon="5.01557">
        <ele>154</ele>
        <time>2020-06-25T15:02:50Z</time>
      </trkpt>
      <trkpt lat="49.6575" lon="5.01564">
        <ele>154</ele>
        <time>2020-06-25T15:02:51Z</time>
      </trkpt>
      <trkpt lat="49.65753" lon="5.01571">
        <ele>154</ele>
        <time>2020-06-25T15:02:52Z</time>
      </trkpt>
      <trkpt lat="49.65755" lon="5.01577">
        <ele>154</ele>
        <time>2020-06-25T15:02:53Z</time>
      </trkpt>
      <trkpt lat="49.65758" lon="5.01584">
        <ele>154</ele>
        <time>2020-06-25T15:02:54Z</time>
      </trkpt>
      <trkpt lat="49.65761" lon="5.01591">
        <ele>154</ele>
        <time>2020-06-25T15:02:55Z</time>
      </trkpt>
      <trkpt lat="49.65763" lon="5.01597">
        <ele>154</ele>
        <time>2020-06-25T15:02:56Z</time>
      </trkpt>
      <trkpt lat="49.65766" lon="5.01604">
        <ele>154</ele>
        <time>2020-06-25T15:02:57Z</time>
      </trkpt>
      <trkpt lat="49.6577" lon="5.01611">
        <ele>154</ele>
        <time>2020-06-25T15:02:58Z</time>
      </trkpt>
      <trkpt lat="49.65773" lon="5.01618">
        <ele>154</ele>
        <time>2020-06-25T15:02:59Z</time>
      </trkpt>
      <trkpt lat="49.65775" lon="5.01624">
        <ele>154</ele>
        <time>2020-06-25T15:03:00Z</time>
      </trkpt>
      <trkpt lat="49.65778" lon="5.01631">
        <ele>154.1</ele>
        <time>2020-06-25T15:03:01Z</time>
      </trkpt>
      <trkpt lat="49.65781" lon="5.01636">
        <ele>154.1</ele>
        <time>2020-06-25T15:03:02Z</time>
      </trkpt>
      <trkpt lat="49.65783" lon="5.01642">
        <ele>154.2</ele>
        <time>2020-06-25T15:03:03Z</time>
      </trkpt>
      <trkpt lat="49.65787" lon="5.0165">
        <ele>154.1</ele>
        <time>2020-06-25T15:03:04Z</time>
      </trkpt>
      <trkpt lat="49.6579" lon="5.01656">
        <ele>154.1</ele>
        <time>2020-06-25T15:03:05Z</time>
      </trkpt>
      <trkpt lat="49.65792" lon="5.01661">
        <ele>154.1</ele>
        <time>2020-06-25T15:03:06Z</time>
      </trkpt>
      <trkpt lat="49.65795" lon="5.01668">
        <ele>154.1</ele>
        <time>2020-06-25T15:03:07Z</time>
      </trkpt>
      <trkpt lat="49.65798" lon="5.01676">
        <ele>154.1</ele>
        <time>2020-06-25T15:03:08Z</time>
      </trkpt>
      <trkpt lat="49.65801" lon="5.01682">
        <ele>154.1</ele>
        <time>2020-06-25T15:03:09Z</time>
      </trkpt>
      <trkpt lat="49.65803" lon="5.01689">
        <ele>154.1</ele>
        <time>2020-06-25T15:03:10Z</time>
      </trkpt>
      <trkpt lat="49.65806" lon="5.01696">
        <ele>154.1</ele>
        <time>2020-06-25T15:03:11Z</time>
      </trkpt>
      <trkpt lat="49.65808" lon="5.01703">
        <ele>154.1</ele>
        <time>2020-06-25T15:03:12Z</time>
      </trkpt>
      <trkpt lat="49.65811" lon="5.01709">
        <ele>154.1</ele>
        <time>2020-06-25T15:03:13Z</time>
      </trkpt>
      <trkpt lat="49.65816" lon="5.01717">
        <ele>154.1</ele>
        <time>2020-06-25T15:03:14Z</time>
      </trkpt>
      <trkpt lat="49.65819" lon="5.01724">
        <ele>154.1</ele>
        <time>2020-06-25T15:03:15Z</time>
      </trkpt>
      <trkpt lat="49.65822" lon="5.0173">
        <ele>154.1</ele>
        <time>2020-06-25T15:03:16Z</time>
      </trkpt>
      <trkpt lat="49.65825" lon="5.01738">
        <ele>154.1</ele>
        <time>2020-06-25T15:03:17Z</time>
      </trkpt>
      <trkpt lat="49.65828" lon="5.01745">
        <ele>154.1</ele>
        <time>2020-06-25T15:03:18Z</time>
      </trkpt>
      <trkpt lat="49.65832" lon="5.01754">
        <ele>154.1</ele>
        <time>2020-06-25T15:03:19Z</time>
      </trkpt>
      <trkpt lat="49.65835" lon="5.01761">
        <ele>154.1</ele>
        <time>2020-06-25T15:03:20Z</time>
      </trkpt>
      <trkpt lat="49.65839" lon="5.01769">
        <ele>154.1</ele>
        <time>2020-06-25T15:03:21Z</time>
      </trkpt>
      <trkpt lat="49.65842" lon="5.01775">
        <ele>154.1</ele>
        <time>2020-06-25T15:03:22Z</time>
      </trkpt>
      <trkpt lat="49.65845" lon="5.01781">
        <ele>154.1</ele>
        <time>2020-06-25T15:03:23Z</time>
      </trkpt>
      <trkpt lat="49.65847" lon="5.01788">
        <ele>154.1</ele>
        <time>2020-06-25T15:03:24Z</time>
      </trkpt>
      <trkpt lat="49.6585" lon="5.01795">
        <ele>154.1</ele>
        <time>2020-06-25T15:03:25Z</time>
      </trkpt>
      <trkpt lat="49.65853" lon="5.01802">
        <ele>154.1</ele>
        <time>2020-06-25T15:03:26Z</time>
      </trkpt>
      <trkpt lat="49.65856" lon="5.01808">
        <ele>154.1</ele>
        <time>2020-06-25T15:03:27Z</time>
      </trkpt>
      <trkpt lat="49.65859" lon="5.01814">
        <ele>154.1</ele>
        <time>2020-06-25T15:03:28Z</time>
      </trkpt>
      <trkpt lat="49.65862" lon="5.01821">
        <ele>154.1</ele>
        <time>2020-06-25T15:03:29Z</time>
      </trkpt>
      <trkpt lat="49.65865" lon="5.01827">
        <ele>154.1</ele>
        <time>2020-06-25T15:03:30Z</time>
      </trkpt>
      <trkpt lat="49.65868" lon="5.01835">
        <ele>154.2</ele>
        <time>2020-06-25T15:03:31Z</time>
      </trkpt>
      <trkpt lat="49.65871" lon="5.01842">
        <ele>154.2</ele>
        <time>2020-06-25T15:03:32Z</time>
      </trkpt>
      <trkpt lat="49.65874" lon="5.01849">
        <ele>154.2</ele>
        <time>2020-06-25T15:03:33Z</time>
      </trkpt>
      <trkpt lat="49.65877" lon="5.01855">
        <ele>154.3</ele>
        <time>2020-06-25T15:03:34Z</time>
      </trkpt>
      <trkpt lat="49.6588" lon="5.01863">
        <ele>154.3</ele>
        <time>2020-06-25T15:03:35Z</time>
      </trkpt>
      <trkpt lat="49.65883" lon="5.01871">
        <ele>154.3</ele>
        <time>2020-06-25T15:03:36Z</time>
      </trkpt>
      <trkpt lat="49.65886" lon="5.01877">
        <ele>154.3</ele>
        <time>2020-06-25T15:03:37Z</time>
      </trkpt>
      <trkpt lat="49.65889" lon="5.01883">
        <ele>154.3</ele>
        <time>2020-06-25T15:03:38Z</time>
      </trkpt>
      <trkpt lat="49.65892" lon="5.01889">
        <ele>154.3</ele>
        <time>2020-06-25T15:03:39Z</time>
      </trkpt>
      <trkpt lat="49.65895" lon="5.01896">
        <ele>154.3</ele>
        <time>2020-06-25T15:03:40Z</time>
      </trkpt>
      <trkpt lat="49.65898" lon="5.01903">
        <ele>154.3</ele>
        <time>2020-06-25T15:03:41Z</time>
      </trkpt>
      <trkpt lat="49.65902" lon="5.0191">
        <ele>154.3</ele>
        <time>2020-06-25T15:03:42Z</time>
      </trkpt>
      <trkpt lat="49.65905" lon="5.01918">
        <ele>154.3</ele>
        <time>2020-06-25T15:03:43Z</time>
      </trkpt>
      <trkpt lat="49.65908" lon="5.01926">
        <ele>154.4</ele>
        <time>2020-06-25T15:03:44Z</time>
      </trkpt>
      <trkpt lat="49.65911" lon="5.01933">
        <ele>154.4</ele>
        <time>2020-06-25T15:03:45Z</time>
      </trkpt>
      <trkpt lat="49.65914" lon="5.0194">
        <ele>154.4</ele>
        <time>2020-06-25T15:03:46Z</time>
      </trkpt>
      <trkpt lat="49.65917" lon="5.01946">
        <ele>154.4</ele>
        <time>2020-06-25T15:03:47Z</time>
      </trkpt>
      <trkpt lat="49.6592" lon="5.01953">
        <ele>154.4</ele>
        <time>2020-06-25T15:03:48Z</time>
      </trkpt>
      <trkpt lat="49.65923" lon="5.01959">
        <ele>154.4</ele>
        <time>2020-06-25T15:03:49Z</time>
      </trkpt>
      <trkpt lat="49.65927" lon="5.01966">
        <ele>154.4</ele>
        <time>2020-06-25T15:03:50Z</time>
      </trkpt>
      <trkpt lat="49.6593" lon="5.01973">
        <ele>154.3</ele>
        <time>2020-06-25T15:03:51Z</time>
      </trkpt>
      <trkpt lat="49.65933" lon="5.01981">
        <ele>154.3</ele>
        <time>2020-06-25T15:03:52Z</time>
      </trkpt>
      <trkpt lat="49.65935" lon="5.01987">
        <ele>154.3</ele>
        <time>2020-06-25T15:03:53Z</time>
      </trkpt>
      <trkpt lat="49.65938" lon="5.01994">
        <ele>154.3</ele>
        <time>2020-06-25T15:03:54Z</time>
      </trkpt>
      <trkpt lat="49.65941" lon="5.02">
        <ele>154.3</ele>
        <time>2020-06-25T15:03:55Z</time>
      </trkpt>
      <trkpt lat="49.65944" lon="5.02007">
        <ele>154.3</ele>
        <time>2020-06-25T15:03:56Z</time>
      </trkpt>
      <trkpt lat="49.65947" lon="5.02013">
        <ele>154.3</ele>
        <time>2020-06-25T15:03:57Z</time>
      </trkpt>
      <trkpt lat="49.65949" lon="5.02019">
        <ele>154.2</ele>
        <time>2020-06-25T15:03:58Z</time>
      </trkpt>
      <trkpt lat="49.65952" lon="5.02025">
        <ele>154.2</ele>
        <time>2020-06-25T15:03:59Z</time>
      </trkpt>
      <trkpt lat="49.65954" lon="5.02032">
        <ele>154.2</ele>
        <time>2020-06-25T15:04:00Z</time>
      </trkpt>
      <trkpt lat="49.65957" lon="5.02038">
        <ele>154.2</ele>
        <time>2020-06-25T15:04:01Z</time>
      </trkpt>
      <trkpt lat="49.65958" lon="5.02044">
        <ele>154.2</ele>
        <time>2020-06-25T15:04:02Z</time>
      </trkpt>
      <trkpt lat="49.65961" lon="5.02052">
        <ele>154.2</ele>
        <time>2020-06-25T15:04:03Z</time>
      </trkpt>
      <trkpt lat="49.65963" lon="5.02061">
        <ele>154.2</ele>
        <time>2020-06-25T15:04:04Z</time>
      </trkpt>
      <trkpt lat="49.65965" lon="5.02068">
        <ele>154.3</ele>
        <time>2020-06-25T15:04:05Z</time>
      </trkpt>
      <trkpt lat="49.65967" lon="5.02077">
        <ele>154.3</ele>
        <time>2020-06-25T15:04:06Z</time>
      </trkpt>
      <trkpt lat="49.65968" lon="5.02085">
        <ele>154.3</ele>
        <time>2020-06-25T15:04:07Z</time>
      </trkpt>
      <trkpt lat="49.65969" lon="5.02094">
        <ele>154.3</ele>
        <time>2020-06-25T15:04:08Z</time>
      </trkpt>
      <trkpt lat="49.65969" lon="5.02102">
        <ele>154.3</ele>
        <time>2020-06-25T15:04:09Z</time>
      </trkpt>
      <trkpt lat="49.65969" lon="5.02109">
        <ele>154.3</ele>
        <time>2020-06-25T15:04:10Z</time>
      </trkpt>
      <trkpt lat="49.6597" lon="5.02117">
        <ele>154.3</ele>
        <time>2020-06-25T15:04:11Z</time>
      </trkpt>
      <trkpt lat="49.65971" lon="5.02128">
        <ele>154.3</ele>
        <time>2020-06-25T15:04:12Z</time>
      </trkpt>
      <trkpt lat="49.65971" lon="5.02137">
        <ele>154.3</ele>
        <time>2020-06-25T15:04:13Z</time>
      </trkpt>
      <trkpt lat="49.65972" lon="5.02145">
        <ele>154.3</ele>
        <time>2020-06-25T15:04:14Z</time>
      </trkpt>
      <trkpt lat="49.65972" lon="5.02153">
        <ele>154.3</ele>
        <time>2020-06-25T15:04:15Z</time>
      </trkpt>
      <trkpt lat="49.65972" lon="5.02161">
        <ele>154.3</ele>
        <time>2020-06-25T15:04:16Z</time>
      </trkpt>
      <trkpt lat="49.65972" lon="5.02169">
        <ele>154.2</ele>
        <time>2020-06-25T15:04:17Z</time>
      </trkpt>
      <trkpt lat="49.65973" lon="5.02177">
        <ele>154.2</ele>
        <time>2020-06-25T15:04:18Z</time>
      </trkpt>
      <trkpt lat="49.65974" lon="5.02184">
        <ele>154.2</ele>
        <time>2020-06-25T15:04:19Z</time>
      </trkpt>
      <trkpt lat="49.65975" lon="5.02192">
        <ele>154.2</ele>
        <time>2020-06-25T15:04:20Z</time>
      </trkpt>
      <trkpt lat="49.65975" lon="5.022">
        <ele>154.2</ele>
        <time>2020-06-25T15:04:21Z</time>
      </trkpt>
      <trkpt lat="49.65976" lon="5.02208">
        <ele>154.2</ele>
        <time>2020-06-25T15:04:22Z</time>
      </trkpt>
      <trkpt lat="49.65976" lon="5.02216">
        <ele>154.3</ele>
        <time>2020-06-25T15:04:23Z</time>
      </trkpt>
      <trkpt lat="49.65977" lon="5.02223">
        <ele>154.3</ele>
        <time>2020-06-25T15:04:24Z</time>
      </trkpt>
      <trkpt lat="49.65977" lon="5.02231">
        <ele>154.3</ele>
        <time>2020-06-25T15:04:25Z</time>
      </trkpt>
      <trkpt lat="49.65977" lon="5.02238">
        <ele>154.3</ele>
        <time>2020-06-25T15:04:26Z</time>
      </trkpt>
      <trkpt lat="49.65977" lon="5.02246">
        <ele>154.2</ele>
        <time>2020-06-25T15:04:27Z</time>
      </trkpt>
      <trkpt lat="49.65978" lon="5.02253">
        <ele>154.2</ele>
        <time>2020-06-25T15:04:28Z</time>
      </trkpt>
      <trkpt lat="49.65979" lon="5.02261">
        <ele>154.2</ele>
        <time>2020-06-25T15:04:29Z</time>
      </trkpt>
      <trkpt lat="49.6598" lon="5.02268">
        <ele>154.2</ele>
        <time>2020-06-25T15:04:30Z</time>
      </trkpt>
      <trkpt lat="49.6598" lon="5.02276">
        <ele>154.2</ele>
        <time>2020-06-25T15:04:31Z</time>
      </trkpt>
      <trkpt lat="49.65981" lon="5.02285">
        <ele>154.3</ele>
        <time>2020-06-25T15:04:32Z</time>
      </trkpt>
      <trkpt lat="49.65982" lon="5.02293">
        <ele>154.3</ele>
        <time>2020-06-25T15:04:33Z</time>
      </trkpt>
      <trkpt lat="49.65983" lon="5.02301">
        <ele>154.3</ele>
        <time>2020-06-25T15:04:34Z</time>
      </trkpt>
      <trkpt lat="49.65983" lon="5.02309">
        <ele>154.4</ele>
        <time>2020-06-25T15:04:35Z</time>
      </trkpt>
      <trkpt lat="49.65984" lon="5.02317">
        <ele>154.4</ele>
        <time>2020-06-25T15:04:36Z</time>
      </trkpt>
      <trkpt lat="49.65985" lon="5.02325">
        <ele>154.4</ele>
        <time>2020-06-25T15:04:37Z</time>
      </trkpt>
      <trkpt lat="49.65986" lon="5.02333">
        <ele>154.4</ele>
        <time>2020-06-25T15:04:38Z</time>
      </trkpt>
      <trkpt lat="49.65987" lon="5.02343">
        <ele>154.4</ele>
        <time>2020-06-25T15:04:39Z</time>
      </trkpt>
      <trkpt lat="49.65987" lon="5.02351">
        <ele>154.4</ele>
        <time>2020-06-25T15:04:40Z</time>
      </trkpt>
      <trkpt lat="49.65988" lon="5.02359">
        <ele>154.4</ele>
        <time>2020-06-25T15:04:41Z</time>
      </trkpt>
      <trkpt lat="49.65989" lon="5.02366">
        <ele>154.4</ele>
        <time>2020-06-25T15:04:42Z</time>
      </trkpt>
      <trkpt lat="49.6599" lon="5.02374">
        <ele>154.4</ele>
        <time>2020-06-25T15:04:43Z</time>
      </trkpt>
      <trkpt lat="49.65992" lon="5.02381">
        <ele>154.4</ele>
        <time>2020-06-25T15:04:44Z</time>
      </trkpt>
      <trkpt lat="49.65993" lon="5.02389">
        <ele>154.4</ele>
        <time>2020-06-25T15:04:45Z</time>
      </trkpt>
      <trkpt lat="49.65993" lon="5.02396">
        <ele>154.4</ele>
        <time>2020-06-25T15:04:46Z</time>
      </trkpt>
      <trkpt lat="49.65994" lon="5.02405">
        <ele>154.4</ele>
        <time>2020-06-25T15:04:47Z</time>
      </trkpt>
      <trkpt lat="49.65995" lon="5.02413">
        <ele>154.4</ele>
        <time>2020-06-25T15:04:48Z</time>
      </trkpt>
      <trkpt lat="49.65996" lon="5.0242">
        <ele>154.3</ele>
        <time>2020-06-25T15:04:49Z</time>
      </trkpt>
      <trkpt lat="49.65997" lon="5.02428">
        <ele>154.3</ele>
        <time>2020-06-25T15:04:50Z</time>
      </trkpt>
      <trkpt lat="49.65998" lon="5.02436">
        <ele>154.3</ele>
        <time>2020-06-25T15:04:51Z</time>
      </trkpt>
      <trkpt lat="49.65999" lon="5.02444">
        <ele>154.3</ele>
        <time>2020-06-25T15:04:52Z</time>
      </trkpt>
      <trkpt lat="49.66" lon="5.02451">
        <ele>154.3</ele>
        <time>2020-06-25T15:04:53Z</time>
      </trkpt>
      <trkpt lat="49.66001" lon="5.02458">
        <ele>154.3</ele>
        <time>2020-06-25T15:04:54Z</time>
      </trkpt>
      <trkpt lat="49.66002" lon="5.02466">
        <ele>154.3</ele>
        <time>2020-06-25T15:04:55Z</time>
      </trkpt>
      <trkpt lat="49.66004" lon="5.02474">
        <ele>154.3</ele>
        <time>2020-06-25T15:04:56Z</time>
      </trkpt>
      <trkpt lat="49.66005" lon="5.02482">
        <ele>154.3</ele>
        <time>2020-06-25T15:04:57Z</time>
      </trkpt>
      <trkpt lat="49.66006" lon="5.02489">
        <ele>154.3</ele>
        <time>2020-06-25T15:04:58Z</time>
      </trkpt>
      <trkpt lat="49.66007" lon="5.02497">
        <ele>154.3</ele>
        <time>2020-06-25T15:04:59Z</time>
      </trkpt>
      <trkpt lat="49.66009" lon="5.02505">
        <ele>154.3</ele>
        <time>2020-06-25T15:05:00Z</time>
      </trkpt>
      <trkpt lat="49.6601" lon="5.02512">
        <ele>154.3</ele>
        <time>2020-06-25T15:05:01Z</time>
      </trkpt>
      <trkpt lat="49.66012" lon="5.0252">
        <ele>154.3</ele>
        <time>2020-06-25T15:05:02Z</time>
      </trkpt>
      <trkpt lat="49.66012" lon="5.02529">
        <ele>154.3</ele>
        <time>2020-06-25T15:05:03Z</time>
      </trkpt>
      <trkpt lat="49.66013" lon="5.02536">
        <ele>154.3</ele>
        <time>2020-06-25T15:05:04Z</time>
      </trkpt>
      <trkpt lat="49.66013" lon="5.02545">
        <ele>154.3</ele>
        <time>2020-06-25T15:05:05Z</time>
      </trkpt>
      <trkpt lat="49.66014" lon="5.02553">
        <ele>154.4</ele>
        <time>2020-06-25T15:05:06Z</time>
      </trkpt>
      <trkpt lat="49.66014" lon="5.02562">
        <ele>154.4</ele>
        <time>2020-06-25T15:05:07Z</time>
      </trkpt>
      <trkpt lat="49.66015" lon="5.02571">
        <ele>154.4</ele>
        <time>2020-06-25T15:05:08Z</time>
      </trkpt>
      <trkpt lat="49.66015" lon="5.02578">
        <ele>154.4</ele>
        <time>2020-06-25T15:05:09Z</time>
      </trkpt>
      <trkpt lat="49.66016" lon="5.02587">
        <ele>154.4</ele>
        <time>2020-06-25T15:05:10Z</time>
      </trkpt>
      <trkpt lat="49.66017" lon="5.02595">
        <ele>154.4</ele>
        <time>2020-06-25T15:05:11Z</time>
      </trkpt>
      <trkpt lat="49.66018" lon="5.02603">
        <ele>154.4</ele>
        <time>2020-06-25T15:05:12Z</time>
      </trkpt>
      <trkpt lat="49.66019" lon="5.02611">
        <ele>154.5</ele>
        <time>2020-06-25T15:05:13Z</time>
      </trkpt>
      <trkpt lat="49.6602" lon="5.0262">
        <ele>154.5</ele>
        <time>2020-06-25T15:05:14Z</time>
      </trkpt>
      <trkpt lat="49.66021" lon="5.02628">
        <ele>154.5</ele>
        <time>2020-06-25T15:05:15Z</time>
      </trkpt>
      <trkpt lat="49.66022" lon="5.02636">
        <ele>154.5</ele>
        <time>2020-06-25T15:05:16Z</time>
      </trkpt>
      <trkpt lat="49.66025" lon="5.02643">
        <ele>154.6</ele>
        <time>2020-06-25T15:05:17Z</time>
      </trkpt>
      <trkpt lat="49.66026" lon="5.02649">
        <ele>154.6</ele>
        <time>2020-06-25T15:05:18Z</time>
      </trkpt>
      <trkpt lat="49.66027" lon="5.02656">
        <ele>154.6</ele>
        <time>2020-06-25T15:05:19Z</time>
      </trkpt>
      <trkpt lat="49.66029" lon="5.02664">
        <ele>154.6</ele>
        <time>2020-06-25T15:05:20Z</time>
      </trkpt>
      <trkpt lat="49.66031" lon="5.02673">
        <ele>154.6</ele>
        <time>2020-06-25T15:05:21Z</time>
      </trkpt>
      <trkpt lat="49.66031" lon="5.02682">
        <ele>154.6</ele>
        <time>2020-06-25T15:05:22Z</time>
      </trkpt>
      <trkpt lat="49.66031" lon="5.02691">
        <ele>154.6</ele>
        <time>2020-06-25T15:05:23Z</time>
      </trkpt>
      <trkpt lat="49.66032" lon="5.02699">
        <ele>154.6</ele>
        <time>2020-06-25T15:05:24Z</time>
      </trkpt>
      <trkpt lat="49.66033" lon="5.02707">
        <ele>154.6</ele>
        <time>2020-06-25T15:05:25Z</time>
      </trkpt>
      <trkpt lat="49.66034" lon="5.02715">
        <ele>154.6</ele>
        <time>2020-06-25T15:05:26Z</time>
      </trkpt>
      <trkpt lat="49.66035" lon="5.02721">
        <ele>154.6</ele>
        <time>2020-06-25T15:05:27Z</time>
      </trkpt>
      <trkpt lat="49.66036" lon="5.0273">
        <ele>154.6</ele>
        <time>2020-06-25T15:05:28Z</time>
      </trkpt>
      <trkpt lat="49.66037" lon="5.02738">
        <ele>154.7</ele>
        <time>2020-06-25T15:05:29Z</time>
      </trkpt>
      <trkpt lat="49.66039" lon="5.02747">
        <ele>154.7</ele>
        <time>2020-06-25T15:05:30Z</time>
      </trkpt>
      <trkpt lat="49.6604" lon="5.02755">
        <ele>154.8</ele>
        <time>2020-06-25T15:05:31Z</time>
      </trkpt>
      <trkpt lat="49.66041" lon="5.02763">
        <ele>154.8</ele>
        <time>2020-06-25T15:05:32Z</time>
      </trkpt>
      <trkpt lat="49.66042" lon="5.0277">
        <ele>154.8</ele>
        <time>2020-06-25T15:05:33Z</time>
      </trkpt>
      <trkpt lat="49.66043" lon="5.02778">
        <ele>154.8</ele>
        <time>2020-06-25T15:05:34Z</time>
      </trkpt>
      <trkpt lat="49.66044" lon="5.02787">
        <ele>154.8</ele>
        <time>2020-06-25T15:05:35Z</time>
      </trkpt>
      <trkpt lat="49.66045" lon="5.02795">
        <ele>154.8</ele>
        <time>2020-06-25T15:05:36Z</time>
      </trkpt>
      <trkpt lat="49.66046" lon="5.02803">
        <ele>154.8</ele>
        <time>2020-06-25T15:05:37Z</time>
      </trkpt>
      <trkpt lat="49.66048" lon="5.02811">
        <ele>154.8</ele>
        <time>2020-06-25T15:05:38Z</time>
      </trkpt>
      <trkpt lat="49.66049" lon="5.02818">
        <ele>154.8</ele>
        <time>2020-06-25T15:05:39Z</time>
      </trkpt>
      <trkpt lat="49.6605" lon="5.02826">
        <ele>154.8</ele>
        <time>2020-06-25T15:05:40Z</time>
      </trkpt>
      <trkpt lat="49.66052" lon="5.02834">
        <ele>154.8</ele>
        <time>2020-06-25T15:05:41Z</time>
      </trkpt>
      <trkpt lat="49.66053" lon="5.02842">
        <ele>154.9</ele>
        <time>2020-06-25T15:05:42Z</time>
      </trkpt>
      <trkpt lat="49.66055" lon="5.0285">
        <ele>154.8</ele>
        <time>2020-06-25T15:05:43Z</time>
      </trkpt>
      <trkpt lat="49.66057" lon="5.02858">
        <ele>154.7</ele>
        <time>2020-06-25T15:05:44Z</time>
      </trkpt>
      <trkpt lat="49.66059" lon="5.02865">
        <ele>154.7</ele>
        <time>2020-06-25T15:05:45Z</time>
      </trkpt>
      <trkpt lat="49.66062" lon="5.02873">
        <ele>154.6</ele>
        <time>2020-06-25T15:05:46Z</time>
      </trkpt>
      <trkpt lat="49.66065" lon="5.02881">
        <ele>154.6</ele>
        <time>2020-06-25T15:05:47Z</time>
      </trkpt>
      <trkpt lat="49.66068" lon="5.02887">
        <ele>154.5</ele>
        <time>2020-06-25T15:05:48Z</time>
      </trkpt>
      <trkpt lat="49.6607" lon="5.02897">
        <ele>154.5</ele>
        <time>2020-06-25T15:05:49Z</time>
      </trkpt>
      <trkpt lat="49.66071" lon="5.02904">
        <ele>154.5</ele>
        <time>2020-06-25T15:05:50Z</time>
      </trkpt>
      <trkpt lat="49.66073" lon="5.02913">
        <ele>154.5</ele>
        <time>2020-06-25T15:05:51Z</time>
      </trkpt>
      <trkpt lat="49.66075" lon="5.02921">
        <ele>154.5</ele>
        <time>2020-06-25T15:05:52Z</time>
      </trkpt>
      <trkpt lat="49.66077" lon="5.02929">
        <ele>154.5</ele>
        <time>2020-06-25T15:05:53Z</time>
      </trkpt>
      <trkpt lat="49.66079" lon="5.02938">
        <ele>154.5</ele>
        <time>2020-06-25T15:05:54Z</time>
      </trkpt>
      <trkpt lat="49.6608" lon="5.02946">
        <ele>154.5</ele>
        <time>2020-06-25T15:05:55Z</time>
      </trkpt>
      <trkpt lat="49.66082" lon="5.02956">
        <ele>154.5</ele>
        <time>2020-06-25T15:05:56Z</time>
      </trkpt>
      <trkpt lat="49.66084" lon="5.02963">
        <ele>154.5</ele>
        <time>2020-06-25T15:05:57Z</time>
      </trkpt>
      <trkpt lat="49.66086" lon="5.0297">
        <ele>154.5</ele>
        <time>2020-06-25T15:05:58Z</time>
      </trkpt>
      <trkpt lat="49.66087" lon="5.02978">
        <ele>154.5</ele>
        <time>2020-06-25T15:05:59Z</time>
      </trkpt>
      <trkpt lat="49.66088" lon="5.02986">
        <ele>154.5</ele>
        <time>2020-06-25T15:06:00Z</time>
      </trkpt>
      <trkpt lat="49.6609" lon="5.02994">
        <ele>154.5</ele>
        <time>2020-06-25T15:06:01Z</time>
      </trkpt>
      <trkpt lat="49.66091" lon="5.03001">
        <ele>154.5</ele>
        <time>2020-06-25T15:06:02Z</time>
      </trkpt>
      <trkpt lat="49.66093" lon="5.0301">
        <ele>154.5</ele>
        <time>2020-06-25T15:06:03Z</time>
      </trkpt>
      <trkpt lat="49.66094" lon="5.03018">
        <ele>154.5</ele>
        <time>2020-06-25T15:06:04Z</time>
      </trkpt>
      <trkpt lat="49.66096" lon="5.03026">
        <ele>154.5</ele>
        <time>2020-06-25T15:06:05Z</time>
      </trkpt>
      <trkpt lat="49.66099" lon="5.03034">
        <ele>154.5</ele>
        <time>2020-06-25T15:06:06Z</time>
      </trkpt>
      <trkpt lat="49.661" lon="5.03041">
        <ele>154.5</ele>
        <time>2020-06-25T15:06:07Z</time>
      </trkpt>
      <trkpt lat="49.66102" lon="5.03049">
        <ele>154.5</ele>
        <time>2020-06-25T15:06:08Z</time>
      </trkpt>
      <trkpt lat="49.66104" lon="5.03057">
        <ele>154.5</ele>
        <time>2020-06-25T15:06:09Z</time>
      </trkpt>
      <trkpt lat="49.66106" lon="5.03066">
        <ele>154.6</ele>
        <time>2020-06-25T15:06:10Z</time>
      </trkpt>
      <trkpt lat="49.66108" lon="5.03073">
        <ele>154.6</ele>
        <time>2020-06-25T15:06:11Z</time>
      </trkpt>
      <trkpt lat="49.6611" lon="5.03082">
        <ele>154.6</ele>
        <time>2020-06-25T15:06:12Z</time>
      </trkpt>
      <trkpt lat="49.66111" lon="5.03091">
        <ele>154.6</ele>
        <time>2020-06-25T15:06:13Z</time>
      </trkpt>
      <trkpt lat="49.66113" lon="5.03098">
        <ele>154.6</ele>
        <time>2020-06-25T15:06:14Z</time>
      </trkpt>
      <trkpt lat="49.66115" lon="5.03106">
        <ele>154.7</ele>
        <time>2020-06-25T15:06:15Z</time>
      </trkpt>
      <trkpt lat="49.66117" lon="5.03113">
        <ele>154.7</ele>
        <time>2020-06-25T15:06:16Z</time>
      </trkpt>
      <trkpt lat="49.66119" lon="5.03119">
        <ele>154.7</ele>
        <time>2020-06-25T15:06:17Z</time>
      </trkpt>
      <trkpt lat="49.66121" lon="5.03125">
        <ele>154.8</ele>
        <time>2020-06-25T15:06:18Z</time>
      </trkpt>
      <trkpt lat="49.66123" lon="5.03132">
        <ele>154.8</ele>
        <time>2020-06-25T15:06:19Z</time>
      </trkpt>
      <trkpt lat="49.66126" lon="5.03139">
        <ele>154.8</ele>
        <time>2020-06-25T15:06:20Z</time>
      </trkpt>
      <trkpt lat="49.66129" lon="5.03147">
        <ele>154.8</ele>
        <time>2020-06-25T15:06:21Z</time>
      </trkpt>
      <trkpt lat="49.66131" lon="5.03153">
        <ele>154.8</ele>
        <time>2020-06-25T15:06:22Z</time>
      </trkpt>
      <trkpt lat="49.66134" lon="5.0316">
        <ele>154.9</ele>
        <time>2020-06-25T15:06:23Z</time>
      </trkpt>
      <trkpt lat="49.66137" lon="5.03167">
        <ele>154.9</ele>
        <time>2020-06-25T15:06:24Z</time>
      </trkpt>
      <trkpt lat="49.66139" lon="5.03174">
        <ele>154.9</ele>
        <time>2020-06-25T15:06:25Z</time>
      </trkpt>
      <trkpt lat="49.66142" lon="5.0318">
        <ele>154.9</ele>
        <time>2020-06-25T15:06:26Z</time>
      </trkpt>
      <trkpt lat="49.66145" lon="5.03187">
        <ele>155</ele>
        <time>2020-06-25T15:06:27Z</time>
      </trkpt>
      <trkpt lat="49.66149" lon="5.03195">
        <ele>155</ele>
        <time>2020-06-25T15:06:28Z</time>
      </trkpt>
      <trkpt lat="49.66151" lon="5.03201">
        <ele>155</ele>
        <time>2020-06-25T15:06:29Z</time>
      </trkpt>
      <trkpt lat="49.66154" lon="5.03207">
        <ele>155</ele>
        <time>2020-06-25T15:06:30Z</time>
      </trkpt>
      <trkpt lat="49.66157" lon="5.03213">
        <ele>155</ele>
        <time>2020-06-25T15:06:31Z</time>
      </trkpt>
      <trkpt lat="49.6616" lon="5.0322">
        <ele>155</ele>
        <time>2020-06-25T15:06:32Z</time>
      </trkpt>
      <trkpt lat="49.66164" lon="5.03227">
        <ele>155</ele>
        <time>2020-06-25T15:06:33Z</time>
      </trkpt>
      <trkpt lat="49.66168" lon="5.03233">
        <ele>155</ele>
        <time>2020-06-25T15:06:34Z</time>
      </trkpt>
      <trkpt lat="49.66171" lon="5.03239">
        <ele>155</ele>
        <time>2020-06-25T15:06:35Z</time>
      </trkpt>
      <trkpt lat="49.66175" lon="5.03245">
        <ele>155</ele>
        <time>2020-06-25T15:06:36Z</time>
      </trkpt>
      <trkpt lat="49.66179" lon="5.03253">
        <ele>155</ele>
        <time>2020-06-25T15:06:37Z</time>
      </trkpt>
      <trkpt lat="49.66182" lon="5.03259">
        <ele>155</ele>
        <time>2020-06-25T15:06:38Z</time>
      </trkpt>
      <trkpt lat="49.66185" lon="5.03264">
        <ele>155</ele>
        <time>2020-06-25T15:06:39Z</time>
      </trkpt>
      <trkpt lat="49.66189" lon="5.03271">
        <ele>155</ele>
        <time>2020-06-25T15:06:40Z</time>
      </trkpt>
      <trkpt lat="49.66192" lon="5.03276">
        <ele>155</ele>
        <time>2020-06-25T15:06:41Z</time>
      </trkpt>
      <trkpt lat="49.66196" lon="5.03281">
        <ele>155</ele>
        <time>2020-06-25T15:06:42Z</time>
      </trkpt>
      <trkpt lat="49.66199" lon="5.03289">
        <ele>155</ele>
        <time>2020-06-25T15:06:43Z</time>
      </trkpt>
      <trkpt lat="49.66202" lon="5.03294">
        <ele>155.1</ele>
        <time>2020-06-25T15:06:44Z</time>
      </trkpt>
      <trkpt lat="49.66206" lon="5.03301">
        <ele>155.1</ele>
        <time>2020-06-25T15:06:45Z</time>
      </trkpt>
      <trkpt lat="49.6621" lon="5.03306">
        <ele>155.1</ele>
        <time>2020-06-25T15:06:46Z</time>
      </trkpt>
      <trkpt lat="49.66214" lon="5.03312">
        <ele>155.1</ele>
        <time>2020-06-25T15:06:47Z</time>
      </trkpt>
      <trkpt lat="49.66218" lon="5.03318">
        <ele>155.1</ele>
        <time>2020-06-25T15:06:48Z</time>
      </trkpt>
      <trkpt lat="49.66221" lon="5.03325">
        <ele>155.1</ele>
        <time>2020-06-25T15:06:49Z</time>
      </trkpt>
      <trkpt lat="49.66225" lon="5.03332">
        <ele>155.1</ele>
        <time>2020-06-25T15:06:50Z</time>
      </trkpt>
      <trkpt lat="49.66229" lon="5.03339">
        <ele>155.1</ele>
        <time>2020-06-25T15:06:51Z</time>
      </trkpt>
      <trkpt lat="49.66233" lon="5.03346">
        <ele>155.1</ele>
        <time>2020-06-25T15:06:52Z</time>
      </trkpt>
      <trkpt lat="49.66238" lon="5.03353">
        <ele>155.1</ele>
        <time>2020-06-25T15:06:53Z</time>
      </trkpt>
      <trkpt lat="49.66242" lon="5.03359">
        <ele>155.1</ele>
        <time>2020-06-25T15:06:54Z</time>
      </trkpt>
      <trkpt lat="49.66247" lon="5.03365">
        <ele>155.1</ele>
        <time>2020-06-25T15:06:55Z</time>
      </trkpt>
      <trkpt lat="49.66251" lon="5.0337">
        <ele>155.1</ele>
        <time>2020-06-25T15:06:56Z</time>
      </trkpt>
      <trkpt lat="49.66256" lon="5.03375">
        <ele>155.1</ele>
        <time>2020-06-25T15:06:57Z</time>
      </trkpt>
      <trkpt lat="49.66261" lon="5.0338">
        <ele>155.1</ele>
        <time>2020-06-25T15:06:58Z</time>
      </trkpt>
      <trkpt lat="49.66266" lon="5.03385">
        <ele>155.2</ele>
        <time>2020-06-25T15:06:59Z</time>
      </trkpt>
      <trkpt lat="49.66271" lon="5.03389">
        <ele>155.2</ele>
        <time>2020-06-25T15:07:00Z</time>
      </trkpt>
      <trkpt lat="49.66275" lon="5.03392">
        <ele>155.2</ele>
        <time>2020-06-25T15:07:01Z</time>
      </trkpt>
      <trkpt lat="49.6628" lon="5.03396">
        <ele>155.3</ele>
        <time>2020-06-25T15:07:02Z</time>
      </trkpt>
      <trkpt lat="49.66283" lon="5.034">
        <ele>155.3</ele>
        <time>2020-06-25T15:07:03Z</time>
      </trkpt>
      <trkpt lat="49.66287" lon="5.03402">
        <ele>155.3</ele>
        <time>2020-06-25T15:07:04Z</time>
      </trkpt>
      <trkpt lat="49.66292" lon="5.03406">
        <ele>155.3</ele>
        <time>2020-06-25T15:07:05Z</time>
      </trkpt>
      <trkpt lat="49.66296" lon="5.03409">
        <ele>155.3</ele>
        <time>2020-06-25T15:07:06Z</time>
      </trkpt>
      <trkpt lat="49.66301" lon="5.03414">
        <ele>155.3</ele>
        <time>2020-06-25T15:07:07Z</time>
      </trkpt>
      <trkpt lat="49.66305" lon="5.03417">
        <ele>155.3</ele>
        <time>2020-06-25T15:07:08Z</time>
      </trkpt>
      <trkpt lat="49.6631" lon="5.03421">
        <ele>155.3</ele>
        <time>2020-06-25T15:07:09Z</time>
      </trkpt>
      <trkpt lat="49.66315" lon="5.03425">
        <ele>155.3</ele>
        <time>2020-06-25T15:07:10Z</time>
      </trkpt>
      <trkpt lat="49.6632" lon="5.03429">
        <ele>155.3</ele>
        <time>2020-06-25T15:07:11Z</time>
      </trkpt>
      <trkpt lat="49.66325" lon="5.03433">
        <ele>155.3</ele>
        <time>2020-06-25T15:07:12Z</time>
      </trkpt>
      <trkpt lat="49.6633" lon="5.03438">
        <ele>155.3</ele>
        <time>2020-06-25T15:07:13Z</time>
      </trkpt>
      <trkpt lat="49.66335" lon="5.03444">
        <ele>155.3</ele>
        <time>2020-06-25T15:07:14Z</time>
      </trkpt>
      <trkpt lat="49.66339" lon="5.03451">
        <ele>155.3</ele>
        <time>2020-06-25T15:07:15Z</time>
      </trkpt>
      <trkpt lat="49.66343" lon="5.03456">
        <ele>155.3</ele>
        <time>2020-06-25T15:07:16Z</time>
      </trkpt>
      <trkpt lat="49.66347" lon="5.03462">
        <ele>155.3</ele>
        <time>2020-06-25T15:07:17Z</time>
      </trkpt>
      <trkpt lat="49.66351" lon="5.03467">
        <ele>155.3</ele>
        <time>2020-06-25T15:07:18Z</time>
      </trkpt>
      <trkpt lat="49.66355" lon="5.03473">
        <ele>155.3</ele>
        <time>2020-06-25T15:07:19Z</time>
      </trkpt>
      <trkpt lat="49.66359" lon="5.0348">
        <ele>155.3</ele>
        <time>2020-06-25T15:07:20Z</time>
      </trkpt>
      <trkpt lat="49.66362" lon="5.03486">
        <ele>155.3</ele>
        <time>2020-06-25T15:07:21Z</time>
      </trkpt>
      <trkpt lat="49.66366" lon="5.03494">
        <ele>155.3</ele>
        <time>2020-06-25T15:07:22Z</time>
      </trkpt>
      <trkpt lat="49.66369" lon="5.03502">
        <ele>155.3</ele>
        <time>2020-06-25T15:07:23Z</time>
      </trkpt>
      <trkpt lat="49.66372" lon="5.03511">
        <ele>155.3</ele>
        <time>2020-06-25T15:07:24Z</time>
      </trkpt>
      <trkpt lat="49.66375" lon="5.03519">
        <ele>155.3</ele>
        <time>2020-06-25T15:07:25Z</time>
      </trkpt>
      <trkpt lat="49.66377" lon="5.03527">
        <ele>155.3</ele>
        <time>2020-06-25T15:07:26Z</time>
      </trkpt>
      <trkpt lat="49.6638" lon="5.03535">
        <ele>155.4</ele>
        <time>2020-06-25T15:07:27Z</time>
      </trkpt>
      <trkpt lat="49.66383" lon="5.03543">
        <ele>155.4</ele>
        <time>2020-06-25T15:07:28Z</time>
      </trkpt>
      <trkpt lat="49.66386" lon="5.03552">
        <ele>155.4</ele>
        <time>2020-06-25T15:07:29Z</time>
      </trkpt>
      <trkpt lat="49.66389" lon="5.03559">
        <ele>155.4</ele>
        <time>2020-06-25T15:07:30Z</time>
      </trkpt>
      <trkpt lat="49.66392" lon="5.03568">
        <ele>155.4</ele>
        <time>2020-06-25T15:07:31Z</time>
      </trkpt>
      <trkpt lat="49.66394" lon="5.03576">
        <ele>155.5</ele>
        <time>2020-06-25T15:07:32Z</time>
      </trkpt>
      <trkpt lat="49.66397" lon="5.03584">
        <ele>155.5</ele>
        <time>2020-06-25T15:07:33Z</time>
      </trkpt>
      <trkpt lat="49.66399" lon="5.03591">
        <ele>155.5</ele>
        <time>2020-06-25T15:07:34Z</time>
      </trkpt>
      <trkpt lat="49.66401" lon="5.03599">
        <ele>155.5</ele>
        <time>2020-06-25T15:07:35Z</time>
      </trkpt>
      <trkpt lat="49.66403" lon="5.03606">
        <ele>155.6</ele>
        <time>2020-06-25T15:07:36Z</time>
      </trkpt>
      <trkpt lat="49.66405" lon="5.03613">
        <ele>155.6</ele>
        <time>2020-06-25T15:07:37Z</time>
      </trkpt>
      <trkpt lat="49.66408" lon="5.0362">
        <ele>155.6</ele>
        <time>2020-06-25T15:07:38Z</time>
      </trkpt>
      <trkpt lat="49.66411" lon="5.03626">
        <ele>155.6</ele>
        <time>2020-06-25T15:07:39Z</time>
      </trkpt>
      <trkpt lat="49.66413" lon="5.03634">
        <ele>155.7</ele>
        <time>2020-06-25T15:07:40Z</time>
      </trkpt>
      <trkpt lat="49.66415" lon="5.03642">
        <ele>155.7</ele>
        <time>2020-06-25T15:07:41Z</time>
      </trkpt>
      <trkpt lat="49.66417" lon="5.03649">
        <ele>155.7</ele>
        <time>2020-06-25T15:07:42Z</time>
      </trkpt>
      <trkpt lat="49.66419" lon="5.03657">
        <ele>155.7</ele>
        <time>2020-06-25T15:07:43Z</time>
      </trkpt>
      <trkpt lat="49.66422" lon="5.03665">
        <ele>155.7</ele>
        <time>2020-06-25T15:07:44Z</time>
      </trkpt>
      <trkpt lat="49.66424" lon="5.03673">
        <ele>155.7</ele>
        <time>2020-06-25T15:07:45Z</time>
      </trkpt>
      <trkpt lat="49.66427" lon="5.03681">
        <ele>155.7</ele>
        <time>2020-06-25T15:07:46Z</time>
      </trkpt>
      <trkpt lat="49.6643" lon="5.03688">
        <ele>155.7</ele>
        <time>2020-06-25T15:07:47Z</time>
      </trkpt>
      <trkpt lat="49.66433" lon="5.03694">
        <ele>155.7</ele>
        <time>2020-06-25T15:07:48Z</time>
      </trkpt>
      <trkpt lat="49.66436" lon="5.03701">
        <ele>155.7</ele>
        <time>2020-06-25T15:07:49Z</time>
      </trkpt>
      <trkpt lat="49.66439" lon="5.03708">
        <ele>155.7</ele>
        <time>2020-06-25T15:07:50Z</time>
      </trkpt>
      <trkpt lat="49.66442" lon="5.03716">
        <ele>155.7</ele>
        <time>2020-06-25T15:07:51Z</time>
      </trkpt>
      <trkpt lat="49.66446" lon="5.03723">
        <ele>155.7</ele>
        <time>2020-06-25T15:07:52Z</time>
      </trkpt>
      <trkpt lat="49.66449" lon="5.0373">
        <ele>155.6</ele>
        <time>2020-06-25T15:07:53Z</time>
      </trkpt>
      <trkpt lat="49.66453" lon="5.03737">
        <ele>155.6</ele>
        <time>2020-06-25T15:07:54Z</time>
      </trkpt>
      <trkpt lat="49.66457" lon="5.03744">
        <ele>155.7</ele>
        <time>2020-06-25T15:07:55Z</time>
      </trkpt>
      <trkpt lat="49.6646" lon="5.03751">
        <ele>155.7</ele>
        <time>2020-06-25T15:07:56Z</time>
      </trkpt>
      <trkpt lat="49.66463" lon="5.03758">
        <ele>155.7</ele>
        <time>2020-06-25T15:07:57Z</time>
      </trkpt>
      <trkpt lat="49.66467" lon="5.03766">
        <ele>155.7</ele>
        <time>2020-06-25T15:07:58Z</time>
      </trkpt>
      <trkpt lat="49.6647" lon="5.03773">
        <ele>155.8</ele>
        <time>2020-06-25T15:07:59Z</time>
      </trkpt>
      <trkpt lat="49.66474" lon="5.03781">
        <ele>155.8</ele>
        <time>2020-06-25T15:08:00Z</time>
      </trkpt>
      <trkpt lat="49.66477" lon="5.03788">
        <ele>155.8</ele>
        <time>2020-06-25T15:08:01Z</time>
      </trkpt>
      <trkpt lat="49.66481" lon="5.03796">
        <ele>155.8</ele>
        <time>2020-06-25T15:08:02Z</time>
      </trkpt>
      <trkpt lat="49.66484" lon="5.03803">
        <ele>155.9</ele>
        <time>2020-06-25T15:08:03Z</time>
      </trkpt>
      <trkpt lat="49.66487" lon="5.0381">
        <ele>155.9</ele>
        <time>2020-06-25T15:08:04Z</time>
      </trkpt>
      <trkpt lat="49.6649" lon="5.03817">
        <ele>155.9</ele>
        <time>2020-06-25T15:08:05Z</time>
      </trkpt>
      <trkpt lat="49.66493" lon="5.03825">
        <ele>155.8</ele>
        <time>2020-06-25T15:08:06Z</time>
      </trkpt>
      <trkpt lat="49.66496" lon="5.03832">
        <ele>155.8</ele>
        <time>2020-06-25T15:08:07Z</time>
      </trkpt>
      <trkpt lat="49.66499" lon="5.03839">
        <ele>155.8</ele>
        <time>2020-06-25T15:08:08Z</time>
      </trkpt>
      <trkpt lat="49.66502" lon="5.03846">
        <ele>155.8</ele>
        <time>2020-06-25T15:08:09Z</time>
      </trkpt>
      <trkpt lat="49.66505" lon="5.03853">
        <ele>155.8</ele>
        <time>2020-06-25T15:08:10Z</time>
      </trkpt>
      <trkpt lat="49.66508" lon="5.03859">
        <ele>155.8</ele>
        <time>2020-06-25T15:08:11Z</time>
      </trkpt>
      <trkpt lat="49.6651" lon="5.03866">
        <ele>155.8</ele>
        <time>2020-06-25T15:08:12Z</time>
      </trkpt>
      <trkpt lat="49.66513" lon="5.03873">
        <ele>155.8</ele>
        <time>2020-06-25T15:08:13Z</time>
      </trkpt>
      <trkpt lat="49.66516" lon="5.03881">
        <ele>155.8</ele>
        <time>2020-06-25T15:08:14Z</time>
      </trkpt>
      <trkpt lat="49.66518" lon="5.03888">
        <ele>155.8</ele>
        <time>2020-06-25T15:08:15Z</time>
      </trkpt>
      <trkpt lat="49.66521" lon="5.03896">
        <ele>155.8</ele>
        <time>2020-06-25T15:08:16Z</time>
      </trkpt>
      <trkpt lat="49.66523" lon="5.03904">
        <ele>155.8</ele>
        <time>2020-06-25T15:08:17Z</time>
      </trkpt>
      <trkpt lat="49.66525" lon="5.03912">
        <ele>155.8</ele>
        <time>2020-06-25T15:08:18Z</time>
      </trkpt>
      <trkpt lat="49.66527" lon="5.0392">
        <ele>155.9</ele>
        <time>2020-06-25T15:08:19Z</time>
      </trkpt>
      <trkpt lat="49.6653" lon="5.03928">
        <ele>155.9</ele>
        <time>2020-06-25T15:08:20Z</time>
      </trkpt>
      <trkpt lat="49.66533" lon="5.03933">
        <ele>156</ele>
        <time>2020-06-25T15:08:21Z</time>
      </trkpt>
      <trkpt lat="49.66535" lon="5.03938">
        <ele>156</ele>
        <time>2020-06-25T15:08:22Z</time>
      </trkpt>
      <trkpt lat="49.66537" lon="5.03945">
        <ele>156</ele>
        <time>2020-06-25T15:08:23Z</time>
      </trkpt>
      <trkpt lat="49.66538" lon="5.03951">
        <ele>156</ele>
        <time>2020-06-25T15:08:24Z</time>
      </trkpt>
      <trkpt lat="49.6654" lon="5.03958">
        <ele>156</ele>
        <time>2020-06-25T15:08:25Z</time>
      </trkpt>
      <trkpt lat="49.66541" lon="5.03967">
        <ele>156</ele>
        <time>2020-06-25T15:08:26Z</time>
      </trkpt>
      <trkpt lat="49.66541" lon="5.03976">
        <ele>156</ele>
        <time>2020-06-25T15:08:27Z</time>
      </trkpt>
      <trkpt lat="49.66542" lon="5.03986">
        <ele>156</ele>
        <time>2020-06-25T15:08:28Z</time>
      </trkpt>
      <trkpt lat="49.66542" lon="5.03995">
        <ele>156</ele>
        <time>2020-06-25T15:08:29Z</time>
      </trkpt>
      <trkpt lat="49.66543" lon="5.04004">
        <ele>156</ele>
        <time>2020-06-25T15:08:30Z</time>
      </trkpt>
      <trkpt lat="49.66544" lon="5.04016">
        <ele>156</ele>
        <time>2020-06-25T15:08:31Z</time>
      </trkpt>
      <trkpt lat="49.66545" lon="5.04025">
        <ele>156</ele>
        <time>2020-06-25T15:08:32Z</time>
      </trkpt>
      <trkpt lat="49.66545" lon="5.04035">
        <ele>156</ele>
        <time>2020-06-25T15:08:33Z</time>
      </trkpt>
      <trkpt lat="49.66545" lon="5.04043">
        <ele>156</ele>
        <time>2020-06-25T15:08:34Z</time>
      </trkpt>
      <trkpt lat="49.66546" lon="5.04051">
        <ele>156</ele>
        <time>2020-06-25T15:08:35Z</time>
      </trkpt>
      <trkpt lat="49.66546" lon="5.0406">
        <ele>156</ele>
        <time>2020-06-25T15:08:36Z</time>
      </trkpt>
      <trkpt lat="49.66545" lon="5.04068">
        <ele>156</ele>
        <time>2020-06-25T15:08:37Z</time>
      </trkpt>
      <trkpt lat="49.66546" lon="5.04076">
        <ele>156</ele>
        <time>2020-06-25T15:08:38Z</time>
      </trkpt>
      <trkpt lat="49.66546" lon="5.04083">
        <ele>156</ele>
        <time>2020-06-25T15:08:39Z</time>
      </trkpt>
      <trkpt lat="49.66547" lon="5.04093">
        <ele>156.1</ele>
        <time>2020-06-25T15:08:40Z</time>
      </trkpt>
      <trkpt lat="49.66548" lon="5.04104">
        <ele>156.2</ele>
        <time>2020-06-25T15:08:41Z</time>
      </trkpt>
      <trkpt lat="49.66548" lon="5.04114">
        <ele>156.2</ele>
        <time>2020-06-25T15:08:42Z</time>
      </trkpt>
      <trkpt lat="49.66548" lon="5.04123">
        <ele>156.3</ele>
        <time>2020-06-25T15:08:43Z</time>
      </trkpt>
      <trkpt lat="49.66548" lon="5.04131">
        <ele>156.3</ele>
        <time>2020-06-25T15:08:44Z</time>
      </trkpt>
      <trkpt lat="49.66547" lon="5.0414">
        <ele>156.3</ele>
        <time>2020-06-25T15:08:45Z</time>
      </trkpt>
      <trkpt lat="49.66546" lon="5.0415">
        <ele>156.3</ele>
        <time>2020-06-25T15:08:46Z</time>
      </trkpt>
      <trkpt lat="49.66546" lon="5.04159">
        <ele>156.3</ele>
        <time>2020-06-25T15:08:47Z</time>
      </trkpt>
      <trkpt lat="49.66546" lon="5.04169">
        <ele>156.3</ele>
        <time>2020-06-25T15:08:48Z</time>
      </trkpt>
      <trkpt lat="49.66545" lon="5.04178">
        <ele>156.3</ele>
        <time>2020-06-25T15:08:49Z</time>
      </trkpt>
      <trkpt lat="49.66545" lon="5.04187">
        <ele>156.3</ele>
        <time>2020-06-25T15:08:50Z</time>
      </trkpt>
      <trkpt lat="49.66545" lon="5.04196">
        <ele>156.3</ele>
        <time>2020-06-25T15:08:51Z</time>
      </trkpt>
      <trkpt lat="49.66543" lon="5.04205">
        <ele>156.4</ele>
        <time>2020-06-25T15:08:52Z</time>
      </trkpt>
      <trkpt lat="49.66543" lon="5.04214">
        <ele>156.4</ele>
        <time>2020-06-25T15:08:53Z</time>
      </trkpt>
      <trkpt lat="49.66543" lon="5.04222">
        <ele>156.4</ele>
        <time>2020-06-25T15:08:54Z</time>
      </trkpt>
      <trkpt lat="49.66544" lon="5.0423">
        <ele>156.5</ele>
        <time>2020-06-25T15:08:55Z</time>
      </trkpt>
      <trkpt lat="49.66543" lon="5.04238">
        <ele>156.4</ele>
        <time>2020-06-25T15:08:56Z</time>
      </trkpt>
      <trkpt lat="49.66543" lon="5.04246">
        <ele>156.4</ele>
        <time>2020-06-25T15:08:57Z</time>
      </trkpt>
      <trkpt lat="49.66543" lon="5.04254">
        <ele>156.4</ele>
        <time>2020-06-25T15:08:58Z</time>
      </trkpt>
      <trkpt lat="49.66543" lon="5.04262">
        <ele>156.4</ele>
        <time>2020-06-25T15:08:59Z</time>
      </trkpt>
      <trkpt lat="49.66543" lon="5.04269">
        <ele>156.4</ele>
        <time>2020-06-25T15:09:00Z</time>
      </trkpt>
      <trkpt lat="49.66543" lon="5.04277">
        <ele>156.4</ele>
        <time>2020-06-25T15:09:01Z</time>
      </trkpt>
      <trkpt lat="49.66543" lon="5.04285">
        <ele>156.4</ele>
        <time>2020-06-25T15:09:02Z</time>
      </trkpt>
      <trkpt lat="49.66543" lon="5.04294">
        <ele>156.4</ele>
        <time>2020-06-25T15:09:03Z</time>
      </trkpt>
      <trkpt lat="49.66544" lon="5.04303">
        <ele>156.4</ele>
        <time>2020-06-25T15:09:04Z</time>
      </trkpt>
      <trkpt lat="49.66544" lon="5.04311">
        <ele>156.4</ele>
        <time>2020-06-25T15:09:05Z</time>
      </trkpt>
      <trkpt lat="49.66545" lon="5.04319">
        <ele>156.4</ele>
        <time>2020-06-25T15:09:06Z</time>
      </trkpt>
      <trkpt lat="49.66545" lon="5.04328">
        <ele>156.4</ele>
        <time>2020-06-25T15:09:07Z</time>
      </trkpt>
      <trkpt lat="49.66545" lon="5.04336">
        <ele>156.4</ele>
        <time>2020-06-25T15:09:08Z</time>
      </trkpt>
      <trkpt lat="49.66545" lon="5.04344">
        <ele>156.5</ele>
        <time>2020-06-25T15:09:09Z</time>
      </trkpt>
      <trkpt lat="49.66546" lon="5.04352">
        <ele>156.5</ele>
        <time>2020-06-25T15:09:10Z</time>
      </trkpt>
      <trkpt lat="49.66547" lon="5.04359">
        <ele>156.6</ele>
        <time>2020-06-25T15:09:11Z</time>
      </trkpt>
      <trkpt lat="49.66547" lon="5.04367">
        <ele>156.6</ele>
        <time>2020-06-25T15:09:12Z</time>
      </trkpt>
      <trkpt lat="49.66546" lon="5.04375">
        <ele>156.7</ele>
        <time>2020-06-25T15:09:13Z</time>
      </trkpt>
      <trkpt lat="49.66546" lon="5.04382">
        <ele>156.7</ele>
        <time>2020-06-25T15:09:14Z</time>
      </trkpt>
      <trkpt lat="49.66546" lon="5.04389">
        <ele>156.8</ele>
        <time>2020-06-25T15:09:15Z</time>
      </trkpt>
      <trkpt lat="49.66544" lon="5.04398">
        <ele>156.8</ele>
        <time>2020-06-25T15:09:16Z</time>
      </trkpt>
      <trkpt lat="49.66544" lon="5.04405">
        <ele>156.9</ele>
        <time>2020-06-25T15:09:17Z</time>
      </trkpt>
      <trkpt lat="49.66545" lon="5.04413">
        <ele>157</ele>
        <time>2020-06-25T15:09:18Z</time>
      </trkpt>
      <trkpt lat="49.66544" lon="5.04421">
        <ele>157.1</ele>
        <time>2020-06-25T15:09:19Z</time>
      </trkpt>
      <trkpt lat="49.66545" lon="5.04429">
        <ele>157.1</ele>
        <time>2020-06-25T15:09:20Z</time>
      </trkpt>
      <trkpt lat="49.66545" lon="5.04437">
        <ele>157.2</ele>
        <time>2020-06-25T15:09:21Z</time>
      </trkpt>
      <trkpt lat="49.66545" lon="5.04446">
        <ele>157.3</ele>
        <time>2020-06-25T15:09:22Z</time>
      </trkpt>
      <trkpt lat="49.66544" lon="5.04452">
        <ele>157.4</ele>
        <time>2020-06-25T15:09:23Z</time>
      </trkpt>
      <trkpt lat="49.66543" lon="5.04458">
        <ele>157.5</ele>
        <time>2020-06-25T15:09:24Z</time>
      </trkpt>
      <trkpt lat="49.66543" lon="5.04464">
        <ele>157.6</ele>
        <time>2020-06-25T15:09:25Z</time>
      </trkpt>
      <trkpt lat="49.66543" lon="5.04469">
        <ele>157.6</ele>
        <time>2020-06-25T15:09:26Z</time>
      </trkpt>
      <trkpt lat="49.66542" lon="5.04474">
        <ele>157.7</ele>
        <time>2020-06-25T15:09:27Z</time>
      </trkpt>
      <trkpt lat="49.66542" lon="5.04479">
        <ele>157.7</ele>
        <time>2020-06-25T15:09:28Z</time>
      </trkpt>
      <trkpt lat="49.66543" lon="5.04484">
        <ele>157.8</ele>
        <time>2020-06-25T15:09:29Z</time>
      </trkpt>
      <trkpt lat="49.66543" lon="5.04485">
        <ele>157.8</ele>
        <time>2020-06-25T15:09:30Z</time>
      </trkpt>
      <trkpt lat="49.66543" lon="5.04486">
        <ele>157.8</ele>
        <time>2020-06-25T15:09:31Z</time>
      </trkpt>
      <trkpt lat="49.66543" lon="5.04486">
        <ele>157.8</ele>
        <time>2020-06-25T15:09:32Z</time>
      </trkpt>
      <trkpt lat="49.66542" lon="5.04488">
        <ele>157.8</ele>
        <time>2020-06-25T15:09:33Z</time>
      </trkpt>
      <trkpt lat="49.66542" lon="5.04489">
        <ele>157.8</ele>
        <time>2020-06-25T15:09:34Z</time>
      </trkpt>
      <trkpt lat="49.66543" lon="5.04489">
        <ele>157.8</ele>
        <time>2020-06-25T15:09:35Z</time>
      </trkpt>
      <trkpt lat="49.66543" lon="5.0449">
        <ele>157.8</ele>
        <time>2020-06-25T15:09:36Z</time>
      </trkpt>
      <trkpt lat="49.66544" lon="5.0449">
        <ele>157.8</ele>
        <time>2020-06-25T15:09:37Z</time>
      </trkpt>
      <trkpt lat="49.66544" lon="5.0449">
        <ele>157.8</ele>
        <time>2020-06-25T15:09:38Z</time>
      </trkpt>
      <trkpt lat="49.66545" lon="5.0449">
        <ele>157.8</ele>
        <time>2020-06-25T15:09:39Z</time>
      </trkpt>
      <trkpt lat="49.66545" lon="5.04491">
        <ele>157.8</ele>
        <time>2020-06-25T15:09:40Z</time>
      </trkpt>
      <trkpt lat="49.66546" lon="5.04491">
        <ele>157.8</ele>
        <time>2020-06-25T15:09:41Z</time>
      </trkpt>
      <trkpt lat="49.66546" lon="5.04491">
        <ele>157.9</ele>
        <time>2020-06-25T15:09:42Z</time>
      </trkpt>
      <trkpt lat="49.66547" lon="5.04493">
        <ele>157.9</ele>
        <time>2020-06-25T15:09:43Z</time>
      </trkpt>
      <trkpt lat="49.66549" lon="5.04494">
        <ele>157.9</ele>
        <time>2020-06-25T15:09:44Z</time>
      </trkpt>
      <trkpt lat="49.66553" lon="5.04494">
        <ele>157.9</ele>
        <time>2020-06-25T15:09:45Z</time>
      </trkpt>
      <trkpt lat="49.66554" lon="5.04494">
        <ele>157.9</ele>
        <time>2020-06-25T15:09:46Z</time>
      </trkpt>
      <trkpt lat="49.66559" lon="5.04492">
        <ele>157.9</ele>
        <time>2020-06-25T15:09:47Z</time>
      </trkpt>
      <trkpt lat="49.66563" lon="5.04491">
        <ele>157.9</ele>
        <time>2020-06-25T15:09:48Z</time>
      </trkpt>
      <trkpt lat="49.66567" lon="5.04491">
        <ele>157.9</ele>
        <time>2020-06-25T15:09:49Z</time>
      </trkpt>
      <trkpt lat="49.66571" lon="5.04489">
        <ele>157.9</ele>
        <time>2020-06-25T15:09:50Z</time>
      </trkpt>
      <trkpt lat="49.66574" lon="5.04486">
        <ele>157.9</ele>
        <time>2020-06-25T15:09:51Z</time>
      </trkpt>
      <trkpt lat="49.66578" lon="5.04485">
        <ele>157.9</ele>
        <time>2020-06-25T15:09:52Z</time>
      </trkpt>
      <trkpt lat="49.66582" lon="5.04484">
        <ele>157.9</ele>
        <time>2020-06-25T15:09:53Z</time>
      </trkpt>
      <trkpt lat="49.66586" lon="5.04482">
        <ele>157.9</ele>
        <time>2020-06-25T15:09:54Z</time>
      </trkpt>
      <trkpt lat="49.6659" lon="5.0448">
        <ele>157.9</ele>
        <time>2020-06-25T15:09:55Z</time>
      </trkpt>
      <trkpt lat="49.66595" lon="5.04478">
        <ele>157.9</ele>
        <time>2020-06-25T15:09:56Z</time>
      </trkpt>
      <trkpt lat="49.66599" lon="5.04476">
        <ele>157.9</ele>
        <time>2020-06-25T15:09:57Z</time>
      </trkpt>
      <trkpt lat="49.66603" lon="5.04475">
        <ele>157.9</ele>
        <time>2020-06-25T15:09:58Z</time>
      </trkpt>
      <trkpt lat="49.66609" lon="5.04474">
        <ele>157.9</ele>
        <time>2020-06-25T15:09:59Z</time>
      </trkpt>
      <trkpt lat="49.66615" lon="5.04472">
        <ele>157.8</ele>
        <time>2020-06-25T15:10:00Z</time>
      </trkpt>
      <trkpt lat="49.66621" lon="5.04471">
        <ele>157.8</ele>
        <time>2020-06-25T15:10:01Z</time>
      </trkpt>
      <trkpt lat="49.66626" lon="5.04469">
        <ele>157.7</ele>
        <time>2020-06-25T15:10:02Z</time>
      </trkpt>
      <trkpt lat="49.6663" lon="5.04467">
        <ele>157.7</ele>
        <time>2020-06-25T15:10:03Z</time>
      </trkpt>
      <trkpt lat="49.66635" lon="5.04466">
        <ele>157.7</ele>
        <time>2020-06-25T15:10:04Z</time>
      </trkpt>
      <trkpt lat="49.66641" lon="5.04464">
        <ele>157.7</ele>
        <time>2020-06-25T15:10:05Z</time>
      </trkpt>
      <trkpt lat="49.66646" lon="5.04462">
        <ele>157.7</ele>
        <time>2020-06-25T15:10:06Z</time>
      </trkpt>
      <trkpt lat="49.66652" lon="5.0446">
        <ele>157.7</ele>
        <time>2020-06-25T15:10:07Z</time>
      </trkpt>
      <trkpt lat="49.66658" lon="5.04457">
        <ele>157.6</ele>
        <time>2020-06-25T15:10:08Z</time>
      </trkpt>
      <trkpt lat="49.66663" lon="5.04455">
        <ele>157.6</ele>
        <time>2020-06-25T15:10:09Z</time>
      </trkpt>
      <trkpt lat="49.66668" lon="5.04453">
        <ele>157.6</ele>
        <time>2020-06-25T15:10:10Z</time>
      </trkpt>
      <trkpt lat="49.66674" lon="5.04451">
        <ele>157.6</ele>
        <time>2020-06-25T15:10:11Z</time>
      </trkpt>
      <trkpt lat="49.66679" lon="5.0445">
        <ele>157.5</ele>
        <time>2020-06-25T15:10:12Z</time>
      </trkpt>
      <trkpt lat="49.66686" lon="5.04449">
        <ele>157.5</ele>
        <time>2020-06-25T15:10:13Z</time>
      </trkpt>
      <trkpt lat="49.66689" lon="5.04446">
        <ele>157.5</ele>
        <time>2020-06-25T15:10:14Z</time>
      </trkpt>
      <trkpt lat="49.66693" lon="5.04445">
        <ele>157.5</ele>
        <time>2020-06-25T15:10:15Z</time>
      </trkpt>
      <trkpt lat="49.66696" lon="5.04444">
        <ele>157.5</ele>
        <time>2020-06-25T15:10:16Z</time>
      </trkpt>
      <trkpt lat="49.66701" lon="5.04441">
        <ele>157.5</ele>
        <time>2020-06-25T15:10:17Z</time>
      </trkpt>
      <trkpt lat="49.66706" lon="5.04441">
        <ele>157.5</ele>
        <time>2020-06-25T15:10:18Z</time>
      </trkpt>
      <trkpt lat="49.66711" lon="5.0444">
        <ele>157.5</ele>
        <time>2020-06-25T15:10:19Z</time>
      </trkpt>
      <trkpt lat="49.66716" lon="5.04437">
        <ele>157.5</ele>
        <time>2020-06-25T15:10:20Z</time>
      </trkpt>
      <trkpt lat="49.6672" lon="5.04435">
        <ele>157.5</ele>
        <time>2020-06-25T15:10:21Z</time>
      </trkpt>
      <trkpt lat="49.66725" lon="5.04433">
        <ele>157.5</ele>
        <time>2020-06-25T15:10:22Z</time>
      </trkpt>
      <trkpt lat="49.6673" lon="5.04432">
        <ele>157.4</ele>
        <time>2020-06-25T15:10:23Z</time>
      </trkpt>
      <trkpt lat="49.66734" lon="5.04431">
        <ele>157.4</ele>
        <time>2020-06-25T15:10:24Z</time>
      </trkpt>
      <trkpt lat="49.66739" lon="5.04429">
        <ele>157.3</ele>
        <time>2020-06-25T15:10:25Z</time>
      </trkpt>
      <trkpt lat="49.66743" lon="5.04427">
        <ele>157.3</ele>
        <time>2020-06-25T15:10:26Z</time>
      </trkpt>
      <trkpt lat="49.66748" lon="5.04426">
        <ele>157.2</ele>
        <time>2020-06-25T15:10:27Z</time>
      </trkpt>
      <trkpt lat="49.66753" lon="5.04423">
        <ele>157.2</ele>
        <time>2020-06-25T15:10:28Z</time>
      </trkpt>
      <trkpt lat="49.66758" lon="5.04421">
        <ele>157.1</ele>
        <time>2020-06-25T15:10:29Z</time>
      </trkpt>
      <trkpt lat="49.66762" lon="5.0442">
        <ele>157</ele>
        <time>2020-06-25T15:10:30Z</time>
      </trkpt>
      <trkpt lat="49.66767" lon="5.04418">
        <ele>157</ele>
        <time>2020-06-25T15:10:31Z</time>
      </trkpt>
      <trkpt lat="49.66771" lon="5.04415">
        <ele>156.9</ele>
        <time>2020-06-25T15:10:32Z</time>
      </trkpt>
      <trkpt lat="49.66776" lon="5.04414">
        <ele>156.9</ele>
        <time>2020-06-25T15:10:33Z</time>
      </trkpt>
      <trkpt lat="49.6678" lon="5.04412">
        <ele>156.8</ele>
        <time>2020-06-25T15:10:34Z</time>
      </trkpt>
      <trkpt lat="49.66787" lon="5.04413">
        <ele>156.7</ele>
        <time>2020-06-25T15:10:35Z</time>
      </trkpt>
      <trkpt lat="49.66793" lon="5.04411">
        <ele>156.7</ele>
        <time>2020-06-25T15:10:36Z</time>
      </trkpt>
      <trkpt lat="49.66799" lon="5.04408">
        <ele>156.6</ele>
        <time>2020-06-25T15:10:37Z</time>
      </trkpt>
      <trkpt lat="49.66805" lon="5.04404">
        <ele>156.6</ele>
        <time>2020-06-25T15:10:38Z</time>
      </trkpt>
      <trkpt lat="49.66811" lon="5.044">
        <ele>156.5</ele>
        <time>2020-06-25T15:10:39Z</time>
      </trkpt>
      <trkpt lat="49.66816" lon="5.04397">
        <ele>156.5</ele>
        <time>2020-06-25T15:10:40Z</time>
      </trkpt>
      <trkpt lat="49.66821" lon="5.04394">
        <ele>156.5</ele>
        <time>2020-06-25T15:10:41Z</time>
      </trkpt>
      <trkpt lat="49.66827" lon="5.04392">
        <ele>156.6</ele>
        <time>2020-06-25T15:10:42Z</time>
      </trkpt>
      <trkpt lat="49.66833" lon="5.0439">
        <ele>156.7</ele>
        <time>2020-06-25T15:10:43Z</time>
      </trkpt>
      <trkpt lat="49.66839" lon="5.04389">
        <ele>156.8</ele>
        <time>2020-06-25T15:10:44Z</time>
      </trkpt>
      <trkpt lat="49.66845" lon="5.04388">
        <ele>156.9</ele>
        <time>2020-06-25T15:10:45Z</time>
      </trkpt>
      <trkpt lat="49.66851" lon="5.04385">
        <ele>157</ele>
        <time>2020-06-25T15:10:46Z</time>
      </trkpt>
      <trkpt lat="49.66856" lon="5.04383">
        <ele>157.1</ele>
        <time>2020-06-25T15:10:47Z</time>
      </trkpt>
      <trkpt lat="49.66859" lon="5.04381">
        <ele>157.2</ele>
        <time>2020-06-25T15:10:48Z</time>
      </trkpt>
      <trkpt lat="49.66864" lon="5.04378">
        <ele>157.3</ele>
        <time>2020-06-25T15:10:49Z</time>
      </trkpt>
      <trkpt lat="49.66868" lon="5.04376">
        <ele>157.4</ele>
        <time>2020-06-25T15:10:50Z</time>
      </trkpt>
      <trkpt lat="49.66873" lon="5.04375">
        <ele>157.4</ele>
        <time>2020-06-25T15:10:51Z</time>
      </trkpt>
      <trkpt lat="49.66877" lon="5.04375">
        <ele>157.5</ele>
        <time>2020-06-25T15:10:52Z</time>
      </trkpt>
      <trkpt lat="49.66881" lon="5.04374">
        <ele>157.5</ele>
        <time>2020-06-25T15:10:53Z</time>
      </trkpt>
      <trkpt lat="49.66885" lon="5.04373">
        <ele>157.6</ele>
        <time>2020-06-25T15:10:54Z</time>
      </trkpt>
      <trkpt lat="49.66888" lon="5.04371">
        <ele>157.7</ele>
        <time>2020-06-25T15:10:55Z</time>
      </trkpt>
      <trkpt lat="49.66889" lon="5.0437">
        <ele>157.8</ele>
        <time>2020-06-25T15:10:56Z</time>
      </trkpt>
      <trkpt lat="49.66892" lon="5.04367">
        <ele>157.9</ele>
        <time>2020-06-25T15:10:57Z</time>
      </trkpt>
      <trkpt lat="49.66893" lon="5.04366">
        <ele>157.9</ele>
        <time>2020-06-25T15:10:58Z</time>
      </trkpt>
      <trkpt lat="49.66897" lon="5.04365">
        <ele>158.1</ele>
        <time>2020-06-25T15:10:59Z</time>
      </trkpt>
      <trkpt lat="49.66898" lon="5.04365">
        <ele>158.1</ele>
        <time>2020-06-25T15:11:00Z</time>
      </trkpt>
      <trkpt lat="49.66901" lon="5.04364">
        <ele>158.2</ele>
        <time>2020-06-25T15:11:01Z</time>
      </trkpt>
      <trkpt lat="49.66904" lon="5.04362">
        <ele>158.3</ele>
        <time>2020-06-25T15:11:02Z</time>
      </trkpt>
      <trkpt lat="49.66908" lon="5.04361">
        <ele>158.5</ele>
        <time>2020-06-25T15:11:03Z</time>
      </trkpt>
      <trkpt lat="49.66909" lon="5.0436">
        <ele>158.5</ele>
        <time>2020-06-25T15:11:04Z</time>
      </trkpt>
      <trkpt lat="49.66912" lon="5.04358">
        <ele>158.6</ele>
        <time>2020-06-25T15:11:05Z</time>
      </trkpt>
      <trkpt lat="49.66913" lon="5.04357">
        <ele>158.7</ele>
        <time>2020-06-25T15:11:06Z</time>
      </trkpt>
      <trkpt lat="49.66915" lon="5.04356">
        <ele>158.7</ele>
        <time>2020-06-25T15:11:07Z</time>
      </trkpt>
      <trkpt lat="49.66915" lon="5.04356">
        <ele>158.7</ele>
        <time>2020-06-25T15:11:08Z</time>
      </trkpt>
      <trkpt lat="49.66915" lon="5.04356">
        <ele>158.8</ele>
        <time>2020-06-25T15:11:09Z</time>
      </trkpt>
      <trkpt lat="49.66915" lon="5.04356">
        <ele>158.8</ele>
        <time>2020-06-25T15:11:10Z</time>
      </trkpt>
      <trkpt lat="49.66916" lon="5.04356">
        <ele>158.8</ele>
        <time>2020-06-25T15:11:11Z</time>
      </trkpt>
      <trkpt lat="49.66914" lon="5.04356">
        <ele>158.8</ele>
        <time>2020-06-25T15:11:12Z</time>
      </trkpt>
      <trkpt lat="49.66914" lon="5.04356">
        <ele>158.8</ele>
        <time>2020-06-25T15:11:13Z</time>
      </trkpt>
      <trkpt lat="49.66915" lon="5.04356">
        <ele>158.8</ele>
        <time>2020-06-25T15:11:14Z</time>
      </trkpt>
      <trkpt lat="49.66915" lon="5.04355">
        <ele>158.9</ele>
        <time>2020-06-25T15:11:15Z</time>
      </trkpt>
      <trkpt lat="49.66916" lon="5.04355">
        <ele>158.9</ele>
        <time>2020-06-25T15:11:16Z</time>
      </trkpt>
      <trkpt lat="49.66917" lon="5.04354">
        <ele>158.9</ele>
        <time>2020-06-25T15:11:17Z</time>
      </trkpt>
      <trkpt lat="49.66917" lon="5.04353">
        <ele>159</ele>
        <time>2020-06-25T15:11:18Z</time>
      </trkpt>
      <trkpt lat="49.66918" lon="5.04353">
        <ele>159</ele>
        <time>2020-06-25T15:11:19Z</time>
      </trkpt>
      <trkpt lat="49.66916" lon="5.04356">
        <ele>159.1</ele>
        <time>2020-06-25T15:11:20Z</time>
      </trkpt>
      <trkpt lat="49.66915" lon="5.04358">
        <ele>159.1</ele>
        <time>2020-06-25T15:11:21Z</time>
      </trkpt>
      <trkpt lat="49.66916" lon="5.04358">
        <ele>159.1</ele>
        <time>2020-06-25T15:11:22Z</time>
      </trkpt>
      <trkpt lat="49.66916" lon="5.04359">
        <ele>159.2</ele>
        <time>2020-06-25T15:11:23Z</time>
      </trkpt>
      <trkpt lat="49.66917" lon="5.04359">
        <ele>159.2</ele>
        <time>2020-06-25T15:11:24Z</time>
      </trkpt>
      <trkpt lat="49.66918" lon="5.04358">
        <ele>159.2</ele>
        <time>2020-06-25T15:11:25Z</time>
      </trkpt>
      <trkpt lat="49.66919" lon="5.04357">
        <ele>159.2</ele>
        <time>2020-06-25T15:11:26Z</time>
      </trkpt>
      <trkpt lat="49.6692" lon="5.04357">
        <ele>159.3</ele>
        <time>2020-06-25T15:11:27Z</time>
      </trkpt>
      <trkpt lat="49.66921" lon="5.04357">
        <ele>159.3</ele>
        <time>2020-06-25T15:11:28Z</time>
      </trkpt>
      <trkpt lat="49.66922" lon="5.04356">
        <ele>159.3</ele>
        <time>2020-06-25T15:11:29Z</time>
      </trkpt>
      <trkpt lat="49.66922" lon="5.04356">
        <ele>159.3</ele>
        <time>2020-06-25T15:11:30Z</time>
      </trkpt>
      <trkpt lat="49.66922" lon="5.04356">
        <ele>159.3</ele>
        <time>2020-06-25T15:11:31Z</time>
      </trkpt>
      <trkpt lat="49.66923" lon="5.04356">
        <ele>159.3</ele>
        <time>2020-06-25T15:11:32Z</time>
      </trkpt>
      <trkpt lat="49.66923" lon="5.04356">
        <ele>159.4</ele>
        <time>2020-06-25T15:11:33Z</time>
      </trkpt>
      <trkpt lat="49.66923" lon="5.04356">
        <ele>159.4</ele>
        <time>2020-06-25T15:11:34Z</time>
      </trkpt>
      <trkpt lat="49.66924" lon="5.04356">
        <ele>159.4</ele>
        <time>2020-06-25T15:11:35Z</time>
      </trkpt>
      <trkpt lat="49.66924" lon="5.04355">
        <ele>159.4</ele>
        <time>2020-06-25T15:11:36Z</time>
      </trkpt>
      <trkpt lat="49.66924" lon="5.04355">
        <ele>159.4</ele>
        <time>2020-06-25T15:11:37Z</time>
      </trkpt>
      <trkpt lat="49.66925" lon="5.04354">
        <ele>159.4</ele>
        <time>2020-06-25T15:11:38Z</time>
      </trkpt>
      <trkpt lat="49.66925" lon="5.04354">
        <ele>159.4</ele>
        <time>2020-06-25T15:11:39Z</time>
      </trkpt>
      <trkpt lat="49.66926" lon="5.04354">
        <ele>159.5</ele>
        <time>2020-06-25T15:11:40Z</time>
      </trkpt>
      <trkpt lat="49.66929" lon="5.0435">
        <ele>159.6</ele>
        <time>2020-06-25T15:11:41Z</time>
      </trkpt>
      <trkpt lat="49.66931" lon="5.04346">
        <ele>159.6</ele>
        <time>2020-06-25T15:11:42Z</time>
      </trkpt>
      <trkpt lat="49.66933" lon="5.04341">
        <ele>159.7</ele>
        <time>2020-06-25T15:29:33Z</time>
      </trkpt>
      <trkpt lat="49.66934" lon="5.04337">
        <ele>159.8</ele>
        <time>2020-06-25T15:29:34Z</time>
      </trkpt>
      <trkpt lat="49.66938" lon="5.04334">
        <ele>160</ele>
        <time>2020-06-25T15:29:35Z</time>
      </trkpt>
      <trkpt lat="49.66939" lon="5.04333">
        <ele>160</ele>
        <time>2020-06-25T15:29:36Z</time>
      </trkpt>
      <trkpt lat="49.66942" lon="5.0433">
        <ele>160.1</ele>
        <time>2020-06-25T15:29:37Z</time>
      </trkpt>
      <trkpt lat="49.66943" lon="5.04329">
        <ele>160.1</ele>
        <time>2020-06-25T15:29:38Z</time>
      </trkpt>
      <trkpt lat="49.66945" lon="5.04326">
        <ele>160.2</ele>
        <time>2020-06-25T15:29:39Z</time>
      </trkpt>
      <trkpt lat="49.66948" lon="5.04324">
        <ele>160.3</ele>
        <time>2020-06-25T15:29:40Z</time>
      </trkpt>
      <trkpt lat="49.6695" lon="5.04321">
        <ele>160.4</ele>
        <time>2020-06-25T15:29:41Z</time>
      </trkpt>
      <trkpt lat="49.66953" lon="5.04317">
        <ele>160.5</ele>
        <time>2020-06-25T15:29:42Z</time>
      </trkpt>
      <trkpt lat="49.66955" lon="5.04314">
        <ele>160.6</ele>
        <time>2020-06-25T15:29:43Z</time>
      </trkpt>
      <trkpt lat="49.66958" lon="5.04311">
        <ele>160.7</ele>
        <time>2020-06-25T15:29:44Z</time>
      </trkpt>
      <trkpt lat="49.66962" lon="5.04307">
        <ele>160.8</ele>
        <time>2020-06-25T15:29:45Z</time>
      </trkpt>
      <trkpt lat="49.66963" lon="5.04306">
        <ele>160.8</ele>
        <time>2020-06-25T15:29:46Z</time>
      </trkpt>
      <trkpt lat="49.66966" lon="5.04302">
        <ele>160.9</ele>
        <time>2020-06-25T15:29:47Z</time>
      </trkpt>
      <trkpt lat="49.66969" lon="5.04301">
        <ele>160.9</ele>
        <time>2020-06-25T15:29:48Z</time>
      </trkpt>
      <trkpt lat="49.66973" lon="5.04298">
        <ele>161</ele>
        <time>2020-06-25T15:29:49Z</time>
      </trkpt>
      <trkpt lat="49.66975" lon="5.04297">
        <ele>161</ele>
        <time>2020-06-25T15:29:50Z</time>
      </trkpt>
      <trkpt lat="49.66978" lon="5.04295">
        <ele>161</ele>
        <time>2020-06-25T15:29:51Z</time>
      </trkpt>
      <trkpt lat="49.66981" lon="5.04293">
        <ele>161.2</ele>
        <time>2020-06-25T15:29:52Z</time>
      </trkpt>
      <trkpt lat="49.66983" lon="5.0429">
        <ele>161.3</ele>
        <time>2020-06-25T15:29:53Z</time>
      </trkpt>
      <trkpt lat="49.66986" lon="5.04288">
        <ele>161.4</ele>
        <time>2020-06-25T15:29:54Z</time>
      </trkpt>
      <trkpt lat="49.66989" lon="5.04286">
        <ele>161.5</ele>
        <time>2020-06-25T15:29:55Z</time>
      </trkpt>
      <trkpt lat="49.66993" lon="5.04285">
        <ele>161.6</ele>
        <time>2020-06-25T15:29:56Z</time>
      </trkpt>
      <trkpt lat="49.66996" lon="5.04284">
        <ele>161.7</ele>
        <time>2020-06-25T15:29:57Z</time>
      </trkpt>
      <trkpt lat="49.66999" lon="5.04283">
        <ele>161.8</ele>
        <time>2020-06-25T15:29:58Z</time>
      </trkpt>
      <trkpt lat="49.67002" lon="5.04282">
        <ele>161.9</ele>
        <time>2020-06-25T15:29:59Z</time>
      </trkpt>
      <trkpt lat="49.67004" lon="5.04281">
        <ele>161.9</ele>
        <time>2020-06-25T15:30:00Z</time>
      </trkpt>
      <trkpt lat="49.67007" lon="5.0428">
        <ele>162</ele>
        <time>2020-06-25T15:30:01Z</time>
      </trkpt>
      <trkpt lat="49.6701" lon="5.04281">
        <ele>162.1</ele>
        <time>2020-06-25T15:30:02Z</time>
      </trkpt>
      <trkpt lat="49.67014" lon="5.0428">
        <ele>162.2</ele>
        <time>2020-06-25T15:30:03Z</time>
      </trkpt>
      <trkpt lat="49.67015" lon="5.04281">
        <ele>162.2</ele>
        <time>2020-06-25T15:30:04Z</time>
      </trkpt>
      <trkpt lat="49.67019" lon="5.04279">
        <ele>162.3</ele>
        <time>2020-06-25T15:30:05Z</time>
      </trkpt>
      <trkpt lat="49.6702" lon="5.04279">
        <ele>162.3</ele>
        <time>2020-06-25T15:30:06Z</time>
      </trkpt>
      <trkpt lat="49.67024" lon="5.04279">
        <ele>162.4</ele>
        <time>2020-06-25T15:30:07Z</time>
      </trkpt>
      <trkpt lat="49.67025" lon="5.04278">
        <ele>162.4</ele>
        <time>2020-06-25T15:30:08Z</time>
      </trkpt>
      <trkpt lat="49.6703" lon="5.04278">
        <ele>162.6</ele>
        <time>2020-06-25T15:30:09Z</time>
      </trkpt>
      <trkpt lat="49.67031" lon="5.04279">
        <ele>162.6</ele>
        <time>2020-06-25T15:30:10Z</time>
      </trkpt>
      <trkpt lat="49.67034" lon="5.04281">
        <ele>162.7</ele>
        <time>2020-06-25T15:30:11Z</time>
      </trkpt>
      <trkpt lat="49.67034" lon="5.04283">
        <ele>162.8</ele>
        <time>2020-06-25T15:30:12Z</time>
      </trkpt>
      <trkpt lat="49.67038" lon="5.04282">
        <ele>162.9</ele>
        <time>2020-06-25T15:30:13Z</time>
      </trkpt>
      <trkpt lat="49.6704" lon="5.04281">
        <ele>163</ele>
        <time>2020-06-25T15:30:14Z</time>
      </trkpt>
      <trkpt lat="49.67042" lon="5.04281">
        <ele>163.1</ele>
        <time>2020-06-25T15:30:15Z</time>
      </trkpt>
      <trkpt lat="49.67045" lon="5.04281">
        <ele>163.2</ele>
        <time>2020-06-25T15:30:16Z</time>
      </trkpt>
      <trkpt lat="49.67048" lon="5.04281">
        <ele>163.3</ele>
        <time>2020-06-25T15:30:17Z</time>
      </trkpt>
      <trkpt lat="49.67052" lon="5.0428">
        <ele>163.4</ele>
        <time>2020-06-25T15:30:18Z</time>
      </trkpt>
      <trkpt lat="49.67056" lon="5.04281">
        <ele>163.5</ele>
        <time>2020-06-25T15:30:19Z</time>
      </trkpt>
      <trkpt lat="49.67059" lon="5.04282">
        <ele>163.6</ele>
        <time>2020-06-25T15:30:20Z</time>
      </trkpt>
      <trkpt lat="49.67063" lon="5.04281">
        <ele>163.7</ele>
        <time>2020-06-25T15:30:21Z</time>
      </trkpt>
      <trkpt lat="49.67065" lon="5.04281">
        <ele>163.8</ele>
        <time>2020-06-25T15:30:22Z</time>
      </trkpt>
      <trkpt lat="49.67068" lon="5.04279">
        <ele>163.9</ele>
        <time>2020-06-25T15:30:23Z</time>
      </trkpt>
      <trkpt lat="49.67072" lon="5.04277">
        <ele>164</ele>
        <time>2020-06-25T15:30:24Z</time>
      </trkpt>
      <trkpt lat="49.67075" lon="5.04275">
        <ele>164</ele>
        <time>2020-06-25T15:30:25Z</time>
      </trkpt>
      <trkpt lat="49.67078" lon="5.04274">
        <ele>164.1</ele>
        <time>2020-06-25T15:30:26Z</time>
      </trkpt>
      <trkpt lat="49.67082" lon="5.04273">
        <ele>164.2</ele>
        <time>2020-06-25T15:30:27Z</time>
      </trkpt>
      <trkpt lat="49.67085" lon="5.04272">
        <ele>164.2</ele>
        <time>2020-06-25T15:30:28Z</time>
      </trkpt>
      <trkpt lat="49.6709" lon="5.04271">
        <ele>164.2</ele>
        <time>2020-06-25T15:30:29Z</time>
      </trkpt>
      <trkpt lat="49.67095" lon="5.04271">
        <ele>164.2</ele>
        <time>2020-06-25T15:30:30Z</time>
      </trkpt>
      <trkpt lat="49.67099" lon="5.04271">
        <ele>164.2</ele>
        <time>2020-06-25T15:30:31Z</time>
      </trkpt>
      <trkpt lat="49.67103" lon="5.04271">
        <ele>164.3</ele>
        <time>2020-06-25T15:30:32Z</time>
      </trkpt>
      <trkpt lat="49.67107" lon="5.04273">
        <ele>164.3</ele>
        <time>2020-06-25T15:30:33Z</time>
      </trkpt>
      <trkpt lat="49.67108" lon="5.04273">
        <ele>164.3</ele>
        <time>2020-06-25T15:30:34Z</time>
      </trkpt>
      <trkpt lat="49.67111" lon="5.04277">
        <ele>164.3</ele>
        <time>2020-06-25T15:30:35Z</time>
      </trkpt>
      <trkpt lat="49.67114" lon="5.0428">
        <ele>164.3</ele>
        <time>2020-06-25T15:30:36Z</time>
      </trkpt>
      <trkpt lat="49.67116" lon="5.04287">
        <ele>164.3</ele>
        <time>2020-06-25T15:30:37Z</time>
      </trkpt>
      <trkpt lat="49.67116" lon="5.04295">
        <ele>164.3</ele>
        <time>2020-06-25T15:30:38Z</time>
      </trkpt>
      <trkpt lat="49.67116" lon="5.04301">
        <ele>164.2</ele>
        <time>2020-06-25T15:30:39Z</time>
      </trkpt>
      <trkpt lat="49.67116" lon="5.04306">
        <ele>164.2</ele>
        <time>2020-06-25T15:30:40Z</time>
      </trkpt>
      <trkpt lat="49.67116" lon="5.04312">
        <ele>164.2</ele>
        <time>2020-06-25T15:30:41Z</time>
      </trkpt>
      <trkpt lat="49.67117" lon="5.04318">
        <ele>164.2</ele>
        <time>2020-06-25T15:30:42Z</time>
      </trkpt>
      <trkpt lat="49.67117" lon="5.04324">
        <ele>164.2</ele>
        <time>2020-06-25T15:30:43Z</time>
      </trkpt>
      <trkpt lat="49.67117" lon="5.0433">
        <ele>164.2</ele>
        <time>2020-06-25T15:30:44Z</time>
      </trkpt>
      <trkpt lat="49.67118" lon="5.04336">
        <ele>164.2</ele>
        <time>2020-06-25T15:30:45Z</time>
      </trkpt>
      <trkpt lat="49.67119" lon="5.04343">
        <ele>164.2</ele>
        <time>2020-06-25T15:30:46Z</time>
      </trkpt>
      <trkpt lat="49.67121" lon="5.04349">
        <ele>164.2</ele>
        <time>2020-06-25T15:30:47Z</time>
      </trkpt>
      <trkpt lat="49.67122" lon="5.04356">
        <ele>164.2</ele>
        <time>2020-06-25T15:30:48Z</time>
      </trkpt>
      <trkpt lat="49.67122" lon="5.04363">
        <ele>164.3</ele>
        <time>2020-06-25T15:30:49Z</time>
      </trkpt>
      <trkpt lat="49.67123" lon="5.04369">
        <ele>164.3</ele>
        <time>2020-06-25T15:30:50Z</time>
      </trkpt>
      <trkpt lat="49.67123" lon="5.04376">
        <ele>164.3</ele>
        <time>2020-06-25T15:30:51Z</time>
      </trkpt>
      <trkpt lat="49.67124" lon="5.04383">
        <ele>164.3</ele>
        <time>2020-06-25T15:30:52Z</time>
      </trkpt>
      <trkpt lat="49.67124" lon="5.0439">
        <ele>164.3</ele>
        <time>2020-06-25T15:30:53Z</time>
      </trkpt>
      <trkpt lat="49.67126" lon="5.04397">
        <ele>164.3</ele>
        <time>2020-06-25T15:30:54Z</time>
      </trkpt>
      <trkpt lat="49.67128" lon="5.04404">
        <ele>164.2</ele>
        <time>2020-06-25T15:30:55Z</time>
      </trkpt>
      <trkpt lat="49.67129" lon="5.04411">
        <ele>164.2</ele>
        <time>2020-06-25T15:30:56Z</time>
      </trkpt>
      <trkpt lat="49.6713" lon="5.04417">
        <ele>164.1</ele>
        <time>2020-06-25T15:30:57Z</time>
      </trkpt>
      <trkpt lat="49.67131" lon="5.04422">
        <ele>164.1</ele>
        <time>2020-06-25T15:30:58Z</time>
      </trkpt>
      <trkpt lat="49.67132" lon="5.04428">
        <ele>164</ele>
        <time>2020-06-25T15:30:59Z</time>
      </trkpt>
      <trkpt lat="49.67132" lon="5.04434">
        <ele>163.9</ele>
        <time>2020-06-25T15:31:00Z</time>
      </trkpt>
      <trkpt lat="49.67133" lon="5.04441">
        <ele>163.9</ele>
        <time>2020-06-25T15:31:01Z</time>
      </trkpt>
      <trkpt lat="49.67133" lon="5.04447">
        <ele>163.8</ele>
        <time>2020-06-25T15:31:02Z</time>
      </trkpt>
      <trkpt lat="49.67134" lon="5.04456">
        <ele>163.6</ele>
        <time>2020-06-25T15:31:03Z</time>
      </trkpt>
      <trkpt lat="49.67135" lon="5.04463">
        <ele>163.5</ele>
        <time>2020-06-25T15:31:04Z</time>
      </trkpt>
      <trkpt lat="49.67136" lon="5.04469">
        <ele>163.4</ele>
        <time>2020-06-25T15:31:05Z</time>
      </trkpt>
      <trkpt lat="49.67136" lon="5.04475">
        <ele>163.3</ele>
        <time>2020-06-25T15:31:06Z</time>
      </trkpt>
      <trkpt lat="49.67136" lon="5.04481">
        <ele>163.2</ele>
        <time>2020-06-25T15:31:07Z</time>
      </trkpt>
      <trkpt lat="49.67137" lon="5.04487">
        <ele>163.1</ele>
        <time>2020-06-25T15:31:08Z</time>
      </trkpt>
      <trkpt lat="49.67137" lon="5.04495">
        <ele>163</ele>
        <time>2020-06-25T15:31:09Z</time>
      </trkpt>
      <trkpt lat="49.67138" lon="5.04502">
        <ele>162.9</ele>
        <time>2020-06-25T15:31:10Z</time>
      </trkpt>
      <trkpt lat="49.67139" lon="5.04509">
        <ele>162.8</ele>
        <time>2020-06-25T15:31:11Z</time>
      </trkpt>
      <trkpt lat="49.67139" lon="5.04516">
        <ele>162.8</ele>
        <time>2020-06-25T15:31:12Z</time>
      </trkpt>
      <trkpt lat="49.67141" lon="5.04523">
        <ele>162.7</ele>
        <time>2020-06-25T15:31:13Z</time>
      </trkpt>
      <trkpt lat="49.6714" lon="5.04531">
        <ele>162.7</ele>
        <time>2020-06-25T15:31:14Z</time>
      </trkpt>
      <trkpt lat="49.67141" lon="5.04538">
        <ele>162.6</ele>
        <time>2020-06-25T15:31:15Z</time>
      </trkpt>
      <trkpt lat="49.67142" lon="5.04546">
        <ele>162.6</ele>
        <time>2020-06-25T15:31:16Z</time>
      </trkpt>
      <trkpt lat="49.67142" lon="5.04555">
        <ele>162.5</ele>
        <time>2020-06-25T15:31:17Z</time>
      </trkpt>
      <trkpt lat="49.67142" lon="5.04563">
        <ele>162.3</ele>
        <time>2020-06-25T15:31:18Z</time>
      </trkpt>
      <trkpt lat="49.67142" lon="5.04572">
        <ele>162.2</ele>
        <time>2020-06-25T15:31:19Z</time>
      </trkpt>
      <trkpt lat="49.67143" lon="5.04579">
        <ele>162.2</ele>
        <time>2020-06-25T15:31:20Z</time>
      </trkpt>
      <trkpt lat="49.67144" lon="5.04587">
        <ele>162.2</ele>
        <time>2020-06-25T15:31:21Z</time>
      </trkpt>
      <trkpt lat="49.67144" lon="5.04596">
        <ele>162.2</ele>
        <time>2020-06-25T15:31:22Z</time>
      </trkpt>
      <trkpt lat="49.67145" lon="5.04604">
        <ele>162.3</ele>
        <time>2020-06-25T15:31:23Z</time>
      </trkpt>
      <trkpt lat="49.67145" lon="5.0461">
        <ele>162.3</ele>
        <time>2020-06-25T15:31:24Z</time>
      </trkpt>
      <trkpt lat="49.67146" lon="5.04618">
        <ele>162.3</ele>
        <time>2020-06-25T15:31:25Z</time>
      </trkpt>
      <trkpt lat="49.67147" lon="5.04625">
        <ele>162.2</ele>
        <time>2020-06-25T15:31:26Z</time>
      </trkpt>
      <trkpt lat="49.67148" lon="5.04631">
        <ele>162.1</ele>
        <time>2020-06-25T15:31:27Z</time>
      </trkpt>
      <trkpt lat="49.6715" lon="5.04639">
        <ele>162</ele>
        <time>2020-06-25T15:31:28Z</time>
      </trkpt>
      <trkpt lat="49.6715" lon="5.04646">
        <ele>162</ele>
        <time>2020-06-25T15:31:29Z</time>
      </trkpt>
      <trkpt lat="49.67152" lon="5.04654">
        <ele>162</ele>
        <time>2020-06-25T15:31:30Z</time>
      </trkpt>
      <trkpt lat="49.67152" lon="5.04662">
        <ele>161.9</ele>
        <time>2020-06-25T15:31:31Z</time>
      </trkpt>
      <trkpt lat="49.67152" lon="5.0467">
        <ele>161.9</ele>
        <time>2020-06-25T15:31:32Z</time>
      </trkpt>
      <trkpt lat="49.67154" lon="5.04678">
        <ele>161.9</ele>
        <time>2020-06-25T15:31:33Z</time>
      </trkpt>
      <trkpt lat="49.67156" lon="5.04686">
        <ele>161.8</ele>
        <time>2020-06-25T15:31:34Z</time>
      </trkpt>
      <trkpt lat="49.67157" lon="5.04694">
        <ele>161.8</ele>
        <time>2020-06-25T15:31:35Z</time>
      </trkpt>
      <trkpt lat="49.67158" lon="5.04702">
        <ele>161.8</ele>
        <time>2020-06-25T15:31:36Z</time>
      </trkpt>
      <trkpt lat="49.67159" lon="5.0471">
        <ele>161.8</ele>
        <time>2020-06-25T15:31:37Z</time>
      </trkpt>
      <trkpt lat="49.67161" lon="5.04717">
        <ele>161.8</ele>
        <time>2020-06-25T15:31:38Z</time>
      </trkpt>
      <trkpt lat="49.67161" lon="5.04724">
        <ele>161.8</ele>
        <time>2020-06-25T15:31:39Z</time>
      </trkpt>
      <trkpt lat="49.67162" lon="5.04731">
        <ele>161.9</ele>
        <time>2020-06-25T15:31:40Z</time>
      </trkpt>
      <trkpt lat="49.67163" lon="5.04738">
        <ele>161.9</ele>
        <time>2020-06-25T15:31:41Z</time>
      </trkpt>
      <trkpt lat="49.67165" lon="5.04746">
        <ele>161.9</ele>
        <time>2020-06-25T15:31:42Z</time>
      </trkpt>
      <trkpt lat="49.67166" lon="5.04754">
        <ele>162.1</ele>
        <time>2020-06-25T15:31:43Z</time>
      </trkpt>
      <trkpt lat="49.67167" lon="5.04762">
        <ele>162.1</ele>
        <time>2020-06-25T15:31:44Z</time>
      </trkpt>
      <trkpt lat="49.67167" lon="5.04768">
        <ele>162.2</ele>
        <time>2020-06-25T15:31:45Z</time>
      </trkpt>
      <trkpt lat="49.67168" lon="5.04775">
        <ele>162.2</ele>
        <time>2020-06-25T15:31:46Z</time>
      </trkpt>
      <trkpt lat="49.67169" lon="5.04783">
        <ele>162.2</ele>
        <time>2020-06-25T15:31:47Z</time>
      </trkpt>
      <trkpt lat="49.67169" lon="5.0479">
        <ele>162.2</ele>
        <time>2020-06-25T15:31:48Z</time>
      </trkpt>
      <trkpt lat="49.6717" lon="5.04796">
        <ele>162.2</ele>
        <time>2020-06-25T15:31:49Z</time>
      </trkpt>
      <trkpt lat="49.67171" lon="5.04802">
        <ele>162.2</ele>
        <time>2020-06-25T15:31:50Z</time>
      </trkpt>
      <trkpt lat="49.67172" lon="5.0481">
        <ele>162.2</ele>
        <time>2020-06-25T15:31:51Z</time>
      </trkpt>
      <trkpt lat="49.67173" lon="5.04817">
        <ele>162.3</ele>
        <time>2020-06-25T15:31:52Z</time>
      </trkpt>
      <trkpt lat="49.67173" lon="5.04825">
        <ele>162.3</ele>
        <time>2020-06-25T15:31:53Z</time>
      </trkpt>
      <trkpt lat="49.67173" lon="5.04833">
        <ele>162.3</ele>
        <time>2020-06-25T15:31:54Z</time>
      </trkpt>
      <trkpt lat="49.67174" lon="5.0484">
        <ele>162.4</ele>
        <time>2020-06-25T15:31:55Z</time>
      </trkpt>
      <trkpt lat="49.67174" lon="5.04848">
        <ele>162.4</ele>
        <time>2020-06-25T15:31:56Z</time>
      </trkpt>
      <trkpt lat="49.67176" lon="5.04855">
        <ele>162.4</ele>
        <time>2020-06-25T15:31:57Z</time>
      </trkpt>
      <trkpt lat="49.67177" lon="5.04862">
        <ele>162.4</ele>
        <time>2020-06-25T15:31:58Z</time>
      </trkpt>
      <trkpt lat="49.67178" lon="5.04869">
        <ele>162.4</ele>
        <time>2020-06-25T15:31:59Z</time>
      </trkpt>
      <trkpt lat="49.67179" lon="5.04876">
        <ele>162.4</ele>
        <time>2020-06-25T15:32:00Z</time>
      </trkpt>
      <trkpt lat="49.67179" lon="5.04882">
        <ele>162.4</ele>
        <time>2020-06-25T15:32:01Z</time>
      </trkpt>
      <trkpt lat="49.6718" lon="5.04889">
        <ele>162.4</ele>
        <time>2020-06-25T15:32:02Z</time>
      </trkpt>
      <trkpt lat="49.67181" lon="5.04896">
        <ele>162.4</ele>
        <time>2020-06-25T15:32:03Z</time>
      </trkpt>
      <trkpt lat="49.67182" lon="5.04903">
        <ele>162.4</ele>
        <time>2020-06-25T15:32:04Z</time>
      </trkpt>
      <trkpt lat="49.67182" lon="5.0491">
        <ele>162.5</ele>
        <time>2020-06-25T15:32:05Z</time>
      </trkpt>
      <trkpt lat="49.67183" lon="5.04918">
        <ele>162.5</ele>
        <time>2020-06-25T15:32:06Z</time>
      </trkpt>
      <trkpt lat="49.67184" lon="5.04926">
        <ele>162.6</ele>
        <time>2020-06-25T15:32:07Z</time>
      </trkpt>
      <trkpt lat="49.67184" lon="5.04934">
        <ele>162.7</ele>
        <time>2020-06-25T15:32:08Z</time>
      </trkpt>
      <trkpt lat="49.67185" lon="5.04943">
        <ele>162.9</ele>
        <time>2020-06-25T15:32:09Z</time>
      </trkpt>
      <trkpt lat="49.67186" lon="5.0495">
        <ele>162.9</ele>
        <time>2020-06-25T15:32:10Z</time>
      </trkpt>
      <trkpt lat="49.67187" lon="5.04958">
        <ele>163</ele>
        <time>2020-06-25T15:32:11Z</time>
      </trkpt>
      <trkpt lat="49.67187" lon="5.04965">
        <ele>163</ele>
        <time>2020-06-25T15:32:12Z</time>
      </trkpt>
      <trkpt lat="49.67188" lon="5.04972">
        <ele>163.1</ele>
        <time>2020-06-25T15:32:13Z</time>
      </trkpt>
      <trkpt lat="49.67189" lon="5.04979">
        <ele>163.1</ele>
        <time>2020-06-25T15:32:14Z</time>
      </trkpt>
      <trkpt lat="49.6719" lon="5.04987">
        <ele>163.1</ele>
        <time>2020-06-25T15:32:15Z</time>
      </trkpt>
      <trkpt lat="49.67191" lon="5.04995">
        <ele>163.1</ele>
        <time>2020-06-25T15:32:16Z</time>
      </trkpt>
      <trkpt lat="49.67192" lon="5.05003">
        <ele>163.1</ele>
        <time>2020-06-25T15:32:17Z</time>
      </trkpt>
      <trkpt lat="49.67193" lon="5.05009">
        <ele>163.1</ele>
        <time>2020-06-25T15:32:18Z</time>
      </trkpt>
      <trkpt lat="49.67192" lon="5.05016">
        <ele>163.1</ele>
        <time>2020-06-25T15:32:19Z</time>
      </trkpt>
      <trkpt lat="49.67193" lon="5.05024">
        <ele>163.1</ele>
        <time>2020-06-25T15:32:20Z</time>
      </trkpt>
      <trkpt lat="49.67194" lon="5.05031">
        <ele>163.1</ele>
        <time>2020-06-25T15:32:21Z</time>
      </trkpt>
      <trkpt lat="49.67195" lon="5.05039">
        <ele>163</ele>
        <time>2020-06-25T15:32:22Z</time>
      </trkpt>
      <trkpt lat="49.67196" lon="5.05045">
        <ele>162.8</ele>
        <time>2020-06-25T15:32:23Z</time>
      </trkpt>
      <trkpt lat="49.67197" lon="5.05053">
        <ele>162.6</ele>
        <time>2020-06-25T15:32:24Z</time>
      </trkpt>
      <trkpt lat="49.67198" lon="5.05061">
        <ele>162.3</ele>
        <time>2020-06-25T15:32:25Z</time>
      </trkpt>
      <trkpt lat="49.67198" lon="5.05068">
        <ele>162</ele>
        <time>2020-06-25T15:32:26Z</time>
      </trkpt>
      <trkpt lat="49.67199" lon="5.05075">
        <ele>161.8</ele>
        <time>2020-06-25T15:32:27Z</time>
      </trkpt>
      <trkpt lat="49.672" lon="5.05083">
        <ele>161.6</ele>
        <time>2020-06-25T15:32:28Z</time>
      </trkpt>
      <trkpt lat="49.67201" lon="5.0509">
        <ele>161.4</ele>
        <time>2020-06-25T15:32:29Z</time>
      </trkpt>
      <trkpt lat="49.67202" lon="5.05098">
        <ele>161.2</ele>
        <time>2020-06-25T15:32:30Z</time>
      </trkpt>
      <trkpt lat="49.67203" lon="5.05106">
        <ele>161.1</ele>
        <time>2020-06-25T15:32:31Z</time>
      </trkpt>
      <trkpt lat="49.67203" lon="5.05114">
        <ele>161</ele>
        <time>2020-06-25T15:32:32Z</time>
      </trkpt>
      <trkpt lat="49.67204" lon="5.05121">
        <ele>161</ele>
        <time>2020-06-25T15:32:33Z</time>
      </trkpt>
      <trkpt lat="49.67206" lon="5.05129">
        <ele>161</ele>
        <time>2020-06-25T15:32:34Z</time>
      </trkpt>
      <trkpt lat="49.67207" lon="5.05138">
        <ele>161</ele>
        <time>2020-06-25T15:32:35Z</time>
      </trkpt>
      <trkpt lat="49.67207" lon="5.05145">
        <ele>161</ele>
        <time>2020-06-25T15:32:36Z</time>
      </trkpt>
      <trkpt lat="49.67208" lon="5.05153">
        <ele>161.1</ele>
        <time>2020-06-25T15:32:37Z</time>
      </trkpt>
      <trkpt lat="49.67209" lon="5.0516">
        <ele>161.2</ele>
        <time>2020-06-25T15:32:38Z</time>
      </trkpt>
      <trkpt lat="49.67209" lon="5.05168">
        <ele>161.2</ele>
        <time>2020-06-25T15:32:39Z</time>
      </trkpt>
      <trkpt lat="49.6721" lon="5.05176">
        <ele>161.3</ele>
        <time>2020-06-25T15:32:40Z</time>
      </trkpt>
      <trkpt lat="49.6721" lon="5.05184">
        <ele>161.3</ele>
        <time>2020-06-25T15:32:41Z</time>
      </trkpt>
      <trkpt lat="49.67211" lon="5.05192">
        <ele>161.3</ele>
        <time>2020-06-25T15:32:42Z</time>
      </trkpt>
      <trkpt lat="49.67213" lon="5.052">
        <ele>161.3</ele>
        <time>2020-06-25T15:32:43Z</time>
      </trkpt>
      <trkpt lat="49.67213" lon="5.05207">
        <ele>161.4</ele>
        <time>2020-06-25T15:32:44Z</time>
      </trkpt>
      <trkpt lat="49.67215" lon="5.05214">
        <ele>161.5</ele>
        <time>2020-06-25T15:32:45Z</time>
      </trkpt>
      <trkpt lat="49.67215" lon="5.05221">
        <ele>161.6</ele>
        <time>2020-06-25T15:32:46Z</time>
      </trkpt>
      <trkpt lat="49.67216" lon="5.05228">
        <ele>161.7</ele>
        <time>2020-06-25T15:32:47Z</time>
      </trkpt>
      <trkpt lat="49.67217" lon="5.05236">
        <ele>161.9</ele>
        <time>2020-06-25T15:32:48Z</time>
      </trkpt>
      <trkpt lat="49.67217" lon="5.05244">
        <ele>162</ele>
        <time>2020-06-25T15:32:49Z</time>
      </trkpt>
      <trkpt lat="49.67218" lon="5.05251">
        <ele>162.1</ele>
        <time>2020-06-25T15:32:50Z</time>
      </trkpt>
      <trkpt lat="49.67219" lon="5.05258">
        <ele>162.2</ele>
        <time>2020-06-25T15:32:51Z</time>
      </trkpt>
      <trkpt lat="49.6722" lon="5.05265">
        <ele>162.3</ele>
        <time>2020-06-25T15:32:52Z</time>
      </trkpt>
      <trkpt lat="49.6722" lon="5.05272">
        <ele>162.4</ele>
        <time>2020-06-25T15:32:53Z</time>
      </trkpt>
      <trkpt lat="49.67221" lon="5.05278">
        <ele>162.5</ele>
        <time>2020-06-25T15:32:54Z</time>
      </trkpt>
      <trkpt lat="49.67222" lon="5.05285">
        <ele>162.6</ele>
        <time>2020-06-25T15:32:55Z</time>
      </trkpt>
      <trkpt lat="49.67223" lon="5.05292">
        <ele>162.7</ele>
        <time>2020-06-25T15:32:56Z</time>
      </trkpt>
      <trkpt lat="49.67224" lon="5.05298">
        <ele>162.8</ele>
        <time>2020-06-25T15:32:57Z</time>
      </trkpt>
      <trkpt lat="49.67224" lon="5.05304">
        <ele>162.9</ele>
        <time>2020-06-25T15:32:58Z</time>
      </trkpt>
      <trkpt lat="49.67226" lon="5.05312">
        <ele>163.1</ele>
        <time>2020-06-25T15:32:59Z</time>
      </trkpt>
      <trkpt lat="49.67227" lon="5.05317">
        <ele>163.3</ele>
        <time>2020-06-25T15:33:00Z</time>
      </trkpt>
      <trkpt lat="49.67228" lon="5.05323">
        <ele>163.4</ele>
        <time>2020-06-25T15:33:01Z</time>
      </trkpt>
      <trkpt lat="49.67229" lon="5.0533">
        <ele>163.6</ele>
        <time>2020-06-25T15:33:02Z</time>
      </trkpt>
      <trkpt lat="49.6723" lon="5.05336">
        <ele>163.8</ele>
        <time>2020-06-25T15:33:03Z</time>
      </trkpt>
      <trkpt lat="49.67231" lon="5.05342">
        <ele>163.9</ele>
        <time>2020-06-25T15:33:04Z</time>
      </trkpt>
      <trkpt lat="49.67232" lon="5.05348">
        <ele>164.1</ele>
        <time>2020-06-25T15:33:05Z</time>
      </trkpt>
      <trkpt lat="49.67233" lon="5.05354">
        <ele>164.3</ele>
        <time>2020-06-25T15:33:06Z</time>
      </trkpt>
      <trkpt lat="49.67234" lon="5.0536">
        <ele>164.5</ele>
        <time>2020-06-25T15:33:07Z</time>
      </trkpt>
      <trkpt lat="49.67235" lon="5.05366">
        <ele>164.7</ele>
        <time>2020-06-25T15:33:08Z</time>
      </trkpt>
      <trkpt lat="49.67235" lon="5.05372">
        <ele>164.9</ele>
        <time>2020-06-25T15:33:09Z</time>
      </trkpt>
      <trkpt lat="49.67236" lon="5.05379">
        <ele>165.1</ele>
        <time>2020-06-25T15:33:10Z</time>
      </trkpt>
      <trkpt lat="49.67236" lon="5.05385">
        <ele>165.2</ele>
        <time>2020-06-25T15:33:11Z</time>
      </trkpt>
      <trkpt lat="49.67237" lon="5.05392">
        <ele>165.4</ele>
        <time>2020-06-25T15:33:12Z</time>
      </trkpt>
      <trkpt lat="49.67237" lon="5.05397">
        <ele>165.6</ele>
        <time>2020-06-25T15:33:13Z</time>
      </trkpt>
      <trkpt lat="49.67238" lon="5.05403">
        <ele>165.8</ele>
        <time>2020-06-25T15:33:14Z</time>
      </trkpt>
      <trkpt lat="49.67239" lon="5.0541">
        <ele>166</ele>
        <time>2020-06-25T15:33:15Z</time>
      </trkpt>
      <trkpt lat="49.6724" lon="5.05416">
        <ele>166.2</ele>
        <time>2020-06-25T15:33:16Z</time>
      </trkpt>
      <trkpt lat="49.6724" lon="5.05423">
        <ele>166.4</ele>
        <time>2020-06-25T15:33:17Z</time>
      </trkpt>
      <trkpt lat="49.67241" lon="5.05428">
        <ele>166.7</ele>
        <time>2020-06-25T15:33:18Z</time>
      </trkpt>
      <trkpt lat="49.67242" lon="5.05434">
        <ele>166.9</ele>
        <time>2020-06-25T15:33:19Z</time>
      </trkpt>
      <trkpt lat="49.67243" lon="5.05441">
        <ele>167.1</ele>
        <time>2020-06-25T15:33:20Z</time>
      </trkpt>
      <trkpt lat="49.67244" lon="5.05447">
        <ele>167.3</ele>
        <time>2020-06-25T15:33:21Z</time>
      </trkpt>
      <trkpt lat="49.67244" lon="5.05452">
        <ele>167.4</ele>
        <time>2020-06-25T15:33:22Z</time>
      </trkpt>
      <trkpt lat="49.67245" lon="5.05458">
        <ele>167.5</ele>
        <time>2020-06-25T15:33:23Z</time>
      </trkpt>
      <trkpt lat="49.67245" lon="5.05464">
        <ele>167.6</ele>
        <time>2020-06-25T15:33:24Z</time>
      </trkpt>
      <trkpt lat="49.67245" lon="5.05466">
        <ele>167.7</ele>
        <time>2020-06-25T15:33:25Z</time>
      </trkpt>
      <trkpt lat="49.67244" lon="5.05471">
        <ele>167.8</ele>
        <time>2020-06-25T15:33:26Z</time>
      </trkpt>
      <trkpt lat="49.67244" lon="5.05476">
        <ele>167.9</ele>
        <time>2020-06-25T15:33:27Z</time>
      </trkpt>
      <trkpt lat="49.67245" lon="5.05482">
        <ele>168</ele>
        <time>2020-06-25T15:33:28Z</time>
      </trkpt>
      <trkpt lat="49.67245" lon="5.05487">
        <ele>168.2</ele>
        <time>2020-06-25T15:33:29Z</time>
      </trkpt>
      <trkpt lat="49.67246" lon="5.05493">
        <ele>168.4</ele>
        <time>2020-06-25T15:33:30Z</time>
      </trkpt>
      <trkpt lat="49.67246" lon="5.05499">
        <ele>168.5</ele>
        <time>2020-06-25T15:33:31Z</time>
      </trkpt>
      <trkpt lat="49.67246" lon="5.05505">
        <ele>168.7</ele>
        <time>2020-06-25T15:33:32Z</time>
      </trkpt>
      <trkpt lat="49.67247" lon="5.05512">
        <ele>168.9</ele>
        <time>2020-06-25T15:33:33Z</time>
      </trkpt>
      <trkpt lat="49.67248" lon="5.05518">
        <ele>169.1</ele>
        <time>2020-06-25T15:33:34Z</time>
      </trkpt>
      <trkpt lat="49.67249" lon="5.05525">
        <ele>169.3</ele>
        <time>2020-06-25T15:33:35Z</time>
      </trkpt>
      <trkpt lat="49.6725" lon="5.0553">
        <ele>169.4</ele>
        <time>2020-06-25T15:33:36Z</time>
      </trkpt>
      <trkpt lat="49.67251" lon="5.05537">
        <ele>169.6</ele>
        <time>2020-06-25T15:33:37Z</time>
      </trkpt>
      <trkpt lat="49.67251" lon="5.05544">
        <ele>169.7</ele>
        <time>2020-06-25T15:33:38Z</time>
      </trkpt>
      <trkpt lat="49.67253" lon="5.0555">
        <ele>169.9</ele>
        <time>2020-06-25T15:33:39Z</time>
      </trkpt>
      <trkpt lat="49.67254" lon="5.05557">
        <ele>169.9</ele>
        <time>2020-06-25T15:33:40Z</time>
      </trkpt>
      <trkpt lat="49.67254" lon="5.05563">
        <ele>170</ele>
        <time>2020-06-25T15:33:41Z</time>
      </trkpt>
      <trkpt lat="49.67255" lon="5.05569">
        <ele>170.1</ele>
        <time>2020-06-25T15:33:42Z</time>
      </trkpt>
      <trkpt lat="49.67255" lon="5.05576">
        <ele>170.2</ele>
        <time>2020-06-25T15:33:43Z</time>
      </trkpt>
      <trkpt lat="49.67255" lon="5.05583">
        <ele>170.4</ele>
        <time>2020-06-25T15:33:44Z</time>
      </trkpt>
      <trkpt lat="49.67256" lon="5.05589">
        <ele>170.5</ele>
        <time>2020-06-25T15:33:45Z</time>
      </trkpt>
      <trkpt lat="49.67257" lon="5.05595">
        <ele>170.7</ele>
        <time>2020-06-25T15:33:46Z</time>
      </trkpt>
      <trkpt lat="49.67258" lon="5.056">
        <ele>170.8</ele>
        <time>2020-06-25T15:33:47Z</time>
      </trkpt>
      <trkpt lat="49.67259" lon="5.05607">
        <ele>170.9</ele>
        <time>2020-06-25T15:33:48Z</time>
      </trkpt>
      <trkpt lat="49.67259" lon="5.05613">
        <ele>170.9</ele>
        <time>2020-06-25T15:33:49Z</time>
      </trkpt>
      <trkpt lat="49.6726" lon="5.05619">
        <ele>171</ele>
        <time>2020-06-25T15:33:50Z</time>
      </trkpt>
      <trkpt lat="49.67261" lon="5.05626">
        <ele>171</ele>
        <time>2020-06-25T15:33:51Z</time>
      </trkpt>
      <trkpt lat="49.67263" lon="5.05633">
        <ele>171.1</ele>
        <time>2020-06-25T15:33:52Z</time>
      </trkpt>
      <trkpt lat="49.67264" lon="5.0564">
        <ele>171.1</ele>
        <time>2020-06-25T15:33:53Z</time>
      </trkpt>
      <trkpt lat="49.67265" lon="5.05647">
        <ele>171.2</ele>
        <time>2020-06-25T15:33:54Z</time>
      </trkpt>
      <trkpt lat="49.67267" lon="5.05653">
        <ele>171.3</ele>
        <time>2020-06-25T15:33:55Z</time>
      </trkpt>
      <trkpt lat="49.67268" lon="5.05659">
        <ele>171.4</ele>
        <time>2020-06-25T15:33:56Z</time>
      </trkpt>
      <trkpt lat="49.6727" lon="5.05665">
        <ele>171.6</ele>
        <time>2020-06-25T15:33:57Z</time>
      </trkpt>
      <trkpt lat="49.67272" lon="5.05673">
        <ele>171.7</ele>
        <time>2020-06-25T15:33:58Z</time>
      </trkpt>
      <trkpt lat="49.67274" lon="5.0568">
        <ele>171.8</ele>
        <time>2020-06-25T15:33:59Z</time>
      </trkpt>
      <trkpt lat="49.67275" lon="5.05685">
        <ele>171.9</ele>
        <time>2020-06-25T15:34:00Z</time>
      </trkpt>
      <trkpt lat="49.67277" lon="5.05691">
        <ele>171.9</ele>
        <time>2020-06-25T15:34:01Z</time>
      </trkpt>
      <trkpt lat="49.67278" lon="5.05698">
        <ele>171.9</ele>
        <time>2020-06-25T15:34:02Z</time>
      </trkpt>
      <trkpt lat="49.6728" lon="5.05704">
        <ele>171.9</ele>
        <time>2020-06-25T15:34:03Z</time>
      </trkpt>
      <trkpt lat="49.67281" lon="5.0571">
        <ele>171.9</ele>
        <time>2020-06-25T15:34:04Z</time>
      </trkpt>
      <trkpt lat="49.67281" lon="5.05716">
        <ele>171.9</ele>
        <time>2020-06-25T15:34:05Z</time>
      </trkpt>
      <trkpt lat="49.67283" lon="5.05722">
        <ele>171.9</ele>
        <time>2020-06-25T15:34:06Z</time>
      </trkpt>
      <trkpt lat="49.67284" lon="5.05729">
        <ele>171.9</ele>
        <time>2020-06-25T15:34:07Z</time>
      </trkpt>
      <trkpt lat="49.67285" lon="5.05736">
        <ele>172</ele>
        <time>2020-06-25T15:34:08Z</time>
      </trkpt>
      <trkpt lat="49.67287" lon="5.05744">
        <ele>172</ele>
        <time>2020-06-25T15:34:09Z</time>
      </trkpt>
      <trkpt lat="49.6729" lon="5.0575">
        <ele>172.1</ele>
        <time>2020-06-25T15:34:10Z</time>
      </trkpt>
      <trkpt lat="49.67291" lon="5.05756">
        <ele>172.2</ele>
        <time>2020-06-25T15:34:11Z</time>
      </trkpt>
      <trkpt lat="49.67293" lon="5.05763">
        <ele>172.2</ele>
        <time>2020-06-25T15:34:12Z</time>
      </trkpt>
      <trkpt lat="49.67295" lon="5.0577">
        <ele>172.2</ele>
        <time>2020-06-25T15:34:13Z</time>
      </trkpt>
      <trkpt lat="49.67296" lon="5.05777">
        <ele>172.2</ele>
        <time>2020-06-25T15:34:14Z</time>
      </trkpt>
      <trkpt lat="49.67298" lon="5.05784">
        <ele>172.2</ele>
        <time>2020-06-25T15:34:15Z</time>
      </trkpt>
      <trkpt lat="49.673" lon="5.05792">
        <ele>172.1</ele>
        <time>2020-06-25T15:34:16Z</time>
      </trkpt>
      <trkpt lat="49.67301" lon="5.05797">
        <ele>172.1</ele>
        <time>2020-06-25T15:34:17Z</time>
      </trkpt>
      <trkpt lat="49.67303" lon="5.05804">
        <ele>172</ele>
        <time>2020-06-25T15:34:18Z</time>
      </trkpt>
      <trkpt lat="49.67305" lon="5.05813">
        <ele>172</ele>
        <time>2020-06-25T15:34:19Z</time>
      </trkpt>
      <trkpt lat="49.67308" lon="5.0582">
        <ele>172</ele>
        <time>2020-06-25T15:34:20Z</time>
      </trkpt>
      <trkpt lat="49.67309" lon="5.05827">
        <ele>172</ele>
        <time>2020-06-25T15:34:21Z</time>
      </trkpt>
      <trkpt lat="49.67311" lon="5.05834">
        <ele>172</ele>
        <time>2020-06-25T15:34:22Z</time>
      </trkpt>
      <trkpt lat="49.67314" lon="5.05841">
        <ele>171.9</ele>
        <time>2020-06-25T15:34:23Z</time>
      </trkpt>
      <trkpt lat="49.67315" lon="5.05849">
        <ele>171.9</ele>
        <time>2020-06-25T15:34:24Z</time>
      </trkpt>
      <trkpt lat="49.67317" lon="5.05856">
        <ele>171.8</ele>
        <time>2020-06-25T15:34:25Z</time>
      </trkpt>
      <trkpt lat="49.6732" lon="5.05863">
        <ele>171.7</ele>
        <time>2020-06-25T15:34:26Z</time>
      </trkpt>
      <trkpt lat="49.67322" lon="5.05871">
        <ele>171.6</ele>
        <time>2020-06-25T15:34:27Z</time>
      </trkpt>
      <trkpt lat="49.67325" lon="5.05878">
        <ele>171.5</ele>
        <time>2020-06-25T15:34:28Z</time>
      </trkpt>
      <trkpt lat="49.67327" lon="5.05887">
        <ele>171.3</ele>
        <time>2020-06-25T15:34:29Z</time>
      </trkpt>
      <trkpt lat="49.6733" lon="5.05894">
        <ele>171.3</ele>
        <time>2020-06-25T15:34:30Z</time>
      </trkpt>
      <trkpt lat="49.67333" lon="5.05902">
        <ele>171.2</ele>
        <time>2020-06-25T15:34:31Z</time>
      </trkpt>
      <trkpt lat="49.67336" lon="5.05909">
        <ele>171.2</ele>
        <time>2020-06-25T15:34:32Z</time>
      </trkpt>
      <trkpt lat="49.67338" lon="5.05915">
        <ele>171.1</ele>
        <time>2020-06-25T15:34:33Z</time>
      </trkpt>
      <trkpt lat="49.67341" lon="5.05922">
        <ele>170.9</ele>
        <time>2020-06-25T15:34:34Z</time>
      </trkpt>
      <trkpt lat="49.67343" lon="5.05929">
        <ele>170.7</ele>
        <time>2020-06-25T15:34:35Z</time>
      </trkpt>
      <trkpt lat="49.67345" lon="5.05934">
        <ele>170.6</ele>
        <time>2020-06-25T15:34:36Z</time>
      </trkpt>
      <trkpt lat="49.67348" lon="5.05942">
        <ele>170.3</ele>
        <time>2020-06-25T15:34:37Z</time>
      </trkpt>
      <trkpt lat="49.67351" lon="5.05948">
        <ele>170.1</ele>
        <time>2020-06-25T15:34:38Z</time>
      </trkpt>
      <trkpt lat="49.67353" lon="5.05957">
        <ele>169.8</ele>
        <time>2020-06-25T15:34:39Z</time>
      </trkpt>
      <trkpt lat="49.67356" lon="5.05965">
        <ele>169.5</ele>
        <time>2020-06-25T15:34:40Z</time>
      </trkpt>
      <trkpt lat="49.6736" lon="5.05974">
        <ele>169.2</ele>
        <time>2020-06-25T15:34:41Z</time>
      </trkpt>
      <trkpt lat="49.67363" lon="5.05984">
        <ele>168.9</ele>
        <time>2020-06-25T15:34:42Z</time>
      </trkpt>
      <trkpt lat="49.67367" lon="5.05994">
        <ele>168.5</ele>
        <time>2020-06-25T15:34:43Z</time>
      </trkpt>
      <trkpt lat="49.6737" lon="5.06003">
        <ele>168.2</ele>
        <time>2020-06-25T15:34:44Z</time>
      </trkpt>
      <trkpt lat="49.67373" lon="5.06013">
        <ele>168</ele>
        <time>2020-06-25T15:34:45Z</time>
      </trkpt>
      <trkpt lat="49.67376" lon="5.06023">
        <ele>167.7</ele>
        <time>2020-06-25T15:34:46Z</time>
      </trkpt>
      <trkpt lat="49.67379" lon="5.06033">
        <ele>167.3</ele>
        <time>2020-06-25T15:34:47Z</time>
      </trkpt>
      <trkpt lat="49.67382" lon="5.06043">
        <ele>167.1</ele>
        <time>2020-06-25T15:34:48Z</time>
      </trkpt>
      <trkpt lat="49.67386" lon="5.06053">
        <ele>166.9</ele>
        <time>2020-06-25T15:34:49Z</time>
      </trkpt>
      <trkpt lat="49.67389" lon="5.06063">
        <ele>166.7</ele>
        <time>2020-06-25T15:34:50Z</time>
      </trkpt>
      <trkpt lat="49.67393" lon="5.06074">
        <ele>166.4</ele>
        <time>2020-06-25T15:34:51Z</time>
      </trkpt>
      <trkpt lat="49.67396" lon="5.06084">
        <ele>165.9</ele>
        <time>2020-06-25T15:34:52Z</time>
      </trkpt>
      <trkpt lat="49.67399" lon="5.06095">
        <ele>165.4</ele>
        <time>2020-06-25T15:34:53Z</time>
      </trkpt>
      <trkpt lat="49.67403" lon="5.06106">
        <ele>164.9</ele>
        <time>2020-06-25T15:34:54Z</time>
      </trkpt>
      <trkpt lat="49.67406" lon="5.06117">
        <ele>164.4</ele>
        <time>2020-06-25T15:34:55Z</time>
      </trkpt>
      <trkpt lat="49.6741" lon="5.06127">
        <ele>163.9</ele>
        <time>2020-06-25T15:34:56Z</time>
      </trkpt>
      <trkpt lat="49.67413" lon="5.06138">
        <ele>163.4</ele>
        <time>2020-06-25T15:34:57Z</time>
      </trkpt>
      <trkpt lat="49.67417" lon="5.06149">
        <ele>162.9</ele>
        <time>2020-06-25T15:34:58Z</time>
      </trkpt>
      <trkpt lat="49.6742" lon="5.06159">
        <ele>162.2</ele>
        <time>2020-06-25T15:34:59Z</time>
      </trkpt>
      <trkpt lat="49.67424" lon="5.0617">
        <ele>160.9</ele>
        <time>2020-06-25T15:35:00Z</time>
      </trkpt>
      <trkpt lat="49.67427" lon="5.0618">
        <ele>160.8</ele>
        <time>2020-06-25T15:35:01Z</time>
      </trkpt>
      <trkpt lat="49.67431" lon="5.06191">
        <ele>160.6</ele>
        <time>2020-06-25T15:35:02Z</time>
      </trkpt>
      <trkpt lat="49.67435" lon="5.06201">
        <ele>160.1</ele>
        <time>2020-06-25T15:35:03Z</time>
      </trkpt>
      <trkpt lat="49.67438" lon="5.06212">
        <ele>159.7</ele>
        <time>2020-06-25T15:35:04Z</time>
      </trkpt>
      <trkpt lat="49.67442" lon="5.06222">
        <ele>159.4</ele>
        <time>2020-06-25T15:35:05Z</time>
      </trkpt>
      <trkpt lat="49.67446" lon="5.06232">
        <ele>159.3</ele>
        <time>2020-06-25T15:35:06Z</time>
      </trkpt>
      <trkpt lat="49.67449" lon="5.06242">
        <ele>159.1</ele>
        <time>2020-06-25T15:35:07Z</time>
      </trkpt>
      <trkpt lat="49.67452" lon="5.06254">
        <ele>158.8</ele>
        <time>2020-06-25T15:35:08Z</time>
      </trkpt>
      <trkpt lat="49.67455" lon="5.06265">
        <ele>158.5</ele>
        <time>2020-06-25T15:35:09Z</time>
      </trkpt>
      <trkpt lat="49.67458" lon="5.06276">
        <ele>158.2</ele>
        <time>2020-06-25T15:35:10Z</time>
      </trkpt>
      <trkpt lat="49.67461" lon="5.06287">
        <ele>158</ele>
        <time>2020-06-25T15:35:11Z</time>
      </trkpt>
      <trkpt lat="49.67464" lon="5.06298">
        <ele>157.8</ele>
        <time>2020-06-25T15:35:12Z</time>
      </trkpt>
      <trkpt lat="49.67467" lon="5.06309">
        <ele>157.6</ele>
        <time>2020-06-25T15:35:13Z</time>
      </trkpt>
      <trkpt lat="49.67469" lon="5.0632">
        <ele>157.4</ele>
        <time>2020-06-25T15:35:14Z</time>
      </trkpt>
      <trkpt lat="49.67471" lon="5.06331">
        <ele>157.2</ele>
        <time>2020-06-25T15:35:15Z</time>
      </trkpt>
      <trkpt lat="49.67473" lon="5.06342">
        <ele>157.1</ele>
        <time>2020-06-25T15:35:16Z</time>
      </trkpt>
      <trkpt lat="49.67475" lon="5.06353">
        <ele>157.1</ele>
        <time>2020-06-25T15:35:17Z</time>
      </trkpt>
      <trkpt lat="49.67477" lon="5.06364">
        <ele>157</ele>
        <time>2020-06-25T15:35:18Z</time>
      </trkpt>
      <trkpt lat="49.67479" lon="5.06374">
        <ele>156.8</ele>
        <time>2020-06-25T15:35:19Z</time>
      </trkpt>
      <trkpt lat="49.67481" lon="5.06384">
        <ele>156.7</ele>
        <time>2020-06-25T15:35:20Z</time>
      </trkpt>
      <trkpt lat="49.67484" lon="5.06394">
        <ele>156.6</ele>
        <time>2020-06-25T15:35:21Z</time>
      </trkpt>
      <trkpt lat="49.67486" lon="5.06404">
        <ele>156.5</ele>
        <time>2020-06-25T15:35:22Z</time>
      </trkpt>
      <trkpt lat="49.67488" lon="5.06413">
        <ele>156.4</ele>
        <time>2020-06-25T15:35:23Z</time>
      </trkpt>
      <trkpt lat="49.6749" lon="5.06422">
        <ele>156.3</ele>
        <time>2020-06-25T15:35:24Z</time>
      </trkpt>
      <trkpt lat="49.67493" lon="5.06432">
        <ele>156.2</ele>
        <time>2020-06-25T15:35:25Z</time>
      </trkpt>
      <trkpt lat="49.67494" lon="5.06441">
        <ele>156.2</ele>
        <time>2020-06-25T15:35:26Z</time>
      </trkpt>
      <trkpt lat="49.67496" lon="5.0645">
        <ele>156.3</ele>
        <time>2020-06-25T15:35:27Z</time>
      </trkpt>
      <trkpt lat="49.67497" lon="5.0646">
        <ele>156.4</ele>
        <time>2020-06-25T15:35:28Z</time>
      </trkpt>
      <trkpt lat="49.67499" lon="5.06469">
        <ele>156.6</ele>
        <time>2020-06-25T15:35:29Z</time>
      </trkpt>
      <trkpt lat="49.675" lon="5.06478">
        <ele>156.7</ele>
        <time>2020-06-25T15:35:30Z</time>
      </trkpt>
      <trkpt lat="49.67501" lon="5.06488">
        <ele>156.8</ele>
        <time>2020-06-25T15:35:31Z</time>
      </trkpt>
      <trkpt lat="49.67503" lon="5.06497">
        <ele>157</ele>
        <time>2020-06-25T15:35:32Z</time>
      </trkpt>
      <trkpt lat="49.67505" lon="5.06507">
        <ele>157.1</ele>
        <time>2020-06-25T15:35:33Z</time>
      </trkpt>
      <trkpt lat="49.67506" lon="5.06517">
        <ele>157.1</ele>
        <time>2020-06-25T15:35:34Z</time>
      </trkpt>
      <trkpt lat="49.67507" lon="5.06527">
        <ele>157.2</ele>
        <time>2020-06-25T15:35:35Z</time>
      </trkpt>
      <trkpt lat="49.67507" lon="5.06537">
        <ele>157.4</ele>
        <time>2020-06-25T15:35:36Z</time>
      </trkpt>
      <trkpt lat="49.67509" lon="5.06547">
        <ele>157.5</ele>
        <time>2020-06-25T15:35:37Z</time>
      </trkpt>
      <trkpt lat="49.6751" lon="5.06557">
        <ele>157.7</ele>
        <time>2020-06-25T15:35:38Z</time>
      </trkpt>
      <trkpt lat="49.67512" lon="5.06567">
        <ele>157.8</ele>
        <time>2020-06-25T15:35:39Z</time>
      </trkpt>
      <trkpt lat="49.67513" lon="5.06576">
        <ele>157.9</ele>
        <time>2020-06-25T15:35:40Z</time>
      </trkpt>
      <trkpt lat="49.67515" lon="5.06585">
        <ele>158.1</ele>
        <time>2020-06-25T15:35:41Z</time>
      </trkpt>
      <trkpt lat="49.67516" lon="5.06594">
        <ele>158.2</ele>
        <time>2020-06-25T15:35:42Z</time>
      </trkpt>
      <trkpt lat="49.67516" lon="5.06603">
        <ele>158.4</ele>
        <time>2020-06-25T15:35:43Z</time>
      </trkpt>
      <trkpt lat="49.67517" lon="5.06612">
        <ele>158.4</ele>
        <time>2020-06-25T15:35:44Z</time>
      </trkpt>
      <trkpt lat="49.67518" lon="5.06621">
        <ele>158.5</ele>
        <time>2020-06-25T15:35:45Z</time>
      </trkpt>
      <trkpt lat="49.6752" lon="5.0663">
        <ele>158.5</ele>
        <time>2020-06-25T15:35:46Z</time>
      </trkpt>
      <trkpt lat="49.6752" lon="5.06639">
        <ele>158.6</ele>
        <time>2020-06-25T15:35:47Z</time>
      </trkpt>
      <trkpt lat="49.67521" lon="5.06648">
        <ele>158.8</ele>
        <time>2020-06-25T15:35:48Z</time>
      </trkpt>
      <trkpt lat="49.67521" lon="5.06656">
        <ele>159.1</ele>
        <time>2020-06-25T15:35:49Z</time>
      </trkpt>
      <trkpt lat="49.67521" lon="5.06664">
        <ele>159.4</ele>
        <time>2020-06-25T15:35:50Z</time>
      </trkpt>
      <trkpt lat="49.67522" lon="5.06673">
        <ele>159.8</ele>
        <time>2020-06-25T15:35:51Z</time>
      </trkpt>
      <trkpt lat="49.67523" lon="5.06681">
        <ele>160.1</ele>
        <time>2020-06-25T15:35:52Z</time>
      </trkpt>
      <trkpt lat="49.67524" lon="5.06688">
        <ele>160.4</ele>
        <time>2020-06-25T15:35:53Z</time>
      </trkpt>
      <trkpt lat="49.67525" lon="5.06696">
        <ele>160.6</ele>
        <time>2020-06-25T15:35:54Z</time>
      </trkpt>
      <trkpt lat="49.67527" lon="5.06703">
        <ele>160.8</ele>
        <time>2020-06-25T15:35:55Z</time>
      </trkpt>
      <trkpt lat="49.67528" lon="5.0671">
        <ele>160.9</ele>
        <time>2020-06-25T15:35:56Z</time>
      </trkpt>
      <trkpt lat="49.6753" lon="5.06717">
        <ele>161</ele>
        <time>2020-06-25T15:35:57Z</time>
      </trkpt>
      <trkpt lat="49.6753" lon="5.06725">
        <ele>161.2</ele>
        <time>2020-06-25T15:35:58Z</time>
      </trkpt>
      <trkpt lat="49.67532" lon="5.06732">
        <ele>161.3</ele>
        <time>2020-06-25T15:35:59Z</time>
      </trkpt>
      <trkpt lat="49.67532" lon="5.0674">
        <ele>161.4</ele>
        <time>2020-06-25T15:36:00Z</time>
      </trkpt>
      <trkpt lat="49.67533" lon="5.06748">
        <ele>161.5</ele>
        <time>2020-06-25T15:36:01Z</time>
      </trkpt>
      <trkpt lat="49.67535" lon="5.06755">
        <ele>161.6</ele>
        <time>2020-06-25T15:36:02Z</time>
      </trkpt>
      <trkpt lat="49.67537" lon="5.06763">
        <ele>161.7</ele>
        <time>2020-06-25T15:36:03Z</time>
      </trkpt>
      <trkpt lat="49.67537" lon="5.06771">
        <ele>161.8</ele>
        <time>2020-06-25T15:36:04Z</time>
      </trkpt>
      <trkpt lat="49.67537" lon="5.06779">
        <ele>161.9</ele>
        <time>2020-06-25T15:36:05Z</time>
      </trkpt>
      <trkpt lat="49.67537" lon="5.06787">
        <ele>163.7</ele>
        <time>2020-06-25T15:36:06Z</time>
      </trkpt>
      <trkpt lat="49.67537" lon="5.06794">
        <ele>165.5</ele>
        <time>2020-06-25T15:36:07Z</time>
      </trkpt>
      <trkpt lat="49.67538" lon="5.06802">
        <ele>166.6</ele>
        <time>2020-06-25T15:36:08Z</time>
      </trkpt>
      <trkpt lat="49.67539" lon="5.06809">
        <ele>167.2</ele>
        <time>2020-06-25T15:36:09Z</time>
      </trkpt>
      <trkpt lat="49.6754" lon="5.06816">
        <ele>167.4</ele>
        <time>2020-06-25T15:36:10Z</time>
      </trkpt>
      <trkpt lat="49.67541" lon="5.06823">
        <ele>167.6</ele>
        <time>2020-06-25T15:36:11Z</time>
      </trkpt>
      <trkpt lat="49.67541" lon="5.0683">
        <ele>167.6</ele>
        <time>2020-06-25T15:36:12Z</time>
      </trkpt>
      <trkpt lat="49.67542" lon="5.06837">
        <ele>167.6</ele>
        <time>2020-06-25T15:36:13Z</time>
      </trkpt>
      <trkpt lat="49.67543" lon="5.06844">
        <ele>167.5</ele>
        <time>2020-06-25T15:36:14Z</time>
      </trkpt>
      <trkpt lat="49.67544" lon="5.06851">
        <ele>167.4</ele>
        <time>2020-06-25T15:36:15Z</time>
      </trkpt>
      <trkpt lat="49.67543" lon="5.06859">
        <ele>167.3</ele>
        <time>2020-06-25T15:36:16Z</time>
      </trkpt>
      <trkpt lat="49.67545" lon="5.06866">
        <ele>167.1</ele>
        <time>2020-06-25T15:36:17Z</time>
      </trkpt>
      <trkpt lat="49.67547" lon="5.06874">
        <ele>167</ele>
        <time>2020-06-25T15:36:18Z</time>
      </trkpt>
      <trkpt lat="49.67549" lon="5.06881">
        <ele>166.9</ele>
        <time>2020-06-25T15:36:19Z</time>
      </trkpt>
      <trkpt lat="49.67551" lon="5.06888">
        <ele>166.8</ele>
        <time>2020-06-25T15:36:20Z</time>
      </trkpt>
      <trkpt lat="49.67552" lon="5.06896">
        <ele>166.8</ele>
        <time>2020-06-25T15:36:21Z</time>
      </trkpt>
      <trkpt lat="49.67554" lon="5.06904">
        <ele>166.7</ele>
        <time>2020-06-25T15:36:22Z</time>
      </trkpt>
      <trkpt lat="49.67555" lon="5.06911">
        <ele>166.6</ele>
        <time>2020-06-25T15:36:23Z</time>
      </trkpt>
      <trkpt lat="49.67556" lon="5.06919">
        <ele>166.4</ele>
        <time>2020-06-25T15:36:24Z</time>
      </trkpt>
      <trkpt lat="49.67557" lon="5.06927">
        <ele>166.2</ele>
        <time>2020-06-25T15:36:25Z</time>
      </trkpt>
      <trkpt lat="49.67558" lon="5.06934">
        <ele>166</ele>
        <time>2020-06-25T15:36:26Z</time>
      </trkpt>
      <trkpt lat="49.67558" lon="5.06941">
        <ele>165.8</ele>
        <time>2020-06-25T15:36:27Z</time>
      </trkpt>
      <trkpt lat="49.67557" lon="5.06949">
        <ele>165.7</ele>
        <time>2020-06-25T15:36:28Z</time>
      </trkpt>
      <trkpt lat="49.67557" lon="5.06957">
        <ele>165.5</ele>
        <time>2020-06-25T15:36:29Z</time>
      </trkpt>
      <trkpt lat="49.67559" lon="5.06965">
        <ele>165.4</ele>
        <time>2020-06-25T15:36:30Z</time>
      </trkpt>
      <trkpt lat="49.67561" lon="5.06972">
        <ele>165.3</ele>
        <time>2020-06-25T15:36:31Z</time>
      </trkpt>
      <trkpt lat="49.67563" lon="5.0698">
        <ele>165.1</ele>
        <time>2020-06-25T15:36:32Z</time>
      </trkpt>
      <trkpt lat="49.67564" lon="5.06989">
        <ele>165</ele>
        <time>2020-06-25T15:36:33Z</time>
      </trkpt>
      <trkpt lat="49.67564" lon="5.06997">
        <ele>164.8</ele>
        <time>2020-06-25T15:36:34Z</time>
      </trkpt>
      <trkpt lat="49.67565" lon="5.07005">
        <ele>164.7</ele>
        <time>2020-06-25T15:36:35Z</time>
      </trkpt>
      <trkpt lat="49.67566" lon="5.07013">
        <ele>164.6</ele>
        <time>2020-06-25T15:36:36Z</time>
      </trkpt>
      <trkpt lat="49.67568" lon="5.07022">
        <ele>164.4</ele>
        <time>2020-06-25T15:36:37Z</time>
      </trkpt>
      <trkpt lat="49.6757" lon="5.0703">
        <ele>164.1</ele>
        <time>2020-06-25T15:36:38Z</time>
      </trkpt>
      <trkpt lat="49.67572" lon="5.07039">
        <ele>163.9</ele>
        <time>2020-06-25T15:36:39Z</time>
      </trkpt>
      <trkpt lat="49.67573" lon="5.07047">
        <ele>163.6</ele>
        <time>2020-06-25T15:36:40Z</time>
      </trkpt>
      <trkpt lat="49.67574" lon="5.07055">
        <ele>163.5</ele>
        <time>2020-06-25T15:36:41Z</time>
      </trkpt>
      <trkpt lat="49.67575" lon="5.07064">
        <ele>163.3</ele>
        <time>2020-06-25T15:36:42Z</time>
      </trkpt>
      <trkpt lat="49.67577" lon="5.07072">
        <ele>163.3</ele>
        <time>2020-06-25T15:36:43Z</time>
      </trkpt>
      <trkpt lat="49.67576" lon="5.0708">
        <ele>163.3</ele>
        <time>2020-06-25T15:36:44Z</time>
      </trkpt>
      <trkpt lat="49.67576" lon="5.07088">
        <ele>163.3</ele>
        <time>2020-06-25T15:36:45Z</time>
      </trkpt>
      <trkpt lat="49.67576" lon="5.07096">
        <ele>163.2</ele>
        <time>2020-06-25T15:36:46Z</time>
      </trkpt>
      <trkpt lat="49.67577" lon="5.07104">
        <ele>163</ele>
        <time>2020-06-25T15:36:47Z</time>
      </trkpt>
      <trkpt lat="49.67578" lon="5.07112">
        <ele>162.8</ele>
        <time>2020-06-25T15:36:48Z</time>
      </trkpt>
      <trkpt lat="49.67579" lon="5.0712">
        <ele>162.5</ele>
        <time>2020-06-25T15:36:49Z</time>
      </trkpt>
      <trkpt lat="49.6758" lon="5.07128">
        <ele>162.3</ele>
        <time>2020-06-25T15:36:50Z</time>
      </trkpt>
      <trkpt lat="49.67582" lon="5.07136">
        <ele>162.2</ele>
        <time>2020-06-25T15:36:51Z</time>
      </trkpt>
      <trkpt lat="49.67583" lon="5.07144">
        <ele>162.1</ele>
        <time>2020-06-25T15:36:52Z</time>
      </trkpt>
      <trkpt lat="49.67583" lon="5.07152">
        <ele>162</ele>
        <time>2020-06-25T15:36:53Z</time>
      </trkpt>
      <trkpt lat="49.67584" lon="5.07161">
        <ele>162</ele>
        <time>2020-06-25T15:36:54Z</time>
      </trkpt>
      <trkpt lat="49.67585" lon="5.0717">
        <ele>162</ele>
        <time>2020-06-25T15:36:55Z</time>
      </trkpt>
      <trkpt lat="49.67585" lon="5.07179">
        <ele>162</ele>
        <time>2020-06-25T15:36:56Z</time>
      </trkpt>
      <trkpt lat="49.67586" lon="5.07188">
        <ele>162</ele>
        <time>2020-06-25T15:36:57Z</time>
      </trkpt>
      <trkpt lat="49.67587" lon="5.07196">
        <ele>162</ele>
        <time>2020-06-25T15:36:58Z</time>
      </trkpt>
      <trkpt lat="49.67587" lon="5.07205">
        <ele>162</ele>
        <time>2020-06-25T15:36:59Z</time>
      </trkpt>
      <trkpt lat="49.67588" lon="5.07215">
        <ele>161.9</ele>
        <time>2020-06-25T15:37:00Z</time>
      </trkpt>
      <trkpt lat="49.67588" lon="5.07224">
        <ele>161.9</ele>
        <time>2020-06-25T15:37:01Z</time>
      </trkpt>
      <trkpt lat="49.67589" lon="5.07233">
        <ele>161.9</ele>
        <time>2020-06-25T15:37:02Z</time>
      </trkpt>
      <trkpt lat="49.67589" lon="5.07241">
        <ele>161.9</ele>
        <time>2020-06-25T15:37:03Z</time>
      </trkpt>
      <trkpt lat="49.6759" lon="5.0725">
        <ele>161.9</ele>
        <time>2020-06-25T15:37:04Z</time>
      </trkpt>
      <trkpt lat="49.67591" lon="5.07259">
        <ele>162</ele>
        <time>2020-06-25T15:37:05Z</time>
      </trkpt>
      <trkpt lat="49.67592" lon="5.07267">
        <ele>162.1</ele>
        <time>2020-06-25T15:37:06Z</time>
      </trkpt>
      <trkpt lat="49.67592" lon="5.07276">
        <ele>162.1</ele>
        <time>2020-06-25T15:37:07Z</time>
      </trkpt>
      <trkpt lat="49.67591" lon="5.07285">
        <ele>162.1</ele>
        <time>2020-06-25T15:37:08Z</time>
      </trkpt>
      <trkpt lat="49.67589" lon="5.07295">
        <ele>162.1</ele>
        <time>2020-06-25T15:37:09Z</time>
      </trkpt>
      <trkpt lat="49.67589" lon="5.07304">
        <ele>162</ele>
        <time>2020-06-25T15:37:10Z</time>
      </trkpt>
      <trkpt lat="49.67589" lon="5.07312">
        <ele>162</ele>
        <time>2020-06-25T15:37:11Z</time>
      </trkpt>
      <trkpt lat="49.67589" lon="5.07321">
        <ele>162</ele>
        <time>2020-06-25T15:37:12Z</time>
      </trkpt>
      <trkpt lat="49.67589" lon="5.0733">
        <ele>162</ele>
        <time>2020-06-25T15:37:13Z</time>
      </trkpt>
      <trkpt lat="49.67588" lon="5.07339">
        <ele>162.1</ele>
        <time>2020-06-25T15:37:14Z</time>
      </trkpt>
      <trkpt lat="49.67588" lon="5.07348">
        <ele>162.1</ele>
        <time>2020-06-25T15:37:15Z</time>
      </trkpt>
      <trkpt lat="49.67588" lon="5.07356">
        <ele>162.2</ele>
        <time>2020-06-25T15:37:16Z</time>
      </trkpt>
      <trkpt lat="49.67589" lon="5.07365">
        <ele>162.2</ele>
        <time>2020-06-25T15:37:17Z</time>
      </trkpt>
      <trkpt lat="49.67589" lon="5.07374">
        <ele>162.3</ele>
        <time>2020-06-25T15:37:18Z</time>
      </trkpt>
      <trkpt lat="49.67589" lon="5.07383">
        <ele>162.3</ele>
        <time>2020-06-25T15:37:19Z</time>
      </trkpt>
      <trkpt lat="49.6759" lon="5.07392">
        <ele>162.4</ele>
        <time>2020-06-25T15:37:20Z</time>
      </trkpt>
      <trkpt lat="49.67589" lon="5.07401">
        <ele>162.5</ele>
        <time>2020-06-25T15:37:21Z</time>
      </trkpt>
      <trkpt lat="49.67588" lon="5.07409">
        <ele>162.6</ele>
        <time>2020-06-25T15:37:22Z</time>
      </trkpt>
      <trkpt lat="49.67588" lon="5.07418">
        <ele>162.7</ele>
        <time>2020-06-25T15:37:23Z</time>
      </trkpt>
      <trkpt lat="49.67588" lon="5.07427">
        <ele>162.9</ele>
        <time>2020-06-25T15:37:24Z</time>
      </trkpt>
      <trkpt lat="49.67587" lon="5.07436">
        <ele>163</ele>
        <time>2020-06-25T15:37:25Z</time>
      </trkpt>
      <trkpt lat="49.67587" lon="5.07445">
        <ele>163</ele>
        <time>2020-06-25T15:37:26Z</time>
      </trkpt>
      <trkpt lat="49.67587" lon="5.07454">
        <ele>163.1</ele>
        <time>2020-06-25T15:37:27Z</time>
      </trkpt>
      <trkpt lat="49.67587" lon="5.07465">
        <ele>163.1</ele>
        <time>2020-06-25T15:37:28Z</time>
      </trkpt>
      <trkpt lat="49.67586" lon="5.07474">
        <ele>163.2</ele>
        <time>2020-06-25T15:37:29Z</time>
      </trkpt>
      <trkpt lat="49.67587" lon="5.07485">
        <ele>163.4</ele>
        <time>2020-06-25T15:37:30Z</time>
      </trkpt>
      <trkpt lat="49.67587" lon="5.07496">
        <ele>163.6</ele>
        <time>2020-06-25T15:37:31Z</time>
      </trkpt>
      <trkpt lat="49.67586" lon="5.07506">
        <ele>163.7</ele>
        <time>2020-06-25T15:37:32Z</time>
      </trkpt>
      <trkpt lat="49.67588" lon="5.07514">
        <ele>163.9</ele>
        <time>2020-06-25T15:37:33Z</time>
      </trkpt>
      <trkpt lat="49.67588" lon="5.07524">
        <ele>164</ele>
        <time>2020-06-25T15:37:34Z</time>
      </trkpt>
      <trkpt lat="49.67589" lon="5.07535">
        <ele>164.1</ele>
        <time>2020-06-25T15:37:35Z</time>
      </trkpt>
      <trkpt lat="49.67589" lon="5.07546">
        <ele>164.1</ele>
        <time>2020-06-25T15:37:36Z</time>
      </trkpt>
      <trkpt lat="49.67589" lon="5.07555">
        <ele>164.1</ele>
        <time>2020-06-25T15:37:37Z</time>
      </trkpt>
      <trkpt lat="49.6759" lon="5.07564">
        <ele>164.1</ele>
        <time>2020-06-25T15:37:38Z</time>
      </trkpt>
      <trkpt lat="49.6759" lon="5.07574">
        <ele>164.1</ele>
        <time>2020-06-25T15:37:39Z</time>
      </trkpt>
      <trkpt lat="49.6759" lon="5.07582">
        <ele>164.2</ele>
        <time>2020-06-25T15:37:40Z</time>
      </trkpt>
      <trkpt lat="49.67591" lon="5.07591">
        <ele>164.3</ele>
        <time>2020-06-25T15:37:41Z</time>
      </trkpt>
      <trkpt lat="49.67592" lon="5.07599">
        <ele>164.3</ele>
        <time>2020-06-25T15:37:42Z</time>
      </trkpt>
      <trkpt lat="49.67592" lon="5.07607">
        <ele>164.4</ele>
        <time>2020-06-25T15:37:43Z</time>
      </trkpt>
      <trkpt lat="49.67592" lon="5.07614">
        <ele>164.5</ele>
        <time>2020-06-25T15:37:44Z</time>
      </trkpt>
      <trkpt lat="49.67592" lon="5.07622">
        <ele>164.6</ele>
        <time>2020-06-25T15:37:45Z</time>
      </trkpt>
      <trkpt lat="49.67592" lon="5.0763">
        <ele>164.8</ele>
        <time>2020-06-25T15:37:46Z</time>
      </trkpt>
      <trkpt lat="49.67592" lon="5.07639">
        <ele>164.9</ele>
        <time>2020-06-25T15:37:47Z</time>
      </trkpt>
      <trkpt lat="49.67592" lon="5.07648">
        <ele>165</ele>
        <time>2020-06-25T15:37:48Z</time>
      </trkpt>
      <trkpt lat="49.67592" lon="5.07657">
        <ele>165.1</ele>
        <time>2020-06-25T15:37:49Z</time>
      </trkpt>
      <trkpt lat="49.67593" lon="5.07666">
        <ele>165.1</ele>
        <time>2020-06-25T15:37:50Z</time>
      </trkpt>
      <trkpt lat="49.67593" lon="5.07673">
        <ele>165.2</ele>
        <time>2020-06-25T15:37:51Z</time>
      </trkpt>
      <trkpt lat="49.67593" lon="5.07683">
        <ele>165.4</ele>
        <time>2020-06-25T15:37:52Z</time>
      </trkpt>
      <trkpt lat="49.67593" lon="5.07692">
        <ele>165.5</ele>
        <time>2020-06-25T15:37:53Z</time>
      </trkpt>
      <trkpt lat="49.67593" lon="5.07701">
        <ele>165.7</ele>
        <time>2020-06-25T15:37:54Z</time>
      </trkpt>
      <trkpt lat="49.67593" lon="5.07708">
        <ele>165.8</ele>
        <time>2020-06-25T15:37:55Z</time>
      </trkpt>
      <trkpt lat="49.67593" lon="5.07716">
        <ele>165.9</ele>
        <time>2020-06-25T15:37:56Z</time>
      </trkpt>
      <trkpt lat="49.67593" lon="5.07724">
        <ele>165.9</ele>
        <time>2020-06-25T15:37:57Z</time>
      </trkpt>
      <trkpt lat="49.67593" lon="5.07731">
        <ele>166</ele>
        <time>2020-06-25T15:37:58Z</time>
      </trkpt>
      <trkpt lat="49.67592" lon="5.07738">
        <ele>166</ele>
        <time>2020-06-25T15:37:59Z</time>
      </trkpt>
      <trkpt lat="49.67592" lon="5.07745">
        <ele>166.1</ele>
        <time>2020-06-25T15:38:00Z</time>
      </trkpt>
      <trkpt lat="49.67592" lon="5.07753">
        <ele>166.3</ele>
        <time>2020-06-25T15:38:01Z</time>
      </trkpt>
      <trkpt lat="49.67591" lon="5.07763">
        <ele>166.6</ele>
        <time>2020-06-25T15:38:02Z</time>
      </trkpt>
      <trkpt lat="49.67591" lon="5.0777">
        <ele>167</ele>
        <time>2020-06-25T15:38:03Z</time>
      </trkpt>
      <trkpt lat="49.67592" lon="5.07779">
        <ele>167.4</ele>
        <time>2020-06-25T15:38:04Z</time>
      </trkpt>
      <trkpt lat="49.67591" lon="5.07786">
        <ele>167.8</ele>
        <time>2020-06-25T15:38:05Z</time>
      </trkpt>
      <trkpt lat="49.67591" lon="5.07793">
        <ele>168.2</ele>
        <time>2020-06-25T15:38:06Z</time>
      </trkpt>
      <trkpt lat="49.67592" lon="5.07801">
        <ele>169.1</ele>
        <time>2020-06-25T15:38:07Z</time>
      </trkpt>
      <trkpt lat="49.67592" lon="5.0781">
        <ele>169.7</ele>
        <time>2020-06-25T15:38:08Z</time>
      </trkpt>
      <trkpt lat="49.67592" lon="5.07818">
        <ele>170</ele>
        <time>2020-06-25T15:38:09Z</time>
      </trkpt>
      <trkpt lat="49.67592" lon="5.07826">
        <ele>170.1</ele>
        <time>2020-06-25T15:38:10Z</time>
      </trkpt>
      <trkpt lat="49.67591" lon="5.07834">
        <ele>170.1</ele>
        <time>2020-06-25T15:38:11Z</time>
      </trkpt>
      <trkpt lat="49.67591" lon="5.07842">
        <ele>170.1</ele>
        <time>2020-06-25T15:38:12Z</time>
      </trkpt>
      <trkpt lat="49.67591" lon="5.07849">
        <ele>170.1</ele>
        <time>2020-06-25T15:38:13Z</time>
      </trkpt>
      <trkpt lat="49.67591" lon="5.07857">
        <ele>170.1</ele>
        <time>2020-06-25T15:38:14Z</time>
      </trkpt>
      <trkpt lat="49.67591" lon="5.07866">
        <ele>170.2</ele>
        <time>2020-06-25T15:38:15Z</time>
      </trkpt>
      <trkpt lat="49.67591" lon="5.07874">
        <ele>170.2</ele>
        <time>2020-06-25T15:38:16Z</time>
      </trkpt>
      <trkpt lat="49.67592" lon="5.07881">
        <ele>170.1</ele>
        <time>2020-06-25T15:38:17Z</time>
      </trkpt>
      <trkpt lat="49.67591" lon="5.07888">
        <ele>170.1</ele>
        <time>2020-06-25T15:38:18Z</time>
      </trkpt>
      <trkpt lat="49.67591" lon="5.07897">
        <ele>170</ele>
        <time>2020-06-25T15:38:19Z</time>
      </trkpt>
      <trkpt lat="49.67591" lon="5.07906">
        <ele>170</ele>
        <time>2020-06-25T15:38:20Z</time>
      </trkpt>
      <trkpt lat="49.6759" lon="5.07917">
        <ele>169.9</ele>
        <time>2020-06-25T15:38:21Z</time>
      </trkpt>
      <trkpt lat="49.6759" lon="5.07924">
        <ele>169.9</ele>
        <time>2020-06-25T15:38:22Z</time>
      </trkpt>
      <trkpt lat="49.6759" lon="5.07934">
        <ele>169.9</ele>
        <time>2020-06-25T15:38:23Z</time>
      </trkpt>
      <trkpt lat="49.67591" lon="5.07943">
        <ele>169.8</ele>
        <time>2020-06-25T15:38:24Z</time>
      </trkpt>
      <trkpt lat="49.67592" lon="5.07951">
        <ele>169.7</ele>
        <time>2020-06-25T15:38:25Z</time>
      </trkpt>
      <trkpt lat="49.67592" lon="5.07958">
        <ele>169.7</ele>
        <time>2020-06-25T15:38:26Z</time>
      </trkpt>
      <trkpt lat="49.67593" lon="5.07965">
        <ele>169.6</ele>
        <time>2020-06-25T15:38:27Z</time>
      </trkpt>
      <trkpt lat="49.67593" lon="5.07971">
        <ele>169.5</ele>
        <time>2020-06-25T15:38:28Z</time>
      </trkpt>
      <trkpt lat="49.67592" lon="5.07979">
        <ele>169.5</ele>
        <time>2020-06-25T15:38:29Z</time>
      </trkpt>
      <trkpt lat="49.67591" lon="5.07985">
        <ele>169.4</ele>
        <time>2020-06-25T15:38:30Z</time>
      </trkpt>
      <trkpt lat="49.67591" lon="5.07993">
        <ele>169.4</ele>
        <time>2020-06-25T15:38:31Z</time>
      </trkpt>
      <trkpt lat="49.67591" lon="5.07999">
        <ele>169.4</ele>
        <time>2020-06-25T15:38:32Z</time>
      </trkpt>
      <trkpt lat="49.67591" lon="5.08006">
        <ele>169.4</ele>
        <time>2020-06-25T15:38:33Z</time>
      </trkpt>
      <trkpt lat="49.6759" lon="5.08011">
        <ele>169.4</ele>
        <time>2020-06-25T15:38:34Z</time>
      </trkpt>
      <trkpt lat="49.67589" lon="5.08016">
        <ele>169.4</ele>
        <time>2020-06-25T15:38:35Z</time>
      </trkpt>
      <trkpt lat="49.67589" lon="5.08022">
        <ele>169.3</ele>
        <time>2020-06-25T15:38:36Z</time>
      </trkpt>
      <trkpt lat="49.67588" lon="5.08025">
        <ele>169.2</ele>
        <time>2020-06-25T15:38:37Z</time>
      </trkpt>
      <trkpt lat="49.67588" lon="5.08026">
        <ele>169.2</ele>
        <time>2020-06-25T15:38:38Z</time>
      </trkpt>
      <trkpt lat="49.67587" lon="5.08029">
        <ele>169.1</ele>
        <time>2020-06-25T15:38:39Z</time>
      </trkpt>
      <trkpt lat="49.67587" lon="5.08029">
        <ele>169.1</ele>
        <time>2020-06-25T15:38:40Z</time>
      </trkpt>
      <trkpt lat="49.67587" lon="5.08029">
        <ele>169.1</ele>
        <time>2020-06-25T15:38:41Z</time>
      </trkpt>
      <trkpt lat="49.67587" lon="5.08029">
        <ele>169.1</ele>
        <time>2020-06-25T15:38:42Z</time>
      </trkpt>
      <trkpt lat="49.67587" lon="5.08029">
        <ele>169.1</ele>
        <time>2020-06-25T15:38:43Z</time>
      </trkpt>
      <trkpt lat="49.67587" lon="5.08029">
        <ele>169.1</ele>
        <time>2020-06-25T15:38:44Z</time>
      </trkpt>
      <trkpt lat="49.67587" lon="5.08029">
        <ele>169.1</ele>
        <time>2020-06-25T15:38:45Z</time>
      </trkpt>
      <trkpt lat="49.67587" lon="5.08029">
        <ele>169.1</ele>
        <time>2020-06-25T15:38:46Z</time>
      </trkpt>
      <trkpt lat="49.67587" lon="5.08029">
        <ele>169</ele>
        <time>2020-06-25T15:38:47Z</time>
      </trkpt>
      <trkpt lat="49.67587" lon="5.08029">
        <ele>169</ele>
        <time>2020-06-25T15:38:48Z</time>
      </trkpt>
      <trkpt lat="49.67587" lon="5.08028">
        <ele>169</ele>
        <time>2020-06-25T15:38:49Z</time>
      </trkpt>
      <trkpt lat="49.67588" lon="5.08027">
        <ele>169</ele>
        <time>2020-06-25T15:38:50Z</time>
      </trkpt>
      <trkpt lat="49.67588" lon="5.08029">
        <ele>168.9</ele>
        <time>2020-06-25T15:38:51Z</time>
      </trkpt>
      <trkpt lat="49.67588" lon="5.08029">
        <ele>168.9</ele>
        <time>2020-06-25T15:38:52Z</time>
      </trkpt>
      <trkpt lat="49.67587" lon="5.08031">
        <ele>168.9</ele>
        <time>2020-06-25T15:38:53Z</time>
      </trkpt>
      <trkpt lat="49.67587" lon="5.08034">
        <ele>168.8</ele>
        <time>2020-06-25T15:38:54Z</time>
      </trkpt>
      <trkpt lat="49.67587" lon="5.08036">
        <ele>168.8</ele>
        <time>2020-06-25T15:38:55Z</time>
      </trkpt>
      <trkpt lat="49.67587" lon="5.08037">
        <ele>168.7</ele>
        <time>2020-06-25T15:38:56Z</time>
      </trkpt>
      <trkpt lat="49.67586" lon="5.0804">
        <ele>168.7</ele>
        <time>2020-06-25T15:38:57Z</time>
      </trkpt>
      <trkpt lat="49.67587" lon="5.08042">
        <ele>168.6</ele>
        <time>2020-06-25T15:38:58Z</time>
      </trkpt>
      <trkpt lat="49.67587" lon="5.08047">
        <ele>168.5</ele>
        <time>2020-06-25T15:38:59Z</time>
      </trkpt>
      <trkpt lat="49.67587" lon="5.08049">
        <ele>168.5</ele>
        <time>2020-06-25T15:39:00Z</time>
      </trkpt>
      <trkpt lat="49.67587" lon="5.08053">
        <ele>168.4</ele>
        <time>2020-06-25T15:39:01Z</time>
      </trkpt>
      <trkpt lat="49.67587" lon="5.08058">
        <ele>168.3</ele>
        <time>2020-06-25T15:39:02Z</time>
      </trkpt>
      <trkpt lat="49.67587" lon="5.08062">
        <ele>168.2</ele>
        <time>2020-06-25T15:39:03Z</time>
      </trkpt>
      <trkpt lat="49.67587" lon="5.08069">
        <ele>168.1</ele>
        <time>2020-06-25T15:39:04Z</time>
      </trkpt>
      <trkpt lat="49.67587" lon="5.08076">
        <ele>168</ele>
        <time>2020-06-25T15:39:05Z</time>
      </trkpt>
      <trkpt lat="49.67587" lon="5.08081">
        <ele>167.9</ele>
        <time>2020-06-25T15:39:06Z</time>
      </trkpt>
      <trkpt lat="49.67588" lon="5.08087">
        <ele>167.8</ele>
        <time>2020-06-25T15:39:07Z</time>
      </trkpt>
      <trkpt lat="49.67588" lon="5.08092">
        <ele>167.8</ele>
        <time>2020-06-25T15:39:08Z</time>
      </trkpt>
      <trkpt lat="49.67587" lon="5.08097">
        <ele>167.7</ele>
        <time>2020-06-25T15:39:09Z</time>
      </trkpt>
      <trkpt lat="49.67587" lon="5.08102">
        <ele>167.7</ele>
        <time>2020-06-25T15:39:10Z</time>
      </trkpt>
      <trkpt lat="49.67587" lon="5.08107">
        <ele>167.6</ele>
        <time>2020-06-25T15:39:11Z</time>
      </trkpt>
      <trkpt lat="49.67587" lon="5.08113">
        <ele>167.6</ele>
        <time>2020-06-25T15:39:12Z</time>
      </trkpt>
      <trkpt lat="49.67587" lon="5.08119">
        <ele>167.6</ele>
        <time>2020-06-25T15:39:13Z</time>
      </trkpt>
      <trkpt lat="49.67586" lon="5.08124">
        <ele>167.5</ele>
        <time>2020-06-25T15:39:14Z</time>
      </trkpt>
      <trkpt lat="49.67586" lon="5.08128">
        <ele>167.5</ele>
        <time>2020-06-25T15:39:15Z</time>
      </trkpt>
      <trkpt lat="49.67586" lon="5.08133">
        <ele>167.5</ele>
        <time>2020-06-25T15:39:16Z</time>
      </trkpt>
      <trkpt lat="49.67585" lon="5.0814">
        <ele>167.4</ele>
        <time>2020-06-25T15:39:17Z</time>
      </trkpt>
      <trkpt lat="49.67585" lon="5.08143">
        <ele>167.4</ele>
        <time>2020-06-25T15:39:18Z</time>
      </trkpt>
      <trkpt lat="49.67585" lon="5.08149">
        <ele>167.3</ele>
        <time>2020-06-25T15:39:19Z</time>
      </trkpt>
      <trkpt lat="49.67584" lon="5.08155">
        <ele>167.3</ele>
        <time>2020-06-25T15:39:20Z</time>
      </trkpt>
      <trkpt lat="49.67584" lon="5.08156">
        <ele>167.2</ele>
        <time>2020-06-25T15:39:21Z</time>
      </trkpt>
      <trkpt lat="49.67584" lon="5.08159">
        <ele>167.2</ele>
        <time>2020-06-25T15:39:22Z</time>
      </trkpt>
      <trkpt lat="49.67584" lon="5.08162">
        <ele>167.2</ele>
        <time>2020-06-25T15:39:23Z</time>
      </trkpt>
      <trkpt lat="49.67584" lon="5.08164">
        <ele>167.1</ele>
        <time>2020-06-25T15:39:24Z</time>
      </trkpt>
      <trkpt lat="49.67584" lon="5.08164">
        <ele>167.1</ele>
        <time>2020-06-25T15:39:25Z</time>
      </trkpt>
      <trkpt lat="49.67585" lon="5.08165">
        <ele>167.1</ele>
        <time>2020-06-25T15:39:26Z</time>
      </trkpt>
      <trkpt lat="49.67585" lon="5.08166">
        <ele>167.1</ele>
        <time>2020-06-25T15:39:27Z</time>
      </trkpt>
      <trkpt lat="49.67585" lon="5.08166">
        <ele>167.1</ele>
        <time>2020-06-25T15:39:28Z</time>
      </trkpt>
      <trkpt lat="49.67585" lon="5.08167">
        <ele>167.1</ele>
        <time>2020-06-25T15:39:29Z</time>
      </trkpt>
      <trkpt lat="49.67585" lon="5.08172">
        <ele>167</ele>
        <time>2020-06-25T15:39:30Z</time>
      </trkpt>
      <trkpt lat="49.67585" lon="5.08174">
        <ele>167</ele>
        <time>2020-06-25T15:39:31Z</time>
      </trkpt>
      <trkpt lat="49.67585" lon="5.08179">
        <ele>166.9</ele>
        <time>2020-06-25T15:39:32Z</time>
      </trkpt>
      <trkpt lat="49.67585" lon="5.08185">
        <ele>166.8</ele>
        <time>2020-06-25T15:39:33Z</time>
      </trkpt>
      <trkpt lat="49.67585" lon="5.08191">
        <ele>166.7</ele>
        <time>2020-06-25T15:39:34Z</time>
      </trkpt>
      <trkpt lat="49.67584" lon="5.08196">
        <ele>166.6</ele>
        <time>2020-06-25T15:39:35Z</time>
      </trkpt>
      <trkpt lat="49.67584" lon="5.08204">
        <ele>166.5</ele>
        <time>2020-06-25T15:39:36Z</time>
      </trkpt>
      <trkpt lat="49.67583" lon="5.08211">
        <ele>166.3</ele>
        <time>2020-06-25T15:39:37Z</time>
      </trkpt>
      <trkpt lat="49.67583" lon="5.08219">
        <ele>166.2</ele>
        <time>2020-06-25T15:39:38Z</time>
      </trkpt>
      <trkpt lat="49.67582" lon="5.08228">
        <ele>166</ele>
        <time>2020-06-25T15:39:39Z</time>
      </trkpt>
      <trkpt lat="49.67582" lon="5.08237">
        <ele>165.8</ele>
        <time>2020-06-25T15:39:40Z</time>
      </trkpt>
      <trkpt lat="49.67582" lon="5.08247">
        <ele>165.7</ele>
        <time>2020-06-25T15:39:41Z</time>
      </trkpt>
      <trkpt lat="49.67582" lon="5.08256">
        <ele>165.5</ele>
        <time>2020-06-25T15:39:42Z</time>
      </trkpt>
      <trkpt lat="49.67582" lon="5.08265">
        <ele>165.4</ele>
        <time>2020-06-25T15:39:43Z</time>
      </trkpt>
      <trkpt lat="49.67581" lon="5.08274">
        <ele>165.3</ele>
        <time>2020-06-25T15:39:44Z</time>
      </trkpt>
      <trkpt lat="49.67581" lon="5.08283">
        <ele>165.2</ele>
        <time>2020-06-25T15:39:45Z</time>
      </trkpt>
      <trkpt lat="49.67581" lon="5.08293">
        <ele>165.1</ele>
        <time>2020-06-25T15:39:46Z</time>
      </trkpt>
      <trkpt lat="49.6758" lon="5.08303">
        <ele>165.1</ele>
        <time>2020-06-25T15:39:47Z</time>
      </trkpt>
      <trkpt lat="49.6758" lon="5.08313">
        <ele>165</ele>
        <time>2020-06-25T15:39:48Z</time>
      </trkpt>
      <trkpt lat="49.67579" lon="5.08322">
        <ele>165</ele>
        <time>2020-06-25T15:39:49Z</time>
      </trkpt>
      <trkpt lat="49.67579" lon="5.08331">
        <ele>165</ele>
        <time>2020-06-25T15:39:50Z</time>
      </trkpt>
      <trkpt lat="49.67579" lon="5.0834">
        <ele>165</ele>
        <time>2020-06-25T15:39:51Z</time>
      </trkpt>
      <trkpt lat="49.67579" lon="5.0835">
        <ele>165</ele>
        <time>2020-06-25T15:39:52Z</time>
      </trkpt>
      <trkpt lat="49.67578" lon="5.08359">
        <ele>165.1</ele>
        <time>2020-06-25T15:39:53Z</time>
      </trkpt>
      <trkpt lat="49.67577" lon="5.08368">
        <ele>165.2</ele>
        <time>2020-06-25T15:39:54Z</time>
      </trkpt>
      <trkpt lat="49.67575" lon="5.08377">
        <ele>165.3</ele>
        <time>2020-06-25T15:39:55Z</time>
      </trkpt>
      <trkpt lat="49.67575" lon="5.08386">
        <ele>165.5</ele>
        <time>2020-06-25T15:39:56Z</time>
      </trkpt>
      <trkpt lat="49.67574" lon="5.08394">
        <ele>165.5</ele>
        <time>2020-06-25T15:39:57Z</time>
      </trkpt>
      <trkpt lat="49.67575" lon="5.08401">
        <ele>165.6</ele>
        <time>2020-06-25T15:39:58Z</time>
      </trkpt>
      <trkpt lat="49.67575" lon="5.08411">
        <ele>165.7</ele>
        <time>2020-06-25T15:39:59Z</time>
      </trkpt>
      <trkpt lat="49.67575" lon="5.08419">
        <ele>165.8</ele>
        <time>2020-06-25T15:40:00Z</time>
      </trkpt>
      <trkpt lat="49.67574" lon="5.08426">
        <ele>165.9</ele>
        <time>2020-06-25T15:40:01Z</time>
      </trkpt>
      <trkpt lat="49.67574" lon="5.08433">
        <ele>166.2</ele>
        <time>2020-06-25T15:40:02Z</time>
      </trkpt>
      <trkpt lat="49.67574" lon="5.08439">
        <ele>166.1</ele>
        <time>2020-06-25T15:40:03Z</time>
      </trkpt>
      <trkpt lat="49.67574" lon="5.08445">
        <ele>166.1</ele>
        <time>2020-06-25T15:40:04Z</time>
      </trkpt>
      <trkpt lat="49.67578" lon="5.08447">
        <ele>166.1</ele>
        <time>2020-06-25T15:40:05Z</time>
      </trkpt>
      <trkpt lat="49.6758" lon="5.08447">
        <ele>166.1</ele>
        <time>2020-06-25T15:40:06Z</time>
      </trkpt>
      <trkpt lat="49.67583" lon="5.08445">
        <ele>166</ele>
        <time>2020-06-25T15:40:07Z</time>
      </trkpt>
      <trkpt lat="49.67588" lon="5.08445">
        <ele>166</ele>
        <time>2020-06-25T15:40:08Z</time>
      </trkpt>
      <trkpt lat="49.67591" lon="5.08442">
        <ele>165.9</ele>
        <time>2020-06-25T15:40:09Z</time>
      </trkpt>
      <trkpt lat="49.67596" lon="5.08439">
        <ele>165.9</ele>
        <time>2020-06-25T15:40:10Z</time>
      </trkpt>
      <trkpt lat="49.67601" lon="5.08434">
        <ele>165.8</ele>
        <time>2020-06-25T15:40:11Z</time>
      </trkpt>
      <trkpt lat="49.67606" lon="5.08427">
        <ele>165.7</ele>
        <time>2020-06-25T15:40:12Z</time>
      </trkpt>
      <trkpt lat="49.67612" lon="5.08421">
        <ele>165.6</ele>
        <time>2020-06-25T15:40:13Z</time>
      </trkpt>
      <trkpt lat="49.67617" lon="5.08416">
        <ele>165.6</ele>
        <time>2020-06-25T15:40:14Z</time>
      </trkpt>
      <trkpt lat="49.67623" lon="5.08412">
        <ele>165.5</ele>
        <time>2020-06-25T15:40:15Z</time>
      </trkpt>
      <trkpt lat="49.67627" lon="5.08408">
        <ele>165.5</ele>
        <time>2020-06-25T15:40:16Z</time>
      </trkpt>
      <trkpt lat="49.67632" lon="5.08404">
        <ele>165.5</ele>
        <time>2020-06-25T15:40:17Z</time>
      </trkpt>
      <trkpt lat="49.67638" lon="5.084">
        <ele>165.4</ele>
        <time>2020-06-25T15:40:18Z</time>
      </trkpt>
      <trkpt lat="49.67643" lon="5.08395">
        <ele>165.4</ele>
        <time>2020-06-25T15:40:19Z</time>
      </trkpt>
      <trkpt lat="49.67648" lon="5.0839">
        <ele>165.4</ele>
        <time>2020-06-25T15:40:20Z</time>
      </trkpt>
      <trkpt lat="49.67653" lon="5.08384">
        <ele>165.3</ele>
        <time>2020-06-25T15:40:21Z</time>
      </trkpt>
      <trkpt lat="49.67659" lon="5.08379">
        <ele>165.3</ele>
        <time>2020-06-25T15:40:22Z</time>
      </trkpt>
      <trkpt lat="49.67663" lon="5.08375">
        <ele>165.3</ele>
        <time>2020-06-25T15:40:23Z</time>
      </trkpt>
      <trkpt lat="49.67668" lon="5.08371">
        <ele>165.3</ele>
        <time>2020-06-25T15:40:24Z</time>
      </trkpt>
      <trkpt lat="49.67674" lon="5.08367">
        <ele>165.3</ele>
        <time>2020-06-25T15:40:25Z</time>
      </trkpt>
      <trkpt lat="49.67679" lon="5.08363">
        <ele>165.3</ele>
        <time>2020-06-25T15:40:26Z</time>
      </trkpt>
      <trkpt lat="49.67683" lon="5.08359">
        <ele>165.4</ele>
        <time>2020-06-25T15:40:27Z</time>
      </trkpt>
      <trkpt lat="49.67688" lon="5.08356">
        <ele>165.4</ele>
        <time>2020-06-25T15:40:28Z</time>
      </trkpt>
      <trkpt lat="49.67693" lon="5.08353">
        <ele>165.4</ele>
        <time>2020-06-25T15:40:29Z</time>
      </trkpt>
      <trkpt lat="49.67699" lon="5.08351">
        <ele>165.5</ele>
        <time>2020-06-25T15:40:30Z</time>
      </trkpt>
      <trkpt lat="49.67705" lon="5.0835">
        <ele>165.5</ele>
        <time>2020-06-25T15:40:31Z</time>
      </trkpt>
      <trkpt lat="49.67709" lon="5.08348">
        <ele>165.5</ele>
        <time>2020-06-25T15:40:32Z</time>
      </trkpt>
      <trkpt lat="49.67714" lon="5.08345">
        <ele>165.6</ele>
        <time>2020-06-25T15:40:33Z</time>
      </trkpt>
      <trkpt lat="49.67719" lon="5.08344">
        <ele>165.6</ele>
        <time>2020-06-25T15:40:34Z</time>
      </trkpt>
      <trkpt lat="49.67724" lon="5.08341">
        <ele>165.6</ele>
        <time>2020-06-25T15:40:35Z</time>
      </trkpt>
      <trkpt lat="49.6773" lon="5.08339">
        <ele>165.7</ele>
        <time>2020-06-25T15:40:36Z</time>
      </trkpt>
      <trkpt lat="49.67735" lon="5.08337">
        <ele>165.7</ele>
        <time>2020-06-25T15:40:37Z</time>
      </trkpt>
      <trkpt lat="49.6774" lon="5.08335">
        <ele>165.8</ele>
        <time>2020-06-25T15:40:38Z</time>
      </trkpt>
      <trkpt lat="49.67743" lon="5.08333">
        <ele>165.8</ele>
        <time>2020-06-25T15:40:39Z</time>
      </trkpt>
      <trkpt lat="49.67748" lon="5.08332">
        <ele>165.9</ele>
        <time>2020-06-25T15:40:40Z</time>
      </trkpt>
      <trkpt lat="49.67751" lon="5.08334">
        <ele>165.9</ele>
        <time>2020-06-25T15:40:41Z</time>
      </trkpt>
      <trkpt lat="49.67754" lon="5.08339">
        <ele>166.1</ele>
        <time>2020-06-25T15:40:42Z</time>
      </trkpt>
      <trkpt lat="49.67757" lon="5.08346">
        <ele>166.2</ele>
        <time>2020-06-25T15:40:43Z</time>
      </trkpt>
      <trkpt lat="49.67761" lon="5.08352">
        <ele>166.1</ele>
        <time>2020-06-25T15:40:44Z</time>
      </trkpt>
      <trkpt lat="49.67763" lon="5.08359">
        <ele>166</ele>
        <time>2020-06-25T15:40:45Z</time>
      </trkpt>
      <trkpt lat="49.67766" lon="5.08365">
        <ele>166</ele>
        <time>2020-06-25T15:40:46Z</time>
      </trkpt>
      <trkpt lat="49.67769" lon="5.08371">
        <ele>166</ele>
        <time>2020-06-25T15:40:47Z</time>
      </trkpt>
      <trkpt lat="49.67771" lon="5.08378">
        <ele>166</ele>
        <time>2020-06-25T15:40:48Z</time>
      </trkpt>
      <trkpt lat="49.67774" lon="5.08385">
        <ele>166.1</ele>
        <time>2020-06-25T15:40:49Z</time>
      </trkpt>
      <trkpt lat="49.67777" lon="5.08392">
        <ele>166.1</ele>
        <time>2020-06-25T15:40:50Z</time>
      </trkpt>
      <trkpt lat="49.67779" lon="5.084">
        <ele>166.1</ele>
        <time>2020-06-25T15:40:51Z</time>
      </trkpt>
      <trkpt lat="49.67782" lon="5.08408">
        <ele>166.2</ele>
        <time>2020-06-25T15:40:52Z</time>
      </trkpt>
      <trkpt lat="49.67784" lon="5.08416">
        <ele>166.3</ele>
        <time>2020-06-25T15:40:53Z</time>
      </trkpt>
      <trkpt lat="49.67787" lon="5.08423">
        <ele>166.3</ele>
        <time>2020-06-25T15:40:54Z</time>
      </trkpt>
      <trkpt lat="49.6779" lon="5.0843">
        <ele>166.4</ele>
        <time>2020-06-25T15:40:55Z</time>
      </trkpt>
      <trkpt lat="49.67792" lon="5.08438">
        <ele>166.5</ele>
        <time>2020-06-25T15:40:56Z</time>
      </trkpt>
      <trkpt lat="49.67796" lon="5.08445">
        <ele>166.6</ele>
        <time>2020-06-25T15:40:57Z</time>
      </trkpt>
      <trkpt lat="49.67799" lon="5.08452">
        <ele>166.7</ele>
        <time>2020-06-25T15:40:58Z</time>
      </trkpt>
      <trkpt lat="49.67801" lon="5.08458">
        <ele>166.8</ele>
        <time>2020-06-25T15:40:59Z</time>
      </trkpt>
      <trkpt lat="49.67803" lon="5.08466">
        <ele>166.9</ele>
        <time>2020-06-25T15:41:00Z</time>
      </trkpt>
      <trkpt lat="49.67805" lon="5.08474">
        <ele>167</ele>
        <time>2020-06-25T15:41:01Z</time>
      </trkpt>
      <trkpt lat="49.67807" lon="5.08481">
        <ele>167</ele>
        <time>2020-06-25T15:41:02Z</time>
      </trkpt>
      <trkpt lat="49.67809" lon="5.08487">
        <ele>167</ele>
        <time>2020-06-25T15:41:03Z</time>
      </trkpt>
      <trkpt lat="49.6781" lon="5.08493">
        <ele>167.1</ele>
        <time>2020-06-25T15:41:04Z</time>
      </trkpt>
      <trkpt lat="49.67812" lon="5.08499">
        <ele>167.4</ele>
        <time>2020-06-25T15:41:05Z</time>
      </trkpt>
      <trkpt lat="49.67813" lon="5.08505">
        <ele>167.6</ele>
        <time>2020-06-25T15:41:06Z</time>
      </trkpt>
      <trkpt lat="49.67815" lon="5.08513">
        <ele>167.8</ele>
        <time>2020-06-25T15:41:07Z</time>
      </trkpt>
      <trkpt lat="49.67816" lon="5.08519">
        <ele>168</ele>
        <time>2020-06-25T15:41:08Z</time>
      </trkpt>
      <trkpt lat="49.67818" lon="5.08524">
        <ele>168.2</ele>
        <time>2020-06-25T15:41:09Z</time>
      </trkpt>
      <trkpt lat="49.67819" lon="5.08529">
        <ele>168.4</ele>
        <time>2020-06-25T15:41:10Z</time>
      </trkpt>
      <trkpt lat="49.67821" lon="5.08535">
        <ele>168.6</ele>
        <time>2020-06-25T15:41:11Z</time>
      </trkpt>
      <trkpt lat="49.67822" lon="5.0854">
        <ele>168.8</ele>
        <time>2020-06-25T15:41:12Z</time>
      </trkpt>
      <trkpt lat="49.67823" lon="5.08545">
        <ele>169.1</ele>
        <time>2020-06-25T15:41:13Z</time>
      </trkpt>
      <trkpt lat="49.67823" lon="5.0855">
        <ele>169.3</ele>
        <time>2020-06-25T15:41:14Z</time>
      </trkpt>
      <trkpt lat="49.67824" lon="5.08556">
        <ele>169.5</ele>
        <time>2020-06-25T15:41:15Z</time>
      </trkpt>
      <trkpt lat="49.67826" lon="5.08561">
        <ele>169.8</ele>
        <time>2020-06-25T15:41:16Z</time>
      </trkpt>
      <trkpt lat="49.67828" lon="5.08568">
        <ele>170.1</ele>
        <time>2020-06-25T15:41:17Z</time>
      </trkpt>
      <trkpt lat="49.67829" lon="5.08574">
        <ele>170.4</ele>
        <time>2020-06-25T15:41:18Z</time>
      </trkpt>
      <trkpt lat="49.6783" lon="5.0858">
        <ele>170.6</ele>
        <time>2020-06-25T15:41:19Z</time>
      </trkpt>
      <trkpt lat="49.67831" lon="5.08586">
        <ele>170.9</ele>
        <time>2020-06-25T15:41:20Z</time>
      </trkpt>
      <trkpt lat="49.67831" lon="5.08592">
        <ele>171.1</ele>
        <time>2020-06-25T15:41:21Z</time>
      </trkpt>
      <trkpt lat="49.67832" lon="5.08598">
        <ele>171.4</ele>
        <time>2020-06-25T15:41:22Z</time>
      </trkpt>
      <trkpt lat="49.67833" lon="5.08604">
        <ele>171.6</ele>
        <time>2020-06-25T15:41:23Z</time>
      </trkpt>
      <trkpt lat="49.67834" lon="5.0861">
        <ele>171.9</ele>
        <time>2020-06-25T15:41:24Z</time>
      </trkpt>
      <trkpt lat="49.67835" lon="5.08616">
        <ele>172.1</ele>
        <time>2020-06-25T15:41:25Z</time>
      </trkpt>
      <trkpt lat="49.67835" lon="5.08623">
        <ele>172.3</ele>
        <time>2020-06-25T15:41:26Z</time>
      </trkpt>
      <trkpt lat="49.67836" lon="5.08629">
        <ele>172.6</ele>
        <time>2020-06-25T15:41:27Z</time>
      </trkpt>
      <trkpt lat="49.67837" lon="5.08635">
        <ele>172.8</ele>
        <time>2020-06-25T15:41:28Z</time>
      </trkpt>
      <trkpt lat="49.67837" lon="5.0864">
        <ele>173</ele>
        <time>2020-06-25T15:41:29Z</time>
      </trkpt>
      <trkpt lat="49.67837" lon="5.08646">
        <ele>173.1</ele>
        <time>2020-06-25T15:41:30Z</time>
      </trkpt>
      <trkpt lat="49.67838" lon="5.08653">
        <ele>173.4</ele>
        <time>2020-06-25T15:41:31Z</time>
      </trkpt>
      <trkpt lat="49.67839" lon="5.0866">
        <ele>173.6</ele>
        <time>2020-06-25T15:41:32Z</time>
      </trkpt>
      <trkpt lat="49.6784" lon="5.08665">
        <ele>173.7</ele>
        <time>2020-06-25T15:41:33Z</time>
      </trkpt>
      <trkpt lat="49.67841" lon="5.0867">
        <ele>173.9</ele>
        <time>2020-06-25T15:41:34Z</time>
      </trkpt>
      <trkpt lat="49.67841" lon="5.08675">
        <ele>174.1</ele>
        <time>2020-06-25T15:41:35Z</time>
      </trkpt>
      <trkpt lat="49.67842" lon="5.0868">
        <ele>174.2</ele>
        <time>2020-06-25T15:41:36Z</time>
      </trkpt>
      <trkpt lat="49.67843" lon="5.08686">
        <ele>174.4</ele>
        <time>2020-06-25T15:41:37Z</time>
      </trkpt>
      <trkpt lat="49.67844" lon="5.08691">
        <ele>174.5</ele>
        <time>2020-06-25T15:41:38Z</time>
      </trkpt>
      <trkpt lat="49.67845" lon="5.08697">
        <ele>174.7</ele>
        <time>2020-06-25T15:41:39Z</time>
      </trkpt>
      <trkpt lat="49.67845" lon="5.08702">
        <ele>174.8</ele>
        <time>2020-06-25T15:41:40Z</time>
      </trkpt>
      <trkpt lat="49.67846" lon="5.08708">
        <ele>174.9</ele>
        <time>2020-06-25T15:41:41Z</time>
      </trkpt>
      <trkpt lat="49.67847" lon="5.08713">
        <ele>175</ele>
        <time>2020-06-25T15:41:42Z</time>
      </trkpt>
      <trkpt lat="49.67847" lon="5.08718">
        <ele>175.2</ele>
        <time>2020-06-25T15:41:43Z</time>
      </trkpt>
      <trkpt lat="49.67848" lon="5.08724">
        <ele>175.3</ele>
        <time>2020-06-25T15:41:44Z</time>
      </trkpt>
      <trkpt lat="49.67849" lon="5.08729">
        <ele>175.4</ele>
        <time>2020-06-25T15:41:45Z</time>
      </trkpt>
      <trkpt lat="49.67849" lon="5.08734">
        <ele>175.6</ele>
        <time>2020-06-25T15:41:46Z</time>
      </trkpt>
      <trkpt lat="49.6785" lon="5.08738">
        <ele>175.7</ele>
        <time>2020-06-25T15:41:47Z</time>
      </trkpt>
      <trkpt lat="49.67851" lon="5.08743">
        <ele>175.8</ele>
        <time>2020-06-25T15:41:48Z</time>
      </trkpt>
      <trkpt lat="49.67853" lon="5.08749">
        <ele>176</ele>
        <time>2020-06-25T15:41:49Z</time>
      </trkpt>
      <trkpt lat="49.67854" lon="5.08754">
        <ele>176.1</ele>
        <time>2020-06-25T15:41:50Z</time>
      </trkpt>
      <trkpt lat="49.67855" lon="5.0876">
        <ele>176.2</ele>
        <time>2020-06-25T15:41:51Z</time>
      </trkpt>
      <trkpt lat="49.67856" lon="5.08766">
        <ele>176.4</ele>
        <time>2020-06-25T15:41:52Z</time>
      </trkpt>
      <trkpt lat="49.67858" lon="5.08772">
        <ele>176.5</ele>
        <time>2020-06-25T15:41:53Z</time>
      </trkpt>
      <trkpt lat="49.67859" lon="5.08777">
        <ele>176.5</ele>
        <time>2020-06-25T15:41:54Z</time>
      </trkpt>
      <trkpt lat="49.6786" lon="5.08781">
        <ele>176.6</ele>
        <time>2020-06-25T15:41:55Z</time>
      </trkpt>
      <trkpt lat="49.67861" lon="5.08788">
        <ele>176.7</ele>
        <time>2020-06-25T15:41:56Z</time>
      </trkpt>
      <trkpt lat="49.67862" lon="5.0879">
        <ele>176.7</ele>
        <time>2020-06-25T15:41:57Z</time>
      </trkpt>
      <trkpt lat="49.67863" lon="5.08795">
        <ele>176.7</ele>
        <time>2020-06-25T15:41:58Z</time>
      </trkpt>
      <trkpt lat="49.67863" lon="5.08802">
        <ele>176.8</ele>
        <time>2020-06-25T15:41:59Z</time>
      </trkpt>
      <trkpt lat="49.67865" lon="5.08807">
        <ele>176.9</ele>
        <time>2020-06-25T15:42:00Z</time>
      </trkpt>
      <trkpt lat="49.67866" lon="5.08812">
        <ele>176.9</ele>
        <time>2020-06-25T15:42:01Z</time>
      </trkpt>
      <trkpt lat="49.67867" lon="5.08816">
        <ele>177</ele>
        <time>2020-06-25T15:42:02Z</time>
      </trkpt>
      <trkpt lat="49.67868" lon="5.08822">
        <ele>177</ele>
        <time>2020-06-25T15:42:03Z</time>
      </trkpt>
      <trkpt lat="49.67869" lon="5.08825">
        <ele>177</ele>
        <time>2020-06-25T15:42:04Z</time>
      </trkpt>
      <trkpt lat="49.6787" lon="5.08829">
        <ele>177</ele>
        <time>2020-06-25T15:42:05Z</time>
      </trkpt>
      <trkpt lat="49.67871" lon="5.08834">
        <ele>177</ele>
        <time>2020-06-25T15:42:06Z</time>
      </trkpt>
      <trkpt lat="49.67872" lon="5.08838">
        <ele>176.9</ele>
        <time>2020-06-25T15:42:07Z</time>
      </trkpt>
      <trkpt lat="49.67873" lon="5.08842">
        <ele>176.8</ele>
        <time>2020-06-25T15:42:08Z</time>
      </trkpt>
      <trkpt lat="49.67874" lon="5.08847">
        <ele>176.8</ele>
        <time>2020-06-25T15:42:09Z</time>
      </trkpt>
      <trkpt lat="49.67875" lon="5.08852">
        <ele>176.6</ele>
        <time>2020-06-25T15:42:10Z</time>
      </trkpt>
      <trkpt lat="49.67876" lon="5.08858">
        <ele>176.5</ele>
        <time>2020-06-25T15:42:11Z</time>
      </trkpt>
      <trkpt lat="49.67876" lon="5.08863">
        <ele>176.3</ele>
        <time>2020-06-25T15:42:12Z</time>
      </trkpt>
      <trkpt lat="49.67877" lon="5.0887">
        <ele>176.1</ele>
        <time>2020-06-25T15:42:13Z</time>
      </trkpt>
      <trkpt lat="49.67878" lon="5.08877">
        <ele>175.8</ele>
        <time>2020-06-25T15:42:14Z</time>
      </trkpt>
      <trkpt lat="49.67879" lon="5.08884">
        <ele>175.6</ele>
        <time>2020-06-25T15:42:15Z</time>
      </trkpt>
      <trkpt lat="49.6788" lon="5.08893">
        <ele>175.2</ele>
        <time>2020-06-25T15:42:16Z</time>
      </trkpt>
      <trkpt lat="49.67881" lon="5.08902">
        <ele>174.8</ele>
        <time>2020-06-25T15:42:17Z</time>
      </trkpt>
      <trkpt lat="49.67883" lon="5.08912">
        <ele>174.4</ele>
        <time>2020-06-25T15:42:18Z</time>
      </trkpt>
      <trkpt lat="49.67885" lon="5.08922">
        <ele>174</ele>
        <time>2020-06-25T15:42:19Z</time>
      </trkpt>
      <trkpt lat="49.67887" lon="5.08932">
        <ele>173.6</ele>
        <time>2020-06-25T15:42:20Z</time>
      </trkpt>
      <trkpt lat="49.67889" lon="5.08941">
        <ele>173.2</ele>
        <time>2020-06-25T15:42:21Z</time>
      </trkpt>
      <trkpt lat="49.6789" lon="5.08951">
        <ele>172.7</ele>
        <time>2020-06-25T15:42:22Z</time>
      </trkpt>
      <trkpt lat="49.67891" lon="5.08961">
        <ele>172.3</ele>
        <time>2020-06-25T15:42:23Z</time>
      </trkpt>
      <trkpt lat="49.67891" lon="5.08972">
        <ele>171.7</ele>
        <time>2020-06-25T15:42:24Z</time>
      </trkpt>
      <trkpt lat="49.67891" lon="5.08984">
        <ele>171.1</ele>
        <time>2020-06-25T15:42:25Z</time>
      </trkpt>
      <trkpt lat="49.67888" lon="5.08996">
        <ele>170.5</ele>
        <time>2020-06-25T15:42:26Z</time>
      </trkpt>
      <trkpt lat="49.67884" lon="5.09008">
        <ele>169.7</ele>
        <time>2020-06-25T15:42:27Z</time>
      </trkpt>
      <trkpt lat="49.6788" lon="5.09018">
        <ele>169.1</ele>
        <time>2020-06-25T15:42:28Z</time>
      </trkpt>
      <trkpt lat="49.67875" lon="5.0903">
        <ele>168.3</ele>
        <time>2020-06-25T15:42:29Z</time>
      </trkpt>
      <trkpt lat="49.67869" lon="5.09044">
        <ele>167.5</ele>
        <time>2020-06-25T15:42:30Z</time>
      </trkpt>
      <trkpt lat="49.67864" lon="5.09056">
        <ele>167</ele>
        <time>2020-06-25T15:42:31Z</time>
      </trkpt>
      <trkpt lat="49.6786" lon="5.09069">
        <ele>166.6</ele>
        <time>2020-06-25T15:42:32Z</time>
      </trkpt>
      <trkpt lat="49.67858" lon="5.09083">
        <ele>166.3</ele>
        <time>2020-06-25T15:42:33Z</time>
      </trkpt>
      <trkpt lat="49.67858" lon="5.09098">
        <ele>166.1</ele>
        <time>2020-06-25T15:42:34Z</time>
      </trkpt>
      <trkpt lat="49.67858" lon="5.09112">
        <ele>166</ele>
        <time>2020-06-25T15:42:35Z</time>
      </trkpt>
      <trkpt lat="49.67859" lon="5.09125">
        <ele>166</ele>
        <time>2020-06-25T15:42:36Z</time>
      </trkpt>
      <trkpt lat="49.6786" lon="5.09137">
        <ele>166</ele>
        <time>2020-06-25T15:42:37Z</time>
      </trkpt>
      <trkpt lat="49.67862" lon="5.09148">
        <ele>165.9</ele>
        <time>2020-06-25T15:42:38Z</time>
      </trkpt>
      <trkpt lat="49.67864" lon="5.09158">
        <ele>165.9</ele>
        <time>2020-06-25T15:42:39Z</time>
      </trkpt>
      <trkpt lat="49.67866" lon="5.09167">
        <ele>165.9</ele>
        <time>2020-06-25T15:42:40Z</time>
      </trkpt>
      <trkpt lat="49.67867" lon="5.09176">
        <ele>165.9</ele>
        <time>2020-06-25T15:42:41Z</time>
      </trkpt>
      <trkpt lat="49.67868" lon="5.09185">
        <ele>165.9</ele>
        <time>2020-06-25T15:42:42Z</time>
      </trkpt>
      <trkpt lat="49.67869" lon="5.09194">
        <ele>165.9</ele>
        <time>2020-06-25T15:42:43Z</time>
      </trkpt>
      <trkpt lat="49.6787" lon="5.09202">
        <ele>165.9</ele>
        <time>2020-06-25T15:42:44Z</time>
      </trkpt>
      <trkpt lat="49.67871" lon="5.0921">
        <ele>165.9</ele>
        <time>2020-06-25T15:42:45Z</time>
      </trkpt>
      <trkpt lat="49.67872" lon="5.09218">
        <ele>165.8</ele>
        <time>2020-06-25T15:42:46Z</time>
      </trkpt>
      <trkpt lat="49.67872" lon="5.09225">
        <ele>165.8</ele>
        <time>2020-06-25T15:42:47Z</time>
      </trkpt>
      <trkpt lat="49.67873" lon="5.09233">
        <ele>165.7</ele>
        <time>2020-06-25T15:42:48Z</time>
      </trkpt>
      <trkpt lat="49.67875" lon="5.09241">
        <ele>165.6</ele>
        <time>2020-06-25T15:42:49Z</time>
      </trkpt>
      <trkpt lat="49.67876" lon="5.09249">
        <ele>165.6</ele>
        <time>2020-06-25T15:42:50Z</time>
      </trkpt>
      <trkpt lat="49.67878" lon="5.09257">
        <ele>165.6</ele>
        <time>2020-06-25T15:42:51Z</time>
      </trkpt>
      <trkpt lat="49.67881" lon="5.09265">
        <ele>165.5</ele>
        <time>2020-06-25T15:42:52Z</time>
      </trkpt>
      <trkpt lat="49.67884" lon="5.09272">
        <ele>165.4</ele>
        <time>2020-06-25T15:42:53Z</time>
      </trkpt>
      <trkpt lat="49.67889" lon="5.09278">
        <ele>165.1</ele>
        <time>2020-06-25T15:42:54Z</time>
      </trkpt>
      <trkpt lat="49.67894" lon="5.09282">
        <ele>165.1</ele>
        <time>2020-06-25T15:42:55Z</time>
      </trkpt>
      <trkpt lat="49.67899" lon="5.09287">
        <ele>165.1</ele>
        <time>2020-06-25T15:42:56Z</time>
      </trkpt>
      <trkpt lat="49.67904" lon="5.09291">
        <ele>165.1</ele>
        <time>2020-06-25T15:42:57Z</time>
      </trkpt>
      <trkpt lat="49.67909" lon="5.09296">
        <ele>165.1</ele>
        <time>2020-06-25T15:42:58Z</time>
      </trkpt>
      <trkpt lat="49.67915" lon="5.093">
        <ele>165.2</ele>
        <time>2020-06-25T15:42:59Z</time>
      </trkpt>
      <trkpt lat="49.6792" lon="5.09303">
        <ele>165.3</ele>
        <time>2020-06-25T15:43:00Z</time>
      </trkpt>
      <trkpt lat="49.67926" lon="5.09306">
        <ele>165.4</ele>
        <time>2020-06-25T15:43:01Z</time>
      </trkpt>
      <trkpt lat="49.67931" lon="5.09309">
        <ele>165.4</ele>
        <time>2020-06-25T15:43:02Z</time>
      </trkpt>
      <trkpt lat="49.67936" lon="5.09311">
        <ele>165.5</ele>
        <time>2020-06-25T15:43:03Z</time>
      </trkpt>
      <trkpt lat="49.67942" lon="5.09314">
        <ele>165.6</ele>
        <time>2020-06-25T15:43:04Z</time>
      </trkpt>
      <trkpt lat="49.67947" lon="5.09315">
        <ele>165.6</ele>
        <time>2020-06-25T15:43:05Z</time>
      </trkpt>
      <trkpt lat="49.67952" lon="5.09317">
        <ele>165.7</ele>
        <time>2020-06-25T15:43:06Z</time>
      </trkpt>
      <trkpt lat="49.67958" lon="5.09317">
        <ele>165.8</ele>
        <time>2020-06-25T15:43:07Z</time>
      </trkpt>
      <trkpt lat="49.67964" lon="5.09319">
        <ele>165.9</ele>
        <time>2020-06-25T15:43:08Z</time>
      </trkpt>
      <trkpt lat="49.6797" lon="5.0932">
        <ele>165.9</ele>
        <time>2020-06-25T15:43:09Z</time>
      </trkpt>
      <trkpt lat="49.67976" lon="5.0932">
        <ele>166</ele>
        <time>2020-06-25T15:43:10Z</time>
      </trkpt>
      <trkpt lat="49.67982" lon="5.09319">
        <ele>166</ele>
        <time>2020-06-25T15:43:11Z</time>
      </trkpt>
      <trkpt lat="49.67988" lon="5.09317">
        <ele>166.1</ele>
        <time>2020-06-25T15:43:12Z</time>
      </trkpt>
      <trkpt lat="49.67993" lon="5.09315">
        <ele>166.1</ele>
        <time>2020-06-25T15:43:13Z</time>
      </trkpt>
      <trkpt lat="49.67999" lon="5.09313">
        <ele>166.1</ele>
        <time>2020-06-25T15:43:14Z</time>
      </trkpt>
      <trkpt lat="49.68004" lon="5.09311">
        <ele>166.1</ele>
        <time>2020-06-25T15:43:15Z</time>
      </trkpt>
      <trkpt lat="49.68011" lon="5.09309">
        <ele>166.2</ele>
        <time>2020-06-25T15:43:16Z</time>
      </trkpt>
      <trkpt lat="49.68017" lon="5.09307">
        <ele>166.3</ele>
        <time>2020-06-25T15:43:17Z</time>
      </trkpt>
      <trkpt lat="49.68024" lon="5.09305">
        <ele>166.4</ele>
        <time>2020-06-25T15:43:18Z</time>
      </trkpt>
      <trkpt lat="49.68029" lon="5.09303">
        <ele>166.5</ele>
        <time>2020-06-25T15:43:19Z</time>
      </trkpt>
      <trkpt lat="49.68036" lon="5.09301">
        <ele>166.6</ele>
        <time>2020-06-25T15:43:20Z</time>
      </trkpt>
      <trkpt lat="49.68041" lon="5.09299">
        <ele>166.7</ele>
        <time>2020-06-25T15:43:21Z</time>
      </trkpt>
      <trkpt lat="49.68046" lon="5.09297">
        <ele>166.9</ele>
        <time>2020-06-25T15:43:22Z</time>
      </trkpt>
      <trkpt lat="49.68052" lon="5.09296">
        <ele>167</ele>
        <time>2020-06-25T15:43:23Z</time>
      </trkpt>
      <trkpt lat="49.68058" lon="5.09295">
        <ele>167.1</ele>
        <time>2020-06-25T15:43:24Z</time>
      </trkpt>
      <trkpt lat="49.68063" lon="5.09294">
        <ele>167.2</ele>
        <time>2020-06-25T15:43:25Z</time>
      </trkpt>
      <trkpt lat="49.68069" lon="5.09295">
        <ele>167.3</ele>
        <time>2020-06-25T15:43:26Z</time>
      </trkpt>
      <trkpt lat="49.68074" lon="5.09295">
        <ele>167.5</ele>
        <time>2020-06-25T15:43:27Z</time>
      </trkpt>
      <trkpt lat="49.68078" lon="5.09297">
        <ele>167.7</ele>
        <time>2020-06-25T15:43:28Z</time>
      </trkpt>
      <trkpt lat="49.68082" lon="5.09298">
        <ele>167.8</ele>
        <time>2020-06-25T15:43:29Z</time>
      </trkpt>
      <trkpt lat="49.68086" lon="5.09302">
        <ele>168</ele>
        <time>2020-06-25T15:43:30Z</time>
      </trkpt>
      <trkpt lat="49.68088" lon="5.09304">
        <ele>168.1</ele>
        <time>2020-06-25T15:43:31Z</time>
      </trkpt>
      <trkpt lat="49.68092" lon="5.09308">
        <ele>168.3</ele>
        <time>2020-06-25T15:43:32Z</time>
      </trkpt>
      <trkpt lat="49.68095" lon="5.09312">
        <ele>168.6</ele>
        <time>2020-06-25T15:43:33Z</time>
      </trkpt>
      <trkpt lat="49.68098" lon="5.09317">
        <ele>168.8</ele>
        <time>2020-06-25T15:43:34Z</time>
      </trkpt>
      <trkpt lat="49.681" lon="5.09322">
        <ele>169.1</ele>
        <time>2020-06-25T15:43:35Z</time>
      </trkpt>
      <trkpt lat="49.68103" lon="5.09327">
        <ele>169.3</ele>
        <time>2020-06-25T15:43:36Z</time>
      </trkpt>
      <trkpt lat="49.68105" lon="5.09332">
        <ele>169.6</ele>
        <time>2020-06-25T15:43:37Z</time>
      </trkpt>
      <trkpt lat="49.68107" lon="5.09338">
        <ele>169.9</ele>
        <time>2020-06-25T15:43:38Z</time>
      </trkpt>
      <trkpt lat="49.68109" lon="5.09343">
        <ele>170.1</ele>
        <time>2020-06-25T15:43:39Z</time>
      </trkpt>
      <trkpt lat="49.6811" lon="5.09348">
        <ele>170.4</ele>
        <time>2020-06-25T15:43:40Z</time>
      </trkpt>
      <trkpt lat="49.68112" lon="5.09354">
        <ele>170.6</ele>
        <time>2020-06-25T15:43:41Z</time>
      </trkpt>
      <trkpt lat="49.68114" lon="5.0936">
        <ele>171</ele>
        <time>2020-06-25T15:43:42Z</time>
      </trkpt>
      <trkpt lat="49.68116" lon="5.09368">
        <ele>171.4</ele>
        <time>2020-06-25T15:43:43Z</time>
      </trkpt>
      <trkpt lat="49.68118" lon="5.09375">
        <ele>171.7</ele>
        <time>2020-06-25T15:43:44Z</time>
      </trkpt>
      <trkpt lat="49.6812" lon="5.09381">
        <ele>172.1</ele>
        <time>2020-06-25T15:43:45Z</time>
      </trkpt>
      <trkpt lat="49.68123" lon="5.09387">
        <ele>172.4</ele>
        <time>2020-06-25T15:43:46Z</time>
      </trkpt>
      <trkpt lat="49.68124" lon="5.09392">
        <ele>172.7</ele>
        <time>2020-06-25T15:43:47Z</time>
      </trkpt>
      <trkpt lat="49.68126" lon="5.09399">
        <ele>173.1</ele>
        <time>2020-06-25T15:43:48Z</time>
      </trkpt>
      <trkpt lat="49.68128" lon="5.09405">
        <ele>173.4</ele>
        <time>2020-06-25T15:43:49Z</time>
      </trkpt>
      <trkpt lat="49.6813" lon="5.0941">
        <ele>173.7</ele>
        <time>2020-06-25T15:43:50Z</time>
      </trkpt>
      <trkpt lat="49.68132" lon="5.09416">
        <ele>174</ele>
        <time>2020-06-25T15:43:51Z</time>
      </trkpt>
      <trkpt lat="49.68134" lon="5.09422">
        <ele>174.4</ele>
        <time>2020-06-25T15:43:52Z</time>
      </trkpt>
      <trkpt lat="49.68136" lon="5.09427">
        <ele>174.6</ele>
        <time>2020-06-25T15:43:53Z</time>
      </trkpt>
      <trkpt lat="49.68137" lon="5.09433">
        <ele>174.9</ele>
        <time>2020-06-25T15:43:54Z</time>
      </trkpt>
      <trkpt lat="49.68139" lon="5.09439">
        <ele>175.2</ele>
        <time>2020-06-25T15:43:55Z</time>
      </trkpt>
      <trkpt lat="49.6814" lon="5.09445">
        <ele>175.5</ele>
        <time>2020-06-25T15:43:56Z</time>
      </trkpt>
      <trkpt lat="49.68142" lon="5.09452">
        <ele>175.9</ele>
        <time>2020-06-25T15:43:57Z</time>
      </trkpt>
      <trkpt lat="49.68144" lon="5.09457">
        <ele>176.1</ele>
        <time>2020-06-25T15:43:58Z</time>
      </trkpt>
      <trkpt lat="49.68145" lon="5.09464">
        <ele>176.4</ele>
        <time>2020-06-25T15:43:59Z</time>
      </trkpt>
      <trkpt lat="49.68147" lon="5.0947">
        <ele>176.7</ele>
        <time>2020-06-25T15:44:00Z</time>
      </trkpt>
      <trkpt lat="49.68148" lon="5.09476">
        <ele>176.9</ele>
        <time>2020-06-25T15:44:01Z</time>
      </trkpt>
      <trkpt lat="49.6815" lon="5.09482">
        <ele>177.1</ele>
        <time>2020-06-25T15:44:02Z</time>
      </trkpt>
      <trkpt lat="49.68151" lon="5.09488">
        <ele>177.3</ele>
        <time>2020-06-25T15:44:03Z</time>
      </trkpt>
      <trkpt lat="49.68153" lon="5.09493">
        <ele>177.4</ele>
        <time>2020-06-25T15:44:04Z</time>
      </trkpt>
      <trkpt lat="49.68154" lon="5.09498">
        <ele>177.6</ele>
        <time>2020-06-25T15:44:05Z</time>
      </trkpt>
      <trkpt lat="49.68155" lon="5.09503">
        <ele>177.7</ele>
        <time>2020-06-25T15:44:06Z</time>
      </trkpt>
      <trkpt lat="49.68157" lon="5.0951">
        <ele>177.9</ele>
        <time>2020-06-25T15:44:07Z</time>
      </trkpt>
      <trkpt lat="49.68159" lon="5.09516">
        <ele>178</ele>
        <time>2020-06-25T15:44:08Z</time>
      </trkpt>
      <trkpt lat="49.6816" lon="5.0952">
        <ele>178.1</ele>
        <time>2020-06-25T15:44:09Z</time>
      </trkpt>
      <trkpt lat="49.68162" lon="5.09526">
        <ele>178.2</ele>
        <time>2020-06-25T15:44:10Z</time>
      </trkpt>
      <trkpt lat="49.68163" lon="5.0953">
        <ele>178.3</ele>
        <time>2020-06-25T15:44:11Z</time>
      </trkpt>
      <trkpt lat="49.68164" lon="5.09535">
        <ele>178.4</ele>
        <time>2020-06-25T15:44:12Z</time>
      </trkpt>
      <trkpt lat="49.68165" lon="5.09541">
        <ele>178.5</ele>
        <time>2020-06-25T15:44:13Z</time>
      </trkpt>
      <trkpt lat="49.68167" lon="5.09545">
        <ele>178.5</ele>
        <time>2020-06-25T15:44:14Z</time>
      </trkpt>
      <trkpt lat="49.68168" lon="5.09549">
        <ele>178.6</ele>
        <time>2020-06-25T15:44:15Z</time>
      </trkpt>
      <trkpt lat="49.6817" lon="5.09553">
        <ele>178.6</ele>
        <time>2020-06-25T15:44:16Z</time>
      </trkpt>
      <trkpt lat="49.68172" lon="5.09558">
        <ele>178.7</ele>
        <time>2020-06-25T15:44:17Z</time>
      </trkpt>
      <trkpt lat="49.68174" lon="5.09563">
        <ele>178.8</ele>
        <time>2020-06-25T15:44:18Z</time>
      </trkpt>
      <trkpt lat="49.68177" lon="5.09568">
        <ele>178.8</ele>
        <time>2020-06-25T15:44:19Z</time>
      </trkpt>
      <trkpt lat="49.68179" lon="5.09573">
        <ele>178.9</ele>
        <time>2020-06-25T15:44:20Z</time>
      </trkpt>
      <trkpt lat="49.68182" lon="5.09579">
        <ele>178.9</ele>
        <time>2020-06-25T15:44:21Z</time>
      </trkpt>
      <trkpt lat="49.68184" lon="5.09584">
        <ele>179</ele>
        <time>2020-06-25T15:44:22Z</time>
      </trkpt>
      <trkpt lat="49.68186" lon="5.09589">
        <ele>179</ele>
        <time>2020-06-25T15:44:23Z</time>
      </trkpt>
      <trkpt lat="49.68188" lon="5.09594">
        <ele>179</ele>
        <time>2020-06-25T15:44:24Z</time>
      </trkpt>
      <trkpt lat="49.6819" lon="5.09599">
        <ele>179</ele>
        <time>2020-06-25T15:44:25Z</time>
      </trkpt>
      <trkpt lat="49.68193" lon="5.09605">
        <ele>179</ele>
        <time>2020-06-25T15:44:26Z</time>
      </trkpt>
      <trkpt lat="49.68195" lon="5.09612">
        <ele>179</ele>
        <time>2020-06-25T15:44:27Z</time>
      </trkpt>
      <trkpt lat="49.68198" lon="5.09618">
        <ele>178.9</ele>
        <time>2020-06-25T15:44:28Z</time>
      </trkpt>
      <trkpt lat="49.682" lon="5.09625">
        <ele>178.9</ele>
        <time>2020-06-25T15:44:29Z</time>
      </trkpt>
      <trkpt lat="49.68202" lon="5.09631">
        <ele>178.8</ele>
        <time>2020-06-25T15:44:30Z</time>
      </trkpt>
      <trkpt lat="49.68204" lon="5.09638">
        <ele>178.6</ele>
        <time>2020-06-25T15:44:31Z</time>
      </trkpt>
      <trkpt lat="49.68207" lon="5.09644">
        <ele>178.5</ele>
        <time>2020-06-25T15:44:32Z</time>
      </trkpt>
      <trkpt lat="49.68209" lon="5.0965">
        <ele>178.4</ele>
        <time>2020-06-25T15:44:33Z</time>
      </trkpt>
      <trkpt lat="49.68211" lon="5.09655">
        <ele>178.3</ele>
        <time>2020-06-25T15:44:34Z</time>
      </trkpt>
      <trkpt lat="49.68213" lon="5.09662">
        <ele>178.1</ele>
        <time>2020-06-25T15:44:35Z</time>
      </trkpt>
      <trkpt lat="49.68215" lon="5.09668">
        <ele>178</ele>
        <time>2020-06-25T15:44:36Z</time>
      </trkpt>
      <trkpt lat="49.68218" lon="5.09674">
        <ele>177.8</ele>
        <time>2020-06-25T15:44:37Z</time>
      </trkpt>
      <trkpt lat="49.6822" lon="5.0968">
        <ele>177.7</ele>
        <time>2020-06-25T15:44:38Z</time>
      </trkpt>
      <trkpt lat="49.68223" lon="5.09686">
        <ele>177.6</ele>
        <time>2020-06-25T15:44:39Z</time>
      </trkpt>
      <trkpt lat="49.68225" lon="5.09694">
        <ele>177.4</ele>
        <time>2020-06-25T15:44:40Z</time>
      </trkpt>
      <trkpt lat="49.68228" lon="5.09703">
        <ele>177.2</ele>
        <time>2020-06-25T15:44:41Z</time>
      </trkpt>
      <trkpt lat="49.6823" lon="5.09711">
        <ele>177</ele>
        <time>2020-06-25T15:44:42Z</time>
      </trkpt>
      <trkpt lat="49.68233" lon="5.09718">
        <ele>176.8</ele>
        <time>2020-06-25T15:44:43Z</time>
      </trkpt>
      <trkpt lat="49.68236" lon="5.09726">
        <ele>176.7</ele>
        <time>2020-06-25T15:44:44Z</time>
      </trkpt>
      <trkpt lat="49.68238" lon="5.09735">
        <ele>176.6</ele>
        <time>2020-06-25T15:44:45Z</time>
      </trkpt>
      <trkpt lat="49.68241" lon="5.09743">
        <ele>176.5</ele>
        <time>2020-06-25T15:44:46Z</time>
      </trkpt>
      <trkpt lat="49.68244" lon="5.09752">
        <ele>176.4</ele>
        <time>2020-06-25T15:44:47Z</time>
      </trkpt>
      <trkpt lat="49.68247" lon="5.09761">
        <ele>176.4</ele>
        <time>2020-06-25T15:44:48Z</time>
      </trkpt>
      <trkpt lat="49.68249" lon="5.0977">
        <ele>176.3</ele>
        <time>2020-06-25T15:44:49Z</time>
      </trkpt>
      <trkpt lat="49.68251" lon="5.09779">
        <ele>176.2</ele>
        <time>2020-06-25T15:44:50Z</time>
      </trkpt>
      <trkpt lat="49.68254" lon="5.09786">
        <ele>176</ele>
        <time>2020-06-25T15:44:51Z</time>
      </trkpt>
      <trkpt lat="49.68256" lon="5.09795">
        <ele>175.9</ele>
        <time>2020-06-25T15:44:52Z</time>
      </trkpt>
      <trkpt lat="49.68258" lon="5.09804">
        <ele>175.8</ele>
        <time>2020-06-25T15:44:53Z</time>
      </trkpt>
      <trkpt lat="49.6826" lon="5.09813">
        <ele>175.8</ele>
        <time>2020-06-25T15:44:54Z</time>
      </trkpt>
      <trkpt lat="49.68262" lon="5.09822">
        <ele>175.9</ele>
        <time>2020-06-25T15:44:55Z</time>
      </trkpt>
      <trkpt lat="49.68263" lon="5.09832">
        <ele>176</ele>
        <time>2020-06-25T15:44:56Z</time>
      </trkpt>
      <trkpt lat="49.68263" lon="5.09841">
        <ele>176.1</ele>
        <time>2020-06-25T15:44:57Z</time>
      </trkpt>
      <trkpt lat="49.68264" lon="5.0985">
        <ele>176.2</ele>
        <time>2020-06-25T15:44:58Z</time>
      </trkpt>
      <trkpt lat="49.68264" lon="5.0986">
        <ele>176.4</ele>
        <time>2020-06-25T15:44:59Z</time>
      </trkpt>
      <trkpt lat="49.68264" lon="5.09867">
        <ele>176.5</ele>
        <time>2020-06-25T15:45:00Z</time>
      </trkpt>
      <trkpt lat="49.68264" lon="5.09877">
        <ele>176.7</ele>
        <time>2020-06-25T15:45:01Z</time>
      </trkpt>
      <trkpt lat="49.68263" lon="5.09884">
        <ele>177</ele>
        <time>2020-06-25T15:45:02Z</time>
      </trkpt>
      <trkpt lat="49.68262" lon="5.09892">
        <ele>177.2</ele>
        <time>2020-06-25T15:45:03Z</time>
      </trkpt>
      <trkpt lat="49.68262" lon="5.09898">
        <ele>177.4</ele>
        <time>2020-06-25T15:45:04Z</time>
      </trkpt>
      <trkpt lat="49.68262" lon="5.09904">
        <ele>177.6</ele>
        <time>2020-06-25T15:45:05Z</time>
      </trkpt>
      <trkpt lat="49.68263" lon="5.0991">
        <ele>177.8</ele>
        <time>2020-06-25T15:45:06Z</time>
      </trkpt>
      <trkpt lat="49.68263" lon="5.09916">
        <ele>178</ele>
        <time>2020-06-25T15:45:07Z</time>
      </trkpt>
      <trkpt lat="49.68265" lon="5.09922">
        <ele>178.3</ele>
        <time>2020-06-25T15:45:08Z</time>
      </trkpt>
      <trkpt lat="49.68266" lon="5.09927">
        <ele>178.5</ele>
        <time>2020-06-25T15:45:09Z</time>
      </trkpt>
      <trkpt lat="49.68267" lon="5.09931">
        <ele>178.8</ele>
        <time>2020-06-25T15:45:10Z</time>
      </trkpt>
      <trkpt lat="49.68269" lon="5.09936">
        <ele>179</ele>
        <time>2020-06-25T15:45:11Z</time>
      </trkpt>
      <trkpt lat="49.68271" lon="5.09942">
        <ele>179.3</ele>
        <time>2020-06-25T15:45:12Z</time>
      </trkpt>
      <trkpt lat="49.68272" lon="5.09947">
        <ele>179.6</ele>
        <time>2020-06-25T15:45:13Z</time>
      </trkpt>
      <trkpt lat="49.68273" lon="5.09951">
        <ele>179.8</ele>
        <time>2020-06-25T15:45:14Z</time>
      </trkpt>
      <trkpt lat="49.68274" lon="5.09953">
        <ele>179.9</ele>
        <time>2020-06-25T15:45:15Z</time>
      </trkpt>
      <trkpt lat="49.68276" lon="5.09958">
        <ele>180.2</ele>
        <time>2020-06-25T15:45:16Z</time>
      </trkpt>
      <trkpt lat="49.68276" lon="5.0996">
        <ele>180.3</ele>
        <time>2020-06-25T15:45:17Z</time>
      </trkpt>
      <trkpt lat="49.68278" lon="5.09963">
        <ele>180.6</ele>
        <time>2020-06-25T15:45:18Z</time>
      </trkpt>
      <trkpt lat="49.6828" lon="5.09967">
        <ele>180.8</ele>
        <time>2020-06-25T15:45:19Z</time>
      </trkpt>
      <trkpt lat="49.68282" lon="5.09971">
        <ele>181.1</ele>
        <time>2020-06-25T15:45:20Z</time>
      </trkpt>
      <trkpt lat="49.68285" lon="5.09975">
        <ele>181.4</ele>
        <time>2020-06-25T15:45:21Z</time>
      </trkpt>
      <trkpt lat="49.68288" lon="5.0998">
        <ele>181.7</ele>
        <time>2020-06-25T15:45:22Z</time>
      </trkpt>
      <trkpt lat="49.6829" lon="5.09984">
        <ele>181.9</ele>
        <time>2020-06-25T15:45:23Z</time>
      </trkpt>
      <trkpt lat="49.68293" lon="5.0999">
        <ele>182.2</ele>
        <time>2020-06-25T15:45:24Z</time>
      </trkpt>
      <trkpt lat="49.68294" lon="5.09994">
        <ele>182.3</ele>
        <time>2020-06-25T15:45:25Z</time>
      </trkpt>
      <trkpt lat="49.68297" lon="5.09997">
        <ele>182.5</ele>
        <time>2020-06-25T15:45:26Z</time>
      </trkpt>
      <trkpt lat="49.68301" lon="5.10002">
        <ele>182.8</ele>
        <time>2020-06-25T15:45:27Z</time>
      </trkpt>
      <trkpt lat="49.68305" lon="5.10007">
        <ele>183.1</ele>
        <time>2020-06-25T15:45:28Z</time>
      </trkpt>
      <trkpt lat="49.68309" lon="5.1001">
        <ele>183.3</ele>
        <time>2020-06-25T15:45:29Z</time>
      </trkpt>
      <trkpt lat="49.68312" lon="5.10014">
        <ele>183.6</ele>
        <time>2020-06-25T15:45:30Z</time>
      </trkpt>
      <trkpt lat="49.68315" lon="5.10018">
        <ele>183.8</ele>
        <time>2020-06-25T15:45:31Z</time>
      </trkpt>
      <trkpt lat="49.68318" lon="5.10021">
        <ele>184</ele>
        <time>2020-06-25T15:45:32Z</time>
      </trkpt>
      <trkpt lat="49.68322" lon="5.10025">
        <ele>184.3</ele>
        <time>2020-06-25T15:45:33Z</time>
      </trkpt>
      <trkpt lat="49.68324" lon="5.10029">
        <ele>184.5</ele>
        <time>2020-06-25T15:45:34Z</time>
      </trkpt>
      <trkpt lat="49.68326" lon="5.10032">
        <ele>184.7</ele>
        <time>2020-06-25T15:45:35Z</time>
      </trkpt>
      <trkpt lat="49.68329" lon="5.10035">
        <ele>184.8</ele>
        <time>2020-06-25T15:45:36Z</time>
      </trkpt>
      <trkpt lat="49.68329" lon="5.10036">
        <ele>184.9</ele>
        <time>2020-06-25T15:45:37Z</time>
      </trkpt>
      <trkpt lat="49.68332" lon="5.10039">
        <ele>185.1</ele>
        <time>2020-06-25T15:45:38Z</time>
      </trkpt>
      <trkpt lat="49.68336" lon="5.10042">
        <ele>185.3</ele>
        <time>2020-06-25T15:45:39Z</time>
      </trkpt>
      <trkpt lat="49.68339" lon="5.10045">
        <ele>185.5</ele>
        <time>2020-06-25T15:45:40Z</time>
      </trkpt>
      <trkpt lat="49.68343" lon="5.10048">
        <ele>185.7</ele>
        <time>2020-06-25T15:45:41Z</time>
      </trkpt>
      <trkpt lat="49.68346" lon="5.10054">
        <ele>185.9</ele>
        <time>2020-06-25T15:45:42Z</time>
      </trkpt>
      <trkpt lat="49.68349" lon="5.10057">
        <ele>186</ele>
        <time>2020-06-25T15:45:43Z</time>
      </trkpt>
      <trkpt lat="49.68352" lon="5.10061">
        <ele>186.1</ele>
        <time>2020-06-25T15:45:44Z</time>
      </trkpt>
      <trkpt lat="49.68354" lon="5.10065">
        <ele>186.3</ele>
        <time>2020-06-25T15:45:45Z</time>
      </trkpt>
      <trkpt lat="49.68357" lon="5.10068">
        <ele>186.4</ele>
        <time>2020-06-25T15:45:46Z</time>
      </trkpt>
      <trkpt lat="49.68359" lon="5.10071">
        <ele>186.5</ele>
        <time>2020-06-25T15:45:47Z</time>
      </trkpt>
      <trkpt lat="49.68362" lon="5.10074">
        <ele>186.7</ele>
        <time>2020-06-25T15:45:48Z</time>
      </trkpt>
      <trkpt lat="49.68364" lon="5.10078">
        <ele>186.8</ele>
        <time>2020-06-25T15:45:49Z</time>
      </trkpt>
      <trkpt lat="49.68366" lon="5.10083">
        <ele>187</ele>
        <time>2020-06-25T15:45:50Z</time>
      </trkpt>
      <trkpt lat="49.68369" lon="5.10089">
        <ele>187.2</ele>
        <time>2020-06-25T15:45:51Z</time>
      </trkpt>
      <trkpt lat="49.68371" lon="5.10094">
        <ele>187.3</ele>
        <time>2020-06-25T15:45:52Z</time>
      </trkpt>
      <trkpt lat="49.68373" lon="5.101">
        <ele>187.5</ele>
        <time>2020-06-25T15:45:53Z</time>
      </trkpt>
      <trkpt lat="49.68376" lon="5.10105">
        <ele>187.7</ele>
        <time>2020-06-25T15:45:54Z</time>
      </trkpt>
      <trkpt lat="49.68379" lon="5.10109">
        <ele>187.8</ele>
        <time>2020-06-25T15:45:55Z</time>
      </trkpt>
      <trkpt lat="49.68382" lon="5.10114">
        <ele>188</ele>
        <time>2020-06-25T15:45:56Z</time>
      </trkpt>
      <trkpt lat="49.68385" lon="5.10121">
        <ele>188.2</ele>
        <time>2020-06-25T15:45:57Z</time>
      </trkpt>
      <trkpt lat="49.68387" lon="5.10125">
        <ele>188.3</ele>
        <time>2020-06-25T15:45:58Z</time>
      </trkpt>
      <trkpt lat="49.68389" lon="5.10127">
        <ele>188.4</ele>
        <time>2020-06-25T15:45:59Z</time>
      </trkpt>
      <trkpt lat="49.68391" lon="5.10132">
        <ele>188.5</ele>
        <time>2020-06-25T15:46:00Z</time>
      </trkpt>
      <trkpt lat="49.68393" lon="5.10136">
        <ele>188.7</ele>
        <time>2020-06-25T15:46:01Z</time>
      </trkpt>
      <trkpt lat="49.68396" lon="5.1014">
        <ele>188.8</ele>
        <time>2020-06-25T15:46:02Z</time>
      </trkpt>
      <trkpt lat="49.68398" lon="5.10145">
        <ele>189</ele>
        <time>2020-06-25T15:46:03Z</time>
      </trkpt>
      <trkpt lat="49.684" lon="5.10149">
        <ele>189.2</ele>
        <time>2020-06-25T15:46:04Z</time>
      </trkpt>
      <trkpt lat="49.68403" lon="5.10153">
        <ele>189.3</ele>
        <time>2020-06-25T15:46:05Z</time>
      </trkpt>
      <trkpt lat="49.68405" lon="5.10158">
        <ele>189.5</ele>
        <time>2020-06-25T15:46:06Z</time>
      </trkpt>
      <trkpt lat="49.68407" lon="5.10163">
        <ele>189.6</ele>
        <time>2020-06-25T15:46:07Z</time>
      </trkpt>
      <trkpt lat="49.6841" lon="5.10167">
        <ele>189.7</ele>
        <time>2020-06-25T15:46:08Z</time>
      </trkpt>
      <trkpt lat="49.68412" lon="5.10171">
        <ele>189.8</ele>
        <time>2020-06-25T15:46:09Z</time>
      </trkpt>
      <trkpt lat="49.68414" lon="5.10175">
        <ele>189.8</ele>
        <time>2020-06-25T15:46:10Z</time>
      </trkpt>
      <trkpt lat="49.68417" lon="5.10178">
        <ele>189.8</ele>
        <time>2020-06-25T15:46:11Z</time>
      </trkpt>
      <trkpt lat="49.68419" lon="5.10182">
        <ele>189.8</ele>
        <time>2020-06-25T15:46:12Z</time>
      </trkpt>
      <trkpt lat="49.68422" lon="5.10187">
        <ele>189.8</ele>
        <time>2020-06-25T15:46:13Z</time>
      </trkpt>
      <trkpt lat="49.68424" lon="5.10191">
        <ele>189.9</ele>
        <time>2020-06-25T15:46:14Z</time>
      </trkpt>
      <trkpt lat="49.68426" lon="5.10196">
        <ele>190.1</ele>
        <time>2020-06-25T15:46:15Z</time>
      </trkpt>
      <trkpt lat="49.68429" lon="5.10201">
        <ele>190.2</ele>
        <time>2020-06-25T15:46:16Z</time>
      </trkpt>
      <trkpt lat="49.68432" lon="5.10205">
        <ele>190.3</ele>
        <time>2020-06-25T15:46:17Z</time>
      </trkpt>
      <trkpt lat="49.68434" lon="5.10207">
        <ele>190.4</ele>
        <time>2020-06-25T15:46:18Z</time>
      </trkpt>
      <trkpt lat="49.68437" lon="5.1021">
        <ele>190.5</ele>
        <time>2020-06-25T15:46:19Z</time>
      </trkpt>
      <trkpt lat="49.6844" lon="5.10214">
        <ele>190.6</ele>
        <time>2020-06-25T15:46:20Z</time>
      </trkpt>
      <trkpt lat="49.68443" lon="5.10217">
        <ele>190.7</ele>
        <time>2020-06-25T15:46:21Z</time>
      </trkpt>
      <trkpt lat="49.68447" lon="5.10221">
        <ele>190.9</ele>
        <time>2020-06-25T15:46:22Z</time>
      </trkpt>
      <trkpt lat="49.68448" lon="5.10224">
        <ele>191</ele>
        <time>2020-06-25T15:46:23Z</time>
      </trkpt>
      <trkpt lat="49.68451" lon="5.10227">
        <ele>191.1</ele>
        <time>2020-06-25T15:46:24Z</time>
      </trkpt>
      <trkpt lat="49.68453" lon="5.10231">
        <ele>191.3</ele>
        <time>2020-06-25T15:46:25Z</time>
      </trkpt>
      <trkpt lat="49.68456" lon="5.10235">
        <ele>191.4</ele>
        <time>2020-06-25T15:46:26Z</time>
      </trkpt>
      <trkpt lat="49.68458" lon="5.10237">
        <ele>191.6</ele>
        <time>2020-06-25T15:46:27Z</time>
      </trkpt>
      <trkpt lat="49.68461" lon="5.1024">
        <ele>191.7</ele>
        <time>2020-06-25T15:46:28Z</time>
      </trkpt>
      <trkpt lat="49.68463" lon="5.10244">
        <ele>191.9</ele>
        <time>2020-06-25T15:46:29Z</time>
      </trkpt>
      <trkpt lat="49.68466" lon="5.10246">
        <ele>192.1</ele>
        <time>2020-06-25T15:46:30Z</time>
      </trkpt>
      <trkpt lat="49.68469" lon="5.10249">
        <ele>192.2</ele>
        <time>2020-06-25T15:46:31Z</time>
      </trkpt>
      <trkpt lat="49.68471" lon="5.10251">
        <ele>192.4</ele>
        <time>2020-06-25T15:46:32Z</time>
      </trkpt>
      <trkpt lat="49.68474" lon="5.10255">
        <ele>192.5</ele>
        <time>2020-06-25T15:46:33Z</time>
      </trkpt>
      <trkpt lat="49.68476" lon="5.10258">
        <ele>192.7</ele>
        <time>2020-06-25T15:46:34Z</time>
      </trkpt>
      <trkpt lat="49.68479" lon="5.10261">
        <ele>192.9</ele>
        <time>2020-06-25T15:46:35Z</time>
      </trkpt>
      <trkpt lat="49.6848" lon="5.10262">
        <ele>192.9</ele>
        <time>2020-06-25T15:46:36Z</time>
      </trkpt>
      <trkpt lat="49.68483" lon="5.10266">
        <ele>193.1</ele>
        <time>2020-06-25T15:46:37Z</time>
      </trkpt>
      <trkpt lat="49.68487" lon="5.10269">
        <ele>193.4</ele>
        <time>2020-06-25T15:46:38Z</time>
      </trkpt>
      <trkpt lat="49.6849" lon="5.10273">
        <ele>193.6</ele>
        <time>2020-06-25T15:46:39Z</time>
      </trkpt>
      <trkpt lat="49.68493" lon="5.10276">
        <ele>193.8</ele>
        <time>2020-06-25T15:46:40Z</time>
      </trkpt>
      <trkpt lat="49.68495" lon="5.10277">
        <ele>193.9</ele>
        <time>2020-06-25T15:46:41Z</time>
      </trkpt>
      <trkpt lat="49.68498" lon="5.10281">
        <ele>194.1</ele>
        <time>2020-06-25T15:46:42Z</time>
      </trkpt>
      <trkpt lat="49.685" lon="5.10283">
        <ele>194.2</ele>
        <time>2020-06-25T15:46:43Z</time>
      </trkpt>
      <trkpt lat="49.68504" lon="5.10289">
        <ele>194.5</ele>
        <time>2020-06-25T15:46:44Z</time>
      </trkpt>
      <trkpt lat="49.68506" lon="5.10291">
        <ele>194.7</ele>
        <time>2020-06-25T15:46:45Z</time>
      </trkpt>
      <trkpt lat="49.68509" lon="5.10294">
        <ele>194.9</ele>
        <time>2020-06-25T15:46:46Z</time>
      </trkpt>
      <trkpt lat="49.68512" lon="5.10297">
        <ele>195.1</ele>
        <time>2020-06-25T15:46:47Z</time>
      </trkpt>
      <trkpt lat="49.68515" lon="5.10301">
        <ele>195.4</ele>
        <time>2020-06-25T15:46:48Z</time>
      </trkpt>
      <trkpt lat="49.68518" lon="5.10303">
        <ele>195.6</ele>
        <time>2020-06-25T15:46:49Z</time>
      </trkpt>
      <trkpt lat="49.68521" lon="5.10306">
        <ele>195.8</ele>
        <time>2020-06-25T15:46:50Z</time>
      </trkpt>
      <trkpt lat="49.68524" lon="5.10309">
        <ele>196.1</ele>
        <time>2020-06-25T15:46:51Z</time>
      </trkpt>
      <trkpt lat="49.68527" lon="5.10311">
        <ele>196.3</ele>
        <time>2020-06-25T15:46:52Z</time>
      </trkpt>
      <trkpt lat="49.68529" lon="5.10315">
        <ele>196.5</ele>
        <time>2020-06-25T15:46:53Z</time>
      </trkpt>
      <trkpt lat="49.68532" lon="5.10318">
        <ele>196.7</ele>
        <time>2020-06-25T15:46:54Z</time>
      </trkpt>
      <trkpt lat="49.68535" lon="5.10322">
        <ele>197</ele>
        <time>2020-06-25T15:46:55Z</time>
      </trkpt>
      <trkpt lat="49.68537" lon="5.10324">
        <ele>197.2</ele>
        <time>2020-06-25T15:46:56Z</time>
      </trkpt>
      <trkpt lat="49.6854" lon="5.10326">
        <ele>197.4</ele>
        <time>2020-06-25T15:46:57Z</time>
      </trkpt>
      <trkpt lat="49.68542" lon="5.10329">
        <ele>197.6</ele>
        <time>2020-06-25T15:46:58Z</time>
      </trkpt>
      <trkpt lat="49.68546" lon="5.10329">
        <ele>197.8</ele>
        <time>2020-06-25T15:46:59Z</time>
      </trkpt>
      <trkpt lat="49.68549" lon="5.1033">
        <ele>198</ele>
        <time>2020-06-25T15:47:00Z</time>
      </trkpt>
      <trkpt lat="49.68549" lon="5.10331">
        <ele>198.1</ele>
        <time>2020-06-25T15:47:01Z</time>
      </trkpt>
      <trkpt lat="49.68552" lon="5.10333">
        <ele>198.2</ele>
        <time>2020-06-25T15:47:02Z</time>
      </trkpt>
      <trkpt lat="49.68553" lon="5.10334">
        <ele>198.3</ele>
        <time>2020-06-25T15:47:03Z</time>
      </trkpt>
      <trkpt lat="49.68556" lon="5.10336">
        <ele>198.5</ele>
        <time>2020-06-25T15:47:04Z</time>
      </trkpt>
      <trkpt lat="49.68559" lon="5.10339">
        <ele>198.7</ele>
        <time>2020-06-25T15:47:05Z</time>
      </trkpt>
      <trkpt lat="49.68562" lon="5.10343">
        <ele>199</ele>
        <time>2020-06-25T15:47:06Z</time>
      </trkpt>
      <trkpt lat="49.68565" lon="5.10347">
        <ele>199.2</ele>
        <time>2020-06-25T15:47:07Z</time>
      </trkpt>
      <trkpt lat="49.68567" lon="5.10351">
        <ele>199.4</ele>
        <time>2020-06-25T15:47:08Z</time>
      </trkpt>
      <trkpt lat="49.68569" lon="5.10354">
        <ele>199.6</ele>
        <time>2020-06-25T15:47:09Z</time>
      </trkpt>
      <trkpt lat="49.68572" lon="5.10359">
        <ele>199.8</ele>
        <time>2020-06-25T15:47:10Z</time>
      </trkpt>
      <trkpt lat="49.68573" lon="5.10361">
        <ele>199.9</ele>
        <time>2020-06-25T15:47:11Z</time>
      </trkpt>
      <trkpt lat="49.68575" lon="5.10363">
        <ele>200</ele>
        <time>2020-06-25T15:47:12Z</time>
      </trkpt>
      <trkpt lat="49.68578" lon="5.10367">
        <ele>200.2</ele>
        <time>2020-06-25T15:47:13Z</time>
      </trkpt>
      <trkpt lat="49.68581" lon="5.10371">
        <ele>200.4</ele>
        <time>2020-06-25T15:47:14Z</time>
      </trkpt>
      <trkpt lat="49.68584" lon="5.10374">
        <ele>200.6</ele>
        <time>2020-06-25T15:47:15Z</time>
      </trkpt>
      <trkpt lat="49.68587" lon="5.10378">
        <ele>200.8</ele>
        <time>2020-06-25T15:47:16Z</time>
      </trkpt>
      <trkpt lat="49.68589" lon="5.1038">
        <ele>200.9</ele>
        <time>2020-06-25T15:47:17Z</time>
      </trkpt>
      <trkpt lat="49.68592" lon="5.10384">
        <ele>201.1</ele>
        <time>2020-06-25T15:47:18Z</time>
      </trkpt>
      <trkpt lat="49.68593" lon="5.10387">
        <ele>201.2</ele>
        <time>2020-06-25T15:47:19Z</time>
      </trkpt>
      <trkpt lat="49.68596" lon="5.10392">
        <ele>201.4</ele>
        <time>2020-06-25T15:47:20Z</time>
      </trkpt>
      <trkpt lat="49.68597" lon="5.10394">
        <ele>201.4</ele>
        <time>2020-06-25T15:47:21Z</time>
      </trkpt>
      <trkpt lat="49.68599" lon="5.10397">
        <ele>201.6</ele>
        <time>2020-06-25T15:47:22Z</time>
      </trkpt>
      <trkpt lat="49.686" lon="5.10399">
        <ele>201.7</ele>
        <time>2020-06-25T15:47:23Z</time>
      </trkpt>
      <trkpt lat="49.68603" lon="5.10401">
        <ele>201.8</ele>
        <time>2020-06-25T15:47:24Z</time>
      </trkpt>
      <trkpt lat="49.68606" lon="5.10404">
        <ele>202</ele>
        <time>2020-06-25T15:47:25Z</time>
      </trkpt>
      <trkpt lat="49.68607" lon="5.10405">
        <ele>202</ele>
        <time>2020-06-25T15:47:26Z</time>
      </trkpt>
      <trkpt lat="49.6861" lon="5.10408">
        <ele>202.2</ele>
        <time>2020-06-25T15:47:27Z</time>
      </trkpt>
      <trkpt lat="49.68613" lon="5.10412">
        <ele>202.3</ele>
        <time>2020-06-25T15:47:28Z</time>
      </trkpt>
      <trkpt lat="49.68615" lon="5.10416">
        <ele>202.5</ele>
        <time>2020-06-25T15:47:29Z</time>
      </trkpt>
      <trkpt lat="49.68619" lon="5.10421">
        <ele>202.7</ele>
        <time>2020-06-25T15:47:30Z</time>
      </trkpt>
      <trkpt lat="49.68621" lon="5.10425">
        <ele>202.9</ele>
        <time>2020-06-25T15:47:31Z</time>
      </trkpt>
      <trkpt lat="49.68624" lon="5.10428">
        <ele>203</ele>
        <time>2020-06-25T15:47:32Z</time>
      </trkpt>
      <trkpt lat="49.68627" lon="5.10432">
        <ele>203.2</ele>
        <time>2020-06-25T15:47:33Z</time>
      </trkpt>
      <trkpt lat="49.68629" lon="5.10435">
        <ele>203.3</ele>
        <time>2020-06-25T15:47:34Z</time>
      </trkpt>
      <trkpt lat="49.68631" lon="5.10438">
        <ele>203.4</ele>
        <time>2020-06-25T15:47:35Z</time>
      </trkpt>
      <trkpt lat="49.68633" lon="5.10443">
        <ele>203.6</ele>
        <time>2020-06-25T15:47:36Z</time>
      </trkpt>
      <trkpt lat="49.68636" lon="5.10448">
        <ele>203.7</ele>
        <time>2020-06-25T15:47:37Z</time>
      </trkpt>
      <trkpt lat="49.68638" lon="5.10452">
        <ele>203.9</ele>
        <time>2020-06-25T15:47:38Z</time>
      </trkpt>
      <trkpt lat="49.68641" lon="5.10457">
        <ele>204.1</ele>
        <time>2020-06-25T15:47:39Z</time>
      </trkpt>
      <trkpt lat="49.68642" lon="5.10459">
        <ele>204.2</ele>
        <time>2020-06-25T15:47:40Z</time>
      </trkpt>
      <trkpt lat="49.68645" lon="5.10464">
        <ele>204.4</ele>
        <time>2020-06-25T15:47:41Z</time>
      </trkpt>
      <trkpt lat="49.68646" lon="5.10466">
        <ele>204.5</ele>
        <time>2020-06-25T15:47:42Z</time>
      </trkpt>
      <trkpt lat="49.68649" lon="5.10469">
        <ele>204.6</ele>
        <time>2020-06-25T15:47:43Z</time>
      </trkpt>
      <trkpt lat="49.68652" lon="5.10473">
        <ele>204.8</ele>
        <time>2020-06-25T15:47:44Z</time>
      </trkpt>
      <trkpt lat="49.68654" lon="5.10477">
        <ele>205</ele>
        <time>2020-06-25T15:47:45Z</time>
      </trkpt>
      <trkpt lat="49.68656" lon="5.10482">
        <ele>205.2</ele>
        <time>2020-06-25T15:47:46Z</time>
      </trkpt>
      <trkpt lat="49.68658" lon="5.10485">
        <ele>205.3</ele>
        <time>2020-06-25T15:47:47Z</time>
      </trkpt>
      <trkpt lat="49.6866" lon="5.1049">
        <ele>205.5</ele>
        <time>2020-06-25T15:47:48Z</time>
      </trkpt>
      <trkpt lat="49.68662" lon="5.10493">
        <ele>205.6</ele>
        <time>2020-06-25T15:47:49Z</time>
      </trkpt>
      <trkpt lat="49.68664" lon="5.10498">
        <ele>205.8</ele>
        <time>2020-06-25T15:47:50Z</time>
      </trkpt>
      <trkpt lat="49.68666" lon="5.10502">
        <ele>205.9</ele>
        <time>2020-06-25T15:47:51Z</time>
      </trkpt>
      <trkpt lat="49.68668" lon="5.10506">
        <ele>206.1</ele>
        <time>2020-06-25T15:47:52Z</time>
      </trkpt>
      <trkpt lat="49.6867" lon="5.10512">
        <ele>206.2</ele>
        <time>2020-06-25T15:47:53Z</time>
      </trkpt>
      <trkpt lat="49.68671" lon="5.10514">
        <ele>206.3</ele>
        <time>2020-06-25T15:47:54Z</time>
      </trkpt>
      <trkpt lat="49.68673" lon="5.10518">
        <ele>206.4</ele>
        <time>2020-06-25T15:47:55Z</time>
      </trkpt>
      <trkpt lat="49.68676" lon="5.10522">
        <ele>206.6</ele>
        <time>2020-06-25T15:47:56Z</time>
      </trkpt>
      <trkpt lat="49.68677" lon="5.10524">
        <ele>206.7</ele>
        <time>2020-06-25T15:47:57Z</time>
      </trkpt>
      <trkpt lat="49.6868" lon="5.10527">
        <ele>206.8</ele>
        <time>2020-06-25T15:47:58Z</time>
      </trkpt>
      <trkpt lat="49.68682" lon="5.1053">
        <ele>207</ele>
        <time>2020-06-25T15:47:59Z</time>
      </trkpt>
      <trkpt lat="49.68685" lon="5.10533">
        <ele>207.1</ele>
        <time>2020-06-25T15:48:00Z</time>
      </trkpt>
      <trkpt lat="49.68687" lon="5.10535">
        <ele>207.2</ele>
        <time>2020-06-25T15:48:01Z</time>
      </trkpt>
      <trkpt lat="49.6869" lon="5.10539">
        <ele>207.4</ele>
        <time>2020-06-25T15:48:02Z</time>
      </trkpt>
      <trkpt lat="49.68691" lon="5.10541">
        <ele>207.5</ele>
        <time>2020-06-25T15:48:03Z</time>
      </trkpt>
      <trkpt lat="49.68693" lon="5.10544">
        <ele>207.6</ele>
        <time>2020-06-25T15:48:04Z</time>
      </trkpt>
      <trkpt lat="49.68693" lon="5.10545">
        <ele>207.7</ele>
        <time>2020-06-25T15:48:05Z</time>
      </trkpt>
      <trkpt lat="49.68695" lon="5.10548">
        <ele>207.8</ele>
        <time>2020-06-25T15:48:06Z</time>
      </trkpt>
      <trkpt lat="49.68697" lon="5.10551">
        <ele>207.9</ele>
        <time>2020-06-25T15:48:07Z</time>
      </trkpt>
      <trkpt lat="49.687" lon="5.10553">
        <ele>208.1</ele>
        <time>2020-06-25T15:48:08Z</time>
      </trkpt>
      <trkpt lat="49.68701" lon="5.10554">
        <ele>208.2</ele>
        <time>2020-06-25T15:48:09Z</time>
      </trkpt>
      <trkpt lat="49.68704" lon="5.10558">
        <ele>208.4</ele>
        <time>2020-06-25T15:48:10Z</time>
      </trkpt>
      <trkpt lat="49.68705" lon="5.1056">
        <ele>208.5</ele>
        <time>2020-06-25T15:48:11Z</time>
      </trkpt>
      <trkpt lat="49.68707" lon="5.10562">
        <ele>208.7</ele>
        <time>2020-06-25T15:48:12Z</time>
      </trkpt>
      <trkpt lat="49.68709" lon="5.10566">
        <ele>208.9</ele>
        <time>2020-06-25T15:48:13Z</time>
      </trkpt>
      <trkpt lat="49.68711" lon="5.1057">
        <ele>209.1</ele>
        <time>2020-06-25T15:48:14Z</time>
      </trkpt>
      <trkpt lat="49.68714" lon="5.10577">
        <ele>209.4</ele>
        <time>2020-06-25T15:48:15Z</time>
      </trkpt>
      <trkpt lat="49.68716" lon="5.10581">
        <ele>209.6</ele>
        <time>2020-06-25T15:48:16Z</time>
      </trkpt>
      <trkpt lat="49.68718" lon="5.10584">
        <ele>209.8</ele>
        <time>2020-06-25T15:48:17Z</time>
      </trkpt>
      <trkpt lat="49.6872" lon="5.10587">
        <ele>210</ele>
        <time>2020-06-25T15:48:18Z</time>
      </trkpt>
      <trkpt lat="49.68723" lon="5.10591">
        <ele>210.2</ele>
        <time>2020-06-25T15:48:19Z</time>
      </trkpt>
      <trkpt lat="49.68725" lon="5.10595">
        <ele>210.4</ele>
        <time>2020-06-25T15:48:20Z</time>
      </trkpt>
      <trkpt lat="49.68728" lon="5.10598">
        <ele>210.6</ele>
        <time>2020-06-25T15:48:21Z</time>
      </trkpt>
      <trkpt lat="49.6873" lon="5.10602">
        <ele>210.8</ele>
        <time>2020-06-25T15:48:22Z</time>
      </trkpt>
      <trkpt lat="49.68732" lon="5.10605">
        <ele>210.9</ele>
        <time>2020-06-25T15:48:23Z</time>
      </trkpt>
      <trkpt lat="49.68734" lon="5.10609">
        <ele>211.1</ele>
        <time>2020-06-25T15:48:24Z</time>
      </trkpt>
      <trkpt lat="49.68737" lon="5.10613">
        <ele>211.3</ele>
        <time>2020-06-25T15:48:25Z</time>
      </trkpt>
      <trkpt lat="49.68739" lon="5.10617">
        <ele>211.5</ele>
        <time>2020-06-25T15:48:26Z</time>
      </trkpt>
      <trkpt lat="49.68741" lon="5.1062">
        <ele>211.6</ele>
        <time>2020-06-25T15:48:27Z</time>
      </trkpt>
      <trkpt lat="49.68744" lon="5.10624">
        <ele>211.7</ele>
        <time>2020-06-25T15:48:28Z</time>
      </trkpt>
      <trkpt lat="49.68746" lon="5.10628">
        <ele>211.9</ele>
        <time>2020-06-25T15:48:29Z</time>
      </trkpt>
      <trkpt lat="49.68748" lon="5.10631">
        <ele>212</ele>
        <time>2020-06-25T15:48:30Z</time>
      </trkpt>
      <trkpt lat="49.68751" lon="5.10636">
        <ele>212.2</ele>
        <time>2020-06-25T15:48:31Z</time>
      </trkpt>
      <trkpt lat="49.68753" lon="5.10641">
        <ele>212.4</ele>
        <time>2020-06-25T15:48:32Z</time>
      </trkpt>
      <trkpt lat="49.68755" lon="5.10645">
        <ele>212.6</ele>
        <time>2020-06-25T15:48:33Z</time>
      </trkpt>
      <trkpt lat="49.68758" lon="5.10648">
        <ele>212.7</ele>
        <time>2020-06-25T15:48:34Z</time>
      </trkpt>
      <trkpt lat="49.68759" lon="5.10652">
        <ele>212.9</ele>
        <time>2020-06-25T15:48:35Z</time>
      </trkpt>
      <trkpt lat="49.68761" lon="5.10656">
        <ele>213</ele>
        <time>2020-06-25T15:48:36Z</time>
      </trkpt>
      <trkpt lat="49.68763" lon="5.1066">
        <ele>213.2</ele>
        <time>2020-06-25T15:48:37Z</time>
      </trkpt>
      <trkpt lat="49.68765" lon="5.10664">
        <ele>213.3</ele>
        <time>2020-06-25T15:48:38Z</time>
      </trkpt>
      <trkpt lat="49.68767" lon="5.10668">
        <ele>213.5</ele>
        <time>2020-06-25T15:48:39Z</time>
      </trkpt>
      <trkpt lat="49.6877" lon="5.10673">
        <ele>213.7</ele>
        <time>2020-06-25T15:48:40Z</time>
      </trkpt>
      <trkpt lat="49.68773" lon="5.10677">
        <ele>213.8</ele>
        <time>2020-06-25T15:48:41Z</time>
      </trkpt>
      <trkpt lat="49.68776" lon="5.10681">
        <ele>214</ele>
        <time>2020-06-25T15:48:42Z</time>
      </trkpt>
      <trkpt lat="49.68779" lon="5.10685">
        <ele>214.2</ele>
        <time>2020-06-25T15:48:43Z</time>
      </trkpt>
      <trkpt lat="49.68782" lon="5.1069">
        <ele>214.4</ele>
        <time>2020-06-25T15:48:44Z</time>
      </trkpt>
      <trkpt lat="49.68786" lon="5.10695">
        <ele>214.6</ele>
        <time>2020-06-25T15:48:45Z</time>
      </trkpt>
      <trkpt lat="49.68789" lon="5.10699">
        <ele>214.8</ele>
        <time>2020-06-25T15:48:46Z</time>
      </trkpt>
      <trkpt lat="49.68792" lon="5.10702">
        <ele>215</ele>
        <time>2020-06-25T15:48:47Z</time>
      </trkpt>
      <trkpt lat="49.68795" lon="5.10707">
        <ele>215.1</ele>
        <time>2020-06-25T15:48:48Z</time>
      </trkpt>
      <trkpt lat="49.68799" lon="5.10712">
        <ele>215.3</ele>
        <time>2020-06-25T15:48:49Z</time>
      </trkpt>
      <trkpt lat="49.68802" lon="5.10716">
        <ele>215.5</ele>
        <time>2020-06-25T15:48:50Z</time>
      </trkpt>
      <trkpt lat="49.68805" lon="5.10721">
        <ele>215.6</ele>
        <time>2020-06-25T15:48:51Z</time>
      </trkpt>
      <trkpt lat="49.68807" lon="5.10727">
        <ele>215.8</ele>
        <time>2020-06-25T15:48:52Z</time>
      </trkpt>
      <trkpt lat="49.68809" lon="5.1073">
        <ele>215.9</ele>
        <time>2020-06-25T15:48:53Z</time>
      </trkpt>
      <trkpt lat="49.68811" lon="5.10735">
        <ele>216</ele>
        <time>2020-06-25T15:48:54Z</time>
      </trkpt>
      <trkpt lat="49.68814" lon="5.1074">
        <ele>216.1</ele>
        <time>2020-06-25T15:48:55Z</time>
      </trkpt>
      <trkpt lat="49.68815" lon="5.10742">
        <ele>216.1</ele>
        <time>2020-06-25T15:48:56Z</time>
      </trkpt>
      <trkpt lat="49.68817" lon="5.10745">
        <ele>216.2</ele>
        <time>2020-06-25T15:48:57Z</time>
      </trkpt>
      <trkpt lat="49.68819" lon="5.1075">
        <ele>216.3</ele>
        <time>2020-06-25T15:48:58Z</time>
      </trkpt>
      <trkpt lat="49.6882" lon="5.10752">
        <ele>216.4</ele>
        <time>2020-06-25T15:48:59Z</time>
      </trkpt>
      <trkpt lat="49.68822" lon="5.10757">
        <ele>216.5</ele>
        <time>2020-06-25T15:49:00Z</time>
      </trkpt>
      <trkpt lat="49.68824" lon="5.10761">
        <ele>216.7</ele>
        <time>2020-06-25T15:49:01Z</time>
      </trkpt>
      <trkpt lat="49.68827" lon="5.10765">
        <ele>216.8</ele>
        <time>2020-06-25T15:49:02Z</time>
      </trkpt>
      <trkpt lat="49.6883" lon="5.10769">
        <ele>216.9</ele>
        <time>2020-06-25T15:49:03Z</time>
      </trkpt>
      <trkpt lat="49.68833" lon="5.10772">
        <ele>217</ele>
        <time>2020-06-25T15:49:04Z</time>
      </trkpt>
      <trkpt lat="49.68835" lon="5.10775">
        <ele>217.1</ele>
        <time>2020-06-25T15:49:05Z</time>
      </trkpt>
      <trkpt lat="49.68837" lon="5.10778">
        <ele>217.2</ele>
        <time>2020-06-25T15:49:06Z</time>
      </trkpt>
      <trkpt lat="49.6884" lon="5.10781">
        <ele>217.3</ele>
        <time>2020-06-25T15:49:07Z</time>
      </trkpt>
      <trkpt lat="49.68843" lon="5.10785">
        <ele>217.4</ele>
        <time>2020-06-25T15:49:08Z</time>
      </trkpt>
      <trkpt lat="49.68845" lon="5.1079">
        <ele>217.5</ele>
        <time>2020-06-25T15:49:09Z</time>
      </trkpt>
      <trkpt lat="49.68847" lon="5.10797">
        <ele>217.6</ele>
        <time>2020-06-25T15:49:10Z</time>
      </trkpt>
      <trkpt lat="49.6885" lon="5.10801">
        <ele>217.8</ele>
        <time>2020-06-25T15:49:11Z</time>
      </trkpt>
      <trkpt lat="49.68852" lon="5.10806">
        <ele>217.9</ele>
        <time>2020-06-25T15:49:12Z</time>
      </trkpt>
      <trkpt lat="49.68852" lon="5.10808">
        <ele>217.9</ele>
        <time>2020-06-25T15:49:13Z</time>
      </trkpt>
      <trkpt lat="49.68853" lon="5.10814">
        <ele>218</ele>
        <time>2020-06-25T15:49:14Z</time>
      </trkpt>
      <trkpt lat="49.68855" lon="5.10817">
        <ele>218.1</ele>
        <time>2020-06-25T15:49:15Z</time>
      </trkpt>
      <trkpt lat="49.68857" lon="5.10821">
        <ele>218.1</ele>
        <time>2020-06-25T15:49:16Z</time>
      </trkpt>
      <trkpt lat="49.68859" lon="5.10827">
        <ele>218.1</ele>
        <time>2020-06-25T15:49:17Z</time>
      </trkpt>
      <trkpt lat="49.68862" lon="5.10832">
        <ele>218.2</ele>
        <time>2020-06-25T15:49:18Z</time>
      </trkpt>
      <trkpt lat="49.68864" lon="5.10839">
        <ele>218.2</ele>
        <time>2020-06-25T15:49:19Z</time>
      </trkpt>
      <trkpt lat="49.68866" lon="5.10845">
        <ele>218.2</ele>
        <time>2020-06-25T15:49:20Z</time>
      </trkpt>
      <trkpt lat="49.68868" lon="5.1085">
        <ele>218.3</ele>
        <time>2020-06-25T15:49:21Z</time>
      </trkpt>
      <trkpt lat="49.6887" lon="5.10855">
        <ele>218.4</ele>
        <time>2020-06-25T15:49:22Z</time>
      </trkpt>
      <trkpt lat="49.68872" lon="5.1086">
        <ele>218.4</ele>
        <time>2020-06-25T15:49:23Z</time>
      </trkpt>
      <trkpt lat="49.68873" lon="5.10865">
        <ele>218.5</ele>
        <time>2020-06-25T15:49:24Z</time>
      </trkpt>
      <trkpt lat="49.68875" lon="5.10869">
        <ele>218.5</ele>
        <time>2020-06-25T15:49:25Z</time>
      </trkpt>
      <trkpt lat="49.68878" lon="5.10874">
        <ele>218.6</ele>
        <time>2020-06-25T15:49:26Z</time>
      </trkpt>
      <trkpt lat="49.68879" lon="5.10876">
        <ele>218.7</ele>
        <time>2020-06-25T15:49:27Z</time>
      </trkpt>
      <trkpt lat="49.68881" lon="5.10881">
        <ele>218.8</ele>
        <time>2020-06-25T15:49:28Z</time>
      </trkpt>
      <trkpt lat="49.68883" lon="5.10886">
        <ele>218.9</ele>
        <time>2020-06-25T15:49:29Z</time>
      </trkpt>
      <trkpt lat="49.68884" lon="5.10891">
        <ele>219</ele>
        <time>2020-06-25T15:49:30Z</time>
      </trkpt>
      <trkpt lat="49.68886" lon="5.10896">
        <ele>219.1</ele>
        <time>2020-06-25T15:49:31Z</time>
      </trkpt>
      <trkpt lat="49.68887" lon="5.10901">
        <ele>219.2</ele>
        <time>2020-06-25T15:49:32Z</time>
      </trkpt>
      <trkpt lat="49.68889" lon="5.10907">
        <ele>219.3</ele>
        <time>2020-06-25T15:49:33Z</time>
      </trkpt>
      <trkpt lat="49.68891" lon="5.10913">
        <ele>219.4</ele>
        <time>2020-06-25T15:49:34Z</time>
      </trkpt>
      <trkpt lat="49.68893" lon="5.1092">
        <ele>219.5</ele>
        <time>2020-06-25T15:49:35Z</time>
      </trkpt>
      <trkpt lat="49.68895" lon="5.10926">
        <ele>219.6</ele>
        <time>2020-06-25T15:49:36Z</time>
      </trkpt>
      <trkpt lat="49.68897" lon="5.10932">
        <ele>219.7</ele>
        <time>2020-06-25T15:49:37Z</time>
      </trkpt>
      <trkpt lat="49.68899" lon="5.10938">
        <ele>219.8</ele>
        <time>2020-06-25T15:49:38Z</time>
      </trkpt>
      <trkpt lat="49.689" lon="5.10943">
        <ele>219.9</ele>
        <time>2020-06-25T15:49:39Z</time>
      </trkpt>
      <trkpt lat="49.68902" lon="5.10949">
        <ele>220.1</ele>
        <time>2020-06-25T15:49:40Z</time>
      </trkpt>
      <trkpt lat="49.68904" lon="5.10955">
        <ele>220.2</ele>
        <time>2020-06-25T15:49:41Z</time>
      </trkpt>
      <trkpt lat="49.68907" lon="5.1096">
        <ele>220.3</ele>
        <time>2020-06-25T15:49:42Z</time>
      </trkpt>
      <trkpt lat="49.68909" lon="5.10965">
        <ele>220.4</ele>
        <time>2020-06-25T15:49:43Z</time>
      </trkpt>
      <trkpt lat="49.68911" lon="5.10969">
        <ele>220.5</ele>
        <time>2020-06-25T15:49:44Z</time>
      </trkpt>
      <trkpt lat="49.68912" lon="5.10974">
        <ele>220.5</ele>
        <time>2020-06-25T15:49:45Z</time>
      </trkpt>
      <trkpt lat="49.68914" lon="5.10979">
        <ele>220.7</ele>
        <time>2020-06-25T15:49:46Z</time>
      </trkpt>
      <trkpt lat="49.68916" lon="5.10984">
        <ele>220.8</ele>
        <time>2020-06-25T15:49:47Z</time>
      </trkpt>
      <trkpt lat="49.68918" lon="5.10989">
        <ele>220.9</ele>
        <time>2020-06-25T15:49:48Z</time>
      </trkpt>
      <trkpt lat="49.68919" lon="5.10993">
        <ele>221</ele>
        <time>2020-06-25T15:49:49Z</time>
      </trkpt>
      <trkpt lat="49.68921" lon="5.10998">
        <ele>221.1</ele>
        <time>2020-06-25T15:49:50Z</time>
      </trkpt>
      <trkpt lat="49.68923" lon="5.11003">
        <ele>221.3</ele>
        <time>2020-06-25T15:49:51Z</time>
      </trkpt>
      <trkpt lat="49.68924" lon="5.11009">
        <ele>221.4</ele>
        <time>2020-06-25T15:49:52Z</time>
      </trkpt>
      <trkpt lat="49.68926" lon="5.11014">
        <ele>221.5</ele>
        <time>2020-06-25T15:49:53Z</time>
      </trkpt>
      <trkpt lat="49.68927" lon="5.11018">
        <ele>221.6</ele>
        <time>2020-06-25T15:49:54Z</time>
      </trkpt>
      <trkpt lat="49.68929" lon="5.11023">
        <ele>221.7</ele>
        <time>2020-06-25T15:49:55Z</time>
      </trkpt>
      <trkpt lat="49.68931" lon="5.11027">
        <ele>221.8</ele>
        <time>2020-06-25T15:49:56Z</time>
      </trkpt>
      <trkpt lat="49.68932" lon="5.11032">
        <ele>221.9</ele>
        <time>2020-06-25T15:49:57Z</time>
      </trkpt>
      <trkpt lat="49.68934" lon="5.11037">
        <ele>222.1</ele>
        <time>2020-06-25T15:49:58Z</time>
      </trkpt>
      <trkpt lat="49.68936" lon="5.11042">
        <ele>222.2</ele>
        <time>2020-06-25T15:49:59Z</time>
      </trkpt>
      <trkpt lat="49.68938" lon="5.11048">
        <ele>222.4</ele>
        <time>2020-06-25T15:50:00Z</time>
      </trkpt>
      <trkpt lat="49.68939" lon="5.11053">
        <ele>222.5</ele>
        <time>2020-06-25T15:50:01Z</time>
      </trkpt>
      <trkpt lat="49.68941" lon="5.11058">
        <ele>222.7</ele>
        <time>2020-06-25T15:50:02Z</time>
      </trkpt>
      <trkpt lat="49.68942" lon="5.11064">
        <ele>222.9</ele>
        <time>2020-06-25T15:50:03Z</time>
      </trkpt>
      <trkpt lat="49.68943" lon="5.11068">
        <ele>223</ele>
        <time>2020-06-25T15:50:04Z</time>
      </trkpt>
      <trkpt lat="49.68945" lon="5.11071">
        <ele>223.1</ele>
        <time>2020-06-25T15:50:05Z</time>
      </trkpt>
      <trkpt lat="49.68947" lon="5.11075">
        <ele>223.3</ele>
        <time>2020-06-25T15:50:06Z</time>
      </trkpt>
      <trkpt lat="49.68949" lon="5.1108">
        <ele>223.5</ele>
        <time>2020-06-25T15:50:07Z</time>
      </trkpt>
      <trkpt lat="49.68951" lon="5.11083">
        <ele>223.6</ele>
        <time>2020-06-25T15:50:08Z</time>
      </trkpt>
      <trkpt lat="49.68953" lon="5.11086">
        <ele>223.8</ele>
        <time>2020-06-25T15:50:09Z</time>
      </trkpt>
      <trkpt lat="49.68955" lon="5.1109">
        <ele>223.9</ele>
        <time>2020-06-25T15:50:10Z</time>
      </trkpt>
      <trkpt lat="49.68957" lon="5.11096">
        <ele>224.1</ele>
        <time>2020-06-25T15:50:11Z</time>
      </trkpt>
      <trkpt lat="49.68958" lon="5.11098">
        <ele>224.2</ele>
        <time>2020-06-25T15:50:12Z</time>
      </trkpt>
      <trkpt lat="49.6896" lon="5.11101">
        <ele>224.4</ele>
        <time>2020-06-25T15:50:13Z</time>
      </trkpt>
      <trkpt lat="49.68962" lon="5.11106">
        <ele>224.6</ele>
        <time>2020-06-25T15:50:14Z</time>
      </trkpt>
      <trkpt lat="49.68964" lon="5.11111">
        <ele>224.8</ele>
        <time>2020-06-25T15:50:15Z</time>
      </trkpt>
      <trkpt lat="49.68965" lon="5.11116">
        <ele>224.9</ele>
        <time>2020-06-25T15:50:16Z</time>
      </trkpt>
      <trkpt lat="49.68967" lon="5.1112">
        <ele>225</ele>
        <time>2020-06-25T15:50:17Z</time>
      </trkpt>
      <trkpt lat="49.68968" lon="5.11126">
        <ele>225.2</ele>
        <time>2020-06-25T15:50:18Z</time>
      </trkpt>
      <trkpt lat="49.68969" lon="5.11131">
        <ele>225.3</ele>
        <time>2020-06-25T15:50:19Z</time>
      </trkpt>
      <trkpt lat="49.68971" lon="5.11136">
        <ele>225.5</ele>
        <time>2020-06-25T15:50:20Z</time>
      </trkpt>
      <trkpt lat="49.68973" lon="5.11141">
        <ele>225.6</ele>
        <time>2020-06-25T15:50:21Z</time>
      </trkpt>
      <trkpt lat="49.68975" lon="5.11147">
        <ele>225.8</ele>
        <time>2020-06-25T15:50:22Z</time>
      </trkpt>
      <trkpt lat="49.68978" lon="5.11152">
        <ele>226</ele>
        <time>2020-06-25T15:50:23Z</time>
      </trkpt>
      <trkpt lat="49.68981" lon="5.11158">
        <ele>226.2</ele>
        <time>2020-06-25T15:50:24Z</time>
      </trkpt>
      <trkpt lat="49.68984" lon="5.11164">
        <ele>226.4</ele>
        <time>2020-06-25T15:50:25Z</time>
      </trkpt>
      <trkpt lat="49.68987" lon="5.11169">
        <ele>226.6</ele>
        <time>2020-06-25T15:50:26Z</time>
      </trkpt>
      <trkpt lat="49.68989" lon="5.11175">
        <ele>226.7</ele>
        <time>2020-06-25T15:50:27Z</time>
      </trkpt>
      <trkpt lat="49.68992" lon="5.1118">
        <ele>226.9</ele>
        <time>2020-06-25T15:50:28Z</time>
      </trkpt>
      <trkpt lat="49.68995" lon="5.11186">
        <ele>227</ele>
        <time>2020-06-25T15:50:29Z</time>
      </trkpt>
      <trkpt lat="49.68997" lon="5.11191">
        <ele>227.2</ele>
        <time>2020-06-25T15:50:30Z</time>
      </trkpt>
      <trkpt lat="49.68999" lon="5.11195">
        <ele>227.4</ele>
        <time>2020-06-25T15:50:31Z</time>
      </trkpt>
      <trkpt lat="49.69001" lon="5.11201">
        <ele>227.5</ele>
        <time>2020-06-25T15:50:32Z</time>
      </trkpt>
      <trkpt lat="49.69003" lon="5.11207">
        <ele>227.7</ele>
        <time>2020-06-25T15:50:33Z</time>
      </trkpt>
      <trkpt lat="49.69005" lon="5.11212">
        <ele>227.8</ele>
        <time>2020-06-25T15:50:34Z</time>
      </trkpt>
      <trkpt lat="49.69006" lon="5.11217">
        <ele>227.9</ele>
        <time>2020-06-25T15:50:35Z</time>
      </trkpt>
      <trkpt lat="49.69009" lon="5.11222">
        <ele>228</ele>
        <time>2020-06-25T15:50:36Z</time>
      </trkpt>
      <trkpt lat="49.69011" lon="5.11227">
        <ele>228.2</ele>
        <time>2020-06-25T15:50:37Z</time>
      </trkpt>
      <trkpt lat="49.69013" lon="5.11233">
        <ele>228.3</ele>
        <time>2020-06-25T15:50:38Z</time>
      </trkpt>
      <trkpt lat="49.69015" lon="5.11238">
        <ele>228.4</ele>
        <time>2020-06-25T15:50:39Z</time>
      </trkpt>
      <trkpt lat="49.69017" lon="5.11243">
        <ele>228.6</ele>
        <time>2020-06-25T15:50:40Z</time>
      </trkpt>
      <trkpt lat="49.6902" lon="5.11248">
        <ele>228.7</ele>
        <time>2020-06-25T15:50:41Z</time>
      </trkpt>
      <trkpt lat="49.69023" lon="5.11254">
        <ele>228.8</ele>
        <time>2020-06-25T15:50:42Z</time>
      </trkpt>
      <trkpt lat="49.69025" lon="5.11259">
        <ele>229</ele>
        <time>2020-06-25T15:50:43Z</time>
      </trkpt>
      <trkpt lat="49.69027" lon="5.11264">
        <ele>229.1</ele>
        <time>2020-06-25T15:50:44Z</time>
      </trkpt>
      <trkpt lat="49.6903" lon="5.11268">
        <ele>229.2</ele>
        <time>2020-06-25T15:50:45Z</time>
      </trkpt>
      <trkpt lat="49.69032" lon="5.11273">
        <ele>229.4</ele>
        <time>2020-06-25T15:50:46Z</time>
      </trkpt>
      <trkpt lat="49.69035" lon="5.11278">
        <ele>229.5</ele>
        <time>2020-06-25T15:50:47Z</time>
      </trkpt>
      <trkpt lat="49.69035" lon="5.11282">
        <ele>229.6</ele>
        <time>2020-06-25T15:50:48Z</time>
      </trkpt>
      <trkpt lat="49.69037" lon="5.11287">
        <ele>229.7</ele>
        <time>2020-06-25T15:50:49Z</time>
      </trkpt>
      <trkpt lat="49.69039" lon="5.11292">
        <ele>229.8</ele>
        <time>2020-06-25T15:50:50Z</time>
      </trkpt>
      <trkpt lat="49.69041" lon="5.11297">
        <ele>229.9</ele>
        <time>2020-06-25T15:50:51Z</time>
      </trkpt>
      <trkpt lat="49.69042" lon="5.11302">
        <ele>230</ele>
        <time>2020-06-25T15:50:52Z</time>
      </trkpt>
      <trkpt lat="49.69044" lon="5.11306">
        <ele>230.1</ele>
        <time>2020-06-25T15:50:53Z</time>
      </trkpt>
      <trkpt lat="49.69047" lon="5.11311">
        <ele>230.2</ele>
        <time>2020-06-25T15:50:54Z</time>
      </trkpt>
      <trkpt lat="49.69049" lon="5.11317">
        <ele>230.3</ele>
        <time>2020-06-25T15:50:55Z</time>
      </trkpt>
      <trkpt lat="49.69051" lon="5.11322">
        <ele>230.4</ele>
        <time>2020-06-25T15:50:56Z</time>
      </trkpt>
      <trkpt lat="49.69053" lon="5.11328">
        <ele>230.4</ele>
        <time>2020-06-25T15:50:57Z</time>
      </trkpt>
      <trkpt lat="49.69055" lon="5.11332">
        <ele>230.5</ele>
        <time>2020-06-25T15:50:58Z</time>
      </trkpt>
      <trkpt lat="49.69056" lon="5.11337">
        <ele>230.6</ele>
        <time>2020-06-25T15:50:59Z</time>
      </trkpt>
      <trkpt lat="49.69057" lon="5.11343">
        <ele>230.6</ele>
        <time>2020-06-25T15:51:00Z</time>
      </trkpt>
      <trkpt lat="49.69059" lon="5.11348">
        <ele>230.7</ele>
        <time>2020-06-25T15:51:01Z</time>
      </trkpt>
      <trkpt lat="49.6906" lon="5.11353">
        <ele>230.9</ele>
        <time>2020-06-25T15:51:02Z</time>
      </trkpt>
      <trkpt lat="49.69062" lon="5.11358">
        <ele>231</ele>
        <time>2020-06-25T15:51:03Z</time>
      </trkpt>
      <trkpt lat="49.69063" lon="5.11363">
        <ele>231</ele>
        <time>2020-06-25T15:51:04Z</time>
      </trkpt>
      <trkpt lat="49.69064" lon="5.11368">
        <ele>231.2</ele>
        <time>2020-06-25T15:51:05Z</time>
      </trkpt>
      <trkpt lat="49.69065" lon="5.11373">
        <ele>231.2</ele>
        <time>2020-06-25T15:51:06Z</time>
      </trkpt>
      <trkpt lat="49.69066" lon="5.11378">
        <ele>231.3</ele>
        <time>2020-06-25T15:51:07Z</time>
      </trkpt>
      <trkpt lat="49.69068" lon="5.11384">
        <ele>231.4</ele>
        <time>2020-06-25T15:51:08Z</time>
      </trkpt>
      <trkpt lat="49.69069" lon="5.1139">
        <ele>231.4</ele>
        <time>2020-06-25T15:51:09Z</time>
      </trkpt>
      <trkpt lat="49.69071" lon="5.11396">
        <ele>231.5</ele>
        <time>2020-06-25T15:51:10Z</time>
      </trkpt>
      <trkpt lat="49.69073" lon="5.11401">
        <ele>231.6</ele>
        <time>2020-06-25T15:51:11Z</time>
      </trkpt>
      <trkpt lat="49.69076" lon="5.11407">
        <ele>231.7</ele>
        <time>2020-06-25T15:51:12Z</time>
      </trkpt>
      <trkpt lat="49.69078" lon="5.11412">
        <ele>231.7</ele>
        <time>2020-06-25T15:51:13Z</time>
      </trkpt>
      <trkpt lat="49.69081" lon="5.11417">
        <ele>231.9</ele>
        <time>2020-06-25T15:51:14Z</time>
      </trkpt>
      <trkpt lat="49.69083" lon="5.11422">
        <ele>231.9</ele>
        <time>2020-06-25T15:51:15Z</time>
      </trkpt>
      <trkpt lat="49.69084" lon="5.11426">
        <ele>232</ele>
        <time>2020-06-25T15:51:16Z</time>
      </trkpt>
      <trkpt lat="49.69085" lon="5.11431">
        <ele>232.1</ele>
        <time>2020-06-25T15:51:17Z</time>
      </trkpt>
      <trkpt lat="49.69087" lon="5.11436">
        <ele>232.2</ele>
        <time>2020-06-25T15:51:18Z</time>
      </trkpt>
      <trkpt lat="49.69089" lon="5.11441">
        <ele>232.3</ele>
        <time>2020-06-25T15:51:19Z</time>
      </trkpt>
      <trkpt lat="49.69091" lon="5.11445">
        <ele>232.4</ele>
        <time>2020-06-25T15:51:20Z</time>
      </trkpt>
      <trkpt lat="49.69092" lon="5.11449">
        <ele>232.5</ele>
        <time>2020-06-25T15:51:21Z</time>
      </trkpt>
      <trkpt lat="49.69094" lon="5.11454">
        <ele>232.6</ele>
        <time>2020-06-25T15:51:22Z</time>
      </trkpt>
      <trkpt lat="49.69097" lon="5.11459">
        <ele>232.6</ele>
        <time>2020-06-25T15:51:23Z</time>
      </trkpt>
      <trkpt lat="49.69098" lon="5.11465">
        <ele>232.7</ele>
        <time>2020-06-25T15:51:24Z</time>
      </trkpt>
      <trkpt lat="49.691" lon="5.1147">
        <ele>232.8</ele>
        <time>2020-06-25T15:51:25Z</time>
      </trkpt>
      <trkpt lat="49.69102" lon="5.11475">
        <ele>232.9</ele>
        <time>2020-06-25T15:51:26Z</time>
      </trkpt>
      <trkpt lat="49.69104" lon="5.11481">
        <ele>233</ele>
        <time>2020-06-25T15:51:27Z</time>
      </trkpt>
      <trkpt lat="49.69105" lon="5.11486">
        <ele>233.1</ele>
        <time>2020-06-25T15:51:28Z</time>
      </trkpt>
      <trkpt lat="49.69107" lon="5.11492">
        <ele>233.2</ele>
        <time>2020-06-25T15:51:29Z</time>
      </trkpt>
      <trkpt lat="49.69108" lon="5.11497">
        <ele>233.2</ele>
        <time>2020-06-25T15:51:30Z</time>
      </trkpt>
      <trkpt lat="49.6911" lon="5.11503">
        <ele>233.3</ele>
        <time>2020-06-25T15:51:31Z</time>
      </trkpt>
      <trkpt lat="49.69111" lon="5.11509">
        <ele>233.5</ele>
        <time>2020-06-25T15:51:32Z</time>
      </trkpt>
      <trkpt lat="49.69113" lon="5.11514">
        <ele>233.6</ele>
        <time>2020-06-25T15:51:33Z</time>
      </trkpt>
      <trkpt lat="49.69114" lon="5.11519">
        <ele>233.6</ele>
        <time>2020-06-25T15:51:34Z</time>
      </trkpt>
      <trkpt lat="49.69116" lon="5.11524">
        <ele>233.7</ele>
        <time>2020-06-25T15:51:35Z</time>
      </trkpt>
      <trkpt lat="49.69117" lon="5.11529">
        <ele>233.8</ele>
        <time>2020-06-25T15:51:36Z</time>
      </trkpt>
      <trkpt lat="49.69119" lon="5.11536">
        <ele>233.9</ele>
        <time>2020-06-25T15:51:37Z</time>
      </trkpt>
      <trkpt lat="49.69121" lon="5.11542">
        <ele>233.9</ele>
        <time>2020-06-25T15:51:38Z</time>
      </trkpt>
      <trkpt lat="49.69122" lon="5.11546">
        <ele>234</ele>
        <time>2020-06-25T15:51:39Z</time>
      </trkpt>
      <trkpt lat="49.69124" lon="5.1155">
        <ele>234</ele>
        <time>2020-06-25T15:51:40Z</time>
      </trkpt>
      <trkpt lat="49.69124" lon="5.11554">
        <ele>234.1</ele>
        <time>2020-06-25T15:51:41Z</time>
      </trkpt>
      <trkpt lat="49.69125" lon="5.11559">
        <ele>234.1</ele>
        <time>2020-06-25T15:51:42Z</time>
      </trkpt>
      <trkpt lat="49.69126" lon="5.11561">
        <ele>234.2</ele>
        <time>2020-06-25T15:51:43Z</time>
      </trkpt>
      <trkpt lat="49.69126" lon="5.11565">
        <ele>234.2</ele>
        <time>2020-06-25T15:51:44Z</time>
      </trkpt>
      <trkpt lat="49.69126" lon="5.11567">
        <ele>234.2</ele>
        <time>2020-06-25T15:51:45Z</time>
      </trkpt>
      <trkpt lat="49.69127" lon="5.11571">
        <ele>234.3</ele>
        <time>2020-06-25T15:51:46Z</time>
      </trkpt>
      <trkpt lat="49.69127" lon="5.11572">
        <ele>234.3</ele>
        <time>2020-06-25T15:51:47Z</time>
      </trkpt>
      <trkpt lat="49.69129" lon="5.11577">
        <ele>234.4</ele>
        <time>2020-06-25T15:51:48Z</time>
      </trkpt>
      <trkpt lat="49.69129" lon="5.11578">
        <ele>234.4</ele>
        <time>2020-06-25T15:51:49Z</time>
      </trkpt>
      <trkpt lat="49.69131" lon="5.11583">
        <ele>234.5</ele>
        <time>2020-06-25T15:51:50Z</time>
      </trkpt>
      <trkpt lat="49.69132" lon="5.11584">
        <ele>234.5</ele>
        <time>2020-06-25T15:51:51Z</time>
      </trkpt>
      <trkpt lat="49.69133" lon="5.1159">
        <ele>234.6</ele>
        <time>2020-06-25T15:51:52Z</time>
      </trkpt>
      <trkpt lat="49.69134" lon="5.11592">
        <ele>234.7</ele>
        <time>2020-06-25T15:51:53Z</time>
      </trkpt>
      <trkpt lat="49.69135" lon="5.11598">
        <ele>234.8</ele>
        <time>2020-06-25T15:51:54Z</time>
      </trkpt>
      <trkpt lat="49.69136" lon="5.11599">
        <ele>234.8</ele>
        <time>2020-06-25T15:51:55Z</time>
      </trkpt>
      <trkpt lat="49.69137" lon="5.11603">
        <ele>234.9</ele>
        <time>2020-06-25T15:51:56Z</time>
      </trkpt>
      <trkpt lat="49.69139" lon="5.11608">
        <ele>235</ele>
        <time>2020-06-25T15:51:57Z</time>
      </trkpt>
      <trkpt lat="49.6914" lon="5.11613">
        <ele>235.1</ele>
        <time>2020-06-25T15:51:58Z</time>
      </trkpt>
      <trkpt lat="49.6914" lon="5.11618">
        <ele>235.2</ele>
        <time>2020-06-25T15:51:59Z</time>
      </trkpt>
      <trkpt lat="49.69142" lon="5.11624">
        <ele>235.3</ele>
        <time>2020-06-25T15:52:00Z</time>
      </trkpt>
      <trkpt lat="49.69142" lon="5.1163">
        <ele>235.4</ele>
        <time>2020-06-25T15:52:01Z</time>
      </trkpt>
      <trkpt lat="49.69142" lon="5.11635">
        <ele>235.6</ele>
        <time>2020-06-25T15:52:02Z</time>
      </trkpt>
      <trkpt lat="49.69143" lon="5.1164">
        <ele>235.7</ele>
        <time>2020-06-25T15:52:03Z</time>
      </trkpt>
      <trkpt lat="49.69145" lon="5.11644">
        <ele>235.9</ele>
        <time>2020-06-25T15:52:04Z</time>
      </trkpt>
      <trkpt lat="49.69146" lon="5.11649">
        <ele>236</ele>
        <time>2020-06-25T15:52:05Z</time>
      </trkpt>
      <trkpt lat="49.69147" lon="5.11654">
        <ele>236.2</ele>
        <time>2020-06-25T15:52:06Z</time>
      </trkpt>
      <trkpt lat="49.69148" lon="5.11659">
        <ele>236.3</ele>
        <time>2020-06-25T15:52:07Z</time>
      </trkpt>
      <trkpt lat="49.69149" lon="5.11663">
        <ele>236.4</ele>
        <time>2020-06-25T15:52:08Z</time>
      </trkpt>
      <trkpt lat="49.69151" lon="5.11668">
        <ele>236.6</ele>
        <time>2020-06-25T15:52:09Z</time>
      </trkpt>
      <trkpt lat="49.69151" lon="5.1167">
        <ele>236.7</ele>
        <time>2020-06-25T15:52:10Z</time>
      </trkpt>
      <trkpt lat="49.69152" lon="5.11674">
        <ele>236.8</ele>
        <time>2020-06-25T15:52:11Z</time>
      </trkpt>
      <trkpt lat="49.69154" lon="5.11679">
        <ele>237</ele>
        <time>2020-06-25T15:52:12Z</time>
      </trkpt>
      <trkpt lat="49.69155" lon="5.11681">
        <ele>237</ele>
        <time>2020-06-25T15:52:13Z</time>
      </trkpt>
      <trkpt lat="49.69155" lon="5.11687">
        <ele>237.2</ele>
        <time>2020-06-25T15:52:14Z</time>
      </trkpt>
      <trkpt lat="49.69155" lon="5.1169">
        <ele>237.3</ele>
        <time>2020-06-25T15:52:15Z</time>
      </trkpt>
      <trkpt lat="49.69155" lon="5.11695">
        <ele>237.4</ele>
        <time>2020-06-25T15:52:16Z</time>
      </trkpt>
      <trkpt lat="49.69156" lon="5.117">
        <ele>237.6</ele>
        <time>2020-06-25T15:52:17Z</time>
      </trkpt>
      <trkpt lat="49.69157" lon="5.11705">
        <ele>237.7</ele>
        <time>2020-06-25T15:52:18Z</time>
      </trkpt>
      <trkpt lat="49.69158" lon="5.11709">
        <ele>237.8</ele>
        <time>2020-06-25T15:52:19Z</time>
      </trkpt>
      <trkpt lat="49.6916" lon="5.11713">
        <ele>237.9</ele>
        <time>2020-06-25T15:52:20Z</time>
      </trkpt>
      <trkpt lat="49.69161" lon="5.11719">
        <ele>238.1</ele>
        <time>2020-06-25T15:52:21Z</time>
      </trkpt>
      <trkpt lat="49.69162" lon="5.11724">
        <ele>238.2</ele>
        <time>2020-06-25T15:52:22Z</time>
      </trkpt>
      <trkpt lat="49.69162" lon="5.11728">
        <ele>238.3</ele>
        <time>2020-06-25T15:52:23Z</time>
      </trkpt>
      <trkpt lat="49.69164" lon="5.11733">
        <ele>238.4</ele>
        <time>2020-06-25T15:52:24Z</time>
      </trkpt>
      <trkpt lat="49.69165" lon="5.11738">
        <ele>238.5</ele>
        <time>2020-06-25T15:52:25Z</time>
      </trkpt>
      <trkpt lat="49.69166" lon="5.11743">
        <ele>238.6</ele>
        <time>2020-06-25T15:52:26Z</time>
      </trkpt>
      <trkpt lat="49.69167" lon="5.11748">
        <ele>238.7</ele>
        <time>2020-06-25T15:52:27Z</time>
      </trkpt>
      <trkpt lat="49.69168" lon="5.11753">
        <ele>238.9</ele>
        <time>2020-06-25T15:52:28Z</time>
      </trkpt>
      <trkpt lat="49.69168" lon="5.11758">
        <ele>239</ele>
        <time>2020-06-25T15:52:29Z</time>
      </trkpt>
      <trkpt lat="49.69169" lon="5.11764">
        <ele>239.1</ele>
        <time>2020-06-25T15:52:30Z</time>
      </trkpt>
      <trkpt lat="49.6917" lon="5.11769">
        <ele>239.2</ele>
        <time>2020-06-25T15:52:31Z</time>
      </trkpt>
      <trkpt lat="49.69171" lon="5.11773">
        <ele>239.3</ele>
        <time>2020-06-25T15:52:32Z</time>
      </trkpt>
      <trkpt lat="49.69172" lon="5.11778">
        <ele>239.4</ele>
        <time>2020-06-25T15:52:33Z</time>
      </trkpt>
      <trkpt lat="49.69173" lon="5.11783">
        <ele>239.4</ele>
        <time>2020-06-25T15:52:34Z</time>
      </trkpt>
      <trkpt lat="49.69173" lon="5.11787">
        <ele>239.5</ele>
        <time>2020-06-25T15:52:35Z</time>
      </trkpt>
      <trkpt lat="49.69174" lon="5.11792">
        <ele>239.6</ele>
        <time>2020-06-25T15:52:36Z</time>
      </trkpt>
      <trkpt lat="49.69175" lon="5.11796">
        <ele>239.7</ele>
        <time>2020-06-25T15:52:37Z</time>
      </trkpt>
      <trkpt lat="49.69176" lon="5.118">
        <ele>239.8</ele>
        <time>2020-06-25T15:52:38Z</time>
      </trkpt>
      <trkpt lat="49.69177" lon="5.11805">
        <ele>239.9</ele>
        <time>2020-06-25T15:52:39Z</time>
      </trkpt>
      <trkpt lat="49.69178" lon="5.1181">
        <ele>239.9</ele>
        <time>2020-06-25T15:52:40Z</time>
      </trkpt>
      <trkpt lat="49.69178" lon="5.11814">
        <ele>240</ele>
        <time>2020-06-25T15:52:41Z</time>
      </trkpt>
      <trkpt lat="49.69178" lon="5.11819">
        <ele>240</ele>
        <time>2020-06-25T15:52:42Z</time>
      </trkpt>
      <trkpt lat="49.69178" lon="5.11825">
        <ele>240</ele>
        <time>2020-06-25T15:52:43Z</time>
      </trkpt>
      <trkpt lat="49.69178" lon="5.1183">
        <ele>240</ele>
        <time>2020-06-25T15:52:44Z</time>
      </trkpt>
      <trkpt lat="49.69178" lon="5.11836">
        <ele>240</ele>
        <time>2020-06-25T15:52:45Z</time>
      </trkpt>
      <trkpt lat="49.69178" lon="5.11842">
        <ele>240</ele>
        <time>2020-06-25T15:52:46Z</time>
      </trkpt>
      <trkpt lat="49.69179" lon="5.11848">
        <ele>239.9</ele>
        <time>2020-06-25T15:52:47Z</time>
      </trkpt>
      <trkpt lat="49.6918" lon="5.11854">
        <ele>239.8</ele>
        <time>2020-06-25T15:52:48Z</time>
      </trkpt>
      <trkpt lat="49.69181" lon="5.11861">
        <ele>239.8</ele>
        <time>2020-06-25T15:52:49Z</time>
      </trkpt>
      <trkpt lat="49.69181" lon="5.11868">
        <ele>239.7</ele>
        <time>2020-06-25T15:52:50Z</time>
      </trkpt>
      <trkpt lat="49.69181" lon="5.11874">
        <ele>239.7</ele>
        <time>2020-06-25T15:52:51Z</time>
      </trkpt>
      <trkpt lat="49.69181" lon="5.11881">
        <ele>239.6</ele>
        <time>2020-06-25T15:52:52Z</time>
      </trkpt>
      <trkpt lat="49.6918" lon="5.11887">
        <ele>239.5</ele>
        <time>2020-06-25T15:52:53Z</time>
      </trkpt>
      <trkpt lat="49.69179" lon="5.11895">
        <ele>239.4</ele>
        <time>2020-06-25T15:52:54Z</time>
      </trkpt>
      <trkpt lat="49.69179" lon="5.11901">
        <ele>239.4</ele>
        <time>2020-06-25T15:52:55Z</time>
      </trkpt>
      <trkpt lat="49.69179" lon="5.11907">
        <ele>239.3</ele>
        <time>2020-06-25T15:52:56Z</time>
      </trkpt>
      <trkpt lat="49.6918" lon="5.11914">
        <ele>239.2</ele>
        <time>2020-06-25T15:52:57Z</time>
      </trkpt>
      <trkpt lat="49.69179" lon="5.11919">
        <ele>239.1</ele>
        <time>2020-06-25T15:52:58Z</time>
      </trkpt>
      <trkpt lat="49.69179" lon="5.11928">
        <ele>238.9</ele>
        <time>2020-06-25T15:52:59Z</time>
      </trkpt>
      <trkpt lat="49.69178" lon="5.11935">
        <ele>238.7</ele>
        <time>2020-06-25T15:53:00Z</time>
      </trkpt>
      <trkpt lat="49.69178" lon="5.11943">
        <ele>238.8</ele>
        <time>2020-06-25T15:53:01Z</time>
      </trkpt>
      <trkpt lat="49.69176" lon="5.11951">
        <ele>238.9</ele>
        <time>2020-06-25T15:53:02Z</time>
      </trkpt>
      <trkpt lat="49.69175" lon="5.11957">
        <ele>239</ele>
        <time>2020-06-25T15:53:03Z</time>
      </trkpt>
      <trkpt lat="49.69173" lon="5.11964">
        <ele>239.1</ele>
        <time>2020-06-25T15:53:04Z</time>
      </trkpt>
      <trkpt lat="49.69172" lon="5.1197">
        <ele>239.2</ele>
        <time>2020-06-25T15:53:05Z</time>
      </trkpt>
      <trkpt lat="49.69171" lon="5.11977">
        <ele>239.3</ele>
        <time>2020-06-25T15:53:06Z</time>
      </trkpt>
      <trkpt lat="49.69169" lon="5.11984">
        <ele>239.4</ele>
        <time>2020-06-25T15:53:07Z</time>
      </trkpt>
      <trkpt lat="49.69169" lon="5.1199">
        <ele>239.5</ele>
        <time>2020-06-25T15:53:08Z</time>
      </trkpt>
      <trkpt lat="49.69168" lon="5.11997">
        <ele>239.6</ele>
        <time>2020-06-25T15:53:09Z</time>
      </trkpt>
      <trkpt lat="49.69167" lon="5.12003">
        <ele>239.7</ele>
        <time>2020-06-25T15:53:10Z</time>
      </trkpt>
      <trkpt lat="49.69166" lon="5.1201">
        <ele>239.8</ele>
        <time>2020-06-25T15:53:11Z</time>
      </trkpt>
      <trkpt lat="49.69165" lon="5.12017">
        <ele>239.9</ele>
        <time>2020-06-25T15:53:12Z</time>
      </trkpt>
      <trkpt lat="49.69164" lon="5.12023">
        <ele>239.9</ele>
        <time>2020-06-25T15:53:13Z</time>
      </trkpt>
      <trkpt lat="49.69163" lon="5.12029">
        <ele>239.9</ele>
        <time>2020-06-25T15:53:14Z</time>
      </trkpt>
      <trkpt lat="49.69163" lon="5.12034">
        <ele>240</ele>
        <time>2020-06-25T15:53:15Z</time>
      </trkpt>
      <trkpt lat="49.69162" lon="5.1204">
        <ele>240</ele>
        <time>2020-06-25T15:53:16Z</time>
      </trkpt>
      <trkpt lat="49.69162" lon="5.12046">
        <ele>240.1</ele>
        <time>2020-06-25T15:53:17Z</time>
      </trkpt>
      <trkpt lat="49.69162" lon="5.12053">
        <ele>240.2</ele>
        <time>2020-06-25T15:53:18Z</time>
      </trkpt>
      <trkpt lat="49.69161" lon="5.1206">
        <ele>240.2</ele>
        <time>2020-06-25T15:53:19Z</time>
      </trkpt>
      <trkpt lat="49.6916" lon="5.12067">
        <ele>240.4</ele>
        <time>2020-06-25T15:53:20Z</time>
      </trkpt>
      <trkpt lat="49.69159" lon="5.12073">
        <ele>240.5</ele>
        <time>2020-06-25T15:53:21Z</time>
      </trkpt>
      <trkpt lat="49.69159" lon="5.1208">
        <ele>240.6</ele>
        <time>2020-06-25T15:53:22Z</time>
      </trkpt>
      <trkpt lat="49.69159" lon="5.12087">
        <ele>240.7</ele>
        <time>2020-06-25T15:53:23Z</time>
      </trkpt>
      <trkpt lat="49.69158" lon="5.12093">
        <ele>240.8</ele>
        <time>2020-06-25T15:53:24Z</time>
      </trkpt>
      <trkpt lat="49.69158" lon="5.12099">
        <ele>240.9</ele>
        <time>2020-06-25T15:53:25Z</time>
      </trkpt>
      <trkpt lat="49.69158" lon="5.12105">
        <ele>241</ele>
        <time>2020-06-25T15:53:26Z</time>
      </trkpt>
      <trkpt lat="49.69158" lon="5.12113">
        <ele>241.1</ele>
        <time>2020-06-25T15:53:27Z</time>
      </trkpt>
      <trkpt lat="49.69159" lon="5.12119">
        <ele>241.2</ele>
        <time>2020-06-25T15:53:28Z</time>
      </trkpt>
      <trkpt lat="49.69159" lon="5.12125">
        <ele>241.3</ele>
        <time>2020-06-25T15:53:29Z</time>
      </trkpt>
      <trkpt lat="49.69159" lon="5.12131">
        <ele>241.4</ele>
        <time>2020-06-25T15:53:30Z</time>
      </trkpt>
      <trkpt lat="49.69159" lon="5.12137">
        <ele>241.5</ele>
        <time>2020-06-25T15:53:31Z</time>
      </trkpt>
      <trkpt lat="49.69158" lon="5.12143">
        <ele>241.6</ele>
        <time>2020-06-25T15:53:32Z</time>
      </trkpt>
      <trkpt lat="49.69158" lon="5.12151">
        <ele>241.7</ele>
        <time>2020-06-25T15:53:33Z</time>
      </trkpt>
      <trkpt lat="49.69158" lon="5.12157">
        <ele>241.8</ele>
        <time>2020-06-25T15:53:34Z</time>
      </trkpt>
      <trkpt lat="49.69158" lon="5.12163">
        <ele>241.9</ele>
        <time>2020-06-25T15:53:35Z</time>
      </trkpt>
      <trkpt lat="49.69158" lon="5.12169">
        <ele>242</ele>
        <time>2020-06-25T15:53:36Z</time>
      </trkpt>
      <trkpt lat="49.69158" lon="5.12174">
        <ele>242.1</ele>
        <time>2020-06-25T15:53:37Z</time>
      </trkpt>
      <trkpt lat="49.69158" lon="5.1218">
        <ele>242.2</ele>
        <time>2020-06-25T15:53:38Z</time>
      </trkpt>
      <trkpt lat="49.69158" lon="5.12186">
        <ele>242.3</ele>
        <time>2020-06-25T15:53:39Z</time>
      </trkpt>
      <trkpt lat="49.69157" lon="5.12193">
        <ele>242.5</ele>
        <time>2020-06-25T15:53:40Z</time>
      </trkpt>
      <trkpt lat="49.69157" lon="5.12199">
        <ele>242.6</ele>
        <time>2020-06-25T15:53:41Z</time>
      </trkpt>
      <trkpt lat="49.69157" lon="5.12204">
        <ele>242.8</ele>
        <time>2020-06-25T15:53:42Z</time>
      </trkpt>
      <trkpt lat="49.69157" lon="5.1221">
        <ele>242.9</ele>
        <time>2020-06-25T15:53:43Z</time>
      </trkpt>
      <trkpt lat="49.69156" lon="5.12217">
        <ele>243</ele>
        <time>2020-06-25T15:53:44Z</time>
      </trkpt>
      <trkpt lat="49.69156" lon="5.12223">
        <ele>243.2</ele>
        <time>2020-06-25T15:53:45Z</time>
      </trkpt>
      <trkpt lat="49.69156" lon="5.12228">
        <ele>243.3</ele>
        <time>2020-06-25T15:53:46Z</time>
      </trkpt>
      <trkpt lat="49.69156" lon="5.12234">
        <ele>243.4</ele>
        <time>2020-06-25T15:53:47Z</time>
      </trkpt>
      <trkpt lat="49.69156" lon="5.1224">
        <ele>243.4</ele>
        <time>2020-06-25T15:53:48Z</time>
      </trkpt>
      <trkpt lat="49.69156" lon="5.12246">
        <ele>243.5</ele>
        <time>2020-06-25T15:53:49Z</time>
      </trkpt>
      <trkpt lat="49.69155" lon="5.12252">
        <ele>243.6</ele>
        <time>2020-06-25T15:53:50Z</time>
      </trkpt>
      <trkpt lat="49.69155" lon="5.12257">
        <ele>243.6</ele>
        <time>2020-06-25T15:53:51Z</time>
      </trkpt>
      <trkpt lat="49.69155" lon="5.12263">
        <ele>243.7</ele>
        <time>2020-06-25T15:53:52Z</time>
      </trkpt>
      <trkpt lat="49.69155" lon="5.1227">
        <ele>243.7</ele>
        <time>2020-06-25T15:53:53Z</time>
      </trkpt>
      <trkpt lat="49.69155" lon="5.12276">
        <ele>243.8</ele>
        <time>2020-06-25T15:53:54Z</time>
      </trkpt>
      <trkpt lat="49.69155" lon="5.12282">
        <ele>243.8</ele>
        <time>2020-06-25T15:53:55Z</time>
      </trkpt>
      <trkpt lat="49.69155" lon="5.12287">
        <ele>243.7</ele>
        <time>2020-06-25T15:53:56Z</time>
      </trkpt>
      <trkpt lat="49.69155" lon="5.12294">
        <ele>243.7</ele>
        <time>2020-06-25T15:53:57Z</time>
      </trkpt>
      <trkpt lat="49.69155" lon="5.12299">
        <ele>243.6</ele>
        <time>2020-06-25T15:53:58Z</time>
      </trkpt>
      <trkpt lat="49.69154" lon="5.12307">
        <ele>243.5</ele>
        <time>2020-06-25T15:53:59Z</time>
      </trkpt>
      <trkpt lat="49.69154" lon="5.12313">
        <ele>243.5</ele>
        <time>2020-06-25T15:54:00Z</time>
      </trkpt>
      <trkpt lat="49.69153" lon="5.12317">
        <ele>243.5</ele>
        <time>2020-06-25T15:54:01Z</time>
      </trkpt>
      <trkpt lat="49.69151" lon="5.12322">
        <ele>243.5</ele>
        <time>2020-06-25T15:54:02Z</time>
      </trkpt>
      <trkpt lat="49.69148" lon="5.12326">
        <ele>243.6</ele>
        <time>2020-06-25T15:54:03Z</time>
      </trkpt>
      <trkpt lat="49.69147" lon="5.12327">
        <ele>243.6</ele>
        <time>2020-06-25T15:54:04Z</time>
      </trkpt>
      <trkpt lat="49.69144" lon="5.1233">
        <ele>243.5</ele>
        <time>2020-06-25T15:54:05Z</time>
      </trkpt>
      <trkpt lat="49.69143" lon="5.12332">
        <ele>243.5</ele>
        <time>2020-06-25T15:54:06Z</time>
      </trkpt>
      <trkpt lat="49.6914" lon="5.12335">
        <ele>243.4</ele>
        <time>2020-06-25T15:54:07Z</time>
      </trkpt>
      <trkpt lat="49.69139" lon="5.12335">
        <ele>243.4</ele>
        <time>2020-06-25T15:54:08Z</time>
      </trkpt>
      <trkpt lat="49.69136" lon="5.12337">
        <ele>243.3</ele>
        <time>2020-06-25T15:54:09Z</time>
      </trkpt>
      <trkpt lat="49.69135" lon="5.12338">
        <ele>243.2</ele>
        <time>2020-06-25T15:54:10Z</time>
      </trkpt>
      <trkpt lat="49.69134" lon="5.12339">
        <ele>243.2</ele>
        <time>2020-06-25T15:54:11Z</time>
      </trkpt>
      <trkpt lat="49.69133" lon="5.12339">
        <ele>243.2</ele>
        <time>2020-06-25T15:54:12Z</time>
      </trkpt>
      <trkpt lat="49.69132" lon="5.12338">
        <ele>243.1</ele>
        <time>2020-06-25T15:54:13Z</time>
      </trkpt>
      <trkpt lat="49.69132" lon="5.12338">
        <ele>243.1</ele>
        <time>2020-06-25T15:54:14Z</time>
      </trkpt>
      <trkpt lat="49.69132" lon="5.12338">
        <ele>243.1</ele>
        <time>2020-06-25T15:54:15Z</time>
      </trkpt>
      <trkpt lat="49.69131" lon="5.12338">
        <ele>243.1</ele>
        <time>2020-06-25T15:54:16Z</time>
      </trkpt>
      <trkpt lat="49.69131" lon="5.12339">
        <ele>243</ele>
        <time>2020-06-25T15:54:17Z</time>
      </trkpt>
      <trkpt lat="49.6913" lon="5.12339">
        <ele>243</ele>
        <time>2020-06-25T15:54:18Z</time>
      </trkpt>
      <trkpt lat="49.6913" lon="5.1234">
        <ele>243</ele>
        <time>2020-06-25T15:54:19Z</time>
      </trkpt>
      <trkpt lat="49.69129" lon="5.1234">
        <ele>243</ele>
        <time>2020-06-25T15:54:20Z</time>
      </trkpt>
      <trkpt lat="49.69129" lon="5.1234">
        <ele>243</ele>
        <time>2020-06-25T15:54:21Z</time>
      </trkpt>
      <trkpt lat="49.69129" lon="5.12341">
        <ele>242.9</ele>
        <time>2020-06-25T15:54:22Z</time>
      </trkpt>
      <trkpt lat="49.69128" lon="5.12341">
        <ele>242.9</ele>
        <time>2020-06-25T15:55:05Z</time>
      </trkpt>
      <trkpt lat="49.69128" lon="5.12342">
        <ele>242.9</ele>
        <time>2020-06-25T15:55:06Z</time>
      </trkpt>
      <trkpt lat="49.69125" lon="5.12344">
        <ele>242.8</ele>
        <time>2020-06-25T15:55:07Z</time>
      </trkpt>
      <trkpt lat="49.69123" lon="5.12346">
        <ele>242.7</ele>
        <time>2020-06-25T15:55:08Z</time>
      </trkpt>
      <trkpt lat="49.69121" lon="5.12348">
        <ele>242.6</ele>
        <time>2020-06-25T15:55:09Z</time>
      </trkpt>
      <trkpt lat="49.69118" lon="5.1235">
        <ele>242.4</ele>
        <time>2020-06-25T15:55:10Z</time>
      </trkpt>
      <trkpt lat="49.69114" lon="5.12353">
        <ele>242.2</ele>
        <time>2020-06-25T15:55:11Z</time>
      </trkpt>
      <trkpt lat="49.69113" lon="5.12355">
        <ele>242.2</ele>
        <time>2020-06-25T15:55:12Z</time>
      </trkpt>
      <trkpt lat="49.6911" lon="5.12358">
        <ele>242</ele>
        <time>2020-06-25T15:55:13Z</time>
      </trkpt>
      <trkpt lat="49.69107" lon="5.12361">
        <ele>241.9</ele>
        <time>2020-06-25T15:55:14Z</time>
      </trkpt>
      <trkpt lat="49.69104" lon="5.12365">
        <ele>241.7</ele>
        <time>2020-06-25T15:55:15Z</time>
      </trkpt>
      <trkpt lat="49.691" lon="5.12367">
        <ele>241.5</ele>
        <time>2020-06-25T15:55:16Z</time>
      </trkpt>
      <trkpt lat="49.69097" lon="5.12369">
        <ele>241.4</ele>
        <time>2020-06-25T15:55:17Z</time>
      </trkpt>
      <trkpt lat="49.69094" lon="5.12372">
        <ele>241.2</ele>
        <time>2020-06-25T15:55:18Z</time>
      </trkpt>
      <trkpt lat="49.6909" lon="5.12377">
        <ele>241</ele>
        <time>2020-06-25T15:55:19Z</time>
      </trkpt>
      <trkpt lat="49.69086" lon="5.12378">
        <ele>240.9</ele>
        <time>2020-06-25T15:55:20Z</time>
      </trkpt>
      <trkpt lat="49.69082" lon="5.12382">
        <ele>240.7</ele>
        <time>2020-06-25T15:55:21Z</time>
      </trkpt>
      <trkpt lat="49.69078" lon="5.12386">
        <ele>240.5</ele>
        <time>2020-06-25T15:55:22Z</time>
      </trkpt>
      <trkpt lat="49.69073" lon="5.1239">
        <ele>240.3</ele>
        <time>2020-06-25T15:55:23Z</time>
      </trkpt>
      <trkpt lat="49.69069" lon="5.12395">
        <ele>240</ele>
        <time>2020-06-25T15:55:24Z</time>
      </trkpt>
      <trkpt lat="49.69066" lon="5.124">
        <ele>239.8</ele>
        <time>2020-06-25T15:55:25Z</time>
      </trkpt>
      <trkpt lat="49.69062" lon="5.12405">
        <ele>239.6</ele>
        <time>2020-06-25T15:55:26Z</time>
      </trkpt>
      <trkpt lat="49.69059" lon="5.12411">
        <ele>239.4</ele>
        <time>2020-06-25T15:55:27Z</time>
      </trkpt>
      <trkpt lat="49.69056" lon="5.12417">
        <ele>239.2</ele>
        <time>2020-06-25T15:55:28Z</time>
      </trkpt>
      <trkpt lat="49.69053" lon="5.12425">
        <ele>239</ele>
        <time>2020-06-25T15:55:29Z</time>
      </trkpt>
      <trkpt lat="49.6905" lon="5.12431">
        <ele>238.9</ele>
        <time>2020-06-25T15:55:30Z</time>
      </trkpt>
      <trkpt lat="49.69046" lon="5.1244">
        <ele>238.7</ele>
        <time>2020-06-25T15:55:31Z</time>
      </trkpt>
      <trkpt lat="49.69042" lon="5.12449">
        <ele>238.5</ele>
        <time>2020-06-25T15:55:32Z</time>
      </trkpt>
      <trkpt lat="49.69039" lon="5.12457">
        <ele>238.4</ele>
        <time>2020-06-25T15:55:33Z</time>
      </trkpt>
      <trkpt lat="49.69035" lon="5.12466">
        <ele>238.3</ele>
        <time>2020-06-25T15:55:34Z</time>
      </trkpt>
      <trkpt lat="49.69032" lon="5.12474">
        <ele>238.2</ele>
        <time>2020-06-25T15:55:35Z</time>
      </trkpt>
      <trkpt lat="49.69029" lon="5.12484">
        <ele>238.2</ele>
        <time>2020-06-25T15:55:36Z</time>
      </trkpt>
      <trkpt lat="49.69026" lon="5.12493">
        <ele>238.1</ele>
        <time>2020-06-25T15:55:37Z</time>
      </trkpt>
      <trkpt lat="49.69024" lon="5.12501">
        <ele>238.2</ele>
        <time>2020-06-25T15:55:38Z</time>
      </trkpt>
      <trkpt lat="49.6902" lon="5.1251">
        <ele>238.2</ele>
        <time>2020-06-25T15:55:39Z</time>
      </trkpt>
      <trkpt lat="49.69018" lon="5.12521">
        <ele>238.4</ele>
        <time>2020-06-25T15:55:40Z</time>
      </trkpt>
      <trkpt lat="49.69015" lon="5.1253">
        <ele>238.6</ele>
        <time>2020-06-25T15:55:41Z</time>
      </trkpt>
      <trkpt lat="49.69013" lon="5.1254">
        <ele>238.8</ele>
        <time>2020-06-25T15:55:42Z</time>
      </trkpt>
      <trkpt lat="49.6901" lon="5.12548">
        <ele>239</ele>
        <time>2020-06-25T15:55:43Z</time>
      </trkpt>
      <trkpt lat="49.69008" lon="5.12555">
        <ele>239.2</ele>
        <time>2020-06-25T15:55:44Z</time>
      </trkpt>
      <trkpt lat="49.69006" lon="5.12562">
        <ele>239.4</ele>
        <time>2020-06-25T15:55:45Z</time>
      </trkpt>
      <trkpt lat="49.69004" lon="5.12568">
        <ele>239.6</ele>
        <time>2020-06-25T15:55:46Z</time>
      </trkpt>
      <trkpt lat="49.69002" lon="5.12575">
        <ele>239.8</ele>
        <time>2020-06-25T15:55:47Z</time>
      </trkpt>
      <trkpt lat="49.69" lon="5.1258">
        <ele>239.9</ele>
        <time>2020-06-25T15:55:48Z</time>
      </trkpt>
      <trkpt lat="49.68998" lon="5.12585">
        <ele>239.9</ele>
        <time>2020-06-25T15:55:49Z</time>
      </trkpt>
      <trkpt lat="49.68996" lon="5.12591">
        <ele>240</ele>
        <time>2020-06-25T15:55:50Z</time>
      </trkpt>
      <trkpt lat="49.68995" lon="5.12595">
        <ele>240.1</ele>
        <time>2020-06-25T15:55:51Z</time>
      </trkpt>
      <trkpt lat="49.68993" lon="5.126">
        <ele>240.1</ele>
        <time>2020-06-25T15:55:52Z</time>
      </trkpt>
      <trkpt lat="49.68991" lon="5.12605">
        <ele>240.1</ele>
        <time>2020-06-25T15:55:53Z</time>
      </trkpt>
      <trkpt lat="49.68989" lon="5.12611">
        <ele>240</ele>
        <time>2020-06-25T15:55:54Z</time>
      </trkpt>
      <trkpt lat="49.68989" lon="5.12612">
        <ele>240</ele>
        <time>2020-06-25T15:55:55Z</time>
      </trkpt>
      <trkpt lat="49.68987" lon="5.12617">
        <ele>239.9</ele>
        <time>2020-06-25T15:55:56Z</time>
      </trkpt>
      <trkpt lat="49.68986" lon="5.12618">
        <ele>239.9</ele>
        <time>2020-06-25T15:55:57Z</time>
      </trkpt>
      <trkpt lat="49.68985" lon="5.12623">
        <ele>239.8</ele>
        <time>2020-06-25T15:55:58Z</time>
      </trkpt>
      <trkpt lat="49.68984" lon="5.12625">
        <ele>239.8</ele>
        <time>2020-06-25T15:55:59Z</time>
      </trkpt>
      <trkpt lat="49.68982" lon="5.12629">
        <ele>239.7</ele>
        <time>2020-06-25T15:56:00Z</time>
      </trkpt>
      <trkpt lat="49.6898" lon="5.12634">
        <ele>239.6</ele>
        <time>2020-06-25T15:56:01Z</time>
      </trkpt>
      <trkpt lat="49.68978" lon="5.1264">
        <ele>239.5</ele>
        <time>2020-06-25T15:56:02Z</time>
      </trkpt>
      <trkpt lat="49.68978" lon="5.12646">
        <ele>239.4</ele>
        <time>2020-06-25T15:56:03Z</time>
      </trkpt>
      <trkpt lat="49.68976" lon="5.12656">
        <ele>239.1</ele>
        <time>2020-06-25T15:56:04Z</time>
      </trkpt>
      <trkpt lat="49.68974" lon="5.12663">
        <ele>238.9</ele>
        <time>2020-06-25T15:56:05Z</time>
      </trkpt>
      <trkpt lat="49.68973" lon="5.12671">
        <ele>238.6</ele>
        <time>2020-06-25T15:56:06Z</time>
      </trkpt>
      <trkpt lat="49.68972" lon="5.12676">
        <ele>238.5</ele>
        <time>2020-06-25T15:56:07Z</time>
      </trkpt>
      <trkpt lat="49.6897" lon="5.12684">
        <ele>238.2</ele>
        <time>2020-06-25T15:56:08Z</time>
      </trkpt>
      <trkpt lat="49.68968" lon="5.12692">
        <ele>237.9</ele>
        <time>2020-06-25T15:56:09Z</time>
      </trkpt>
      <trkpt lat="49.68966" lon="5.12699">
        <ele>237.7</ele>
        <time>2020-06-25T15:56:10Z</time>
      </trkpt>
      <trkpt lat="49.68965" lon="5.12707">
        <ele>237.4</ele>
        <time>2020-06-25T15:56:11Z</time>
      </trkpt>
      <trkpt lat="49.68964" lon="5.12716">
        <ele>237.1</ele>
        <time>2020-06-25T15:56:12Z</time>
      </trkpt>
      <trkpt lat="49.68964" lon="5.12726">
        <ele>236.8</ele>
        <time>2020-06-25T15:56:13Z</time>
      </trkpt>
      <trkpt lat="49.68964" lon="5.12735">
        <ele>236.5</ele>
        <time>2020-06-25T15:56:14Z</time>
      </trkpt>
      <trkpt lat="49.68963" lon="5.12745">
        <ele>236.2</ele>
        <time>2020-06-25T15:56:15Z</time>
      </trkpt>
      <trkpt lat="49.68962" lon="5.12756">
        <ele>236</ele>
        <time>2020-06-25T15:56:16Z</time>
      </trkpt>
      <trkpt lat="49.68962" lon="5.12766">
        <ele>235.7</ele>
        <time>2020-06-25T15:56:17Z</time>
      </trkpt>
      <trkpt lat="49.68959" lon="5.12775">
        <ele>235.5</ele>
        <time>2020-06-25T15:56:18Z</time>
      </trkpt>
      <trkpt lat="49.68958" lon="5.12785">
        <ele>235.3</ele>
        <time>2020-06-25T15:56:19Z</time>
      </trkpt>
      <trkpt lat="49.68958" lon="5.12796">
        <ele>235.2</ele>
        <time>2020-06-25T15:56:20Z</time>
      </trkpt>
      <trkpt lat="49.68958" lon="5.12807">
        <ele>235.1</ele>
        <time>2020-06-25T15:56:21Z</time>
      </trkpt>
      <trkpt lat="49.68958" lon="5.12819">
        <ele>235</ele>
        <time>2020-06-25T15:56:22Z</time>
      </trkpt>
      <trkpt lat="49.68958" lon="5.1283">
        <ele>235</ele>
        <time>2020-06-25T15:56:23Z</time>
      </trkpt>
      <trkpt lat="49.68958" lon="5.12841">
        <ele>235</ele>
        <time>2020-06-25T15:56:24Z</time>
      </trkpt>
      <trkpt lat="49.68958" lon="5.12851">
        <ele>235</ele>
        <time>2020-06-25T15:56:25Z</time>
      </trkpt>
      <trkpt lat="49.68958" lon="5.12861">
        <ele>235.1</ele>
        <time>2020-06-25T15:56:26Z</time>
      </trkpt>
      <trkpt lat="49.68958" lon="5.12871">
        <ele>235.3</ele>
        <time>2020-06-25T15:56:27Z</time>
      </trkpt>
      <trkpt lat="49.68957" lon="5.12881">
        <ele>235.5</ele>
        <time>2020-06-25T15:56:28Z</time>
      </trkpt>
      <trkpt lat="49.68957" lon="5.1289">
        <ele>235.8</ele>
        <time>2020-06-25T15:56:29Z</time>
      </trkpt>
      <trkpt lat="49.68956" lon="5.12899">
        <ele>236.1</ele>
        <time>2020-06-25T15:56:30Z</time>
      </trkpt>
      <trkpt lat="49.68955" lon="5.12907">
        <ele>236.4</ele>
        <time>2020-06-25T15:56:31Z</time>
      </trkpt>
      <trkpt lat="49.68954" lon="5.12915">
        <ele>236.7</ele>
        <time>2020-06-25T15:56:32Z</time>
      </trkpt>
      <trkpt lat="49.68953" lon="5.12922">
        <ele>237</ele>
        <time>2020-06-25T15:56:33Z</time>
      </trkpt>
      <trkpt lat="49.68952" lon="5.12928">
        <ele>237.3</ele>
        <time>2020-06-25T15:56:34Z</time>
      </trkpt>
      <trkpt lat="49.68951" lon="5.12935">
        <ele>237.5</ele>
        <time>2020-06-25T15:56:35Z</time>
      </trkpt>
      <trkpt lat="49.68951" lon="5.12941">
        <ele>237.8</ele>
        <time>2020-06-25T15:56:36Z</time>
      </trkpt>
      <trkpt lat="49.68951" lon="5.12948">
        <ele>238.1</ele>
        <time>2020-06-25T15:56:37Z</time>
      </trkpt>
      <trkpt lat="49.6895" lon="5.12953">
        <ele>238.3</ele>
        <time>2020-06-25T15:56:38Z</time>
      </trkpt>
      <trkpt lat="49.68949" lon="5.12958">
        <ele>238.5</ele>
        <time>2020-06-25T15:56:39Z</time>
      </trkpt>
      <trkpt lat="49.68948" lon="5.12963">
        <ele>238.7</ele>
        <time>2020-06-25T15:56:40Z</time>
      </trkpt>
      <trkpt lat="49.68948" lon="5.12968">
        <ele>238.9</ele>
        <time>2020-06-25T15:56:41Z</time>
      </trkpt>
      <trkpt lat="49.68948" lon="5.12972">
        <ele>239.1</ele>
        <time>2020-06-25T15:56:42Z</time>
      </trkpt>
      <trkpt lat="49.68947" lon="5.12977">
        <ele>239.3</ele>
        <time>2020-06-25T15:56:43Z</time>
      </trkpt>
      <trkpt lat="49.68946" lon="5.12982">
        <ele>239.5</ele>
        <time>2020-06-25T15:56:44Z</time>
      </trkpt>
      <trkpt lat="49.68946" lon="5.12987">
        <ele>239.8</ele>
        <time>2020-06-25T15:56:45Z</time>
      </trkpt>
      <trkpt lat="49.68945" lon="5.12991">
        <ele>239.9</ele>
        <time>2020-06-25T15:56:46Z</time>
      </trkpt>
      <trkpt lat="49.68945" lon="5.12996">
        <ele>240.1</ele>
        <time>2020-06-25T15:56:47Z</time>
      </trkpt>
      <trkpt lat="49.68945" lon="5.13002">
        <ele>240.3</ele>
        <time>2020-06-25T15:56:48Z</time>
      </trkpt>
      <trkpt lat="49.68945" lon="5.13004">
        <ele>240.4</ele>
        <time>2020-06-25T15:56:49Z</time>
      </trkpt>
      <trkpt lat="49.68944" lon="5.13008">
        <ele>240.5</ele>
        <time>2020-06-25T15:56:50Z</time>
      </trkpt>
      <trkpt lat="49.68944" lon="5.13014">
        <ele>240.7</ele>
        <time>2020-06-25T15:56:51Z</time>
      </trkpt>
      <trkpt lat="49.68944" lon="5.13016">
        <ele>240.8</ele>
        <time>2020-06-25T15:56:52Z</time>
      </trkpt>
      <trkpt lat="49.68944" lon="5.13021">
        <ele>240.9</ele>
        <time>2020-06-25T15:56:53Z</time>
      </trkpt>
      <trkpt lat="49.68944" lon="5.13026">
        <ele>241</ele>
        <time>2020-06-25T15:56:54Z</time>
      </trkpt>
      <trkpt lat="49.68945" lon="5.13032">
        <ele>241.1</ele>
        <time>2020-06-25T15:56:55Z</time>
      </trkpt>
      <trkpt lat="49.68945" lon="5.13036">
        <ele>241.2</ele>
        <time>2020-06-25T15:56:56Z</time>
      </trkpt>
      <trkpt lat="49.68945" lon="5.13042">
        <ele>241.3</ele>
        <time>2020-06-25T15:56:57Z</time>
      </trkpt>
      <trkpt lat="49.68945" lon="5.13048">
        <ele>241.3</ele>
        <time>2020-06-25T15:56:58Z</time>
      </trkpt>
      <trkpt lat="49.68945" lon="5.13055">
        <ele>241.4</ele>
        <time>2020-06-25T15:56:59Z</time>
      </trkpt>
      <trkpt lat="49.68946" lon="5.13061">
        <ele>241.3</ele>
        <time>2020-06-25T15:57:00Z</time>
      </trkpt>
      <trkpt lat="49.68946" lon="5.13067">
        <ele>241.3</ele>
        <time>2020-06-25T15:57:01Z</time>
      </trkpt>
      <trkpt lat="49.68947" lon="5.13073">
        <ele>241.3</ele>
        <time>2020-06-25T15:57:02Z</time>
      </trkpt>
      <trkpt lat="49.68947" lon="5.13078">
        <ele>241.2</ele>
        <time>2020-06-25T15:57:03Z</time>
      </trkpt>
      <trkpt lat="49.68947" lon="5.13083">
        <ele>241.2</ele>
        <time>2020-06-25T15:57:04Z</time>
      </trkpt>
      <trkpt lat="49.68948" lon="5.13089">
        <ele>241.1</ele>
        <time>2020-06-25T15:57:05Z</time>
      </trkpt>
      <trkpt lat="49.68948" lon="5.13094">
        <ele>241.1</ele>
        <time>2020-06-25T15:57:06Z</time>
      </trkpt>
      <trkpt lat="49.68948" lon="5.13101">
        <ele>241</ele>
        <time>2020-06-25T15:57:07Z</time>
      </trkpt>
      <trkpt lat="49.68948" lon="5.13106">
        <ele>241</ele>
        <time>2020-06-25T15:57:08Z</time>
      </trkpt>
      <trkpt lat="49.68948" lon="5.13112">
        <ele>240.9</ele>
        <time>2020-06-25T15:57:09Z</time>
      </trkpt>
      <trkpt lat="49.68948" lon="5.13118">
        <ele>240.8</ele>
        <time>2020-06-25T15:57:10Z</time>
      </trkpt>
      <trkpt lat="49.68949" lon="5.13126">
        <ele>240.7</ele>
        <time>2020-06-25T15:57:11Z</time>
      </trkpt>
      <trkpt lat="49.68948" lon="5.13135">
        <ele>240.6</ele>
        <time>2020-06-25T15:57:12Z</time>
      </trkpt>
      <trkpt lat="49.68948" lon="5.13142">
        <ele>240.6</ele>
        <time>2020-06-25T15:57:13Z</time>
      </trkpt>
      <trkpt lat="49.6895" lon="5.13152">
        <ele>240.5</ele>
        <time>2020-06-25T15:57:14Z</time>
      </trkpt>
      <trkpt lat="49.6895" lon="5.13162">
        <ele>240.4</ele>
        <time>2020-06-25T15:57:15Z</time>
      </trkpt>
      <trkpt lat="49.6895" lon="5.13171">
        <ele>240.4</ele>
        <time>2020-06-25T15:57:16Z</time>
      </trkpt>
      <trkpt lat="49.6895" lon="5.13179">
        <ele>240.3</ele>
        <time>2020-06-25T15:57:17Z</time>
      </trkpt>
      <trkpt lat="49.68949" lon="5.13187">
        <ele>240.3</ele>
        <time>2020-06-25T15:57:18Z</time>
      </trkpt>
      <trkpt lat="49.68948" lon="5.13197">
        <ele>240.4</ele>
        <time>2020-06-25T15:57:19Z</time>
      </trkpt>
      <trkpt lat="49.68946" lon="5.13207">
        <ele>240.5</ele>
        <time>2020-06-25T15:57:20Z</time>
      </trkpt>
      <trkpt lat="49.68945" lon="5.13215">
        <ele>240.6</ele>
        <time>2020-06-25T15:57:21Z</time>
      </trkpt>
      <trkpt lat="49.68944" lon="5.13223">
        <ele>240.7</ele>
        <time>2020-06-25T15:57:22Z</time>
      </trkpt>
      <trkpt lat="49.68942" lon="5.13231">
        <ele>240.8</ele>
        <time>2020-06-25T15:57:23Z</time>
      </trkpt>
      <trkpt lat="49.68941" lon="5.13237">
        <ele>240.9</ele>
        <time>2020-06-25T15:57:24Z</time>
      </trkpt>
      <trkpt lat="49.68939" lon="5.13245">
        <ele>241</ele>
        <time>2020-06-25T15:57:25Z</time>
      </trkpt>
      <trkpt lat="49.68938" lon="5.13252">
        <ele>241.2</ele>
        <time>2020-06-25T15:57:26Z</time>
      </trkpt>
      <trkpt lat="49.68936" lon="5.13259">
        <ele>241.3</ele>
        <time>2020-06-25T15:57:27Z</time>
      </trkpt>
      <trkpt lat="49.68934" lon="5.13266">
        <ele>241.5</ele>
        <time>2020-06-25T15:57:28Z</time>
      </trkpt>
      <trkpt lat="49.68933" lon="5.13273">
        <ele>241.6</ele>
        <time>2020-06-25T15:57:29Z</time>
      </trkpt>
      <trkpt lat="49.68931" lon="5.1328">
        <ele>241.8</ele>
        <time>2020-06-25T15:57:30Z</time>
      </trkpt>
      <trkpt lat="49.6893" lon="5.13287">
        <ele>242</ele>
        <time>2020-06-25T15:57:31Z</time>
      </trkpt>
      <trkpt lat="49.68929" lon="5.13291">
        <ele>242.1</ele>
        <time>2020-06-25T15:57:32Z</time>
      </trkpt>
      <trkpt lat="49.68928" lon="5.13297">
        <ele>242.2</ele>
        <time>2020-06-25T15:57:33Z</time>
      </trkpt>
      <trkpt lat="49.68926" lon="5.13302">
        <ele>242.3</ele>
        <time>2020-06-25T15:57:34Z</time>
      </trkpt>
      <trkpt lat="49.68925" lon="5.13308">
        <ele>242.4</ele>
        <time>2020-06-25T15:57:35Z</time>
      </trkpt>
      <trkpt lat="49.68924" lon="5.13314">
        <ele>242.6</ele>
        <time>2020-06-25T15:57:36Z</time>
      </trkpt>
      <trkpt lat="49.68923" lon="5.13321">
        <ele>242.8</ele>
        <time>2020-06-25T15:57:37Z</time>
      </trkpt>
      <trkpt lat="49.68922" lon="5.13327">
        <ele>242.9</ele>
        <time>2020-06-25T15:57:38Z</time>
      </trkpt>
      <trkpt lat="49.68921" lon="5.13332">
        <ele>243</ele>
        <time>2020-06-25T15:57:39Z</time>
      </trkpt>
      <trkpt lat="49.6892" lon="5.13338">
        <ele>243.2</ele>
        <time>2020-06-25T15:57:40Z</time>
      </trkpt>
      <trkpt lat="49.68919" lon="5.13342">
        <ele>243.3</ele>
        <time>2020-06-25T15:57:41Z</time>
      </trkpt>
      <trkpt lat="49.68918" lon="5.13348">
        <ele>243.4</ele>
        <time>2020-06-25T15:57:42Z</time>
      </trkpt>
      <trkpt lat="49.68917" lon="5.13355">
        <ele>243.5</ele>
        <time>2020-06-25T15:57:43Z</time>
      </trkpt>
      <trkpt lat="49.68916" lon="5.13359">
        <ele>243.6</ele>
        <time>2020-06-25T15:57:44Z</time>
      </trkpt>
      <trkpt lat="49.68915" lon="5.13365">
        <ele>243.7</ele>
        <time>2020-06-25T15:57:45Z</time>
      </trkpt>
      <trkpt lat="49.68913" lon="5.13369">
        <ele>243.7</ele>
        <time>2020-06-25T15:57:46Z</time>
      </trkpt>
      <trkpt lat="49.68912" lon="5.13376">
        <ele>243.8</ele>
        <time>2020-06-25T15:57:47Z</time>
      </trkpt>
      <trkpt lat="49.68909" lon="5.13382">
        <ele>243.9</ele>
        <time>2020-06-25T15:57:48Z</time>
      </trkpt>
      <trkpt lat="49.68907" lon="5.13389">
        <ele>244</ele>
        <time>2020-06-25T15:57:49Z</time>
      </trkpt>
      <trkpt lat="49.68906" lon="5.13395">
        <ele>244</ele>
        <time>2020-06-25T15:57:50Z</time>
      </trkpt>
      <trkpt lat="49.68903" lon="5.13402">
        <ele>244</ele>
        <time>2020-06-25T15:57:51Z</time>
      </trkpt>
      <trkpt lat="49.68901" lon="5.13409">
        <ele>244.1</ele>
        <time>2020-06-25T15:57:52Z</time>
      </trkpt>
      <trkpt lat="49.689" lon="5.13416">
        <ele>244.1</ele>
        <time>2020-06-25T15:57:53Z</time>
      </trkpt>
      <trkpt lat="49.68899" lon="5.13424">
        <ele>244</ele>
        <time>2020-06-25T15:57:54Z</time>
      </trkpt>
      <trkpt lat="49.68898" lon="5.13432">
        <ele>244</ele>
        <time>2020-06-25T15:57:55Z</time>
      </trkpt>
      <trkpt lat="49.68896" lon="5.1344">
        <ele>243.9</ele>
        <time>2020-06-25T15:57:56Z</time>
      </trkpt>
      <trkpt lat="49.68894" lon="5.13449">
        <ele>243.8</ele>
        <time>2020-06-25T15:57:57Z</time>
      </trkpt>
      <trkpt lat="49.68892" lon="5.13458">
        <ele>243.8</ele>
        <time>2020-06-25T15:57:58Z</time>
      </trkpt>
      <trkpt lat="49.6889" lon="5.13466">
        <ele>243.7</ele>
        <time>2020-06-25T15:57:59Z</time>
      </trkpt>
      <trkpt lat="49.68889" lon="5.13473">
        <ele>243.7</ele>
        <time>2020-06-25T15:58:00Z</time>
      </trkpt>
      <trkpt lat="49.68887" lon="5.13482">
        <ele>243.6</ele>
        <time>2020-06-25T15:58:01Z</time>
      </trkpt>
      <trkpt lat="49.68886" lon="5.13488">
        <ele>243.5</ele>
        <time>2020-06-25T15:58:02Z</time>
      </trkpt>
      <trkpt lat="49.68884" lon="5.13495">
        <ele>243.4</ele>
        <time>2020-06-25T15:58:03Z</time>
      </trkpt>
      <trkpt lat="49.68882" lon="5.13504">
        <ele>243.3</ele>
        <time>2020-06-25T15:58:04Z</time>
      </trkpt>
      <trkpt lat="49.68881" lon="5.13513">
        <ele>243.2</ele>
        <time>2020-06-25T15:58:05Z</time>
      </trkpt>
      <trkpt lat="49.68879" lon="5.13522">
        <ele>243.1</ele>
        <time>2020-06-25T15:58:06Z</time>
      </trkpt>
      <trkpt lat="49.68878" lon="5.1353">
        <ele>243</ele>
        <time>2020-06-25T15:58:07Z</time>
      </trkpt>
      <trkpt lat="49.68876" lon="5.1354">
        <ele>243.1</ele>
        <time>2020-06-25T15:58:08Z</time>
      </trkpt>
      <trkpt lat="49.68874" lon="5.13547">
        <ele>243.3</ele>
        <time>2020-06-25T15:58:09Z</time>
      </trkpt>
      <trkpt lat="49.68872" lon="5.13554">
        <ele>243.4</ele>
        <time>2020-06-25T15:58:10Z</time>
      </trkpt>
      <trkpt lat="49.68871" lon="5.13562">
        <ele>243.3</ele>
        <time>2020-06-25T15:58:11Z</time>
      </trkpt>
      <trkpt lat="49.68869" lon="5.1357">
        <ele>243.3</ele>
        <time>2020-06-25T15:58:12Z</time>
      </trkpt>
      <trkpt lat="49.68868" lon="5.13579">
        <ele>243.2</ele>
        <time>2020-06-25T15:58:13Z</time>
      </trkpt>
      <trkpt lat="49.68866" lon="5.13586">
        <ele>243.2</ele>
        <time>2020-06-25T15:58:14Z</time>
      </trkpt>
      <trkpt lat="49.68864" lon="5.13594">
        <ele>243.1</ele>
        <time>2020-06-25T15:58:15Z</time>
      </trkpt>
      <trkpt lat="49.68863" lon="5.13602">
        <ele>243.1</ele>
        <time>2020-06-25T15:58:16Z</time>
      </trkpt>
      <trkpt lat="49.68861" lon="5.1361">
        <ele>243</ele>
        <time>2020-06-25T15:58:17Z</time>
      </trkpt>
      <trkpt lat="49.68859" lon="5.13618">
        <ele>242.9</ele>
        <time>2020-06-25T15:58:18Z</time>
      </trkpt>
      <trkpt lat="49.68858" lon="5.13626">
        <ele>242.9</ele>
        <time>2020-06-25T15:58:19Z</time>
      </trkpt>
      <trkpt lat="49.68857" lon="5.13631">
        <ele>242.9</ele>
        <time>2020-06-25T15:58:20Z</time>
      </trkpt>
      <trkpt lat="49.68856" lon="5.13638">
        <ele>242.8</ele>
        <time>2020-06-25T15:58:21Z</time>
      </trkpt>
      <trkpt lat="49.68855" lon="5.13646">
        <ele>242.7</ele>
        <time>2020-06-25T15:58:22Z</time>
      </trkpt>
      <trkpt lat="49.68853" lon="5.13653">
        <ele>242.6</ele>
        <time>2020-06-25T15:58:23Z</time>
      </trkpt>
      <trkpt lat="49.68852" lon="5.13661">
        <ele>242.5</ele>
        <time>2020-06-25T15:58:24Z</time>
      </trkpt>
      <trkpt lat="49.68851" lon="5.13668">
        <ele>242.4</ele>
        <time>2020-06-25T15:58:25Z</time>
      </trkpt>
      <trkpt lat="49.68849" lon="5.13677">
        <ele>242.3</ele>
        <time>2020-06-25T15:58:26Z</time>
      </trkpt>
      <trkpt lat="49.68848" lon="5.13686">
        <ele>242.1</ele>
        <time>2020-06-25T15:58:27Z</time>
      </trkpt>
      <trkpt lat="49.68847" lon="5.13693">
        <ele>242</ele>
        <time>2020-06-25T15:58:28Z</time>
      </trkpt>
      <trkpt lat="49.68845" lon="5.13702">
        <ele>242</ele>
        <time>2020-06-25T15:58:29Z</time>
      </trkpt>
      <trkpt lat="49.68843" lon="5.13711">
        <ele>241.9</ele>
        <time>2020-06-25T15:58:30Z</time>
      </trkpt>
      <trkpt lat="49.68841" lon="5.1372">
        <ele>241.9</ele>
        <time>2020-06-25T15:58:31Z</time>
      </trkpt>
      <trkpt lat="49.6884" lon="5.13728">
        <ele>241.9</ele>
        <time>2020-06-25T15:58:32Z</time>
      </trkpt>
      <trkpt lat="49.68838" lon="5.13736">
        <ele>241.8</ele>
        <time>2020-06-25T15:58:33Z</time>
      </trkpt>
      <trkpt lat="49.68836" lon="5.13743">
        <ele>241.8</ele>
        <time>2020-06-25T15:58:34Z</time>
      </trkpt>
      <trkpt lat="49.68834" lon="5.13752">
        <ele>241.8</ele>
        <time>2020-06-25T15:58:35Z</time>
      </trkpt>
      <trkpt lat="49.68833" lon="5.1376">
        <ele>241.8</ele>
        <time>2020-06-25T15:58:36Z</time>
      </trkpt>
      <trkpt lat="49.68831" lon="5.13767">
        <ele>241.8</ele>
        <time>2020-06-25T15:58:37Z</time>
      </trkpt>
      <trkpt lat="49.6883" lon="5.13775">
        <ele>241.8</ele>
        <time>2020-06-25T15:58:38Z</time>
      </trkpt>
      <trkpt lat="49.68829" lon="5.13781">
        <ele>241.8</ele>
        <time>2020-06-25T15:58:39Z</time>
      </trkpt>
      <trkpt lat="49.68827" lon="5.13789">
        <ele>241.8</ele>
        <time>2020-06-25T15:58:40Z</time>
      </trkpt>
      <trkpt lat="49.68826" lon="5.13796">
        <ele>241.8</ele>
        <time>2020-06-25T15:58:41Z</time>
      </trkpt>
      <trkpt lat="49.68825" lon="5.13803">
        <ele>241.7</ele>
        <time>2020-06-25T15:58:42Z</time>
      </trkpt>
      <trkpt lat="49.68823" lon="5.1381">
        <ele>241.7</ele>
        <time>2020-06-25T15:58:43Z</time>
      </trkpt>
      <trkpt lat="49.68822" lon="5.13817">
        <ele>241.7</ele>
        <time>2020-06-25T15:58:44Z</time>
      </trkpt>
      <trkpt lat="49.6882" lon="5.13825">
        <ele>241.6</ele>
        <time>2020-06-25T15:58:45Z</time>
      </trkpt>
      <trkpt lat="49.68819" lon="5.13833">
        <ele>241.5</ele>
        <time>2020-06-25T15:58:46Z</time>
      </trkpt>
      <trkpt lat="49.68817" lon="5.13842">
        <ele>241.4</ele>
        <time>2020-06-25T15:58:47Z</time>
      </trkpt>
      <trkpt lat="49.68815" lon="5.13849">
        <ele>241.4</ele>
        <time>2020-06-25T15:58:48Z</time>
      </trkpt>
      <trkpt lat="49.68813" lon="5.13857">
        <ele>241.3</ele>
        <time>2020-06-25T15:58:49Z</time>
      </trkpt>
      <trkpt lat="49.68812" lon="5.13864">
        <ele>241.3</ele>
        <time>2020-06-25T15:58:50Z</time>
      </trkpt>
      <trkpt lat="49.6881" lon="5.13872">
        <ele>241.3</ele>
        <time>2020-06-25T15:58:51Z</time>
      </trkpt>
      <trkpt lat="49.68809" lon="5.13879">
        <ele>241.3</ele>
        <time>2020-06-25T15:58:52Z</time>
      </trkpt>
      <trkpt lat="49.68807" lon="5.13887">
        <ele>241.2</ele>
        <time>2020-06-25T15:58:53Z</time>
      </trkpt>
      <trkpt lat="49.68805" lon="5.13894">
        <ele>241.2</ele>
        <time>2020-06-25T15:58:54Z</time>
      </trkpt>
      <trkpt lat="49.68803" lon="5.139">
        <ele>241.1</ele>
        <time>2020-06-25T15:58:55Z</time>
      </trkpt>
      <trkpt lat="49.688" lon="5.13908">
        <ele>241</ele>
        <time>2020-06-25T15:58:56Z</time>
      </trkpt>
      <trkpt lat="49.68797" lon="5.13915">
        <ele>240.8</ele>
        <time>2020-06-25T15:58:57Z</time>
      </trkpt>
      <trkpt lat="49.68792" lon="5.13922">
        <ele>240.7</ele>
        <time>2020-06-25T15:58:58Z</time>
      </trkpt>
      <trkpt lat="49.68788" lon="5.13929">
        <ele>240.6</ele>
        <time>2020-06-25T15:58:59Z</time>
      </trkpt>
      <trkpt lat="49.68784" lon="5.13935">
        <ele>240.5</ele>
        <time>2020-06-25T15:59:00Z</time>
      </trkpt>
      <trkpt lat="49.6878" lon="5.13941">
        <ele>240.4</ele>
        <time>2020-06-25T15:59:01Z</time>
      </trkpt>
      <trkpt lat="49.68776" lon="5.13946">
        <ele>240.4</ele>
        <time>2020-06-25T15:59:02Z</time>
      </trkpt>
      <trkpt lat="49.68772" lon="5.13951">
        <ele>240.3</ele>
        <time>2020-06-25T15:59:03Z</time>
      </trkpt>
      <trkpt lat="49.68767" lon="5.13957">
        <ele>240.3</ele>
        <time>2020-06-25T15:59:04Z</time>
      </trkpt>
      <trkpt lat="49.68763" lon="5.13963">
        <ele>240.2</ele>
        <time>2020-06-25T15:59:05Z</time>
      </trkpt>
      <trkpt lat="49.68758" lon="5.13969">
        <ele>240.1</ele>
        <time>2020-06-25T15:59:06Z</time>
      </trkpt>
      <trkpt lat="49.68754" lon="5.13974">
        <ele>240</ele>
        <time>2020-06-25T15:59:07Z</time>
      </trkpt>
      <trkpt lat="49.6875" lon="5.13979">
        <ele>239.9</ele>
        <time>2020-06-25T15:59:08Z</time>
      </trkpt>
      <trkpt lat="49.68745" lon="5.13985">
        <ele>239.8</ele>
        <time>2020-06-25T15:59:09Z</time>
      </trkpt>
      <trkpt lat="49.6874" lon="5.13991">
        <ele>239.7</ele>
        <time>2020-06-25T15:59:10Z</time>
      </trkpt>
      <trkpt lat="49.68736" lon="5.13997">
        <ele>239.6</ele>
        <time>2020-06-25T15:59:11Z</time>
      </trkpt>
      <trkpt lat="49.68732" lon="5.14003">
        <ele>239.6</ele>
        <time>2020-06-25T15:59:12Z</time>
      </trkpt>
      <trkpt lat="49.68728" lon="5.14007">
        <ele>239.5</ele>
        <time>2020-06-25T15:59:13Z</time>
      </trkpt>
      <trkpt lat="49.68725" lon="5.14012">
        <ele>239.4</ele>
        <time>2020-06-25T15:59:14Z</time>
      </trkpt>
      <trkpt lat="49.68721" lon="5.14017">
        <ele>239.3</ele>
        <time>2020-06-25T15:59:15Z</time>
      </trkpt>
      <trkpt lat="49.68717" lon="5.14022">
        <ele>239.2</ele>
        <time>2020-06-25T15:59:16Z</time>
      </trkpt>
      <trkpt lat="49.68713" lon="5.14027">
        <ele>239.1</ele>
        <time>2020-06-25T15:59:17Z</time>
      </trkpt>
      <trkpt lat="49.68709" lon="5.14032">
        <ele>239.1</ele>
        <time>2020-06-25T15:59:18Z</time>
      </trkpt>
      <trkpt lat="49.68705" lon="5.14037">
        <ele>239</ele>
        <time>2020-06-25T15:59:19Z</time>
      </trkpt>
      <trkpt lat="49.68701" lon="5.14042">
        <ele>238.9</ele>
        <time>2020-06-25T15:59:20Z</time>
      </trkpt>
      <trkpt lat="49.68697" lon="5.14047">
        <ele>238.8</ele>
        <time>2020-06-25T15:59:21Z</time>
      </trkpt>
      <trkpt lat="49.68693" lon="5.14053">
        <ele>238.7</ele>
        <time>2020-06-25T15:59:22Z</time>
      </trkpt>
      <trkpt lat="49.68689" lon="5.14059">
        <ele>238.6</ele>
        <time>2020-06-25T15:59:23Z</time>
      </trkpt>
      <trkpt lat="49.68685" lon="5.14064">
        <ele>238.5</ele>
        <time>2020-06-25T15:59:24Z</time>
      </trkpt>
      <trkpt lat="49.68681" lon="5.1407">
        <ele>238.4</ele>
        <time>2020-06-25T15:59:25Z</time>
      </trkpt>
      <trkpt lat="49.68677" lon="5.14076">
        <ele>238.2</ele>
        <time>2020-06-25T15:59:26Z</time>
      </trkpt>
      <trkpt lat="49.68673" lon="5.14082">
        <ele>238.1</ele>
        <time>2020-06-25T15:59:27Z</time>
      </trkpt>
      <trkpt lat="49.68669" lon="5.14087">
        <ele>237.9</ele>
        <time>2020-06-25T15:59:28Z</time>
      </trkpt>
      <trkpt lat="49.68665" lon="5.14092">
        <ele>237.8</ele>
        <time>2020-06-25T15:59:29Z</time>
      </trkpt>
      <trkpt lat="49.68661" lon="5.14098">
        <ele>237.7</ele>
        <time>2020-06-25T15:59:30Z</time>
      </trkpt>
      <trkpt lat="49.68658" lon="5.14102">
        <ele>237.6</ele>
        <time>2020-06-25T15:59:31Z</time>
      </trkpt>
      <trkpt lat="49.68654" lon="5.14107">
        <ele>237.5</ele>
        <time>2020-06-25T15:59:32Z</time>
      </trkpt>
      <trkpt lat="49.68649" lon="5.14113">
        <ele>237.4</ele>
        <time>2020-06-25T15:59:33Z</time>
      </trkpt>
      <trkpt lat="49.68645" lon="5.14119">
        <ele>237.3</ele>
        <time>2020-06-25T15:59:34Z</time>
      </trkpt>
      <trkpt lat="49.68641" lon="5.14124">
        <ele>237.2</ele>
        <time>2020-06-25T15:59:35Z</time>
      </trkpt>
      <trkpt lat="49.68636" lon="5.1413">
        <ele>237</ele>
        <time>2020-06-25T15:59:36Z</time>
      </trkpt>
      <trkpt lat="49.68631" lon="5.14136">
        <ele>236.9</ele>
        <time>2020-06-25T15:59:37Z</time>
      </trkpt>
      <trkpt lat="49.68627" lon="5.14142">
        <ele>236.8</ele>
        <time>2020-06-25T15:59:38Z</time>
      </trkpt>
      <trkpt lat="49.68623" lon="5.14148">
        <ele>236.6</ele>
        <time>2020-06-25T15:59:39Z</time>
      </trkpt>
      <trkpt lat="49.68619" lon="5.14153">
        <ele>236.5</ele>
        <time>2020-06-25T15:59:40Z</time>
      </trkpt>
      <trkpt lat="49.68615" lon="5.14159">
        <ele>236.5</ele>
        <time>2020-06-25T15:59:41Z</time>
      </trkpt>
      <trkpt lat="49.6861" lon="5.14166">
        <ele>236.4</ele>
        <time>2020-06-25T15:59:42Z</time>
      </trkpt>
      <trkpt lat="49.68607" lon="5.1417">
        <ele>236.3</ele>
        <time>2020-06-25T15:59:43Z</time>
      </trkpt>
      <trkpt lat="49.68603" lon="5.14176">
        <ele>236.3</ele>
        <time>2020-06-25T15:59:44Z</time>
      </trkpt>
      <trkpt lat="49.68599" lon="5.14182">
        <ele>236.2</ele>
        <time>2020-06-25T15:59:45Z</time>
      </trkpt>
      <trkpt lat="49.68594" lon="5.1419">
        <ele>236.1</ele>
        <time>2020-06-25T15:59:46Z</time>
      </trkpt>
      <trkpt lat="49.68589" lon="5.14196">
        <ele>236</ele>
        <time>2020-06-25T15:59:47Z</time>
      </trkpt>
      <trkpt lat="49.68585" lon="5.14203">
        <ele>235.9</ele>
        <time>2020-06-25T15:59:48Z</time>
      </trkpt>
      <trkpt lat="49.68581" lon="5.1421">
        <ele>235.8</ele>
        <time>2020-06-25T15:59:49Z</time>
      </trkpt>
      <trkpt lat="49.68577" lon="5.14216">
        <ele>235.7</ele>
        <time>2020-06-25T15:59:50Z</time>
      </trkpt>
      <trkpt lat="49.68573" lon="5.14223">
        <ele>235.6</ele>
        <time>2020-06-25T15:59:51Z</time>
      </trkpt>
      <trkpt lat="49.6857" lon="5.1423">
        <ele>235.5</ele>
        <time>2020-06-25T15:59:52Z</time>
      </trkpt>
      <trkpt lat="49.68565" lon="5.14237">
        <ele>235.4</ele>
        <time>2020-06-25T15:59:53Z</time>
      </trkpt>
      <trkpt lat="49.68561" lon="5.14244">
        <ele>235.4</ele>
        <time>2020-06-25T15:59:54Z</time>
      </trkpt>
      <trkpt lat="49.68557" lon="5.1425">
        <ele>235.3</ele>
        <time>2020-06-25T15:59:55Z</time>
      </trkpt>
      <trkpt lat="49.68553" lon="5.14256">
        <ele>235.2</ele>
        <time>2020-06-25T15:59:56Z</time>
      </trkpt>
      <trkpt lat="49.68549" lon="5.14262">
        <ele>235.1</ele>
        <time>2020-06-25T15:59:57Z</time>
      </trkpt>
      <trkpt lat="49.68545" lon="5.1427">
        <ele>235.1</ele>
        <time>2020-06-25T15:59:58Z</time>
      </trkpt>
      <trkpt lat="49.6854" lon="5.14276">
        <ele>234.9</ele>
        <time>2020-06-25T15:59:59Z</time>
      </trkpt>
      <trkpt lat="49.68536" lon="5.14283">
        <ele>234.8</ele>
        <time>2020-06-25T16:00:00Z</time>
      </trkpt>
      <trkpt lat="49.68531" lon="5.14291">
        <ele>234.7</ele>
        <time>2020-06-25T16:00:01Z</time>
      </trkpt>
      <trkpt lat="49.68527" lon="5.14297">
        <ele>234.6</ele>
        <time>2020-06-25T16:00:02Z</time>
      </trkpt>
      <trkpt lat="49.68524" lon="5.14303">
        <ele>234.5</ele>
        <time>2020-06-25T16:00:03Z</time>
      </trkpt>
      <trkpt lat="49.6852" lon="5.1431">
        <ele>234.4</ele>
        <time>2020-06-25T16:00:04Z</time>
      </trkpt>
      <trkpt lat="49.68516" lon="5.14317">
        <ele>234.3</ele>
        <time>2020-06-25T16:00:05Z</time>
      </trkpt>
      <trkpt lat="49.68512" lon="5.14324">
        <ele>234.2</ele>
        <time>2020-06-25T16:00:06Z</time>
      </trkpt>
      <trkpt lat="49.68508" lon="5.14332">
        <ele>234.2</ele>
        <time>2020-06-25T16:00:07Z</time>
      </trkpt>
      <trkpt lat="49.68504" lon="5.14338">
        <ele>234.1</ele>
        <time>2020-06-25T16:00:08Z</time>
      </trkpt>
      <trkpt lat="49.685" lon="5.14345">
        <ele>234.1</ele>
        <time>2020-06-25T16:00:09Z</time>
      </trkpt>
      <trkpt lat="49.68496" lon="5.14352">
        <ele>234</ele>
        <time>2020-06-25T16:00:10Z</time>
      </trkpt>
      <trkpt lat="49.68492" lon="5.14359">
        <ele>233.9</ele>
        <time>2020-06-25T16:00:11Z</time>
      </trkpt>
      <trkpt lat="49.68488" lon="5.14366">
        <ele>233.9</ele>
        <time>2020-06-25T16:00:12Z</time>
      </trkpt>
      <trkpt lat="49.68484" lon="5.14373">
        <ele>233.8</ele>
        <time>2020-06-25T16:00:13Z</time>
      </trkpt>
      <trkpt lat="49.6848" lon="5.14381">
        <ele>233.8</ele>
        <time>2020-06-25T16:00:14Z</time>
      </trkpt>
      <trkpt lat="49.68476" lon="5.14387">
        <ele>233.8</ele>
        <time>2020-06-25T16:00:15Z</time>
      </trkpt>
      <trkpt lat="49.68472" lon="5.14394">
        <ele>233.8</ele>
        <time>2020-06-25T16:00:16Z</time>
      </trkpt>
      <trkpt lat="49.68468" lon="5.14401">
        <ele>233.8</ele>
        <time>2020-06-25T16:00:17Z</time>
      </trkpt>
      <trkpt lat="49.68464" lon="5.14408">
        <ele>233.9</ele>
        <time>2020-06-25T16:00:18Z</time>
      </trkpt>
      <trkpt lat="49.6846" lon="5.14415">
        <ele>233.9</ele>
        <time>2020-06-25T16:00:19Z</time>
      </trkpt>
      <trkpt lat="49.68457" lon="5.14421">
        <ele>233.8</ele>
        <time>2020-06-25T16:00:20Z</time>
      </trkpt>
      <trkpt lat="49.68453" lon="5.14427">
        <ele>233.8</ele>
        <time>2020-06-25T16:00:21Z</time>
      </trkpt>
      <trkpt lat="49.6845" lon="5.14433">
        <ele>233.8</ele>
        <time>2020-06-25T16:00:22Z</time>
      </trkpt>
      <trkpt lat="49.68446" lon="5.14439">
        <ele>233.8</ele>
        <time>2020-06-25T16:00:23Z</time>
      </trkpt>
      <trkpt lat="49.68442" lon="5.14446">
        <ele>233.8</ele>
        <time>2020-06-25T16:00:24Z</time>
      </trkpt>
      <trkpt lat="49.68438" lon="5.14453">
        <ele>233.8</ele>
        <time>2020-06-25T16:00:25Z</time>
      </trkpt>
      <trkpt lat="49.68434" lon="5.14459">
        <ele>233.8</ele>
        <time>2020-06-25T16:00:26Z</time>
      </trkpt>
      <trkpt lat="49.6843" lon="5.14465">
        <ele>233.8</ele>
        <time>2020-06-25T16:00:27Z</time>
      </trkpt>
      <trkpt lat="49.68425" lon="5.14472">
        <ele>233.8</ele>
        <time>2020-06-25T16:00:28Z</time>
      </trkpt>
      <trkpt lat="49.68421" lon="5.14479">
        <ele>233.8</ele>
        <time>2020-06-25T16:00:29Z</time>
      </trkpt>
      <trkpt lat="49.68416" lon="5.14487">
        <ele>233.8</ele>
        <time>2020-06-25T16:00:30Z</time>
      </trkpt>
      <trkpt lat="49.68413" lon="5.14493">
        <ele>233.9</ele>
        <time>2020-06-25T16:00:31Z</time>
      </trkpt>
      <trkpt lat="49.68409" lon="5.145">
        <ele>233.9</ele>
        <time>2020-06-25T16:00:32Z</time>
      </trkpt>
      <trkpt lat="49.68405" lon="5.14506">
        <ele>233.9</ele>
        <time>2020-06-25T16:00:33Z</time>
      </trkpt>
      <trkpt lat="49.68401" lon="5.14512">
        <ele>233.9</ele>
        <time>2020-06-25T16:00:34Z</time>
      </trkpt>
      <trkpt lat="49.68397" lon="5.14519">
        <ele>233.9</ele>
        <time>2020-06-25T16:00:35Z</time>
      </trkpt>
      <trkpt lat="49.68394" lon="5.14525">
        <ele>233.9</ele>
        <time>2020-06-25T16:00:36Z</time>
      </trkpt>
      <trkpt lat="49.6839" lon="5.14532">
        <ele>234</ele>
        <time>2020-06-25T16:00:37Z</time>
      </trkpt>
      <trkpt lat="49.68387" lon="5.14538">
        <ele>234</ele>
        <time>2020-06-25T16:00:38Z</time>
      </trkpt>
      <trkpt lat="49.68384" lon="5.14544">
        <ele>233.9</ele>
        <time>2020-06-25T16:00:39Z</time>
      </trkpt>
      <trkpt lat="49.6838" lon="5.14552">
        <ele>233.9</ele>
        <time>2020-06-25T16:00:40Z</time>
      </trkpt>
      <trkpt lat="49.68376" lon="5.14559">
        <ele>233.8</ele>
        <time>2020-06-25T16:00:41Z</time>
      </trkpt>
      <trkpt lat="49.68372" lon="5.14567">
        <ele>233.7</ele>
        <time>2020-06-25T16:00:42Z</time>
      </trkpt>
      <trkpt lat="49.68369" lon="5.14572">
        <ele>233.7</ele>
        <time>2020-06-25T16:00:43Z</time>
      </trkpt>
      <trkpt lat="49.68366" lon="5.1458">
        <ele>233.6</ele>
        <time>2020-06-25T16:00:44Z</time>
      </trkpt>
      <trkpt lat="49.68363" lon="5.14588">
        <ele>233.5</ele>
        <time>2020-06-25T16:00:45Z</time>
      </trkpt>
      <trkpt lat="49.68359" lon="5.14595">
        <ele>233.4</ele>
        <time>2020-06-25T16:00:46Z</time>
      </trkpt>
      <trkpt lat="49.68356" lon="5.14603">
        <ele>233.4</ele>
        <time>2020-06-25T16:00:47Z</time>
      </trkpt>
      <trkpt lat="49.68352" lon="5.1461">
        <ele>233.3</ele>
        <time>2020-06-25T16:00:48Z</time>
      </trkpt>
      <trkpt lat="49.68349" lon="5.14618">
        <ele>233.2</ele>
        <time>2020-06-25T16:00:49Z</time>
      </trkpt>
      <trkpt lat="49.68346" lon="5.14626">
        <ele>233.1</ele>
        <time>2020-06-25T16:00:50Z</time>
      </trkpt>
      <trkpt lat="49.68342" lon="5.14634">
        <ele>233</ele>
        <time>2020-06-25T16:00:51Z</time>
      </trkpt>
      <trkpt lat="49.68339" lon="5.14641">
        <ele>233</ele>
        <time>2020-06-25T16:00:52Z</time>
      </trkpt>
      <trkpt lat="49.68336" lon="5.14649">
        <ele>232.9</ele>
        <time>2020-06-25T16:00:53Z</time>
      </trkpt>
      <trkpt lat="49.68332" lon="5.14656">
        <ele>232.8</ele>
        <time>2020-06-25T16:00:54Z</time>
      </trkpt>
      <trkpt lat="49.68329" lon="5.14664">
        <ele>232.7</ele>
        <time>2020-06-25T16:00:55Z</time>
      </trkpt>
      <trkpt lat="49.68326" lon="5.14671">
        <ele>232.6</ele>
        <time>2020-06-25T16:00:56Z</time>
      </trkpt>
      <trkpt lat="49.68323" lon="5.14678">
        <ele>232.6</ele>
        <time>2020-06-25T16:00:57Z</time>
      </trkpt>
      <trkpt lat="49.6832" lon="5.14685">
        <ele>232.5</ele>
        <time>2020-06-25T16:00:58Z</time>
      </trkpt>
      <trkpt lat="49.68317" lon="5.14693">
        <ele>232.4</ele>
        <time>2020-06-25T16:00:59Z</time>
      </trkpt>
      <trkpt lat="49.68314" lon="5.14701">
        <ele>232.3</ele>
        <time>2020-06-25T16:01:00Z</time>
      </trkpt>
      <trkpt lat="49.68311" lon="5.14708">
        <ele>232.3</ele>
        <time>2020-06-25T16:01:01Z</time>
      </trkpt>
      <trkpt lat="49.68308" lon="5.14714">
        <ele>232.3</ele>
        <time>2020-06-25T16:01:02Z</time>
      </trkpt>
      <trkpt lat="49.68305" lon="5.14721">
        <ele>232.2</ele>
        <time>2020-06-25T16:01:03Z</time>
      </trkpt>
      <trkpt lat="49.68302" lon="5.14729">
        <ele>232.2</ele>
        <time>2020-06-25T16:01:04Z</time>
      </trkpt>
      <trkpt lat="49.68299" lon="5.14736">
        <ele>232.2</ele>
        <time>2020-06-25T16:01:05Z</time>
      </trkpt>
      <trkpt lat="49.68296" lon="5.14743">
        <ele>232.1</ele>
        <time>2020-06-25T16:01:06Z</time>
      </trkpt>
      <trkpt lat="49.68293" lon="5.1475">
        <ele>232.1</ele>
        <time>2020-06-25T16:01:07Z</time>
      </trkpt>
      <trkpt lat="49.6829" lon="5.14757">
        <ele>232.1</ele>
        <time>2020-06-25T16:01:08Z</time>
      </trkpt>
      <trkpt lat="49.68287" lon="5.14764">
        <ele>232.1</ele>
        <time>2020-06-25T16:01:09Z</time>
      </trkpt>
      <trkpt lat="49.68285" lon="5.1477">
        <ele>232.1</ele>
        <time>2020-06-25T16:01:10Z</time>
      </trkpt>
      <trkpt lat="49.68282" lon="5.14778">
        <ele>232.1</ele>
        <time>2020-06-25T16:01:11Z</time>
      </trkpt>
      <trkpt lat="49.68279" lon="5.14784">
        <ele>232</ele>
        <time>2020-06-25T16:01:12Z</time>
      </trkpt>
      <trkpt lat="49.68276" lon="5.14791">
        <ele>232</ele>
        <time>2020-06-25T16:01:13Z</time>
      </trkpt>
      <trkpt lat="49.68274" lon="5.14798">
        <ele>232</ele>
        <time>2020-06-25T16:01:14Z</time>
      </trkpt>
      <trkpt lat="49.68271" lon="5.14805">
        <ele>231.9</ele>
        <time>2020-06-25T16:01:15Z</time>
      </trkpt>
      <trkpt lat="49.68267" lon="5.14813">
        <ele>231.9</ele>
        <time>2020-06-25T16:01:16Z</time>
      </trkpt>
      <trkpt lat="49.68264" lon="5.14821">
        <ele>231.9</ele>
        <time>2020-06-25T16:01:17Z</time>
      </trkpt>
      <trkpt lat="49.68261" lon="5.14829">
        <ele>231.9</ele>
        <time>2020-06-25T16:01:18Z</time>
      </trkpt>
      <trkpt lat="49.68258" lon="5.14836">
        <ele>231.9</ele>
        <time>2020-06-25T16:01:19Z</time>
      </trkpt>
      <trkpt lat="49.68255" lon="5.14842">
        <ele>231.9</ele>
        <time>2020-06-25T16:01:20Z</time>
      </trkpt>
      <trkpt lat="49.68253" lon="5.14849">
        <ele>231.9</ele>
        <time>2020-06-25T16:01:21Z</time>
      </trkpt>
      <trkpt lat="49.6825" lon="5.14855">
        <ele>231.9</ele>
        <time>2020-06-25T16:01:22Z</time>
      </trkpt>
      <trkpt lat="49.68247" lon="5.14862">
        <ele>231.8</ele>
        <time>2020-06-25T16:01:23Z</time>
      </trkpt>
      <trkpt lat="49.68245" lon="5.1487">
        <ele>231.8</ele>
        <time>2020-06-25T16:01:24Z</time>
      </trkpt>
      <trkpt lat="49.68241" lon="5.14878">
        <ele>231.7</ele>
        <time>2020-06-25T16:01:25Z</time>
      </trkpt>
      <trkpt lat="49.68238" lon="5.14886">
        <ele>231.7</ele>
        <time>2020-06-25T16:01:26Z</time>
      </trkpt>
      <trkpt lat="49.68234" lon="5.14893">
        <ele>231.6</ele>
        <time>2020-06-25T16:01:27Z</time>
      </trkpt>
      <trkpt lat="49.68231" lon="5.149">
        <ele>231.6</ele>
        <time>2020-06-25T16:01:28Z</time>
      </trkpt>
      <trkpt lat="49.68228" lon="5.14908">
        <ele>231.5</ele>
        <time>2020-06-25T16:01:29Z</time>
      </trkpt>
      <trkpt lat="49.68226" lon="5.14915">
        <ele>231.4</ele>
        <time>2020-06-25T16:01:30Z</time>
      </trkpt>
      <trkpt lat="49.68223" lon="5.14922">
        <ele>231.4</ele>
        <time>2020-06-25T16:01:31Z</time>
      </trkpt>
      <trkpt lat="49.68221" lon="5.14928">
        <ele>231.3</ele>
        <time>2020-06-25T16:01:32Z</time>
      </trkpt>
      <trkpt lat="49.68218" lon="5.14935">
        <ele>231.3</ele>
        <time>2020-06-25T16:01:33Z</time>
      </trkpt>
      <trkpt lat="49.68216" lon="5.1494">
        <ele>231.2</ele>
        <time>2020-06-25T16:01:34Z</time>
      </trkpt>
      <trkpt lat="49.68213" lon="5.14946">
        <ele>231.1</ele>
        <time>2020-06-25T16:01:35Z</time>
      </trkpt>
      <trkpt lat="49.68209" lon="5.14953">
        <ele>231</ele>
        <time>2020-06-25T16:01:36Z</time>
      </trkpt>
      <trkpt lat="49.68205" lon="5.14959">
        <ele>230.9</ele>
        <time>2020-06-25T16:01:37Z</time>
      </trkpt>
      <trkpt lat="49.68203" lon="5.14965">
        <ele>230.8</ele>
        <time>2020-06-25T16:01:38Z</time>
      </trkpt>
      <trkpt lat="49.68201" lon="5.14973">
        <ele>230.6</ele>
        <time>2020-06-25T16:01:39Z</time>
      </trkpt>
      <trkpt lat="49.68198" lon="5.14981">
        <ele>230.5</ele>
        <time>2020-06-25T16:01:40Z</time>
      </trkpt>
      <trkpt lat="49.68196" lon="5.1499">
        <ele>230.3</ele>
        <time>2020-06-25T16:01:41Z</time>
      </trkpt>
      <trkpt lat="49.68193" lon="5.14998">
        <ele>230.2</ele>
        <time>2020-06-25T16:01:42Z</time>
      </trkpt>
      <trkpt lat="49.6819" lon="5.15006">
        <ele>230</ele>
        <time>2020-06-25T16:01:43Z</time>
      </trkpt>
      <trkpt lat="49.68187" lon="5.15013">
        <ele>229.9</ele>
        <time>2020-06-25T16:01:44Z</time>
      </trkpt>
      <trkpt lat="49.68184" lon="5.15021">
        <ele>229.7</ele>
        <time>2020-06-25T16:01:45Z</time>
      </trkpt>
      <trkpt lat="49.6818" lon="5.15028">
        <ele>229.6</ele>
        <time>2020-06-25T16:01:46Z</time>
      </trkpt>
      <trkpt lat="49.68177" lon="5.15035">
        <ele>229.5</ele>
        <time>2020-06-25T16:01:47Z</time>
      </trkpt>
      <trkpt lat="49.68173" lon="5.15043">
        <ele>229.4</ele>
        <time>2020-06-25T16:01:48Z</time>
      </trkpt>
      <trkpt lat="49.68169" lon="5.15049">
        <ele>229.3</ele>
        <time>2020-06-25T16:01:49Z</time>
      </trkpt>
      <trkpt lat="49.68166" lon="5.15056">
        <ele>229.1</ele>
        <time>2020-06-25T16:01:50Z</time>
      </trkpt>
      <trkpt lat="49.68162" lon="5.15063">
        <ele>229</ele>
        <time>2020-06-25T16:01:51Z</time>
      </trkpt>
      <trkpt lat="49.68158" lon="5.15071">
        <ele>228.8</ele>
        <time>2020-06-25T16:01:52Z</time>
      </trkpt>
      <trkpt lat="49.68155" lon="5.1508">
        <ele>228.7</ele>
        <time>2020-06-25T16:01:53Z</time>
      </trkpt>
      <trkpt lat="49.68153" lon="5.15088">
        <ele>228.5</ele>
        <time>2020-06-25T16:01:54Z</time>
      </trkpt>
      <trkpt lat="49.6815" lon="5.15095">
        <ele>228.4</ele>
        <time>2020-06-25T16:01:55Z</time>
      </trkpt>
      <trkpt lat="49.68147" lon="5.15103">
        <ele>228.3</ele>
        <time>2020-06-25T16:01:56Z</time>
      </trkpt>
      <trkpt lat="49.68145" lon="5.15111">
        <ele>228.2</ele>
        <time>2020-06-25T16:01:57Z</time>
      </trkpt>
      <trkpt lat="49.68142" lon="5.15119">
        <ele>228.1</ele>
        <time>2020-06-25T16:01:58Z</time>
      </trkpt>
      <trkpt lat="49.6814" lon="5.15127">
        <ele>228</ele>
        <time>2020-06-25T16:01:59Z</time>
      </trkpt>
      <trkpt lat="49.68137" lon="5.15136">
        <ele>227.9</ele>
        <time>2020-06-25T16:02:00Z</time>
      </trkpt>
      <trkpt lat="49.68135" lon="5.15144">
        <ele>227.8</ele>
        <time>2020-06-25T16:02:01Z</time>
      </trkpt>
      <trkpt lat="49.68133" lon="5.15152">
        <ele>227.7</ele>
        <time>2020-06-25T16:02:02Z</time>
      </trkpt>
      <trkpt lat="49.6813" lon="5.15159">
        <ele>227.6</ele>
        <time>2020-06-25T16:02:03Z</time>
      </trkpt>
      <trkpt lat="49.68128" lon="5.15165">
        <ele>227.5</ele>
        <time>2020-06-25T16:02:04Z</time>
      </trkpt>
      <trkpt lat="49.68126" lon="5.15173">
        <ele>227.4</ele>
        <time>2020-06-25T16:02:05Z</time>
      </trkpt>
      <trkpt lat="49.68124" lon="5.1518">
        <ele>227.3</ele>
        <time>2020-06-25T16:02:06Z</time>
      </trkpt>
      <trkpt lat="49.68123" lon="5.15187">
        <ele>227.2</ele>
        <time>2020-06-25T16:02:07Z</time>
      </trkpt>
      <trkpt lat="49.68121" lon="5.15195">
        <ele>227.1</ele>
        <time>2020-06-25T16:02:08Z</time>
      </trkpt>
      <trkpt lat="49.68119" lon="5.15202">
        <ele>227</ele>
        <time>2020-06-25T16:02:09Z</time>
      </trkpt>
      <trkpt lat="49.68116" lon="5.15209">
        <ele>226.8</ele>
        <time>2020-06-25T16:02:10Z</time>
      </trkpt>
      <trkpt lat="49.68114" lon="5.15217">
        <ele>226.7</ele>
        <time>2020-06-25T16:02:11Z</time>
      </trkpt>
      <trkpt lat="49.68112" lon="5.15226">
        <ele>226.5</ele>
        <time>2020-06-25T16:02:12Z</time>
      </trkpt>
      <trkpt lat="49.68111" lon="5.15235">
        <ele>226.3</ele>
        <time>2020-06-25T16:02:13Z</time>
      </trkpt>
      <trkpt lat="49.68109" lon="5.15243">
        <ele>226.1</ele>
        <time>2020-06-25T16:02:14Z</time>
      </trkpt>
      <trkpt lat="49.68106" lon="5.15252">
        <ele>226</ele>
        <time>2020-06-25T16:02:15Z</time>
      </trkpt>
      <trkpt lat="49.68104" lon="5.1526">
        <ele>225.9</ele>
        <time>2020-06-25T16:02:16Z</time>
      </trkpt>
      <trkpt lat="49.68102" lon="5.15269">
        <ele>225.7</ele>
        <time>2020-06-25T16:02:17Z</time>
      </trkpt>
      <trkpt lat="49.68101" lon="5.15278">
        <ele>225.4</ele>
        <time>2020-06-25T16:02:18Z</time>
      </trkpt>
      <trkpt lat="49.68098" lon="5.15286">
        <ele>225.2</ele>
        <time>2020-06-25T16:02:19Z</time>
      </trkpt>
      <trkpt lat="49.68095" lon="5.15294">
        <ele>224.9</ele>
        <time>2020-06-25T16:02:20Z</time>
      </trkpt>
      <trkpt lat="49.68093" lon="5.15301">
        <ele>224.6</ele>
        <time>2020-06-25T16:02:21Z</time>
      </trkpt>
      <trkpt lat="49.68088" lon="5.15309">
        <ele>224.3</ele>
        <time>2020-06-25T16:02:22Z</time>
      </trkpt>
      <trkpt lat="49.68084" lon="5.15318">
        <ele>224</ele>
        <time>2020-06-25T16:02:23Z</time>
      </trkpt>
      <trkpt lat="49.6808" lon="5.15328">
        <ele>223.7</ele>
        <time>2020-06-25T16:02:24Z</time>
      </trkpt>
      <trkpt lat="49.68076" lon="5.15337">
        <ele>223.4</ele>
        <time>2020-06-25T16:02:25Z</time>
      </trkpt>
      <trkpt lat="49.68072" lon="5.15348">
        <ele>223</ele>
        <time>2020-06-25T16:02:26Z</time>
      </trkpt>
      <trkpt lat="49.68068" lon="5.15358">
        <ele>222.7</ele>
        <time>2020-06-25T16:02:27Z</time>
      </trkpt>
      <trkpt lat="49.68064" lon="5.15367">
        <ele>222.4</ele>
        <time>2020-06-25T16:02:28Z</time>
      </trkpt>
      <trkpt lat="49.6806" lon="5.15377">
        <ele>222.1</ele>
        <time>2020-06-25T16:02:29Z</time>
      </trkpt>
      <trkpt lat="49.68056" lon="5.15386">
        <ele>221.8</ele>
        <time>2020-06-25T16:02:30Z</time>
      </trkpt>
      <trkpt lat="49.68053" lon="5.15395">
        <ele>221.5</ele>
        <time>2020-06-25T16:02:31Z</time>
      </trkpt>
      <trkpt lat="49.68049" lon="5.15401">
        <ele>221.2</ele>
        <time>2020-06-25T16:02:32Z</time>
      </trkpt>
      <trkpt lat="49.68046" lon="5.15409">
        <ele>220.9</ele>
        <time>2020-06-25T16:02:33Z</time>
      </trkpt>
      <trkpt lat="49.68042" lon="5.15418">
        <ele>220.3</ele>
        <time>2020-06-25T16:02:34Z</time>
      </trkpt>
      <trkpt lat="49.68039" lon="5.15424">
        <ele>220.4</ele>
        <time>2020-06-25T16:02:35Z</time>
      </trkpt>
      <trkpt lat="49.68037" lon="5.1543">
        <ele>220.5</ele>
        <time>2020-06-25T16:02:36Z</time>
      </trkpt>
      <trkpt lat="49.68035" lon="5.15435">
        <ele>220.6</ele>
        <time>2020-06-25T16:02:37Z</time>
      </trkpt>
      <trkpt lat="49.68034" lon="5.15441">
        <ele>220.7</ele>
        <time>2020-06-25T16:02:38Z</time>
      </trkpt>
      <trkpt lat="49.68033" lon="5.15445">
        <ele>220.7</ele>
        <time>2020-06-25T16:02:39Z</time>
      </trkpt>
      <trkpt lat="49.68031" lon="5.15453">
        <ele>220.9</ele>
        <time>2020-06-25T16:02:40Z</time>
      </trkpt>
      <trkpt lat="49.6803" lon="5.15456">
        <ele>220.9</ele>
        <time>2020-06-25T16:02:41Z</time>
      </trkpt>
      <trkpt lat="49.68028" lon="5.1546">
        <ele>221</ele>
        <time>2020-06-25T16:02:42Z</time>
      </trkpt>
      <trkpt lat="49.68027" lon="5.15465">
        <ele>221.1</ele>
        <time>2020-06-25T16:02:43Z</time>
      </trkpt>
      <trkpt lat="49.68026" lon="5.15469">
        <ele>221.1</ele>
        <time>2020-06-25T16:02:44Z</time>
      </trkpt>
      <trkpt lat="49.68025" lon="5.15474">
        <ele>221.2</ele>
        <time>2020-06-25T16:02:45Z</time>
      </trkpt>
      <trkpt lat="49.68023" lon="5.1548">
        <ele>221.2</ele>
        <time>2020-06-25T16:02:46Z</time>
      </trkpt>
      <trkpt lat="49.68021" lon="5.15486">
        <ele>221.2</ele>
        <time>2020-06-25T16:02:47Z</time>
      </trkpt>
      <trkpt lat="49.6802" lon="5.15488">
        <ele>221.3</ele>
        <time>2020-06-25T16:02:48Z</time>
      </trkpt>
      <trkpt lat="49.68018" lon="5.15493">
        <ele>221.3</ele>
        <time>2020-06-25T16:02:49Z</time>
      </trkpt>
      <trkpt lat="49.68017" lon="5.15495">
        <ele>221.3</ele>
        <time>2020-06-25T16:02:50Z</time>
      </trkpt>
      <trkpt lat="49.68015" lon="5.15499">
        <ele>221.3</ele>
        <time>2020-06-25T16:02:51Z</time>
      </trkpt>
      <trkpt lat="49.68013" lon="5.15501">
        <ele>221.3</ele>
        <time>2020-06-25T16:02:52Z</time>
      </trkpt>
      <trkpt lat="49.68011" lon="5.15506">
        <ele>221.4</ele>
        <time>2020-06-25T16:02:53Z</time>
      </trkpt>
      <trkpt lat="49.6801" lon="5.15508">
        <ele>221.4</ele>
        <time>2020-06-25T16:02:54Z</time>
      </trkpt>
      <trkpt lat="49.6801" lon="5.15512">
        <ele>221.4</ele>
        <time>2020-06-25T16:02:55Z</time>
      </trkpt>
      <trkpt lat="49.68008" lon="5.15518">
        <ele>221.4</ele>
        <time>2020-06-25T16:02:56Z</time>
      </trkpt>
      <trkpt lat="49.68007" lon="5.15524">
        <ele>221.5</ele>
        <time>2020-06-25T16:02:57Z</time>
      </trkpt>
      <trkpt lat="49.68006" lon="5.1553">
        <ele>221.5</ele>
        <time>2020-06-25T16:02:58Z</time>
      </trkpt>
      <trkpt lat="49.68004" lon="5.15536">
        <ele>221.5</ele>
        <time>2020-06-25T16:02:59Z</time>
      </trkpt>
      <trkpt lat="49.68003" lon="5.1554">
        <ele>221.5</ele>
        <time>2020-06-25T16:03:00Z</time>
      </trkpt>
      <trkpt lat="49.68002" lon="5.15545">
        <ele>221.5</ele>
        <time>2020-06-25T16:03:01Z</time>
      </trkpt>
      <trkpt lat="49.68001" lon="5.1555">
        <ele>221.5</ele>
        <time>2020-06-25T16:03:02Z</time>
      </trkpt>
      <trkpt lat="49.68" lon="5.15554">
        <ele>221.6</ele>
        <time>2020-06-25T16:03:03Z</time>
      </trkpt>
      <trkpt lat="49.67999" lon="5.15559">
        <ele>221.6</ele>
        <time>2020-06-25T16:03:04Z</time>
      </trkpt>
      <trkpt lat="49.67998" lon="5.15564">
        <ele>221.6</ele>
        <time>2020-06-25T16:03:05Z</time>
      </trkpt>
      <trkpt lat="49.67997" lon="5.15568">
        <ele>221.6</ele>
        <time>2020-06-25T16:03:06Z</time>
      </trkpt>
      <trkpt lat="49.67995" lon="5.15574">
        <ele>221.5</ele>
        <time>2020-06-25T16:03:07Z</time>
      </trkpt>
      <trkpt lat="49.67992" lon="5.15578">
        <ele>221.5</ele>
        <time>2020-06-25T16:03:08Z</time>
      </trkpt>
      <trkpt lat="49.6799" lon="5.15581">
        <ele>221.5</ele>
        <time>2020-06-25T16:03:09Z</time>
      </trkpt>
      <trkpt lat="49.67987" lon="5.15585">
        <ele>221.4</ele>
        <time>2020-06-25T16:03:10Z</time>
      </trkpt>
      <trkpt lat="49.67984" lon="5.15592">
        <ele>221.3</ele>
        <time>2020-06-25T16:03:11Z</time>
      </trkpt>
      <trkpt lat="49.67981" lon="5.15597">
        <ele>221.3</ele>
        <time>2020-06-25T16:03:12Z</time>
      </trkpt>
      <trkpt lat="49.67979" lon="5.15601">
        <ele>221.2</ele>
        <time>2020-06-25T16:03:13Z</time>
      </trkpt>
      <trkpt lat="49.67976" lon="5.15605">
        <ele>221.2</ele>
        <time>2020-06-25T16:03:14Z</time>
      </trkpt>
      <trkpt lat="49.67973" lon="5.15611">
        <ele>221.1</ele>
        <time>2020-06-25T16:03:15Z</time>
      </trkpt>
      <trkpt lat="49.6797" lon="5.15616">
        <ele>221.1</ele>
        <time>2020-06-25T16:03:16Z</time>
      </trkpt>
      <trkpt lat="49.67967" lon="5.15621">
        <ele>221</ele>
        <time>2020-06-25T16:03:17Z</time>
      </trkpt>
      <trkpt lat="49.67963" lon="5.15627">
        <ele>220.9</ele>
        <time>2020-06-25T16:03:18Z</time>
      </trkpt>
      <trkpt lat="49.6796" lon="5.15633">
        <ele>220.8</ele>
        <time>2020-06-25T16:03:19Z</time>
      </trkpt>
      <trkpt lat="49.67956" lon="5.15637">
        <ele>220.7</ele>
        <time>2020-06-25T16:03:20Z</time>
      </trkpt>
      <trkpt lat="49.67952" lon="5.15641">
        <ele>220.6</ele>
        <time>2020-06-25T16:03:21Z</time>
      </trkpt>
      <trkpt lat="49.67949" lon="5.15645">
        <ele>220.5</ele>
        <time>2020-06-25T16:03:22Z</time>
      </trkpt>
      <trkpt lat="49.67945" lon="5.1565">
        <ele>220.3</ele>
        <time>2020-06-25T16:03:23Z</time>
      </trkpt>
      <trkpt lat="49.67941" lon="5.15656">
        <ele>220.2</ele>
        <time>2020-06-25T16:03:24Z</time>
      </trkpt>
      <trkpt lat="49.67937" lon="5.15661">
        <ele>220</ele>
        <time>2020-06-25T16:03:25Z</time>
      </trkpt>
      <trkpt lat="49.67934" lon="5.15666">
        <ele>219.9</ele>
        <time>2020-06-25T16:03:26Z</time>
      </trkpt>
      <trkpt lat="49.6793" lon="5.15669">
        <ele>219.8</ele>
        <time>2020-06-25T16:03:27Z</time>
      </trkpt>
      <trkpt lat="49.67926" lon="5.15675">
        <ele>219.7</ele>
        <time>2020-06-25T16:03:28Z</time>
      </trkpt>
      <trkpt lat="49.67921" lon="5.15682">
        <ele>219.5</ele>
        <time>2020-06-25T16:03:29Z</time>
      </trkpt>
      <trkpt lat="49.67917" lon="5.15688">
        <ele>219.5</ele>
        <time>2020-06-25T16:03:30Z</time>
      </trkpt>
      <trkpt lat="49.67914" lon="5.15693">
        <ele>219.4</ele>
        <time>2020-06-25T16:03:31Z</time>
      </trkpt>
      <trkpt lat="49.67909" lon="5.15699">
        <ele>218.8</ele>
        <time>2020-06-25T16:03:32Z</time>
      </trkpt>
      <trkpt lat="49.67905" lon="5.15704">
        <ele>218.3</ele>
        <time>2020-06-25T16:03:33Z</time>
      </trkpt>
      <trkpt lat="49.67901" lon="5.15707">
        <ele>217.9</ele>
        <time>2020-06-25T16:03:34Z</time>
      </trkpt>
      <trkpt lat="49.67897" lon="5.15711">
        <ele>217.5</ele>
        <time>2020-06-25T16:03:35Z</time>
      </trkpt>
      <trkpt lat="49.67893" lon="5.15716">
        <ele>217.1</ele>
        <time>2020-06-25T16:03:36Z</time>
      </trkpt>
      <trkpt lat="49.67888" lon="5.15721">
        <ele>216.6</ele>
        <time>2020-06-25T16:03:37Z</time>
      </trkpt>
      <trkpt lat="49.67884" lon="5.15726">
        <ele>216</ele>
        <time>2020-06-25T16:03:38Z</time>
      </trkpt>
      <trkpt lat="49.6788" lon="5.1573">
        <ele>215.5</ele>
        <time>2020-06-25T16:03:39Z</time>
      </trkpt>
      <trkpt lat="49.67876" lon="5.15734">
        <ele>214.9</ele>
        <time>2020-06-25T16:03:40Z</time>
      </trkpt>
      <trkpt lat="49.6787" lon="5.15736">
        <ele>214.2</ele>
        <time>2020-06-25T16:03:41Z</time>
      </trkpt>
      <trkpt lat="49.67864" lon="5.15741">
        <ele>213.5</ele>
        <time>2020-06-25T16:03:42Z</time>
      </trkpt>
      <trkpt lat="49.67859" lon="5.15749">
        <ele>212.6</ele>
        <time>2020-06-25T16:03:43Z</time>
      </trkpt>
      <trkpt lat="49.67854" lon="5.15755">
        <ele>212</ele>
        <time>2020-06-25T16:03:44Z</time>
      </trkpt>
      <trkpt lat="49.67849" lon="5.15762">
        <ele>211.1</ele>
        <time>2020-06-25T16:03:45Z</time>
      </trkpt>
      <trkpt lat="49.67844" lon="5.15769">
        <ele>210.2</ele>
        <time>2020-06-25T16:03:46Z</time>
      </trkpt>
      <trkpt lat="49.67837" lon="5.15778">
        <ele>209.1</ele>
        <time>2020-06-25T16:03:47Z</time>
      </trkpt>
      <trkpt lat="49.6783" lon="5.15785">
        <ele>208.1</ele>
        <time>2020-06-25T16:03:48Z</time>
      </trkpt>
      <trkpt lat="49.67823" lon="5.15793">
        <ele>207.1</ele>
        <time>2020-06-25T16:03:49Z</time>
      </trkpt>
      <trkpt lat="49.67816" lon="5.15803">
        <ele>206.2</ele>
        <time>2020-06-25T16:03:50Z</time>
      </trkpt>
      <trkpt lat="49.67808" lon="5.15811">
        <ele>205.2</ele>
        <time>2020-06-25T16:03:51Z</time>
      </trkpt>
      <trkpt lat="49.678" lon="5.15819">
        <ele>204.2</ele>
        <time>2020-06-25T16:03:52Z</time>
      </trkpt>
      <trkpt lat="49.67792" lon="5.15826">
        <ele>203.2</ele>
        <time>2020-06-25T16:03:53Z</time>
      </trkpt>
      <trkpt lat="49.67785" lon="5.15833">
        <ele>202.2</ele>
        <time>2020-06-25T16:03:54Z</time>
      </trkpt>
      <trkpt lat="49.67777" lon="5.1584">
        <ele>201.2</ele>
        <time>2020-06-25T16:03:55Z</time>
      </trkpt>
      <trkpt lat="49.6777" lon="5.15848">
        <ele>200.3</ele>
        <time>2020-06-25T16:03:56Z</time>
      </trkpt>
      <trkpt lat="49.67763" lon="5.15856">
        <ele>199.3</ele>
        <time>2020-06-25T16:03:57Z</time>
      </trkpt>
      <trkpt lat="49.67757" lon="5.15865">
        <ele>198.5</ele>
        <time>2020-06-25T16:03:58Z</time>
      </trkpt>
      <trkpt lat="49.67751" lon="5.15874">
        <ele>197.6</ele>
        <time>2020-06-25T16:03:59Z</time>
      </trkpt>
      <trkpt lat="49.67746" lon="5.15884">
        <ele>196.8</ele>
        <time>2020-06-25T16:04:00Z</time>
      </trkpt>
      <trkpt lat="49.6774" lon="5.15893">
        <ele>196.1</ele>
        <time>2020-06-25T16:04:01Z</time>
      </trkpt>
      <trkpt lat="49.67735" lon="5.15902">
        <ele>195.4</ele>
        <time>2020-06-25T16:04:02Z</time>
      </trkpt>
      <trkpt lat="49.6773" lon="5.15911">
        <ele>194.8</ele>
        <time>2020-06-25T16:04:03Z</time>
      </trkpt>
      <trkpt lat="49.67725" lon="5.1592">
        <ele>194.2</ele>
        <time>2020-06-25T16:04:04Z</time>
      </trkpt>
      <trkpt lat="49.67721" lon="5.15929">
        <ele>193.6</ele>
        <time>2020-06-25T16:04:05Z</time>
      </trkpt>
      <trkpt lat="49.67717" lon="5.15938">
        <ele>193.1</ele>
        <time>2020-06-25T16:04:06Z</time>
      </trkpt>
      <trkpt lat="49.67712" lon="5.15946">
        <ele>192.5</ele>
        <time>2020-06-25T16:04:07Z</time>
      </trkpt>
      <trkpt lat="49.67708" lon="5.15954">
        <ele>192</ele>
        <time>2020-06-25T16:04:08Z</time>
      </trkpt>
      <trkpt lat="49.67705" lon="5.15961">
        <ele>191.5</ele>
        <time>2020-06-25T16:04:09Z</time>
      </trkpt>
      <trkpt lat="49.67701" lon="5.15967">
        <ele>191.1</ele>
        <time>2020-06-25T16:04:10Z</time>
      </trkpt>
      <trkpt lat="49.67698" lon="5.15971">
        <ele>190.8</ele>
        <time>2020-06-25T16:04:11Z</time>
      </trkpt>
      <trkpt lat="49.67695" lon="5.15975">
        <ele>190.5</ele>
        <time>2020-06-25T16:04:12Z</time>
      </trkpt>
      <trkpt lat="49.67692" lon="5.15979">
        <ele>190.1</ele>
        <time>2020-06-25T16:04:13Z</time>
      </trkpt>
      <trkpt lat="49.6769" lon="5.15981">
        <ele>189.9</ele>
        <time>2020-06-25T16:04:14Z</time>
      </trkpt>
      <trkpt lat="49.67688" lon="5.15984">
        <ele>189.7</ele>
        <time>2020-06-25T16:04:15Z</time>
      </trkpt>
      <trkpt lat="49.67687" lon="5.15985">
        <ele>189.6</ele>
        <time>2020-06-25T16:04:16Z</time>
      </trkpt>
      <trkpt lat="49.67686" lon="5.1599">
        <ele>189.3</ele>
        <time>2020-06-25T16:04:17Z</time>
      </trkpt>
      <trkpt lat="49.67686" lon="5.15992">
        <ele>189.4</ele>
        <time>2020-06-25T16:04:18Z</time>
      </trkpt>
      <trkpt lat="49.67685" lon="5.15998">
        <ele>189.4</ele>
        <time>2020-06-25T16:04:19Z</time>
      </trkpt>
      <trkpt lat="49.67685" lon="5.16003">
        <ele>189.4</ele>
        <time>2020-06-25T16:04:20Z</time>
      </trkpt>
      <trkpt lat="49.67685" lon="5.16009">
        <ele>189.4</ele>
        <time>2020-06-25T16:04:21Z</time>
      </trkpt>
      <trkpt lat="49.67684" lon="5.16015">
        <ele>189.5</ele>
        <time>2020-06-25T16:04:22Z</time>
      </trkpt>
      <trkpt lat="49.67684" lon="5.16021">
        <ele>189.5</ele>
        <time>2020-06-25T16:04:23Z</time>
      </trkpt>
      <trkpt lat="49.67685" lon="5.16028">
        <ele>189.3</ele>
        <time>2020-06-25T16:04:24Z</time>
      </trkpt>
      <trkpt lat="49.67685" lon="5.16035">
        <ele>189.2</ele>
        <time>2020-06-25T16:04:25Z</time>
      </trkpt>
      <trkpt lat="49.67686" lon="5.16041">
        <ele>189</ele>
        <time>2020-06-25T16:04:26Z</time>
      </trkpt>
      <trkpt lat="49.67686" lon="5.16047">
        <ele>188.9</ele>
        <time>2020-06-25T16:04:27Z</time>
      </trkpt>
      <trkpt lat="49.67686" lon="5.16053">
        <ele>188.8</ele>
        <time>2020-06-25T16:04:28Z</time>
      </trkpt>
      <trkpt lat="49.67686" lon="5.1606">
        <ele>188.7</ele>
        <time>2020-06-25T16:04:29Z</time>
      </trkpt>
      <trkpt lat="49.67686" lon="5.16067">
        <ele>188.6</ele>
        <time>2020-06-25T16:04:30Z</time>
      </trkpt>
      <trkpt lat="49.67686" lon="5.16073">
        <ele>188.5</ele>
        <time>2020-06-25T16:04:31Z</time>
      </trkpt>
      <trkpt lat="49.67687" lon="5.1608">
        <ele>188.4</ele>
        <time>2020-06-25T16:04:32Z</time>
      </trkpt>
      <trkpt lat="49.67688" lon="5.16086">
        <ele>188.3</ele>
        <time>2020-06-25T16:04:33Z</time>
      </trkpt>
      <trkpt lat="49.67688" lon="5.16093">
        <ele>188.3</ele>
        <time>2020-06-25T16:04:34Z</time>
      </trkpt>
      <trkpt lat="49.67689" lon="5.16101">
        <ele>188.2</ele>
        <time>2020-06-25T16:04:35Z</time>
      </trkpt>
      <trkpt lat="49.67689" lon="5.16108">
        <ele>188.1</ele>
        <time>2020-06-25T16:04:36Z</time>
      </trkpt>
      <trkpt lat="49.6769" lon="5.16116">
        <ele>188.1</ele>
        <time>2020-06-25T16:04:37Z</time>
      </trkpt>
      <trkpt lat="49.67691" lon="5.16124">
        <ele>188.1</ele>
        <time>2020-06-25T16:04:38Z</time>
      </trkpt>
      <trkpt lat="49.67692" lon="5.16131">
        <ele>188</ele>
        <time>2020-06-25T16:04:39Z</time>
      </trkpt>
      <trkpt lat="49.67692" lon="5.16138">
        <ele>188</ele>
        <time>2020-06-25T16:04:40Z</time>
      </trkpt>
      <trkpt lat="49.67693" lon="5.16145">
        <ele>188</ele>
        <time>2020-06-25T16:04:41Z</time>
      </trkpt>
      <trkpt lat="49.67694" lon="5.16153">
        <ele>188</ele>
        <time>2020-06-25T16:04:42Z</time>
      </trkpt>
      <trkpt lat="49.67695" lon="5.1616">
        <ele>188</ele>
        <time>2020-06-25T16:04:43Z</time>
      </trkpt>
      <trkpt lat="49.67696" lon="5.16168">
        <ele>188</ele>
        <time>2020-06-25T16:04:44Z</time>
      </trkpt>
      <trkpt lat="49.67696" lon="5.16176">
        <ele>188</ele>
        <time>2020-06-25T16:04:45Z</time>
      </trkpt>
      <trkpt lat="49.67697" lon="5.16183">
        <ele>188.1</ele>
        <time>2020-06-25T16:04:46Z</time>
      </trkpt>
      <trkpt lat="49.67697" lon="5.16191">
        <ele>188.1</ele>
        <time>2020-06-25T16:04:47Z</time>
      </trkpt>
      <trkpt lat="49.67698" lon="5.16199">
        <ele>188.2</ele>
        <time>2020-06-25T16:04:48Z</time>
      </trkpt>
      <trkpt lat="49.67699" lon="5.16207">
        <ele>188.3</ele>
        <time>2020-06-25T16:04:49Z</time>
      </trkpt>
      <trkpt lat="49.677" lon="5.16217">
        <ele>188.2</ele>
        <time>2020-06-25T16:04:50Z</time>
      </trkpt>
      <trkpt lat="49.677" lon="5.16225">
        <ele>188.2</ele>
        <time>2020-06-25T16:04:51Z</time>
      </trkpt>
      <trkpt lat="49.67701" lon="5.16235">
        <ele>188.2</ele>
        <time>2020-06-25T16:04:52Z</time>
      </trkpt>
      <trkpt lat="49.67701" lon="5.16243">
        <ele>188.2</ele>
        <time>2020-06-25T16:04:53Z</time>
      </trkpt>
      <trkpt lat="49.67702" lon="5.16251">
        <ele>188.2</ele>
        <time>2020-06-25T16:04:54Z</time>
      </trkpt>
      <trkpt lat="49.67703" lon="5.16259">
        <ele>188.1</ele>
        <time>2020-06-25T16:04:55Z</time>
      </trkpt>
      <trkpt lat="49.67703" lon="5.16267">
        <ele>188.1</ele>
        <time>2020-06-25T16:04:56Z</time>
      </trkpt>
      <trkpt lat="49.67704" lon="5.16275">
        <ele>188.1</ele>
        <time>2020-06-25T16:04:57Z</time>
      </trkpt>
      <trkpt lat="49.67704" lon="5.16283">
        <ele>188.1</ele>
        <time>2020-06-25T16:04:58Z</time>
      </trkpt>
      <trkpt lat="49.67705" lon="5.16291">
        <ele>188.1</ele>
        <time>2020-06-25T16:04:59Z</time>
      </trkpt>
      <trkpt lat="49.67705" lon="5.16299">
        <ele>188.1</ele>
        <time>2020-06-25T16:05:00Z</time>
      </trkpt>
      <trkpt lat="49.67706" lon="5.16309">
        <ele>188.1</ele>
        <time>2020-06-25T16:05:01Z</time>
      </trkpt>
      <trkpt lat="49.67708" lon="5.16317">
        <ele>188.2</ele>
        <time>2020-06-25T16:05:02Z</time>
      </trkpt>
      <trkpt lat="49.67708" lon="5.16325">
        <ele>188.2</ele>
        <time>2020-06-25T16:05:03Z</time>
      </trkpt>
      <trkpt lat="49.67708" lon="5.16329">
        <ele>188.2</ele>
        <time>2020-06-25T16:05:04Z</time>
      </trkpt>
      <trkpt lat="49.67709" lon="5.16337">
        <ele>188.3</ele>
        <time>2020-06-25T16:05:05Z</time>
      </trkpt>
      <trkpt lat="49.67711" lon="5.16346">
        <ele>188.3</ele>
        <time>2020-06-25T16:05:06Z</time>
      </trkpt>
      <trkpt lat="49.67712" lon="5.16354">
        <ele>188.4</ele>
        <time>2020-06-25T16:05:07Z</time>
      </trkpt>
      <trkpt lat="49.67713" lon="5.1636">
        <ele>188.4</ele>
        <time>2020-06-25T16:05:08Z</time>
      </trkpt>
      <trkpt lat="49.67714" lon="5.16368">
        <ele>188.5</ele>
        <time>2020-06-25T16:05:09Z</time>
      </trkpt>
      <trkpt lat="49.67715" lon="5.16377">
        <ele>188.6</ele>
        <time>2020-06-25T16:05:10Z</time>
      </trkpt>
      <trkpt lat="49.67717" lon="5.16384">
        <ele>188.7</ele>
        <time>2020-06-25T16:05:11Z</time>
      </trkpt>
      <trkpt lat="49.67717" lon="5.16392">
        <ele>188.7</ele>
        <time>2020-06-25T16:05:12Z</time>
      </trkpt>
      <trkpt lat="49.67718" lon="5.16397">
        <ele>188.8</ele>
        <time>2020-06-25T16:05:13Z</time>
      </trkpt>
      <trkpt lat="49.67719" lon="5.16404">
        <ele>188.9</ele>
        <time>2020-06-25T16:05:14Z</time>
      </trkpt>
      <trkpt lat="49.6772" lon="5.16412">
        <ele>189</ele>
        <time>2020-06-25T16:05:15Z</time>
      </trkpt>
      <trkpt lat="49.67721" lon="5.16419">
        <ele>189.1</ele>
        <time>2020-06-25T16:05:16Z</time>
      </trkpt>
      <trkpt lat="49.67723" lon="5.16425">
        <ele>189.2</ele>
        <time>2020-06-25T16:05:17Z</time>
      </trkpt>
      <trkpt lat="49.67725" lon="5.16432">
        <ele>189.3</ele>
        <time>2020-06-25T16:05:18Z</time>
      </trkpt>
      <trkpt lat="49.67727" lon="5.16436">
        <ele>189.3</ele>
        <time>2020-06-25T16:05:19Z</time>
      </trkpt>
      <trkpt lat="49.6773" lon="5.16439">
        <ele>189.3</ele>
        <time>2020-06-25T16:05:20Z</time>
      </trkpt>
      <trkpt lat="49.67733" lon="5.16438">
        <ele>189.3</ele>
        <time>2020-06-25T16:05:21Z</time>
      </trkpt>
      <trkpt lat="49.67737" lon="5.16436">
        <ele>189.3</ele>
        <time>2020-06-25T16:05:22Z</time>
      </trkpt>
      <trkpt lat="49.67741" lon="5.16434">
        <ele>189.2</ele>
        <time>2020-06-25T16:05:23Z</time>
      </trkpt>
      <trkpt lat="49.67747" lon="5.16432">
        <ele>189.2</ele>
        <time>2020-06-25T16:05:24Z</time>
      </trkpt>
      <trkpt lat="49.67751" lon="5.16431">
        <ele>189.2</ele>
        <time>2020-06-25T16:05:25Z</time>
      </trkpt>
      <trkpt lat="49.67755" lon="5.16428">
        <ele>189.2</ele>
        <time>2020-06-25T16:05:26Z</time>
      </trkpt>
      <trkpt lat="49.67759" lon="5.16426">
        <ele>189.2</ele>
        <time>2020-06-25T16:05:27Z</time>
      </trkpt>
      <trkpt lat="49.67764" lon="5.16423">
        <ele>189.2</ele>
        <time>2020-06-25T16:05:28Z</time>
      </trkpt>
      <trkpt lat="49.67769" lon="5.1642">
        <ele>189.3</ele>
        <time>2020-06-25T16:05:29Z</time>
      </trkpt>
      <trkpt lat="49.67773" lon="5.16417">
        <ele>189.3</ele>
        <time>2020-06-25T16:05:30Z</time>
      </trkpt>
      <trkpt lat="49.67777" lon="5.16415">
        <ele>189.3</ele>
        <time>2020-06-25T16:05:31Z</time>
      </trkpt>
      <trkpt lat="49.67782" lon="5.16413">
        <ele>189.3</ele>
        <time>2020-06-25T16:05:32Z</time>
      </trkpt>
      <trkpt lat="49.67786" lon="5.1641">
        <ele>189.3</ele>
        <time>2020-06-25T16:05:33Z</time>
      </trkpt>
      <trkpt lat="49.6779" lon="5.16408">
        <ele>189.3</ele>
        <time>2020-06-25T16:05:34Z</time>
      </trkpt>
      <trkpt lat="49.67794" lon="5.16405">
        <ele>189.3</ele>
        <time>2020-06-25T16:05:35Z</time>
      </trkpt>
      <trkpt lat="49.67798" lon="5.16402">
        <ele>189.3</ele>
        <time>2020-06-25T16:05:36Z</time>
      </trkpt>
      <trkpt lat="49.67802" lon="5.164">
        <ele>189.2</ele>
        <time>2020-06-25T16:05:37Z</time>
      </trkpt>
      <trkpt lat="49.67806" lon="5.16399">
        <ele>189.2</ele>
        <time>2020-06-25T16:05:38Z</time>
      </trkpt>
      <trkpt lat="49.6781" lon="5.16396">
        <ele>189.2</ele>
        <time>2020-06-25T16:05:39Z</time>
      </trkpt>
      <trkpt lat="49.67813" lon="5.16394">
        <ele>189.2</ele>
        <time>2020-06-25T16:05:40Z</time>
      </trkpt>
      <trkpt lat="49.67817" lon="5.16391">
        <ele>189.2</ele>
        <time>2020-06-25T16:05:41Z</time>
      </trkpt>
      <trkpt lat="49.67821" lon="5.16389">
        <ele>189.2</ele>
        <time>2020-06-25T16:05:42Z</time>
      </trkpt>
      <trkpt lat="49.67828" lon="5.16385">
        <ele>189.2</ele>
        <time>2020-06-25T16:05:43Z</time>
      </trkpt>
      <trkpt lat="49.67835" lon="5.16382">
        <ele>189.2</ele>
        <time>2020-06-25T16:05:44Z</time>
      </trkpt>
      <trkpt lat="49.6784" lon="5.16378">
        <ele>189.2</ele>
        <time>2020-06-25T16:05:45Z</time>
      </trkpt>
      <trkpt lat="49.67846" lon="5.16375">
        <ele>189.2</ele>
        <time>2020-06-25T16:05:46Z</time>
      </trkpt>
      <trkpt lat="49.6785" lon="5.16372">
        <ele>189.2</ele>
        <time>2020-06-25T16:05:47Z</time>
      </trkpt>
      <trkpt lat="49.67855" lon="5.16369">
        <ele>189.3</ele>
        <time>2020-06-25T16:05:48Z</time>
      </trkpt>
      <trkpt lat="49.6786" lon="5.16366">
        <ele>189.3</ele>
        <time>2020-06-25T16:05:49Z</time>
      </trkpt>
      <trkpt lat="49.67866" lon="5.16363">
        <ele>189.3</ele>
        <time>2020-06-25T16:05:50Z</time>
      </trkpt>
      <trkpt lat="49.67871" lon="5.16359">
        <ele>189.3</ele>
        <time>2020-06-25T16:05:51Z</time>
      </trkpt>
      <trkpt lat="49.67877" lon="5.16355">
        <ele>189.4</ele>
        <time>2020-06-25T16:05:52Z</time>
      </trkpt>
      <trkpt lat="49.67883" lon="5.16352">
        <ele>189.4</ele>
        <time>2020-06-25T16:05:53Z</time>
      </trkpt>
      <trkpt lat="49.67887" lon="5.16349">
        <ele>189.4</ele>
        <time>2020-06-25T16:05:54Z</time>
      </trkpt>
      <trkpt lat="49.67892" lon="5.16346">
        <ele>189.4</ele>
        <time>2020-06-25T16:05:55Z</time>
      </trkpt>
      <trkpt lat="49.67896" lon="5.16343">
        <ele>189.5</ele>
        <time>2020-06-25T16:05:56Z</time>
      </trkpt>
      <trkpt lat="49.679" lon="5.16341">
        <ele>189.5</ele>
        <time>2020-06-25T16:05:57Z</time>
      </trkpt>
      <trkpt lat="49.67905" lon="5.16338">
        <ele>189.5</ele>
        <time>2020-06-25T16:05:58Z</time>
      </trkpt>
      <trkpt lat="49.67909" lon="5.16334">
        <ele>189.6</ele>
        <time>2020-06-25T16:05:59Z</time>
      </trkpt>
      <trkpt lat="49.67913" lon="5.16332">
        <ele>189.7</ele>
        <time>2020-06-25T16:06:00Z</time>
      </trkpt>
      <trkpt lat="49.67917" lon="5.16329">
        <ele>189.7</ele>
        <time>2020-06-25T16:06:01Z</time>
      </trkpt>
      <trkpt lat="49.67921" lon="5.16327">
        <ele>189.8</ele>
        <time>2020-06-25T16:06:02Z</time>
      </trkpt>
      <trkpt lat="49.67924" lon="5.16326">
        <ele>189.8</ele>
        <time>2020-06-25T16:06:03Z</time>
      </trkpt>
      <trkpt lat="49.67928" lon="5.16325">
        <ele>189.9</ele>
        <time>2020-06-25T16:06:04Z</time>
      </trkpt>
      <trkpt lat="49.67933" lon="5.16326">
        <ele>190</ele>
        <time>2020-06-25T16:06:05Z</time>
      </trkpt>
      <trkpt lat="49.67934" lon="5.16327">
        <ele>190</ele>
        <time>2020-06-25T16:06:06Z</time>
      </trkpt>
      <trkpt lat="49.67938" lon="5.16332">
        <ele>190</ele>
        <time>2020-06-25T16:06:07Z</time>
      </trkpt>
      <trkpt lat="49.67941" lon="5.16338">
        <ele>189.9</ele>
        <time>2020-06-25T16:06:08Z</time>
      </trkpt>
      <trkpt lat="49.67943" lon="5.16342">
        <ele>189.8</ele>
        <time>2020-06-25T16:06:09Z</time>
      </trkpt>
      <trkpt lat="49.67945" lon="5.16346">
        <ele>189.6</ele>
        <time>2020-06-25T16:06:10Z</time>
      </trkpt>
      <trkpt lat="49.67948" lon="5.16349">
        <ele>189.5</ele>
        <time>2020-06-25T16:06:11Z</time>
      </trkpt>
      <trkpt lat="49.6795" lon="5.16352">
        <ele>189.4</ele>
        <time>2020-06-25T16:06:12Z</time>
      </trkpt>
      <trkpt lat="49.67951" lon="5.16354">
        <ele>189.3</ele>
        <time>2020-06-25T16:06:13Z</time>
      </trkpt>
      <trkpt lat="49.67954" lon="5.16357">
        <ele>189.2</ele>
        <time>2020-06-25T16:06:14Z</time>
      </trkpt>
      <trkpt lat="49.67957" lon="5.1636">
        <ele>189.1</ele>
        <time>2020-06-25T16:06:15Z</time>
      </trkpt>
      <trkpt lat="49.67958" lon="5.16362">
        <ele>189.1</ele>
        <time>2020-06-25T16:06:16Z</time>
      </trkpt>
      <trkpt lat="49.67961" lon="5.16365">
        <ele>189.1</ele>
        <time>2020-06-25T16:06:17Z</time>
      </trkpt>
      <trkpt lat="49.67963" lon="5.16368">
        <ele>189.1</ele>
        <time>2020-06-25T16:06:18Z</time>
      </trkpt>
      <trkpt lat="49.67966" lon="5.16371">
        <ele>189.1</ele>
        <time>2020-06-25T16:06:19Z</time>
      </trkpt>
      <trkpt lat="49.67969" lon="5.16375">
        <ele>189.1</ele>
        <time>2020-06-25T16:06:20Z</time>
      </trkpt>
      <trkpt lat="49.67972" lon="5.16379">
        <ele>189.1</ele>
        <time>2020-06-25T16:06:21Z</time>
      </trkpt>
      <trkpt lat="49.67974" lon="5.16382">
        <ele>189.1</ele>
        <time>2020-06-25T16:06:22Z</time>
      </trkpt>
      <trkpt lat="49.67977" lon="5.16385">
        <ele>189.1</ele>
        <time>2020-06-25T16:06:23Z</time>
      </trkpt>
      <trkpt lat="49.6798" lon="5.16389">
        <ele>189.2</ele>
        <time>2020-06-25T16:06:24Z</time>
      </trkpt>
      <trkpt lat="49.67984" lon="5.16393">
        <ele>189.3</ele>
        <time>2020-06-25T16:06:25Z</time>
      </trkpt>
      <trkpt lat="49.67986" lon="5.16396">
        <ele>189.4</ele>
        <time>2020-06-25T16:06:26Z</time>
      </trkpt>
      <trkpt lat="49.67989" lon="5.16399">
        <ele>189.4</ele>
        <time>2020-06-25T16:06:27Z</time>
      </trkpt>
      <trkpt lat="49.67992" lon="5.16403">
        <ele>189.6</ele>
        <time>2020-06-25T16:06:28Z</time>
      </trkpt>
      <trkpt lat="49.67994" lon="5.16407">
        <ele>189.7</ele>
        <time>2020-06-25T16:06:29Z</time>
      </trkpt>
      <trkpt lat="49.67997" lon="5.1641">
        <ele>189.8</ele>
        <time>2020-06-25T16:06:30Z</time>
      </trkpt>
      <trkpt lat="49.68" lon="5.16413">
        <ele>189.9</ele>
        <time>2020-06-25T16:06:31Z</time>
      </trkpt>
      <trkpt lat="49.68003" lon="5.16416">
        <ele>190.1</ele>
        <time>2020-06-25T16:06:32Z</time>
      </trkpt>
      <trkpt lat="49.68005" lon="5.16419">
        <ele>190.2</ele>
        <time>2020-06-25T16:06:33Z</time>
      </trkpt>
      <trkpt lat="49.68007" lon="5.16422">
        <ele>190.3</ele>
        <time>2020-06-25T16:06:34Z</time>
      </trkpt>
      <trkpt lat="49.6801" lon="5.16425">
        <ele>190.5</ele>
        <time>2020-06-25T16:06:35Z</time>
      </trkpt>
      <trkpt lat="49.68012" lon="5.16428">
        <ele>190.6</ele>
        <time>2020-06-25T16:06:36Z</time>
      </trkpt>
      <trkpt lat="49.68015" lon="5.16431">
        <ele>190.8</ele>
        <time>2020-06-25T16:06:37Z</time>
      </trkpt>
      <trkpt lat="49.68017" lon="5.16434">
        <ele>190.9</ele>
        <time>2020-06-25T16:06:38Z</time>
      </trkpt>
      <trkpt lat="49.6802" lon="5.16437">
        <ele>191.1</ele>
        <time>2020-06-25T16:06:39Z</time>
      </trkpt>
      <trkpt lat="49.68022" lon="5.1644">
        <ele>191.2</ele>
        <time>2020-06-25T16:06:40Z</time>
      </trkpt>
      <trkpt lat="49.68024" lon="5.16443">
        <ele>191.4</ele>
        <time>2020-06-25T16:06:41Z</time>
      </trkpt>
      <trkpt lat="49.68027" lon="5.16446">
        <ele>191.6</ele>
        <time>2020-06-25T16:06:42Z</time>
      </trkpt>
      <trkpt lat="49.68029" lon="5.16449">
        <ele>191.7</ele>
        <time>2020-06-25T16:06:43Z</time>
      </trkpt>
      <trkpt lat="49.68031" lon="5.16452">
        <ele>191.9</ele>
        <time>2020-06-25T16:06:44Z</time>
      </trkpt>
      <trkpt lat="49.68034" lon="5.16454">
        <ele>192.1</ele>
        <time>2020-06-25T16:06:45Z</time>
      </trkpt>
      <trkpt lat="49.68036" lon="5.16457">
        <ele>192.2</ele>
        <time>2020-06-25T16:06:46Z</time>
      </trkpt>
      <trkpt lat="49.68039" lon="5.16459">
        <ele>192.4</ele>
        <time>2020-06-25T16:06:47Z</time>
      </trkpt>
      <trkpt lat="49.68041" lon="5.16462">
        <ele>192.5</ele>
        <time>2020-06-25T16:06:48Z</time>
      </trkpt>
      <trkpt lat="49.68044" lon="5.16464">
        <ele>192.7</ele>
        <time>2020-06-25T16:06:49Z</time>
      </trkpt>
      <trkpt lat="49.68046" lon="5.16467">
        <ele>192.9</ele>
        <time>2020-06-25T16:06:50Z</time>
      </trkpt>
      <trkpt lat="49.68047" lon="5.16469">
        <ele>193</ele>
        <time>2020-06-25T16:06:51Z</time>
      </trkpt>
      <trkpt lat="49.6805" lon="5.16472">
        <ele>193.2</ele>
        <time>2020-06-25T16:06:52Z</time>
      </trkpt>
      <trkpt lat="49.68053" lon="5.16476">
        <ele>193.6</ele>
        <time>2020-06-25T16:06:53Z</time>
      </trkpt>
      <trkpt lat="49.68055" lon="5.16478">
        <ele>193.7</ele>
        <time>2020-06-25T16:06:54Z</time>
      </trkpt>
      <trkpt lat="49.68057" lon="5.16481">
        <ele>194</ele>
        <time>2020-06-25T16:06:55Z</time>
      </trkpt>
      <trkpt lat="49.68059" lon="5.16484">
        <ele>194.2</ele>
        <time>2020-06-25T16:06:56Z</time>
      </trkpt>
      <trkpt lat="49.68062" lon="5.16488">
        <ele>194.5</ele>
        <time>2020-06-25T16:06:57Z</time>
      </trkpt>
      <trkpt lat="49.68062" lon="5.16489">
        <ele>194.6</ele>
        <time>2020-06-25T16:06:58Z</time>
      </trkpt>
      <trkpt lat="49.68065" lon="5.16493">
        <ele>194.9</ele>
        <time>2020-06-25T16:06:59Z</time>
      </trkpt>
      <trkpt lat="49.68066" lon="5.16494">
        <ele>195</ele>
        <time>2020-06-25T16:07:00Z</time>
      </trkpt>
      <trkpt lat="49.68069" lon="5.16498">
        <ele>195.4</ele>
        <time>2020-06-25T16:07:01Z</time>
      </trkpt>
      <trkpt lat="49.6807" lon="5.16499">
        <ele>195.5</ele>
        <time>2020-06-25T16:07:02Z</time>
      </trkpt>
      <trkpt lat="49.68072" lon="5.16502">
        <ele>195.8</ele>
        <time>2020-06-25T16:07:03Z</time>
      </trkpt>
      <trkpt lat="49.68075" lon="5.16505">
        <ele>196.1</ele>
        <time>2020-06-25T16:07:04Z</time>
      </trkpt>
      <trkpt lat="49.68076" lon="5.16507">
        <ele>196.2</ele>
        <time>2020-06-25T16:07:05Z</time>
      </trkpt>
      <trkpt lat="49.68078" lon="5.1651">
        <ele>196.5</ele>
        <time>2020-06-25T16:07:06Z</time>
      </trkpt>
      <trkpt lat="49.68079" lon="5.16511">
        <ele>196.6</ele>
        <time>2020-06-25T16:07:07Z</time>
      </trkpt>
      <trkpt lat="49.68082" lon="5.16514">
        <ele>197</ele>
        <time>2020-06-25T16:07:08Z</time>
      </trkpt>
      <trkpt lat="49.68083" lon="5.16515">
        <ele>197.1</ele>
        <time>2020-06-25T16:07:09Z</time>
      </trkpt>
      <trkpt lat="49.68085" lon="5.16518">
        <ele>197.3</ele>
        <time>2020-06-25T16:07:10Z</time>
      </trkpt>
      <trkpt lat="49.68087" lon="5.16521">
        <ele>197.6</ele>
        <time>2020-06-25T16:07:11Z</time>
      </trkpt>
      <trkpt lat="49.6809" lon="5.16524">
        <ele>197.9</ele>
        <time>2020-06-25T16:07:12Z</time>
      </trkpt>
      <trkpt lat="49.68092" lon="5.16526">
        <ele>198.2</ele>
        <time>2020-06-25T16:07:13Z</time>
      </trkpt>
      <trkpt lat="49.68095" lon="5.1653">
        <ele>198.6</ele>
        <time>2020-06-25T16:07:14Z</time>
      </trkpt>
      <trkpt lat="49.68096" lon="5.16531">
        <ele>198.7</ele>
        <time>2020-06-25T16:07:15Z</time>
      </trkpt>
      <trkpt lat="49.68099" lon="5.16535">
        <ele>199</ele>
        <time>2020-06-25T16:07:16Z</time>
      </trkpt>
      <trkpt lat="49.68099" lon="5.16536">
        <ele>199.1</ele>
        <time>2020-06-25T16:07:17Z</time>
      </trkpt>
      <trkpt lat="49.68102" lon="5.16538">
        <ele>199.4</ele>
        <time>2020-06-25T16:07:18Z</time>
      </trkpt>
      <trkpt lat="49.68104" lon="5.16541">
        <ele>199.7</ele>
        <time>2020-06-25T16:07:19Z</time>
      </trkpt>
      <trkpt lat="49.68105" lon="5.16542">
        <ele>199.8</ele>
        <time>2020-06-25T16:07:20Z</time>
      </trkpt>
      <trkpt lat="49.68108" lon="5.16546">
        <ele>200.2</ele>
        <time>2020-06-25T16:07:21Z</time>
      </trkpt>
      <trkpt lat="49.68109" lon="5.16547">
        <ele>200.3</ele>
        <time>2020-06-25T16:07:22Z</time>
      </trkpt>
      <trkpt lat="49.68113" lon="5.1655">
        <ele>200.7</ele>
        <time>2020-06-25T16:07:23Z</time>
      </trkpt>
      <trkpt lat="49.68114" lon="5.16552">
        <ele>200.8</ele>
        <time>2020-06-25T16:07:24Z</time>
      </trkpt>
      <trkpt lat="49.68116" lon="5.16555">
        <ele>201.1</ele>
        <time>2020-06-25T16:07:25Z</time>
      </trkpt>
      <trkpt lat="49.68117" lon="5.16556">
        <ele>201.2</ele>
        <time>2020-06-25T16:07:26Z</time>
      </trkpt>
      <trkpt lat="49.6812" lon="5.16559">
        <ele>201.5</ele>
        <time>2020-06-25T16:07:27Z</time>
      </trkpt>
      <trkpt lat="49.68121" lon="5.16559">
        <ele>201.6</ele>
        <time>2020-06-25T16:07:28Z</time>
      </trkpt>
      <trkpt lat="49.68122" lon="5.16561">
        <ele>201.7</ele>
        <time>2020-06-25T16:07:29Z</time>
      </trkpt>
      <trkpt lat="49.68124" lon="5.16562">
        <ele>201.9</ele>
        <time>2020-06-25T16:07:30Z</time>
      </trkpt>
      <trkpt lat="49.68126" lon="5.16565">
        <ele>202.2</ele>
        <time>2020-06-25T16:07:31Z</time>
      </trkpt>
      <trkpt lat="49.68129" lon="5.16568">
        <ele>202.5</ele>
        <time>2020-06-25T16:07:32Z</time>
      </trkpt>
      <trkpt lat="49.68129" lon="5.16569">
        <ele>202.5</ele>
        <time>2020-06-25T16:07:33Z</time>
      </trkpt>
      <trkpt lat="49.68132" lon="5.16572">
        <ele>202.9</ele>
        <time>2020-06-25T16:07:34Z</time>
      </trkpt>
      <trkpt lat="49.68133" lon="5.16573">
        <ele>203</ele>
        <time>2020-06-25T16:07:35Z</time>
      </trkpt>
      <trkpt lat="49.68135" lon="5.16575">
        <ele>203.1</ele>
        <time>2020-06-25T16:07:36Z</time>
      </trkpt>
      <trkpt lat="49.68136" lon="5.16577">
        <ele>203.2</ele>
        <time>2020-06-25T16:07:37Z</time>
      </trkpt>
      <trkpt lat="49.68139" lon="5.1658">
        <ele>203.6</ele>
        <time>2020-06-25T16:07:38Z</time>
      </trkpt>
      <trkpt lat="49.68139" lon="5.16582">
        <ele>203.7</ele>
        <time>2020-06-25T16:07:39Z</time>
      </trkpt>
      <trkpt lat="49.68142" lon="5.16585">
        <ele>203.9</ele>
        <time>2020-06-25T16:07:40Z</time>
      </trkpt>
      <trkpt lat="49.68143" lon="5.16586">
        <ele>204</ele>
        <time>2020-06-25T16:07:41Z</time>
      </trkpt>
      <trkpt lat="49.68144" lon="5.16588">
        <ele>204.1</ele>
        <time>2020-06-25T16:07:42Z</time>
      </trkpt>
      <trkpt lat="49.68145" lon="5.16589">
        <ele>204.3</ele>
        <time>2020-06-25T16:07:43Z</time>
      </trkpt>
      <trkpt lat="49.68148" lon="5.16593">
        <ele>204.5</ele>
        <time>2020-06-25T16:07:44Z</time>
      </trkpt>
      <trkpt lat="49.6815" lon="5.16596">
        <ele>204.7</ele>
        <time>2020-06-25T16:07:45Z</time>
      </trkpt>
      <trkpt lat="49.68152" lon="5.16597">
        <ele>204.9</ele>
        <time>2020-06-25T16:07:46Z</time>
      </trkpt>
      <trkpt lat="49.68153" lon="5.16598">
        <ele>205</ele>
        <time>2020-06-25T16:07:47Z</time>
      </trkpt>
      <trkpt lat="49.68154" lon="5.16599">
        <ele>205.1</ele>
        <time>2020-06-25T16:07:48Z</time>
      </trkpt>
      <trkpt lat="49.68156" lon="5.166">
        <ele>205.2</ele>
        <time>2020-06-25T16:07:49Z</time>
      </trkpt>
      <trkpt lat="49.68158" lon="5.16603">
        <ele>205.4</ele>
        <time>2020-06-25T16:07:50Z</time>
      </trkpt>
      <trkpt lat="49.68158" lon="5.16604">
        <ele>205.5</ele>
        <time>2020-06-25T16:07:51Z</time>
      </trkpt>
      <trkpt lat="49.6816" lon="5.16607">
        <ele>205.7</ele>
        <time>2020-06-25T16:07:52Z</time>
      </trkpt>
      <trkpt lat="49.68163" lon="5.16611">
        <ele>205.9</ele>
        <time>2020-06-25T16:07:53Z</time>
      </trkpt>
      <trkpt lat="49.68163" lon="5.16612">
        <ele>206</ele>
        <time>2020-06-25T16:07:54Z</time>
      </trkpt>
      <trkpt lat="49.68164" lon="5.16613">
        <ele>206.1</ele>
        <time>2020-06-25T16:07:55Z</time>
      </trkpt>
      <trkpt lat="49.68166" lon="5.16616">
        <ele>206.3</ele>
        <time>2020-06-25T16:07:56Z</time>
      </trkpt>
      <trkpt lat="49.68168" lon="5.16619">
        <ele>206.6</ele>
        <time>2020-06-25T16:07:57Z</time>
      </trkpt>
      <trkpt lat="49.68169" lon="5.1662">
        <ele>206.6</ele>
        <time>2020-06-25T16:07:58Z</time>
      </trkpt>
      <trkpt lat="49.68171" lon="5.16623">
        <ele>206.9</ele>
        <time>2020-06-25T16:07:59Z</time>
      </trkpt>
      <trkpt lat="49.68172" lon="5.16624">
        <ele>206.9</ele>
        <time>2020-06-25T16:08:00Z</time>
      </trkpt>
      <trkpt lat="49.68174" lon="5.16627">
        <ele>207.2</ele>
        <time>2020-06-25T16:08:01Z</time>
      </trkpt>
      <trkpt lat="49.68175" lon="5.16628">
        <ele>207.2</ele>
        <time>2020-06-25T16:08:02Z</time>
      </trkpt>
      <trkpt lat="49.68178" lon="5.16632">
        <ele>207.5</ele>
        <time>2020-06-25T16:08:03Z</time>
      </trkpt>
      <trkpt lat="49.68178" lon="5.16634">
        <ele>207.6</ele>
        <time>2020-06-25T16:08:04Z</time>
      </trkpt>
      <trkpt lat="49.68181" lon="5.16638">
        <ele>207.8</ele>
        <time>2020-06-25T16:08:05Z</time>
      </trkpt>
      <trkpt lat="49.68181" lon="5.16639">
        <ele>207.9</ele>
        <time>2020-06-25T16:08:06Z</time>
      </trkpt>
      <trkpt lat="49.68184" lon="5.16644">
        <ele>208.2</ele>
        <time>2020-06-25T16:08:07Z</time>
      </trkpt>
      <trkpt lat="49.68185" lon="5.16645">
        <ele>208.3</ele>
        <time>2020-06-25T16:08:08Z</time>
      </trkpt>
      <trkpt lat="49.68187" lon="5.1665">
        <ele>208.6</ele>
        <time>2020-06-25T16:08:09Z</time>
      </trkpt>
      <trkpt lat="49.68188" lon="5.16652">
        <ele>208.7</ele>
        <time>2020-06-25T16:08:10Z</time>
      </trkpt>
      <trkpt lat="49.68191" lon="5.16656">
        <ele>208.9</ele>
        <time>2020-06-25T16:08:11Z</time>
      </trkpt>
      <trkpt lat="49.68191" lon="5.16657">
        <ele>209</ele>
        <time>2020-06-25T16:08:12Z</time>
      </trkpt>
      <trkpt lat="49.68194" lon="5.16661">
        <ele>209.2</ele>
        <time>2020-06-25T16:08:13Z</time>
      </trkpt>
      <trkpt lat="49.68194" lon="5.16662">
        <ele>209.3</ele>
        <time>2020-06-25T16:08:14Z</time>
      </trkpt>
      <trkpt lat="49.68196" lon="5.16667">
        <ele>209.6</ele>
        <time>2020-06-25T16:08:15Z</time>
      </trkpt>
      <trkpt lat="49.68197" lon="5.16669">
        <ele>209.7</ele>
        <time>2020-06-25T16:08:16Z</time>
      </trkpt>
      <trkpt lat="49.68199" lon="5.16672">
        <ele>209.9</ele>
        <time>2020-06-25T16:08:17Z</time>
      </trkpt>
      <trkpt lat="49.682" lon="5.16674">
        <ele>210</ele>
        <time>2020-06-25T16:08:18Z</time>
      </trkpt>
      <trkpt lat="49.68203" lon="5.16678">
        <ele>210.3</ele>
        <time>2020-06-25T16:08:19Z</time>
      </trkpt>
      <trkpt lat="49.68203" lon="5.1668">
        <ele>210.3</ele>
        <time>2020-06-25T16:08:20Z</time>
      </trkpt>
      <trkpt lat="49.68205" lon="5.16684">
        <ele>210.6</ele>
        <time>2020-06-25T16:08:21Z</time>
      </trkpt>
      <trkpt lat="49.68206" lon="5.16685">
        <ele>210.7</ele>
        <time>2020-06-25T16:08:22Z</time>
      </trkpt>
      <trkpt lat="49.68208" lon="5.16689">
        <ele>210.9</ele>
        <time>2020-06-25T16:08:23Z</time>
      </trkpt>
      <trkpt lat="49.68209" lon="5.1669">
        <ele>210.9</ele>
        <time>2020-06-25T16:08:24Z</time>
      </trkpt>
      <trkpt lat="49.68211" lon="5.16693">
        <ele>211.2</ele>
        <time>2020-06-25T16:08:25Z</time>
      </trkpt>
      <trkpt lat="49.68212" lon="5.16695">
        <ele>211.2</ele>
        <time>2020-06-25T16:08:26Z</time>
      </trkpt>
      <trkpt lat="49.68214" lon="5.16699">
        <ele>211.5</ele>
        <time>2020-06-25T16:08:27Z</time>
      </trkpt>
      <trkpt lat="49.68215" lon="5.167">
        <ele>211.6</ele>
        <time>2020-06-25T16:08:28Z</time>
      </trkpt>
      <trkpt lat="49.68218" lon="5.16704">
        <ele>211.8</ele>
        <time>2020-06-25T16:08:29Z</time>
      </trkpt>
      <trkpt lat="49.68219" lon="5.16705">
        <ele>211.9</ele>
        <time>2020-06-25T16:08:30Z</time>
      </trkpt>
      <trkpt lat="49.68221" lon="5.16708">
        <ele>212.1</ele>
        <time>2020-06-25T16:08:31Z</time>
      </trkpt>
      <trkpt lat="49.68222" lon="5.16709">
        <ele>212.1</ele>
        <time>2020-06-25T16:08:32Z</time>
      </trkpt>
      <trkpt lat="49.68224" lon="5.16712">
        <ele>212.3</ele>
        <time>2020-06-25T16:08:33Z</time>
      </trkpt>
      <trkpt lat="49.68225" lon="5.16713">
        <ele>212.4</ele>
        <time>2020-06-25T16:08:34Z</time>
      </trkpt>
      <trkpt lat="49.68226" lon="5.16717">
        <ele>212.6</ele>
        <time>2020-06-25T16:08:35Z</time>
      </trkpt>
      <trkpt lat="49.68227" lon="5.16719">
        <ele>212.7</ele>
        <time>2020-06-25T16:08:36Z</time>
      </trkpt>
      <trkpt lat="49.68229" lon="5.16723">
        <ele>213</ele>
        <time>2020-06-25T16:08:37Z</time>
      </trkpt>
      <trkpt lat="49.6823" lon="5.16725">
        <ele>213.1</ele>
        <time>2020-06-25T16:08:38Z</time>
      </trkpt>
      <trkpt lat="49.68233" lon="5.16729">
        <ele>213.4</ele>
        <time>2020-06-25T16:08:39Z</time>
      </trkpt>
      <trkpt lat="49.68233" lon="5.16731">
        <ele>213.5</ele>
        <time>2020-06-25T16:08:40Z</time>
      </trkpt>
      <trkpt lat="49.68236" lon="5.16734">
        <ele>213.7</ele>
        <time>2020-06-25T16:08:41Z</time>
      </trkpt>
      <trkpt lat="49.68238" lon="5.16737">
        <ele>213.9</ele>
        <time>2020-06-25T16:08:42Z</time>
      </trkpt>
      <trkpt lat="49.6824" lon="5.16741">
        <ele>214.2</ele>
        <time>2020-06-25T16:08:43Z</time>
      </trkpt>
      <trkpt lat="49.68241" lon="5.16743">
        <ele>214.3</ele>
        <time>2020-06-25T16:08:44Z</time>
      </trkpt>
      <trkpt lat="49.68243" lon="5.16746">
        <ele>214.5</ele>
        <time>2020-06-25T16:08:45Z</time>
      </trkpt>
      <trkpt lat="49.68246" lon="5.1675">
        <ele>214.9</ele>
        <time>2020-06-25T16:08:46Z</time>
      </trkpt>
      <trkpt lat="49.68247" lon="5.16751">
        <ele>215</ele>
        <time>2020-06-25T16:08:47Z</time>
      </trkpt>
      <trkpt lat="49.6825" lon="5.16756">
        <ele>215.4</ele>
        <time>2020-06-25T16:08:48Z</time>
      </trkpt>
      <trkpt lat="49.68251" lon="5.16758">
        <ele>215.6</ele>
        <time>2020-06-25T16:08:49Z</time>
      </trkpt>
      <trkpt lat="49.68254" lon="5.16762">
        <ele>216</ele>
        <time>2020-06-25T16:08:50Z</time>
      </trkpt>
      <trkpt lat="49.68255" lon="5.16763">
        <ele>216.1</ele>
        <time>2020-06-25T16:08:51Z</time>
      </trkpt>
      <trkpt lat="49.68257" lon="5.16767">
        <ele>216.4</ele>
        <time>2020-06-25T16:08:52Z</time>
      </trkpt>
      <trkpt lat="49.68259" lon="5.16769">
        <ele>216.7</ele>
        <time>2020-06-25T16:08:53Z</time>
      </trkpt>
      <trkpt lat="49.68261" lon="5.16773">
        <ele>217</ele>
        <time>2020-06-25T16:08:54Z</time>
      </trkpt>
      <trkpt lat="49.68262" lon="5.16774">
        <ele>217.1</ele>
        <time>2020-06-25T16:08:55Z</time>
      </trkpt>
      <trkpt lat="49.68264" lon="5.16778">
        <ele>217.5</ele>
        <time>2020-06-25T16:08:56Z</time>
      </trkpt>
      <trkpt lat="49.68265" lon="5.16779">
        <ele>217.6</ele>
        <time>2020-06-25T16:08:57Z</time>
      </trkpt>
      <trkpt lat="49.68267" lon="5.16782">
        <ele>217.9</ele>
        <time>2020-06-25T16:08:58Z</time>
      </trkpt>
      <trkpt lat="49.68268" lon="5.16783">
        <ele>218</ele>
        <time>2020-06-25T16:08:59Z</time>
      </trkpt>
      <trkpt lat="49.6827" lon="5.16786">
        <ele>218.3</ele>
        <time>2020-06-25T16:09:00Z</time>
      </trkpt>
      <trkpt lat="49.68273" lon="5.1679">
        <ele>218.7</ele>
        <time>2020-06-25T16:09:01Z</time>
      </trkpt>
      <trkpt lat="49.68274" lon="5.16792">
        <ele>218.8</ele>
        <time>2020-06-25T16:09:02Z</time>
      </trkpt>
      <trkpt lat="49.68276" lon="5.16796">
        <ele>219.2</ele>
        <time>2020-06-25T16:09:03Z</time>
      </trkpt>
      <trkpt lat="49.68277" lon="5.16797">
        <ele>219.3</ele>
        <time>2020-06-25T16:09:04Z</time>
      </trkpt>
      <trkpt lat="49.68279" lon="5.168">
        <ele>219.6</ele>
        <time>2020-06-25T16:09:05Z</time>
      </trkpt>
      <trkpt lat="49.68281" lon="5.16804">
        <ele>219.9</ele>
        <time>2020-06-25T16:09:06Z</time>
      </trkpt>
      <trkpt lat="49.68282" lon="5.16805">
        <ele>220</ele>
        <time>2020-06-25T16:09:07Z</time>
      </trkpt>
      <trkpt lat="49.68283" lon="5.16807">
        <ele>220.2</ele>
        <time>2020-06-25T16:09:08Z</time>
      </trkpt>
      <trkpt lat="49.68284" lon="5.16809">
        <ele>220.4</ele>
        <time>2020-06-25T16:09:09Z</time>
      </trkpt>
      <trkpt lat="49.68286" lon="5.16812">
        <ele>220.7</ele>
        <time>2020-06-25T16:09:10Z</time>
      </trkpt>
      <trkpt lat="49.68288" lon="5.16816">
        <ele>221</ele>
        <time>2020-06-25T16:09:11Z</time>
      </trkpt>
      <trkpt lat="49.68291" lon="5.16818">
        <ele>221.3</ele>
        <time>2020-06-25T16:09:12Z</time>
      </trkpt>
      <trkpt lat="49.68291" lon="5.16819">
        <ele>221.4</ele>
        <time>2020-06-25T16:09:13Z</time>
      </trkpt>
      <trkpt lat="49.68294" lon="5.16822">
        <ele>221.7</ele>
        <time>2020-06-25T16:09:14Z</time>
      </trkpt>
      <trkpt lat="49.68296" lon="5.16826">
        <ele>222</ele>
        <time>2020-06-25T16:09:15Z</time>
      </trkpt>
      <trkpt lat="49.68296" lon="5.16827">
        <ele>222.1</ele>
        <time>2020-06-25T16:09:16Z</time>
      </trkpt>
      <trkpt lat="49.68298" lon="5.16829">
        <ele>222.3</ele>
        <time>2020-06-25T16:09:17Z</time>
      </trkpt>
      <trkpt lat="49.68298" lon="5.1683">
        <ele>222.4</ele>
        <time>2020-06-25T16:09:18Z</time>
      </trkpt>
      <trkpt lat="49.68299" lon="5.16832">
        <ele>222.6</ele>
        <time>2020-06-25T16:09:19Z</time>
      </trkpt>
      <trkpt lat="49.68301" lon="5.16834">
        <ele>222.8</ele>
        <time>2020-06-25T16:09:20Z</time>
      </trkpt>
      <trkpt lat="49.68303" lon="5.16837">
        <ele>223.1</ele>
        <time>2020-06-25T16:09:21Z</time>
      </trkpt>
      <trkpt lat="49.68304" lon="5.16838">
        <ele>223.3</ele>
        <time>2020-06-25T16:09:22Z</time>
      </trkpt>
      <trkpt lat="49.68306" lon="5.16842">
        <ele>223.6</ele>
        <time>2020-06-25T16:09:23Z</time>
      </trkpt>
      <trkpt lat="49.68307" lon="5.16843">
        <ele>223.8</ele>
        <time>2020-06-25T16:09:24Z</time>
      </trkpt>
      <trkpt lat="49.68309" lon="5.16846">
        <ele>224.1</ele>
        <time>2020-06-25T16:09:25Z</time>
      </trkpt>
      <trkpt lat="49.6831" lon="5.16848">
        <ele>224.3</ele>
        <time>2020-06-25T16:09:26Z</time>
      </trkpt>
      <trkpt lat="49.68312" lon="5.1685">
        <ele>224.6</ele>
        <time>2020-06-25T16:09:27Z</time>
      </trkpt>
      <trkpt lat="49.68313" lon="5.16852">
        <ele>224.7</ele>
        <time>2020-06-25T16:09:28Z</time>
      </trkpt>
      <trkpt lat="49.68315" lon="5.16854">
        <ele>224.9</ele>
        <time>2020-06-25T16:09:29Z</time>
      </trkpt>
      <trkpt lat="49.68316" lon="5.16855">
        <ele>225</ele>
        <time>2020-06-25T16:09:30Z</time>
      </trkpt>
      <trkpt lat="49.68319" lon="5.16859">
        <ele>225.4</ele>
        <time>2020-06-25T16:09:31Z</time>
      </trkpt>
      <trkpt lat="49.6832" lon="5.1686">
        <ele>225.6</ele>
        <time>2020-06-25T16:09:32Z</time>
      </trkpt>
      <trkpt lat="49.68323" lon="5.16863">
        <ele>226</ele>
        <time>2020-06-25T16:09:33Z</time>
      </trkpt>
      <trkpt lat="49.68323" lon="5.16864">
        <ele>226</ele>
        <time>2020-06-25T16:09:34Z</time>
      </trkpt>
      <trkpt lat="49.68326" lon="5.16866">
        <ele>226.3</ele>
        <time>2020-06-25T16:09:35Z</time>
      </trkpt>
      <trkpt lat="49.68329" lon="5.16869">
        <ele>226.7</ele>
        <time>2020-06-25T16:09:36Z</time>
      </trkpt>
      <trkpt lat="49.68331" lon="5.16871">
        <ele>227</ele>
        <time>2020-06-25T16:09:37Z</time>
      </trkpt>
      <trkpt lat="49.68332" lon="5.16871">
        <ele>227.1</ele>
        <time>2020-06-25T16:09:38Z</time>
      </trkpt>
      <trkpt lat="49.68334" lon="5.16873">
        <ele>227.3</ele>
        <time>2020-06-25T16:09:39Z</time>
      </trkpt>
      <trkpt lat="49.68335" lon="5.16873">
        <ele>227.4</ele>
        <time>2020-06-25T16:09:40Z</time>
      </trkpt>
      <trkpt lat="49.68337" lon="5.16876">
        <ele>227.7</ele>
        <time>2020-06-25T16:09:41Z</time>
      </trkpt>
      <trkpt lat="49.68338" lon="5.16877">
        <ele>227.8</ele>
        <time>2020-06-25T16:09:42Z</time>
      </trkpt>
      <trkpt lat="49.6834" lon="5.16879">
        <ele>228</ele>
        <time>2020-06-25T16:09:43Z</time>
      </trkpt>
      <trkpt lat="49.68341" lon="5.1688">
        <ele>228.2</ele>
        <time>2020-06-25T16:09:44Z</time>
      </trkpt>
      <trkpt lat="49.68343" lon="5.16882">
        <ele>228.5</ele>
        <time>2020-06-25T16:09:45Z</time>
      </trkpt>
      <trkpt lat="49.68345" lon="5.16882">
        <ele>228.7</ele>
        <time>2020-06-25T16:09:46Z</time>
      </trkpt>
      <trkpt lat="49.68347" lon="5.16883">
        <ele>228.9</ele>
        <time>2020-06-25T16:09:47Z</time>
      </trkpt>
      <trkpt lat="49.6835" lon="5.16884">
        <ele>229.2</ele>
        <time>2020-06-25T16:09:48Z</time>
      </trkpt>
      <trkpt lat="49.68351" lon="5.16884">
        <ele>229.3</ele>
        <time>2020-06-25T16:09:49Z</time>
      </trkpt>
      <trkpt lat="49.68353" lon="5.16887">
        <ele>229.5</ele>
        <time>2020-06-25T16:09:50Z</time>
      </trkpt>
      <trkpt lat="49.68354" lon="5.16888">
        <ele>229.6</ele>
        <time>2020-06-25T16:09:51Z</time>
      </trkpt>
      <trkpt lat="49.68357" lon="5.1689">
        <ele>229.8</ele>
        <time>2020-06-25T16:09:52Z</time>
      </trkpt>
      <trkpt lat="49.68358" lon="5.1689">
        <ele>229.9</ele>
        <time>2020-06-25T16:09:53Z</time>
      </trkpt>
      <trkpt lat="49.68361" lon="5.1689">
        <ele>230.2</ele>
        <time>2020-06-25T16:09:54Z</time>
      </trkpt>
      <trkpt lat="49.68361" lon="5.16891">
        <ele>230.2</ele>
        <time>2020-06-25T16:09:55Z</time>
      </trkpt>
      <trkpt lat="49.68364" lon="5.16893">
        <ele>230.5</ele>
        <time>2020-06-25T16:09:56Z</time>
      </trkpt>
      <trkpt lat="49.68365" lon="5.16893">
        <ele>230.5</ele>
        <time>2020-06-25T16:09:57Z</time>
      </trkpt>
      <trkpt lat="49.68368" lon="5.16895">
        <ele>230.8</ele>
        <time>2020-06-25T16:09:58Z</time>
      </trkpt>
      <trkpt lat="49.68369" lon="5.16895">
        <ele>230.9</ele>
        <time>2020-06-25T16:09:59Z</time>
      </trkpt>
      <trkpt lat="49.68373" lon="5.16897">
        <ele>231.2</ele>
        <time>2020-06-25T16:10:00Z</time>
      </trkpt>
      <trkpt lat="49.68374" lon="5.16898">
        <ele>231.3</ele>
        <time>2020-06-25T16:10:01Z</time>
      </trkpt>
      <trkpt lat="49.68376" lon="5.16899">
        <ele>231.5</ele>
        <time>2020-06-25T16:10:02Z</time>
      </trkpt>
      <trkpt lat="49.68379" lon="5.16901">
        <ele>231.7</ele>
        <time>2020-06-25T16:10:03Z</time>
      </trkpt>
      <trkpt lat="49.6838" lon="5.16902">
        <ele>231.8</ele>
        <time>2020-06-25T16:10:04Z</time>
      </trkpt>
      <trkpt lat="49.68383" lon="5.16903">
        <ele>232</ele>
        <time>2020-06-25T16:10:05Z</time>
      </trkpt>
      <trkpt lat="49.68386" lon="5.16906">
        <ele>232.2</ele>
        <time>2020-06-25T16:10:06Z</time>
      </trkpt>
      <trkpt lat="49.68389" lon="5.16908">
        <ele>232.5</ele>
        <time>2020-06-25T16:10:07Z</time>
      </trkpt>
      <trkpt lat="49.68391" lon="5.16908">
        <ele>232.6</ele>
        <time>2020-06-25T16:10:08Z</time>
      </trkpt>
      <trkpt lat="49.68394" lon="5.16909">
        <ele>232.9</ele>
        <time>2020-06-25T16:10:09Z</time>
      </trkpt>
      <trkpt lat="49.68395" lon="5.1691">
        <ele>232.9</ele>
        <time>2020-06-25T16:10:10Z</time>
      </trkpt>
      <trkpt lat="49.68397" lon="5.16913">
        <ele>233.2</ele>
        <time>2020-06-25T16:10:11Z</time>
      </trkpt>
      <trkpt lat="49.684" lon="5.16915">
        <ele>233.4</ele>
        <time>2020-06-25T16:10:12Z</time>
      </trkpt>
      <trkpt lat="49.68403" lon="5.16918">
        <ele>233.6</ele>
        <time>2020-06-25T16:10:13Z</time>
      </trkpt>
      <trkpt lat="49.68404" lon="5.16919">
        <ele>233.7</ele>
        <time>2020-06-25T16:10:14Z</time>
      </trkpt>
      <trkpt lat="49.68406" lon="5.16921">
        <ele>233.9</ele>
        <time>2020-06-25T16:10:15Z</time>
      </trkpt>
      <trkpt lat="49.6841" lon="5.16924">
        <ele>234.2</ele>
        <time>2020-06-25T16:10:16Z</time>
      </trkpt>
      <trkpt lat="49.68411" lon="5.16925">
        <ele>234.3</ele>
        <time>2020-06-25T16:10:17Z</time>
      </trkpt>
      <trkpt lat="49.68414" lon="5.16929">
        <ele>234.6</ele>
        <time>2020-06-25T16:10:18Z</time>
      </trkpt>
      <trkpt lat="49.68415" lon="5.1693">
        <ele>234.6</ele>
        <time>2020-06-25T16:10:19Z</time>
      </trkpt>
      <trkpt lat="49.68416" lon="5.16931">
        <ele>234.8</ele>
        <time>2020-06-25T16:10:20Z</time>
      </trkpt>
      <trkpt lat="49.68417" lon="5.16933">
        <ele>234.9</ele>
        <time>2020-06-25T16:10:21Z</time>
      </trkpt>
      <trkpt lat="49.6842" lon="5.16936">
        <ele>235.1</ele>
        <time>2020-06-25T16:10:22Z</time>
      </trkpt>
      <trkpt lat="49.68421" lon="5.16937">
        <ele>235.2</ele>
        <time>2020-06-25T16:10:23Z</time>
      </trkpt>
      <trkpt lat="49.68423" lon="5.1694">
        <ele>235.5</ele>
        <time>2020-06-25T16:10:24Z</time>
      </trkpt>
      <trkpt lat="49.68425" lon="5.16943">
        <ele>235.7</ele>
        <time>2020-06-25T16:10:25Z</time>
      </trkpt>
      <trkpt lat="49.68428" lon="5.16947">
        <ele>236</ele>
        <time>2020-06-25T16:10:26Z</time>
      </trkpt>
      <trkpt lat="49.68428" lon="5.16948">
        <ele>236.1</ele>
        <time>2020-06-25T16:10:27Z</time>
      </trkpt>
      <trkpt lat="49.6843" lon="5.16952">
        <ele>236.3</ele>
        <time>2020-06-25T16:10:28Z</time>
      </trkpt>
      <trkpt lat="49.68431" lon="5.16954">
        <ele>236.4</ele>
        <time>2020-06-25T16:10:29Z</time>
      </trkpt>
      <trkpt lat="49.68433" lon="5.16958">
        <ele>236.7</ele>
        <time>2020-06-25T16:10:30Z</time>
      </trkpt>
      <trkpt lat="49.68433" lon="5.1696">
        <ele>236.8</ele>
        <time>2020-06-25T16:10:31Z</time>
      </trkpt>
      <trkpt lat="49.68435" lon="5.16963">
        <ele>237</ele>
        <time>2020-06-25T16:10:32Z</time>
      </trkpt>
      <trkpt lat="49.68438" lon="5.16966">
        <ele>237.3</ele>
        <time>2020-06-25T16:10:33Z</time>
      </trkpt>
      <trkpt lat="49.68441" lon="5.1697">
        <ele>237.6</ele>
        <time>2020-06-25T16:10:34Z</time>
      </trkpt>
      <trkpt lat="49.68441" lon="5.16971">
        <ele>237.7</ele>
        <time>2020-06-25T16:10:35Z</time>
      </trkpt>
      <trkpt lat="49.68444" lon="5.16976">
        <ele>238</ele>
        <time>2020-06-25T16:10:36Z</time>
      </trkpt>
      <trkpt lat="49.68445" lon="5.16977">
        <ele>238.1</ele>
        <time>2020-06-25T16:10:37Z</time>
      </trkpt>
      <trkpt lat="49.68446" lon="5.16981">
        <ele>238.3</ele>
        <time>2020-06-25T16:10:38Z</time>
      </trkpt>
      <trkpt lat="49.68449" lon="5.16984">
        <ele>238.6</ele>
        <time>2020-06-25T16:10:39Z</time>
      </trkpt>
      <trkpt lat="49.68451" lon="5.16989">
        <ele>238.9</ele>
        <time>2020-06-25T16:10:40Z</time>
      </trkpt>
      <trkpt lat="49.68452" lon="5.1699">
        <ele>239</ele>
        <time>2020-06-25T16:10:41Z</time>
      </trkpt>
      <trkpt lat="49.68454" lon="5.16995">
        <ele>239.3</ele>
        <time>2020-06-25T16:10:42Z</time>
      </trkpt>
      <trkpt lat="49.68455" lon="5.16996">
        <ele>239.4</ele>
        <time>2020-06-25T16:10:43Z</time>
      </trkpt>
      <trkpt lat="49.68457" lon="5.17">
        <ele>239.7</ele>
        <time>2020-06-25T16:10:44Z</time>
      </trkpt>
      <trkpt lat="49.68458" lon="5.17002">
        <ele>239.8</ele>
        <time>2020-06-25T16:10:45Z</time>
      </trkpt>
      <trkpt lat="49.6846" lon="5.17006">
        <ele>240</ele>
        <time>2020-06-25T16:10:46Z</time>
      </trkpt>
      <trkpt lat="49.68461" lon="5.17008">
        <ele>240.1</ele>
        <time>2020-06-25T16:10:47Z</time>
      </trkpt>
      <trkpt lat="49.68462" lon="5.17011">
        <ele>240.3</ele>
        <time>2020-06-25T16:10:48Z</time>
      </trkpt>
      <trkpt lat="49.68466" lon="5.17014">
        <ele>240.6</ele>
        <time>2020-06-25T16:10:49Z</time>
      </trkpt>
      <trkpt lat="49.68466" lon="5.17016">
        <ele>240.7</ele>
        <time>2020-06-25T16:10:50Z</time>
      </trkpt>
      <trkpt lat="49.68468" lon="5.1702">
        <ele>241</ele>
        <time>2020-06-25T16:10:51Z</time>
      </trkpt>
      <trkpt lat="49.68469" lon="5.17022">
        <ele>241.1</ele>
        <time>2020-06-25T16:10:52Z</time>
      </trkpt>
      <trkpt lat="49.68472" lon="5.17026">
        <ele>241.5</ele>
        <time>2020-06-25T16:10:53Z</time>
      </trkpt>
      <trkpt lat="49.68472" lon="5.17027">
        <ele>241.6</ele>
        <time>2020-06-25T16:10:54Z</time>
      </trkpt>
      <trkpt lat="49.68474" lon="5.17032">
        <ele>241.9</ele>
        <time>2020-06-25T16:10:55Z</time>
      </trkpt>
      <trkpt lat="49.68475" lon="5.17034">
        <ele>242</ele>
        <time>2020-06-25T16:10:56Z</time>
      </trkpt>
      <trkpt lat="49.68477" lon="5.17038">
        <ele>242.3</ele>
        <time>2020-06-25T16:10:57Z</time>
      </trkpt>
      <trkpt lat="49.68478" lon="5.1704">
        <ele>242.4</ele>
        <time>2020-06-25T16:10:58Z</time>
      </trkpt>
      <trkpt lat="49.6848" lon="5.17043">
        <ele>242.6</ele>
        <time>2020-06-25T16:10:59Z</time>
      </trkpt>
      <trkpt lat="49.68481" lon="5.17045">
        <ele>242.7</ele>
        <time>2020-06-25T16:11:00Z</time>
      </trkpt>
      <trkpt lat="49.68483" lon="5.17048">
        <ele>243</ele>
        <time>2020-06-25T16:11:01Z</time>
      </trkpt>
      <trkpt lat="49.68483" lon="5.1705">
        <ele>243.1</ele>
        <time>2020-06-25T16:11:02Z</time>
      </trkpt>
      <trkpt lat="49.68485" lon="5.17054">
        <ele>243.3</ele>
        <time>2020-06-25T16:11:03Z</time>
      </trkpt>
      <trkpt lat="49.68485" lon="5.17056">
        <ele>243.4</ele>
        <time>2020-06-25T16:11:04Z</time>
      </trkpt>
      <trkpt lat="49.68487" lon="5.1706">
        <ele>243.7</ele>
        <time>2020-06-25T16:11:05Z</time>
      </trkpt>
      <trkpt lat="49.68488" lon="5.17062">
        <ele>243.8</ele>
        <time>2020-06-25T16:11:06Z</time>
      </trkpt>
      <trkpt lat="49.6849" lon="5.17065">
        <ele>244</ele>
        <time>2020-06-25T16:11:07Z</time>
      </trkpt>
      <trkpt lat="49.68493" lon="5.1707">
        <ele>244.3</ele>
        <time>2020-06-25T16:11:08Z</time>
      </trkpt>
      <trkpt lat="49.68494" lon="5.17071">
        <ele>244.4</ele>
        <time>2020-06-25T16:11:09Z</time>
      </trkpt>
      <trkpt lat="49.68496" lon="5.17074">
        <ele>244.6</ele>
        <time>2020-06-25T16:11:10Z</time>
      </trkpt>
      <trkpt lat="49.68499" lon="5.17078">
        <ele>244.8</ele>
        <time>2020-06-25T16:11:11Z</time>
      </trkpt>
      <trkpt lat="49.685" lon="5.17079">
        <ele>244.9</ele>
        <time>2020-06-25T16:11:12Z</time>
      </trkpt>
      <trkpt lat="49.68502" lon="5.17083">
        <ele>245.2</ele>
        <time>2020-06-25T16:11:13Z</time>
      </trkpt>
      <trkpt lat="49.68503" lon="5.17085">
        <ele>245.3</ele>
        <time>2020-06-25T16:11:14Z</time>
      </trkpt>
      <trkpt lat="49.68504" lon="5.1709">
        <ele>245.6</ele>
        <time>2020-06-25T16:11:15Z</time>
      </trkpt>
      <trkpt lat="49.68505" lon="5.17091">
        <ele>245.7</ele>
        <time>2020-06-25T16:11:16Z</time>
      </trkpt>
      <trkpt lat="49.68507" lon="5.17096">
        <ele>246</ele>
        <time>2020-06-25T16:11:17Z</time>
      </trkpt>
      <trkpt lat="49.68508" lon="5.17097">
        <ele>246.1</ele>
        <time>2020-06-25T16:11:18Z</time>
      </trkpt>
      <trkpt lat="49.6851" lon="5.17101">
        <ele>246.3</ele>
        <time>2020-06-25T16:11:19Z</time>
      </trkpt>
      <trkpt lat="49.68512" lon="5.17105">
        <ele>246.6</ele>
        <time>2020-06-25T16:11:20Z</time>
      </trkpt>
      <trkpt lat="49.68513" lon="5.17106">
        <ele>246.7</ele>
        <time>2020-06-25T16:11:21Z</time>
      </trkpt>
      <trkpt lat="49.68515" lon="5.17111">
        <ele>246.9</ele>
        <time>2020-06-25T16:11:22Z</time>
      </trkpt>
      <trkpt lat="49.68516" lon="5.17113">
        <ele>247</ele>
        <time>2020-06-25T16:11:23Z</time>
      </trkpt>
      <trkpt lat="49.68518" lon="5.17117">
        <ele>247.2</ele>
        <time>2020-06-25T16:11:24Z</time>
      </trkpt>
      <trkpt lat="49.6852" lon="5.1712">
        <ele>247.4</ele>
        <time>2020-06-25T16:11:25Z</time>
      </trkpt>
      <trkpt lat="49.68521" lon="5.17122">
        <ele>247.5</ele>
        <time>2020-06-25T16:11:26Z</time>
      </trkpt>
      <trkpt lat="49.68524" lon="5.17125">
        <ele>247.7</ele>
        <time>2020-06-25T16:11:27Z</time>
      </trkpt>
      <trkpt lat="49.68525" lon="5.17126">
        <ele>247.8</ele>
        <time>2020-06-25T16:11:28Z</time>
      </trkpt>
      <trkpt lat="49.68528" lon="5.17128">
        <ele>248</ele>
        <time>2020-06-25T16:11:29Z</time>
      </trkpt>
      <trkpt lat="49.6853" lon="5.17131">
        <ele>248.2</ele>
        <time>2020-06-25T16:11:30Z</time>
      </trkpt>
      <trkpt lat="49.68533" lon="5.17136">
        <ele>248.4</ele>
        <time>2020-06-25T16:11:31Z</time>
      </trkpt>
      <trkpt lat="49.68534" lon="5.17138">
        <ele>248.5</ele>
        <time>2020-06-25T16:11:32Z</time>
      </trkpt>
      <trkpt lat="49.68536" lon="5.1714">
        <ele>248.7</ele>
        <time>2020-06-25T16:11:33Z</time>
      </trkpt>
      <trkpt lat="49.68538" lon="5.17144">
        <ele>248.9</ele>
        <time>2020-06-25T16:11:34Z</time>
      </trkpt>
      <trkpt lat="49.6854" lon="5.17148">
        <ele>249</ele>
        <time>2020-06-25T16:11:35Z</time>
      </trkpt>
      <trkpt lat="49.68541" lon="5.17152">
        <ele>249.2</ele>
        <time>2020-06-25T16:11:36Z</time>
      </trkpt>
      <trkpt lat="49.68544" lon="5.17154">
        <ele>249.3</ele>
        <time>2020-06-25T16:11:37Z</time>
      </trkpt>
      <trkpt lat="49.68546" lon="5.17159">
        <ele>249.5</ele>
        <time>2020-06-25T16:11:38Z</time>
      </trkpt>
      <trkpt lat="49.68547" lon="5.17161">
        <ele>249.6</ele>
        <time>2020-06-25T16:11:39Z</time>
      </trkpt>
      <trkpt lat="49.68549" lon="5.17164">
        <ele>249.8</ele>
        <time>2020-06-25T16:11:40Z</time>
      </trkpt>
      <trkpt lat="49.68552" lon="5.17167">
        <ele>249.9</ele>
        <time>2020-06-25T16:11:41Z</time>
      </trkpt>
      <trkpt lat="49.68553" lon="5.17167">
        <ele>250</ele>
        <time>2020-06-25T16:11:42Z</time>
      </trkpt>
      <trkpt lat="49.68555" lon="5.17172">
        <ele>250.2</ele>
        <time>2020-06-25T16:11:43Z</time>
      </trkpt>
      <trkpt lat="49.68556" lon="5.17173">
        <ele>250.2</ele>
        <time>2020-06-25T16:11:44Z</time>
      </trkpt>
      <trkpt lat="49.68558" lon="5.17177">
        <ele>250.4</ele>
        <time>2020-06-25T16:11:45Z</time>
      </trkpt>
      <trkpt lat="49.68559" lon="5.17178">
        <ele>250.5</ele>
        <time>2020-06-25T16:11:46Z</time>
      </trkpt>
      <trkpt lat="49.68561" lon="5.17182">
        <ele>250.6</ele>
        <time>2020-06-25T16:11:47Z</time>
      </trkpt>
      <trkpt lat="49.68562" lon="5.17185">
        <ele>250.7</ele>
        <time>2020-06-25T16:11:48Z</time>
      </trkpt>
      <trkpt lat="49.68565" lon="5.1719">
        <ele>250.9</ele>
        <time>2020-06-25T16:11:49Z</time>
      </trkpt>
      <trkpt lat="49.68565" lon="5.17192">
        <ele>251</ele>
        <time>2020-06-25T16:11:50Z</time>
      </trkpt>
      <trkpt lat="49.68567" lon="5.17195">
        <ele>251.1</ele>
        <time>2020-06-25T16:11:51Z</time>
      </trkpt>
      <trkpt lat="49.6857" lon="5.17199">
        <ele>251.3</ele>
        <time>2020-06-25T16:11:52Z</time>
      </trkpt>
      <trkpt lat="49.6857" lon="5.17201">
        <ele>251.3</ele>
        <time>2020-06-25T16:11:53Z</time>
      </trkpt>
      <trkpt lat="49.68573" lon="5.17203">
        <ele>251.4</ele>
        <time>2020-06-25T16:11:54Z</time>
      </trkpt>
      <trkpt lat="49.68575" lon="5.17207">
        <ele>251.5</ele>
        <time>2020-06-25T16:11:55Z</time>
      </trkpt>
      <trkpt lat="49.68576" lon="5.17209">
        <ele>251.6</ele>
        <time>2020-06-25T16:11:56Z</time>
      </trkpt>
      <trkpt lat="49.68579" lon="5.17213">
        <ele>251.6</ele>
        <time>2020-06-25T16:11:57Z</time>
      </trkpt>
      <trkpt lat="49.6858" lon="5.17215">
        <ele>251.6</ele>
        <time>2020-06-25T16:11:58Z</time>
      </trkpt>
      <trkpt lat="49.68582" lon="5.17219">
        <ele>251.6</ele>
        <time>2020-06-25T16:11:59Z</time>
      </trkpt>
      <trkpt lat="49.68585" lon="5.17223">
        <ele>251.5</ele>
        <time>2020-06-25T16:12:00Z</time>
      </trkpt>
      <trkpt lat="49.68586" lon="5.17224">
        <ele>251.6</ele>
        <time>2020-06-25T16:12:01Z</time>
      </trkpt>
      <trkpt lat="49.68589" lon="5.17228">
        <ele>251.7</ele>
        <time>2020-06-25T16:12:02Z</time>
      </trkpt>
      <trkpt lat="49.68592" lon="5.17232">
        <ele>251.8</ele>
        <time>2020-06-25T16:12:03Z</time>
      </trkpt>
      <trkpt lat="49.68594" lon="5.17235">
        <ele>251.9</ele>
        <time>2020-06-25T16:12:04Z</time>
      </trkpt>
      <trkpt lat="49.68597" lon="5.1724">
        <ele>252</ele>
        <time>2020-06-25T16:12:05Z</time>
      </trkpt>
      <trkpt lat="49.68598" lon="5.17242">
        <ele>252.1</ele>
        <time>2020-06-25T16:12:06Z</time>
      </trkpt>
      <trkpt lat="49.68601" lon="5.17246">
        <ele>252.2</ele>
        <time>2020-06-25T16:12:07Z</time>
      </trkpt>
      <trkpt lat="49.68603" lon="5.17249">
        <ele>252.3</ele>
        <time>2020-06-25T16:12:08Z</time>
      </trkpt>
      <trkpt lat="49.68605" lon="5.17252">
        <ele>252.4</ele>
        <time>2020-06-25T16:12:09Z</time>
      </trkpt>
      <trkpt lat="49.68608" lon="5.17255">
        <ele>252.5</ele>
        <time>2020-06-25T16:12:10Z</time>
      </trkpt>
      <trkpt lat="49.6861" lon="5.1726">
        <ele>252.6</ele>
        <time>2020-06-25T16:12:11Z</time>
      </trkpt>
      <trkpt lat="49.68614" lon="5.17265">
        <ele>252.7</ele>
        <time>2020-06-25T16:12:12Z</time>
      </trkpt>
      <trkpt lat="49.68617" lon="5.17268">
        <ele>252.8</ele>
        <time>2020-06-25T16:12:13Z</time>
      </trkpt>
      <trkpt lat="49.6862" lon="5.17273">
        <ele>252.9</ele>
        <time>2020-06-25T16:12:14Z</time>
      </trkpt>
      <trkpt lat="49.68623" lon="5.17277">
        <ele>253</ele>
        <time>2020-06-25T16:12:15Z</time>
      </trkpt>
      <trkpt lat="49.68625" lon="5.17281">
        <ele>253.1</ele>
        <time>2020-06-25T16:12:16Z</time>
      </trkpt>
      <trkpt lat="49.68628" lon="5.17284">
        <ele>253.2</ele>
        <time>2020-06-25T16:12:17Z</time>
      </trkpt>
      <trkpt lat="49.6863" lon="5.17288">
        <ele>253.3</ele>
        <time>2020-06-25T16:12:18Z</time>
      </trkpt>
      <trkpt lat="49.68632" lon="5.17292">
        <ele>253.4</ele>
        <time>2020-06-25T16:12:19Z</time>
      </trkpt>
      <trkpt lat="49.68635" lon="5.17295">
        <ele>253.5</ele>
        <time>2020-06-25T16:12:20Z</time>
      </trkpt>
      <trkpt lat="49.68638" lon="5.17299">
        <ele>253.6</ele>
        <time>2020-06-25T16:12:21Z</time>
      </trkpt>
      <trkpt lat="49.6864" lon="5.17302">
        <ele>253.8</ele>
        <time>2020-06-25T16:12:22Z</time>
      </trkpt>
      <trkpt lat="49.68643" lon="5.17305">
        <ele>253.9</ele>
        <time>2020-06-25T16:12:23Z</time>
      </trkpt>
      <trkpt lat="49.68645" lon="5.17308">
        <ele>254</ele>
        <time>2020-06-25T16:12:24Z</time>
      </trkpt>
      <trkpt lat="49.68648" lon="5.17312">
        <ele>254.2</ele>
        <time>2020-06-25T16:12:25Z</time>
      </trkpt>
      <trkpt lat="49.68649" lon="5.17314">
        <ele>254.3</ele>
        <time>2020-06-25T16:12:26Z</time>
      </trkpt>
      <trkpt lat="49.68652" lon="5.17316">
        <ele>254.5</ele>
        <time>2020-06-25T16:12:27Z</time>
      </trkpt>
      <trkpt lat="49.68655" lon="5.17319">
        <ele>254.7</ele>
        <time>2020-06-25T16:12:28Z</time>
      </trkpt>
      <trkpt lat="49.68657" lon="5.17322">
        <ele>254.9</ele>
        <time>2020-06-25T16:12:29Z</time>
      </trkpt>
      <trkpt lat="49.6866" lon="5.17325">
        <ele>255.1</ele>
        <time>2020-06-25T16:12:30Z</time>
      </trkpt>
      <trkpt lat="49.68661" lon="5.17326">
        <ele>255.2</ele>
        <time>2020-06-25T16:12:31Z</time>
      </trkpt>
      <trkpt lat="49.68664" lon="5.17329">
        <ele>255.3</ele>
        <time>2020-06-25T16:12:32Z</time>
      </trkpt>
      <trkpt lat="49.68664" lon="5.1733">
        <ele>255.4</ele>
        <time>2020-06-25T16:12:33Z</time>
      </trkpt>
      <trkpt lat="49.68667" lon="5.17332">
        <ele>255.6</ele>
        <time>2020-06-25T16:12:34Z</time>
      </trkpt>
      <trkpt lat="49.68668" lon="5.17333">
        <ele>255.6</ele>
        <time>2020-06-25T16:12:35Z</time>
      </trkpt>
      <trkpt lat="49.68671" lon="5.17335">
        <ele>255.8</ele>
        <time>2020-06-25T16:12:36Z</time>
      </trkpt>
      <trkpt lat="49.68674" lon="5.17337">
        <ele>256</ele>
        <time>2020-06-25T16:12:37Z</time>
      </trkpt>
      <trkpt lat="49.68677" lon="5.17341">
        <ele>256.2</ele>
        <time>2020-06-25T16:12:38Z</time>
      </trkpt>
      <trkpt lat="49.6868" lon="5.17343">
        <ele>256.3</ele>
        <time>2020-06-25T16:12:39Z</time>
      </trkpt>
      <trkpt lat="49.68684" lon="5.17347">
        <ele>256.5</ele>
        <time>2020-06-25T16:12:40Z</time>
      </trkpt>
      <trkpt lat="49.68687" lon="5.17351">
        <ele>256.7</ele>
        <time>2020-06-25T16:12:41Z</time>
      </trkpt>
      <trkpt lat="49.68691" lon="5.17355">
        <ele>256.9</ele>
        <time>2020-06-25T16:12:42Z</time>
      </trkpt>
      <trkpt lat="49.68693" lon="5.17359">
        <ele>257.1</ele>
        <time>2020-06-25T16:12:43Z</time>
      </trkpt>
      <trkpt lat="49.68696" lon="5.17361">
        <ele>257.2</ele>
        <time>2020-06-25T16:12:44Z</time>
      </trkpt>
      <trkpt lat="49.68699" lon="5.17364">
        <ele>257.3</ele>
        <time>2020-06-25T16:12:45Z</time>
      </trkpt>
      <trkpt lat="49.68701" lon="5.17366">
        <ele>257.4</ele>
        <time>2020-06-25T16:12:46Z</time>
      </trkpt>
      <trkpt lat="49.68704" lon="5.17367">
        <ele>257.5</ele>
        <time>2020-06-25T16:12:47Z</time>
      </trkpt>
      <trkpt lat="49.68707" lon="5.1737">
        <ele>257.6</ele>
        <time>2020-06-25T16:12:48Z</time>
      </trkpt>
      <trkpt lat="49.68711" lon="5.17373">
        <ele>257.7</ele>
        <time>2020-06-25T16:12:49Z</time>
      </trkpt>
      <trkpt lat="49.68715" lon="5.17377">
        <ele>257.9</ele>
        <time>2020-06-25T16:12:50Z</time>
      </trkpt>
      <trkpt lat="49.68718" lon="5.1738">
        <ele>257.9</ele>
        <time>2020-06-25T16:12:51Z</time>
      </trkpt>
      <trkpt lat="49.68722" lon="5.17382">
        <ele>258</ele>
        <time>2020-06-25T16:12:52Z</time>
      </trkpt>
      <trkpt lat="49.68725" lon="5.17385">
        <ele>258.1</ele>
        <time>2020-06-25T16:12:53Z</time>
      </trkpt>
      <trkpt lat="49.68729" lon="5.17389">
        <ele>258.2</ele>
        <time>2020-06-25T16:12:54Z</time>
      </trkpt>
      <trkpt lat="49.68733" lon="5.17392">
        <ele>258.3</ele>
        <time>2020-06-25T16:12:55Z</time>
      </trkpt>
      <trkpt lat="49.68737" lon="5.17396">
        <ele>258.4</ele>
        <time>2020-06-25T16:12:56Z</time>
      </trkpt>
      <trkpt lat="49.6874" lon="5.17398">
        <ele>258.5</ele>
        <time>2020-06-25T16:12:57Z</time>
      </trkpt>
      <trkpt lat="49.68743" lon="5.174">
        <ele>258.6</ele>
        <time>2020-06-25T16:12:58Z</time>
      </trkpt>
      <trkpt lat="49.68746" lon="5.17403">
        <ele>258.7</ele>
        <time>2020-06-25T16:12:59Z</time>
      </trkpt>
      <trkpt lat="49.68749" lon="5.17406">
        <ele>258.8</ele>
        <time>2020-06-25T16:13:00Z</time>
      </trkpt>
      <trkpt lat="49.68751" lon="5.17409">
        <ele>258.8</ele>
        <time>2020-06-25T16:13:01Z</time>
      </trkpt>
      <trkpt lat="49.68754" lon="5.17413">
        <ele>258.9</ele>
        <time>2020-06-25T16:13:02Z</time>
      </trkpt>
      <trkpt lat="49.68758" lon="5.17418">
        <ele>259.1</ele>
        <time>2020-06-25T16:13:03Z</time>
      </trkpt>
      <trkpt lat="49.68761" lon="5.17422">
        <ele>259.2</ele>
        <time>2020-06-25T16:13:04Z</time>
      </trkpt>
      <trkpt lat="49.68764" lon="5.17427">
        <ele>259.4</ele>
        <time>2020-06-25T16:13:05Z</time>
      </trkpt>
      <trkpt lat="49.68767" lon="5.17432">
        <ele>259.6</ele>
        <time>2020-06-25T16:13:06Z</time>
      </trkpt>
      <trkpt lat="49.68769" lon="5.17437">
        <ele>259.8</ele>
        <time>2020-06-25T16:13:07Z</time>
      </trkpt>
      <trkpt lat="49.68773" lon="5.17443">
        <ele>260.1</ele>
        <time>2020-06-25T16:13:08Z</time>
      </trkpt>
      <trkpt lat="49.68777" lon="5.1745">
        <ele>260.3</ele>
        <time>2020-06-25T16:13:09Z</time>
      </trkpt>
      <trkpt lat="49.68781" lon="5.17456">
        <ele>260.6</ele>
        <time>2020-06-25T16:13:10Z</time>
      </trkpt>
      <trkpt lat="49.68784" lon="5.1746">
        <ele>260.9</ele>
        <time>2020-06-25T16:13:11Z</time>
      </trkpt>
      <trkpt lat="49.68787" lon="5.17464">
        <ele>261.1</ele>
        <time>2020-06-25T16:13:12Z</time>
      </trkpt>
      <trkpt lat="49.6879" lon="5.17468">
        <ele>261.3</ele>
        <time>2020-06-25T16:13:13Z</time>
      </trkpt>
      <trkpt lat="49.68791" lon="5.17472">
        <ele>261.5</ele>
        <time>2020-06-25T16:13:14Z</time>
      </trkpt>
      <trkpt lat="49.68794" lon="5.17476">
        <ele>261.7</ele>
        <time>2020-06-25T16:13:15Z</time>
      </trkpt>
      <trkpt lat="49.68797" lon="5.17479">
        <ele>262</ele>
        <time>2020-06-25T16:13:16Z</time>
      </trkpt>
      <trkpt lat="49.688" lon="5.17482">
        <ele>262.2</ele>
        <time>2020-06-25T16:13:17Z</time>
      </trkpt>
      <trkpt lat="49.68801" lon="5.17484">
        <ele>262.3</ele>
        <time>2020-06-25T16:13:18Z</time>
      </trkpt>
      <trkpt lat="49.68803" lon="5.17487">
        <ele>262.6</ele>
        <time>2020-06-25T16:13:19Z</time>
      </trkpt>
      <trkpt lat="49.68806" lon="5.17491">
        <ele>262.8</ele>
        <time>2020-06-25T16:13:20Z</time>
      </trkpt>
      <trkpt lat="49.68808" lon="5.17493">
        <ele>263</ele>
        <time>2020-06-25T16:13:21Z</time>
      </trkpt>
      <trkpt lat="49.68811" lon="5.17497">
        <ele>263.3</ele>
        <time>2020-06-25T16:13:22Z</time>
      </trkpt>
      <trkpt lat="49.68812" lon="5.17498">
        <ele>263.4</ele>
        <time>2020-06-25T16:13:23Z</time>
      </trkpt>
      <trkpt lat="49.68814" lon="5.17503">
        <ele>263.6</ele>
        <time>2020-06-25T16:13:24Z</time>
      </trkpt>
      <trkpt lat="49.68815" lon="5.17505">
        <ele>263.7</ele>
        <time>2020-06-25T16:13:25Z</time>
      </trkpt>
      <trkpt lat="49.68817" lon="5.17508">
        <ele>264</ele>
        <time>2020-06-25T16:13:26Z</time>
      </trkpt>
      <trkpt lat="49.68819" lon="5.17511">
        <ele>264.2</ele>
        <time>2020-06-25T16:13:27Z</time>
      </trkpt>
      <trkpt lat="49.68822" lon="5.17515">
        <ele>264.4</ele>
        <time>2020-06-25T16:13:28Z</time>
      </trkpt>
      <trkpt lat="49.68824" lon="5.17519">
        <ele>264.7</ele>
        <time>2020-06-25T16:13:29Z</time>
      </trkpt>
      <trkpt lat="49.68827" lon="5.17523">
        <ele>264.9</ele>
        <time>2020-06-25T16:13:30Z</time>
      </trkpt>
      <trkpt lat="49.68829" lon="5.17527">
        <ele>265.1</ele>
        <time>2020-06-25T16:13:31Z</time>
      </trkpt>
      <trkpt lat="49.68832" lon="5.1753">
        <ele>265.4</ele>
        <time>2020-06-25T16:13:32Z</time>
      </trkpt>
      <trkpt lat="49.68835" lon="5.17534">
        <ele>265.6</ele>
        <time>2020-06-25T16:13:33Z</time>
      </trkpt>
      <trkpt lat="49.68839" lon="5.17538">
        <ele>265.8</ele>
        <time>2020-06-25T16:13:34Z</time>
      </trkpt>
      <trkpt lat="49.68842" lon="5.17542">
        <ele>266.1</ele>
        <time>2020-06-25T16:13:35Z</time>
      </trkpt>
      <trkpt lat="49.68845" lon="5.17547">
        <ele>266.3</ele>
        <time>2020-06-25T16:13:36Z</time>
      </trkpt>
      <trkpt lat="49.68848" lon="5.17551">
        <ele>266.5</ele>
        <time>2020-06-25T16:13:37Z</time>
      </trkpt>
      <trkpt lat="49.6885" lon="5.17555">
        <ele>266.7</ele>
        <time>2020-06-25T16:13:38Z</time>
      </trkpt>
      <trkpt lat="49.68855" lon="5.1756">
        <ele>267</ele>
        <time>2020-06-25T16:13:39Z</time>
      </trkpt>
      <trkpt lat="49.68858" lon="5.17566">
        <ele>267.2</ele>
        <time>2020-06-25T16:13:40Z</time>
      </trkpt>
      <trkpt lat="49.68861" lon="5.1757">
        <ele>267.4</ele>
        <time>2020-06-25T16:13:41Z</time>
      </trkpt>
      <trkpt lat="49.68864" lon="5.17576">
        <ele>267.5</ele>
        <time>2020-06-25T16:13:42Z</time>
      </trkpt>
      <trkpt lat="49.68867" lon="5.17581">
        <ele>267.7</ele>
        <time>2020-06-25T16:13:43Z</time>
      </trkpt>
      <trkpt lat="49.68869" lon="5.17585">
        <ele>267.8</ele>
        <time>2020-06-25T16:13:44Z</time>
      </trkpt>
      <trkpt lat="49.68872" lon="5.17589">
        <ele>268</ele>
        <time>2020-06-25T16:13:45Z</time>
      </trkpt>
      <trkpt lat="49.68875" lon="5.17593">
        <ele>268.2</ele>
        <time>2020-06-25T16:13:46Z</time>
      </trkpt>
      <trkpt lat="49.68878" lon="5.17596">
        <ele>268.4</ele>
        <time>2020-06-25T16:13:47Z</time>
      </trkpt>
      <trkpt lat="49.68881" lon="5.176">
        <ele>268.6</ele>
        <time>2020-06-25T16:13:48Z</time>
      </trkpt>
      <trkpt lat="49.68884" lon="5.17604">
        <ele>268.7</ele>
        <time>2020-06-25T16:13:49Z</time>
      </trkpt>
      <trkpt lat="49.68887" lon="5.17609">
        <ele>268.9</ele>
        <time>2020-06-25T16:13:50Z</time>
      </trkpt>
      <trkpt lat="49.6889" lon="5.17614">
        <ele>269</ele>
        <time>2020-06-25T16:13:51Z</time>
      </trkpt>
      <trkpt lat="49.68893" lon="5.1762">
        <ele>269.1</ele>
        <time>2020-06-25T16:13:52Z</time>
      </trkpt>
      <trkpt lat="49.68896" lon="5.17625">
        <ele>269.2</ele>
        <time>2020-06-25T16:13:53Z</time>
      </trkpt>
      <trkpt lat="49.68899" lon="5.1763">
        <ele>269.3</ele>
        <time>2020-06-25T16:13:54Z</time>
      </trkpt>
      <trkpt lat="49.68903" lon="5.17636">
        <ele>269.3</ele>
        <time>2020-06-25T16:13:55Z</time>
      </trkpt>
      <trkpt lat="49.68907" lon="5.17639">
        <ele>269.3</ele>
        <time>2020-06-25T16:13:56Z</time>
      </trkpt>
      <trkpt lat="49.68911" lon="5.17641">
        <ele>269.3</ele>
        <time>2020-06-25T16:13:57Z</time>
      </trkpt>
      <trkpt lat="49.68916" lon="5.17644">
        <ele>269.3</ele>
        <time>2020-06-25T16:13:58Z</time>
      </trkpt>
      <trkpt lat="49.6892" lon="5.17647">
        <ele>269.3</ele>
        <time>2020-06-25T16:13:59Z</time>
      </trkpt>
      <trkpt lat="49.68924" lon="5.17652">
        <ele>269.4</ele>
        <time>2020-06-25T16:14:00Z</time>
      </trkpt>
      <trkpt lat="49.68928" lon="5.17657">
        <ele>269.4</ele>
        <time>2020-06-25T16:14:01Z</time>
      </trkpt>
      <trkpt lat="49.68932" lon="5.17663">
        <ele>269.4</ele>
        <time>2020-06-25T16:14:02Z</time>
      </trkpt>
      <trkpt lat="49.68936" lon="5.17669">
        <ele>269.4</ele>
        <time>2020-06-25T16:14:03Z</time>
      </trkpt>
      <trkpt lat="49.6894" lon="5.17676">
        <ele>269.4</ele>
        <time>2020-06-25T16:14:04Z</time>
      </trkpt>
      <trkpt lat="49.68944" lon="5.17683">
        <ele>269.3</ele>
        <time>2020-06-25T16:14:05Z</time>
      </trkpt>
      <trkpt lat="49.68948" lon="5.1769">
        <ele>269.3</ele>
        <time>2020-06-25T16:14:06Z</time>
      </trkpt>
      <trkpt lat="49.68953" lon="5.17695">
        <ele>269.3</ele>
        <time>2020-06-25T16:14:07Z</time>
      </trkpt>
      <trkpt lat="49.68956" lon="5.177">
        <ele>269.3</ele>
        <time>2020-06-25T16:14:08Z</time>
      </trkpt>
      <trkpt lat="49.68959" lon="5.17706">
        <ele>269.2</ele>
        <time>2020-06-25T16:14:09Z</time>
      </trkpt>
      <trkpt lat="49.68964" lon="5.17712">
        <ele>269.2</ele>
        <time>2020-06-25T16:14:10Z</time>
      </trkpt>
      <trkpt lat="49.68968" lon="5.17718">
        <ele>269.2</ele>
        <time>2020-06-25T16:14:11Z</time>
      </trkpt>
      <trkpt lat="49.68973" lon="5.17725">
        <ele>269.2</ele>
        <time>2020-06-25T16:14:12Z</time>
      </trkpt>
      <trkpt lat="49.68978" lon="5.17734">
        <ele>269.1</ele>
        <time>2020-06-25T16:14:13Z</time>
      </trkpt>
      <trkpt lat="49.68983" lon="5.1774">
        <ele>269.1</ele>
        <time>2020-06-25T16:14:14Z</time>
      </trkpt>
      <trkpt lat="49.68988" lon="5.17747">
        <ele>269</ele>
        <time>2020-06-25T16:14:15Z</time>
      </trkpt>
      <trkpt lat="49.68992" lon="5.17754">
        <ele>269</ele>
        <time>2020-06-25T16:14:16Z</time>
      </trkpt>
      <trkpt lat="49.68996" lon="5.17762">
        <ele>269</ele>
        <time>2020-06-25T16:14:17Z</time>
      </trkpt>
      <trkpt lat="49.69" lon="5.17769">
        <ele>269.1</ele>
        <time>2020-06-25T16:14:18Z</time>
      </trkpt>
      <trkpt lat="49.69004" lon="5.17776">
        <ele>269.1</ele>
        <time>2020-06-25T16:14:19Z</time>
      </trkpt>
      <trkpt lat="49.69008" lon="5.17782">
        <ele>269.2</ele>
        <time>2020-06-25T16:14:20Z</time>
      </trkpt>
      <trkpt lat="49.69013" lon="5.17789">
        <ele>269.2</ele>
        <time>2020-06-25T16:14:21Z</time>
      </trkpt>
      <trkpt lat="49.69016" lon="5.17797">
        <ele>269.2</ele>
        <time>2020-06-25T16:14:22Z</time>
      </trkpt>
      <trkpt lat="49.6902" lon="5.17804">
        <ele>269.2</ele>
        <time>2020-06-25T16:14:23Z</time>
      </trkpt>
      <trkpt lat="49.69024" lon="5.17811">
        <ele>269.2</ele>
        <time>2020-06-25T16:14:24Z</time>
      </trkpt>
      <trkpt lat="49.69028" lon="5.17819">
        <ele>269.2</ele>
        <time>2020-06-25T16:14:25Z</time>
      </trkpt>
      <trkpt lat="49.69033" lon="5.17825">
        <ele>269.2</ele>
        <time>2020-06-25T16:14:26Z</time>
      </trkpt>
      <trkpt lat="49.69036" lon="5.17833">
        <ele>269.3</ele>
        <time>2020-06-25T16:14:27Z</time>
      </trkpt>
      <trkpt lat="49.69041" lon="5.1784">
        <ele>269.3</ele>
        <time>2020-06-25T16:14:28Z</time>
      </trkpt>
      <trkpt lat="49.69044" lon="5.17845">
        <ele>269.3</ele>
        <time>2020-06-25T16:14:29Z</time>
      </trkpt>
      <trkpt lat="49.69047" lon="5.17852">
        <ele>269.3</ele>
        <time>2020-06-25T16:14:30Z</time>
      </trkpt>
      <trkpt lat="49.6905" lon="5.17857">
        <ele>269.4</ele>
        <time>2020-06-25T16:14:31Z</time>
      </trkpt>
      <trkpt lat="49.69053" lon="5.17863">
        <ele>269.4</ele>
        <time>2020-06-25T16:14:32Z</time>
      </trkpt>
      <trkpt lat="49.69057" lon="5.1787">
        <ele>269.5</ele>
        <time>2020-06-25T16:14:33Z</time>
      </trkpt>
      <trkpt lat="49.69061" lon="5.17878">
        <ele>269.6</ele>
        <time>2020-06-25T16:14:34Z</time>
      </trkpt>
      <trkpt lat="49.69065" lon="5.17885">
        <ele>269.6</ele>
        <time>2020-06-25T16:14:35Z</time>
      </trkpt>
      <trkpt lat="49.69069" lon="5.17893">
        <ele>269.7</ele>
        <time>2020-06-25T16:14:36Z</time>
      </trkpt>
      <trkpt lat="49.69072" lon="5.17901">
        <ele>269.7</ele>
        <time>2020-06-25T16:14:37Z</time>
      </trkpt>
      <trkpt lat="49.69076" lon="5.17908">
        <ele>269.8</ele>
        <time>2020-06-25T16:14:38Z</time>
      </trkpt>
      <trkpt lat="49.6908" lon="5.17915">
        <ele>269.9</ele>
        <time>2020-06-25T16:14:39Z</time>
      </trkpt>
      <trkpt lat="49.69083" lon="5.1792">
        <ele>270</ele>
        <time>2020-06-25T16:14:40Z</time>
      </trkpt>
      <trkpt lat="49.69084" lon="5.17926">
        <ele>270.1</ele>
        <time>2020-06-25T16:14:41Z</time>
      </trkpt>
      <trkpt lat="49.69086" lon="5.17932">
        <ele>270.1</ele>
        <time>2020-06-25T16:14:42Z</time>
      </trkpt>
      <trkpt lat="49.69088" lon="5.17939">
        <ele>270.2</ele>
        <time>2020-06-25T16:14:43Z</time>
      </trkpt>
      <trkpt lat="49.6909" lon="5.17945">
        <ele>270.3</ele>
        <time>2020-06-25T16:14:44Z</time>
      </trkpt>
      <trkpt lat="49.6909" lon="5.17949">
        <ele>270.3</ele>
        <time>2020-06-25T16:14:45Z</time>
      </trkpt>
      <trkpt lat="49.69091" lon="5.17955">
        <ele>270.4</ele>
        <time>2020-06-25T16:14:46Z</time>
      </trkpt>
      <trkpt lat="49.69091" lon="5.17961">
        <ele>270.4</ele>
        <time>2020-06-25T16:14:47Z</time>
      </trkpt>
      <trkpt lat="49.69091" lon="5.17966">
        <ele>270.5</ele>
        <time>2020-06-25T16:14:48Z</time>
      </trkpt>
      <trkpt lat="49.69093" lon="5.17971">
        <ele>270.5</ele>
        <time>2020-06-25T16:14:49Z</time>
      </trkpt>
      <trkpt lat="49.69095" lon="5.17975">
        <ele>270.6</ele>
        <time>2020-06-25T16:14:50Z</time>
      </trkpt>
      <trkpt lat="49.69097" lon="5.17981">
        <ele>270.6</ele>
        <time>2020-06-25T16:14:51Z</time>
      </trkpt>
      <trkpt lat="49.691" lon="5.17987">
        <ele>270.7</ele>
        <time>2020-06-25T16:14:52Z</time>
      </trkpt>
      <trkpt lat="49.69103" lon="5.17993">
        <ele>270.7</ele>
        <time>2020-06-25T16:14:53Z</time>
      </trkpt>
      <trkpt lat="49.69106" lon="5.18001">
        <ele>270.8</ele>
        <time>2020-06-25T16:14:54Z</time>
      </trkpt>
      <trkpt lat="49.69108" lon="5.18008">
        <ele>270.9</ele>
        <time>2020-06-25T16:14:55Z</time>
      </trkpt>
      <trkpt lat="49.6911" lon="5.18016">
        <ele>271</ele>
        <time>2020-06-25T16:14:56Z</time>
      </trkpt>
      <trkpt lat="49.69112" lon="5.18024">
        <ele>271.1</ele>
        <time>2020-06-25T16:14:57Z</time>
      </trkpt>
      <trkpt lat="49.69115" lon="5.18031">
        <ele>271.2</ele>
        <time>2020-06-25T16:14:58Z</time>
      </trkpt>
      <trkpt lat="49.69117" lon="5.18038">
        <ele>271.3</ele>
        <time>2020-06-25T16:14:59Z</time>
      </trkpt>
      <trkpt lat="49.6912" lon="5.18045">
        <ele>271.4</ele>
        <time>2020-06-25T16:15:00Z</time>
      </trkpt>
      <trkpt lat="49.69121" lon="5.18051">
        <ele>271.5</ele>
        <time>2020-06-25T16:15:01Z</time>
      </trkpt>
      <trkpt lat="49.69124" lon="5.18056">
        <ele>271.6</ele>
        <time>2020-06-25T16:15:02Z</time>
      </trkpt>
      <trkpt lat="49.69126" lon="5.18062">
        <ele>271.7</ele>
        <time>2020-06-25T16:15:03Z</time>
      </trkpt>
      <trkpt lat="49.69128" lon="5.1807">
        <ele>271.9</ele>
        <time>2020-06-25T16:15:04Z</time>
      </trkpt>
      <trkpt lat="49.6913" lon="5.18079">
        <ele>272</ele>
        <time>2020-06-25T16:15:05Z</time>
      </trkpt>
      <trkpt lat="49.69132" lon="5.18087">
        <ele>272.1</ele>
        <time>2020-06-25T16:15:06Z</time>
      </trkpt>
      <trkpt lat="49.69133" lon="5.18093">
        <ele>272.2</ele>
        <time>2020-06-25T16:15:07Z</time>
      </trkpt>
      <trkpt lat="49.69134" lon="5.18099">
        <ele>272.3</ele>
        <time>2020-06-25T16:15:08Z</time>
      </trkpt>
      <trkpt lat="49.69137" lon="5.18105">
        <ele>272.5</ele>
        <time>2020-06-25T16:15:09Z</time>
      </trkpt>
      <trkpt lat="49.69138" lon="5.1811">
        <ele>272.6</ele>
        <time>2020-06-25T16:15:10Z</time>
      </trkpt>
      <trkpt lat="49.69139" lon="5.18116">
        <ele>272.7</ele>
        <time>2020-06-25T16:15:11Z</time>
      </trkpt>
      <trkpt lat="49.69141" lon="5.18121">
        <ele>272.9</ele>
        <time>2020-06-25T16:15:12Z</time>
      </trkpt>
      <trkpt lat="49.69142" lon="5.18127">
        <ele>273</ele>
        <time>2020-06-25T16:15:13Z</time>
      </trkpt>
      <trkpt lat="49.69144" lon="5.18133">
        <ele>273.1</ele>
        <time>2020-06-25T16:15:14Z</time>
      </trkpt>
      <trkpt lat="49.69146" lon="5.18139">
        <ele>273.2</ele>
        <time>2020-06-25T16:15:15Z</time>
      </trkpt>
      <trkpt lat="49.69147" lon="5.18145">
        <ele>273.4</ele>
        <time>2020-06-25T16:15:16Z</time>
      </trkpt>
      <trkpt lat="49.69148" lon="5.18151">
        <ele>273.5</ele>
        <time>2020-06-25T16:15:17Z</time>
      </trkpt>
      <trkpt lat="49.6915" lon="5.18157">
        <ele>273.7</ele>
        <time>2020-06-25T16:15:18Z</time>
      </trkpt>
      <trkpt lat="49.69151" lon="5.18163">
        <ele>273.8</ele>
        <time>2020-06-25T16:15:19Z</time>
      </trkpt>
      <trkpt lat="49.69153" lon="5.18168">
        <ele>274</ele>
        <time>2020-06-25T16:15:20Z</time>
      </trkpt>
      <trkpt lat="49.69155" lon="5.18174">
        <ele>274.2</ele>
        <time>2020-06-25T16:15:21Z</time>
      </trkpt>
      <trkpt lat="49.69158" lon="5.18181">
        <ele>274.4</ele>
        <time>2020-06-25T16:15:22Z</time>
      </trkpt>
      <trkpt lat="49.69158" lon="5.18187">
        <ele>274.6</ele>
        <time>2020-06-25T16:15:23Z</time>
      </trkpt>
      <trkpt lat="49.69159" lon="5.18193">
        <ele>274.9</ele>
        <time>2020-06-25T16:15:24Z</time>
      </trkpt>
      <trkpt lat="49.6916" lon="5.18199">
        <ele>275</ele>
        <time>2020-06-25T16:15:25Z</time>
      </trkpt>
      <trkpt lat="49.69161" lon="5.18205">
        <ele>275.2</ele>
        <time>2020-06-25T16:15:26Z</time>
      </trkpt>
      <trkpt lat="49.69164" lon="5.18214">
        <ele>275.3</ele>
        <time>2020-06-25T16:15:27Z</time>
      </trkpt>
      <trkpt lat="49.69167" lon="5.1822">
        <ele>275.4</ele>
        <time>2020-06-25T16:15:28Z</time>
      </trkpt>
      <trkpt lat="49.69169" lon="5.18226">
        <ele>275.5</ele>
        <time>2020-06-25T16:15:29Z</time>
      </trkpt>
      <trkpt lat="49.69171" lon="5.18233">
        <ele>275.6</ele>
        <time>2020-06-25T16:15:30Z</time>
      </trkpt>
      <trkpt lat="49.69172" lon="5.18239">
        <ele>275.7</ele>
        <time>2020-06-25T16:15:31Z</time>
      </trkpt>
      <trkpt lat="49.69174" lon="5.18244">
        <ele>275.8</ele>
        <time>2020-06-25T16:15:32Z</time>
      </trkpt>
      <trkpt lat="49.69175" lon="5.1825">
        <ele>275.9</ele>
        <time>2020-06-25T16:15:33Z</time>
      </trkpt>
      <trkpt lat="49.69176" lon="5.18257">
        <ele>276.1</ele>
        <time>2020-06-25T16:15:34Z</time>
      </trkpt>
      <trkpt lat="49.69177" lon="5.18263">
        <ele>276.2</ele>
        <time>2020-06-25T16:15:35Z</time>
      </trkpt>
      <trkpt lat="49.69178" lon="5.18268">
        <ele>276.2</ele>
        <time>2020-06-25T16:15:36Z</time>
      </trkpt>
      <trkpt lat="49.69178" lon="5.18274">
        <ele>276.4</ele>
        <time>2020-06-25T16:15:37Z</time>
      </trkpt>
      <trkpt lat="49.69179" lon="5.18281">
        <ele>276.5</ele>
        <time>2020-06-25T16:15:38Z</time>
      </trkpt>
      <trkpt lat="49.6918" lon="5.18288">
        <ele>276.6</ele>
        <time>2020-06-25T16:15:39Z</time>
      </trkpt>
      <trkpt lat="49.69181" lon="5.18295">
        <ele>276.8</ele>
        <time>2020-06-25T16:15:40Z</time>
      </trkpt>
      <trkpt lat="49.69182" lon="5.18303">
        <ele>276.9</ele>
        <time>2020-06-25T16:15:41Z</time>
      </trkpt>
      <trkpt lat="49.69184" lon="5.18309">
        <ele>277</ele>
        <time>2020-06-25T16:15:42Z</time>
      </trkpt>
      <trkpt lat="49.69186" lon="5.18317">
        <ele>277.2</ele>
        <time>2020-06-25T16:15:43Z</time>
      </trkpt>
      <trkpt lat="49.69188" lon="5.18325">
        <ele>277.3</ele>
        <time>2020-06-25T16:15:44Z</time>
      </trkpt>
      <trkpt lat="49.6919" lon="5.18332">
        <ele>277.5</ele>
        <time>2020-06-25T16:15:45Z</time>
      </trkpt>
      <trkpt lat="49.69192" lon="5.18339">
        <ele>277.6</ele>
        <time>2020-06-25T16:15:46Z</time>
      </trkpt>
      <trkpt lat="49.69194" lon="5.18346">
        <ele>277.7</ele>
        <time>2020-06-25T16:15:47Z</time>
      </trkpt>
      <trkpt lat="49.69194" lon="5.18353">
        <ele>277.8</ele>
        <time>2020-06-25T16:15:48Z</time>
      </trkpt>
      <trkpt lat="49.69195" lon="5.18361">
        <ele>277.9</ele>
        <time>2020-06-25T16:15:49Z</time>
      </trkpt>
      <trkpt lat="49.69196" lon="5.1837">
        <ele>278</ele>
        <time>2020-06-25T16:15:50Z</time>
      </trkpt>
      <trkpt lat="49.69197" lon="5.18377">
        <ele>278.1</ele>
        <time>2020-06-25T16:15:51Z</time>
      </trkpt>
      <trkpt lat="49.69198" lon="5.18383">
        <ele>278.1</ele>
        <time>2020-06-25T16:15:52Z</time>
      </trkpt>
      <trkpt lat="49.69199" lon="5.18389">
        <ele>278.2</ele>
        <time>2020-06-25T16:15:53Z</time>
      </trkpt>
      <trkpt lat="49.692" lon="5.18398">
        <ele>278.2</ele>
        <time>2020-06-25T16:15:54Z</time>
      </trkpt>
      <trkpt lat="49.69202" lon="5.18405">
        <ele>278.3</ele>
        <time>2020-06-25T16:15:55Z</time>
      </trkpt>
      <trkpt lat="49.69203" lon="5.18411">
        <ele>278.3</ele>
        <time>2020-06-25T16:15:56Z</time>
      </trkpt>
      <trkpt lat="49.69204" lon="5.18419">
        <ele>278.3</ele>
        <time>2020-06-25T16:15:57Z</time>
      </trkpt>
      <trkpt lat="49.69205" lon="5.18424">
        <ele>278.3</ele>
        <time>2020-06-25T16:15:58Z</time>
      </trkpt>
      <trkpt lat="49.69206" lon="5.18432">
        <ele>278.4</ele>
        <time>2020-06-25T16:15:59Z</time>
      </trkpt>
      <trkpt lat="49.69207" lon="5.18439">
        <ele>278.4</ele>
        <time>2020-06-25T16:16:00Z</time>
      </trkpt>
      <trkpt lat="49.69208" lon="5.18447">
        <ele>278.4</ele>
        <time>2020-06-25T16:16:01Z</time>
      </trkpt>
      <trkpt lat="49.6921" lon="5.18455">
        <ele>278.4</ele>
        <time>2020-06-25T16:16:02Z</time>
      </trkpt>
      <trkpt lat="49.69211" lon="5.18462">
        <ele>278.5</ele>
        <time>2020-06-25T16:16:03Z</time>
      </trkpt>
      <trkpt lat="49.69212" lon="5.18469">
        <ele>278.5</ele>
        <time>2020-06-25T16:16:04Z</time>
      </trkpt>
      <trkpt lat="49.69213" lon="5.18475">
        <ele>278.5</ele>
        <time>2020-06-25T16:16:05Z</time>
      </trkpt>
      <trkpt lat="49.69214" lon="5.18482">
        <ele>278.6</ele>
        <time>2020-06-25T16:16:06Z</time>
      </trkpt>
      <trkpt lat="49.69215" lon="5.1849">
        <ele>278.6</ele>
        <time>2020-06-25T16:16:07Z</time>
      </trkpt>
      <trkpt lat="49.69216" lon="5.18497">
        <ele>278.6</ele>
        <time>2020-06-25T16:16:08Z</time>
      </trkpt>
      <trkpt lat="49.69217" lon="5.18506">
        <ele>278.6</ele>
        <time>2020-06-25T16:16:09Z</time>
      </trkpt>
      <trkpt lat="49.69218" lon="5.18512">
        <ele>278.7</ele>
        <time>2020-06-25T16:16:10Z</time>
      </trkpt>
      <trkpt lat="49.6922" lon="5.1852">
        <ele>278.8</ele>
        <time>2020-06-25T16:16:11Z</time>
      </trkpt>
      <trkpt lat="49.69221" lon="5.18528">
        <ele>278.9</ele>
        <time>2020-06-25T16:16:12Z</time>
      </trkpt>
      <trkpt lat="49.69222" lon="5.18535">
        <ele>279</ele>
        <time>2020-06-25T16:16:13Z</time>
      </trkpt>
      <trkpt lat="49.69223" lon="5.18543">
        <ele>279.1</ele>
        <time>2020-06-25T16:16:14Z</time>
      </trkpt>
      <trkpt lat="49.69224" lon="5.18551">
        <ele>279.1</ele>
        <time>2020-06-25T16:16:15Z</time>
      </trkpt>
      <trkpt lat="49.69225" lon="5.18558">
        <ele>279.1</ele>
        <time>2020-06-25T16:16:16Z</time>
      </trkpt>
      <trkpt lat="49.69226" lon="5.18566">
        <ele>279.2</ele>
        <time>2020-06-25T16:16:17Z</time>
      </trkpt>
      <trkpt lat="49.69227" lon="5.18573">
        <ele>279.2</ele>
        <time>2020-06-25T16:16:18Z</time>
      </trkpt>
      <trkpt lat="49.69228" lon="5.1858">
        <ele>279.2</ele>
        <time>2020-06-25T16:16:19Z</time>
      </trkpt>
      <trkpt lat="49.6923" lon="5.18588">
        <ele>279.2</ele>
        <time>2020-06-25T16:16:20Z</time>
      </trkpt>
      <trkpt lat="49.69232" lon="5.18595">
        <ele>279.3</ele>
        <time>2020-06-25T16:16:21Z</time>
      </trkpt>
      <trkpt lat="49.69233" lon="5.18603">
        <ele>279.2</ele>
        <time>2020-06-25T16:16:22Z</time>
      </trkpt>
      <trkpt lat="49.69234" lon="5.1861">
        <ele>279.2</ele>
        <time>2020-06-25T16:16:23Z</time>
      </trkpt>
      <trkpt lat="49.69235" lon="5.18616">
        <ele>279.2</ele>
        <time>2020-06-25T16:16:24Z</time>
      </trkpt>
      <trkpt lat="49.69236" lon="5.18623">
        <ele>279.2</ele>
        <time>2020-06-25T16:16:25Z</time>
      </trkpt>
      <trkpt lat="49.69237" lon="5.1863">
        <ele>279.2</ele>
        <time>2020-06-25T16:16:26Z</time>
      </trkpt>
      <trkpt lat="49.69239" lon="5.18636">
        <ele>279.3</ele>
        <time>2020-06-25T16:16:27Z</time>
      </trkpt>
      <trkpt lat="49.6924" lon="5.18643">
        <ele>279.3</ele>
        <time>2020-06-25T16:16:28Z</time>
      </trkpt>
      <trkpt lat="49.69241" lon="5.18649">
        <ele>279.4</ele>
        <time>2020-06-25T16:16:29Z</time>
      </trkpt>
      <trkpt lat="49.69243" lon="5.18656">
        <ele>279.4</ele>
        <time>2020-06-25T16:16:30Z</time>
      </trkpt>
      <trkpt lat="49.69244" lon="5.18663">
        <ele>279.4</ele>
        <time>2020-06-25T16:16:31Z</time>
      </trkpt>
      <trkpt lat="49.69246" lon="5.18671">
        <ele>279.5</ele>
        <time>2020-06-25T16:16:32Z</time>
      </trkpt>
      <trkpt lat="49.69247" lon="5.18676">
        <ele>279.5</ele>
        <time>2020-06-25T16:16:33Z</time>
      </trkpt>
      <trkpt lat="49.69248" lon="5.18682">
        <ele>279.5</ele>
        <time>2020-06-25T16:16:34Z</time>
      </trkpt>
      <trkpt lat="49.69249" lon="5.18689">
        <ele>279.5</ele>
        <time>2020-06-25T16:16:35Z</time>
      </trkpt>
      <trkpt lat="49.6925" lon="5.18696">
        <ele>279.5</ele>
        <time>2020-06-25T16:16:36Z</time>
      </trkpt>
      <trkpt lat="49.69252" lon="5.18702">
        <ele>279.5</ele>
        <time>2020-06-25T16:16:37Z</time>
      </trkpt>
      <trkpt lat="49.69253" lon="5.18708">
        <ele>279.6</ele>
        <time>2020-06-25T16:16:38Z</time>
      </trkpt>
      <trkpt lat="49.69254" lon="5.18715">
        <ele>279.6</ele>
        <time>2020-06-25T16:16:39Z</time>
      </trkpt>
      <trkpt lat="49.69255" lon="5.1872">
        <ele>279.6</ele>
        <time>2020-06-25T16:16:40Z</time>
      </trkpt>
      <trkpt lat="49.69255" lon="5.18727">
        <ele>279.6</ele>
        <time>2020-06-25T16:16:41Z</time>
      </trkpt>
      <trkpt lat="49.69256" lon="5.18734">
        <ele>279.7</ele>
        <time>2020-06-25T16:16:42Z</time>
      </trkpt>
      <trkpt lat="49.69257" lon="5.18742">
        <ele>279.7</ele>
        <time>2020-06-25T16:16:43Z</time>
      </trkpt>
      <trkpt lat="49.69259" lon="5.18751">
        <ele>279.7</ele>
        <time>2020-06-25T16:16:44Z</time>
      </trkpt>
      <trkpt lat="49.69262" lon="5.18761">
        <ele>279.7</ele>
        <time>2020-06-25T16:16:45Z</time>
      </trkpt>
      <trkpt lat="49.69264" lon="5.18769">
        <ele>279.7</ele>
        <time>2020-06-25T16:16:46Z</time>
      </trkpt>
      <trkpt lat="49.69267" lon="5.18776">
        <ele>279.7</ele>
        <time>2020-06-25T16:16:47Z</time>
      </trkpt>
      <trkpt lat="49.6927" lon="5.18783">
        <ele>279.7</ele>
        <time>2020-06-25T16:16:48Z</time>
      </trkpt>
      <trkpt lat="49.69273" lon="5.1879">
        <ele>279.7</ele>
        <time>2020-06-25T16:16:49Z</time>
      </trkpt>
      <trkpt lat="49.69276" lon="5.18797">
        <ele>279.7</ele>
        <time>2020-06-25T16:16:50Z</time>
      </trkpt>
      <trkpt lat="49.69279" lon="5.18805">
        <ele>279.8</ele>
        <time>2020-06-25T16:16:51Z</time>
      </trkpt>
      <trkpt lat="49.69283" lon="5.18812">
        <ele>279.8</ele>
        <time>2020-06-25T16:16:52Z</time>
      </trkpt>
      <trkpt lat="49.69286" lon="5.18819">
        <ele>279.9</ele>
        <time>2020-06-25T16:16:53Z</time>
      </trkpt>
      <trkpt lat="49.69289" lon="5.18826">
        <ele>279.9</ele>
        <time>2020-06-25T16:16:54Z</time>
      </trkpt>
      <trkpt lat="49.69291" lon="5.18833">
        <ele>279.9</ele>
        <time>2020-06-25T16:16:55Z</time>
      </trkpt>
      <trkpt lat="49.69294" lon="5.1884">
        <ele>279.9</ele>
        <time>2020-06-25T16:16:56Z</time>
      </trkpt>
      <trkpt lat="49.69297" lon="5.18846">
        <ele>279.8</ele>
        <time>2020-06-25T16:16:57Z</time>
      </trkpt>
      <trkpt lat="49.69299" lon="5.18852">
        <ele>279.7</ele>
        <time>2020-06-25T16:16:58Z</time>
      </trkpt>
      <trkpt lat="49.69301" lon="5.18858">
        <ele>279.7</ele>
        <time>2020-06-25T16:16:59Z</time>
      </trkpt>
      <trkpt lat="49.69303" lon="5.18865">
        <ele>279.7</ele>
        <time>2020-06-25T16:17:00Z</time>
      </trkpt>
      <trkpt lat="49.69306" lon="5.18873">
        <ele>279.7</ele>
        <time>2020-06-25T16:17:01Z</time>
      </trkpt>
      <trkpt lat="49.69307" lon="5.18879">
        <ele>279.8</ele>
        <time>2020-06-25T16:17:02Z</time>
      </trkpt>
      <trkpt lat="49.69309" lon="5.18885">
        <ele>279.9</ele>
        <time>2020-06-25T16:17:03Z</time>
      </trkpt>
      <trkpt lat="49.69311" lon="5.18892">
        <ele>280</ele>
        <time>2020-06-25T16:17:04Z</time>
      </trkpt>
      <trkpt lat="49.69313" lon="5.18899">
        <ele>280.1</ele>
        <time>2020-06-25T16:17:05Z</time>
      </trkpt>
      <trkpt lat="49.69316" lon="5.18907">
        <ele>280.2</ele>
        <time>2020-06-25T16:17:06Z</time>
      </trkpt>
      <trkpt lat="49.69318" lon="5.18914">
        <ele>280.2</ele>
        <time>2020-06-25T16:17:07Z</time>
      </trkpt>
      <trkpt lat="49.69321" lon="5.18923">
        <ele>280.3</ele>
        <time>2020-06-25T16:17:08Z</time>
      </trkpt>
      <trkpt lat="49.69323" lon="5.1893">
        <ele>280.4</ele>
        <time>2020-06-25T16:17:09Z</time>
      </trkpt>
      <trkpt lat="49.69326" lon="5.18936">
        <ele>280.5</ele>
        <time>2020-06-25T16:17:10Z</time>
      </trkpt>
      <trkpt lat="49.6933" lon="5.18943">
        <ele>280.6</ele>
        <time>2020-06-25T16:17:11Z</time>
      </trkpt>
      <trkpt lat="49.69333" lon="5.18949">
        <ele>280.6</ele>
        <time>2020-06-25T16:17:12Z</time>
      </trkpt>
      <trkpt lat="49.69336" lon="5.18955">
        <ele>280.7</ele>
        <time>2020-06-25T16:17:13Z</time>
      </trkpt>
      <trkpt lat="49.69338" lon="5.18959">
        <ele>280.7</ele>
        <time>2020-06-25T16:17:14Z</time>
      </trkpt>
      <trkpt lat="49.6934" lon="5.18963">
        <ele>280.8</ele>
        <time>2020-06-25T16:17:15Z</time>
      </trkpt>
      <trkpt lat="49.69342" lon="5.18969">
        <ele>280.8</ele>
        <time>2020-06-25T16:17:16Z</time>
      </trkpt>
      <trkpt lat="49.69345" lon="5.18975">
        <ele>280.9</ele>
        <time>2020-06-25T16:17:17Z</time>
      </trkpt>
      <trkpt lat="49.69348" lon="5.18983">
        <ele>281</ele>
        <time>2020-06-25T16:17:18Z</time>
      </trkpt>
      <trkpt lat="49.69351" lon="5.1899">
        <ele>281.1</ele>
        <time>2020-06-25T16:17:19Z</time>
      </trkpt>
      <trkpt lat="49.69355" lon="5.18996">
        <ele>281.1</ele>
        <time>2020-06-25T16:17:20Z</time>
      </trkpt>
      <trkpt lat="49.69359" lon="5.19001">
        <ele>281.2</ele>
        <time>2020-06-25T16:17:21Z</time>
      </trkpt>
      <trkpt lat="49.69363" lon="5.19007">
        <ele>281.3</ele>
        <time>2020-06-25T16:17:22Z</time>
      </trkpt>
      <trkpt lat="49.69367" lon="5.19012">
        <ele>281.4</ele>
        <time>2020-06-25T16:17:23Z</time>
      </trkpt>
      <trkpt lat="49.6937" lon="5.19018">
        <ele>281.4</ele>
        <time>2020-06-25T16:17:24Z</time>
      </trkpt>
      <trkpt lat="49.69373" lon="5.19022">
        <ele>281.5</ele>
        <time>2020-06-25T16:17:25Z</time>
      </trkpt>
      <trkpt lat="49.69376" lon="5.19026">
        <ele>281.5</ele>
        <time>2020-06-25T16:17:26Z</time>
      </trkpt>
      <trkpt lat="49.69379" lon="5.19031">
        <ele>281.6</ele>
        <time>2020-06-25T16:17:27Z</time>
      </trkpt>
      <trkpt lat="49.69383" lon="5.19035">
        <ele>281.7</ele>
        <time>2020-06-25T16:17:28Z</time>
      </trkpt>
      <trkpt lat="49.69386" lon="5.19039">
        <ele>281.8</ele>
        <time>2020-06-25T16:17:29Z</time>
      </trkpt>
      <trkpt lat="49.69389" lon="5.19044">
        <ele>281.8</ele>
        <time>2020-06-25T16:17:30Z</time>
      </trkpt>
      <trkpt lat="49.69392" lon="5.1905">
        <ele>281.9</ele>
        <time>2020-06-25T16:17:31Z</time>
      </trkpt>
      <trkpt lat="49.69396" lon="5.19056">
        <ele>282.1</ele>
        <time>2020-06-25T16:17:32Z</time>
      </trkpt>
      <trkpt lat="49.69399" lon="5.19062">
        <ele>282.2</ele>
        <time>2020-06-25T16:17:33Z</time>
      </trkpt>
      <trkpt lat="49.69401" lon="5.19068">
        <ele>282.3</ele>
        <time>2020-06-25T16:17:34Z</time>
      </trkpt>
      <trkpt lat="49.69404" lon="5.19073">
        <ele>282.4</ele>
        <time>2020-06-25T16:17:35Z</time>
      </trkpt>
      <trkpt lat="49.69407" lon="5.19079">
        <ele>282.5</ele>
        <time>2020-06-25T16:17:36Z</time>
      </trkpt>
      <trkpt lat="49.69409" lon="5.19085">
        <ele>282.7</ele>
        <time>2020-06-25T16:17:37Z</time>
      </trkpt>
      <trkpt lat="49.69413" lon="5.19091">
        <ele>282.8</ele>
        <time>2020-06-25T16:17:38Z</time>
      </trkpt>
      <trkpt lat="49.69416" lon="5.19096">
        <ele>282.9</ele>
        <time>2020-06-25T16:17:39Z</time>
      </trkpt>
      <trkpt lat="49.69418" lon="5.19101">
        <ele>283</ele>
        <time>2020-06-25T16:17:40Z</time>
      </trkpt>
      <trkpt lat="49.69421" lon="5.19106">
        <ele>283.2</ele>
        <time>2020-06-25T16:17:41Z</time>
      </trkpt>
      <trkpt lat="49.69425" lon="5.19112">
        <ele>283.3</ele>
        <time>2020-06-25T16:17:42Z</time>
      </trkpt>
      <trkpt lat="49.69428" lon="5.19117">
        <ele>283.5</ele>
        <time>2020-06-25T16:17:43Z</time>
      </trkpt>
      <trkpt lat="49.69431" lon="5.19123">
        <ele>283.6</ele>
        <time>2020-06-25T16:17:44Z</time>
      </trkpt>
      <trkpt lat="49.69434" lon="5.19129">
        <ele>283.8</ele>
        <time>2020-06-25T16:17:45Z</time>
      </trkpt>
      <trkpt lat="49.69437" lon="5.19135">
        <ele>284</ele>
        <time>2020-06-25T16:17:46Z</time>
      </trkpt>
      <trkpt lat="49.6944" lon="5.19141">
        <ele>284.1</ele>
        <time>2020-06-25T16:17:47Z</time>
      </trkpt>
      <trkpt lat="49.69442" lon="5.19144">
        <ele>284.2</ele>
        <time>2020-06-25T16:17:48Z</time>
      </trkpt>
      <trkpt lat="49.69445" lon="5.19148">
        <ele>284.3</ele>
        <time>2020-06-25T16:17:49Z</time>
      </trkpt>
      <trkpt lat="49.69449" lon="5.19153">
        <ele>284.5</ele>
        <time>2020-06-25T16:17:50Z</time>
      </trkpt>
      <trkpt lat="49.69452" lon="5.19158">
        <ele>284.7</ele>
        <time>2020-06-25T16:17:51Z</time>
      </trkpt>
      <trkpt lat="49.69455" lon="5.19163">
        <ele>284.8</ele>
        <time>2020-06-25T16:17:52Z</time>
      </trkpt>
      <trkpt lat="49.69458" lon="5.19167">
        <ele>285</ele>
        <time>2020-06-25T16:17:53Z</time>
      </trkpt>
      <trkpt lat="49.69461" lon="5.19171">
        <ele>285.1</ele>
        <time>2020-06-25T16:17:54Z</time>
      </trkpt>
      <trkpt lat="49.69464" lon="5.19174">
        <ele>285.3</ele>
        <time>2020-06-25T16:17:55Z</time>
      </trkpt>
      <trkpt lat="49.69467" lon="5.19181">
        <ele>285.4</ele>
        <time>2020-06-25T16:17:56Z</time>
      </trkpt>
      <trkpt lat="49.6947" lon="5.19185">
        <ele>285.6</ele>
        <time>2020-06-25T16:17:57Z</time>
      </trkpt>
      <trkpt lat="49.69472" lon="5.19191">
        <ele>285.6</ele>
        <time>2020-06-25T16:17:58Z</time>
      </trkpt>
      <trkpt lat="49.69475" lon="5.19194">
        <ele>285.6</ele>
        <time>2020-06-25T16:17:59Z</time>
      </trkpt>
      <trkpt lat="49.69478" lon="5.19199">
        <ele>285.6</ele>
        <time>2020-06-25T16:18:00Z</time>
      </trkpt>
      <trkpt lat="49.69479" lon="5.19202">
        <ele>285.6</ele>
        <time>2020-06-25T16:18:01Z</time>
      </trkpt>
      <trkpt lat="49.69481" lon="5.19208">
        <ele>285.7</ele>
        <time>2020-06-25T16:18:02Z</time>
      </trkpt>
      <trkpt lat="49.69484" lon="5.19214">
        <ele>285.8</ele>
        <time>2020-06-25T16:18:03Z</time>
      </trkpt>
      <trkpt lat="49.69487" lon="5.19221">
        <ele>287.3</ele>
        <time>2020-06-25T16:18:04Z</time>
      </trkpt>
      <trkpt lat="49.6949" lon="5.19227">
        <ele>288.1</ele>
        <time>2020-06-25T16:18:05Z</time>
      </trkpt>
      <trkpt lat="49.69493" lon="5.19231">
        <ele>288.6</ele>
        <time>2020-06-25T16:18:06Z</time>
      </trkpt>
      <trkpt lat="49.69496" lon="5.19235">
        <ele>289</ele>
        <time>2020-06-25T16:18:07Z</time>
      </trkpt>
      <trkpt lat="49.695" lon="5.1924">
        <ele>289.3</ele>
        <time>2020-06-25T16:18:08Z</time>
      </trkpt>
      <trkpt lat="49.69503" lon="5.19244">
        <ele>289.5</ele>
        <time>2020-06-25T16:18:09Z</time>
      </trkpt>
      <trkpt lat="49.69507" lon="5.19248">
        <ele>289.6</ele>
        <time>2020-06-25T16:18:10Z</time>
      </trkpt>
      <trkpt lat="49.6951" lon="5.19251">
        <ele>289.7</ele>
        <time>2020-06-25T16:18:11Z</time>
      </trkpt>
      <trkpt lat="49.69513" lon="5.19255">
        <ele>289.9</ele>
        <time>2020-06-25T16:18:12Z</time>
      </trkpt>
      <trkpt lat="49.69517" lon="5.19259">
        <ele>290.1</ele>
        <time>2020-06-25T16:18:13Z</time>
      </trkpt>
      <trkpt lat="49.6952" lon="5.19263">
        <ele>290.2</ele>
        <time>2020-06-25T16:18:14Z</time>
      </trkpt>
      <trkpt lat="49.69523" lon="5.19267">
        <ele>290.3</ele>
        <time>2020-06-25T16:18:15Z</time>
      </trkpt>
      <trkpt lat="49.69527" lon="5.19272">
        <ele>290.5</ele>
        <time>2020-06-25T16:18:16Z</time>
      </trkpt>
      <trkpt lat="49.69529" lon="5.19276">
        <ele>290.7</ele>
        <time>2020-06-25T16:18:17Z</time>
      </trkpt>
      <trkpt lat="49.69533" lon="5.19281">
        <ele>290.8</ele>
        <time>2020-06-25T16:18:18Z</time>
      </trkpt>
      <trkpt lat="49.69536" lon="5.19285">
        <ele>291</ele>
        <time>2020-06-25T16:18:19Z</time>
      </trkpt>
      <trkpt lat="49.69539" lon="5.19288">
        <ele>291.1</ele>
        <time>2020-06-25T16:18:20Z</time>
      </trkpt>
      <trkpt lat="49.69543" lon="5.19292">
        <ele>291.3</ele>
        <time>2020-06-25T16:18:21Z</time>
      </trkpt>
      <trkpt lat="49.69547" lon="5.19296">
        <ele>291.5</ele>
        <time>2020-06-25T16:18:22Z</time>
      </trkpt>
      <trkpt lat="49.69551" lon="5.19299">
        <ele>291.7</ele>
        <time>2020-06-25T16:18:23Z</time>
      </trkpt>
      <trkpt lat="49.69555" lon="5.19303">
        <ele>291.8</ele>
        <time>2020-06-25T16:18:24Z</time>
      </trkpt>
      <trkpt lat="49.69559" lon="5.19307">
        <ele>291.9</ele>
        <time>2020-06-25T16:18:25Z</time>
      </trkpt>
      <trkpt lat="49.69563" lon="5.19311">
        <ele>292</ele>
        <time>2020-06-25T16:18:26Z</time>
      </trkpt>
      <trkpt lat="49.69567" lon="5.19315">
        <ele>292.1</ele>
        <time>2020-06-25T16:18:27Z</time>
      </trkpt>
      <trkpt lat="49.69571" lon="5.19319">
        <ele>292.3</ele>
        <time>2020-06-25T16:18:28Z</time>
      </trkpt>
      <trkpt lat="49.69574" lon="5.19323">
        <ele>292.4</ele>
        <time>2020-06-25T16:18:29Z</time>
      </trkpt>
      <trkpt lat="49.69577" lon="5.19326">
        <ele>292.5</ele>
        <time>2020-06-25T16:18:30Z</time>
      </trkpt>
      <trkpt lat="49.69581" lon="5.1933">
        <ele>292.6</ele>
        <time>2020-06-25T16:18:31Z</time>
      </trkpt>
      <trkpt lat="49.69584" lon="5.19334">
        <ele>292.7</ele>
        <time>2020-06-25T16:18:32Z</time>
      </trkpt>
      <trkpt lat="49.69588" lon="5.19338">
        <ele>292.8</ele>
        <time>2020-06-25T16:18:33Z</time>
      </trkpt>
      <trkpt lat="49.69591" lon="5.19342">
        <ele>292.9</ele>
        <time>2020-06-25T16:18:34Z</time>
      </trkpt>
      <trkpt lat="49.69594" lon="5.19346">
        <ele>293.1</ele>
        <time>2020-06-25T16:18:35Z</time>
      </trkpt>
      <trkpt lat="49.69597" lon="5.1935">
        <ele>293.2</ele>
        <time>2020-06-25T16:18:36Z</time>
      </trkpt>
      <trkpt lat="49.696" lon="5.19354">
        <ele>293.3</ele>
        <time>2020-06-25T16:18:37Z</time>
      </trkpt>
      <trkpt lat="49.69603" lon="5.19358">
        <ele>293.4</ele>
        <time>2020-06-25T16:18:38Z</time>
      </trkpt>
      <trkpt lat="49.69606" lon="5.19361">
        <ele>293.5</ele>
        <time>2020-06-25T16:18:39Z</time>
      </trkpt>
      <trkpt lat="49.6961" lon="5.19365">
        <ele>293.7</ele>
        <time>2020-06-25T16:18:40Z</time>
      </trkpt>
      <trkpt lat="49.69612" lon="5.19369">
        <ele>293.9</ele>
        <time>2020-06-25T16:18:41Z</time>
      </trkpt>
      <trkpt lat="49.69616" lon="5.19373">
        <ele>294</ele>
        <time>2020-06-25T16:18:42Z</time>
      </trkpt>
      <trkpt lat="49.69619" lon="5.19376">
        <ele>294.2</ele>
        <time>2020-06-25T16:18:43Z</time>
      </trkpt>
      <trkpt lat="49.69621" lon="5.1938">
        <ele>294.3</ele>
        <time>2020-06-25T16:18:44Z</time>
      </trkpt>
      <trkpt lat="49.69624" lon="5.19383">
        <ele>294.5</ele>
        <time>2020-06-25T16:18:45Z</time>
      </trkpt>
      <trkpt lat="49.69626" lon="5.19387">
        <ele>294.6</ele>
        <time>2020-06-25T16:18:46Z</time>
      </trkpt>
      <trkpt lat="49.69628" lon="5.1939">
        <ele>294.7</ele>
        <time>2020-06-25T16:18:47Z</time>
      </trkpt>
      <trkpt lat="49.69632" lon="5.19394">
        <ele>294.8</ele>
        <time>2020-06-25T16:18:48Z</time>
      </trkpt>
      <trkpt lat="49.69634" lon="5.194">
        <ele>295</ele>
        <time>2020-06-25T16:18:49Z</time>
      </trkpt>
      <trkpt lat="49.69638" lon="5.19404">
        <ele>295.1</ele>
        <time>2020-06-25T16:18:50Z</time>
      </trkpt>
      <trkpt lat="49.69641" lon="5.19409">
        <ele>295.2</ele>
        <time>2020-06-25T16:18:51Z</time>
      </trkpt>
      <trkpt lat="49.69644" lon="5.19414">
        <ele>295.3</ele>
        <time>2020-06-25T16:18:52Z</time>
      </trkpt>
      <trkpt lat="49.69647" lon="5.19419">
        <ele>295.4</ele>
        <time>2020-06-25T16:18:53Z</time>
      </trkpt>
      <trkpt lat="49.6965" lon="5.19423">
        <ele>295.5</ele>
        <time>2020-06-25T16:18:54Z</time>
      </trkpt>
      <trkpt lat="49.69653" lon="5.19428">
        <ele>295.7</ele>
        <time>2020-06-25T16:18:55Z</time>
      </trkpt>
      <trkpt lat="49.69655" lon="5.19432">
        <ele>295.8</ele>
        <time>2020-06-25T16:18:56Z</time>
      </trkpt>
      <trkpt lat="49.69658" lon="5.19436">
        <ele>296</ele>
        <time>2020-06-25T16:18:57Z</time>
      </trkpt>
      <trkpt lat="49.69661" lon="5.1944">
        <ele>296.1</ele>
        <time>2020-06-25T16:18:58Z</time>
      </trkpt>
      <trkpt lat="49.69664" lon="5.19444">
        <ele>296.3</ele>
        <time>2020-06-25T16:18:59Z</time>
      </trkpt>
      <trkpt lat="49.69667" lon="5.19449">
        <ele>296.4</ele>
        <time>2020-06-25T16:19:00Z</time>
      </trkpt>
      <trkpt lat="49.69669" lon="5.19453">
        <ele>296.6</ele>
        <time>2020-06-25T16:19:01Z</time>
      </trkpt>
      <trkpt lat="49.69673" lon="5.19458">
        <ele>296.7</ele>
        <time>2020-06-25T16:19:02Z</time>
      </trkpt>
      <trkpt lat="49.69675" lon="5.19463">
        <ele>296.8</ele>
        <time>2020-06-25T16:19:03Z</time>
      </trkpt>
      <trkpt lat="49.69678" lon="5.19468">
        <ele>297</ele>
        <time>2020-06-25T16:19:04Z</time>
      </trkpt>
      <trkpt lat="49.69681" lon="5.19474">
        <ele>297.1</ele>
        <time>2020-06-25T16:19:05Z</time>
      </trkpt>
      <trkpt lat="49.69685" lon="5.1948">
        <ele>297.3</ele>
        <time>2020-06-25T16:19:06Z</time>
      </trkpt>
      <trkpt lat="49.69688" lon="5.19485">
        <ele>297.5</ele>
        <time>2020-06-25T16:19:07Z</time>
      </trkpt>
      <trkpt lat="49.6969" lon="5.1949">
        <ele>297.6</ele>
        <time>2020-06-25T16:19:08Z</time>
      </trkpt>
      <trkpt lat="49.69693" lon="5.19496">
        <ele>297.7</ele>
        <time>2020-06-25T16:19:09Z</time>
      </trkpt>
      <trkpt lat="49.69695" lon="5.19502">
        <ele>297.8</ele>
        <time>2020-06-25T16:19:10Z</time>
      </trkpt>
      <trkpt lat="49.69698" lon="5.19509">
        <ele>297.9</ele>
        <time>2020-06-25T16:19:11Z</time>
      </trkpt>
      <trkpt lat="49.697" lon="5.19515">
        <ele>298</ele>
        <time>2020-06-25T16:19:12Z</time>
      </trkpt>
      <trkpt lat="49.69702" lon="5.19522">
        <ele>298.1</ele>
        <time>2020-06-25T16:19:13Z</time>
      </trkpt>
      <trkpt lat="49.69706" lon="5.19529">
        <ele>298.3</ele>
        <time>2020-06-25T16:19:14Z</time>
      </trkpt>
      <trkpt lat="49.69708" lon="5.19535">
        <ele>298.5</ele>
        <time>2020-06-25T16:19:15Z</time>
      </trkpt>
      <trkpt lat="49.69711" lon="5.1954">
        <ele>298.7</ele>
        <time>2020-06-25T16:19:16Z</time>
      </trkpt>
      <trkpt lat="49.69713" lon="5.19544">
        <ele>298.8</ele>
        <time>2020-06-25T16:19:17Z</time>
      </trkpt>
      <trkpt lat="49.69716" lon="5.19549">
        <ele>299</ele>
        <time>2020-06-25T16:19:18Z</time>
      </trkpt>
      <trkpt lat="49.69718" lon="5.19554">
        <ele>299.2</ele>
        <time>2020-06-25T16:19:19Z</time>
      </trkpt>
      <trkpt lat="49.69721" lon="5.19559">
        <ele>299.3</ele>
        <time>2020-06-25T16:19:20Z</time>
      </trkpt>
      <trkpt lat="49.69724" lon="5.19565">
        <ele>299.5</ele>
        <time>2020-06-25T16:19:21Z</time>
      </trkpt>
      <trkpt lat="49.69727" lon="5.19569">
        <ele>299.7</ele>
        <time>2020-06-25T16:19:22Z</time>
      </trkpt>
      <trkpt lat="49.69729" lon="5.19575">
        <ele>299.8</ele>
        <time>2020-06-25T16:19:23Z</time>
      </trkpt>
      <trkpt lat="49.69731" lon="5.19581">
        <ele>300</ele>
        <time>2020-06-25T16:19:24Z</time>
      </trkpt>
      <trkpt lat="49.69734" lon="5.19586">
        <ele>300.1</ele>
        <time>2020-06-25T16:19:25Z</time>
      </trkpt>
      <trkpt lat="49.69737" lon="5.19592">
        <ele>300.2</ele>
        <time>2020-06-25T16:19:26Z</time>
      </trkpt>
      <trkpt lat="49.69739" lon="5.19596">
        <ele>300.3</ele>
        <time>2020-06-25T16:19:27Z</time>
      </trkpt>
      <trkpt lat="49.69741" lon="5.196">
        <ele>300.4</ele>
        <time>2020-06-25T16:19:28Z</time>
      </trkpt>
      <trkpt lat="49.69744" lon="5.19604">
        <ele>300.5</ele>
        <time>2020-06-25T16:19:29Z</time>
      </trkpt>
      <trkpt lat="49.69746" lon="5.19609">
        <ele>300.6</ele>
        <time>2020-06-25T16:19:30Z</time>
      </trkpt>
      <trkpt lat="49.69748" lon="5.19613">
        <ele>300.7</ele>
        <time>2020-06-25T16:19:31Z</time>
      </trkpt>
      <trkpt lat="49.69751" lon="5.19616">
        <ele>300.8</ele>
        <time>2020-06-25T16:19:32Z</time>
      </trkpt>
      <trkpt lat="49.69753" lon="5.19621">
        <ele>300.9</ele>
        <time>2020-06-25T16:19:33Z</time>
      </trkpt>
      <trkpt lat="49.69757" lon="5.19625">
        <ele>301</ele>
        <time>2020-06-25T16:19:34Z</time>
      </trkpt>
      <trkpt lat="49.6976" lon="5.1963">
        <ele>301.2</ele>
        <time>2020-06-25T16:19:35Z</time>
      </trkpt>
      <trkpt lat="49.69763" lon="5.19635">
        <ele>301.3</ele>
        <time>2020-06-25T16:19:36Z</time>
      </trkpt>
      <trkpt lat="49.69765" lon="5.1964">
        <ele>301.4</ele>
        <time>2020-06-25T16:19:37Z</time>
      </trkpt>
      <trkpt lat="49.69767" lon="5.19646">
        <ele>301.5</ele>
        <time>2020-06-25T16:19:38Z</time>
      </trkpt>
      <trkpt lat="49.6977" lon="5.19652">
        <ele>301.7</ele>
        <time>2020-06-25T16:19:39Z</time>
      </trkpt>
      <trkpt lat="49.69772" lon="5.19658">
        <ele>301.9</ele>
        <time>2020-06-25T16:19:40Z</time>
      </trkpt>
      <trkpt lat="49.69775" lon="5.19664">
        <ele>302.1</ele>
        <time>2020-06-25T16:19:41Z</time>
      </trkpt>
      <trkpt lat="49.69778" lon="5.19669">
        <ele>302.2</ele>
        <time>2020-06-25T16:19:42Z</time>
      </trkpt>
      <trkpt lat="49.6978" lon="5.19675">
        <ele>302.3</ele>
        <time>2020-06-25T16:19:43Z</time>
      </trkpt>
      <trkpt lat="49.69782" lon="5.19681">
        <ele>302.4</ele>
        <time>2020-06-25T16:19:44Z</time>
      </trkpt>
      <trkpt lat="49.69785" lon="5.19686">
        <ele>302.6</ele>
        <time>2020-06-25T16:19:45Z</time>
      </trkpt>
      <trkpt lat="49.69787" lon="5.19691">
        <ele>302.7</ele>
        <time>2020-06-25T16:19:46Z</time>
      </trkpt>
      <trkpt lat="49.69789" lon="5.19695">
        <ele>302.9</ele>
        <time>2020-06-25T16:19:47Z</time>
      </trkpt>
      <trkpt lat="49.69792" lon="5.19699">
        <ele>303</ele>
        <time>2020-06-25T16:19:48Z</time>
      </trkpt>
      <trkpt lat="49.69794" lon="5.19705">
        <ele>303.2</ele>
        <time>2020-06-25T16:19:49Z</time>
      </trkpt>
      <trkpt lat="49.69796" lon="5.1971">
        <ele>303.5</ele>
        <time>2020-06-25T16:19:50Z</time>
      </trkpt>
      <trkpt lat="49.69798" lon="5.19715">
        <ele>303.6</ele>
        <time>2020-06-25T16:19:51Z</time>
      </trkpt>
      <trkpt lat="49.69801" lon="5.19721">
        <ele>303.8</ele>
        <time>2020-06-25T16:19:52Z</time>
      </trkpt>
      <trkpt lat="49.69803" lon="5.19726">
        <ele>303.9</ele>
        <time>2020-06-25T16:19:53Z</time>
      </trkpt>
      <trkpt lat="49.69805" lon="5.1973">
        <ele>304</ele>
        <time>2020-06-25T16:19:54Z</time>
      </trkpt>
      <trkpt lat="49.69807" lon="5.19735">
        <ele>304.1</ele>
        <time>2020-06-25T16:19:55Z</time>
      </trkpt>
      <trkpt lat="49.6981" lon="5.19739">
        <ele>304.2</ele>
        <time>2020-06-25T16:19:56Z</time>
      </trkpt>
      <trkpt lat="49.69812" lon="5.19743">
        <ele>304.3</ele>
        <time>2020-06-25T16:19:57Z</time>
      </trkpt>
      <trkpt lat="49.69815" lon="5.19747">
        <ele>304.4</ele>
        <time>2020-06-25T16:19:58Z</time>
      </trkpt>
      <trkpt lat="49.69817" lon="5.19753">
        <ele>304.3</ele>
        <time>2020-06-25T16:19:59Z</time>
      </trkpt>
      <trkpt lat="49.69819" lon="5.19759">
        <ele>304.2</ele>
        <time>2020-06-25T16:20:00Z</time>
      </trkpt>
      <trkpt lat="49.69821" lon="5.19766">
        <ele>303.7</ele>
        <time>2020-06-25T16:20:01Z</time>
      </trkpt>
      <trkpt lat="49.69823" lon="5.19772">
        <ele>302.9</ele>
        <time>2020-06-25T16:20:02Z</time>
      </trkpt>
      <trkpt lat="49.69825" lon="5.19777">
        <ele>302.2</ele>
        <time>2020-06-25T16:20:03Z</time>
      </trkpt>
      <trkpt lat="49.69829" lon="5.19783">
        <ele>302.3</ele>
        <time>2020-06-25T16:20:04Z</time>
      </trkpt>
      <trkpt lat="49.69832" lon="5.19788">
        <ele>302.3</ele>
        <time>2020-06-25T16:20:05Z</time>
      </trkpt>
      <trkpt lat="49.69835" lon="5.19793">
        <ele>302.4</ele>
        <time>2020-06-25T16:20:06Z</time>
      </trkpt>
      <trkpt lat="49.69838" lon="5.19798">
        <ele>302.5</ele>
        <time>2020-06-25T16:20:07Z</time>
      </trkpt>
      <trkpt lat="49.69841" lon="5.19804">
        <ele>302.5</ele>
        <time>2020-06-25T16:20:08Z</time>
      </trkpt>
      <trkpt lat="49.69845" lon="5.19809">
        <ele>302.6</ele>
        <time>2020-06-25T16:20:09Z</time>
      </trkpt>
      <trkpt lat="49.69847" lon="5.19814">
        <ele>302.7</ele>
        <time>2020-06-25T16:20:10Z</time>
      </trkpt>
      <trkpt lat="49.6985" lon="5.19819">
        <ele>302.7</ele>
        <time>2020-06-25T16:20:11Z</time>
      </trkpt>
      <trkpt lat="49.69854" lon="5.19823">
        <ele>302.8</ele>
        <time>2020-06-25T16:20:12Z</time>
      </trkpt>
      <trkpt lat="49.69856" lon="5.19828">
        <ele>302.8</ele>
        <time>2020-06-25T16:20:13Z</time>
      </trkpt>
      <trkpt lat="49.69859" lon="5.19833">
        <ele>302.8</ele>
        <time>2020-06-25T16:20:14Z</time>
      </trkpt>
      <trkpt lat="49.69861" lon="5.19839">
        <ele>302.8</ele>
        <time>2020-06-25T16:20:15Z</time>
      </trkpt>
      <trkpt lat="49.69864" lon="5.19844">
        <ele>302.8</ele>
        <time>2020-06-25T16:20:16Z</time>
      </trkpt>
      <trkpt lat="49.69867" lon="5.1985">
        <ele>302.8</ele>
        <time>2020-06-25T16:20:17Z</time>
      </trkpt>
      <trkpt lat="49.69869" lon="5.19855">
        <ele>302.9</ele>
        <time>2020-06-25T16:20:18Z</time>
      </trkpt>
      <trkpt lat="49.69872" lon="5.19861">
        <ele>302.9</ele>
        <time>2020-06-25T16:20:19Z</time>
      </trkpt>
      <trkpt lat="49.69875" lon="5.19867">
        <ele>303</ele>
        <time>2020-06-25T16:20:20Z</time>
      </trkpt>
      <trkpt lat="49.69878" lon="5.19872">
        <ele>303</ele>
        <time>2020-06-25T16:20:21Z</time>
      </trkpt>
      <trkpt lat="49.69881" lon="5.19878">
        <ele>303.1</ele>
        <time>2020-06-25T16:20:22Z</time>
      </trkpt>
      <trkpt lat="49.69884" lon="5.19883">
        <ele>303.2</ele>
        <time>2020-06-25T16:20:23Z</time>
      </trkpt>
      <trkpt lat="49.69887" lon="5.19889">
        <ele>303.2</ele>
        <time>2020-06-25T16:20:24Z</time>
      </trkpt>
      <trkpt lat="49.6989" lon="5.19895">
        <ele>303.3</ele>
        <time>2020-06-25T16:20:25Z</time>
      </trkpt>
      <trkpt lat="49.69893" lon="5.199">
        <ele>303.4</ele>
        <time>2020-06-25T16:20:26Z</time>
      </trkpt>
      <trkpt lat="49.69896" lon="5.19906">
        <ele>303.4</ele>
        <time>2020-06-25T16:20:27Z</time>
      </trkpt>
      <trkpt lat="49.69899" lon="5.19912">
        <ele>303.5</ele>
        <time>2020-06-25T16:20:28Z</time>
      </trkpt>
      <trkpt lat="49.69901" lon="5.19919">
        <ele>303.5</ele>
        <time>2020-06-25T16:20:29Z</time>
      </trkpt>
      <trkpt lat="49.69904" lon="5.19924">
        <ele>303.6</ele>
        <time>2020-06-25T16:20:30Z</time>
      </trkpt>
      <trkpt lat="49.69906" lon="5.19931">
        <ele>303.6</ele>
        <time>2020-06-25T16:20:31Z</time>
      </trkpt>
      <trkpt lat="49.69908" lon="5.19937">
        <ele>303.7</ele>
        <time>2020-06-25T16:20:32Z</time>
      </trkpt>
      <trkpt lat="49.69912" lon="5.19942">
        <ele>303.7</ele>
        <time>2020-06-25T16:20:33Z</time>
      </trkpt>
      <trkpt lat="49.69914" lon="5.19947">
        <ele>303.7</ele>
        <time>2020-06-25T16:20:34Z</time>
      </trkpt>
      <trkpt lat="49.69917" lon="5.19953">
        <ele>303.8</ele>
        <time>2020-06-25T16:20:35Z</time>
      </trkpt>
      <trkpt lat="49.6992" lon="5.19959">
        <ele>303.9</ele>
        <time>2020-06-25T16:20:36Z</time>
      </trkpt>
      <trkpt lat="49.69922" lon="5.19965">
        <ele>303.9</ele>
        <time>2020-06-25T16:20:37Z</time>
      </trkpt>
      <trkpt lat="49.69925" lon="5.1997">
        <ele>304</ele>
        <time>2020-06-25T16:20:38Z</time>
      </trkpt>
      <trkpt lat="49.69928" lon="5.19976">
        <ele>304.1</ele>
        <time>2020-06-25T16:20:39Z</time>
      </trkpt>
      <trkpt lat="49.69931" lon="5.19983">
        <ele>304.1</ele>
        <time>2020-06-25T16:20:40Z</time>
      </trkpt>
      <trkpt lat="49.69934" lon="5.19989">
        <ele>304.2</ele>
        <time>2020-06-25T16:20:41Z</time>
      </trkpt>
      <trkpt lat="49.69937" lon="5.19995">
        <ele>304.2</ele>
        <time>2020-06-25T16:20:42Z</time>
      </trkpt>
      <trkpt lat="49.6994" lon="5.2">
        <ele>304.3</ele>
        <time>2020-06-25T16:20:43Z</time>
      </trkpt>
      <trkpt lat="49.69944" lon="5.20006">
        <ele>304.3</ele>
        <time>2020-06-25T16:20:44Z</time>
      </trkpt>
      <trkpt lat="49.69947" lon="5.20012">
        <ele>304.4</ele>
        <time>2020-06-25T16:20:45Z</time>
      </trkpt>
      <trkpt lat="49.6995" lon="5.20018">
        <ele>304.5</ele>
        <time>2020-06-25T16:20:46Z</time>
      </trkpt>
      <trkpt lat="49.69953" lon="5.20024">
        <ele>304.5</ele>
        <time>2020-06-25T16:20:47Z</time>
      </trkpt>
      <trkpt lat="49.69957" lon="5.20029">
        <ele>304.6</ele>
        <time>2020-06-25T16:20:48Z</time>
      </trkpt>
      <trkpt lat="49.6996" lon="5.20035">
        <ele>304.6</ele>
        <time>2020-06-25T16:20:49Z</time>
      </trkpt>
      <trkpt lat="49.69963" lon="5.2004">
        <ele>304.7</ele>
        <time>2020-06-25T16:20:50Z</time>
      </trkpt>
      <trkpt lat="49.69966" lon="5.20046">
        <ele>304.8</ele>
        <time>2020-06-25T16:20:51Z</time>
      </trkpt>
      <trkpt lat="49.6997" lon="5.20052">
        <ele>304.9</ele>
        <time>2020-06-25T16:20:52Z</time>
      </trkpt>
      <trkpt lat="49.69973" lon="5.20057">
        <ele>304.9</ele>
        <time>2020-06-25T16:20:53Z</time>
      </trkpt>
      <trkpt lat="49.69976" lon="5.20063">
        <ele>305</ele>
        <time>2020-06-25T16:20:54Z</time>
      </trkpt>
      <trkpt lat="49.6998" lon="5.20069">
        <ele>305.1</ele>
        <time>2020-06-25T16:20:55Z</time>
      </trkpt>
      <trkpt lat="49.69983" lon="5.20074">
        <ele>305.2</ele>
        <time>2020-06-25T16:20:56Z</time>
      </trkpt>
      <trkpt lat="49.69987" lon="5.20079">
        <ele>305.3</ele>
        <time>2020-06-25T16:20:57Z</time>
      </trkpt>
      <trkpt lat="49.6999" lon="5.20085">
        <ele>305.3</ele>
        <time>2020-06-25T16:20:58Z</time>
      </trkpt>
      <trkpt lat="49.69993" lon="5.20091">
        <ele>305.4</ele>
        <time>2020-06-25T16:20:59Z</time>
      </trkpt>
      <trkpt lat="49.69996" lon="5.20097">
        <ele>305.5</ele>
        <time>2020-06-25T16:21:00Z</time>
      </trkpt>
      <trkpt lat="49.69998" lon="5.20102">
        <ele>305.7</ele>
        <time>2020-06-25T16:21:01Z</time>
      </trkpt>
      <trkpt lat="49.70001" lon="5.20109">
        <ele>306</ele>
        <time>2020-06-25T16:21:02Z</time>
      </trkpt>
      <trkpt lat="49.70003" lon="5.20116">
        <ele>306.1</ele>
        <time>2020-06-25T16:21:03Z</time>
      </trkpt>
      <trkpt lat="49.70006" lon="5.20121">
        <ele>306.3</ele>
        <time>2020-06-25T16:21:04Z</time>
      </trkpt>
      <trkpt lat="49.70009" lon="5.20125">
        <ele>306.4</ele>
        <time>2020-06-25T16:21:05Z</time>
      </trkpt>
      <trkpt lat="49.70012" lon="5.2013">
        <ele>306.5</ele>
        <time>2020-06-25T16:21:06Z</time>
      </trkpt>
      <trkpt lat="49.70014" lon="5.20137">
        <ele>306.7</ele>
        <time>2020-06-25T16:21:07Z</time>
      </trkpt>
      <trkpt lat="49.70018" lon="5.20143">
        <ele>306.8</ele>
        <time>2020-06-25T16:21:08Z</time>
      </trkpt>
      <trkpt lat="49.7002" lon="5.2015">
        <ele>307.1</ele>
        <time>2020-06-25T16:21:09Z</time>
      </trkpt>
      <trkpt lat="49.70022" lon="5.20156">
        <ele>307.2</ele>
        <time>2020-06-25T16:21:10Z</time>
      </trkpt>
      <trkpt lat="49.70025" lon="5.20162">
        <ele>307.3</ele>
        <time>2020-06-25T16:21:11Z</time>
      </trkpt>
      <trkpt lat="49.70027" lon="5.20168">
        <ele>307.3</ele>
        <time>2020-06-25T16:21:12Z</time>
      </trkpt>
      <trkpt lat="49.70029" lon="5.20174">
        <ele>307.4</ele>
        <time>2020-06-25T16:21:13Z</time>
      </trkpt>
      <trkpt lat="49.70031" lon="5.2018">
        <ele>307.5</ele>
        <time>2020-06-25T16:21:14Z</time>
      </trkpt>
      <trkpt lat="49.70033" lon="5.20186">
        <ele>307.6</ele>
        <time>2020-06-25T16:21:15Z</time>
      </trkpt>
      <trkpt lat="49.70035" lon="5.20191">
        <ele>307.6</ele>
        <time>2020-06-25T16:21:16Z</time>
      </trkpt>
      <trkpt lat="49.70037" lon="5.20198">
        <ele>307.7</ele>
        <time>2020-06-25T16:21:17Z</time>
      </trkpt>
      <trkpt lat="49.70041" lon="5.20202">
        <ele>307.8</ele>
        <time>2020-06-25T16:21:18Z</time>
      </trkpt>
      <trkpt lat="49.70043" lon="5.20208">
        <ele>307.9</ele>
        <time>2020-06-25T16:21:19Z</time>
      </trkpt>
      <trkpt lat="49.70045" lon="5.20214">
        <ele>308.1</ele>
        <time>2020-06-25T16:21:20Z</time>
      </trkpt>
      <trkpt lat="49.70047" lon="5.20221">
        <ele>308.2</ele>
        <time>2020-06-25T16:21:21Z</time>
      </trkpt>
      <trkpt lat="49.70048" lon="5.20228">
        <ele>308.3</ele>
        <time>2020-06-25T16:21:22Z</time>
      </trkpt>
      <trkpt lat="49.7005" lon="5.20235">
        <ele>308.4</ele>
        <time>2020-06-25T16:21:23Z</time>
      </trkpt>
      <trkpt lat="49.70052" lon="5.20243">
        <ele>308.4</ele>
        <time>2020-06-25T16:21:24Z</time>
      </trkpt>
      <trkpt lat="49.70054" lon="5.2025">
        <ele>308.5</ele>
        <time>2020-06-25T16:21:25Z</time>
      </trkpt>
      <trkpt lat="49.70056" lon="5.20256">
        <ele>308.6</ele>
        <time>2020-06-25T16:21:26Z</time>
      </trkpt>
      <trkpt lat="49.70057" lon="5.20262">
        <ele>308.8</ele>
        <time>2020-06-25T16:21:27Z</time>
      </trkpt>
      <trkpt lat="49.70059" lon="5.20269">
        <ele>309</ele>
        <time>2020-06-25T16:21:28Z</time>
      </trkpt>
      <trkpt lat="49.70061" lon="5.20276">
        <ele>309.1</ele>
        <time>2020-06-25T16:21:29Z</time>
      </trkpt>
      <trkpt lat="49.70062" lon="5.20283">
        <ele>309.3</ele>
        <time>2020-06-25T16:21:30Z</time>
      </trkpt>
      <trkpt lat="49.70063" lon="5.20291">
        <ele>309.4</ele>
        <time>2020-06-25T16:21:31Z</time>
      </trkpt>
      <trkpt lat="49.70064" lon="5.203">
        <ele>309.5</ele>
        <time>2020-06-25T16:21:32Z</time>
      </trkpt>
      <trkpt lat="49.70065" lon="5.20308">
        <ele>309.6</ele>
        <time>2020-06-25T16:21:33Z</time>
      </trkpt>
      <trkpt lat="49.70066" lon="5.20316">
        <ele>309.7</ele>
        <time>2020-06-25T16:21:34Z</time>
      </trkpt>
      <trkpt lat="49.70067" lon="5.20323">
        <ele>309.8</ele>
        <time>2020-06-25T16:21:35Z</time>
      </trkpt>
      <trkpt lat="49.70068" lon="5.20331">
        <ele>310</ele>
        <time>2020-06-25T16:21:36Z</time>
      </trkpt>
      <trkpt lat="49.70069" lon="5.20339">
        <ele>310.1</ele>
        <time>2020-06-25T16:21:37Z</time>
      </trkpt>
      <trkpt lat="49.70069" lon="5.20346">
        <ele>310.2</ele>
        <time>2020-06-25T16:21:38Z</time>
      </trkpt>
      <trkpt lat="49.70069" lon="5.20353">
        <ele>310.3</ele>
        <time>2020-06-25T16:21:39Z</time>
      </trkpt>
      <trkpt lat="49.7007" lon="5.2036">
        <ele>310.4</ele>
        <time>2020-06-25T16:21:40Z</time>
      </trkpt>
      <trkpt lat="49.70071" lon="5.20367">
        <ele>310.6</ele>
        <time>2020-06-25T16:21:41Z</time>
      </trkpt>
      <trkpt lat="49.70072" lon="5.20375">
        <ele>310.8</ele>
        <time>2020-06-25T16:21:42Z</time>
      </trkpt>
      <trkpt lat="49.70072" lon="5.20383">
        <ele>310.9</ele>
        <time>2020-06-25T16:21:43Z</time>
      </trkpt>
      <trkpt lat="49.70074" lon="5.2039">
        <ele>311</ele>
        <time>2020-06-25T16:21:44Z</time>
      </trkpt>
      <trkpt lat="49.70075" lon="5.20395">
        <ele>311.1</ele>
        <time>2020-06-25T16:21:45Z</time>
      </trkpt>
      <trkpt lat="49.70076" lon="5.20402">
        <ele>311.2</ele>
        <time>2020-06-25T16:21:46Z</time>
      </trkpt>
      <trkpt lat="49.70077" lon="5.2041">
        <ele>311.3</ele>
        <time>2020-06-25T16:21:47Z</time>
      </trkpt>
      <trkpt lat="49.70078" lon="5.20417">
        <ele>311.5</ele>
        <time>2020-06-25T16:21:48Z</time>
      </trkpt>
      <trkpt lat="49.70079" lon="5.20425">
        <ele>311.7</ele>
        <time>2020-06-25T16:21:49Z</time>
      </trkpt>
      <trkpt lat="49.7008" lon="5.20432">
        <ele>311.8</ele>
        <time>2020-06-25T16:21:50Z</time>
      </trkpt>
      <trkpt lat="49.70081" lon="5.2044">
        <ele>311.9</ele>
        <time>2020-06-25T16:21:51Z</time>
      </trkpt>
      <trkpt lat="49.70083" lon="5.20446">
        <ele>312</ele>
        <time>2020-06-25T16:21:52Z</time>
      </trkpt>
      <trkpt lat="49.70084" lon="5.20452">
        <ele>312.1</ele>
        <time>2020-06-25T16:21:53Z</time>
      </trkpt>
      <trkpt lat="49.70085" lon="5.2046">
        <ele>312.2</ele>
        <time>2020-06-25T16:21:54Z</time>
      </trkpt>
      <trkpt lat="49.70085" lon="5.20467">
        <ele>312.3</ele>
        <time>2020-06-25T16:21:55Z</time>
      </trkpt>
      <trkpt lat="49.70086" lon="5.20473">
        <ele>312.3</ele>
        <time>2020-06-25T16:21:56Z</time>
      </trkpt>
      <trkpt lat="49.70086" lon="5.2048">
        <ele>312.5</ele>
        <time>2020-06-25T16:21:57Z</time>
      </trkpt>
      <trkpt lat="49.70087" lon="5.20486">
        <ele>312.6</ele>
        <time>2020-06-25T16:21:58Z</time>
      </trkpt>
      <trkpt lat="49.70088" lon="5.20493">
        <ele>312.8</ele>
        <time>2020-06-25T16:21:59Z</time>
      </trkpt>
      <trkpt lat="49.7009" lon="5.205">
        <ele>312.9</ele>
        <time>2020-06-25T16:22:00Z</time>
      </trkpt>
      <trkpt lat="49.70091" lon="5.20506">
        <ele>313.1</ele>
        <time>2020-06-25T16:22:01Z</time>
      </trkpt>
      <trkpt lat="49.70092" lon="5.20514">
        <ele>313.2</ele>
        <time>2020-06-25T16:22:02Z</time>
      </trkpt>
      <trkpt lat="49.70093" lon="5.20522">
        <ele>313.2</ele>
        <time>2020-06-25T16:22:03Z</time>
      </trkpt>
      <trkpt lat="49.70095" lon="5.2053">
        <ele>313.3</ele>
        <time>2020-06-25T16:22:04Z</time>
      </trkpt>
      <trkpt lat="49.70097" lon="5.20538">
        <ele>313.4</ele>
        <time>2020-06-25T16:22:05Z</time>
      </trkpt>
      <trkpt lat="49.70098" lon="5.20545">
        <ele>313.5</ele>
        <time>2020-06-25T16:22:06Z</time>
      </trkpt>
      <trkpt lat="49.701" lon="5.20552">
        <ele>313.7</ele>
        <time>2020-06-25T16:22:07Z</time>
      </trkpt>
      <trkpt lat="49.70101" lon="5.20558">
        <ele>313.8</ele>
        <time>2020-06-25T16:22:08Z</time>
      </trkpt>
      <trkpt lat="49.70103" lon="5.20565">
        <ele>314</ele>
        <time>2020-06-25T16:22:09Z</time>
      </trkpt>
      <trkpt lat="49.70104" lon="5.20572">
        <ele>314.1</ele>
        <time>2020-06-25T16:22:10Z</time>
      </trkpt>
      <trkpt lat="49.70105" lon="5.20578">
        <ele>314.2</ele>
        <time>2020-06-25T16:22:11Z</time>
      </trkpt>
      <trkpt lat="49.70105" lon="5.20585">
        <ele>314.4</ele>
        <time>2020-06-25T16:22:12Z</time>
      </trkpt>
      <trkpt lat="49.70106" lon="5.20592">
        <ele>314.5</ele>
        <time>2020-06-25T16:22:13Z</time>
      </trkpt>
      <trkpt lat="49.70107" lon="5.206">
        <ele>314.6</ele>
        <time>2020-06-25T16:22:14Z</time>
      </trkpt>
      <trkpt lat="49.70109" lon="5.20607">
        <ele>314.7</ele>
        <time>2020-06-25T16:22:15Z</time>
      </trkpt>
      <trkpt lat="49.7011" lon="5.20614">
        <ele>314.7</ele>
        <time>2020-06-25T16:22:16Z</time>
      </trkpt>
      <trkpt lat="49.70112" lon="5.20621">
        <ele>314.8</ele>
        <time>2020-06-25T16:22:17Z</time>
      </trkpt>
      <trkpt lat="49.70114" lon="5.20628">
        <ele>314.9</ele>
        <time>2020-06-25T16:22:18Z</time>
      </trkpt>
      <trkpt lat="49.70115" lon="5.20635">
        <ele>315</ele>
        <time>2020-06-25T16:22:19Z</time>
      </trkpt>
      <trkpt lat="49.70117" lon="5.20642">
        <ele>315.1</ele>
        <time>2020-06-25T16:22:20Z</time>
      </trkpt>
      <trkpt lat="49.70118" lon="5.20649">
        <ele>315.1</ele>
        <time>2020-06-25T16:22:21Z</time>
      </trkpt>
      <trkpt lat="49.70119" lon="5.20657">
        <ele>315.2</ele>
        <time>2020-06-25T16:22:22Z</time>
      </trkpt>
      <trkpt lat="49.7012" lon="5.20665">
        <ele>315.2</ele>
        <time>2020-06-25T16:22:23Z</time>
      </trkpt>
      <trkpt lat="49.70121" lon="5.20672">
        <ele>315.3</ele>
        <time>2020-06-25T16:22:24Z</time>
      </trkpt>
      <trkpt lat="49.70122" lon="5.20679">
        <ele>315.4</ele>
        <time>2020-06-25T16:22:25Z</time>
      </trkpt>
      <trkpt lat="49.70122" lon="5.20686">
        <ele>315.5</ele>
        <time>2020-06-25T16:22:26Z</time>
      </trkpt>
      <trkpt lat="49.70123" lon="5.20693">
        <ele>315.7</ele>
        <time>2020-06-25T16:22:27Z</time>
      </trkpt>
      <trkpt lat="49.70124" lon="5.207">
        <ele>315.8</ele>
        <time>2020-06-25T16:22:28Z</time>
      </trkpt>
      <trkpt lat="49.70125" lon="5.20707">
        <ele>315.9</ele>
        <time>2020-06-25T16:22:29Z</time>
      </trkpt>
      <trkpt lat="49.70126" lon="5.20713">
        <ele>316.1</ele>
        <time>2020-06-25T16:22:30Z</time>
      </trkpt>
      <trkpt lat="49.70127" lon="5.20719">
        <ele>316.2</ele>
        <time>2020-06-25T16:22:31Z</time>
      </trkpt>
      <trkpt lat="49.70128" lon="5.20725">
        <ele>316.4</ele>
        <time>2020-06-25T16:22:32Z</time>
      </trkpt>
      <trkpt lat="49.70128" lon="5.20733">
        <ele>316.6</ele>
        <time>2020-06-25T16:22:33Z</time>
      </trkpt>
      <trkpt lat="49.70129" lon="5.2074">
        <ele>316.8</ele>
        <time>2020-06-25T16:22:34Z</time>
      </trkpt>
      <trkpt lat="49.7013" lon="5.20746">
        <ele>316.9</ele>
        <time>2020-06-25T16:22:35Z</time>
      </trkpt>
      <trkpt lat="49.70132" lon="5.20753">
        <ele>317.1</ele>
        <time>2020-06-25T16:22:36Z</time>
      </trkpt>
      <trkpt lat="49.70133" lon="5.2076">
        <ele>317.2</ele>
        <time>2020-06-25T16:22:37Z</time>
      </trkpt>
      <trkpt lat="49.70134" lon="5.20767">
        <ele>317.3</ele>
        <time>2020-06-25T16:22:38Z</time>
      </trkpt>
      <trkpt lat="49.70136" lon="5.20774">
        <ele>317.5</ele>
        <time>2020-06-25T16:22:39Z</time>
      </trkpt>
      <trkpt lat="49.70137" lon="5.20781">
        <ele>317.6</ele>
        <time>2020-06-25T16:22:40Z</time>
      </trkpt>
      <trkpt lat="49.70138" lon="5.20788">
        <ele>317.7</ele>
        <time>2020-06-25T16:22:41Z</time>
      </trkpt>
      <trkpt lat="49.70139" lon="5.20794">
        <ele>317.7</ele>
        <time>2020-06-25T16:22:42Z</time>
      </trkpt>
      <trkpt lat="49.70139" lon="5.20801">
        <ele>317.8</ele>
        <time>2020-06-25T16:22:43Z</time>
      </trkpt>
      <trkpt lat="49.70141" lon="5.20807">
        <ele>317.9</ele>
        <time>2020-06-25T16:22:44Z</time>
      </trkpt>
      <trkpt lat="49.70142" lon="5.20814">
        <ele>318</ele>
        <time>2020-06-25T16:22:45Z</time>
      </trkpt>
      <trkpt lat="49.70142" lon="5.20822">
        <ele>318.1</ele>
        <time>2020-06-25T16:22:46Z</time>
      </trkpt>
      <trkpt lat="49.70144" lon="5.20829">
        <ele>318.2</ele>
        <time>2020-06-25T16:22:47Z</time>
      </trkpt>
      <trkpt lat="49.70145" lon="5.20836">
        <ele>318.3</ele>
        <time>2020-06-25T16:22:48Z</time>
      </trkpt>
      <trkpt lat="49.70146" lon="5.20843">
        <ele>318.4</ele>
        <time>2020-06-25T16:22:49Z</time>
      </trkpt>
      <trkpt lat="49.70147" lon="5.20849">
        <ele>318.5</ele>
        <time>2020-06-25T16:22:50Z</time>
      </trkpt>
      <trkpt lat="49.70148" lon="5.20855">
        <ele>318.5</ele>
        <time>2020-06-25T16:22:51Z</time>
      </trkpt>
      <trkpt lat="49.70149" lon="5.20862">
        <ele>318.6</ele>
        <time>2020-06-25T16:22:52Z</time>
      </trkpt>
      <trkpt lat="49.7015" lon="5.20868">
        <ele>318.7</ele>
        <time>2020-06-25T16:22:53Z</time>
      </trkpt>
      <trkpt lat="49.70151" lon="5.20876">
        <ele>318.8</ele>
        <time>2020-06-25T16:22:54Z</time>
      </trkpt>
      <trkpt lat="49.70152" lon="5.20883">
        <ele>318.9</ele>
        <time>2020-06-25T16:22:55Z</time>
      </trkpt>
      <trkpt lat="49.70153" lon="5.20891">
        <ele>319</ele>
        <time>2020-06-25T16:22:56Z</time>
      </trkpt>
      <trkpt lat="49.70155" lon="5.20897">
        <ele>319.2</ele>
        <time>2020-06-25T16:22:57Z</time>
      </trkpt>
      <trkpt lat="49.70157" lon="5.20903">
        <ele>319.3</ele>
        <time>2020-06-25T16:22:58Z</time>
      </trkpt>
      <trkpt lat="49.70157" lon="5.2091">
        <ele>319.4</ele>
        <time>2020-06-25T16:22:59Z</time>
      </trkpt>
      <trkpt lat="49.70158" lon="5.20917">
        <ele>319.5</ele>
        <time>2020-06-25T16:23:00Z</time>
      </trkpt>
      <trkpt lat="49.70158" lon="5.20925">
        <ele>319.7</ele>
        <time>2020-06-25T16:23:01Z</time>
      </trkpt>
      <trkpt lat="49.70159" lon="5.20932">
        <ele>319.8</ele>
        <time>2020-06-25T16:23:02Z</time>
      </trkpt>
      <trkpt lat="49.7016" lon="5.20939">
        <ele>319.9</ele>
        <time>2020-06-25T16:23:03Z</time>
      </trkpt>
      <trkpt lat="49.70161" lon="5.20946">
        <ele>320.1</ele>
        <time>2020-06-25T16:23:04Z</time>
      </trkpt>
      <trkpt lat="49.70161" lon="5.20953">
        <ele>320.2</ele>
        <time>2020-06-25T16:23:05Z</time>
      </trkpt>
      <trkpt lat="49.70161" lon="5.2096">
        <ele>320.3</ele>
        <time>2020-06-25T16:23:06Z</time>
      </trkpt>
      <trkpt lat="49.70163" lon="5.20967">
        <ele>320.4</ele>
        <time>2020-06-25T16:23:07Z</time>
      </trkpt>
      <trkpt lat="49.70162" lon="5.20973">
        <ele>320.5</ele>
        <time>2020-06-25T16:23:08Z</time>
      </trkpt>
      <trkpt lat="49.70163" lon="5.2098">
        <ele>320.7</ele>
        <time>2020-06-25T16:23:09Z</time>
      </trkpt>
      <trkpt lat="49.70164" lon="5.20986">
        <ele>320.8</ele>
        <time>2020-06-25T16:23:10Z</time>
      </trkpt>
      <trkpt lat="49.70166" lon="5.20993">
        <ele>320.9</ele>
        <time>2020-06-25T16:23:11Z</time>
      </trkpt>
      <trkpt lat="49.70167" lon="5.21">
        <ele>321</ele>
        <time>2020-06-25T16:23:12Z</time>
      </trkpt>
      <trkpt lat="49.70168" lon="5.21007">
        <ele>321.1</ele>
        <time>2020-06-25T16:23:13Z</time>
      </trkpt>
      <trkpt lat="49.70169" lon="5.21013">
        <ele>321.1</ele>
        <time>2020-06-25T16:23:14Z</time>
      </trkpt>
      <trkpt lat="49.7017" lon="5.2102">
        <ele>321</ele>
        <time>2020-06-25T16:23:15Z</time>
      </trkpt>
      <trkpt lat="49.70172" lon="5.21027">
        <ele>320.8</ele>
        <time>2020-06-25T16:23:16Z</time>
      </trkpt>
      <trkpt lat="49.70173" lon="5.21033">
        <ele>320.5</ele>
        <time>2020-06-25T16:23:17Z</time>
      </trkpt>
      <trkpt lat="49.70175" lon="5.2104">
        <ele>320.1</ele>
        <time>2020-06-25T16:23:18Z</time>
      </trkpt>
      <trkpt lat="49.70176" lon="5.21046">
        <ele>319.9</ele>
        <time>2020-06-25T16:23:19Z</time>
      </trkpt>
      <trkpt lat="49.70178" lon="5.21053">
        <ele>320</ele>
        <time>2020-06-25T16:23:20Z</time>
      </trkpt>
      <trkpt lat="49.7018" lon="5.21061">
        <ele>320.1</ele>
        <time>2020-06-25T16:23:21Z</time>
      </trkpt>
      <trkpt lat="49.70181" lon="5.21068">
        <ele>320.2</ele>
        <time>2020-06-25T16:23:22Z</time>
      </trkpt>
      <trkpt lat="49.70182" lon="5.21075">
        <ele>320.3</ele>
        <time>2020-06-25T16:23:23Z</time>
      </trkpt>
      <trkpt lat="49.70183" lon="5.21082">
        <ele>320.3</ele>
        <time>2020-06-25T16:23:24Z</time>
      </trkpt>
      <trkpt lat="49.70184" lon="5.21088">
        <ele>320.4</ele>
        <time>2020-06-25T16:23:25Z</time>
      </trkpt>
      <trkpt lat="49.70185" lon="5.21095">
        <ele>320.5</ele>
        <time>2020-06-25T16:23:26Z</time>
      </trkpt>
      <trkpt lat="49.70186" lon="5.21103">
        <ele>320.6</ele>
        <time>2020-06-25T16:23:27Z</time>
      </trkpt>
      <trkpt lat="49.70187" lon="5.21108">
        <ele>320.7</ele>
        <time>2020-06-25T16:23:28Z</time>
      </trkpt>
      <trkpt lat="49.70188" lon="5.21115">
        <ele>320.7</ele>
        <time>2020-06-25T16:23:29Z</time>
      </trkpt>
      <trkpt lat="49.70188" lon="5.21122">
        <ele>320.7</ele>
        <time>2020-06-25T16:23:30Z</time>
      </trkpt>
      <trkpt lat="49.70189" lon="5.21129">
        <ele>320.7</ele>
        <time>2020-06-25T16:23:31Z</time>
      </trkpt>
      <trkpt lat="49.7019" lon="5.21136">
        <ele>320.8</ele>
        <time>2020-06-25T16:23:32Z</time>
      </trkpt>
      <trkpt lat="49.70191" lon="5.21142">
        <ele>320.8</ele>
        <time>2020-06-25T16:23:33Z</time>
      </trkpt>
      <trkpt lat="49.70193" lon="5.2115">
        <ele>321</ele>
        <time>2020-06-25T16:23:34Z</time>
      </trkpt>
      <trkpt lat="49.70194" lon="5.21157">
        <ele>321.1</ele>
        <time>2020-06-25T16:23:35Z</time>
      </trkpt>
      <trkpt lat="49.70194" lon="5.21164">
        <ele>321.2</ele>
        <time>2020-06-25T16:23:36Z</time>
      </trkpt>
      <trkpt lat="49.70195" lon="5.21171">
        <ele>321.3</ele>
        <time>2020-06-25T16:23:37Z</time>
      </trkpt>
      <trkpt lat="49.70196" lon="5.21178">
        <ele>321.4</ele>
        <time>2020-06-25T16:23:38Z</time>
      </trkpt>
      <trkpt lat="49.70198" lon="5.21184">
        <ele>321.4</ele>
        <time>2020-06-25T16:23:39Z</time>
      </trkpt>
      <trkpt lat="49.70199" lon="5.21192">
        <ele>321.5</ele>
        <time>2020-06-25T16:23:40Z</time>
      </trkpt>
      <trkpt lat="49.702" lon="5.21199">
        <ele>321.6</ele>
        <time>2020-06-25T16:23:41Z</time>
      </trkpt>
      <trkpt lat="49.70201" lon="5.21206">
        <ele>321.7</ele>
        <time>2020-06-25T16:23:42Z</time>
      </trkpt>
      <trkpt lat="49.70203" lon="5.21212">
        <ele>321.8</ele>
        <time>2020-06-25T16:23:43Z</time>
      </trkpt>
      <trkpt lat="49.70204" lon="5.2122">
        <ele>322</ele>
        <time>2020-06-25T16:23:44Z</time>
      </trkpt>
      <trkpt lat="49.70205" lon="5.21226">
        <ele>322.1</ele>
        <time>2020-06-25T16:23:45Z</time>
      </trkpt>
      <trkpt lat="49.70206" lon="5.21234">
        <ele>322.2</ele>
        <time>2020-06-25T16:23:46Z</time>
      </trkpt>
      <trkpt lat="49.70207" lon="5.2124">
        <ele>322.2</ele>
        <time>2020-06-25T16:23:47Z</time>
      </trkpt>
      <trkpt lat="49.70208" lon="5.21247">
        <ele>322.3</ele>
        <time>2020-06-25T16:23:48Z</time>
      </trkpt>
      <trkpt lat="49.70209" lon="5.21254">
        <ele>322.3</ele>
        <time>2020-06-25T16:23:49Z</time>
      </trkpt>
      <trkpt lat="49.70209" lon="5.21261">
        <ele>322.4</ele>
        <time>2020-06-25T16:23:50Z</time>
      </trkpt>
      <trkpt lat="49.70211" lon="5.21267">
        <ele>322.5</ele>
        <time>2020-06-25T16:23:51Z</time>
      </trkpt>
      <trkpt lat="49.70212" lon="5.21274">
        <ele>322.6</ele>
        <time>2020-06-25T16:23:52Z</time>
      </trkpt>
      <trkpt lat="49.70213" lon="5.2128">
        <ele>322.7</ele>
        <time>2020-06-25T16:23:53Z</time>
      </trkpt>
      <trkpt lat="49.70214" lon="5.21286">
        <ele>322.8</ele>
        <time>2020-06-25T16:23:54Z</time>
      </trkpt>
      <trkpt lat="49.70215" lon="5.21293">
        <ele>322.9</ele>
        <time>2020-06-25T16:23:55Z</time>
      </trkpt>
      <trkpt lat="49.70216" lon="5.213">
        <ele>322.9</ele>
        <time>2020-06-25T16:23:56Z</time>
      </trkpt>
      <trkpt lat="49.70218" lon="5.21307">
        <ele>323</ele>
        <time>2020-06-25T16:23:57Z</time>
      </trkpt>
      <trkpt lat="49.70219" lon="5.21314">
        <ele>323</ele>
        <time>2020-06-25T16:23:58Z</time>
      </trkpt>
      <trkpt lat="49.7022" lon="5.21321">
        <ele>323</ele>
        <time>2020-06-25T16:23:59Z</time>
      </trkpt>
      <trkpt lat="49.7022" lon="5.21327">
        <ele>323</ele>
        <time>2020-06-25T16:24:00Z</time>
      </trkpt>
      <trkpt lat="49.70221" lon="5.21334">
        <ele>323</ele>
        <time>2020-06-25T16:24:01Z</time>
      </trkpt>
      <trkpt lat="49.70222" lon="5.2134">
        <ele>323</ele>
        <time>2020-06-25T16:24:02Z</time>
      </trkpt>
      <trkpt lat="49.70222" lon="5.21347">
        <ele>323.1</ele>
        <time>2020-06-25T16:24:03Z</time>
      </trkpt>
      <trkpt lat="49.70223" lon="5.21354">
        <ele>323.1</ele>
        <time>2020-06-25T16:24:04Z</time>
      </trkpt>
      <trkpt lat="49.70224" lon="5.21361">
        <ele>323.2</ele>
        <time>2020-06-25T16:24:05Z</time>
      </trkpt>
      <trkpt lat="49.70226" lon="5.21368">
        <ele>323.3</ele>
        <time>2020-06-25T16:24:06Z</time>
      </trkpt>
      <trkpt lat="49.70226" lon="5.21373">
        <ele>323.4</ele>
        <time>2020-06-25T16:24:07Z</time>
      </trkpt>
      <trkpt lat="49.70226" lon="5.21379">
        <ele>323.5</ele>
        <time>2020-06-25T16:24:08Z</time>
      </trkpt>
      <trkpt lat="49.70228" lon="5.21385">
        <ele>323.6</ele>
        <time>2020-06-25T16:24:09Z</time>
      </trkpt>
      <trkpt lat="49.70229" lon="5.21392">
        <ele>323.7</ele>
        <time>2020-06-25T16:24:10Z</time>
      </trkpt>
      <trkpt lat="49.7023" lon="5.21398">
        <ele>323.8</ele>
        <time>2020-06-25T16:24:11Z</time>
      </trkpt>
      <trkpt lat="49.70232" lon="5.21405">
        <ele>323.9</ele>
        <time>2020-06-25T16:24:12Z</time>
      </trkpt>
      <trkpt lat="49.70233" lon="5.21412">
        <ele>324</ele>
        <time>2020-06-25T16:24:13Z</time>
      </trkpt>
      <trkpt lat="49.70234" lon="5.21418">
        <ele>324</ele>
        <time>2020-06-25T16:24:14Z</time>
      </trkpt>
      <trkpt lat="49.70235" lon="5.21424">
        <ele>324.1</ele>
        <time>2020-06-25T16:24:15Z</time>
      </trkpt>
      <trkpt lat="49.70236" lon="5.21431">
        <ele>324.2</ele>
        <time>2020-06-25T16:24:16Z</time>
      </trkpt>
      <trkpt lat="49.70238" lon="5.21439">
        <ele>324.3</ele>
        <time>2020-06-25T16:24:17Z</time>
      </trkpt>
      <trkpt lat="49.70239" lon="5.21447">
        <ele>324.4</ele>
        <time>2020-06-25T16:24:18Z</time>
      </trkpt>
      <trkpt lat="49.7024" lon="5.21455">
        <ele>324.5</ele>
        <time>2020-06-25T16:24:19Z</time>
      </trkpt>
      <trkpt lat="49.70241" lon="5.21463">
        <ele>324.6</ele>
        <time>2020-06-25T16:24:20Z</time>
      </trkpt>
      <trkpt lat="49.70243" lon="5.2147">
        <ele>324.8</ele>
        <time>2020-06-25T16:24:21Z</time>
      </trkpt>
      <trkpt lat="49.70244" lon="5.21478">
        <ele>324.9</ele>
        <time>2020-06-25T16:24:22Z</time>
      </trkpt>
      <trkpt lat="49.70245" lon="5.21485">
        <ele>325</ele>
        <time>2020-06-25T16:24:23Z</time>
      </trkpt>
      <trkpt lat="49.70247" lon="5.21491">
        <ele>325.2</ele>
        <time>2020-06-25T16:24:24Z</time>
      </trkpt>
      <trkpt lat="49.70248" lon="5.21499">
        <ele>325.3</ele>
        <time>2020-06-25T16:24:25Z</time>
      </trkpt>
      <trkpt lat="49.7025" lon="5.21506">
        <ele>325.4</ele>
        <time>2020-06-25T16:24:26Z</time>
      </trkpt>
      <trkpt lat="49.70251" lon="5.21513">
        <ele>325.5</ele>
        <time>2020-06-25T16:24:27Z</time>
      </trkpt>
      <trkpt lat="49.70252" lon="5.2152">
        <ele>325.6</ele>
        <time>2020-06-25T16:24:28Z</time>
      </trkpt>
      <trkpt lat="49.70252" lon="5.2153">
        <ele>325.7</ele>
        <time>2020-06-25T16:24:29Z</time>
      </trkpt>
      <trkpt lat="49.70254" lon="5.21537">
        <ele>325.8</ele>
        <time>2020-06-25T16:24:30Z</time>
      </trkpt>
      <trkpt lat="49.70254" lon="5.21545">
        <ele>325.9</ele>
        <time>2020-06-25T16:24:31Z</time>
      </trkpt>
      <trkpt lat="49.70254" lon="5.21552">
        <ele>326.1</ele>
        <time>2020-06-25T16:24:32Z</time>
      </trkpt>
      <trkpt lat="49.70255" lon="5.2156">
        <ele>326.2</ele>
        <time>2020-06-25T16:24:33Z</time>
      </trkpt>
      <trkpt lat="49.70256" lon="5.21567">
        <ele>326.3</ele>
        <time>2020-06-25T16:24:34Z</time>
      </trkpt>
      <trkpt lat="49.70256" lon="5.21574">
        <ele>326.4</ele>
        <time>2020-06-25T16:24:35Z</time>
      </trkpt>
      <trkpt lat="49.70257" lon="5.21581">
        <ele>326.5</ele>
        <time>2020-06-25T16:24:36Z</time>
      </trkpt>
      <trkpt lat="49.70258" lon="5.21587">
        <ele>326.6</ele>
        <time>2020-06-25T16:24:37Z</time>
      </trkpt>
      <trkpt lat="49.7026" lon="5.21593">
        <ele>326.7</ele>
        <time>2020-06-25T16:24:38Z</time>
      </trkpt>
      <trkpt lat="49.70261" lon="5.216">
        <ele>326.8</ele>
        <time>2020-06-25T16:24:39Z</time>
      </trkpt>
      <trkpt lat="49.70263" lon="5.21608">
        <ele>326.9</ele>
        <time>2020-06-25T16:24:40Z</time>
      </trkpt>
      <trkpt lat="49.70264" lon="5.21614">
        <ele>326.9</ele>
        <time>2020-06-25T16:24:41Z</time>
      </trkpt>
      <trkpt lat="49.70265" lon="5.21622">
        <ele>327</ele>
        <time>2020-06-25T16:24:42Z</time>
      </trkpt>
      <trkpt lat="49.70267" lon="5.21629">
        <ele>327.1</ele>
        <time>2020-06-25T16:24:43Z</time>
      </trkpt>
      <trkpt lat="49.70267" lon="5.21637">
        <ele>327.2</ele>
        <time>2020-06-25T16:24:44Z</time>
      </trkpt>
      <trkpt lat="49.70268" lon="5.21645">
        <ele>327.3</ele>
        <time>2020-06-25T16:24:45Z</time>
      </trkpt>
      <trkpt lat="49.70269" lon="5.21652">
        <ele>327.4</ele>
        <time>2020-06-25T16:24:46Z</time>
      </trkpt>
      <trkpt lat="49.7027" lon="5.21659">
        <ele>327.5</ele>
        <time>2020-06-25T16:24:47Z</time>
      </trkpt>
      <trkpt lat="49.7027" lon="5.21666">
        <ele>327.6</ele>
        <time>2020-06-25T16:24:48Z</time>
      </trkpt>
      <trkpt lat="49.70271" lon="5.21672">
        <ele>327.7</ele>
        <time>2020-06-25T16:24:49Z</time>
      </trkpt>
      <trkpt lat="49.70273" lon="5.21679">
        <ele>327.8</ele>
        <time>2020-06-25T16:24:50Z</time>
      </trkpt>
      <trkpt lat="49.70274" lon="5.21686">
        <ele>327.9</ele>
        <time>2020-06-25T16:24:51Z</time>
      </trkpt>
      <trkpt lat="49.70275" lon="5.21694">
        <ele>328.1</ele>
        <time>2020-06-25T16:24:52Z</time>
      </trkpt>
      <trkpt lat="49.70277" lon="5.21701">
        <ele>328.2</ele>
        <time>2020-06-25T16:24:53Z</time>
      </trkpt>
      <trkpt lat="49.70278" lon="5.21708">
        <ele>328.3</ele>
        <time>2020-06-25T16:24:54Z</time>
      </trkpt>
      <trkpt lat="49.70278" lon="5.21714">
        <ele>328.4</ele>
        <time>2020-06-25T16:24:55Z</time>
      </trkpt>
      <trkpt lat="49.70279" lon="5.21721">
        <ele>328.5</ele>
        <time>2020-06-25T16:24:56Z</time>
      </trkpt>
      <trkpt lat="49.7028" lon="5.21728">
        <ele>328.6</ele>
        <time>2020-06-25T16:24:57Z</time>
      </trkpt>
      <trkpt lat="49.7028" lon="5.21734">
        <ele>328.6</ele>
        <time>2020-06-25T16:24:58Z</time>
      </trkpt>
      <trkpt lat="49.70281" lon="5.2174">
        <ele>328.7</ele>
        <time>2020-06-25T16:24:59Z</time>
      </trkpt>
      <trkpt lat="49.70283" lon="5.21747">
        <ele>328.8</ele>
        <time>2020-06-25T16:25:00Z</time>
      </trkpt>
      <trkpt lat="49.70284" lon="5.21753">
        <ele>328.9</ele>
        <time>2020-06-25T16:25:01Z</time>
      </trkpt>
      <trkpt lat="49.70285" lon="5.2176">
        <ele>329.1</ele>
        <time>2020-06-25T16:25:02Z</time>
      </trkpt>
      <trkpt lat="49.70286" lon="5.21767">
        <ele>329.2</ele>
        <time>2020-06-25T16:25:03Z</time>
      </trkpt>
      <trkpt lat="49.70287" lon="5.21774">
        <ele>329.3</ele>
        <time>2020-06-25T16:25:04Z</time>
      </trkpt>
      <trkpt lat="49.70287" lon="5.21781">
        <ele>329.5</ele>
        <time>2020-06-25T16:25:05Z</time>
      </trkpt>
      <trkpt lat="49.70288" lon="5.21788">
        <ele>329.6</ele>
        <time>2020-06-25T16:25:06Z</time>
      </trkpt>
      <trkpt lat="49.7029" lon="5.21794">
        <ele>329.6</ele>
        <time>2020-06-25T16:25:07Z</time>
      </trkpt>
      <trkpt lat="49.70292" lon="5.21801">
        <ele>329.7</ele>
        <time>2020-06-25T16:25:08Z</time>
      </trkpt>
      <trkpt lat="49.70293" lon="5.21809">
        <ele>329.8</ele>
        <time>2020-06-25T16:25:09Z</time>
      </trkpt>
      <trkpt lat="49.70295" lon="5.21816">
        <ele>329.9</ele>
        <time>2020-06-25T16:25:10Z</time>
      </trkpt>
      <trkpt lat="49.70296" lon="5.21822">
        <ele>330</ele>
        <time>2020-06-25T16:25:11Z</time>
      </trkpt>
      <trkpt lat="49.70298" lon="5.2183">
        <ele>330.1</ele>
        <time>2020-06-25T16:25:12Z</time>
      </trkpt>
      <trkpt lat="49.70299" lon="5.21836">
        <ele>330.2</ele>
        <time>2020-06-25T16:25:13Z</time>
      </trkpt>
      <trkpt lat="49.703" lon="5.21843">
        <ele>330.4</ele>
        <time>2020-06-25T16:25:14Z</time>
      </trkpt>
      <trkpt lat="49.70302" lon="5.21849">
        <ele>330.5</ele>
        <time>2020-06-25T16:25:15Z</time>
      </trkpt>
      <trkpt lat="49.70303" lon="5.21855">
        <ele>330.6</ele>
        <time>2020-06-25T16:25:16Z</time>
      </trkpt>
      <trkpt lat="49.70305" lon="5.21861">
        <ele>330.7</ele>
        <time>2020-06-25T16:25:17Z</time>
      </trkpt>
      <trkpt lat="49.70307" lon="5.21867">
        <ele>330.8</ele>
        <time>2020-06-25T16:25:18Z</time>
      </trkpt>
      <trkpt lat="49.70309" lon="5.21872">
        <ele>330.9</ele>
        <time>2020-06-25T16:25:19Z</time>
      </trkpt>
      <trkpt lat="49.70312" lon="5.21878">
        <ele>331</ele>
        <time>2020-06-25T16:25:20Z</time>
      </trkpt>
      <trkpt lat="49.70314" lon="5.21884">
        <ele>331.1</ele>
        <time>2020-06-25T16:25:21Z</time>
      </trkpt>
      <trkpt lat="49.70316" lon="5.2189">
        <ele>331.2</ele>
        <time>2020-06-25T16:25:22Z</time>
      </trkpt>
      <trkpt lat="49.70318" lon="5.21897">
        <ele>331.3</ele>
        <time>2020-06-25T16:25:23Z</time>
      </trkpt>
      <trkpt lat="49.7032" lon="5.21903">
        <ele>331.5</ele>
        <time>2020-06-25T16:25:24Z</time>
      </trkpt>
      <trkpt lat="49.70322" lon="5.21909">
        <ele>331.7</ele>
        <time>2020-06-25T16:25:25Z</time>
      </trkpt>
      <trkpt lat="49.70325" lon="5.21915">
        <ele>332</ele>
        <time>2020-06-25T16:25:26Z</time>
      </trkpt>
      <trkpt lat="49.70328" lon="5.2192">
        <ele>332.2</ele>
        <time>2020-06-25T16:25:27Z</time>
      </trkpt>
      <trkpt lat="49.70331" lon="5.21927">
        <ele>332.5</ele>
        <time>2020-06-25T16:25:28Z</time>
      </trkpt>
      <trkpt lat="49.70334" lon="5.21932">
        <ele>332.6</ele>
        <time>2020-06-25T16:25:29Z</time>
      </trkpt>
      <trkpt lat="49.70337" lon="5.21938">
        <ele>332.7</ele>
        <time>2020-06-25T16:25:30Z</time>
      </trkpt>
      <trkpt lat="49.70341" lon="5.21944">
        <ele>332.8</ele>
        <time>2020-06-25T16:25:31Z</time>
      </trkpt>
      <trkpt lat="49.70343" lon="5.21951">
        <ele>332.9</ele>
        <time>2020-06-25T16:25:32Z</time>
      </trkpt>
      <trkpt lat="49.70346" lon="5.21957">
        <ele>333</ele>
        <time>2020-06-25T16:25:33Z</time>
      </trkpt>
      <trkpt lat="49.70348" lon="5.21963">
        <ele>333.1</ele>
        <time>2020-06-25T16:25:34Z</time>
      </trkpt>
      <trkpt lat="49.70351" lon="5.21968">
        <ele>333.2</ele>
        <time>2020-06-25T16:25:35Z</time>
      </trkpt>
      <trkpt lat="49.70353" lon="5.21974">
        <ele>333.2</ele>
        <time>2020-06-25T16:25:36Z</time>
      </trkpt>
      <trkpt lat="49.70356" lon="5.2198">
        <ele>333.3</ele>
        <time>2020-06-25T16:25:37Z</time>
      </trkpt>
      <trkpt lat="49.70358" lon="5.21986">
        <ele>333.4</ele>
        <time>2020-06-25T16:25:38Z</time>
      </trkpt>
      <trkpt lat="49.70361" lon="5.21991">
        <ele>333.5</ele>
        <time>2020-06-25T16:25:39Z</time>
      </trkpt>
      <trkpt lat="49.70365" lon="5.21997">
        <ele>333.6</ele>
        <time>2020-06-25T16:25:40Z</time>
      </trkpt>
      <trkpt lat="49.70368" lon="5.22003">
        <ele>333.7</ele>
        <time>2020-06-25T16:25:41Z</time>
      </trkpt>
      <trkpt lat="49.70371" lon="5.22008">
        <ele>333.9</ele>
        <time>2020-06-25T16:25:42Z</time>
      </trkpt>
      <trkpt lat="49.70375" lon="5.22014">
        <ele>334</ele>
        <time>2020-06-25T16:25:43Z</time>
      </trkpt>
      <trkpt lat="49.70378" lon="5.2202">
        <ele>334</ele>
        <time>2020-06-25T16:25:44Z</time>
      </trkpt>
      <trkpt lat="49.70381" lon="5.22026">
        <ele>334.1</ele>
        <time>2020-06-25T16:25:45Z</time>
      </trkpt>
      <trkpt lat="49.70384" lon="5.22031">
        <ele>334.1</ele>
        <time>2020-06-25T16:25:46Z</time>
      </trkpt>
      <trkpt lat="49.70386" lon="5.22038">
        <ele>334.1</ele>
        <time>2020-06-25T16:25:47Z</time>
      </trkpt>
      <trkpt lat="49.7039" lon="5.22044">
        <ele>334.2</ele>
        <time>2020-06-25T16:25:48Z</time>
      </trkpt>
      <trkpt lat="49.70393" lon="5.2205">
        <ele>334.2</ele>
        <time>2020-06-25T16:25:49Z</time>
      </trkpt>
      <trkpt lat="49.70396" lon="5.22056">
        <ele>334.2</ele>
        <time>2020-06-25T16:25:50Z</time>
      </trkpt>
      <trkpt lat="49.704" lon="5.22062">
        <ele>334.3</ele>
        <time>2020-06-25T16:25:51Z</time>
      </trkpt>
      <trkpt lat="49.70404" lon="5.22067">
        <ele>334.4</ele>
        <time>2020-06-25T16:25:52Z</time>
      </trkpt>
      <trkpt lat="49.70407" lon="5.22074">
        <ele>334.4</ele>
        <time>2020-06-25T16:25:53Z</time>
      </trkpt>
      <trkpt lat="49.70411" lon="5.2208">
        <ele>334.5</ele>
        <time>2020-06-25T16:25:54Z</time>
      </trkpt>
      <trkpt lat="49.70414" lon="5.22086">
        <ele>334.5</ele>
        <time>2020-06-25T16:25:55Z</time>
      </trkpt>
      <trkpt lat="49.70417" lon="5.22092">
        <ele>334.5</ele>
        <time>2020-06-25T16:25:56Z</time>
      </trkpt>
      <trkpt lat="49.70421" lon="5.22097">
        <ele>334.6</ele>
        <time>2020-06-25T16:25:57Z</time>
      </trkpt>
      <trkpt lat="49.70425" lon="5.22103">
        <ele>334.6</ele>
        <time>2020-06-25T16:25:58Z</time>
      </trkpt>
      <trkpt lat="49.70428" lon="5.22109">
        <ele>334.6</ele>
        <time>2020-06-25T16:25:59Z</time>
      </trkpt>
      <trkpt lat="49.70432" lon="5.22115">
        <ele>334.7</ele>
        <time>2020-06-25T16:26:00Z</time>
      </trkpt>
      <trkpt lat="49.70435" lon="5.22121">
        <ele>334.7</ele>
        <time>2020-06-25T16:26:01Z</time>
      </trkpt>
      <trkpt lat="49.70438" lon="5.22127">
        <ele>334.8</ele>
        <time>2020-06-25T16:26:02Z</time>
      </trkpt>
      <trkpt lat="49.70441" lon="5.22133">
        <ele>334.8</ele>
        <time>2020-06-25T16:26:03Z</time>
      </trkpt>
      <trkpt lat="49.70444" lon="5.2214">
        <ele>334.8</ele>
        <time>2020-06-25T16:26:04Z</time>
      </trkpt>
      <trkpt lat="49.70448" lon="5.22145">
        <ele>334.9</ele>
        <time>2020-06-25T16:26:05Z</time>
      </trkpt>
      <trkpt lat="49.7045" lon="5.22151">
        <ele>334.9</ele>
        <time>2020-06-25T16:26:06Z</time>
      </trkpt>
      <trkpt lat="49.70454" lon="5.22157">
        <ele>335</ele>
        <time>2020-06-25T16:26:07Z</time>
      </trkpt>
      <trkpt lat="49.70457" lon="5.22163">
        <ele>335</ele>
        <time>2020-06-25T16:26:08Z</time>
      </trkpt>
      <trkpt lat="49.7046" lon="5.22169">
        <ele>335.1</ele>
        <time>2020-06-25T16:26:09Z</time>
      </trkpt>
      <trkpt lat="49.70463" lon="5.22175">
        <ele>335.1</ele>
        <time>2020-06-25T16:26:10Z</time>
      </trkpt>
      <trkpt lat="49.70467" lon="5.22181">
        <ele>335.2</ele>
        <time>2020-06-25T16:26:11Z</time>
      </trkpt>
      <trkpt lat="49.7047" lon="5.22187">
        <ele>335.3</ele>
        <time>2020-06-25T16:26:12Z</time>
      </trkpt>
      <trkpt lat="49.70473" lon="5.22192">
        <ele>335.3</ele>
        <time>2020-06-25T16:26:13Z</time>
      </trkpt>
      <trkpt lat="49.70477" lon="5.22197">
        <ele>335.4</ele>
        <time>2020-06-25T16:26:14Z</time>
      </trkpt>
      <trkpt lat="49.7048" lon="5.22202">
        <ele>335.5</ele>
        <time>2020-06-25T16:26:15Z</time>
      </trkpt>
      <trkpt lat="49.70483" lon="5.22206">
        <ele>335.6</ele>
        <time>2020-06-25T16:26:16Z</time>
      </trkpt>
      <trkpt lat="49.70486" lon="5.22211">
        <ele>335.6</ele>
        <time>2020-06-25T16:26:17Z</time>
      </trkpt>
      <trkpt lat="49.70489" lon="5.22216">
        <ele>335.7</ele>
        <time>2020-06-25T16:26:18Z</time>
      </trkpt>
      <trkpt lat="49.70492" lon="5.22222">
        <ele>335.8</ele>
        <time>2020-06-25T16:26:19Z</time>
      </trkpt>
      <trkpt lat="49.70496" lon="5.22228">
        <ele>335.9</ele>
        <time>2020-06-25T16:26:20Z</time>
      </trkpt>
      <trkpt lat="49.70499" lon="5.22234">
        <ele>336</ele>
        <time>2020-06-25T16:26:21Z</time>
      </trkpt>
      <trkpt lat="49.70502" lon="5.22241">
        <ele>336.1</ele>
        <time>2020-06-25T16:26:22Z</time>
      </trkpt>
      <trkpt lat="49.70506" lon="5.22247">
        <ele>336.2</ele>
        <time>2020-06-25T16:26:23Z</time>
      </trkpt>
      <trkpt lat="49.7051" lon="5.22252">
        <ele>336.2</ele>
        <time>2020-06-25T16:26:24Z</time>
      </trkpt>
      <trkpt lat="49.70512" lon="5.22258">
        <ele>336.3</ele>
        <time>2020-06-25T16:26:25Z</time>
      </trkpt>
      <trkpt lat="49.70516" lon="5.22264">
        <ele>336.3</ele>
        <time>2020-06-25T16:26:26Z</time>
      </trkpt>
      <trkpt lat="49.70519" lon="5.22269">
        <ele>336.3</ele>
        <time>2020-06-25T16:26:27Z</time>
      </trkpt>
      <trkpt lat="49.70522" lon="5.22275">
        <ele>336.3</ele>
        <time>2020-06-25T16:26:28Z</time>
      </trkpt>
      <trkpt lat="49.70525" lon="5.22281">
        <ele>336.3</ele>
        <time>2020-06-25T16:26:29Z</time>
      </trkpt>
      <trkpt lat="49.70528" lon="5.22288">
        <ele>336.4</ele>
        <time>2020-06-25T16:26:30Z</time>
      </trkpt>
      <trkpt lat="49.70532" lon="5.22295">
        <ele>336.4</ele>
        <time>2020-06-25T16:26:31Z</time>
      </trkpt>
      <trkpt lat="49.70536" lon="5.22301">
        <ele>336.4</ele>
        <time>2020-06-25T16:26:32Z</time>
      </trkpt>
      <trkpt lat="49.7054" lon="5.22307">
        <ele>336.5</ele>
        <time>2020-06-25T16:26:33Z</time>
      </trkpt>
      <trkpt lat="49.70543" lon="5.22313">
        <ele>336.5</ele>
        <time>2020-06-25T16:26:34Z</time>
      </trkpt>
      <trkpt lat="49.70547" lon="5.2232">
        <ele>336.6</ele>
        <time>2020-06-25T16:26:35Z</time>
      </trkpt>
      <trkpt lat="49.70549" lon="5.22326">
        <ele>336.7</ele>
        <time>2020-06-25T16:26:36Z</time>
      </trkpt>
      <trkpt lat="49.70552" lon="5.22332">
        <ele>336.8</ele>
        <time>2020-06-25T16:26:37Z</time>
      </trkpt>
      <trkpt lat="49.70555" lon="5.22338">
        <ele>336.8</ele>
        <time>2020-06-25T16:26:38Z</time>
      </trkpt>
      <trkpt lat="49.70559" lon="5.22344">
        <ele>336.9</ele>
        <time>2020-06-25T16:26:39Z</time>
      </trkpt>
      <trkpt lat="49.70562" lon="5.22352">
        <ele>337</ele>
        <time>2020-06-25T16:26:40Z</time>
      </trkpt>
      <trkpt lat="49.70566" lon="5.22358">
        <ele>337.1</ele>
        <time>2020-06-25T16:26:41Z</time>
      </trkpt>
      <trkpt lat="49.70569" lon="5.22365">
        <ele>337.2</ele>
        <time>2020-06-25T16:26:42Z</time>
      </trkpt>
      <trkpt lat="49.70573" lon="5.2237">
        <ele>337.3</ele>
        <time>2020-06-25T16:26:43Z</time>
      </trkpt>
      <trkpt lat="49.70576" lon="5.22376">
        <ele>337.3</ele>
        <time>2020-06-25T16:26:44Z</time>
      </trkpt>
      <trkpt lat="49.70579" lon="5.22381">
        <ele>337.4</ele>
        <time>2020-06-25T16:26:45Z</time>
      </trkpt>
      <trkpt lat="49.70582" lon="5.22386">
        <ele>337.4</ele>
        <time>2020-06-25T16:26:46Z</time>
      </trkpt>
      <trkpt lat="49.70586" lon="5.22392">
        <ele>337.5</ele>
        <time>2020-06-25T16:26:47Z</time>
      </trkpt>
      <trkpt lat="49.70589" lon="5.22398">
        <ele>337.5</ele>
        <time>2020-06-25T16:26:48Z</time>
      </trkpt>
      <trkpt lat="49.70593" lon="5.22404">
        <ele>337.5</ele>
        <time>2020-06-25T16:26:49Z</time>
      </trkpt>
      <trkpt lat="49.70596" lon="5.2241">
        <ele>337.6</ele>
        <time>2020-06-25T16:26:50Z</time>
      </trkpt>
      <trkpt lat="49.70601" lon="5.22413">
        <ele>337.7</ele>
        <time>2020-06-25T16:26:51Z</time>
      </trkpt>
      <trkpt lat="49.70604" lon="5.22419">
        <ele>337.7</ele>
        <time>2020-06-25T16:26:52Z</time>
      </trkpt>
      <trkpt lat="49.70607" lon="5.22425">
        <ele>337.8</ele>
        <time>2020-06-25T16:26:53Z</time>
      </trkpt>
      <trkpt lat="49.7061" lon="5.2243">
        <ele>337.8</ele>
        <time>2020-06-25T16:26:54Z</time>
      </trkpt>
      <trkpt lat="49.70614" lon="5.22436">
        <ele>337.9</ele>
        <time>2020-06-25T16:26:55Z</time>
      </trkpt>
      <trkpt lat="49.70617" lon="5.22442">
        <ele>338</ele>
        <time>2020-06-25T16:26:56Z</time>
      </trkpt>
      <trkpt lat="49.70621" lon="5.22449">
        <ele>338.1</ele>
        <time>2020-06-25T16:26:57Z</time>
      </trkpt>
      <trkpt lat="49.70623" lon="5.22456">
        <ele>338.3</ele>
        <time>2020-06-25T16:26:58Z</time>
      </trkpt>
      <trkpt lat="49.70626" lon="5.22463">
        <ele>338.4</ele>
        <time>2020-06-25T16:26:59Z</time>
      </trkpt>
      <trkpt lat="49.70629" lon="5.2247">
        <ele>338.4</ele>
        <time>2020-06-25T16:27:00Z</time>
      </trkpt>
      <trkpt lat="49.70632" lon="5.22476">
        <ele>338.5</ele>
        <time>2020-06-25T16:27:01Z</time>
      </trkpt>
      <trkpt lat="49.70636" lon="5.22481">
        <ele>338.5</ele>
        <time>2020-06-25T16:27:02Z</time>
      </trkpt>
      <trkpt lat="49.70639" lon="5.22485">
        <ele>338.6</ele>
        <time>2020-06-25T16:27:03Z</time>
      </trkpt>
      <trkpt lat="49.70642" lon="5.2249">
        <ele>338.6</ele>
        <time>2020-06-25T16:27:04Z</time>
      </trkpt>
      <trkpt lat="49.70645" lon="5.22496">
        <ele>338.7</ele>
        <time>2020-06-25T16:27:05Z</time>
      </trkpt>
      <trkpt lat="49.70648" lon="5.22502">
        <ele>338.7</ele>
        <time>2020-06-25T16:27:06Z</time>
      </trkpt>
      <trkpt lat="49.70652" lon="5.22508">
        <ele>338.8</ele>
        <time>2020-06-25T16:27:07Z</time>
      </trkpt>
      <trkpt lat="49.70656" lon="5.22514">
        <ele>338.9</ele>
        <time>2020-06-25T16:27:08Z</time>
      </trkpt>
      <trkpt lat="49.70659" lon="5.22521">
        <ele>339</ele>
        <time>2020-06-25T16:27:09Z</time>
      </trkpt>
      <trkpt lat="49.70663" lon="5.22527">
        <ele>339.1</ele>
        <time>2020-06-25T16:27:10Z</time>
      </trkpt>
      <trkpt lat="49.70667" lon="5.22531">
        <ele>339</ele>
        <time>2020-06-25T16:27:11Z</time>
      </trkpt>
      <trkpt lat="49.7067" lon="5.22536">
        <ele>338.8</ele>
        <time>2020-06-25T16:27:12Z</time>
      </trkpt>
      <trkpt lat="49.70674" lon="5.22541">
        <ele>338.1</ele>
        <time>2020-06-25T16:27:13Z</time>
      </trkpt>
      <trkpt lat="49.70677" lon="5.22546">
        <ele>338.1</ele>
        <time>2020-06-25T16:27:14Z</time>
      </trkpt>
      <trkpt lat="49.7068" lon="5.22551">
        <ele>338.1</ele>
        <time>2020-06-25T16:27:15Z</time>
      </trkpt>
      <trkpt lat="49.70683" lon="5.22557">
        <ele>338.1</ele>
        <time>2020-06-25T16:27:16Z</time>
      </trkpt>
      <trkpt lat="49.70686" lon="5.22563">
        <ele>338.2</ele>
        <time>2020-06-25T16:27:17Z</time>
      </trkpt>
      <trkpt lat="49.7069" lon="5.22568">
        <ele>338.2</ele>
        <time>2020-06-25T16:27:18Z</time>
      </trkpt>
      <trkpt lat="49.70694" lon="5.22575">
        <ele>338.3</ele>
        <time>2020-06-25T16:27:19Z</time>
      </trkpt>
      <trkpt lat="49.70697" lon="5.22582">
        <ele>338.3</ele>
        <time>2020-06-25T16:27:20Z</time>
      </trkpt>
      <trkpt lat="49.707" lon="5.22588">
        <ele>338.3</ele>
        <time>2020-06-25T16:27:21Z</time>
      </trkpt>
      <trkpt lat="49.70703" lon="5.22595">
        <ele>338.4</ele>
        <time>2020-06-25T16:27:22Z</time>
      </trkpt>
      <trkpt lat="49.70706" lon="5.226">
        <ele>338.4</ele>
        <time>2020-06-25T16:27:23Z</time>
      </trkpt>
      <trkpt lat="49.70709" lon="5.22604">
        <ele>338.5</ele>
        <time>2020-06-25T16:27:24Z</time>
      </trkpt>
      <trkpt lat="49.70712" lon="5.22609">
        <ele>338.5</ele>
        <time>2020-06-25T16:27:25Z</time>
      </trkpt>
      <trkpt lat="49.70715" lon="5.22615">
        <ele>338.6</ele>
        <time>2020-06-25T16:27:26Z</time>
      </trkpt>
      <trkpt lat="49.7072" lon="5.2262">
        <ele>338.7</ele>
        <time>2020-06-25T16:27:27Z</time>
      </trkpt>
      <trkpt lat="49.70723" lon="5.22627">
        <ele>338.8</ele>
        <time>2020-06-25T16:27:28Z</time>
      </trkpt>
      <trkpt lat="49.70727" lon="5.22633">
        <ele>338.9</ele>
        <time>2020-06-25T16:27:29Z</time>
      </trkpt>
      <trkpt lat="49.70731" lon="5.22639">
        <ele>339</ele>
        <time>2020-06-25T16:27:30Z</time>
      </trkpt>
      <trkpt lat="49.70735" lon="5.22645">
        <ele>339.1</ele>
        <time>2020-06-25T16:27:31Z</time>
      </trkpt>
      <trkpt lat="49.70738" lon="5.2265">
        <ele>339.3</ele>
        <time>2020-06-25T16:27:32Z</time>
      </trkpt>
      <trkpt lat="49.70741" lon="5.22656">
        <ele>339.4</ele>
        <time>2020-06-25T16:27:33Z</time>
      </trkpt>
      <trkpt lat="49.70744" lon="5.22663">
        <ele>339.5</ele>
        <time>2020-06-25T16:27:34Z</time>
      </trkpt>
      <trkpt lat="49.70747" lon="5.2267">
        <ele>339.7</ele>
        <time>2020-06-25T16:27:35Z</time>
      </trkpt>
      <trkpt lat="49.7075" lon="5.22677">
        <ele>339.8</ele>
        <time>2020-06-25T16:27:36Z</time>
      </trkpt>
      <trkpt lat="49.70753" lon="5.22685">
        <ele>340</ele>
        <time>2020-06-25T16:27:37Z</time>
      </trkpt>
      <trkpt lat="49.70757" lon="5.22693">
        <ele>339.9</ele>
        <time>2020-06-25T16:27:38Z</time>
      </trkpt>
      <trkpt lat="49.7076" lon="5.22701">
        <ele>339.8</ele>
        <time>2020-06-25T16:27:39Z</time>
      </trkpt>
      <trkpt lat="49.70765" lon="5.22708">
        <ele>339.8</ele>
        <time>2020-06-25T16:27:40Z</time>
      </trkpt>
      <trkpt lat="49.70769" lon="5.22714">
        <ele>339.8</ele>
        <time>2020-06-25T16:27:41Z</time>
      </trkpt>
      <trkpt lat="49.70772" lon="5.22721">
        <ele>339.9</ele>
        <time>2020-06-25T16:27:42Z</time>
      </trkpt>
      <trkpt lat="49.70775" lon="5.22728">
        <ele>339.9</ele>
        <time>2020-06-25T16:27:43Z</time>
      </trkpt>
      <trkpt lat="49.70778" lon="5.22735">
        <ele>340</ele>
        <time>2020-06-25T16:27:44Z</time>
      </trkpt>
      <trkpt lat="49.70782" lon="5.22742">
        <ele>340.1</ele>
        <time>2020-06-25T16:27:45Z</time>
      </trkpt>
      <trkpt lat="49.70785" lon="5.22748">
        <ele>340.1</ele>
        <time>2020-06-25T16:27:46Z</time>
      </trkpt>
      <trkpt lat="49.70789" lon="5.22754">
        <ele>340.2</ele>
        <time>2020-06-25T16:27:47Z</time>
      </trkpt>
      <trkpt lat="49.70793" lon="5.22759">
        <ele>340.4</ele>
        <time>2020-06-25T16:27:48Z</time>
      </trkpt>
      <trkpt lat="49.70797" lon="5.22764">
        <ele>340.6</ele>
        <time>2020-06-25T16:27:49Z</time>
      </trkpt>
      <trkpt lat="49.708" lon="5.22769">
        <ele>340.7</ele>
        <time>2020-06-25T16:27:50Z</time>
      </trkpt>
      <trkpt lat="49.70803" lon="5.22774">
        <ele>340.9</ele>
        <time>2020-06-25T16:27:51Z</time>
      </trkpt>
      <trkpt lat="49.70805" lon="5.2278">
        <ele>341</ele>
        <time>2020-06-25T16:27:52Z</time>
      </trkpt>
      <trkpt lat="49.70809" lon="5.22786">
        <ele>341.1</ele>
        <time>2020-06-25T16:27:53Z</time>
      </trkpt>
      <trkpt lat="49.70812" lon="5.22792">
        <ele>341.1</ele>
        <time>2020-06-25T16:27:54Z</time>
      </trkpt>
      <trkpt lat="49.70815" lon="5.22799">
        <ele>341.2</ele>
        <time>2020-06-25T16:27:55Z</time>
      </trkpt>
      <trkpt lat="49.70818" lon="5.22805">
        <ele>341.3</ele>
        <time>2020-06-25T16:27:56Z</time>
      </trkpt>
      <trkpt lat="49.70821" lon="5.2281">
        <ele>341.4</ele>
        <time>2020-06-25T16:27:57Z</time>
      </trkpt>
      <trkpt lat="49.70824" lon="5.22816">
        <ele>341.6</ele>
        <time>2020-06-25T16:27:58Z</time>
      </trkpt>
      <trkpt lat="49.70828" lon="5.22822">
        <ele>341.7</ele>
        <time>2020-06-25T16:27:59Z</time>
      </trkpt>
      <trkpt lat="49.7083" lon="5.22827">
        <ele>341.8</ele>
        <time>2020-06-25T16:28:00Z</time>
      </trkpt>
      <trkpt lat="49.70833" lon="5.22832">
        <ele>341.9</ele>
        <time>2020-06-25T16:28:01Z</time>
      </trkpt>
      <trkpt lat="49.70837" lon="5.22838">
        <ele>342</ele>
        <time>2020-06-25T16:28:02Z</time>
      </trkpt>
      <trkpt lat="49.7084" lon="5.22844">
        <ele>342.2</ele>
        <time>2020-06-25T16:28:03Z</time>
      </trkpt>
      <trkpt lat="49.70843" lon="5.2285">
        <ele>342.3</ele>
        <time>2020-06-25T16:28:04Z</time>
      </trkpt>
      <trkpt lat="49.70845" lon="5.22856">
        <ele>342.4</ele>
        <time>2020-06-25T16:28:05Z</time>
      </trkpt>
      <trkpt lat="49.70848" lon="5.2286">
        <ele>342.5</ele>
        <time>2020-06-25T16:28:06Z</time>
      </trkpt>
      <trkpt lat="49.70851" lon="5.22865">
        <ele>342.6</ele>
        <time>2020-06-25T16:28:07Z</time>
      </trkpt>
      <trkpt lat="49.70853" lon="5.22871">
        <ele>342.7</ele>
        <time>2020-06-25T16:28:08Z</time>
      </trkpt>
      <trkpt lat="49.70855" lon="5.22877">
        <ele>342.9</ele>
        <time>2020-06-25T16:28:09Z</time>
      </trkpt>
      <trkpt lat="49.70857" lon="5.22883">
        <ele>343</ele>
        <time>2020-06-25T16:28:10Z</time>
      </trkpt>
      <trkpt lat="49.70859" lon="5.22888">
        <ele>343.2</ele>
        <time>2020-06-25T16:28:11Z</time>
      </trkpt>
      <trkpt lat="49.70861" lon="5.22895">
        <ele>343.3</ele>
        <time>2020-06-25T16:28:12Z</time>
      </trkpt>
      <trkpt lat="49.70864" lon="5.229">
        <ele>343.4</ele>
        <time>2020-06-25T16:28:13Z</time>
      </trkpt>
      <trkpt lat="49.70866" lon="5.22906">
        <ele>343.5</ele>
        <time>2020-06-25T16:28:14Z</time>
      </trkpt>
      <trkpt lat="49.70867" lon="5.22912">
        <ele>343.7</ele>
        <time>2020-06-25T16:28:15Z</time>
      </trkpt>
      <trkpt lat="49.70868" lon="5.22918">
        <ele>343.8</ele>
        <time>2020-06-25T16:28:16Z</time>
      </trkpt>
      <trkpt lat="49.70868" lon="5.22925">
        <ele>343.9</ele>
        <time>2020-06-25T16:28:17Z</time>
      </trkpt>
      <trkpt lat="49.70869" lon="5.22932">
        <ele>344</ele>
        <time>2020-06-25T16:28:18Z</time>
      </trkpt>
      <trkpt lat="49.70871" lon="5.22937">
        <ele>344.1</ele>
        <time>2020-06-25T16:28:19Z</time>
      </trkpt>
      <trkpt lat="49.70873" lon="5.22943">
        <ele>344.2</ele>
        <time>2020-06-25T16:28:20Z</time>
      </trkpt>
      <trkpt lat="49.70874" lon="5.22949">
        <ele>344.3</ele>
        <time>2020-06-25T16:28:21Z</time>
      </trkpt>
      <trkpt lat="49.70875" lon="5.22956">
        <ele>344.4</ele>
        <time>2020-06-25T16:28:22Z</time>
      </trkpt>
      <trkpt lat="49.70876" lon="5.22963">
        <ele>344.5</ele>
        <time>2020-06-25T16:28:23Z</time>
      </trkpt>
      <trkpt lat="49.70876" lon="5.2297">
        <ele>344.6</ele>
        <time>2020-06-25T16:28:24Z</time>
      </trkpt>
      <trkpt lat="49.70876" lon="5.22977">
        <ele>344.6</ele>
        <time>2020-06-25T16:28:25Z</time>
      </trkpt>
      <trkpt lat="49.70876" lon="5.22983">
        <ele>344.7</ele>
        <time>2020-06-25T16:28:26Z</time>
      </trkpt>
      <trkpt lat="49.70875" lon="5.22991">
        <ele>344.8</ele>
        <time>2020-06-25T16:28:27Z</time>
      </trkpt>
      <trkpt lat="49.70875" lon="5.22998">
        <ele>344.9</ele>
        <time>2020-06-25T16:28:28Z</time>
      </trkpt>
      <trkpt lat="49.70875" lon="5.23006">
        <ele>344.9</ele>
        <time>2020-06-25T16:28:29Z</time>
      </trkpt>
      <trkpt lat="49.70875" lon="5.23013">
        <ele>345</ele>
        <time>2020-06-25T16:28:30Z</time>
      </trkpt>
      <trkpt lat="49.70874" lon="5.2302">
        <ele>345.1</ele>
        <time>2020-06-25T16:28:31Z</time>
      </trkpt>
      <trkpt lat="49.70874" lon="5.23027">
        <ele>345.2</ele>
        <time>2020-06-25T16:28:32Z</time>
      </trkpt>
      <trkpt lat="49.70874" lon="5.23033">
        <ele>345.2</ele>
        <time>2020-06-25T16:28:33Z</time>
      </trkpt>
      <trkpt lat="49.70874" lon="5.23039">
        <ele>345.3</ele>
        <time>2020-06-25T16:28:34Z</time>
      </trkpt>
      <trkpt lat="49.70873" lon="5.23045">
        <ele>345.3</ele>
        <time>2020-06-25T16:28:35Z</time>
      </trkpt>
      <trkpt lat="49.70873" lon="5.23052">
        <ele>345.4</ele>
        <time>2020-06-25T16:28:36Z</time>
      </trkpt>
      <trkpt lat="49.70872" lon="5.23058">
        <ele>345.4</ele>
        <time>2020-06-25T16:28:37Z</time>
      </trkpt>
      <trkpt lat="49.70872" lon="5.23065">
        <ele>345.4</ele>
        <time>2020-06-25T16:28:38Z</time>
      </trkpt>
      <trkpt lat="49.70871" lon="5.23073">
        <ele>345.5</ele>
        <time>2020-06-25T16:28:39Z</time>
      </trkpt>
      <trkpt lat="49.7087" lon="5.23081">
        <ele>345.5</ele>
        <time>2020-06-25T16:28:40Z</time>
      </trkpt>
      <trkpt lat="49.70869" lon="5.23088">
        <ele>345.6</ele>
        <time>2020-06-25T16:28:41Z</time>
      </trkpt>
      <trkpt lat="49.70869" lon="5.23094">
        <ele>345.7</ele>
        <time>2020-06-25T16:28:42Z</time>
      </trkpt>
      <trkpt lat="49.70868" lon="5.23102">
        <ele>345.7</ele>
        <time>2020-06-25T16:28:43Z</time>
      </trkpt>
      <trkpt lat="49.70868" lon="5.2311">
        <ele>345.8</ele>
        <time>2020-06-25T16:28:44Z</time>
      </trkpt>
      <trkpt lat="49.70867" lon="5.23117">
        <ele>345.9</ele>
        <time>2020-06-25T16:28:45Z</time>
      </trkpt>
      <trkpt lat="49.70867" lon="5.23125">
        <ele>346</ele>
        <time>2020-06-25T16:28:46Z</time>
      </trkpt>
      <trkpt lat="49.70867" lon="5.23133">
        <ele>346</ele>
        <time>2020-06-25T16:28:47Z</time>
      </trkpt>
      <trkpt lat="49.70867" lon="5.23141">
        <ele>346.1</ele>
        <time>2020-06-25T16:28:48Z</time>
      </trkpt>
      <trkpt lat="49.70867" lon="5.23148">
        <ele>346.1</ele>
        <time>2020-06-25T16:28:49Z</time>
      </trkpt>
      <trkpt lat="49.70867" lon="5.23156">
        <ele>346.2</ele>
        <time>2020-06-25T16:28:50Z</time>
      </trkpt>
      <trkpt lat="49.70866" lon="5.23162">
        <ele>346.2</ele>
        <time>2020-06-25T16:28:51Z</time>
      </trkpt>
      <trkpt lat="49.70866" lon="5.23169">
        <ele>346.1</ele>
        <time>2020-06-25T16:28:52Z</time>
      </trkpt>
      <trkpt lat="49.70866" lon="5.23177">
        <ele>346</ele>
        <time>2020-06-25T16:28:53Z</time>
      </trkpt>
      <trkpt lat="49.70866" lon="5.23185">
        <ele>345.8</ele>
        <time>2020-06-25T16:28:54Z</time>
      </trkpt>
      <trkpt lat="49.70866" lon="5.23192">
        <ele>345.8</ele>
        <time>2020-06-25T16:28:55Z</time>
      </trkpt>
      <trkpt lat="49.70865" lon="5.232">
        <ele>345.7</ele>
        <time>2020-06-25T16:28:56Z</time>
      </trkpt>
      <trkpt lat="49.70865" lon="5.23206">
        <ele>345.7</ele>
        <time>2020-06-25T16:28:57Z</time>
      </trkpt>
      <trkpt lat="49.70865" lon="5.23213">
        <ele>345.7</ele>
        <time>2020-06-25T16:28:58Z</time>
      </trkpt>
      <trkpt lat="49.70865" lon="5.2322">
        <ele>345.6</ele>
        <time>2020-06-25T16:28:59Z</time>
      </trkpt>
      <trkpt lat="49.70865" lon="5.23226">
        <ele>345.6</ele>
        <time>2020-06-25T16:29:00Z</time>
      </trkpt>
      <trkpt lat="49.70865" lon="5.23234">
        <ele>345.7</ele>
        <time>2020-06-25T16:29:01Z</time>
      </trkpt>
      <trkpt lat="49.70865" lon="5.23241">
        <ele>345.7</ele>
        <time>2020-06-25T16:29:02Z</time>
      </trkpt>
      <trkpt lat="49.70864" lon="5.23248">
        <ele>345.7</ele>
        <time>2020-06-25T16:29:03Z</time>
      </trkpt>
      <trkpt lat="49.70864" lon="5.23256">
        <ele>345.7</ele>
        <time>2020-06-25T16:29:04Z</time>
      </trkpt>
      <trkpt lat="49.70864" lon="5.23263">
        <ele>345.7</ele>
        <time>2020-06-25T16:29:05Z</time>
      </trkpt>
      <trkpt lat="49.70865" lon="5.23271">
        <ele>345.8</ele>
        <time>2020-06-25T16:29:06Z</time>
      </trkpt>
      <trkpt lat="49.70864" lon="5.23278">
        <ele>345.8</ele>
        <time>2020-06-25T16:29:07Z</time>
      </trkpt>
      <trkpt lat="49.70863" lon="5.23286">
        <ele>345.9</ele>
        <time>2020-06-25T16:29:08Z</time>
      </trkpt>
      <trkpt lat="49.70862" lon="5.23294">
        <ele>346</ele>
        <time>2020-06-25T16:29:09Z</time>
      </trkpt>
      <trkpt lat="49.70861" lon="5.23302">
        <ele>346.1</ele>
        <time>2020-06-25T16:29:10Z</time>
      </trkpt>
      <trkpt lat="49.70861" lon="5.23309">
        <ele>346.2</ele>
        <time>2020-06-25T16:29:11Z</time>
      </trkpt>
      <trkpt lat="49.70861" lon="5.23317">
        <ele>346.3</ele>
        <time>2020-06-25T16:29:12Z</time>
      </trkpt>
      <trkpt lat="49.7086" lon="5.23326">
        <ele>346.3</ele>
        <time>2020-06-25T16:29:13Z</time>
      </trkpt>
      <trkpt lat="49.7086" lon="5.23335">
        <ele>346.4</ele>
        <time>2020-06-25T16:29:14Z</time>
      </trkpt>
      <trkpt lat="49.70859" lon="5.23343">
        <ele>346.5</ele>
        <time>2020-06-25T16:29:15Z</time>
      </trkpt>
      <trkpt lat="49.70859" lon="5.23351">
        <ele>346.5</ele>
        <time>2020-06-25T16:29:16Z</time>
      </trkpt>
      <trkpt lat="49.70859" lon="5.23359">
        <ele>346.6</ele>
        <time>2020-06-25T16:29:17Z</time>
      </trkpt>
      <trkpt lat="49.7086" lon="5.23367">
        <ele>346.6</ele>
        <time>2020-06-25T16:29:18Z</time>
      </trkpt>
      <trkpt lat="49.7086" lon="5.23376">
        <ele>346.7</ele>
        <time>2020-06-25T16:29:19Z</time>
      </trkpt>
      <trkpt lat="49.70861" lon="5.23385">
        <ele>346.7</ele>
        <time>2020-06-25T16:29:20Z</time>
      </trkpt>
      <trkpt lat="49.70861" lon="5.23394">
        <ele>346.8</ele>
        <time>2020-06-25T16:29:21Z</time>
      </trkpt>
      <trkpt lat="49.7086" lon="5.23401">
        <ele>346.9</ele>
        <time>2020-06-25T16:29:22Z</time>
      </trkpt>
      <trkpt lat="49.70859" lon="5.23409">
        <ele>347</ele>
        <time>2020-06-25T16:29:23Z</time>
      </trkpt>
      <trkpt lat="49.70858" lon="5.23419">
        <ele>347.2</ele>
        <time>2020-06-25T16:29:24Z</time>
      </trkpt>
      <trkpt lat="49.70858" lon="5.23428">
        <ele>347.3</ele>
        <time>2020-06-25T16:29:25Z</time>
      </trkpt>
      <trkpt lat="49.70858" lon="5.23435">
        <ele>347.4</ele>
        <time>2020-06-25T16:29:26Z</time>
      </trkpt>
      <trkpt lat="49.70858" lon="5.23444">
        <ele>347.5</ele>
        <time>2020-06-25T16:29:27Z</time>
      </trkpt>
      <trkpt lat="49.70857" lon="5.23452">
        <ele>347.6</ele>
        <time>2020-06-25T16:29:28Z</time>
      </trkpt>
      <trkpt lat="49.70857" lon="5.23461">
        <ele>347.7</ele>
        <time>2020-06-25T16:29:29Z</time>
      </trkpt>
      <trkpt lat="49.70856" lon="5.23469">
        <ele>347.8</ele>
        <time>2020-06-25T16:29:30Z</time>
      </trkpt>
      <trkpt lat="49.70855" lon="5.23476">
        <ele>348</ele>
        <time>2020-06-25T16:29:31Z</time>
      </trkpt>
      <trkpt lat="49.70854" lon="5.23483">
        <ele>348.1</ele>
        <time>2020-06-25T16:29:32Z</time>
      </trkpt>
      <trkpt lat="49.70853" lon="5.23491">
        <ele>348.2</ele>
        <time>2020-06-25T16:29:33Z</time>
      </trkpt>
      <trkpt lat="49.70853" lon="5.23499">
        <ele>348.3</ele>
        <time>2020-06-25T16:29:34Z</time>
      </trkpt>
      <trkpt lat="49.70853" lon="5.23507">
        <ele>348.4</ele>
        <time>2020-06-25T16:29:35Z</time>
      </trkpt>
      <trkpt lat="49.70852" lon="5.23516">
        <ele>348.5</ele>
        <time>2020-06-25T16:29:36Z</time>
      </trkpt>
      <trkpt lat="49.70852" lon="5.23524">
        <ele>348.7</ele>
        <time>2020-06-25T16:29:37Z</time>
      </trkpt>
      <trkpt lat="49.70851" lon="5.23534">
        <ele>348.8</ele>
        <time>2020-06-25T16:29:38Z</time>
      </trkpt>
      <trkpt lat="49.7085" lon="5.23543">
        <ele>348.8</ele>
        <time>2020-06-25T16:29:39Z</time>
      </trkpt>
      <trkpt lat="49.7085" lon="5.23553">
        <ele>348.9</ele>
        <time>2020-06-25T16:29:40Z</time>
      </trkpt>
      <trkpt lat="49.70851" lon="5.23561">
        <ele>348.9</ele>
        <time>2020-06-25T16:29:41Z</time>
      </trkpt>
      <trkpt lat="49.70851" lon="5.2357">
        <ele>348.9</ele>
        <time>2020-06-25T16:29:42Z</time>
      </trkpt>
      <trkpt lat="49.7085" lon="5.23579">
        <ele>349</ele>
        <time>2020-06-25T16:29:43Z</time>
      </trkpt>
      <trkpt lat="49.7085" lon="5.23587">
        <ele>349</ele>
        <time>2020-06-25T16:29:44Z</time>
      </trkpt>
      <trkpt lat="49.70849" lon="5.23596">
        <ele>349.1</ele>
        <time>2020-06-25T16:29:45Z</time>
      </trkpt>
      <trkpt lat="49.70849" lon="5.23604">
        <ele>349.1</ele>
        <time>2020-06-25T16:29:46Z</time>
      </trkpt>
      <trkpt lat="49.70848" lon="5.23612">
        <ele>349.2</ele>
        <time>2020-06-25T16:29:47Z</time>
      </trkpt>
      <trkpt lat="49.70848" lon="5.2362">
        <ele>349.3</ele>
        <time>2020-06-25T16:29:48Z</time>
      </trkpt>
      <trkpt lat="49.70847" lon="5.23629">
        <ele>349.4</ele>
        <time>2020-06-25T16:29:49Z</time>
      </trkpt>
      <trkpt lat="49.70847" lon="5.23637">
        <ele>349.6</ele>
        <time>2020-06-25T16:29:50Z</time>
      </trkpt>
      <trkpt lat="49.70847" lon="5.23645">
        <ele>349.7</ele>
        <time>2020-06-25T16:29:51Z</time>
      </trkpt>
      <trkpt lat="49.70847" lon="5.23654">
        <ele>349.7</ele>
        <time>2020-06-25T16:29:52Z</time>
      </trkpt>
      <trkpt lat="49.70847" lon="5.23661">
        <ele>349.8</ele>
        <time>2020-06-25T16:29:53Z</time>
      </trkpt>
      <trkpt lat="49.70846" lon="5.23669">
        <ele>349.9</ele>
        <time>2020-06-25T16:29:54Z</time>
      </trkpt>
      <trkpt lat="49.70845" lon="5.23678">
        <ele>349.9</ele>
        <time>2020-06-25T16:29:55Z</time>
      </trkpt>
      <trkpt lat="49.70846" lon="5.23685">
        <ele>350</ele>
        <time>2020-06-25T16:29:56Z</time>
      </trkpt>
      <trkpt lat="49.70846" lon="5.23693">
        <ele>350</ele>
        <time>2020-06-25T16:29:57Z</time>
      </trkpt>
      <trkpt lat="49.70845" lon="5.23702">
        <ele>350.1</ele>
        <time>2020-06-25T16:29:58Z</time>
      </trkpt>
      <trkpt lat="49.70845" lon="5.2371">
        <ele>350.1</ele>
        <time>2020-06-25T16:29:59Z</time>
      </trkpt>
      <trkpt lat="49.70844" lon="5.2372">
        <ele>350.2</ele>
        <time>2020-06-25T16:30:00Z</time>
      </trkpt>
      <trkpt lat="49.70843" lon="5.23729">
        <ele>350.3</ele>
        <time>2020-06-25T16:30:01Z</time>
      </trkpt>
      <trkpt lat="49.70842" lon="5.23738">
        <ele>350.3</ele>
        <time>2020-06-25T16:30:02Z</time>
      </trkpt>
      <trkpt lat="49.70841" lon="5.23747">
        <ele>350.4</ele>
        <time>2020-06-25T16:30:03Z</time>
      </trkpt>
      <trkpt lat="49.7084" lon="5.23756">
        <ele>350.4</ele>
        <time>2020-06-25T16:30:04Z</time>
      </trkpt>
      <trkpt lat="49.70839" lon="5.23763">
        <ele>350.5</ele>
        <time>2020-06-25T16:30:05Z</time>
      </trkpt>
      <trkpt lat="49.70838" lon="5.23771">
        <ele>350.5</ele>
        <time>2020-06-25T16:30:06Z</time>
      </trkpt>
      <trkpt lat="49.70837" lon="5.23779">
        <ele>350.4</ele>
        <time>2020-06-25T16:30:07Z</time>
      </trkpt>
      <trkpt lat="49.70836" lon="5.23787">
        <ele>350.2</ele>
        <time>2020-06-25T16:30:08Z</time>
      </trkpt>
      <trkpt lat="49.70835" lon="5.23795">
        <ele>349.7</ele>
        <time>2020-06-25T16:30:09Z</time>
      </trkpt>
      <trkpt lat="49.70834" lon="5.23803">
        <ele>349.6</ele>
        <time>2020-06-25T16:30:10Z</time>
      </trkpt>
      <trkpt lat="49.70832" lon="5.2381">
        <ele>349.5</ele>
        <time>2020-06-25T16:30:11Z</time>
      </trkpt>
      <trkpt lat="49.70831" lon="5.23818">
        <ele>349.4</ele>
        <time>2020-06-25T16:30:12Z</time>
      </trkpt>
      <trkpt lat="49.70829" lon="5.23826">
        <ele>349.3</ele>
        <time>2020-06-25T16:30:13Z</time>
      </trkpt>
      <trkpt lat="49.70827" lon="5.23833">
        <ele>349.3</ele>
        <time>2020-06-25T16:30:14Z</time>
      </trkpt>
      <trkpt lat="49.70825" lon="5.23841">
        <ele>349.3</ele>
        <time>2020-06-25T16:30:15Z</time>
      </trkpt>
      <trkpt lat="49.70822" lon="5.23849">
        <ele>349.4</ele>
        <time>2020-06-25T16:30:16Z</time>
      </trkpt>
      <trkpt lat="49.70821" lon="5.23857">
        <ele>349.5</ele>
        <time>2020-06-25T16:30:17Z</time>
      </trkpt>
      <trkpt lat="49.70819" lon="5.23864">
        <ele>349.5</ele>
        <time>2020-06-25T16:30:18Z</time>
      </trkpt>
      <trkpt lat="49.70817" lon="5.23872">
        <ele>349.5</ele>
        <time>2020-06-25T16:30:19Z</time>
      </trkpt>
      <trkpt lat="49.70815" lon="5.2388">
        <ele>349.6</ele>
        <time>2020-06-25T16:30:20Z</time>
      </trkpt>
      <trkpt lat="49.70812" lon="5.23888">
        <ele>349.6</ele>
        <time>2020-06-25T16:30:21Z</time>
      </trkpt>
      <trkpt lat="49.7081" lon="5.23895">
        <ele>349.7</ele>
        <time>2020-06-25T16:30:22Z</time>
      </trkpt>
      <trkpt lat="49.70809" lon="5.23903">
        <ele>349.7</ele>
        <time>2020-06-25T16:30:23Z</time>
      </trkpt>
      <trkpt lat="49.70807" lon="5.2391">
        <ele>349.8</ele>
        <time>2020-06-25T16:30:24Z</time>
      </trkpt>
      <trkpt lat="49.70806" lon="5.23917">
        <ele>349.8</ele>
        <time>2020-06-25T16:30:25Z</time>
      </trkpt>
      <trkpt lat="49.70804" lon="5.23922">
        <ele>349.9</ele>
        <time>2020-06-25T16:30:26Z</time>
      </trkpt>
      <trkpt lat="49.70802" lon="5.2393">
        <ele>350</ele>
        <time>2020-06-25T16:30:27Z</time>
      </trkpt>
      <trkpt lat="49.70801" lon="5.23938">
        <ele>350.1</ele>
        <time>2020-06-25T16:30:28Z</time>
      </trkpt>
      <trkpt lat="49.70799" lon="5.23946">
        <ele>350.2</ele>
        <time>2020-06-25T16:30:29Z</time>
      </trkpt>
      <trkpt lat="49.70797" lon="5.23953">
        <ele>350.3</ele>
        <time>2020-06-25T16:30:30Z</time>
      </trkpt>
      <trkpt lat="49.70795" lon="5.23961">
        <ele>350.4</ele>
        <time>2020-06-25T16:30:31Z</time>
      </trkpt>
      <trkpt lat="49.70793" lon="5.23968">
        <ele>350.4</ele>
        <time>2020-06-25T16:30:32Z</time>
      </trkpt>
      <trkpt lat="49.70791" lon="5.23975">
        <ele>350.5</ele>
        <time>2020-06-25T16:30:33Z</time>
      </trkpt>
      <trkpt lat="49.7079" lon="5.23982">
        <ele>350.5</ele>
        <time>2020-06-25T16:30:34Z</time>
      </trkpt>
      <trkpt lat="49.70788" lon="5.23989">
        <ele>350.6</ele>
        <time>2020-06-25T16:30:35Z</time>
      </trkpt>
      <trkpt lat="49.70787" lon="5.23997">
        <ele>350.6</ele>
        <time>2020-06-25T16:30:36Z</time>
      </trkpt>
      <trkpt lat="49.70786" lon="5.24005">
        <ele>350.6</ele>
        <time>2020-06-25T16:30:37Z</time>
      </trkpt>
      <trkpt lat="49.70783" lon="5.24013">
        <ele>350.6</ele>
        <time>2020-06-25T16:30:38Z</time>
      </trkpt>
      <trkpt lat="49.70781" lon="5.24019">
        <ele>350.6</ele>
        <time>2020-06-25T16:30:39Z</time>
      </trkpt>
      <trkpt lat="49.70779" lon="5.24027">
        <ele>350.5</ele>
        <time>2020-06-25T16:30:40Z</time>
      </trkpt>
      <trkpt lat="49.70776" lon="5.24034">
        <ele>350.4</ele>
        <time>2020-06-25T16:30:41Z</time>
      </trkpt>
      <trkpt lat="49.70774" lon="5.24042">
        <ele>350.4</ele>
        <time>2020-06-25T16:30:42Z</time>
      </trkpt>
      <trkpt lat="49.70772" lon="5.2405">
        <ele>350.3</ele>
        <time>2020-06-25T16:30:43Z</time>
      </trkpt>
      <trkpt lat="49.7077" lon="5.24057">
        <ele>350.3</ele>
        <time>2020-06-25T16:30:44Z</time>
      </trkpt>
      <trkpt lat="49.70768" lon="5.24065">
        <ele>350.2</ele>
        <time>2020-06-25T16:30:45Z</time>
      </trkpt>
      <trkpt lat="49.70766" lon="5.24073">
        <ele>350.2</ele>
        <time>2020-06-25T16:30:46Z</time>
      </trkpt>
      <trkpt lat="49.70764" lon="5.2408">
        <ele>350.1</ele>
        <time>2020-06-25T16:30:47Z</time>
      </trkpt>
      <trkpt lat="49.70763" lon="5.24088">
        <ele>350.1</ele>
        <time>2020-06-25T16:30:48Z</time>
      </trkpt>
      <trkpt lat="49.70761" lon="5.24096">
        <ele>350.1</ele>
        <time>2020-06-25T16:30:49Z</time>
      </trkpt>
      <trkpt lat="49.70759" lon="5.24103">
        <ele>350.1</ele>
        <time>2020-06-25T16:30:50Z</time>
      </trkpt>
      <trkpt lat="49.70757" lon="5.24112">
        <ele>350.1</ele>
        <time>2020-06-25T16:30:51Z</time>
      </trkpt>
      <trkpt lat="49.70755" lon="5.24119">
        <ele>350.1</ele>
        <time>2020-06-25T16:30:52Z</time>
      </trkpt>
      <trkpt lat="49.70754" lon="5.24127">
        <ele>350</ele>
        <time>2020-06-25T16:30:53Z</time>
      </trkpt>
      <trkpt lat="49.70752" lon="5.24135">
        <ele>349.9</ele>
        <time>2020-06-25T16:30:54Z</time>
      </trkpt>
      <trkpt lat="49.70751" lon="5.24143">
        <ele>349.8</ele>
        <time>2020-06-25T16:30:55Z</time>
      </trkpt>
      <trkpt lat="49.70749" lon="5.2415">
        <ele>349.8</ele>
        <time>2020-06-25T16:30:56Z</time>
      </trkpt>
      <trkpt lat="49.70746" lon="5.24159">
        <ele>349.7</ele>
        <time>2020-06-25T16:30:57Z</time>
      </trkpt>
      <trkpt lat="49.70745" lon="5.24168">
        <ele>349.7</ele>
        <time>2020-06-25T16:30:58Z</time>
      </trkpt>
      <trkpt lat="49.70743" lon="5.24177">
        <ele>349.7</ele>
        <time>2020-06-25T16:30:59Z</time>
      </trkpt>
      <trkpt lat="49.7074" lon="5.24186">
        <ele>349.7</ele>
        <time>2020-06-25T16:31:00Z</time>
      </trkpt>
      <trkpt lat="49.70738" lon="5.24194">
        <ele>349.7</ele>
        <time>2020-06-25T16:31:01Z</time>
      </trkpt>
      <trkpt lat="49.70736" lon="5.24203">
        <ele>349.7</ele>
        <time>2020-06-25T16:31:02Z</time>
      </trkpt>
      <trkpt lat="49.70734" lon="5.24211">
        <ele>349.7</ele>
        <time>2020-06-25T16:31:03Z</time>
      </trkpt>
      <trkpt lat="49.70731" lon="5.24218">
        <ele>349.7</ele>
        <time>2020-06-25T16:31:04Z</time>
      </trkpt>
      <trkpt lat="49.70729" lon="5.24225">
        <ele>349.7</ele>
        <time>2020-06-25T16:31:05Z</time>
      </trkpt>
      <trkpt lat="49.70727" lon="5.24233">
        <ele>349.6</ele>
        <time>2020-06-25T16:31:06Z</time>
      </trkpt>
      <trkpt lat="49.70724" lon="5.24242">
        <ele>349.6</ele>
        <time>2020-06-25T16:31:07Z</time>
      </trkpt>
      <trkpt lat="49.70722" lon="5.24251">
        <ele>349.6</ele>
        <time>2020-06-25T16:31:08Z</time>
      </trkpt>
      <trkpt lat="49.70721" lon="5.24261">
        <ele>349.6</ele>
        <time>2020-06-25T16:31:09Z</time>
      </trkpt>
      <trkpt lat="49.70718" lon="5.2427">
        <ele>349.6</ele>
        <time>2020-06-25T16:31:10Z</time>
      </trkpt>
      <trkpt lat="49.70716" lon="5.24279">
        <ele>349.6</ele>
        <time>2020-06-25T16:31:11Z</time>
      </trkpt>
      <trkpt lat="49.70714" lon="5.24288">
        <ele>349.6</ele>
        <time>2020-06-25T16:31:12Z</time>
      </trkpt>
      <trkpt lat="49.70712" lon="5.24296">
        <ele>349.6</ele>
        <time>2020-06-25T16:31:13Z</time>
      </trkpt>
      <trkpt lat="49.7071" lon="5.24304">
        <ele>349.6</ele>
        <time>2020-06-25T16:31:14Z</time>
      </trkpt>
      <trkpt lat="49.70707" lon="5.24312">
        <ele>349.6</ele>
        <time>2020-06-25T16:31:15Z</time>
      </trkpt>
      <trkpt lat="49.70705" lon="5.24321">
        <ele>349.6</ele>
        <time>2020-06-25T16:31:16Z</time>
      </trkpt>
      <trkpt lat="49.70703" lon="5.24331">
        <ele>349.6</ele>
        <time>2020-06-25T16:31:17Z</time>
      </trkpt>
      <trkpt lat="49.70701" lon="5.24339">
        <ele>349.6</ele>
        <time>2020-06-25T16:31:18Z</time>
      </trkpt>
      <trkpt lat="49.707" lon="5.24349">
        <ele>349.5</ele>
        <time>2020-06-25T16:31:19Z</time>
      </trkpt>
      <trkpt lat="49.70698" lon="5.24358">
        <ele>349.5</ele>
        <time>2020-06-25T16:31:20Z</time>
      </trkpt>
      <trkpt lat="49.70696" lon="5.24367">
        <ele>349.4</ele>
        <time>2020-06-25T16:31:21Z</time>
      </trkpt>
      <trkpt lat="49.70694" lon="5.24376">
        <ele>349.4</ele>
        <time>2020-06-25T16:31:22Z</time>
      </trkpt>
      <trkpt lat="49.70692" lon="5.24385">
        <ele>349.4</ele>
        <time>2020-06-25T16:31:23Z</time>
      </trkpt>
      <trkpt lat="49.7069" lon="5.24394">
        <ele>349.4</ele>
        <time>2020-06-25T16:31:24Z</time>
      </trkpt>
      <trkpt lat="49.70687" lon="5.24403">
        <ele>349.4</ele>
        <time>2020-06-25T16:31:25Z</time>
      </trkpt>
      <trkpt lat="49.70685" lon="5.24411">
        <ele>349.4</ele>
        <time>2020-06-25T16:31:26Z</time>
      </trkpt>
      <trkpt lat="49.70683" lon="5.2442">
        <ele>349.5</ele>
        <time>2020-06-25T16:31:27Z</time>
      </trkpt>
      <trkpt lat="49.70681" lon="5.24427">
        <ele>349.5</ele>
        <time>2020-06-25T16:31:28Z</time>
      </trkpt>
      <trkpt lat="49.70679" lon="5.24435">
        <ele>349.5</ele>
        <time>2020-06-25T16:31:29Z</time>
      </trkpt>
      <trkpt lat="49.70676" lon="5.24444">
        <ele>349.6</ele>
        <time>2020-06-25T16:31:30Z</time>
      </trkpt>
      <trkpt lat="49.70674" lon="5.24452">
        <ele>349.6</ele>
        <time>2020-06-25T16:31:31Z</time>
      </trkpt>
      <trkpt lat="49.70673" lon="5.24462">
        <ele>349.7</ele>
        <time>2020-06-25T16:31:32Z</time>
      </trkpt>
      <trkpt lat="49.70671" lon="5.24472">
        <ele>349.8</ele>
        <time>2020-06-25T16:31:33Z</time>
      </trkpt>
      <trkpt lat="49.70669" lon="5.24479">
        <ele>349.8</ele>
        <time>2020-06-25T16:31:34Z</time>
      </trkpt>
      <trkpt lat="49.70667" lon="5.24486">
        <ele>349.9</ele>
        <time>2020-06-25T16:31:35Z</time>
      </trkpt>
      <trkpt lat="49.70665" lon="5.24496">
        <ele>350.1</ele>
        <time>2020-06-25T16:31:36Z</time>
      </trkpt>
      <trkpt lat="49.70663" lon="5.24503">
        <ele>350.2</ele>
        <time>2020-06-25T16:31:37Z</time>
      </trkpt>
      <trkpt lat="49.70661" lon="5.2451">
        <ele>350.3</ele>
        <time>2020-06-25T16:31:38Z</time>
      </trkpt>
      <trkpt lat="49.7066" lon="5.24518">
        <ele>350.4</ele>
        <time>2020-06-25T16:31:39Z</time>
      </trkpt>
      <trkpt lat="49.70657" lon="5.24527">
        <ele>350.5</ele>
        <time>2020-06-25T16:31:40Z</time>
      </trkpt>
      <trkpt lat="49.70655" lon="5.24535">
        <ele>350.5</ele>
        <time>2020-06-25T16:31:41Z</time>
      </trkpt>
      <trkpt lat="49.70653" lon="5.24543">
        <ele>350.5</ele>
        <time>2020-06-25T16:31:42Z</time>
      </trkpt>
      <trkpt lat="49.70651" lon="5.24551">
        <ele>350.5</ele>
        <time>2020-06-25T16:31:43Z</time>
      </trkpt>
      <trkpt lat="49.70649" lon="5.24559">
        <ele>350.5</ele>
        <time>2020-06-25T16:31:44Z</time>
      </trkpt>
      <trkpt lat="49.70647" lon="5.24566">
        <ele>350.6</ele>
        <time>2020-06-25T16:31:45Z</time>
      </trkpt>
      <trkpt lat="49.70644" lon="5.24573">
        <ele>350.7</ele>
        <time>2020-06-25T16:31:46Z</time>
      </trkpt>
      <trkpt lat="49.70643" lon="5.24582">
        <ele>350.8</ele>
        <time>2020-06-25T16:31:47Z</time>
      </trkpt>
      <trkpt lat="49.70641" lon="5.24589">
        <ele>350.9</ele>
        <time>2020-06-25T16:31:48Z</time>
      </trkpt>
      <trkpt lat="49.70638" lon="5.24598">
        <ele>351</ele>
        <time>2020-06-25T16:31:49Z</time>
      </trkpt>
      <trkpt lat="49.70636" lon="5.24606">
        <ele>351</ele>
        <time>2020-06-25T16:31:50Z</time>
      </trkpt>
      <trkpt lat="49.70634" lon="5.24614">
        <ele>351.1</ele>
        <time>2020-06-25T16:31:51Z</time>
      </trkpt>
      <trkpt lat="49.70633" lon="5.2462">
        <ele>351.1</ele>
        <time>2020-06-25T16:31:52Z</time>
      </trkpt>
      <trkpt lat="49.70631" lon="5.24626">
        <ele>351.1</ele>
        <time>2020-06-25T16:31:53Z</time>
      </trkpt>
      <trkpt lat="49.70629" lon="5.24633">
        <ele>351.1</ele>
        <time>2020-06-25T16:31:54Z</time>
      </trkpt>
      <trkpt lat="49.70626" lon="5.24642">
        <ele>351</ele>
        <time>2020-06-25T16:31:55Z</time>
      </trkpt>
      <trkpt lat="49.70624" lon="5.24649">
        <ele>350.7</ele>
        <time>2020-06-25T16:31:56Z</time>
      </trkpt>
      <trkpt lat="49.70622" lon="5.24657">
        <ele>350.1</ele>
        <time>2020-06-25T16:31:57Z</time>
      </trkpt>
      <trkpt lat="49.7062" lon="5.24663">
        <ele>350.1</ele>
        <time>2020-06-25T16:31:58Z</time>
      </trkpt>
      <trkpt lat="49.70618" lon="5.24672">
        <ele>350.1</ele>
        <time>2020-06-25T16:31:59Z</time>
      </trkpt>
      <trkpt lat="49.70616" lon="5.24681">
        <ele>350.1</ele>
        <time>2020-06-25T16:32:00Z</time>
      </trkpt>
      <trkpt lat="49.70614" lon="5.24688">
        <ele>350.1</ele>
        <time>2020-06-25T16:32:01Z</time>
      </trkpt>
      <trkpt lat="49.70612" lon="5.24695">
        <ele>350.1</ele>
        <time>2020-06-25T16:32:02Z</time>
      </trkpt>
      <trkpt lat="49.70609" lon="5.24704">
        <ele>350.2</ele>
        <time>2020-06-25T16:32:03Z</time>
      </trkpt>
      <trkpt lat="49.70607" lon="5.2471">
        <ele>350.2</ele>
        <time>2020-06-25T16:32:04Z</time>
      </trkpt>
      <trkpt lat="49.70604" lon="5.24716">
        <ele>350.2</ele>
        <time>2020-06-25T16:32:05Z</time>
      </trkpt>
      <trkpt lat="49.70602" lon="5.24724">
        <ele>350.3</ele>
        <time>2020-06-25T16:32:06Z</time>
      </trkpt>
      <trkpt lat="49.70599" lon="5.24733">
        <ele>350.3</ele>
        <time>2020-06-25T16:32:07Z</time>
      </trkpt>
      <trkpt lat="49.70596" lon="5.24739">
        <ele>350.4</ele>
        <time>2020-06-25T16:32:08Z</time>
      </trkpt>
      <trkpt lat="49.70594" lon="5.24745">
        <ele>350.4</ele>
        <time>2020-06-25T16:32:09Z</time>
      </trkpt>
      <trkpt lat="49.70592" lon="5.24751">
        <ele>350.4</ele>
        <time>2020-06-25T16:32:10Z</time>
      </trkpt>
      <trkpt lat="49.7059" lon="5.24758">
        <ele>350.4</ele>
        <time>2020-06-25T16:32:11Z</time>
      </trkpt>
      <trkpt lat="49.70587" lon="5.24766">
        <ele>350.4</ele>
        <time>2020-06-25T16:32:12Z</time>
      </trkpt>
      <trkpt lat="49.70584" lon="5.24774">
        <ele>350.4</ele>
        <time>2020-06-25T16:32:13Z</time>
      </trkpt>
      <trkpt lat="49.70581" lon="5.2478">
        <ele>350.5</ele>
        <time>2020-06-25T16:32:14Z</time>
      </trkpt>
      <trkpt lat="49.70579" lon="5.24786">
        <ele>350.5</ele>
        <time>2020-06-25T16:32:15Z</time>
      </trkpt>
      <trkpt lat="49.70576" lon="5.24793">
        <ele>350.5</ele>
        <time>2020-06-25T16:32:16Z</time>
      </trkpt>
      <trkpt lat="49.70573" lon="5.248">
        <ele>350.5</ele>
        <time>2020-06-25T16:32:17Z</time>
      </trkpt>
      <trkpt lat="49.7057" lon="5.24807">
        <ele>350.5</ele>
        <time>2020-06-25T16:32:18Z</time>
      </trkpt>
      <trkpt lat="49.70566" lon="5.24814">
        <ele>350.5</ele>
        <time>2020-06-25T16:32:19Z</time>
      </trkpt>
      <trkpt lat="49.70564" lon="5.2482">
        <ele>350.5</ele>
        <time>2020-06-25T16:32:20Z</time>
      </trkpt>
      <trkpt lat="49.7056" lon="5.24827">
        <ele>350.5</ele>
        <time>2020-06-25T16:32:21Z</time>
      </trkpt>
      <trkpt lat="49.70557" lon="5.24835">
        <ele>350.4</ele>
        <time>2020-06-25T16:32:22Z</time>
      </trkpt>
      <trkpt lat="49.70553" lon="5.24841">
        <ele>350.4</ele>
        <time>2020-06-25T16:32:23Z</time>
      </trkpt>
      <trkpt lat="49.7055" lon="5.24849">
        <ele>350.3</ele>
        <time>2020-06-25T16:32:24Z</time>
      </trkpt>
      <trkpt lat="49.70547" lon="5.24856">
        <ele>350.3</ele>
        <time>2020-06-25T16:32:25Z</time>
      </trkpt>
      <trkpt lat="49.70543" lon="5.24863">
        <ele>350.2</ele>
        <time>2020-06-25T16:32:26Z</time>
      </trkpt>
      <trkpt lat="49.7054" lon="5.2487">
        <ele>350.1</ele>
        <time>2020-06-25T16:32:27Z</time>
      </trkpt>
      <trkpt lat="49.70537" lon="5.24878">
        <ele>350.1</ele>
        <time>2020-06-25T16:32:28Z</time>
      </trkpt>
      <trkpt lat="49.70533" lon="5.24886">
        <ele>350</ele>
        <time>2020-06-25T16:32:29Z</time>
      </trkpt>
      <trkpt lat="49.7053" lon="5.24894">
        <ele>349.9</ele>
        <time>2020-06-25T16:32:30Z</time>
      </trkpt>
      <trkpt lat="49.70526" lon="5.24901">
        <ele>349.8</ele>
        <time>2020-06-25T16:32:31Z</time>
      </trkpt>
      <trkpt lat="49.70523" lon="5.24909">
        <ele>349.7</ele>
        <time>2020-06-25T16:32:32Z</time>
      </trkpt>
      <trkpt lat="49.70519" lon="5.24916">
        <ele>349.6</ele>
        <time>2020-06-25T16:32:33Z</time>
      </trkpt>
      <trkpt lat="49.70516" lon="5.24924">
        <ele>349.5</ele>
        <time>2020-06-25T16:32:34Z</time>
      </trkpt>
      <trkpt lat="49.70512" lon="5.2493">
        <ele>349.3</ele>
        <time>2020-06-25T16:32:35Z</time>
      </trkpt>
      <trkpt lat="49.70509" lon="5.24937">
        <ele>349.1</ele>
        <time>2020-06-25T16:32:36Z</time>
      </trkpt>
      <trkpt lat="49.70505" lon="5.24943">
        <ele>348.9</ele>
        <time>2020-06-25T16:32:37Z</time>
      </trkpt>
      <trkpt lat="49.70502" lon="5.2495">
        <ele>348.7</ele>
        <time>2020-06-25T16:32:38Z</time>
      </trkpt>
      <trkpt lat="49.70498" lon="5.24957">
        <ele>348.6</ele>
        <time>2020-06-25T16:32:39Z</time>
      </trkpt>
      <trkpt lat="49.70494" lon="5.24965">
        <ele>348.5</ele>
        <time>2020-06-25T16:32:40Z</time>
      </trkpt>
      <trkpt lat="49.70489" lon="5.24972">
        <ele>348.4</ele>
        <time>2020-06-25T16:32:41Z</time>
      </trkpt>
      <trkpt lat="49.70484" lon="5.24979">
        <ele>348.2</ele>
        <time>2020-06-25T16:32:42Z</time>
      </trkpt>
      <trkpt lat="49.70481" lon="5.24986">
        <ele>348.1</ele>
        <time>2020-06-25T16:32:43Z</time>
      </trkpt>
      <trkpt lat="49.70475" lon="5.24994">
        <ele>347.9</ele>
        <time>2020-06-25T16:32:44Z</time>
      </trkpt>
      <trkpt lat="49.7047" lon="5.25002">
        <ele>347.7</ele>
        <time>2020-06-25T16:32:45Z</time>
      </trkpt>
      <trkpt lat="49.70466" lon="5.25011">
        <ele>347.5</ele>
        <time>2020-06-25T16:32:46Z</time>
      </trkpt>
      <trkpt lat="49.70461" lon="5.25018">
        <ele>347.3</ele>
        <time>2020-06-25T16:32:47Z</time>
      </trkpt>
      <trkpt lat="49.70457" lon="5.25025">
        <ele>347.2</ele>
        <time>2020-06-25T16:32:48Z</time>
      </trkpt>
      <trkpt lat="49.70451" lon="5.25033">
        <ele>347</ele>
        <time>2020-06-25T16:32:49Z</time>
      </trkpt>
      <trkpt lat="49.70446" lon="5.2504">
        <ele>346.8</ele>
        <time>2020-06-25T16:32:50Z</time>
      </trkpt>
      <trkpt lat="49.70441" lon="5.25047">
        <ele>346.6</ele>
        <time>2020-06-25T16:32:51Z</time>
      </trkpt>
      <trkpt lat="49.70437" lon="5.25054">
        <ele>346.5</ele>
        <time>2020-06-25T16:32:52Z</time>
      </trkpt>
      <trkpt lat="49.70432" lon="5.25062">
        <ele>346.3</ele>
        <time>2020-06-25T16:32:53Z</time>
      </trkpt>
      <trkpt lat="49.70426" lon="5.2507">
        <ele>346.3</ele>
        <time>2020-06-25T16:32:54Z</time>
      </trkpt>
      <trkpt lat="49.70421" lon="5.25078">
        <ele>346.2</ele>
        <time>2020-06-25T16:32:55Z</time>
      </trkpt>
      <trkpt lat="49.70417" lon="5.25086">
        <ele>346.1</ele>
        <time>2020-06-25T16:32:56Z</time>
      </trkpt>
      <trkpt lat="49.70412" lon="5.25093">
        <ele>345.9</ele>
        <time>2020-06-25T16:32:57Z</time>
      </trkpt>
      <trkpt lat="49.70407" lon="5.25101">
        <ele>345.6</ele>
        <time>2020-06-25T16:32:58Z</time>
      </trkpt>
      <trkpt lat="49.70401" lon="5.25109">
        <ele>345.4</ele>
        <time>2020-06-25T16:32:59Z</time>
      </trkpt>
      <trkpt lat="49.70396" lon="5.25117">
        <ele>345.3</ele>
        <time>2020-06-25T16:33:00Z</time>
      </trkpt>
      <trkpt lat="49.70391" lon="5.25126">
        <ele>345.1</ele>
        <time>2020-06-25T16:33:01Z</time>
      </trkpt>
      <trkpt lat="49.70386" lon="5.25134">
        <ele>345</ele>
        <time>2020-06-25T16:33:02Z</time>
      </trkpt>
      <trkpt lat="49.70381" lon="5.25142">
        <ele>344.8</ele>
        <time>2020-06-25T16:33:03Z</time>
      </trkpt>
      <trkpt lat="49.70376" lon="5.25151">
        <ele>344.7</ele>
        <time>2020-06-25T16:33:04Z</time>
      </trkpt>
      <trkpt lat="49.70371" lon="5.25159">
        <ele>344.5</ele>
        <time>2020-06-25T16:33:05Z</time>
      </trkpt>
      <trkpt lat="49.70366" lon="5.25168">
        <ele>344.5</ele>
        <time>2020-06-25T16:33:06Z</time>
      </trkpt>
      <trkpt lat="49.70361" lon="5.25176">
        <ele>344.5</ele>
        <time>2020-06-25T16:33:07Z</time>
      </trkpt>
      <trkpt lat="49.70357" lon="5.25184">
        <ele>344.5</ele>
        <time>2020-06-25T16:33:08Z</time>
      </trkpt>
      <trkpt lat="49.70352" lon="5.25192">
        <ele>344.5</ele>
        <time>2020-06-25T16:33:09Z</time>
      </trkpt>
      <trkpt lat="49.70347" lon="5.252">
        <ele>344.6</ele>
        <time>2020-06-25T16:33:10Z</time>
      </trkpt>
      <trkpt lat="49.70342" lon="5.25207">
        <ele>344.7</ele>
        <time>2020-06-25T16:33:11Z</time>
      </trkpt>
      <trkpt lat="49.70337" lon="5.25214">
        <ele>344.8</ele>
        <time>2020-06-25T16:33:12Z</time>
      </trkpt>
      <trkpt lat="49.70332" lon="5.25221">
        <ele>344.9</ele>
        <time>2020-06-25T16:33:13Z</time>
      </trkpt>
      <trkpt lat="49.70328" lon="5.25229">
        <ele>345</ele>
        <time>2020-06-25T16:33:14Z</time>
      </trkpt>
      <trkpt lat="49.70324" lon="5.25236">
        <ele>345</ele>
        <time>2020-06-25T16:33:15Z</time>
      </trkpt>
      <trkpt lat="49.7032" lon="5.25242">
        <ele>345</ele>
        <time>2020-06-25T16:33:16Z</time>
      </trkpt>
      <trkpt lat="49.70316" lon="5.25249">
        <ele>345.1</ele>
        <time>2020-06-25T16:33:17Z</time>
      </trkpt>
      <trkpt lat="49.70312" lon="5.25256">
        <ele>345.1</ele>
        <time>2020-06-25T16:33:18Z</time>
      </trkpt>
      <trkpt lat="49.70308" lon="5.25263">
        <ele>345.1</ele>
        <time>2020-06-25T16:33:19Z</time>
      </trkpt>
      <trkpt lat="49.70304" lon="5.25269">
        <ele>345.2</ele>
        <time>2020-06-25T16:33:20Z</time>
      </trkpt>
      <trkpt lat="49.703" lon="5.25276">
        <ele>345.2</ele>
        <time>2020-06-25T16:33:21Z</time>
      </trkpt>
      <trkpt lat="49.70296" lon="5.25282">
        <ele>345.3</ele>
        <time>2020-06-25T16:33:22Z</time>
      </trkpt>
      <trkpt lat="49.70292" lon="5.25289">
        <ele>345.3</ele>
        <time>2020-06-25T16:33:23Z</time>
      </trkpt>
      <trkpt lat="49.70288" lon="5.25295">
        <ele>345.4</ele>
        <time>2020-06-25T16:33:24Z</time>
      </trkpt>
      <trkpt lat="49.70285" lon="5.25301">
        <ele>345.4</ele>
        <time>2020-06-25T16:33:25Z</time>
      </trkpt>
      <trkpt lat="49.70281" lon="5.25307">
        <ele>345.5</ele>
        <time>2020-06-25T16:33:26Z</time>
      </trkpt>
      <trkpt lat="49.70278" lon="5.25313">
        <ele>345.7</ele>
        <time>2020-06-25T16:33:27Z</time>
      </trkpt>
      <trkpt lat="49.70274" lon="5.25319">
        <ele>345.8</ele>
        <time>2020-06-25T16:33:28Z</time>
      </trkpt>
      <trkpt lat="49.7027" lon="5.25325">
        <ele>346</ele>
        <time>2020-06-25T16:33:29Z</time>
      </trkpt>
      <trkpt lat="49.70268" lon="5.25332">
        <ele>346.3</ele>
        <time>2020-06-25T16:33:30Z</time>
      </trkpt>
      <trkpt lat="49.70266" lon="5.25339">
        <ele>346.5</ele>
        <time>2020-06-25T16:33:31Z</time>
      </trkpt>
      <trkpt lat="49.70267" lon="5.25346">
        <ele>346.7</ele>
        <time>2020-06-25T16:33:32Z</time>
      </trkpt>
      <trkpt lat="49.70269" lon="5.25353">
        <ele>346.8</ele>
        <time>2020-06-25T16:33:33Z</time>
      </trkpt>
      <trkpt lat="49.7027" lon="5.2536">
        <ele>346.9</ele>
        <time>2020-06-25T16:33:34Z</time>
      </trkpt>
      <trkpt lat="49.70272" lon="5.25367">
        <ele>346.9</ele>
        <time>2020-06-25T16:33:35Z</time>
      </trkpt>
      <trkpt lat="49.70273" lon="5.25374">
        <ele>347</ele>
        <time>2020-06-25T16:33:36Z</time>
      </trkpt>
      <trkpt lat="49.70274" lon="5.2538">
        <ele>347</ele>
        <time>2020-06-25T16:33:37Z</time>
      </trkpt>
      <trkpt lat="49.70276" lon="5.25387">
        <ele>347.1</ele>
        <time>2020-06-25T16:33:38Z</time>
      </trkpt>
      <trkpt lat="49.70278" lon="5.25393">
        <ele>347.1</ele>
        <time>2020-06-25T16:33:39Z</time>
      </trkpt>
      <trkpt lat="49.70281" lon="5.25398">
        <ele>347.1</ele>
        <time>2020-06-25T16:33:40Z</time>
      </trkpt>
      <trkpt lat="49.70282" lon="5.25403">
        <ele>347.2</ele>
        <time>2020-06-25T16:33:41Z</time>
      </trkpt>
      <trkpt lat="49.70283" lon="5.25408">
        <ele>347.1</ele>
        <time>2020-06-25T16:33:42Z</time>
      </trkpt>
      <trkpt lat="49.70285" lon="5.25413">
        <ele>347.1</ele>
        <time>2020-06-25T16:33:43Z</time>
      </trkpt>
      <trkpt lat="49.70287" lon="5.25417">
        <ele>347</ele>
        <time>2020-06-25T16:33:44Z</time>
      </trkpt>
      <trkpt lat="49.70288" lon="5.25421">
        <ele>347</ele>
        <time>2020-06-25T16:33:45Z</time>
      </trkpt>
      <trkpt lat="49.70288" lon="5.25427">
        <ele>346.9</ele>
        <time>2020-06-25T16:33:46Z</time>
      </trkpt>
      <trkpt lat="49.70289" lon="5.25432">
        <ele>346.8</ele>
        <time>2020-06-25T16:33:47Z</time>
      </trkpt>
      <trkpt lat="49.70289" lon="5.25438">
        <ele>346.6</ele>
        <time>2020-06-25T16:33:48Z</time>
      </trkpt>
      <trkpt lat="49.7029" lon="5.25445">
        <ele>346.5</ele>
        <time>2020-06-25T16:33:49Z</time>
      </trkpt>
      <trkpt lat="49.70291" lon="5.25451">
        <ele>346.3</ele>
        <time>2020-06-25T16:33:50Z</time>
      </trkpt>
      <trkpt lat="49.70292" lon="5.25457">
        <ele>346.2</ele>
        <time>2020-06-25T16:33:51Z</time>
      </trkpt>
      <trkpt lat="49.70293" lon="5.25464">
        <ele>346</ele>
        <time>2020-06-25T16:33:52Z</time>
      </trkpt>
      <trkpt lat="49.70295" lon="5.25471">
        <ele>345.9</ele>
        <time>2020-06-25T16:33:53Z</time>
      </trkpt>
      <trkpt lat="49.70298" lon="5.25477">
        <ele>345.7</ele>
        <time>2020-06-25T16:33:54Z</time>
      </trkpt>
      <trkpt lat="49.703" lon="5.25485">
        <ele>345.5</ele>
        <time>2020-06-25T16:33:55Z</time>
      </trkpt>
      <trkpt lat="49.70302" lon="5.25493">
        <ele>345.2</ele>
        <time>2020-06-25T16:33:56Z</time>
      </trkpt>
      <trkpt lat="49.70303" lon="5.25502">
        <ele>345</ele>
        <time>2020-06-25T16:33:57Z</time>
      </trkpt>
      <trkpt lat="49.70305" lon="5.25511">
        <ele>344.7</ele>
        <time>2020-06-25T16:33:58Z</time>
      </trkpt>
      <trkpt lat="49.70307" lon="5.25521">
        <ele>344.4</ele>
        <time>2020-06-25T16:33:59Z</time>
      </trkpt>
      <trkpt lat="49.7031" lon="5.25531">
        <ele>344</ele>
        <time>2020-06-25T16:34:00Z</time>
      </trkpt>
      <trkpt lat="49.70313" lon="5.25542">
        <ele>343.6</ele>
        <time>2020-06-25T16:34:01Z</time>
      </trkpt>
      <trkpt lat="49.70315" lon="5.25553">
        <ele>343.3</ele>
        <time>2020-06-25T16:34:02Z</time>
      </trkpt>
      <trkpt lat="49.70317" lon="5.25564">
        <ele>342.9</ele>
        <time>2020-06-25T16:34:03Z</time>
      </trkpt>
      <trkpt lat="49.70319" lon="5.25576">
        <ele>342.5</ele>
        <time>2020-06-25T16:34:04Z</time>
      </trkpt>
      <trkpt lat="49.7032" lon="5.25588">
        <ele>342.1</ele>
        <time>2020-06-25T16:34:05Z</time>
      </trkpt>
      <trkpt lat="49.70321" lon="5.256">
        <ele>341.7</ele>
        <time>2020-06-25T16:34:06Z</time>
      </trkpt>
      <trkpt lat="49.70321" lon="5.25613">
        <ele>341.2</ele>
        <time>2020-06-25T16:34:07Z</time>
      </trkpt>
      <trkpt lat="49.7032" lon="5.25627">
        <ele>340.8</ele>
        <time>2020-06-25T16:34:08Z</time>
      </trkpt>
      <trkpt lat="49.7032" lon="5.2564">
        <ele>340.3</ele>
        <time>2020-06-25T16:34:09Z</time>
      </trkpt>
      <trkpt lat="49.70319" lon="5.25655">
        <ele>339.8</ele>
        <time>2020-06-25T16:34:10Z</time>
      </trkpt>
      <trkpt lat="49.70318" lon="5.25669">
        <ele>339.3</ele>
        <time>2020-06-25T16:34:11Z</time>
      </trkpt>
      <trkpt lat="49.70316" lon="5.25683">
        <ele>338.9</ele>
        <time>2020-06-25T16:34:12Z</time>
      </trkpt>
      <trkpt lat="49.70315" lon="5.25697">
        <ele>338.4</ele>
        <time>2020-06-25T16:34:13Z</time>
      </trkpt>
      <trkpt lat="49.70313" lon="5.25712">
        <ele>338</ele>
        <time>2020-06-25T16:34:14Z</time>
      </trkpt>
      <trkpt lat="49.70313" lon="5.25727">
        <ele>337.6</ele>
        <time>2020-06-25T16:34:15Z</time>
      </trkpt>
      <trkpt lat="49.70311" lon="5.25741">
        <ele>337.2</ele>
        <time>2020-06-25T16:34:16Z</time>
      </trkpt>
      <trkpt lat="49.7031" lon="5.25755">
        <ele>336.9</ele>
        <time>2020-06-25T16:34:17Z</time>
      </trkpt>
      <trkpt lat="49.70308" lon="5.25769">
        <ele>336.7</ele>
        <time>2020-06-25T16:34:18Z</time>
      </trkpt>
      <trkpt lat="49.70308" lon="5.25783">
        <ele>336.4</ele>
        <time>2020-06-25T16:34:19Z</time>
      </trkpt>
      <trkpt lat="49.70307" lon="5.25795">
        <ele>336.2</ele>
        <time>2020-06-25T16:34:20Z</time>
      </trkpt>
      <trkpt lat="49.70306" lon="5.25805">
        <ele>336.4</ele>
        <time>2020-06-25T16:34:21Z</time>
      </trkpt>
      <trkpt lat="49.70305" lon="5.25813">
        <ele>336</ele>
        <time>2020-06-25T16:34:22Z</time>
      </trkpt>
      <trkpt lat="49.70304" lon="5.2582">
        <ele>335.6</ele>
        <time>2020-06-25T16:34:23Z</time>
      </trkpt>
      <trkpt lat="49.70302" lon="5.25825">
        <ele>335.3</ele>
        <time>2020-06-25T16:34:24Z</time>
      </trkpt>
      <trkpt lat="49.70299" lon="5.25829">
        <ele>335</ele>
        <time>2020-06-25T16:34:25Z</time>
      </trkpt>
      <trkpt lat="49.70298" lon="5.25834">
        <ele>334.7</ele>
        <time>2020-06-25T16:34:26Z</time>
      </trkpt>
      <trkpt lat="49.70297" lon="5.25841">
        <ele>334.7</ele>
        <time>2020-06-25T16:34:27Z</time>
      </trkpt>
      <trkpt lat="49.70296" lon="5.25849">
        <ele>334.8</ele>
        <time>2020-06-25T16:34:28Z</time>
      </trkpt>
      <trkpt lat="49.70294" lon="5.25856">
        <ele>335</ele>
        <time>2020-06-25T16:34:29Z</time>
      </trkpt>
      <trkpt lat="49.70291" lon="5.25863">
        <ele>335.1</ele>
        <time>2020-06-25T16:34:30Z</time>
      </trkpt>
      <trkpt lat="49.70289" lon="5.25869">
        <ele>335.2</ele>
        <time>2020-06-25T16:34:31Z</time>
      </trkpt>
      <trkpt lat="49.70288" lon="5.25876">
        <ele>335.3</ele>
        <time>2020-06-25T16:34:32Z</time>
      </trkpt>
      <trkpt lat="49.70287" lon="5.25883">
        <ele>335.4</ele>
        <time>2020-06-25T16:34:33Z</time>
      </trkpt>
      <trkpt lat="49.70287" lon="5.2589">
        <ele>335.5</ele>
        <time>2020-06-25T16:34:34Z</time>
      </trkpt>
      <trkpt lat="49.70287" lon="5.25897">
        <ele>335.7</ele>
        <time>2020-06-25T16:34:35Z</time>
      </trkpt>
      <trkpt lat="49.70286" lon="5.25904">
        <ele>335.9</ele>
        <time>2020-06-25T16:34:36Z</time>
      </trkpt>
      <trkpt lat="49.70286" lon="5.2591">
        <ele>336</ele>
        <time>2020-06-25T16:34:37Z</time>
      </trkpt>
      <trkpt lat="49.70287" lon="5.25917">
        <ele>336.2</ele>
        <time>2020-06-25T16:34:38Z</time>
      </trkpt>
      <trkpt lat="49.70287" lon="5.25923">
        <ele>336.4</ele>
        <time>2020-06-25T16:34:39Z</time>
      </trkpt>
      <trkpt lat="49.70288" lon="5.2593">
        <ele>336.7</ele>
        <time>2020-06-25T16:34:40Z</time>
      </trkpt>
      <trkpt lat="49.70288" lon="5.25937">
        <ele>336.9</ele>
        <time>2020-06-25T16:34:41Z</time>
      </trkpt>
      <trkpt lat="49.70288" lon="5.25944">
        <ele>337.2</ele>
        <time>2020-06-25T16:34:42Z</time>
      </trkpt>
      <trkpt lat="49.70288" lon="5.25951">
        <ele>337.5</ele>
        <time>2020-06-25T16:34:43Z</time>
      </trkpt>
      <trkpt lat="49.70288" lon="5.25958">
        <ele>337.8</ele>
        <time>2020-06-25T16:34:44Z</time>
      </trkpt>
      <trkpt lat="49.70289" lon="5.25964">
        <ele>338.1</ele>
        <time>2020-06-25T16:34:45Z</time>
      </trkpt>
      <trkpt lat="49.70289" lon="5.2597">
        <ele>338.3</ele>
        <time>2020-06-25T16:34:46Z</time>
      </trkpt>
      <trkpt lat="49.70288" lon="5.25976">
        <ele>338.6</ele>
        <time>2020-06-25T16:34:47Z</time>
      </trkpt>
      <trkpt lat="49.70288" lon="5.25981">
        <ele>338.9</ele>
        <time>2020-06-25T16:34:48Z</time>
      </trkpt>
      <trkpt lat="49.70288" lon="5.25987">
        <ele>339.2</ele>
        <time>2020-06-25T16:34:49Z</time>
      </trkpt>
      <trkpt lat="49.70287" lon="5.25992">
        <ele>339.5</ele>
        <time>2020-06-25T16:34:50Z</time>
      </trkpt>
      <trkpt lat="49.70286" lon="5.25997">
        <ele>339.9</ele>
        <time>2020-06-25T16:34:51Z</time>
      </trkpt>
      <trkpt lat="49.70286" lon="5.26002">
        <ele>340.1</ele>
        <time>2020-06-25T16:34:52Z</time>
      </trkpt>
      <trkpt lat="49.70285" lon="5.26007">
        <ele>340.4</ele>
        <time>2020-06-25T16:34:53Z</time>
      </trkpt>
      <trkpt lat="49.70284" lon="5.26012">
        <ele>340.7</ele>
        <time>2020-06-25T16:34:54Z</time>
      </trkpt>
      <trkpt lat="49.70284" lon="5.26017">
        <ele>341</ele>
        <time>2020-06-25T16:34:55Z</time>
      </trkpt>
      <trkpt lat="49.70283" lon="5.26021">
        <ele>341.2</ele>
        <time>2020-06-25T16:34:56Z</time>
      </trkpt>
      <trkpt lat="49.70282" lon="5.26027">
        <ele>341.5</ele>
        <time>2020-06-25T16:34:57Z</time>
      </trkpt>
      <trkpt lat="49.70282" lon="5.26029">
        <ele>341.6</ele>
        <time>2020-06-25T16:34:58Z</time>
      </trkpt>
      <trkpt lat="49.70282" lon="5.26034">
        <ele>341.9</ele>
        <time>2020-06-25T16:34:59Z</time>
      </trkpt>
      <trkpt lat="49.70282" lon="5.26036">
        <ele>342.1</ele>
        <time>2020-06-25T16:35:00Z</time>
      </trkpt>
      <trkpt lat="49.70281" lon="5.26041">
        <ele>342.3</ele>
        <time>2020-06-25T16:35:01Z</time>
      </trkpt>
      <trkpt lat="49.70281" lon="5.26047">
        <ele>342.6</ele>
        <time>2020-06-25T16:35:02Z</time>
      </trkpt>
      <trkpt lat="49.7028" lon="5.26049">
        <ele>342.7</ele>
        <time>2020-06-25T16:35:03Z</time>
      </trkpt>
      <trkpt lat="49.7028" lon="5.26054">
        <ele>343</ele>
        <time>2020-06-25T16:35:04Z</time>
      </trkpt>
      <trkpt lat="49.7028" lon="5.26059">
        <ele>343.2</ele>
        <time>2020-06-25T16:35:05Z</time>
      </trkpt>
      <trkpt lat="49.7028" lon="5.26064">
        <ele>343.5</ele>
        <time>2020-06-25T16:35:06Z</time>
      </trkpt>
      <trkpt lat="49.70279" lon="5.26067">
        <ele>343.7</ele>
        <time>2020-06-25T16:35:07Z</time>
      </trkpt>
      <trkpt lat="49.7028" lon="5.26068">
        <ele>343.8</ele>
        <time>2020-06-25T16:35:08Z</time>
      </trkpt>
      <trkpt lat="49.70281" lon="5.26075">
        <ele>344.1</ele>
        <time>2020-06-25T16:35:09Z</time>
      </trkpt>
      <trkpt lat="49.70281" lon="5.26077">
        <ele>344.2</ele>
        <time>2020-06-25T16:35:10Z</time>
      </trkpt>
      <trkpt lat="49.70282" lon="5.26083">
        <ele>344.5</ele>
        <time>2020-06-25T16:35:11Z</time>
      </trkpt>
      <trkpt lat="49.70282" lon="5.26086">
        <ele>344.6</ele>
        <time>2020-06-25T16:35:12Z</time>
      </trkpt>
      <trkpt lat="49.70282" lon="5.26092">
        <ele>344.9</ele>
        <time>2020-06-25T16:35:13Z</time>
      </trkpt>
      <trkpt lat="49.70283" lon="5.26097">
        <ele>345.1</ele>
        <time>2020-06-25T16:35:14Z</time>
      </trkpt>
      <trkpt lat="49.70283" lon="5.26103">
        <ele>345.4</ele>
        <time>2020-06-25T16:35:15Z</time>
      </trkpt>
      <trkpt lat="49.70284" lon="5.26109">
        <ele>345.7</ele>
        <time>2020-06-25T16:35:16Z</time>
      </trkpt>
      <trkpt lat="49.70286" lon="5.26115">
        <ele>345.9</ele>
        <time>2020-06-25T16:35:17Z</time>
      </trkpt>
      <trkpt lat="49.70287" lon="5.26121">
        <ele>346.1</ele>
        <time>2020-06-25T16:35:18Z</time>
      </trkpt>
      <trkpt lat="49.70289" lon="5.26127">
        <ele>346.4</ele>
        <time>2020-06-25T16:35:19Z</time>
      </trkpt>
      <trkpt lat="49.7029" lon="5.26133">
        <ele>346.6</ele>
        <time>2020-06-25T16:35:20Z</time>
      </trkpt>
      <trkpt lat="49.70291" lon="5.26138">
        <ele>346.7</ele>
        <time>2020-06-25T16:35:21Z</time>
      </trkpt>
      <trkpt lat="49.70292" lon="5.26143">
        <ele>346.9</ele>
        <time>2020-06-25T16:35:22Z</time>
      </trkpt>
      <trkpt lat="49.70292" lon="5.26149">
        <ele>347</ele>
        <time>2020-06-25T16:35:23Z</time>
      </trkpt>
      <trkpt lat="49.70293" lon="5.26154">
        <ele>347.2</ele>
        <time>2020-06-25T16:35:24Z</time>
      </trkpt>
      <trkpt lat="49.70293" lon="5.2616">
        <ele>347.3</ele>
        <time>2020-06-25T16:35:25Z</time>
      </trkpt>
      <trkpt lat="49.70295" lon="5.26165">
        <ele>347.5</ele>
        <time>2020-06-25T16:35:26Z</time>
      </trkpt>
      <trkpt lat="49.70295" lon="5.2617">
        <ele>347.6</ele>
        <time>2020-06-25T16:35:27Z</time>
      </trkpt>
      <trkpt lat="49.70296" lon="5.26175">
        <ele>347.7</ele>
        <time>2020-06-25T16:35:28Z</time>
      </trkpt>
      <trkpt lat="49.70296" lon="5.26177">
        <ele>347.8</ele>
        <time>2020-06-25T16:35:29Z</time>
      </trkpt>
      <trkpt lat="49.70297" lon="5.26182">
        <ele>347.9</ele>
        <time>2020-06-25T16:35:30Z</time>
      </trkpt>
      <trkpt lat="49.70297" lon="5.26184">
        <ele>347.9</ele>
        <time>2020-06-25T16:35:31Z</time>
      </trkpt>
      <trkpt lat="49.70299" lon="5.26188">
        <ele>348</ele>
        <time>2020-06-25T16:35:32Z</time>
      </trkpt>
      <trkpt lat="49.703" lon="5.26192">
        <ele>348.1</ele>
        <time>2020-06-25T16:35:33Z</time>
      </trkpt>
      <trkpt lat="49.703" lon="5.26196">
        <ele>348.2</ele>
        <time>2020-06-25T16:35:34Z</time>
      </trkpt>
      <trkpt lat="49.703" lon="5.26198">
        <ele>348.2</ele>
        <time>2020-06-25T16:35:35Z</time>
      </trkpt>
      <trkpt lat="49.70301" lon="5.26205">
        <ele>348.4</ele>
        <time>2020-06-25T16:35:36Z</time>
      </trkpt>
      <trkpt lat="49.70301" lon="5.26207">
        <ele>348.4</ele>
        <time>2020-06-25T16:35:37Z</time>
      </trkpt>
      <trkpt lat="49.70301" lon="5.26212">
        <ele>348.5</ele>
        <time>2020-06-25T16:35:38Z</time>
      </trkpt>
      <trkpt lat="49.70301" lon="5.26215">
        <ele>348.5</ele>
        <time>2020-06-25T16:35:39Z</time>
      </trkpt>
      <trkpt lat="49.70302" lon="5.2622">
        <ele>348.6</ele>
        <time>2020-06-25T16:35:40Z</time>
      </trkpt>
      <trkpt lat="49.70302" lon="5.26225">
        <ele>348.6</ele>
        <time>2020-06-25T16:35:41Z</time>
      </trkpt>
      <trkpt lat="49.70302" lon="5.26231">
        <ele>348.6</ele>
        <time>2020-06-25T16:35:42Z</time>
      </trkpt>
      <trkpt lat="49.70303" lon="5.26238">
        <ele>348.6</ele>
        <time>2020-06-25T16:35:43Z</time>
      </trkpt>
      <trkpt lat="49.70302" lon="5.2624">
        <ele>348.6</ele>
        <time>2020-06-25T16:35:44Z</time>
      </trkpt>
      <trkpt lat="49.70303" lon="5.26246">
        <ele>348.7</ele>
        <time>2020-06-25T16:35:45Z</time>
      </trkpt>
      <trkpt lat="49.70303" lon="5.26252">
        <ele>348.7</ele>
        <time>2020-06-25T16:35:46Z</time>
      </trkpt>
      <trkpt lat="49.70303" lon="5.26257">
        <ele>348.7</ele>
        <time>2020-06-25T16:35:47Z</time>
      </trkpt>
      <trkpt lat="49.70304" lon="5.26262">
        <ele>348.7</ele>
        <time>2020-06-25T16:35:48Z</time>
      </trkpt>
      <trkpt lat="49.70304" lon="5.26268">
        <ele>348.8</ele>
        <time>2020-06-25T16:35:49Z</time>
      </trkpt>
      <trkpt lat="49.70304" lon="5.26273">
        <ele>348.8</ele>
        <time>2020-06-25T16:35:50Z</time>
      </trkpt>
      <trkpt lat="49.70304" lon="5.26278">
        <ele>348.8</ele>
        <time>2020-06-25T16:35:51Z</time>
      </trkpt>
      <trkpt lat="49.70303" lon="5.26284">
        <ele>348.9</ele>
        <time>2020-06-25T16:35:52Z</time>
      </trkpt>
      <trkpt lat="49.70303" lon="5.26289">
        <ele>348.9</ele>
        <time>2020-06-25T16:35:53Z</time>
      </trkpt>
      <trkpt lat="49.70302" lon="5.26294">
        <ele>349</ele>
        <time>2020-06-25T16:35:54Z</time>
      </trkpt>
      <trkpt lat="49.70302" lon="5.26298">
        <ele>349</ele>
        <time>2020-06-25T16:35:55Z</time>
      </trkpt>
      <trkpt lat="49.70302" lon="5.26304">
        <ele>349.1</ele>
        <time>2020-06-25T16:35:56Z</time>
      </trkpt>
      <trkpt lat="49.70302" lon="5.26309">
        <ele>349.1</ele>
        <time>2020-06-25T16:35:57Z</time>
      </trkpt>
      <trkpt lat="49.70302" lon="5.26315">
        <ele>349.2</ele>
        <time>2020-06-25T16:35:58Z</time>
      </trkpt>
      <trkpt lat="49.70303" lon="5.2632">
        <ele>349.3</ele>
        <time>2020-06-25T16:35:59Z</time>
      </trkpt>
      <trkpt lat="49.70303" lon="5.26326">
        <ele>349.3</ele>
        <time>2020-06-25T16:36:00Z</time>
      </trkpt>
      <trkpt lat="49.70303" lon="5.26329">
        <ele>349.4</ele>
        <time>2020-06-25T16:36:01Z</time>
      </trkpt>
      <trkpt lat="49.70304" lon="5.26333">
        <ele>349.5</ele>
        <time>2020-06-25T16:36:02Z</time>
      </trkpt>
      <trkpt lat="49.70304" lon="5.26338">
        <ele>349.6</ele>
        <time>2020-06-25T16:36:03Z</time>
      </trkpt>
      <trkpt lat="49.70305" lon="5.26344">
        <ele>349.7</ele>
        <time>2020-06-25T16:36:04Z</time>
      </trkpt>
      <trkpt lat="49.70306" lon="5.26349">
        <ele>349.8</ele>
        <time>2020-06-25T16:36:05Z</time>
      </trkpt>
      <trkpt lat="49.70306" lon="5.26354">
        <ele>349.8</ele>
        <time>2020-06-25T16:36:06Z</time>
      </trkpt>
      <trkpt lat="49.70305" lon="5.2636">
        <ele>349.9</ele>
        <time>2020-06-25T16:36:07Z</time>
      </trkpt>
      <trkpt lat="49.70305" lon="5.26363">
        <ele>349.9</ele>
        <time>2020-06-25T16:36:08Z</time>
      </trkpt>
      <trkpt lat="49.70305" lon="5.2637">
        <ele>350</ele>
        <time>2020-06-25T16:36:09Z</time>
      </trkpt>
      <trkpt lat="49.70305" lon="5.26376">
        <ele>350.1</ele>
        <time>2020-06-25T16:36:10Z</time>
      </trkpt>
      <trkpt lat="49.70304" lon="5.26382">
        <ele>350.2</ele>
        <time>2020-06-25T16:36:11Z</time>
      </trkpt>
      <trkpt lat="49.70304" lon="5.26387">
        <ele>350.3</ele>
        <time>2020-06-25T16:36:12Z</time>
      </trkpt>
      <trkpt lat="49.70304" lon="5.26393">
        <ele>350.4</ele>
        <time>2020-06-25T16:36:13Z</time>
      </trkpt>
      <trkpt lat="49.70305" lon="5.26399">
        <ele>350.6</ele>
        <time>2020-06-25T16:36:14Z</time>
      </trkpt>
      <trkpt lat="49.70305" lon="5.26407">
        <ele>350.8</ele>
        <time>2020-06-25T16:36:15Z</time>
      </trkpt>
      <trkpt lat="49.70305" lon="5.26414">
        <ele>350.9</ele>
        <time>2020-06-25T16:36:16Z</time>
      </trkpt>
      <trkpt lat="49.70304" lon="5.2642">
        <ele>351.1</ele>
        <time>2020-06-25T16:36:17Z</time>
      </trkpt>
      <trkpt lat="49.70303" lon="5.26426">
        <ele>351.2</ele>
        <time>2020-06-25T16:36:18Z</time>
      </trkpt>
      <trkpt lat="49.70302" lon="5.26431">
        <ele>351.4</ele>
        <time>2020-06-25T16:36:19Z</time>
      </trkpt>
      <trkpt lat="49.70302" lon="5.26436">
        <ele>351.5</ele>
        <time>2020-06-25T16:36:20Z</time>
      </trkpt>
      <trkpt lat="49.70302" lon="5.26441">
        <ele>351.6</ele>
        <time>2020-06-25T16:36:21Z</time>
      </trkpt>
      <trkpt lat="49.70302" lon="5.26447">
        <ele>351.7</ele>
        <time>2020-06-25T16:36:22Z</time>
      </trkpt>
      <trkpt lat="49.70301" lon="5.26452">
        <ele>351.9</ele>
        <time>2020-06-25T16:36:23Z</time>
      </trkpt>
      <trkpt lat="49.70301" lon="5.26457">
        <ele>351.9</ele>
        <time>2020-06-25T16:36:24Z</time>
      </trkpt>
      <trkpt lat="49.70301" lon="5.26463">
        <ele>352</ele>
        <time>2020-06-25T16:36:25Z</time>
      </trkpt>
      <trkpt lat="49.703" lon="5.2647">
        <ele>352.2</ele>
        <time>2020-06-25T16:36:26Z</time>
      </trkpt>
      <trkpt lat="49.703" lon="5.26478">
        <ele>352.3</ele>
        <time>2020-06-25T16:36:27Z</time>
      </trkpt>
      <trkpt lat="49.703" lon="5.26485">
        <ele>352.4</ele>
        <time>2020-06-25T16:36:28Z</time>
      </trkpt>
      <trkpt lat="49.70299" lon="5.2649">
        <ele>352.5</ele>
        <time>2020-06-25T16:36:29Z</time>
      </trkpt>
      <trkpt lat="49.70298" lon="5.26495">
        <ele>352.7</ele>
        <time>2020-06-25T16:36:30Z</time>
      </trkpt>
      <trkpt lat="49.70298" lon="5.26501">
        <ele>352.8</ele>
        <time>2020-06-25T16:36:31Z</time>
      </trkpt>
      <trkpt lat="49.70297" lon="5.26507">
        <ele>352.8</ele>
        <time>2020-06-25T16:36:32Z</time>
      </trkpt>
      <trkpt lat="49.70297" lon="5.26512">
        <ele>352.8</ele>
        <time>2020-06-25T16:36:33Z</time>
      </trkpt>
      <trkpt lat="49.70297" lon="5.26514">
        <ele>352.8</ele>
        <time>2020-06-25T16:36:34Z</time>
      </trkpt>
      <trkpt lat="49.70297" lon="5.26519">
        <ele>352.8</ele>
        <time>2020-06-25T16:36:35Z</time>
      </trkpt>
      <trkpt lat="49.70297" lon="5.26521">
        <ele>352.8</ele>
        <time>2020-06-25T16:36:36Z</time>
      </trkpt>
      <trkpt lat="49.70297" lon="5.26526">
        <ele>352.7</ele>
        <time>2020-06-25T16:36:37Z</time>
      </trkpt>
      <trkpt lat="49.70296" lon="5.26532">
        <ele>352.6</ele>
        <time>2020-06-25T16:36:38Z</time>
      </trkpt>
      <trkpt lat="49.70296" lon="5.26533">
        <ele>352.6</ele>
        <time>2020-06-25T16:36:39Z</time>
      </trkpt>
      <trkpt lat="49.70295" lon="5.26538">
        <ele>352.5</ele>
        <time>2020-06-25T16:36:40Z</time>
      </trkpt>
      <trkpt lat="49.70294" lon="5.26544">
        <ele>352.3</ele>
        <time>2020-06-25T16:36:41Z</time>
      </trkpt>
      <trkpt lat="49.70293" lon="5.26549">
        <ele>352.2</ele>
        <time>2020-06-25T16:36:42Z</time>
      </trkpt>
      <trkpt lat="49.70292" lon="5.26555">
        <ele>352</ele>
        <time>2020-06-25T16:36:43Z</time>
      </trkpt>
      <trkpt lat="49.70292" lon="5.2656">
        <ele>351.7</ele>
        <time>2020-06-25T16:36:44Z</time>
      </trkpt>
      <trkpt lat="49.70291" lon="5.26565">
        <ele>351.5</ele>
        <time>2020-06-25T16:36:45Z</time>
      </trkpt>
      <trkpt lat="49.7029" lon="5.26572">
        <ele>351.1</ele>
        <time>2020-06-25T16:36:46Z</time>
      </trkpt>
      <trkpt lat="49.70289" lon="5.26579">
        <ele>350.7</ele>
        <time>2020-06-25T16:36:47Z</time>
      </trkpt>
      <trkpt lat="49.70289" lon="5.26587">
        <ele>350.3</ele>
        <time>2020-06-25T16:36:48Z</time>
      </trkpt>
      <trkpt lat="49.7029" lon="5.26597">
        <ele>349.7</ele>
        <time>2020-06-25T16:36:49Z</time>
      </trkpt>
      <trkpt lat="49.7029" lon="5.26607">
        <ele>349.1</ele>
        <time>2020-06-25T16:36:50Z</time>
      </trkpt>
      <trkpt lat="49.7029" lon="5.26617">
        <ele>348.5</ele>
        <time>2020-06-25T16:36:51Z</time>
      </trkpt>
      <trkpt lat="49.70289" lon="5.26628">
        <ele>347.9</ele>
        <time>2020-06-25T16:36:52Z</time>
      </trkpt>
      <trkpt lat="49.70289" lon="5.2664">
        <ele>347.2</ele>
        <time>2020-06-25T16:36:53Z</time>
      </trkpt>
      <trkpt lat="49.70288" lon="5.26651">
        <ele>346.7</ele>
        <time>2020-06-25T16:36:54Z</time>
      </trkpt>
      <trkpt lat="49.70288" lon="5.26664">
        <ele>346.2</ele>
        <time>2020-06-25T16:36:55Z</time>
      </trkpt>
      <trkpt lat="49.70289" lon="5.26676">
        <ele>345.9</ele>
        <time>2020-06-25T16:36:56Z</time>
      </trkpt>
      <trkpt lat="49.70289" lon="5.26687">
        <ele>345.7</ele>
        <time>2020-06-25T16:36:57Z</time>
      </trkpt>
      <trkpt lat="49.70289" lon="5.26697">
        <ele>345.7</ele>
        <time>2020-06-25T16:36:58Z</time>
      </trkpt>
      <trkpt lat="49.70289" lon="5.26708">
        <ele>345.7</ele>
        <time>2020-06-25T16:36:59Z</time>
      </trkpt>
      <trkpt lat="49.7029" lon="5.26717">
        <ele>345.8</ele>
        <time>2020-06-25T16:37:00Z</time>
      </trkpt>
      <trkpt lat="49.70291" lon="5.26725">
        <ele>346.1</ele>
        <time>2020-06-25T16:37:01Z</time>
      </trkpt>
      <trkpt lat="49.70291" lon="5.26733">
        <ele>346.4</ele>
        <time>2020-06-25T16:37:02Z</time>
      </trkpt>
      <trkpt lat="49.70291" lon="5.2674">
        <ele>346.7</ele>
        <time>2020-06-25T16:37:03Z</time>
      </trkpt>
      <trkpt lat="49.70292" lon="5.26747">
        <ele>347</ele>
        <time>2020-06-25T16:37:04Z</time>
      </trkpt>
      <trkpt lat="49.70292" lon="5.26753">
        <ele>347.3</ele>
        <time>2020-06-25T16:37:05Z</time>
      </trkpt>
      <trkpt lat="49.70291" lon="5.26759">
        <ele>347.6</ele>
        <time>2020-06-25T16:37:06Z</time>
      </trkpt>
      <trkpt lat="49.70291" lon="5.26765">
        <ele>347.9</ele>
        <time>2020-06-25T16:37:07Z</time>
      </trkpt>
      <trkpt lat="49.70291" lon="5.2677">
        <ele>348.2</ele>
        <time>2020-06-25T16:37:08Z</time>
      </trkpt>
      <trkpt lat="49.7029" lon="5.26776">
        <ele>348.5</ele>
        <time>2020-06-25T16:37:09Z</time>
      </trkpt>
      <trkpt lat="49.70289" lon="5.26781">
        <ele>348.8</ele>
        <time>2020-06-25T16:37:10Z</time>
      </trkpt>
      <trkpt lat="49.70288" lon="5.26788">
        <ele>349.1</ele>
        <time>2020-06-25T16:37:11Z</time>
      </trkpt>
      <trkpt lat="49.70287" lon="5.26794">
        <ele>349.4</ele>
        <time>2020-06-25T16:37:12Z</time>
      </trkpt>
      <trkpt lat="49.70286" lon="5.26801">
        <ele>349.6</ele>
        <time>2020-06-25T16:37:13Z</time>
      </trkpt>
      <trkpt lat="49.70284" lon="5.26806">
        <ele>349.9</ele>
        <time>2020-06-25T16:37:14Z</time>
      </trkpt>
      <trkpt lat="49.70283" lon="5.26812">
        <ele>350.1</ele>
        <time>2020-06-25T16:37:15Z</time>
      </trkpt>
      <trkpt lat="49.70281" lon="5.26818">
        <ele>350.3</ele>
        <time>2020-06-25T16:37:16Z</time>
      </trkpt>
      <trkpt lat="49.7028" lon="5.26823">
        <ele>350.6</ele>
        <time>2020-06-25T16:37:17Z</time>
      </trkpt>
      <trkpt lat="49.70279" lon="5.26829">
        <ele>350.8</ele>
        <time>2020-06-25T16:37:18Z</time>
      </trkpt>
      <trkpt lat="49.70278" lon="5.26835">
        <ele>351.1</ele>
        <time>2020-06-25T16:37:19Z</time>
      </trkpt>
      <trkpt lat="49.70277" lon="5.26841">
        <ele>351.3</ele>
        <time>2020-06-25T16:37:20Z</time>
      </trkpt>
      <trkpt lat="49.70277" lon="5.26846">
        <ele>351.5</ele>
        <time>2020-06-25T16:37:21Z</time>
      </trkpt>
      <trkpt lat="49.70277" lon="5.26852">
        <ele>351.8</ele>
        <time>2020-06-25T16:37:22Z</time>
      </trkpt>
      <trkpt lat="49.70276" lon="5.26857">
        <ele>352</ele>
        <time>2020-06-25T16:37:23Z</time>
      </trkpt>
      <trkpt lat="49.70277" lon="5.26863">
        <ele>352.2</ele>
        <time>2020-06-25T16:37:24Z</time>
      </trkpt>
      <trkpt lat="49.70276" lon="5.26868">
        <ele>352.4</ele>
        <time>2020-06-25T16:37:25Z</time>
      </trkpt>
      <trkpt lat="49.70275" lon="5.26873">
        <ele>352.6</ele>
        <time>2020-06-25T16:37:26Z</time>
      </trkpt>
      <trkpt lat="49.70274" lon="5.26878">
        <ele>352.8</ele>
        <time>2020-06-25T16:37:27Z</time>
      </trkpt>
      <trkpt lat="49.70274" lon="5.26883">
        <ele>353</ele>
        <time>2020-06-25T16:37:28Z</time>
      </trkpt>
      <trkpt lat="49.70273" lon="5.26888">
        <ele>353.2</ele>
        <time>2020-06-25T16:37:29Z</time>
      </trkpt>
      <trkpt lat="49.70273" lon="5.26894">
        <ele>353.4</ele>
        <time>2020-06-25T16:37:30Z</time>
      </trkpt>
      <trkpt lat="49.70272" lon="5.26899">
        <ele>353.6</ele>
        <time>2020-06-25T16:37:31Z</time>
      </trkpt>
      <trkpt lat="49.70272" lon="5.26904">
        <ele>353.8</ele>
        <time>2020-06-25T16:37:32Z</time>
      </trkpt>
      <trkpt lat="49.70271" lon="5.26909">
        <ele>354</ele>
        <time>2020-06-25T16:37:33Z</time>
      </trkpt>
      <trkpt lat="49.70271" lon="5.26915">
        <ele>354.2</ele>
        <time>2020-06-25T16:37:34Z</time>
      </trkpt>
      <trkpt lat="49.70271" lon="5.26921">
        <ele>354.4</ele>
        <time>2020-06-25T16:37:35Z</time>
      </trkpt>
      <trkpt lat="49.70271" lon="5.26926">
        <ele>354.6</ele>
        <time>2020-06-25T16:37:36Z</time>
      </trkpt>
      <trkpt lat="49.70271" lon="5.26931">
        <ele>354.8</ele>
        <time>2020-06-25T16:37:37Z</time>
      </trkpt>
      <trkpt lat="49.70271" lon="5.26936">
        <ele>354.9</ele>
        <time>2020-06-25T16:37:38Z</time>
      </trkpt>
      <trkpt lat="49.7027" lon="5.2694">
        <ele>355.1</ele>
        <time>2020-06-25T16:37:39Z</time>
      </trkpt>
      <trkpt lat="49.7027" lon="5.26945">
        <ele>355.2</ele>
        <time>2020-06-25T16:37:40Z</time>
      </trkpt>
      <trkpt lat="49.7027" lon="5.26949">
        <ele>355.4</ele>
        <time>2020-06-25T16:37:41Z</time>
      </trkpt>
      <trkpt lat="49.7027" lon="5.26954">
        <ele>355.6</ele>
        <time>2020-06-25T16:37:42Z</time>
      </trkpt>
      <trkpt lat="49.7027" lon="5.26959">
        <ele>355.7</ele>
        <time>2020-06-25T16:37:43Z</time>
      </trkpt>
      <trkpt lat="49.70269" lon="5.26964">
        <ele>355.9</ele>
        <time>2020-06-25T16:37:44Z</time>
      </trkpt>
      <trkpt lat="49.70269" lon="5.26969">
        <ele>356.1</ele>
        <time>2020-06-25T16:37:45Z</time>
      </trkpt>
      <trkpt lat="49.70267" lon="5.26973">
        <ele>356.2</ele>
        <time>2020-06-25T16:37:46Z</time>
      </trkpt>
      <trkpt lat="49.70267" lon="5.26978">
        <ele>356.3</ele>
        <time>2020-06-25T16:37:47Z</time>
      </trkpt>
      <trkpt lat="49.70267" lon="5.26983">
        <ele>356.4</ele>
        <time>2020-06-25T16:37:48Z</time>
      </trkpt>
      <trkpt lat="49.70267" lon="5.26988">
        <ele>356.6</ele>
        <time>2020-06-25T16:37:49Z</time>
      </trkpt>
      <trkpt lat="49.70267" lon="5.26993">
        <ele>356.7</ele>
        <time>2020-06-25T16:37:50Z</time>
      </trkpt>
      <trkpt lat="49.70267" lon="5.26998">
        <ele>356.8</ele>
        <time>2020-06-25T16:37:51Z</time>
      </trkpt>
      <trkpt lat="49.70266" lon="5.27003">
        <ele>357</ele>
        <time>2020-06-25T16:37:52Z</time>
      </trkpt>
      <trkpt lat="49.70266" lon="5.27009">
        <ele>357.1</ele>
        <time>2020-06-25T16:37:53Z</time>
      </trkpt>
      <trkpt lat="49.70266" lon="5.27014">
        <ele>357.2</ele>
        <time>2020-06-25T16:37:54Z</time>
      </trkpt>
      <trkpt lat="49.70266" lon="5.27019">
        <ele>357.2</ele>
        <time>2020-06-25T16:37:55Z</time>
      </trkpt>
      <trkpt lat="49.70266" lon="5.27024">
        <ele>357.3</ele>
        <time>2020-06-25T16:37:56Z</time>
      </trkpt>
      <trkpt lat="49.70266" lon="5.27029">
        <ele>357.4</ele>
        <time>2020-06-25T16:37:57Z</time>
      </trkpt>
      <trkpt lat="49.70266" lon="5.27034">
        <ele>357.5</ele>
        <time>2020-06-25T16:37:58Z</time>
      </trkpt>
      <trkpt lat="49.70266" lon="5.2704">
        <ele>357.6</ele>
        <time>2020-06-25T16:37:59Z</time>
      </trkpt>
      <trkpt lat="49.70265" lon="5.27045">
        <ele>357.7</ele>
        <time>2020-06-25T16:38:00Z</time>
      </trkpt>
      <trkpt lat="49.70266" lon="5.2705">
        <ele>357.8</ele>
        <time>2020-06-25T16:38:01Z</time>
      </trkpt>
      <trkpt lat="49.70267" lon="5.27056">
        <ele>358</ele>
        <time>2020-06-25T16:38:02Z</time>
      </trkpt>
      <trkpt lat="49.70267" lon="5.27061">
        <ele>358.2</ele>
        <time>2020-06-25T16:38:03Z</time>
      </trkpt>
      <trkpt lat="49.70267" lon="5.27066">
        <ele>358.4</ele>
        <time>2020-06-25T16:38:04Z</time>
      </trkpt>
      <trkpt lat="49.70266" lon="5.27072">
        <ele>358.6</ele>
        <time>2020-06-25T16:38:05Z</time>
      </trkpt>
      <trkpt lat="49.70265" lon="5.27078">
        <ele>358.8</ele>
        <time>2020-06-25T16:38:06Z</time>
      </trkpt>
      <trkpt lat="49.70264" lon="5.27083">
        <ele>359</ele>
        <time>2020-06-25T16:38:07Z</time>
      </trkpt>
      <trkpt lat="49.70264" lon="5.27089">
        <ele>359.2</ele>
        <time>2020-06-25T16:38:08Z</time>
      </trkpt>
      <trkpt lat="49.70263" lon="5.27094">
        <ele>359.3</ele>
        <time>2020-06-25T16:38:09Z</time>
      </trkpt>
      <trkpt lat="49.70262" lon="5.27099">
        <ele>359.5</ele>
        <time>2020-06-25T16:38:10Z</time>
      </trkpt>
      <trkpt lat="49.70261" lon="5.27104">
        <ele>359.7</ele>
        <time>2020-06-25T16:38:11Z</time>
      </trkpt>
      <trkpt lat="49.7026" lon="5.27109">
        <ele>359.8</ele>
        <time>2020-06-25T16:38:12Z</time>
      </trkpt>
      <trkpt lat="49.7026" lon="5.27115">
        <ele>360</ele>
        <time>2020-06-25T16:38:13Z</time>
      </trkpt>
      <trkpt lat="49.70259" lon="5.2712">
        <ele>360.2</ele>
        <time>2020-06-25T16:38:14Z</time>
      </trkpt>
      <trkpt lat="49.70257" lon="5.27125">
        <ele>360.4</ele>
        <time>2020-06-25T16:38:15Z</time>
      </trkpt>
      <trkpt lat="49.70255" lon="5.27129">
        <ele>360.5</ele>
        <time>2020-06-25T16:38:16Z</time>
      </trkpt>
      <trkpt lat="49.70253" lon="5.27135">
        <ele>360.6</ele>
        <time>2020-06-25T16:38:17Z</time>
      </trkpt>
      <trkpt lat="49.70251" lon="5.27144">
        <ele>360.6</ele>
        <time>2020-06-25T16:38:18Z</time>
      </trkpt>
      <trkpt lat="49.70251" lon="5.2715">
        <ele>360.5</ele>
        <time>2020-06-25T16:38:19Z</time>
      </trkpt>
      <trkpt lat="49.7025" lon="5.27155">
        <ele>360.2</ele>
        <time>2020-06-25T16:38:20Z</time>
      </trkpt>
      <trkpt lat="49.70249" lon="5.27162">
        <ele>360.3</ele>
        <time>2020-06-25T16:38:21Z</time>
      </trkpt>
      <trkpt lat="49.70249" lon="5.27164">
        <ele>360.4</ele>
        <time>2020-06-25T16:38:22Z</time>
      </trkpt>
      <trkpt lat="49.70248" lon="5.27169">
        <ele>360.5</ele>
        <time>2020-06-25T16:38:23Z</time>
      </trkpt>
      <trkpt lat="49.70247" lon="5.27176">
        <ele>360.6</ele>
        <time>2020-06-25T16:38:24Z</time>
      </trkpt>
      <trkpt lat="49.70247" lon="5.27179">
        <ele>360.6</ele>
        <time>2020-06-25T16:38:25Z</time>
      </trkpt>
      <trkpt lat="49.70245" lon="5.27182">
        <ele>360.6</ele>
        <time>2020-06-25T16:38:26Z</time>
      </trkpt>
      <trkpt lat="49.70243" lon="5.27186">
        <ele>360.6</ele>
        <time>2020-06-25T16:38:27Z</time>
      </trkpt>
      <trkpt lat="49.70242" lon="5.27188">
        <ele>360.6</ele>
        <time>2020-06-25T16:38:28Z</time>
      </trkpt>
      <trkpt lat="49.70241" lon="5.27193">
        <ele>360.5</ele>
        <time>2020-06-25T16:38:29Z</time>
      </trkpt>
      <trkpt lat="49.7024" lon="5.27195">
        <ele>360.4</ele>
        <time>2020-06-25T16:38:30Z</time>
      </trkpt>
      <trkpt lat="49.70238" lon="5.272">
        <ele>360.3</ele>
        <time>2020-06-25T16:38:31Z</time>
      </trkpt>
      <trkpt lat="49.70236" lon="5.27205">
        <ele>360.1</ele>
        <time>2020-06-25T16:38:32Z</time>
      </trkpt>
      <trkpt lat="49.70234" lon="5.27212">
        <ele>359.8</ele>
        <time>2020-06-25T16:38:33Z</time>
      </trkpt>
      <trkpt lat="49.70233" lon="5.2722">
        <ele>359.6</ele>
        <time>2020-06-25T16:38:34Z</time>
      </trkpt>
      <trkpt lat="49.70231" lon="5.27226">
        <ele>359.4</ele>
        <time>2020-06-25T16:38:35Z</time>
      </trkpt>
      <trkpt lat="49.70229" lon="5.27232">
        <ele>359.1</ele>
        <time>2020-06-25T16:38:36Z</time>
      </trkpt>
      <trkpt lat="49.70227" lon="5.27237">
        <ele>358.9</ele>
        <time>2020-06-25T16:38:37Z</time>
      </trkpt>
      <trkpt lat="49.70225" lon="5.27244">
        <ele>358.7</ele>
        <time>2020-06-25T16:38:38Z</time>
      </trkpt>
      <trkpt lat="49.70224" lon="5.27251">
        <ele>358.4</ele>
        <time>2020-06-25T16:38:39Z</time>
      </trkpt>
      <trkpt lat="49.70221" lon="5.27259">
        <ele>358.1</ele>
        <time>2020-06-25T16:38:40Z</time>
      </trkpt>
      <trkpt lat="49.70219" lon="5.27267">
        <ele>357.9</ele>
        <time>2020-06-25T16:38:41Z</time>
      </trkpt>
      <trkpt lat="49.70217" lon="5.27277">
        <ele>357.5</ele>
        <time>2020-06-25T16:38:42Z</time>
      </trkpt>
      <trkpt lat="49.70214" lon="5.27286">
        <ele>357.2</ele>
        <time>2020-06-25T16:38:43Z</time>
      </trkpt>
      <trkpt lat="49.70212" lon="5.27296">
        <ele>356.8</ele>
        <time>2020-06-25T16:38:44Z</time>
      </trkpt>
      <trkpt lat="49.7021" lon="5.27306">
        <ele>356.4</ele>
        <time>2020-06-25T16:38:45Z</time>
      </trkpt>
      <trkpt lat="49.70207" lon="5.27316">
        <ele>356.1</ele>
        <time>2020-06-25T16:38:46Z</time>
      </trkpt>
      <trkpt lat="49.70203" lon="5.27327">
        <ele>355.7</ele>
        <time>2020-06-25T16:38:47Z</time>
      </trkpt>
      <trkpt lat="49.702" lon="5.27338">
        <ele>355.3</ele>
        <time>2020-06-25T16:38:48Z</time>
      </trkpt>
      <trkpt lat="49.70197" lon="5.27349">
        <ele>354.9</ele>
        <time>2020-06-25T16:38:49Z</time>
      </trkpt>
      <trkpt lat="49.70195" lon="5.2736">
        <ele>354.7</ele>
        <time>2020-06-25T16:38:50Z</time>
      </trkpt>
      <trkpt lat="49.70192" lon="5.2737">
        <ele>354.5</ele>
        <time>2020-06-25T16:38:51Z</time>
      </trkpt>
      <trkpt lat="49.70189" lon="5.27382">
        <ele>354.3</ele>
        <time>2020-06-25T16:38:52Z</time>
      </trkpt>
      <trkpt lat="49.70186" lon="5.27393">
        <ele>354.1</ele>
        <time>2020-06-25T16:38:53Z</time>
      </trkpt>
      <trkpt lat="49.70183" lon="5.27403">
        <ele>354</ele>
        <time>2020-06-25T16:38:54Z</time>
      </trkpt>
      <trkpt lat="49.7018" lon="5.27414">
        <ele>354</ele>
        <time>2020-06-25T16:38:55Z</time>
      </trkpt>
      <trkpt lat="49.70177" lon="5.27425">
        <ele>353.8</ele>
        <time>2020-06-25T16:38:56Z</time>
      </trkpt>
      <trkpt lat="49.70173" lon="5.27435">
        <ele>353.8</ele>
        <time>2020-06-25T16:38:57Z</time>
      </trkpt>
      <trkpt lat="49.7017" lon="5.27446">
        <ele>353.8</ele>
        <time>2020-06-25T16:38:58Z</time>
      </trkpt>
      <trkpt lat="49.70168" lon="5.27456">
        <ele>354</ele>
        <time>2020-06-25T16:38:59Z</time>
      </trkpt>
      <trkpt lat="49.70165" lon="5.27466">
        <ele>354.2</ele>
        <time>2020-06-25T16:39:00Z</time>
      </trkpt>
      <trkpt lat="49.70161" lon="5.27475">
        <ele>354.4</ele>
        <time>2020-06-25T16:39:01Z</time>
      </trkpt>
      <trkpt lat="49.70159" lon="5.27484">
        <ele>354.7</ele>
        <time>2020-06-25T16:39:02Z</time>
      </trkpt>
      <trkpt lat="49.70156" lon="5.27493">
        <ele>354.9</ele>
        <time>2020-06-25T16:39:03Z</time>
      </trkpt>
      <trkpt lat="49.70153" lon="5.27502">
        <ele>355.1</ele>
        <time>2020-06-25T16:39:04Z</time>
      </trkpt>
      <trkpt lat="49.70151" lon="5.2751">
        <ele>355.2</ele>
        <time>2020-06-25T16:39:05Z</time>
      </trkpt>
      <trkpt lat="49.70149" lon="5.27518">
        <ele>355.4</ele>
        <time>2020-06-25T16:39:06Z</time>
      </trkpt>
      <trkpt lat="49.70147" lon="5.27525">
        <ele>355.6</ele>
        <time>2020-06-25T16:39:07Z</time>
      </trkpt>
      <trkpt lat="49.70146" lon="5.27533">
        <ele>355.8</ele>
        <time>2020-06-25T16:39:08Z</time>
      </trkpt>
      <trkpt lat="49.70145" lon="5.2754">
        <ele>356</ele>
        <time>2020-06-25T16:39:09Z</time>
      </trkpt>
      <trkpt lat="49.70144" lon="5.27546">
        <ele>356.2</ele>
        <time>2020-06-25T16:39:10Z</time>
      </trkpt>
      <trkpt lat="49.70142" lon="5.27552">
        <ele>356.4</ele>
        <time>2020-06-25T16:39:11Z</time>
      </trkpt>
      <trkpt lat="49.7014" lon="5.27557">
        <ele>356.6</ele>
        <time>2020-06-25T16:39:12Z</time>
      </trkpt>
      <trkpt lat="49.70138" lon="5.27563">
        <ele>356.8</ele>
        <time>2020-06-25T16:39:13Z</time>
      </trkpt>
      <trkpt lat="49.70135" lon="5.27569">
        <ele>357</ele>
        <time>2020-06-25T16:39:14Z</time>
      </trkpt>
      <trkpt lat="49.70133" lon="5.27574">
        <ele>357.1</ele>
        <time>2020-06-25T16:39:15Z</time>
      </trkpt>
      <trkpt lat="49.70132" lon="5.2758">
        <ele>357.3</ele>
        <time>2020-06-25T16:39:16Z</time>
      </trkpt>
      <trkpt lat="49.7013" lon="5.27584">
        <ele>357.4</ele>
        <time>2020-06-25T16:39:17Z</time>
      </trkpt>
      <trkpt lat="49.70129" lon="5.27589">
        <ele>357.5</ele>
        <time>2020-06-25T16:39:18Z</time>
      </trkpt>
      <trkpt lat="49.70127" lon="5.27592">
        <ele>357.6</ele>
        <time>2020-06-25T16:39:19Z</time>
      </trkpt>
      <trkpt lat="49.70125" lon="5.27596">
        <ele>357.7</ele>
        <time>2020-06-25T16:39:20Z</time>
      </trkpt>
      <trkpt lat="49.70123" lon="5.27599">
        <ele>357.8</ele>
        <time>2020-06-25T16:39:21Z</time>
      </trkpt>
      <trkpt lat="49.7012" lon="5.27602">
        <ele>357.9</ele>
        <time>2020-06-25T16:39:22Z</time>
      </trkpt>
      <trkpt lat="49.7012" lon="5.27603">
        <ele>357.9</ele>
        <time>2020-06-25T16:39:23Z</time>
      </trkpt>
      <trkpt lat="49.70119" lon="5.27605">
        <ele>358</ele>
        <time>2020-06-25T16:39:24Z</time>
      </trkpt>
      <trkpt lat="49.70117" lon="5.27606">
        <ele>358</ele>
        <time>2020-06-25T16:39:25Z</time>
      </trkpt>
      <trkpt lat="49.70117" lon="5.27607">
        <ele>358.1</ele>
        <time>2020-06-25T16:39:26Z</time>
      </trkpt>
      <trkpt lat="49.70116" lon="5.27608">
        <ele>358.1</ele>
        <time>2020-06-25T16:39:27Z</time>
      </trkpt>
      <trkpt lat="49.70116" lon="5.27609">
        <ele>358.1</ele>
        <time>2020-06-25T16:39:28Z</time>
      </trkpt>
      <trkpt lat="49.70116" lon="5.2761">
        <ele>358.1</ele>
        <time>2020-06-25T16:39:29Z</time>
      </trkpt>
      <trkpt lat="49.70116" lon="5.27612">
        <ele>358.2</ele>
        <time>2020-06-25T16:39:30Z</time>
      </trkpt>
      <trkpt lat="49.70116" lon="5.27612">
        <ele>358.2</ele>
        <time>2020-06-25T16:39:31Z</time>
      </trkpt>
      <trkpt lat="49.70116" lon="5.27613">
        <ele>358.2</ele>
        <time>2020-06-25T16:39:32Z</time>
      </trkpt>
      <trkpt lat="49.70117" lon="5.27614">
        <ele>358.2</ele>
        <time>2020-06-25T16:39:33Z</time>
      </trkpt>
      <trkpt lat="49.70117" lon="5.27615">
        <ele>358.2</ele>
        <time>2020-06-25T16:39:34Z</time>
      </trkpt>
      <trkpt lat="49.70117" lon="5.27615">
        <ele>358.2</ele>
        <time>2020-06-25T16:39:35Z</time>
      </trkpt>
      <trkpt lat="49.70116" lon="5.27615">
        <ele>358.2</ele>
        <time>2020-06-25T16:39:36Z</time>
      </trkpt>
      <trkpt lat="49.70116" lon="5.27614">
        <ele>358.2</ele>
        <time>2020-06-25T16:39:37Z</time>
      </trkpt>
      <trkpt lat="49.70116" lon="5.27614">
        <ele>358.2</ele>
        <time>2020-06-25T16:39:38Z</time>
      </trkpt>
      <trkpt lat="49.70115" lon="5.27613">
        <ele>358.2</ele>
        <time>2020-06-25T16:39:39Z</time>
      </trkpt>
      <trkpt lat="49.70115" lon="5.27613">
        <ele>358.2</ele>
        <time>2020-06-25T16:39:40Z</time>
      </trkpt>
      <trkpt lat="49.70116" lon="5.27614">
        <ele>358.3</ele>
        <time>2020-06-25T16:39:41Z</time>
      </trkpt>
      <trkpt lat="49.70114" lon="5.27639">
        <ele>358.3</ele>
        <time>2020-06-25T16:47:26Z</time>
      </trkpt>
      <trkpt lat="49.70112" lon="5.27641">
        <ele>358.3</ele>
        <time>2020-06-25T16:47:27Z</time>
      </trkpt>
      <trkpt lat="49.70111" lon="5.27645">
        <ele>358.3</ele>
        <time>2020-06-25T16:47:28Z</time>
      </trkpt>
      <trkpt lat="49.7011" lon="5.27646">
        <ele>358.3</ele>
        <time>2020-06-25T16:47:29Z</time>
      </trkpt>
      <trkpt lat="49.70109" lon="5.27651">
        <ele>358.3</ele>
        <time>2020-06-25T16:47:30Z</time>
      </trkpt>
      <trkpt lat="49.70108" lon="5.27653">
        <ele>358.3</ele>
        <time>2020-06-25T16:47:31Z</time>
      </trkpt>
      <trkpt lat="49.70106" lon="5.27658">
        <ele>358.2</ele>
        <time>2020-06-25T16:47:32Z</time>
      </trkpt>
      <trkpt lat="49.70106" lon="5.27659">
        <ele>358.2</ele>
        <time>2020-06-25T16:47:33Z</time>
      </trkpt>
      <trkpt lat="49.70104" lon="5.27663">
        <ele>358.1</ele>
        <time>2020-06-25T16:47:34Z</time>
      </trkpt>
      <trkpt lat="49.70103" lon="5.27667">
        <ele>358</ele>
        <time>2020-06-25T16:47:35Z</time>
      </trkpt>
      <trkpt lat="49.701" lon="5.27671">
        <ele>357.9</ele>
        <time>2020-06-25T16:47:36Z</time>
      </trkpt>
      <trkpt lat="49.70099" lon="5.27676">
        <ele>357.8</ele>
        <time>2020-06-25T16:47:37Z</time>
      </trkpt>
      <trkpt lat="49.70097" lon="5.27682">
        <ele>357.6</ele>
        <time>2020-06-25T16:47:38Z</time>
      </trkpt>
      <trkpt lat="49.70096" lon="5.27688">
        <ele>357.4</ele>
        <time>2020-06-25T16:47:39Z</time>
      </trkpt>
      <trkpt lat="49.70094" lon="5.27694">
        <ele>357.2</ele>
        <time>2020-06-25T16:47:40Z</time>
      </trkpt>
      <trkpt lat="49.70094" lon="5.27701">
        <ele>357</ele>
        <time>2020-06-25T16:47:41Z</time>
      </trkpt>
      <trkpt lat="49.70092" lon="5.27707">
        <ele>356.8</ele>
        <time>2020-06-25T16:47:42Z</time>
      </trkpt>
      <trkpt lat="49.70091" lon="5.27713">
        <ele>356.5</ele>
        <time>2020-06-25T16:47:43Z</time>
      </trkpt>
      <trkpt lat="49.70089" lon="5.2772">
        <ele>356.3</ele>
        <time>2020-06-25T16:47:44Z</time>
      </trkpt>
      <trkpt lat="49.70086" lon="5.27726">
        <ele>356.1</ele>
        <time>2020-06-25T16:47:45Z</time>
      </trkpt>
      <trkpt lat="49.70083" lon="5.27732">
        <ele>355.8</ele>
        <time>2020-06-25T16:47:46Z</time>
      </trkpt>
      <trkpt lat="49.70079" lon="5.27737">
        <ele>355.6</ele>
        <time>2020-06-25T16:47:47Z</time>
      </trkpt>
      <trkpt lat="49.70076" lon="5.27743">
        <ele>355.4</ele>
        <time>2020-06-25T16:47:48Z</time>
      </trkpt>
      <trkpt lat="49.70074" lon="5.27751">
        <ele>355.1</ele>
        <time>2020-06-25T16:47:49Z</time>
      </trkpt>
      <trkpt lat="49.70072" lon="5.27757">
        <ele>354.8</ele>
        <time>2020-06-25T16:47:50Z</time>
      </trkpt>
      <trkpt lat="49.70071" lon="5.27764">
        <ele>354.5</ele>
        <time>2020-06-25T16:47:51Z</time>
      </trkpt>
      <trkpt lat="49.70069" lon="5.27771">
        <ele>354.4</ele>
        <time>2020-06-25T16:47:52Z</time>
      </trkpt>
      <trkpt lat="49.70067" lon="5.27776">
        <ele>354.3</ele>
        <time>2020-06-25T16:47:53Z</time>
      </trkpt>
      <trkpt lat="49.70064" lon="5.2778">
        <ele>354.3</ele>
        <time>2020-06-25T16:47:54Z</time>
      </trkpt>
      <trkpt lat="49.70063" lon="5.27787">
        <ele>354.2</ele>
        <time>2020-06-25T16:47:55Z</time>
      </trkpt>
      <trkpt lat="49.70063" lon="5.27791">
        <ele>354.2</ele>
        <time>2020-06-25T16:47:56Z</time>
      </trkpt>
      <trkpt lat="49.70063" lon="5.27797">
        <ele>354.1</ele>
        <time>2020-06-25T16:47:57Z</time>
      </trkpt>
      <trkpt lat="49.70062" lon="5.27798">
        <ele>354.1</ele>
        <time>2020-06-25T16:47:58Z</time>
      </trkpt>
      <trkpt lat="49.70063" lon="5.27802">
        <ele>354</ele>
        <time>2020-06-25T16:47:59Z</time>
      </trkpt>
      <trkpt lat="49.70063" lon="5.27804">
        <ele>354</ele>
        <time>2020-06-25T16:48:00Z</time>
      </trkpt>
      <trkpt lat="49.70063" lon="5.27806">
        <ele>354</ele>
        <time>2020-06-25T16:48:01Z</time>
      </trkpt>
      <trkpt lat="49.70063" lon="5.27808">
        <ele>354</ele>
        <time>2020-06-25T16:48:02Z</time>
      </trkpt>
      <trkpt lat="49.70063" lon="5.27808">
        <ele>354</ele>
        <time>2020-06-25T16:48:03Z</time>
      </trkpt>
      <trkpt lat="49.70062" lon="5.27809">
        <ele>353.9</ele>
        <time>2020-06-25T16:48:04Z</time>
      </trkpt>
      <trkpt lat="49.70061" lon="5.2781">
        <ele>353.9</ele>
        <time>2020-06-25T16:48:05Z</time>
      </trkpt>
      <trkpt lat="49.70061" lon="5.27811">
        <ele>353.9</ele>
        <time>2020-06-25T16:48:06Z</time>
      </trkpt>
      <trkpt lat="49.7006" lon="5.27813">
        <ele>353.9</ele>
        <time>2020-06-25T16:48:07Z</time>
      </trkpt>
      <trkpt lat="49.7006" lon="5.27813">
        <ele>353.9</ele>
        <time>2020-06-25T16:48:08Z</time>
      </trkpt>
      <trkpt lat="49.70061" lon="5.27817">
        <ele>353.8</ele>
        <time>2020-06-25T16:48:09Z</time>
      </trkpt>
      <trkpt lat="49.70061" lon="5.27819">
        <ele>353.8</ele>
        <time>2020-06-25T16:48:10Z</time>
      </trkpt>
      <trkpt lat="49.70062" lon="5.27822">
        <ele>353.8</ele>
        <time>2020-06-25T16:48:11Z</time>
      </trkpt>
      <trkpt lat="49.70062" lon="5.27824">
        <ele>353.8</ele>
        <time>2020-06-25T16:48:12Z</time>
      </trkpt>
      <trkpt lat="49.70063" lon="5.27826">
        <ele>353.7</ele>
        <time>2020-06-25T16:48:13Z</time>
      </trkpt>
      <trkpt lat="49.70063" lon="5.27829">
        <ele>353.7</ele>
        <time>2020-06-25T16:48:32Z</time>
      </trkpt>
      <trkpt lat="49.70064" lon="5.27831">
        <ele>353.7</ele>
        <time>2020-06-25T16:48:33Z</time>
      </trkpt>
      <trkpt lat="49.70064" lon="5.27836">
        <ele>353.7</ele>
        <time>2020-06-25T16:48:34Z</time>
      </trkpt>
      <trkpt lat="49.70063" lon="5.27842">
        <ele>353.6</ele>
        <time>2020-06-25T16:48:35Z</time>
      </trkpt>
      <trkpt lat="49.70063" lon="5.27845">
        <ele>353.6</ele>
        <time>2020-06-25T16:48:36Z</time>
      </trkpt>
      <trkpt lat="49.70063" lon="5.2785">
        <ele>353.5</ele>
        <time>2020-06-25T16:48:37Z</time>
      </trkpt>
      <trkpt lat="49.70062" lon="5.27856">
        <ele>353.4</ele>
        <time>2020-06-25T16:48:38Z</time>
      </trkpt>
      <trkpt lat="49.70061" lon="5.27862">
        <ele>353.4</ele>
        <time>2020-06-25T16:48:39Z</time>
      </trkpt>
      <trkpt lat="49.70061" lon="5.27868">
        <ele>353.3</ele>
        <time>2020-06-25T16:48:40Z</time>
      </trkpt>
      <trkpt lat="49.70061" lon="5.27875">
        <ele>353.2</ele>
        <time>2020-06-25T16:48:41Z</time>
      </trkpt>
      <trkpt lat="49.70061" lon="5.27883">
        <ele>353.1</ele>
        <time>2020-06-25T16:48:42Z</time>
      </trkpt>
      <trkpt lat="49.70062" lon="5.27889">
        <ele>353</ele>
        <time>2020-06-25T16:48:43Z</time>
      </trkpt>
      <trkpt lat="49.70062" lon="5.27894">
        <ele>353</ele>
        <time>2020-06-25T16:48:44Z</time>
      </trkpt>
      <trkpt lat="49.70062" lon="5.279">
        <ele>352.9</ele>
        <time>2020-06-25T16:48:45Z</time>
      </trkpt>
      <trkpt lat="49.70062" lon="5.27905">
        <ele>352.9</ele>
        <time>2020-06-25T16:48:46Z</time>
      </trkpt>
      <trkpt lat="49.70062" lon="5.27911">
        <ele>352.8</ele>
        <time>2020-06-25T16:48:47Z</time>
      </trkpt>
      <trkpt lat="49.70062" lon="5.27916">
        <ele>352.8</ele>
        <time>2020-06-25T16:48:48Z</time>
      </trkpt>
      <trkpt lat="49.70062" lon="5.27923">
        <ele>352.8</ele>
        <time>2020-06-25T16:48:49Z</time>
      </trkpt>
      <trkpt lat="49.70062" lon="5.2793">
        <ele>352.8</ele>
        <time>2020-06-25T16:48:50Z</time>
      </trkpt>
      <trkpt lat="49.70063" lon="5.27936">
        <ele>352.8</ele>
        <time>2020-06-25T16:48:51Z</time>
      </trkpt>
      <trkpt lat="49.70063" lon="5.27942">
        <ele>352.8</ele>
        <time>2020-06-25T16:48:52Z</time>
      </trkpt>
      <trkpt lat="49.70063" lon="5.27947">
        <ele>352.9</ele>
        <time>2020-06-25T16:48:53Z</time>
      </trkpt>
      <trkpt lat="49.70063" lon="5.27952">
        <ele>352.9</ele>
        <time>2020-06-25T16:48:54Z</time>
      </trkpt>
      <trkpt lat="49.70063" lon="5.27959">
        <ele>352.9</ele>
        <time>2020-06-25T16:48:55Z</time>
      </trkpt>
      <trkpt lat="49.70063" lon="5.27965">
        <ele>352.9</ele>
        <time>2020-06-25T16:48:56Z</time>
      </trkpt>
      <trkpt lat="49.70063" lon="5.27971">
        <ele>352.9</ele>
        <time>2020-06-25T16:48:57Z</time>
      </trkpt>
      <trkpt lat="49.70063" lon="5.27977">
        <ele>352.8</ele>
        <time>2020-06-25T16:48:58Z</time>
      </trkpt>
      <trkpt lat="49.70062" lon="5.27983">
        <ele>352.8</ele>
        <time>2020-06-25T16:48:59Z</time>
      </trkpt>
      <trkpt lat="49.70062" lon="5.2799">
        <ele>352.8</ele>
        <time>2020-06-25T16:49:00Z</time>
      </trkpt>
      <trkpt lat="49.70061" lon="5.27996">
        <ele>352.9</ele>
        <time>2020-06-25T16:49:01Z</time>
      </trkpt>
      <trkpt lat="49.70061" lon="5.28004">
        <ele>352.9</ele>
        <time>2020-06-25T16:49:02Z</time>
      </trkpt>
      <trkpt lat="49.70061" lon="5.28009">
        <ele>353</ele>
        <time>2020-06-25T16:49:03Z</time>
      </trkpt>
      <trkpt lat="49.70062" lon="5.28015">
        <ele>353</ele>
        <time>2020-06-25T16:49:04Z</time>
      </trkpt>
      <trkpt lat="49.70062" lon="5.28021">
        <ele>353.1</ele>
        <time>2020-06-25T16:49:05Z</time>
      </trkpt>
      <trkpt lat="49.70062" lon="5.28027">
        <ele>353.1</ele>
        <time>2020-06-25T16:49:06Z</time>
      </trkpt>
      <trkpt lat="49.70062" lon="5.28032">
        <ele>353.2</ele>
        <time>2020-06-25T16:49:07Z</time>
      </trkpt>
      <trkpt lat="49.70062" lon="5.28038">
        <ele>353.3</ele>
        <time>2020-06-25T16:49:08Z</time>
      </trkpt>
      <trkpt lat="49.70062" lon="5.28044">
        <ele>353.4</ele>
        <time>2020-06-25T16:49:09Z</time>
      </trkpt>
      <trkpt lat="49.70063" lon="5.28052">
        <ele>353.5</ele>
        <time>2020-06-25T16:49:10Z</time>
      </trkpt>
      <trkpt lat="49.70063" lon="5.28058">
        <ele>353.6</ele>
        <time>2020-06-25T16:49:11Z</time>
      </trkpt>
      <trkpt lat="49.70063" lon="5.28065">
        <ele>353.8</ele>
        <time>2020-06-25T16:49:12Z</time>
      </trkpt>
      <trkpt lat="49.70063" lon="5.28072">
        <ele>353.9</ele>
        <time>2020-06-25T16:49:13Z</time>
      </trkpt>
      <trkpt lat="49.70064" lon="5.28078">
        <ele>354</ele>
        <time>2020-06-25T16:49:14Z</time>
      </trkpt>
      <trkpt lat="49.70064" lon="5.28084">
        <ele>354.1</ele>
        <time>2020-06-25T16:49:15Z</time>
      </trkpt>
      <trkpt lat="49.70065" lon="5.28088">
        <ele>354.3</ele>
        <time>2020-06-25T16:49:16Z</time>
      </trkpt>
      <trkpt lat="49.70066" lon="5.28094">
        <ele>354.4</ele>
        <time>2020-06-25T16:49:17Z</time>
      </trkpt>
      <trkpt lat="49.70066" lon="5.281">
        <ele>354.6</ele>
        <time>2020-06-25T16:49:18Z</time>
      </trkpt>
      <trkpt lat="49.70066" lon="5.28106">
        <ele>354.8</ele>
        <time>2020-06-25T16:49:19Z</time>
      </trkpt>
      <trkpt lat="49.70067" lon="5.28108">
        <ele>354.9</ele>
        <time>2020-06-25T16:49:20Z</time>
      </trkpt>
      <trkpt lat="49.70067" lon="5.28113">
        <ele>355</ele>
        <time>2020-06-25T16:49:21Z</time>
      </trkpt>
      <trkpt lat="49.70067" lon="5.28118">
        <ele>355.2</ele>
        <time>2020-06-25T16:49:22Z</time>
      </trkpt>
      <trkpt lat="49.70067" lon="5.28123">
        <ele>355.4</ele>
        <time>2020-06-25T16:49:23Z</time>
      </trkpt>
      <trkpt lat="49.70067" lon="5.28127">
        <ele>355.5</ele>
        <time>2020-06-25T16:49:24Z</time>
      </trkpt>
      <trkpt lat="49.70068" lon="5.28132">
        <ele>355.7</ele>
        <time>2020-06-25T16:49:25Z</time>
      </trkpt>
      <trkpt lat="49.70068" lon="5.28137">
        <ele>355.9</ele>
        <time>2020-06-25T16:49:26Z</time>
      </trkpt>
      <trkpt lat="49.70068" lon="5.28143">
        <ele>356.1</ele>
        <time>2020-06-25T16:49:27Z</time>
      </trkpt>
      <trkpt lat="49.70068" lon="5.28145">
        <ele>356.2</ele>
        <time>2020-06-25T16:49:28Z</time>
      </trkpt>
      <trkpt lat="49.70068" lon="5.28151">
        <ele>356.4</ele>
        <time>2020-06-25T16:49:29Z</time>
      </trkpt>
      <trkpt lat="49.70067" lon="5.28156">
        <ele>356.5</ele>
        <time>2020-06-25T16:49:30Z</time>
      </trkpt>
      <trkpt lat="49.70068" lon="5.28161">
        <ele>356.7</ele>
        <time>2020-06-25T16:49:31Z</time>
      </trkpt>
      <trkpt lat="49.70069" lon="5.28165">
        <ele>356.9</ele>
        <time>2020-06-25T16:49:32Z</time>
      </trkpt>
      <trkpt lat="49.70069" lon="5.2817">
        <ele>357</ele>
        <time>2020-06-25T16:49:33Z</time>
      </trkpt>
      <trkpt lat="49.70071" lon="5.28174">
        <ele>357.2</ele>
        <time>2020-06-25T16:49:34Z</time>
      </trkpt>
      <trkpt lat="49.70073" lon="5.28178">
        <ele>357.3</ele>
        <time>2020-06-25T16:49:35Z</time>
      </trkpt>
      <trkpt lat="49.70075" lon="5.28184">
        <ele>357.5</ele>
        <time>2020-06-25T16:49:36Z</time>
      </trkpt>
      <trkpt lat="49.70077" lon="5.2819">
        <ele>357.6</ele>
        <time>2020-06-25T16:49:37Z</time>
      </trkpt>
      <trkpt lat="49.70078" lon="5.28195">
        <ele>357.8</ele>
        <time>2020-06-25T16:49:38Z</time>
      </trkpt>
      <trkpt lat="49.7008" lon="5.282">
        <ele>357.9</ele>
        <time>2020-06-25T16:49:39Z</time>
      </trkpt>
      <trkpt lat="49.70082" lon="5.28205">
        <ele>358</ele>
        <time>2020-06-25T16:49:40Z</time>
      </trkpt>
      <trkpt lat="49.70083" lon="5.28209">
        <ele>358</ele>
        <time>2020-06-25T16:49:41Z</time>
      </trkpt>
      <trkpt lat="49.70084" lon="5.28215">
        <ele>358.1</ele>
        <time>2020-06-25T16:49:42Z</time>
      </trkpt>
      <trkpt lat="49.70086" lon="5.28221">
        <ele>358.1</ele>
        <time>2020-06-25T16:49:43Z</time>
      </trkpt>
      <trkpt lat="49.70087" lon="5.28226">
        <ele>358.2</ele>
        <time>2020-06-25T16:49:44Z</time>
      </trkpt>
      <trkpt lat="49.70088" lon="5.28232">
        <ele>358.2</ele>
        <time>2020-06-25T16:49:45Z</time>
      </trkpt>
      <trkpt lat="49.7009" lon="5.28236">
        <ele>358.3</ele>
        <time>2020-06-25T16:49:46Z</time>
      </trkpt>
      <trkpt lat="49.70091" lon="5.28242">
        <ele>358.3</ele>
        <time>2020-06-25T16:49:47Z</time>
      </trkpt>
      <trkpt lat="49.70093" lon="5.28247">
        <ele>358.4</ele>
        <time>2020-06-25T16:49:48Z</time>
      </trkpt>
      <trkpt lat="49.70096" lon="5.28253">
        <ele>358.4</ele>
        <time>2020-06-25T16:49:49Z</time>
      </trkpt>
      <trkpt lat="49.70098" lon="5.28258">
        <ele>358.5</ele>
        <time>2020-06-25T16:49:50Z</time>
      </trkpt>
      <trkpt lat="49.70101" lon="5.28263">
        <ele>358.6</ele>
        <time>2020-06-25T16:49:51Z</time>
      </trkpt>
      <trkpt lat="49.70104" lon="5.28267">
        <ele>358.7</ele>
        <time>2020-06-25T16:49:52Z</time>
      </trkpt>
      <trkpt lat="49.70106" lon="5.28272">
        <ele>358.8</ele>
        <time>2020-06-25T16:49:53Z</time>
      </trkpt>
      <trkpt lat="49.70109" lon="5.28277">
        <ele>358.9</ele>
        <time>2020-06-25T16:49:54Z</time>
      </trkpt>
      <trkpt lat="49.7011" lon="5.28282">
        <ele>358.9</ele>
        <time>2020-06-25T16:49:55Z</time>
      </trkpt>
      <trkpt lat="49.70113" lon="5.28286">
        <ele>359</ele>
        <time>2020-06-25T16:49:56Z</time>
      </trkpt>
      <trkpt lat="49.70116" lon="5.28291">
        <ele>359.1</ele>
        <time>2020-06-25T16:49:57Z</time>
      </trkpt>
      <trkpt lat="49.70119" lon="5.28296">
        <ele>359.3</ele>
        <time>2020-06-25T16:49:58Z</time>
      </trkpt>
      <trkpt lat="49.70122" lon="5.28302">
        <ele>359.4</ele>
        <time>2020-06-25T16:49:59Z</time>
      </trkpt>
      <trkpt lat="49.70124" lon="5.28307">
        <ele>359.6</ele>
        <time>2020-06-25T16:50:00Z</time>
      </trkpt>
      <trkpt lat="49.70127" lon="5.28312">
        <ele>359.7</ele>
        <time>2020-06-25T16:50:01Z</time>
      </trkpt>
      <trkpt lat="49.70129" lon="5.28316">
        <ele>359.8</ele>
        <time>2020-06-25T16:50:02Z</time>
      </trkpt>
      <trkpt lat="49.70132" lon="5.28321">
        <ele>360</ele>
        <time>2020-06-25T16:50:03Z</time>
      </trkpt>
      <trkpt lat="49.70135" lon="5.28326">
        <ele>360.1</ele>
        <time>2020-06-25T16:50:04Z</time>
      </trkpt>
      <trkpt lat="49.70137" lon="5.28331">
        <ele>360.3</ele>
        <time>2020-06-25T16:50:05Z</time>
      </trkpt>
      <trkpt lat="49.7014" lon="5.28335">
        <ele>360.4</ele>
        <time>2020-06-25T16:50:06Z</time>
      </trkpt>
      <trkpt lat="49.70143" lon="5.2834">
        <ele>360.5</ele>
        <time>2020-06-25T16:50:07Z</time>
      </trkpt>
      <trkpt lat="49.70144" lon="5.28344">
        <ele>360.6</ele>
        <time>2020-06-25T16:50:08Z</time>
      </trkpt>
      <trkpt lat="49.70147" lon="5.28349">
        <ele>360.7</ele>
        <time>2020-06-25T16:50:09Z</time>
      </trkpt>
      <trkpt lat="49.7015" lon="5.28353">
        <ele>360.8</ele>
        <time>2020-06-25T16:50:10Z</time>
      </trkpt>
      <trkpt lat="49.70152" lon="5.28358">
        <ele>360.8</ele>
        <time>2020-06-25T16:50:11Z</time>
      </trkpt>
      <trkpt lat="49.70155" lon="5.28363">
        <ele>360.9</ele>
        <time>2020-06-25T16:50:12Z</time>
      </trkpt>
      <trkpt lat="49.70157" lon="5.28368">
        <ele>360.9</ele>
        <time>2020-06-25T16:50:13Z</time>
      </trkpt>
      <trkpt lat="49.7016" lon="5.28373">
        <ele>361</ele>
        <time>2020-06-25T16:50:14Z</time>
      </trkpt>
      <trkpt lat="49.70163" lon="5.28378">
        <ele>361</ele>
        <time>2020-06-25T16:50:15Z</time>
      </trkpt>
      <trkpt lat="49.70165" lon="5.28383">
        <ele>361.1</ele>
        <time>2020-06-25T16:50:16Z</time>
      </trkpt>
      <trkpt lat="49.70168" lon="5.28388">
        <ele>361.2</ele>
        <time>2020-06-25T16:50:17Z</time>
      </trkpt>
      <trkpt lat="49.70171" lon="5.28394">
        <ele>361.3</ele>
        <time>2020-06-25T16:50:18Z</time>
      </trkpt>
      <trkpt lat="49.70174" lon="5.28398">
        <ele>361.4</ele>
        <time>2020-06-25T16:50:19Z</time>
      </trkpt>
      <trkpt lat="49.70177" lon="5.28404">
        <ele>361.4</ele>
        <time>2020-06-25T16:50:20Z</time>
      </trkpt>
      <trkpt lat="49.7018" lon="5.28408">
        <ele>361.4</ele>
        <time>2020-06-25T16:50:21Z</time>
      </trkpt>
      <trkpt lat="49.70183" lon="5.28413">
        <ele>361.5</ele>
        <time>2020-06-25T16:50:22Z</time>
      </trkpt>
      <trkpt lat="49.70185" lon="5.28418">
        <ele>361.5</ele>
        <time>2020-06-25T16:50:23Z</time>
      </trkpt>
      <trkpt lat="49.70188" lon="5.28422">
        <ele>361.6</ele>
        <time>2020-06-25T16:50:24Z</time>
      </trkpt>
      <trkpt lat="49.7019" lon="5.28426">
        <ele>361.6</ele>
        <time>2020-06-25T16:50:25Z</time>
      </trkpt>
      <trkpt lat="49.70191" lon="5.28431">
        <ele>361.6</ele>
        <time>2020-06-25T16:50:26Z</time>
      </trkpt>
      <trkpt lat="49.70194" lon="5.28434">
        <ele>361.7</ele>
        <time>2020-06-25T16:50:27Z</time>
      </trkpt>
      <trkpt lat="49.70197" lon="5.28438">
        <ele>361.7</ele>
        <time>2020-06-25T16:50:28Z</time>
      </trkpt>
      <trkpt lat="49.70199" lon="5.28442">
        <ele>361.8</ele>
        <time>2020-06-25T16:50:29Z</time>
      </trkpt>
      <trkpt lat="49.70202" lon="5.28446">
        <ele>361.8</ele>
        <time>2020-06-25T16:50:30Z</time>
      </trkpt>
      <trkpt lat="49.70204" lon="5.28449">
        <ele>361.9</ele>
        <time>2020-06-25T16:50:31Z</time>
      </trkpt>
      <trkpt lat="49.70207" lon="5.28453">
        <ele>362</ele>
        <time>2020-06-25T16:50:32Z</time>
      </trkpt>
      <trkpt lat="49.7021" lon="5.28457">
        <ele>362</ele>
        <time>2020-06-25T16:50:33Z</time>
      </trkpt>
      <trkpt lat="49.70212" lon="5.2846">
        <ele>362.1</ele>
        <time>2020-06-25T16:50:34Z</time>
      </trkpt>
      <trkpt lat="49.70216" lon="5.28463">
        <ele>362.2</ele>
        <time>2020-06-25T16:50:35Z</time>
      </trkpt>
      <trkpt lat="49.70218" lon="5.28467">
        <ele>362.2</ele>
        <time>2020-06-25T16:50:36Z</time>
      </trkpt>
      <trkpt lat="49.7022" lon="5.2847">
        <ele>362.3</ele>
        <time>2020-06-25T16:50:37Z</time>
      </trkpt>
      <trkpt lat="49.70223" lon="5.28474">
        <ele>362.4</ele>
        <time>2020-06-25T16:50:38Z</time>
      </trkpt>
      <trkpt lat="49.70226" lon="5.28479">
        <ele>362.5</ele>
        <time>2020-06-25T16:50:39Z</time>
      </trkpt>
      <trkpt lat="49.70229" lon="5.28483">
        <ele>362.6</ele>
        <time>2020-06-25T16:50:40Z</time>
      </trkpt>
      <trkpt lat="49.70232" lon="5.28488">
        <ele>362.7</ele>
        <time>2020-06-25T16:50:41Z</time>
      </trkpt>
      <trkpt lat="49.70235" lon="5.28492">
        <ele>362.7</ele>
        <time>2020-06-25T16:50:42Z</time>
      </trkpt>
      <trkpt lat="49.70238" lon="5.28497">
        <ele>362.8</ele>
        <time>2020-06-25T16:50:43Z</time>
      </trkpt>
      <trkpt lat="49.7024" lon="5.28501">
        <ele>362.9</ele>
        <time>2020-06-25T16:50:44Z</time>
      </trkpt>
      <trkpt lat="49.70243" lon="5.28507">
        <ele>363</ele>
        <time>2020-06-25T16:50:45Z</time>
      </trkpt>
      <trkpt lat="49.70245" lon="5.28513">
        <ele>363.2</ele>
        <time>2020-06-25T16:50:46Z</time>
      </trkpt>
      <trkpt lat="49.70248" lon="5.28516">
        <ele>363.3</ele>
        <time>2020-06-25T16:50:47Z</time>
      </trkpt>
      <trkpt lat="49.70249" lon="5.28521">
        <ele>363.5</ele>
        <time>2020-06-25T16:50:48Z</time>
      </trkpt>
      <trkpt lat="49.7025" lon="5.28526">
        <ele>363.6</ele>
        <time>2020-06-25T16:50:49Z</time>
      </trkpt>
      <trkpt lat="49.70252" lon="5.2853">
        <ele>363.7</ele>
        <time>2020-06-25T16:50:50Z</time>
      </trkpt>
      <trkpt lat="49.70254" lon="5.28535">
        <ele>363.8</ele>
        <time>2020-06-25T16:50:51Z</time>
      </trkpt>
      <trkpt lat="49.70256" lon="5.2854">
        <ele>363.9</ele>
        <time>2020-06-25T16:50:52Z</time>
      </trkpt>
      <trkpt lat="49.70258" lon="5.28545">
        <ele>364</ele>
        <time>2020-06-25T16:50:53Z</time>
      </trkpt>
      <trkpt lat="49.7026" lon="5.2855">
        <ele>364.1</ele>
        <time>2020-06-25T16:50:54Z</time>
      </trkpt>
      <trkpt lat="49.70262" lon="5.28554">
        <ele>364.2</ele>
        <time>2020-06-25T16:50:55Z</time>
      </trkpt>
      <trkpt lat="49.70264" lon="5.28559">
        <ele>364.3</ele>
        <time>2020-06-25T16:50:56Z</time>
      </trkpt>
      <trkpt lat="49.70266" lon="5.28564">
        <ele>364.4</ele>
        <time>2020-06-25T16:50:57Z</time>
      </trkpt>
      <trkpt lat="49.70267" lon="5.28568">
        <ele>364.5</ele>
        <time>2020-06-25T16:50:58Z</time>
      </trkpt>
      <trkpt lat="49.70268" lon="5.28573">
        <ele>364.6</ele>
        <time>2020-06-25T16:50:59Z</time>
      </trkpt>
      <trkpt lat="49.70269" lon="5.28578">
        <ele>364.7</ele>
        <time>2020-06-25T16:51:00Z</time>
      </trkpt>
      <trkpt lat="49.70271" lon="5.28583">
        <ele>364.8</ele>
        <time>2020-06-25T16:51:01Z</time>
      </trkpt>
      <trkpt lat="49.70273" lon="5.28588">
        <ele>364.9</ele>
        <time>2020-06-25T16:51:02Z</time>
      </trkpt>
      <trkpt lat="49.70275" lon="5.28592">
        <ele>365</ele>
        <time>2020-06-25T16:51:03Z</time>
      </trkpt>
      <trkpt lat="49.70277" lon="5.28597">
        <ele>365.1</ele>
        <time>2020-06-25T16:51:04Z</time>
      </trkpt>
      <trkpt lat="49.70279" lon="5.28601">
        <ele>365.2</ele>
        <time>2020-06-25T16:51:05Z</time>
      </trkpt>
      <trkpt lat="49.70281" lon="5.28605">
        <ele>365.2</ele>
        <time>2020-06-25T16:51:06Z</time>
      </trkpt>
      <trkpt lat="49.70282" lon="5.2861">
        <ele>365.3</ele>
        <time>2020-06-25T16:51:07Z</time>
      </trkpt>
      <trkpt lat="49.70284" lon="5.28614">
        <ele>365.3</ele>
        <time>2020-06-25T16:51:08Z</time>
      </trkpt>
      <trkpt lat="49.70285" lon="5.28619">
        <ele>365.4</ele>
        <time>2020-06-25T16:51:09Z</time>
      </trkpt>
      <trkpt lat="49.70287" lon="5.28623">
        <ele>365.5</ele>
        <time>2020-06-25T16:51:10Z</time>
      </trkpt>
      <trkpt lat="49.70289" lon="5.28629">
        <ele>365.5</ele>
        <time>2020-06-25T16:51:11Z</time>
      </trkpt>
      <trkpt lat="49.70291" lon="5.28633">
        <ele>365.6</ele>
        <time>2020-06-25T16:51:12Z</time>
      </trkpt>
      <trkpt lat="49.70292" lon="5.28638">
        <ele>365.7</ele>
        <time>2020-06-25T16:51:13Z</time>
      </trkpt>
      <trkpt lat="49.70294" lon="5.28642">
        <ele>365.7</ele>
        <time>2020-06-25T16:51:14Z</time>
      </trkpt>
      <trkpt lat="49.70296" lon="5.28647">
        <ele>365.8</ele>
        <time>2020-06-25T16:51:15Z</time>
      </trkpt>
      <trkpt lat="49.70297" lon="5.28652">
        <ele>365.9</ele>
        <time>2020-06-25T16:51:16Z</time>
      </trkpt>
      <trkpt lat="49.70299" lon="5.28657">
        <ele>365.9</ele>
        <time>2020-06-25T16:51:17Z</time>
      </trkpt>
      <trkpt lat="49.70301" lon="5.28663">
        <ele>366</ele>
        <time>2020-06-25T16:51:18Z</time>
      </trkpt>
      <trkpt lat="49.70302" lon="5.28668">
        <ele>366.1</ele>
        <time>2020-06-25T16:51:19Z</time>
      </trkpt>
      <trkpt lat="49.70304" lon="5.28673">
        <ele>366.2</ele>
        <time>2020-06-25T16:51:20Z</time>
      </trkpt>
      <trkpt lat="49.70305" lon="5.28678">
        <ele>366.3</ele>
        <time>2020-06-25T16:51:21Z</time>
      </trkpt>
      <trkpt lat="49.70307" lon="5.28683">
        <ele>366.4</ele>
        <time>2020-06-25T16:51:22Z</time>
      </trkpt>
      <trkpt lat="49.70307" lon="5.28688">
        <ele>366.5</ele>
        <time>2020-06-25T16:51:23Z</time>
      </trkpt>
      <trkpt lat="49.70308" lon="5.28693">
        <ele>366.5</ele>
        <time>2020-06-25T16:51:24Z</time>
      </trkpt>
      <trkpt lat="49.7031" lon="5.28698">
        <ele>366.6</ele>
        <time>2020-06-25T16:51:25Z</time>
      </trkpt>
      <trkpt lat="49.70311" lon="5.28704">
        <ele>366.6</ele>
        <time>2020-06-25T16:51:26Z</time>
      </trkpt>
      <trkpt lat="49.70312" lon="5.28709">
        <ele>366.7</ele>
        <time>2020-06-25T16:51:27Z</time>
      </trkpt>
      <trkpt lat="49.70312" lon="5.28714">
        <ele>366.8</ele>
        <time>2020-06-25T16:51:28Z</time>
      </trkpt>
      <trkpt lat="49.70313" lon="5.28719">
        <ele>366.8</ele>
        <time>2020-06-25T16:51:29Z</time>
      </trkpt>
      <trkpt lat="49.70314" lon="5.28723">
        <ele>366.9</ele>
        <time>2020-06-25T16:51:30Z</time>
      </trkpt>
      <trkpt lat="49.70315" lon="5.28729">
        <ele>366.9</ele>
        <time>2020-06-25T16:51:31Z</time>
      </trkpt>
      <trkpt lat="49.70316" lon="5.28734">
        <ele>367</ele>
        <time>2020-06-25T16:51:32Z</time>
      </trkpt>
      <trkpt lat="49.70317" lon="5.28736">
        <ele>367</ele>
        <time>2020-06-25T16:51:33Z</time>
      </trkpt>
      <trkpt lat="49.70318" lon="5.28741">
        <ele>367</ele>
        <time>2020-06-25T16:51:34Z</time>
      </trkpt>
      <trkpt lat="49.70318" lon="5.28747">
        <ele>367</ele>
        <time>2020-06-25T16:51:35Z</time>
      </trkpt>
      <trkpt lat="49.70319" lon="5.28752">
        <ele>366.9</ele>
        <time>2020-06-25T16:51:36Z</time>
      </trkpt>
      <trkpt lat="49.70319" lon="5.28758">
        <ele>366.9</ele>
        <time>2020-06-25T16:51:37Z</time>
      </trkpt>
      <trkpt lat="49.70319" lon="5.28759">
        <ele>366.9</ele>
        <time>2020-06-25T16:51:38Z</time>
      </trkpt>
      <trkpt lat="49.70319" lon="5.28766">
        <ele>366.8</ele>
        <time>2020-06-25T16:51:39Z</time>
      </trkpt>
      <trkpt lat="49.70319" lon="5.28768">
        <ele>366.7</ele>
        <time>2020-06-25T16:51:40Z</time>
      </trkpt>
      <trkpt lat="49.70319" lon="5.28773">
        <ele>366.7</ele>
        <time>2020-06-25T16:51:41Z</time>
      </trkpt>
      <trkpt lat="49.7032" lon="5.28777">
        <ele>366.7</ele>
        <time>2020-06-25T16:51:42Z</time>
      </trkpt>
      <trkpt lat="49.7032" lon="5.28782">
        <ele>366.6</ele>
        <time>2020-06-25T16:51:43Z</time>
      </trkpt>
      <trkpt lat="49.70321" lon="5.28787">
        <ele>366.5</ele>
        <time>2020-06-25T16:51:44Z</time>
      </trkpt>
      <trkpt lat="49.70321" lon="5.28792">
        <ele>366.5</ele>
        <time>2020-06-25T16:51:45Z</time>
      </trkpt>
      <trkpt lat="49.70321" lon="5.28797">
        <ele>366.4</ele>
        <time>2020-06-25T16:51:46Z</time>
      </trkpt>
      <trkpt lat="49.70322" lon="5.28804">
        <ele>366.3</ele>
        <time>2020-06-25T16:51:47Z</time>
      </trkpt>
      <trkpt lat="49.70323" lon="5.28811">
        <ele>366.1</ele>
        <time>2020-06-25T16:51:48Z</time>
      </trkpt>
      <trkpt lat="49.70323" lon="5.28818">
        <ele>366</ele>
        <time>2020-06-25T16:51:49Z</time>
      </trkpt>
      <trkpt lat="49.70324" lon="5.28824">
        <ele>365.9</ele>
        <time>2020-06-25T16:51:50Z</time>
      </trkpt>
      <trkpt lat="49.70325" lon="5.28831">
        <ele>365.8</ele>
        <time>2020-06-25T16:51:51Z</time>
      </trkpt>
      <trkpt lat="49.70325" lon="5.28838">
        <ele>365.7</ele>
        <time>2020-06-25T16:51:52Z</time>
      </trkpt>
      <trkpt lat="49.70326" lon="5.28844">
        <ele>365.7</ele>
        <time>2020-06-25T16:51:53Z</time>
      </trkpt>
      <trkpt lat="49.70326" lon="5.28851">
        <ele>365.6</ele>
        <time>2020-06-25T16:51:54Z</time>
      </trkpt>
      <trkpt lat="49.70326" lon="5.28857">
        <ele>365.5</ele>
        <time>2020-06-25T16:51:55Z</time>
      </trkpt>
      <trkpt lat="49.70326" lon="5.28864">
        <ele>365.4</ele>
        <time>2020-06-25T16:51:56Z</time>
      </trkpt>
      <trkpt lat="49.70326" lon="5.28871">
        <ele>365.3</ele>
        <time>2020-06-25T16:51:57Z</time>
      </trkpt>
      <trkpt lat="49.70326" lon="5.28877">
        <ele>365.3</ele>
        <time>2020-06-25T16:51:58Z</time>
      </trkpt>
      <trkpt lat="49.70326" lon="5.28884">
        <ele>365.2</ele>
        <time>2020-06-25T16:51:59Z</time>
      </trkpt>
      <trkpt lat="49.70326" lon="5.28891">
        <ele>365.1</ele>
        <time>2020-06-25T16:52:00Z</time>
      </trkpt>
      <trkpt lat="49.70327" lon="5.28898">
        <ele>365</ele>
        <time>2020-06-25T16:52:01Z</time>
      </trkpt>
      <trkpt lat="49.70327" lon="5.28905">
        <ele>364.9</ele>
        <time>2020-06-25T16:52:02Z</time>
      </trkpt>
      <trkpt lat="49.70328" lon="5.28912">
        <ele>364.8</ele>
        <time>2020-06-25T16:52:03Z</time>
      </trkpt>
      <trkpt lat="49.70329" lon="5.28919">
        <ele>364.6</ele>
        <time>2020-06-25T16:52:04Z</time>
      </trkpt>
      <trkpt lat="49.7033" lon="5.28928">
        <ele>364.5</ele>
        <time>2020-06-25T16:52:05Z</time>
      </trkpt>
      <trkpt lat="49.7033" lon="5.28935">
        <ele>364.3</ele>
        <time>2020-06-25T16:52:06Z</time>
      </trkpt>
      <trkpt lat="49.70331" lon="5.28943">
        <ele>364.2</ele>
        <time>2020-06-25T16:52:07Z</time>
      </trkpt>
      <trkpt lat="49.70331" lon="5.28951">
        <ele>364.1</ele>
        <time>2020-06-25T16:52:08Z</time>
      </trkpt>
      <trkpt lat="49.70332" lon="5.28959">
        <ele>364.1</ele>
        <time>2020-06-25T16:52:09Z</time>
      </trkpt>
      <trkpt lat="49.70332" lon="5.28968">
        <ele>364</ele>
        <time>2020-06-25T16:52:10Z</time>
      </trkpt>
      <trkpt lat="49.70332" lon="5.28976">
        <ele>363.9</ele>
        <time>2020-06-25T16:52:11Z</time>
      </trkpt>
      <trkpt lat="49.70332" lon="5.28986">
        <ele>363.8</ele>
        <time>2020-06-25T16:52:12Z</time>
      </trkpt>
      <trkpt lat="49.70332" lon="5.28996">
        <ele>363.7</ele>
        <time>2020-06-25T16:52:13Z</time>
      </trkpt>
      <trkpt lat="49.70331" lon="5.29005">
        <ele>363.6</ele>
        <time>2020-06-25T16:52:14Z</time>
      </trkpt>
      <trkpt lat="49.70331" lon="5.29013">
        <ele>363.5</ele>
        <time>2020-06-25T16:52:15Z</time>
      </trkpt>
      <trkpt lat="49.70331" lon="5.29022">
        <ele>363.5</ele>
        <time>2020-06-25T16:52:16Z</time>
      </trkpt>
      <trkpt lat="49.70331" lon="5.2903">
        <ele>363.4</ele>
        <time>2020-06-25T16:52:17Z</time>
      </trkpt>
      <trkpt lat="49.70331" lon="5.29038">
        <ele>363.3</ele>
        <time>2020-06-25T16:52:18Z</time>
      </trkpt>
      <trkpt lat="49.70332" lon="5.29048">
        <ele>363.3</ele>
        <time>2020-06-25T16:52:19Z</time>
      </trkpt>
      <trkpt lat="49.70333" lon="5.29057">
        <ele>363.2</ele>
        <time>2020-06-25T16:52:20Z</time>
      </trkpt>
      <trkpt lat="49.70333" lon="5.29065">
        <ele>363.2</ele>
        <time>2020-06-25T16:52:21Z</time>
      </trkpt>
      <trkpt lat="49.70334" lon="5.29073">
        <ele>363.2</ele>
        <time>2020-06-25T16:52:22Z</time>
      </trkpt>
      <trkpt lat="49.70334" lon="5.2908">
        <ele>363.1</ele>
        <time>2020-06-25T16:52:23Z</time>
      </trkpt>
      <trkpt lat="49.70335" lon="5.29088">
        <ele>363.1</ele>
        <time>2020-06-25T16:52:24Z</time>
      </trkpt>
      <trkpt lat="49.70335" lon="5.29095">
        <ele>363.1</ele>
        <time>2020-06-25T16:52:25Z</time>
      </trkpt>
      <trkpt lat="49.70336" lon="5.29103">
        <ele>363.1</ele>
        <time>2020-06-25T16:52:26Z</time>
      </trkpt>
      <trkpt lat="49.70337" lon="5.29111">
        <ele>363.1</ele>
        <time>2020-06-25T16:52:27Z</time>
      </trkpt>
      <trkpt lat="49.70338" lon="5.29119">
        <ele>363</ele>
        <time>2020-06-25T16:52:28Z</time>
      </trkpt>
      <trkpt lat="49.70338" lon="5.29126">
        <ele>363</ele>
        <time>2020-06-25T16:52:29Z</time>
      </trkpt>
      <trkpt lat="49.70339" lon="5.29133">
        <ele>363.1</ele>
        <time>2020-06-25T16:52:30Z</time>
      </trkpt>
      <trkpt lat="49.70338" lon="5.2914">
        <ele>363.1</ele>
        <time>2020-06-25T16:52:31Z</time>
      </trkpt>
      <trkpt lat="49.70338" lon="5.29146">
        <ele>363.2</ele>
        <time>2020-06-25T16:52:32Z</time>
      </trkpt>
      <trkpt lat="49.70337" lon="5.29153">
        <ele>363.2</ele>
        <time>2020-06-25T16:52:33Z</time>
      </trkpt>
      <trkpt lat="49.70337" lon="5.2916">
        <ele>363.2</ele>
        <time>2020-06-25T16:52:34Z</time>
      </trkpt>
      <trkpt lat="49.70335" lon="5.29166">
        <ele>363.2</ele>
        <time>2020-06-25T16:52:35Z</time>
      </trkpt>
      <trkpt lat="49.70334" lon="5.29173">
        <ele>363.2</ele>
        <time>2020-06-25T16:52:36Z</time>
      </trkpt>
      <trkpt lat="49.70333" lon="5.29179">
        <ele>363.2</ele>
        <time>2020-06-25T16:52:37Z</time>
      </trkpt>
      <trkpt lat="49.70331" lon="5.29186">
        <ele>363.1</ele>
        <time>2020-06-25T16:52:38Z</time>
      </trkpt>
      <trkpt lat="49.70329" lon="5.29193">
        <ele>363.1</ele>
        <time>2020-06-25T16:52:39Z</time>
      </trkpt>
      <trkpt lat="49.70328" lon="5.292">
        <ele>363</ele>
        <time>2020-06-25T16:52:40Z</time>
      </trkpt>
      <trkpt lat="49.70326" lon="5.29206">
        <ele>363</ele>
        <time>2020-06-25T16:52:41Z</time>
      </trkpt>
      <trkpt lat="49.70325" lon="5.29214">
        <ele>362.9</ele>
        <time>2020-06-25T16:52:42Z</time>
      </trkpt>
      <trkpt lat="49.70324" lon="5.29221">
        <ele>362.9</ele>
        <time>2020-06-25T16:52:43Z</time>
      </trkpt>
      <trkpt lat="49.70323" lon="5.29227">
        <ele>362.8</ele>
        <time>2020-06-25T16:52:44Z</time>
      </trkpt>
      <trkpt lat="49.70322" lon="5.29234">
        <ele>362.8</ele>
        <time>2020-06-25T16:52:45Z</time>
      </trkpt>
      <trkpt lat="49.7032" lon="5.2924">
        <ele>362.8</ele>
        <time>2020-06-25T16:52:46Z</time>
      </trkpt>
      <trkpt lat="49.70318" lon="5.29246">
        <ele>362.7</ele>
        <time>2020-06-25T16:52:47Z</time>
      </trkpt>
      <trkpt lat="49.70315" lon="5.29252">
        <ele>362.7</ele>
        <time>2020-06-25T16:52:48Z</time>
      </trkpt>
      <trkpt lat="49.70314" lon="5.29259">
        <ele>362.6</ele>
        <time>2020-06-25T16:52:49Z</time>
      </trkpt>
      <trkpt lat="49.70312" lon="5.29265">
        <ele>362.6</ele>
        <time>2020-06-25T16:52:50Z</time>
      </trkpt>
      <trkpt lat="49.7031" lon="5.29272">
        <ele>362.6</ele>
        <time>2020-06-25T16:52:51Z</time>
      </trkpt>
      <trkpt lat="49.70308" lon="5.29279">
        <ele>362.6</ele>
        <time>2020-06-25T16:52:52Z</time>
      </trkpt>
      <trkpt lat="49.70307" lon="5.29286">
        <ele>362.6</ele>
        <time>2020-06-25T16:52:53Z</time>
      </trkpt>
      <trkpt lat="49.70306" lon="5.29293">
        <ele>362.5</ele>
        <time>2020-06-25T16:52:54Z</time>
      </trkpt>
      <trkpt lat="49.70304" lon="5.293">
        <ele>362.5</ele>
        <time>2020-06-25T16:52:55Z</time>
      </trkpt>
      <trkpt lat="49.70303" lon="5.29307">
        <ele>362.5</ele>
        <time>2020-06-25T16:52:56Z</time>
      </trkpt>
      <trkpt lat="49.70302" lon="5.29314">
        <ele>362.5</ele>
        <time>2020-06-25T16:52:57Z</time>
      </trkpt>
      <trkpt lat="49.70302" lon="5.29321">
        <ele>362.4</ele>
        <time>2020-06-25T16:52:58Z</time>
      </trkpt>
      <trkpt lat="49.70301" lon="5.29329">
        <ele>362.4</ele>
        <time>2020-06-25T16:52:59Z</time>
      </trkpt>
      <trkpt lat="49.703" lon="5.29336">
        <ele>362.4</ele>
        <time>2020-06-25T16:53:00Z</time>
      </trkpt>
      <trkpt lat="49.70298" lon="5.29343">
        <ele>362.3</ele>
        <time>2020-06-25T16:53:01Z</time>
      </trkpt>
      <trkpt lat="49.70297" lon="5.2935">
        <ele>362.3</ele>
        <time>2020-06-25T16:53:02Z</time>
      </trkpt>
      <trkpt lat="49.70296" lon="5.29358">
        <ele>362.3</ele>
        <time>2020-06-25T16:53:03Z</time>
      </trkpt>
      <trkpt lat="49.70295" lon="5.29366">
        <ele>362.2</ele>
        <time>2020-06-25T16:53:04Z</time>
      </trkpt>
      <trkpt lat="49.70294" lon="5.29373">
        <ele>362.2</ele>
        <time>2020-06-25T16:53:05Z</time>
      </trkpt>
      <trkpt lat="49.70293" lon="5.2938">
        <ele>362.2</ele>
        <time>2020-06-25T16:53:06Z</time>
      </trkpt>
      <trkpt lat="49.70292" lon="5.29388">
        <ele>362.2</ele>
        <time>2020-06-25T16:53:07Z</time>
      </trkpt>
      <trkpt lat="49.70291" lon="5.29396">
        <ele>362.2</ele>
        <time>2020-06-25T16:53:08Z</time>
      </trkpt>
      <trkpt lat="49.7029" lon="5.29404">
        <ele>362.1</ele>
        <time>2020-06-25T16:53:09Z</time>
      </trkpt>
      <trkpt lat="49.70289" lon="5.29412">
        <ele>362.1</ele>
        <time>2020-06-25T16:53:10Z</time>
      </trkpt>
      <trkpt lat="49.70288" lon="5.29421">
        <ele>362</ele>
        <time>2020-06-25T16:53:11Z</time>
      </trkpt>
      <trkpt lat="49.70286" lon="5.29429">
        <ele>362</ele>
        <time>2020-06-25T16:53:12Z</time>
      </trkpt>
      <trkpt lat="49.70285" lon="5.29438">
        <ele>362</ele>
        <time>2020-06-25T16:53:13Z</time>
      </trkpt>
      <trkpt lat="49.70284" lon="5.29447">
        <ele>362</ele>
        <time>2020-06-25T16:53:14Z</time>
      </trkpt>
      <trkpt lat="49.70283" lon="5.29456">
        <ele>362</ele>
        <time>2020-06-25T16:53:15Z</time>
      </trkpt>
      <trkpt lat="49.70282" lon="5.29464">
        <ele>362</ele>
        <time>2020-06-25T16:53:16Z</time>
      </trkpt>
      <trkpt lat="49.7028" lon="5.29473">
        <ele>362</ele>
        <time>2020-06-25T16:53:17Z</time>
      </trkpt>
      <trkpt lat="49.70278" lon="5.29481">
        <ele>362</ele>
        <time>2020-06-25T16:53:18Z</time>
      </trkpt>
      <trkpt lat="49.70277" lon="5.29489">
        <ele>362</ele>
        <time>2020-06-25T16:53:19Z</time>
      </trkpt>
      <trkpt lat="49.70276" lon="5.29497">
        <ele>362</ele>
        <time>2020-06-25T16:53:20Z</time>
      </trkpt>
      <trkpt lat="49.70275" lon="5.29505">
        <ele>362</ele>
        <time>2020-06-25T16:53:21Z</time>
      </trkpt>
      <trkpt lat="49.70273" lon="5.29513">
        <ele>362</ele>
        <time>2020-06-25T16:53:22Z</time>
      </trkpt>
      <trkpt lat="49.70271" lon="5.2952">
        <ele>362</ele>
        <time>2020-06-25T16:53:23Z</time>
      </trkpt>
      <trkpt lat="49.70269" lon="5.29527">
        <ele>362.1</ele>
        <time>2020-06-25T16:53:24Z</time>
      </trkpt>
      <trkpt lat="49.70268" lon="5.29534">
        <ele>362.1</ele>
        <time>2020-06-25T16:53:25Z</time>
      </trkpt>
      <trkpt lat="49.70267" lon="5.29542">
        <ele>362.1</ele>
        <time>2020-06-25T16:53:26Z</time>
      </trkpt>
      <trkpt lat="49.70266" lon="5.29549">
        <ele>362.2</ele>
        <time>2020-06-25T16:53:27Z</time>
      </trkpt>
      <trkpt lat="49.70265" lon="5.29557">
        <ele>362.2</ele>
        <time>2020-06-25T16:53:28Z</time>
      </trkpt>
      <trkpt lat="49.70264" lon="5.29564">
        <ele>362.2</ele>
        <time>2020-06-25T16:53:29Z</time>
      </trkpt>
      <trkpt lat="49.70263" lon="5.2957">
        <ele>362.2</ele>
        <time>2020-06-25T16:53:30Z</time>
      </trkpt>
      <trkpt lat="49.70262" lon="5.29577">
        <ele>362.2</ele>
        <time>2020-06-25T16:53:31Z</time>
      </trkpt>
      <trkpt lat="49.70261" lon="5.29584">
        <ele>362.2</ele>
        <time>2020-06-25T16:53:32Z</time>
      </trkpt>
      <trkpt lat="49.7026" lon="5.29592">
        <ele>362.2</ele>
        <time>2020-06-25T16:53:33Z</time>
      </trkpt>
      <trkpt lat="49.70259" lon="5.29601">
        <ele>362.2</ele>
        <time>2020-06-25T16:53:34Z</time>
      </trkpt>
      <trkpt lat="49.70259" lon="5.29608">
        <ele>362.1</ele>
        <time>2020-06-25T16:53:35Z</time>
      </trkpt>
      <trkpt lat="49.70257" lon="5.29616">
        <ele>362.1</ele>
        <time>2020-06-25T16:53:36Z</time>
      </trkpt>
      <trkpt lat="49.70256" lon="5.29623">
        <ele>362.1</ele>
        <time>2020-06-25T16:53:37Z</time>
      </trkpt>
      <trkpt lat="49.70254" lon="5.29631">
        <ele>362.1</ele>
        <time>2020-06-25T16:53:38Z</time>
      </trkpt>
      <trkpt lat="49.70252" lon="5.29638">
        <ele>362.1</ele>
        <time>2020-06-25T16:53:39Z</time>
      </trkpt>
      <trkpt lat="49.70251" lon="5.29646">
        <ele>362</ele>
        <time>2020-06-25T16:53:40Z</time>
      </trkpt>
      <trkpt lat="49.70249" lon="5.29653">
        <ele>362</ele>
        <time>2020-06-25T16:53:41Z</time>
      </trkpt>
      <trkpt lat="49.70248" lon="5.2966">
        <ele>362</ele>
        <time>2020-06-25T16:53:42Z</time>
      </trkpt>
      <trkpt lat="49.70246" lon="5.29669">
        <ele>361.9</ele>
        <time>2020-06-25T16:53:43Z</time>
      </trkpt>
      <trkpt lat="49.70245" lon="5.29677">
        <ele>361.9</ele>
        <time>2020-06-25T16:53:44Z</time>
      </trkpt>
      <trkpt lat="49.70245" lon="5.29684">
        <ele>361.8</ele>
        <time>2020-06-25T16:53:45Z</time>
      </trkpt>
      <trkpt lat="49.70245" lon="5.29693">
        <ele>361.8</ele>
        <time>2020-06-25T16:53:46Z</time>
      </trkpt>
      <trkpt lat="49.70244" lon="5.29702">
        <ele>361.7</ele>
        <time>2020-06-25T16:53:47Z</time>
      </trkpt>
      <trkpt lat="49.70242" lon="5.2971">
        <ele>361.6</ele>
        <time>2020-06-25T16:53:48Z</time>
      </trkpt>
      <trkpt lat="49.70241" lon="5.2972">
        <ele>361.5</ele>
        <time>2020-06-25T16:53:49Z</time>
      </trkpt>
      <trkpt lat="49.70241" lon="5.29728">
        <ele>361.5</ele>
        <time>2020-06-25T16:53:50Z</time>
      </trkpt>
      <trkpt lat="49.70241" lon="5.29737">
        <ele>361.4</ele>
        <time>2020-06-25T16:53:51Z</time>
      </trkpt>
      <trkpt lat="49.70241" lon="5.29745">
        <ele>361.4</ele>
        <time>2020-06-25T16:53:52Z</time>
      </trkpt>
      <trkpt lat="49.7024" lon="5.29754">
        <ele>361.4</ele>
        <time>2020-06-25T16:53:53Z</time>
      </trkpt>
      <trkpt lat="49.7024" lon="5.29761">
        <ele>361.4</ele>
        <time>2020-06-25T16:53:54Z</time>
      </trkpt>
      <trkpt lat="49.70239" lon="5.29769">
        <ele>361.4</ele>
        <time>2020-06-25T16:53:55Z</time>
      </trkpt>
      <trkpt lat="49.70237" lon="5.29777">
        <ele>361.4</ele>
        <time>2020-06-25T16:53:56Z</time>
      </trkpt>
      <trkpt lat="49.70236" lon="5.29785">
        <ele>361.4</ele>
        <time>2020-06-25T16:53:57Z</time>
      </trkpt>
      <trkpt lat="49.70238" lon="5.29796">
        <ele>361.4</ele>
        <time>2020-06-25T16:53:58Z</time>
      </trkpt>
      <trkpt lat="49.7024" lon="5.29807">
        <ele>361.4</ele>
        <time>2020-06-25T16:53:59Z</time>
      </trkpt>
      <trkpt lat="49.7024" lon="5.29816">
        <ele>361.5</ele>
        <time>2020-06-25T16:54:00Z</time>
      </trkpt>
      <trkpt lat="49.7024" lon="5.29825">
        <ele>361.5</ele>
        <time>2020-06-25T16:54:01Z</time>
      </trkpt>
      <trkpt lat="49.70239" lon="5.29832">
        <ele>361.6</ele>
        <time>2020-06-25T16:54:02Z</time>
      </trkpt>
      <trkpt lat="49.70239" lon="5.29842">
        <ele>361.7</ele>
        <time>2020-06-25T16:54:03Z</time>
      </trkpt>
      <trkpt lat="49.70238" lon="5.29851">
        <ele>361.8</ele>
        <time>2020-06-25T16:54:04Z</time>
      </trkpt>
      <trkpt lat="49.70237" lon="5.29859">
        <ele>361.9</ele>
        <time>2020-06-25T16:54:05Z</time>
      </trkpt>
      <trkpt lat="49.70237" lon="5.29866">
        <ele>361.9</ele>
        <time>2020-06-25T16:54:06Z</time>
      </trkpt>
      <trkpt lat="49.70237" lon="5.29873">
        <ele>362</ele>
        <time>2020-06-25T16:54:07Z</time>
      </trkpt>
      <trkpt lat="49.70235" lon="5.2988">
        <ele>362.1</ele>
        <time>2020-06-25T16:54:08Z</time>
      </trkpt>
      <trkpt lat="49.70235" lon="5.29888">
        <ele>362.2</ele>
        <time>2020-06-25T16:54:09Z</time>
      </trkpt>
      <trkpt lat="49.70234" lon="5.29895">
        <ele>362.3</ele>
        <time>2020-06-25T16:54:10Z</time>
      </trkpt>
      <trkpt lat="49.70233" lon="5.29902">
        <ele>362.4</ele>
        <time>2020-06-25T16:54:11Z</time>
      </trkpt>
      <trkpt lat="49.70233" lon="5.29908">
        <ele>362.5</ele>
        <time>2020-06-25T16:54:12Z</time>
      </trkpt>
      <trkpt lat="49.70233" lon="5.29913">
        <ele>362.6</ele>
        <time>2020-06-25T16:54:13Z</time>
      </trkpt>
      <trkpt lat="49.70233" lon="5.29918">
        <ele>362.6</ele>
        <time>2020-06-25T16:54:14Z</time>
      </trkpt>
      <trkpt lat="49.70233" lon="5.29923">
        <ele>362.7</ele>
        <time>2020-06-25T16:54:15Z</time>
      </trkpt>
      <trkpt lat="49.70232" lon="5.29929">
        <ele>362.8</ele>
        <time>2020-06-25T16:54:16Z</time>
      </trkpt>
      <trkpt lat="49.70231" lon="5.29934">
        <ele>362.9</ele>
        <time>2020-06-25T16:54:17Z</time>
      </trkpt>
      <trkpt lat="49.70231" lon="5.2994">
        <ele>362.9</ele>
        <time>2020-06-25T16:54:18Z</time>
      </trkpt>
      <trkpt lat="49.7023" lon="5.29945">
        <ele>363</ele>
        <time>2020-06-25T16:54:19Z</time>
      </trkpt>
      <trkpt lat="49.70228" lon="5.29951">
        <ele>363.1</ele>
        <time>2020-06-25T16:54:20Z</time>
      </trkpt>
      <trkpt lat="49.70227" lon="5.29958">
        <ele>363.1</ele>
        <time>2020-06-25T16:54:21Z</time>
      </trkpt>
      <trkpt lat="49.70225" lon="5.29965">
        <ele>363.2</ele>
        <time>2020-06-25T16:54:22Z</time>
      </trkpt>
      <trkpt lat="49.70224" lon="5.29973">
        <ele>363.3</ele>
        <time>2020-06-25T16:54:23Z</time>
      </trkpt>
      <trkpt lat="49.70222" lon="5.29978">
        <ele>363.3</ele>
        <time>2020-06-25T16:54:24Z</time>
      </trkpt>
      <trkpt lat="49.70221" lon="5.29985">
        <ele>363.4</ele>
        <time>2020-06-25T16:54:25Z</time>
      </trkpt>
      <trkpt lat="49.70219" lon="5.2999">
        <ele>363.4</ele>
        <time>2020-06-25T16:54:26Z</time>
      </trkpt>
      <trkpt lat="49.70217" lon="5.29997">
        <ele>363.4</ele>
        <time>2020-06-25T16:54:27Z</time>
      </trkpt>
      <trkpt lat="49.70215" lon="5.30003">
        <ele>363.4</ele>
        <time>2020-06-25T16:54:28Z</time>
      </trkpt>
      <trkpt lat="49.70213" lon="5.3001">
        <ele>363.4</ele>
        <time>2020-06-25T16:54:29Z</time>
      </trkpt>
      <trkpt lat="49.70211" lon="5.30017">
        <ele>363.4</ele>
        <time>2020-06-25T16:54:30Z</time>
      </trkpt>
      <trkpt lat="49.70209" lon="5.30023">
        <ele>363.4</ele>
        <time>2020-06-25T16:54:31Z</time>
      </trkpt>
      <trkpt lat="49.70206" lon="5.30029">
        <ele>363.4</ele>
        <time>2020-06-25T16:54:32Z</time>
      </trkpt>
      <trkpt lat="49.70204" lon="5.30035">
        <ele>363.4</ele>
        <time>2020-06-25T16:54:33Z</time>
      </trkpt>
      <trkpt lat="49.70201" lon="5.30042">
        <ele>363.4</ele>
        <time>2020-06-25T16:54:34Z</time>
      </trkpt>
      <trkpt lat="49.70199" lon="5.30048">
        <ele>363.3</ele>
        <time>2020-06-25T16:54:35Z</time>
      </trkpt>
      <trkpt lat="49.70197" lon="5.30054">
        <ele>363.3</ele>
        <time>2020-06-25T16:54:36Z</time>
      </trkpt>
      <trkpt lat="49.70194" lon="5.3006">
        <ele>363.3</ele>
        <time>2020-06-25T16:54:37Z</time>
      </trkpt>
      <trkpt lat="49.70192" lon="5.30067">
        <ele>363.3</ele>
        <time>2020-06-25T16:54:38Z</time>
      </trkpt>
      <trkpt lat="49.70189" lon="5.30073">
        <ele>363.3</ele>
        <time>2020-06-25T16:54:39Z</time>
      </trkpt>
      <trkpt lat="49.70187" lon="5.30079">
        <ele>363.3</ele>
        <time>2020-06-25T16:54:40Z</time>
      </trkpt>
      <trkpt lat="49.70184" lon="5.30085">
        <ele>363.3</ele>
        <time>2020-06-25T16:54:41Z</time>
      </trkpt>
      <trkpt lat="49.70182" lon="5.30091">
        <ele>363.3</ele>
        <time>2020-06-25T16:54:42Z</time>
      </trkpt>
      <trkpt lat="49.70179" lon="5.30098">
        <ele>363.3</ele>
        <time>2020-06-25T16:54:43Z</time>
      </trkpt>
      <trkpt lat="49.70175" lon="5.30105">
        <ele>363.4</ele>
        <time>2020-06-25T16:54:44Z</time>
      </trkpt>
      <trkpt lat="49.70173" lon="5.30113">
        <ele>363.4</ele>
        <time>2020-06-25T16:54:45Z</time>
      </trkpt>
      <trkpt lat="49.70169" lon="5.30121">
        <ele>363.4</ele>
        <time>2020-06-25T16:54:46Z</time>
      </trkpt>
      <trkpt lat="49.70165" lon="5.30128">
        <ele>363.5</ele>
        <time>2020-06-25T16:54:47Z</time>
      </trkpt>
      <trkpt lat="49.70163" lon="5.30134">
        <ele>363.5</ele>
        <time>2020-06-25T16:54:48Z</time>
      </trkpt>
      <trkpt lat="49.7016" lon="5.30142">
        <ele>363.6</ele>
        <time>2020-06-25T16:54:49Z</time>
      </trkpt>
      <trkpt lat="49.70157" lon="5.30148">
        <ele>363.6</ele>
        <time>2020-06-25T16:54:50Z</time>
      </trkpt>
      <trkpt lat="49.70154" lon="5.30153">
        <ele>363.7</ele>
        <time>2020-06-25T16:54:51Z</time>
      </trkpt>
      <trkpt lat="49.70151" lon="5.30157">
        <ele>363.7</ele>
        <time>2020-06-25T16:54:52Z</time>
      </trkpt>
      <trkpt lat="49.70148" lon="5.30161">
        <ele>363.8</ele>
        <time>2020-06-25T16:54:53Z</time>
      </trkpt>
      <trkpt lat="49.70145" lon="5.30167">
        <ele>363.8</ele>
        <time>2020-06-25T16:54:54Z</time>
      </trkpt>
      <trkpt lat="49.70141" lon="5.30173">
        <ele>363.8</ele>
        <time>2020-06-25T16:54:55Z</time>
      </trkpt>
      <trkpt lat="49.70138" lon="5.3018">
        <ele>363.9</ele>
        <time>2020-06-25T16:54:56Z</time>
      </trkpt>
      <trkpt lat="49.70137" lon="5.30187">
        <ele>363.9</ele>
        <time>2020-06-25T16:54:57Z</time>
      </trkpt>
      <trkpt lat="49.70134" lon="5.30193">
        <ele>364</ele>
        <time>2020-06-25T16:54:58Z</time>
      </trkpt>
      <trkpt lat="49.70132" lon="5.30199">
        <ele>364</ele>
        <time>2020-06-25T16:54:59Z</time>
      </trkpt>
      <trkpt lat="49.7013" lon="5.30205">
        <ele>364.1</ele>
        <time>2020-06-25T16:55:00Z</time>
      </trkpt>
      <trkpt lat="49.70127" lon="5.3021">
        <ele>364.1</ele>
        <time>2020-06-25T16:55:01Z</time>
      </trkpt>
      <trkpt lat="49.70124" lon="5.30216">
        <ele>364.1</ele>
        <time>2020-06-25T16:55:02Z</time>
      </trkpt>
      <trkpt lat="49.70121" lon="5.30223">
        <ele>364.2</ele>
        <time>2020-06-25T16:55:03Z</time>
      </trkpt>
      <trkpt lat="49.70117" lon="5.30229">
        <ele>364.2</ele>
        <time>2020-06-25T16:55:04Z</time>
      </trkpt>
      <trkpt lat="49.70114" lon="5.30236">
        <ele>364.2</ele>
        <time>2020-06-25T16:55:05Z</time>
      </trkpt>
      <trkpt lat="49.70112" lon="5.30242">
        <ele>364.3</ele>
        <time>2020-06-25T16:55:06Z</time>
      </trkpt>
      <trkpt lat="49.7011" lon="5.30246">
        <ele>364.3</ele>
        <time>2020-06-25T16:55:07Z</time>
      </trkpt>
      <trkpt lat="49.70107" lon="5.30251">
        <ele>364.3</ele>
        <time>2020-06-25T16:55:08Z</time>
      </trkpt>
      <trkpt lat="49.70105" lon="5.30257">
        <ele>364.4</ele>
        <time>2020-06-25T16:55:09Z</time>
      </trkpt>
      <trkpt lat="49.70102" lon="5.30263">
        <ele>364.4</ele>
        <time>2020-06-25T16:55:10Z</time>
      </trkpt>
      <trkpt lat="49.70099" lon="5.30268">
        <ele>364.5</ele>
        <time>2020-06-25T16:55:11Z</time>
      </trkpt>
      <trkpt lat="49.70096" lon="5.30274">
        <ele>364.5</ele>
        <time>2020-06-25T16:55:12Z</time>
      </trkpt>
      <trkpt lat="49.70094" lon="5.30279">
        <ele>364.5</ele>
        <time>2020-06-25T16:55:13Z</time>
      </trkpt>
      <trkpt lat="49.70091" lon="5.30285">
        <ele>364.5</ele>
        <time>2020-06-25T16:55:14Z</time>
      </trkpt>
      <trkpt lat="49.70088" lon="5.3029">
        <ele>364.5</ele>
        <time>2020-06-25T16:55:15Z</time>
      </trkpt>
      <trkpt lat="49.70084" lon="5.30297">
        <ele>364.6</ele>
        <time>2020-06-25T16:55:16Z</time>
      </trkpt>
      <trkpt lat="49.7008" lon="5.30303">
        <ele>364.6</ele>
        <time>2020-06-25T16:55:17Z</time>
      </trkpt>
      <trkpt lat="49.70076" lon="5.30309">
        <ele>364.5</ele>
        <time>2020-06-25T16:55:18Z</time>
      </trkpt>
      <trkpt lat="49.70073" lon="5.30316">
        <ele>364.5</ele>
        <time>2020-06-25T16:55:19Z</time>
      </trkpt>
      <trkpt lat="49.7007" lon="5.30323">
        <ele>364.5</ele>
        <time>2020-06-25T16:55:20Z</time>
      </trkpt>
      <trkpt lat="49.70067" lon="5.3033">
        <ele>364.4</ele>
        <time>2020-06-25T16:55:21Z</time>
      </trkpt>
      <trkpt lat="49.70064" lon="5.30337">
        <ele>364.4</ele>
        <time>2020-06-25T16:55:22Z</time>
      </trkpt>
      <trkpt lat="49.7006" lon="5.30344">
        <ele>364.3</ele>
        <time>2020-06-25T16:55:23Z</time>
      </trkpt>
      <trkpt lat="49.70058" lon="5.30351">
        <ele>364.3</ele>
        <time>2020-06-25T16:55:24Z</time>
      </trkpt>
      <trkpt lat="49.70054" lon="5.30355">
        <ele>364.3</ele>
        <time>2020-06-25T16:55:25Z</time>
      </trkpt>
      <trkpt lat="49.70051" lon="5.30361">
        <ele>364.2</ele>
        <time>2020-06-25T16:55:26Z</time>
      </trkpt>
      <trkpt lat="49.70047" lon="5.30367">
        <ele>364.2</ele>
        <time>2020-06-25T16:55:27Z</time>
      </trkpt>
      <trkpt lat="49.70044" lon="5.30373">
        <ele>364.2</ele>
        <time>2020-06-25T16:55:28Z</time>
      </trkpt>
      <trkpt lat="49.70041" lon="5.30378">
        <ele>364.2</ele>
        <time>2020-06-25T16:55:29Z</time>
      </trkpt>
      <trkpt lat="49.70038" lon="5.30383">
        <ele>364.2</ele>
        <time>2020-06-25T16:55:30Z</time>
      </trkpt>
      <trkpt lat="49.70035" lon="5.30385">
        <ele>364.2</ele>
        <time>2020-06-25T16:55:31Z</time>
      </trkpt>
      <trkpt lat="49.70032" lon="5.30387">
        <ele>364.2</ele>
        <time>2020-06-25T16:55:32Z</time>
      </trkpt>
      <trkpt lat="49.70028" lon="5.30392">
        <ele>364.3</ele>
        <time>2020-06-25T16:55:33Z</time>
      </trkpt>
      <trkpt lat="49.70024" lon="5.30395">
        <ele>364.3</ele>
        <time>2020-06-25T16:55:34Z</time>
      </trkpt>
      <trkpt lat="49.7002" lon="5.304">
        <ele>364.3</ele>
        <time>2020-06-25T16:55:35Z</time>
      </trkpt>
      <trkpt lat="49.70015" lon="5.30404">
        <ele>364.3</ele>
        <time>2020-06-25T16:55:36Z</time>
      </trkpt>
      <trkpt lat="49.70011" lon="5.30408">
        <ele>364.3</ele>
        <time>2020-06-25T16:55:37Z</time>
      </trkpt>
      <trkpt lat="49.70007" lon="5.30414">
        <ele>364.2</ele>
        <time>2020-06-25T16:55:38Z</time>
      </trkpt>
      <trkpt lat="49.70003" lon="5.30418">
        <ele>364.2</ele>
        <time>2020-06-25T16:55:39Z</time>
      </trkpt>
      <trkpt lat="49.7" lon="5.30423">
        <ele>364.2</ele>
        <time>2020-06-25T16:55:40Z</time>
      </trkpt>
      <trkpt lat="49.69997" lon="5.30429">
        <ele>364.1</ele>
        <time>2020-06-25T16:55:41Z</time>
      </trkpt>
      <trkpt lat="49.69993" lon="5.30432">
        <ele>364.1</ele>
        <time>2020-06-25T16:55:42Z</time>
      </trkpt>
      <trkpt lat="49.6999" lon="5.30437">
        <ele>364</ele>
        <time>2020-06-25T16:55:43Z</time>
      </trkpt>
      <trkpt lat="49.69986" lon="5.30441">
        <ele>364</ele>
        <time>2020-06-25T16:55:44Z</time>
      </trkpt>
      <trkpt lat="49.69983" lon="5.30445">
        <ele>363.9</ele>
        <time>2020-06-25T16:55:45Z</time>
      </trkpt>
      <trkpt lat="49.69982" lon="5.3045">
        <ele>363.8</ele>
        <time>2020-06-25T16:55:46Z</time>
      </trkpt>
      <trkpt lat="49.69978" lon="5.30455">
        <ele>363.8</ele>
        <time>2020-06-25T16:55:47Z</time>
      </trkpt>
      <trkpt lat="49.69975" lon="5.30459">
        <ele>363.7</ele>
        <time>2020-06-25T16:55:48Z</time>
      </trkpt>
      <trkpt lat="49.69971" lon="5.30464">
        <ele>363.7</ele>
        <time>2020-06-25T16:55:49Z</time>
      </trkpt>
      <trkpt lat="49.69967" lon="5.30469">
        <ele>363.6</ele>
        <time>2020-06-25T16:55:50Z</time>
      </trkpt>
      <trkpt lat="49.69962" lon="5.30474">
        <ele>363.6</ele>
        <time>2020-06-25T16:55:51Z</time>
      </trkpt>
      <trkpt lat="49.69958" lon="5.30481">
        <ele>363.5</ele>
        <time>2020-06-25T16:55:52Z</time>
      </trkpt>
      <trkpt lat="49.69954" lon="5.30485">
        <ele>363.3</ele>
        <time>2020-06-25T16:55:53Z</time>
      </trkpt>
      <trkpt lat="49.6995" lon="5.30489">
        <ele>363.2</ele>
        <time>2020-06-25T16:55:54Z</time>
      </trkpt>
      <trkpt lat="49.69946" lon="5.30494">
        <ele>363.1</ele>
        <time>2020-06-25T16:55:55Z</time>
      </trkpt>
      <trkpt lat="49.69943" lon="5.30499">
        <ele>363</ele>
        <time>2020-06-25T16:55:56Z</time>
      </trkpt>
      <trkpt lat="49.6994" lon="5.30503">
        <ele>362.9</ele>
        <time>2020-06-25T16:55:57Z</time>
      </trkpt>
      <trkpt lat="49.69937" lon="5.30507">
        <ele>362.8</ele>
        <time>2020-06-25T16:55:58Z</time>
      </trkpt>
      <trkpt lat="49.69934" lon="5.30512">
        <ele>362.7</ele>
        <time>2020-06-25T16:55:59Z</time>
      </trkpt>
      <trkpt lat="49.6993" lon="5.30515">
        <ele>362.5</ele>
        <time>2020-06-25T16:56:00Z</time>
      </trkpt>
      <trkpt lat="49.69926" lon="5.30521">
        <ele>362.4</ele>
        <time>2020-06-25T16:56:01Z</time>
      </trkpt>
      <trkpt lat="49.69922" lon="5.30526">
        <ele>362.2</ele>
        <time>2020-06-25T16:56:02Z</time>
      </trkpt>
      <trkpt lat="49.69919" lon="5.3053">
        <ele>362.1</ele>
        <time>2020-06-25T16:56:03Z</time>
      </trkpt>
      <trkpt lat="49.69917" lon="5.30536">
        <ele>361.9</ele>
        <time>2020-06-25T16:56:04Z</time>
      </trkpt>
      <trkpt lat="49.69914" lon="5.3054">
        <ele>361.8</ele>
        <time>2020-06-25T16:56:05Z</time>
      </trkpt>
      <trkpt lat="49.69911" lon="5.30544">
        <ele>361.7</ele>
        <time>2020-06-25T16:56:06Z</time>
      </trkpt>
      <trkpt lat="49.69907" lon="5.3055">
        <ele>361.5</ele>
        <time>2020-06-25T16:56:07Z</time>
      </trkpt>
      <trkpt lat="49.69903" lon="5.30555">
        <ele>361.3</ele>
        <time>2020-06-25T16:56:08Z</time>
      </trkpt>
      <trkpt lat="49.69899" lon="5.30559">
        <ele>361.1</ele>
        <time>2020-06-25T16:56:09Z</time>
      </trkpt>
      <trkpt lat="49.69896" lon="5.30563">
        <ele>360.9</ele>
        <time>2020-06-25T16:56:10Z</time>
      </trkpt>
      <trkpt lat="49.69892" lon="5.30568">
        <ele>360.6</ele>
        <time>2020-06-25T16:56:11Z</time>
      </trkpt>
      <trkpt lat="49.69887" lon="5.30572">
        <ele>360.4</ele>
        <time>2020-06-25T16:56:12Z</time>
      </trkpt>
      <trkpt lat="49.69884" lon="5.30578">
        <ele>360.1</ele>
        <time>2020-06-25T16:56:13Z</time>
      </trkpt>
      <trkpt lat="49.69879" lon="5.30583">
        <ele>359.9</ele>
        <time>2020-06-25T16:56:14Z</time>
      </trkpt>
      <trkpt lat="49.69875" lon="5.30588">
        <ele>359.6</ele>
        <time>2020-06-25T16:56:15Z</time>
      </trkpt>
      <trkpt lat="49.69871" lon="5.30595">
        <ele>359.2</ele>
        <time>2020-06-25T16:56:16Z</time>
      </trkpt>
      <trkpt lat="49.69866" lon="5.30602">
        <ele>358.9</ele>
        <time>2020-06-25T16:56:17Z</time>
      </trkpt>
      <trkpt lat="49.69863" lon="5.30607">
        <ele>358.7</ele>
        <time>2020-06-25T16:56:18Z</time>
      </trkpt>
      <trkpt lat="49.69858" lon="5.30612">
        <ele>358.4</ele>
        <time>2020-06-25T16:56:19Z</time>
      </trkpt>
      <trkpt lat="49.69854" lon="5.30618">
        <ele>358</ele>
        <time>2020-06-25T16:56:20Z</time>
      </trkpt>
      <trkpt lat="49.6985" lon="5.30624">
        <ele>357.7</ele>
        <time>2020-06-25T16:56:21Z</time>
      </trkpt>
      <trkpt lat="49.69846" lon="5.30633">
        <ele>357.4</ele>
        <time>2020-06-25T16:56:22Z</time>
      </trkpt>
      <trkpt lat="49.69844" lon="5.30644">
        <ele>356.9</ele>
        <time>2020-06-25T16:56:23Z</time>
      </trkpt>
      <trkpt lat="49.69841" lon="5.30652">
        <ele>356.6</ele>
        <time>2020-06-25T16:56:24Z</time>
      </trkpt>
      <trkpt lat="49.69838" lon="5.30659">
        <ele>356.4</ele>
        <time>2020-06-25T16:56:25Z</time>
      </trkpt>
      <trkpt lat="49.69835" lon="5.30666">
        <ele>356.1</ele>
        <time>2020-06-25T16:56:26Z</time>
      </trkpt>
      <trkpt lat="49.69832" lon="5.30674">
        <ele>355.9</ele>
        <time>2020-06-25T16:56:27Z</time>
      </trkpt>
      <trkpt lat="49.69829" lon="5.30681">
        <ele>355.7</ele>
        <time>2020-06-25T16:56:28Z</time>
      </trkpt>
      <trkpt lat="49.69826" lon="5.30688">
        <ele>355.6</ele>
        <time>2020-06-25T16:56:29Z</time>
      </trkpt>
      <trkpt lat="49.69823" lon="5.30694">
        <ele>355.4</ele>
        <time>2020-06-25T16:56:30Z</time>
      </trkpt>
      <trkpt lat="49.6982" lon="5.30699">
        <ele>355.3</ele>
        <time>2020-06-25T16:56:31Z</time>
      </trkpt>
      <trkpt lat="49.69818" lon="5.30706">
        <ele>355.2</ele>
        <time>2020-06-25T16:56:32Z</time>
      </trkpt>
      <trkpt lat="49.69816" lon="5.30712">
        <ele>355.1</ele>
        <time>2020-06-25T16:56:33Z</time>
      </trkpt>
      <trkpt lat="49.69815" lon="5.30717">
        <ele>355</ele>
        <time>2020-06-25T16:56:34Z</time>
      </trkpt>
      <trkpt lat="49.69813" lon="5.30722">
        <ele>355</ele>
        <time>2020-06-25T16:56:35Z</time>
      </trkpt>
      <trkpt lat="49.69811" lon="5.30726">
        <ele>354.9</ele>
        <time>2020-06-25T16:56:36Z</time>
      </trkpt>
      <trkpt lat="49.69809" lon="5.3073">
        <ele>354.8</ele>
        <time>2020-06-25T16:56:37Z</time>
      </trkpt>
      <trkpt lat="49.69807" lon="5.30731">
        <ele>354.7</ele>
        <time>2020-06-25T16:56:38Z</time>
      </trkpt>
      <trkpt lat="49.69806" lon="5.30729">
        <ele>354.6</ele>
        <time>2020-06-25T16:56:39Z</time>
      </trkpt>
      <trkpt lat="49.69804" lon="5.30729">
        <ele>354.5</ele>
        <time>2020-06-25T16:56:40Z</time>
      </trkpt>
      <trkpt lat="49.69803" lon="5.30729">
        <ele>354.5</ele>
        <time>2020-06-25T16:56:41Z</time>
      </trkpt>
      <trkpt lat="49.69802" lon="5.30729">
        <ele>354.5</ele>
        <time>2020-06-25T16:56:42Z</time>
      </trkpt>
      <trkpt lat="49.698" lon="5.30732">
        <ele>354.4</ele>
        <time>2020-06-25T16:56:43Z</time>
      </trkpt>
      <trkpt lat="49.69798" lon="5.30737">
        <ele>354.2</ele>
        <time>2020-06-25T16:56:44Z</time>
      </trkpt>
      <trkpt lat="49.69798" lon="5.30738">
        <ele>354.1</ele>
        <time>2020-06-25T16:56:45Z</time>
      </trkpt>
      <trkpt lat="49.69798" lon="5.30743">
        <ele>354</ele>
        <time>2020-06-25T16:56:46Z</time>
      </trkpt>
      <trkpt lat="49.69798" lon="5.30747">
        <ele>353.9</ele>
        <time>2020-06-25T16:56:47Z</time>
      </trkpt>
      <trkpt lat="49.69799" lon="5.30754">
        <ele>353.7</ele>
        <time>2020-06-25T16:56:48Z</time>
      </trkpt>
      <trkpt lat="49.69799" lon="5.30761">
        <ele>353.5</ele>
        <time>2020-06-25T16:56:49Z</time>
      </trkpt>
      <trkpt lat="49.69799" lon="5.30768">
        <ele>353.3</ele>
        <time>2020-06-25T16:56:50Z</time>
      </trkpt>
      <trkpt lat="49.698" lon="5.30775">
        <ele>353.2</ele>
        <time>2020-06-25T16:56:51Z</time>
      </trkpt>
      <trkpt lat="49.698" lon="5.30783">
        <ele>353</ele>
        <time>2020-06-25T16:56:52Z</time>
      </trkpt>
      <trkpt lat="49.69799" lon="5.30791">
        <ele>352.9</ele>
        <time>2020-06-25T16:56:53Z</time>
      </trkpt>
      <trkpt lat="49.69799" lon="5.30798">
        <ele>352.7</ele>
        <time>2020-06-25T16:56:54Z</time>
      </trkpt>
      <trkpt lat="49.69799" lon="5.30804">
        <ele>352.6</ele>
        <time>2020-06-25T16:56:55Z</time>
      </trkpt>
      <trkpt lat="49.69798" lon="5.3081">
        <ele>352.6</ele>
        <time>2020-06-25T16:56:56Z</time>
      </trkpt>
      <trkpt lat="49.69798" lon="5.30817">
        <ele>352.5</ele>
        <time>2020-06-25T16:56:57Z</time>
      </trkpt>
      <trkpt lat="49.69798" lon="5.30824">
        <ele>352.4</ele>
        <time>2020-06-25T16:56:58Z</time>
      </trkpt>
      <trkpt lat="49.69798" lon="5.30832">
        <ele>352.4</ele>
        <time>2020-06-25T16:56:59Z</time>
      </trkpt>
      <trkpt lat="49.69798" lon="5.30839">
        <ele>352.3</ele>
        <time>2020-06-25T16:57:00Z</time>
      </trkpt>
      <trkpt lat="49.69798" lon="5.30846">
        <ele>352.2</ele>
        <time>2020-06-25T16:57:01Z</time>
      </trkpt>
      <trkpt lat="49.69797" lon="5.30853">
        <ele>352.2</ele>
        <time>2020-06-25T16:57:02Z</time>
      </trkpt>
      <trkpt lat="49.69797" lon="5.30858">
        <ele>352.2</ele>
        <time>2020-06-25T16:57:03Z</time>
      </trkpt>
      <trkpt lat="49.69796" lon="5.30863">
        <ele>352.2</ele>
        <time>2020-06-25T16:57:04Z</time>
      </trkpt>
      <trkpt lat="49.69797" lon="5.30868">
        <ele>352.2</ele>
        <time>2020-06-25T16:57:05Z</time>
      </trkpt>
      <trkpt lat="49.69797" lon="5.30875">
        <ele>352.2</ele>
        <time>2020-06-25T16:57:06Z</time>
      </trkpt>
      <trkpt lat="49.69796" lon="5.30883">
        <ele>352.3</ele>
        <time>2020-06-25T16:57:07Z</time>
      </trkpt>
      <trkpt lat="49.69796" lon="5.3089">
        <ele>352.4</ele>
        <time>2020-06-25T16:57:08Z</time>
      </trkpt>
      <trkpt lat="49.69796" lon="5.30898">
        <ele>352.4</ele>
        <time>2020-06-25T16:57:09Z</time>
      </trkpt>
      <trkpt lat="49.69796" lon="5.30904">
        <ele>352.5</ele>
        <time>2020-06-25T16:57:10Z</time>
      </trkpt>
      <trkpt lat="49.69796" lon="5.30909">
        <ele>352.5</ele>
        <time>2020-06-25T16:57:11Z</time>
      </trkpt>
      <trkpt lat="49.69795" lon="5.30913">
        <ele>352.6</ele>
        <time>2020-06-25T16:57:12Z</time>
      </trkpt>
      <trkpt lat="49.69795" lon="5.30919">
        <ele>352.7</ele>
        <time>2020-06-25T16:57:13Z</time>
      </trkpt>
      <trkpt lat="49.69796" lon="5.30924">
        <ele>352.7</ele>
        <time>2020-06-25T16:57:14Z</time>
      </trkpt>
      <trkpt lat="49.69796" lon="5.30928">
        <ele>352.7</ele>
        <time>2020-06-25T16:57:15Z</time>
      </trkpt>
      <trkpt lat="49.69796" lon="5.30932">
        <ele>352.7</ele>
        <time>2020-06-25T16:57:16Z</time>
      </trkpt>
      <trkpt lat="49.69796" lon="5.30934">
        <ele>352.6</ele>
        <time>2020-06-25T16:57:17Z</time>
      </trkpt>
      <trkpt lat="49.69798" lon="5.30938">
        <ele>352.6</ele>
        <time>2020-06-25T16:57:18Z</time>
      </trkpt>
      <trkpt lat="49.69798" lon="5.30939">
        <ele>352.6</ele>
        <time>2020-06-25T16:57:19Z</time>
      </trkpt>
      <trkpt lat="49.69799" lon="5.30943">
        <ele>352.6</ele>
        <time>2020-06-25T16:57:20Z</time>
      </trkpt>
      <trkpt lat="49.69798" lon="5.30945">
        <ele>352.6</ele>
        <time>2020-06-25T16:57:21Z</time>
      </trkpt>
      <trkpt lat="49.69797" lon="5.3095">
        <ele>352.6</ele>
        <time>2020-06-25T16:57:22Z</time>
      </trkpt>
      <trkpt lat="49.69796" lon="5.30953">
        <ele>352.6</ele>
        <time>2020-06-25T16:57:23Z</time>
      </trkpt>
      <trkpt lat="49.69796" lon="5.30958">
        <ele>352.6</ele>
        <time>2020-06-25T16:57:24Z</time>
      </trkpt>
      <trkpt lat="49.69796" lon="5.30965">
        <ele>352.7</ele>
        <time>2020-06-25T16:57:25Z</time>
      </trkpt>
      <trkpt lat="49.69796" lon="5.30971">
        <ele>352.7</ele>
        <time>2020-06-25T16:57:26Z</time>
      </trkpt>
      <trkpt lat="49.69796" lon="5.30977">
        <ele>352.7</ele>
        <time>2020-06-25T16:57:27Z</time>
      </trkpt>
      <trkpt lat="49.69797" lon="5.30984">
        <ele>352.8</ele>
        <time>2020-06-25T16:57:28Z</time>
      </trkpt>
      <trkpt lat="49.69798" lon="5.30989">
        <ele>352.9</ele>
        <time>2020-06-25T16:57:29Z</time>
      </trkpt>
      <trkpt lat="49.69799" lon="5.30995">
        <ele>353</ele>
        <time>2020-06-25T16:57:30Z</time>
      </trkpt>
      <trkpt lat="49.69799" lon="5.31001">
        <ele>353</ele>
        <time>2020-06-25T16:57:31Z</time>
      </trkpt>
      <trkpt lat="49.69799" lon="5.31008">
        <ele>353.1</ele>
        <time>2020-06-25T16:57:32Z</time>
      </trkpt>
      <trkpt lat="49.69799" lon="5.31015">
        <ele>353.2</ele>
        <time>2020-06-25T16:57:33Z</time>
      </trkpt>
      <trkpt lat="49.698" lon="5.31023">
        <ele>353.1</ele>
        <time>2020-06-25T16:57:34Z</time>
      </trkpt>
      <trkpt lat="49.698" lon="5.31029">
        <ele>353</ele>
        <time>2020-06-25T16:57:35Z</time>
      </trkpt>
      <trkpt lat="49.69801" lon="5.31035">
        <ele>353</ele>
        <time>2020-06-25T16:57:36Z</time>
      </trkpt>
      <trkpt lat="49.69802" lon="5.31041">
        <ele>352.9</ele>
        <time>2020-06-25T16:57:37Z</time>
      </trkpt>
      <trkpt lat="49.69804" lon="5.31048">
        <ele>352.9</ele>
        <time>2020-06-25T16:57:38Z</time>
      </trkpt>
      <trkpt lat="49.69805" lon="5.31053">
        <ele>352.8</ele>
        <time>2020-06-25T16:57:39Z</time>
      </trkpt>
      <trkpt lat="49.69805" lon="5.31061">
        <ele>352.8</ele>
        <time>2020-06-25T16:57:40Z</time>
      </trkpt>
      <trkpt lat="49.69805" lon="5.31064">
        <ele>352.8</ele>
        <time>2020-06-25T16:57:41Z</time>
      </trkpt>
      <trkpt lat="49.69804" lon="5.3107">
        <ele>352.8</ele>
        <time>2020-06-25T16:57:42Z</time>
      </trkpt>
      <trkpt lat="49.69802" lon="5.31075">
        <ele>352.9</ele>
        <time>2020-06-25T16:57:43Z</time>
      </trkpt>
      <trkpt lat="49.69802" lon="5.31082">
        <ele>352.9</ele>
        <time>2020-06-25T16:57:44Z</time>
      </trkpt>
      <trkpt lat="49.69802" lon="5.31088">
        <ele>353</ele>
        <time>2020-06-25T16:57:45Z</time>
      </trkpt>
      <trkpt lat="49.69802" lon="5.31096">
        <ele>353.1</ele>
        <time>2020-06-25T16:57:46Z</time>
      </trkpt>
      <trkpt lat="49.69801" lon="5.31101">
        <ele>353.2</ele>
        <time>2020-06-25T16:57:47Z</time>
      </trkpt>
      <trkpt lat="49.69799" lon="5.31106">
        <ele>353.3</ele>
        <time>2020-06-25T16:57:48Z</time>
      </trkpt>
      <trkpt lat="49.69798" lon="5.3111">
        <ele>353.3</ele>
        <time>2020-06-25T16:57:49Z</time>
      </trkpt>
      <trkpt lat="49.69797" lon="5.31116">
        <ele>353.4</ele>
        <time>2020-06-25T16:57:50Z</time>
      </trkpt>
      <trkpt lat="49.69797" lon="5.31122">
        <ele>353.5</ele>
        <time>2020-06-25T16:57:51Z</time>
      </trkpt>
      <trkpt lat="49.69796" lon="5.31127">
        <ele>353.6</ele>
        <time>2020-06-25T16:57:52Z</time>
      </trkpt>
      <trkpt lat="49.69796" lon="5.31135">
        <ele>353.7</ele>
        <time>2020-06-25T16:57:53Z</time>
      </trkpt>
      <trkpt lat="49.69794" lon="5.3114">
        <ele>353.8</ele>
        <time>2020-06-25T16:57:54Z</time>
      </trkpt>
      <trkpt lat="49.69792" lon="5.31144">
        <ele>353.9</ele>
        <time>2020-06-25T16:57:55Z</time>
      </trkpt>
      <trkpt lat="49.69792" lon="5.31149">
        <ele>354</ele>
        <time>2020-06-25T16:57:56Z</time>
      </trkpt>
      <trkpt lat="49.6979" lon="5.31153">
        <ele>354</ele>
        <time>2020-06-25T16:57:57Z</time>
      </trkpt>
      <trkpt lat="49.6979" lon="5.31154">
        <ele>354</ele>
        <time>2020-06-25T16:57:58Z</time>
      </trkpt>
      <trkpt lat="49.69789" lon="5.31159">
        <ele>354</ele>
        <time>2020-06-25T16:57:59Z</time>
      </trkpt>
      <trkpt lat="49.69789" lon="5.3116">
        <ele>354</ele>
        <time>2020-06-25T16:58:00Z</time>
      </trkpt>
      <trkpt lat="49.69792" lon="5.3116">
        <ele>354</ele>
        <time>2020-06-25T16:58:01Z</time>
      </trkpt>
      <trkpt lat="49.69793" lon="5.31159">
        <ele>354</ele>
        <time>2020-06-25T16:58:02Z</time>
      </trkpt>
      <trkpt lat="49.69799" lon="5.31162">
        <ele>354</ele>
        <time>2020-06-25T16:58:03Z</time>
      </trkpt>
      <trkpt lat="49.69803" lon="5.31164">
        <ele>354</ele>
        <time>2020-06-25T16:58:04Z</time>
      </trkpt>
      <trkpt lat="49.69807" lon="5.31166">
        <ele>354</ele>
        <time>2020-06-25T16:58:05Z</time>
      </trkpt>
      <trkpt lat="49.69811" lon="5.31169">
        <ele>354</ele>
        <time>2020-06-25T16:58:06Z</time>
      </trkpt>
      <trkpt lat="49.69814" lon="5.31173">
        <ele>354.1</ele>
        <time>2020-06-25T16:58:07Z</time>
      </trkpt>
      <trkpt lat="49.69817" lon="5.31179">
        <ele>354.1</ele>
        <time>2020-06-25T16:58:08Z</time>
      </trkpt>
      <trkpt lat="49.69821" lon="5.31187">
        <ele>354.2</ele>
        <time>2020-06-25T16:58:09Z</time>
      </trkpt>
      <trkpt lat="49.69824" lon="5.31193">
        <ele>354.2</ele>
        <time>2020-06-25T16:58:10Z</time>
      </trkpt>
      <trkpt lat="49.69828" lon="5.31199">
        <ele>354.3</ele>
        <time>2020-06-25T16:58:11Z</time>
      </trkpt>
      <trkpt lat="49.69831" lon="5.31205">
        <ele>354.3</ele>
        <time>2020-06-25T16:58:12Z</time>
      </trkpt>
      <trkpt lat="49.69834" lon="5.31211">
        <ele>354.3</ele>
        <time>2020-06-25T16:58:13Z</time>
      </trkpt>
      <trkpt lat="49.69836" lon="5.31217">
        <ele>354.4</ele>
        <time>2020-06-25T16:58:14Z</time>
      </trkpt>
      <trkpt lat="49.69838" lon="5.31223">
        <ele>354.4</ele>
        <time>2020-06-25T16:58:15Z</time>
      </trkpt>
      <trkpt lat="49.69841" lon="5.31229">
        <ele>354.5</ele>
        <time>2020-06-25T16:58:16Z</time>
      </trkpt>
      <trkpt lat="49.69844" lon="5.31234">
        <ele>354.6</ele>
        <time>2020-06-25T16:58:17Z</time>
      </trkpt>
      <trkpt lat="49.69848" lon="5.31239">
        <ele>354.6</ele>
        <time>2020-06-25T16:58:18Z</time>
      </trkpt>
      <trkpt lat="49.69851" lon="5.31245">
        <ele>354.7</ele>
        <time>2020-06-25T16:58:19Z</time>
      </trkpt>
      <trkpt lat="49.69855" lon="5.31251">
        <ele>354.7</ele>
        <time>2020-06-25T16:58:20Z</time>
      </trkpt>
      <trkpt lat="49.69859" lon="5.31257">
        <ele>354.7</ele>
        <time>2020-06-25T16:58:21Z</time>
      </trkpt>
      <trkpt lat="49.69862" lon="5.31263">
        <ele>354.8</ele>
        <time>2020-06-25T16:58:22Z</time>
      </trkpt>
      <trkpt lat="49.69866" lon="5.31271">
        <ele>354.8</ele>
        <time>2020-06-25T16:58:23Z</time>
      </trkpt>
      <trkpt lat="49.69869" lon="5.31277">
        <ele>354.9</ele>
        <time>2020-06-25T16:58:24Z</time>
      </trkpt>
      <trkpt lat="49.69872" lon="5.31282">
        <ele>354.9</ele>
        <time>2020-06-25T16:58:25Z</time>
      </trkpt>
      <trkpt lat="49.69874" lon="5.31287">
        <ele>355</ele>
        <time>2020-06-25T16:58:26Z</time>
      </trkpt>
      <trkpt lat="49.69878" lon="5.31291">
        <ele>355.1</ele>
        <time>2020-06-25T16:58:27Z</time>
      </trkpt>
      <trkpt lat="49.6988" lon="5.31295">
        <ele>355.1</ele>
        <time>2020-06-25T16:58:28Z</time>
      </trkpt>
      <trkpt lat="49.69883" lon="5.313">
        <ele>355.2</ele>
        <time>2020-06-25T16:58:29Z</time>
      </trkpt>
      <trkpt lat="49.69887" lon="5.31306">
        <ele>355.3</ele>
        <time>2020-06-25T16:58:30Z</time>
      </trkpt>
      <trkpt lat="49.69891" lon="5.3131">
        <ele>355.3</ele>
        <time>2020-06-25T16:58:31Z</time>
      </trkpt>
      <trkpt lat="49.69896" lon="5.31316">
        <ele>355.5</ele>
        <time>2020-06-25T16:58:32Z</time>
      </trkpt>
      <trkpt lat="49.69899" lon="5.31323">
        <ele>355.5</ele>
        <time>2020-06-25T16:58:33Z</time>
      </trkpt>
      <trkpt lat="49.69903" lon="5.31329">
        <ele>355.6</ele>
        <time>2020-06-25T16:58:34Z</time>
      </trkpt>
      <trkpt lat="49.69906" lon="5.31333">
        <ele>355.6</ele>
        <time>2020-06-25T16:58:35Z</time>
      </trkpt>
      <trkpt lat="49.6991" lon="5.31337">
        <ele>355.6</ele>
        <time>2020-06-25T16:58:36Z</time>
      </trkpt>
      <trkpt lat="49.69913" lon="5.31342">
        <ele>355.6</ele>
        <time>2020-06-25T16:58:37Z</time>
      </trkpt>
      <trkpt lat="49.69917" lon="5.31347">
        <ele>355.7</ele>
        <time>2020-06-25T16:58:38Z</time>
      </trkpt>
      <trkpt lat="49.6992" lon="5.31352">
        <ele>355.7</ele>
        <time>2020-06-25T16:58:39Z</time>
      </trkpt>
      <trkpt lat="49.69921" lon="5.31357">
        <ele>355.7</ele>
        <time>2020-06-25T16:58:40Z</time>
      </trkpt>
      <trkpt lat="49.69923" lon="5.31364">
        <ele>355.8</ele>
        <time>2020-06-25T16:58:41Z</time>
      </trkpt>
      <trkpt lat="49.69926" lon="5.31371">
        <ele>355.8</ele>
        <time>2020-06-25T16:58:42Z</time>
      </trkpt>
      <trkpt lat="49.69929" lon="5.31377">
        <ele>355.8</ele>
        <time>2020-06-25T16:58:43Z</time>
      </trkpt>
      <trkpt lat="49.69932" lon="5.31384">
        <ele>355.9</ele>
        <time>2020-06-25T16:58:44Z</time>
      </trkpt>
      <trkpt lat="49.69935" lon="5.3139">
        <ele>355.9</ele>
        <time>2020-06-25T16:58:45Z</time>
      </trkpt>
      <trkpt lat="49.69937" lon="5.31397">
        <ele>356</ele>
        <time>2020-06-25T16:58:46Z</time>
      </trkpt>
      <trkpt lat="49.69939" lon="5.31403">
        <ele>356</ele>
        <time>2020-06-25T16:58:47Z</time>
      </trkpt>
      <trkpt lat="49.69941" lon="5.31409">
        <ele>356.1</ele>
        <time>2020-06-25T16:58:48Z</time>
      </trkpt>
      <trkpt lat="49.69944" lon="5.31417">
        <ele>356.3</ele>
        <time>2020-06-25T16:58:49Z</time>
      </trkpt>
      <trkpt lat="49.69946" lon="5.31424">
        <ele>356.3</ele>
        <time>2020-06-25T16:58:50Z</time>
      </trkpt>
      <trkpt lat="49.69949" lon="5.3143">
        <ele>356.4</ele>
        <time>2020-06-25T16:58:51Z</time>
      </trkpt>
      <trkpt lat="49.69952" lon="5.31437">
        <ele>356.5</ele>
        <time>2020-06-25T16:58:52Z</time>
      </trkpt>
      <trkpt lat="49.69956" lon="5.31443">
        <ele>356.5</ele>
        <time>2020-06-25T16:58:53Z</time>
      </trkpt>
      <trkpt lat="49.69959" lon="5.3145">
        <ele>356.6</ele>
        <time>2020-06-25T16:58:54Z</time>
      </trkpt>
      <trkpt lat="49.69961" lon="5.31456">
        <ele>356.6</ele>
        <time>2020-06-25T16:58:55Z</time>
      </trkpt>
      <trkpt lat="49.69962" lon="5.31463">
        <ele>356.7</ele>
        <time>2020-06-25T16:58:56Z</time>
      </trkpt>
      <trkpt lat="49.69963" lon="5.3147">
        <ele>356.7</ele>
        <time>2020-06-25T16:58:57Z</time>
      </trkpt>
      <trkpt lat="49.69965" lon="5.31477">
        <ele>356.8</ele>
        <time>2020-06-25T16:58:58Z</time>
      </trkpt>
      <trkpt lat="49.69966" lon="5.31484">
        <ele>356.8</ele>
        <time>2020-06-25T16:58:59Z</time>
      </trkpt>
      <trkpt lat="49.69967" lon="5.31492">
        <ele>356.8</ele>
        <time>2020-06-25T16:59:00Z</time>
      </trkpt>
      <trkpt lat="49.69968" lon="5.31499">
        <ele>356.7</ele>
        <time>2020-06-25T16:59:01Z</time>
      </trkpt>
      <trkpt lat="49.6997" lon="5.31506">
        <ele>356.7</ele>
        <time>2020-06-25T16:59:02Z</time>
      </trkpt>
      <trkpt lat="49.69971" lon="5.31515">
        <ele>356.7</ele>
        <time>2020-06-25T16:59:03Z</time>
      </trkpt>
      <trkpt lat="49.69972" lon="5.31523">
        <ele>356.7</ele>
        <time>2020-06-25T16:59:04Z</time>
      </trkpt>
      <trkpt lat="49.69973" lon="5.31531">
        <ele>356.7</ele>
        <time>2020-06-25T16:59:05Z</time>
      </trkpt>
      <trkpt lat="49.69975" lon="5.31538">
        <ele>356.7</ele>
        <time>2020-06-25T16:59:06Z</time>
      </trkpt>
      <trkpt lat="49.69976" lon="5.31547">
        <ele>356.7</ele>
        <time>2020-06-25T16:59:07Z</time>
      </trkpt>
      <trkpt lat="49.69977" lon="5.31557">
        <ele>356.7</ele>
        <time>2020-06-25T16:59:08Z</time>
      </trkpt>
      <trkpt lat="49.69977" lon="5.31565">
        <ele>356.7</ele>
        <time>2020-06-25T16:59:09Z</time>
      </trkpt>
      <trkpt lat="49.69978" lon="5.31573">
        <ele>356.7</ele>
        <time>2020-06-25T16:59:10Z</time>
      </trkpt>
      <trkpt lat="49.6998" lon="5.31581">
        <ele>356.7</ele>
        <time>2020-06-25T16:59:11Z</time>
      </trkpt>
      <trkpt lat="49.69981" lon="5.3159">
        <ele>356.6</ele>
        <time>2020-06-25T16:59:12Z</time>
      </trkpt>
      <trkpt lat="49.69981" lon="5.31597">
        <ele>356.6</ele>
        <time>2020-06-25T16:59:13Z</time>
      </trkpt>
      <trkpt lat="49.69982" lon="5.31604">
        <ele>356.6</ele>
        <time>2020-06-25T16:59:14Z</time>
      </trkpt>
      <trkpt lat="49.69984" lon="5.31612">
        <ele>356.5</ele>
        <time>2020-06-25T16:59:15Z</time>
      </trkpt>
      <trkpt lat="49.69984" lon="5.31619">
        <ele>356.5</ele>
        <time>2020-06-25T16:59:16Z</time>
      </trkpt>
      <trkpt lat="49.69985" lon="5.31627">
        <ele>356.5</ele>
        <time>2020-06-25T16:59:17Z</time>
      </trkpt>
      <trkpt lat="49.69987" lon="5.31635">
        <ele>356.4</ele>
        <time>2020-06-25T16:59:18Z</time>
      </trkpt>
      <trkpt lat="49.69988" lon="5.31645">
        <ele>356.4</ele>
        <time>2020-06-25T16:59:19Z</time>
      </trkpt>
      <trkpt lat="49.69988" lon="5.31655">
        <ele>356.5</ele>
        <time>2020-06-25T16:59:20Z</time>
      </trkpt>
      <trkpt lat="49.69989" lon="5.31663">
        <ele>356.5</ele>
        <time>2020-06-25T16:59:21Z</time>
      </trkpt>
      <trkpt lat="49.69988" lon="5.31672">
        <ele>356.4</ele>
        <time>2020-06-25T16:59:22Z</time>
      </trkpt>
      <trkpt lat="49.69988" lon="5.31681">
        <ele>356.4</ele>
        <time>2020-06-25T16:59:23Z</time>
      </trkpt>
      <trkpt lat="49.69989" lon="5.31691">
        <ele>356.4</ele>
        <time>2020-06-25T16:59:24Z</time>
      </trkpt>
      <trkpt lat="49.6999" lon="5.31701">
        <ele>356.3</ele>
        <time>2020-06-25T16:59:25Z</time>
      </trkpt>
      <trkpt lat="49.6999" lon="5.3171">
        <ele>356.3</ele>
        <time>2020-06-25T16:59:26Z</time>
      </trkpt>
      <trkpt lat="49.6999" lon="5.31717">
        <ele>356.3</ele>
        <time>2020-06-25T16:59:27Z</time>
      </trkpt>
      <trkpt lat="49.6999" lon="5.31725">
        <ele>356.2</ele>
        <time>2020-06-25T16:59:28Z</time>
      </trkpt>
      <trkpt lat="49.6999" lon="5.31734">
        <ele>356.2</ele>
        <time>2020-06-25T16:59:29Z</time>
      </trkpt>
      <trkpt lat="49.6999" lon="5.31742">
        <ele>356.2</ele>
        <time>2020-06-25T16:59:30Z</time>
      </trkpt>
      <trkpt lat="49.69991" lon="5.3175">
        <ele>356.2</ele>
        <time>2020-06-25T16:59:31Z</time>
      </trkpt>
      <trkpt lat="49.69993" lon="5.31757">
        <ele>356.1</ele>
        <time>2020-06-25T16:59:32Z</time>
      </trkpt>
      <trkpt lat="49.69996" lon="5.31765">
        <ele>356.1</ele>
        <time>2020-06-25T16:59:33Z</time>
      </trkpt>
      <trkpt lat="49.69995" lon="5.31772">
        <ele>356.1</ele>
        <time>2020-06-25T16:59:34Z</time>
      </trkpt>
      <trkpt lat="49.69995" lon="5.31778">
        <ele>356.1</ele>
        <time>2020-06-25T16:59:35Z</time>
      </trkpt>
      <trkpt lat="49.69993" lon="5.31784">
        <ele>356.1</ele>
        <time>2020-06-25T16:59:36Z</time>
      </trkpt>
      <trkpt lat="49.69992" lon="5.31791">
        <ele>355.9</ele>
        <time>2020-06-25T16:59:37Z</time>
      </trkpt>
      <trkpt lat="49.69991" lon="5.31799">
        <ele>355.8</ele>
        <time>2020-06-25T16:59:38Z</time>
      </trkpt>
      <trkpt lat="49.6999" lon="5.31808">
        <ele>355.6</ele>
        <time>2020-06-25T16:59:39Z</time>
      </trkpt>
      <trkpt lat="49.6999" lon="5.31814">
        <ele>355.5</ele>
        <time>2020-06-25T16:59:40Z</time>
      </trkpt>
      <trkpt lat="49.6999" lon="5.31822">
        <ele>355.4</ele>
        <time>2020-06-25T16:59:41Z</time>
      </trkpt>
      <trkpt lat="49.6999" lon="5.31829">
        <ele>355.3</ele>
        <time>2020-06-25T16:59:42Z</time>
      </trkpt>
      <trkpt lat="49.69989" lon="5.31837">
        <ele>355.3</ele>
        <time>2020-06-25T16:59:43Z</time>
      </trkpt>
      <trkpt lat="49.69987" lon="5.31846">
        <ele>355.2</ele>
        <time>2020-06-25T16:59:44Z</time>
      </trkpt>
      <trkpt lat="49.69986" lon="5.31853">
        <ele>355.2</ele>
        <time>2020-06-25T16:59:45Z</time>
      </trkpt>
      <trkpt lat="49.69985" lon="5.31862">
        <ele>355.2</ele>
        <time>2020-06-25T16:59:46Z</time>
      </trkpt>
      <trkpt lat="49.69984" lon="5.3187">
        <ele>355.2</ele>
        <time>2020-06-25T16:59:47Z</time>
      </trkpt>
      <trkpt lat="49.69984" lon="5.31878">
        <ele>355.2</ele>
        <time>2020-06-25T16:59:48Z</time>
      </trkpt>
      <trkpt lat="49.69982" lon="5.31885">
        <ele>355.2</ele>
        <time>2020-06-25T16:59:49Z</time>
      </trkpt>
      <trkpt lat="49.69981" lon="5.31892">
        <ele>355.2</ele>
        <time>2020-06-25T16:59:50Z</time>
      </trkpt>
      <trkpt lat="49.6998" lon="5.319">
        <ele>355.2</ele>
        <time>2020-06-25T16:59:51Z</time>
      </trkpt>
      <trkpt lat="49.69978" lon="5.31909">
        <ele>355.2</ele>
        <time>2020-06-25T16:59:52Z</time>
      </trkpt>
      <trkpt lat="49.69976" lon="5.31917">
        <ele>355.3</ele>
        <time>2020-06-25T16:59:53Z</time>
      </trkpt>
      <trkpt lat="49.69975" lon="5.31926">
        <ele>355.4</ele>
        <time>2020-06-25T16:59:54Z</time>
      </trkpt>
      <trkpt lat="49.69975" lon="5.31934">
        <ele>355.5</ele>
        <time>2020-06-25T16:59:55Z</time>
      </trkpt>
      <trkpt lat="49.69974" lon="5.31943">
        <ele>355.7</ele>
        <time>2020-06-25T16:59:56Z</time>
      </trkpt>
      <trkpt lat="49.69973" lon="5.31951">
        <ele>355.7</ele>
        <time>2020-06-25T16:59:57Z</time>
      </trkpt>
      <trkpt lat="49.69972" lon="5.31961">
        <ele>355.8</ele>
        <time>2020-06-25T16:59:58Z</time>
      </trkpt>
      <trkpt lat="49.6997" lon="5.3197">
        <ele>355.8</ele>
        <time>2020-06-25T16:59:59Z</time>
      </trkpt>
      <trkpt lat="49.69969" lon="5.31979">
        <ele>355.8</ele>
        <time>2020-06-25T17:00:00Z</time>
      </trkpt>
      <trkpt lat="49.69968" lon="5.31987">
        <ele>355.9</ele>
        <time>2020-06-25T17:00:01Z</time>
      </trkpt>
      <trkpt lat="49.69967" lon="5.31997">
        <ele>355.9</ele>
        <time>2020-06-25T17:00:02Z</time>
      </trkpt>
      <trkpt lat="49.69965" lon="5.32005">
        <ele>355.9</ele>
        <time>2020-06-25T17:00:03Z</time>
      </trkpt>
      <trkpt lat="49.69965" lon="5.32013">
        <ele>355.9</ele>
        <time>2020-06-25T17:00:04Z</time>
      </trkpt>
      <trkpt lat="49.69965" lon="5.32022">
        <ele>355.9</ele>
        <time>2020-06-25T17:00:05Z</time>
      </trkpt>
      <trkpt lat="49.69964" lon="5.3203">
        <ele>356</ele>
        <time>2020-06-25T17:00:06Z</time>
      </trkpt>
      <trkpt lat="49.69963" lon="5.32039">
        <ele>356</ele>
        <time>2020-06-25T17:00:07Z</time>
      </trkpt>
      <trkpt lat="49.69963" lon="5.32047">
        <ele>356</ele>
        <time>2020-06-25T17:00:08Z</time>
      </trkpt>
      <trkpt lat="49.69963" lon="5.32055">
        <ele>356.1</ele>
        <time>2020-06-25T17:00:09Z</time>
      </trkpt>
      <trkpt lat="49.69961" lon="5.32063">
        <ele>356.1</ele>
        <time>2020-06-25T17:00:10Z</time>
      </trkpt>
      <trkpt lat="49.6996" lon="5.32071">
        <ele>356.2</ele>
        <time>2020-06-25T17:00:11Z</time>
      </trkpt>
      <trkpt lat="49.69959" lon="5.3208">
        <ele>356.2</ele>
        <time>2020-06-25T17:00:12Z</time>
      </trkpt>
      <trkpt lat="49.69957" lon="5.32088">
        <ele>356.3</ele>
        <time>2020-06-25T17:00:13Z</time>
      </trkpt>
      <trkpt lat="49.69956" lon="5.32097">
        <ele>356.3</ele>
        <time>2020-06-25T17:00:14Z</time>
      </trkpt>
      <trkpt lat="49.69956" lon="5.32106">
        <ele>356.3</ele>
        <time>2020-06-25T17:00:15Z</time>
      </trkpt>
      <trkpt lat="49.69955" lon="5.32116">
        <ele>356.3</ele>
        <time>2020-06-25T17:00:16Z</time>
      </trkpt>
      <trkpt lat="49.69955" lon="5.32125">
        <ele>356.4</ele>
        <time>2020-06-25T17:00:17Z</time>
      </trkpt>
      <trkpt lat="49.69954" lon="5.32134">
        <ele>356.4</ele>
        <time>2020-06-25T17:00:18Z</time>
      </trkpt>
      <trkpt lat="49.69954" lon="5.32142">
        <ele>356.3</ele>
        <time>2020-06-25T17:00:19Z</time>
      </trkpt>
      <trkpt lat="49.69953" lon="5.32151">
        <ele>356.2</ele>
        <time>2020-06-25T17:00:20Z</time>
      </trkpt>
      <trkpt lat="49.69952" lon="5.3216">
        <ele>356.1</ele>
        <time>2020-06-25T17:00:21Z</time>
      </trkpt>
      <trkpt lat="49.69951" lon="5.32168">
        <ele>356</ele>
        <time>2020-06-25T17:00:22Z</time>
      </trkpt>
      <trkpt lat="49.69949" lon="5.32177">
        <ele>355.9</ele>
        <time>2020-06-25T17:00:23Z</time>
      </trkpt>
      <trkpt lat="49.69948" lon="5.32187">
        <ele>355.8</ele>
        <time>2020-06-25T17:00:24Z</time>
      </trkpt>
      <trkpt lat="49.69946" lon="5.32195">
        <ele>355.8</ele>
        <time>2020-06-25T17:00:25Z</time>
      </trkpt>
      <trkpt lat="49.69945" lon="5.32205">
        <ele>355.7</ele>
        <time>2020-06-25T17:00:26Z</time>
      </trkpt>
      <trkpt lat="49.69944" lon="5.32215">
        <ele>355.7</ele>
        <time>2020-06-25T17:00:27Z</time>
      </trkpt>
      <trkpt lat="49.69942" lon="5.32224">
        <ele>355.6</ele>
        <time>2020-06-25T17:00:28Z</time>
      </trkpt>
      <trkpt lat="49.69941" lon="5.32233">
        <ele>355.5</ele>
        <time>2020-06-25T17:00:29Z</time>
      </trkpt>
      <trkpt lat="49.6994" lon="5.32242">
        <ele>355.4</ele>
        <time>2020-06-25T17:00:30Z</time>
      </trkpt>
      <trkpt lat="49.69937" lon="5.32251">
        <ele>355.3</ele>
        <time>2020-06-25T17:00:31Z</time>
      </trkpt>
      <trkpt lat="49.69936" lon="5.3226">
        <ele>355.3</ele>
        <time>2020-06-25T17:00:32Z</time>
      </trkpt>
      <trkpt lat="49.69934" lon="5.3227">
        <ele>355.2</ele>
        <time>2020-06-25T17:00:33Z</time>
      </trkpt>
      <trkpt lat="49.69932" lon="5.32281">
        <ele>355.1</ele>
        <time>2020-06-25T17:00:34Z</time>
      </trkpt>
      <trkpt lat="49.69931" lon="5.3229">
        <ele>354.9</ele>
        <time>2020-06-25T17:00:35Z</time>
      </trkpt>
      <trkpt lat="49.69928" lon="5.323">
        <ele>354.8</ele>
        <time>2020-06-25T17:00:36Z</time>
      </trkpt>
      <trkpt lat="49.69927" lon="5.32307">
        <ele>354.7</ele>
        <time>2020-06-25T17:00:37Z</time>
      </trkpt>
      <trkpt lat="49.69925" lon="5.32318">
        <ele>354.5</ele>
        <time>2020-06-25T17:00:38Z</time>
      </trkpt>
      <trkpt lat="49.69922" lon="5.32329">
        <ele>354.4</ele>
        <time>2020-06-25T17:00:39Z</time>
      </trkpt>
      <trkpt lat="49.69919" lon="5.32339">
        <ele>354.3</ele>
        <time>2020-06-25T17:00:40Z</time>
      </trkpt>
      <trkpt lat="49.69917" lon="5.32349">
        <ele>354.1</ele>
        <time>2020-06-25T17:00:41Z</time>
      </trkpt>
      <trkpt lat="49.69915" lon="5.32359">
        <ele>354</ele>
        <time>2020-06-25T17:00:42Z</time>
      </trkpt>
      <trkpt lat="49.69912" lon="5.32368">
        <ele>354</ele>
        <time>2020-06-25T17:00:43Z</time>
      </trkpt>
      <trkpt lat="49.6991" lon="5.32377">
        <ele>353.9</ele>
        <time>2020-06-25T17:00:44Z</time>
      </trkpt>
      <trkpt lat="49.69908" lon="5.32386">
        <ele>353.8</ele>
        <time>2020-06-25T17:00:45Z</time>
      </trkpt>
      <trkpt lat="49.69906" lon="5.32395">
        <ele>353.8</ele>
        <time>2020-06-25T17:00:46Z</time>
      </trkpt>
      <trkpt lat="49.69903" lon="5.32403">
        <ele>353.6</ele>
        <time>2020-06-25T17:00:47Z</time>
      </trkpt>
      <trkpt lat="49.699" lon="5.32411">
        <ele>353.5</ele>
        <time>2020-06-25T17:00:48Z</time>
      </trkpt>
      <trkpt lat="49.69897" lon="5.3242">
        <ele>353.3</ele>
        <time>2020-06-25T17:00:49Z</time>
      </trkpt>
      <trkpt lat="49.69893" lon="5.32428">
        <ele>353.1</ele>
        <time>2020-06-25T17:00:50Z</time>
      </trkpt>
      <trkpt lat="49.69889" lon="5.32437">
        <ele>352.9</ele>
        <time>2020-06-25T17:00:51Z</time>
      </trkpt>
      <trkpt lat="49.69886" lon="5.32445">
        <ele>352.7</ele>
        <time>2020-06-25T17:00:52Z</time>
      </trkpt>
      <trkpt lat="49.69883" lon="5.32455">
        <ele>352.6</ele>
        <time>2020-06-25T17:00:53Z</time>
      </trkpt>
      <trkpt lat="49.69881" lon="5.32463">
        <ele>352.5</ele>
        <time>2020-06-25T17:00:54Z</time>
      </trkpt>
      <trkpt lat="49.69878" lon="5.32472">
        <ele>352.3</ele>
        <time>2020-06-25T17:00:55Z</time>
      </trkpt>
      <trkpt lat="49.69875" lon="5.32481">
        <ele>352.1</ele>
        <time>2020-06-25T17:00:56Z</time>
      </trkpt>
      <trkpt lat="49.69873" lon="5.32489">
        <ele>352</ele>
        <time>2020-06-25T17:00:57Z</time>
      </trkpt>
      <trkpt lat="49.6987" lon="5.32497">
        <ele>351.8</ele>
        <time>2020-06-25T17:00:58Z</time>
      </trkpt>
      <trkpt lat="49.69869" lon="5.32505">
        <ele>351.7</ele>
        <time>2020-06-25T17:00:59Z</time>
      </trkpt>
      <trkpt lat="49.69867" lon="5.32514">
        <ele>351.5</ele>
        <time>2020-06-25T17:01:00Z</time>
      </trkpt>
      <trkpt lat="49.69865" lon="5.32522">
        <ele>351.4</ele>
        <time>2020-06-25T17:01:01Z</time>
      </trkpt>
      <trkpt lat="49.69863" lon="5.32531">
        <ele>351.3</ele>
        <time>2020-06-25T17:01:02Z</time>
      </trkpt>
      <trkpt lat="49.6986" lon="5.32539">
        <ele>351.2</ele>
        <time>2020-06-25T17:01:03Z</time>
      </trkpt>
      <trkpt lat="49.69856" lon="5.32548">
        <ele>351.1</ele>
        <time>2020-06-25T17:01:04Z</time>
      </trkpt>
      <trkpt lat="49.69853" lon="5.32558">
        <ele>350.9</ele>
        <time>2020-06-25T17:01:05Z</time>
      </trkpt>
      <trkpt lat="49.6985" lon="5.32567">
        <ele>350.8</ele>
        <time>2020-06-25T17:01:06Z</time>
      </trkpt>
      <trkpt lat="49.69848" lon="5.32573">
        <ele>350.7</ele>
        <time>2020-06-25T17:01:07Z</time>
      </trkpt>
      <trkpt lat="49.69846" lon="5.3258">
        <ele>350.6</ele>
        <time>2020-06-25T17:01:08Z</time>
      </trkpt>
      <trkpt lat="49.69844" lon="5.32587">
        <ele>350.5</ele>
        <time>2020-06-25T17:01:09Z</time>
      </trkpt>
      <trkpt lat="49.69842" lon="5.32596">
        <ele>350.3</ele>
        <time>2020-06-25T17:01:10Z</time>
      </trkpt>
      <trkpt lat="49.6984" lon="5.32605">
        <ele>350.1</ele>
        <time>2020-06-25T17:01:11Z</time>
      </trkpt>
      <trkpt lat="49.69838" lon="5.32614">
        <ele>350</ele>
        <time>2020-06-25T17:01:12Z</time>
      </trkpt>
      <trkpt lat="49.69836" lon="5.32623">
        <ele>349.8</ele>
        <time>2020-06-25T17:01:13Z</time>
      </trkpt>
      <trkpt lat="49.69834" lon="5.32632">
        <ele>349.7</ele>
        <time>2020-06-25T17:01:14Z</time>
      </trkpt>
      <trkpt lat="49.69833" lon="5.32639">
        <ele>349.6</ele>
        <time>2020-06-25T17:01:15Z</time>
      </trkpt>
      <trkpt lat="49.69832" lon="5.32646">
        <ele>349.5</ele>
        <time>2020-06-25T17:01:16Z</time>
      </trkpt>
      <trkpt lat="49.69832" lon="5.32653">
        <ele>349.4</ele>
        <time>2020-06-25T17:01:17Z</time>
      </trkpt>
      <trkpt lat="49.69832" lon="5.32662">
        <ele>349.3</ele>
        <time>2020-06-25T17:01:18Z</time>
      </trkpt>
      <trkpt lat="49.6983" lon="5.32672">
        <ele>349.1</ele>
        <time>2020-06-25T17:01:19Z</time>
      </trkpt>
      <trkpt lat="49.69829" lon="5.32682">
        <ele>348.9</ele>
        <time>2020-06-25T17:01:20Z</time>
      </trkpt>
      <trkpt lat="49.69828" lon="5.32691">
        <ele>348.8</ele>
        <time>2020-06-25T17:01:21Z</time>
      </trkpt>
      <trkpt lat="49.69827" lon="5.32699">
        <ele>348.6</ele>
        <time>2020-06-25T17:01:22Z</time>
      </trkpt>
      <trkpt lat="49.69827" lon="5.32708">
        <ele>348.5</ele>
        <time>2020-06-25T17:01:23Z</time>
      </trkpt>
      <trkpt lat="49.69826" lon="5.32719">
        <ele>348.4</ele>
        <time>2020-06-25T17:01:24Z</time>
      </trkpt>
      <trkpt lat="49.69826" lon="5.32728">
        <ele>348.2</ele>
        <time>2020-06-25T17:01:25Z</time>
      </trkpt>
      <trkpt lat="49.69824" lon="5.32739">
        <ele>348.1</ele>
        <time>2020-06-25T17:01:26Z</time>
      </trkpt>
      <trkpt lat="49.69823" lon="5.32751">
        <ele>348</ele>
        <time>2020-06-25T17:01:27Z</time>
      </trkpt>
      <trkpt lat="49.69822" lon="5.3276">
        <ele>347.9</ele>
        <time>2020-06-25T17:01:28Z</time>
      </trkpt>
      <trkpt lat="49.6982" lon="5.3277">
        <ele>347.8</ele>
        <time>2020-06-25T17:01:29Z</time>
      </trkpt>
      <trkpt lat="49.69818" lon="5.32778">
        <ele>347.7</ele>
        <time>2020-06-25T17:01:30Z</time>
      </trkpt>
      <trkpt lat="49.69816" lon="5.32787">
        <ele>347.6</ele>
        <time>2020-06-25T17:01:31Z</time>
      </trkpt>
      <trkpt lat="49.69814" lon="5.32798">
        <ele>347.5</ele>
        <time>2020-06-25T17:01:32Z</time>
      </trkpt>
      <trkpt lat="49.69813" lon="5.32807">
        <ele>347.4</ele>
        <time>2020-06-25T17:01:33Z</time>
      </trkpt>
      <trkpt lat="49.69811" lon="5.32815">
        <ele>347.3</ele>
        <time>2020-06-25T17:01:34Z</time>
      </trkpt>
      <trkpt lat="49.69809" lon="5.32826">
        <ele>347.2</ele>
        <time>2020-06-25T17:01:35Z</time>
      </trkpt>
      <trkpt lat="49.69808" lon="5.32836">
        <ele>347</ele>
        <time>2020-06-25T17:01:36Z</time>
      </trkpt>
      <trkpt lat="49.69806" lon="5.32845">
        <ele>346.9</ele>
        <time>2020-06-25T17:01:37Z</time>
      </trkpt>
      <trkpt lat="49.69805" lon="5.32854">
        <ele>346.8</ele>
        <time>2020-06-25T17:01:38Z</time>
      </trkpt>
      <trkpt lat="49.69806" lon="5.32859">
        <ele>346.7</ele>
        <time>2020-06-25T17:01:39Z</time>
      </trkpt>
      <trkpt lat="49.69806" lon="5.32867">
        <ele>346.6</ele>
        <time>2020-06-25T17:01:40Z</time>
      </trkpt>
      <trkpt lat="49.69805" lon="5.32875">
        <ele>346.5</ele>
        <time>2020-06-25T17:01:41Z</time>
      </trkpt>
      <trkpt lat="49.69805" lon="5.32885">
        <ele>346.4</ele>
        <time>2020-06-25T17:01:42Z</time>
      </trkpt>
      <trkpt lat="49.69804" lon="5.32896">
        <ele>346.2</ele>
        <time>2020-06-25T17:01:43Z</time>
      </trkpt>
      <trkpt lat="49.69804" lon="5.32906">
        <ele>346.1</ele>
        <time>2020-06-25T17:01:44Z</time>
      </trkpt>
      <trkpt lat="49.69802" lon="5.32914">
        <ele>345.9</ele>
        <time>2020-06-25T17:01:45Z</time>
      </trkpt>
      <trkpt lat="49.69801" lon="5.32926">
        <ele>345.8</ele>
        <time>2020-06-25T17:01:46Z</time>
      </trkpt>
      <trkpt lat="49.69799" lon="5.32937">
        <ele>345.7</ele>
        <time>2020-06-25T17:01:47Z</time>
      </trkpt>
      <trkpt lat="49.69798" lon="5.32949">
        <ele>345.6</ele>
        <time>2020-06-25T17:01:48Z</time>
      </trkpt>
      <trkpt lat="49.69798" lon="5.32959">
        <ele>345.5</ele>
        <time>2020-06-25T17:01:49Z</time>
      </trkpt>
      <trkpt lat="49.69798" lon="5.32969">
        <ele>345.4</ele>
        <time>2020-06-25T17:01:50Z</time>
      </trkpt>
      <trkpt lat="49.69799" lon="5.32979">
        <ele>345.3</ele>
        <time>2020-06-25T17:01:51Z</time>
      </trkpt>
      <trkpt lat="49.69799" lon="5.32989">
        <ele>345.2</ele>
        <time>2020-06-25T17:01:52Z</time>
      </trkpt>
      <trkpt lat="49.69799" lon="5.33">
        <ele>345.1</ele>
        <time>2020-06-25T17:01:53Z</time>
      </trkpt>
      <trkpt lat="49.698" lon="5.33009">
        <ele>345</ele>
        <time>2020-06-25T17:01:54Z</time>
      </trkpt>
      <trkpt lat="49.698" lon="5.33018">
        <ele>344.9</ele>
        <time>2020-06-25T17:01:55Z</time>
      </trkpt>
      <trkpt lat="49.698" lon="5.33028">
        <ele>344.8</ele>
        <time>2020-06-25T17:01:56Z</time>
      </trkpt>
      <trkpt lat="49.698" lon="5.33038">
        <ele>344.7</ele>
        <time>2020-06-25T17:01:57Z</time>
      </trkpt>
      <trkpt lat="49.69799" lon="5.33048">
        <ele>344.6</ele>
        <time>2020-06-25T17:01:58Z</time>
      </trkpt>
      <trkpt lat="49.69798" lon="5.33056">
        <ele>344.4</ele>
        <time>2020-06-25T17:01:59Z</time>
      </trkpt>
      <trkpt lat="49.69799" lon="5.33063">
        <ele>344.3</ele>
        <time>2020-06-25T17:02:00Z</time>
      </trkpt>
      <trkpt lat="49.698" lon="5.33068">
        <ele>344.3</ele>
        <time>2020-06-25T17:02:01Z</time>
      </trkpt>
      <trkpt lat="49.69801" lon="5.33075">
        <ele>344.2</ele>
        <time>2020-06-25T17:02:02Z</time>
      </trkpt>
      <trkpt lat="49.69802" lon="5.33085">
        <ele>344.1</ele>
        <time>2020-06-25T17:02:03Z</time>
      </trkpt>
      <trkpt lat="49.69802" lon="5.33094">
        <ele>344</ele>
        <time>2020-06-25T17:02:04Z</time>
      </trkpt>
      <trkpt lat="49.69803" lon="5.33103">
        <ele>343.9</ele>
        <time>2020-06-25T17:02:05Z</time>
      </trkpt>
      <trkpt lat="49.69803" lon="5.33115">
        <ele>343.7</ele>
        <time>2020-06-25T17:02:06Z</time>
      </trkpt>
      <trkpt lat="49.69804" lon="5.33127">
        <ele>343.5</ele>
        <time>2020-06-25T17:02:07Z</time>
      </trkpt>
      <trkpt lat="49.69805" lon="5.3314">
        <ele>343.4</ele>
        <time>2020-06-25T17:02:08Z</time>
      </trkpt>
      <trkpt lat="49.69806" lon="5.33149">
        <ele>343.3</ele>
        <time>2020-06-25T17:02:09Z</time>
      </trkpt>
      <trkpt lat="49.69806" lon="5.33161">
        <ele>343.2</ele>
        <time>2020-06-25T17:02:10Z</time>
      </trkpt>
      <trkpt lat="49.69806" lon="5.33173">
        <ele>343.1</ele>
        <time>2020-06-25T17:02:11Z</time>
      </trkpt>
      <trkpt lat="49.69806" lon="5.33185">
        <ele>343</ele>
        <time>2020-06-25T17:02:12Z</time>
      </trkpt>
      <trkpt lat="49.69806" lon="5.33197">
        <ele>342.9</ele>
        <time>2020-06-25T17:02:13Z</time>
      </trkpt>
      <trkpt lat="49.69809" lon="5.33208">
        <ele>342.7</ele>
        <time>2020-06-25T17:02:14Z</time>
      </trkpt>
      <trkpt lat="49.69811" lon="5.33219">
        <ele>342.4</ele>
        <time>2020-06-25T17:02:15Z</time>
      </trkpt>
      <trkpt lat="49.69812" lon="5.33231">
        <ele>342.1</ele>
        <time>2020-06-25T17:02:16Z</time>
      </trkpt>
      <trkpt lat="49.69812" lon="5.33242">
        <ele>341.8</ele>
        <time>2020-06-25T17:02:17Z</time>
      </trkpt>
      <trkpt lat="49.69811" lon="5.33253">
        <ele>341.6</ele>
        <time>2020-06-25T17:02:18Z</time>
      </trkpt>
      <trkpt lat="49.69811" lon="5.33262">
        <ele>341.4</ele>
        <time>2020-06-25T17:02:19Z</time>
      </trkpt>
      <trkpt lat="49.69811" lon="5.33271">
        <ele>341.2</ele>
        <time>2020-06-25T17:02:20Z</time>
      </trkpt>
      <trkpt lat="49.69812" lon="5.33282">
        <ele>341</ele>
        <time>2020-06-25T17:02:21Z</time>
      </trkpt>
      <trkpt lat="49.69812" lon="5.33295">
        <ele>340.8</ele>
        <time>2020-06-25T17:02:22Z</time>
      </trkpt>
      <trkpt lat="49.6981" lon="5.33306">
        <ele>340.5</ele>
        <time>2020-06-25T17:02:23Z</time>
      </trkpt>
      <trkpt lat="49.69808" lon="5.33321">
        <ele>340.3</ele>
        <time>2020-06-25T17:02:24Z</time>
      </trkpt>
      <trkpt lat="49.69805" lon="5.33335">
        <ele>340</ele>
        <time>2020-06-25T17:02:25Z</time>
      </trkpt>
      <trkpt lat="49.69803" lon="5.33349">
        <ele>339.8</ele>
        <time>2020-06-25T17:02:26Z</time>
      </trkpt>
      <trkpt lat="49.69801" lon="5.3336">
        <ele>339.6</ele>
        <time>2020-06-25T17:02:27Z</time>
      </trkpt>
      <trkpt lat="49.69799" lon="5.33372">
        <ele>339.5</ele>
        <time>2020-06-25T17:02:28Z</time>
      </trkpt>
      <trkpt lat="49.69797" lon="5.33384">
        <ele>339.3</ele>
        <time>2020-06-25T17:02:29Z</time>
      </trkpt>
      <trkpt lat="49.69795" lon="5.33395">
        <ele>339.1</ele>
        <time>2020-06-25T17:02:30Z</time>
      </trkpt>
      <trkpt lat="49.69794" lon="5.33406">
        <ele>338.9</ele>
        <time>2020-06-25T17:02:31Z</time>
      </trkpt>
      <trkpt lat="49.69793" lon="5.33419">
        <ele>338.7</ele>
        <time>2020-06-25T17:02:32Z</time>
      </trkpt>
      <trkpt lat="49.69791" lon="5.33431">
        <ele>338.5</ele>
        <time>2020-06-25T17:02:33Z</time>
      </trkpt>
      <trkpt lat="49.69788" lon="5.33442">
        <ele>338.3</ele>
        <time>2020-06-25T17:02:34Z</time>
      </trkpt>
      <trkpt lat="49.69786" lon="5.33453">
        <ele>338.1</ele>
        <time>2020-06-25T17:02:35Z</time>
      </trkpt>
      <trkpt lat="49.69785" lon="5.33465">
        <ele>338</ele>
        <time>2020-06-25T17:02:36Z</time>
      </trkpt>
      <trkpt lat="49.69783" lon="5.33476">
        <ele>337.8</ele>
        <time>2020-06-25T17:02:37Z</time>
      </trkpt>
      <trkpt lat="49.69781" lon="5.33487">
        <ele>337.7</ele>
        <time>2020-06-25T17:02:38Z</time>
      </trkpt>
      <trkpt lat="49.69778" lon="5.33499">
        <ele>337.6</ele>
        <time>2020-06-25T17:02:39Z</time>
      </trkpt>
      <trkpt lat="49.69776" lon="5.3351">
        <ele>337.5</ele>
        <time>2020-06-25T17:02:40Z</time>
      </trkpt>
      <trkpt lat="49.69774" lon="5.33521">
        <ele>337.4</ele>
        <time>2020-06-25T17:02:41Z</time>
      </trkpt>
      <trkpt lat="49.69772" lon="5.33531">
        <ele>337.3</ele>
        <time>2020-06-25T17:02:42Z</time>
      </trkpt>
      <trkpt lat="49.69769" lon="5.3354">
        <ele>337.2</ele>
        <time>2020-06-25T17:02:43Z</time>
      </trkpt>
      <trkpt lat="49.69767" lon="5.33551">
        <ele>337.2</ele>
        <time>2020-06-25T17:02:44Z</time>
      </trkpt>
      <trkpt lat="49.69766" lon="5.33562">
        <ele>337.2</ele>
        <time>2020-06-25T17:02:45Z</time>
      </trkpt>
      <trkpt lat="49.69766" lon="5.33572">
        <ele>337.1</ele>
        <time>2020-06-25T17:02:46Z</time>
      </trkpt>
      <trkpt lat="49.69765" lon="5.33582">
        <ele>337.1</ele>
        <time>2020-06-25T17:02:47Z</time>
      </trkpt>
      <trkpt lat="49.69763" lon="5.33593">
        <ele>337</ele>
        <time>2020-06-25T17:02:48Z</time>
      </trkpt>
      <trkpt lat="49.69762" lon="5.33604">
        <ele>337</ele>
        <time>2020-06-25T17:02:49Z</time>
      </trkpt>
      <trkpt lat="49.6976" lon="5.33614">
        <ele>337</ele>
        <time>2020-06-25T17:02:50Z</time>
      </trkpt>
      <trkpt lat="49.69758" lon="5.33624">
        <ele>337</ele>
        <time>2020-06-25T17:02:51Z</time>
      </trkpt>
      <trkpt lat="49.69758" lon="5.33635">
        <ele>337</ele>
        <time>2020-06-25T17:02:52Z</time>
      </trkpt>
      <trkpt lat="49.69757" lon="5.33646">
        <ele>337</ele>
        <time>2020-06-25T17:02:53Z</time>
      </trkpt>
      <trkpt lat="49.69756" lon="5.33656">
        <ele>337</ele>
        <time>2020-06-25T17:02:54Z</time>
      </trkpt>
      <trkpt lat="49.69755" lon="5.33665">
        <ele>337</ele>
        <time>2020-06-25T17:02:55Z</time>
      </trkpt>
      <trkpt lat="49.69753" lon="5.33674">
        <ele>337</ele>
        <time>2020-06-25T17:02:56Z</time>
      </trkpt>
      <trkpt lat="49.69752" lon="5.33684">
        <ele>337.1</ele>
        <time>2020-06-25T17:02:57Z</time>
      </trkpt>
      <trkpt lat="49.6975" lon="5.33694">
        <ele>337.2</ele>
        <time>2020-06-25T17:02:58Z</time>
      </trkpt>
      <trkpt lat="49.6975" lon="5.33704">
        <ele>337.2</ele>
        <time>2020-06-25T17:02:59Z</time>
      </trkpt>
      <trkpt lat="49.6975" lon="5.33713">
        <ele>337.3</ele>
        <time>2020-06-25T17:03:00Z</time>
      </trkpt>
      <trkpt lat="49.69751" lon="5.33722">
        <ele>337.3</ele>
        <time>2020-06-25T17:03:01Z</time>
      </trkpt>
      <trkpt lat="49.69751" lon="5.33732">
        <ele>337.3</ele>
        <time>2020-06-25T17:03:02Z</time>
      </trkpt>
      <trkpt lat="49.69752" lon="5.33741">
        <ele>337.4</ele>
        <time>2020-06-25T17:03:03Z</time>
      </trkpt>
      <trkpt lat="49.69751" lon="5.3375">
        <ele>337.5</ele>
        <time>2020-06-25T17:03:04Z</time>
      </trkpt>
      <trkpt lat="49.69751" lon="5.33759">
        <ele>337.5</ele>
        <time>2020-06-25T17:03:05Z</time>
      </trkpt>
      <trkpt lat="49.69751" lon="5.33768">
        <ele>337.6</ele>
        <time>2020-06-25T17:03:06Z</time>
      </trkpt>
      <trkpt lat="49.69751" lon="5.33777">
        <ele>337.6</ele>
        <time>2020-06-25T17:03:07Z</time>
      </trkpt>
      <trkpt lat="49.69752" lon="5.33786">
        <ele>337.7</ele>
        <time>2020-06-25T17:03:08Z</time>
      </trkpt>
      <trkpt lat="49.69752" lon="5.33794">
        <ele>337.7</ele>
        <time>2020-06-25T17:03:09Z</time>
      </trkpt>
      <trkpt lat="49.69753" lon="5.33803">
        <ele>337.7</ele>
        <time>2020-06-25T17:03:10Z</time>
      </trkpt>
      <trkpt lat="49.69753" lon="5.33813">
        <ele>337.7</ele>
        <time>2020-06-25T17:03:11Z</time>
      </trkpt>
      <trkpt lat="49.69753" lon="5.33821">
        <ele>337.8</ele>
        <time>2020-06-25T17:03:12Z</time>
      </trkpt>
      <trkpt lat="49.69753" lon="5.33829">
        <ele>337.8</ele>
        <time>2020-06-25T17:03:13Z</time>
      </trkpt>
      <trkpt lat="49.69754" lon="5.33837">
        <ele>337.8</ele>
        <time>2020-06-25T17:03:14Z</time>
      </trkpt>
      <trkpt lat="49.69754" lon="5.33845">
        <ele>337.8</ele>
        <time>2020-06-25T17:03:15Z</time>
      </trkpt>
      <trkpt lat="49.69753" lon="5.33852">
        <ele>337.8</ele>
        <time>2020-06-25T17:03:16Z</time>
      </trkpt>
      <trkpt lat="49.69753" lon="5.3386">
        <ele>337.8</ele>
        <time>2020-06-25T17:03:17Z</time>
      </trkpt>
      <trkpt lat="49.69754" lon="5.33866">
        <ele>337.7</ele>
        <time>2020-06-25T17:03:18Z</time>
      </trkpt>
      <trkpt lat="49.69753" lon="5.33873">
        <ele>337.7</ele>
        <time>2020-06-25T17:03:19Z</time>
      </trkpt>
      <trkpt lat="49.69754" lon="5.33881">
        <ele>337.7</ele>
        <time>2020-06-25T17:03:20Z</time>
      </trkpt>
      <trkpt lat="49.69755" lon="5.3389">
        <ele>337.6</ele>
        <time>2020-06-25T17:03:21Z</time>
      </trkpt>
      <trkpt lat="49.69755" lon="5.339">
        <ele>337.6</ele>
        <time>2020-06-25T17:03:22Z</time>
      </trkpt>
      <trkpt lat="49.69755" lon="5.33909">
        <ele>337.5</ele>
        <time>2020-06-25T17:03:23Z</time>
      </trkpt>
      <trkpt lat="49.69754" lon="5.33917">
        <ele>337.5</ele>
        <time>2020-06-25T17:03:24Z</time>
      </trkpt>
      <trkpt lat="49.69754" lon="5.33925">
        <ele>337.4</ele>
        <time>2020-06-25T17:03:25Z</time>
      </trkpt>
      <trkpt lat="49.69753" lon="5.33934">
        <ele>337.4</ele>
        <time>2020-06-25T17:03:26Z</time>
      </trkpt>
      <trkpt lat="49.69753" lon="5.33943">
        <ele>337.4</ele>
        <time>2020-06-25T17:03:27Z</time>
      </trkpt>
      <trkpt lat="49.69752" lon="5.33952">
        <ele>337.4</ele>
        <time>2020-06-25T17:03:28Z</time>
      </trkpt>
      <trkpt lat="49.69751" lon="5.33961">
        <ele>337.4</ele>
        <time>2020-06-25T17:03:29Z</time>
      </trkpt>
      <trkpt lat="49.6975" lon="5.33972">
        <ele>337.4</ele>
        <time>2020-06-25T17:03:30Z</time>
      </trkpt>
      <trkpt lat="49.69749" lon="5.33982">
        <ele>337.4</ele>
        <time>2020-06-25T17:03:31Z</time>
      </trkpt>
      <trkpt lat="49.69748" lon="5.33992">
        <ele>337.3</ele>
        <time>2020-06-25T17:03:32Z</time>
      </trkpt>
      <trkpt lat="49.69746" lon="5.34004">
        <ele>337.1</ele>
        <time>2020-06-25T17:03:33Z</time>
      </trkpt>
      <trkpt lat="49.69744" lon="5.34015">
        <ele>337</ele>
        <time>2020-06-25T17:03:34Z</time>
      </trkpt>
      <trkpt lat="49.69742" lon="5.34026">
        <ele>337</ele>
        <time>2020-06-25T17:03:35Z</time>
      </trkpt>
      <trkpt lat="49.69741" lon="5.34034">
        <ele>336.9</ele>
        <time>2020-06-25T17:03:36Z</time>
      </trkpt>
      <trkpt lat="49.69739" lon="5.34042">
        <ele>336.9</ele>
        <time>2020-06-25T17:03:37Z</time>
      </trkpt>
      <trkpt lat="49.69737" lon="5.34051">
        <ele>336.8</ele>
        <time>2020-06-25T17:03:38Z</time>
      </trkpt>
      <trkpt lat="49.69734" lon="5.34059">
        <ele>336.8</ele>
        <time>2020-06-25T17:03:39Z</time>
      </trkpt>
      <trkpt lat="49.69732" lon="5.34066">
        <ele>336.7</ele>
        <time>2020-06-25T17:03:40Z</time>
      </trkpt>
      <trkpt lat="49.69729" lon="5.34074">
        <ele>336.6</ele>
        <time>2020-06-25T17:03:41Z</time>
      </trkpt>
      <trkpt lat="49.69726" lon="5.34082">
        <ele>336.6</ele>
        <time>2020-06-25T17:03:42Z</time>
      </trkpt>
      <trkpt lat="49.69724" lon="5.34089">
        <ele>336.5</ele>
        <time>2020-06-25T17:03:43Z</time>
      </trkpt>
      <trkpt lat="49.69721" lon="5.34098">
        <ele>336.4</ele>
        <time>2020-06-25T17:03:44Z</time>
      </trkpt>
      <trkpt lat="49.69718" lon="5.34107">
        <ele>336.3</ele>
        <time>2020-06-25T17:03:45Z</time>
      </trkpt>
      <trkpt lat="49.69715" lon="5.34114">
        <ele>336.2</ele>
        <time>2020-06-25T17:03:46Z</time>
      </trkpt>
      <trkpt lat="49.69713" lon="5.34121">
        <ele>336.1</ele>
        <time>2020-06-25T17:03:47Z</time>
      </trkpt>
      <trkpt lat="49.6971" lon="5.3413">
        <ele>336</ele>
        <time>2020-06-25T17:03:48Z</time>
      </trkpt>
      <trkpt lat="49.69708" lon="5.34136">
        <ele>335.9</ele>
        <time>2020-06-25T17:03:49Z</time>
      </trkpt>
      <trkpt lat="49.69704" lon="5.34146">
        <ele>335.7</ele>
        <time>2020-06-25T17:03:50Z</time>
      </trkpt>
      <trkpt lat="49.69701" lon="5.34156">
        <ele>335.5</ele>
        <time>2020-06-25T17:03:51Z</time>
      </trkpt>
      <trkpt lat="49.69699" lon="5.34166">
        <ele>335.3</ele>
        <time>2020-06-25T17:03:52Z</time>
      </trkpt>
      <trkpt lat="49.69696" lon="5.34176">
        <ele>335.1</ele>
        <time>2020-06-25T17:03:53Z</time>
      </trkpt>
      <trkpt lat="49.69694" lon="5.34184">
        <ele>334.9</ele>
        <time>2020-06-25T17:03:54Z</time>
      </trkpt>
      <trkpt lat="49.69691" lon="5.34192">
        <ele>334.7</ele>
        <time>2020-06-25T17:03:55Z</time>
      </trkpt>
      <trkpt lat="49.69688" lon="5.34201">
        <ele>334.5</ele>
        <time>2020-06-25T17:03:56Z</time>
      </trkpt>
      <trkpt lat="49.69685" lon="5.34209">
        <ele>334.2</ele>
        <time>2020-06-25T17:03:57Z</time>
      </trkpt>
      <trkpt lat="49.69682" lon="5.34218">
        <ele>334</ele>
        <time>2020-06-25T17:03:58Z</time>
      </trkpt>
      <trkpt lat="49.69679" lon="5.34227">
        <ele>333.7</ele>
        <time>2020-06-25T17:03:59Z</time>
      </trkpt>
      <trkpt lat="49.69676" lon="5.34236">
        <ele>333.4</ele>
        <time>2020-06-25T17:04:00Z</time>
      </trkpt>
      <trkpt lat="49.69673" lon="5.34245">
        <ele>333.2</ele>
        <time>2020-06-25T17:04:01Z</time>
      </trkpt>
      <trkpt lat="49.6967" lon="5.34255">
        <ele>332.9</ele>
        <time>2020-06-25T17:04:02Z</time>
      </trkpt>
      <trkpt lat="49.69668" lon="5.34264">
        <ele>332.6</ele>
        <time>2020-06-25T17:04:03Z</time>
      </trkpt>
      <trkpt lat="49.69665" lon="5.34273">
        <ele>332.3</ele>
        <time>2020-06-25T17:04:04Z</time>
      </trkpt>
      <trkpt lat="49.69662" lon="5.34284">
        <ele>332</ele>
        <time>2020-06-25T17:04:05Z</time>
      </trkpt>
      <trkpt lat="49.69659" lon="5.34294">
        <ele>331.7</ele>
        <time>2020-06-25T17:04:06Z</time>
      </trkpt>
      <trkpt lat="49.69656" lon="5.34303">
        <ele>331.3</ele>
        <time>2020-06-25T17:04:07Z</time>
      </trkpt>
      <trkpt lat="49.69653" lon="5.34314">
        <ele>330.9</ele>
        <time>2020-06-25T17:04:08Z</time>
      </trkpt>
      <trkpt lat="49.6965" lon="5.34324">
        <ele>330.6</ele>
        <time>2020-06-25T17:04:09Z</time>
      </trkpt>
      <trkpt lat="49.69647" lon="5.34335">
        <ele>330.3</ele>
        <time>2020-06-25T17:04:10Z</time>
      </trkpt>
      <trkpt lat="49.69644" lon="5.34346">
        <ele>330</ele>
        <time>2020-06-25T17:04:11Z</time>
      </trkpt>
      <trkpt lat="49.69642" lon="5.34357">
        <ele>329.6</ele>
        <time>2020-06-25T17:04:12Z</time>
      </trkpt>
      <trkpt lat="49.69638" lon="5.34369">
        <ele>329.3</ele>
        <time>2020-06-25T17:04:13Z</time>
      </trkpt>
      <trkpt lat="49.69635" lon="5.3438">
        <ele>328.9</ele>
        <time>2020-06-25T17:04:14Z</time>
      </trkpt>
      <trkpt lat="49.69632" lon="5.34392">
        <ele>328.6</ele>
        <time>2020-06-25T17:04:15Z</time>
      </trkpt>
      <trkpt lat="49.69629" lon="5.34405">
        <ele>328.2</ele>
        <time>2020-06-25T17:04:16Z</time>
      </trkpt>
      <trkpt lat="49.69627" lon="5.34417">
        <ele>327.9</ele>
        <time>2020-06-25T17:04:17Z</time>
      </trkpt>
      <trkpt lat="49.69625" lon="5.34429">
        <ele>327.6</ele>
        <time>2020-06-25T17:04:18Z</time>
      </trkpt>
      <trkpt lat="49.69623" lon="5.34441">
        <ele>327.2</ele>
        <time>2020-06-25T17:04:19Z</time>
      </trkpt>
      <trkpt lat="49.6962" lon="5.34453">
        <ele>326.8</ele>
        <time>2020-06-25T17:04:20Z</time>
      </trkpt>
      <trkpt lat="49.69618" lon="5.34464">
        <ele>326.4</ele>
        <time>2020-06-25T17:04:21Z</time>
      </trkpt>
      <trkpt lat="49.69616" lon="5.34476">
        <ele>326</ele>
        <time>2020-06-25T17:04:22Z</time>
      </trkpt>
      <trkpt lat="49.69613" lon="5.34488">
        <ele>325.7</ele>
        <time>2020-06-25T17:04:23Z</time>
      </trkpt>
      <trkpt lat="49.69611" lon="5.345">
        <ele>325.5</ele>
        <time>2020-06-25T17:04:24Z</time>
      </trkpt>
      <trkpt lat="49.69608" lon="5.34512">
        <ele>325.3</ele>
        <time>2020-06-25T17:04:25Z</time>
      </trkpt>
      <trkpt lat="49.69605" lon="5.34524">
        <ele>325</ele>
        <time>2020-06-25T17:04:26Z</time>
      </trkpt>
      <trkpt lat="49.69603" lon="5.34536">
        <ele>324.8</ele>
        <time>2020-06-25T17:04:27Z</time>
      </trkpt>
      <trkpt lat="49.696" lon="5.34547">
        <ele>324.6</ele>
        <time>2020-06-25T17:04:28Z</time>
      </trkpt>
      <trkpt lat="49.69597" lon="5.34559">
        <ele>324.3</ele>
        <time>2020-06-25T17:04:29Z</time>
      </trkpt>
      <trkpt lat="49.69595" lon="5.34571">
        <ele>324.1</ele>
        <time>2020-06-25T17:04:30Z</time>
      </trkpt>
      <trkpt lat="49.69592" lon="5.34582">
        <ele>323.9</ele>
        <time>2020-06-25T17:04:31Z</time>
      </trkpt>
      <trkpt lat="49.6959" lon="5.34594">
        <ele>323.8</ele>
        <time>2020-06-25T17:04:32Z</time>
      </trkpt>
      <trkpt lat="49.69587" lon="5.34605">
        <ele>323.7</ele>
        <time>2020-06-25T17:04:33Z</time>
      </trkpt>
      <trkpt lat="49.69585" lon="5.34616">
        <ele>323.5</ele>
        <time>2020-06-25T17:04:34Z</time>
      </trkpt>
      <trkpt lat="49.69582" lon="5.34626">
        <ele>323.4</ele>
        <time>2020-06-25T17:04:35Z</time>
      </trkpt>
      <trkpt lat="49.69581" lon="5.34637">
        <ele>323.4</ele>
        <time>2020-06-25T17:04:36Z</time>
      </trkpt>
      <trkpt lat="49.69579" lon="5.34647">
        <ele>323.4</ele>
        <time>2020-06-25T17:04:37Z</time>
      </trkpt>
      <trkpt lat="49.69578" lon="5.34657">
        <ele>323.4</ele>
        <time>2020-06-25T17:04:38Z</time>
      </trkpt>
      <trkpt lat="49.69576" lon="5.34667">
        <ele>323.4</ele>
        <time>2020-06-25T17:04:39Z</time>
      </trkpt>
      <trkpt lat="49.69574" lon="5.34677">
        <ele>323.5</ele>
        <time>2020-06-25T17:04:40Z</time>
      </trkpt>
      <trkpt lat="49.69572" lon="5.34687">
        <ele>323.5</ele>
        <time>2020-06-25T17:04:41Z</time>
      </trkpt>
      <trkpt lat="49.6957" lon="5.34696">
        <ele>323.5</ele>
        <time>2020-06-25T17:04:42Z</time>
      </trkpt>
      <trkpt lat="49.69569" lon="5.34706">
        <ele>323.6</ele>
        <time>2020-06-25T17:04:43Z</time>
      </trkpt>
      <trkpt lat="49.69567" lon="5.34716">
        <ele>323.6</ele>
        <time>2020-06-25T17:04:44Z</time>
      </trkpt>
      <trkpt lat="49.69566" lon="5.34726">
        <ele>323.6</ele>
        <time>2020-06-25T17:04:45Z</time>
      </trkpt>
      <trkpt lat="49.69564" lon="5.34735">
        <ele>323.7</ele>
        <time>2020-06-25T17:04:46Z</time>
      </trkpt>
      <trkpt lat="49.69562" lon="5.34744">
        <ele>323.7</ele>
        <time>2020-06-25T17:04:47Z</time>
      </trkpt>
      <trkpt lat="49.69561" lon="5.34754">
        <ele>323.8</ele>
        <time>2020-06-25T17:04:48Z</time>
      </trkpt>
      <trkpt lat="49.6956" lon="5.34763">
        <ele>323.8</ele>
        <time>2020-06-25T17:04:49Z</time>
      </trkpt>
      <trkpt lat="49.69559" lon="5.34773">
        <ele>323.8</ele>
        <time>2020-06-25T17:04:50Z</time>
      </trkpt>
      <trkpt lat="49.69559" lon="5.34782">
        <ele>323.8</ele>
        <time>2020-06-25T17:04:51Z</time>
      </trkpt>
      <trkpt lat="49.69557" lon="5.3479">
        <ele>323.8</ele>
        <time>2020-06-25T17:04:52Z</time>
      </trkpt>
      <trkpt lat="49.69557" lon="5.34799">
        <ele>323.9</ele>
        <time>2020-06-25T17:04:53Z</time>
      </trkpt>
      <trkpt lat="49.69555" lon="5.34808">
        <ele>323.9</ele>
        <time>2020-06-25T17:04:54Z</time>
      </trkpt>
      <trkpt lat="49.69554" lon="5.34817">
        <ele>323.9</ele>
        <time>2020-06-25T17:04:55Z</time>
      </trkpt>
      <trkpt lat="49.69553" lon="5.34826">
        <ele>323.9</ele>
        <time>2020-06-25T17:04:56Z</time>
      </trkpt>
      <trkpt lat="49.69552" lon="5.34834">
        <ele>323.9</ele>
        <time>2020-06-25T17:04:57Z</time>
      </trkpt>
      <trkpt lat="49.69551" lon="5.34843">
        <ele>323.8</ele>
        <time>2020-06-25T17:04:58Z</time>
      </trkpt>
      <trkpt lat="49.69551" lon="5.34851">
        <ele>323.8</ele>
        <time>2020-06-25T17:04:59Z</time>
      </trkpt>
      <trkpt lat="49.6955" lon="5.34859">
        <ele>323.8</ele>
        <time>2020-06-25T17:05:00Z</time>
      </trkpt>
      <trkpt lat="49.69549" lon="5.34867">
        <ele>323.7</ele>
        <time>2020-06-25T17:05:01Z</time>
      </trkpt>
      <trkpt lat="49.69548" lon="5.34876">
        <ele>323.7</ele>
        <time>2020-06-25T17:05:02Z</time>
      </trkpt>
      <trkpt lat="49.69546" lon="5.34884">
        <ele>323.6</ele>
        <time>2020-06-25T17:05:03Z</time>
      </trkpt>
      <trkpt lat="49.69547" lon="5.34893">
        <ele>323.6</ele>
        <time>2020-06-25T17:05:04Z</time>
      </trkpt>
      <trkpt lat="49.69546" lon="5.34902">
        <ele>323.6</ele>
        <time>2020-06-25T17:05:05Z</time>
      </trkpt>
      <trkpt lat="49.69545" lon="5.34911">
        <ele>323.5</ele>
        <time>2020-06-25T17:05:06Z</time>
      </trkpt>
      <trkpt lat="49.69544" lon="5.3492">
        <ele>323.5</ele>
        <time>2020-06-25T17:05:07Z</time>
      </trkpt>
      <trkpt lat="49.69542" lon="5.34929">
        <ele>323.4</ele>
        <time>2020-06-25T17:05:08Z</time>
      </trkpt>
      <trkpt lat="49.69541" lon="5.34938">
        <ele>323.4</ele>
        <time>2020-06-25T17:05:09Z</time>
      </trkpt>
      <trkpt lat="49.6954" lon="5.34946">
        <ele>323.3</ele>
        <time>2020-06-25T17:05:10Z</time>
      </trkpt>
      <trkpt lat="49.69539" lon="5.34955">
        <ele>323.3</ele>
        <time>2020-06-25T17:05:11Z</time>
      </trkpt>
      <trkpt lat="49.69538" lon="5.34964">
        <ele>323.2</ele>
        <time>2020-06-25T17:05:12Z</time>
      </trkpt>
      <trkpt lat="49.69537" lon="5.34972">
        <ele>323.2</ele>
        <time>2020-06-25T17:05:13Z</time>
      </trkpt>
      <trkpt lat="49.69536" lon="5.34981">
        <ele>323.2</ele>
        <time>2020-06-25T17:05:14Z</time>
      </trkpt>
      <trkpt lat="49.69536" lon="5.34989">
        <ele>323.2</ele>
        <time>2020-06-25T17:05:15Z</time>
      </trkpt>
      <trkpt lat="49.69534" lon="5.34997">
        <ele>323.3</ele>
        <time>2020-06-25T17:05:16Z</time>
      </trkpt>
      <trkpt lat="49.69533" lon="5.35005">
        <ele>323.4</ele>
        <time>2020-06-25T17:05:17Z</time>
      </trkpt>
      <trkpt lat="49.69532" lon="5.35012">
        <ele>323.5</ele>
        <time>2020-06-25T17:05:18Z</time>
      </trkpt>
      <trkpt lat="49.69532" lon="5.35019">
        <ele>323.6</ele>
        <time>2020-06-25T17:05:19Z</time>
      </trkpt>
      <trkpt lat="49.69531" lon="5.35025">
        <ele>323.6</ele>
        <time>2020-06-25T17:05:20Z</time>
      </trkpt>
      <trkpt lat="49.6953" lon="5.35031">
        <ele>323.4</ele>
        <time>2020-06-25T17:05:21Z</time>
      </trkpt>
      <trkpt lat="49.6953" lon="5.35037">
        <ele>323.3</ele>
        <time>2020-06-25T17:05:22Z</time>
      </trkpt>
      <trkpt lat="49.69529" lon="5.35042">
        <ele>323.2</ele>
        <time>2020-06-25T17:05:23Z</time>
      </trkpt>
      <trkpt lat="49.69529" lon="5.35048">
        <ele>323</ele>
        <time>2020-06-25T17:05:24Z</time>
      </trkpt>
      <trkpt lat="49.69529" lon="5.35055">
        <ele>322.9</ele>
        <time>2020-06-25T17:05:25Z</time>
      </trkpt>
      <trkpt lat="49.69529" lon="5.35063">
        <ele>322.7</ele>
        <time>2020-06-25T17:05:26Z</time>
      </trkpt>
      <trkpt lat="49.69528" lon="5.3507">
        <ele>322.6</ele>
        <time>2020-06-25T17:05:27Z</time>
      </trkpt>
      <trkpt lat="49.69528" lon="5.35077">
        <ele>322.5</ele>
        <time>2020-06-25T17:05:28Z</time>
      </trkpt>
      <trkpt lat="49.69525" lon="5.35083">
        <ele>322.4</ele>
        <time>2020-06-25T17:05:29Z</time>
      </trkpt>
      <trkpt lat="49.69524" lon="5.3509">
        <ele>322.3</ele>
        <time>2020-06-25T17:05:30Z</time>
      </trkpt>
      <trkpt lat="49.69523" lon="5.35097">
        <ele>322.1</ele>
        <time>2020-06-25T17:05:31Z</time>
      </trkpt>
      <trkpt lat="49.69523" lon="5.35105">
        <ele>322</ele>
        <time>2020-06-25T17:05:32Z</time>
      </trkpt>
      <trkpt lat="49.69522" lon="5.35111">
        <ele>322</ele>
        <time>2020-06-25T17:05:33Z</time>
      </trkpt>
      <trkpt lat="49.69521" lon="5.35118">
        <ele>321.9</ele>
        <time>2020-06-25T17:05:34Z</time>
      </trkpt>
      <trkpt lat="49.69521" lon="5.35126">
        <ele>321.8</ele>
        <time>2020-06-25T17:05:35Z</time>
      </trkpt>
      <trkpt lat="49.6952" lon="5.35133">
        <ele>321.7</ele>
        <time>2020-06-25T17:05:36Z</time>
      </trkpt>
      <trkpt lat="49.69519" lon="5.35142">
        <ele>321.6</ele>
        <time>2020-06-25T17:05:37Z</time>
      </trkpt>
      <trkpt lat="49.69518" lon="5.35151">
        <ele>321.5</ele>
        <time>2020-06-25T17:05:38Z</time>
      </trkpt>
      <trkpt lat="49.69517" lon="5.35159">
        <ele>321.4</ele>
        <time>2020-06-25T17:05:39Z</time>
      </trkpt>
      <trkpt lat="49.69516" lon="5.35168">
        <ele>321.4</ele>
        <time>2020-06-25T17:05:40Z</time>
      </trkpt>
      <trkpt lat="49.69515" lon="5.35176">
        <ele>321.3</ele>
        <time>2020-06-25T17:05:41Z</time>
      </trkpt>
      <trkpt lat="49.69514" lon="5.35184">
        <ele>321.2</ele>
        <time>2020-06-25T17:05:42Z</time>
      </trkpt>
      <trkpt lat="49.69513" lon="5.35192">
        <ele>321.2</ele>
        <time>2020-06-25T17:05:43Z</time>
      </trkpt>
      <trkpt lat="49.69512" lon="5.35201">
        <ele>321.1</ele>
        <time>2020-06-25T17:05:44Z</time>
      </trkpt>
      <trkpt lat="49.69511" lon="5.3521">
        <ele>321</ele>
        <time>2020-06-25T17:05:45Z</time>
      </trkpt>
      <trkpt lat="49.6951" lon="5.35218">
        <ele>321</ele>
        <time>2020-06-25T17:05:46Z</time>
      </trkpt>
      <trkpt lat="49.69509" lon="5.35227">
        <ele>321</ele>
        <time>2020-06-25T17:05:47Z</time>
      </trkpt>
      <trkpt lat="49.69508" lon="5.35235">
        <ele>320.9</ele>
        <time>2020-06-25T17:05:48Z</time>
      </trkpt>
      <trkpt lat="49.69507" lon="5.35243">
        <ele>320.9</ele>
        <time>2020-06-25T17:05:49Z</time>
      </trkpt>
      <trkpt lat="49.69507" lon="5.35252">
        <ele>320.9</ele>
        <time>2020-06-25T17:05:50Z</time>
      </trkpt>
      <trkpt lat="49.69505" lon="5.3526">
        <ele>320.8</ele>
        <time>2020-06-25T17:05:51Z</time>
      </trkpt>
      <trkpt lat="49.69504" lon="5.35268">
        <ele>320.8</ele>
        <time>2020-06-25T17:05:52Z</time>
      </trkpt>
      <trkpt lat="49.69503" lon="5.35276">
        <ele>320.8</ele>
        <time>2020-06-25T17:05:53Z</time>
      </trkpt>
      <trkpt lat="49.69502" lon="5.35285">
        <ele>320.7</ele>
        <time>2020-06-25T17:05:54Z</time>
      </trkpt>
      <trkpt lat="49.69501" lon="5.35292">
        <ele>320.6</ele>
        <time>2020-06-25T17:05:55Z</time>
      </trkpt>
      <trkpt lat="49.695" lon="5.353">
        <ele>320.6</ele>
        <time>2020-06-25T17:05:56Z</time>
      </trkpt>
      <trkpt lat="49.69499" lon="5.35308">
        <ele>320.5</ele>
        <time>2020-06-25T17:05:57Z</time>
      </trkpt>
      <trkpt lat="49.69498" lon="5.35315">
        <ele>320.4</ele>
        <time>2020-06-25T17:05:58Z</time>
      </trkpt>
      <trkpt lat="49.69498" lon="5.35323">
        <ele>320.4</ele>
        <time>2020-06-25T17:05:59Z</time>
      </trkpt>
      <trkpt lat="49.69497" lon="5.3533">
        <ele>320.3</ele>
        <time>2020-06-25T17:06:00Z</time>
      </trkpt>
      <trkpt lat="49.69496" lon="5.35338">
        <ele>320.3</ele>
        <time>2020-06-25T17:06:01Z</time>
      </trkpt>
      <trkpt lat="49.69495" lon="5.35346">
        <ele>320.2</ele>
        <time>2020-06-25T17:06:02Z</time>
      </trkpt>
      <trkpt lat="49.69494" lon="5.35354">
        <ele>320.2</ele>
        <time>2020-06-25T17:06:03Z</time>
      </trkpt>
      <trkpt lat="49.69493" lon="5.35362">
        <ele>320.2</ele>
        <time>2020-06-25T17:06:04Z</time>
      </trkpt>
      <trkpt lat="49.69492" lon="5.3537">
        <ele>320.1</ele>
        <time>2020-06-25T17:06:05Z</time>
      </trkpt>
      <trkpt lat="49.69491" lon="5.35378">
        <ele>320.1</ele>
        <time>2020-06-25T17:06:06Z</time>
      </trkpt>
      <trkpt lat="49.6949" lon="5.35386">
        <ele>320.1</ele>
        <time>2020-06-25T17:06:07Z</time>
      </trkpt>
      <trkpt lat="49.6949" lon="5.35394">
        <ele>320</ele>
        <time>2020-06-25T17:06:08Z</time>
      </trkpt>
      <trkpt lat="49.69489" lon="5.35402">
        <ele>320</ele>
        <time>2020-06-25T17:06:09Z</time>
      </trkpt>
      <trkpt lat="49.69488" lon="5.3541">
        <ele>319.9</ele>
        <time>2020-06-25T17:06:10Z</time>
      </trkpt>
      <trkpt lat="49.69488" lon="5.35417">
        <ele>319.9</ele>
        <time>2020-06-25T17:06:11Z</time>
      </trkpt>
      <trkpt lat="49.69487" lon="5.35424">
        <ele>319.8</ele>
        <time>2020-06-25T17:06:12Z</time>
      </trkpt>
      <trkpt lat="49.69487" lon="5.35432">
        <ele>319.8</ele>
        <time>2020-06-25T17:06:13Z</time>
      </trkpt>
      <trkpt lat="49.69485" lon="5.3544">
        <ele>319.7</ele>
        <time>2020-06-25T17:06:14Z</time>
      </trkpt>
      <trkpt lat="49.69484" lon="5.35447">
        <ele>319.7</ele>
        <time>2020-06-25T17:06:15Z</time>
      </trkpt>
      <trkpt lat="49.69483" lon="5.35454">
        <ele>319.6</ele>
        <time>2020-06-25T17:06:16Z</time>
      </trkpt>
      <trkpt lat="49.69482" lon="5.35461">
        <ele>319.5</ele>
        <time>2020-06-25T17:06:17Z</time>
      </trkpt>
      <trkpt lat="49.69482" lon="5.35469">
        <ele>319.5</ele>
        <time>2020-06-25T17:06:18Z</time>
      </trkpt>
      <trkpt lat="49.69481" lon="5.35476">
        <ele>319.4</ele>
        <time>2020-06-25T17:06:19Z</time>
      </trkpt>
      <trkpt lat="49.6948" lon="5.35483">
        <ele>319.3</ele>
        <time>2020-06-25T17:06:20Z</time>
      </trkpt>
      <trkpt lat="49.69479" lon="5.3549">
        <ele>319.2</ele>
        <time>2020-06-25T17:06:21Z</time>
      </trkpt>
      <trkpt lat="49.69478" lon="5.35497">
        <ele>319</ele>
        <time>2020-06-25T17:06:22Z</time>
      </trkpt>
      <trkpt lat="49.69477" lon="5.35504">
        <ele>318.9</ele>
        <time>2020-06-25T17:06:23Z</time>
      </trkpt>
      <trkpt lat="49.69477" lon="5.35512">
        <ele>318.8</ele>
        <time>2020-06-25T17:06:24Z</time>
      </trkpt>
      <trkpt lat="49.69477" lon="5.35519">
        <ele>318.7</ele>
        <time>2020-06-25T17:06:25Z</time>
      </trkpt>
      <trkpt lat="49.69477" lon="5.35527">
        <ele>318.6</ele>
        <time>2020-06-25T17:06:26Z</time>
      </trkpt>
      <trkpt lat="49.69476" lon="5.35536">
        <ele>318.5</ele>
        <time>2020-06-25T17:06:27Z</time>
      </trkpt>
      <trkpt lat="49.69476" lon="5.35544">
        <ele>318.4</ele>
        <time>2020-06-25T17:06:28Z</time>
      </trkpt>
      <trkpt lat="49.69476" lon="5.35552">
        <ele>318.3</ele>
        <time>2020-06-25T17:06:29Z</time>
      </trkpt>
      <trkpt lat="49.69476" lon="5.3556">
        <ele>318.3</ele>
        <time>2020-06-25T17:06:30Z</time>
      </trkpt>
      <trkpt lat="49.69476" lon="5.35569">
        <ele>318.2</ele>
        <time>2020-06-25T17:06:31Z</time>
      </trkpt>
      <trkpt lat="49.69476" lon="5.35577">
        <ele>318.1</ele>
        <time>2020-06-25T17:06:32Z</time>
      </trkpt>
      <trkpt lat="49.69475" lon="5.35585">
        <ele>318.1</ele>
        <time>2020-06-25T17:06:33Z</time>
      </trkpt>
      <trkpt lat="49.69476" lon="5.35593">
        <ele>318</ele>
        <time>2020-06-25T17:06:34Z</time>
      </trkpt>
      <trkpt lat="49.69477" lon="5.35601">
        <ele>317.9</ele>
        <time>2020-06-25T17:06:35Z</time>
      </trkpt>
      <trkpt lat="49.69477" lon="5.35609">
        <ele>317.9</ele>
        <time>2020-06-25T17:06:36Z</time>
      </trkpt>
      <trkpt lat="49.69477" lon="5.35617">
        <ele>317.8</ele>
        <time>2020-06-25T17:06:37Z</time>
      </trkpt>
      <trkpt lat="49.69477" lon="5.35625">
        <ele>317.7</ele>
        <time>2020-06-25T17:06:38Z</time>
      </trkpt>
      <trkpt lat="49.69478" lon="5.35633">
        <ele>317.6</ele>
        <time>2020-06-25T17:06:39Z</time>
      </trkpt>
      <trkpt lat="49.69479" lon="5.35642">
        <ele>317.4</ele>
        <time>2020-06-25T17:06:40Z</time>
      </trkpt>
      <trkpt lat="49.69479" lon="5.3565">
        <ele>317.3</ele>
        <time>2020-06-25T17:06:41Z</time>
      </trkpt>
      <trkpt lat="49.6948" lon="5.35657">
        <ele>317.3</ele>
        <time>2020-06-25T17:06:42Z</time>
      </trkpt>
      <trkpt lat="49.6948" lon="5.35665">
        <ele>317.3</ele>
        <time>2020-06-25T17:06:43Z</time>
      </trkpt>
      <trkpt lat="49.6948" lon="5.35672">
        <ele>317.3</ele>
        <time>2020-06-25T17:06:44Z</time>
      </trkpt>
      <trkpt lat="49.69481" lon="5.35679">
        <ele>317.4</ele>
        <time>2020-06-25T17:06:45Z</time>
      </trkpt>
      <trkpt lat="49.69483" lon="5.35685">
        <ele>317.5</ele>
        <time>2020-06-25T17:06:46Z</time>
      </trkpt>
      <trkpt lat="49.69485" lon="5.35691">
        <ele>317.7</ele>
        <time>2020-06-25T17:06:47Z</time>
      </trkpt>
      <trkpt lat="49.69486" lon="5.35697">
        <ele>317.8</ele>
        <time>2020-06-25T17:06:48Z</time>
      </trkpt>
      <trkpt lat="49.69487" lon="5.35703">
        <ele>317.8</ele>
        <time>2020-06-25T17:06:49Z</time>
      </trkpt>
      <trkpt lat="49.69486" lon="5.3571">
        <ele>317.8</ele>
        <time>2020-06-25T17:06:50Z</time>
      </trkpt>
      <trkpt lat="49.69485" lon="5.35718">
        <ele>317.8</ele>
        <time>2020-06-25T17:06:51Z</time>
      </trkpt>
      <trkpt lat="49.69485" lon="5.35725">
        <ele>317.8</ele>
        <time>2020-06-25T17:06:52Z</time>
      </trkpt>
      <trkpt lat="49.69486" lon="5.35732">
        <ele>317.9</ele>
        <time>2020-06-25T17:06:53Z</time>
      </trkpt>
      <trkpt lat="49.69487" lon="5.3574">
        <ele>317.9</ele>
        <time>2020-06-25T17:06:54Z</time>
      </trkpt>
      <trkpt lat="49.69488" lon="5.35746">
        <ele>318</ele>
        <time>2020-06-25T17:06:55Z</time>
      </trkpt>
      <trkpt lat="49.69489" lon="5.35751">
        <ele>318</ele>
        <time>2020-06-25T17:06:56Z</time>
      </trkpt>
      <trkpt lat="49.69489" lon="5.35756">
        <ele>318.1</ele>
        <time>2020-06-25T17:06:57Z</time>
      </trkpt>
      <trkpt lat="49.69489" lon="5.35762">
        <ele>318.2</ele>
        <time>2020-06-25T17:06:58Z</time>
      </trkpt>
      <trkpt lat="49.6949" lon="5.35768">
        <ele>318.3</ele>
        <time>2020-06-25T17:06:59Z</time>
      </trkpt>
      <trkpt lat="49.69491" lon="5.35776">
        <ele>318.4</ele>
        <time>2020-06-25T17:07:00Z</time>
      </trkpt>
      <trkpt lat="49.69492" lon="5.35783">
        <ele>318.5</ele>
        <time>2020-06-25T17:07:01Z</time>
      </trkpt>
      <trkpt lat="49.69493" lon="5.3579">
        <ele>318.6</ele>
        <time>2020-06-25T17:07:02Z</time>
      </trkpt>
      <trkpt lat="49.69495" lon="5.35797">
        <ele>318.8</ele>
        <time>2020-06-25T17:07:03Z</time>
      </trkpt>
      <trkpt lat="49.69496" lon="5.35805">
        <ele>318.9</ele>
        <time>2020-06-25T17:07:04Z</time>
      </trkpt>
      <trkpt lat="49.69497" lon="5.35811">
        <ele>319.1</ele>
        <time>2020-06-25T17:07:05Z</time>
      </trkpt>
      <trkpt lat="49.69498" lon="5.35819">
        <ele>319.2</ele>
        <time>2020-06-25T17:07:06Z</time>
      </trkpt>
      <trkpt lat="49.69498" lon="5.35825">
        <ele>319.3</ele>
        <time>2020-06-25T17:07:07Z</time>
      </trkpt>
      <trkpt lat="49.69497" lon="5.35832">
        <ele>319.5</ele>
        <time>2020-06-25T17:07:08Z</time>
      </trkpt>
      <trkpt lat="49.69498" lon="5.35839">
        <ele>319.6</ele>
        <time>2020-06-25T17:07:09Z</time>
      </trkpt>
      <trkpt lat="49.69498" lon="5.35846">
        <ele>319.7</ele>
        <time>2020-06-25T17:07:10Z</time>
      </trkpt>
      <trkpt lat="49.69498" lon="5.35854">
        <ele>319.9</ele>
        <time>2020-06-25T17:07:11Z</time>
      </trkpt>
      <trkpt lat="49.69499" lon="5.35862">
        <ele>320.1</ele>
        <time>2020-06-25T17:07:12Z</time>
      </trkpt>
      <trkpt lat="49.69499" lon="5.3587">
        <ele>320.3</ele>
        <time>2020-06-25T17:07:13Z</time>
      </trkpt>
      <trkpt lat="49.69499" lon="5.35879">
        <ele>320.5</ele>
        <time>2020-06-25T17:07:14Z</time>
      </trkpt>
      <trkpt lat="49.69498" lon="5.35887">
        <ele>320.7</ele>
        <time>2020-06-25T17:07:15Z</time>
      </trkpt>
      <trkpt lat="49.69499" lon="5.35894">
        <ele>320.8</ele>
        <time>2020-06-25T17:07:16Z</time>
      </trkpt>
      <trkpt lat="49.69498" lon="5.359">
        <ele>320.9</ele>
        <time>2020-06-25T17:07:17Z</time>
      </trkpt>
      <trkpt lat="49.69498" lon="5.35907">
        <ele>321</ele>
        <time>2020-06-25T17:07:18Z</time>
      </trkpt>
      <trkpt lat="49.69497" lon="5.35913">
        <ele>321.1</ele>
        <time>2020-06-25T17:07:19Z</time>
      </trkpt>
      <trkpt lat="49.69496" lon="5.35921">
        <ele>321.3</ele>
        <time>2020-06-25T17:07:20Z</time>
      </trkpt>
      <trkpt lat="49.69495" lon="5.35927">
        <ele>321.4</ele>
        <time>2020-06-25T17:07:21Z</time>
      </trkpt>
      <trkpt lat="49.69494" lon="5.35934">
        <ele>321.6</ele>
        <time>2020-06-25T17:07:22Z</time>
      </trkpt>
      <trkpt lat="49.69494" lon="5.3594">
        <ele>321.7</ele>
        <time>2020-06-25T17:07:23Z</time>
      </trkpt>
      <trkpt lat="49.69494" lon="5.35947">
        <ele>321.9</ele>
        <time>2020-06-25T17:07:24Z</time>
      </trkpt>
      <trkpt lat="49.69493" lon="5.35955">
        <ele>322.1</ele>
        <time>2020-06-25T17:07:25Z</time>
      </trkpt>
      <trkpt lat="49.69493" lon="5.3596">
        <ele>322.2</ele>
        <time>2020-06-25T17:07:26Z</time>
      </trkpt>
      <trkpt lat="49.69492" lon="5.35966">
        <ele>322.3</ele>
        <time>2020-06-25T17:07:27Z</time>
      </trkpt>
      <trkpt lat="49.69491" lon="5.35972">
        <ele>322.5</ele>
        <time>2020-06-25T17:07:28Z</time>
      </trkpt>
      <trkpt lat="49.69491" lon="5.35977">
        <ele>322.6</ele>
        <time>2020-06-25T17:07:29Z</time>
      </trkpt>
      <trkpt lat="49.6949" lon="5.35984">
        <ele>322.7</ele>
        <time>2020-06-25T17:07:30Z</time>
      </trkpt>
      <trkpt lat="49.6949" lon="5.35986">
        <ele>322.8</ele>
        <time>2020-06-25T17:07:31Z</time>
      </trkpt>
      <trkpt lat="49.69489" lon="5.35992">
        <ele>322.9</ele>
        <time>2020-06-25T17:07:32Z</time>
      </trkpt>
      <trkpt lat="49.69488" lon="5.35999">
        <ele>323</ele>
        <time>2020-06-25T17:07:33Z</time>
      </trkpt>
      <trkpt lat="49.69488" lon="5.36004">
        <ele>323.1</ele>
        <time>2020-06-25T17:07:34Z</time>
      </trkpt>
      <trkpt lat="49.69488" lon="5.36009">
        <ele>323.2</ele>
        <time>2020-06-25T17:07:35Z</time>
      </trkpt>
      <trkpt lat="49.69487" lon="5.36015">
        <ele>323.3</ele>
        <time>2020-06-25T17:07:36Z</time>
      </trkpt>
      <trkpt lat="49.69486" lon="5.36021">
        <ele>323.4</ele>
        <time>2020-06-25T17:07:37Z</time>
      </trkpt>
      <trkpt lat="49.69486" lon="5.36028">
        <ele>323.5</ele>
        <time>2020-06-25T17:07:38Z</time>
      </trkpt>
      <trkpt lat="49.69486" lon="5.36035">
        <ele>323.7</ele>
        <time>2020-06-25T17:07:39Z</time>
      </trkpt>
      <trkpt lat="49.69485" lon="5.36044">
        <ele>323.8</ele>
        <time>2020-06-25T17:07:40Z</time>
      </trkpt>
      <trkpt lat="49.69484" lon="5.36051">
        <ele>324</ele>
        <time>2020-06-25T17:07:41Z</time>
      </trkpt>
      <trkpt lat="49.69483" lon="5.36057">
        <ele>324.1</ele>
        <time>2020-06-25T17:07:42Z</time>
      </trkpt>
      <trkpt lat="49.69482" lon="5.36064">
        <ele>324.2</ele>
        <time>2020-06-25T17:07:43Z</time>
      </trkpt>
      <trkpt lat="49.69481" lon="5.36069">
        <ele>324.3</ele>
        <time>2020-06-25T17:07:44Z</time>
      </trkpt>
      <trkpt lat="49.6948" lon="5.36076">
        <ele>324.5</ele>
        <time>2020-06-25T17:07:45Z</time>
      </trkpt>
      <trkpt lat="49.69479" lon="5.36081">
        <ele>324.5</ele>
        <time>2020-06-25T17:07:46Z</time>
      </trkpt>
      <trkpt lat="49.69478" lon="5.36087">
        <ele>324.6</ele>
        <time>2020-06-25T17:07:47Z</time>
      </trkpt>
      <trkpt lat="49.69477" lon="5.36092">
        <ele>324.7</ele>
        <time>2020-06-25T17:07:48Z</time>
      </trkpt>
      <trkpt lat="49.69476" lon="5.36099">
        <ele>324.8</ele>
        <time>2020-06-25T17:07:49Z</time>
      </trkpt>
      <trkpt lat="49.69475" lon="5.36105">
        <ele>324.9</ele>
        <time>2020-06-25T17:07:50Z</time>
      </trkpt>
      <trkpt lat="49.69474" lon="5.36112">
        <ele>325</ele>
        <time>2020-06-25T17:07:51Z</time>
      </trkpt>
      <trkpt lat="49.69472" lon="5.36118">
        <ele>325.1</ele>
        <time>2020-06-25T17:07:52Z</time>
      </trkpt>
      <trkpt lat="49.69472" lon="5.36124">
        <ele>325.1</ele>
        <time>2020-06-25T17:07:53Z</time>
      </trkpt>
      <trkpt lat="49.69471" lon="5.3613">
        <ele>325.2</ele>
        <time>2020-06-25T17:07:54Z</time>
      </trkpt>
      <trkpt lat="49.6947" lon="5.36136">
        <ele>325.3</ele>
        <time>2020-06-25T17:07:55Z</time>
      </trkpt>
      <trkpt lat="49.69469" lon="5.36143">
        <ele>325.5</ele>
        <time>2020-06-25T17:07:56Z</time>
      </trkpt>
      <trkpt lat="49.69468" lon="5.36149">
        <ele>325.6</ele>
        <time>2020-06-25T17:07:57Z</time>
      </trkpt>
      <trkpt lat="49.69467" lon="5.36156">
        <ele>325.7</ele>
        <time>2020-06-25T17:07:58Z</time>
      </trkpt>
      <trkpt lat="49.69467" lon="5.36162">
        <ele>325.8</ele>
        <time>2020-06-25T17:07:59Z</time>
      </trkpt>
      <trkpt lat="49.69466" lon="5.36168">
        <ele>325.9</ele>
        <time>2020-06-25T17:08:00Z</time>
      </trkpt>
      <trkpt lat="49.69465" lon="5.36174">
        <ele>326</ele>
        <time>2020-06-25T17:08:01Z</time>
      </trkpt>
      <trkpt lat="49.69464" lon="5.36181">
        <ele>326.1</ele>
        <time>2020-06-25T17:08:02Z</time>
      </trkpt>
      <trkpt lat="49.69464" lon="5.36187">
        <ele>326.2</ele>
        <time>2020-06-25T17:08:03Z</time>
      </trkpt>
      <trkpt lat="49.69463" lon="5.36194">
        <ele>326.3</ele>
        <time>2020-06-25T17:08:04Z</time>
      </trkpt>
      <trkpt lat="49.69463" lon="5.362">
        <ele>326.3</ele>
        <time>2020-06-25T17:08:05Z</time>
      </trkpt>
      <trkpt lat="49.69462" lon="5.36206">
        <ele>326.4</ele>
        <time>2020-06-25T17:08:06Z</time>
      </trkpt>
      <trkpt lat="49.69462" lon="5.36211">
        <ele>326.4</ele>
        <time>2020-06-25T17:08:07Z</time>
      </trkpt>
      <trkpt lat="49.69463" lon="5.36217">
        <ele>326.5</ele>
        <time>2020-06-25T17:08:08Z</time>
      </trkpt>
      <trkpt lat="49.69462" lon="5.36222">
        <ele>326.5</ele>
        <time>2020-06-25T17:08:09Z</time>
      </trkpt>
      <trkpt lat="49.6946" lon="5.36229">
        <ele>326.5</ele>
        <time>2020-06-25T17:08:10Z</time>
      </trkpt>
      <trkpt lat="49.69459" lon="5.36236">
        <ele>326.6</ele>
        <time>2020-06-25T17:08:11Z</time>
      </trkpt>
      <trkpt lat="49.69458" lon="5.36244">
        <ele>326.6</ele>
        <time>2020-06-25T17:08:12Z</time>
      </trkpt>
      <trkpt lat="49.69457" lon="5.36251">
        <ele>326.7</ele>
        <time>2020-06-25T17:08:13Z</time>
      </trkpt>
      <trkpt lat="49.69456" lon="5.36257">
        <ele>326.7</ele>
        <time>2020-06-25T17:08:14Z</time>
      </trkpt>
      <trkpt lat="49.69455" lon="5.36262">
        <ele>326.7</ele>
        <time>2020-06-25T17:08:15Z</time>
      </trkpt>
      <trkpt lat="49.69454" lon="5.36268">
        <ele>326.7</ele>
        <time>2020-06-25T17:08:16Z</time>
      </trkpt>
      <trkpt lat="49.69453" lon="5.36275">
        <ele>326.7</ele>
        <time>2020-06-25T17:08:17Z</time>
      </trkpt>
      <trkpt lat="49.69452" lon="5.36282">
        <ele>326.7</ele>
        <time>2020-06-25T17:08:18Z</time>
      </trkpt>
      <trkpt lat="49.69451" lon="5.36289">
        <ele>326.7</ele>
        <time>2020-06-25T17:08:19Z</time>
      </trkpt>
      <trkpt lat="49.6945" lon="5.36296">
        <ele>326.7</ele>
        <time>2020-06-25T17:08:20Z</time>
      </trkpt>
      <trkpt lat="49.69449" lon="5.36302">
        <ele>326.7</ele>
        <time>2020-06-25T17:08:21Z</time>
      </trkpt>
      <trkpt lat="49.69448" lon="5.36309">
        <ele>326.7</ele>
        <time>2020-06-25T17:08:22Z</time>
      </trkpt>
      <trkpt lat="49.69447" lon="5.36316">
        <ele>326.6</ele>
        <time>2020-06-25T17:08:23Z</time>
      </trkpt>
      <trkpt lat="49.69446" lon="5.36322">
        <ele>326.6</ele>
        <time>2020-06-25T17:08:24Z</time>
      </trkpt>
      <trkpt lat="49.69444" lon="5.3633">
        <ele>326.6</ele>
        <time>2020-06-25T17:08:25Z</time>
      </trkpt>
      <trkpt lat="49.69443" lon="5.36336">
        <ele>326.5</ele>
        <time>2020-06-25T17:08:26Z</time>
      </trkpt>
      <trkpt lat="49.69442" lon="5.36343">
        <ele>326.5</ele>
        <time>2020-06-25T17:08:27Z</time>
      </trkpt>
      <trkpt lat="49.69441" lon="5.3635">
        <ele>326.4</ele>
        <time>2020-06-25T17:08:28Z</time>
      </trkpt>
      <trkpt lat="49.69441" lon="5.36358">
        <ele>326.3</ele>
        <time>2020-06-25T17:08:29Z</time>
      </trkpt>
      <trkpt lat="49.69441" lon="5.36367">
        <ele>326.2</ele>
        <time>2020-06-25T17:08:30Z</time>
      </trkpt>
      <trkpt lat="49.69441" lon="5.36376">
        <ele>326.1</ele>
        <time>2020-06-25T17:08:31Z</time>
      </trkpt>
      <trkpt lat="49.6944" lon="5.36382">
        <ele>326</ele>
        <time>2020-06-25T17:08:32Z</time>
      </trkpt>
      <trkpt lat="49.69438" lon="5.36391">
        <ele>325.9</ele>
        <time>2020-06-25T17:08:33Z</time>
      </trkpt>
      <trkpt lat="49.69437" lon="5.36399">
        <ele>325.7</ele>
        <time>2020-06-25T17:08:34Z</time>
      </trkpt>
      <trkpt lat="49.69436" lon="5.36406">
        <ele>325.6</ele>
        <time>2020-06-25T17:08:35Z</time>
      </trkpt>
      <trkpt lat="49.69435" lon="5.36415">
        <ele>325.4</ele>
        <time>2020-06-25T17:08:36Z</time>
      </trkpt>
      <trkpt lat="49.69435" lon="5.36424">
        <ele>325.2</ele>
        <time>2020-06-25T17:08:37Z</time>
      </trkpt>
      <trkpt lat="49.69435" lon="5.36432">
        <ele>325</ele>
        <time>2020-06-25T17:08:38Z</time>
      </trkpt>
      <trkpt lat="49.69434" lon="5.3644">
        <ele>324.9</ele>
        <time>2020-06-25T17:08:39Z</time>
      </trkpt>
      <trkpt lat="49.69434" lon="5.36448">
        <ele>324.6</ele>
        <time>2020-06-25T17:08:40Z</time>
      </trkpt>
      <trkpt lat="49.69434" lon="5.36456">
        <ele>324.4</ele>
        <time>2020-06-25T17:08:41Z</time>
      </trkpt>
      <trkpt lat="49.69434" lon="5.36465">
        <ele>324.2</ele>
        <time>2020-06-25T17:08:42Z</time>
      </trkpt>
      <trkpt lat="49.69435" lon="5.36474">
        <ele>324</ele>
        <time>2020-06-25T17:08:43Z</time>
      </trkpt>
      <trkpt lat="49.69436" lon="5.36483">
        <ele>323.7</ele>
        <time>2020-06-25T17:08:44Z</time>
      </trkpt>
      <trkpt lat="49.69436" lon="5.36491">
        <ele>323.5</ele>
        <time>2020-06-25T17:08:45Z</time>
      </trkpt>
      <trkpt lat="49.69436" lon="5.36501">
        <ele>323.2</ele>
        <time>2020-06-25T17:08:46Z</time>
      </trkpt>
      <trkpt lat="49.69436" lon="5.36511">
        <ele>322.9</ele>
        <time>2020-06-25T17:08:47Z</time>
      </trkpt>
      <trkpt lat="49.69436" lon="5.36519">
        <ele>322.7</ele>
        <time>2020-06-25T17:08:48Z</time>
      </trkpt>
      <trkpt lat="49.69436" lon="5.36528">
        <ele>322.4</ele>
        <time>2020-06-25T17:08:49Z</time>
      </trkpt>
      <trkpt lat="49.69436" lon="5.36538">
        <ele>322.1</ele>
        <time>2020-06-25T17:08:50Z</time>
      </trkpt>
      <trkpt lat="49.69437" lon="5.36549">
        <ele>321.8</ele>
        <time>2020-06-25T17:08:51Z</time>
      </trkpt>
      <trkpt lat="49.69437" lon="5.3656">
        <ele>321.6</ele>
        <time>2020-06-25T17:08:52Z</time>
      </trkpt>
      <trkpt lat="49.69437" lon="5.36572">
        <ele>321.3</ele>
        <time>2020-06-25T17:08:53Z</time>
      </trkpt>
      <trkpt lat="49.69437" lon="5.36583">
        <ele>321.1</ele>
        <time>2020-06-25T17:08:54Z</time>
      </trkpt>
      <trkpt lat="49.69438" lon="5.36593">
        <ele>320.8</ele>
        <time>2020-06-25T17:08:55Z</time>
      </trkpt>
      <trkpt lat="49.69438" lon="5.36604">
        <ele>320.6</ele>
        <time>2020-06-25T17:08:56Z</time>
      </trkpt>
      <trkpt lat="49.69439" lon="5.36613">
        <ele>320.5</ele>
        <time>2020-06-25T17:08:57Z</time>
      </trkpt>
      <trkpt lat="49.6944" lon="5.36622">
        <ele>320.4</ele>
        <time>2020-06-25T17:08:58Z</time>
      </trkpt>
      <trkpt lat="49.69441" lon="5.36631">
        <ele>320.2</ele>
        <time>2020-06-25T17:08:59Z</time>
      </trkpt>
      <trkpt lat="49.69442" lon="5.3664">
        <ele>320.1</ele>
        <time>2020-06-25T17:09:00Z</time>
      </trkpt>
      <trkpt lat="49.69443" lon="5.36649">
        <ele>320.1</ele>
        <time>2020-06-25T17:09:01Z</time>
      </trkpt>
      <trkpt lat="49.69444" lon="5.36658">
        <ele>320</ele>
        <time>2020-06-25T17:09:02Z</time>
      </trkpt>
      <trkpt lat="49.69446" lon="5.36667">
        <ele>319.9</ele>
        <time>2020-06-25T17:09:03Z</time>
      </trkpt>
      <trkpt lat="49.69447" lon="5.36676">
        <ele>319.9</ele>
        <time>2020-06-25T17:09:04Z</time>
      </trkpt>
      <trkpt lat="49.69448" lon="5.36686">
        <ele>320</ele>
        <time>2020-06-25T17:09:05Z</time>
      </trkpt>
      <trkpt lat="49.69451" lon="5.36696">
        <ele>320</ele>
        <time>2020-06-25T17:09:06Z</time>
      </trkpt>
      <trkpt lat="49.69453" lon="5.36704">
        <ele>320.1</ele>
        <time>2020-06-25T17:09:07Z</time>
      </trkpt>
      <trkpt lat="49.69454" lon="5.36712">
        <ele>320.1</ele>
        <time>2020-06-25T17:09:08Z</time>
      </trkpt>
      <trkpt lat="49.69455" lon="5.3672">
        <ele>320.2</ele>
        <time>2020-06-25T17:09:09Z</time>
      </trkpt>
      <trkpt lat="49.69457" lon="5.36728">
        <ele>320.2</ele>
        <time>2020-06-25T17:09:10Z</time>
      </trkpt>
      <trkpt lat="49.69458" lon="5.36735">
        <ele>320.3</ele>
        <time>2020-06-25T17:09:11Z</time>
      </trkpt>
      <trkpt lat="49.69459" lon="5.36742">
        <ele>320.4</ele>
        <time>2020-06-25T17:09:12Z</time>
      </trkpt>
      <trkpt lat="49.69458" lon="5.36749">
        <ele>320.6</ele>
        <time>2020-06-25T17:09:13Z</time>
      </trkpt>
      <trkpt lat="49.69457" lon="5.36755">
        <ele>320.8</ele>
        <time>2020-06-25T17:09:14Z</time>
      </trkpt>
      <trkpt lat="49.69456" lon="5.36762">
        <ele>320.9</ele>
        <time>2020-06-25T17:09:15Z</time>
      </trkpt>
      <trkpt lat="49.69455" lon="5.36769">
        <ele>321.1</ele>
        <time>2020-06-25T17:09:16Z</time>
      </trkpt>
      <trkpt lat="49.69455" lon="5.36775">
        <ele>321.2</ele>
        <time>2020-06-25T17:09:17Z</time>
      </trkpt>
      <trkpt lat="49.69454" lon="5.3678">
        <ele>321.4</ele>
        <time>2020-06-25T17:09:18Z</time>
      </trkpt>
      <trkpt lat="49.69453" lon="5.36786">
        <ele>321.6</ele>
        <time>2020-06-25T17:09:19Z</time>
      </trkpt>
      <trkpt lat="49.69452" lon="5.36792">
        <ele>321.8</ele>
        <time>2020-06-25T17:09:20Z</time>
      </trkpt>
      <trkpt lat="49.69451" lon="5.36797">
        <ele>322</ele>
        <time>2020-06-25T17:09:21Z</time>
      </trkpt>
      <trkpt lat="49.69451" lon="5.36802">
        <ele>322.1</ele>
        <time>2020-06-25T17:09:22Z</time>
      </trkpt>
      <trkpt lat="49.69451" lon="5.36806">
        <ele>322.3</ele>
        <time>2020-06-25T17:09:23Z</time>
      </trkpt>
      <trkpt lat="49.6945" lon="5.36811">
        <ele>322.5</ele>
        <time>2020-06-25T17:09:24Z</time>
      </trkpt>
      <trkpt lat="49.69449" lon="5.36816">
        <ele>322.7</ele>
        <time>2020-06-25T17:09:25Z</time>
      </trkpt>
      <trkpt lat="49.69449" lon="5.36821">
        <ele>322.9</ele>
        <time>2020-06-25T17:09:26Z</time>
      </trkpt>
      <trkpt lat="49.69449" lon="5.36826">
        <ele>323.1</ele>
        <time>2020-06-25T17:09:27Z</time>
      </trkpt>
      <trkpt lat="49.69449" lon="5.36831">
        <ele>323.4</ele>
        <time>2020-06-25T17:09:28Z</time>
      </trkpt>
      <trkpt lat="49.69448" lon="5.36837">
        <ele>323.7</ele>
        <time>2020-06-25T17:09:29Z</time>
      </trkpt>
      <trkpt lat="49.6945" lon="5.36844">
        <ele>324.1</ele>
        <time>2020-06-25T17:09:30Z</time>
      </trkpt>
      <trkpt lat="49.69452" lon="5.3685">
        <ele>324.4</ele>
        <time>2020-06-25T17:09:31Z</time>
      </trkpt>
      <trkpt lat="49.69452" lon="5.36855">
        <ele>324.6</ele>
        <time>2020-06-25T17:09:32Z</time>
      </trkpt>
      <trkpt lat="49.69452" lon="5.36859">
        <ele>324.9</ele>
        <time>2020-06-25T17:09:33Z</time>
      </trkpt>
      <trkpt lat="49.69452" lon="5.36864">
        <ele>325.1</ele>
        <time>2020-06-25T17:09:34Z</time>
      </trkpt>
      <trkpt lat="49.69451" lon="5.3687">
        <ele>325.4</ele>
        <time>2020-06-25T17:09:35Z</time>
      </trkpt>
      <trkpt lat="49.69451" lon="5.36871">
        <ele>325.5</ele>
        <time>2020-06-25T17:09:36Z</time>
      </trkpt>
      <trkpt lat="49.69453" lon="5.36876">
        <ele>325.8</ele>
        <time>2020-06-25T17:09:37Z</time>
      </trkpt>
      <trkpt lat="49.69453" lon="5.36878">
        <ele>325.9</ele>
        <time>2020-06-25T17:09:38Z</time>
      </trkpt>
      <trkpt lat="49.69453" lon="5.36884">
        <ele>326.2</ele>
        <time>2020-06-25T17:09:39Z</time>
      </trkpt>
      <trkpt lat="49.69453" lon="5.36886">
        <ele>326.3</ele>
        <time>2020-06-25T17:09:40Z</time>
      </trkpt>
      <trkpt lat="49.69452" lon="5.36891">
        <ele>326.6</ele>
        <time>2020-06-25T17:09:41Z</time>
      </trkpt>
      <trkpt lat="49.69451" lon="5.36892">
        <ele>326.7</ele>
        <time>2020-06-25T17:09:42Z</time>
      </trkpt>
      <trkpt lat="49.69451" lon="5.36897">
        <ele>327</ele>
        <time>2020-06-25T17:09:43Z</time>
      </trkpt>
      <trkpt lat="49.69451" lon="5.36899">
        <ele>327.1</ele>
        <time>2020-06-25T17:09:44Z</time>
      </trkpt>
      <trkpt lat="49.69451" lon="5.36903">
        <ele>327.3</ele>
        <time>2020-06-25T17:09:45Z</time>
      </trkpt>
      <trkpt lat="49.69452" lon="5.36909">
        <ele>327.6</ele>
        <time>2020-06-25T17:09:46Z</time>
      </trkpt>
      <trkpt lat="49.69452" lon="5.36911">
        <ele>327.7</ele>
        <time>2020-06-25T17:09:47Z</time>
      </trkpt>
      <trkpt lat="49.69452" lon="5.36917">
        <ele>328</ele>
        <time>2020-06-25T17:09:48Z</time>
      </trkpt>
      <trkpt lat="49.69452" lon="5.36918">
        <ele>328.1</ele>
        <time>2020-06-25T17:09:49Z</time>
      </trkpt>
      <trkpt lat="49.69452" lon="5.36923">
        <ele>328.4</ele>
        <time>2020-06-25T17:09:50Z</time>
      </trkpt>
      <trkpt lat="49.69452" lon="5.36925">
        <ele>328.5</ele>
        <time>2020-06-25T17:09:51Z</time>
      </trkpt>
      <trkpt lat="49.69452" lon="5.36929">
        <ele>328.7</ele>
        <time>2020-06-25T17:09:52Z</time>
      </trkpt>
      <trkpt lat="49.69451" lon="5.36934">
        <ele>329</ele>
        <time>2020-06-25T17:09:53Z</time>
      </trkpt>
      <trkpt lat="49.69452" lon="5.36936">
        <ele>329.1</ele>
        <time>2020-06-25T17:09:54Z</time>
      </trkpt>
      <trkpt lat="49.69451" lon="5.36941">
        <ele>329.3</ele>
        <time>2020-06-25T17:09:55Z</time>
      </trkpt>
      <trkpt lat="49.69451" lon="5.36943">
        <ele>329.4</ele>
        <time>2020-06-25T17:09:56Z</time>
      </trkpt>
      <trkpt lat="49.69451" lon="5.36948">
        <ele>329.7</ele>
        <time>2020-06-25T17:09:57Z</time>
      </trkpt>
      <trkpt lat="49.69451" lon="5.3695">
        <ele>329.8</ele>
        <time>2020-06-25T17:09:58Z</time>
      </trkpt>
      <trkpt lat="49.6945" lon="5.36955">
        <ele>330.1</ele>
        <time>2020-06-25T17:09:59Z</time>
      </trkpt>
      <trkpt lat="49.6945" lon="5.36957">
        <ele>330.2</ele>
        <time>2020-06-25T17:10:00Z</time>
      </trkpt>
      <trkpt lat="49.69449" lon="5.36962">
        <ele>330.4</ele>
        <time>2020-06-25T17:10:01Z</time>
      </trkpt>
      <trkpt lat="49.6945" lon="5.36965">
        <ele>330.6</ele>
        <time>2020-06-25T17:10:02Z</time>
      </trkpt>
      <trkpt lat="49.6945" lon="5.36969">
        <ele>330.8</ele>
        <time>2020-06-25T17:10:03Z</time>
      </trkpt>
      <trkpt lat="49.69449" lon="5.36974">
        <ele>331.1</ele>
        <time>2020-06-25T17:10:04Z</time>
      </trkpt>
      <trkpt lat="49.69447" lon="5.36978">
        <ele>331.3</ele>
        <time>2020-06-25T17:10:05Z</time>
      </trkpt>
      <trkpt lat="49.69447" lon="5.36983">
        <ele>331.6</ele>
        <time>2020-06-25T17:10:06Z</time>
      </trkpt>
      <trkpt lat="49.69447" lon="5.36989">
        <ele>331.9</ele>
        <time>2020-06-25T17:10:07Z</time>
      </trkpt>
      <trkpt lat="49.69447" lon="5.36991">
        <ele>332</ele>
        <time>2020-06-25T17:10:08Z</time>
      </trkpt>
      <trkpt lat="49.69446" lon="5.36996">
        <ele>332.3</ele>
        <time>2020-06-25T17:10:09Z</time>
      </trkpt>
      <trkpt lat="49.69447" lon="5.37001">
        <ele>332.6</ele>
        <time>2020-06-25T17:10:10Z</time>
      </trkpt>
      <trkpt lat="49.69446" lon="5.37006">
        <ele>332.9</ele>
        <time>2020-06-25T17:10:11Z</time>
      </trkpt>
      <trkpt lat="49.69445" lon="5.3701">
        <ele>333.1</ele>
        <time>2020-06-25T17:10:12Z</time>
      </trkpt>
      <trkpt lat="49.69445" lon="5.37016">
        <ele>333.4</ele>
        <time>2020-06-25T17:10:13Z</time>
      </trkpt>
      <trkpt lat="49.69445" lon="5.37021">
        <ele>333.7</ele>
        <time>2020-06-25T17:10:14Z</time>
      </trkpt>
      <trkpt lat="49.69445" lon="5.37025">
        <ele>333.9</ele>
        <time>2020-06-25T17:10:15Z</time>
      </trkpt>
      <trkpt lat="49.69444" lon="5.3703">
        <ele>334.2</ele>
        <time>2020-06-25T17:10:16Z</time>
      </trkpt>
      <trkpt lat="49.69444" lon="5.37036">
        <ele>334.5</ele>
        <time>2020-06-25T17:10:17Z</time>
      </trkpt>
      <trkpt lat="49.69444" lon="5.37038">
        <ele>334.7</ele>
        <time>2020-06-25T17:10:18Z</time>
      </trkpt>
      <trkpt lat="49.69444" lon="5.37042">
        <ele>334.9</ele>
        <time>2020-06-25T17:10:19Z</time>
      </trkpt>
      <trkpt lat="49.69443" lon="5.37048">
        <ele>335.3</ele>
        <time>2020-06-25T17:10:20Z</time>
      </trkpt>
      <trkpt lat="49.69443" lon="5.3705">
        <ele>335.4</ele>
        <time>2020-06-25T17:10:21Z</time>
      </trkpt>
      <trkpt lat="49.69443" lon="5.37056">
        <ele>335.7</ele>
        <time>2020-06-25T17:10:22Z</time>
      </trkpt>
      <trkpt lat="49.69442" lon="5.37058">
        <ele>335.9</ele>
        <time>2020-06-25T17:10:23Z</time>
      </trkpt>
      <trkpt lat="49.69442" lon="5.37063">
        <ele>336.2</ele>
        <time>2020-06-25T17:10:24Z</time>
      </trkpt>
      <trkpt lat="49.69441" lon="5.37065">
        <ele>336.3</ele>
        <time>2020-06-25T17:10:25Z</time>
      </trkpt>
      <trkpt lat="49.6944" lon="5.37069">
        <ele>336.6</ele>
        <time>2020-06-25T17:10:26Z</time>
      </trkpt>
      <trkpt lat="49.6944" lon="5.37071">
        <ele>336.7</ele>
        <time>2020-06-25T17:10:27Z</time>
      </trkpt>
      <trkpt lat="49.6944" lon="5.37075">
        <ele>336.9</ele>
        <time>2020-06-25T17:10:28Z</time>
      </trkpt>
      <trkpt lat="49.6944" lon="5.37077">
        <ele>337</ele>
        <time>2020-06-25T17:10:29Z</time>
      </trkpt>
      <trkpt lat="49.69441" lon="5.37081">
        <ele>337.3</ele>
        <time>2020-06-25T17:10:30Z</time>
      </trkpt>
      <trkpt lat="49.69441" lon="5.37083">
        <ele>337.4</ele>
        <time>2020-06-25T17:10:31Z</time>
      </trkpt>
      <trkpt lat="49.69442" lon="5.37089">
        <ele>337.8</ele>
        <time>2020-06-25T17:10:32Z</time>
      </trkpt>
      <trkpt lat="49.69442" lon="5.37091">
        <ele>337.9</ele>
        <time>2020-06-25T17:10:33Z</time>
      </trkpt>
      <trkpt lat="49.69443" lon="5.37096">
        <ele>338.2</ele>
        <time>2020-06-25T17:10:34Z</time>
      </trkpt>
      <trkpt lat="49.69443" lon="5.37098">
        <ele>338.4</ele>
        <time>2020-06-25T17:10:35Z</time>
      </trkpt>
      <trkpt lat="49.69443" lon="5.37103">
        <ele>338.7</ele>
        <time>2020-06-25T17:10:36Z</time>
      </trkpt>
      <trkpt lat="49.69443" lon="5.37105">
        <ele>338.8</ele>
        <time>2020-06-25T17:10:37Z</time>
      </trkpt>
      <trkpt lat="49.69444" lon="5.3711">
        <ele>339.1</ele>
        <time>2020-06-25T17:10:38Z</time>
      </trkpt>
      <trkpt lat="49.69444" lon="5.37112">
        <ele>339.2</ele>
        <time>2020-06-25T17:10:39Z</time>
      </trkpt>
      <trkpt lat="49.69444" lon="5.37118">
        <ele>339.6</ele>
        <time>2020-06-25T17:10:40Z</time>
      </trkpt>
      <trkpt lat="49.69443" lon="5.3712">
        <ele>339.7</ele>
        <time>2020-06-25T17:10:41Z</time>
      </trkpt>
      <trkpt lat="49.69443" lon="5.37125">
        <ele>340</ele>
        <time>2020-06-25T17:10:42Z</time>
      </trkpt>
      <trkpt lat="49.69442" lon="5.37126">
        <ele>340.2</ele>
        <time>2020-06-25T17:10:43Z</time>
      </trkpt>
      <trkpt lat="49.69441" lon="5.37131">
        <ele>340.5</ele>
        <time>2020-06-25T17:10:44Z</time>
      </trkpt>
      <trkpt lat="49.6944" lon="5.37132">
        <ele>340.5</ele>
        <time>2020-06-25T17:10:45Z</time>
      </trkpt>
      <trkpt lat="49.69439" lon="5.37136">
        <ele>340.8</ele>
        <time>2020-06-25T17:10:46Z</time>
      </trkpt>
      <trkpt lat="49.69439" lon="5.37138">
        <ele>340.9</ele>
        <time>2020-06-25T17:10:47Z</time>
      </trkpt>
      <trkpt lat="49.69438" lon="5.37142">
        <ele>341.2</ele>
        <time>2020-06-25T17:10:48Z</time>
      </trkpt>
      <trkpt lat="49.69437" lon="5.37143">
        <ele>341.3</ele>
        <time>2020-06-25T17:10:49Z</time>
      </trkpt>
      <trkpt lat="49.69435" lon="5.37148">
        <ele>341.6</ele>
        <time>2020-06-25T17:10:50Z</time>
      </trkpt>
      <trkpt lat="49.69435" lon="5.37149">
        <ele>341.7</ele>
        <time>2020-06-25T17:10:51Z</time>
      </trkpt>
      <trkpt lat="49.69434" lon="5.37153">
        <ele>341.9</ele>
        <time>2020-06-25T17:10:52Z</time>
      </trkpt>
      <trkpt lat="49.69434" lon="5.37154">
        <ele>342</ele>
        <time>2020-06-25T17:10:53Z</time>
      </trkpt>
      <trkpt lat="49.69435" lon="5.37159">
        <ele>342.3</ele>
        <time>2020-06-25T17:10:54Z</time>
      </trkpt>
      <trkpt lat="49.69435" lon="5.37161">
        <ele>342.4</ele>
        <time>2020-06-25T17:10:55Z</time>
      </trkpt>
      <trkpt lat="49.69434" lon="5.37166">
        <ele>342.7</ele>
        <time>2020-06-25T17:10:56Z</time>
      </trkpt>
      <trkpt lat="49.69433" lon="5.37167">
        <ele>342.7</ele>
        <time>2020-06-25T17:10:57Z</time>
      </trkpt>
      <trkpt lat="49.69432" lon="5.37171">
        <ele>342.9</ele>
        <time>2020-06-25T17:10:58Z</time>
      </trkpt>
      <trkpt lat="49.69431" lon="5.37173">
        <ele>343</ele>
        <time>2020-06-25T17:10:59Z</time>
      </trkpt>
      <trkpt lat="49.69429" lon="5.37177">
        <ele>343.2</ele>
        <time>2020-06-25T17:11:00Z</time>
      </trkpt>
      <trkpt lat="49.69428" lon="5.37179">
        <ele>343.3</ele>
        <time>2020-06-25T17:11:01Z</time>
      </trkpt>
      <trkpt lat="49.69426" lon="5.37182">
        <ele>343.4</ele>
        <time>2020-06-25T17:11:02Z</time>
      </trkpt>
      <trkpt lat="49.69425" lon="5.37183">
        <ele>343.5</ele>
        <time>2020-06-25T17:11:03Z</time>
      </trkpt>
      <trkpt lat="49.69422" lon="5.37185">
        <ele>344.9</ele>
        <time>2020-06-25T17:11:04Z</time>
      </trkpt>
      <trkpt lat="49.69419" lon="5.37188">
        <ele>345.2</ele>
        <time>2020-06-25T17:11:05Z</time>
      </trkpt>
      <trkpt lat="49.69415" lon="5.37191">
        <ele>345.6</ele>
        <time>2020-06-25T17:11:06Z</time>
      </trkpt>
      <trkpt lat="49.69413" lon="5.37193">
        <ele>345.7</ele>
        <time>2020-06-25T17:11:07Z</time>
      </trkpt>
      <trkpt lat="49.6941" lon="5.37193">
        <ele>346</ele>
        <time>2020-06-25T17:11:08Z</time>
      </trkpt>
      <trkpt lat="49.69409" lon="5.37193">
        <ele>346</ele>
        <time>2020-06-25T17:11:09Z</time>
      </trkpt>
      <trkpt lat="49.69406" lon="5.37195">
        <ele>346.3</ele>
        <time>2020-06-25T17:11:10Z</time>
      </trkpt>
      <trkpt lat="49.69405" lon="5.37195">
        <ele>346.4</ele>
        <time>2020-06-25T17:11:11Z</time>
      </trkpt>
      <trkpt lat="49.69402" lon="5.37195">
        <ele>346.7</ele>
        <time>2020-06-25T17:11:12Z</time>
      </trkpt>
      <trkpt lat="49.69399" lon="5.37196">
        <ele>347</ele>
        <time>2020-06-25T17:11:13Z</time>
      </trkpt>
      <trkpt lat="49.69398" lon="5.37196">
        <ele>347.1</ele>
        <time>2020-06-25T17:11:14Z</time>
      </trkpt>
      <trkpt lat="49.69394" lon="5.37198">
        <ele>347.4</ele>
        <time>2020-06-25T17:11:15Z</time>
      </trkpt>
      <trkpt lat="49.69393" lon="5.37199">
        <ele>347.5</ele>
        <time>2020-06-25T17:11:16Z</time>
      </trkpt>
      <trkpt lat="49.69389" lon="5.372">
        <ele>347.8</ele>
        <time>2020-06-25T17:11:17Z</time>
      </trkpt>
      <trkpt lat="49.69388" lon="5.37201">
        <ele>347.9</ele>
        <time>2020-06-25T17:11:18Z</time>
      </trkpt>
      <trkpt lat="49.69385" lon="5.37201">
        <ele>348.1</ele>
        <time>2020-06-25T17:11:19Z</time>
      </trkpt>
      <trkpt lat="49.69382" lon="5.37203">
        <ele>348.4</ele>
        <time>2020-06-25T17:11:20Z</time>
      </trkpt>
      <trkpt lat="49.69381" lon="5.37203">
        <ele>348.5</ele>
        <time>2020-06-25T17:11:21Z</time>
      </trkpt>
      <trkpt lat="49.69378" lon="5.37204">
        <ele>348.7</ele>
        <time>2020-06-25T17:11:22Z</time>
      </trkpt>
      <trkpt lat="49.69377" lon="5.37204">
        <ele>348.8</ele>
        <time>2020-06-25T17:11:23Z</time>
      </trkpt>
      <trkpt lat="49.69374" lon="5.37206">
        <ele>349</ele>
        <time>2020-06-25T17:11:24Z</time>
      </trkpt>
      <trkpt lat="49.69372" lon="5.37207">
        <ele>349.2</ele>
        <time>2020-06-25T17:11:25Z</time>
      </trkpt>
      <trkpt lat="49.69368" lon="5.37208">
        <ele>349.4</ele>
        <time>2020-06-25T17:11:26Z</time>
      </trkpt>
      <trkpt lat="49.69366" lon="5.37209">
        <ele>349.5</ele>
        <time>2020-06-25T17:11:27Z</time>
      </trkpt>
      <trkpt lat="49.69363" lon="5.3721">
        <ele>349.6</ele>
        <time>2020-06-25T17:11:28Z</time>
      </trkpt>
      <trkpt lat="49.6936" lon="5.37213">
        <ele>349.7</ele>
        <time>2020-06-25T17:11:29Z</time>
      </trkpt>
      <trkpt lat="49.69359" lon="5.37213">
        <ele>349.8</ele>
        <time>2020-06-25T17:11:30Z</time>
      </trkpt>
      <trkpt lat="49.69356" lon="5.37215">
        <ele>349.9</ele>
        <time>2020-06-25T17:11:31Z</time>
      </trkpt>
      <trkpt lat="49.69353" lon="5.37215">
        <ele>350</ele>
        <time>2020-06-25T17:11:32Z</time>
      </trkpt>
      <trkpt lat="49.69352" lon="5.37216">
        <ele>350</ele>
        <time>2020-06-25T17:11:33Z</time>
      </trkpt>
      <trkpt lat="49.69348" lon="5.37218">
        <ele>350.1</ele>
        <time>2020-06-25T17:11:34Z</time>
      </trkpt>
      <trkpt lat="49.69347" lon="5.37219">
        <ele>350.1</ele>
        <time>2020-06-25T17:11:35Z</time>
      </trkpt>
      <trkpt lat="49.69344" lon="5.37221">
        <ele>350.2</ele>
        <time>2020-06-25T17:11:36Z</time>
      </trkpt>
      <trkpt lat="49.69343" lon="5.37221">
        <ele>350.2</ele>
        <time>2020-06-25T17:11:37Z</time>
      </trkpt>
      <trkpt lat="49.6934" lon="5.37223">
        <ele>350.3</ele>
        <time>2020-06-25T17:11:38Z</time>
      </trkpt>
      <trkpt lat="49.69336" lon="5.37225">
        <ele>350.3</ele>
        <time>2020-06-25T17:11:39Z</time>
      </trkpt>
      <trkpt lat="49.69335" lon="5.37226">
        <ele>350.3</ele>
        <time>2020-06-25T17:11:40Z</time>
      </trkpt>
      <trkpt lat="49.69333" lon="5.37229">
        <ele>350.3</ele>
        <time>2020-06-25T17:11:41Z</time>
      </trkpt>
      <trkpt lat="49.69332" lon="5.37235">
        <ele>350.3</ele>
        <time>2020-06-25T17:11:42Z</time>
      </trkpt>
      <trkpt lat="49.69332" lon="5.37238">
        <ele>350.3</ele>
        <time>2020-06-25T17:11:43Z</time>
      </trkpt>
      <trkpt lat="49.69332" lon="5.37243">
        <ele>350.4</ele>
        <time>2020-06-25T17:11:44Z</time>
      </trkpt>
      <trkpt lat="49.69331" lon="5.37247">
        <ele>350.4</ele>
        <time>2020-06-25T17:11:45Z</time>
      </trkpt>
      <trkpt lat="49.69331" lon="5.37253">
        <ele>350.5</ele>
        <time>2020-06-25T17:11:46Z</time>
      </trkpt>
      <trkpt lat="49.69331" lon="5.37258">
        <ele>350.5</ele>
        <time>2020-06-25T17:11:47Z</time>
      </trkpt>
      <trkpt lat="49.69331" lon="5.37262">
        <ele>350.6</ele>
        <time>2020-06-25T17:11:48Z</time>
      </trkpt>
      <trkpt lat="49.69331" lon="5.37267">
        <ele>350.7</ele>
        <time>2020-06-25T17:11:49Z</time>
      </trkpt>
      <trkpt lat="49.6933" lon="5.37272">
        <ele>350.8</ele>
        <time>2020-06-25T17:11:50Z</time>
      </trkpt>
      <trkpt lat="49.6933" lon="5.37277">
        <ele>350.8</ele>
        <time>2020-06-25T17:11:51Z</time>
      </trkpt>
      <trkpt lat="49.69329" lon="5.37283">
        <ele>350.9</ele>
        <time>2020-06-25T17:11:52Z</time>
      </trkpt>
      <trkpt lat="49.69329" lon="5.37288">
        <ele>350.9</ele>
        <time>2020-06-25T17:11:53Z</time>
      </trkpt>
      <trkpt lat="49.69328" lon="5.37294">
        <ele>351</ele>
        <time>2020-06-25T17:11:54Z</time>
      </trkpt>
      <trkpt lat="49.69328" lon="5.37301">
        <ele>351</ele>
        <time>2020-06-25T17:11:55Z</time>
      </trkpt>
      <trkpt lat="49.69327" lon="5.37306">
        <ele>351.1</ele>
        <time>2020-06-25T17:11:56Z</time>
      </trkpt>
      <trkpt lat="49.69328" lon="5.37312">
        <ele>351.1</ele>
        <time>2020-06-25T17:11:57Z</time>
      </trkpt>
      <trkpt lat="49.69328" lon="5.37315">
        <ele>351.1</ele>
        <time>2020-06-25T17:11:58Z</time>
      </trkpt>
      <trkpt lat="49.69328" lon="5.37322">
        <ele>351.1</ele>
        <time>2020-06-25T17:11:59Z</time>
      </trkpt>
      <trkpt lat="49.69328" lon="5.37328">
        <ele>351.2</ele>
        <time>2020-06-25T17:12:00Z</time>
      </trkpt>
      <trkpt lat="49.69329" lon="5.37336">
        <ele>351.2</ele>
        <time>2020-06-25T17:12:01Z</time>
      </trkpt>
      <trkpt lat="49.69329" lon="5.37341">
        <ele>351.1</ele>
        <time>2020-06-25T17:12:02Z</time>
      </trkpt>
      <trkpt lat="49.69329" lon="5.37343">
        <ele>351.1</ele>
        <time>2020-06-25T17:12:03Z</time>
      </trkpt>
      <trkpt lat="49.69329" lon="5.37345">
        <ele>351.1</ele>
        <time>2020-06-25T17:12:04Z</time>
      </trkpt>
      <trkpt lat="49.69329" lon="5.37351">
        <ele>351</ele>
        <time>2020-06-25T17:12:05Z</time>
      </trkpt>
      <trkpt lat="49.69329" lon="5.37353">
        <ele>351</ele>
        <time>2020-06-25T17:12:06Z</time>
      </trkpt>
      <trkpt lat="49.69328" lon="5.37359">
        <ele>350.9</ele>
        <time>2020-06-25T17:12:07Z</time>
      </trkpt>
      <trkpt lat="49.69328" lon="5.37366">
        <ele>350.8</ele>
        <time>2020-06-25T17:12:08Z</time>
      </trkpt>
      <trkpt lat="49.69326" lon="5.37373">
        <ele>350.6</ele>
        <time>2020-06-25T17:12:09Z</time>
      </trkpt>
      <trkpt lat="49.69325" lon="5.3738">
        <ele>350.4</ele>
        <time>2020-06-25T17:12:10Z</time>
      </trkpt>
      <trkpt lat="49.69322" lon="5.37387">
        <ele>350.2</ele>
        <time>2020-06-25T17:12:11Z</time>
      </trkpt>
      <trkpt lat="49.69317" lon="5.37395">
        <ele>349.9</ele>
        <time>2020-06-25T17:12:12Z</time>
      </trkpt>
      <trkpt lat="49.69312" lon="5.37403">
        <ele>349.5</ele>
        <time>2020-06-25T17:12:13Z</time>
      </trkpt>
      <trkpt lat="49.69306" lon="5.3741">
        <ele>349.2</ele>
        <time>2020-06-25T17:12:14Z</time>
      </trkpt>
      <trkpt lat="49.69301" lon="5.37416">
        <ele>349</ele>
        <time>2020-06-25T17:12:15Z</time>
      </trkpt>
      <trkpt lat="49.69295" lon="5.37423">
        <ele>348.7</ele>
        <time>2020-06-25T17:12:16Z</time>
      </trkpt>
      <trkpt lat="49.69289" lon="5.37431">
        <ele>348.5</ele>
        <time>2020-06-25T17:12:17Z</time>
      </trkpt>
      <trkpt lat="49.69283" lon="5.37438">
        <ele>348.3</ele>
        <time>2020-06-25T17:12:18Z</time>
      </trkpt>
      <trkpt lat="49.69278" lon="5.37443">
        <ele>348.1</ele>
        <time>2020-06-25T17:12:19Z</time>
      </trkpt>
      <trkpt lat="49.69273" lon="5.37449">
        <ele>347.9</ele>
        <time>2020-06-25T17:12:20Z</time>
      </trkpt>
      <trkpt lat="49.69268" lon="5.37455">
        <ele>347.7</ele>
        <time>2020-06-25T17:12:21Z</time>
      </trkpt>
      <trkpt lat="49.69263" lon="5.3746">
        <ele>347.5</ele>
        <time>2020-06-25T17:12:22Z</time>
      </trkpt>
      <trkpt lat="49.69258" lon="5.37465">
        <ele>347.5</ele>
        <time>2020-06-25T17:12:23Z</time>
      </trkpt>
      <trkpt lat="49.69254" lon="5.37467">
        <ele>347.4</ele>
        <time>2020-06-25T17:12:24Z</time>
      </trkpt>
      <trkpt lat="49.6925" lon="5.37472">
        <ele>347.4</ele>
        <time>2020-06-25T17:12:25Z</time>
      </trkpt>
      <trkpt lat="49.69247" lon="5.37478">
        <ele>347.4</ele>
        <time>2020-06-25T17:12:26Z</time>
      </trkpt>
      <trkpt lat="49.69244" lon="5.37484">
        <ele>347.4</ele>
        <time>2020-06-25T17:12:27Z</time>
      </trkpt>
      <trkpt lat="49.69241" lon="5.37491">
        <ele>347.4</ele>
        <time>2020-06-25T17:12:28Z</time>
      </trkpt>
      <trkpt lat="49.69239" lon="5.37498">
        <ele>347.4</ele>
        <time>2020-06-25T17:12:29Z</time>
      </trkpt>
      <trkpt lat="49.69237" lon="5.37505">
        <ele>347.5</ele>
        <time>2020-06-25T17:12:30Z</time>
      </trkpt>
      <trkpt lat="49.69235" lon="5.3751">
        <ele>347.6</ele>
        <time>2020-06-25T17:12:31Z</time>
      </trkpt>
      <trkpt lat="49.69233" lon="5.37517">
        <ele>347.7</ele>
        <time>2020-06-25T17:12:32Z</time>
      </trkpt>
      <trkpt lat="49.69231" lon="5.37523">
        <ele>347.8</ele>
        <time>2020-06-25T17:12:33Z</time>
      </trkpt>
      <trkpt lat="49.6923" lon="5.37529">
        <ele>347.9</ele>
        <time>2020-06-25T17:12:34Z</time>
      </trkpt>
      <trkpt lat="49.69229" lon="5.37534">
        <ele>348</ele>
        <time>2020-06-25T17:12:35Z</time>
      </trkpt>
      <trkpt lat="49.69227" lon="5.3754">
        <ele>348.1</ele>
        <time>2020-06-25T17:12:36Z</time>
      </trkpt>
      <trkpt lat="49.69225" lon="5.37548">
        <ele>348.2</ele>
        <time>2020-06-25T17:12:37Z</time>
      </trkpt>
      <trkpt lat="49.69223" lon="5.37556">
        <ele>348.2</ele>
        <time>2020-06-25T17:12:38Z</time>
      </trkpt>
      <trkpt lat="49.69222" lon="5.37565">
        <ele>348.3</ele>
        <time>2020-06-25T17:12:39Z</time>
      </trkpt>
      <trkpt lat="49.69221" lon="5.37574">
        <ele>348.4</ele>
        <time>2020-06-25T17:12:40Z</time>
      </trkpt>
      <trkpt lat="49.6922" lon="5.37583">
        <ele>348.6</ele>
        <time>2020-06-25T17:12:41Z</time>
      </trkpt>
      <trkpt lat="49.69218" lon="5.37592">
        <ele>348.7</ele>
        <time>2020-06-25T17:12:42Z</time>
      </trkpt>
      <trkpt lat="49.69217" lon="5.37597">
        <ele>348.8</ele>
        <time>2020-06-25T17:12:43Z</time>
      </trkpt>
      <trkpt lat="49.69214" lon="5.37602">
        <ele>348.9</ele>
        <time>2020-06-25T17:12:44Z</time>
      </trkpt>
      <trkpt lat="49.69212" lon="5.37608">
        <ele>349.4</ele>
        <time>2020-06-25T17:12:45Z</time>
      </trkpt>
      <trkpt lat="49.6921" lon="5.37614">
        <ele>349.7</ele>
        <time>2020-06-25T17:12:46Z</time>
      </trkpt>
      <trkpt lat="49.69208" lon="5.3762">
        <ele>350</ele>
        <time>2020-06-25T17:12:47Z</time>
      </trkpt>
      <trkpt lat="49.69206" lon="5.37624">
        <ele>350.2</ele>
        <time>2020-06-25T17:12:48Z</time>
      </trkpt>
      <trkpt lat="49.69203" lon="5.3763">
        <ele>350.5</ele>
        <time>2020-06-25T17:12:49Z</time>
      </trkpt>
      <trkpt lat="49.69198" lon="5.37636">
        <ele>350.9</ele>
        <time>2020-06-25T17:12:50Z</time>
      </trkpt>
      <trkpt lat="49.69195" lon="5.3764">
        <ele>351.1</ele>
        <time>2020-06-25T17:12:51Z</time>
      </trkpt>
      <trkpt lat="49.69192" lon="5.37644">
        <ele>351.4</ele>
        <time>2020-06-25T17:12:52Z</time>
      </trkpt>
      <trkpt lat="49.69189" lon="5.37648">
        <ele>351.7</ele>
        <time>2020-06-25T17:12:53Z</time>
      </trkpt>
      <trkpt lat="49.69188" lon="5.37652">
        <ele>351.8</ele>
        <time>2020-06-25T17:12:54Z</time>
      </trkpt>
      <trkpt lat="49.69186" lon="5.37656">
        <ele>351.9</ele>
        <time>2020-06-25T17:12:55Z</time>
      </trkpt>
      <trkpt lat="49.69183" lon="5.3766">
        <ele>352</ele>
        <time>2020-06-25T17:12:56Z</time>
      </trkpt>
      <trkpt lat="49.69181" lon="5.37666">
        <ele>352.1</ele>
        <time>2020-06-25T17:12:57Z</time>
      </trkpt>
      <trkpt lat="49.69179" lon="5.37672">
        <ele>352.3</ele>
        <time>2020-06-25T17:12:58Z</time>
      </trkpt>
      <trkpt lat="49.69178" lon="5.37677">
        <ele>352.4</ele>
        <time>2020-06-25T17:12:59Z</time>
      </trkpt>
      <trkpt lat="49.69176" lon="5.37682">
        <ele>352.5</ele>
        <time>2020-06-25T17:13:00Z</time>
      </trkpt>
      <trkpt lat="49.69175" lon="5.37687">
        <ele>352.6</ele>
        <time>2020-06-25T17:13:01Z</time>
      </trkpt>
      <trkpt lat="49.69173" lon="5.37692">
        <ele>352.9</ele>
        <time>2020-06-25T17:13:02Z</time>
      </trkpt>
      <trkpt lat="49.69171" lon="5.37696">
        <ele>353</ele>
        <time>2020-06-25T17:13:03Z</time>
      </trkpt>
      <trkpt lat="49.6917" lon="5.37702">
        <ele>353.2</ele>
        <time>2020-06-25T17:13:04Z</time>
      </trkpt>
      <trkpt lat="49.69169" lon="5.37706">
        <ele>353.3</ele>
        <time>2020-06-25T17:13:05Z</time>
      </trkpt>
      <trkpt lat="49.69168" lon="5.37712">
        <ele>353.4</ele>
        <time>2020-06-25T17:13:06Z</time>
      </trkpt>
      <trkpt lat="49.69167" lon="5.37716">
        <ele>353.5</ele>
        <time>2020-06-25T17:13:07Z</time>
      </trkpt>
      <trkpt lat="49.69165" lon="5.37722">
        <ele>353.6</ele>
        <time>2020-06-25T17:13:08Z</time>
      </trkpt>
      <trkpt lat="49.69164" lon="5.37727">
        <ele>353.7</ele>
        <time>2020-06-25T17:13:09Z</time>
      </trkpt>
      <trkpt lat="49.69162" lon="5.37731">
        <ele>353.8</ele>
        <time>2020-06-25T17:13:10Z</time>
      </trkpt>
      <trkpt lat="49.69161" lon="5.37736">
        <ele>353.9</ele>
        <time>2020-06-25T17:13:11Z</time>
      </trkpt>
      <trkpt lat="49.69159" lon="5.37742">
        <ele>354</ele>
        <time>2020-06-25T17:13:12Z</time>
      </trkpt>
      <trkpt lat="49.69159" lon="5.37745">
        <ele>354</ele>
        <time>2020-06-25T17:13:13Z</time>
      </trkpt>
      <trkpt lat="49.69159" lon="5.3775">
        <ele>354.1</ele>
        <time>2020-06-25T17:13:14Z</time>
      </trkpt>
      <trkpt lat="49.69158" lon="5.37757">
        <ele>354.2</ele>
        <time>2020-06-25T17:13:15Z</time>
      </trkpt>
      <trkpt lat="49.69157" lon="5.37763">
        <ele>354.2</ele>
        <time>2020-06-25T17:13:16Z</time>
      </trkpt>
      <trkpt lat="49.69155" lon="5.37769">
        <ele>354.3</ele>
        <time>2020-06-25T17:13:17Z</time>
      </trkpt>
      <trkpt lat="49.69154" lon="5.37775">
        <ele>354.4</ele>
        <time>2020-06-25T17:13:18Z</time>
      </trkpt>
      <trkpt lat="49.69152" lon="5.3778">
        <ele>354.4</ele>
        <time>2020-06-25T17:13:19Z</time>
      </trkpt>
      <trkpt lat="49.69152" lon="5.37786">
        <ele>354.5</ele>
        <time>2020-06-25T17:13:20Z</time>
      </trkpt>
      <trkpt lat="49.6915" lon="5.37792">
        <ele>354.5</ele>
        <time>2020-06-25T17:13:21Z</time>
      </trkpt>
      <trkpt lat="49.69149" lon="5.37799">
        <ele>354.6</ele>
        <time>2020-06-25T17:13:22Z</time>
      </trkpt>
      <trkpt lat="49.69148" lon="5.37806">
        <ele>354.7</ele>
        <time>2020-06-25T17:13:23Z</time>
      </trkpt>
      <trkpt lat="49.69146" lon="5.37812">
        <ele>354.7</ele>
        <time>2020-06-25T17:13:24Z</time>
      </trkpt>
      <trkpt lat="49.69145" lon="5.3782">
        <ele>354.8</ele>
        <time>2020-06-25T17:13:25Z</time>
      </trkpt>
      <trkpt lat="49.69143" lon="5.37825">
        <ele>354.8</ele>
        <time>2020-06-25T17:13:26Z</time>
      </trkpt>
      <trkpt lat="49.69141" lon="5.37832">
        <ele>354.8</ele>
        <time>2020-06-25T17:13:27Z</time>
      </trkpt>
      <trkpt lat="49.6914" lon="5.37837">
        <ele>354.9</ele>
        <time>2020-06-25T17:13:28Z</time>
      </trkpt>
      <trkpt lat="49.69139" lon="5.37843">
        <ele>354.9</ele>
        <time>2020-06-25T17:13:29Z</time>
      </trkpt>
      <trkpt lat="49.69138" lon="5.3785">
        <ele>354.9</ele>
        <time>2020-06-25T17:13:30Z</time>
      </trkpt>
      <trkpt lat="49.69137" lon="5.37856">
        <ele>354.9</ele>
        <time>2020-06-25T17:13:31Z</time>
      </trkpt>
      <trkpt lat="49.69136" lon="5.37861">
        <ele>355</ele>
        <time>2020-06-25T17:13:32Z</time>
      </trkpt>
      <trkpt lat="49.69135" lon="5.37868">
        <ele>355</ele>
        <time>2020-06-25T17:13:33Z</time>
      </trkpt>
      <trkpt lat="49.69133" lon="5.37875">
        <ele>355</ele>
        <time>2020-06-25T17:13:34Z</time>
      </trkpt>
      <trkpt lat="49.69132" lon="5.37882">
        <ele>355.1</ele>
        <time>2020-06-25T17:13:35Z</time>
      </trkpt>
      <trkpt lat="49.6913" lon="5.37889">
        <ele>355.1</ele>
        <time>2020-06-25T17:13:36Z</time>
      </trkpt>
      <trkpt lat="49.69129" lon="5.37896">
        <ele>355.1</ele>
        <time>2020-06-25T17:13:37Z</time>
      </trkpt>
      <trkpt lat="49.69128" lon="5.37903">
        <ele>355.2</ele>
        <time>2020-06-25T17:13:38Z</time>
      </trkpt>
      <trkpt lat="49.69125" lon="5.37908">
        <ele>355.2</ele>
        <time>2020-06-25T17:13:39Z</time>
      </trkpt>
      <trkpt lat="49.69123" lon="5.37913">
        <ele>355.3</ele>
        <time>2020-06-25T17:13:40Z</time>
      </trkpt>
      <trkpt lat="49.69122" lon="5.3792">
        <ele>355.3</ele>
        <time>2020-06-25T17:13:41Z</time>
      </trkpt>
      <trkpt lat="49.6912" lon="5.37926">
        <ele>355.2</ele>
        <time>2020-06-25T17:13:42Z</time>
      </trkpt>
      <trkpt lat="49.69118" lon="5.37934">
        <ele>355.1</ele>
        <time>2020-06-25T17:13:43Z</time>
      </trkpt>
      <trkpt lat="49.69115" lon="5.37941">
        <ele>354.9</ele>
        <time>2020-06-25T17:13:44Z</time>
      </trkpt>
      <trkpt lat="49.69113" lon="5.37948">
        <ele>354.8</ele>
        <time>2020-06-25T17:13:45Z</time>
      </trkpt>
      <trkpt lat="49.6911" lon="5.37955">
        <ele>354.6</ele>
        <time>2020-06-25T17:13:46Z</time>
      </trkpt>
      <trkpt lat="49.69107" lon="5.37962">
        <ele>354.5</ele>
        <time>2020-06-25T17:13:47Z</time>
      </trkpt>
      <trkpt lat="49.69105" lon="5.37969">
        <ele>354.4</ele>
        <time>2020-06-25T17:13:48Z</time>
      </trkpt>
      <trkpt lat="49.69102" lon="5.37976">
        <ele>354.2</ele>
        <time>2020-06-25T17:13:49Z</time>
      </trkpt>
      <trkpt lat="49.691" lon="5.37984">
        <ele>354.1</ele>
        <time>2020-06-25T17:13:50Z</time>
      </trkpt>
      <trkpt lat="49.69098" lon="5.37992">
        <ele>354</ele>
        <time>2020-06-25T17:13:51Z</time>
      </trkpt>
      <trkpt lat="49.69096" lon="5.38">
        <ele>353.9</ele>
        <time>2020-06-25T17:13:52Z</time>
      </trkpt>
      <trkpt lat="49.69094" lon="5.38006">
        <ele>353.8</ele>
        <time>2020-06-25T17:13:53Z</time>
      </trkpt>
      <trkpt lat="49.69091" lon="5.38015">
        <ele>353.8</ele>
        <time>2020-06-25T17:13:54Z</time>
      </trkpt>
      <trkpt lat="49.69089" lon="5.38024">
        <ele>353.7</ele>
        <time>2020-06-25T17:13:55Z</time>
      </trkpt>
      <trkpt lat="49.69088" lon="5.38032">
        <ele>353.7</ele>
        <time>2020-06-25T17:13:56Z</time>
      </trkpt>
      <trkpt lat="49.69086" lon="5.3804">
        <ele>353.7</ele>
        <time>2020-06-25T17:13:57Z</time>
      </trkpt>
      <trkpt lat="49.69083" lon="5.38048">
        <ele>353.7</ele>
        <time>2020-06-25T17:13:58Z</time>
      </trkpt>
      <trkpt lat="49.6908" lon="5.38055">
        <ele>353.8</ele>
        <time>2020-06-25T17:13:59Z</time>
      </trkpt>
      <trkpt lat="49.69078" lon="5.38061">
        <ele>353.8</ele>
        <time>2020-06-25T17:14:00Z</time>
      </trkpt>
      <trkpt lat="49.69076" lon="5.38068">
        <ele>353.9</ele>
        <time>2020-06-25T17:14:01Z</time>
      </trkpt>
      <trkpt lat="49.69074" lon="5.38075">
        <ele>353.9</ele>
        <time>2020-06-25T17:14:02Z</time>
      </trkpt>
      <trkpt lat="49.69071" lon="5.38081">
        <ele>354</ele>
        <time>2020-06-25T17:14:03Z</time>
      </trkpt>
      <trkpt lat="49.69068" lon="5.38088">
        <ele>354</ele>
        <time>2020-06-25T17:14:04Z</time>
      </trkpt>
      <trkpt lat="49.69066" lon="5.38095">
        <ele>354</ele>
        <time>2020-06-25T17:14:05Z</time>
      </trkpt>
      <trkpt lat="49.69063" lon="5.38103">
        <ele>354</ele>
        <time>2020-06-25T17:14:06Z</time>
      </trkpt>
      <trkpt lat="49.69062" lon="5.38111">
        <ele>354</ele>
        <time>2020-06-25T17:14:07Z</time>
      </trkpt>
      <trkpt lat="49.69059" lon="5.38118">
        <ele>354.3</ele>
        <time>2020-06-25T17:14:08Z</time>
      </trkpt>
      <trkpt lat="49.69056" lon="5.38124">
        <ele>354.5</ele>
        <time>2020-06-25T17:14:09Z</time>
      </trkpt>
      <trkpt lat="49.69054" lon="5.38132">
        <ele>354.6</ele>
        <time>2020-06-25T17:14:10Z</time>
      </trkpt>
      <trkpt lat="49.69053" lon="5.3814">
        <ele>354.7</ele>
        <time>2020-06-25T17:14:11Z</time>
      </trkpt>
      <trkpt lat="49.69051" lon="5.38147">
        <ele>354.8</ele>
        <time>2020-06-25T17:14:12Z</time>
      </trkpt>
      <trkpt lat="49.6905" lon="5.38156">
        <ele>354.9</ele>
        <time>2020-06-25T17:14:13Z</time>
      </trkpt>
      <trkpt lat="49.69049" lon="5.38164">
        <ele>355</ele>
        <time>2020-06-25T17:14:14Z</time>
      </trkpt>
      <trkpt lat="49.69048" lon="5.3817">
        <ele>355.2</ele>
        <time>2020-06-25T17:14:15Z</time>
      </trkpt>
      <trkpt lat="49.69047" lon="5.38175">
        <ele>355.3</ele>
        <time>2020-06-25T17:14:16Z</time>
      </trkpt>
      <trkpt lat="49.69046" lon="5.38182">
        <ele>355.5</ele>
        <time>2020-06-25T17:14:17Z</time>
      </trkpt>
      <trkpt lat="49.69044" lon="5.3819">
        <ele>355.7</ele>
        <time>2020-06-25T17:14:18Z</time>
      </trkpt>
      <trkpt lat="49.69043" lon="5.38197">
        <ele>355.8</ele>
        <time>2020-06-25T17:14:19Z</time>
      </trkpt>
      <trkpt lat="49.69042" lon="5.38205">
        <ele>356</ele>
        <time>2020-06-25T17:14:20Z</time>
      </trkpt>
      <trkpt lat="49.69042" lon="5.3821">
        <ele>356.1</ele>
        <time>2020-06-25T17:14:21Z</time>
      </trkpt>
      <trkpt lat="49.69041" lon="5.38216">
        <ele>356.2</ele>
        <time>2020-06-25T17:14:22Z</time>
      </trkpt>
      <trkpt lat="49.69039" lon="5.38223">
        <ele>356.3</ele>
        <time>2020-06-25T17:14:23Z</time>
      </trkpt>
      <trkpt lat="49.69038" lon="5.38231">
        <ele>356.5</ele>
        <time>2020-06-25T17:14:24Z</time>
      </trkpt>
      <trkpt lat="49.69036" lon="5.38239">
        <ele>356.7</ele>
        <time>2020-06-25T17:14:25Z</time>
      </trkpt>
      <trkpt lat="49.69035" lon="5.38246">
        <ele>356.9</ele>
        <time>2020-06-25T17:14:26Z</time>
      </trkpt>
      <trkpt lat="49.69035" lon="5.38254">
        <ele>357</ele>
        <time>2020-06-25T17:14:27Z</time>
      </trkpt>
      <trkpt lat="49.69034" lon="5.38261">
        <ele>357.1</ele>
        <time>2020-06-25T17:14:28Z</time>
      </trkpt>
      <trkpt lat="49.69034" lon="5.38267">
        <ele>357.2</ele>
        <time>2020-06-25T17:14:29Z</time>
      </trkpt>
      <trkpt lat="49.69033" lon="5.38274">
        <ele>357.3</ele>
        <time>2020-06-25T17:14:30Z</time>
      </trkpt>
      <trkpt lat="49.69032" lon="5.38281">
        <ele>357.4</ele>
        <time>2020-06-25T17:14:31Z</time>
      </trkpt>
      <trkpt lat="49.6903" lon="5.38289">
        <ele>357.6</ele>
        <time>2020-06-25T17:14:32Z</time>
      </trkpt>
      <trkpt lat="49.69028" lon="5.38296">
        <ele>357.7</ele>
        <time>2020-06-25T17:14:33Z</time>
      </trkpt>
      <trkpt lat="49.69026" lon="5.38303">
        <ele>357.8</ele>
        <time>2020-06-25T17:14:34Z</time>
      </trkpt>
      <trkpt lat="49.69024" lon="5.3831">
        <ele>357.9</ele>
        <time>2020-06-25T17:14:35Z</time>
      </trkpt>
      <trkpt lat="49.69022" lon="5.38316">
        <ele>358</ele>
        <time>2020-06-25T17:14:36Z</time>
      </trkpt>
      <trkpt lat="49.6902" lon="5.38322">
        <ele>358.1</ele>
        <time>2020-06-25T17:14:37Z</time>
      </trkpt>
      <trkpt lat="49.69017" lon="5.38328">
        <ele>358.2</ele>
        <time>2020-06-25T17:14:38Z</time>
      </trkpt>
      <trkpt lat="49.69013" lon="5.38333">
        <ele>358.3</ele>
        <time>2020-06-25T17:14:39Z</time>
      </trkpt>
      <trkpt lat="49.6901" lon="5.3834">
        <ele>358.5</ele>
        <time>2020-06-25T17:14:40Z</time>
      </trkpt>
      <trkpt lat="49.69009" lon="5.38348">
        <ele>358.6</ele>
        <time>2020-06-25T17:14:41Z</time>
      </trkpt>
      <trkpt lat="49.69006" lon="5.38355">
        <ele>358.6</ele>
        <time>2020-06-25T17:14:42Z</time>
      </trkpt>
      <trkpt lat="49.69004" lon="5.38361">
        <ele>358.7</ele>
        <time>2020-06-25T17:14:43Z</time>
      </trkpt>
      <trkpt lat="49.69002" lon="5.38367">
        <ele>358.7</ele>
        <time>2020-06-25T17:14:44Z</time>
      </trkpt>
      <trkpt lat="49.69" lon="5.38372">
        <ele>358.7</ele>
        <time>2020-06-25T17:14:45Z</time>
      </trkpt>
      <trkpt lat="49.68998" lon="5.38377">
        <ele>358.8</ele>
        <time>2020-06-25T17:14:46Z</time>
      </trkpt>
      <trkpt lat="49.68995" lon="5.38383">
        <ele>358.8</ele>
        <time>2020-06-25T17:14:47Z</time>
      </trkpt>
      <trkpt lat="49.68992" lon="5.38389">
        <ele>358.9</ele>
        <time>2020-06-25T17:14:48Z</time>
      </trkpt>
      <trkpt lat="49.6899" lon="5.38395">
        <ele>358.9</ele>
        <time>2020-06-25T17:14:49Z</time>
      </trkpt>
      <trkpt lat="49.68987" lon="5.38402">
        <ele>359</ele>
        <time>2020-06-25T17:14:50Z</time>
      </trkpt>
      <trkpt lat="49.68984" lon="5.38409">
        <ele>359.1</ele>
        <time>2020-06-25T17:14:51Z</time>
      </trkpt>
      <trkpt lat="49.68981" lon="5.38415">
        <ele>359.1</ele>
        <time>2020-06-25T17:14:52Z</time>
      </trkpt>
      <trkpt lat="49.68977" lon="5.38422">
        <ele>359.2</ele>
        <time>2020-06-25T17:14:53Z</time>
      </trkpt>
      <trkpt lat="49.68974" lon="5.38428">
        <ele>359.3</ele>
        <time>2020-06-25T17:14:54Z</time>
      </trkpt>
      <trkpt lat="49.68972" lon="5.38434">
        <ele>359.4</ele>
        <time>2020-06-25T17:14:55Z</time>
      </trkpt>
      <trkpt lat="49.68971" lon="5.3844">
        <ele>359.5</ele>
        <time>2020-06-25T17:14:56Z</time>
      </trkpt>
      <trkpt lat="49.68969" lon="5.38444">
        <ele>359.6</ele>
        <time>2020-06-25T17:14:57Z</time>
      </trkpt>
      <trkpt lat="49.68967" lon="5.38449">
        <ele>359.7</ele>
        <time>2020-06-25T17:14:58Z</time>
      </trkpt>
      <trkpt lat="49.68964" lon="5.38455">
        <ele>359.8</ele>
        <time>2020-06-25T17:14:59Z</time>
      </trkpt>
      <trkpt lat="49.68962" lon="5.3846">
        <ele>359.9</ele>
        <time>2020-06-25T17:15:00Z</time>
      </trkpt>
      <trkpt lat="49.68959" lon="5.38466">
        <ele>360</ele>
        <time>2020-06-25T17:15:01Z</time>
      </trkpt>
      <trkpt lat="49.68957" lon="5.38472">
        <ele>360.2</ele>
        <time>2020-06-25T17:15:02Z</time>
      </trkpt>
      <trkpt lat="49.68954" lon="5.38477">
        <ele>360.3</ele>
        <time>2020-06-25T17:15:03Z</time>
      </trkpt>
      <trkpt lat="49.68952" lon="5.38482">
        <ele>360.4</ele>
        <time>2020-06-25T17:15:04Z</time>
      </trkpt>
      <trkpt lat="49.6895" lon="5.38486">
        <ele>360.6</ele>
        <time>2020-06-25T17:15:05Z</time>
      </trkpt>
      <trkpt lat="49.68948" lon="5.38491">
        <ele>360.7</ele>
        <time>2020-06-25T17:15:06Z</time>
      </trkpt>
      <trkpt lat="49.68945" lon="5.38495">
        <ele>360.9</ele>
        <time>2020-06-25T17:15:07Z</time>
      </trkpt>
      <trkpt lat="49.68943" lon="5.38499">
        <ele>361</ele>
        <time>2020-06-25T17:15:08Z</time>
      </trkpt>
      <trkpt lat="49.68942" lon="5.38505">
        <ele>361.2</ele>
        <time>2020-06-25T17:15:09Z</time>
      </trkpt>
      <trkpt lat="49.68939" lon="5.3851">
        <ele>361.3</ele>
        <time>2020-06-25T17:15:10Z</time>
      </trkpt>
      <trkpt lat="49.68938" lon="5.38515">
        <ele>361.4</ele>
        <time>2020-06-25T17:15:11Z</time>
      </trkpt>
      <trkpt lat="49.68935" lon="5.3852">
        <ele>361.6</ele>
        <time>2020-06-25T17:15:12Z</time>
      </trkpt>
      <trkpt lat="49.68933" lon="5.38525">
        <ele>361.7</ele>
        <time>2020-06-25T17:15:13Z</time>
      </trkpt>
      <trkpt lat="49.68931" lon="5.38531">
        <ele>361.8</ele>
        <time>2020-06-25T17:15:14Z</time>
      </trkpt>
      <trkpt lat="49.68928" lon="5.38539">
        <ele>362</ele>
        <time>2020-06-25T17:15:15Z</time>
      </trkpt>
      <trkpt lat="49.68926" lon="5.38544">
        <ele>362.2</ele>
        <time>2020-06-25T17:15:16Z</time>
      </trkpt>
      <trkpt lat="49.68923" lon="5.38549">
        <ele>362.3</ele>
        <time>2020-06-25T17:15:17Z</time>
      </trkpt>
      <trkpt lat="49.6892" lon="5.38553">
        <ele>362.5</ele>
        <time>2020-06-25T17:15:18Z</time>
      </trkpt>
      <trkpt lat="49.68917" lon="5.38555">
        <ele>362.6</ele>
        <time>2020-06-25T17:15:19Z</time>
      </trkpt>
      <trkpt lat="49.68914" lon="5.38558">
        <ele>362.7</ele>
        <time>2020-06-25T17:15:20Z</time>
      </trkpt>
      <trkpt lat="49.6891" lon="5.3856">
        <ele>362.9</ele>
        <time>2020-06-25T17:15:21Z</time>
      </trkpt>
      <trkpt lat="49.68907" lon="5.38563">
        <ele>363</ele>
        <time>2020-06-25T17:15:22Z</time>
      </trkpt>
      <trkpt lat="49.68907" lon="5.38564">
        <ele>363</ele>
        <time>2020-06-25T17:15:23Z</time>
      </trkpt>
      <trkpt lat="49.68905" lon="5.38564">
        <ele>363.1</ele>
        <time>2020-06-25T17:15:24Z</time>
      </trkpt>
      <trkpt lat="49.68904" lon="5.38566">
        <ele>363.2</ele>
        <time>2020-06-25T17:15:25Z</time>
      </trkpt>
      <trkpt lat="49.68903" lon="5.38568">
        <ele>363.2</ele>
        <time>2020-06-25T17:15:26Z</time>
      </trkpt>
      <trkpt lat="49.68902" lon="5.3857">
        <ele>363.3</ele>
        <time>2020-06-25T17:15:27Z</time>
      </trkpt>
      <trkpt lat="49.68899" lon="5.38573">
        <ele>363.4</ele>
        <time>2020-06-25T17:15:28Z</time>
      </trkpt>
      <trkpt lat="49.68899" lon="5.38574">
        <ele>363.4</ele>
        <time>2020-06-25T17:15:29Z</time>
      </trkpt>
      <trkpt lat="49.68898" lon="5.3858">
        <ele>363.6</ele>
        <time>2020-06-25T17:15:30Z</time>
      </trkpt>
      <trkpt lat="49.68897" lon="5.38582">
        <ele>363.6</ele>
        <time>2020-06-25T17:15:31Z</time>
      </trkpt>
      <trkpt lat="49.68898" lon="5.38588">
        <ele>363.8</ele>
        <time>2020-06-25T17:15:32Z</time>
      </trkpt>
      <trkpt lat="49.68899" lon="5.38594">
        <ele>363.9</ele>
        <time>2020-06-25T17:15:33Z</time>
      </trkpt>
      <trkpt lat="49.68899" lon="5.386">
        <ele>364</ele>
        <time>2020-06-25T17:15:34Z</time>
      </trkpt>
      <trkpt lat="49.68899" lon="5.38606">
        <ele>364</ele>
        <time>2020-06-25T17:15:35Z</time>
      </trkpt>
      <trkpt lat="49.68899" lon="5.38611">
        <ele>364</ele>
        <time>2020-06-25T17:15:36Z</time>
      </trkpt>
      <trkpt lat="49.68901" lon="5.38617">
        <ele>363.9</ele>
        <time>2020-06-25T17:15:37Z</time>
      </trkpt>
      <trkpt lat="49.68902" lon="5.38623">
        <ele>363.9</ele>
        <time>2020-06-25T17:15:38Z</time>
      </trkpt>
      <trkpt lat="49.68903" lon="5.3863">
        <ele>363.9</ele>
        <time>2020-06-25T17:15:39Z</time>
      </trkpt>
      <trkpt lat="49.68904" lon="5.38637">
        <ele>363.9</ele>
        <time>2020-06-25T17:15:40Z</time>
      </trkpt>
      <trkpt lat="49.68906" lon="5.38645">
        <ele>363.9</ele>
        <time>2020-06-25T17:15:41Z</time>
      </trkpt>
      <trkpt lat="49.68907" lon="5.38653">
        <ele>363.8</ele>
        <time>2020-06-25T17:15:42Z</time>
      </trkpt>
      <trkpt lat="49.68909" lon="5.38662">
        <ele>363.8</ele>
        <time>2020-06-25T17:15:43Z</time>
      </trkpt>
      <trkpt lat="49.68909" lon="5.3867">
        <ele>363.8</ele>
        <time>2020-06-25T17:15:44Z</time>
      </trkpt>
      <trkpt lat="49.68911" lon="5.38677">
        <ele>363.7</ele>
        <time>2020-06-25T17:15:45Z</time>
      </trkpt>
      <trkpt lat="49.68912" lon="5.38687">
        <ele>363.6</ele>
        <time>2020-06-25T17:15:46Z</time>
      </trkpt>
      <trkpt lat="49.68912" lon="5.38693">
        <ele>363.6</ele>
        <time>2020-06-25T17:15:47Z</time>
      </trkpt>
      <trkpt lat="49.68913" lon="5.38701">
        <ele>363.5</ele>
        <time>2020-06-25T17:15:48Z</time>
      </trkpt>
      <trkpt lat="49.68913" lon="5.38708">
        <ele>363.5</ele>
        <time>2020-06-25T17:15:49Z</time>
      </trkpt>
      <trkpt lat="49.68913" lon="5.38717">
        <ele>363.5</ele>
        <time>2020-06-25T17:15:50Z</time>
      </trkpt>
      <trkpt lat="49.68913" lon="5.38725">
        <ele>363.5</ele>
        <time>2020-06-25T17:15:51Z</time>
      </trkpt>
      <trkpt lat="49.68914" lon="5.38734">
        <ele>363.4</ele>
        <time>2020-06-25T17:15:52Z</time>
      </trkpt>
      <trkpt lat="49.68915" lon="5.38742">
        <ele>363.4</ele>
        <time>2020-06-25T17:15:53Z</time>
      </trkpt>
      <trkpt lat="49.68915" lon="5.38749">
        <ele>363.4</ele>
        <time>2020-06-25T17:15:54Z</time>
      </trkpt>
      <trkpt lat="49.68915" lon="5.38756">
        <ele>363.3</ele>
        <time>2020-06-25T17:15:55Z</time>
      </trkpt>
      <trkpt lat="49.68916" lon="5.38764">
        <ele>363.3</ele>
        <time>2020-06-25T17:15:56Z</time>
      </trkpt>
      <trkpt lat="49.68916" lon="5.38771">
        <ele>363.3</ele>
        <time>2020-06-25T17:15:57Z</time>
      </trkpt>
      <trkpt lat="49.68916" lon="5.38779">
        <ele>363.3</ele>
        <time>2020-06-25T17:15:58Z</time>
      </trkpt>
      <trkpt lat="49.68917" lon="5.38787">
        <ele>363.2</ele>
        <time>2020-06-25T17:15:59Z</time>
      </trkpt>
      <trkpt lat="49.68917" lon="5.38795">
        <ele>363.2</ele>
        <time>2020-06-25T17:16:00Z</time>
      </trkpt>
      <trkpt lat="49.68917" lon="5.38804">
        <ele>363.2</ele>
        <time>2020-06-25T17:16:01Z</time>
      </trkpt>
      <trkpt lat="49.68917" lon="5.38812">
        <ele>363.2</ele>
        <time>2020-06-25T17:16:02Z</time>
      </trkpt>
      <trkpt lat="49.68917" lon="5.38819">
        <ele>363.1</ele>
        <time>2020-06-25T17:16:03Z</time>
      </trkpt>
      <trkpt lat="49.68918" lon="5.38828">
        <ele>363.1</ele>
        <time>2020-06-25T17:16:04Z</time>
      </trkpt>
      <trkpt lat="49.68918" lon="5.38835">
        <ele>363.1</ele>
        <time>2020-06-25T17:16:05Z</time>
      </trkpt>
      <trkpt lat="49.68918" lon="5.38843">
        <ele>363.1</ele>
        <time>2020-06-25T17:16:06Z</time>
      </trkpt>
      <trkpt lat="49.68919" lon="5.38852">
        <ele>363.1</ele>
        <time>2020-06-25T17:16:07Z</time>
      </trkpt>
      <trkpt lat="49.6892" lon="5.38861">
        <ele>363.2</ele>
        <time>2020-06-25T17:16:08Z</time>
      </trkpt>
      <trkpt lat="49.68921" lon="5.38868">
        <ele>363.2</ele>
        <time>2020-06-25T17:16:09Z</time>
      </trkpt>
      <trkpt lat="49.68922" lon="5.38877">
        <ele>363.1</ele>
        <time>2020-06-25T17:16:10Z</time>
      </trkpt>
      <trkpt lat="49.68921" lon="5.38885">
        <ele>363.1</ele>
        <time>2020-06-25T17:16:11Z</time>
      </trkpt>
      <trkpt lat="49.68922" lon="5.38894">
        <ele>363</ele>
        <time>2020-06-25T17:16:12Z</time>
      </trkpt>
      <trkpt lat="49.68922" lon="5.38903">
        <ele>363</ele>
        <time>2020-06-25T17:16:13Z</time>
      </trkpt>
      <trkpt lat="49.68921" lon="5.38911">
        <ele>363</ele>
        <time>2020-06-25T17:16:14Z</time>
      </trkpt>
      <trkpt lat="49.68921" lon="5.38919">
        <ele>362.9</ele>
        <time>2020-06-25T17:16:15Z</time>
      </trkpt>
      <trkpt lat="49.68921" lon="5.38927">
        <ele>362.9</ele>
        <time>2020-06-25T17:16:16Z</time>
      </trkpt>
      <trkpt lat="49.68921" lon="5.38936">
        <ele>362.9</ele>
        <time>2020-06-25T17:16:17Z</time>
      </trkpt>
      <trkpt lat="49.68922" lon="5.38946">
        <ele>363</ele>
        <time>2020-06-25T17:16:18Z</time>
      </trkpt>
      <trkpt lat="49.68922" lon="5.38954">
        <ele>363</ele>
        <time>2020-06-25T17:16:19Z</time>
      </trkpt>
      <trkpt lat="49.68922" lon="5.38963">
        <ele>363</ele>
        <time>2020-06-25T17:16:20Z</time>
      </trkpt>
      <trkpt lat="49.68922" lon="5.38971">
        <ele>363</ele>
        <time>2020-06-25T17:16:21Z</time>
      </trkpt>
      <trkpt lat="49.68922" lon="5.3898">
        <ele>363</ele>
        <time>2020-06-25T17:16:22Z</time>
      </trkpt>
      <trkpt lat="49.68922" lon="5.38989">
        <ele>362.9</ele>
        <time>2020-06-25T17:16:23Z</time>
      </trkpt>
      <trkpt lat="49.68922" lon="5.38998">
        <ele>362.9</ele>
        <time>2020-06-25T17:16:24Z</time>
      </trkpt>
      <trkpt lat="49.68922" lon="5.39008">
        <ele>362.8</ele>
        <time>2020-06-25T17:16:25Z</time>
      </trkpt>
      <trkpt lat="49.68922" lon="5.39016">
        <ele>362.8</ele>
        <time>2020-06-25T17:16:26Z</time>
      </trkpt>
      <trkpt lat="49.68923" lon="5.39023">
        <ele>362.7</ele>
        <time>2020-06-25T17:16:27Z</time>
      </trkpt>
      <trkpt lat="49.68923" lon="5.39031">
        <ele>362.6</ele>
        <time>2020-06-25T17:16:28Z</time>
      </trkpt>
      <trkpt lat="49.68923" lon="5.39039">
        <ele>362.5</ele>
        <time>2020-06-25T17:16:29Z</time>
      </trkpt>
      <trkpt lat="49.68923" lon="5.39047">
        <ele>362.4</ele>
        <time>2020-06-25T17:16:30Z</time>
      </trkpt>
      <trkpt lat="49.68923" lon="5.39055">
        <ele>362.3</ele>
        <time>2020-06-25T17:16:31Z</time>
      </trkpt>
      <trkpt lat="49.68923" lon="5.39064">
        <ele>362</ele>
        <time>2020-06-25T17:16:32Z</time>
      </trkpt>
      <trkpt lat="49.68923" lon="5.39073">
        <ele>361.8</ele>
        <time>2020-06-25T17:16:33Z</time>
      </trkpt>
      <trkpt lat="49.68922" lon="5.39081">
        <ele>361.5</ele>
        <time>2020-06-25T17:16:34Z</time>
      </trkpt>
      <trkpt lat="49.68921" lon="5.3909">
        <ele>361.3</ele>
        <time>2020-06-25T17:16:35Z</time>
      </trkpt>
      <trkpt lat="49.68919" lon="5.39099">
        <ele>360.9</ele>
        <time>2020-06-25T17:16:36Z</time>
      </trkpt>
      <trkpt lat="49.68918" lon="5.39108">
        <ele>360.6</ele>
        <time>2020-06-25T17:16:37Z</time>
      </trkpt>
      <trkpt lat="49.68916" lon="5.39118">
        <ele>360.2</ele>
        <time>2020-06-25T17:16:38Z</time>
      </trkpt>
      <trkpt lat="49.68914" lon="5.39128">
        <ele>359.9</ele>
        <time>2020-06-25T17:16:39Z</time>
      </trkpt>
      <trkpt lat="49.68913" lon="5.39138">
        <ele>359.5</ele>
        <time>2020-06-25T17:16:40Z</time>
      </trkpt>
      <trkpt lat="49.6891" lon="5.3915">
        <ele>359.1</ele>
        <time>2020-06-25T17:16:41Z</time>
      </trkpt>
      <trkpt lat="49.68907" lon="5.39163">
        <ele>358.5</ele>
        <time>2020-06-25T17:16:42Z</time>
      </trkpt>
      <trkpt lat="49.68904" lon="5.39176">
        <ele>358</ele>
        <time>2020-06-25T17:16:43Z</time>
      </trkpt>
      <trkpt lat="49.68902" lon="5.3919">
        <ele>357.5</ele>
        <time>2020-06-25T17:16:44Z</time>
      </trkpt>
      <trkpt lat="49.68898" lon="5.39203">
        <ele>357</ele>
        <time>2020-06-25T17:16:45Z</time>
      </trkpt>
      <trkpt lat="49.68894" lon="5.39216">
        <ele>356.5</ele>
        <time>2020-06-25T17:16:46Z</time>
      </trkpt>
      <trkpt lat="49.68891" lon="5.3923">
        <ele>356</ele>
        <time>2020-06-25T17:16:47Z</time>
      </trkpt>
      <trkpt lat="49.68888" lon="5.39245">
        <ele>355.4</ele>
        <time>2020-06-25T17:16:48Z</time>
      </trkpt>
      <trkpt lat="49.68885" lon="5.3926">
        <ele>354.9</ele>
        <time>2020-06-25T17:16:49Z</time>
      </trkpt>
      <trkpt lat="49.68882" lon="5.39273">
        <ele>354.4</ele>
        <time>2020-06-25T17:16:50Z</time>
      </trkpt>
      <trkpt lat="49.68878" lon="5.39287">
        <ele>353.8</ele>
        <time>2020-06-25T17:16:51Z</time>
      </trkpt>
      <trkpt lat="49.68876" lon="5.39301">
        <ele>353.3</ele>
        <time>2020-06-25T17:16:52Z</time>
      </trkpt>
      <trkpt lat="49.68874" lon="5.39316">
        <ele>352.8</ele>
        <time>2020-06-25T17:16:53Z</time>
      </trkpt>
      <trkpt lat="49.68873" lon="5.39331">
        <ele>352.2</ele>
        <time>2020-06-25T17:16:54Z</time>
      </trkpt>
      <trkpt lat="49.68872" lon="5.39347">
        <ele>351.7</ele>
        <time>2020-06-25T17:16:55Z</time>
      </trkpt>
      <trkpt lat="49.68872" lon="5.39363">
        <ele>351.1</ele>
        <time>2020-06-25T17:16:56Z</time>
      </trkpt>
      <trkpt lat="49.68872" lon="5.39379">
        <ele>350.5</ele>
        <time>2020-06-25T17:16:57Z</time>
      </trkpt>
      <trkpt lat="49.68873" lon="5.39395">
        <ele>350</ele>
        <time>2020-06-25T17:16:58Z</time>
      </trkpt>
      <trkpt lat="49.68873" lon="5.39411">
        <ele>349.5</ele>
        <time>2020-06-25T17:16:59Z</time>
      </trkpt>
      <trkpt lat="49.68873" lon="5.39426">
        <ele>349</ele>
        <time>2020-06-25T17:17:00Z</time>
      </trkpt>
      <trkpt lat="49.68874" lon="5.39442">
        <ele>348.5</ele>
        <time>2020-06-25T17:17:01Z</time>
      </trkpt>
      <trkpt lat="49.68874" lon="5.39456">
        <ele>348.1</ele>
        <time>2020-06-25T17:17:02Z</time>
      </trkpt>
      <trkpt lat="49.68874" lon="5.39471">
        <ele>347.6</ele>
        <time>2020-06-25T17:17:03Z</time>
      </trkpt>
      <trkpt lat="49.68874" lon="5.39487">
        <ele>347.2</ele>
        <time>2020-06-25T17:17:04Z</time>
      </trkpt>
      <trkpt lat="49.68874" lon="5.39502">
        <ele>346.8</ele>
        <time>2020-06-25T17:17:05Z</time>
      </trkpt>
      <trkpt lat="49.68874" lon="5.39516">
        <ele>346.4</ele>
        <time>2020-06-25T17:17:06Z</time>
      </trkpt>
      <trkpt lat="49.68875" lon="5.39531">
        <ele>346.1</ele>
        <time>2020-06-25T17:17:07Z</time>
      </trkpt>
      <trkpt lat="49.68876" lon="5.39546">
        <ele>345.9</ele>
        <time>2020-06-25T17:17:08Z</time>
      </trkpt>
      <trkpt lat="49.68876" lon="5.39561">
        <ele>345.6</ele>
        <time>2020-06-25T17:17:09Z</time>
      </trkpt>
      <trkpt lat="49.68876" lon="5.39577">
        <ele>345.3</ele>
        <time>2020-06-25T17:17:10Z</time>
      </trkpt>
      <trkpt lat="49.68877" lon="5.39593">
        <ele>345</ele>
        <time>2020-06-25T17:17:11Z</time>
      </trkpt>
      <trkpt lat="49.68877" lon="5.39607">
        <ele>344.8</ele>
        <time>2020-06-25T17:17:12Z</time>
      </trkpt>
      <trkpt lat="49.68878" lon="5.39621">
        <ele>344.5</ele>
        <time>2020-06-25T17:17:13Z</time>
      </trkpt>
      <trkpt lat="49.68878" lon="5.39635">
        <ele>344.3</ele>
        <time>2020-06-25T17:17:14Z</time>
      </trkpt>
      <trkpt lat="49.68879" lon="5.3965">
        <ele>344.1</ele>
        <time>2020-06-25T17:17:15Z</time>
      </trkpt>
      <trkpt lat="49.68879" lon="5.39665">
        <ele>343.9</ele>
        <time>2020-06-25T17:17:16Z</time>
      </trkpt>
      <trkpt lat="49.6888" lon="5.39678">
        <ele>343.8</ele>
        <time>2020-06-25T17:17:17Z</time>
      </trkpt>
      <trkpt lat="49.68881" lon="5.39692">
        <ele>343.6</ele>
        <time>2020-06-25T17:17:18Z</time>
      </trkpt>
      <trkpt lat="49.68883" lon="5.39706">
        <ele>343.4</ele>
        <time>2020-06-25T17:17:19Z</time>
      </trkpt>
      <trkpt lat="49.68884" lon="5.39719">
        <ele>343.3</ele>
        <time>2020-06-25T17:17:20Z</time>
      </trkpt>
      <trkpt lat="49.68885" lon="5.39732">
        <ele>343.1</ele>
        <time>2020-06-25T17:17:21Z</time>
      </trkpt>
      <trkpt lat="49.68885" lon="5.39745">
        <ele>343</ele>
        <time>2020-06-25T17:17:22Z</time>
      </trkpt>
      <trkpt lat="49.68886" lon="5.39758">
        <ele>342.8</ele>
        <time>2020-06-25T17:17:23Z</time>
      </trkpt>
      <trkpt lat="49.68886" lon="5.39771">
        <ele>342.7</ele>
        <time>2020-06-25T17:17:24Z</time>
      </trkpt>
      <trkpt lat="49.68887" lon="5.39784">
        <ele>342.5</ele>
        <time>2020-06-25T17:17:25Z</time>
      </trkpt>
      <trkpt lat="49.68887" lon="5.39796">
        <ele>342.4</ele>
        <time>2020-06-25T17:17:26Z</time>
      </trkpt>
      <trkpt lat="49.68888" lon="5.39809">
        <ele>342.2</ele>
        <time>2020-06-25T17:17:27Z</time>
      </trkpt>
      <trkpt lat="49.68889" lon="5.3982">
        <ele>342.1</ele>
        <time>2020-06-25T17:17:28Z</time>
      </trkpt>
      <trkpt lat="49.68889" lon="5.39832">
        <ele>342</ele>
        <time>2020-06-25T17:17:29Z</time>
      </trkpt>
      <trkpt lat="49.68889" lon="5.39843">
        <ele>341.8</ele>
        <time>2020-06-25T17:17:30Z</time>
      </trkpt>
      <trkpt lat="49.68889" lon="5.39853">
        <ele>341.6</ele>
        <time>2020-06-25T17:17:31Z</time>
      </trkpt>
      <trkpt lat="49.68889" lon="5.39865">
        <ele>341.4</ele>
        <time>2020-06-25T17:17:32Z</time>
      </trkpt>
      <trkpt lat="49.6889" lon="5.39876">
        <ele>341.2</ele>
        <time>2020-06-25T17:17:33Z</time>
      </trkpt>
      <trkpt lat="49.68892" lon="5.39888">
        <ele>341</ele>
        <time>2020-06-25T17:17:34Z</time>
      </trkpt>
      <trkpt lat="49.68894" lon="5.399">
        <ele>340.8</ele>
        <time>2020-06-25T17:17:35Z</time>
      </trkpt>
      <trkpt lat="49.68895" lon="5.39911">
        <ele>340.6</ele>
        <time>2020-06-25T17:17:36Z</time>
      </trkpt>
      <trkpt lat="49.68897" lon="5.39923">
        <ele>340.3</ele>
        <time>2020-06-25T17:17:37Z</time>
      </trkpt>
      <trkpt lat="49.68898" lon="5.39934">
        <ele>340</ele>
        <time>2020-06-25T17:17:38Z</time>
      </trkpt>
      <trkpt lat="49.689" lon="5.39946">
        <ele>339.7</ele>
        <time>2020-06-25T17:17:39Z</time>
      </trkpt>
      <trkpt lat="49.68901" lon="5.39958">
        <ele>339.4</ele>
        <time>2020-06-25T17:17:40Z</time>
      </trkpt>
      <trkpt lat="49.68902" lon="5.3997">
        <ele>339.1</ele>
        <time>2020-06-25T17:17:41Z</time>
      </trkpt>
      <trkpt lat="49.68903" lon="5.39983">
        <ele>338.8</ele>
        <time>2020-06-25T17:17:42Z</time>
      </trkpt>
      <trkpt lat="49.68905" lon="5.39995">
        <ele>338.4</ele>
        <time>2020-06-25T17:17:43Z</time>
      </trkpt>
      <trkpt lat="49.68906" lon="5.40007">
        <ele>338.1</ele>
        <time>2020-06-25T17:17:44Z</time>
      </trkpt>
      <trkpt lat="49.68908" lon="5.4002">
        <ele>337.7</ele>
        <time>2020-06-25T17:17:45Z</time>
      </trkpt>
      <trkpt lat="49.6891" lon="5.40033">
        <ele>337.4</ele>
        <time>2020-06-25T17:17:46Z</time>
      </trkpt>
      <trkpt lat="49.68913" lon="5.40046">
        <ele>337</ele>
        <time>2020-06-25T17:17:47Z</time>
      </trkpt>
      <trkpt lat="49.68915" lon="5.40058">
        <ele>336.7</ele>
        <time>2020-06-25T17:17:48Z</time>
      </trkpt>
      <trkpt lat="49.68918" lon="5.40071">
        <ele>336.3</ele>
        <time>2020-06-25T17:17:49Z</time>
      </trkpt>
      <trkpt lat="49.68921" lon="5.40082">
        <ele>336</ele>
        <time>2020-06-25T17:17:50Z</time>
      </trkpt>
      <trkpt lat="49.68923" lon="5.40095">
        <ele>335.7</ele>
        <time>2020-06-25T17:17:51Z</time>
      </trkpt>
      <trkpt lat="49.68926" lon="5.40107">
        <ele>335.4</ele>
        <time>2020-06-25T17:17:52Z</time>
      </trkpt>
      <trkpt lat="49.6893" lon="5.40119">
        <ele>335.2</ele>
        <time>2020-06-25T17:17:53Z</time>
      </trkpt>
      <trkpt lat="49.68933" lon="5.40131">
        <ele>334.9</ele>
        <time>2020-06-25T17:17:54Z</time>
      </trkpt>
      <trkpt lat="49.68935" lon="5.40144">
        <ele>334.5</ele>
        <time>2020-06-25T17:17:55Z</time>
      </trkpt>
      <trkpt lat="49.68939" lon="5.40156">
        <ele>334.2</ele>
        <time>2020-06-25T17:17:56Z</time>
      </trkpt>
      <trkpt lat="49.68943" lon="5.40167">
        <ele>333.9</ele>
        <time>2020-06-25T17:17:57Z</time>
      </trkpt>
      <trkpt lat="49.68947" lon="5.4018">
        <ele>333.6</ele>
        <time>2020-06-25T17:17:58Z</time>
      </trkpt>
      <trkpt lat="49.6895" lon="5.40192">
        <ele>333.3</ele>
        <time>2020-06-25T17:17:59Z</time>
      </trkpt>
      <trkpt lat="49.68954" lon="5.40204">
        <ele>332.9</ele>
        <time>2020-06-25T17:18:00Z</time>
      </trkpt>
      <trkpt lat="49.68958" lon="5.40216">
        <ele>332.6</ele>
        <time>2020-06-25T17:18:01Z</time>
      </trkpt>
      <trkpt lat="49.68962" lon="5.40228">
        <ele>332.3</ele>
        <time>2020-06-25T17:18:02Z</time>
      </trkpt>
      <trkpt lat="49.68966" lon="5.4024">
        <ele>332</ele>
        <time>2020-06-25T17:18:03Z</time>
      </trkpt>
      <trkpt lat="49.6897" lon="5.40252">
        <ele>331.6</ele>
        <time>2020-06-25T17:18:04Z</time>
      </trkpt>
      <trkpt lat="49.68975" lon="5.40264">
        <ele>331.2</ele>
        <time>2020-06-25T17:18:05Z</time>
      </trkpt>
      <trkpt lat="49.68979" lon="5.40276">
        <ele>330.8</ele>
        <time>2020-06-25T17:18:06Z</time>
      </trkpt>
      <trkpt lat="49.68984" lon="5.40288">
        <ele>330.8</ele>
        <time>2020-06-25T17:18:07Z</time>
      </trkpt>
      <trkpt lat="49.68988" lon="5.40299">
        <ele>330.5</ele>
        <time>2020-06-25T17:18:08Z</time>
      </trkpt>
      <trkpt lat="49.68993" lon="5.40311">
        <ele>330.2</ele>
        <time>2020-06-25T17:18:09Z</time>
      </trkpt>
      <trkpt lat="49.68997" lon="5.40323">
        <ele>329.8</ele>
        <time>2020-06-25T17:18:10Z</time>
      </trkpt>
      <trkpt lat="49.69002" lon="5.40335">
        <ele>329.4</ele>
        <time>2020-06-25T17:18:11Z</time>
      </trkpt>
      <trkpt lat="49.69006" lon="5.40347">
        <ele>329</ele>
        <time>2020-06-25T17:18:12Z</time>
      </trkpt>
      <trkpt lat="49.69011" lon="5.40358">
        <ele>328.5</ele>
        <time>2020-06-25T17:18:13Z</time>
      </trkpt>
      <trkpt lat="49.69016" lon="5.4037">
        <ele>328.1</ele>
        <time>2020-06-25T17:18:14Z</time>
      </trkpt>
      <trkpt lat="49.6902" lon="5.40382">
        <ele>327.7</ele>
        <time>2020-06-25T17:18:15Z</time>
      </trkpt>
      <trkpt lat="49.69024" lon="5.40395">
        <ele>327.3</ele>
        <time>2020-06-25T17:18:16Z</time>
      </trkpt>
      <trkpt lat="49.69029" lon="5.40407">
        <ele>326.9</ele>
        <time>2020-06-25T17:18:17Z</time>
      </trkpt>
      <trkpt lat="49.69034" lon="5.40419">
        <ele>326.4</ele>
        <time>2020-06-25T17:18:18Z</time>
      </trkpt>
      <trkpt lat="49.69038" lon="5.40431">
        <ele>326</ele>
        <time>2020-06-25T17:18:19Z</time>
      </trkpt>
      <trkpt lat="49.69042" lon="5.40443">
        <ele>325.6</ele>
        <time>2020-06-25T17:18:20Z</time>
      </trkpt>
      <trkpt lat="49.69047" lon="5.40456">
        <ele>325.2</ele>
        <time>2020-06-25T17:18:21Z</time>
      </trkpt>
      <trkpt lat="49.69051" lon="5.40468">
        <ele>324.8</ele>
        <time>2020-06-25T17:18:22Z</time>
      </trkpt>
      <trkpt lat="49.69056" lon="5.40481">
        <ele>324.3</ele>
        <time>2020-06-25T17:18:23Z</time>
      </trkpt>
      <trkpt lat="49.6906" lon="5.40494">
        <ele>323.8</ele>
        <time>2020-06-25T17:18:24Z</time>
      </trkpt>
      <trkpt lat="49.69065" lon="5.40506">
        <ele>323.4</ele>
        <time>2020-06-25T17:18:25Z</time>
      </trkpt>
      <trkpt lat="49.69069" lon="5.40519">
        <ele>323</ele>
        <time>2020-06-25T17:18:26Z</time>
      </trkpt>
      <trkpt lat="49.69073" lon="5.40532">
        <ele>322.6</ele>
        <time>2020-06-25T17:18:27Z</time>
      </trkpt>
      <trkpt lat="49.69078" lon="5.40545">
        <ele>322.2</ele>
        <time>2020-06-25T17:18:28Z</time>
      </trkpt>
      <trkpt lat="49.69083" lon="5.40558">
        <ele>321.8</ele>
        <time>2020-06-25T17:18:29Z</time>
      </trkpt>
      <trkpt lat="49.69088" lon="5.4057">
        <ele>321.3</ele>
        <time>2020-06-25T17:18:30Z</time>
      </trkpt>
      <trkpt lat="49.69093" lon="5.40583">
        <ele>320.9</ele>
        <time>2020-06-25T17:18:31Z</time>
      </trkpt>
      <trkpt lat="49.69098" lon="5.40596">
        <ele>320.5</ele>
        <time>2020-06-25T17:18:32Z</time>
      </trkpt>
      <trkpt lat="49.69103" lon="5.40609">
        <ele>320.1</ele>
        <time>2020-06-25T17:18:33Z</time>
      </trkpt>
      <trkpt lat="49.69108" lon="5.40621">
        <ele>319.7</ele>
        <time>2020-06-25T17:18:34Z</time>
      </trkpt>
      <trkpt lat="49.69112" lon="5.40634">
        <ele>319.3</ele>
        <time>2020-06-25T17:18:35Z</time>
      </trkpt>
      <trkpt lat="49.69116" lon="5.40647">
        <ele>319</ele>
        <time>2020-06-25T17:18:36Z</time>
      </trkpt>
      <trkpt lat="49.69121" lon="5.4066">
        <ele>318.7</ele>
        <time>2020-06-25T17:18:37Z</time>
      </trkpt>
      <trkpt lat="49.69125" lon="5.40672">
        <ele>318.4</ele>
        <time>2020-06-25T17:18:38Z</time>
      </trkpt>
      <trkpt lat="49.69129" lon="5.40684">
        <ele>318.2</ele>
        <time>2020-06-25T17:18:39Z</time>
      </trkpt>
      <trkpt lat="49.69133" lon="5.40697">
        <ele>318</ele>
        <time>2020-06-25T17:18:40Z</time>
      </trkpt>
      <trkpt lat="49.69138" lon="5.40708">
        <ele>317.8</ele>
        <time>2020-06-25T17:18:41Z</time>
      </trkpt>
      <trkpt lat="49.69143" lon="5.40719">
        <ele>317.6</ele>
        <time>2020-06-25T17:18:42Z</time>
      </trkpt>
      <trkpt lat="49.69147" lon="5.4073">
        <ele>317.4</ele>
        <time>2020-06-25T17:18:43Z</time>
      </trkpt>
      <trkpt lat="49.69151" lon="5.40742">
        <ele>317.2</ele>
        <time>2020-06-25T17:18:44Z</time>
      </trkpt>
      <trkpt lat="49.69155" lon="5.40753">
        <ele>317</ele>
        <time>2020-06-25T17:18:45Z</time>
      </trkpt>
      <trkpt lat="49.6916" lon="5.40764">
        <ele>316.9</ele>
        <time>2020-06-25T17:18:46Z</time>
      </trkpt>
      <trkpt lat="49.69163" lon="5.40775">
        <ele>316.8</ele>
        <time>2020-06-25T17:18:47Z</time>
      </trkpt>
      <trkpt lat="49.69166" lon="5.40786">
        <ele>316.6</ele>
        <time>2020-06-25T17:18:48Z</time>
      </trkpt>
      <trkpt lat="49.6917" lon="5.40796">
        <ele>316.5</ele>
        <time>2020-06-25T17:18:49Z</time>
      </trkpt>
      <trkpt lat="49.69173" lon="5.40806">
        <ele>316.4</ele>
        <time>2020-06-25T17:18:50Z</time>
      </trkpt>
      <trkpt lat="49.69176" lon="5.40817">
        <ele>316.4</ele>
        <time>2020-06-25T17:18:51Z</time>
      </trkpt>
      <trkpt lat="49.6918" lon="5.40826">
        <ele>316.4</ele>
        <time>2020-06-25T17:18:52Z</time>
      </trkpt>
      <trkpt lat="49.69183" lon="5.40836">
        <ele>316.4</ele>
        <time>2020-06-25T17:18:53Z</time>
      </trkpt>
      <trkpt lat="49.69187" lon="5.40845">
        <ele>316.5</ele>
        <time>2020-06-25T17:18:54Z</time>
      </trkpt>
      <trkpt lat="49.6919" lon="5.40855">
        <ele>316.6</ele>
        <time>2020-06-25T17:18:55Z</time>
      </trkpt>
      <trkpt lat="49.69194" lon="5.40865">
        <ele>316.6</ele>
        <time>2020-06-25T17:18:56Z</time>
      </trkpt>
      <trkpt lat="49.69197" lon="5.40875">
        <ele>316.7</ele>
        <time>2020-06-25T17:18:57Z</time>
      </trkpt>
      <trkpt lat="49.692" lon="5.40885">
        <ele>316.7</ele>
        <time>2020-06-25T17:18:58Z</time>
      </trkpt>
      <trkpt lat="49.69203" lon="5.40895">
        <ele>316.7</ele>
        <time>2020-06-25T17:18:59Z</time>
      </trkpt>
      <trkpt lat="49.69207" lon="5.40904">
        <ele>316.8</ele>
        <time>2020-06-25T17:19:00Z</time>
      </trkpt>
      <trkpt lat="49.6921" lon="5.40913">
        <ele>316.8</ele>
        <time>2020-06-25T17:19:01Z</time>
      </trkpt>
      <trkpt lat="49.69214" lon="5.40922">
        <ele>316.8</ele>
        <time>2020-06-25T17:19:02Z</time>
      </trkpt>
      <trkpt lat="49.69217" lon="5.4093">
        <ele>316.9</ele>
        <time>2020-06-25T17:19:03Z</time>
      </trkpt>
      <trkpt lat="49.69221" lon="5.40939">
        <ele>316.9</ele>
        <time>2020-06-25T17:19:04Z</time>
      </trkpt>
      <trkpt lat="49.69224" lon="5.40947">
        <ele>316.9</ele>
        <time>2020-06-25T17:19:05Z</time>
      </trkpt>
      <trkpt lat="49.69227" lon="5.40956">
        <ele>316.9</ele>
        <time>2020-06-25T17:19:06Z</time>
      </trkpt>
      <trkpt lat="49.69229" lon="5.40964">
        <ele>317</ele>
        <time>2020-06-25T17:19:07Z</time>
      </trkpt>
      <trkpt lat="49.69232" lon="5.40972">
        <ele>317</ele>
        <time>2020-06-25T17:19:08Z</time>
      </trkpt>
      <trkpt lat="49.69235" lon="5.40981">
        <ele>317.1</ele>
        <time>2020-06-25T17:19:09Z</time>
      </trkpt>
      <trkpt lat="49.69238" lon="5.40988">
        <ele>317.1</ele>
        <time>2020-06-25T17:19:10Z</time>
      </trkpt>
      <trkpt lat="49.69242" lon="5.40995">
        <ele>317.2</ele>
        <time>2020-06-25T17:19:11Z</time>
      </trkpt>
      <trkpt lat="49.69245" lon="5.41003">
        <ele>317.2</ele>
        <time>2020-06-25T17:19:12Z</time>
      </trkpt>
      <trkpt lat="49.69248" lon="5.41011">
        <ele>317.3</ele>
        <time>2020-06-25T17:19:13Z</time>
      </trkpt>
      <trkpt lat="49.69251" lon="5.41019">
        <ele>317.3</ele>
        <time>2020-06-25T17:19:14Z</time>
      </trkpt>
      <trkpt lat="49.69254" lon="5.41027">
        <ele>317.4</ele>
        <time>2020-06-25T17:19:15Z</time>
      </trkpt>
      <trkpt lat="49.69256" lon="5.41034">
        <ele>317.5</ele>
        <time>2020-06-25T17:19:16Z</time>
      </trkpt>
      <trkpt lat="49.69258" lon="5.41042">
        <ele>317.5</ele>
        <time>2020-06-25T17:19:17Z</time>
      </trkpt>
      <trkpt lat="49.69261" lon="5.41049">
        <ele>317.6</ele>
        <time>2020-06-25T17:19:18Z</time>
      </trkpt>
      <trkpt lat="49.69264" lon="5.41057">
        <ele>317.7</ele>
        <time>2020-06-25T17:19:19Z</time>
      </trkpt>
      <trkpt lat="49.69267" lon="5.41065">
        <ele>317.8</ele>
        <time>2020-06-25T17:19:20Z</time>
      </trkpt>
      <trkpt lat="49.6927" lon="5.41073">
        <ele>317.8</ele>
        <time>2020-06-25T17:19:21Z</time>
      </trkpt>
      <trkpt lat="49.69272" lon="5.4108">
        <ele>317.9</ele>
        <time>2020-06-25T17:19:22Z</time>
      </trkpt>
      <trkpt lat="49.69274" lon="5.41088">
        <ele>317.9</ele>
        <time>2020-06-25T17:19:23Z</time>
      </trkpt>
      <trkpt lat="49.69276" lon="5.41095">
        <ele>318</ele>
        <time>2020-06-25T17:19:24Z</time>
      </trkpt>
      <trkpt lat="49.69278" lon="5.41103">
        <ele>318</ele>
        <time>2020-06-25T17:19:25Z</time>
      </trkpt>
      <trkpt lat="49.69281" lon="5.4111">
        <ele>318.1</ele>
        <time>2020-06-25T17:19:26Z</time>
      </trkpt>
      <trkpt lat="49.69284" lon="5.41117">
        <ele>318.1</ele>
        <time>2020-06-25T17:19:27Z</time>
      </trkpt>
      <trkpt lat="49.69287" lon="5.41124">
        <ele>318.2</ele>
        <time>2020-06-25T17:19:28Z</time>
      </trkpt>
      <trkpt lat="49.69289" lon="5.41131">
        <ele>318.2</ele>
        <time>2020-06-25T17:19:29Z</time>
      </trkpt>
      <trkpt lat="49.69291" lon="5.41138">
        <ele>318.2</ele>
        <time>2020-06-25T17:19:30Z</time>
      </trkpt>
      <trkpt lat="49.69294" lon="5.41146">
        <ele>318.2</ele>
        <time>2020-06-25T17:19:31Z</time>
      </trkpt>
      <trkpt lat="49.69296" lon="5.41153">
        <ele>318.2</ele>
        <time>2020-06-25T17:19:32Z</time>
      </trkpt>
      <trkpt lat="49.69299" lon="5.4116">
        <ele>318.2</ele>
        <time>2020-06-25T17:19:33Z</time>
      </trkpt>
      <trkpt lat="49.69303" lon="5.41167">
        <ele>318.2</ele>
        <time>2020-06-25T17:19:34Z</time>
      </trkpt>
      <trkpt lat="49.69307" lon="5.41173">
        <ele>318.3</ele>
        <time>2020-06-25T17:19:35Z</time>
      </trkpt>
      <trkpt lat="49.69311" lon="5.41181">
        <ele>318.3</ele>
        <time>2020-06-25T17:19:36Z</time>
      </trkpt>
      <trkpt lat="49.69313" lon="5.41188">
        <ele>318.3</ele>
        <time>2020-06-25T17:19:37Z</time>
      </trkpt>
      <trkpt lat="49.69316" lon="5.41195">
        <ele>318.4</ele>
        <time>2020-06-25T17:19:38Z</time>
      </trkpt>
      <trkpt lat="49.6932" lon="5.41201">
        <ele>318.4</ele>
        <time>2020-06-25T17:19:39Z</time>
      </trkpt>
      <trkpt lat="49.69323" lon="5.41206">
        <ele>318.4</ele>
        <time>2020-06-25T17:19:40Z</time>
      </trkpt>
      <trkpt lat="49.69326" lon="5.41211">
        <ele>318.5</ele>
        <time>2020-06-25T17:19:41Z</time>
      </trkpt>
      <trkpt lat="49.6933" lon="5.41216">
        <ele>318.5</ele>
        <time>2020-06-25T17:19:42Z</time>
      </trkpt>
      <trkpt lat="49.69334" lon="5.41221">
        <ele>318.6</ele>
        <time>2020-06-25T17:19:43Z</time>
      </trkpt>
      <trkpt lat="49.69338" lon="5.41227">
        <ele>318.6</ele>
        <time>2020-06-25T17:19:44Z</time>
      </trkpt>
      <trkpt lat="49.69342" lon="5.41232">
        <ele>318.6</ele>
        <time>2020-06-25T17:19:45Z</time>
      </trkpt>
      <trkpt lat="49.69345" lon="5.41237">
        <ele>318.6</ele>
        <time>2020-06-25T17:19:46Z</time>
      </trkpt>
      <trkpt lat="49.6935" lon="5.41242">
        <ele>318.7</ele>
        <time>2020-06-25T17:19:47Z</time>
      </trkpt>
      <trkpt lat="49.69353" lon="5.41247">
        <ele>318.8</ele>
        <time>2020-06-25T17:19:48Z</time>
      </trkpt>
      <trkpt lat="49.69357" lon="5.41252">
        <ele>318.9</ele>
        <time>2020-06-25T17:19:49Z</time>
      </trkpt>
      <trkpt lat="49.69359" lon="5.41257">
        <ele>319</ele>
        <time>2020-06-25T17:19:50Z</time>
      </trkpt>
      <trkpt lat="49.69359" lon="5.41264">
        <ele>319.3</ele>
        <time>2020-06-25T17:19:51Z</time>
      </trkpt>
      <trkpt lat="49.6936" lon="5.41271">
        <ele>319.5</ele>
        <time>2020-06-25T17:19:52Z</time>
      </trkpt>
      <trkpt lat="49.69363" lon="5.41277">
        <ele>319.7</ele>
        <time>2020-06-25T17:19:53Z</time>
      </trkpt>
      <trkpt lat="49.69366" lon="5.41281">
        <ele>320</ele>
        <time>2020-06-25T17:19:54Z</time>
      </trkpt>
      <trkpt lat="49.6937" lon="5.41282">
        <ele>319.8</ele>
        <time>2020-06-25T17:19:55Z</time>
      </trkpt>
      <trkpt lat="49.69375" lon="5.41283">
        <ele>319.5</ele>
        <time>2020-06-25T17:19:56Z</time>
      </trkpt>
      <trkpt lat="49.69379" lon="5.41285">
        <ele>319.1</ele>
        <time>2020-06-25T17:19:57Z</time>
      </trkpt>
      <trkpt lat="49.69383" lon="5.41286">
        <ele>318.7</ele>
        <time>2020-06-25T17:19:58Z</time>
      </trkpt>
      <trkpt lat="49.69386" lon="5.41288">
        <ele>318.6</ele>
        <time>2020-06-25T17:19:59Z</time>
      </trkpt>
      <trkpt lat="49.69389" lon="5.41291">
        <ele>318.6</ele>
        <time>2020-06-25T17:20:00Z</time>
      </trkpt>
      <trkpt lat="49.69393" lon="5.41295">
        <ele>318.5</ele>
        <time>2020-06-25T17:20:01Z</time>
      </trkpt>
      <trkpt lat="49.69397" lon="5.41299">
        <ele>318.4</ele>
        <time>2020-06-25T17:20:02Z</time>
      </trkpt>
      <trkpt lat="49.69401" lon="5.41304">
        <ele>318.4</ele>
        <time>2020-06-25T17:20:03Z</time>
      </trkpt>
      <trkpt lat="49.69405" lon="5.4131">
        <ele>318.4</ele>
        <time>2020-06-25T17:20:04Z</time>
      </trkpt>
      <trkpt lat="49.69408" lon="5.41316">
        <ele>318.4</ele>
        <time>2020-06-25T17:20:05Z</time>
      </trkpt>
      <trkpt lat="49.69412" lon="5.41322">
        <ele>318.3</ele>
        <time>2020-06-25T17:20:06Z</time>
      </trkpt>
      <trkpt lat="49.69415" lon="5.41327">
        <ele>318.3</ele>
        <time>2020-06-25T17:20:07Z</time>
      </trkpt>
      <trkpt lat="49.69419" lon="5.41332">
        <ele>318.3</ele>
        <time>2020-06-25T17:20:08Z</time>
      </trkpt>
      <trkpt lat="49.69423" lon="5.41338">
        <ele>318.2</ele>
        <time>2020-06-25T17:20:09Z</time>
      </trkpt>
      <trkpt lat="49.69428" lon="5.41345">
        <ele>318.2</ele>
        <time>2020-06-25T17:20:10Z</time>
      </trkpt>
      <trkpt lat="49.69432" lon="5.41352">
        <ele>318.2</ele>
        <time>2020-06-25T17:20:11Z</time>
      </trkpt>
      <trkpt lat="49.69435" lon="5.4136">
        <ele>318.2</ele>
        <time>2020-06-25T17:20:12Z</time>
      </trkpt>
      <trkpt lat="49.69439" lon="5.41366">
        <ele>318.2</ele>
        <time>2020-06-25T17:20:13Z</time>
      </trkpt>
      <trkpt lat="49.69441" lon="5.41372">
        <ele>318.1</ele>
        <time>2020-06-25T17:20:14Z</time>
      </trkpt>
      <trkpt lat="49.69444" lon="5.41378">
        <ele>318.1</ele>
        <time>2020-06-25T17:20:15Z</time>
      </trkpt>
      <trkpt lat="49.69447" lon="5.41383">
        <ele>318.1</ele>
        <time>2020-06-25T17:20:16Z</time>
      </trkpt>
      <trkpt lat="49.69449" lon="5.41389">
        <ele>318.1</ele>
        <time>2020-06-25T17:20:17Z</time>
      </trkpt>
      <trkpt lat="49.69452" lon="5.41395">
        <ele>318.1</ele>
        <time>2020-06-25T17:20:18Z</time>
      </trkpt>
      <trkpt lat="49.69454" lon="5.41402">
        <ele>318.1</ele>
        <time>2020-06-25T17:20:19Z</time>
      </trkpt>
      <trkpt lat="49.69457" lon="5.41408">
        <ele>318.1</ele>
        <time>2020-06-25T17:20:20Z</time>
      </trkpt>
      <trkpt lat="49.6946" lon="5.41414">
        <ele>318.1</ele>
        <time>2020-06-25T17:20:21Z</time>
      </trkpt>
      <trkpt lat="49.69463" lon="5.41419">
        <ele>318.1</ele>
        <time>2020-06-25T17:20:22Z</time>
      </trkpt>
      <trkpt lat="49.69466" lon="5.41424">
        <ele>318.1</ele>
        <time>2020-06-25T17:20:23Z</time>
      </trkpt>
      <trkpt lat="49.69468" lon="5.41427">
        <ele>318.1</ele>
        <time>2020-06-25T17:20:24Z</time>
      </trkpt>
      <trkpt lat="49.69471" lon="5.41431">
        <ele>318.1</ele>
        <time>2020-06-25T17:20:25Z</time>
      </trkpt>
      <trkpt lat="49.69473" lon="5.41435">
        <ele>318.1</ele>
        <time>2020-06-25T17:20:26Z</time>
      </trkpt>
      <trkpt lat="49.69474" lon="5.41439">
        <ele>318.1</ele>
        <time>2020-06-25T17:20:27Z</time>
      </trkpt>
      <trkpt lat="49.69476" lon="5.41444">
        <ele>318.1</ele>
        <time>2020-06-25T17:20:28Z</time>
      </trkpt>
      <trkpt lat="49.69477" lon="5.4145">
        <ele>318.3</ele>
        <time>2020-06-25T17:20:29Z</time>
      </trkpt>
      <trkpt lat="49.69477" lon="5.41457">
        <ele>318.4</ele>
        <time>2020-06-25T17:20:30Z</time>
      </trkpt>
      <trkpt lat="49.69477" lon="5.41463">
        <ele>318.4</ele>
        <time>2020-06-25T17:20:31Z</time>
      </trkpt>
      <trkpt lat="49.69479" lon="5.41469">
        <ele>318.9</ele>
        <time>2020-06-25T17:20:32Z</time>
      </trkpt>
      <trkpt lat="49.69481" lon="5.41474">
        <ele>319</ele>
        <time>2020-06-25T17:20:33Z</time>
      </trkpt>
      <trkpt lat="49.69482" lon="5.4148">
        <ele>319.1</ele>
        <time>2020-06-25T17:20:34Z</time>
      </trkpt>
      <trkpt lat="49.69483" lon="5.41486">
        <ele>319.2</ele>
        <time>2020-06-25T17:20:35Z</time>
      </trkpt>
      <trkpt lat="49.69484" lon="5.41492">
        <ele>319.3</ele>
        <time>2020-06-25T17:20:36Z</time>
      </trkpt>
      <trkpt lat="49.69485" lon="5.41498">
        <ele>319.3</ele>
        <time>2020-06-25T17:20:37Z</time>
      </trkpt>
      <trkpt lat="49.69486" lon="5.41504">
        <ele>319.4</ele>
        <time>2020-06-25T17:20:38Z</time>
      </trkpt>
      <trkpt lat="49.69487" lon="5.4151">
        <ele>319.5</ele>
        <time>2020-06-25T17:20:39Z</time>
      </trkpt>
      <trkpt lat="49.69486" lon="5.41516">
        <ele>319.6</ele>
        <time>2020-06-25T17:20:40Z</time>
      </trkpt>
      <trkpt lat="49.69486" lon="5.41522">
        <ele>319.7</ele>
        <time>2020-06-25T17:20:41Z</time>
      </trkpt>
      <trkpt lat="49.69486" lon="5.41528">
        <ele>319.8</ele>
        <time>2020-06-25T17:20:42Z</time>
      </trkpt>
      <trkpt lat="49.69486" lon="5.41534">
        <ele>319.9</ele>
        <time>2020-06-25T17:20:43Z</time>
      </trkpt>
      <trkpt lat="49.69486" lon="5.4154">
        <ele>320</ele>
        <time>2020-06-25T17:20:44Z</time>
      </trkpt>
      <trkpt lat="49.69487" lon="5.41546">
        <ele>320.1</ele>
        <time>2020-06-25T17:20:45Z</time>
      </trkpt>
      <trkpt lat="49.69487" lon="5.41551">
        <ele>320.2</ele>
        <time>2020-06-25T17:20:46Z</time>
      </trkpt>
      <trkpt lat="49.69487" lon="5.41557">
        <ele>320.3</ele>
        <time>2020-06-25T17:20:47Z</time>
      </trkpt>
      <trkpt lat="49.69488" lon="5.41563">
        <ele>320.4</ele>
        <time>2020-06-25T17:20:48Z</time>
      </trkpt>
      <trkpt lat="49.69487" lon="5.41569">
        <ele>320.5</ele>
        <time>2020-06-25T17:20:49Z</time>
      </trkpt>
      <trkpt lat="49.69487" lon="5.41575">
        <ele>320.7</ele>
        <time>2020-06-25T17:20:50Z</time>
      </trkpt>
      <trkpt lat="49.69487" lon="5.41581">
        <ele>320.8</ele>
        <time>2020-06-25T17:20:51Z</time>
      </trkpt>
      <trkpt lat="49.69487" lon="5.41586">
        <ele>320.9</ele>
        <time>2020-06-25T17:20:52Z</time>
      </trkpt>
      <trkpt lat="49.69487" lon="5.41592">
        <ele>321</ele>
        <time>2020-06-25T17:20:53Z</time>
      </trkpt>
      <trkpt lat="49.69487" lon="5.41597">
        <ele>321.1</ele>
        <time>2020-06-25T17:20:54Z</time>
      </trkpt>
      <trkpt lat="49.69488" lon="5.41603">
        <ele>321.2</ele>
        <time>2020-06-25T17:20:55Z</time>
      </trkpt>
      <trkpt lat="49.69489" lon="5.41609">
        <ele>321.5</ele>
        <time>2020-06-25T17:20:56Z</time>
      </trkpt>
      <trkpt lat="49.69489" lon="5.41615">
        <ele>321.8</ele>
        <time>2020-06-25T17:20:57Z</time>
      </trkpt>
      <trkpt lat="49.69489" lon="5.41621">
        <ele>322</ele>
        <time>2020-06-25T17:20:58Z</time>
      </trkpt>
      <trkpt lat="49.69489" lon="5.41627">
        <ele>322.3</ele>
        <time>2020-06-25T17:20:59Z</time>
      </trkpt>
      <trkpt lat="49.69489" lon="5.41633">
        <ele>322.6</ele>
        <time>2020-06-25T17:21:00Z</time>
      </trkpt>
      <trkpt lat="49.69489" lon="5.41639">
        <ele>322.9</ele>
        <time>2020-06-25T17:21:01Z</time>
      </trkpt>
      <trkpt lat="49.6949" lon="5.41646">
        <ele>323.2</ele>
        <time>2020-06-25T17:21:02Z</time>
      </trkpt>
      <trkpt lat="49.69489" lon="5.41652">
        <ele>323.6</ele>
        <time>2020-06-25T17:21:03Z</time>
      </trkpt>
      <trkpt lat="49.69489" lon="5.41657">
        <ele>323.8</ele>
        <time>2020-06-25T17:21:04Z</time>
      </trkpt>
      <trkpt lat="49.69489" lon="5.41661">
        <ele>324.1</ele>
        <time>2020-06-25T17:21:05Z</time>
      </trkpt>
      <trkpt lat="49.69489" lon="5.41665">
        <ele>324.2</ele>
        <time>2020-06-25T17:21:06Z</time>
      </trkpt>
      <trkpt lat="49.6949" lon="5.41671">
        <ele>324.2</ele>
        <time>2020-06-25T17:21:07Z</time>
      </trkpt>
      <trkpt lat="49.69491" lon="5.41678">
        <ele>324.2</ele>
        <time>2020-06-25T17:21:08Z</time>
      </trkpt>
      <trkpt lat="49.69493" lon="5.41683">
        <ele>324.5</ele>
        <time>2020-06-25T17:21:09Z</time>
      </trkpt>
      <trkpt lat="49.69494" lon="5.41688">
        <ele>324.6</ele>
        <time>2020-06-25T17:21:10Z</time>
      </trkpt>
      <trkpt lat="49.69493" lon="5.41695">
        <ele>324.8</ele>
        <time>2020-06-25T17:21:11Z</time>
      </trkpt>
      <trkpt lat="49.69493" lon="5.41701">
        <ele>325</ele>
        <time>2020-06-25T17:21:12Z</time>
      </trkpt>
      <trkpt lat="49.69494" lon="5.41706">
        <ele>325.1</ele>
        <time>2020-06-25T17:21:13Z</time>
      </trkpt>
      <trkpt lat="49.69494" lon="5.41712">
        <ele>325.3</ele>
        <time>2020-06-25T17:21:14Z</time>
      </trkpt>
      <trkpt lat="49.69494" lon="5.41718">
        <ele>325.5</ele>
        <time>2020-06-25T17:21:15Z</time>
      </trkpt>
      <trkpt lat="49.69493" lon="5.41724">
        <ele>325.6</ele>
        <time>2020-06-25T17:21:16Z</time>
      </trkpt>
      <trkpt lat="49.69493" lon="5.4173">
        <ele>325.8</ele>
        <time>2020-06-25T17:21:17Z</time>
      </trkpt>
      <trkpt lat="49.69493" lon="5.41737">
        <ele>326</ele>
        <time>2020-06-25T17:21:18Z</time>
      </trkpt>
      <trkpt lat="49.69494" lon="5.41742">
        <ele>326.2</ele>
        <time>2020-06-25T17:21:19Z</time>
      </trkpt>
      <trkpt lat="49.69494" lon="5.41743">
        <ele>326.2</ele>
        <time>2020-06-25T17:21:20Z</time>
      </trkpt>
      <trkpt lat="49.69494" lon="5.41749">
        <ele>326.4</ele>
        <time>2020-06-25T17:21:21Z</time>
      </trkpt>
      <trkpt lat="49.69495" lon="5.41755">
        <ele>326.5</ele>
        <time>2020-06-25T17:21:22Z</time>
      </trkpt>
      <trkpt lat="49.69495" lon="5.41763">
        <ele>326.8</ele>
        <time>2020-06-25T17:21:23Z</time>
      </trkpt>
      <trkpt lat="49.69495" lon="5.4177">
        <ele>326.9</ele>
        <time>2020-06-25T17:21:24Z</time>
      </trkpt>
      <trkpt lat="49.69495" lon="5.41778">
        <ele>327.1</ele>
        <time>2020-06-25T17:21:25Z</time>
      </trkpt>
      <trkpt lat="49.69496" lon="5.41786">
        <ele>327.3</ele>
        <time>2020-06-25T17:21:26Z</time>
      </trkpt>
      <trkpt lat="49.69496" lon="5.41792">
        <ele>327.4</ele>
        <time>2020-06-25T17:21:27Z</time>
      </trkpt>
      <trkpt lat="49.69495" lon="5.41796">
        <ele>327.5</ele>
        <time>2020-06-25T17:21:28Z</time>
      </trkpt>
      <trkpt lat="49.69494" lon="5.41803">
        <ele>327.6</ele>
        <time>2020-06-25T17:21:29Z</time>
      </trkpt>
      <trkpt lat="49.69494" lon="5.41806">
        <ele>327.7</ele>
        <time>2020-06-25T17:21:30Z</time>
      </trkpt>
      <trkpt lat="49.69494" lon="5.41811">
        <ele>327.8</ele>
        <time>2020-06-25T17:21:31Z</time>
      </trkpt>
      <trkpt lat="49.69494" lon="5.41816">
        <ele>328</ele>
        <time>2020-06-25T17:21:32Z</time>
      </trkpt>
      <trkpt lat="49.69495" lon="5.41822">
        <ele>328.1</ele>
        <time>2020-06-25T17:21:33Z</time>
      </trkpt>
      <trkpt lat="49.69496" lon="5.41827">
        <ele>328.3</ele>
        <time>2020-06-25T17:21:34Z</time>
      </trkpt>
      <trkpt lat="49.69496" lon="5.41833">
        <ele>328.4</ele>
        <time>2020-06-25T17:21:35Z</time>
      </trkpt>
      <trkpt lat="49.69496" lon="5.41837">
        <ele>328.5</ele>
        <time>2020-06-25T17:21:36Z</time>
      </trkpt>
      <trkpt lat="49.69496" lon="5.41843">
        <ele>328.6</ele>
        <time>2020-06-25T17:21:37Z</time>
      </trkpt>
      <trkpt lat="49.69497" lon="5.4185">
        <ele>328.7</ele>
        <time>2020-06-25T17:21:38Z</time>
      </trkpt>
      <trkpt lat="49.69498" lon="5.41856">
        <ele>328.8</ele>
        <time>2020-06-25T17:21:39Z</time>
      </trkpt>
      <trkpt lat="49.69499" lon="5.41863">
        <ele>328.9</ele>
        <time>2020-06-25T17:21:40Z</time>
      </trkpt>
      <trkpt lat="49.69499" lon="5.41869">
        <ele>329.1</ele>
        <time>2020-06-25T17:21:41Z</time>
      </trkpt>
      <trkpt lat="49.69499" lon="5.41877">
        <ele>329.2</ele>
        <time>2020-06-25T17:21:42Z</time>
      </trkpt>
      <trkpt lat="49.69498" lon="5.41885">
        <ele>329.4</ele>
        <time>2020-06-25T17:21:43Z</time>
      </trkpt>
      <trkpt lat="49.69499" lon="5.41894">
        <ele>329.5</ele>
        <time>2020-06-25T17:21:44Z</time>
      </trkpt>
      <trkpt lat="49.69498" lon="5.41903">
        <ele>329.7</ele>
        <time>2020-06-25T17:21:45Z</time>
      </trkpt>
      <trkpt lat="49.69498" lon="5.41908">
        <ele>329.8</ele>
        <time>2020-06-25T17:21:46Z</time>
      </trkpt>
      <trkpt lat="49.69499" lon="5.41914">
        <ele>329.9</ele>
        <time>2020-06-25T17:21:47Z</time>
      </trkpt>
      <trkpt lat="49.695" lon="5.41919">
        <ele>330.1</ele>
        <time>2020-06-25T17:21:48Z</time>
      </trkpt>
      <trkpt lat="49.69501" lon="5.41924">
        <ele>330.2</ele>
        <time>2020-06-25T17:21:49Z</time>
      </trkpt>
      <trkpt lat="49.69502" lon="5.41929">
        <ele>330.3</ele>
        <time>2020-06-25T17:21:50Z</time>
      </trkpt>
      <trkpt lat="49.69502" lon="5.41935">
        <ele>330.5</ele>
        <time>2020-06-25T17:21:51Z</time>
      </trkpt>
      <trkpt lat="49.69502" lon="5.41941">
        <ele>330.6</ele>
        <time>2020-06-25T17:21:52Z</time>
      </trkpt>
      <trkpt lat="49.69502" lon="5.41948">
        <ele>330.8</ele>
        <time>2020-06-25T17:21:53Z</time>
      </trkpt>
      <trkpt lat="49.69502" lon="5.41951">
        <ele>330.8</ele>
        <time>2020-06-25T17:21:54Z</time>
      </trkpt>
      <trkpt lat="49.69502" lon="5.41956">
        <ele>330.9</ele>
        <time>2020-06-25T17:21:55Z</time>
      </trkpt>
      <trkpt lat="49.69502" lon="5.41963">
        <ele>331.1</ele>
        <time>2020-06-25T17:21:56Z</time>
      </trkpt>
      <trkpt lat="49.69502" lon="5.41969">
        <ele>331.2</ele>
        <time>2020-06-25T17:21:57Z</time>
      </trkpt>
      <trkpt lat="49.69502" lon="5.41977">
        <ele>331.4</ele>
        <time>2020-06-25T17:21:58Z</time>
      </trkpt>
      <trkpt lat="49.69502" lon="5.41984">
        <ele>331.5</ele>
        <time>2020-06-25T17:21:59Z</time>
      </trkpt>
      <trkpt lat="49.69502" lon="5.41989">
        <ele>331.6</ele>
        <time>2020-06-25T17:22:00Z</time>
      </trkpt>
      <trkpt lat="49.69502" lon="5.41993">
        <ele>331.7</ele>
        <time>2020-06-25T17:22:01Z</time>
      </trkpt>
      <trkpt lat="49.69501" lon="5.41998">
        <ele>331.8</ele>
        <time>2020-06-25T17:22:02Z</time>
      </trkpt>
      <trkpt lat="49.69501" lon="5.42003">
        <ele>332</ele>
        <time>2020-06-25T17:22:03Z</time>
      </trkpt>
      <trkpt lat="49.695" lon="5.42008">
        <ele>332.1</ele>
        <time>2020-06-25T17:22:04Z</time>
      </trkpt>
      <trkpt lat="49.69501" lon="5.42013">
        <ele>332.2</ele>
        <time>2020-06-25T17:22:05Z</time>
      </trkpt>
      <trkpt lat="49.69501" lon="5.42018">
        <ele>332.3</ele>
        <time>2020-06-25T17:22:06Z</time>
      </trkpt>
      <trkpt lat="49.69501" lon="5.42024">
        <ele>332.4</ele>
        <time>2020-06-25T17:22:07Z</time>
      </trkpt>
      <trkpt lat="49.69502" lon="5.4203">
        <ele>332.5</ele>
        <time>2020-06-25T17:22:08Z</time>
      </trkpt>
      <trkpt lat="49.69503" lon="5.42035">
        <ele>332.7</ele>
        <time>2020-06-25T17:22:09Z</time>
      </trkpt>
      <trkpt lat="49.69503" lon="5.42041">
        <ele>332.8</ele>
        <time>2020-06-25T17:22:10Z</time>
      </trkpt>
      <trkpt lat="49.69503" lon="5.42047">
        <ele>332.9</ele>
        <time>2020-06-25T17:22:11Z</time>
      </trkpt>
      <trkpt lat="49.69503" lon="5.42051">
        <ele>333</ele>
        <time>2020-06-25T17:22:12Z</time>
      </trkpt>
      <trkpt lat="49.69503" lon="5.42056">
        <ele>333.1</ele>
        <time>2020-06-25T17:22:13Z</time>
      </trkpt>
      <trkpt lat="49.69503" lon="5.42062">
        <ele>333.2</ele>
        <time>2020-06-25T17:22:14Z</time>
      </trkpt>
      <trkpt lat="49.69503" lon="5.42068">
        <ele>333.3</ele>
        <time>2020-06-25T17:22:15Z</time>
      </trkpt>
      <trkpt lat="49.69504" lon="5.42074">
        <ele>333.4</ele>
        <time>2020-06-25T17:22:16Z</time>
      </trkpt>
      <trkpt lat="49.69504" lon="5.42081">
        <ele>333.6</ele>
        <time>2020-06-25T17:22:17Z</time>
      </trkpt>
      <trkpt lat="49.69504" lon="5.42088">
        <ele>333.7</ele>
        <time>2020-06-25T17:22:18Z</time>
      </trkpt>
      <trkpt lat="49.69504" lon="5.42094">
        <ele>333.8</ele>
        <time>2020-06-25T17:22:19Z</time>
      </trkpt>
      <trkpt lat="49.69504" lon="5.42101">
        <ele>333.9</ele>
        <time>2020-06-25T17:22:20Z</time>
      </trkpt>
      <trkpt lat="49.69504" lon="5.42107">
        <ele>334</ele>
        <time>2020-06-25T17:22:21Z</time>
      </trkpt>
      <trkpt lat="49.69504" lon="5.42113">
        <ele>334.1</ele>
        <time>2020-06-25T17:22:22Z</time>
      </trkpt>
      <trkpt lat="49.69504" lon="5.42118">
        <ele>334.2</ele>
        <time>2020-06-25T17:22:23Z</time>
      </trkpt>
      <trkpt lat="49.69503" lon="5.42125">
        <ele>334.3</ele>
        <time>2020-06-25T17:22:24Z</time>
      </trkpt>
      <trkpt lat="49.69503" lon="5.42131">
        <ele>334.4</ele>
        <time>2020-06-25T17:22:25Z</time>
      </trkpt>
      <trkpt lat="49.69504" lon="5.42139">
        <ele>334.5</ele>
        <time>2020-06-25T17:22:26Z</time>
      </trkpt>
      <trkpt lat="49.69504" lon="5.42147">
        <ele>334.7</ele>
        <time>2020-06-25T17:22:27Z</time>
      </trkpt>
      <trkpt lat="49.69505" lon="5.42155">
        <ele>334.8</ele>
        <time>2020-06-25T17:22:28Z</time>
      </trkpt>
      <trkpt lat="49.69506" lon="5.42161">
        <ele>334.8</ele>
        <time>2020-06-25T17:22:29Z</time>
      </trkpt>
      <trkpt lat="49.69506" lon="5.42167">
        <ele>334.9</ele>
        <time>2020-06-25T17:22:30Z</time>
      </trkpt>
      <trkpt lat="49.69505" lon="5.42173">
        <ele>334.9</ele>
        <time>2020-06-25T17:22:31Z</time>
      </trkpt>
      <trkpt lat="49.69506" lon="5.42179">
        <ele>334.9</ele>
        <time>2020-06-25T17:22:32Z</time>
      </trkpt>
      <trkpt lat="49.69505" lon="5.42186">
        <ele>335</ele>
        <time>2020-06-25T17:22:33Z</time>
      </trkpt>
      <trkpt lat="49.69505" lon="5.42193">
        <ele>335</ele>
        <time>2020-06-25T17:22:34Z</time>
      </trkpt>
      <trkpt lat="49.69505" lon="5.422">
        <ele>335.1</ele>
        <time>2020-06-25T17:22:35Z</time>
      </trkpt>
      <trkpt lat="49.69505" lon="5.42205">
        <ele>335.2</ele>
        <time>2020-06-25T17:22:36Z</time>
      </trkpt>
      <trkpt lat="49.69506" lon="5.42213">
        <ele>335.3</ele>
        <time>2020-06-25T17:22:37Z</time>
      </trkpt>
      <trkpt lat="49.69506" lon="5.4222">
        <ele>335.4</ele>
        <time>2020-06-25T17:22:38Z</time>
      </trkpt>
      <trkpt lat="49.69506" lon="5.42226">
        <ele>335.5</ele>
        <time>2020-06-25T17:22:39Z</time>
      </trkpt>
      <trkpt lat="49.69506" lon="5.42233">
        <ele>335.6</ele>
        <time>2020-06-25T17:22:40Z</time>
      </trkpt>
      <trkpt lat="49.69505" lon="5.42239">
        <ele>335.6</ele>
        <time>2020-06-25T17:22:41Z</time>
      </trkpt>
      <trkpt lat="49.69505" lon="5.42245">
        <ele>335.7</ele>
        <time>2020-06-25T17:22:42Z</time>
      </trkpt>
      <trkpt lat="49.69504" lon="5.42253">
        <ele>335.8</ele>
        <time>2020-06-25T17:22:43Z</time>
      </trkpt>
      <trkpt lat="49.69504" lon="5.42259">
        <ele>335.8</ele>
        <time>2020-06-25T17:22:44Z</time>
      </trkpt>
      <trkpt lat="49.69505" lon="5.42265">
        <ele>335.9</ele>
        <time>2020-06-25T17:22:45Z</time>
      </trkpt>
      <trkpt lat="49.69505" lon="5.42273">
        <ele>335.9</ele>
        <time>2020-06-25T17:22:46Z</time>
      </trkpt>
      <trkpt lat="49.69505" lon="5.42281">
        <ele>336</ele>
        <time>2020-06-25T17:22:47Z</time>
      </trkpt>
      <trkpt lat="49.69504" lon="5.42289">
        <ele>336</ele>
        <time>2020-06-25T17:22:48Z</time>
      </trkpt>
      <trkpt lat="49.69504" lon="5.42293">
        <ele>336.1</ele>
        <time>2020-06-25T17:22:49Z</time>
      </trkpt>
      <trkpt lat="49.69504" lon="5.42299">
        <ele>336.1</ele>
        <time>2020-06-25T17:22:50Z</time>
      </trkpt>
      <trkpt lat="49.69504" lon="5.42305">
        <ele>336.2</ele>
        <time>2020-06-25T17:22:51Z</time>
      </trkpt>
      <trkpt lat="49.69504" lon="5.42312">
        <ele>336.3</ele>
        <time>2020-06-25T17:22:52Z</time>
      </trkpt>
      <trkpt lat="49.69503" lon="5.42319">
        <ele>336.3</ele>
        <time>2020-06-25T17:22:53Z</time>
      </trkpt>
      <trkpt lat="49.69503" lon="5.42326">
        <ele>336.4</ele>
        <time>2020-06-25T17:22:54Z</time>
      </trkpt>
      <trkpt lat="49.69503" lon="5.42334">
        <ele>336.4</ele>
        <time>2020-06-25T17:22:55Z</time>
      </trkpt>
      <trkpt lat="49.69503" lon="5.42343">
        <ele>336.5</ele>
        <time>2020-06-25T17:22:56Z</time>
      </trkpt>
      <trkpt lat="49.69503" lon="5.4235">
        <ele>336.5</ele>
        <time>2020-06-25T17:22:57Z</time>
      </trkpt>
      <trkpt lat="49.69503" lon="5.42355">
        <ele>336.5</ele>
        <time>2020-06-25T17:22:58Z</time>
      </trkpt>
      <trkpt lat="49.69502" lon="5.42362">
        <ele>336.5</ele>
        <time>2020-06-25T17:22:59Z</time>
      </trkpt>
      <trkpt lat="49.69501" lon="5.42369">
        <ele>336.5</ele>
        <time>2020-06-25T17:23:00Z</time>
      </trkpt>
      <trkpt lat="49.695" lon="5.42377">
        <ele>336.5</ele>
        <time>2020-06-25T17:23:01Z</time>
      </trkpt>
      <trkpt lat="49.695" lon="5.42385">
        <ele>336.5</ele>
        <time>2020-06-25T17:23:02Z</time>
      </trkpt>
      <trkpt lat="49.695" lon="5.42394">
        <ele>336.4</ele>
        <time>2020-06-25T17:23:03Z</time>
      </trkpt>
      <trkpt lat="49.69499" lon="5.42403">
        <ele>336.4</ele>
        <time>2020-06-25T17:23:04Z</time>
      </trkpt>
      <trkpt lat="49.69498" lon="5.42411">
        <ele>336.4</ele>
        <time>2020-06-25T17:23:05Z</time>
      </trkpt>
      <trkpt lat="49.69497" lon="5.4242">
        <ele>336.3</ele>
        <time>2020-06-25T17:23:06Z</time>
      </trkpt>
      <trkpt lat="49.69496" lon="5.42428">
        <ele>336.3</ele>
        <time>2020-06-25T17:23:07Z</time>
      </trkpt>
      <trkpt lat="49.69496" lon="5.42436">
        <ele>336.3</ele>
        <time>2020-06-25T17:23:08Z</time>
      </trkpt>
      <trkpt lat="49.69495" lon="5.42444">
        <ele>336.3</ele>
        <time>2020-06-25T17:23:09Z</time>
      </trkpt>
      <trkpt lat="49.69493" lon="5.42453">
        <ele>336.3</ele>
        <time>2020-06-25T17:23:10Z</time>
      </trkpt>
      <trkpt lat="49.69492" lon="5.42462">
        <ele>336.3</ele>
        <time>2020-06-25T17:23:11Z</time>
      </trkpt>
      <trkpt lat="49.69492" lon="5.42469">
        <ele>336.3</ele>
        <time>2020-06-25T17:23:12Z</time>
      </trkpt>
      <trkpt lat="49.69491" lon="5.42476">
        <ele>336.3</ele>
        <time>2020-06-25T17:23:13Z</time>
      </trkpt>
      <trkpt lat="49.6949" lon="5.42483">
        <ele>336.4</ele>
        <time>2020-06-25T17:23:14Z</time>
      </trkpt>
      <trkpt lat="49.69489" lon="5.42491">
        <ele>336.4</ele>
        <time>2020-06-25T17:23:15Z</time>
      </trkpt>
      <trkpt lat="49.69488" lon="5.42498">
        <ele>336.4</ele>
        <time>2020-06-25T17:23:16Z</time>
      </trkpt>
      <trkpt lat="49.69486" lon="5.42506">
        <ele>336.3</ele>
        <time>2020-06-25T17:23:17Z</time>
      </trkpt>
      <trkpt lat="49.69486" lon="5.42515">
        <ele>336.3</ele>
        <time>2020-06-25T17:23:18Z</time>
      </trkpt>
      <trkpt lat="49.69484" lon="5.42524">
        <ele>336.4</ele>
        <time>2020-06-25T17:23:19Z</time>
      </trkpt>
      <trkpt lat="49.69482" lon="5.42534">
        <ele>336.4</ele>
        <time>2020-06-25T17:23:20Z</time>
      </trkpt>
      <trkpt lat="49.69481" lon="5.42543">
        <ele>336.5</ele>
        <time>2020-06-25T17:23:21Z</time>
      </trkpt>
      <trkpt lat="49.69479" lon="5.42552">
        <ele>336.5</ele>
        <time>2020-06-25T17:23:22Z</time>
      </trkpt>
      <trkpt lat="49.69478" lon="5.4256">
        <ele>336.6</ele>
        <time>2020-06-25T17:23:23Z</time>
      </trkpt>
      <trkpt lat="49.69477" lon="5.42566">
        <ele>336.7</ele>
        <time>2020-06-25T17:23:24Z</time>
      </trkpt>
      <trkpt lat="49.69475" lon="5.42574">
        <ele>336.7</ele>
        <time>2020-06-25T17:23:25Z</time>
      </trkpt>
      <trkpt lat="49.69474" lon="5.42582">
        <ele>336.7</ele>
        <time>2020-06-25T17:23:26Z</time>
      </trkpt>
      <trkpt lat="49.69472" lon="5.4259">
        <ele>336.7</ele>
        <time>2020-06-25T17:23:27Z</time>
      </trkpt>
      <trkpt lat="49.6947" lon="5.42598">
        <ele>336.8</ele>
        <time>2020-06-25T17:23:28Z</time>
      </trkpt>
      <trkpt lat="49.69468" lon="5.42605">
        <ele>336.8</ele>
        <time>2020-06-25T17:23:29Z</time>
      </trkpt>
      <trkpt lat="49.69467" lon="5.42612">
        <ele>336.8</ele>
        <time>2020-06-25T17:23:30Z</time>
      </trkpt>
      <trkpt lat="49.69465" lon="5.42619">
        <ele>336.9</ele>
        <time>2020-06-25T17:23:31Z</time>
      </trkpt>
      <trkpt lat="49.69464" lon="5.42626">
        <ele>337</ele>
        <time>2020-06-25T17:23:32Z</time>
      </trkpt>
      <trkpt lat="49.69462" lon="5.42633">
        <ele>337</ele>
        <time>2020-06-25T17:23:33Z</time>
      </trkpt>
      <trkpt lat="49.69461" lon="5.4264">
        <ele>337.1</ele>
        <time>2020-06-25T17:23:34Z</time>
      </trkpt>
      <trkpt lat="49.69459" lon="5.42646">
        <ele>337.2</ele>
        <time>2020-06-25T17:23:35Z</time>
      </trkpt>
      <trkpt lat="49.69458" lon="5.42653">
        <ele>337.3</ele>
        <time>2020-06-25T17:23:36Z</time>
      </trkpt>
      <trkpt lat="49.69456" lon="5.42659">
        <ele>337.4</ele>
        <time>2020-06-25T17:23:37Z</time>
      </trkpt>
      <trkpt lat="49.69453" lon="5.42665">
        <ele>338</ele>
        <time>2020-06-25T17:23:38Z</time>
      </trkpt>
      <trkpt lat="49.69451" lon="5.42671">
        <ele>338</ele>
        <time>2020-06-25T17:23:39Z</time>
      </trkpt>
      <trkpt lat="49.69448" lon="5.42675">
        <ele>338</ele>
        <time>2020-06-25T17:23:40Z</time>
      </trkpt>
      <trkpt lat="49.69448" lon="5.42681">
        <ele>337.9</ele>
        <time>2020-06-25T17:23:41Z</time>
      </trkpt>
      <trkpt lat="49.69446" lon="5.42689">
        <ele>337.9</ele>
        <time>2020-06-25T17:23:42Z</time>
      </trkpt>
      <trkpt lat="49.69445" lon="5.42697">
        <ele>337.9</ele>
        <time>2020-06-25T17:23:43Z</time>
      </trkpt>
      <trkpt lat="49.69443" lon="5.42703">
        <ele>337.9</ele>
        <time>2020-06-25T17:23:44Z</time>
      </trkpt>
      <trkpt lat="49.69442" lon="5.42709">
        <ele>338</ele>
        <time>2020-06-25T17:23:45Z</time>
      </trkpt>
      <trkpt lat="49.69441" lon="5.42715">
        <ele>338</ele>
        <time>2020-06-25T17:23:46Z</time>
      </trkpt>
      <trkpt lat="49.6944" lon="5.42722">
        <ele>338</ele>
        <time>2020-06-25T17:23:47Z</time>
      </trkpt>
      <trkpt lat="49.69439" lon="5.42727">
        <ele>338.1</ele>
        <time>2020-06-25T17:23:48Z</time>
      </trkpt>
      <trkpt lat="49.69438" lon="5.42732">
        <ele>338.1</ele>
        <time>2020-06-25T17:23:49Z</time>
      </trkpt>
      <trkpt lat="49.69437" lon="5.42737">
        <ele>338.2</ele>
        <time>2020-06-25T17:23:50Z</time>
      </trkpt>
      <trkpt lat="49.69436" lon="5.42743">
        <ele>338.2</ele>
        <time>2020-06-25T17:23:51Z</time>
      </trkpt>
      <trkpt lat="49.69435" lon="5.42748">
        <ele>338.3</ele>
        <time>2020-06-25T17:23:52Z</time>
      </trkpt>
      <trkpt lat="49.69434" lon="5.42753">
        <ele>338.4</ele>
        <time>2020-06-25T17:23:53Z</time>
      </trkpt>
      <trkpt lat="49.69432" lon="5.42759">
        <ele>338.4</ele>
        <time>2020-06-25T17:23:54Z</time>
      </trkpt>
      <trkpt lat="49.69431" lon="5.42765">
        <ele>338.5</ele>
        <time>2020-06-25T17:23:55Z</time>
      </trkpt>
      <trkpt lat="49.69431" lon="5.42771">
        <ele>338.6</ele>
        <time>2020-06-25T17:23:56Z</time>
      </trkpt>
      <trkpt lat="49.6943" lon="5.42776">
        <ele>338.6</ele>
        <time>2020-06-25T17:23:57Z</time>
      </trkpt>
      <trkpt lat="49.6943" lon="5.42781">
        <ele>338.7</ele>
        <time>2020-06-25T17:23:58Z</time>
      </trkpt>
      <trkpt lat="49.69429" lon="5.42786">
        <ele>338.8</ele>
        <time>2020-06-25T17:23:59Z</time>
      </trkpt>
      <trkpt lat="49.69428" lon="5.42792">
        <ele>338.8</ele>
        <time>2020-06-25T17:24:00Z</time>
      </trkpt>
      <trkpt lat="49.69427" lon="5.42797">
        <ele>338.9</ele>
        <time>2020-06-25T17:24:01Z</time>
      </trkpt>
      <trkpt lat="49.69425" lon="5.42804">
        <ele>339</ele>
        <time>2020-06-25T17:24:02Z</time>
      </trkpt>
      <trkpt lat="49.69424" lon="5.4281">
        <ele>339.1</ele>
        <time>2020-06-25T17:24:03Z</time>
      </trkpt>
      <trkpt lat="49.69423" lon="5.42816">
        <ele>339.2</ele>
        <time>2020-06-25T17:24:04Z</time>
      </trkpt>
      <trkpt lat="49.69422" lon="5.42822">
        <ele>339.3</ele>
        <time>2020-06-25T17:24:05Z</time>
      </trkpt>
      <trkpt lat="49.69422" lon="5.42827">
        <ele>339.4</ele>
        <time>2020-06-25T17:24:06Z</time>
      </trkpt>
      <trkpt lat="49.69421" lon="5.42834">
        <ele>339.5</ele>
        <time>2020-06-25T17:24:07Z</time>
      </trkpt>
      <trkpt lat="49.6942" lon="5.42841">
        <ele>339.7</ele>
        <time>2020-06-25T17:24:08Z</time>
      </trkpt>
      <trkpt lat="49.6942" lon="5.42848">
        <ele>340</ele>
        <time>2020-06-25T17:24:09Z</time>
      </trkpt>
      <trkpt lat="49.69418" lon="5.42854">
        <ele>340.1</ele>
        <time>2020-06-25T17:24:10Z</time>
      </trkpt>
      <trkpt lat="49.69417" lon="5.42859">
        <ele>340.2</ele>
        <time>2020-06-25T17:24:11Z</time>
      </trkpt>
      <trkpt lat="49.69414" lon="5.42864">
        <ele>340.3</ele>
        <time>2020-06-25T17:24:12Z</time>
      </trkpt>
      <trkpt lat="49.69413" lon="5.4287">
        <ele>340.5</ele>
        <time>2020-06-25T17:24:13Z</time>
      </trkpt>
      <trkpt lat="49.69413" lon="5.42875">
        <ele>340.7</ele>
        <time>2020-06-25T17:24:14Z</time>
      </trkpt>
      <trkpt lat="49.69411" lon="5.4288">
        <ele>340.9</ele>
        <time>2020-06-25T17:24:15Z</time>
      </trkpt>
      <trkpt lat="49.69411" lon="5.42885">
        <ele>341.1</ele>
        <time>2020-06-25T17:24:16Z</time>
      </trkpt>
      <trkpt lat="49.69409" lon="5.42889">
        <ele>341.3</ele>
        <time>2020-06-25T17:24:17Z</time>
      </trkpt>
      <trkpt lat="49.69409" lon="5.42895">
        <ele>341.5</ele>
        <time>2020-06-25T17:24:18Z</time>
      </trkpt>
      <trkpt lat="49.69407" lon="5.42902">
        <ele>341.7</ele>
        <time>2020-06-25T17:24:19Z</time>
      </trkpt>
      <trkpt lat="49.69406" lon="5.42908">
        <ele>341.8</ele>
        <time>2020-06-25T17:24:20Z</time>
      </trkpt>
      <trkpt lat="49.69404" lon="5.42914">
        <ele>342</ele>
        <time>2020-06-25T17:24:21Z</time>
      </trkpt>
      <trkpt lat="49.69403" lon="5.42921">
        <ele>342.1</ele>
        <time>2020-06-25T17:24:22Z</time>
      </trkpt>
      <trkpt lat="49.69403" lon="5.42927">
        <ele>342.3</ele>
        <time>2020-06-25T17:24:23Z</time>
      </trkpt>
      <trkpt lat="49.69403" lon="5.42931">
        <ele>342.4</ele>
        <time>2020-06-25T17:24:24Z</time>
      </trkpt>
      <trkpt lat="49.69402" lon="5.42938">
        <ele>342.7</ele>
        <time>2020-06-25T17:24:25Z</time>
      </trkpt>
      <trkpt lat="49.69402" lon="5.42944">
        <ele>342.9</ele>
        <time>2020-06-25T17:24:26Z</time>
      </trkpt>
      <trkpt lat="49.69401" lon="5.42949">
        <ele>343.2</ele>
        <time>2020-06-25T17:24:27Z</time>
      </trkpt>
      <trkpt lat="49.69401" lon="5.42954">
        <ele>343.4</ele>
        <time>2020-06-25T17:24:28Z</time>
      </trkpt>
      <trkpt lat="49.694" lon="5.42959">
        <ele>343.6</ele>
        <time>2020-06-25T17:24:29Z</time>
      </trkpt>
      <trkpt lat="49.69399" lon="5.42964">
        <ele>343.7</ele>
        <time>2020-06-25T17:24:30Z</time>
      </trkpt>
      <trkpt lat="49.69397" lon="5.42969">
        <ele>343.9</ele>
        <time>2020-06-25T17:24:31Z</time>
      </trkpt>
      <trkpt lat="49.69396" lon="5.42975">
        <ele>344.1</ele>
        <time>2020-06-25T17:24:32Z</time>
      </trkpt>
      <trkpt lat="49.69394" lon="5.42982">
        <ele>344.3</ele>
        <time>2020-06-25T17:24:33Z</time>
      </trkpt>
      <trkpt lat="49.69392" lon="5.42989">
        <ele>344.5</ele>
        <time>2020-06-25T17:24:34Z</time>
      </trkpt>
      <trkpt lat="49.69391" lon="5.42995">
        <ele>344.7</ele>
        <time>2020-06-25T17:24:35Z</time>
      </trkpt>
      <trkpt lat="49.69389" lon="5.43002">
        <ele>344.8</ele>
        <time>2020-06-25T17:24:36Z</time>
      </trkpt>
      <trkpt lat="49.69388" lon="5.43008">
        <ele>345</ele>
        <time>2020-06-25T17:24:37Z</time>
      </trkpt>
      <trkpt lat="49.69387" lon="5.43014">
        <ele>345.1</ele>
        <time>2020-06-25T17:24:38Z</time>
      </trkpt>
      <trkpt lat="49.69386" lon="5.43021">
        <ele>345.2</ele>
        <time>2020-06-25T17:24:39Z</time>
      </trkpt>
      <trkpt lat="49.69384" lon="5.43028">
        <ele>345.4</ele>
        <time>2020-06-25T17:24:40Z</time>
      </trkpt>
      <trkpt lat="49.69383" lon="5.43036">
        <ele>345.6</ele>
        <time>2020-06-25T17:24:41Z</time>
      </trkpt>
      <trkpt lat="49.69382" lon="5.43043">
        <ele>345.8</ele>
        <time>2020-06-25T17:24:42Z</time>
      </trkpt>
      <trkpt lat="49.69381" lon="5.4305">
        <ele>346</ele>
        <time>2020-06-25T17:24:43Z</time>
      </trkpt>
      <trkpt lat="49.69381" lon="5.43057">
        <ele>346.1</ele>
        <time>2020-06-25T17:24:44Z</time>
      </trkpt>
      <trkpt lat="49.6938" lon="5.43063">
        <ele>346.3</ele>
        <time>2020-06-25T17:24:45Z</time>
      </trkpt>
      <trkpt lat="49.69379" lon="5.43069">
        <ele>346.5</ele>
        <time>2020-06-25T17:24:46Z</time>
      </trkpt>
      <trkpt lat="49.69378" lon="5.43075">
        <ele>346.7</ele>
        <time>2020-06-25T17:24:47Z</time>
      </trkpt>
      <trkpt lat="49.69376" lon="5.4308">
        <ele>346.8</ele>
        <time>2020-06-25T17:24:48Z</time>
      </trkpt>
      <trkpt lat="49.69375" lon="5.43085">
        <ele>347</ele>
        <time>2020-06-25T17:24:49Z</time>
      </trkpt>
      <trkpt lat="49.69374" lon="5.43092">
        <ele>347.2</ele>
        <time>2020-06-25T17:24:50Z</time>
      </trkpt>
      <trkpt lat="49.69372" lon="5.43098">
        <ele>347.3</ele>
        <time>2020-06-25T17:24:51Z</time>
      </trkpt>
      <trkpt lat="49.69371" lon="5.43105">
        <ele>347.5</ele>
        <time>2020-06-25T17:24:52Z</time>
      </trkpt>
      <trkpt lat="49.69369" lon="5.43111">
        <ele>347.6</ele>
        <time>2020-06-25T17:24:53Z</time>
      </trkpt>
      <trkpt lat="49.69368" lon="5.43118">
        <ele>347.8</ele>
        <time>2020-06-25T17:24:54Z</time>
      </trkpt>
      <trkpt lat="49.69367" lon="5.43124">
        <ele>347.9</ele>
        <time>2020-06-25T17:24:55Z</time>
      </trkpt>
      <trkpt lat="49.69366" lon="5.4313">
        <ele>347.9</ele>
        <time>2020-06-25T17:24:56Z</time>
      </trkpt>
      <trkpt lat="49.69365" lon="5.43137">
        <ele>348</ele>
        <time>2020-06-25T17:24:57Z</time>
      </trkpt>
      <trkpt lat="49.69364" lon="5.43144">
        <ele>348.1</ele>
        <time>2020-06-25T17:24:58Z</time>
      </trkpt>
      <trkpt lat="49.69364" lon="5.43151">
        <ele>348.2</ele>
        <time>2020-06-25T17:24:59Z</time>
      </trkpt>
      <trkpt lat="49.69363" lon="5.43157">
        <ele>348.4</ele>
        <time>2020-06-25T17:25:00Z</time>
      </trkpt>
      <trkpt lat="49.69362" lon="5.43164">
        <ele>348.5</ele>
        <time>2020-06-25T17:25:01Z</time>
      </trkpt>
      <trkpt lat="49.69362" lon="5.43172">
        <ele>348.6</ele>
        <time>2020-06-25T17:25:02Z</time>
      </trkpt>
      <trkpt lat="49.69361" lon="5.43179">
        <ele>348.8</ele>
        <time>2020-06-25T17:25:03Z</time>
      </trkpt>
      <trkpt lat="49.6936" lon="5.43187">
        <ele>349</ele>
        <time>2020-06-25T17:25:04Z</time>
      </trkpt>
      <trkpt lat="49.69359" lon="5.43194">
        <ele>349.2</ele>
        <time>2020-06-25T17:25:05Z</time>
      </trkpt>
      <trkpt lat="49.69357" lon="5.432">
        <ele>349.4</ele>
        <time>2020-06-25T17:25:06Z</time>
      </trkpt>
      <trkpt lat="49.69356" lon="5.43207">
        <ele>349.6</ele>
        <time>2020-06-25T17:25:07Z</time>
      </trkpt>
      <trkpt lat="49.69355" lon="5.43213">
        <ele>349.8</ele>
        <time>2020-06-25T17:25:08Z</time>
      </trkpt>
      <trkpt lat="49.69354" lon="5.43221">
        <ele>350.2</ele>
        <time>2020-06-25T17:25:09Z</time>
      </trkpt>
      <trkpt lat="49.69353" lon="5.43229">
        <ele>350.5</ele>
        <time>2020-06-25T17:25:10Z</time>
      </trkpt>
      <trkpt lat="49.69353" lon="5.43237">
        <ele>350.7</ele>
        <time>2020-06-25T17:25:11Z</time>
      </trkpt>
      <trkpt lat="49.69352" lon="5.43244">
        <ele>350.9</ele>
        <time>2020-06-25T17:25:12Z</time>
      </trkpt>
      <trkpt lat="49.69352" lon="5.43252">
        <ele>351</ele>
        <time>2020-06-25T17:25:13Z</time>
      </trkpt>
      <trkpt lat="49.69351" lon="5.43259">
        <ele>351.1</ele>
        <time>2020-06-25T17:25:14Z</time>
      </trkpt>
      <trkpt lat="49.6935" lon="5.43267">
        <ele>351.2</ele>
        <time>2020-06-25T17:25:15Z</time>
      </trkpt>
      <trkpt lat="49.69348" lon="5.43275">
        <ele>351.3</ele>
        <time>2020-06-25T17:25:16Z</time>
      </trkpt>
      <trkpt lat="49.69348" lon="5.43283">
        <ele>351.3</ele>
        <time>2020-06-25T17:25:17Z</time>
      </trkpt>
      <trkpt lat="49.69347" lon="5.43291">
        <ele>351.4</ele>
        <time>2020-06-25T17:25:18Z</time>
      </trkpt>
      <trkpt lat="49.69347" lon="5.43298">
        <ele>351.4</ele>
        <time>2020-06-25T17:25:19Z</time>
      </trkpt>
      <trkpt lat="49.69345" lon="5.43305">
        <ele>351.5</ele>
        <time>2020-06-25T17:25:20Z</time>
      </trkpt>
      <trkpt lat="49.69344" lon="5.43312">
        <ele>351.6</ele>
        <time>2020-06-25T17:25:21Z</time>
      </trkpt>
      <trkpt lat="49.69343" lon="5.43319">
        <ele>351.6</ele>
        <time>2020-06-25T17:25:22Z</time>
      </trkpt>
      <trkpt lat="49.69342" lon="5.43325">
        <ele>351.7</ele>
        <time>2020-06-25T17:25:23Z</time>
      </trkpt>
      <trkpt lat="49.69341" lon="5.43332">
        <ele>351.8</ele>
        <time>2020-06-25T17:25:24Z</time>
      </trkpt>
      <trkpt lat="49.69341" lon="5.43339">
        <ele>351.8</ele>
        <time>2020-06-25T17:25:25Z</time>
      </trkpt>
      <trkpt lat="49.6934" lon="5.43346">
        <ele>351.9</ele>
        <time>2020-06-25T17:25:26Z</time>
      </trkpt>
      <trkpt lat="49.6934" lon="5.43354">
        <ele>351.9</ele>
        <time>2020-06-25T17:25:27Z</time>
      </trkpt>
      <trkpt lat="49.69339" lon="5.43363">
        <ele>352</ele>
        <time>2020-06-25T17:25:28Z</time>
      </trkpt>
      <trkpt lat="49.69339" lon="5.43371">
        <ele>352.1</ele>
        <time>2020-06-25T17:25:29Z</time>
      </trkpt>
      <trkpt lat="49.69338" lon="5.43378">
        <ele>352.1</ele>
        <time>2020-06-25T17:25:30Z</time>
      </trkpt>
      <trkpt lat="49.69337" lon="5.43388">
        <ele>352.1</ele>
        <time>2020-06-25T17:25:31Z</time>
      </trkpt>
      <trkpt lat="49.69335" lon="5.43396">
        <ele>352.1</ele>
        <time>2020-06-25T17:25:32Z</time>
      </trkpt>
      <trkpt lat="49.69335" lon="5.43403">
        <ele>352.1</ele>
        <time>2020-06-25T17:25:33Z</time>
      </trkpt>
      <trkpt lat="49.69333" lon="5.43411">
        <ele>352.1</ele>
        <time>2020-06-25T17:25:34Z</time>
      </trkpt>
      <trkpt lat="49.69331" lon="5.43419">
        <ele>352.1</ele>
        <time>2020-06-25T17:25:35Z</time>
      </trkpt>
      <trkpt lat="49.69329" lon="5.43427">
        <ele>352.2</ele>
        <time>2020-06-25T17:25:36Z</time>
      </trkpt>
      <trkpt lat="49.69328" lon="5.43437">
        <ele>352.2</ele>
        <time>2020-06-25T17:25:37Z</time>
      </trkpt>
      <trkpt lat="49.69327" lon="5.43445">
        <ele>352.3</ele>
        <time>2020-06-25T17:25:38Z</time>
      </trkpt>
      <trkpt lat="49.69327" lon="5.43454">
        <ele>352.1</ele>
        <time>2020-06-25T17:25:39Z</time>
      </trkpt>
      <trkpt lat="49.69327" lon="5.43463">
        <ele>351.7</ele>
        <time>2020-06-25T17:25:40Z</time>
      </trkpt>
      <trkpt lat="49.69323" lon="5.4347">
        <ele>350.9</ele>
        <time>2020-06-25T17:25:41Z</time>
      </trkpt>
      <trkpt lat="49.69322" lon="5.43478">
        <ele>349.8</ele>
        <time>2020-06-25T17:25:42Z</time>
      </trkpt>
      <trkpt lat="49.69321" lon="5.43486">
        <ele>349.6</ele>
        <time>2020-06-25T17:25:43Z</time>
      </trkpt>
      <trkpt lat="49.6932" lon="5.43495">
        <ele>349.5</ele>
        <time>2020-06-25T17:25:44Z</time>
      </trkpt>
      <trkpt lat="49.69318" lon="5.43504">
        <ele>349.5</ele>
        <time>2020-06-25T17:25:45Z</time>
      </trkpt>
      <trkpt lat="49.69317" lon="5.43514">
        <ele>349.5</ele>
        <time>2020-06-25T17:25:46Z</time>
      </trkpt>
      <trkpt lat="49.69316" lon="5.43523">
        <ele>349.6</ele>
        <time>2020-06-25T17:25:47Z</time>
      </trkpt>
      <trkpt lat="49.69315" lon="5.43531">
        <ele>349.6</ele>
        <time>2020-06-25T17:25:48Z</time>
      </trkpt>
      <trkpt lat="49.69314" lon="5.4354">
        <ele>349.6</ele>
        <time>2020-06-25T17:25:49Z</time>
      </trkpt>
      <trkpt lat="49.69314" lon="5.43549">
        <ele>349.6</ele>
        <time>2020-06-25T17:25:50Z</time>
      </trkpt>
      <trkpt lat="49.69313" lon="5.43557">
        <ele>349.5</ele>
        <time>2020-06-25T17:25:51Z</time>
      </trkpt>
      <trkpt lat="49.69312" lon="5.43567">
        <ele>349.5</ele>
        <time>2020-06-25T17:25:52Z</time>
      </trkpt>
      <trkpt lat="49.69311" lon="5.43576">
        <ele>349.5</ele>
        <time>2020-06-25T17:25:53Z</time>
      </trkpt>
      <trkpt lat="49.6931" lon="5.43585">
        <ele>349.5</ele>
        <time>2020-06-25T17:25:54Z</time>
      </trkpt>
      <trkpt lat="49.69309" lon="5.43594">
        <ele>349.5</ele>
        <time>2020-06-25T17:25:55Z</time>
      </trkpt>
      <trkpt lat="49.69308" lon="5.43604">
        <ele>349.5</ele>
        <time>2020-06-25T17:25:56Z</time>
      </trkpt>
      <trkpt lat="49.69307" lon="5.43612">
        <ele>349.5</ele>
        <time>2020-06-25T17:25:57Z</time>
      </trkpt>
      <trkpt lat="49.69307" lon="5.43621">
        <ele>349.5</ele>
        <time>2020-06-25T17:25:58Z</time>
      </trkpt>
      <trkpt lat="49.69307" lon="5.4363">
        <ele>349.5</ele>
        <time>2020-06-25T17:25:59Z</time>
      </trkpt>
      <trkpt lat="49.69306" lon="5.4364">
        <ele>349.5</ele>
        <time>2020-06-25T17:26:00Z</time>
      </trkpt>
      <trkpt lat="49.69305" lon="5.43649">
        <ele>349.5</ele>
        <time>2020-06-25T17:26:01Z</time>
      </trkpt>
      <trkpt lat="49.69304" lon="5.43658">
        <ele>349.5</ele>
        <time>2020-06-25T17:26:02Z</time>
      </trkpt>
      <trkpt lat="49.69303" lon="5.43668">
        <ele>349.5</ele>
        <time>2020-06-25T17:26:03Z</time>
      </trkpt>
      <trkpt lat="49.69302" lon="5.43677">
        <ele>349.5</ele>
        <time>2020-06-25T17:26:04Z</time>
      </trkpt>
      <trkpt lat="49.69302" lon="5.4369">
        <ele>349.5</ele>
        <time>2020-06-25T17:26:05Z</time>
      </trkpt>
      <trkpt lat="49.693" lon="5.43702">
        <ele>349.5</ele>
        <time>2020-06-25T17:26:06Z</time>
      </trkpt>
      <trkpt lat="49.69299" lon="5.43712">
        <ele>349.4</ele>
        <time>2020-06-25T17:26:07Z</time>
      </trkpt>
      <trkpt lat="49.69298" lon="5.4372">
        <ele>349.3</ele>
        <time>2020-06-25T17:26:08Z</time>
      </trkpt>
      <trkpt lat="49.69298" lon="5.43729">
        <ele>349.3</ele>
        <time>2020-06-25T17:26:09Z</time>
      </trkpt>
      <trkpt lat="49.69297" lon="5.43739">
        <ele>349.2</ele>
        <time>2020-06-25T17:26:10Z</time>
      </trkpt>
      <trkpt lat="49.69297" lon="5.43749">
        <ele>349.1</ele>
        <time>2020-06-25T17:26:11Z</time>
      </trkpt>
      <trkpt lat="49.69296" lon="5.43759">
        <ele>349</ele>
        <time>2020-06-25T17:26:12Z</time>
      </trkpt>
      <trkpt lat="49.69296" lon="5.4377">
        <ele>349</ele>
        <time>2020-06-25T17:26:13Z</time>
      </trkpt>
      <trkpt lat="49.69295" lon="5.43779">
        <ele>348.9</ele>
        <time>2020-06-25T17:26:14Z</time>
      </trkpt>
      <trkpt lat="49.69295" lon="5.43788">
        <ele>348.9</ele>
        <time>2020-06-25T17:26:15Z</time>
      </trkpt>
      <trkpt lat="49.69294" lon="5.43797">
        <ele>348.8</ele>
        <time>2020-06-25T17:26:16Z</time>
      </trkpt>
      <trkpt lat="49.69294" lon="5.43805">
        <ele>348.8</ele>
        <time>2020-06-25T17:26:17Z</time>
      </trkpt>
      <trkpt lat="49.69294" lon="5.43815">
        <ele>348.7</ele>
        <time>2020-06-25T17:26:18Z</time>
      </trkpt>
      <trkpt lat="49.69293" lon="5.43825">
        <ele>348.7</ele>
        <time>2020-06-25T17:26:19Z</time>
      </trkpt>
      <trkpt lat="49.69293" lon="5.43833">
        <ele>348.7</ele>
        <time>2020-06-25T17:26:20Z</time>
      </trkpt>
      <trkpt lat="49.69292" lon="5.43843">
        <ele>348.6</ele>
        <time>2020-06-25T17:26:21Z</time>
      </trkpt>
      <trkpt lat="49.69292" lon="5.43852">
        <ele>348.6</ele>
        <time>2020-06-25T17:26:22Z</time>
      </trkpt>
      <trkpt lat="49.69291" lon="5.43862">
        <ele>348.5</ele>
        <time>2020-06-25T17:26:23Z</time>
      </trkpt>
      <trkpt lat="49.69291" lon="5.43873">
        <ele>348.4</ele>
        <time>2020-06-25T17:26:24Z</time>
      </trkpt>
      <trkpt lat="49.6929" lon="5.43884">
        <ele>348.3</ele>
        <time>2020-06-25T17:26:25Z</time>
      </trkpt>
      <trkpt lat="49.69289" lon="5.43892">
        <ele>348.2</ele>
        <time>2020-06-25T17:26:26Z</time>
      </trkpt>
      <trkpt lat="49.69288" lon="5.43902">
        <ele>348.1</ele>
        <time>2020-06-25T17:26:27Z</time>
      </trkpt>
      <trkpt lat="49.69288" lon="5.43913">
        <ele>348.1</ele>
        <time>2020-06-25T17:26:28Z</time>
      </trkpt>
      <trkpt lat="49.69287" lon="5.43923">
        <ele>348</ele>
        <time>2020-06-25T17:26:29Z</time>
      </trkpt>
      <trkpt lat="49.69286" lon="5.43933">
        <ele>347.9</ele>
        <time>2020-06-25T17:26:30Z</time>
      </trkpt>
      <trkpt lat="49.69285" lon="5.43944">
        <ele>347.8</ele>
        <time>2020-06-25T17:26:31Z</time>
      </trkpt>
      <trkpt lat="49.69285" lon="5.43953">
        <ele>347.7</ele>
        <time>2020-06-25T17:26:32Z</time>
      </trkpt>
      <trkpt lat="49.69284" lon="5.43963">
        <ele>347.6</ele>
        <time>2020-06-25T17:26:33Z</time>
      </trkpt>
      <trkpt lat="49.69283" lon="5.43973">
        <ele>347.6</ele>
        <time>2020-06-25T17:26:34Z</time>
      </trkpt>
      <trkpt lat="49.69282" lon="5.43982">
        <ele>347.5</ele>
        <time>2020-06-25T17:26:35Z</time>
      </trkpt>
      <trkpt lat="49.69281" lon="5.43991">
        <ele>347.5</ele>
        <time>2020-06-25T17:26:36Z</time>
      </trkpt>
      <trkpt lat="49.6928" lon="5.44001">
        <ele>347.5</ele>
        <time>2020-06-25T17:26:37Z</time>
      </trkpt>
      <trkpt lat="49.69278" lon="5.4401">
        <ele>347.5</ele>
        <time>2020-06-25T17:26:38Z</time>
      </trkpt>
      <trkpt lat="49.69277" lon="5.44019">
        <ele>347.5</ele>
        <time>2020-06-25T17:26:39Z</time>
      </trkpt>
      <trkpt lat="49.69276" lon="5.44028">
        <ele>347.5</ele>
        <time>2020-06-25T17:26:40Z</time>
      </trkpt>
      <trkpt lat="49.69274" lon="5.44037">
        <ele>347.4</ele>
        <time>2020-06-25T17:26:41Z</time>
      </trkpt>
      <trkpt lat="49.69273" lon="5.44045">
        <ele>347.2</ele>
        <time>2020-06-25T17:26:42Z</time>
      </trkpt>
      <trkpt lat="49.69272" lon="5.44054">
        <ele>347</ele>
        <time>2020-06-25T17:26:43Z</time>
      </trkpt>
      <trkpt lat="49.69271" lon="5.44062">
        <ele>346.8</ele>
        <time>2020-06-25T17:26:44Z</time>
      </trkpt>
      <trkpt lat="49.6927" lon="5.44071">
        <ele>346.6</ele>
        <time>2020-06-25T17:26:45Z</time>
      </trkpt>
      <trkpt lat="49.69269" lon="5.4408">
        <ele>346.4</ele>
        <time>2020-06-25T17:26:46Z</time>
      </trkpt>
      <trkpt lat="49.69268" lon="5.44087">
        <ele>346.3</ele>
        <time>2020-06-25T17:26:47Z</time>
      </trkpt>
      <trkpt lat="49.69267" lon="5.44096">
        <ele>346.2</ele>
        <time>2020-06-25T17:26:48Z</time>
      </trkpt>
      <trkpt lat="49.69266" lon="5.44105">
        <ele>346.1</ele>
        <time>2020-06-25T17:26:49Z</time>
      </trkpt>
      <trkpt lat="49.69264" lon="5.44115">
        <ele>346</ele>
        <time>2020-06-25T17:26:50Z</time>
      </trkpt>
      <trkpt lat="49.69263" lon="5.44123">
        <ele>345.9</ele>
        <time>2020-06-25T17:26:51Z</time>
      </trkpt>
      <trkpt lat="49.69262" lon="5.44131">
        <ele>345.8</ele>
        <time>2020-06-25T17:26:52Z</time>
      </trkpt>
      <trkpt lat="49.69261" lon="5.44139">
        <ele>345.7</ele>
        <time>2020-06-25T17:26:53Z</time>
      </trkpt>
      <trkpt lat="49.6926" lon="5.44147">
        <ele>345.6</ele>
        <time>2020-06-25T17:26:54Z</time>
      </trkpt>
      <trkpt lat="49.69258" lon="5.44155">
        <ele>345.5</ele>
        <time>2020-06-25T17:26:55Z</time>
      </trkpt>
      <trkpt lat="49.69256" lon="5.44164">
        <ele>345.5</ele>
        <time>2020-06-25T17:26:56Z</time>
      </trkpt>
      <trkpt lat="49.69254" lon="5.44174">
        <ele>345.4</ele>
        <time>2020-06-25T17:26:57Z</time>
      </trkpt>
      <trkpt lat="49.69253" lon="5.44183">
        <ele>345.3</ele>
        <time>2020-06-25T17:26:58Z</time>
      </trkpt>
      <trkpt lat="49.69251" lon="5.44191">
        <ele>345.3</ele>
        <time>2020-06-25T17:26:59Z</time>
      </trkpt>
      <trkpt lat="49.6925" lon="5.442">
        <ele>345.2</ele>
        <time>2020-06-25T17:27:00Z</time>
      </trkpt>
      <trkpt lat="49.69248" lon="5.44208">
        <ele>345.1</ele>
        <time>2020-06-25T17:27:01Z</time>
      </trkpt>
      <trkpt lat="49.69247" lon="5.44216">
        <ele>345.1</ele>
        <time>2020-06-25T17:27:02Z</time>
      </trkpt>
      <trkpt lat="49.69246" lon="5.44225">
        <ele>345.1</ele>
        <time>2020-06-25T17:27:03Z</time>
      </trkpt>
      <trkpt lat="49.69244" lon="5.44233">
        <ele>345.1</ele>
        <time>2020-06-25T17:27:04Z</time>
      </trkpt>
      <trkpt lat="49.69242" lon="5.44241">
        <ele>345.1</ele>
        <time>2020-06-25T17:27:05Z</time>
      </trkpt>
      <trkpt lat="49.6924" lon="5.44249">
        <ele>345</ele>
        <time>2020-06-25T17:27:06Z</time>
      </trkpt>
      <trkpt lat="49.69237" lon="5.44257">
        <ele>344.9</ele>
        <time>2020-06-25T17:27:07Z</time>
      </trkpt>
      <trkpt lat="49.69236" lon="5.44267">
        <ele>344.9</ele>
        <time>2020-06-25T17:27:08Z</time>
      </trkpt>
      <trkpt lat="49.69234" lon="5.44276">
        <ele>344.8</ele>
        <time>2020-06-25T17:27:09Z</time>
      </trkpt>
      <trkpt lat="49.69232" lon="5.44285">
        <ele>344.7</ele>
        <time>2020-06-25T17:27:10Z</time>
      </trkpt>
      <trkpt lat="49.69231" lon="5.44293">
        <ele>344.7</ele>
        <time>2020-06-25T17:27:11Z</time>
      </trkpt>
      <trkpt lat="49.6923" lon="5.44301">
        <ele>344.6</ele>
        <time>2020-06-25T17:27:12Z</time>
      </trkpt>
      <trkpt lat="49.69229" lon="5.44308">
        <ele>344.6</ele>
        <time>2020-06-25T17:27:13Z</time>
      </trkpt>
      <trkpt lat="49.69228" lon="5.44316">
        <ele>344.5</ele>
        <time>2020-06-25T17:27:14Z</time>
      </trkpt>
      <trkpt lat="49.69226" lon="5.44327">
        <ele>344.5</ele>
        <time>2020-06-25T17:27:15Z</time>
      </trkpt>
      <trkpt lat="49.69223" lon="5.44337">
        <ele>344.4</ele>
        <time>2020-06-25T17:27:16Z</time>
      </trkpt>
      <trkpt lat="49.69221" lon="5.44348">
        <ele>344.3</ele>
        <time>2020-06-25T17:27:17Z</time>
      </trkpt>
      <trkpt lat="49.69218" lon="5.44357">
        <ele>344.1</ele>
        <time>2020-06-25T17:27:18Z</time>
      </trkpt>
      <trkpt lat="49.69217" lon="5.44368">
        <ele>344</ele>
        <time>2020-06-25T17:27:19Z</time>
      </trkpt>
      <trkpt lat="49.69215" lon="5.44379">
        <ele>343.8</ele>
        <time>2020-06-25T17:27:20Z</time>
      </trkpt>
      <trkpt lat="49.69213" lon="5.4439">
        <ele>343.7</ele>
        <time>2020-06-25T17:27:21Z</time>
      </trkpt>
      <trkpt lat="49.69211" lon="5.444">
        <ele>343.7</ele>
        <time>2020-06-25T17:27:22Z</time>
      </trkpt>
      <trkpt lat="49.6921" lon="5.44409">
        <ele>343.6</ele>
        <time>2020-06-25T17:27:23Z</time>
      </trkpt>
      <trkpt lat="49.69208" lon="5.4442">
        <ele>343.5</ele>
        <time>2020-06-25T17:27:24Z</time>
      </trkpt>
      <trkpt lat="49.69207" lon="5.4443">
        <ele>343.3</ele>
        <time>2020-06-25T17:27:25Z</time>
      </trkpt>
      <trkpt lat="49.69206" lon="5.4444">
        <ele>343.1</ele>
        <time>2020-06-25T17:27:26Z</time>
      </trkpt>
      <trkpt lat="49.69204" lon="5.4445">
        <ele>342.9</ele>
        <time>2020-06-25T17:27:27Z</time>
      </trkpt>
      <trkpt lat="49.69203" lon="5.4446">
        <ele>342.7</ele>
        <time>2020-06-25T17:27:28Z</time>
      </trkpt>
      <trkpt lat="49.69201" lon="5.4447">
        <ele>342.6</ele>
        <time>2020-06-25T17:27:29Z</time>
      </trkpt>
      <trkpt lat="49.692" lon="5.4448">
        <ele>342.5</ele>
        <time>2020-06-25T17:27:30Z</time>
      </trkpt>
      <trkpt lat="49.69198" lon="5.4449">
        <ele>342.3</ele>
        <time>2020-06-25T17:27:31Z</time>
      </trkpt>
      <trkpt lat="49.69197" lon="5.445">
        <ele>342.1</ele>
        <time>2020-06-25T17:27:32Z</time>
      </trkpt>
      <trkpt lat="49.69196" lon="5.44511">
        <ele>341.9</ele>
        <time>2020-06-25T17:27:33Z</time>
      </trkpt>
      <trkpt lat="49.69195" lon="5.44521">
        <ele>341.7</ele>
        <time>2020-06-25T17:27:34Z</time>
      </trkpt>
      <trkpt lat="49.69193" lon="5.44532">
        <ele>341.5</ele>
        <time>2020-06-25T17:27:35Z</time>
      </trkpt>
      <trkpt lat="49.69192" lon="5.44542">
        <ele>341.4</ele>
        <time>2020-06-25T17:27:36Z</time>
      </trkpt>
      <trkpt lat="49.69191" lon="5.44553">
        <ele>341.3</ele>
        <time>2020-06-25T17:27:37Z</time>
      </trkpt>
      <trkpt lat="49.69189" lon="5.44564">
        <ele>341</ele>
        <time>2020-06-25T17:27:38Z</time>
      </trkpt>
      <trkpt lat="49.69188" lon="5.44574">
        <ele>340.8</ele>
        <time>2020-06-25T17:27:39Z</time>
      </trkpt>
      <trkpt lat="49.69186" lon="5.44585">
        <ele>340.6</ele>
        <time>2020-06-25T17:27:40Z</time>
      </trkpt>
      <trkpt lat="49.69185" lon="5.44596">
        <ele>340.4</ele>
        <time>2020-06-25T17:27:41Z</time>
      </trkpt>
      <trkpt lat="49.69184" lon="5.44606">
        <ele>340.2</ele>
        <time>2020-06-25T17:27:42Z</time>
      </trkpt>
      <trkpt lat="49.69183" lon="5.44617">
        <ele>340</ele>
        <time>2020-06-25T17:27:43Z</time>
      </trkpt>
      <trkpt lat="49.69182" lon="5.44628">
        <ele>339.7</ele>
        <time>2020-06-25T17:27:44Z</time>
      </trkpt>
      <trkpt lat="49.69181" lon="5.44639">
        <ele>339.5</ele>
        <time>2020-06-25T17:27:45Z</time>
      </trkpt>
      <trkpt lat="49.69179" lon="5.4465">
        <ele>339.3</ele>
        <time>2020-06-25T17:27:46Z</time>
      </trkpt>
      <trkpt lat="49.69178" lon="5.44661">
        <ele>339</ele>
        <time>2020-06-25T17:27:47Z</time>
      </trkpt>
      <trkpt lat="49.69177" lon="5.44672">
        <ele>338.8</ele>
        <time>2020-06-25T17:27:48Z</time>
      </trkpt>
      <trkpt lat="49.69176" lon="5.44683">
        <ele>338.7</ele>
        <time>2020-06-25T17:27:49Z</time>
      </trkpt>
      <trkpt lat="49.69174" lon="5.44693">
        <ele>338.5</ele>
        <time>2020-06-25T17:27:50Z</time>
      </trkpt>
      <trkpt lat="49.69172" lon="5.44703">
        <ele>338.3</ele>
        <time>2020-06-25T17:27:51Z</time>
      </trkpt>
      <trkpt lat="49.69171" lon="5.44714">
        <ele>338.1</ele>
        <time>2020-06-25T17:27:52Z</time>
      </trkpt>
      <trkpt lat="49.6917" lon="5.44725">
        <ele>337.9</ele>
        <time>2020-06-25T17:27:53Z</time>
      </trkpt>
      <trkpt lat="49.69169" lon="5.44735">
        <ele>337.7</ele>
        <time>2020-06-25T17:27:54Z</time>
      </trkpt>
      <trkpt lat="49.69169" lon="5.44746">
        <ele>337.4</ele>
        <time>2020-06-25T17:27:55Z</time>
      </trkpt>
      <trkpt lat="49.69168" lon="5.44756">
        <ele>337.2</ele>
        <time>2020-06-25T17:27:56Z</time>
      </trkpt>
      <trkpt lat="49.69166" lon="5.44767">
        <ele>336.9</ele>
        <time>2020-06-25T17:27:57Z</time>
      </trkpt>
      <trkpt lat="49.69165" lon="5.44777">
        <ele>336.7</ele>
        <time>2020-06-25T17:27:58Z</time>
      </trkpt>
      <trkpt lat="49.69163" lon="5.44788">
        <ele>336.4</ele>
        <time>2020-06-25T17:27:59Z</time>
      </trkpt>
      <trkpt lat="49.69162" lon="5.44799">
        <ele>336.1</ele>
        <time>2020-06-25T17:28:00Z</time>
      </trkpt>
      <trkpt lat="49.69162" lon="5.4481">
        <ele>335.7</ele>
        <time>2020-06-25T17:28:01Z</time>
      </trkpt>
      <trkpt lat="49.69161" lon="5.44821">
        <ele>335.1</ele>
        <time>2020-06-25T17:28:02Z</time>
      </trkpt>
      <trkpt lat="49.6916" lon="5.44831">
        <ele>334.3</ele>
        <time>2020-06-25T17:28:03Z</time>
      </trkpt>
      <trkpt lat="49.69159" lon="5.44842">
        <ele>334.1</ele>
        <time>2020-06-25T17:28:04Z</time>
      </trkpt>
      <trkpt lat="49.69157" lon="5.44852">
        <ele>333.9</ele>
        <time>2020-06-25T17:28:05Z</time>
      </trkpt>
      <trkpt lat="49.69156" lon="5.44863">
        <ele>333.7</ele>
        <time>2020-06-25T17:28:06Z</time>
      </trkpt>
      <trkpt lat="49.69154" lon="5.44874">
        <ele>333.6</ele>
        <time>2020-06-25T17:28:07Z</time>
      </trkpt>
      <trkpt lat="49.69154" lon="5.44885">
        <ele>333.3</ele>
        <time>2020-06-25T17:28:08Z</time>
      </trkpt>
      <trkpt lat="49.69153" lon="5.44895">
        <ele>333.2</ele>
        <time>2020-06-25T17:28:09Z</time>
      </trkpt>
      <trkpt lat="49.69151" lon="5.44906">
        <ele>333.1</ele>
        <time>2020-06-25T17:28:10Z</time>
      </trkpt>
      <trkpt lat="49.69151" lon="5.44916">
        <ele>332.9</ele>
        <time>2020-06-25T17:28:11Z</time>
      </trkpt>
      <trkpt lat="49.6915" lon="5.44926">
        <ele>332.7</ele>
        <time>2020-06-25T17:28:12Z</time>
      </trkpt>
      <trkpt lat="49.69148" lon="5.44935">
        <ele>332.5</ele>
        <time>2020-06-25T17:28:13Z</time>
      </trkpt>
      <trkpt lat="49.69146" lon="5.44944">
        <ele>332.3</ele>
        <time>2020-06-25T17:28:14Z</time>
      </trkpt>
      <trkpt lat="49.69145" lon="5.44954">
        <ele>332.1</ele>
        <time>2020-06-25T17:28:15Z</time>
      </trkpt>
      <trkpt lat="49.69143" lon="5.44963">
        <ele>332</ele>
        <time>2020-06-25T17:28:16Z</time>
      </trkpt>
      <trkpt lat="49.69142" lon="5.44972">
        <ele>331.9</ele>
        <time>2020-06-25T17:28:17Z</time>
      </trkpt>
      <trkpt lat="49.6914" lon="5.4498">
        <ele>331.8</ele>
        <time>2020-06-25T17:28:18Z</time>
      </trkpt>
      <trkpt lat="49.69139" lon="5.44987">
        <ele>331.8</ele>
        <time>2020-06-25T17:28:19Z</time>
      </trkpt>
      <trkpt lat="49.69137" lon="5.44994">
        <ele>331.7</ele>
        <time>2020-06-25T17:28:20Z</time>
      </trkpt>
      <trkpt lat="49.69136" lon="5.45">
        <ele>331.7</ele>
        <time>2020-06-25T17:28:21Z</time>
      </trkpt>
      <trkpt lat="49.69136" lon="5.45005">
        <ele>331.7</ele>
        <time>2020-06-25T17:28:22Z</time>
      </trkpt>
      <trkpt lat="49.69136" lon="5.45009">
        <ele>331.7</ele>
        <time>2020-06-25T17:28:23Z</time>
      </trkpt>
      <trkpt lat="49.69136" lon="5.45014">
        <ele>331.6</ele>
        <time>2020-06-25T17:28:24Z</time>
      </trkpt>
      <trkpt lat="49.69135" lon="5.45018">
        <ele>331.6</ele>
        <time>2020-06-25T17:28:25Z</time>
      </trkpt>
      <trkpt lat="49.69134" lon="5.45023">
        <ele>331.6</ele>
        <time>2020-06-25T17:28:26Z</time>
      </trkpt>
      <trkpt lat="49.69133" lon="5.45028">
        <ele>331.6</ele>
        <time>2020-06-25T17:28:27Z</time>
      </trkpt>
      <trkpt lat="49.69132" lon="5.45034">
        <ele>331.6</ele>
        <time>2020-06-25T17:28:28Z</time>
      </trkpt>
      <trkpt lat="49.69132" lon="5.45039">
        <ele>331.5</ele>
        <time>2020-06-25T17:28:29Z</time>
      </trkpt>
      <trkpt lat="49.69131" lon="5.45044">
        <ele>331.5</ele>
        <time>2020-06-25T17:28:30Z</time>
      </trkpt>
      <trkpt lat="49.6913" lon="5.45049">
        <ele>331.5</ele>
        <time>2020-06-25T17:28:31Z</time>
      </trkpt>
      <trkpt lat="49.6913" lon="5.45054">
        <ele>331.5</ele>
        <time>2020-06-25T17:28:32Z</time>
      </trkpt>
      <trkpt lat="49.69129" lon="5.45059">
        <ele>331.5</ele>
        <time>2020-06-25T17:28:33Z</time>
      </trkpt>
      <trkpt lat="49.69128" lon="5.45064">
        <ele>331.4</ele>
        <time>2020-06-25T17:28:34Z</time>
      </trkpt>
      <trkpt lat="49.69127" lon="5.45068">
        <ele>331.4</ele>
        <time>2020-06-25T17:28:35Z</time>
      </trkpt>
      <trkpt lat="49.69127" lon="5.45073">
        <ele>331.4</ele>
        <time>2020-06-25T17:28:36Z</time>
      </trkpt>
      <trkpt lat="49.69126" lon="5.45077">
        <ele>331.4</ele>
        <time>2020-06-25T17:28:37Z</time>
      </trkpt>
      <trkpt lat="49.69126" lon="5.45082">
        <ele>331.4</ele>
        <time>2020-06-25T17:28:38Z</time>
      </trkpt>
      <trkpt lat="49.69125" lon="5.45088">
        <ele>331.4</ele>
        <time>2020-06-25T17:28:39Z</time>
      </trkpt>
      <trkpt lat="49.69124" lon="5.4509">
        <ele>331.3</ele>
        <time>2020-06-25T17:28:40Z</time>
      </trkpt>
      <trkpt lat="49.69126" lon="5.45095">
        <ele>331.3</ele>
        <time>2020-06-25T17:28:41Z</time>
      </trkpt>
      <trkpt lat="49.69124" lon="5.45099">
        <ele>331.3</ele>
        <time>2020-06-25T17:28:42Z</time>
      </trkpt>
      <trkpt lat="49.69124" lon="5.45105">
        <ele>331.3</ele>
        <time>2020-06-25T17:28:43Z</time>
      </trkpt>
      <trkpt lat="49.69125" lon="5.45107">
        <ele>331.3</ele>
        <time>2020-06-25T17:28:44Z</time>
      </trkpt>
      <trkpt lat="49.69125" lon="5.45112">
        <ele>331.3</ele>
        <time>2020-06-25T17:28:45Z</time>
      </trkpt>
      <trkpt lat="49.69125" lon="5.45114">
        <ele>331.3</ele>
        <time>2020-06-25T17:28:46Z</time>
      </trkpt>
      <trkpt lat="49.69124" lon="5.45118">
        <ele>331.3</ele>
        <time>2020-06-25T17:28:47Z</time>
      </trkpt>
      <trkpt lat="49.69123" lon="5.4512">
        <ele>331.3</ele>
        <time>2020-06-25T17:28:48Z</time>
      </trkpt>
      <trkpt lat="49.69121" lon="5.45124">
        <ele>331.3</ele>
        <time>2020-06-25T17:28:49Z</time>
      </trkpt>
      <trkpt lat="49.6912" lon="5.45126">
        <ele>331.3</ele>
        <time>2020-06-25T17:28:50Z</time>
      </trkpt>
      <trkpt lat="49.69119" lon="5.45132">
        <ele>331.3</ele>
        <time>2020-06-25T17:28:51Z</time>
      </trkpt>
      <trkpt lat="49.69118" lon="5.45133">
        <ele>331.3</ele>
        <time>2020-06-25T17:28:52Z</time>
      </trkpt>
      <trkpt lat="49.69117" lon="5.45137">
        <ele>331.3</ele>
        <time>2020-06-25T17:28:53Z</time>
      </trkpt>
      <trkpt lat="49.69115" lon="5.45141">
        <ele>331.3</ele>
        <time>2020-06-25T17:28:54Z</time>
      </trkpt>
      <trkpt lat="49.69115" lon="5.45146">
        <ele>331.3</ele>
        <time>2020-06-25T17:28:55Z</time>
      </trkpt>
      <trkpt lat="49.69114" lon="5.45152">
        <ele>331.3</ele>
        <time>2020-06-25T17:28:56Z</time>
      </trkpt>
      <trkpt lat="49.69114" lon="5.45158">
        <ele>331.3</ele>
        <time>2020-06-25T17:28:57Z</time>
      </trkpt>
      <trkpt lat="49.69114" lon="5.45163">
        <ele>331.4</ele>
        <time>2020-06-25T17:28:58Z</time>
      </trkpt>
      <trkpt lat="49.69113" lon="5.45169">
        <ele>331.4</ele>
        <time>2020-06-25T17:28:59Z</time>
      </trkpt>
      <trkpt lat="49.69112" lon="5.45174">
        <ele>331.4</ele>
        <time>2020-06-25T17:29:00Z</time>
      </trkpt>
      <trkpt lat="49.69112" lon="5.45179">
        <ele>331.4</ele>
        <time>2020-06-25T17:29:01Z</time>
      </trkpt>
      <trkpt lat="49.69111" lon="5.45185">
        <ele>331.4</ele>
        <time>2020-06-25T17:29:02Z</time>
      </trkpt>
      <trkpt lat="49.6911" lon="5.4519">
        <ele>331.4</ele>
        <time>2020-06-25T17:29:03Z</time>
      </trkpt>
      <trkpt lat="49.69109" lon="5.45196">
        <ele>331.4</ele>
        <time>2020-06-25T17:29:04Z</time>
      </trkpt>
      <trkpt lat="49.69109" lon="5.45202">
        <ele>331.4</ele>
        <time>2020-06-25T17:29:05Z</time>
      </trkpt>
      <trkpt lat="49.69109" lon="5.45208">
        <ele>331.5</ele>
        <time>2020-06-25T17:29:06Z</time>
      </trkpt>
      <trkpt lat="49.69108" lon="5.45213">
        <ele>331.5</ele>
        <time>2020-06-25T17:29:07Z</time>
      </trkpt>
      <trkpt lat="49.69107" lon="5.45219">
        <ele>331.5</ele>
        <time>2020-06-25T17:29:08Z</time>
      </trkpt>
      <trkpt lat="49.69106" lon="5.45225">
        <ele>331.6</ele>
        <time>2020-06-25T17:29:09Z</time>
      </trkpt>
      <trkpt lat="49.69105" lon="5.4523">
        <ele>331.6</ele>
        <time>2020-06-25T17:29:10Z</time>
      </trkpt>
      <trkpt lat="49.69103" lon="5.45235">
        <ele>331.6</ele>
        <time>2020-06-25T17:29:11Z</time>
      </trkpt>
      <trkpt lat="49.69102" lon="5.4524">
        <ele>331.5</ele>
        <time>2020-06-25T17:29:12Z</time>
      </trkpt>
      <trkpt lat="49.69101" lon="5.45246">
        <ele>331.5</ele>
        <time>2020-06-25T17:29:13Z</time>
      </trkpt>
      <trkpt lat="49.69099" lon="5.45252">
        <ele>331.5</ele>
        <time>2020-06-25T17:29:14Z</time>
      </trkpt>
      <trkpt lat="49.69098" lon="5.45258">
        <ele>331.5</ele>
        <time>2020-06-25T17:29:15Z</time>
      </trkpt>
      <trkpt lat="49.69096" lon="5.45263">
        <ele>331.5</ele>
        <time>2020-06-25T17:29:16Z</time>
      </trkpt>
      <trkpt lat="49.69094" lon="5.45268">
        <ele>331.5</ele>
        <time>2020-06-25T17:29:17Z</time>
      </trkpt>
      <trkpt lat="49.69093" lon="5.45275">
        <ele>331.6</ele>
        <time>2020-06-25T17:29:18Z</time>
      </trkpt>
      <trkpt lat="49.69092" lon="5.45281">
        <ele>331.6</ele>
        <time>2020-06-25T17:29:19Z</time>
      </trkpt>
      <trkpt lat="49.69091" lon="5.45287">
        <ele>331.7</ele>
        <time>2020-06-25T17:29:20Z</time>
      </trkpt>
      <trkpt lat="49.69089" lon="5.45292">
        <ele>331.7</ele>
        <time>2020-06-25T17:29:21Z</time>
      </trkpt>
      <trkpt lat="49.69087" lon="5.45297">
        <ele>331.8</ele>
        <time>2020-06-25T17:29:22Z</time>
      </trkpt>
      <trkpt lat="49.69085" lon="5.45303">
        <ele>331.8</ele>
        <time>2020-06-25T17:29:23Z</time>
      </trkpt>
      <trkpt lat="49.69083" lon="5.45308">
        <ele>331.9</ele>
        <time>2020-06-25T17:29:24Z</time>
      </trkpt>
      <trkpt lat="49.69081" lon="5.45312">
        <ele>332</ele>
        <time>2020-06-25T17:29:25Z</time>
      </trkpt>
      <trkpt lat="49.69079" lon="5.45317">
        <ele>332</ele>
        <time>2020-06-25T17:29:26Z</time>
      </trkpt>
      <trkpt lat="49.69077" lon="5.45323">
        <ele>332.1</ele>
        <time>2020-06-25T17:29:27Z</time>
      </trkpt>
      <trkpt lat="49.69075" lon="5.45328">
        <ele>332.2</ele>
        <time>2020-06-25T17:29:28Z</time>
      </trkpt>
      <trkpt lat="49.69073" lon="5.45333">
        <ele>332.3</ele>
        <time>2020-06-25T17:29:29Z</time>
      </trkpt>
      <trkpt lat="49.69071" lon="5.45339">
        <ele>332.4</ele>
        <time>2020-06-25T17:29:30Z</time>
      </trkpt>
      <trkpt lat="49.6907" lon="5.45344">
        <ele>332.4</ele>
        <time>2020-06-25T17:29:31Z</time>
      </trkpt>
      <trkpt lat="49.69068" lon="5.4535">
        <ele>332.5</ele>
        <time>2020-06-25T17:29:32Z</time>
      </trkpt>
      <trkpt lat="49.69067" lon="5.45355">
        <ele>332.6</ele>
        <time>2020-06-25T17:29:33Z</time>
      </trkpt>
      <trkpt lat="49.69065" lon="5.4536">
        <ele>332.7</ele>
        <time>2020-06-25T17:29:34Z</time>
      </trkpt>
      <trkpt lat="49.69063" lon="5.45365">
        <ele>332.7</ele>
        <time>2020-06-25T17:29:35Z</time>
      </trkpt>
      <trkpt lat="49.69061" lon="5.45369">
        <ele>332.8</ele>
        <time>2020-06-25T17:29:36Z</time>
      </trkpt>
      <trkpt lat="49.69059" lon="5.45374">
        <ele>332.9</ele>
        <time>2020-06-25T17:29:37Z</time>
      </trkpt>
      <trkpt lat="49.69056" lon="5.45379">
        <ele>332.9</ele>
        <time>2020-06-25T17:29:38Z</time>
      </trkpt>
      <trkpt lat="49.69054" lon="5.45384">
        <ele>333</ele>
        <time>2020-06-25T17:29:39Z</time>
      </trkpt>
      <trkpt lat="49.69052" lon="5.45388">
        <ele>333.1</ele>
        <time>2020-06-25T17:29:40Z</time>
      </trkpt>
      <trkpt lat="49.6905" lon="5.45393">
        <ele>333.1</ele>
        <time>2020-06-25T17:29:41Z</time>
      </trkpt>
      <trkpt lat="49.69049" lon="5.45398">
        <ele>333.2</ele>
        <time>2020-06-25T17:29:42Z</time>
      </trkpt>
      <trkpt lat="49.69047" lon="5.45402">
        <ele>333.2</ele>
        <time>2020-06-25T17:29:43Z</time>
      </trkpt>
      <trkpt lat="49.69045" lon="5.45406">
        <ele>333.3</ele>
        <time>2020-06-25T17:29:44Z</time>
      </trkpt>
      <trkpt lat="49.69043" lon="5.45411">
        <ele>333.4</ele>
        <time>2020-06-25T17:29:45Z</time>
      </trkpt>
      <trkpt lat="49.69041" lon="5.45415">
        <ele>333.5</ele>
        <time>2020-06-25T17:29:46Z</time>
      </trkpt>
      <trkpt lat="49.69039" lon="5.45419">
        <ele>333.5</ele>
        <time>2020-06-25T17:29:47Z</time>
      </trkpt>
      <trkpt lat="49.69037" lon="5.45423">
        <ele>333.6</ele>
        <time>2020-06-25T17:29:48Z</time>
      </trkpt>
      <trkpt lat="49.69035" lon="5.45427">
        <ele>333.7</ele>
        <time>2020-06-25T17:29:49Z</time>
      </trkpt>
      <trkpt lat="49.69033" lon="5.45431">
        <ele>333.8</ele>
        <time>2020-06-25T17:29:50Z</time>
      </trkpt>
      <trkpt lat="49.69032" lon="5.45435">
        <ele>333.8</ele>
        <time>2020-06-25T17:29:51Z</time>
      </trkpt>
      <trkpt lat="49.6903" lon="5.45439">
        <ele>333.9</ele>
        <time>2020-06-25T17:29:52Z</time>
      </trkpt>
      <trkpt lat="49.69028" lon="5.45445">
        <ele>334</ele>
        <time>2020-06-25T17:29:53Z</time>
      </trkpt>
      <trkpt lat="49.69026" lon="5.45449">
        <ele>334</ele>
        <time>2020-06-25T17:29:54Z</time>
      </trkpt>
      <trkpt lat="49.69025" lon="5.45453">
        <ele>334.1</ele>
        <time>2020-06-25T17:29:55Z</time>
      </trkpt>
      <trkpt lat="49.69023" lon="5.45458">
        <ele>334.1</ele>
        <time>2020-06-25T17:29:56Z</time>
      </trkpt>
      <trkpt lat="49.69021" lon="5.45462">
        <ele>334.2</ele>
        <time>2020-06-25T17:29:57Z</time>
      </trkpt>
      <trkpt lat="49.69019" lon="5.45467">
        <ele>334.3</ele>
        <time>2020-06-25T17:29:58Z</time>
      </trkpt>
      <trkpt lat="49.69017" lon="5.45471">
        <ele>334.4</ele>
        <time>2020-06-25T17:29:59Z</time>
      </trkpt>
      <trkpt lat="49.69014" lon="5.45474">
        <ele>334.5</ele>
        <time>2020-06-25T17:30:00Z</time>
      </trkpt>
      <trkpt lat="49.69012" lon="5.45479">
        <ele>334.6</ele>
        <time>2020-06-25T17:30:01Z</time>
      </trkpt>
      <trkpt lat="49.6901" lon="5.45484">
        <ele>334.7</ele>
        <time>2020-06-25T17:30:02Z</time>
      </trkpt>
      <trkpt lat="49.69008" lon="5.45488">
        <ele>334.7</ele>
        <time>2020-06-25T17:30:03Z</time>
      </trkpt>
      <trkpt lat="49.69006" lon="5.45493">
        <ele>334.8</ele>
        <time>2020-06-25T17:30:04Z</time>
      </trkpt>
      <trkpt lat="49.69004" lon="5.45498">
        <ele>334.8</ele>
        <time>2020-06-25T17:30:05Z</time>
      </trkpt>
      <trkpt lat="49.69003" lon="5.45504">
        <ele>334.9</ele>
        <time>2020-06-25T17:30:06Z</time>
      </trkpt>
      <trkpt lat="49.69001" lon="5.45509">
        <ele>334.9</ele>
        <time>2020-06-25T17:30:07Z</time>
      </trkpt>
      <trkpt lat="49.68999" lon="5.45514">
        <ele>335</ele>
        <time>2020-06-25T17:30:08Z</time>
      </trkpt>
      <trkpt lat="49.68996" lon="5.45518">
        <ele>335.1</ele>
        <time>2020-06-25T17:30:09Z</time>
      </trkpt>
      <trkpt lat="49.68994" lon="5.45523">
        <ele>335.2</ele>
        <time>2020-06-25T17:30:10Z</time>
      </trkpt>
      <trkpt lat="49.68991" lon="5.45528">
        <ele>335.3</ele>
        <time>2020-06-25T17:30:11Z</time>
      </trkpt>
      <trkpt lat="49.6899" lon="5.45533">
        <ele>335.4</ele>
        <time>2020-06-25T17:30:12Z</time>
      </trkpt>
      <trkpt lat="49.68988" lon="5.45538">
        <ele>335.4</ele>
        <time>2020-06-25T17:30:13Z</time>
      </trkpt>
      <trkpt lat="49.68986" lon="5.45543">
        <ele>335.5</ele>
        <time>2020-06-25T17:30:14Z</time>
      </trkpt>
      <trkpt lat="49.68984" lon="5.45548">
        <ele>335.6</ele>
        <time>2020-06-25T17:30:15Z</time>
      </trkpt>
      <trkpt lat="49.68982" lon="5.45553">
        <ele>335.6</ele>
        <time>2020-06-25T17:30:16Z</time>
      </trkpt>
      <trkpt lat="49.6898" lon="5.45559">
        <ele>335.7</ele>
        <time>2020-06-25T17:30:17Z</time>
      </trkpt>
      <trkpt lat="49.68978" lon="5.45564">
        <ele>335.8</ele>
        <time>2020-06-25T17:30:18Z</time>
      </trkpt>
      <trkpt lat="49.68977" lon="5.45569">
        <ele>335.9</ele>
        <time>2020-06-25T17:30:19Z</time>
      </trkpt>
      <trkpt lat="49.68975" lon="5.45573">
        <ele>336</ele>
        <time>2020-06-25T17:30:20Z</time>
      </trkpt>
      <trkpt lat="49.68973" lon="5.45578">
        <ele>336.1</ele>
        <time>2020-06-25T17:30:21Z</time>
      </trkpt>
      <trkpt lat="49.6897" lon="5.45583">
        <ele>336.2</ele>
        <time>2020-06-25T17:30:22Z</time>
      </trkpt>
      <trkpt lat="49.68969" lon="5.45588">
        <ele>336.3</ele>
        <time>2020-06-25T17:30:23Z</time>
      </trkpt>
      <trkpt lat="49.68967" lon="5.45593">
        <ele>336.4</ele>
        <time>2020-06-25T17:30:24Z</time>
      </trkpt>
      <trkpt lat="49.68964" lon="5.45598">
        <ele>336.5</ele>
        <time>2020-06-25T17:30:25Z</time>
      </trkpt>
      <trkpt lat="49.68961" lon="5.45602">
        <ele>336.5</ele>
        <time>2020-06-25T17:30:26Z</time>
      </trkpt>
      <trkpt lat="49.6896" lon="5.45606">
        <ele>336.6</ele>
        <time>2020-06-25T17:30:27Z</time>
      </trkpt>
      <trkpt lat="49.68957" lon="5.4561">
        <ele>336.7</ele>
        <time>2020-06-25T17:30:28Z</time>
      </trkpt>
      <trkpt lat="49.68956" lon="5.45615">
        <ele>336.7</ele>
        <time>2020-06-25T17:30:29Z</time>
      </trkpt>
      <trkpt lat="49.68954" lon="5.4562">
        <ele>336.8</ele>
        <time>2020-06-25T17:30:30Z</time>
      </trkpt>
      <trkpt lat="49.68952" lon="5.45624">
        <ele>336.9</ele>
        <time>2020-06-25T17:30:31Z</time>
      </trkpt>
      <trkpt lat="49.68949" lon="5.45629">
        <ele>337</ele>
        <time>2020-06-25T17:30:32Z</time>
      </trkpt>
      <trkpt lat="49.68948" lon="5.45634">
        <ele>337</ele>
        <time>2020-06-25T17:30:33Z</time>
      </trkpt>
      <trkpt lat="49.68946" lon="5.4564">
        <ele>337.1</ele>
        <time>2020-06-25T17:30:34Z</time>
      </trkpt>
      <trkpt lat="49.68944" lon="5.45644">
        <ele>337.2</ele>
        <time>2020-06-25T17:30:35Z</time>
      </trkpt>
      <trkpt lat="49.68941" lon="5.45649">
        <ele>337.3</ele>
        <time>2020-06-25T17:30:36Z</time>
      </trkpt>
      <trkpt lat="49.68939" lon="5.45654">
        <ele>337.4</ele>
        <time>2020-06-25T17:30:37Z</time>
      </trkpt>
      <trkpt lat="49.68936" lon="5.45659">
        <ele>337.5</ele>
        <time>2020-06-25T17:30:38Z</time>
      </trkpt>
      <trkpt lat="49.68934" lon="5.45663">
        <ele>337.6</ele>
        <time>2020-06-25T17:30:39Z</time>
      </trkpt>
      <trkpt lat="49.68932" lon="5.45668">
        <ele>337.7</ele>
        <time>2020-06-25T17:30:40Z</time>
      </trkpt>
      <trkpt lat="49.6893" lon="5.45673">
        <ele>337.8</ele>
        <time>2020-06-25T17:30:41Z</time>
      </trkpt>
      <trkpt lat="49.68928" lon="5.45677">
        <ele>337.9</ele>
        <time>2020-06-25T17:30:42Z</time>
      </trkpt>
      <trkpt lat="49.68926" lon="5.45682">
        <ele>338</ele>
        <time>2020-06-25T17:30:43Z</time>
      </trkpt>
      <trkpt lat="49.68923" lon="5.45687">
        <ele>338.1</ele>
        <time>2020-06-25T17:30:44Z</time>
      </trkpt>
      <trkpt lat="49.68921" lon="5.45692">
        <ele>338.3</ele>
        <time>2020-06-25T17:30:45Z</time>
      </trkpt>
      <trkpt lat="49.6892" lon="5.45697">
        <ele>338.4</ele>
        <time>2020-06-25T17:30:46Z</time>
      </trkpt>
      <trkpt lat="49.68917" lon="5.45701">
        <ele>338.4</ele>
        <time>2020-06-25T17:30:47Z</time>
      </trkpt>
      <trkpt lat="49.68916" lon="5.45705">
        <ele>338.5</ele>
        <time>2020-06-25T17:30:48Z</time>
      </trkpt>
      <trkpt lat="49.68914" lon="5.4571">
        <ele>338.5</ele>
        <time>2020-06-25T17:30:49Z</time>
      </trkpt>
      <trkpt lat="49.68913" lon="5.45714">
        <ele>338.5</ele>
        <time>2020-06-25T17:30:50Z</time>
      </trkpt>
      <trkpt lat="49.68911" lon="5.45719">
        <ele>338.6</ele>
        <time>2020-06-25T17:30:51Z</time>
      </trkpt>
      <trkpt lat="49.68909" lon="5.45723">
        <ele>338.6</ele>
        <time>2020-06-25T17:30:52Z</time>
      </trkpt>
      <trkpt lat="49.68907" lon="5.45728">
        <ele>338.7</ele>
        <time>2020-06-25T17:30:53Z</time>
      </trkpt>
      <trkpt lat="49.68905" lon="5.45732">
        <ele>338.8</ele>
        <time>2020-06-25T17:30:54Z</time>
      </trkpt>
      <trkpt lat="49.68903" lon="5.45737">
        <ele>338.8</ele>
        <time>2020-06-25T17:30:55Z</time>
      </trkpt>
      <trkpt lat="49.68901" lon="5.45743">
        <ele>338.9</ele>
        <time>2020-06-25T17:30:56Z</time>
      </trkpt>
      <trkpt lat="49.68899" lon="5.45748">
        <ele>339</ele>
        <time>2020-06-25T17:30:57Z</time>
      </trkpt>
      <trkpt lat="49.68898" lon="5.45753">
        <ele>339.1</ele>
        <time>2020-06-25T17:30:58Z</time>
      </trkpt>
      <trkpt lat="49.68896" lon="5.45758">
        <ele>339.2</ele>
        <time>2020-06-25T17:30:59Z</time>
      </trkpt>
      <trkpt lat="49.68895" lon="5.45763">
        <ele>339.3</ele>
        <time>2020-06-25T17:31:00Z</time>
      </trkpt>
      <trkpt lat="49.68893" lon="5.45768">
        <ele>339.3</ele>
        <time>2020-06-25T17:31:01Z</time>
      </trkpt>
      <trkpt lat="49.68891" lon="5.45773">
        <ele>339.4</ele>
        <time>2020-06-25T17:31:02Z</time>
      </trkpt>
      <trkpt lat="49.68889" lon="5.45778">
        <ele>339.5</ele>
        <time>2020-06-25T17:31:03Z</time>
      </trkpt>
      <trkpt lat="49.68887" lon="5.45783">
        <ele>339.6</ele>
        <time>2020-06-25T17:31:04Z</time>
      </trkpt>
      <trkpt lat="49.68885" lon="5.45789">
        <ele>339.7</ele>
        <time>2020-06-25T17:31:05Z</time>
      </trkpt>
      <trkpt lat="49.68883" lon="5.45794">
        <ele>339.8</ele>
        <time>2020-06-25T17:31:06Z</time>
      </trkpt>
      <trkpt lat="49.68883" lon="5.458">
        <ele>339.9</ele>
        <time>2020-06-25T17:31:07Z</time>
      </trkpt>
      <trkpt lat="49.68882" lon="5.45807">
        <ele>340.1</ele>
        <time>2020-06-25T17:31:08Z</time>
      </trkpt>
      <trkpt lat="49.68881" lon="5.45813">
        <ele>340.2</ele>
        <time>2020-06-25T17:31:09Z</time>
      </trkpt>
      <trkpt lat="49.6888" lon="5.45819">
        <ele>340.3</ele>
        <time>2020-06-25T17:31:10Z</time>
      </trkpt>
      <trkpt lat="49.68879" lon="5.45824">
        <ele>340.4</ele>
        <time>2020-06-25T17:31:11Z</time>
      </trkpt>
      <trkpt lat="49.68878" lon="5.4583">
        <ele>340.4</ele>
        <time>2020-06-25T17:31:12Z</time>
      </trkpt>
      <trkpt lat="49.68876" lon="5.45836">
        <ele>340.4</ele>
        <time>2020-06-25T17:31:13Z</time>
      </trkpt>
      <trkpt lat="49.68875" lon="5.45842">
        <ele>340.5</ele>
        <time>2020-06-25T17:31:14Z</time>
      </trkpt>
      <trkpt lat="49.68873" lon="5.45847">
        <ele>340.5</ele>
        <time>2020-06-25T17:31:15Z</time>
      </trkpt>
      <trkpt lat="49.68872" lon="5.45853">
        <ele>340.6</ele>
        <time>2020-06-25T17:31:16Z</time>
      </trkpt>
      <trkpt lat="49.68871" lon="5.45859">
        <ele>340.6</ele>
        <time>2020-06-25T17:31:17Z</time>
      </trkpt>
      <trkpt lat="49.6887" lon="5.45865">
        <ele>340.7</ele>
        <time>2020-06-25T17:31:18Z</time>
      </trkpt>
      <trkpt lat="49.68869" lon="5.45871">
        <ele>340.8</ele>
        <time>2020-06-25T17:31:19Z</time>
      </trkpt>
      <trkpt lat="49.68867" lon="5.45878">
        <ele>340.9</ele>
        <time>2020-06-25T17:31:20Z</time>
      </trkpt>
      <trkpt lat="49.68866" lon="5.45885">
        <ele>340.9</ele>
        <time>2020-06-25T17:31:21Z</time>
      </trkpt>
      <trkpt lat="49.68865" lon="5.45892">
        <ele>341</ele>
        <time>2020-06-25T17:31:22Z</time>
      </trkpt>
      <trkpt lat="49.68865" lon="5.45898">
        <ele>341.1</ele>
        <time>2020-06-25T17:31:23Z</time>
      </trkpt>
      <trkpt lat="49.68864" lon="5.45906">
        <ele>341.2</ele>
        <time>2020-06-25T17:31:24Z</time>
      </trkpt>
      <trkpt lat="49.68863" lon="5.45912">
        <ele>341.3</ele>
        <time>2020-06-25T17:31:25Z</time>
      </trkpt>
      <trkpt lat="49.68862" lon="5.45918">
        <ele>341.4</ele>
        <time>2020-06-25T17:31:26Z</time>
      </trkpt>
      <trkpt lat="49.68861" lon="5.45924">
        <ele>341.4</ele>
        <time>2020-06-25T17:31:27Z</time>
      </trkpt>
      <trkpt lat="49.6886" lon="5.45932">
        <ele>341.5</ele>
        <time>2020-06-25T17:31:28Z</time>
      </trkpt>
      <trkpt lat="49.68859" lon="5.45939">
        <ele>341.5</ele>
        <time>2020-06-25T17:31:29Z</time>
      </trkpt>
      <trkpt lat="49.68859" lon="5.45946">
        <ele>341.6</ele>
        <time>2020-06-25T17:31:30Z</time>
      </trkpt>
      <trkpt lat="49.68857" lon="5.45954">
        <ele>341.6</ele>
        <time>2020-06-25T17:31:31Z</time>
      </trkpt>
      <trkpt lat="49.68856" lon="5.45962">
        <ele>341.7</ele>
        <time>2020-06-25T17:31:32Z</time>
      </trkpt>
      <trkpt lat="49.68855" lon="5.45969">
        <ele>341.8</ele>
        <time>2020-06-25T17:31:33Z</time>
      </trkpt>
      <trkpt lat="49.68854" lon="5.45976">
        <ele>341.8</ele>
        <time>2020-06-25T17:31:34Z</time>
      </trkpt>
      <trkpt lat="49.68853" lon="5.45983">
        <ele>341.9</ele>
        <time>2020-06-25T17:31:35Z</time>
      </trkpt>
      <trkpt lat="49.68851" lon="5.45989">
        <ele>342</ele>
        <time>2020-06-25T17:31:36Z</time>
      </trkpt>
      <trkpt lat="49.6885" lon="5.45996">
        <ele>342</ele>
        <time>2020-06-25T17:31:37Z</time>
      </trkpt>
      <trkpt lat="49.6885" lon="5.46003">
        <ele>342.1</ele>
        <time>2020-06-25T17:31:38Z</time>
      </trkpt>
      <trkpt lat="49.68849" lon="5.4601">
        <ele>342.1</ele>
        <time>2020-06-25T17:31:39Z</time>
      </trkpt>
      <trkpt lat="49.68848" lon="5.46018">
        <ele>342.2</ele>
        <time>2020-06-25T17:31:40Z</time>
      </trkpt>
      <trkpt lat="49.68847" lon="5.46027">
        <ele>342.2</ele>
        <time>2020-06-25T17:31:41Z</time>
      </trkpt>
      <trkpt lat="49.68845" lon="5.46033">
        <ele>342.2</ele>
        <time>2020-06-25T17:31:42Z</time>
      </trkpt>
      <trkpt lat="49.68844" lon="5.4604">
        <ele>342.3</ele>
        <time>2020-06-25T17:31:43Z</time>
      </trkpt>
      <trkpt lat="49.68844" lon="5.46048">
        <ele>342.3</ele>
        <time>2020-06-25T17:31:44Z</time>
      </trkpt>
      <trkpt lat="49.68843" lon="5.46055">
        <ele>342.3</ele>
        <time>2020-06-25T17:31:45Z</time>
      </trkpt>
      <trkpt lat="49.68843" lon="5.46062">
        <ele>342.4</ele>
        <time>2020-06-25T17:31:46Z</time>
      </trkpt>
      <trkpt lat="49.68842" lon="5.46069">
        <ele>342.4</ele>
        <time>2020-06-25T17:31:47Z</time>
      </trkpt>
      <trkpt lat="49.6884" lon="5.46076">
        <ele>342.4</ele>
        <time>2020-06-25T17:31:48Z</time>
      </trkpt>
      <trkpt lat="49.68839" lon="5.46081">
        <ele>342.4</ele>
        <time>2020-06-25T17:31:49Z</time>
      </trkpt>
      <trkpt lat="49.68839" lon="5.46088">
        <ele>342.4</ele>
        <time>2020-06-25T17:31:50Z</time>
      </trkpt>
      <trkpt lat="49.68837" lon="5.46097">
        <ele>342.5</ele>
        <time>2020-06-25T17:31:51Z</time>
      </trkpt>
      <trkpt lat="49.68836" lon="5.46105">
        <ele>342.6</ele>
        <time>2020-06-25T17:31:52Z</time>
      </trkpt>
      <trkpt lat="49.68835" lon="5.46114">
        <ele>342.7</ele>
        <time>2020-06-25T17:31:53Z</time>
      </trkpt>
      <trkpt lat="49.68833" lon="5.46122">
        <ele>342.7</ele>
        <time>2020-06-25T17:31:54Z</time>
      </trkpt>
      <trkpt lat="49.68832" lon="5.46131">
        <ele>342.7</ele>
        <time>2020-06-25T17:31:55Z</time>
      </trkpt>
      <trkpt lat="49.68831" lon="5.46137">
        <ele>342.7</ele>
        <time>2020-06-25T17:31:56Z</time>
      </trkpt>
      <trkpt lat="49.6883" lon="5.46145">
        <ele>342.6</ele>
        <time>2020-06-25T17:31:57Z</time>
      </trkpt>
      <trkpt lat="49.68828" lon="5.46152">
        <ele>342.6</ele>
        <time>2020-06-25T17:31:58Z</time>
      </trkpt>
      <trkpt lat="49.68827" lon="5.4616">
        <ele>342.6</ele>
        <time>2020-06-25T17:31:59Z</time>
      </trkpt>
      <trkpt lat="49.68826" lon="5.46167">
        <ele>342.5</ele>
        <time>2020-06-25T17:32:00Z</time>
      </trkpt>
      <trkpt lat="49.68826" lon="5.46178">
        <ele>342.5</ele>
        <time>2020-06-25T17:32:01Z</time>
      </trkpt>
      <trkpt lat="49.68825" lon="5.46185">
        <ele>342.5</ele>
        <time>2020-06-25T17:32:02Z</time>
      </trkpt>
      <trkpt lat="49.68824" lon="5.46192">
        <ele>342.5</ele>
        <time>2020-06-25T17:32:03Z</time>
      </trkpt>
      <trkpt lat="49.68822" lon="5.462">
        <ele>342.4</ele>
        <time>2020-06-25T17:32:04Z</time>
      </trkpt>
      <trkpt lat="49.68821" lon="5.46207">
        <ele>342.4</ele>
        <time>2020-06-25T17:32:05Z</time>
      </trkpt>
      <trkpt lat="49.68821" lon="5.46216">
        <ele>342.3</ele>
        <time>2020-06-25T17:32:06Z</time>
      </trkpt>
      <trkpt lat="49.68821" lon="5.46224">
        <ele>342.3</ele>
        <time>2020-06-25T17:32:07Z</time>
      </trkpt>
      <trkpt lat="49.6882" lon="5.46232">
        <ele>342.2</ele>
        <time>2020-06-25T17:32:08Z</time>
      </trkpt>
      <trkpt lat="49.68819" lon="5.46241">
        <ele>342.1</ele>
        <time>2020-06-25T17:32:09Z</time>
      </trkpt>
      <trkpt lat="49.68819" lon="5.46251">
        <ele>342</ele>
        <time>2020-06-25T17:32:10Z</time>
      </trkpt>
      <trkpt lat="49.68818" lon="5.46258">
        <ele>342</ele>
        <time>2020-06-25T17:32:11Z</time>
      </trkpt>
      <trkpt lat="49.68817" lon="5.46266">
        <ele>341.9</ele>
        <time>2020-06-25T17:32:12Z</time>
      </trkpt>
      <trkpt lat="49.68816" lon="5.46275">
        <ele>341.9</ele>
        <time>2020-06-25T17:32:13Z</time>
      </trkpt>
      <trkpt lat="49.68816" lon="5.46282">
        <ele>341.8</ele>
        <time>2020-06-25T17:32:14Z</time>
      </trkpt>
      <trkpt lat="49.68816" lon="5.4629">
        <ele>341.8</ele>
        <time>2020-06-25T17:32:15Z</time>
      </trkpt>
      <trkpt lat="49.68816" lon="5.46297">
        <ele>341.7</ele>
        <time>2020-06-25T17:32:16Z</time>
      </trkpt>
      <trkpt lat="49.68815" lon="5.46306">
        <ele>341.7</ele>
        <time>2020-06-25T17:32:17Z</time>
      </trkpt>
      <trkpt lat="49.68814" lon="5.46316">
        <ele>341.6</ele>
        <time>2020-06-25T17:32:18Z</time>
      </trkpt>
      <trkpt lat="49.68814" lon="5.46324">
        <ele>341.5</ele>
        <time>2020-06-25T17:32:19Z</time>
      </trkpt>
      <trkpt lat="49.68814" lon="5.46331">
        <ele>341.4</ele>
        <time>2020-06-25T17:32:20Z</time>
      </trkpt>
      <trkpt lat="49.68811" lon="5.46338">
        <ele>341.3</ele>
        <time>2020-06-25T17:32:21Z</time>
      </trkpt>
      <trkpt lat="49.68809" lon="5.46346">
        <ele>341.2</ele>
        <time>2020-06-25T17:32:22Z</time>
      </trkpt>
      <trkpt lat="49.68806" lon="5.46356">
        <ele>341.1</ele>
        <time>2020-06-25T17:32:23Z</time>
      </trkpt>
      <trkpt lat="49.68805" lon="5.46366">
        <ele>341</ele>
        <time>2020-06-25T17:32:24Z</time>
      </trkpt>
      <trkpt lat="49.68804" lon="5.46377">
        <ele>340.9</ele>
        <time>2020-06-25T17:32:25Z</time>
      </trkpt>
      <trkpt lat="49.68802" lon="5.46385">
        <ele>340.9</ele>
        <time>2020-06-25T17:32:26Z</time>
      </trkpt>
      <trkpt lat="49.688" lon="5.46392">
        <ele>340.9</ele>
        <time>2020-06-25T17:32:27Z</time>
      </trkpt>
      <trkpt lat="49.68798" lon="5.46401">
        <ele>340.8</ele>
        <time>2020-06-25T17:32:28Z</time>
      </trkpt>
      <trkpt lat="49.68796" lon="5.4641">
        <ele>340.7</ele>
        <time>2020-06-25T17:32:29Z</time>
      </trkpt>
      <trkpt lat="49.68795" lon="5.46419">
        <ele>340.6</ele>
        <time>2020-06-25T17:32:30Z</time>
      </trkpt>
      <trkpt lat="49.68793" lon="5.4643">
        <ele>340.5</ele>
        <time>2020-06-25T17:32:31Z</time>
      </trkpt>
      <trkpt lat="49.68792" lon="5.46439">
        <ele>340.3</ele>
        <time>2020-06-25T17:32:32Z</time>
      </trkpt>
      <trkpt lat="49.68791" lon="5.46447">
        <ele>340.2</ele>
        <time>2020-06-25T17:32:33Z</time>
      </trkpt>
      <trkpt lat="49.6879" lon="5.46455">
        <ele>340.1</ele>
        <time>2020-06-25T17:32:34Z</time>
      </trkpt>
      <trkpt lat="49.68789" lon="5.46464">
        <ele>340</ele>
        <time>2020-06-25T17:32:35Z</time>
      </trkpt>
      <trkpt lat="49.68788" lon="5.46473">
        <ele>340</ele>
        <time>2020-06-25T17:32:36Z</time>
      </trkpt>
      <trkpt lat="49.68787" lon="5.46484">
        <ele>339.8</ele>
        <time>2020-06-25T17:32:37Z</time>
      </trkpt>
      <trkpt lat="49.68786" lon="5.46493">
        <ele>339.8</ele>
        <time>2020-06-25T17:32:38Z</time>
      </trkpt>
      <trkpt lat="49.68784" lon="5.46504">
        <ele>339.6</ele>
        <time>2020-06-25T17:32:39Z</time>
      </trkpt>
      <trkpt lat="49.68783" lon="5.46514">
        <ele>339.5</ele>
        <time>2020-06-25T17:32:40Z</time>
      </trkpt>
      <trkpt lat="49.68782" lon="5.46523">
        <ele>339.4</ele>
        <time>2020-06-25T17:32:41Z</time>
      </trkpt>
      <trkpt lat="49.68781" lon="5.46531">
        <ele>339.3</ele>
        <time>2020-06-25T17:32:42Z</time>
      </trkpt>
      <trkpt lat="49.68779" lon="5.46541">
        <ele>339.2</ele>
        <time>2020-06-25T17:32:43Z</time>
      </trkpt>
      <trkpt lat="49.68778" lon="5.4655">
        <ele>339.1</ele>
        <time>2020-06-25T17:32:44Z</time>
      </trkpt>
      <trkpt lat="49.68777" lon="5.46559">
        <ele>339.1</ele>
        <time>2020-06-25T17:32:45Z</time>
      </trkpt>
      <trkpt lat="49.68775" lon="5.4657">
        <ele>339.1</ele>
        <time>2020-06-25T17:32:46Z</time>
      </trkpt>
      <trkpt lat="49.68774" lon="5.46578">
        <ele>339.1</ele>
        <time>2020-06-25T17:32:47Z</time>
      </trkpt>
      <trkpt lat="49.68773" lon="5.46586">
        <ele>339.1</ele>
        <time>2020-06-25T17:32:48Z</time>
      </trkpt>
      <trkpt lat="49.68772" lon="5.46596">
        <ele>339</ele>
        <time>2020-06-25T17:32:49Z</time>
      </trkpt>
      <trkpt lat="49.6877" lon="5.46607">
        <ele>338.9</ele>
        <time>2020-06-25T17:32:50Z</time>
      </trkpt>
      <trkpt lat="49.68769" lon="5.46618">
        <ele>338.9</ele>
        <time>2020-06-25T17:32:51Z</time>
      </trkpt>
      <trkpt lat="49.68768" lon="5.46629">
        <ele>338.8</ele>
        <time>2020-06-25T17:32:52Z</time>
      </trkpt>
      <trkpt lat="49.68766" lon="5.46639">
        <ele>338.7</ele>
        <time>2020-06-25T17:32:53Z</time>
      </trkpt>
      <trkpt lat="49.68766" lon="5.46647">
        <ele>338.7</ele>
        <time>2020-06-25T17:32:54Z</time>
      </trkpt>
      <trkpt lat="49.68765" lon="5.46656">
        <ele>338.7</ele>
        <time>2020-06-25T17:32:55Z</time>
      </trkpt>
      <trkpt lat="49.68764" lon="5.46665">
        <ele>338.6</ele>
        <time>2020-06-25T17:32:56Z</time>
      </trkpt>
      <trkpt lat="49.68763" lon="5.46674">
        <ele>338.6</ele>
        <time>2020-06-25T17:32:57Z</time>
      </trkpt>
      <trkpt lat="49.68763" lon="5.46683">
        <ele>338.6</ele>
        <time>2020-06-25T17:32:58Z</time>
      </trkpt>
      <trkpt lat="49.68762" lon="5.46692">
        <ele>338.6</ele>
        <time>2020-06-25T17:32:59Z</time>
      </trkpt>
      <trkpt lat="49.68761" lon="5.46701">
        <ele>338.5</ele>
        <time>2020-06-25T17:33:00Z</time>
      </trkpt>
      <trkpt lat="49.68761" lon="5.46711">
        <ele>338.4</ele>
        <time>2020-06-25T17:33:01Z</time>
      </trkpt>
      <trkpt lat="49.6876" lon="5.4672">
        <ele>338.3</ele>
        <time>2020-06-25T17:33:02Z</time>
      </trkpt>
      <trkpt lat="49.68759" lon="5.4673">
        <ele>338.2</ele>
        <time>2020-06-25T17:33:03Z</time>
      </trkpt>
      <trkpt lat="49.68759" lon="5.46738">
        <ele>338.1</ele>
        <time>2020-06-25T17:33:04Z</time>
      </trkpt>
      <trkpt lat="49.68758" lon="5.46747">
        <ele>338</ele>
        <time>2020-06-25T17:33:05Z</time>
      </trkpt>
      <trkpt lat="49.68757" lon="5.46754">
        <ele>338</ele>
        <time>2020-06-25T17:33:06Z</time>
      </trkpt>
      <trkpt lat="49.68757" lon="5.46763">
        <ele>338</ele>
        <time>2020-06-25T17:33:07Z</time>
      </trkpt>
      <trkpt lat="49.68756" lon="5.46772">
        <ele>338</ele>
        <time>2020-06-25T17:33:08Z</time>
      </trkpt>
      <trkpt lat="49.68756" lon="5.4678">
        <ele>338</ele>
        <time>2020-06-25T17:33:09Z</time>
      </trkpt>
      <trkpt lat="49.68755" lon="5.46789">
        <ele>338</ele>
        <time>2020-06-25T17:33:10Z</time>
      </trkpt>
      <trkpt lat="49.68755" lon="5.46799">
        <ele>338</ele>
        <time>2020-06-25T17:33:11Z</time>
      </trkpt>
      <trkpt lat="49.68754" lon="5.46808">
        <ele>338.1</ele>
        <time>2020-06-25T17:33:12Z</time>
      </trkpt>
      <trkpt lat="49.68754" lon="5.46819">
        <ele>338.1</ele>
        <time>2020-06-25T17:33:13Z</time>
      </trkpt>
      <trkpt lat="49.68755" lon="5.46828">
        <ele>338.2</ele>
        <time>2020-06-25T17:33:14Z</time>
      </trkpt>
      <trkpt lat="49.68755" lon="5.46836">
        <ele>338.3</ele>
        <time>2020-06-25T17:33:15Z</time>
      </trkpt>
      <trkpt lat="49.68754" lon="5.46845">
        <ele>338.3</ele>
        <time>2020-06-25T17:33:16Z</time>
      </trkpt>
      <trkpt lat="49.68754" lon="5.46854">
        <ele>338.4</ele>
        <time>2020-06-25T17:33:17Z</time>
      </trkpt>
      <trkpt lat="49.68753" lon="5.46865">
        <ele>338.5</ele>
        <time>2020-06-25T17:33:18Z</time>
      </trkpt>
      <trkpt lat="49.68753" lon="5.46874">
        <ele>338.5</ele>
        <time>2020-06-25T17:33:19Z</time>
      </trkpt>
      <trkpt lat="49.68754" lon="5.46883">
        <ele>338.6</ele>
        <time>2020-06-25T17:33:20Z</time>
      </trkpt>
      <trkpt lat="49.68755" lon="5.46891">
        <ele>338.6</ele>
        <time>2020-06-25T17:33:21Z</time>
      </trkpt>
      <trkpt lat="49.68755" lon="5.469">
        <ele>338.7</ele>
        <time>2020-06-25T17:33:22Z</time>
      </trkpt>
      <trkpt lat="49.68755" lon="5.46908">
        <ele>338.7</ele>
        <time>2020-06-25T17:33:23Z</time>
      </trkpt>
      <trkpt lat="49.68755" lon="5.46917">
        <ele>338.8</ele>
        <time>2020-06-25T17:33:24Z</time>
      </trkpt>
      <trkpt lat="49.68754" lon="5.46927">
        <ele>338.8</ele>
        <time>2020-06-25T17:33:25Z</time>
      </trkpt>
      <trkpt lat="49.68754" lon="5.46934">
        <ele>338.9</ele>
        <time>2020-06-25T17:33:26Z</time>
      </trkpt>
      <trkpt lat="49.68753" lon="5.46944">
        <ele>339</ele>
        <time>2020-06-25T17:33:27Z</time>
      </trkpt>
      <trkpt lat="49.68754" lon="5.46952">
        <ele>339</ele>
        <time>2020-06-25T17:33:28Z</time>
      </trkpt>
      <trkpt lat="49.68753" lon="5.4696">
        <ele>339.1</ele>
        <time>2020-06-25T17:33:29Z</time>
      </trkpt>
      <trkpt lat="49.68753" lon="5.46967">
        <ele>339.2</ele>
        <time>2020-06-25T17:33:30Z</time>
      </trkpt>
      <trkpt lat="49.68753" lon="5.46974">
        <ele>339.3</ele>
        <time>2020-06-25T17:33:31Z</time>
      </trkpt>
      <trkpt lat="49.68753" lon="5.4698">
        <ele>339.4</ele>
        <time>2020-06-25T17:33:32Z</time>
      </trkpt>
      <trkpt lat="49.68753" lon="5.46987">
        <ele>339.5</ele>
        <time>2020-06-25T17:33:33Z</time>
      </trkpt>
      <trkpt lat="49.68753" lon="5.46993">
        <ele>339.6</ele>
        <time>2020-06-25T17:33:34Z</time>
      </trkpt>
      <trkpt lat="49.68754" lon="5.47">
        <ele>339.7</ele>
        <time>2020-06-25T17:33:35Z</time>
      </trkpt>
      <trkpt lat="49.68755" lon="5.47009">
        <ele>339.8</ele>
        <time>2020-06-25T17:33:36Z</time>
      </trkpt>
      <trkpt lat="49.68755" lon="5.47019">
        <ele>340</ele>
        <time>2020-06-25T17:33:37Z</time>
      </trkpt>
      <trkpt lat="49.68755" lon="5.47027">
        <ele>340.1</ele>
        <time>2020-06-25T17:33:38Z</time>
      </trkpt>
      <trkpt lat="49.68755" lon="5.47035">
        <ele>340.2</ele>
        <time>2020-06-25T17:33:39Z</time>
      </trkpt>
      <trkpt lat="49.68756" lon="5.47044">
        <ele>340.4</ele>
        <time>2020-06-25T17:33:40Z</time>
      </trkpt>
      <trkpt lat="49.68754" lon="5.4705">
        <ele>340.5</ele>
        <time>2020-06-25T17:33:41Z</time>
      </trkpt>
      <trkpt lat="49.68754" lon="5.47057">
        <ele>340.6</ele>
        <time>2020-06-25T17:33:42Z</time>
      </trkpt>
      <trkpt lat="49.68754" lon="5.47065">
        <ele>340.7</ele>
        <time>2020-06-25T17:33:43Z</time>
      </trkpt>
      <trkpt lat="49.68754" lon="5.47073">
        <ele>340.8</ele>
        <time>2020-06-25T17:33:44Z</time>
      </trkpt>
      <trkpt lat="49.68754" lon="5.47081">
        <ele>340.9</ele>
        <time>2020-06-25T17:33:45Z</time>
      </trkpt>
      <trkpt lat="49.68754" lon="5.47087">
        <ele>341</ele>
        <time>2020-06-25T17:33:46Z</time>
      </trkpt>
      <trkpt lat="49.68753" lon="5.47093">
        <ele>341.1</ele>
        <time>2020-06-25T17:33:47Z</time>
      </trkpt>
      <trkpt lat="49.68753" lon="5.47099">
        <ele>341.2</ele>
        <time>2020-06-25T17:33:48Z</time>
      </trkpt>
      <trkpt lat="49.68753" lon="5.47106">
        <ele>341.3</ele>
        <time>2020-06-25T17:33:49Z</time>
      </trkpt>
      <trkpt lat="49.68753" lon="5.47114">
        <ele>341.4</ele>
        <time>2020-06-25T17:33:50Z</time>
      </trkpt>
      <trkpt lat="49.68753" lon="5.47122">
        <ele>341.6</ele>
        <time>2020-06-25T17:33:51Z</time>
      </trkpt>
      <trkpt lat="49.68753" lon="5.47128">
        <ele>341.7</ele>
        <time>2020-06-25T17:33:52Z</time>
      </trkpt>
      <trkpt lat="49.68753" lon="5.47135">
        <ele>341.8</ele>
        <time>2020-06-25T17:33:53Z</time>
      </trkpt>
      <trkpt lat="49.68753" lon="5.4714">
        <ele>342</ele>
        <time>2020-06-25T17:33:54Z</time>
      </trkpt>
      <trkpt lat="49.68753" lon="5.47147">
        <ele>342.1</ele>
        <time>2020-06-25T17:33:55Z</time>
      </trkpt>
      <trkpt lat="49.68753" lon="5.47153">
        <ele>342.2</ele>
        <time>2020-06-25T17:33:56Z</time>
      </trkpt>
      <trkpt lat="49.68753" lon="5.4716">
        <ele>342.3</ele>
        <time>2020-06-25T17:33:57Z</time>
      </trkpt>
      <trkpt lat="49.68754" lon="5.47166">
        <ele>342.4</ele>
        <time>2020-06-25T17:33:58Z</time>
      </trkpt>
      <trkpt lat="49.68754" lon="5.47172">
        <ele>342.6</ele>
        <time>2020-06-25T17:33:59Z</time>
      </trkpt>
      <trkpt lat="49.68754" lon="5.47179">
        <ele>342.7</ele>
        <time>2020-06-25T17:34:00Z</time>
      </trkpt>
      <trkpt lat="49.68754" lon="5.47185">
        <ele>342.9</ele>
        <time>2020-06-25T17:34:01Z</time>
      </trkpt>
      <trkpt lat="49.68754" lon="5.47192">
        <ele>343</ele>
        <time>2020-06-25T17:34:02Z</time>
      </trkpt>
      <trkpt lat="49.68755" lon="5.47198">
        <ele>343.2</ele>
        <time>2020-06-25T17:34:03Z</time>
      </trkpt>
      <trkpt lat="49.68754" lon="5.47204">
        <ele>343.3</ele>
        <time>2020-06-25T17:34:04Z</time>
      </trkpt>
      <trkpt lat="49.68754" lon="5.47212">
        <ele>343.4</ele>
        <time>2020-06-25T17:34:05Z</time>
      </trkpt>
      <trkpt lat="49.68754" lon="5.47219">
        <ele>343.6</ele>
        <time>2020-06-25T17:34:06Z</time>
      </trkpt>
      <trkpt lat="49.68754" lon="5.47225">
        <ele>343.7</ele>
        <time>2020-06-25T17:34:07Z</time>
      </trkpt>
      <trkpt lat="49.68754" lon="5.47232">
        <ele>343.8</ele>
        <time>2020-06-25T17:34:08Z</time>
      </trkpt>
      <trkpt lat="49.68754" lon="5.47238">
        <ele>343.9</ele>
        <time>2020-06-25T17:34:09Z</time>
      </trkpt>
      <trkpt lat="49.68754" lon="5.47245">
        <ele>344</ele>
        <time>2020-06-25T17:34:10Z</time>
      </trkpt>
      <trkpt lat="49.68753" lon="5.47252">
        <ele>344.2</ele>
        <time>2020-06-25T17:34:11Z</time>
      </trkpt>
      <trkpt lat="49.68753" lon="5.47258">
        <ele>344.3</ele>
        <time>2020-06-25T17:34:12Z</time>
      </trkpt>
      <trkpt lat="49.68753" lon="5.47265">
        <ele>344.4</ele>
        <time>2020-06-25T17:34:13Z</time>
      </trkpt>
      <trkpt lat="49.68753" lon="5.47271">
        <ele>344.5</ele>
        <time>2020-06-25T17:34:14Z</time>
      </trkpt>
      <trkpt lat="49.68752" lon="5.47278">
        <ele>344.7</ele>
        <time>2020-06-25T17:34:15Z</time>
      </trkpt>
      <trkpt lat="49.68752" lon="5.47286">
        <ele>344.8</ele>
        <time>2020-06-25T17:34:16Z</time>
      </trkpt>
      <trkpt lat="49.68751" lon="5.47293">
        <ele>344.9</ele>
        <time>2020-06-25T17:34:17Z</time>
      </trkpt>
      <trkpt lat="49.6875" lon="5.47299">
        <ele>344.9</ele>
        <time>2020-06-25T17:34:18Z</time>
      </trkpt>
      <trkpt lat="49.6875" lon="5.47305">
        <ele>345</ele>
        <time>2020-06-25T17:34:19Z</time>
      </trkpt>
      <trkpt lat="49.68749" lon="5.4731">
        <ele>345</ele>
        <time>2020-06-25T17:34:20Z</time>
      </trkpt>
      <trkpt lat="49.6875" lon="5.47319">
        <ele>345.1</ele>
        <time>2020-06-25T17:34:21Z</time>
      </trkpt>
      <trkpt lat="49.68751" lon="5.47323">
        <ele>345.1</ele>
        <time>2020-06-25T17:34:22Z</time>
      </trkpt>
      <trkpt lat="49.68752" lon="5.47331">
        <ele>345.2</ele>
        <time>2020-06-25T17:34:23Z</time>
      </trkpt>
      <trkpt lat="49.68752" lon="5.47339">
        <ele>345.2</ele>
        <time>2020-06-25T17:34:24Z</time>
      </trkpt>
      <trkpt lat="49.68752" lon="5.47344">
        <ele>345.2</ele>
        <time>2020-06-25T17:34:25Z</time>
      </trkpt>
      <trkpt lat="49.68751" lon="5.47351">
        <ele>345.3</ele>
        <time>2020-06-25T17:34:26Z</time>
      </trkpt>
      <trkpt lat="49.68751" lon="5.4736">
        <ele>345.3</ele>
        <time>2020-06-25T17:34:27Z</time>
      </trkpt>
      <trkpt lat="49.68751" lon="5.47369">
        <ele>345.3</ele>
        <time>2020-06-25T17:34:28Z</time>
      </trkpt>
      <trkpt lat="49.68751" lon="5.47377">
        <ele>345.3</ele>
        <time>2020-06-25T17:34:29Z</time>
      </trkpt>
      <trkpt lat="49.68752" lon="5.47382">
        <ele>345.3</ele>
        <time>2020-06-25T17:34:30Z</time>
      </trkpt>
      <trkpt lat="49.68751" lon="5.47389">
        <ele>345.2</ele>
        <time>2020-06-25T17:34:31Z</time>
      </trkpt>
      <trkpt lat="49.68751" lon="5.47397">
        <ele>345.1</ele>
        <time>2020-06-25T17:34:32Z</time>
      </trkpt>
      <trkpt lat="49.68752" lon="5.47404">
        <ele>344.9</ele>
        <time>2020-06-25T17:34:33Z</time>
      </trkpt>
      <trkpt lat="49.68752" lon="5.4741">
        <ele>344.9</ele>
        <time>2020-06-25T17:34:34Z</time>
      </trkpt>
      <trkpt lat="49.68752" lon="5.47417">
        <ele>344.8</ele>
        <time>2020-06-25T17:34:35Z</time>
      </trkpt>
      <trkpt lat="49.68752" lon="5.47423">
        <ele>344.8</ele>
        <time>2020-06-25T17:34:36Z</time>
      </trkpt>
      <trkpt lat="49.68752" lon="5.47432">
        <ele>344.6</ele>
        <time>2020-06-25T17:34:37Z</time>
      </trkpt>
      <trkpt lat="49.68752" lon="5.4744">
        <ele>344.5</ele>
        <time>2020-06-25T17:34:38Z</time>
      </trkpt>
      <trkpt lat="49.68752" lon="5.4745">
        <ele>344.3</ele>
        <time>2020-06-25T17:34:39Z</time>
      </trkpt>
      <trkpt lat="49.68753" lon="5.47462">
        <ele>344</ele>
        <time>2020-06-25T17:34:40Z</time>
      </trkpt>
      <trkpt lat="49.68753" lon="5.47472">
        <ele>343.8</ele>
        <time>2020-06-25T17:34:41Z</time>
      </trkpt>
      <trkpt lat="49.68754" lon="5.47478">
        <ele>343.6</ele>
        <time>2020-06-25T17:34:42Z</time>
      </trkpt>
      <trkpt lat="49.68754" lon="5.47486">
        <ele>343.5</ele>
        <time>2020-06-25T17:34:43Z</time>
      </trkpt>
      <trkpt lat="49.68754" lon="5.47494">
        <ele>343.3</ele>
        <time>2020-06-25T17:34:44Z</time>
      </trkpt>
      <trkpt lat="49.68755" lon="5.47502">
        <ele>343</ele>
        <time>2020-06-25T17:34:45Z</time>
      </trkpt>
      <trkpt lat="49.68755" lon="5.47512">
        <ele>342.8</ele>
        <time>2020-06-25T17:34:46Z</time>
      </trkpt>
      <trkpt lat="49.68756" lon="5.4752">
        <ele>342.7</ele>
        <time>2020-06-25T17:34:47Z</time>
      </trkpt>
      <trkpt lat="49.68756" lon="5.47531">
        <ele>342.4</ele>
        <time>2020-06-25T17:34:48Z</time>
      </trkpt>
      <trkpt lat="49.68757" lon="5.47543">
        <ele>342.2</ele>
        <time>2020-06-25T17:34:49Z</time>
      </trkpt>
      <trkpt lat="49.68758" lon="5.47553">
        <ele>341.9</ele>
        <time>2020-06-25T17:34:50Z</time>
      </trkpt>
      <trkpt lat="49.68759" lon="5.47563">
        <ele>341.7</ele>
        <time>2020-06-25T17:34:51Z</time>
      </trkpt>
      <trkpt lat="49.6876" lon="5.47572">
        <ele>341.5</ele>
        <time>2020-06-25T17:34:52Z</time>
      </trkpt>
      <trkpt lat="49.68761" lon="5.47582">
        <ele>341.2</ele>
        <time>2020-06-25T17:34:53Z</time>
      </trkpt>
      <trkpt lat="49.68762" lon="5.47592">
        <ele>341</ele>
        <time>2020-06-25T17:34:54Z</time>
      </trkpt>
      <trkpt lat="49.68763" lon="5.47602">
        <ele>340.7</ele>
        <time>2020-06-25T17:34:55Z</time>
      </trkpt>
      <trkpt lat="49.68763" lon="5.47611">
        <ele>340.5</ele>
        <time>2020-06-25T17:34:56Z</time>
      </trkpt>
      <trkpt lat="49.68764" lon="5.47621">
        <ele>340.3</ele>
        <time>2020-06-25T17:34:57Z</time>
      </trkpt>
      <trkpt lat="49.68765" lon="5.47632">
        <ele>340.1</ele>
        <time>2020-06-25T17:34:58Z</time>
      </trkpt>
      <trkpt lat="49.68766" lon="5.47643">
        <ele>339.8</ele>
        <time>2020-06-25T17:34:59Z</time>
      </trkpt>
      <trkpt lat="49.68766" lon="5.47653">
        <ele>339.6</ele>
        <time>2020-06-25T17:35:00Z</time>
      </trkpt>
      <trkpt lat="49.68767" lon="5.47663">
        <ele>339.4</ele>
        <time>2020-06-25T17:35:01Z</time>
      </trkpt>
      <trkpt lat="49.68768" lon="5.47673">
        <ele>339.3</ele>
        <time>2020-06-25T17:35:02Z</time>
      </trkpt>
      <trkpt lat="49.68769" lon="5.47683">
        <ele>339.1</ele>
        <time>2020-06-25T17:35:03Z</time>
      </trkpt>
      <trkpt lat="49.68769" lon="5.47694">
        <ele>339</ele>
        <time>2020-06-25T17:35:04Z</time>
      </trkpt>
      <trkpt lat="49.68769" lon="5.47705">
        <ele>338.8</ele>
        <time>2020-06-25T17:35:05Z</time>
      </trkpt>
      <trkpt lat="49.68769" lon="5.47715">
        <ele>338.7</ele>
        <time>2020-06-25T17:35:06Z</time>
      </trkpt>
      <trkpt lat="49.6877" lon="5.47725">
        <ele>338.6</ele>
        <time>2020-06-25T17:35:07Z</time>
      </trkpt>
      <trkpt lat="49.6877" lon="5.47735">
        <ele>338.5</ele>
        <time>2020-06-25T17:35:08Z</time>
      </trkpt>
      <trkpt lat="49.6877" lon="5.47745">
        <ele>338.5</ele>
        <time>2020-06-25T17:35:09Z</time>
      </trkpt>
      <trkpt lat="49.68771" lon="5.47755">
        <ele>338.4</ele>
        <time>2020-06-25T17:35:10Z</time>
      </trkpt>
      <trkpt lat="49.68771" lon="5.47763">
        <ele>338.4</ele>
        <time>2020-06-25T17:35:11Z</time>
      </trkpt>
      <trkpt lat="49.68772" lon="5.47774">
        <ele>338.3</ele>
        <time>2020-06-25T17:35:12Z</time>
      </trkpt>
      <trkpt lat="49.68771" lon="5.47783">
        <ele>338.3</ele>
        <time>2020-06-25T17:35:13Z</time>
      </trkpt>
      <trkpt lat="49.68772" lon="5.4779">
        <ele>338.4</ele>
        <time>2020-06-25T17:35:14Z</time>
      </trkpt>
      <trkpt lat="49.68773" lon="5.47796">
        <ele>338.4</ele>
        <time>2020-06-25T17:35:15Z</time>
      </trkpt>
      <trkpt lat="49.68772" lon="5.47803">
        <ele>338.5</ele>
        <time>2020-06-25T17:35:16Z</time>
      </trkpt>
      <trkpt lat="49.68773" lon="5.47813">
        <ele>338.5</ele>
        <time>2020-06-25T17:35:17Z</time>
      </trkpt>
      <trkpt lat="49.68774" lon="5.47823">
        <ele>338.6</ele>
        <time>2020-06-25T17:35:18Z</time>
      </trkpt>
      <trkpt lat="49.68774" lon="5.47833">
        <ele>338.6</ele>
        <time>2020-06-25T17:35:19Z</time>
      </trkpt>
      <trkpt lat="49.68774" lon="5.47842">
        <ele>338.7</ele>
        <time>2020-06-25T17:35:20Z</time>
      </trkpt>
      <trkpt lat="49.68775" lon="5.47852">
        <ele>338.7</ele>
        <time>2020-06-25T17:35:21Z</time>
      </trkpt>
      <trkpt lat="49.68776" lon="5.47861">
        <ele>338.8</ele>
        <time>2020-06-25T17:35:22Z</time>
      </trkpt>
      <trkpt lat="49.68777" lon="5.47869">
        <ele>338.9</ele>
        <time>2020-06-25T17:35:23Z</time>
      </trkpt>
      <trkpt lat="49.68778" lon="5.47876">
        <ele>339</ele>
        <time>2020-06-25T17:35:24Z</time>
      </trkpt>
      <trkpt lat="49.68778" lon="5.47885">
        <ele>339.1</ele>
        <time>2020-06-25T17:35:25Z</time>
      </trkpt>
      <trkpt lat="49.68778" lon="5.47893">
        <ele>339.2</ele>
        <time>2020-06-25T17:35:26Z</time>
      </trkpt>
      <trkpt lat="49.68778" lon="5.47902">
        <ele>339.4</ele>
        <time>2020-06-25T17:35:27Z</time>
      </trkpt>
      <trkpt lat="49.68778" lon="5.47909">
        <ele>339.5</ele>
        <time>2020-06-25T17:35:28Z</time>
      </trkpt>
      <trkpt lat="49.68778" lon="5.4792">
        <ele>339.7</ele>
        <time>2020-06-25T17:35:29Z</time>
      </trkpt>
      <trkpt lat="49.68778" lon="5.47928">
        <ele>339.9</ele>
        <time>2020-06-25T17:35:30Z</time>
      </trkpt>
      <trkpt lat="49.68779" lon="5.47937">
        <ele>340.2</ele>
        <time>2020-06-25T17:35:31Z</time>
      </trkpt>
      <trkpt lat="49.68779" lon="5.47944">
        <ele>340.3</ele>
        <time>2020-06-25T17:35:32Z</time>
      </trkpt>
      <trkpt lat="49.6878" lon="5.47951">
        <ele>340.6</ele>
        <time>2020-06-25T17:35:33Z</time>
      </trkpt>
      <trkpt lat="49.68781" lon="5.47959">
        <ele>340.9</ele>
        <time>2020-06-25T17:35:34Z</time>
      </trkpt>
      <trkpt lat="49.68781" lon="5.47967">
        <ele>341.1</ele>
        <time>2020-06-25T17:35:35Z</time>
      </trkpt>
      <trkpt lat="49.68782" lon="5.47975">
        <ele>341.3</ele>
        <time>2020-06-25T17:35:36Z</time>
      </trkpt>
      <trkpt lat="49.68782" lon="5.47984">
        <ele>341.5</ele>
        <time>2020-06-25T17:35:37Z</time>
      </trkpt>
      <trkpt lat="49.68782" lon="5.47991">
        <ele>341.7</ele>
        <time>2020-06-25T17:35:38Z</time>
      </trkpt>
      <trkpt lat="49.68783" lon="5.47997">
        <ele>341.8</ele>
        <time>2020-06-25T17:35:39Z</time>
      </trkpt>
      <trkpt lat="49.68783" lon="5.48004">
        <ele>341.9</ele>
        <time>2020-06-25T17:35:40Z</time>
      </trkpt>
      <trkpt lat="49.68783" lon="5.48011">
        <ele>342.1</ele>
        <time>2020-06-25T17:35:41Z</time>
      </trkpt>
      <trkpt lat="49.68783" lon="5.48018">
        <ele>342.3</ele>
        <time>2020-06-25T17:35:42Z</time>
      </trkpt>
      <trkpt lat="49.68783" lon="5.48025">
        <ele>342.4</ele>
        <time>2020-06-25T17:35:43Z</time>
      </trkpt>
      <trkpt lat="49.68783" lon="5.48032">
        <ele>342.6</ele>
        <time>2020-06-25T17:35:44Z</time>
      </trkpt>
      <trkpt lat="49.68783" lon="5.48039">
        <ele>342.8</ele>
        <time>2020-06-25T17:35:45Z</time>
      </trkpt>
      <trkpt lat="49.68784" lon="5.48046">
        <ele>343</ele>
        <time>2020-06-25T17:35:46Z</time>
      </trkpt>
      <trkpt lat="49.68784" lon="5.48054">
        <ele>343.2</ele>
        <time>2020-06-25T17:35:47Z</time>
      </trkpt>
      <trkpt lat="49.68785" lon="5.48061">
        <ele>343.4</ele>
        <time>2020-06-25T17:35:48Z</time>
      </trkpt>
      <trkpt lat="49.68785" lon="5.48068">
        <ele>343.5</ele>
        <time>2020-06-25T17:35:49Z</time>
      </trkpt>
      <trkpt lat="49.68786" lon="5.48074">
        <ele>343.6</ele>
        <time>2020-06-25T17:35:50Z</time>
      </trkpt>
      <trkpt lat="49.68785" lon="5.48081">
        <ele>343.8</ele>
        <time>2020-06-25T17:35:51Z</time>
      </trkpt>
      <trkpt lat="49.68786" lon="5.48087">
        <ele>343.9</ele>
        <time>2020-06-25T17:35:52Z</time>
      </trkpt>
      <trkpt lat="49.68787" lon="5.48094">
        <ele>344</ele>
        <time>2020-06-25T17:35:53Z</time>
      </trkpt>
      <trkpt lat="49.68788" lon="5.481">
        <ele>344.1</ele>
        <time>2020-06-25T17:35:54Z</time>
      </trkpt>
      <trkpt lat="49.68788" lon="5.48106">
        <ele>344.3</ele>
        <time>2020-06-25T17:35:55Z</time>
      </trkpt>
      <trkpt lat="49.68789" lon="5.48115">
        <ele>344.4</ele>
        <time>2020-06-25T17:35:56Z</time>
      </trkpt>
      <trkpt lat="49.68789" lon="5.48121">
        <ele>344.5</ele>
        <time>2020-06-25T17:35:57Z</time>
      </trkpt>
      <trkpt lat="49.68789" lon="5.48128">
        <ele>344.6</ele>
        <time>2020-06-25T17:35:58Z</time>
      </trkpt>
      <trkpt lat="49.68791" lon="5.48133">
        <ele>344.7</ele>
        <time>2020-06-25T17:35:59Z</time>
      </trkpt>
      <trkpt lat="49.68791" lon="5.48141">
        <ele>344.8</ele>
        <time>2020-06-25T17:36:00Z</time>
      </trkpt>
      <trkpt lat="49.68791" lon="5.48148">
        <ele>344.9</ele>
        <time>2020-06-25T17:36:01Z</time>
      </trkpt>
      <trkpt lat="49.68791" lon="5.48155">
        <ele>345</ele>
        <time>2020-06-25T17:36:02Z</time>
      </trkpt>
      <trkpt lat="49.68791" lon="5.48162">
        <ele>345.1</ele>
        <time>2020-06-25T17:36:03Z</time>
      </trkpt>
      <trkpt lat="49.68792" lon="5.4817">
        <ele>345.1</ele>
        <time>2020-06-25T17:36:04Z</time>
      </trkpt>
      <trkpt lat="49.68792" lon="5.48177">
        <ele>345.2</ele>
        <time>2020-06-25T17:36:05Z</time>
      </trkpt>
      <trkpt lat="49.68793" lon="5.48182">
        <ele>345.3</ele>
        <time>2020-06-25T17:36:06Z</time>
      </trkpt>
      <trkpt lat="49.68794" lon="5.4819">
        <ele>345.4</ele>
        <time>2020-06-25T17:36:07Z</time>
      </trkpt>
      <trkpt lat="49.68794" lon="5.48198">
        <ele>345.5</ele>
        <time>2020-06-25T17:36:08Z</time>
      </trkpt>
      <trkpt lat="49.68794" lon="5.48204">
        <ele>345.6</ele>
        <time>2020-06-25T17:36:09Z</time>
      </trkpt>
      <trkpt lat="49.68794" lon="5.48212">
        <ele>345.7</ele>
        <time>2020-06-25T17:36:10Z</time>
      </trkpt>
      <trkpt lat="49.68794" lon="5.48222">
        <ele>345.9</ele>
        <time>2020-06-25T17:36:11Z</time>
      </trkpt>
      <trkpt lat="49.68795" lon="5.4823">
        <ele>345.9</ele>
        <time>2020-06-25T17:36:12Z</time>
      </trkpt>
      <trkpt lat="49.68795" lon="5.48238">
        <ele>345.9</ele>
        <time>2020-06-25T17:36:13Z</time>
      </trkpt>
      <trkpt lat="49.68796" lon="5.48246">
        <ele>345.9</ele>
        <time>2020-06-25T17:36:14Z</time>
      </trkpt>
      <trkpt lat="49.68796" lon="5.48253">
        <ele>345.9</ele>
        <time>2020-06-25T17:36:15Z</time>
      </trkpt>
      <trkpt lat="49.68796" lon="5.4826">
        <ele>345.9</ele>
        <time>2020-06-25T17:36:16Z</time>
      </trkpt>
      <trkpt lat="49.68797" lon="5.48267">
        <ele>345.9</ele>
        <time>2020-06-25T17:36:17Z</time>
      </trkpt>
      <trkpt lat="49.68797" lon="5.48277">
        <ele>346</ele>
        <time>2020-06-25T17:36:18Z</time>
      </trkpt>
      <trkpt lat="49.68797" lon="5.48286">
        <ele>346</ele>
        <time>2020-06-25T17:36:19Z</time>
      </trkpt>
      <trkpt lat="49.68797" lon="5.48295">
        <ele>346.1</ele>
        <time>2020-06-25T17:36:20Z</time>
      </trkpt>
      <trkpt lat="49.68798" lon="5.48302">
        <ele>346.2</ele>
        <time>2020-06-25T17:36:21Z</time>
      </trkpt>
      <trkpt lat="49.68798" lon="5.48307">
        <ele>346.2</ele>
        <time>2020-06-25T17:36:22Z</time>
      </trkpt>
      <trkpt lat="49.68798" lon="5.48316">
        <ele>346.3</ele>
        <time>2020-06-25T17:36:23Z</time>
      </trkpt>
      <trkpt lat="49.68799" lon="5.48324">
        <ele>346.3</ele>
        <time>2020-06-25T17:36:24Z</time>
      </trkpt>
      <trkpt lat="49.68799" lon="5.48331">
        <ele>346.3</ele>
        <time>2020-06-25T17:36:25Z</time>
      </trkpt>
      <trkpt lat="49.68798" lon="5.48339">
        <ele>346.3</ele>
        <time>2020-06-25T17:36:26Z</time>
      </trkpt>
      <trkpt lat="49.68798" lon="5.48348">
        <ele>346.4</ele>
        <time>2020-06-25T17:36:27Z</time>
      </trkpt>
      <trkpt lat="49.688" lon="5.48357">
        <ele>346.4</ele>
        <time>2020-06-25T17:36:28Z</time>
      </trkpt>
      <trkpt lat="49.68799" lon="5.48364">
        <ele>346.5</ele>
        <time>2020-06-25T17:36:29Z</time>
      </trkpt>
      <trkpt lat="49.68799" lon="5.48372">
        <ele>346.5</ele>
        <time>2020-06-25T17:36:30Z</time>
      </trkpt>
      <trkpt lat="49.68798" lon="5.48378">
        <ele>346.5</ele>
        <time>2020-06-25T17:36:31Z</time>
      </trkpt>
      <trkpt lat="49.68798" lon="5.48385">
        <ele>346.6</ele>
        <time>2020-06-25T17:36:32Z</time>
      </trkpt>
      <trkpt lat="49.68797" lon="5.48392">
        <ele>346.6</ele>
        <time>2020-06-25T17:36:33Z</time>
      </trkpt>
      <trkpt lat="49.68798" lon="5.48401">
        <ele>346.7</ele>
        <time>2020-06-25T17:36:34Z</time>
      </trkpt>
      <trkpt lat="49.68798" lon="5.48409">
        <ele>346.7</ele>
        <time>2020-06-25T17:36:35Z</time>
      </trkpt>
      <trkpt lat="49.68798" lon="5.48416">
        <ele>346.8</ele>
        <time>2020-06-25T17:36:36Z</time>
      </trkpt>
      <trkpt lat="49.68797" lon="5.48425">
        <ele>346.8</ele>
        <time>2020-06-25T17:36:37Z</time>
      </trkpt>
      <trkpt lat="49.68797" lon="5.48434">
        <ele>346.9</ele>
        <time>2020-06-25T17:36:38Z</time>
      </trkpt>
      <trkpt lat="49.68797" lon="5.48442">
        <ele>347</ele>
        <time>2020-06-25T17:36:39Z</time>
      </trkpt>
      <trkpt lat="49.68796" lon="5.4845">
        <ele>347</ele>
        <time>2020-06-25T17:36:40Z</time>
      </trkpt>
      <trkpt lat="49.68796" lon="5.48458">
        <ele>347.1</ele>
        <time>2020-06-25T17:36:41Z</time>
      </trkpt>
      <trkpt lat="49.68795" lon="5.48465">
        <ele>347.1</ele>
        <time>2020-06-25T17:36:42Z</time>
      </trkpt>
      <trkpt lat="49.68794" lon="5.48473">
        <ele>347.2</ele>
        <time>2020-06-25T17:36:43Z</time>
      </trkpt>
      <trkpt lat="49.68793" lon="5.48479">
        <ele>347.2</ele>
        <time>2020-06-25T17:36:44Z</time>
      </trkpt>
      <trkpt lat="49.68793" lon="5.48486">
        <ele>347.3</ele>
        <time>2020-06-25T17:36:45Z</time>
      </trkpt>
      <trkpt lat="49.68792" lon="5.48493">
        <ele>347.3</ele>
        <time>2020-06-25T17:36:46Z</time>
      </trkpt>
      <trkpt lat="49.68791" lon="5.48504">
        <ele>347.4</ele>
        <time>2020-06-25T17:36:47Z</time>
      </trkpt>
      <trkpt lat="49.68791" lon="5.48512">
        <ele>347.5</ele>
        <time>2020-06-25T17:36:48Z</time>
      </trkpt>
      <trkpt lat="49.6879" lon="5.4852">
        <ele>347.5</ele>
        <time>2020-06-25T17:36:49Z</time>
      </trkpt>
      <trkpt lat="49.6879" lon="5.48527">
        <ele>347.6</ele>
        <time>2020-06-25T17:36:50Z</time>
      </trkpt>
      <trkpt lat="49.6879" lon="5.48533">
        <ele>347.6</ele>
        <time>2020-06-25T17:36:51Z</time>
      </trkpt>
      <trkpt lat="49.68789" lon="5.4854">
        <ele>347.7</ele>
        <time>2020-06-25T17:36:52Z</time>
      </trkpt>
      <trkpt lat="49.68789" lon="5.48547">
        <ele>347.8</ele>
        <time>2020-06-25T17:36:53Z</time>
      </trkpt>
      <trkpt lat="49.68788" lon="5.48554">
        <ele>347.8</ele>
        <time>2020-06-25T17:36:54Z</time>
      </trkpt>
      <trkpt lat="49.68787" lon="5.48561">
        <ele>347.9</ele>
        <time>2020-06-25T17:36:55Z</time>
      </trkpt>
      <trkpt lat="49.68787" lon="5.48569">
        <ele>347.9</ele>
        <time>2020-06-25T17:36:56Z</time>
      </trkpt>
      <trkpt lat="49.68785" lon="5.48575">
        <ele>347.9</ele>
        <time>2020-06-25T17:36:57Z</time>
      </trkpt>
      <trkpt lat="49.68785" lon="5.48581">
        <ele>348</ele>
        <time>2020-06-25T17:36:58Z</time>
      </trkpt>
      <trkpt lat="49.68784" lon="5.48588">
        <ele>348</ele>
        <time>2020-06-25T17:36:59Z</time>
      </trkpt>
      <trkpt lat="49.68784" lon="5.48595">
        <ele>348</ele>
        <time>2020-06-25T17:37:00Z</time>
      </trkpt>
      <trkpt lat="49.68783" lon="5.48604">
        <ele>348.1</ele>
        <time>2020-06-25T17:37:01Z</time>
      </trkpt>
      <trkpt lat="49.68782" lon="5.48612">
        <ele>348.1</ele>
        <time>2020-06-25T17:37:02Z</time>
      </trkpt>
      <trkpt lat="49.68781" lon="5.48621">
        <ele>348.2</ele>
        <time>2020-06-25T17:37:03Z</time>
      </trkpt>
      <trkpt lat="49.6878" lon="5.48629">
        <ele>348.3</ele>
        <time>2020-06-25T17:37:04Z</time>
      </trkpt>
      <trkpt lat="49.68779" lon="5.48636">
        <ele>348.4</ele>
        <time>2020-06-25T17:37:05Z</time>
      </trkpt>
      <trkpt lat="49.68778" lon="5.48644">
        <ele>348.4</ele>
        <time>2020-06-25T17:37:06Z</time>
      </trkpt>
      <trkpt lat="49.68777" lon="5.48653">
        <ele>348.5</ele>
        <time>2020-06-25T17:37:07Z</time>
      </trkpt>
      <trkpt lat="49.68776" lon="5.48662">
        <ele>348.7</ele>
        <time>2020-06-25T17:37:08Z</time>
      </trkpt>
      <trkpt lat="49.68775" lon="5.48669">
        <ele>348.7</ele>
        <time>2020-06-25T17:37:09Z</time>
      </trkpt>
      <trkpt lat="49.68774" lon="5.48676">
        <ele>348.8</ele>
        <time>2020-06-25T17:37:10Z</time>
      </trkpt>
      <trkpt lat="49.68772" lon="5.48684">
        <ele>348.9</ele>
        <time>2020-06-25T17:37:11Z</time>
      </trkpt>
      <trkpt lat="49.68771" lon="5.48691">
        <ele>349</ele>
        <time>2020-06-25T17:37:12Z</time>
      </trkpt>
      <trkpt lat="49.6877" lon="5.48699">
        <ele>349.1</ele>
        <time>2020-06-25T17:37:13Z</time>
      </trkpt>
      <trkpt lat="49.68768" lon="5.48707">
        <ele>349.1</ele>
        <time>2020-06-25T17:37:14Z</time>
      </trkpt>
      <trkpt lat="49.68767" lon="5.48715">
        <ele>349.2</ele>
        <time>2020-06-25T17:37:15Z</time>
      </trkpt>
      <trkpt lat="49.68766" lon="5.48723">
        <ele>349.1</ele>
        <time>2020-06-25T17:37:16Z</time>
      </trkpt>
      <trkpt lat="49.68765" lon="5.4873">
        <ele>348.8</ele>
        <time>2020-06-25T17:37:17Z</time>
      </trkpt>
      <trkpt lat="49.68764" lon="5.48738">
        <ele>348.5</ele>
        <time>2020-06-25T17:37:18Z</time>
      </trkpt>
      <trkpt lat="49.68762" lon="5.48746">
        <ele>348.4</ele>
        <time>2020-06-25T17:37:19Z</time>
      </trkpt>
      <trkpt lat="49.68761" lon="5.48754">
        <ele>348.4</ele>
        <time>2020-06-25T17:37:20Z</time>
      </trkpt>
      <trkpt lat="49.6876" lon="5.48759">
        <ele>348.4</ele>
        <time>2020-06-25T17:37:21Z</time>
      </trkpt>
      <trkpt lat="49.68759" lon="5.48766">
        <ele>348.4</ele>
        <time>2020-06-25T17:37:22Z</time>
      </trkpt>
      <trkpt lat="49.68757" lon="5.48772">
        <ele>348.4</ele>
        <time>2020-06-25T17:37:23Z</time>
      </trkpt>
      <trkpt lat="49.68755" lon="5.4878">
        <ele>348.4</ele>
        <time>2020-06-25T17:37:24Z</time>
      </trkpt>
      <trkpt lat="49.68754" lon="5.48789">
        <ele>348.5</ele>
        <time>2020-06-25T17:37:25Z</time>
      </trkpt>
      <trkpt lat="49.68753" lon="5.48796">
        <ele>348.5</ele>
        <time>2020-06-25T17:37:26Z</time>
      </trkpt>
      <trkpt lat="49.68751" lon="5.48803">
        <ele>348.5</ele>
        <time>2020-06-25T17:37:27Z</time>
      </trkpt>
      <trkpt lat="49.6875" lon="5.4881">
        <ele>348.6</ele>
        <time>2020-06-25T17:37:28Z</time>
      </trkpt>
      <trkpt lat="49.68748" lon="5.48818">
        <ele>348.6</ele>
        <time>2020-06-25T17:37:29Z</time>
      </trkpt>
      <trkpt lat="49.68747" lon="5.48826">
        <ele>348.6</ele>
        <time>2020-06-25T17:37:30Z</time>
      </trkpt>
      <trkpt lat="49.68745" lon="5.48834">
        <ele>348.7</ele>
        <time>2020-06-25T17:37:31Z</time>
      </trkpt>
      <trkpt lat="49.68743" lon="5.48843">
        <ele>348.7</ele>
        <time>2020-06-25T17:37:32Z</time>
      </trkpt>
      <trkpt lat="49.68742" lon="5.48849">
        <ele>348.8</ele>
        <time>2020-06-25T17:37:33Z</time>
      </trkpt>
      <trkpt lat="49.68741" lon="5.48856">
        <ele>348.8</ele>
        <time>2020-06-25T17:37:34Z</time>
      </trkpt>
      <trkpt lat="49.6874" lon="5.48863">
        <ele>348.9</ele>
        <time>2020-06-25T17:37:35Z</time>
      </trkpt>
      <trkpt lat="49.68739" lon="5.48871">
        <ele>349</ele>
        <time>2020-06-25T17:37:36Z</time>
      </trkpt>
      <trkpt lat="49.68737" lon="5.48879">
        <ele>349</ele>
        <time>2020-06-25T17:37:37Z</time>
      </trkpt>
      <trkpt lat="49.68736" lon="5.48886">
        <ele>349</ele>
        <time>2020-06-25T17:37:38Z</time>
      </trkpt>
      <trkpt lat="49.68735" lon="5.48894">
        <ele>349.1</ele>
        <time>2020-06-25T17:37:39Z</time>
      </trkpt>
      <trkpt lat="49.68734" lon="5.48902">
        <ele>349.1</ele>
        <time>2020-06-25T17:37:40Z</time>
      </trkpt>
      <trkpt lat="49.68733" lon="5.4891">
        <ele>349.2</ele>
        <time>2020-06-25T17:37:41Z</time>
      </trkpt>
      <trkpt lat="49.68732" lon="5.48916">
        <ele>349.2</ele>
        <time>2020-06-25T17:37:42Z</time>
      </trkpt>
      <trkpt lat="49.68731" lon="5.48924">
        <ele>349.2</ele>
        <time>2020-06-25T17:37:43Z</time>
      </trkpt>
      <trkpt lat="49.68729" lon="5.48931">
        <ele>349.3</ele>
        <time>2020-06-25T17:37:44Z</time>
      </trkpt>
      <trkpt lat="49.68728" lon="5.48938">
        <ele>349.3</ele>
        <time>2020-06-25T17:37:45Z</time>
      </trkpt>
      <trkpt lat="49.68726" lon="5.48946">
        <ele>349.3</ele>
        <time>2020-06-25T17:37:46Z</time>
      </trkpt>
      <trkpt lat="49.68725" lon="5.48952">
        <ele>349.4</ele>
        <time>2020-06-25T17:37:47Z</time>
      </trkpt>
      <trkpt lat="49.68725" lon="5.4896">
        <ele>349.4</ele>
        <time>2020-06-25T17:37:48Z</time>
      </trkpt>
      <trkpt lat="49.68724" lon="5.48968">
        <ele>349.5</ele>
        <time>2020-06-25T17:37:49Z</time>
      </trkpt>
      <trkpt lat="49.68723" lon="5.48976">
        <ele>349.5</ele>
        <time>2020-06-25T17:37:50Z</time>
      </trkpt>
      <trkpt lat="49.68722" lon="5.48983">
        <ele>349.5</ele>
        <time>2020-06-25T17:37:51Z</time>
      </trkpt>
      <trkpt lat="49.68722" lon="5.48989">
        <ele>349.6</ele>
        <time>2020-06-25T17:37:52Z</time>
      </trkpt>
      <trkpt lat="49.68721" lon="5.48996">
        <ele>349.6</ele>
        <time>2020-06-25T17:37:53Z</time>
      </trkpt>
      <trkpt lat="49.6872" lon="5.49003">
        <ele>349.6</ele>
        <time>2020-06-25T17:37:54Z</time>
      </trkpt>
      <trkpt lat="49.6872" lon="5.4901">
        <ele>349.7</ele>
        <time>2020-06-25T17:37:55Z</time>
      </trkpt>
      <trkpt lat="49.6872" lon="5.49017">
        <ele>349.7</ele>
        <time>2020-06-25T17:37:56Z</time>
      </trkpt>
      <trkpt lat="49.6872" lon="5.49027">
        <ele>349.8</ele>
        <time>2020-06-25T17:37:57Z</time>
      </trkpt>
      <trkpt lat="49.6872" lon="5.49034">
        <ele>349.8</ele>
        <time>2020-06-25T17:37:58Z</time>
      </trkpt>
      <trkpt lat="49.68721" lon="5.49041">
        <ele>349.8</ele>
        <time>2020-06-25T17:37:59Z</time>
      </trkpt>
      <trkpt lat="49.68721" lon="5.49048">
        <ele>349.9</ele>
        <time>2020-06-25T17:38:00Z</time>
      </trkpt>
      <trkpt lat="49.68721" lon="5.49056">
        <ele>349.9</ele>
        <time>2020-06-25T17:38:01Z</time>
      </trkpt>
      <trkpt lat="49.68722" lon="5.49062">
        <ele>349.9</ele>
        <time>2020-06-25T17:38:02Z</time>
      </trkpt>
      <trkpt lat="49.68722" lon="5.49069">
        <ele>349.9</ele>
        <time>2020-06-25T17:38:03Z</time>
      </trkpt>
      <trkpt lat="49.68722" lon="5.49077">
        <ele>349.9</ele>
        <time>2020-06-25T17:38:04Z</time>
      </trkpt>
      <trkpt lat="49.68723" lon="5.49084">
        <ele>349.9</ele>
        <time>2020-06-25T17:38:05Z</time>
      </trkpt>
      <trkpt lat="49.68723" lon="5.49091">
        <ele>349.9</ele>
        <time>2020-06-25T17:38:06Z</time>
      </trkpt>
      <trkpt lat="49.68724" lon="5.491">
        <ele>349.9</ele>
        <time>2020-06-25T17:38:07Z</time>
      </trkpt>
      <trkpt lat="49.68725" lon="5.4911">
        <ele>349.9</ele>
        <time>2020-06-25T17:38:08Z</time>
      </trkpt>
      <trkpt lat="49.68727" lon="5.49118">
        <ele>349.8</ele>
        <time>2020-06-25T17:38:09Z</time>
      </trkpt>
      <trkpt lat="49.68728" lon="5.49124">
        <ele>349.8</ele>
        <time>2020-06-25T17:38:10Z</time>
      </trkpt>
      <trkpt lat="49.68729" lon="5.4913">
        <ele>349.8</ele>
        <time>2020-06-25T17:38:11Z</time>
      </trkpt>
      <trkpt lat="49.6873" lon="5.49137">
        <ele>349.8</ele>
        <time>2020-06-25T17:38:12Z</time>
      </trkpt>
      <trkpt lat="49.68731" lon="5.49145">
        <ele>349.8</ele>
        <time>2020-06-25T17:38:13Z</time>
      </trkpt>
      <trkpt lat="49.68732" lon="5.49151">
        <ele>349.7</ele>
        <time>2020-06-25T17:38:14Z</time>
      </trkpt>
      <trkpt lat="49.68734" lon="5.49158">
        <ele>349.7</ele>
        <time>2020-06-25T17:38:15Z</time>
      </trkpt>
      <trkpt lat="49.68736" lon="5.49164">
        <ele>349.6</ele>
        <time>2020-06-25T17:38:16Z</time>
      </trkpt>
      <trkpt lat="49.68737" lon="5.49171">
        <ele>349.6</ele>
        <time>2020-06-25T17:38:17Z</time>
      </trkpt>
      <trkpt lat="49.68739" lon="5.4918">
        <ele>349.5</ele>
        <time>2020-06-25T17:38:18Z</time>
      </trkpt>
      <trkpt lat="49.68741" lon="5.49188">
        <ele>349.4</ele>
        <time>2020-06-25T17:38:19Z</time>
      </trkpt>
      <trkpt lat="49.68743" lon="5.49197">
        <ele>349.2</ele>
        <time>2020-06-25T17:38:20Z</time>
      </trkpt>
      <trkpt lat="49.68746" lon="5.49206">
        <ele>349.1</ele>
        <time>2020-06-25T17:38:21Z</time>
      </trkpt>
      <trkpt lat="49.68747" lon="5.49214">
        <ele>349</ele>
        <time>2020-06-25T17:38:22Z</time>
      </trkpt>
      <trkpt lat="49.6875" lon="5.49222">
        <ele>348.9</ele>
        <time>2020-06-25T17:38:23Z</time>
      </trkpt>
      <trkpt lat="49.68752" lon="5.4923">
        <ele>348.8</ele>
        <time>2020-06-25T17:38:24Z</time>
      </trkpt>
      <trkpt lat="49.68754" lon="5.49238">
        <ele>348.7</ele>
        <time>2020-06-25T17:38:25Z</time>
      </trkpt>
      <trkpt lat="49.68755" lon="5.49246">
        <ele>348.5</ele>
        <time>2020-06-25T17:38:26Z</time>
      </trkpt>
      <trkpt lat="49.68757" lon="5.49254">
        <ele>348.4</ele>
        <time>2020-06-25T17:38:27Z</time>
      </trkpt>
      <trkpt lat="49.68758" lon="5.49261">
        <ele>348.2</ele>
        <time>2020-06-25T17:38:28Z</time>
      </trkpt>
      <trkpt lat="49.6876" lon="5.49268">
        <ele>348.1</ele>
        <time>2020-06-25T17:38:29Z</time>
      </trkpt>
      <trkpt lat="49.68761" lon="5.49274">
        <ele>347.9</ele>
        <time>2020-06-25T17:38:30Z</time>
      </trkpt>
      <trkpt lat="49.68762" lon="5.49282">
        <ele>347.8</ele>
        <time>2020-06-25T17:38:31Z</time>
      </trkpt>
      <trkpt lat="49.68764" lon="5.49291">
        <ele>347.6</ele>
        <time>2020-06-25T17:38:32Z</time>
      </trkpt>
      <trkpt lat="49.68765" lon="5.49299">
        <ele>347.4</ele>
        <time>2020-06-25T17:38:33Z</time>
      </trkpt>
      <trkpt lat="49.68767" lon="5.49308">
        <ele>347.2</ele>
        <time>2020-06-25T17:38:34Z</time>
      </trkpt>
      <trkpt lat="49.68768" lon="5.49318">
        <ele>346.9</ele>
        <time>2020-06-25T17:38:35Z</time>
      </trkpt>
      <trkpt lat="49.68769" lon="5.49326">
        <ele>346.7</ele>
        <time>2020-06-25T17:38:36Z</time>
      </trkpt>
      <trkpt lat="49.68768" lon="5.49335">
        <ele>346.5</ele>
        <time>2020-06-25T17:38:37Z</time>
      </trkpt>
      <trkpt lat="49.68768" lon="5.49345">
        <ele>346.2</ele>
        <time>2020-06-25T17:38:38Z</time>
      </trkpt>
      <trkpt lat="49.68769" lon="5.49354">
        <ele>346</ele>
        <time>2020-06-25T17:38:39Z</time>
      </trkpt>
      <trkpt lat="49.68769" lon="5.49362">
        <ele>345.8</ele>
        <time>2020-06-25T17:38:40Z</time>
      </trkpt>
      <trkpt lat="49.68768" lon="5.49373">
        <ele>345.6</ele>
        <time>2020-06-25T17:38:41Z</time>
      </trkpt>
      <trkpt lat="49.68768" lon="5.49383">
        <ele>345.3</ele>
        <time>2020-06-25T17:38:42Z</time>
      </trkpt>
      <trkpt lat="49.68767" lon="5.49393">
        <ele>345</ele>
        <time>2020-06-25T17:38:43Z</time>
      </trkpt>
      <trkpt lat="49.68766" lon="5.49404">
        <ele>344.8</ele>
        <time>2020-06-25T17:38:44Z</time>
      </trkpt>
      <trkpt lat="49.68765" lon="5.49413">
        <ele>344.6</ele>
        <time>2020-06-25T17:38:45Z</time>
      </trkpt>
      <trkpt lat="49.68763" lon="5.49422">
        <ele>344.4</ele>
        <time>2020-06-25T17:38:46Z</time>
      </trkpt>
      <trkpt lat="49.68761" lon="5.49432">
        <ele>344.1</ele>
        <time>2020-06-25T17:38:47Z</time>
      </trkpt>
      <trkpt lat="49.68759" lon="5.49443">
        <ele>343.8</ele>
        <time>2020-06-25T17:38:48Z</time>
      </trkpt>
      <trkpt lat="49.68756" lon="5.49453">
        <ele>343.6</ele>
        <time>2020-06-25T17:38:49Z</time>
      </trkpt>
      <trkpt lat="49.68754" lon="5.49463">
        <ele>343.3</ele>
        <time>2020-06-25T17:38:50Z</time>
      </trkpt>
      <trkpt lat="49.68751" lon="5.49473">
        <ele>343</ele>
        <time>2020-06-25T17:38:51Z</time>
      </trkpt>
      <trkpt lat="49.68748" lon="5.49484">
        <ele>342.8</ele>
        <time>2020-06-25T17:38:52Z</time>
      </trkpt>
      <trkpt lat="49.68746" lon="5.49494">
        <ele>342.6</ele>
        <time>2020-06-25T17:38:53Z</time>
      </trkpt>
      <trkpt lat="49.68744" lon="5.49504">
        <ele>342.5</ele>
        <time>2020-06-25T17:38:54Z</time>
      </trkpt>
      <trkpt lat="49.68741" lon="5.49516">
        <ele>342.4</ele>
        <time>2020-06-25T17:38:55Z</time>
      </trkpt>
      <trkpt lat="49.68739" lon="5.49527">
        <ele>342.3</ele>
        <time>2020-06-25T17:38:56Z</time>
      </trkpt>
      <trkpt lat="49.68737" lon="5.49537">
        <ele>342.2</ele>
        <time>2020-06-25T17:38:57Z</time>
      </trkpt>
      <trkpt lat="49.68734" lon="5.49546">
        <ele>342.2</ele>
        <time>2020-06-25T17:38:58Z</time>
      </trkpt>
      <trkpt lat="49.68732" lon="5.49557">
        <ele>342.1</ele>
        <time>2020-06-25T17:38:59Z</time>
      </trkpt>
      <trkpt lat="49.6873" lon="5.49567">
        <ele>342.1</ele>
        <time>2020-06-25T17:39:00Z</time>
      </trkpt>
      <trkpt lat="49.68728" lon="5.49577">
        <ele>342.1</ele>
        <time>2020-06-25T17:39:01Z</time>
      </trkpt>
      <trkpt lat="49.68725" lon="5.49585">
        <ele>342.2</ele>
        <time>2020-06-25T17:39:02Z</time>
      </trkpt>
      <trkpt lat="49.68723" lon="5.49595">
        <ele>342.3</ele>
        <time>2020-06-25T17:39:03Z</time>
      </trkpt>
      <trkpt lat="49.6872" lon="5.49604">
        <ele>342.4</ele>
        <time>2020-06-25T17:39:04Z</time>
      </trkpt>
      <trkpt lat="49.68718" lon="5.49613">
        <ele>342.5</ele>
        <time>2020-06-25T17:39:05Z</time>
      </trkpt>
      <trkpt lat="49.68716" lon="5.49622">
        <ele>342.7</ele>
        <time>2020-06-25T17:39:06Z</time>
      </trkpt>
      <trkpt lat="49.68714" lon="5.4963">
        <ele>342.9</ele>
        <time>2020-06-25T17:39:07Z</time>
      </trkpt>
      <trkpt lat="49.68711" lon="5.49638">
        <ele>343</ele>
        <time>2020-06-25T17:39:08Z</time>
      </trkpt>
      <trkpt lat="49.68709" lon="5.49646">
        <ele>343.2</ele>
        <time>2020-06-25T17:39:09Z</time>
      </trkpt>
      <trkpt lat="49.68707" lon="5.49654">
        <ele>343.4</ele>
        <time>2020-06-25T17:39:10Z</time>
      </trkpt>
      <trkpt lat="49.68706" lon="5.49661">
        <ele>343.5</ele>
        <time>2020-06-25T17:39:11Z</time>
      </trkpt>
      <trkpt lat="49.68704" lon="5.49669">
        <ele>343.7</ele>
        <time>2020-06-25T17:39:12Z</time>
      </trkpt>
      <trkpt lat="49.68703" lon="5.49675">
        <ele>344</ele>
        <time>2020-06-25T17:39:13Z</time>
      </trkpt>
      <trkpt lat="49.68701" lon="5.49681">
        <ele>344.4</ele>
        <time>2020-06-25T17:39:14Z</time>
      </trkpt>
      <trkpt lat="49.687" lon="5.49688">
        <ele>344.7</ele>
        <time>2020-06-25T17:39:15Z</time>
      </trkpt>
      <trkpt lat="49.68698" lon="5.49696">
        <ele>345.2</ele>
        <time>2020-06-25T17:39:16Z</time>
      </trkpt>
      <trkpt lat="49.68695" lon="5.49704">
        <ele>345.6</ele>
        <time>2020-06-25T17:39:17Z</time>
      </trkpt>
      <trkpt lat="49.68693" lon="5.49711">
        <ele>346</ele>
        <time>2020-06-25T17:39:18Z</time>
      </trkpt>
      <trkpt lat="49.68692" lon="5.49718">
        <ele>346.4</ele>
        <time>2020-06-25T17:39:19Z</time>
      </trkpt>
      <trkpt lat="49.68689" lon="5.49723">
        <ele>346.7</ele>
        <time>2020-06-25T17:39:20Z</time>
      </trkpt>
      <trkpt lat="49.68687" lon="5.49729">
        <ele>347.3</ele>
        <time>2020-06-25T17:39:21Z</time>
      </trkpt>
      <trkpt lat="49.68686" lon="5.49736">
        <ele>347.4</ele>
        <time>2020-06-25T17:39:22Z</time>
      </trkpt>
      <trkpt lat="49.68685" lon="5.49743">
        <ele>347.5</ele>
        <time>2020-06-25T17:39:23Z</time>
      </trkpt>
      <trkpt lat="49.68684" lon="5.49748">
        <ele>347.5</ele>
        <time>2020-06-25T17:39:24Z</time>
      </trkpt>
      <trkpt lat="49.68683" lon="5.49753">
        <ele>347.6</ele>
        <time>2020-06-25T17:39:25Z</time>
      </trkpt>
      <trkpt lat="49.68683" lon="5.49759">
        <ele>347.7</ele>
        <time>2020-06-25T17:39:26Z</time>
      </trkpt>
      <trkpt lat="49.68682" lon="5.49765">
        <ele>347.8</ele>
        <time>2020-06-25T17:39:27Z</time>
      </trkpt>
      <trkpt lat="49.68681" lon="5.49771">
        <ele>347.8</ele>
        <time>2020-06-25T17:39:28Z</time>
      </trkpt>
      <trkpt lat="49.68681" lon="5.49777">
        <ele>347.9</ele>
        <time>2020-06-25T17:39:29Z</time>
      </trkpt>
      <trkpt lat="49.6868" lon="5.49784">
        <ele>348</ele>
        <time>2020-06-25T17:39:30Z</time>
      </trkpt>
      <trkpt lat="49.6868" lon="5.49793">
        <ele>348</ele>
        <time>2020-06-25T17:39:31Z</time>
      </trkpt>
      <trkpt lat="49.68677" lon="5.49801">
        <ele>348.1</ele>
        <time>2020-06-25T17:39:32Z</time>
      </trkpt>
      <trkpt lat="49.68676" lon="5.49809">
        <ele>348.4</ele>
        <time>2020-06-25T17:39:33Z</time>
      </trkpt>
      <trkpt lat="49.68674" lon="5.49816">
        <ele>348.7</ele>
        <time>2020-06-25T17:39:34Z</time>
      </trkpt>
      <trkpt lat="49.68674" lon="5.49823">
        <ele>348.9</ele>
        <time>2020-06-25T17:39:35Z</time>
      </trkpt>
      <trkpt lat="49.68672" lon="5.49832">
        <ele>349.1</ele>
        <time>2020-06-25T17:39:36Z</time>
      </trkpt>
      <trkpt lat="49.68671" lon="5.4984">
        <ele>349.2</ele>
        <time>2020-06-25T17:39:37Z</time>
      </trkpt>
      <trkpt lat="49.68671" lon="5.49848">
        <ele>349.3</ele>
        <time>2020-06-25T17:39:38Z</time>
      </trkpt>
      <trkpt lat="49.68671" lon="5.49856">
        <ele>349.4</ele>
        <time>2020-06-25T17:39:39Z</time>
      </trkpt>
      <trkpt lat="49.68671" lon="5.49862">
        <ele>349.4</ele>
        <time>2020-06-25T17:39:40Z</time>
      </trkpt>
      <trkpt lat="49.68669" lon="5.4987">
        <ele>349.5</ele>
        <time>2020-06-25T17:39:41Z</time>
      </trkpt>
      <trkpt lat="49.68668" lon="5.49878">
        <ele>349.6</ele>
        <time>2020-06-25T17:39:42Z</time>
      </trkpt>
      <trkpt lat="49.68667" lon="5.49887">
        <ele>349.7</ele>
        <time>2020-06-25T17:39:43Z</time>
      </trkpt>
      <trkpt lat="49.68665" lon="5.49894">
        <ele>349.7</ele>
        <time>2020-06-25T17:39:44Z</time>
      </trkpt>
      <trkpt lat="49.68664" lon="5.49901">
        <ele>349.8</ele>
        <time>2020-06-25T17:39:45Z</time>
      </trkpt>
      <trkpt lat="49.68662" lon="5.49908">
        <ele>349.9</ele>
        <time>2020-06-25T17:39:46Z</time>
      </trkpt>
      <trkpt lat="49.6866" lon="5.49916">
        <ele>350</ele>
        <time>2020-06-25T17:39:47Z</time>
      </trkpt>
      <trkpt lat="49.68659" lon="5.49925">
        <ele>350</ele>
        <time>2020-06-25T17:39:48Z</time>
      </trkpt>
      <trkpt lat="49.68658" lon="5.49932">
        <ele>350</ele>
        <time>2020-06-25T17:39:49Z</time>
      </trkpt>
      <trkpt lat="49.68657" lon="5.49939">
        <ele>350.1</ele>
        <time>2020-06-25T17:39:50Z</time>
      </trkpt>
      <trkpt lat="49.68655" lon="5.49948">
        <ele>350.1</ele>
        <time>2020-06-25T17:39:51Z</time>
      </trkpt>
      <trkpt lat="49.68653" lon="5.49958">
        <ele>350</ele>
        <time>2020-06-25T17:39:52Z</time>
      </trkpt>
      <trkpt lat="49.68651" lon="5.49968">
        <ele>350</ele>
        <time>2020-06-25T17:39:53Z</time>
      </trkpt>
      <trkpt lat="49.68648" lon="5.49977">
        <ele>350</ele>
        <time>2020-06-25T17:39:54Z</time>
      </trkpt>
      <trkpt lat="49.68645" lon="5.49986">
        <ele>349.9</ele>
        <time>2020-06-25T17:39:55Z</time>
      </trkpt>
      <trkpt lat="49.68643" lon="5.49994">
        <ele>349.9</ele>
        <time>2020-06-25T17:39:56Z</time>
      </trkpt>
      <trkpt lat="49.6864" lon="5.50002">
        <ele>349.8</ele>
        <time>2020-06-25T17:39:57Z</time>
      </trkpt>
      <trkpt lat="49.68638" lon="5.50009">
        <ele>349.8</ele>
        <time>2020-06-25T17:39:58Z</time>
      </trkpt>
      <trkpt lat="49.68635" lon="5.50016">
        <ele>349.7</ele>
        <time>2020-06-25T17:39:59Z</time>
      </trkpt>
      <trkpt lat="49.68633" lon="5.50023">
        <ele>349.7</ele>
        <time>2020-06-25T17:40:00Z</time>
      </trkpt>
      <trkpt lat="49.68631" lon="5.50032">
        <ele>349.6</ele>
        <time>2020-06-25T17:40:01Z</time>
      </trkpt>
      <trkpt lat="49.68629" lon="5.50041">
        <ele>349.5</ele>
        <time>2020-06-25T17:40:02Z</time>
      </trkpt>
      <trkpt lat="49.68628" lon="5.5005">
        <ele>349.4</ele>
        <time>2020-06-25T17:40:03Z</time>
      </trkpt>
      <trkpt lat="49.68626" lon="5.50059">
        <ele>349.2</ele>
        <time>2020-06-25T17:40:04Z</time>
      </trkpt>
      <trkpt lat="49.68624" lon="5.50069">
        <ele>349.1</ele>
        <time>2020-06-25T17:40:05Z</time>
      </trkpt>
      <trkpt lat="49.68622" lon="5.50078">
        <ele>348.9</ele>
        <time>2020-06-25T17:40:06Z</time>
      </trkpt>
      <trkpt lat="49.6862" lon="5.50087">
        <ele>348.8</ele>
        <time>2020-06-25T17:40:07Z</time>
      </trkpt>
      <trkpt lat="49.68618" lon="5.50096">
        <ele>348.5</ele>
        <time>2020-06-25T17:40:08Z</time>
      </trkpt>
      <trkpt lat="49.68616" lon="5.50105">
        <ele>348.3</ele>
        <time>2020-06-25T17:40:09Z</time>
      </trkpt>
      <trkpt lat="49.68614" lon="5.50115">
        <ele>348.1</ele>
        <time>2020-06-25T17:40:10Z</time>
      </trkpt>
      <trkpt lat="49.68613" lon="5.50126">
        <ele>347.8</ele>
        <time>2020-06-25T17:40:11Z</time>
      </trkpt>
      <trkpt lat="49.68612" lon="5.50135">
        <ele>347.6</ele>
        <time>2020-06-25T17:40:12Z</time>
      </trkpt>
      <trkpt lat="49.6861" lon="5.50144">
        <ele>347.4</ele>
        <time>2020-06-25T17:40:13Z</time>
      </trkpt>
      <trkpt lat="49.68607" lon="5.50153">
        <ele>347.2</ele>
        <time>2020-06-25T17:40:14Z</time>
      </trkpt>
      <trkpt lat="49.68604" lon="5.5016">
        <ele>347</ele>
        <time>2020-06-25T17:40:15Z</time>
      </trkpt>
      <trkpt lat="49.68601" lon="5.50171">
        <ele>346.7</ele>
        <time>2020-06-25T17:40:16Z</time>
      </trkpt>
      <trkpt lat="49.68599" lon="5.50182">
        <ele>346.5</ele>
        <time>2020-06-25T17:40:17Z</time>
      </trkpt>
      <trkpt lat="49.68596" lon="5.50194">
        <ele>346.2</ele>
        <time>2020-06-25T17:40:18Z</time>
      </trkpt>
      <trkpt lat="49.68593" lon="5.50204">
        <ele>345.9</ele>
        <time>2020-06-25T17:40:19Z</time>
      </trkpt>
      <trkpt lat="49.6859" lon="5.50215">
        <ele>345.6</ele>
        <time>2020-06-25T17:40:20Z</time>
      </trkpt>
      <trkpt lat="49.68587" lon="5.50225">
        <ele>345.3</ele>
        <time>2020-06-25T17:40:21Z</time>
      </trkpt>
      <trkpt lat="49.68584" lon="5.50237">
        <ele>345</ele>
        <time>2020-06-25T17:40:22Z</time>
      </trkpt>
      <trkpt lat="49.68581" lon="5.50249">
        <ele>344.7</ele>
        <time>2020-06-25T17:40:23Z</time>
      </trkpt>
      <trkpt lat="49.68578" lon="5.5026">
        <ele>344.3</ele>
        <time>2020-06-25T17:40:24Z</time>
      </trkpt>
      <trkpt lat="49.68575" lon="5.5027">
        <ele>344</ele>
        <time>2020-06-25T17:40:25Z</time>
      </trkpt>
      <trkpt lat="49.68573" lon="5.5028">
        <ele>343.6</ele>
        <time>2020-06-25T17:40:26Z</time>
      </trkpt>
      <trkpt lat="49.6857" lon="5.50294">
        <ele>343.3</ele>
        <time>2020-06-25T17:40:27Z</time>
      </trkpt>
      <trkpt lat="49.68567" lon="5.50307">
        <ele>342.9</ele>
        <time>2020-06-25T17:40:28Z</time>
      </trkpt>
      <trkpt lat="49.68563" lon="5.50321">
        <ele>342.5</ele>
        <time>2020-06-25T17:40:29Z</time>
      </trkpt>
      <trkpt lat="49.68561" lon="5.50333">
        <ele>342.2</ele>
        <time>2020-06-25T17:40:30Z</time>
      </trkpt>
      <trkpt lat="49.68558" lon="5.50345">
        <ele>341.9</ele>
        <time>2020-06-25T17:40:31Z</time>
      </trkpt>
      <trkpt lat="49.68555" lon="5.50357">
        <ele>341.6</ele>
        <time>2020-06-25T17:40:32Z</time>
      </trkpt>
      <trkpt lat="49.68552" lon="5.50369">
        <ele>341.2</ele>
        <time>2020-06-25T17:40:33Z</time>
      </trkpt>
      <trkpt lat="49.6855" lon="5.50381">
        <ele>340.8</ele>
        <time>2020-06-25T17:40:34Z</time>
      </trkpt>
      <trkpt lat="49.68547" lon="5.50392">
        <ele>340.5</ele>
        <time>2020-06-25T17:40:35Z</time>
      </trkpt>
      <trkpt lat="49.68544" lon="5.50404">
        <ele>340.1</ele>
        <time>2020-06-25T17:40:36Z</time>
      </trkpt>
      <trkpt lat="49.68541" lon="5.50416">
        <ele>339.7</ele>
        <time>2020-06-25T17:40:37Z</time>
      </trkpt>
      <trkpt lat="49.68537" lon="5.50427">
        <ele>339.4</ele>
        <time>2020-06-25T17:40:38Z</time>
      </trkpt>
      <trkpt lat="49.68534" lon="5.50439">
        <ele>339.1</ele>
        <time>2020-06-25T17:40:39Z</time>
      </trkpt>
      <trkpt lat="49.68531" lon="5.50451">
        <ele>338.8</ele>
        <time>2020-06-25T17:40:40Z</time>
      </trkpt>
      <trkpt lat="49.68528" lon="5.50463">
        <ele>338.5</ele>
        <time>2020-06-25T17:40:41Z</time>
      </trkpt>
      <trkpt lat="49.68525" lon="5.50474">
        <ele>338.3</ele>
        <time>2020-06-25T17:40:42Z</time>
      </trkpt>
      <trkpt lat="49.68522" lon="5.50486">
        <ele>338</ele>
        <time>2020-06-25T17:40:43Z</time>
      </trkpt>
      <trkpt lat="49.68518" lon="5.50497">
        <ele>337.7</ele>
        <time>2020-06-25T17:40:44Z</time>
      </trkpt>
      <trkpt lat="49.68514" lon="5.50508">
        <ele>337.4</ele>
        <time>2020-06-25T17:40:45Z</time>
      </trkpt>
      <trkpt lat="49.6851" lon="5.50518">
        <ele>337</ele>
        <time>2020-06-25T17:40:46Z</time>
      </trkpt>
      <trkpt lat="49.68506" lon="5.50528">
        <ele>336.7</ele>
        <time>2020-06-25T17:40:47Z</time>
      </trkpt>
      <trkpt lat="49.68502" lon="5.50539">
        <ele>336.4</ele>
        <time>2020-06-25T17:40:48Z</time>
      </trkpt>
      <trkpt lat="49.68498" lon="5.5055">
        <ele>336.1</ele>
        <time>2020-06-25T17:40:49Z</time>
      </trkpt>
      <trkpt lat="49.68494" lon="5.5056">
        <ele>335.9</ele>
        <time>2020-06-25T17:40:50Z</time>
      </trkpt>
      <trkpt lat="49.6849" lon="5.50569">
        <ele>335.6</ele>
        <time>2020-06-25T17:40:51Z</time>
      </trkpt>
      <trkpt lat="49.68486" lon="5.50579">
        <ele>335.3</ele>
        <time>2020-06-25T17:40:52Z</time>
      </trkpt>
      <trkpt lat="49.68481" lon="5.50588">
        <ele>335.1</ele>
        <time>2020-06-25T17:40:53Z</time>
      </trkpt>
      <trkpt lat="49.68476" lon="5.50597">
        <ele>334.8</ele>
        <time>2020-06-25T17:40:54Z</time>
      </trkpt>
      <trkpt lat="49.68472" lon="5.50607">
        <ele>334.5</ele>
        <time>2020-06-25T17:40:55Z</time>
      </trkpt>
      <trkpt lat="49.68467" lon="5.50617">
        <ele>334.3</ele>
        <time>2020-06-25T17:40:56Z</time>
      </trkpt>
      <trkpt lat="49.68463" lon="5.50626">
        <ele>334</ele>
        <time>2020-06-25T17:40:57Z</time>
      </trkpt>
      <trkpt lat="49.68458" lon="5.50636">
        <ele>333.3</ele>
        <time>2020-06-25T17:40:58Z</time>
      </trkpt>
      <trkpt lat="49.68454" lon="5.50645">
        <ele>333</ele>
        <time>2020-06-25T17:40:59Z</time>
      </trkpt>
      <trkpt lat="49.68449" lon="5.50654">
        <ele>332.7</ele>
        <time>2020-06-25T17:41:00Z</time>
      </trkpt>
      <trkpt lat="49.68444" lon="5.50663">
        <ele>332.5</ele>
        <time>2020-06-25T17:41:01Z</time>
      </trkpt>
      <trkpt lat="49.68439" lon="5.50672">
        <ele>332.2</ele>
        <time>2020-06-25T17:41:02Z</time>
      </trkpt>
      <trkpt lat="49.68434" lon="5.5068">
        <ele>331.9</ele>
        <time>2020-06-25T17:41:03Z</time>
      </trkpt>
      <trkpt lat="49.68428" lon="5.50688">
        <ele>331.7</ele>
        <time>2020-06-25T17:41:04Z</time>
      </trkpt>
      <trkpt lat="49.68423" lon="5.50696">
        <ele>331.5</ele>
        <time>2020-06-25T17:41:05Z</time>
      </trkpt>
      <trkpt lat="49.68417" lon="5.50703">
        <ele>331.3</ele>
        <time>2020-06-25T17:41:06Z</time>
      </trkpt>
      <trkpt lat="49.68412" lon="5.5071">
        <ele>331.1</ele>
        <time>2020-06-25T17:41:07Z</time>
      </trkpt>
      <trkpt lat="49.68406" lon="5.50717">
        <ele>330.8</ele>
        <time>2020-06-25T17:41:08Z</time>
      </trkpt>
      <trkpt lat="49.684" lon="5.50724">
        <ele>330.6</ele>
        <time>2020-06-25T17:41:09Z</time>
      </trkpt>
      <trkpt lat="49.68394" lon="5.50731">
        <ele>330.3</ele>
        <time>2020-06-25T17:41:10Z</time>
      </trkpt>
      <trkpt lat="49.68389" lon="5.50739">
        <ele>330.1</ele>
        <time>2020-06-25T17:41:11Z</time>
      </trkpt>
      <trkpt lat="49.68383" lon="5.50746">
        <ele>329.8</ele>
        <time>2020-06-25T17:41:12Z</time>
      </trkpt>
      <trkpt lat="49.68378" lon="5.50753">
        <ele>329.6</ele>
        <time>2020-06-25T17:41:13Z</time>
      </trkpt>
      <trkpt lat="49.68372" lon="5.50761">
        <ele>329.4</ele>
        <time>2020-06-25T17:41:14Z</time>
      </trkpt>
      <trkpt lat="49.68368" lon="5.5077">
        <ele>329.2</ele>
        <time>2020-06-25T17:41:15Z</time>
      </trkpt>
      <trkpt lat="49.68364" lon="5.50778">
        <ele>329.1</ele>
        <time>2020-06-25T17:41:16Z</time>
      </trkpt>
      <trkpt lat="49.6836" lon="5.50787">
        <ele>328.9</ele>
        <time>2020-06-25T17:41:17Z</time>
      </trkpt>
      <trkpt lat="49.68356" lon="5.50795">
        <ele>328.7</ele>
        <time>2020-06-25T17:41:18Z</time>
      </trkpt>
      <trkpt lat="49.68353" lon="5.50804">
        <ele>328.6</ele>
        <time>2020-06-25T17:41:19Z</time>
      </trkpt>
      <trkpt lat="49.6835" lon="5.50812">
        <ele>328.5</ele>
        <time>2020-06-25T17:41:20Z</time>
      </trkpt>
      <trkpt lat="49.68348" lon="5.50822">
        <ele>328.4</ele>
        <time>2020-06-25T17:41:21Z</time>
      </trkpt>
      <trkpt lat="49.68347" lon="5.50832">
        <ele>328.4</ele>
        <time>2020-06-25T17:41:22Z</time>
      </trkpt>
      <trkpt lat="49.68345" lon="5.50842">
        <ele>328.4</ele>
        <time>2020-06-25T17:41:23Z</time>
      </trkpt>
      <trkpt lat="49.68343" lon="5.50851">
        <ele>328.4</ele>
        <time>2020-06-25T17:41:24Z</time>
      </trkpt>
      <trkpt lat="49.68342" lon="5.50861">
        <ele>328.4</ele>
        <time>2020-06-25T17:41:25Z</time>
      </trkpt>
      <trkpt lat="49.68341" lon="5.5087">
        <ele>328.4</ele>
        <time>2020-06-25T17:41:26Z</time>
      </trkpt>
      <trkpt lat="49.6834" lon="5.5088">
        <ele>328.3</ele>
        <time>2020-06-25T17:41:27Z</time>
      </trkpt>
      <trkpt lat="49.68339" lon="5.50889">
        <ele>328.3</ele>
        <time>2020-06-25T17:41:28Z</time>
      </trkpt>
      <trkpt lat="49.68338" lon="5.50898">
        <ele>328.2</ele>
        <time>2020-06-25T17:41:29Z</time>
      </trkpt>
      <trkpt lat="49.68339" lon="5.50907">
        <ele>328.2</ele>
        <time>2020-06-25T17:41:30Z</time>
      </trkpt>
      <trkpt lat="49.6834" lon="5.50915">
        <ele>328.2</ele>
        <time>2020-06-25T17:41:31Z</time>
      </trkpt>
      <trkpt lat="49.6834" lon="5.50924">
        <ele>328.2</ele>
        <time>2020-06-25T17:41:32Z</time>
      </trkpt>
      <trkpt lat="49.68341" lon="5.50933">
        <ele>328.1</ele>
        <time>2020-06-25T17:41:33Z</time>
      </trkpt>
      <trkpt lat="49.68342" lon="5.50941">
        <ele>328.1</ele>
        <time>2020-06-25T17:41:34Z</time>
      </trkpt>
      <trkpt lat="49.68343" lon="5.5095">
        <ele>328.1</ele>
        <time>2020-06-25T17:41:35Z</time>
      </trkpt>
      <trkpt lat="49.68343" lon="5.50959">
        <ele>328.1</ele>
        <time>2020-06-25T17:41:36Z</time>
      </trkpt>
      <trkpt lat="49.68344" lon="5.50967">
        <ele>328.1</ele>
        <time>2020-06-25T17:41:37Z</time>
      </trkpt>
      <trkpt lat="49.68345" lon="5.50975">
        <ele>328.1</ele>
        <time>2020-06-25T17:41:38Z</time>
      </trkpt>
      <trkpt lat="49.68346" lon="5.50982">
        <ele>328.1</ele>
        <time>2020-06-25T17:41:39Z</time>
      </trkpt>
      <trkpt lat="49.68347" lon="5.5099">
        <ele>328.1</ele>
        <time>2020-06-25T17:41:40Z</time>
      </trkpt>
      <trkpt lat="49.68349" lon="5.50997">
        <ele>328.1</ele>
        <time>2020-06-25T17:41:41Z</time>
      </trkpt>
      <trkpt lat="49.68349" lon="5.51005">
        <ele>328.2</ele>
        <time>2020-06-25T17:41:42Z</time>
      </trkpt>
      <trkpt lat="49.6835" lon="5.51013">
        <ele>328.2</ele>
        <time>2020-06-25T17:41:43Z</time>
      </trkpt>
      <trkpt lat="49.68349" lon="5.5102">
        <ele>328.2</ele>
        <time>2020-06-25T17:41:44Z</time>
      </trkpt>
      <trkpt lat="49.68349" lon="5.51028">
        <ele>328.3</ele>
        <time>2020-06-25T17:41:45Z</time>
      </trkpt>
      <trkpt lat="49.68349" lon="5.51035">
        <ele>328.3</ele>
        <time>2020-06-25T17:41:46Z</time>
      </trkpt>
      <trkpt lat="49.68348" lon="5.5104">
        <ele>328.4</ele>
        <time>2020-06-25T17:41:47Z</time>
      </trkpt>
      <trkpt lat="49.68348" lon="5.51046">
        <ele>328.4</ele>
        <time>2020-06-25T17:41:48Z</time>
      </trkpt>
      <trkpt lat="49.68345" lon="5.51051">
        <ele>328.5</ele>
        <time>2020-06-25T17:41:49Z</time>
      </trkpt>
      <trkpt lat="49.68343" lon="5.51056">
        <ele>328.5</ele>
        <time>2020-06-25T17:41:50Z</time>
      </trkpt>
      <trkpt lat="49.68341" lon="5.51062">
        <ele>328.6</ele>
        <time>2020-06-25T17:41:51Z</time>
      </trkpt>
      <trkpt lat="49.68341" lon="5.5107">
        <ele>328.7</ele>
        <time>2020-06-25T17:41:52Z</time>
      </trkpt>
      <trkpt lat="49.68341" lon="5.51077">
        <ele>328.8</ele>
        <time>2020-06-25T17:41:53Z</time>
      </trkpt>
      <trkpt lat="49.6834" lon="5.51083">
        <ele>328.9</ele>
        <time>2020-06-25T17:41:54Z</time>
      </trkpt>
      <trkpt lat="49.68338" lon="5.51088">
        <ele>329</ele>
        <time>2020-06-25T17:41:55Z</time>
      </trkpt>
      <trkpt lat="49.68336" lon="5.51095">
        <ele>329.1</ele>
        <time>2020-06-25T17:41:56Z</time>
      </trkpt>
      <trkpt lat="49.68335" lon="5.51103">
        <ele>329.2</ele>
        <time>2020-06-25T17:41:57Z</time>
      </trkpt>
      <trkpt lat="49.68335" lon="5.5111">
        <ele>329.2</ele>
        <time>2020-06-25T17:41:58Z</time>
      </trkpt>
      <trkpt lat="49.68335" lon="5.51118">
        <ele>329.1</ele>
        <time>2020-06-25T17:41:59Z</time>
      </trkpt>
      <trkpt lat="49.68336" lon="5.51125">
        <ele>329</ele>
        <time>2020-06-25T17:42:00Z</time>
      </trkpt>
      <trkpt lat="49.68336" lon="5.51132">
        <ele>329.1</ele>
        <time>2020-06-25T17:42:01Z</time>
      </trkpt>
      <trkpt lat="49.68336" lon="5.51139">
        <ele>329.2</ele>
        <time>2020-06-25T17:42:02Z</time>
      </trkpt>
      <trkpt lat="49.68337" lon="5.51145">
        <ele>329.3</ele>
        <time>2020-06-25T17:42:03Z</time>
      </trkpt>
      <trkpt lat="49.68337" lon="5.51152">
        <ele>329.4</ele>
        <time>2020-06-25T17:42:04Z</time>
      </trkpt>
      <trkpt lat="49.68338" lon="5.51158">
        <ele>329.5</ele>
        <time>2020-06-25T17:42:05Z</time>
      </trkpt>
      <trkpt lat="49.68339" lon="5.51165">
        <ele>329.6</ele>
        <time>2020-06-25T17:42:06Z</time>
      </trkpt>
      <trkpt lat="49.68339" lon="5.51172">
        <ele>329.7</ele>
        <time>2020-06-25T17:42:07Z</time>
      </trkpt>
      <trkpt lat="49.68339" lon="5.51178">
        <ele>329.8</ele>
        <time>2020-06-25T17:42:08Z</time>
      </trkpt>
      <trkpt lat="49.68337" lon="5.51184">
        <ele>330</ele>
        <time>2020-06-25T17:42:09Z</time>
      </trkpt>
      <trkpt lat="49.68338" lon="5.51189">
        <ele>330.1</ele>
        <time>2020-06-25T17:42:10Z</time>
      </trkpt>
      <trkpt lat="49.68339" lon="5.51193">
        <ele>330.2</ele>
        <time>2020-06-25T17:42:11Z</time>
      </trkpt>
      <trkpt lat="49.68336" lon="5.512">
        <ele>330.4</ele>
        <time>2020-06-25T17:42:12Z</time>
      </trkpt>
      <trkpt lat="49.68335" lon="5.51208">
        <ele>330.6</ele>
        <time>2020-06-25T17:42:13Z</time>
      </trkpt>
      <trkpt lat="49.68335" lon="5.51215">
        <ele>330.8</ele>
        <time>2020-06-25T17:42:14Z</time>
      </trkpt>
      <trkpt lat="49.68335" lon="5.51222">
        <ele>331</ele>
        <time>2020-06-25T17:42:15Z</time>
      </trkpt>
      <trkpt lat="49.68335" lon="5.5123">
        <ele>331.2</ele>
        <time>2020-06-25T17:42:16Z</time>
      </trkpt>
      <trkpt lat="49.68335" lon="5.51235">
        <ele>331.3</ele>
        <time>2020-06-25T17:42:17Z</time>
      </trkpt>
      <trkpt lat="49.68335" lon="5.51244">
        <ele>331.5</ele>
        <time>2020-06-25T17:42:18Z</time>
      </trkpt>
      <trkpt lat="49.68335" lon="5.51252">
        <ele>331.6</ele>
        <time>2020-06-25T17:42:19Z</time>
      </trkpt>
      <trkpt lat="49.68336" lon="5.51262">
        <ele>332.2</ele>
        <time>2020-06-25T17:42:20Z</time>
      </trkpt>
      <trkpt lat="49.68336" lon="5.51268">
        <ele>332.4</ele>
        <time>2020-06-25T17:42:21Z</time>
      </trkpt>
      <trkpt lat="49.68336" lon="5.51275">
        <ele>332.7</ele>
        <time>2020-06-25T17:42:22Z</time>
      </trkpt>
      <trkpt lat="49.68335" lon="5.51281">
        <ele>333</ele>
        <time>2020-06-25T17:42:23Z</time>
      </trkpt>
      <trkpt lat="49.68333" lon="5.51284">
        <ele>333.2</ele>
        <time>2020-06-25T17:42:24Z</time>
      </trkpt>
      <trkpt lat="49.68332" lon="5.51289">
        <ele>333.4</ele>
        <time>2020-06-25T17:42:25Z</time>
      </trkpt>
      <trkpt lat="49.68332" lon="5.51294">
        <ele>333.6</ele>
        <time>2020-06-25T17:42:26Z</time>
      </trkpt>
      <trkpt lat="49.68332" lon="5.51301">
        <ele>333.9</ele>
        <time>2020-06-25T17:42:27Z</time>
      </trkpt>
      <trkpt lat="49.68332" lon="5.51307">
        <ele>334.1</ele>
        <time>2020-06-25T17:42:28Z</time>
      </trkpt>
      <trkpt lat="49.68331" lon="5.51311">
        <ele>334.6</ele>
        <time>2020-06-25T17:42:29Z</time>
      </trkpt>
      <trkpt lat="49.6833" lon="5.51313">
        <ele>334.7</ele>
        <time>2020-06-25T17:42:30Z</time>
      </trkpt>
      <trkpt lat="49.68327" lon="5.51319">
        <ele>334.8</ele>
        <time>2020-06-25T17:42:31Z</time>
      </trkpt>
      <trkpt lat="49.68326" lon="5.51322">
        <ele>334.9</ele>
        <time>2020-06-25T17:42:32Z</time>
      </trkpt>
      <trkpt lat="49.68324" lon="5.51327">
        <ele>335.2</ele>
        <time>2020-06-25T17:42:33Z</time>
      </trkpt>
      <trkpt lat="49.68323" lon="5.51333">
        <ele>335.3</ele>
        <time>2020-06-25T17:42:34Z</time>
      </trkpt>
      <trkpt lat="49.68323" lon="5.51338">
        <ele>335.3</ele>
        <time>2020-06-25T17:42:35Z</time>
      </trkpt>
      <trkpt lat="49.68325" lon="5.51342">
        <ele>335.5</ele>
        <time>2020-06-25T17:42:36Z</time>
      </trkpt>
      <trkpt lat="49.68327" lon="5.51346">
        <ele>335.5</ele>
        <time>2020-06-25T17:42:37Z</time>
      </trkpt>
      <trkpt lat="49.68327" lon="5.51352">
        <ele>335.6</ele>
        <time>2020-06-25T17:42:38Z</time>
      </trkpt>
      <trkpt lat="49.68327" lon="5.51354">
        <ele>335.6</ele>
        <time>2020-06-25T17:42:39Z</time>
      </trkpt>
      <trkpt lat="49.68327" lon="5.51358">
        <ele>335.6</ele>
        <time>2020-06-25T17:42:40Z</time>
      </trkpt>
      <trkpt lat="49.68327" lon="5.5136">
        <ele>335.6</ele>
        <time>2020-06-25T17:42:41Z</time>
      </trkpt>
      <trkpt lat="49.68328" lon="5.51362">
        <ele>335.6</ele>
        <time>2020-06-25T17:42:42Z</time>
      </trkpt>
      <trkpt lat="49.68328" lon="5.51361">
        <ele>335.7</ele>
        <time>2020-06-25T17:42:43Z</time>
      </trkpt>
      <trkpt lat="49.68328" lon="5.51361">
        <ele>335.7</ele>
        <time>2020-06-25T17:42:44Z</time>
      </trkpt>
      <trkpt lat="49.68328" lon="5.51361">
        <ele>335.7</ele>
        <time>2020-06-25T17:42:45Z</time>
      </trkpt>
      <trkpt lat="49.68328" lon="5.51361">
        <ele>335.7</ele>
        <time>2020-06-25T17:42:46Z</time>
      </trkpt>
      <trkpt lat="49.68328" lon="5.51361">
        <ele>335.7</ele>
        <time>2020-06-25T17:42:47Z</time>
      </trkpt>
      <trkpt lat="49.68328" lon="5.51361">
        <ele>335.7</ele>
        <time>2020-06-25T17:42:48Z</time>
      </trkpt>
      <trkpt lat="49.68328" lon="5.51362">
        <ele>335.7</ele>
        <time>2020-06-25T17:42:49Z</time>
      </trkpt>
      <trkpt lat="49.68328" lon="5.51363">
        <ele>335.7</ele>
        <time>2020-06-25T17:42:50Z</time>
      </trkpt>
      <trkpt lat="49.68329" lon="5.51363">
        <ele>335.7</ele>
        <time>2020-06-25T17:42:51Z</time>
      </trkpt>
      <trkpt lat="49.68329" lon="5.51365">
        <ele>335.7</ele>
        <time>2020-06-25T17:42:52Z</time>
      </trkpt>
      <trkpt lat="49.68329" lon="5.51366">
        <ele>335.7</ele>
        <time>2020-06-25T17:42:53Z</time>
      </trkpt>
      <trkpt lat="49.68331" lon="5.51374">
        <ele>335.8</ele>
        <time>2020-06-25T17:43:00Z</time>
      </trkpt>
      <trkpt lat="49.68331" lon="5.51375">
        <ele>335.8</ele>
        <time>2020-06-25T17:43:01Z</time>
      </trkpt>
      <trkpt lat="49.68331" lon="5.51376">
        <ele>335.8</ele>
        <time>2020-06-25T17:43:02Z</time>
      </trkpt>
      <trkpt lat="49.68331" lon="5.51376">
        <ele>335.8</ele>
        <time>2020-06-25T17:43:03Z</time>
      </trkpt>
      <trkpt lat="49.68331" lon="5.51376">
        <ele>335.8</ele>
        <time>2020-06-25T17:43:04Z</time>
      </trkpt>
      <trkpt lat="49.68332" lon="5.51376">
        <ele>335.8</ele>
        <time>2020-06-25T17:43:05Z</time>
      </trkpt>
      <trkpt lat="49.68332" lon="5.51376">
        <ele>335.8</ele>
        <time>2020-06-25T17:43:06Z</time>
      </trkpt>
      <trkpt lat="49.68333" lon="5.51377">
        <ele>335.8</ele>
        <time>2020-06-25T17:43:07Z</time>
      </trkpt>
      <trkpt lat="49.68331" lon="5.51376">
        <ele>335.8</ele>
        <time>2020-06-25T17:43:08Z</time>
      </trkpt>
      <trkpt lat="49.68331" lon="5.51377">
        <ele>335.8</ele>
        <time>2020-06-25T17:43:09Z</time>
      </trkpt>
      <trkpt lat="49.68331" lon="5.51377">
        <ele>335.8</ele>
        <time>2020-06-25T17:43:10Z</time>
      </trkpt>
      <trkpt lat="49.6833" lon="5.51377">
        <ele>335.8</ele>
        <time>2020-06-25T17:43:11Z</time>
      </trkpt>
      <trkpt lat="49.68329" lon="5.51377">
        <ele>335.8</ele>
        <time>2020-06-25T17:43:12Z</time>
      </trkpt>
      <trkpt lat="49.68329" lon="5.51377">
        <ele>335.8</ele>
        <time>2020-06-25T17:43:13Z</time>
      </trkpt>
      <trkpt lat="49.6833" lon="5.51377">
        <ele>335.9</ele>
        <time>2020-06-25T17:43:14Z</time>
      </trkpt>
      <trkpt lat="49.68331" lon="5.51377">
        <ele>335.9</ele>
        <time>2020-06-25T17:43:15Z</time>
      </trkpt>
      <trkpt lat="49.68331" lon="5.51377">
        <ele>335.9</ele>
        <time>2020-06-25T17:43:16Z</time>
      </trkpt>
      <trkpt lat="49.6833" lon="5.51377">
        <ele>335.9</ele>
        <time>2020-06-25T17:43:17Z</time>
      </trkpt>
      <trkpt lat="49.6833" lon="5.51377">
        <ele>335.9</ele>
        <time>2020-06-25T17:43:18Z</time>
      </trkpt>
      <trkpt lat="49.6833" lon="5.51378">
        <ele>335.9</ele>
        <time>2020-06-25T17:43:19Z</time>
      </trkpt>
      <trkpt lat="49.6833" lon="5.51378">
        <ele>335.9</ele>
        <time>2020-06-25T17:43:20Z</time>
      </trkpt>
      <trkpt lat="49.68331" lon="5.51377">
        <ele>335.9</ele>
        <time>2020-06-25T17:43:21Z</time>
      </trkpt>
      <trkpt lat="49.68331" lon="5.51377">
        <ele>335.9</ele>
        <time>2020-06-25T17:43:22Z</time>
      </trkpt>
      <trkpt lat="49.68331" lon="5.51376">
        <ele>335.9</ele>
        <time>2020-06-25T17:43:23Z</time>
      </trkpt>
      <trkpt lat="49.68331" lon="5.51376">
        <ele>335.9</ele>
        <time>2020-06-25T17:43:24Z</time>
      </trkpt>
      <trkpt lat="49.68331" lon="5.51376">
        <ele>335.9</ele>
        <time>2020-06-25T17:43:25Z</time>
      </trkpt>
      <trkpt lat="49.68332" lon="5.51376">
        <ele>335.9</ele>
        <time>2020-06-25T17:43:26Z</time>
      </trkpt>
      <trkpt lat="49.68332" lon="5.51375">
        <ele>335.9</ele>
        <time>2020-06-25T17:43:27Z</time>
      </trkpt>
      <trkpt lat="49.68341" lon="5.51369">
        <ele>335.8</ele>
        <time>2020-06-25T17:44:03Z</time>
      </trkpt>
      <trkpt lat="49.6834" lon="5.51368">
        <ele>335.8</ele>
        <time>2020-06-25T17:44:04Z</time>
      </trkpt>
      <trkpt lat="49.6834" lon="5.51367">
        <ele>335.8</ele>
        <time>2020-06-25T17:44:05Z</time>
      </trkpt>
      <trkpt lat="49.6834" lon="5.51368">
        <ele>335.8</ele>
        <time>2020-06-25T17:44:06Z</time>
      </trkpt>
      <trkpt lat="49.6834" lon="5.51368">
        <ele>335.8</ele>
        <time>2020-06-25T17:44:07Z</time>
      </trkpt>
      <trkpt lat="49.68341" lon="5.51367">
        <ele>335.8</ele>
        <time>2020-06-25T17:44:08Z</time>
      </trkpt>
      <trkpt lat="49.68341" lon="5.51366">
        <ele>335.8</ele>
        <time>2020-06-25T17:44:09Z</time>
      </trkpt>
      <trkpt lat="49.68342" lon="5.51365">
        <ele>335.8</ele>
        <time>2020-06-25T17:44:10Z</time>
      </trkpt>
      <trkpt lat="49.68343" lon="5.51364">
        <ele>335.8</ele>
        <time>2020-06-25T17:44:11Z</time>
      </trkpt>
      <trkpt lat="49.68343" lon="5.51364">
        <ele>335.8</ele>
        <time>2020-06-25T17:44:12Z</time>
      </trkpt>
      <trkpt lat="49.68343" lon="5.51363">
        <ele>335.8</ele>
        <time>2020-06-25T17:44:13Z</time>
      </trkpt>
      <trkpt lat="49.68342" lon="5.51364">
        <ele>335.8</ele>
        <time>2020-06-25T17:44:14Z</time>
      </trkpt>
      <trkpt lat="49.68341" lon="5.51364">
        <ele>335.8</ele>
        <time>2020-06-25T17:44:15Z</time>
      </trkpt>
      <trkpt lat="49.68341" lon="5.51364">
        <ele>335.8</ele>
        <time>2020-06-25T17:44:16Z</time>
      </trkpt>
      <trkpt lat="49.6834" lon="5.51365">
        <ele>335.8</ele>
        <time>2020-06-25T17:44:17Z</time>
      </trkpt>
      <trkpt lat="49.6834" lon="5.51365">
        <ele>335.8</ele>
        <time>2020-06-25T17:44:18Z</time>
      </trkpt>
      <trkpt lat="49.68339" lon="5.51365">
        <ele>335.8</ele>
        <time>2020-06-25T17:44:19Z</time>
      </trkpt>
      <trkpt lat="49.68352" lon="5.51368">
        <ele>335.8</ele>
        <time>2020-06-25T17:54:52Z</time>
      </trkpt>
      <trkpt lat="49.68352" lon="5.51368">
        <ele>335.8</ele>
        <time>2020-06-25T17:54:53Z</time>
      </trkpt>
      <trkpt lat="49.68352" lon="5.51368">
        <ele>335.8</ele>
        <time>2020-06-25T17:54:54Z</time>
      </trkpt>
      <trkpt lat="49.68352" lon="5.51368">
        <ele>335.8</ele>
        <time>2020-06-25T17:54:55Z</time>
      </trkpt>
      <trkpt lat="49.68352" lon="5.51368">
        <ele>335.8</ele>
        <time>2020-06-25T17:54:56Z</time>
      </trkpt>
      <trkpt lat="49.68351" lon="5.51369">
        <ele>335.8</ele>
        <time>2020-06-25T17:54:57Z</time>
      </trkpt>
      <trkpt lat="49.68352" lon="5.51368">
        <ele>335.8</ele>
        <time>2020-06-25T17:54:58Z</time>
      </trkpt>
      <trkpt lat="49.68352" lon="5.51368">
        <ele>335.8</ele>
        <time>2020-06-25T17:54:59Z</time>
      </trkpt>
      <trkpt lat="49.68352" lon="5.51368">
        <ele>335.8</ele>
        <time>2020-06-25T17:55:00Z</time>
      </trkpt>
      <trkpt lat="49.68352" lon="5.51368">
        <ele>335.8</ele>
        <time>2020-06-25T17:55:01Z</time>
      </trkpt>
      <trkpt lat="49.68352" lon="5.51368">
        <ele>335.8</ele>
        <time>2020-06-25T17:55:02Z</time>
      </trkpt>
      <trkpt lat="49.68352" lon="5.51368">
        <ele>335.8</ele>
        <time>2020-06-25T17:55:03Z</time>
      </trkpt>
      <trkpt lat="49.68352" lon="5.51368">
        <ele>335.8</ele>
        <time>2020-06-25T17:55:04Z</time>
      </trkpt>
      <trkpt lat="49.68352" lon="5.51368">
        <ele>335.8</ele>
        <time>2020-06-25T17:55:05Z</time>
      </trkpt>
      <trkpt lat="49.68341" lon="5.51364">
        <ele>335.8</ele>
        <time>2020-06-25T18:01:56Z</time>
      </trkpt>
      <trkpt lat="49.68341" lon="5.51364">
        <ele>335.8</ele>
        <time>2020-06-25T18:01:57Z</time>
      </trkpt>
      <trkpt lat="49.68341" lon="5.51364">
        <ele>335.8</ele>
        <time>2020-06-25T18:01:58Z</time>
      </trkpt>
      <trkpt lat="49.68342" lon="5.51364">
        <ele>335.8</ele>
        <time>2020-06-25T18:01:59Z</time>
      </trkpt>
      <trkpt lat="49.68342" lon="5.51364">
        <ele>335.8</ele>
        <time>2020-06-25T18:02:00Z</time>
      </trkpt>
      <trkpt lat="49.68343" lon="5.51365">
        <ele>335.8</ele>
        <time>2020-06-25T18:02:01Z</time>
      </trkpt>
      <trkpt lat="49.68343" lon="5.51366">
        <ele>335.8</ele>
        <time>2020-06-25T18:02:02Z</time>
      </trkpt>
      <trkpt lat="49.68343" lon="5.51365">
        <ele>335.8</ele>
        <time>2020-06-25T18:02:03Z</time>
      </trkpt>
      <trkpt lat="49.68343" lon="5.51365">
        <ele>335.8</ele>
        <time>2020-06-25T18:02:04Z</time>
      </trkpt>
      <trkpt lat="49.68343" lon="5.51364">
        <ele>335.8</ele>
        <time>2020-06-25T18:02:05Z</time>
      </trkpt>
      <trkpt lat="49.68343" lon="5.51364">
        <ele>335.8</ele>
        <time>2020-06-25T18:02:06Z</time>
      </trkpt>
      <trkpt lat="49.68343" lon="5.51364">
        <ele>335.8</ele>
        <time>2020-06-25T18:02:07Z</time>
      </trkpt>
      <trkpt lat="49.68344" lon="5.51364">
        <ele>335.8</ele>
        <time>2020-06-25T18:02:08Z</time>
      </trkpt>
      <trkpt lat="49.68344" lon="5.51364">
        <ele>335.8</ele>
        <time>2020-06-25T18:02:09Z</time>
      </trkpt>
      <trkpt lat="49.68344" lon="5.51364">
        <ele>335.8</ele>
        <time>2020-06-25T18:02:10Z</time>
      </trkpt>
      <trkpt lat="49.68343" lon="5.51363">
        <ele>335.8</ele>
        <time>2020-06-25T18:02:11Z</time>
      </trkpt>
      <trkpt lat="49.68344" lon="5.51363">
        <ele>335.8</ele>
        <time>2020-06-25T18:02:12Z</time>
      </trkpt>
      <trkpt lat="49.68343" lon="5.51363">
        <ele>335.8</ele>
        <time>2020-06-25T18:02:13Z</time>
      </trkpt>
      <trkpt lat="49.68344" lon="5.51363">
        <ele>335.8</ele>
        <time>2020-06-25T18:02:14Z</time>
      </trkpt>
      <trkpt lat="49.68343" lon="5.5136">
        <ele>335.8</ele>
        <time>2020-06-25T18:04:51Z</time>
      </trkpt>
      <trkpt lat="49.68343" lon="5.5136">
        <ele>335.8</ele>
        <time>2020-06-25T18:04:52Z</time>
      </trkpt>
      <trkpt lat="49.68342" lon="5.51359">
        <ele>335.8</ele>
        <time>2020-06-25T18:04:53Z</time>
      </trkpt>
      <trkpt lat="49.68343" lon="5.51359">
        <ele>335.8</ele>
        <time>2020-06-25T18:04:54Z</time>
      </trkpt>
      <trkpt lat="49.68343" lon="5.51359">
        <ele>335.8</ele>
        <time>2020-06-25T18:04:55Z</time>
      </trkpt>
      <trkpt lat="49.68343" lon="5.51359">
        <ele>335.8</ele>
        <time>2020-06-25T18:04:56Z</time>
      </trkpt>
      <trkpt lat="49.68343" lon="5.51359">
        <ele>335.8</ele>
        <time>2020-06-25T18:04:57Z</time>
      </trkpt>
      <trkpt lat="49.68342" lon="5.5136">
        <ele>335.8</ele>
        <time>2020-06-25T18:04:58Z</time>
      </trkpt>
      <trkpt lat="49.68342" lon="5.51361">
        <ele>335.8</ele>
        <time>2020-06-25T18:04:59Z</time>
      </trkpt>
      <trkpt lat="49.68343" lon="5.51362">
        <ele>335.8</ele>
        <time>2020-06-25T18:05:00Z</time>
      </trkpt>
      <trkpt lat="49.68344" lon="5.51362">
        <ele>335.8</ele>
        <time>2020-06-25T18:05:01Z</time>
      </trkpt>
      <trkpt lat="49.68344" lon="5.51362">
        <ele>335.8</ele>
        <time>2020-06-25T18:05:02Z</time>
      </trkpt>
      <trkpt lat="49.68344" lon="5.51362">
        <ele>335.8</ele>
        <time>2020-06-25T18:05:03Z</time>
      </trkpt>
      <trkpt lat="49.68344" lon="5.51362">
        <ele>335.8</ele>
        <time>2020-06-25T18:05:04Z</time>
      </trkpt>
      <trkpt lat="49.68344" lon="5.51362">
        <ele>335.8</ele>
        <time>2020-06-25T18:05:05Z</time>
      </trkpt>
      <trkpt lat="49.68343" lon="5.51362">
        <ele>335.8</ele>
        <time>2020-06-25T18:05:06Z</time>
      </trkpt>
      <trkpt lat="49.68343" lon="5.51362">
        <ele>335.8</ele>
        <time>2020-06-25T18:05:07Z</time>
      </trkpt>
      <trkpt lat="49.68343" lon="5.51361">
        <ele>335.8</ele>
        <time>2020-06-25T18:05:08Z</time>
      </trkpt>
      <trkpt lat="49.68342" lon="5.51362">
        <ele>335.8</ele>
        <time>2020-06-25T18:05:09Z</time>
      </trkpt>
      <trkpt lat="49.68342" lon="5.51361">
        <ele>335.7</ele>
        <time>2020-06-25T18:05:10Z</time>
      </trkpt>
      <trkpt lat="49.68342" lon="5.51361">
        <ele>335.7</ele>
        <time>2020-06-25T18:05:11Z</time>
      </trkpt>
      <trkpt lat="49.68342" lon="5.51361">
        <ele>335.7</ele>
        <time>2020-06-25T18:05:12Z</time>
      </trkpt>
      <trkpt lat="49.6834" lon="5.51357">
        <ele>335.7</ele>
        <time>2020-06-25T18:10:04Z</time>
      </trkpt>
      <trkpt lat="49.68339" lon="5.51355">
        <ele>335.7</ele>
        <time>2020-06-25T18:10:05Z</time>
      </trkpt>
      <trkpt lat="49.68339" lon="5.51354">
        <ele>335.7</ele>
        <time>2020-06-25T18:10:06Z</time>
      </trkpt>
      <trkpt lat="49.68338" lon="5.51354">
        <ele>335.7</ele>
        <time>2020-06-25T18:10:07Z</time>
      </trkpt>
      <trkpt lat="49.68338" lon="5.51353">
        <ele>335.7</ele>
        <time>2020-06-25T18:10:08Z</time>
      </trkpt>
      <trkpt lat="49.68338" lon="5.51353">
        <ele>335.7</ele>
        <time>2020-06-25T18:10:09Z</time>
      </trkpt>
      <trkpt lat="49.68337" lon="5.51352">
        <ele>335.7</ele>
        <time>2020-06-25T18:10:10Z</time>
      </trkpt>
      <trkpt lat="49.68337" lon="5.51351">
        <ele>335.7</ele>
        <time>2020-06-25T18:10:11Z</time>
      </trkpt>
      <trkpt lat="49.68337" lon="5.51352">
        <ele>335.7</ele>
        <time>2020-06-25T18:10:12Z</time>
      </trkpt>
      <trkpt lat="49.68338" lon="5.51351">
        <ele>335.7</ele>
        <time>2020-06-25T18:10:13Z</time>
      </trkpt>
      <trkpt lat="49.68338" lon="5.51351">
        <ele>335.7</ele>
        <time>2020-06-25T18:10:14Z</time>
      </trkpt>
      <trkpt lat="49.68338" lon="5.51351">
        <ele>335.7</ele>
        <time>2020-06-25T18:10:15Z</time>
      </trkpt>
      <trkpt lat="49.68337" lon="5.51351">
        <ele>335.7</ele>
        <time>2020-06-25T18:10:16Z</time>
      </trkpt>
      <trkpt lat="49.68337" lon="5.51351">
        <ele>335.7</ele>
        <time>2020-06-25T18:10:17Z</time>
      </trkpt>
      <trkpt lat="49.68338" lon="5.51352">
        <ele>335.7</ele>
        <time>2020-06-25T18:10:18Z</time>
      </trkpt>
      <trkpt lat="49.68337" lon="5.51352">
        <ele>335.7</ele>
        <time>2020-06-25T18:10:19Z</time>
      </trkpt>
      <trkpt lat="49.68336" lon="5.51352">
        <ele>335.7</ele>
        <time>2020-06-25T18:10:20Z</time>
      </trkpt>
      <trkpt lat="49.68336" lon="5.51352">
        <ele>335.7</ele>
        <time>2020-06-25T18:10:21Z</time>
      </trkpt>
      <trkpt lat="49.68337" lon="5.51353">
        <ele>335.7</ele>
        <time>2020-06-25T18:10:22Z</time>
      </trkpt>
      <trkpt lat="49.68337" lon="5.51353">
        <ele>335.7</ele>
        <time>2020-06-25T18:10:23Z</time>
      </trkpt>
      <trkpt lat="49.68346" lon="5.51348">
        <ele>335.7</ele>
        <time>2020-06-25T18:12:19Z</time>
      </trkpt>
      <trkpt lat="49.68346" lon="5.51347">
        <ele>335.7</ele>
        <time>2020-06-25T18:12:20Z</time>
      </trkpt>
      <trkpt lat="49.68347" lon="5.51348">
        <ele>335.7</ele>
        <time>2020-06-25T18:12:21Z</time>
      </trkpt>
      <trkpt lat="49.68346" lon="5.51348">
        <ele>335.7</ele>
        <time>2020-06-25T18:12:22Z</time>
      </trkpt>
      <trkpt lat="49.68346" lon="5.51347">
        <ele>335.7</ele>
        <time>2020-06-25T18:12:23Z</time>
      </trkpt>
      <trkpt lat="49.68347" lon="5.51346">
        <ele>335.7</ele>
        <time>2020-06-25T18:12:24Z</time>
      </trkpt>
      <trkpt lat="49.68346" lon="5.51345">
        <ele>335.7</ele>
        <time>2020-06-25T18:12:25Z</time>
      </trkpt>
      <trkpt lat="49.68346" lon="5.51345">
        <ele>335.7</ele>
        <time>2020-06-25T18:12:26Z</time>
      </trkpt>
      <trkpt lat="49.68345" lon="5.51345">
        <ele>335.7</ele>
        <time>2020-06-25T18:12:27Z</time>
      </trkpt>
      <trkpt lat="49.68345" lon="5.51345">
        <ele>335.7</ele>
        <time>2020-06-25T18:12:28Z</time>
      </trkpt>
      <trkpt lat="49.68344" lon="5.51344">
        <ele>335.7</ele>
        <time>2020-06-25T18:12:29Z</time>
      </trkpt>
      <trkpt lat="49.68344" lon="5.51344">
        <ele>335.7</ele>
        <time>2020-06-25T18:12:30Z</time>
      </trkpt>
      <trkpt lat="49.68344" lon="5.51344">
        <ele>335.7</ele>
        <time>2020-06-25T18:12:31Z</time>
      </trkpt>
      <trkpt lat="49.68344" lon="5.51345">
        <ele>335.7</ele>
        <time>2020-06-25T18:12:32Z</time>
      </trkpt>
      <trkpt lat="49.68344" lon="5.51345">
        <ele>335.7</ele>
        <time>2020-06-25T18:12:33Z</time>
      </trkpt>
      <trkpt lat="49.68344" lon="5.51345">
        <ele>335.7</ele>
        <time>2020-06-25T18:12:34Z</time>
      </trkpt>
      <trkpt lat="49.68344" lon="5.51345">
        <ele>335.7</ele>
        <time>2020-06-25T18:12:35Z</time>
      </trkpt>
      <trkpt lat="49.68343" lon="5.51346">
        <ele>335.7</ele>
        <time>2020-06-25T18:12:36Z</time>
      </trkpt>
      <trkpt lat="49.68344" lon="5.51345">
        <ele>335.7</ele>
        <time>2020-06-25T18:12:37Z</time>
      </trkpt>
      <trkpt lat="49.68344" lon="5.51343">
        <ele>335.7</ele>
        <time>2020-06-25T18:12:38Z</time>
      </trkpt>
      <trkpt lat="49.68344" lon="5.51343">
        <ele>335.7</ele>
        <time>2020-06-25T18:12:39Z</time>
      </trkpt>
      <trkpt lat="49.68343" lon="5.51342">
        <ele>335.7</ele>
        <time>2020-06-25T18:12:40Z</time>
      </trkpt>
      <trkpt lat="49.68343" lon="5.51343">
        <ele>335.7</ele>
        <time>2020-06-25T18:12:41Z</time>
      </trkpt>
      <trkpt lat="49.68343" lon="5.51342">
        <ele>335.7</ele>
        <time>2020-06-25T18:12:42Z</time>
      </trkpt>
      <trkpt lat="49.68342" lon="5.51343">
        <ele>335.7</ele>
        <time>2020-06-25T18:12:43Z</time>
      </trkpt>
      <trkpt lat="49.68342" lon="5.51343">
        <ele>335.7</ele>
        <time>2020-06-25T18:12:44Z</time>
      </trkpt>
      <trkpt lat="49.68341" lon="5.51343">
        <ele>335.7</ele>
        <time>2020-06-25T18:12:45Z</time>
      </trkpt>
      <trkpt lat="49.68341" lon="5.51343">
        <ele>335.7</ele>
        <time>2020-06-25T18:12:46Z</time>
      </trkpt>
      <trkpt lat="49.68341" lon="5.51344">
        <ele>335.7</ele>
        <time>2020-06-25T18:12:47Z</time>
      </trkpt>
      <trkpt lat="49.6834" lon="5.51344">
        <ele>335.7</ele>
        <time>2020-06-25T18:12:48Z</time>
      </trkpt>
      <trkpt lat="49.6834" lon="5.51345">
        <ele>335.7</ele>
        <time>2020-06-25T18:12:49Z</time>
      </trkpt>
      <trkpt lat="49.6834" lon="5.51345">
        <ele>335.7</ele>
        <time>2020-06-25T18:12:50Z</time>
      </trkpt>
      <trkpt lat="49.6834" lon="5.51345">
        <ele>335.7</ele>
        <time>2020-06-25T18:12:51Z</time>
      </trkpt>
      <trkpt lat="49.6834" lon="5.51345">
        <ele>335.7</ele>
        <time>2020-06-25T18:12:52Z</time>
      </trkpt>
      <trkpt lat="49.6834" lon="5.51345">
        <ele>335.7</ele>
        <time>2020-06-25T18:12:53Z</time>
      </trkpt>
      <trkpt lat="49.6834" lon="5.51345">
        <ele>335.7</ele>
        <time>2020-06-25T18:12:54Z</time>
      </trkpt>
      <trkpt lat="49.6834" lon="5.51346">
        <ele>335.7</ele>
        <time>2020-06-25T18:12:55Z</time>
      </trkpt>
      <trkpt lat="49.6834" lon="5.51346">
        <ele>335.7</ele>
        <time>2020-06-25T18:12:56Z</time>
      </trkpt>
      <trkpt lat="49.6834" lon="5.51345">
        <ele>335.7</ele>
        <time>2020-06-25T18:12:57Z</time>
      </trkpt>
      <trkpt lat="49.6834" lon="5.51345">
        <ele>335.7</ele>
        <time>2020-06-25T18:12:58Z</time>
      </trkpt>
      <trkpt lat="49.6834" lon="5.51345">
        <ele>335.7</ele>
        <time>2020-06-25T18:12:59Z</time>
      </trkpt>
      <trkpt lat="49.68339" lon="5.51345">
        <ele>335.7</ele>
        <time>2020-06-25T18:13:00Z</time>
      </trkpt>
      <trkpt lat="49.6834" lon="5.51345">
        <ele>335.7</ele>
        <time>2020-06-25T18:13:01Z</time>
      </trkpt>
      <trkpt lat="49.6834" lon="5.51345">
        <ele>335.7</ele>
        <time>2020-06-25T18:13:02Z</time>
      </trkpt>
      <trkpt lat="49.6834" lon="5.51345">
        <ele>335.7</ele>
        <time>2020-06-25T18:13:03Z</time>
      </trkpt>
      <trkpt lat="49.6834" lon="5.51345">
        <ele>335.7</ele>
        <time>2020-06-25T18:13:04Z</time>
      </trkpt>
      <trkpt lat="49.6834" lon="5.51346">
        <ele>335.7</ele>
        <time>2020-06-25T18:13:05Z</time>
      </trkpt>
      <trkpt lat="49.6834" lon="5.51346">
        <ele>335.7</ele>
        <time>2020-06-25T18:13:06Z</time>
      </trkpt>
      <trkpt lat="49.6834" lon="5.51346">
        <ele>335.7</ele>
        <time>2020-06-25T18:13:07Z</time>
      </trkpt>
      <trkpt lat="49.6834" lon="5.51346">
        <ele>335.7</ele>
        <time>2020-06-25T18:13:08Z</time>
      </trkpt>
      <trkpt lat="49.6834" lon="5.51346">
        <ele>335.7</ele>
        <time>2020-06-25T18:13:09Z</time>
      </trkpt>
      <trkpt lat="49.6834" lon="5.51346">
        <ele>335.7</ele>
        <time>2020-06-25T18:13:10Z</time>
      </trkpt>
      <trkpt lat="49.68341" lon="5.51345">
        <ele>335.7</ele>
        <time>2020-06-25T18:13:11Z</time>
      </trkpt>
      <trkpt lat="49.68341" lon="5.51345">
        <ele>335.7</ele>
        <time>2020-06-25T18:13:12Z</time>
      </trkpt>
      <trkpt lat="49.68341" lon="5.51345">
        <ele>335.7</ele>
        <time>2020-06-25T18:13:13Z</time>
      </trkpt>
      <trkpt lat="49.68341" lon="5.51344">
        <ele>335.7</ele>
        <time>2020-06-25T18:13:14Z</time>
      </trkpt>
      <trkpt lat="49.68341" lon="5.51344">
        <ele>335.7</ele>
        <time>2020-06-25T18:13:15Z</time>
      </trkpt>
      <trkpt lat="49.68341" lon="5.51343">
        <ele>335.7</ele>
        <time>2020-06-25T18:13:16Z</time>
      </trkpt>
      <trkpt lat="49.68341" lon="5.51343">
        <ele>335.7</ele>
        <time>2020-06-25T18:13:17Z</time>
      </trkpt>
      <trkpt lat="49.68341" lon="5.51343">
        <ele>335.7</ele>
        <time>2020-06-25T18:13:18Z</time>
      </trkpt>
      <trkpt lat="49.68342" lon="5.51342">
        <ele>335.7</ele>
        <time>2020-06-25T18:13:19Z</time>
      </trkpt>
      <trkpt lat="49.68342" lon="5.51342">
        <ele>335.7</ele>
        <time>2020-06-25T18:13:20Z</time>
      </trkpt>
      <trkpt lat="49.68342" lon="5.51343">
        <ele>335.7</ele>
        <time>2020-06-25T18:13:21Z</time>
      </trkpt>
      <trkpt lat="49.68342" lon="5.51343">
        <ele>335.7</ele>
        <time>2020-06-25T18:13:22Z</time>
      </trkpt>
      <trkpt lat="49.68342" lon="5.51343">
        <ele>335.7</ele>
        <time>2020-06-25T18:13:23Z</time>
      </trkpt>
      <trkpt lat="49.68342" lon="5.51343">
        <ele>335.7</ele>
        <time>2020-06-25T18:13:24Z</time>
      </trkpt>
      <trkpt lat="49.68342" lon="5.51342">
        <ele>335.7</ele>
        <time>2020-06-25T18:13:25Z</time>
      </trkpt>
      <trkpt lat="49.68342" lon="5.51342">
        <ele>335.7</ele>
        <time>2020-06-25T18:13:26Z</time>
      </trkpt>
      <trkpt lat="49.68342" lon="5.51343">
        <ele>335.7</ele>
        <time>2020-06-25T18:13:27Z</time>
      </trkpt>
      <trkpt lat="49.68342" lon="5.51344">
        <ele>335.7</ele>
        <time>2020-06-25T18:13:28Z</time>
      </trkpt>
      <trkpt lat="49.68342" lon="5.51344">
        <ele>335.7</ele>
        <time>2020-06-25T18:13:29Z</time>
      </trkpt>
      <trkpt lat="49.68342" lon="5.51344">
        <ele>335.7</ele>
        <time>2020-06-25T18:13:30Z</time>
      </trkpt>
      <trkpt lat="49.68343" lon="5.51344">
        <ele>335.7</ele>
        <time>2020-06-25T18:13:31Z</time>
      </trkpt>
      <trkpt lat="49.68343" lon="5.51344">
        <ele>335.7</ele>
        <time>2020-06-25T18:13:32Z</time>
      </trkpt>
      <trkpt lat="49.68343" lon="5.51344">
        <ele>335.7</ele>
        <time>2020-06-25T18:13:33Z</time>
      </trkpt>
      <trkpt lat="49.68343" lon="5.51344">
        <ele>335.7</ele>
        <time>2020-06-25T18:13:34Z</time>
      </trkpt>
      <trkpt lat="49.68343" lon="5.51344">
        <ele>335.7</ele>
        <time>2020-06-25T18:13:35Z</time>
      </trkpt>
      <trkpt lat="49.68343" lon="5.51343">
        <ele>335.7</ele>
        <time>2020-06-25T18:13:36Z</time>
      </trkpt>
      <trkpt lat="49.68344" lon="5.51343">
        <ele>335.7</ele>
        <time>2020-06-25T18:13:37Z</time>
      </trkpt>
      <trkpt lat="49.68344" lon="5.51342">
        <ele>335.7</ele>
        <time>2020-06-25T18:13:38Z</time>
      </trkpt>
      <trkpt lat="49.68343" lon="5.51342">
        <ele>335.7</ele>
        <time>2020-06-25T18:13:39Z</time>
      </trkpt>
      <trkpt lat="49.68343" lon="5.51343">
        <ele>335.7</ele>
        <time>2020-06-25T18:13:40Z</time>
      </trkpt>
      <trkpt lat="49.68343" lon="5.51343">
        <ele>335.7</ele>
        <time>2020-06-25T18:13:41Z</time>
      </trkpt>
      <trkpt lat="49.68342" lon="5.51345">
        <ele>335.7</ele>
        <time>2020-06-25T18:13:42Z</time>
      </trkpt>
      <trkpt lat="49.68342" lon="5.51345">
        <ele>335.7</ele>
        <time>2020-06-25T18:13:43Z</time>
      </trkpt>
      <trkpt lat="49.68341" lon="5.51346">
        <ele>335.7</ele>
        <time>2020-06-25T18:13:44Z</time>
      </trkpt>
      <trkpt lat="49.68341" lon="5.51346">
        <ele>335.7</ele>
        <time>2020-06-25T18:13:45Z</time>
      </trkpt>
      <trkpt lat="49.68341" lon="5.51346">
        <ele>335.7</ele>
        <time>2020-06-25T18:13:46Z</time>
      </trkpt>
      <trkpt lat="49.68341" lon="5.51346">
        <ele>335.7</ele>
        <time>2020-06-25T18:13:47Z</time>
      </trkpt>
      <trkpt lat="49.68341" lon="5.51346">
        <ele>335.7</ele>
        <time>2020-06-25T18:13:48Z</time>
      </trkpt>
      <trkpt lat="49.68341" lon="5.51346">
        <ele>335.7</ele>
        <time>2020-06-25T18:13:49Z</time>
      </trkpt>
      <trkpt lat="49.68341" lon="5.51346">
        <ele>335.7</ele>
        <time>2020-06-25T18:13:50Z</time>
      </trkpt>
      <trkpt lat="49.68352" lon="5.51349">
        <ele>335.7</ele>
        <time>2020-06-25T18:14:38Z</time>
      </trkpt>
      <trkpt lat="49.68353" lon="5.51351">
        <ele>335.7</ele>
        <time>2020-06-25T18:14:39Z</time>
      </trkpt>
      <trkpt lat="49.68354" lon="5.51352">
        <ele>335.6</ele>
        <time>2020-06-25T18:14:40Z</time>
      </trkpt>
      <trkpt lat="49.68355" lon="5.51353">
        <ele>335.6</ele>
        <time>2020-06-25T18:14:41Z</time>
      </trkpt>
      <trkpt lat="49.68356" lon="5.51355">
        <ele>335.6</ele>
        <time>2020-06-25T18:14:42Z</time>
      </trkpt>
      <trkpt lat="49.68357" lon="5.51358">
        <ele>335.6</ele>
        <time>2020-06-25T18:14:43Z</time>
      </trkpt>
      <trkpt lat="49.68359" lon="5.51362">
        <ele>335.6</ele>
        <time>2020-06-25T18:14:44Z</time>
      </trkpt>
      <trkpt lat="49.6836" lon="5.51363">
        <ele>335.6</ele>
        <time>2020-06-25T18:14:45Z</time>
      </trkpt>
      <trkpt lat="49.68361" lon="5.51367">
        <ele>335.6</ele>
        <time>2020-06-25T18:14:46Z</time>
      </trkpt>
      <trkpt lat="49.68362" lon="5.51368">
        <ele>335.6</ele>
        <time>2020-06-25T18:14:47Z</time>
      </trkpt>
      <trkpt lat="49.68363" lon="5.5137">
        <ele>335.6</ele>
        <time>2020-06-25T18:14:48Z</time>
      </trkpt>
      <trkpt lat="49.68363" lon="5.51372">
        <ele>335.6</ele>
        <time>2020-06-25T18:14:49Z</time>
      </trkpt>
      <trkpt lat="49.68364" lon="5.51373">
        <ele>335.6</ele>
        <time>2020-06-25T18:14:50Z</time>
      </trkpt>
      <trkpt lat="49.68364" lon="5.51372">
        <ele>335.6</ele>
        <time>2020-06-25T18:14:51Z</time>
      </trkpt>
      <trkpt lat="49.68364" lon="5.51372">
        <ele>335.6</ele>
        <time>2020-06-25T18:14:52Z</time>
      </trkpt>
      <trkpt lat="49.68363" lon="5.51371">
        <ele>335.6</ele>
        <time>2020-06-25T18:14:53Z</time>
      </trkpt>
      <trkpt lat="49.68363" lon="5.5137">
        <ele>335.6</ele>
        <time>2020-06-25T18:14:54Z</time>
      </trkpt>
      <trkpt lat="49.68363" lon="5.5137">
        <ele>335.6</ele>
        <time>2020-06-25T18:14:55Z</time>
      </trkpt>
      <trkpt lat="49.68363" lon="5.51369">
        <ele>335.6</ele>
        <time>2020-06-25T18:14:56Z</time>
      </trkpt>
      <trkpt lat="49.68362" lon="5.51368">
        <ele>335.6</ele>
        <time>2020-06-25T18:14:57Z</time>
      </trkpt>
      <trkpt lat="49.68362" lon="5.51368">
        <ele>335.6</ele>
        <time>2020-06-25T18:14:58Z</time>
      </trkpt>
      <trkpt lat="49.68362" lon="5.51367">
        <ele>335.6</ele>
        <time>2020-06-25T18:14:59Z</time>
      </trkpt>
      <trkpt lat="49.68361" lon="5.51365">
        <ele>335.6</ele>
        <time>2020-06-25T18:15:00Z</time>
      </trkpt>
      <trkpt lat="49.6836" lon="5.51364">
        <ele>335.6</ele>
        <time>2020-06-25T18:15:01Z</time>
      </trkpt>
      <trkpt lat="49.68359" lon="5.51363">
        <ele>335.6</ele>
        <time>2020-06-25T18:15:02Z</time>
      </trkpt>
      <trkpt lat="49.68359" lon="5.51362">
        <ele>335.6</ele>
        <time>2020-06-25T18:15:03Z</time>
      </trkpt>
      <trkpt lat="49.68358" lon="5.51361">
        <ele>335.6</ele>
        <time>2020-06-25T18:15:04Z</time>
      </trkpt>
      <trkpt lat="49.68357" lon="5.5136">
        <ele>335.6</ele>
        <time>2020-06-25T18:15:05Z</time>
      </trkpt>
      <trkpt lat="49.68357" lon="5.51357">
        <ele>335.6</ele>
        <time>2020-06-25T18:15:06Z</time>
      </trkpt>
      <trkpt lat="49.68356" lon="5.51356">
        <ele>335.6</ele>
        <time>2020-06-25T18:15:07Z</time>
      </trkpt>
      <trkpt lat="49.68356" lon="5.51355">
        <ele>335.6</ele>
        <time>2020-06-25T18:15:08Z</time>
      </trkpt>
      <trkpt lat="49.68356" lon="5.51355">
        <ele>335.6</ele>
        <time>2020-06-25T18:15:09Z</time>
      </trkpt>
      <trkpt lat="49.68355" lon="5.51355">
        <ele>335.6</ele>
        <time>2020-06-25T18:15:10Z</time>
      </trkpt>
      <trkpt lat="49.68355" lon="5.51354">
        <ele>335.6</ele>
        <time>2020-06-25T18:15:11Z</time>
      </trkpt>
      <trkpt lat="49.68354" lon="5.51353">
        <ele>335.6</ele>
        <time>2020-06-25T18:15:12Z</time>
      </trkpt>
      <trkpt lat="49.68354" lon="5.51352">
        <ele>335.6</ele>
        <time>2020-06-25T18:15:13Z</time>
      </trkpt>
      <trkpt lat="49.68353" lon="5.51351">
        <ele>335.6</ele>
        <time>2020-06-25T18:15:14Z</time>
      </trkpt>
      <trkpt lat="49.68353" lon="5.5135">
        <ele>335.6</ele>
        <time>2020-06-25T18:15:15Z</time>
      </trkpt>
      <trkpt lat="49.68353" lon="5.5135">
        <ele>335.6</ele>
        <time>2020-06-25T18:15:16Z</time>
      </trkpt>
      <trkpt lat="49.68353" lon="5.5135">
        <ele>335.6</ele>
        <time>2020-06-25T18:15:17Z</time>
      </trkpt>
      <trkpt lat="49.68353" lon="5.5135">
        <ele>335.6</ele>
        <time>2020-06-25T18:15:18Z</time>
      </trkpt>
      <trkpt lat="49.68353" lon="5.5135">
        <ele>335.6</ele>
        <time>2020-06-25T18:15:19Z</time>
      </trkpt>
      <trkpt lat="49.68352" lon="5.51352">
        <ele>335.6</ele>
        <time>2020-06-25T18:15:20Z</time>
      </trkpt>
      <trkpt lat="49.68352" lon="5.51353">
        <ele>335.6</ele>
        <time>2020-06-25T18:15:21Z</time>
      </trkpt>
      <trkpt lat="49.68352" lon="5.51354">
        <ele>335.6</ele>
        <time>2020-06-25T18:15:22Z</time>
      </trkpt>
      <trkpt lat="49.68352" lon="5.51354">
        <ele>335.6</ele>
        <time>2020-06-25T18:15:23Z</time>
      </trkpt>
      <trkpt lat="49.68352" lon="5.51356">
        <ele>335.6</ele>
        <time>2020-06-25T18:15:24Z</time>
      </trkpt>
      <trkpt lat="49.68352" lon="5.51357">
        <ele>335.6</ele>
        <time>2020-06-25T18:15:25Z</time>
      </trkpt>
      <trkpt lat="49.68346" lon="5.51354">
        <ele>335.6</ele>
        <time>2020-06-25T18:15:42Z</time>
      </trkpt>
      <trkpt lat="49.68345" lon="5.51354">
        <ele>335.6</ele>
        <time>2020-06-25T18:15:43Z</time>
      </trkpt>
      <trkpt lat="49.68345" lon="5.51352">
        <ele>335.6</ele>
        <time>2020-06-25T18:15:44Z</time>
      </trkpt>
      <trkpt lat="49.68344" lon="5.51352">
        <ele>335.6</ele>
        <time>2020-06-25T18:15:45Z</time>
      </trkpt>
      <trkpt lat="49.68344" lon="5.51351">
        <ele>335.6</ele>
        <time>2020-06-25T18:15:46Z</time>
      </trkpt>
      <trkpt lat="49.68344" lon="5.51349">
        <ele>335.6</ele>
        <time>2020-06-25T18:15:47Z</time>
      </trkpt>
      <trkpt lat="49.68344" lon="5.51348">
        <ele>335.6</ele>
        <time>2020-06-25T18:15:48Z</time>
      </trkpt>
      <trkpt lat="49.68344" lon="5.51347">
        <ele>335.6</ele>
        <time>2020-06-25T18:15:49Z</time>
      </trkpt>
      <trkpt lat="49.68344" lon="5.51347">
        <ele>335.6</ele>
        <time>2020-06-25T18:15:50Z</time>
      </trkpt>
      <trkpt lat="49.68344" lon="5.51346">
        <ele>335.6</ele>
        <time>2020-06-25T18:15:51Z</time>
      </trkpt>
      <trkpt lat="49.68344" lon="5.51346">
        <ele>335.6</ele>
        <time>2020-06-25T18:15:52Z</time>
      </trkpt>
      <trkpt lat="49.68344" lon="5.51347">
        <ele>335.6</ele>
        <time>2020-06-25T18:15:53Z</time>
      </trkpt>
      <trkpt lat="49.68344" lon="5.51347">
        <ele>335.6</ele>
        <time>2020-06-25T18:15:54Z</time>
      </trkpt>
      <trkpt lat="49.68344" lon="5.51347">
        <ele>335.6</ele>
        <time>2020-06-25T18:15:55Z</time>
      </trkpt>
      <trkpt lat="49.68344" lon="5.51347">
        <ele>335.6</ele>
        <time>2020-06-25T18:15:56Z</time>
      </trkpt>
      <trkpt lat="49.68343" lon="5.51348">
        <ele>335.6</ele>
        <time>2020-06-25T18:15:57Z</time>
      </trkpt>
      <trkpt lat="49.68342" lon="5.51349">
        <ele>335.6</ele>
        <time>2020-06-25T18:15:58Z</time>
      </trkpt>
      <trkpt lat="49.68342" lon="5.51349">
        <ele>335.6</ele>
        <time>2020-06-25T18:15:59Z</time>
      </trkpt>
      <trkpt lat="49.68341" lon="5.5135">
        <ele>335.6</ele>
        <time>2020-06-25T18:16:00Z</time>
      </trkpt>
      <trkpt lat="49.6834" lon="5.51351">
        <ele>335.6</ele>
        <time>2020-06-25T18:16:01Z</time>
      </trkpt>
      <trkpt lat="49.6834" lon="5.51352">
        <ele>335.6</ele>
        <time>2020-06-25T18:16:02Z</time>
      </trkpt>
      <trkpt lat="49.68339" lon="5.51352">
        <ele>335.6</ele>
        <time>2020-06-25T18:16:03Z</time>
      </trkpt>
      <trkpt lat="49.68339" lon="5.51352">
        <ele>335.6</ele>
        <time>2020-06-25T18:16:04Z</time>
      </trkpt>
      <trkpt lat="49.68338" lon="5.51352">
        <ele>335.6</ele>
        <time>2020-06-25T18:16:05Z</time>
      </trkpt>
      <trkpt lat="49.68338" lon="5.51352">
        <ele>335.6</ele>
        <time>2020-06-25T18:16:06Z</time>
      </trkpt>
      <trkpt lat="49.68338" lon="5.51351">
        <ele>335.6</ele>
        <time>2020-06-25T18:16:07Z</time>
      </trkpt>
      <trkpt lat="49.68337" lon="5.51351">
        <ele>335.5</ele>
        <time>2020-06-25T18:16:08Z</time>
      </trkpt>
      <trkpt lat="49.68336" lon="5.51351">
        <ele>335.5</ele>
        <time>2020-06-25T18:16:09Z</time>
      </trkpt>
      <trkpt lat="49.68336" lon="5.51351">
        <ele>335.5</ele>
        <time>2020-06-25T18:16:10Z</time>
      </trkpt>
      <trkpt lat="49.68336" lon="5.5135">
        <ele>335.5</ele>
        <time>2020-06-25T18:16:11Z</time>
      </trkpt>
      <trkpt lat="49.68336" lon="5.5135">
        <ele>335.5</ele>
        <time>2020-06-25T18:16:12Z</time>
      </trkpt>
      <trkpt lat="49.68336" lon="5.51349">
        <ele>335.5</ele>
        <time>2020-06-25T18:16:13Z</time>
      </trkpt>
      <trkpt lat="49.68336" lon="5.51348">
        <ele>335.5</ele>
        <time>2020-06-25T18:16:14Z</time>
      </trkpt>
      <trkpt lat="49.68336" lon="5.51348">
        <ele>335.5</ele>
        <time>2020-06-25T18:16:15Z</time>
      </trkpt>
      <trkpt lat="49.68336" lon="5.51347">
        <ele>335.5</ele>
        <time>2020-06-25T18:16:16Z</time>
      </trkpt>
      <trkpt lat="49.68336" lon="5.51347">
        <ele>335.5</ele>
        <time>2020-06-25T18:16:17Z</time>
      </trkpt>
      <trkpt lat="49.68336" lon="5.51346">
        <ele>335.5</ele>
        <time>2020-06-25T18:16:18Z</time>
      </trkpt>
      <trkpt lat="49.68336" lon="5.51346">
        <ele>335.5</ele>
        <time>2020-06-25T18:16:19Z</time>
      </trkpt>
      <trkpt lat="49.68336" lon="5.51347">
        <ele>335.5</ele>
        <time>2020-06-25T18:16:20Z</time>
      </trkpt>
      <trkpt lat="49.68337" lon="5.51347">
        <ele>335.5</ele>
        <time>2020-06-25T18:16:21Z</time>
      </trkpt>
      <trkpt lat="49.68337" lon="5.51346">
        <ele>335.5</ele>
        <time>2020-06-25T18:16:22Z</time>
      </trkpt>
      <trkpt lat="49.68337" lon="5.51345">
        <ele>335.3</ele>
        <time>2020-06-25T18:16:23Z</time>
      </trkpt>
      <trkpt lat="49.68337" lon="5.51345">
        <ele>335.2</ele>
        <time>2020-06-25T18:16:24Z</time>
      </trkpt>
      <trkpt lat="49.68337" lon="5.51345">
        <ele>335.2</ele>
        <time>2020-06-25T18:16:25Z</time>
      </trkpt>
      <trkpt lat="49.68337" lon="5.51345">
        <ele>335.2</ele>
        <time>2020-06-25T18:16:26Z</time>
      </trkpt>
      <trkpt lat="49.68337" lon="5.51344">
        <ele>335.2</ele>
        <time>2020-06-25T18:16:27Z</time>
      </trkpt>
      <trkpt lat="49.68337" lon="5.51344">
        <ele>335.2</ele>
        <time>2020-06-25T18:16:28Z</time>
      </trkpt>
      <trkpt lat="49.68337" lon="5.51344">
        <ele>335.2</ele>
        <time>2020-06-25T18:16:29Z</time>
      </trkpt>
      <trkpt lat="49.68337" lon="5.51344">
        <ele>335.2</ele>
        <time>2020-06-25T18:16:30Z</time>
      </trkpt>
      <trkpt lat="49.68337" lon="5.51345">
        <ele>335.2</ele>
        <time>2020-06-25T18:16:31Z</time>
      </trkpt>
      <trkpt lat="49.68338" lon="5.51344">
        <ele>335.2</ele>
        <time>2020-06-25T18:16:32Z</time>
      </trkpt>
      <trkpt lat="49.68338" lon="5.51344">
        <ele>335.2</ele>
        <time>2020-06-25T18:16:33Z</time>
      </trkpt>
      <trkpt lat="49.68343" lon="5.51341">
        <ele>335.1</ele>
        <time>2020-06-25T18:16:45Z</time>
      </trkpt>
      <trkpt lat="49.68343" lon="5.51341">
        <ele>335.1</ele>
        <time>2020-06-25T18:16:46Z</time>
      </trkpt>
      <trkpt lat="49.68344" lon="5.5134">
        <ele>335</ele>
        <time>2020-06-25T18:16:47Z</time>
      </trkpt>
      <trkpt lat="49.68345" lon="5.5134">
        <ele>335</ele>
        <time>2020-06-25T18:16:48Z</time>
      </trkpt>
      <trkpt lat="49.68345" lon="5.5134">
        <ele>335</ele>
        <time>2020-06-25T18:16:49Z</time>
      </trkpt>
      <trkpt lat="49.68345" lon="5.51341">
        <ele>335</ele>
        <time>2020-06-25T18:16:50Z</time>
      </trkpt>
      <trkpt lat="49.68346" lon="5.51341">
        <ele>335</ele>
        <time>2020-06-25T18:16:51Z</time>
      </trkpt>
      <trkpt lat="49.68346" lon="5.51342">
        <ele>335</ele>
        <time>2020-06-25T18:16:52Z</time>
      </trkpt>
      <trkpt lat="49.68347" lon="5.51342">
        <ele>335</ele>
        <time>2020-06-25T18:16:53Z</time>
      </trkpt>
      <trkpt lat="49.68348" lon="5.51342">
        <ele>335</ele>
        <time>2020-06-25T18:16:54Z</time>
      </trkpt>
      <trkpt lat="49.68348" lon="5.51343">
        <ele>334.9</ele>
        <time>2020-06-25T18:16:55Z</time>
      </trkpt>
      <trkpt lat="49.68348" lon="5.51343">
        <ele>334.9</ele>
        <time>2020-06-25T18:16:56Z</time>
      </trkpt>
      <trkpt lat="49.68349" lon="5.51343">
        <ele>334.9</ele>
        <time>2020-06-25T18:16:57Z</time>
      </trkpt>
      <trkpt lat="49.68349" lon="5.51342">
        <ele>334.9</ele>
        <time>2020-06-25T18:16:58Z</time>
      </trkpt>
      <trkpt lat="49.6835" lon="5.51342">
        <ele>334.9</ele>
        <time>2020-06-25T18:16:59Z</time>
      </trkpt>
      <trkpt lat="49.68351" lon="5.51342">
        <ele>334.9</ele>
        <time>2020-06-25T18:17:00Z</time>
      </trkpt>
      <trkpt lat="49.68351" lon="5.51341">
        <ele>334.9</ele>
        <time>2020-06-25T18:17:01Z</time>
      </trkpt>
      <trkpt lat="49.68352" lon="5.51341">
        <ele>334.8</ele>
        <time>2020-06-25T18:17:02Z</time>
      </trkpt>
      <trkpt lat="49.68352" lon="5.51341">
        <ele>334.8</ele>
        <time>2020-06-25T18:17:03Z</time>
      </trkpt>
      <trkpt lat="49.68353" lon="5.5134">
        <ele>334.8</ele>
        <time>2020-06-25T18:17:04Z</time>
      </trkpt>
      <trkpt lat="49.68353" lon="5.51339">
        <ele>334.8</ele>
        <time>2020-06-25T18:17:05Z</time>
      </trkpt>
      <trkpt lat="49.68354" lon="5.51339">
        <ele>334.8</ele>
        <time>2020-06-25T18:17:06Z</time>
      </trkpt>
      <trkpt lat="49.68354" lon="5.51339">
        <ele>334.8</ele>
        <time>2020-06-25T18:17:07Z</time>
      </trkpt>
      <trkpt lat="49.68353" lon="5.51339">
        <ele>334.8</ele>
        <time>2020-06-25T18:17:08Z</time>
      </trkpt>
      <trkpt lat="49.68352" lon="5.51339">
        <ele>334.8</ele>
        <time>2020-06-25T18:17:09Z</time>
      </trkpt>
      <trkpt lat="49.68352" lon="5.51339">
        <ele>334.8</ele>
        <time>2020-06-25T18:17:10Z</time>
      </trkpt>
      <trkpt lat="49.68352" lon="5.5134">
        <ele>334.8</ele>
        <time>2020-06-25T18:17:11Z</time>
      </trkpt>
      <trkpt lat="49.68352" lon="5.5134">
        <ele>334.8</ele>
        <time>2020-06-25T18:17:12Z</time>
      </trkpt>
      <trkpt lat="49.68352" lon="5.5134">
        <ele>334.8</ele>
        <time>2020-06-25T18:17:13Z</time>
      </trkpt>
      <trkpt lat="49.68352" lon="5.5134">
        <ele>334.8</ele>
        <time>2020-06-25T18:17:14Z</time>
      </trkpt>
      <trkpt lat="49.68352" lon="5.5134">
        <ele>334.8</ele>
        <time>2020-06-25T18:17:15Z</time>
      </trkpt>
      <trkpt lat="49.68352" lon="5.5134">
        <ele>334.8</ele>
        <time>2020-06-25T18:17:16Z</time>
      </trkpt>
      <trkpt lat="49.68353" lon="5.5134">
        <ele>334.8</ele>
        <time>2020-06-25T18:17:17Z</time>
      </trkpt>
      <trkpt lat="49.68354" lon="5.51339">
        <ele>334.8</ele>
        <time>2020-06-25T18:17:18Z</time>
      </trkpt>
      <trkpt lat="49.68354" lon="5.51338">
        <ele>334.8</ele>
        <time>2020-06-25T18:17:19Z</time>
      </trkpt>
      <trkpt lat="49.68354" lon="5.51337">
        <ele>334.8</ele>
        <time>2020-06-25T18:17:20Z</time>
      </trkpt>
      <trkpt lat="49.68355" lon="5.51336">
        <ele>334.8</ele>
        <time>2020-06-25T18:17:21Z</time>
      </trkpt>
      <trkpt lat="49.68355" lon="5.51336">
        <ele>334.8</ele>
        <time>2020-06-25T18:17:22Z</time>
      </trkpt>
      <trkpt lat="49.68355" lon="5.51335">
        <ele>334.8</ele>
        <time>2020-06-25T18:17:23Z</time>
      </trkpt>
      <trkpt lat="49.68355" lon="5.51335">
        <ele>334.8</ele>
        <time>2020-06-25T18:17:24Z</time>
      </trkpt>
      <trkpt lat="49.68355" lon="5.51334">
        <ele>334.8</ele>
        <time>2020-06-25T18:17:25Z</time>
      </trkpt>
      <trkpt lat="49.68355" lon="5.51334">
        <ele>334.8</ele>
        <time>2020-06-25T18:17:26Z</time>
      </trkpt>
      <trkpt lat="49.68355" lon="5.51333">
        <ele>334.8</ele>
        <time>2020-06-25T18:17:27Z</time>
      </trkpt>
      <trkpt lat="49.68355" lon="5.51333">
        <ele>334.8</ele>
        <time>2020-06-25T18:17:28Z</time>
      </trkpt>
      <trkpt lat="49.68355" lon="5.51332">
        <ele>334.8</ele>
        <time>2020-06-25T18:17:29Z</time>
      </trkpt>
      <trkpt lat="49.68356" lon="5.51332">
        <ele>334.8</ele>
        <time>2020-06-25T18:17:30Z</time>
      </trkpt>
      <trkpt lat="49.68356" lon="5.51332">
        <ele>334.8</ele>
        <time>2020-06-25T18:17:31Z</time>
      </trkpt>
      <trkpt lat="49.68356" lon="5.51331">
        <ele>334.8</ele>
        <time>2020-06-25T18:17:32Z</time>
      </trkpt>
      <trkpt lat="49.68356" lon="5.51331">
        <ele>334.8</ele>
        <time>2020-06-25T18:17:33Z</time>
      </trkpt>
      <trkpt lat="49.68356" lon="5.5133">
        <ele>334.8</ele>
        <time>2020-06-25T18:17:34Z</time>
      </trkpt>
      <trkpt lat="49.68356" lon="5.51329">
        <ele>334.8</ele>
        <time>2020-06-25T18:17:35Z</time>
      </trkpt>
      <trkpt lat="49.68356" lon="5.51329">
        <ele>334.8</ele>
        <time>2020-06-25T18:17:36Z</time>
      </trkpt>
      <trkpt lat="49.68356" lon="5.51329">
        <ele>334.8</ele>
        <time>2020-06-25T18:17:37Z</time>
      </trkpt>
      <trkpt lat="49.68357" lon="5.51329">
        <ele>334.8</ele>
        <time>2020-06-25T18:17:38Z</time>
      </trkpt>
      <trkpt lat="49.68357" lon="5.51329">
        <ele>334.8</ele>
        <time>2020-06-25T18:17:39Z</time>
      </trkpt>
      <trkpt lat="49.68357" lon="5.51329">
        <ele>334.8</ele>
        <time>2020-06-25T18:17:40Z</time>
      </trkpt>
      <trkpt lat="49.68358" lon="5.51328">
        <ele>334.8</ele>
        <time>2020-06-25T18:17:41Z</time>
      </trkpt>
      <trkpt lat="49.68357" lon="5.51328">
        <ele>334.8</ele>
        <time>2020-06-25T18:17:42Z</time>
      </trkpt>
      <trkpt lat="49.68357" lon="5.51328">
        <ele>334.8</ele>
        <time>2020-06-25T18:17:43Z</time>
      </trkpt>
      <trkpt lat="49.68358" lon="5.51328">
        <ele>334.8</ele>
        <time>2020-06-25T18:17:44Z</time>
      </trkpt>
      <trkpt lat="49.68357" lon="5.51329">
        <ele>334.8</ele>
        <time>2020-06-25T18:17:45Z</time>
      </trkpt>
      <trkpt lat="49.68356" lon="5.51332">
        <ele>334.8</ele>
        <time>2020-06-25T18:17:46Z</time>
      </trkpt>
      <trkpt lat="49.68355" lon="5.51335">
        <ele>334.8</ele>
        <time>2020-06-25T18:17:47Z</time>
      </trkpt>
      <trkpt lat="49.68353" lon="5.51339">
        <ele>334.8</ele>
        <time>2020-06-25T18:17:48Z</time>
      </trkpt>
      <trkpt lat="49.6835" lon="5.51344">
        <ele>335.5</ele>
        <time>2020-06-25T18:17:49Z</time>
      </trkpt>
      <trkpt lat="49.6835" lon="5.51344">
        <ele>335.5</ele>
        <time>2020-06-25T18:17:50Z</time>
      </trkpt>
      <trkpt lat="49.6835" lon="5.51345">
        <ele>335.5</ele>
        <time>2020-06-25T18:17:51Z</time>
      </trkpt>
      <trkpt lat="49.6835" lon="5.51345">
        <ele>335.5</ele>
        <time>2020-06-25T18:17:52Z</time>
      </trkpt>
      <trkpt lat="49.6835" lon="5.51346">
        <ele>335.5</ele>
        <time>2020-06-25T18:17:53Z</time>
      </trkpt>
      <trkpt lat="49.6835" lon="5.51346">
        <ele>335.5</ele>
        <time>2020-06-25T18:17:54Z</time>
      </trkpt>
      <trkpt lat="49.68351" lon="5.51342">
        <ele>335.5</ele>
        <time>2020-06-25T18:17:55Z</time>
      </trkpt>
      <trkpt lat="49.6835" lon="5.51342">
        <ele>335.5</ele>
        <time>2020-06-25T18:17:56Z</time>
      </trkpt>
      <trkpt lat="49.6835" lon="5.51343">
        <ele>335.6</ele>
        <time>2020-06-25T18:17:57Z</time>
      </trkpt>
      <trkpt lat="49.6835" lon="5.51343">
        <ele>335.6</ele>
        <time>2020-06-25T18:17:58Z</time>
      </trkpt>
      <trkpt lat="49.68349" lon="5.51343">
        <ele>335.6</ele>
        <time>2020-06-25T18:17:59Z</time>
      </trkpt>
      <trkpt lat="49.68349" lon="5.51343">
        <ele>335.6</ele>
        <time>2020-06-25T18:18:00Z</time>
      </trkpt>
      <trkpt lat="49.68349" lon="5.51343">
        <ele>335.6</ele>
        <time>2020-06-25T18:18:01Z</time>
      </trkpt>
      <trkpt lat="49.68349" lon="5.51344">
        <ele>335.6</ele>
        <time>2020-06-25T18:18:02Z</time>
      </trkpt>
      <trkpt lat="49.68349" lon="5.51344">
        <ele>335.6</ele>
        <time>2020-06-25T18:18:03Z</time>
      </trkpt>
      <trkpt lat="49.68349" lon="5.51344">
        <ele>335.6</ele>
        <time>2020-06-25T18:18:04Z</time>
      </trkpt>
      <trkpt lat="49.68349" lon="5.51344">
        <ele>335.6</ele>
        <time>2020-06-25T18:18:05Z</time>
      </trkpt>
      <trkpt lat="49.68348" lon="5.51345">
        <ele>335.6</ele>
        <time>2020-06-25T18:18:06Z</time>
      </trkpt>
      <trkpt lat="49.68347" lon="5.51362">
        <ele>335.6</ele>
        <time>2020-06-25T18:19:22Z</time>
      </trkpt>
      <trkpt lat="49.68347" lon="5.51363">
        <ele>335.6</ele>
        <time>2020-06-25T18:19:23Z</time>
      </trkpt>
      <trkpt lat="49.68346" lon="5.51363">
        <ele>335.6</ele>
        <time>2020-06-25T18:19:24Z</time>
      </trkpt>
      <trkpt lat="49.68346" lon="5.51364">
        <ele>335.6</ele>
        <time>2020-06-25T18:19:25Z</time>
      </trkpt>
      <trkpt lat="49.68346" lon="5.51364">
        <ele>335.6</ele>
        <time>2020-06-25T18:19:26Z</time>
      </trkpt>
      <trkpt lat="49.68346" lon="5.51362">
        <ele>335.6</ele>
        <time>2020-06-25T18:19:27Z</time>
      </trkpt>
      <trkpt lat="49.68346" lon="5.51362">
        <ele>335.6</ele>
        <time>2020-06-25T18:19:28Z</time>
      </trkpt>
      <trkpt lat="49.68346" lon="5.51362">
        <ele>335.6</ele>
        <time>2020-06-25T18:19:29Z</time>
      </trkpt>
      <trkpt lat="49.68346" lon="5.51361">
        <ele>335.6</ele>
        <time>2020-06-25T18:19:30Z</time>
      </trkpt>
      <trkpt lat="49.68346" lon="5.51361">
        <ele>335.7</ele>
        <time>2020-06-25T18:19:31Z</time>
      </trkpt>
      <trkpt lat="49.68346" lon="5.5136">
        <ele>335.7</ele>
        <time>2020-06-25T18:19:32Z</time>
      </trkpt>
      <trkpt lat="49.68346" lon="5.51359">
        <ele>335.7</ele>
        <time>2020-06-25T18:19:33Z</time>
      </trkpt>
      <trkpt lat="49.68345" lon="5.51359">
        <ele>335.7</ele>
        <time>2020-06-25T18:19:34Z</time>
      </trkpt>
      <trkpt lat="49.68345" lon="5.51359">
        <ele>335.7</ele>
        <time>2020-06-25T18:19:35Z</time>
      </trkpt>
      <trkpt lat="49.68345" lon="5.51359">
        <ele>335.7</ele>
        <time>2020-06-25T18:19:36Z</time>
      </trkpt>
      <trkpt lat="49.68345" lon="5.51359">
        <ele>335.7</ele>
        <time>2020-06-25T18:19:37Z</time>
      </trkpt>
      <trkpt lat="49.68345" lon="5.51359">
        <ele>335.7</ele>
        <time>2020-06-25T18:19:38Z</time>
      </trkpt>
      <trkpt lat="49.68344" lon="5.51348">
        <ele>335.7</ele>
        <time>2020-06-25T18:21:40Z</time>
      </trkpt>
      <trkpt lat="49.68345" lon="5.51347">
        <ele>335.7</ele>
        <time>2020-06-25T18:21:41Z</time>
      </trkpt>
      <trkpt lat="49.68345" lon="5.51347">
        <ele>335.7</ele>
        <time>2020-06-25T18:21:42Z</time>
      </trkpt>
      <trkpt lat="49.68345" lon="5.51347">
        <ele>335.7</ele>
        <time>2020-06-25T18:21:43Z</time>
      </trkpt>
      <trkpt lat="49.68344" lon="5.51347">
        <ele>335.7</ele>
        <time>2020-06-25T18:21:44Z</time>
      </trkpt>
      <trkpt lat="49.68344" lon="5.51347">
        <ele>335.7</ele>
        <time>2020-06-25T18:21:45Z</time>
      </trkpt>
      <trkpt lat="49.68344" lon="5.51347">
        <ele>335.7</ele>
        <time>2020-06-25T18:21:46Z</time>
      </trkpt>
      <trkpt lat="49.68344" lon="5.51348">
        <ele>335.7</ele>
        <time>2020-06-25T18:21:47Z</time>
      </trkpt>
      <trkpt lat="49.68343" lon="5.51348">
        <ele>335.7</ele>
        <time>2020-06-25T18:21:48Z</time>
      </trkpt>
      <trkpt lat="49.68344" lon="5.51349">
        <ele>335.7</ele>
        <time>2020-06-25T18:21:49Z</time>
      </trkpt>
      <trkpt lat="49.68344" lon="5.51349">
        <ele>335.7</ele>
        <time>2020-06-25T18:21:50Z</time>
      </trkpt>
      <trkpt lat="49.68344" lon="5.51349">
        <ele>335.7</ele>
        <time>2020-06-25T18:21:51Z</time>
      </trkpt>
      <trkpt lat="49.68344" lon="5.51349">
        <ele>335.7</ele>
        <time>2020-06-25T18:21:52Z</time>
      </trkpt>
      <trkpt lat="49.68345" lon="5.51353">
        <ele>335.7</ele>
        <time>2020-06-25T18:22:00Z</time>
      </trkpt>
      <trkpt lat="49.68345" lon="5.51354">
        <ele>335.8</ele>
        <time>2020-06-25T18:22:01Z</time>
      </trkpt>
      <trkpt lat="49.68345" lon="5.51354">
        <ele>335.8</ele>
        <time>2020-06-25T18:22:02Z</time>
      </trkpt>
      <trkpt lat="49.68345" lon="5.51355">
        <ele>335.8</ele>
        <time>2020-06-25T18:22:03Z</time>
      </trkpt>
      <trkpt lat="49.68344" lon="5.51354">
        <ele>335.8</ele>
        <time>2020-06-25T18:22:04Z</time>
      </trkpt>
      <trkpt lat="49.68343" lon="5.51354">
        <ele>335.8</ele>
        <time>2020-06-25T18:22:05Z</time>
      </trkpt>
      <trkpt lat="49.68342" lon="5.51354">
        <ele>335.8</ele>
        <time>2020-06-25T18:22:06Z</time>
      </trkpt>
      <trkpt lat="49.68342" lon="5.51354">
        <ele>335.8</ele>
        <time>2020-06-25T18:22:07Z</time>
      </trkpt>
      <trkpt lat="49.68342" lon="5.51354">
        <ele>335.8</ele>
        <time>2020-06-25T18:22:08Z</time>
      </trkpt>
      <trkpt lat="49.68342" lon="5.51354">
        <ele>335.8</ele>
        <time>2020-06-25T18:22:09Z</time>
      </trkpt>
      <trkpt lat="49.68342" lon="5.51354">
        <ele>335.8</ele>
        <time>2020-06-25T18:22:10Z</time>
      </trkpt>
      <trkpt lat="49.6834" lon="5.51356">
        <ele>335.8</ele>
        <time>2020-06-25T18:24:27Z</time>
      </trkpt>
      <trkpt lat="49.68339" lon="5.51357">
        <ele>335.8</ele>
        <time>2020-06-25T18:24:28Z</time>
      </trkpt>
      <trkpt lat="49.68338" lon="5.51358">
        <ele>335.8</ele>
        <time>2020-06-25T18:24:29Z</time>
      </trkpt>
      <trkpt lat="49.68337" lon="5.51359">
        <ele>335.8</ele>
        <time>2020-06-25T18:24:30Z</time>
      </trkpt>
      <trkpt lat="49.68337" lon="5.5136">
        <ele>335.8</ele>
        <time>2020-06-25T18:24:31Z</time>
      </trkpt>
      <trkpt lat="49.68337" lon="5.5136">
        <ele>335.8</ele>
        <time>2020-06-25T18:24:32Z</time>
      </trkpt>
      <trkpt lat="49.68337" lon="5.51361">
        <ele>335.8</ele>
        <time>2020-06-25T18:24:33Z</time>
      </trkpt>
      <trkpt lat="49.68337" lon="5.51362">
        <ele>335.8</ele>
        <time>2020-06-25T18:24:34Z</time>
      </trkpt>
      <trkpt lat="49.68337" lon="5.51361">
        <ele>335.8</ele>
        <time>2020-06-25T18:24:35Z</time>
      </trkpt>
      <trkpt lat="49.68337" lon="5.5136">
        <ele>335.8</ele>
        <time>2020-06-25T18:24:36Z</time>
      </trkpt>
      <trkpt lat="49.68337" lon="5.51359">
        <ele>335.8</ele>
        <time>2020-06-25T18:24:37Z</time>
      </trkpt>
      <trkpt lat="49.68337" lon="5.51359">
        <ele>335.8</ele>
        <time>2020-06-25T18:24:38Z</time>
      </trkpt>
      <trkpt lat="49.68337" lon="5.51358">
        <ele>335.8</ele>
        <time>2020-06-25T18:24:39Z</time>
      </trkpt>
      <trkpt lat="49.68337" lon="5.51358">
        <ele>335.8</ele>
        <time>2020-06-25T18:24:40Z</time>
      </trkpt>
      <trkpt lat="49.68338" lon="5.51358">
        <ele>335.8</ele>
        <time>2020-06-25T18:24:41Z</time>
      </trkpt>
      <trkpt lat="49.68339" lon="5.51357">
        <ele>335.8</ele>
        <time>2020-06-25T18:24:42Z</time>
      </trkpt>
      <trkpt lat="49.68339" lon="5.51355">
        <ele>335.9</ele>
        <time>2020-06-25T18:24:43Z</time>
      </trkpt>
      <trkpt lat="49.6834" lon="5.51353">
        <ele>335.9</ele>
        <time>2020-06-25T18:24:44Z</time>
      </trkpt>
      <trkpt lat="49.6834" lon="5.51352">
        <ele>335.9</ele>
        <time>2020-06-25T18:24:45Z</time>
      </trkpt>
      <trkpt lat="49.68341" lon="5.51351">
        <ele>335.9</ele>
        <time>2020-06-25T18:24:46Z</time>
      </trkpt>
      <trkpt lat="49.68341" lon="5.51351">
        <ele>335.9</ele>
        <time>2020-06-25T18:24:47Z</time>
      </trkpt>
      <trkpt lat="49.68341" lon="5.51351">
        <ele>335.9</ele>
        <time>2020-06-25T18:24:48Z</time>
      </trkpt>
      <trkpt lat="49.68341" lon="5.51351">
        <ele>335.9</ele>
        <time>2020-06-25T18:24:49Z</time>
      </trkpt>
      <trkpt lat="49.68341" lon="5.51351">
        <ele>335.9</ele>
        <time>2020-06-25T18:24:50Z</time>
      </trkpt>
      <trkpt lat="49.68341" lon="5.51351">
        <ele>335.9</ele>
        <time>2020-06-25T18:24:51Z</time>
      </trkpt>
      <trkpt lat="49.68341" lon="5.51351">
        <ele>335.9</ele>
        <time>2020-06-25T18:24:52Z</time>
      </trkpt>
      <trkpt lat="49.68341" lon="5.51352">
        <ele>335.9</ele>
        <time>2020-06-25T18:24:53Z</time>
      </trkpt>
      <trkpt lat="49.68341" lon="5.51352">
        <ele>335.9</ele>
        <time>2020-06-25T18:24:54Z</time>
      </trkpt>
      <trkpt lat="49.68341" lon="5.51352">
        <ele>335.9</ele>
        <time>2020-06-25T18:24:55Z</time>
      </trkpt>
      <trkpt lat="49.68341" lon="5.51351">
        <ele>335.9</ele>
        <time>2020-06-25T18:24:56Z</time>
      </trkpt>
      <trkpt lat="49.68341" lon="5.51351">
        <ele>335.9</ele>
        <time>2020-06-25T18:24:57Z</time>
      </trkpt>
      <trkpt lat="49.68341" lon="5.5135">
        <ele>335.9</ele>
        <time>2020-06-25T18:24:58Z</time>
      </trkpt>
      <trkpt lat="49.68341" lon="5.5135">
        <ele>335.9</ele>
        <time>2020-06-25T18:24:59Z</time>
      </trkpt>
      <trkpt lat="49.68341" lon="5.5135">
        <ele>335.9</ele>
        <time>2020-06-25T18:25:00Z</time>
      </trkpt>
      <trkpt lat="49.68341" lon="5.5135">
        <ele>335.9</ele>
        <time>2020-06-25T18:25:01Z</time>
      </trkpt>
      <trkpt lat="49.68342" lon="5.5135">
        <ele>335.9</ele>
        <time>2020-06-25T18:25:02Z</time>
      </trkpt>
      <trkpt lat="49.68342" lon="5.5135">
        <ele>335.9</ele>
        <time>2020-06-25T18:25:03Z</time>
      </trkpt>
      <trkpt lat="49.68342" lon="5.51349">
        <ele>335.9</ele>
        <time>2020-06-25T18:25:04Z</time>
      </trkpt>
      <trkpt lat="49.68344" lon="5.51357">
        <ele>335.9</ele>
        <time>2020-06-25T18:25:15Z</time>
      </trkpt>
      <trkpt lat="49.68344" lon="5.51359">
        <ele>336</ele>
        <time>2020-06-25T18:25:16Z</time>
      </trkpt>
      <trkpt lat="49.68344" lon="5.51359">
        <ele>336</ele>
        <time>2020-06-25T18:25:17Z</time>
      </trkpt>
      <trkpt lat="49.68344" lon="5.51359">
        <ele>336</ele>
        <time>2020-06-25T18:25:18Z</time>
      </trkpt>
      <trkpt lat="49.68344" lon="5.51359">
        <ele>336</ele>
        <time>2020-06-25T18:25:19Z</time>
      </trkpt>
      <trkpt lat="49.68344" lon="5.5136">
        <ele>336</ele>
        <time>2020-06-25T18:25:20Z</time>
      </trkpt>
      <trkpt lat="49.68344" lon="5.51361">
        <ele>336</ele>
        <time>2020-06-25T18:25:21Z</time>
      </trkpt>
      <trkpt lat="49.68345" lon="5.5136">
        <ele>336</ele>
        <time>2020-06-25T18:25:22Z</time>
      </trkpt>
      <trkpt lat="49.68345" lon="5.5136">
        <ele>336</ele>
        <time>2020-06-25T18:25:23Z</time>
      </trkpt>
      <trkpt lat="49.68345" lon="5.5136">
        <ele>336</ele>
        <time>2020-06-25T18:25:24Z</time>
      </trkpt>
      <trkpt lat="49.68345" lon="5.5136">
        <ele>336</ele>
        <time>2020-06-25T18:25:25Z</time>
      </trkpt>
      <trkpt lat="49.68345" lon="5.5136">
        <ele>336</ele>
        <time>2020-06-25T18:25:26Z</time>
      </trkpt>
      <trkpt lat="49.68346" lon="5.5136">
        <ele>336</ele>
        <time>2020-06-25T18:25:27Z</time>
      </trkpt>
      <trkpt lat="49.68346" lon="5.5136">
        <ele>336</ele>
        <time>2020-06-25T18:25:28Z</time>
      </trkpt>
      <trkpt lat="49.68346" lon="5.5136">
        <ele>336</ele>
        <time>2020-06-25T18:25:29Z</time>
      </trkpt>
      <trkpt lat="49.68346" lon="5.5136">
        <ele>336</ele>
        <time>2020-06-25T18:25:30Z</time>
      </trkpt>
      <trkpt lat="49.68346" lon="5.5136">
        <ele>336</ele>
        <time>2020-06-25T18:25:31Z</time>
      </trkpt>
      <trkpt lat="49.68346" lon="5.5136">
        <ele>336</ele>
        <time>2020-06-25T18:25:32Z</time>
      </trkpt>
      <trkpt lat="49.68346" lon="5.5136">
        <ele>336</ele>
        <time>2020-06-25T18:25:33Z</time>
      </trkpt>
      <trkpt lat="49.68342" lon="5.51374">
        <ele>336.1</ele>
        <time>2020-06-25T18:26:05Z</time>
      </trkpt>
      <trkpt lat="49.68342" lon="5.51374">
        <ele>336.1</ele>
        <time>2020-06-25T18:26:06Z</time>
      </trkpt>
      <trkpt lat="49.68341" lon="5.51375">
        <ele>336.1</ele>
        <time>2020-06-25T18:26:07Z</time>
      </trkpt>
      <trkpt lat="49.68341" lon="5.51376">
        <ele>336.1</ele>
        <time>2020-06-25T18:26:08Z</time>
      </trkpt>
      <trkpt lat="49.68341" lon="5.51376">
        <ele>336.1</ele>
        <time>2020-06-25T18:26:09Z</time>
      </trkpt>
      <trkpt lat="49.68341" lon="5.51377">
        <ele>336.1</ele>
        <time>2020-06-25T18:26:10Z</time>
      </trkpt>
      <trkpt lat="49.6834" lon="5.51378">
        <ele>336.1</ele>
        <time>2020-06-25T18:26:11Z</time>
      </trkpt>
      <trkpt lat="49.6834" lon="5.51378">
        <ele>336.1</ele>
        <time>2020-06-25T18:26:12Z</time>
      </trkpt>
      <trkpt lat="49.6834" lon="5.51379">
        <ele>336.1</ele>
        <time>2020-06-25T18:26:13Z</time>
      </trkpt>
      <trkpt lat="49.6834" lon="5.51379">
        <ele>336.1</ele>
        <time>2020-06-25T18:26:14Z</time>
      </trkpt>
      <trkpt lat="49.6834" lon="5.51379">
        <ele>336.1</ele>
        <time>2020-06-25T18:26:15Z</time>
      </trkpt>
      <trkpt lat="49.6834" lon="5.51379">
        <ele>336.1</ele>
        <time>2020-06-25T18:26:16Z</time>
      </trkpt>
      <trkpt lat="49.6834" lon="5.51378">
        <ele>336.1</ele>
        <time>2020-06-25T18:26:17Z</time>
      </trkpt>
      <trkpt lat="49.6834" lon="5.51378">
        <ele>336.1</ele>
        <time>2020-06-25T18:26:18Z</time>
      </trkpt>
      <trkpt lat="49.6834" lon="5.51378">
        <ele>336.1</ele>
        <time>2020-06-25T18:26:19Z</time>
      </trkpt>
      <trkpt lat="49.68339" lon="5.51379">
        <ele>336.1</ele>
        <time>2020-06-25T18:26:20Z</time>
      </trkpt>
      <trkpt lat="49.68338" lon="5.51381">
        <ele>336.1</ele>
        <time>2020-06-25T18:26:21Z</time>
      </trkpt>
      <trkpt lat="49.68337" lon="5.51382">
        <ele>336.1</ele>
        <time>2020-06-25T18:26:22Z</time>
      </trkpt>
      <trkpt lat="49.68337" lon="5.51384">
        <ele>336.1</ele>
        <time>2020-06-25T18:26:23Z</time>
      </trkpt>
      <trkpt lat="49.68336" lon="5.51387">
        <ele>336.1</ele>
        <time>2020-06-25T18:26:24Z</time>
      </trkpt>
      <trkpt lat="49.68336" lon="5.51388">
        <ele>336.1</ele>
        <time>2020-06-25T18:26:25Z</time>
      </trkpt>
      <trkpt lat="49.68335" lon="5.5139">
        <ele>336.2</ele>
        <time>2020-06-25T18:26:26Z</time>
      </trkpt>
      <trkpt lat="49.68334" lon="5.51394">
        <ele>336.2</ele>
        <time>2020-06-25T18:26:27Z</time>
      </trkpt>
      <trkpt lat="49.68334" lon="5.51395">
        <ele>336.2</ele>
        <time>2020-06-25T18:26:28Z</time>
      </trkpt>
      <trkpt lat="49.68333" lon="5.51396">
        <ele>336.2</ele>
        <time>2020-06-25T18:26:29Z</time>
      </trkpt>
      <trkpt lat="49.68333" lon="5.51395">
        <ele>336.2</ele>
        <time>2020-06-25T18:26:30Z</time>
      </trkpt>
      <trkpt lat="49.68334" lon="5.51394">
        <ele>336.2</ele>
        <time>2020-06-25T18:26:31Z</time>
      </trkpt>
      <trkpt lat="49.68334" lon="5.51394">
        <ele>336.2</ele>
        <time>2020-06-25T18:26:32Z</time>
      </trkpt>
      <trkpt lat="49.68334" lon="5.51393">
        <ele>336.2</ele>
        <time>2020-06-25T18:26:33Z</time>
      </trkpt>
      <trkpt lat="49.68335" lon="5.51392">
        <ele>336.2</ele>
        <time>2020-06-25T18:26:34Z</time>
      </trkpt>
      <trkpt lat="49.68335" lon="5.51392">
        <ele>336.2</ele>
        <time>2020-06-25T18:26:35Z</time>
      </trkpt>
      <trkpt lat="49.68335" lon="5.51391">
        <ele>336.2</ele>
        <time>2020-06-25T18:26:36Z</time>
      </trkpt>
      <trkpt lat="49.68335" lon="5.5139">
        <ele>336.2</ele>
        <time>2020-06-25T18:26:37Z</time>
      </trkpt>
      <trkpt lat="49.68336" lon="5.5139">
        <ele>336.2</ele>
        <time>2020-06-25T18:26:38Z</time>
      </trkpt>
      <trkpt lat="49.68337" lon="5.51387">
        <ele>336.2</ele>
        <time>2020-06-25T18:26:39Z</time>
      </trkpt>
      <trkpt lat="49.68337" lon="5.51387">
        <ele>336.2</ele>
        <time>2020-06-25T18:26:40Z</time>
      </trkpt>
      <trkpt lat="49.68337" lon="5.51387">
        <ele>336.2</ele>
        <time>2020-06-25T18:26:41Z</time>
      </trkpt>
      <trkpt lat="49.68337" lon="5.51387">
        <ele>336.2</ele>
        <time>2020-06-25T18:26:42Z</time>
      </trkpt>
      <trkpt lat="49.68337" lon="5.51387">
        <ele>336.2</ele>
        <time>2020-06-25T18:26:43Z</time>
      </trkpt>
      <trkpt lat="49.68337" lon="5.51387">
        <ele>336.2</ele>
        <time>2020-06-25T18:26:44Z</time>
      </trkpt>
      <trkpt lat="49.68338" lon="5.51386">
        <ele>336.2</ele>
        <time>2020-06-25T18:26:45Z</time>
      </trkpt>
      <trkpt lat="49.68338" lon="5.51385">
        <ele>336.2</ele>
        <time>2020-06-25T18:26:46Z</time>
      </trkpt>
      <trkpt lat="49.68339" lon="5.51384">
        <ele>336.2</ele>
        <time>2020-06-25T18:26:47Z</time>
      </trkpt>
      <trkpt lat="49.68339" lon="5.51384">
        <ele>336.3</ele>
        <time>2020-06-25T18:26:48Z</time>
      </trkpt>
      <trkpt lat="49.6834" lon="5.51383">
        <ele>336.3</ele>
        <time>2020-06-25T18:26:49Z</time>
      </trkpt>
      <trkpt lat="49.68341" lon="5.51382">
        <ele>336.3</ele>
        <time>2020-06-25T18:26:50Z</time>
      </trkpt>
      <trkpt lat="49.68341" lon="5.51382">
        <ele>336.3</ele>
        <time>2020-06-25T18:26:51Z</time>
      </trkpt>
      <trkpt lat="49.68341" lon="5.51381">
        <ele>336.3</ele>
        <time>2020-06-25T18:26:52Z</time>
      </trkpt>
      <trkpt lat="49.68342" lon="5.51381">
        <ele>336.3</ele>
        <time>2020-06-25T18:26:53Z</time>
      </trkpt>
      <trkpt lat="49.68343" lon="5.51381">
        <ele>336.3</ele>
        <time>2020-06-25T18:26:54Z</time>
      </trkpt>
      <trkpt lat="49.68343" lon="5.51381">
        <ele>336.3</ele>
        <time>2020-06-25T18:26:55Z</time>
      </trkpt>
      <trkpt lat="49.68343" lon="5.51381">
        <ele>336.3</ele>
        <time>2020-06-25T18:26:56Z</time>
      </trkpt>
      <trkpt lat="49.68343" lon="5.51382">
        <ele>336.3</ele>
        <time>2020-06-25T18:26:57Z</time>
      </trkpt>
      <trkpt lat="49.68344" lon="5.51382">
        <ele>336.3</ele>
        <time>2020-06-25T18:26:58Z</time>
      </trkpt>
      <trkpt lat="49.68344" lon="5.51382">
        <ele>336.3</ele>
        <time>2020-06-25T18:26:59Z</time>
      </trkpt>
      <trkpt lat="49.68344" lon="5.51383">
        <ele>336.3</ele>
        <time>2020-06-25T18:27:00Z</time>
      </trkpt>
      <trkpt lat="49.68344" lon="5.51384">
        <ele>336.3</ele>
        <time>2020-06-25T18:27:01Z</time>
      </trkpt>
      <trkpt lat="49.68344" lon="5.51384">
        <ele>336.3</ele>
        <time>2020-06-25T18:27:02Z</time>
      </trkpt>
      <trkpt lat="49.68344" lon="5.51385">
        <ele>336.3</ele>
        <time>2020-06-25T18:27:03Z</time>
      </trkpt>
      <trkpt lat="49.68345" lon="5.51385">
        <ele>336.3</ele>
        <time>2020-06-25T18:27:04Z</time>
      </trkpt>
      <trkpt lat="49.68344" lon="5.51385">
        <ele>336.3</ele>
        <time>2020-06-25T18:27:05Z</time>
      </trkpt>
      <trkpt lat="49.68344" lon="5.51386">
        <ele>336.3</ele>
        <time>2020-06-25T18:27:06Z</time>
      </trkpt>
      <trkpt lat="49.68344" lon="5.51386">
        <ele>336.3</ele>
        <time>2020-06-25T18:27:07Z</time>
      </trkpt>
      <trkpt lat="49.68344" lon="5.51386">
        <ele>336.3</ele>
        <time>2020-06-25T18:27:08Z</time>
      </trkpt>
      <trkpt lat="49.68344" lon="5.51387">
        <ele>336.3</ele>
        <time>2020-06-25T18:27:09Z</time>
      </trkpt>
      <trkpt lat="49.68345" lon="5.51388">
        <ele>336.3</ele>
        <time>2020-06-25T18:27:10Z</time>
      </trkpt>
      <trkpt lat="49.68345" lon="5.51389">
        <ele>336.3</ele>
        <time>2020-06-25T18:27:11Z</time>
      </trkpt>
      <trkpt lat="49.68345" lon="5.51389">
        <ele>336.3</ele>
        <time>2020-06-25T18:27:12Z</time>
      </trkpt>
      <trkpt lat="49.68344" lon="5.51389">
        <ele>336.3</ele>
        <time>2020-06-25T18:27:13Z</time>
      </trkpt>
      <trkpt lat="49.68344" lon="5.5139">
        <ele>336.3</ele>
        <time>2020-06-25T18:27:14Z</time>
      </trkpt>
      <trkpt lat="49.68344" lon="5.51391">
        <ele>336.3</ele>
        <time>2020-06-25T18:27:15Z</time>
      </trkpt>
      <trkpt lat="49.68344" lon="5.51391">
        <ele>336.3</ele>
        <time>2020-06-25T18:27:16Z</time>
      </trkpt>
      <trkpt lat="49.68344" lon="5.51392">
        <ele>336.4</ele>
        <time>2020-06-25T18:27:17Z</time>
      </trkpt>
      <trkpt lat="49.68344" lon="5.51393">
        <ele>336.4</ele>
        <time>2020-06-25T18:27:18Z</time>
      </trkpt>
      <trkpt lat="49.68344" lon="5.51393">
        <ele>336.4</ele>
        <time>2020-06-25T18:27:19Z</time>
      </trkpt>
      <trkpt lat="49.68343" lon="5.51392">
        <ele>336.4</ele>
        <time>2020-06-25T18:27:20Z</time>
      </trkpt>
      <trkpt lat="49.68343" lon="5.51392">
        <ele>336.4</ele>
        <time>2020-06-25T18:27:21Z</time>
      </trkpt>
      <trkpt lat="49.68343" lon="5.51391">
        <ele>336.4</ele>
        <time>2020-06-25T18:27:22Z</time>
      </trkpt>
      <trkpt lat="49.68343" lon="5.5139">
        <ele>336.4</ele>
        <time>2020-06-25T18:27:23Z</time>
      </trkpt>
      <trkpt lat="49.68343" lon="5.5139">
        <ele>336.4</ele>
        <time>2020-06-25T18:27:24Z</time>
      </trkpt>
      <trkpt lat="49.68343" lon="5.51389">
        <ele>336.4</ele>
        <time>2020-06-25T18:27:25Z</time>
      </trkpt>
      <trkpt lat="49.68343" lon="5.51388">
        <ele>336.4</ele>
        <time>2020-06-25T18:27:26Z</time>
      </trkpt>
      <trkpt lat="49.68342" lon="5.51388">
        <ele>336.4</ele>
        <time>2020-06-25T18:27:27Z</time>
      </trkpt>
      <trkpt lat="49.68342" lon="5.51387">
        <ele>336.4</ele>
        <time>2020-06-25T18:27:28Z</time>
      </trkpt>
      <trkpt lat="49.68343" lon="5.51386">
        <ele>336.4</ele>
        <time>2020-06-25T18:27:29Z</time>
      </trkpt>
      <trkpt lat="49.68343" lon="5.51386">
        <ele>336.4</ele>
        <time>2020-06-25T18:27:30Z</time>
      </trkpt>
      <trkpt lat="49.68343" lon="5.51385">
        <ele>336.4</ele>
        <time>2020-06-25T18:27:31Z</time>
      </trkpt>
      <trkpt lat="49.68343" lon="5.51385">
        <ele>336.4</ele>
        <time>2020-06-25T18:27:32Z</time>
      </trkpt>
      <trkpt lat="49.68342" lon="5.51383">
        <ele>336.4</ele>
        <time>2020-06-25T18:27:33Z</time>
      </trkpt>
      <trkpt lat="49.68342" lon="5.51382">
        <ele>336.4</ele>
        <time>2020-06-25T18:27:34Z</time>
      </trkpt>
      <trkpt lat="49.68335" lon="5.51368">
        <ele>336.5</ele>
        <time>2020-06-25T18:37:46Z</time>
      </trkpt>
      <trkpt lat="49.68335" lon="5.51369">
        <ele>336.5</ele>
        <time>2020-06-25T18:37:47Z</time>
      </trkpt>
      <trkpt lat="49.68335" lon="5.5137">
        <ele>336.5</ele>
        <time>2020-06-25T18:37:48Z</time>
      </trkpt>
      <trkpt lat="49.68335" lon="5.5137">
        <ele>336.5</ele>
        <time>2020-06-25T18:37:49Z</time>
      </trkpt>
      <trkpt lat="49.68335" lon="5.51371">
        <ele>336.5</ele>
        <time>2020-06-25T18:37:50Z</time>
      </trkpt>
      <trkpt lat="49.68334" lon="5.51372">
        <ele>336.5</ele>
        <time>2020-06-25T18:37:51Z</time>
      </trkpt>
      <trkpt lat="49.68334" lon="5.51372">
        <ele>336.5</ele>
        <time>2020-06-25T18:37:52Z</time>
      </trkpt>
      <trkpt lat="49.68334" lon="5.51373">
        <ele>336.5</ele>
        <time>2020-06-25T18:37:53Z</time>
      </trkpt>
      <trkpt lat="49.68334" lon="5.51374">
        <ele>336.5</ele>
        <time>2020-06-25T18:37:54Z</time>
      </trkpt>
      <trkpt lat="49.68334" lon="5.51374">
        <ele>336.5</ele>
        <time>2020-06-25T18:37:55Z</time>
      </trkpt>
      <trkpt lat="49.68334" lon="5.51375">
        <ele>336.5</ele>
        <time>2020-06-25T18:37:56Z</time>
      </trkpt>
      <trkpt lat="49.68334" lon="5.51376">
        <ele>336.5</ele>
        <time>2020-06-25T18:37:57Z</time>
      </trkpt>
      <trkpt lat="49.68333" lon="5.51375">
        <ele>336.5</ele>
        <time>2020-06-25T18:37:58Z</time>
      </trkpt>
      <trkpt lat="49.68333" lon="5.51376">
        <ele>336.5</ele>
        <time>2020-06-25T18:37:59Z</time>
      </trkpt>
      <trkpt lat="49.68333" lon="5.51377">
        <ele>336.6</ele>
        <time>2020-06-25T18:38:00Z</time>
      </trkpt>
      <trkpt lat="49.68333" lon="5.51376">
        <ele>336.6</ele>
        <time>2020-06-25T18:38:01Z</time>
      </trkpt>
      <trkpt lat="49.68333" lon="5.51376">
        <ele>336.6</ele>
        <time>2020-06-25T18:38:02Z</time>
      </trkpt>
      <trkpt lat="49.68332" lon="5.51377">
        <ele>336.6</ele>
        <time>2020-06-25T18:38:03Z</time>
      </trkpt>
      <trkpt lat="49.68328" lon="5.51382">
        <ele>336.6</ele>
        <time>2020-06-25T18:42:25Z</time>
      </trkpt>
      <trkpt lat="49.68328" lon="5.51387">
        <ele>336.6</ele>
        <time>2020-06-25T18:42:26Z</time>
      </trkpt>
      <trkpt lat="49.68327" lon="5.51392">
        <ele>336.7</ele>
        <time>2020-06-25T18:42:27Z</time>
      </trkpt>
      <trkpt lat="49.68326" lon="5.51396">
        <ele>336.7</ele>
        <time>2020-06-25T18:42:28Z</time>
      </trkpt>
      <trkpt lat="49.68326" lon="5.51401">
        <ele>336.7</ele>
        <time>2020-06-25T18:42:29Z</time>
      </trkpt>
      <trkpt lat="49.68326" lon="5.51405">
        <ele>336.7</ele>
        <time>2020-06-25T18:42:30Z</time>
      </trkpt>
      <trkpt lat="49.68326" lon="5.5141">
        <ele>336.8</ele>
        <time>2020-06-25T18:42:31Z</time>
      </trkpt>
      <trkpt lat="49.68326" lon="5.51416">
        <ele>336.8</ele>
        <time>2020-06-25T18:42:32Z</time>
      </trkpt>
      <trkpt lat="49.68326" lon="5.51418">
        <ele>336.8</ele>
        <time>2020-06-25T18:42:33Z</time>
      </trkpt>
      <trkpt lat="49.68326" lon="5.51423">
        <ele>336.9</ele>
        <time>2020-06-25T18:42:34Z</time>
      </trkpt>
      <trkpt lat="49.68326" lon="5.51429">
        <ele>336.9</ele>
        <time>2020-06-25T18:42:35Z</time>
      </trkpt>
      <trkpt lat="49.68327" lon="5.51435">
        <ele>336.9</ele>
        <time>2020-06-25T18:42:36Z</time>
      </trkpt>
      <trkpt lat="49.68328" lon="5.51439">
        <ele>337</ele>
        <time>2020-06-25T18:42:37Z</time>
      </trkpt>
      <trkpt lat="49.68328" lon="5.51444">
        <ele>337.2</ele>
        <time>2020-06-25T18:42:38Z</time>
      </trkpt>
      <trkpt lat="49.68329" lon="5.51446">
        <ele>337.3</ele>
        <time>2020-06-25T18:42:39Z</time>
      </trkpt>
      <trkpt lat="49.68329" lon="5.51451">
        <ele>337.4</ele>
        <time>2020-06-25T18:42:40Z</time>
      </trkpt>
      <trkpt lat="49.68328" lon="5.51456">
        <ele>337.6</ele>
        <time>2020-06-25T18:42:41Z</time>
      </trkpt>
      <trkpt lat="49.68328" lon="5.51461">
        <ele>337.8</ele>
        <time>2020-06-25T18:42:42Z</time>
      </trkpt>
      <trkpt lat="49.68328" lon="5.51467">
        <ele>338</ele>
        <time>2020-06-25T18:42:43Z</time>
      </trkpt>
      <trkpt lat="49.68328" lon="5.51469">
        <ele>338.1</ele>
        <time>2020-06-25T18:42:44Z</time>
      </trkpt>
      <trkpt lat="49.68327" lon="5.51476">
        <ele>338.3</ele>
        <time>2020-06-25T18:42:45Z</time>
      </trkpt>
      <trkpt lat="49.68327" lon="5.51478">
        <ele>338.3</ele>
        <time>2020-06-25T18:42:46Z</time>
      </trkpt>
      <trkpt lat="49.68325" lon="5.51482">
        <ele>338.5</ele>
        <time>2020-06-25T18:42:47Z</time>
      </trkpt>
      <trkpt lat="49.68324" lon="5.51488">
        <ele>338.7</ele>
        <time>2020-06-25T18:42:48Z</time>
      </trkpt>
      <trkpt lat="49.68324" lon="5.5149">
        <ele>338.8</ele>
        <time>2020-06-25T18:42:49Z</time>
      </trkpt>
      <trkpt lat="49.68323" lon="5.51496">
        <ele>338.9</ele>
        <time>2020-06-25T18:42:50Z</time>
      </trkpt>
      <trkpt lat="49.68323" lon="5.51498">
        <ele>338.9</ele>
        <time>2020-06-25T18:42:51Z</time>
      </trkpt>
      <trkpt lat="49.68323" lon="5.51502">
        <ele>338.9</ele>
        <time>2020-06-25T18:42:52Z</time>
      </trkpt>
      <trkpt lat="49.68323" lon="5.51505">
        <ele>339</ele>
        <time>2020-06-25T18:42:53Z</time>
      </trkpt>
      <trkpt lat="49.68324" lon="5.51509">
        <ele>339</ele>
        <time>2020-06-25T18:42:54Z</time>
      </trkpt>
      <trkpt lat="49.68324" lon="5.51514">
        <ele>339.1</ele>
        <time>2020-06-25T18:42:55Z</time>
      </trkpt>
      <trkpt lat="49.68322" lon="5.51521">
        <ele>339.2</ele>
        <time>2020-06-25T18:42:56Z</time>
      </trkpt>
      <trkpt lat="49.68321" lon="5.51524">
        <ele>339.2</ele>
        <time>2020-06-25T18:42:57Z</time>
      </trkpt>
      <trkpt lat="49.68319" lon="5.5153">
        <ele>339.3</ele>
        <time>2020-06-25T18:42:58Z</time>
      </trkpt>
      <trkpt lat="49.68318" lon="5.51535">
        <ele>339.4</ele>
        <time>2020-06-25T18:42:59Z</time>
      </trkpt>
      <trkpt lat="49.68316" lon="5.51542">
        <ele>339.5</ele>
        <time>2020-06-25T18:43:00Z</time>
      </trkpt>
      <trkpt lat="49.68315" lon="5.51548">
        <ele>339.7</ele>
        <time>2020-06-25T18:43:01Z</time>
      </trkpt>
      <trkpt lat="49.68312" lon="5.51554">
        <ele>339.8</ele>
        <time>2020-06-25T18:43:02Z</time>
      </trkpt>
      <trkpt lat="49.68311" lon="5.5156">
        <ele>339.9</ele>
        <time>2020-06-25T18:43:03Z</time>
      </trkpt>
      <trkpt lat="49.6831" lon="5.51566">
        <ele>340</ele>
        <time>2020-06-25T18:43:04Z</time>
      </trkpt>
      <trkpt lat="49.6831" lon="5.51572">
        <ele>340.1</ele>
        <time>2020-06-25T18:43:05Z</time>
      </trkpt>
      <trkpt lat="49.6831" lon="5.51578">
        <ele>340.2</ele>
        <time>2020-06-25T18:43:06Z</time>
      </trkpt>
      <trkpt lat="49.68309" lon="5.51583">
        <ele>340.3</ele>
        <time>2020-06-25T18:43:07Z</time>
      </trkpt>
      <trkpt lat="49.68308" lon="5.51588">
        <ele>340.4</ele>
        <time>2020-06-25T18:43:08Z</time>
      </trkpt>
      <trkpt lat="49.68308" lon="5.51593">
        <ele>340.5</ele>
        <time>2020-06-25T18:43:09Z</time>
      </trkpt>
      <trkpt lat="49.68307" lon="5.51599">
        <ele>340.6</ele>
        <time>2020-06-25T18:43:10Z</time>
      </trkpt>
      <trkpt lat="49.68307" lon="5.51604">
        <ele>340.7</ele>
        <time>2020-06-25T18:43:11Z</time>
      </trkpt>
      <trkpt lat="49.68306" lon="5.5161">
        <ele>340.8</ele>
        <time>2020-06-25T18:43:12Z</time>
      </trkpt>
      <trkpt lat="49.68305" lon="5.51614">
        <ele>340.9</ele>
        <time>2020-06-25T18:43:13Z</time>
      </trkpt>
      <trkpt lat="49.68304" lon="5.51621">
        <ele>341</ele>
        <time>2020-06-25T18:43:14Z</time>
      </trkpt>
      <trkpt lat="49.68304" lon="5.51627">
        <ele>341.1</ele>
        <time>2020-06-25T18:43:15Z</time>
      </trkpt>
      <trkpt lat="49.68303" lon="5.51634">
        <ele>341.1</ele>
        <time>2020-06-25T18:43:16Z</time>
      </trkpt>
      <trkpt lat="49.68302" lon="5.5164">
        <ele>341.2</ele>
        <time>2020-06-25T18:43:17Z</time>
      </trkpt>
      <trkpt lat="49.68302" lon="5.51645">
        <ele>341.3</ele>
        <time>2020-06-25T18:43:18Z</time>
      </trkpt>
      <trkpt lat="49.68301" lon="5.51651">
        <ele>341.4</ele>
        <time>2020-06-25T18:43:19Z</time>
      </trkpt>
      <trkpt lat="49.68301" lon="5.51656">
        <ele>341.5</ele>
        <time>2020-06-25T18:43:20Z</time>
      </trkpt>
      <trkpt lat="49.683" lon="5.51661">
        <ele>341.5</ele>
        <time>2020-06-25T18:43:21Z</time>
      </trkpt>
      <trkpt lat="49.683" lon="5.51666">
        <ele>341.6</ele>
        <time>2020-06-25T18:43:22Z</time>
      </trkpt>
      <trkpt lat="49.68299" lon="5.51671">
        <ele>341.7</ele>
        <time>2020-06-25T18:43:23Z</time>
      </trkpt>
      <trkpt lat="49.68298" lon="5.51676">
        <ele>341.8</ele>
        <time>2020-06-25T18:43:24Z</time>
      </trkpt>
      <trkpt lat="49.68296" lon="5.51681">
        <ele>341.8</ele>
        <time>2020-06-25T18:43:25Z</time>
      </trkpt>
      <trkpt lat="49.68295" lon="5.51687">
        <ele>341.9</ele>
        <time>2020-06-25T18:43:26Z</time>
      </trkpt>
      <trkpt lat="49.68294" lon="5.51693">
        <ele>342.1</ele>
        <time>2020-06-25T18:43:27Z</time>
      </trkpt>
      <trkpt lat="49.68294" lon="5.51698">
        <ele>342.2</ele>
        <time>2020-06-25T18:43:28Z</time>
      </trkpt>
      <trkpt lat="49.68293" lon="5.51704">
        <ele>342.3</ele>
        <time>2020-06-25T18:43:29Z</time>
      </trkpt>
      <trkpt lat="49.68293" lon="5.51711">
        <ele>342.4</ele>
        <time>2020-06-25T18:43:30Z</time>
      </trkpt>
      <trkpt lat="49.68293" lon="5.51717">
        <ele>342.5</ele>
        <time>2020-06-25T18:43:31Z</time>
      </trkpt>
      <trkpt lat="49.68292" lon="5.51723">
        <ele>342.6</ele>
        <time>2020-06-25T18:43:32Z</time>
      </trkpt>
      <trkpt lat="49.6829" lon="5.5173">
        <ele>342.7</ele>
        <time>2020-06-25T18:43:33Z</time>
      </trkpt>
      <trkpt lat="49.68289" lon="5.51736">
        <ele>342.8</ele>
        <time>2020-06-25T18:43:34Z</time>
      </trkpt>
      <trkpt lat="49.68288" lon="5.51742">
        <ele>343</ele>
        <time>2020-06-25T18:43:35Z</time>
      </trkpt>
      <trkpt lat="49.68288" lon="5.51748">
        <ele>343.1</ele>
        <time>2020-06-25T18:43:36Z</time>
      </trkpt>
      <trkpt lat="49.68287" lon="5.51755">
        <ele>343.2</ele>
        <time>2020-06-25T18:43:37Z</time>
      </trkpt>
      <trkpt lat="49.68287" lon="5.51761">
        <ele>343.3</ele>
        <time>2020-06-25T18:43:38Z</time>
      </trkpt>
      <trkpt lat="49.68286" lon="5.51767">
        <ele>343.4</ele>
        <time>2020-06-25T18:43:39Z</time>
      </trkpt>
      <trkpt lat="49.68286" lon="5.51771">
        <ele>343.5</ele>
        <time>2020-06-25T18:43:40Z</time>
      </trkpt>
      <trkpt lat="49.68285" lon="5.51777">
        <ele>343.6</ele>
        <time>2020-06-25T18:43:41Z</time>
      </trkpt>
      <trkpt lat="49.68284" lon="5.51783">
        <ele>343.7</ele>
        <time>2020-06-25T18:43:42Z</time>
      </trkpt>
      <trkpt lat="49.68284" lon="5.51789">
        <ele>343.8</ele>
        <time>2020-06-25T18:43:43Z</time>
      </trkpt>
      <trkpt lat="49.68284" lon="5.51795">
        <ele>343.9</ele>
        <time>2020-06-25T18:43:44Z</time>
      </trkpt>
      <trkpt lat="49.68283" lon="5.51801">
        <ele>344</ele>
        <time>2020-06-25T18:43:45Z</time>
      </trkpt>
      <trkpt lat="49.68282" lon="5.51806">
        <ele>344.1</ele>
        <time>2020-06-25T18:43:46Z</time>
      </trkpt>
      <trkpt lat="49.68282" lon="5.51811">
        <ele>344.2</ele>
        <time>2020-06-25T18:43:47Z</time>
      </trkpt>
      <trkpt lat="49.68281" lon="5.51817">
        <ele>344.3</ele>
        <time>2020-06-25T18:43:48Z</time>
      </trkpt>
      <trkpt lat="49.6828" lon="5.51824">
        <ele>344.4</ele>
        <time>2020-06-25T18:43:49Z</time>
      </trkpt>
      <trkpt lat="49.68279" lon="5.51829">
        <ele>344.5</ele>
        <time>2020-06-25T18:43:50Z</time>
      </trkpt>
      <trkpt lat="49.68279" lon="5.51835">
        <ele>344.6</ele>
        <time>2020-06-25T18:43:51Z</time>
      </trkpt>
      <trkpt lat="49.68279" lon="5.51841">
        <ele>344.7</ele>
        <time>2020-06-25T18:43:52Z</time>
      </trkpt>
      <trkpt lat="49.68278" lon="5.51847">
        <ele>344.8</ele>
        <time>2020-06-25T18:43:53Z</time>
      </trkpt>
      <trkpt lat="49.68278" lon="5.51852">
        <ele>345</ele>
        <time>2020-06-25T18:43:54Z</time>
      </trkpt>
      <trkpt lat="49.68277" lon="5.51858">
        <ele>345</ele>
        <time>2020-06-25T18:43:55Z</time>
      </trkpt>
      <trkpt lat="49.68277" lon="5.51864">
        <ele>345.1</ele>
        <time>2020-06-25T18:43:56Z</time>
      </trkpt>
      <trkpt lat="49.68276" lon="5.5187">
        <ele>345.2</ele>
        <time>2020-06-25T18:43:57Z</time>
      </trkpt>
      <trkpt lat="49.68275" lon="5.51876">
        <ele>345.3</ele>
        <time>2020-06-25T18:43:58Z</time>
      </trkpt>
      <trkpt lat="49.68274" lon="5.51881">
        <ele>345.4</ele>
        <time>2020-06-25T18:43:59Z</time>
      </trkpt>
      <trkpt lat="49.68273" lon="5.51887">
        <ele>345.5</ele>
        <time>2020-06-25T18:44:00Z</time>
      </trkpt>
      <trkpt lat="49.68271" lon="5.51892">
        <ele>345.6</ele>
        <time>2020-06-25T18:44:01Z</time>
      </trkpt>
      <trkpt lat="49.6827" lon="5.51897">
        <ele>345.7</ele>
        <time>2020-06-25T18:44:02Z</time>
      </trkpt>
      <trkpt lat="49.6827" lon="5.51903">
        <ele>345.9</ele>
        <time>2020-06-25T18:44:03Z</time>
      </trkpt>
      <trkpt lat="49.68269" lon="5.51909">
        <ele>346</ele>
        <time>2020-06-25T18:44:04Z</time>
      </trkpt>
      <trkpt lat="49.68269" lon="5.51914">
        <ele>346.1</ele>
        <time>2020-06-25T18:44:05Z</time>
      </trkpt>
      <trkpt lat="49.68269" lon="5.51921">
        <ele>346.2</ele>
        <time>2020-06-25T18:44:06Z</time>
      </trkpt>
      <trkpt lat="49.68268" lon="5.51927">
        <ele>346.3</ele>
        <time>2020-06-25T18:44:07Z</time>
      </trkpt>
      <trkpt lat="49.68268" lon="5.51933">
        <ele>346.4</ele>
        <time>2020-06-25T18:44:08Z</time>
      </trkpt>
      <trkpt lat="49.68267" lon="5.51938">
        <ele>346.5</ele>
        <time>2020-06-25T18:44:09Z</time>
      </trkpt>
      <trkpt lat="49.68267" lon="5.51944">
        <ele>346.6</ele>
        <time>2020-06-25T18:44:10Z</time>
      </trkpt>
      <trkpt lat="49.68266" lon="5.51949">
        <ele>346.7</ele>
        <time>2020-06-25T18:44:11Z</time>
      </trkpt>
      <trkpt lat="49.68265" lon="5.51956">
        <ele>346.7</ele>
        <time>2020-06-25T18:44:12Z</time>
      </trkpt>
      <trkpt lat="49.68264" lon="5.51962">
        <ele>346.8</ele>
        <time>2020-06-25T18:44:13Z</time>
      </trkpt>
      <trkpt lat="49.68263" lon="5.51968">
        <ele>346.9</ele>
        <time>2020-06-25T18:44:14Z</time>
      </trkpt>
      <trkpt lat="49.68263" lon="5.51974">
        <ele>346.9</ele>
        <time>2020-06-25T18:44:15Z</time>
      </trkpt>
      <trkpt lat="49.68262" lon="5.51979">
        <ele>347</ele>
        <time>2020-06-25T18:44:16Z</time>
      </trkpt>
      <trkpt lat="49.68261" lon="5.51986">
        <ele>347</ele>
        <time>2020-06-25T18:44:17Z</time>
      </trkpt>
      <trkpt lat="49.68261" lon="5.51991">
        <ele>347.1</ele>
        <time>2020-06-25T18:44:18Z</time>
      </trkpt>
      <trkpt lat="49.6826" lon="5.51997">
        <ele>347.1</ele>
        <time>2020-06-25T18:44:19Z</time>
      </trkpt>
      <trkpt lat="49.68259" lon="5.52001">
        <ele>347.1</ele>
        <time>2020-06-25T18:44:20Z</time>
      </trkpt>
      <trkpt lat="49.68258" lon="5.52005">
        <ele>347.2</ele>
        <time>2020-06-25T18:44:21Z</time>
      </trkpt>
      <trkpt lat="49.68256" lon="5.5201">
        <ele>347.2</ele>
        <time>2020-06-25T18:44:22Z</time>
      </trkpt>
      <trkpt lat="49.68256" lon="5.52016">
        <ele>347.2</ele>
        <time>2020-06-25T18:44:23Z</time>
      </trkpt>
      <trkpt lat="49.68254" lon="5.52021">
        <ele>347.2</ele>
        <time>2020-06-25T18:44:24Z</time>
      </trkpt>
      <trkpt lat="49.68253" lon="5.52027">
        <ele>347.3</ele>
        <time>2020-06-25T18:44:25Z</time>
      </trkpt>
      <trkpt lat="49.68252" lon="5.52032">
        <ele>347.3</ele>
        <time>2020-06-25T18:44:26Z</time>
      </trkpt>
      <trkpt lat="49.68251" lon="5.52038">
        <ele>347.3</ele>
        <time>2020-06-25T18:44:27Z</time>
      </trkpt>
      <trkpt lat="49.6825" lon="5.52044">
        <ele>347.3</ele>
        <time>2020-06-25T18:44:28Z</time>
      </trkpt>
      <trkpt lat="49.68248" lon="5.52049">
        <ele>347.3</ele>
        <time>2020-06-25T18:44:29Z</time>
      </trkpt>
      <trkpt lat="49.68248" lon="5.52054">
        <ele>347.4</ele>
        <time>2020-06-25T18:44:30Z</time>
      </trkpt>
      <trkpt lat="49.68247" lon="5.5206">
        <ele>347.4</ele>
        <time>2020-06-25T18:44:31Z</time>
      </trkpt>
      <trkpt lat="49.68246" lon="5.52066">
        <ele>347.4</ele>
        <time>2020-06-25T18:44:32Z</time>
      </trkpt>
      <trkpt lat="49.68245" lon="5.52073">
        <ele>347.5</ele>
        <time>2020-06-25T18:44:33Z</time>
      </trkpt>
      <trkpt lat="49.68243" lon="5.52079">
        <ele>347.5</ele>
        <time>2020-06-25T18:44:34Z</time>
      </trkpt>
      <trkpt lat="49.68242" lon="5.52084">
        <ele>347.5</ele>
        <time>2020-06-25T18:44:35Z</time>
      </trkpt>
      <trkpt lat="49.68241" lon="5.52089">
        <ele>347.6</ele>
        <time>2020-06-25T18:44:36Z</time>
      </trkpt>
      <trkpt lat="49.6824" lon="5.52096">
        <ele>347.6</ele>
        <time>2020-06-25T18:44:37Z</time>
      </trkpt>
      <trkpt lat="49.68237" lon="5.52102">
        <ele>347.6</ele>
        <time>2020-06-25T18:44:38Z</time>
      </trkpt>
      <trkpt lat="49.68235" lon="5.52107">
        <ele>347.7</ele>
        <time>2020-06-25T18:44:39Z</time>
      </trkpt>
      <trkpt lat="49.68233" lon="5.52113">
        <ele>347.7</ele>
        <time>2020-06-25T18:44:40Z</time>
      </trkpt>
      <trkpt lat="49.68233" lon="5.52119">
        <ele>347.7</ele>
        <time>2020-06-25T18:44:41Z</time>
      </trkpt>
      <trkpt lat="49.68232" lon="5.52125">
        <ele>347.8</ele>
        <time>2020-06-25T18:44:42Z</time>
      </trkpt>
      <trkpt lat="49.68231" lon="5.5213">
        <ele>347.8</ele>
        <time>2020-06-25T18:44:43Z</time>
      </trkpt>
      <trkpt lat="49.6823" lon="5.52134">
        <ele>347.8</ele>
        <time>2020-06-25T18:44:44Z</time>
      </trkpt>
      <trkpt lat="49.68228" lon="5.52141">
        <ele>347.9</ele>
        <time>2020-06-25T18:44:45Z</time>
      </trkpt>
      <trkpt lat="49.68227" lon="5.52147">
        <ele>347.9</ele>
        <time>2020-06-25T18:44:46Z</time>
      </trkpt>
      <trkpt lat="49.68226" lon="5.52154">
        <ele>348</ele>
        <time>2020-06-25T18:44:47Z</time>
      </trkpt>
      <trkpt lat="49.68224" lon="5.52159">
        <ele>348</ele>
        <time>2020-06-25T18:44:48Z</time>
      </trkpt>
      <trkpt lat="49.68223" lon="5.52165">
        <ele>348.1</ele>
        <time>2020-06-25T18:44:49Z</time>
      </trkpt>
      <trkpt lat="49.68221" lon="5.52171">
        <ele>348.1</ele>
        <time>2020-06-25T18:44:50Z</time>
      </trkpt>
      <trkpt lat="49.6822" lon="5.52177">
        <ele>348.2</ele>
        <time>2020-06-25T18:44:51Z</time>
      </trkpt>
      <trkpt lat="49.68219" lon="5.52183">
        <ele>348.2</ele>
        <time>2020-06-25T18:44:52Z</time>
      </trkpt>
      <trkpt lat="49.68218" lon="5.5219">
        <ele>348.3</ele>
        <time>2020-06-25T18:44:53Z</time>
      </trkpt>
      <trkpt lat="49.68217" lon="5.52196">
        <ele>348.3</ele>
        <time>2020-06-25T18:44:54Z</time>
      </trkpt>
      <trkpt lat="49.68217" lon="5.52202">
        <ele>348.4</ele>
        <time>2020-06-25T18:44:55Z</time>
      </trkpt>
      <trkpt lat="49.68216" lon="5.52207">
        <ele>348.4</ele>
        <time>2020-06-25T18:44:56Z</time>
      </trkpt>
      <trkpt lat="49.68214" lon="5.52212">
        <ele>348.5</ele>
        <time>2020-06-25T18:44:57Z</time>
      </trkpt>
      <trkpt lat="49.68213" lon="5.52217">
        <ele>348.5</ele>
        <time>2020-06-25T18:44:58Z</time>
      </trkpt>
      <trkpt lat="49.68211" lon="5.52223">
        <ele>348.6</ele>
        <time>2020-06-25T18:44:59Z</time>
      </trkpt>
      <trkpt lat="49.68209" lon="5.52229">
        <ele>348.7</ele>
        <time>2020-06-25T18:45:00Z</time>
      </trkpt>
      <trkpt lat="49.68208" lon="5.52233">
        <ele>348.8</ele>
        <time>2020-06-25T18:45:01Z</time>
      </trkpt>
      <trkpt lat="49.68206" lon="5.5224">
        <ele>348.9</ele>
        <time>2020-06-25T18:45:02Z</time>
      </trkpt>
      <trkpt lat="49.68205" lon="5.52246">
        <ele>349</ele>
        <time>2020-06-25T18:45:03Z</time>
      </trkpt>
      <trkpt lat="49.68204" lon="5.52252">
        <ele>349</ele>
        <time>2020-06-25T18:45:04Z</time>
      </trkpt>
      <trkpt lat="49.68203" lon="5.52258">
        <ele>349.1</ele>
        <time>2020-06-25T18:45:05Z</time>
      </trkpt>
      <trkpt lat="49.68202" lon="5.52264">
        <ele>349.2</ele>
        <time>2020-06-25T18:45:06Z</time>
      </trkpt>
      <trkpt lat="49.682" lon="5.52269">
        <ele>349.3</ele>
        <time>2020-06-25T18:45:07Z</time>
      </trkpt>
      <trkpt lat="49.68199" lon="5.52275">
        <ele>349.4</ele>
        <time>2020-06-25T18:45:08Z</time>
      </trkpt>
      <trkpt lat="49.68197" lon="5.5228">
        <ele>349.4</ele>
        <time>2020-06-25T18:45:09Z</time>
      </trkpt>
      <trkpt lat="49.68196" lon="5.52285">
        <ele>349.5</ele>
        <time>2020-06-25T18:45:10Z</time>
      </trkpt>
      <trkpt lat="49.68195" lon="5.52291">
        <ele>349.6</ele>
        <time>2020-06-25T18:45:11Z</time>
      </trkpt>
      <trkpt lat="49.68194" lon="5.52295">
        <ele>349.7</ele>
        <time>2020-06-25T18:45:12Z</time>
      </trkpt>
      <trkpt lat="49.68192" lon="5.52301">
        <ele>349.8</ele>
        <time>2020-06-25T18:45:13Z</time>
      </trkpt>
      <trkpt lat="49.68191" lon="5.52306">
        <ele>349.8</ele>
        <time>2020-06-25T18:45:14Z</time>
      </trkpt>
      <trkpt lat="49.68189" lon="5.52311">
        <ele>349.9</ele>
        <time>2020-06-25T18:45:15Z</time>
      </trkpt>
      <trkpt lat="49.68187" lon="5.52316">
        <ele>350</ele>
        <time>2020-06-25T18:45:16Z</time>
      </trkpt>
      <trkpt lat="49.68186" lon="5.52321">
        <ele>350.1</ele>
        <time>2020-06-25T18:45:17Z</time>
      </trkpt>
      <trkpt lat="49.68185" lon="5.52327">
        <ele>350.2</ele>
        <time>2020-06-25T18:45:18Z</time>
      </trkpt>
      <trkpt lat="49.68183" lon="5.52332">
        <ele>350.2</ele>
        <time>2020-06-25T18:45:19Z</time>
      </trkpt>
      <trkpt lat="49.68181" lon="5.52339">
        <ele>350.4</ele>
        <time>2020-06-25T18:45:20Z</time>
      </trkpt>
      <trkpt lat="49.6818" lon="5.52345">
        <ele>350.5</ele>
        <time>2020-06-25T18:45:21Z</time>
      </trkpt>
      <trkpt lat="49.68179" lon="5.52351">
        <ele>350.6</ele>
        <time>2020-06-25T18:45:22Z</time>
      </trkpt>
      <trkpt lat="49.68177" lon="5.52357">
        <ele>350.7</ele>
        <time>2020-06-25T18:45:23Z</time>
      </trkpt>
      <trkpt lat="49.68175" lon="5.52364">
        <ele>350.9</ele>
        <time>2020-06-25T18:45:24Z</time>
      </trkpt>
      <trkpt lat="49.68174" lon="5.52371">
        <ele>351</ele>
        <time>2020-06-25T18:45:25Z</time>
      </trkpt>
      <trkpt lat="49.68173" lon="5.52377">
        <ele>351.1</ele>
        <time>2020-06-25T18:45:26Z</time>
      </trkpt>
      <trkpt lat="49.68171" lon="5.52381">
        <ele>351.2</ele>
        <time>2020-06-25T18:45:27Z</time>
      </trkpt>
      <trkpt lat="49.6817" lon="5.52387">
        <ele>351.2</ele>
        <time>2020-06-25T18:45:28Z</time>
      </trkpt>
      <trkpt lat="49.68168" lon="5.52392">
        <ele>351.3</ele>
        <time>2020-06-25T18:45:29Z</time>
      </trkpt>
      <trkpt lat="49.68167" lon="5.52398">
        <ele>351.4</ele>
        <time>2020-06-25T18:45:30Z</time>
      </trkpt>
      <trkpt lat="49.68165" lon="5.52403">
        <ele>351.5</ele>
        <time>2020-06-25T18:45:31Z</time>
      </trkpt>
      <trkpt lat="49.68164" lon="5.52409">
        <ele>351.6</ele>
        <time>2020-06-25T18:45:32Z</time>
      </trkpt>
      <trkpt lat="49.68162" lon="5.52414">
        <ele>351.7</ele>
        <time>2020-06-25T18:45:33Z</time>
      </trkpt>
      <trkpt lat="49.68161" lon="5.52419">
        <ele>351.8</ele>
        <time>2020-06-25T18:45:34Z</time>
      </trkpt>
      <trkpt lat="49.6816" lon="5.52424">
        <ele>351.9</ele>
        <time>2020-06-25T18:45:35Z</time>
      </trkpt>
      <trkpt lat="49.68158" lon="5.5243">
        <ele>352</ele>
        <time>2020-06-25T18:45:36Z</time>
      </trkpt>
      <trkpt lat="49.68156" lon="5.52434">
        <ele>352.1</ele>
        <time>2020-06-25T18:45:37Z</time>
      </trkpt>
      <trkpt lat="49.68154" lon="5.52439">
        <ele>352.2</ele>
        <time>2020-06-25T18:45:38Z</time>
      </trkpt>
      <trkpt lat="49.68152" lon="5.52444">
        <ele>352.2</ele>
        <time>2020-06-25T18:45:39Z</time>
      </trkpt>
      <trkpt lat="49.68151" lon="5.52448">
        <ele>352.3</ele>
        <time>2020-06-25T18:45:40Z</time>
      </trkpt>
      <trkpt lat="49.68149" lon="5.52453">
        <ele>352.3</ele>
        <time>2020-06-25T18:45:41Z</time>
      </trkpt>
      <trkpt lat="49.68148" lon="5.52455">
        <ele>352.3</ele>
        <time>2020-06-25T18:45:42Z</time>
      </trkpt>
      <trkpt lat="49.68146" lon="5.52459">
        <ele>352.3</ele>
        <time>2020-06-25T18:45:43Z</time>
      </trkpt>
      <trkpt lat="49.68143" lon="5.52463">
        <ele>352.3</ele>
        <time>2020-06-25T18:45:44Z</time>
      </trkpt>
      <trkpt lat="49.68141" lon="5.52468">
        <ele>352.3</ele>
        <time>2020-06-25T18:45:45Z</time>
      </trkpt>
      <trkpt lat="49.68139" lon="5.52474">
        <ele>352.3</ele>
        <time>2020-06-25T18:45:46Z</time>
      </trkpt>
      <trkpt lat="49.68136" lon="5.5248">
        <ele>352.3</ele>
        <time>2020-06-25T18:45:47Z</time>
      </trkpt>
      <trkpt lat="49.68134" lon="5.52487">
        <ele>352.3</ele>
        <time>2020-06-25T18:45:48Z</time>
      </trkpt>
      <trkpt lat="49.68131" lon="5.52493">
        <ele>352.3</ele>
        <time>2020-06-25T18:45:49Z</time>
      </trkpt>
      <trkpt lat="49.68129" lon="5.525">
        <ele>352.4</ele>
        <time>2020-06-25T18:45:50Z</time>
      </trkpt>
      <trkpt lat="49.68126" lon="5.52505">
        <ele>352.4</ele>
        <time>2020-06-25T18:45:51Z</time>
      </trkpt>
      <trkpt lat="49.68122" lon="5.52511">
        <ele>352.4</ele>
        <time>2020-06-25T18:45:52Z</time>
      </trkpt>
      <trkpt lat="49.6812" lon="5.52517">
        <ele>352.4</ele>
        <time>2020-06-25T18:45:53Z</time>
      </trkpt>
      <trkpt lat="49.68117" lon="5.52523">
        <ele>352.4</ele>
        <time>2020-06-25T18:45:54Z</time>
      </trkpt>
      <trkpt lat="49.68114" lon="5.52528">
        <ele>352.4</ele>
        <time>2020-06-25T18:45:55Z</time>
      </trkpt>
      <trkpt lat="49.68111" lon="5.52534">
        <ele>352.4</ele>
        <time>2020-06-25T18:45:56Z</time>
      </trkpt>
      <trkpt lat="49.68107" lon="5.52539">
        <ele>352.4</ele>
        <time>2020-06-25T18:45:57Z</time>
      </trkpt>
      <trkpt lat="49.68105" lon="5.52544">
        <ele>352.4</ele>
        <time>2020-06-25T18:45:58Z</time>
      </trkpt>
      <trkpt lat="49.68102" lon="5.52549">
        <ele>352.4</ele>
        <time>2020-06-25T18:45:59Z</time>
      </trkpt>
      <trkpt lat="49.68099" lon="5.52553">
        <ele>352.4</ele>
        <time>2020-06-25T18:46:00Z</time>
      </trkpt>
      <trkpt lat="49.68096" lon="5.52557">
        <ele>352.4</ele>
        <time>2020-06-25T18:46:01Z</time>
      </trkpt>
      <trkpt lat="49.68092" lon="5.52562">
        <ele>352.4</ele>
        <time>2020-06-25T18:46:02Z</time>
      </trkpt>
      <trkpt lat="49.68089" lon="5.52567">
        <ele>352.4</ele>
        <time>2020-06-25T18:46:03Z</time>
      </trkpt>
      <trkpt lat="49.68085" lon="5.52572">
        <ele>352.3</ele>
        <time>2020-06-25T18:46:04Z</time>
      </trkpt>
      <trkpt lat="49.68082" lon="5.52576">
        <ele>352.3</ele>
        <time>2020-06-25T18:46:05Z</time>
      </trkpt>
      <trkpt lat="49.68077" lon="5.52582">
        <ele>352.3</ele>
        <time>2020-06-25T18:46:06Z</time>
      </trkpt>
      <trkpt lat="49.68074" lon="5.52586">
        <ele>352.2</ele>
        <time>2020-06-25T18:46:07Z</time>
      </trkpt>
      <trkpt lat="49.6807" lon="5.5259">
        <ele>352.2</ele>
        <time>2020-06-25T18:46:08Z</time>
      </trkpt>
      <trkpt lat="49.68066" lon="5.52595">
        <ele>352.1</ele>
        <time>2020-06-25T18:46:09Z</time>
      </trkpt>
      <trkpt lat="49.68063" lon="5.526">
        <ele>352.1</ele>
        <time>2020-06-25T18:46:10Z</time>
      </trkpt>
      <trkpt lat="49.68058" lon="5.52603">
        <ele>352</ele>
        <time>2020-06-25T18:46:11Z</time>
      </trkpt>
      <trkpt lat="49.68053" lon="5.52607">
        <ele>351.9</ele>
        <time>2020-06-25T18:46:12Z</time>
      </trkpt>
      <trkpt lat="49.68051" lon="5.52612">
        <ele>351.9</ele>
        <time>2020-06-25T18:46:13Z</time>
      </trkpt>
      <trkpt lat="49.68048" lon="5.52616">
        <ele>351.8</ele>
        <time>2020-06-25T18:46:14Z</time>
      </trkpt>
      <trkpt lat="49.68044" lon="5.52622">
        <ele>351.7</ele>
        <time>2020-06-25T18:46:15Z</time>
      </trkpt>
      <trkpt lat="49.68039" lon="5.52628">
        <ele>351.7</ele>
        <time>2020-06-25T18:46:16Z</time>
      </trkpt>
      <trkpt lat="49.68035" lon="5.52635">
        <ele>351.6</ele>
        <time>2020-06-25T18:46:17Z</time>
      </trkpt>
      <trkpt lat="49.68032" lon="5.52642">
        <ele>351.5</ele>
        <time>2020-06-25T18:46:18Z</time>
      </trkpt>
      <trkpt lat="49.68029" lon="5.52648">
        <ele>351.5</ele>
        <time>2020-06-25T18:46:19Z</time>
      </trkpt>
      <trkpt lat="49.68025" lon="5.52655">
        <ele>351.4</ele>
        <time>2020-06-25T18:46:20Z</time>
      </trkpt>
      <trkpt lat="49.68022" lon="5.52662">
        <ele>351.3</ele>
        <time>2020-06-25T18:46:21Z</time>
      </trkpt>
      <trkpt lat="49.68018" lon="5.52668">
        <ele>351.3</ele>
        <time>2020-06-25T18:46:22Z</time>
      </trkpt>
      <trkpt lat="49.68015" lon="5.52674">
        <ele>351.2</ele>
        <time>2020-06-25T18:46:23Z</time>
      </trkpt>
      <trkpt lat="49.68011" lon="5.52681">
        <ele>351.1</ele>
        <time>2020-06-25T18:46:24Z</time>
      </trkpt>
      <trkpt lat="49.68008" lon="5.52687">
        <ele>351.1</ele>
        <time>2020-06-25T18:46:25Z</time>
      </trkpt>
      <trkpt lat="49.68005" lon="5.52694">
        <ele>351</ele>
        <time>2020-06-25T18:46:26Z</time>
      </trkpt>
      <trkpt lat="49.68003" lon="5.52701">
        <ele>350.9</ele>
        <time>2020-06-25T18:46:27Z</time>
      </trkpt>
      <trkpt lat="49.68" lon="5.52707">
        <ele>350.8</ele>
        <time>2020-06-25T18:46:28Z</time>
      </trkpt>
      <trkpt lat="49.67997" lon="5.52714">
        <ele>350.7</ele>
        <time>2020-06-25T18:46:29Z</time>
      </trkpt>
      <trkpt lat="49.67994" lon="5.5272">
        <ele>350.6</ele>
        <time>2020-06-25T18:46:30Z</time>
      </trkpt>
      <trkpt lat="49.67991" lon="5.52727">
        <ele>350.6</ele>
        <time>2020-06-25T18:46:31Z</time>
      </trkpt>
      <trkpt lat="49.67989" lon="5.52733">
        <ele>350.5</ele>
        <time>2020-06-25T18:46:32Z</time>
      </trkpt>
      <trkpt lat="49.67986" lon="5.52739">
        <ele>350.5</ele>
        <time>2020-06-25T18:46:33Z</time>
      </trkpt>
      <trkpt lat="49.67983" lon="5.52747">
        <ele>350.4</ele>
        <time>2020-06-25T18:46:34Z</time>
      </trkpt>
      <trkpt lat="49.6798" lon="5.52754">
        <ele>350.3</ele>
        <time>2020-06-25T18:46:35Z</time>
      </trkpt>
      <trkpt lat="49.67977" lon="5.52762">
        <ele>350.3</ele>
        <time>2020-06-25T18:46:36Z</time>
      </trkpt>
      <trkpt lat="49.67975" lon="5.52769">
        <ele>350.2</ele>
        <time>2020-06-25T18:46:37Z</time>
      </trkpt>
      <trkpt lat="49.67972" lon="5.52777">
        <ele>350.2</ele>
        <time>2020-06-25T18:46:38Z</time>
      </trkpt>
      <trkpt lat="49.67969" lon="5.52787">
        <ele>350.2</ele>
        <time>2020-06-25T18:46:39Z</time>
      </trkpt>
      <trkpt lat="49.67967" lon="5.52794">
        <ele>350.2</ele>
        <time>2020-06-25T18:46:40Z</time>
      </trkpt>
      <trkpt lat="49.67965" lon="5.52803">
        <ele>350.2</ele>
        <time>2020-06-25T18:46:41Z</time>
      </trkpt>
      <trkpt lat="49.67963" lon="5.52811">
        <ele>350.2</ele>
        <time>2020-06-25T18:46:42Z</time>
      </trkpt>
      <trkpt lat="49.67961" lon="5.52819">
        <ele>350.2</ele>
        <time>2020-06-25T18:46:43Z</time>
      </trkpt>
      <trkpt lat="49.6796" lon="5.52827">
        <ele>350.2</ele>
        <time>2020-06-25T18:46:44Z</time>
      </trkpt>
      <trkpt lat="49.67958" lon="5.52836">
        <ele>350.2</ele>
        <time>2020-06-25T18:46:45Z</time>
      </trkpt>
      <trkpt lat="49.67956" lon="5.52846">
        <ele>350.1</ele>
        <time>2020-06-25T18:46:46Z</time>
      </trkpt>
      <trkpt lat="49.67954" lon="5.52854">
        <ele>350</ele>
        <time>2020-06-25T18:46:47Z</time>
      </trkpt>
      <trkpt lat="49.67952" lon="5.52862">
        <ele>349.9</ele>
        <time>2020-06-25T18:46:48Z</time>
      </trkpt>
      <trkpt lat="49.67951" lon="5.52871">
        <ele>349.8</ele>
        <time>2020-06-25T18:46:49Z</time>
      </trkpt>
      <trkpt lat="49.6795" lon="5.5288">
        <ele>349.7</ele>
        <time>2020-06-25T18:46:50Z</time>
      </trkpt>
      <trkpt lat="49.67949" lon="5.52888">
        <ele>349.6</ele>
        <time>2020-06-25T18:46:51Z</time>
      </trkpt>
      <trkpt lat="49.67948" lon="5.52897">
        <ele>349.5</ele>
        <time>2020-06-25T18:46:52Z</time>
      </trkpt>
      <trkpt lat="49.67947" lon="5.52906">
        <ele>349.5</ele>
        <time>2020-06-25T18:46:53Z</time>
      </trkpt>
      <trkpt lat="49.67946" lon="5.52916">
        <ele>349.5</ele>
        <time>2020-06-25T18:46:54Z</time>
      </trkpt>
      <trkpt lat="49.67944" lon="5.52926">
        <ele>349.4</ele>
        <time>2020-06-25T18:46:55Z</time>
      </trkpt>
      <trkpt lat="49.67943" lon="5.52936">
        <ele>349.3</ele>
        <time>2020-06-25T18:46:56Z</time>
      </trkpt>
      <trkpt lat="49.67943" lon="5.52946">
        <ele>349.3</ele>
        <time>2020-06-25T18:46:57Z</time>
      </trkpt>
      <trkpt lat="49.67942" lon="5.52954">
        <ele>349.2</ele>
        <time>2020-06-25T18:46:58Z</time>
      </trkpt>
      <trkpt lat="49.67942" lon="5.52963">
        <ele>349.1</ele>
        <time>2020-06-25T18:46:59Z</time>
      </trkpt>
      <trkpt lat="49.67942" lon="5.52973">
        <ele>348.9</ele>
        <time>2020-06-25T18:47:00Z</time>
      </trkpt>
      <trkpt lat="49.67942" lon="5.52981">
        <ele>348.8</ele>
        <time>2020-06-25T18:47:01Z</time>
      </trkpt>
      <trkpt lat="49.67941" lon="5.52991">
        <ele>348.7</ele>
        <time>2020-06-25T18:47:02Z</time>
      </trkpt>
      <trkpt lat="49.67941" lon="5.52999">
        <ele>348.7</ele>
        <time>2020-06-25T18:47:03Z</time>
      </trkpt>
      <trkpt lat="49.67941" lon="5.53009">
        <ele>348.6</ele>
        <time>2020-06-25T18:47:04Z</time>
      </trkpt>
      <trkpt lat="49.6794" lon="5.53018">
        <ele>348.5</ele>
        <time>2020-06-25T18:47:05Z</time>
      </trkpt>
      <trkpt lat="49.67939" lon="5.53026">
        <ele>348.5</ele>
        <time>2020-06-25T18:47:06Z</time>
      </trkpt>
      <trkpt lat="49.67938" lon="5.53035">
        <ele>348.4</ele>
        <time>2020-06-25T18:47:07Z</time>
      </trkpt>
      <trkpt lat="49.67938" lon="5.53047">
        <ele>348.4</ele>
        <time>2020-06-25T18:47:08Z</time>
      </trkpt>
      <trkpt lat="49.67938" lon="5.53056">
        <ele>348.3</ele>
        <time>2020-06-25T18:47:09Z</time>
      </trkpt>
      <trkpt lat="49.67938" lon="5.53064">
        <ele>348.2</ele>
        <time>2020-06-25T18:47:10Z</time>
      </trkpt>
      <trkpt lat="49.67938" lon="5.53074">
        <ele>348.1</ele>
        <time>2020-06-25T18:47:11Z</time>
      </trkpt>
      <trkpt lat="49.67938" lon="5.53083">
        <ele>348</ele>
        <time>2020-06-25T18:47:12Z</time>
      </trkpt>
      <trkpt lat="49.67937" lon="5.53092">
        <ele>347.9</ele>
        <time>2020-06-25T18:47:13Z</time>
      </trkpt>
      <trkpt lat="49.67937" lon="5.53102">
        <ele>347.8</ele>
        <time>2020-06-25T18:47:14Z</time>
      </trkpt>
      <trkpt lat="49.67936" lon="5.53112">
        <ele>347.7</ele>
        <time>2020-06-25T18:47:15Z</time>
      </trkpt>
      <trkpt lat="49.67936" lon="5.5312">
        <ele>347.6</ele>
        <time>2020-06-25T18:47:16Z</time>
      </trkpt>
      <trkpt lat="49.67936" lon="5.5313">
        <ele>347.5</ele>
        <time>2020-06-25T18:47:17Z</time>
      </trkpt>
      <trkpt lat="49.67936" lon="5.5314">
        <ele>347.4</ele>
        <time>2020-06-25T18:47:18Z</time>
      </trkpt>
      <trkpt lat="49.67934" lon="5.5315">
        <ele>347.3</ele>
        <time>2020-06-25T18:47:19Z</time>
      </trkpt>
      <trkpt lat="49.67933" lon="5.5316">
        <ele>347.3</ele>
        <time>2020-06-25T18:47:20Z</time>
      </trkpt>
      <trkpt lat="49.67933" lon="5.53168">
        <ele>347.3</ele>
        <time>2020-06-25T18:47:21Z</time>
      </trkpt>
      <trkpt lat="49.67932" lon="5.53178">
        <ele>347.2</ele>
        <time>2020-06-25T18:47:22Z</time>
      </trkpt>
      <trkpt lat="49.67931" lon="5.53186">
        <ele>347.2</ele>
        <time>2020-06-25T18:47:23Z</time>
      </trkpt>
      <trkpt lat="49.67929" lon="5.53195">
        <ele>347.2</ele>
        <time>2020-06-25T18:47:24Z</time>
      </trkpt>
      <trkpt lat="49.67928" lon="5.53204">
        <ele>347.2</ele>
        <time>2020-06-25T18:47:25Z</time>
      </trkpt>
      <trkpt lat="49.67927" lon="5.53213">
        <ele>347.1</ele>
        <time>2020-06-25T18:47:26Z</time>
      </trkpt>
      <trkpt lat="49.67927" lon="5.53221">
        <ele>347</ele>
        <time>2020-06-25T18:47:27Z</time>
      </trkpt>
      <trkpt lat="49.67926" lon="5.5323">
        <ele>346.9</ele>
        <time>2020-06-25T18:47:28Z</time>
      </trkpt>
      <trkpt lat="49.67925" lon="5.53238">
        <ele>346.8</ele>
        <time>2020-06-25T18:47:29Z</time>
      </trkpt>
      <trkpt lat="49.67924" lon="5.53247">
        <ele>346.8</ele>
        <time>2020-06-25T18:47:30Z</time>
      </trkpt>
      <trkpt lat="49.67923" lon="5.53258">
        <ele>346.7</ele>
        <time>2020-06-25T18:47:31Z</time>
      </trkpt>
      <trkpt lat="49.67921" lon="5.53269">
        <ele>346.6</ele>
        <time>2020-06-25T18:47:32Z</time>
      </trkpt>
      <trkpt lat="49.6792" lon="5.53278">
        <ele>346.5</ele>
        <time>2020-06-25T18:47:33Z</time>
      </trkpt>
      <trkpt lat="49.67918" lon="5.53288">
        <ele>346.4</ele>
        <time>2020-06-25T18:47:34Z</time>
      </trkpt>
      <trkpt lat="49.67917" lon="5.53296">
        <ele>346.4</ele>
        <time>2020-06-25T18:47:35Z</time>
      </trkpt>
      <trkpt lat="49.67915" lon="5.53306">
        <ele>346.3</ele>
        <time>2020-06-25T18:47:36Z</time>
      </trkpt>
      <trkpt lat="49.67914" lon="5.53316">
        <ele>346.2</ele>
        <time>2020-06-25T18:47:37Z</time>
      </trkpt>
      <trkpt lat="49.67913" lon="5.53325">
        <ele>346.1</ele>
        <time>2020-06-25T18:47:38Z</time>
      </trkpt>
      <trkpt lat="49.67912" lon="5.53334">
        <ele>346.1</ele>
        <time>2020-06-25T18:47:39Z</time>
      </trkpt>
      <trkpt lat="49.6791" lon="5.53341">
        <ele>346</ele>
        <time>2020-06-25T18:47:40Z</time>
      </trkpt>
      <trkpt lat="49.67909" lon="5.53351">
        <ele>346</ele>
        <time>2020-06-25T18:47:41Z</time>
      </trkpt>
      <trkpt lat="49.67907" lon="5.5336">
        <ele>345.9</ele>
        <time>2020-06-25T18:47:42Z</time>
      </trkpt>
      <trkpt lat="49.67906" lon="5.53369">
        <ele>345.9</ele>
        <time>2020-06-25T18:47:43Z</time>
      </trkpt>
      <trkpt lat="49.67904" lon="5.53378">
        <ele>345.8</ele>
        <time>2020-06-25T18:47:44Z</time>
      </trkpt>
      <trkpt lat="49.67902" lon="5.53386">
        <ele>345.7</ele>
        <time>2020-06-25T18:47:45Z</time>
      </trkpt>
      <trkpt lat="49.67901" lon="5.53396">
        <ele>345.7</ele>
        <time>2020-06-25T18:47:46Z</time>
      </trkpt>
      <trkpt lat="49.67899" lon="5.53405">
        <ele>345.6</ele>
        <time>2020-06-25T18:47:47Z</time>
      </trkpt>
      <trkpt lat="49.67898" lon="5.53414">
        <ele>345.5</ele>
        <time>2020-06-25T18:47:48Z</time>
      </trkpt>
      <trkpt lat="49.67896" lon="5.53424">
        <ele>345.4</ele>
        <time>2020-06-25T18:47:49Z</time>
      </trkpt>
      <trkpt lat="49.67895" lon="5.53434">
        <ele>345.4</ele>
        <time>2020-06-25T18:47:50Z</time>
      </trkpt>
      <trkpt lat="49.67893" lon="5.53441">
        <ele>345.3</ele>
        <time>2020-06-25T18:47:51Z</time>
      </trkpt>
      <trkpt lat="49.67891" lon="5.53452">
        <ele>345.3</ele>
        <time>2020-06-25T18:47:52Z</time>
      </trkpt>
      <trkpt lat="49.67889" lon="5.5346">
        <ele>345.2</ele>
        <time>2020-06-25T18:47:53Z</time>
      </trkpt>
      <trkpt lat="49.67887" lon="5.5347">
        <ele>345.2</ele>
        <time>2020-06-25T18:47:54Z</time>
      </trkpt>
      <trkpt lat="49.67885" lon="5.53479">
        <ele>345.1</ele>
        <time>2020-06-25T18:47:55Z</time>
      </trkpt>
      <trkpt lat="49.67883" lon="5.53487">
        <ele>345</ele>
        <time>2020-06-25T18:47:56Z</time>
      </trkpt>
      <trkpt lat="49.67881" lon="5.53495">
        <ele>345</ele>
        <time>2020-06-25T18:47:57Z</time>
      </trkpt>
      <trkpt lat="49.67879" lon="5.53504">
        <ele>344.9</ele>
        <time>2020-06-25T18:47:58Z</time>
      </trkpt>
      <trkpt lat="49.67877" lon="5.53512">
        <ele>344.9</ele>
        <time>2020-06-25T18:47:59Z</time>
      </trkpt>
      <trkpt lat="49.67875" lon="5.53521">
        <ele>344.8</ele>
        <time>2020-06-25T18:48:00Z</time>
      </trkpt>
      <trkpt lat="49.67873" lon="5.53531">
        <ele>344.7</ele>
        <time>2020-06-25T18:48:01Z</time>
      </trkpt>
      <trkpt lat="49.67869" lon="5.53541">
        <ele>344.6</ele>
        <time>2020-06-25T18:48:02Z</time>
      </trkpt>
      <trkpt lat="49.67867" lon="5.5355">
        <ele>344.5</ele>
        <time>2020-06-25T18:48:03Z</time>
      </trkpt>
      <trkpt lat="49.67865" lon="5.53559">
        <ele>344.4</ele>
        <time>2020-06-25T18:48:04Z</time>
      </trkpt>
      <trkpt lat="49.67863" lon="5.53567">
        <ele>344.4</ele>
        <time>2020-06-25T18:48:05Z</time>
      </trkpt>
      <trkpt lat="49.67861" lon="5.53576">
        <ele>344.3</ele>
        <time>2020-06-25T18:48:06Z</time>
      </trkpt>
      <trkpt lat="49.67859" lon="5.53584">
        <ele>344.3</ele>
        <time>2020-06-25T18:48:07Z</time>
      </trkpt>
      <trkpt lat="49.67856" lon="5.53593">
        <ele>344.2</ele>
        <time>2020-06-25T18:48:08Z</time>
      </trkpt>
      <trkpt lat="49.67854" lon="5.53601">
        <ele>344.1</ele>
        <time>2020-06-25T18:48:09Z</time>
      </trkpt>
      <trkpt lat="49.67852" lon="5.53609">
        <ele>344.1</ele>
        <time>2020-06-25T18:48:10Z</time>
      </trkpt>
      <trkpt lat="49.67849" lon="5.53618">
        <ele>344</ele>
        <time>2020-06-25T18:48:11Z</time>
      </trkpt>
      <trkpt lat="49.67847" lon="5.53628">
        <ele>343.9</ele>
        <time>2020-06-25T18:48:12Z</time>
      </trkpt>
      <trkpt lat="49.67845" lon="5.53636">
        <ele>343.8</ele>
        <time>2020-06-25T18:48:13Z</time>
      </trkpt>
      <trkpt lat="49.67842" lon="5.53645">
        <ele>343.8</ele>
        <time>2020-06-25T18:48:14Z</time>
      </trkpt>
      <trkpt lat="49.67839" lon="5.53654">
        <ele>343.7</ele>
        <time>2020-06-25T18:48:15Z</time>
      </trkpt>
      <trkpt lat="49.67837" lon="5.53663">
        <ele>343.6</ele>
        <time>2020-06-25T18:48:16Z</time>
      </trkpt>
      <trkpt lat="49.67834" lon="5.53672">
        <ele>343.5</ele>
        <time>2020-06-25T18:48:17Z</time>
      </trkpt>
      <trkpt lat="49.67831" lon="5.5368">
        <ele>343.5</ele>
        <time>2020-06-25T18:48:18Z</time>
      </trkpt>
      <trkpt lat="49.6783" lon="5.53687">
        <ele>343.4</ele>
        <time>2020-06-25T18:48:19Z</time>
      </trkpt>
      <trkpt lat="49.67827" lon="5.53696">
        <ele>343.3</ele>
        <time>2020-06-25T18:48:20Z</time>
      </trkpt>
      <trkpt lat="49.67825" lon="5.53708">
        <ele>343.2</ele>
        <time>2020-06-25T18:48:21Z</time>
      </trkpt>
      <trkpt lat="49.67822" lon="5.53716">
        <ele>343.2</ele>
        <time>2020-06-25T18:48:22Z</time>
      </trkpt>
      <trkpt lat="49.67821" lon="5.53723">
        <ele>343.1</ele>
        <time>2020-06-25T18:48:23Z</time>
      </trkpt>
      <trkpt lat="49.67819" lon="5.5373">
        <ele>343.1</ele>
        <time>2020-06-25T18:48:24Z</time>
      </trkpt>
      <trkpt lat="49.67817" lon="5.53736">
        <ele>343</ele>
        <time>2020-06-25T18:48:25Z</time>
      </trkpt>
      <trkpt lat="49.67814" lon="5.53745">
        <ele>342.9</ele>
        <time>2020-06-25T18:48:26Z</time>
      </trkpt>
      <trkpt lat="49.67812" lon="5.53754">
        <ele>342.9</ele>
        <time>2020-06-25T18:48:27Z</time>
      </trkpt>
      <trkpt lat="49.67809" lon="5.53763">
        <ele>342.8</ele>
        <time>2020-06-25T18:48:28Z</time>
      </trkpt>
      <trkpt lat="49.67807" lon="5.53772">
        <ele>342.7</ele>
        <time>2020-06-25T18:48:29Z</time>
      </trkpt>
      <trkpt lat="49.67805" lon="5.53782">
        <ele>342.6</ele>
        <time>2020-06-25T18:48:30Z</time>
      </trkpt>
      <trkpt lat="49.67803" lon="5.5379">
        <ele>342.5</ele>
        <time>2020-06-25T18:48:31Z</time>
      </trkpt>
      <trkpt lat="49.678" lon="5.53798">
        <ele>342.4</ele>
        <time>2020-06-25T18:48:32Z</time>
      </trkpt>
      <trkpt lat="49.67798" lon="5.53806">
        <ele>342.4</ele>
        <time>2020-06-25T18:48:33Z</time>
      </trkpt>
      <trkpt lat="49.67796" lon="5.53814">
        <ele>342.3</ele>
        <time>2020-06-25T18:48:34Z</time>
      </trkpt>
      <trkpt lat="49.67794" lon="5.53823">
        <ele>342.2</ele>
        <time>2020-06-25T18:48:35Z</time>
      </trkpt>
      <trkpt lat="49.67792" lon="5.53833">
        <ele>342.2</ele>
        <time>2020-06-25T18:48:36Z</time>
      </trkpt>
      <trkpt lat="49.6779" lon="5.53841">
        <ele>342.1</ele>
        <time>2020-06-25T18:48:37Z</time>
      </trkpt>
      <trkpt lat="49.67789" lon="5.5385">
        <ele>342</ele>
        <time>2020-06-25T18:48:38Z</time>
      </trkpt>
      <trkpt lat="49.67786" lon="5.53859">
        <ele>341.9</ele>
        <time>2020-06-25T18:48:39Z</time>
      </trkpt>
      <trkpt lat="49.67783" lon="5.53868">
        <ele>341.8</ele>
        <time>2020-06-25T18:48:40Z</time>
      </trkpt>
      <trkpt lat="49.67781" lon="5.53877">
        <ele>341.8</ele>
        <time>2020-06-25T18:48:41Z</time>
      </trkpt>
      <trkpt lat="49.67778" lon="5.53885">
        <ele>341.7</ele>
        <time>2020-06-25T18:48:42Z</time>
      </trkpt>
      <trkpt lat="49.67775" lon="5.53895">
        <ele>341.7</ele>
        <time>2020-06-25T18:48:43Z</time>
      </trkpt>
      <trkpt lat="49.67773" lon="5.53904">
        <ele>341.6</ele>
        <time>2020-06-25T18:48:44Z</time>
      </trkpt>
      <trkpt lat="49.6777" lon="5.53913">
        <ele>341.6</ele>
        <time>2020-06-25T18:48:45Z</time>
      </trkpt>
      <trkpt lat="49.67767" lon="5.53921">
        <ele>341.5</ele>
        <time>2020-06-25T18:48:46Z</time>
      </trkpt>
      <trkpt lat="49.67765" lon="5.53929">
        <ele>341.5</ele>
        <time>2020-06-25T18:48:47Z</time>
      </trkpt>
      <trkpt lat="49.67763" lon="5.53938">
        <ele>341.4</ele>
        <time>2020-06-25T18:48:48Z</time>
      </trkpt>
      <trkpt lat="49.67761" lon="5.53947">
        <ele>341.4</ele>
        <time>2020-06-25T18:48:49Z</time>
      </trkpt>
      <trkpt lat="49.67758" lon="5.53956">
        <ele>341.3</ele>
        <time>2020-06-25T18:48:50Z</time>
      </trkpt>
      <trkpt lat="49.67755" lon="5.53964">
        <ele>341.2</ele>
        <time>2020-06-25T18:48:51Z</time>
      </trkpt>
      <trkpt lat="49.67753" lon="5.53973">
        <ele>341.2</ele>
        <time>2020-06-25T18:48:52Z</time>
      </trkpt>
      <trkpt lat="49.67751" lon="5.53979">
        <ele>341.1</ele>
        <time>2020-06-25T18:48:53Z</time>
      </trkpt>
      <trkpt lat="49.67749" lon="5.53987">
        <ele>341</ele>
        <time>2020-06-25T18:48:54Z</time>
      </trkpt>
      <trkpt lat="49.67746" lon="5.53996">
        <ele>340.9</ele>
        <time>2020-06-25T18:48:55Z</time>
      </trkpt>
      <trkpt lat="49.67745" lon="5.54002">
        <ele>340.9</ele>
        <time>2020-06-25T18:48:56Z</time>
      </trkpt>
      <trkpt lat="49.67743" lon="5.54011">
        <ele>340.8</ele>
        <time>2020-06-25T18:48:57Z</time>
      </trkpt>
      <trkpt lat="49.67741" lon="5.5402">
        <ele>340.7</ele>
        <time>2020-06-25T18:48:58Z</time>
      </trkpt>
      <trkpt lat="49.67738" lon="5.54028">
        <ele>340.5</ele>
        <time>2020-06-25T18:48:59Z</time>
      </trkpt>
      <trkpt lat="49.67736" lon="5.54036">
        <ele>340.5</ele>
        <time>2020-06-25T18:49:00Z</time>
      </trkpt>
      <trkpt lat="49.67734" lon="5.54044">
        <ele>340.5</ele>
        <time>2020-06-25T18:49:01Z</time>
      </trkpt>
      <trkpt lat="49.67732" lon="5.54052">
        <ele>340.4</ele>
        <time>2020-06-25T18:49:02Z</time>
      </trkpt>
      <trkpt lat="49.6773" lon="5.54061">
        <ele>340.3</ele>
        <time>2020-06-25T18:49:03Z</time>
      </trkpt>
      <trkpt lat="49.67728" lon="5.5407">
        <ele>340.2</ele>
        <time>2020-06-25T18:49:04Z</time>
      </trkpt>
      <trkpt lat="49.67726" lon="5.54079">
        <ele>340.2</ele>
        <time>2020-06-25T18:49:05Z</time>
      </trkpt>
      <trkpt lat="49.67724" lon="5.54087">
        <ele>340.1</ele>
        <time>2020-06-25T18:49:06Z</time>
      </trkpt>
      <trkpt lat="49.67722" lon="5.54095">
        <ele>340</ele>
        <time>2020-06-25T18:49:07Z</time>
      </trkpt>
      <trkpt lat="49.6772" lon="5.54103">
        <ele>339.9</ele>
        <time>2020-06-25T18:49:08Z</time>
      </trkpt>
      <trkpt lat="49.67718" lon="5.54111">
        <ele>339.9</ele>
        <time>2020-06-25T18:49:09Z</time>
      </trkpt>
      <trkpt lat="49.67715" lon="5.5412">
        <ele>339.8</ele>
        <time>2020-06-25T18:49:10Z</time>
      </trkpt>
      <trkpt lat="49.67713" lon="5.54127">
        <ele>339.7</ele>
        <time>2020-06-25T18:49:11Z</time>
      </trkpt>
      <trkpt lat="49.6771" lon="5.54135">
        <ele>339.6</ele>
        <time>2020-06-25T18:49:12Z</time>
      </trkpt>
      <trkpt lat="49.67708" lon="5.54144">
        <ele>339.6</ele>
        <time>2020-06-25T18:49:13Z</time>
      </trkpt>
      <trkpt lat="49.67706" lon="5.54152">
        <ele>339.5</ele>
        <time>2020-06-25T18:49:14Z</time>
      </trkpt>
      <trkpt lat="49.67705" lon="5.54162">
        <ele>339.4</ele>
        <time>2020-06-25T18:49:15Z</time>
      </trkpt>
      <trkpt lat="49.67702" lon="5.54172">
        <ele>339.3</ele>
        <time>2020-06-25T18:49:16Z</time>
      </trkpt>
      <trkpt lat="49.677" lon="5.54182">
        <ele>339.2</ele>
        <time>2020-06-25T18:49:17Z</time>
      </trkpt>
      <trkpt lat="49.67698" lon="5.5419">
        <ele>339.1</ele>
        <time>2020-06-25T18:49:18Z</time>
      </trkpt>
      <trkpt lat="49.67696" lon="5.542">
        <ele>339</ele>
        <time>2020-06-25T18:49:19Z</time>
      </trkpt>
      <trkpt lat="49.67694" lon="5.54209">
        <ele>338.9</ele>
        <time>2020-06-25T18:49:20Z</time>
      </trkpt>
      <trkpt lat="49.67691" lon="5.54218">
        <ele>338.8</ele>
        <time>2020-06-25T18:49:21Z</time>
      </trkpt>
      <trkpt lat="49.67689" lon="5.54227">
        <ele>338.6</ele>
        <time>2020-06-25T18:49:22Z</time>
      </trkpt>
      <trkpt lat="49.67686" lon="5.54237">
        <ele>338.5</ele>
        <time>2020-06-25T18:49:23Z</time>
      </trkpt>
      <trkpt lat="49.67683" lon="5.54246">
        <ele>338.3</ele>
        <time>2020-06-25T18:49:24Z</time>
      </trkpt>
      <trkpt lat="49.6768" lon="5.54256">
        <ele>338.2</ele>
        <time>2020-06-25T18:49:25Z</time>
      </trkpt>
      <trkpt lat="49.67678" lon="5.54265">
        <ele>338</ele>
        <time>2020-06-25T18:49:26Z</time>
      </trkpt>
      <trkpt lat="49.67675" lon="5.54272">
        <ele>337.9</ele>
        <time>2020-06-25T18:49:27Z</time>
      </trkpt>
      <trkpt lat="49.67673" lon="5.54281">
        <ele>337.7</ele>
        <time>2020-06-25T18:49:28Z</time>
      </trkpt>
      <trkpt lat="49.6767" lon="5.54291">
        <ele>337.6</ele>
        <time>2020-06-25T18:49:29Z</time>
      </trkpt>
      <trkpt lat="49.67667" lon="5.543">
        <ele>337.4</ele>
        <time>2020-06-25T18:49:30Z</time>
      </trkpt>
      <trkpt lat="49.67665" lon="5.54309">
        <ele>337.3</ele>
        <time>2020-06-25T18:49:31Z</time>
      </trkpt>
      <trkpt lat="49.67662" lon="5.54319">
        <ele>337.1</ele>
        <time>2020-06-25T18:49:32Z</time>
      </trkpt>
      <trkpt lat="49.6766" lon="5.54328">
        <ele>336.9</ele>
        <time>2020-06-25T18:49:33Z</time>
      </trkpt>
      <trkpt lat="49.67656" lon="5.54337">
        <ele>336.7</ele>
        <time>2020-06-25T18:49:34Z</time>
      </trkpt>
      <trkpt lat="49.67654" lon="5.54345">
        <ele>336.6</ele>
        <time>2020-06-25T18:49:35Z</time>
      </trkpt>
      <trkpt lat="49.6765" lon="5.54355">
        <ele>336.4</ele>
        <time>2020-06-25T18:49:36Z</time>
      </trkpt>
      <trkpt lat="49.67647" lon="5.54364">
        <ele>336.3</ele>
        <time>2020-06-25T18:49:37Z</time>
      </trkpt>
      <trkpt lat="49.67644" lon="5.54374">
        <ele>336.1</ele>
        <time>2020-06-25T18:49:38Z</time>
      </trkpt>
      <trkpt lat="49.67642" lon="5.54384">
        <ele>336</ele>
        <time>2020-06-25T18:49:39Z</time>
      </trkpt>
      <trkpt lat="49.67639" lon="5.54394">
        <ele>335.8</ele>
        <time>2020-06-25T18:49:40Z</time>
      </trkpt>
      <trkpt lat="49.67636" lon="5.54404">
        <ele>335.6</ele>
        <time>2020-06-25T18:49:41Z</time>
      </trkpt>
      <trkpt lat="49.67633" lon="5.54415">
        <ele>335.4</ele>
        <time>2020-06-25T18:49:42Z</time>
      </trkpt>
      <trkpt lat="49.6763" lon="5.54425">
        <ele>335.3</ele>
        <time>2020-06-25T18:49:43Z</time>
      </trkpt>
      <trkpt lat="49.67626" lon="5.54433">
        <ele>335.1</ele>
        <time>2020-06-25T18:49:44Z</time>
      </trkpt>
      <trkpt lat="49.67623" lon="5.54443">
        <ele>334.9</ele>
        <time>2020-06-25T18:49:45Z</time>
      </trkpt>
      <trkpt lat="49.6762" lon="5.54453">
        <ele>334.7</ele>
        <time>2020-06-25T18:49:46Z</time>
      </trkpt>
      <trkpt lat="49.67617" lon="5.54463">
        <ele>334.5</ele>
        <time>2020-06-25T18:49:47Z</time>
      </trkpt>
      <trkpt lat="49.67613" lon="5.54472">
        <ele>334.3</ele>
        <time>2020-06-25T18:49:48Z</time>
      </trkpt>
      <trkpt lat="49.6761" lon="5.5448">
        <ele>334.2</ele>
        <time>2020-06-25T18:49:49Z</time>
      </trkpt>
      <trkpt lat="49.67607" lon="5.54488">
        <ele>334.1</ele>
        <time>2020-06-25T18:49:50Z</time>
      </trkpt>
      <trkpt lat="49.67604" lon="5.54497">
        <ele>334</ele>
        <time>2020-06-25T18:49:51Z</time>
      </trkpt>
      <trkpt lat="49.67601" lon="5.54505">
        <ele>333.9</ele>
        <time>2020-06-25T18:49:52Z</time>
      </trkpt>
      <trkpt lat="49.67598" lon="5.54513">
        <ele>333.9</ele>
        <time>2020-06-25T18:49:53Z</time>
      </trkpt>
      <trkpt lat="49.67595" lon="5.54522">
        <ele>333.8</ele>
        <time>2020-06-25T18:49:54Z</time>
      </trkpt>
      <trkpt lat="49.67593" lon="5.5453">
        <ele>333.8</ele>
        <time>2020-06-25T18:49:55Z</time>
      </trkpt>
      <trkpt lat="49.67591" lon="5.54538">
        <ele>333.7</ele>
        <time>2020-06-25T18:49:56Z</time>
      </trkpt>
      <trkpt lat="49.67588" lon="5.54547">
        <ele>333.7</ele>
        <time>2020-06-25T18:49:57Z</time>
      </trkpt>
      <trkpt lat="49.67586" lon="5.54555">
        <ele>333.7</ele>
        <time>2020-06-25T18:49:58Z</time>
      </trkpt>
      <trkpt lat="49.67584" lon="5.54562">
        <ele>333.7</ele>
        <time>2020-06-25T18:49:59Z</time>
      </trkpt>
      <trkpt lat="49.67581" lon="5.54571">
        <ele>333.7</ele>
        <time>2020-06-25T18:50:00Z</time>
      </trkpt>
      <trkpt lat="49.67578" lon="5.54579">
        <ele>333.7</ele>
        <time>2020-06-25T18:50:01Z</time>
      </trkpt>
      <trkpt lat="49.67575" lon="5.54586">
        <ele>333.6</ele>
        <time>2020-06-25T18:50:02Z</time>
      </trkpt>
      <trkpt lat="49.67572" lon="5.54593">
        <ele>333.6</ele>
        <time>2020-06-25T18:50:03Z</time>
      </trkpt>
      <trkpt lat="49.6757" lon="5.54601">
        <ele>333.5</ele>
        <time>2020-06-25T18:50:04Z</time>
      </trkpt>
      <trkpt lat="49.67569" lon="5.54611">
        <ele>333.4</ele>
        <time>2020-06-25T18:50:05Z</time>
      </trkpt>
      <trkpt lat="49.67566" lon="5.54619">
        <ele>333.4</ele>
        <time>2020-06-25T18:50:06Z</time>
      </trkpt>
      <trkpt lat="49.67562" lon="5.54629">
        <ele>333.4</ele>
        <time>2020-06-25T18:50:07Z</time>
      </trkpt>
      <trkpt lat="49.6756" lon="5.54637">
        <ele>333.5</ele>
        <time>2020-06-25T18:50:08Z</time>
      </trkpt>
      <trkpt lat="49.67558" lon="5.54646">
        <ele>333.5</ele>
        <time>2020-06-25T18:50:09Z</time>
      </trkpt>
      <trkpt lat="49.67555" lon="5.54656">
        <ele>333.6</ele>
        <time>2020-06-25T18:50:10Z</time>
      </trkpt>
      <trkpt lat="49.67554" lon="5.54663">
        <ele>333.6</ele>
        <time>2020-06-25T18:50:11Z</time>
      </trkpt>
      <trkpt lat="49.67552" lon="5.5467">
        <ele>333.7</ele>
        <time>2020-06-25T18:50:12Z</time>
      </trkpt>
      <trkpt lat="49.6755" lon="5.54677">
        <ele>333.7</ele>
        <time>2020-06-25T18:50:13Z</time>
      </trkpt>
      <trkpt lat="49.67548" lon="5.54683">
        <ele>333.8</ele>
        <time>2020-06-25T18:50:14Z</time>
      </trkpt>
      <trkpt lat="49.67546" lon="5.5469">
        <ele>333.9</ele>
        <time>2020-06-25T18:50:15Z</time>
      </trkpt>
      <trkpt lat="49.67544" lon="5.54697">
        <ele>334</ele>
        <time>2020-06-25T18:50:16Z</time>
      </trkpt>
      <trkpt lat="49.67542" lon="5.54705">
        <ele>334.1</ele>
        <time>2020-06-25T18:50:17Z</time>
      </trkpt>
      <trkpt lat="49.67541" lon="5.54712">
        <ele>334.2</ele>
        <time>2020-06-25T18:50:18Z</time>
      </trkpt>
      <trkpt lat="49.67539" lon="5.54721">
        <ele>334.3</ele>
        <time>2020-06-25T18:50:19Z</time>
      </trkpt>
      <trkpt lat="49.67538" lon="5.54726">
        <ele>334.3</ele>
        <time>2020-06-25T18:50:20Z</time>
      </trkpt>
      <trkpt lat="49.67537" lon="5.54733">
        <ele>334.4</ele>
        <time>2020-06-25T18:50:21Z</time>
      </trkpt>
      <trkpt lat="49.67535" lon="5.54739">
        <ele>334.5</ele>
        <time>2020-06-25T18:50:22Z</time>
      </trkpt>
      <trkpt lat="49.67534" lon="5.54746">
        <ele>334.5</ele>
        <time>2020-06-25T18:50:23Z</time>
      </trkpt>
      <trkpt lat="49.67532" lon="5.54754">
        <ele>334.6</ele>
        <time>2020-06-25T18:50:24Z</time>
      </trkpt>
      <trkpt lat="49.67531" lon="5.54763">
        <ele>334.7</ele>
        <time>2020-06-25T18:50:25Z</time>
      </trkpt>
      <trkpt lat="49.6753" lon="5.54769">
        <ele>334.7</ele>
        <time>2020-06-25T18:50:26Z</time>
      </trkpt>
      <trkpt lat="49.67528" lon="5.54775">
        <ele>334.8</ele>
        <time>2020-06-25T18:50:27Z</time>
      </trkpt>
      <trkpt lat="49.67527" lon="5.5478">
        <ele>334.9</ele>
        <time>2020-06-25T18:50:28Z</time>
      </trkpt>
      <trkpt lat="49.67526" lon="5.54786">
        <ele>335</ele>
        <time>2020-06-25T18:50:29Z</time>
      </trkpt>
      <trkpt lat="49.67524" lon="5.54791">
        <ele>335.1</ele>
        <time>2020-06-25T18:50:30Z</time>
      </trkpt>
      <trkpt lat="49.67523" lon="5.54797">
        <ele>335.2</ele>
        <time>2020-06-25T18:50:31Z</time>
      </trkpt>
      <trkpt lat="49.67522" lon="5.54805">
        <ele>335.4</ele>
        <time>2020-06-25T18:50:32Z</time>
      </trkpt>
      <trkpt lat="49.67521" lon="5.54812">
        <ele>335.6</ele>
        <time>2020-06-25T18:50:33Z</time>
      </trkpt>
      <trkpt lat="49.67519" lon="5.5482">
        <ele>335.7</ele>
        <time>2020-06-25T18:50:34Z</time>
      </trkpt>
      <trkpt lat="49.67517" lon="5.54828">
        <ele>335.9</ele>
        <time>2020-06-25T18:50:35Z</time>
      </trkpt>
      <trkpt lat="49.67516" lon="5.54832">
        <ele>336</ele>
        <time>2020-06-25T18:50:36Z</time>
      </trkpt>
      <trkpt lat="49.67514" lon="5.54837">
        <ele>336.2</ele>
        <time>2020-06-25T18:50:37Z</time>
      </trkpt>
      <trkpt lat="49.67512" lon="5.54843">
        <ele>336.3</ele>
        <time>2020-06-25T18:50:38Z</time>
      </trkpt>
      <trkpt lat="49.6751" lon="5.54849">
        <ele>336.5</ele>
        <time>2020-06-25T18:50:39Z</time>
      </trkpt>
      <trkpt lat="49.67508" lon="5.54855">
        <ele>336.7</ele>
        <time>2020-06-25T18:50:40Z</time>
      </trkpt>
      <trkpt lat="49.67506" lon="5.54862">
        <ele>336.9</ele>
        <time>2020-06-25T18:50:41Z</time>
      </trkpt>
      <trkpt lat="49.67504" lon="5.5487">
        <ele>337.1</ele>
        <time>2020-06-25T18:50:42Z</time>
      </trkpt>
      <trkpt lat="49.67503" lon="5.54875">
        <ele>337.3</ele>
        <time>2020-06-25T18:50:43Z</time>
      </trkpt>
      <trkpt lat="49.67501" lon="5.54882">
        <ele>337.4</ele>
        <time>2020-06-25T18:50:44Z</time>
      </trkpt>
      <trkpt lat="49.67499" lon="5.54888">
        <ele>337.6</ele>
        <time>2020-06-25T18:50:45Z</time>
      </trkpt>
      <trkpt lat="49.67498" lon="5.54893">
        <ele>337.7</ele>
        <time>2020-06-25T18:50:46Z</time>
      </trkpt>
      <trkpt lat="49.67496" lon="5.54899">
        <ele>337.9</ele>
        <time>2020-06-25T18:50:47Z</time>
      </trkpt>
      <trkpt lat="49.67495" lon="5.54905">
        <ele>338.1</ele>
        <time>2020-06-25T18:50:48Z</time>
      </trkpt>
      <trkpt lat="49.67493" lon="5.54911">
        <ele>338.2</ele>
        <time>2020-06-25T18:50:49Z</time>
      </trkpt>
      <trkpt lat="49.67492" lon="5.54915">
        <ele>338.4</ele>
        <time>2020-06-25T18:50:50Z</time>
      </trkpt>
      <trkpt lat="49.67492" lon="5.5492">
        <ele>338.5</ele>
        <time>2020-06-25T18:50:51Z</time>
      </trkpt>
      <trkpt lat="49.6749" lon="5.54926">
        <ele>338.7</ele>
        <time>2020-06-25T18:50:52Z</time>
      </trkpt>
      <trkpt lat="49.6749" lon="5.54929">
        <ele>338.8</ele>
        <time>2020-06-25T18:50:53Z</time>
      </trkpt>
      <trkpt lat="49.67488" lon="5.54936">
        <ele>339</ele>
        <time>2020-06-25T18:50:54Z</time>
      </trkpt>
      <trkpt lat="49.67487" lon="5.54941">
        <ele>339.2</ele>
        <time>2020-06-25T18:50:55Z</time>
      </trkpt>
      <trkpt lat="49.67487" lon="5.54943">
        <ele>339.2</ele>
        <time>2020-06-25T18:50:56Z</time>
      </trkpt>
      <trkpt lat="49.67486" lon="5.54949">
        <ele>339.4</ele>
        <time>2020-06-25T18:50:57Z</time>
      </trkpt>
      <trkpt lat="49.67485" lon="5.54954">
        <ele>339.6</ele>
        <time>2020-06-25T18:50:58Z</time>
      </trkpt>
      <trkpt lat="49.67484" lon="5.54959">
        <ele>339.7</ele>
        <time>2020-06-25T18:50:59Z</time>
      </trkpt>
      <trkpt lat="49.67483" lon="5.54966">
        <ele>339.9</ele>
        <time>2020-06-25T18:51:00Z</time>
      </trkpt>
      <trkpt lat="49.67483" lon="5.54971">
        <ele>340</ele>
        <time>2020-06-25T18:51:01Z</time>
      </trkpt>
      <trkpt lat="49.67483" lon="5.54976">
        <ele>340.2</ele>
        <time>2020-06-25T18:51:02Z</time>
      </trkpt>
      <trkpt lat="49.67482" lon="5.54981">
        <ele>340.3</ele>
        <time>2020-06-25T18:51:03Z</time>
      </trkpt>
      <trkpt lat="49.67481" lon="5.54986">
        <ele>340.4</ele>
        <time>2020-06-25T18:51:04Z</time>
      </trkpt>
      <trkpt lat="49.67479" lon="5.54992">
        <ele>340.6</ele>
        <time>2020-06-25T18:51:05Z</time>
      </trkpt>
      <trkpt lat="49.67479" lon="5.54999">
        <ele>340.8</ele>
        <time>2020-06-25T18:51:06Z</time>
      </trkpt>
      <trkpt lat="49.67478" lon="5.55005">
        <ele>341</ele>
        <time>2020-06-25T18:51:07Z</time>
      </trkpt>
      <trkpt lat="49.67477" lon="5.55012">
        <ele>341.1</ele>
        <time>2020-06-25T18:51:08Z</time>
      </trkpt>
      <trkpt lat="49.67477" lon="5.55018">
        <ele>341.2</ele>
        <time>2020-06-25T18:51:09Z</time>
      </trkpt>
      <trkpt lat="49.67477" lon="5.55022">
        <ele>341.3</ele>
        <time>2020-06-25T18:51:10Z</time>
      </trkpt>
      <trkpt lat="49.67477" lon="5.55029">
        <ele>341.5</ele>
        <time>2020-06-25T18:51:11Z</time>
      </trkpt>
      <trkpt lat="49.67477" lon="5.55032">
        <ele>341.5</ele>
        <time>2020-06-25T18:51:12Z</time>
      </trkpt>
      <trkpt lat="49.67476" lon="5.55039">
        <ele>341.6</ele>
        <time>2020-06-25T18:51:13Z</time>
      </trkpt>
      <trkpt lat="49.67476" lon="5.55046">
        <ele>341.7</ele>
        <time>2020-06-25T18:51:14Z</time>
      </trkpt>
      <trkpt lat="49.67476" lon="5.55053">
        <ele>341.8</ele>
        <time>2020-06-25T18:51:15Z</time>
      </trkpt>
      <trkpt lat="49.67476" lon="5.55058">
        <ele>341.9</ele>
        <time>2020-06-25T18:51:16Z</time>
      </trkpt>
      <trkpt lat="49.67476" lon="5.55065">
        <ele>342</ele>
        <time>2020-06-25T18:51:17Z</time>
      </trkpt>
      <trkpt lat="49.67476" lon="5.55072">
        <ele>342.1</ele>
        <time>2020-06-25T18:51:18Z</time>
      </trkpt>
      <trkpt lat="49.67476" lon="5.55078">
        <ele>342.2</ele>
        <time>2020-06-25T18:51:19Z</time>
      </trkpt>
      <trkpt lat="49.67476" lon="5.55085">
        <ele>342.3</ele>
        <time>2020-06-25T18:51:20Z</time>
      </trkpt>
      <trkpt lat="49.67476" lon="5.55092">
        <ele>342.4</ele>
        <time>2020-06-25T18:51:21Z</time>
      </trkpt>
      <trkpt lat="49.67476" lon="5.55099">
        <ele>342.5</ele>
        <time>2020-06-25T18:51:22Z</time>
      </trkpt>
      <trkpt lat="49.67477" lon="5.55107">
        <ele>342.6</ele>
        <time>2020-06-25T18:51:23Z</time>
      </trkpt>
      <trkpt lat="49.67477" lon="5.55114">
        <ele>342.7</ele>
        <time>2020-06-25T18:51:24Z</time>
      </trkpt>
      <trkpt lat="49.67478" lon="5.5512">
        <ele>342.7</ele>
        <time>2020-06-25T18:51:25Z</time>
      </trkpt>
      <trkpt lat="49.6748" lon="5.55128">
        <ele>342.8</ele>
        <time>2020-06-25T18:51:26Z</time>
      </trkpt>
      <trkpt lat="49.67481" lon="5.55135">
        <ele>342.9</ele>
        <time>2020-06-25T18:51:27Z</time>
      </trkpt>
      <trkpt lat="49.67482" lon="5.55142">
        <ele>343</ele>
        <time>2020-06-25T18:51:28Z</time>
      </trkpt>
      <trkpt lat="49.67484" lon="5.55149">
        <ele>343</ele>
        <time>2020-06-25T18:51:29Z</time>
      </trkpt>
      <trkpt lat="49.67485" lon="5.55155">
        <ele>343.1</ele>
        <time>2020-06-25T18:51:30Z</time>
      </trkpt>
      <trkpt lat="49.67486" lon="5.55162">
        <ele>343.2</ele>
        <time>2020-06-25T18:51:31Z</time>
      </trkpt>
      <trkpt lat="49.67488" lon="5.55167">
        <ele>343.2</ele>
        <time>2020-06-25T18:51:32Z</time>
      </trkpt>
      <trkpt lat="49.67488" lon="5.55173">
        <ele>343.3</ele>
        <time>2020-06-25T18:51:33Z</time>
      </trkpt>
      <trkpt lat="49.67491" lon="5.55182">
        <ele>343.4</ele>
        <time>2020-06-25T18:51:34Z</time>
      </trkpt>
      <trkpt lat="49.67491" lon="5.55188">
        <ele>343.4</ele>
        <time>2020-06-25T18:51:35Z</time>
      </trkpt>
      <trkpt lat="49.67492" lon="5.55194">
        <ele>343.5</ele>
        <time>2020-06-25T18:51:36Z</time>
      </trkpt>
      <trkpt lat="49.67494" lon="5.55201">
        <ele>343.5</ele>
        <time>2020-06-25T18:51:37Z</time>
      </trkpt>
      <trkpt lat="49.67494" lon="5.55207">
        <ele>343.6</ele>
        <time>2020-06-25T18:51:38Z</time>
      </trkpt>
      <trkpt lat="49.67495" lon="5.55213">
        <ele>343.6</ele>
        <time>2020-06-25T18:51:39Z</time>
      </trkpt>
      <trkpt lat="49.67496" lon="5.5522">
        <ele>343.7</ele>
        <time>2020-06-25T18:51:40Z</time>
      </trkpt>
      <trkpt lat="49.67497" lon="5.55226">
        <ele>343.8</ele>
        <time>2020-06-25T18:51:41Z</time>
      </trkpt>
      <trkpt lat="49.67498" lon="5.55232">
        <ele>343.9</ele>
        <time>2020-06-25T18:51:42Z</time>
      </trkpt>
      <trkpt lat="49.67499" lon="5.55239">
        <ele>344</ele>
        <time>2020-06-25T18:51:43Z</time>
      </trkpt>
      <trkpt lat="49.675" lon="5.55246">
        <ele>344</ele>
        <time>2020-06-25T18:51:44Z</time>
      </trkpt>
      <trkpt lat="49.67501" lon="5.55253">
        <ele>344.1</ele>
        <time>2020-06-25T18:51:45Z</time>
      </trkpt>
      <trkpt lat="49.67502" lon="5.5526">
        <ele>344.2</ele>
        <time>2020-06-25T18:51:46Z</time>
      </trkpt>
      <trkpt lat="49.67503" lon="5.55268">
        <ele>344.3</ele>
        <time>2020-06-25T18:51:47Z</time>
      </trkpt>
      <trkpt lat="49.67504" lon="5.55275">
        <ele>344.4</ele>
        <time>2020-06-25T18:51:48Z</time>
      </trkpt>
      <trkpt lat="49.67505" lon="5.5528">
        <ele>344.5</ele>
        <time>2020-06-25T18:51:49Z</time>
      </trkpt>
      <trkpt lat="49.67505" lon="5.55286">
        <ele>344.6</ele>
        <time>2020-06-25T18:51:50Z</time>
      </trkpt>
      <trkpt lat="49.67506" lon="5.55293">
        <ele>344.7</ele>
        <time>2020-06-25T18:51:51Z</time>
      </trkpt>
      <trkpt lat="49.67507" lon="5.55301">
        <ele>344.8</ele>
        <time>2020-06-25T18:51:52Z</time>
      </trkpt>
      <trkpt lat="49.67507" lon="5.55308">
        <ele>344.9</ele>
        <time>2020-06-25T18:51:53Z</time>
      </trkpt>
      <trkpt lat="49.67508" lon="5.55314">
        <ele>345</ele>
        <time>2020-06-25T18:51:54Z</time>
      </trkpt>
      <trkpt lat="49.67508" lon="5.5532">
        <ele>345.1</ele>
        <time>2020-06-25T18:51:55Z</time>
      </trkpt>
      <trkpt lat="49.67509" lon="5.55326">
        <ele>345.1</ele>
        <time>2020-06-25T18:51:56Z</time>
      </trkpt>
      <trkpt lat="49.6751" lon="5.55332">
        <ele>345.2</ele>
        <time>2020-06-25T18:51:57Z</time>
      </trkpt>
      <trkpt lat="49.6751" lon="5.55338">
        <ele>345.3</ele>
        <time>2020-06-25T18:51:58Z</time>
      </trkpt>
      <trkpt lat="49.6751" lon="5.55345">
        <ele>345.4</ele>
        <time>2020-06-25T18:51:59Z</time>
      </trkpt>
      <trkpt lat="49.6751" lon="5.5535">
        <ele>345.5</ele>
        <time>2020-06-25T18:52:00Z</time>
      </trkpt>
      <trkpt lat="49.67511" lon="5.55357">
        <ele>345.6</ele>
        <time>2020-06-25T18:52:01Z</time>
      </trkpt>
      <trkpt lat="49.67512" lon="5.55364">
        <ele>345.8</ele>
        <time>2020-06-25T18:52:02Z</time>
      </trkpt>
      <trkpt lat="49.67512" lon="5.55371">
        <ele>345.9</ele>
        <time>2020-06-25T18:52:03Z</time>
      </trkpt>
      <trkpt lat="49.67512" lon="5.55378">
        <ele>346</ele>
        <time>2020-06-25T18:52:04Z</time>
      </trkpt>
      <trkpt lat="49.67513" lon="5.55384">
        <ele>346</ele>
        <time>2020-06-25T18:52:05Z</time>
      </trkpt>
      <trkpt lat="49.67513" lon="5.55389">
        <ele>346.1</ele>
        <time>2020-06-25T18:52:06Z</time>
      </trkpt>
      <trkpt lat="49.67513" lon="5.55396">
        <ele>346.2</ele>
        <time>2020-06-25T18:52:07Z</time>
      </trkpt>
      <trkpt lat="49.67512" lon="5.55402">
        <ele>346.3</ele>
        <time>2020-06-25T18:52:08Z</time>
      </trkpt>
      <trkpt lat="49.67512" lon="5.55409">
        <ele>346.3</ele>
        <time>2020-06-25T18:52:09Z</time>
      </trkpt>
      <trkpt lat="49.67513" lon="5.55415">
        <ele>346.4</ele>
        <time>2020-06-25T18:52:10Z</time>
      </trkpt>
      <trkpt lat="49.67512" lon="5.55421">
        <ele>346.5</ele>
        <time>2020-06-25T18:52:11Z</time>
      </trkpt>
      <trkpt lat="49.67512" lon="5.55428">
        <ele>346.6</ele>
        <time>2020-06-25T18:52:12Z</time>
      </trkpt>
      <trkpt lat="49.67512" lon="5.55436">
        <ele>346.7</ele>
        <time>2020-06-25T18:52:13Z</time>
      </trkpt>
      <trkpt lat="49.67513" lon="5.55442">
        <ele>346.8</ele>
        <time>2020-06-25T18:52:14Z</time>
      </trkpt>
      <trkpt lat="49.67512" lon="5.55448">
        <ele>346.9</ele>
        <time>2020-06-25T18:52:15Z</time>
      </trkpt>
      <trkpt lat="49.67512" lon="5.55453">
        <ele>347</ele>
        <time>2020-06-25T18:52:16Z</time>
      </trkpt>
      <trkpt lat="49.67511" lon="5.5546">
        <ele>347.1</ele>
        <time>2020-06-25T18:52:17Z</time>
      </trkpt>
      <trkpt lat="49.6751" lon="5.55467">
        <ele>347.2</ele>
        <time>2020-06-25T18:52:18Z</time>
      </trkpt>
      <trkpt lat="49.6751" lon="5.55473">
        <ele>347.3</ele>
        <time>2020-06-25T18:52:19Z</time>
      </trkpt>
      <trkpt lat="49.6751" lon="5.55478">
        <ele>347.3</ele>
        <time>2020-06-25T18:52:20Z</time>
      </trkpt>
      <trkpt lat="49.6751" lon="5.55486">
        <ele>347.4</ele>
        <time>2020-06-25T18:52:21Z</time>
      </trkpt>
      <trkpt lat="49.67511" lon="5.55492">
        <ele>347.5</ele>
        <time>2020-06-25T18:52:22Z</time>
      </trkpt>
      <trkpt lat="49.6751" lon="5.55497">
        <ele>347.6</ele>
        <time>2020-06-25T18:52:23Z</time>
      </trkpt>
      <trkpt lat="49.6751" lon="5.55504">
        <ele>347.7</ele>
        <time>2020-06-25T18:52:24Z</time>
      </trkpt>
      <trkpt lat="49.6751" lon="5.55512">
        <ele>347.8</ele>
        <time>2020-06-25T18:52:25Z</time>
      </trkpt>
      <trkpt lat="49.6751" lon="5.55518">
        <ele>347.9</ele>
        <time>2020-06-25T18:52:26Z</time>
      </trkpt>
      <trkpt lat="49.6751" lon="5.55524">
        <ele>348</ele>
        <time>2020-06-25T18:52:27Z</time>
      </trkpt>
      <trkpt lat="49.6751" lon="5.55532">
        <ele>348.1</ele>
        <time>2020-06-25T18:52:28Z</time>
      </trkpt>
      <trkpt lat="49.6751" lon="5.55539">
        <ele>348.2</ele>
        <time>2020-06-25T18:52:29Z</time>
      </trkpt>
      <trkpt lat="49.6751" lon="5.55545">
        <ele>348.3</ele>
        <time>2020-06-25T18:52:30Z</time>
      </trkpt>
      <trkpt lat="49.6751" lon="5.55551">
        <ele>348.4</ele>
        <time>2020-06-25T18:52:31Z</time>
      </trkpt>
      <trkpt lat="49.67509" lon="5.55557">
        <ele>348.5</ele>
        <time>2020-06-25T18:52:32Z</time>
      </trkpt>
      <trkpt lat="49.67509" lon="5.55564">
        <ele>348.6</ele>
        <time>2020-06-25T18:52:33Z</time>
      </trkpt>
      <trkpt lat="49.67508" lon="5.55571">
        <ele>348.7</ele>
        <time>2020-06-25T18:52:34Z</time>
      </trkpt>
      <trkpt lat="49.67508" lon="5.55576">
        <ele>348.7</ele>
        <time>2020-06-25T18:52:35Z</time>
      </trkpt>
      <trkpt lat="49.67508" lon="5.55582">
        <ele>348.8</ele>
        <time>2020-06-25T18:52:36Z</time>
      </trkpt>
      <trkpt lat="49.67508" lon="5.55589">
        <ele>348.9</ele>
        <time>2020-06-25T18:52:37Z</time>
      </trkpt>
      <trkpt lat="49.67507" lon="5.55596">
        <ele>349</ele>
        <time>2020-06-25T18:52:38Z</time>
      </trkpt>
      <trkpt lat="49.67507" lon="5.55603">
        <ele>349.1</ele>
        <time>2020-06-25T18:52:39Z</time>
      </trkpt>
      <trkpt lat="49.67506" lon="5.55611">
        <ele>349.2</ele>
        <time>2020-06-25T18:52:40Z</time>
      </trkpt>
      <trkpt lat="49.67506" lon="5.55618">
        <ele>349.2</ele>
        <time>2020-06-25T18:52:41Z</time>
      </trkpt>
      <trkpt lat="49.67505" lon="5.55625">
        <ele>349.3</ele>
        <time>2020-06-25T18:52:42Z</time>
      </trkpt>
      <trkpt lat="49.67505" lon="5.55629">
        <ele>349.4</ele>
        <time>2020-06-25T18:52:43Z</time>
      </trkpt>
      <trkpt lat="49.67505" lon="5.55635">
        <ele>349.4</ele>
        <time>2020-06-25T18:52:44Z</time>
      </trkpt>
      <trkpt lat="49.67504" lon="5.55641">
        <ele>349.5</ele>
        <time>2020-06-25T18:52:45Z</time>
      </trkpt>
      <trkpt lat="49.67504" lon="5.55648">
        <ele>349.6</ele>
        <time>2020-06-25T18:52:46Z</time>
      </trkpt>
      <trkpt lat="49.67503" lon="5.55656">
        <ele>349.7</ele>
        <time>2020-06-25T18:52:47Z</time>
      </trkpt>
      <trkpt lat="49.67503" lon="5.55662">
        <ele>349.8</ele>
        <time>2020-06-25T18:52:48Z</time>
      </trkpt>
      <trkpt lat="49.67503" lon="5.55669">
        <ele>349.9</ele>
        <time>2020-06-25T18:52:49Z</time>
      </trkpt>
      <trkpt lat="49.67503" lon="5.55676">
        <ele>350</ele>
        <time>2020-06-25T18:52:50Z</time>
      </trkpt>
      <trkpt lat="49.67503" lon="5.55682">
        <ele>350.1</ele>
        <time>2020-06-25T18:52:51Z</time>
      </trkpt>
      <trkpt lat="49.67503" lon="5.55689">
        <ele>350.2</ele>
        <time>2020-06-25T18:52:52Z</time>
      </trkpt>
      <trkpt lat="49.67502" lon="5.55695">
        <ele>350.2</ele>
        <time>2020-06-25T18:52:53Z</time>
      </trkpt>
      <trkpt lat="49.67501" lon="5.55703">
        <ele>350.1</ele>
        <time>2020-06-25T18:52:54Z</time>
      </trkpt>
      <trkpt lat="49.67501" lon="5.55711">
        <ele>350.1</ele>
        <time>2020-06-25T18:52:55Z</time>
      </trkpt>
      <trkpt lat="49.675" lon="5.55719">
        <ele>350.1</ele>
        <time>2020-06-25T18:52:56Z</time>
      </trkpt>
      <trkpt lat="49.675" lon="5.55726">
        <ele>350.2</ele>
        <time>2020-06-25T18:52:57Z</time>
      </trkpt>
      <trkpt lat="49.675" lon="5.55734">
        <ele>350.2</ele>
        <time>2020-06-25T18:52:58Z</time>
      </trkpt>
      <trkpt lat="49.675" lon="5.55741">
        <ele>350.2</ele>
        <time>2020-06-25T18:52:59Z</time>
      </trkpt>
      <trkpt lat="49.675" lon="5.55745">
        <ele>350.2</ele>
        <time>2020-06-25T18:53:00Z</time>
      </trkpt>
      <trkpt lat="49.675" lon="5.55751">
        <ele>350.2</ele>
        <time>2020-06-25T18:53:01Z</time>
      </trkpt>
      <trkpt lat="49.67499" lon="5.55758">
        <ele>350.2</ele>
        <time>2020-06-25T18:53:02Z</time>
      </trkpt>
      <trkpt lat="49.67499" lon="5.55765">
        <ele>350.2</ele>
        <time>2020-06-25T18:53:03Z</time>
      </trkpt>
      <trkpt lat="49.67499" lon="5.55774">
        <ele>350.2</ele>
        <time>2020-06-25T18:53:04Z</time>
      </trkpt>
      <trkpt lat="49.67499" lon="5.55781">
        <ele>350.2</ele>
        <time>2020-06-25T18:53:05Z</time>
      </trkpt>
      <trkpt lat="49.67499" lon="5.55789">
        <ele>350.1</ele>
        <time>2020-06-25T18:53:06Z</time>
      </trkpt>
      <trkpt lat="49.67498" lon="5.55798">
        <ele>350.1</ele>
        <time>2020-06-25T18:53:07Z</time>
      </trkpt>
      <trkpt lat="49.67497" lon="5.55806">
        <ele>350.1</ele>
        <time>2020-06-25T18:53:08Z</time>
      </trkpt>
      <trkpt lat="49.67497" lon="5.55815">
        <ele>350.1</ele>
        <time>2020-06-25T18:53:09Z</time>
      </trkpt>
      <trkpt lat="49.67496" lon="5.55823">
        <ele>350</ele>
        <time>2020-06-25T18:53:10Z</time>
      </trkpt>
      <trkpt lat="49.67495" lon="5.55832">
        <ele>349.9</ele>
        <time>2020-06-25T18:53:11Z</time>
      </trkpt>
      <trkpt lat="49.67495" lon="5.55838">
        <ele>349.8</ele>
        <time>2020-06-25T18:53:12Z</time>
      </trkpt>
      <trkpt lat="49.67495" lon="5.55846">
        <ele>349.8</ele>
        <time>2020-06-25T18:53:13Z</time>
      </trkpt>
      <trkpt lat="49.67494" lon="5.55855">
        <ele>349.7</ele>
        <time>2020-06-25T18:53:14Z</time>
      </trkpt>
      <trkpt lat="49.67493" lon="5.55863">
        <ele>349.6</ele>
        <time>2020-06-25T18:53:15Z</time>
      </trkpt>
      <trkpt lat="49.67493" lon="5.55872">
        <ele>349.5</ele>
        <time>2020-06-25T18:53:16Z</time>
      </trkpt>
      <trkpt lat="49.67493" lon="5.55881">
        <ele>349.4</ele>
        <time>2020-06-25T18:53:17Z</time>
      </trkpt>
      <trkpt lat="49.67492" lon="5.55887">
        <ele>349.3</ele>
        <time>2020-06-25T18:53:18Z</time>
      </trkpt>
      <trkpt lat="49.67491" lon="5.55896">
        <ele>349.2</ele>
        <time>2020-06-25T18:53:19Z</time>
      </trkpt>
      <trkpt lat="49.67491" lon="5.55904">
        <ele>349.1</ele>
        <time>2020-06-25T18:53:20Z</time>
      </trkpt>
      <trkpt lat="49.67492" lon="5.55911">
        <ele>349</ele>
        <time>2020-06-25T18:53:21Z</time>
      </trkpt>
      <trkpt lat="49.67491" lon="5.5592">
        <ele>348.9</ele>
        <time>2020-06-25T18:53:22Z</time>
      </trkpt>
      <trkpt lat="49.6749" lon="5.55929">
        <ele>348.8</ele>
        <time>2020-06-25T18:53:23Z</time>
      </trkpt>
      <trkpt lat="49.67489" lon="5.55938">
        <ele>348.7</ele>
        <time>2020-06-25T18:53:24Z</time>
      </trkpt>
      <trkpt lat="49.67489" lon="5.55946">
        <ele>348.6</ele>
        <time>2020-06-25T18:53:25Z</time>
      </trkpt>
      <trkpt lat="49.67488" lon="5.55953">
        <ele>348.5</ele>
        <time>2020-06-25T18:53:26Z</time>
      </trkpt>
      <trkpt lat="49.67487" lon="5.55963">
        <ele>348.3</ele>
        <time>2020-06-25T18:53:27Z</time>
      </trkpt>
      <trkpt lat="49.67486" lon="5.5597">
        <ele>348.3</ele>
        <time>2020-06-25T18:53:28Z</time>
      </trkpt>
      <trkpt lat="49.67485" lon="5.55979">
        <ele>348.2</ele>
        <time>2020-06-25T18:53:29Z</time>
      </trkpt>
      <trkpt lat="49.67486" lon="5.55988">
        <ele>348.1</ele>
        <time>2020-06-25T18:53:30Z</time>
      </trkpt>
      <trkpt lat="49.67486" lon="5.55997">
        <ele>348</ele>
        <time>2020-06-25T18:53:31Z</time>
      </trkpt>
      <trkpt lat="49.67485" lon="5.56005">
        <ele>347.8</ele>
        <time>2020-06-25T18:53:32Z</time>
      </trkpt>
      <trkpt lat="49.67484" lon="5.56014">
        <ele>347.7</ele>
        <time>2020-06-25T18:53:33Z</time>
      </trkpt>
      <trkpt lat="49.67484" lon="5.56022">
        <ele>347.6</ele>
        <time>2020-06-25T18:53:34Z</time>
      </trkpt>
      <trkpt lat="49.67484" lon="5.56031">
        <ele>347.5</ele>
        <time>2020-06-25T18:53:35Z</time>
      </trkpt>
      <trkpt lat="49.67484" lon="5.5604">
        <ele>347.5</ele>
        <time>2020-06-25T18:53:36Z</time>
      </trkpt>
      <trkpt lat="49.67484" lon="5.56047">
        <ele>347.5</ele>
        <time>2020-06-25T18:53:37Z</time>
      </trkpt>
      <trkpt lat="49.67483" lon="5.56053">
        <ele>347.4</ele>
        <time>2020-06-25T18:53:38Z</time>
      </trkpt>
      <trkpt lat="49.67482" lon="5.5606">
        <ele>347.4</ele>
        <time>2020-06-25T18:53:39Z</time>
      </trkpt>
      <trkpt lat="49.67481" lon="5.56067">
        <ele>347.3</ele>
        <time>2020-06-25T18:53:40Z</time>
      </trkpt>
      <trkpt lat="49.67482" lon="5.56074">
        <ele>347.2</ele>
        <time>2020-06-25T18:53:41Z</time>
      </trkpt>
      <trkpt lat="49.67482" lon="5.56081">
        <ele>347.2</ele>
        <time>2020-06-25T18:53:42Z</time>
      </trkpt>
      <trkpt lat="49.67482" lon="5.56087">
        <ele>347.1</ele>
        <time>2020-06-25T18:53:43Z</time>
      </trkpt>
      <trkpt lat="49.67482" lon="5.56093">
        <ele>347.1</ele>
        <time>2020-06-25T18:53:44Z</time>
      </trkpt>
      <trkpt lat="49.67482" lon="5.56099">
        <ele>347</ele>
        <time>2020-06-25T18:53:45Z</time>
      </trkpt>
      <trkpt lat="49.67483" lon="5.56105">
        <ele>347</ele>
        <time>2020-06-25T18:53:46Z</time>
      </trkpt>
      <trkpt lat="49.67482" lon="5.56113">
        <ele>346.9</ele>
        <time>2020-06-25T18:53:47Z</time>
      </trkpt>
      <trkpt lat="49.67482" lon="5.56122">
        <ele>346.8</ele>
        <time>2020-06-25T18:53:48Z</time>
      </trkpt>
      <trkpt lat="49.6748" lon="5.56129">
        <ele>346.7</ele>
        <time>2020-06-25T18:53:49Z</time>
      </trkpt>
      <trkpt lat="49.67479" lon="5.56138">
        <ele>346.6</ele>
        <time>2020-06-25T18:53:50Z</time>
      </trkpt>
      <trkpt lat="49.67479" lon="5.56146">
        <ele>346.4</ele>
        <time>2020-06-25T18:53:51Z</time>
      </trkpt>
      <trkpt lat="49.6748" lon="5.56155">
        <ele>346.3</ele>
        <time>2020-06-25T18:53:52Z</time>
      </trkpt>
      <trkpt lat="49.67479" lon="5.56164">
        <ele>346.1</ele>
        <time>2020-06-25T18:53:53Z</time>
      </trkpt>
      <trkpt lat="49.67479" lon="5.56173">
        <ele>346</ele>
        <time>2020-06-25T18:53:54Z</time>
      </trkpt>
      <trkpt lat="49.67479" lon="5.56181">
        <ele>346</ele>
        <time>2020-06-25T18:53:55Z</time>
      </trkpt>
      <trkpt lat="49.67478" lon="5.5619">
        <ele>345.9</ele>
        <time>2020-06-25T18:53:56Z</time>
      </trkpt>
      <trkpt lat="49.67477" lon="5.56199">
        <ele>345.9</ele>
        <time>2020-06-25T18:53:57Z</time>
      </trkpt>
      <trkpt lat="49.67478" lon="5.56209">
        <ele>345.9</ele>
        <time>2020-06-25T18:53:58Z</time>
      </trkpt>
      <trkpt lat="49.67477" lon="5.56218">
        <ele>345.9</ele>
        <time>2020-06-25T18:53:59Z</time>
      </trkpt>
      <trkpt lat="49.67476" lon="5.56227">
        <ele>345.9</ele>
        <time>2020-06-25T18:54:00Z</time>
      </trkpt>
      <trkpt lat="49.67476" lon="5.56236">
        <ele>345.8</ele>
        <time>2020-06-25T18:54:01Z</time>
      </trkpt>
      <trkpt lat="49.67476" lon="5.56246">
        <ele>345.7</ele>
        <time>2020-06-25T18:54:02Z</time>
      </trkpt>
      <trkpt lat="49.67476" lon="5.56255">
        <ele>345.6</ele>
        <time>2020-06-25T18:54:03Z</time>
      </trkpt>
      <trkpt lat="49.67475" lon="5.56265">
        <ele>345.5</ele>
        <time>2020-06-25T18:54:04Z</time>
      </trkpt>
      <trkpt lat="49.67474" lon="5.56275">
        <ele>345.4</ele>
        <time>2020-06-25T18:54:05Z</time>
      </trkpt>
      <trkpt lat="49.67474" lon="5.56284">
        <ele>345.3</ele>
        <time>2020-06-25T18:54:06Z</time>
      </trkpt>
      <trkpt lat="49.67474" lon="5.56294">
        <ele>345.1</ele>
        <time>2020-06-25T18:54:07Z</time>
      </trkpt>
      <trkpt lat="49.67474" lon="5.56303">
        <ele>345</ele>
        <time>2020-06-25T18:54:08Z</time>
      </trkpt>
      <trkpt lat="49.67473" lon="5.56311">
        <ele>344.9</ele>
        <time>2020-06-25T18:54:09Z</time>
      </trkpt>
      <trkpt lat="49.67473" lon="5.5632">
        <ele>344.8</ele>
        <time>2020-06-25T18:54:10Z</time>
      </trkpt>
      <trkpt lat="49.67472" lon="5.56329">
        <ele>344.7</ele>
        <time>2020-06-25T18:54:11Z</time>
      </trkpt>
      <trkpt lat="49.67473" lon="5.56339">
        <ele>344.6</ele>
        <time>2020-06-25T18:54:12Z</time>
      </trkpt>
      <trkpt lat="49.67472" lon="5.56348">
        <ele>344.6</ele>
        <time>2020-06-25T18:54:13Z</time>
      </trkpt>
      <trkpt lat="49.67473" lon="5.56358">
        <ele>344.5</ele>
        <time>2020-06-25T18:54:14Z</time>
      </trkpt>
      <trkpt lat="49.67472" lon="5.56368">
        <ele>344.5</ele>
        <time>2020-06-25T18:54:15Z</time>
      </trkpt>
      <trkpt lat="49.67472" lon="5.56378">
        <ele>344.3</ele>
        <time>2020-06-25T18:54:16Z</time>
      </trkpt>
      <trkpt lat="49.67472" lon="5.56388">
        <ele>344.2</ele>
        <time>2020-06-25T18:54:17Z</time>
      </trkpt>
      <trkpt lat="49.67472" lon="5.56399">
        <ele>344.1</ele>
        <time>2020-06-25T18:54:18Z</time>
      </trkpt>
      <trkpt lat="49.67471" lon="5.56408">
        <ele>344</ele>
        <time>2020-06-25T18:54:19Z</time>
      </trkpt>
      <trkpt lat="49.67471" lon="5.56417">
        <ele>344</ele>
        <time>2020-06-25T18:54:20Z</time>
      </trkpt>
      <trkpt lat="49.6747" lon="5.56427">
        <ele>343.9</ele>
        <time>2020-06-25T18:54:21Z</time>
      </trkpt>
      <trkpt lat="49.67469" lon="5.56438">
        <ele>343.8</ele>
        <time>2020-06-25T18:54:22Z</time>
      </trkpt>
      <trkpt lat="49.67469" lon="5.56448">
        <ele>343.8</ele>
        <time>2020-06-25T18:54:23Z</time>
      </trkpt>
      <trkpt lat="49.67468" lon="5.56459">
        <ele>343.7</ele>
        <time>2020-06-25T18:54:24Z</time>
      </trkpt>
      <trkpt lat="49.67469" lon="5.5647">
        <ele>343.7</ele>
        <time>2020-06-25T18:54:25Z</time>
      </trkpt>
      <trkpt lat="49.67469" lon="5.5648">
        <ele>343.6</ele>
        <time>2020-06-25T18:54:26Z</time>
      </trkpt>
      <trkpt lat="49.67469" lon="5.5649">
        <ele>343.6</ele>
        <time>2020-06-25T18:54:27Z</time>
      </trkpt>
      <trkpt lat="49.67468" lon="5.56499">
        <ele>343.6</ele>
        <time>2020-06-25T18:54:28Z</time>
      </trkpt>
      <trkpt lat="49.67466" lon="5.56509">
        <ele>343.6</ele>
        <time>2020-06-25T18:54:29Z</time>
      </trkpt>
      <trkpt lat="49.67464" lon="5.56521">
        <ele>343.6</ele>
        <time>2020-06-25T18:54:30Z</time>
      </trkpt>
      <trkpt lat="49.67463" lon="5.5653">
        <ele>343.5</ele>
        <time>2020-06-25T18:54:31Z</time>
      </trkpt>
      <trkpt lat="49.67462" lon="5.56538">
        <ele>343.3</ele>
        <time>2020-06-25T18:54:32Z</time>
      </trkpt>
      <trkpt lat="49.67461" lon="5.56547">
        <ele>343.2</ele>
        <time>2020-06-25T18:54:33Z</time>
      </trkpt>
      <trkpt lat="49.67461" lon="5.56555">
        <ele>343.1</ele>
        <time>2020-06-25T18:54:34Z</time>
      </trkpt>
      <trkpt lat="49.67461" lon="5.56565">
        <ele>343</ele>
        <time>2020-06-25T18:54:35Z</time>
      </trkpt>
      <trkpt lat="49.6746" lon="5.56574">
        <ele>342.9</ele>
        <time>2020-06-25T18:54:36Z</time>
      </trkpt>
      <trkpt lat="49.6746" lon="5.56584">
        <ele>342.7</ele>
        <time>2020-06-25T18:54:37Z</time>
      </trkpt>
      <trkpt lat="49.67459" lon="5.56594">
        <ele>342.6</ele>
        <time>2020-06-25T18:54:38Z</time>
      </trkpt>
      <trkpt lat="49.67459" lon="5.56603">
        <ele>342.6</ele>
        <time>2020-06-25T18:54:39Z</time>
      </trkpt>
      <trkpt lat="49.67458" lon="5.56614">
        <ele>342.5</ele>
        <time>2020-06-25T18:54:40Z</time>
      </trkpt>
      <trkpt lat="49.67458" lon="5.56623">
        <ele>342.5</ele>
        <time>2020-06-25T18:54:41Z</time>
      </trkpt>
      <trkpt lat="49.67457" lon="5.56633">
        <ele>342.5</ele>
        <time>2020-06-25T18:54:42Z</time>
      </trkpt>
      <trkpt lat="49.67457" lon="5.56644">
        <ele>342.5</ele>
        <time>2020-06-25T18:54:43Z</time>
      </trkpt>
      <trkpt lat="49.67457" lon="5.56654">
        <ele>342.6</ele>
        <time>2020-06-25T18:54:44Z</time>
      </trkpt>
      <trkpt lat="49.67456" lon="5.56665">
        <ele>342.6</ele>
        <time>2020-06-25T18:54:45Z</time>
      </trkpt>
      <trkpt lat="49.67456" lon="5.56674">
        <ele>342.7</ele>
        <time>2020-06-25T18:54:46Z</time>
      </trkpt>
      <trkpt lat="49.67456" lon="5.56684">
        <ele>342.7</ele>
        <time>2020-06-25T18:54:47Z</time>
      </trkpt>
      <trkpt lat="49.67455" lon="5.56695">
        <ele>342.5</ele>
        <time>2020-06-25T18:54:48Z</time>
      </trkpt>
      <trkpt lat="49.67455" lon="5.56705">
        <ele>342.3</ele>
        <time>2020-06-25T18:54:49Z</time>
      </trkpt>
      <trkpt lat="49.67454" lon="5.56716">
        <ele>342.1</ele>
        <time>2020-06-25T18:54:50Z</time>
      </trkpt>
      <trkpt lat="49.67453" lon="5.56726">
        <ele>342</ele>
        <time>2020-06-25T18:54:51Z</time>
      </trkpt>
      <trkpt lat="49.67453" lon="5.56735">
        <ele>341.8</ele>
        <time>2020-06-25T18:54:52Z</time>
      </trkpt>
      <trkpt lat="49.67452" lon="5.56745">
        <ele>341.7</ele>
        <time>2020-06-25T18:54:53Z</time>
      </trkpt>
      <trkpt lat="49.67451" lon="5.56753">
        <ele>341.6</ele>
        <time>2020-06-25T18:54:54Z</time>
      </trkpt>
      <trkpt lat="49.6745" lon="5.56764">
        <ele>341.5</ele>
        <time>2020-06-25T18:54:55Z</time>
      </trkpt>
      <trkpt lat="49.67449" lon="5.56775">
        <ele>341.3</ele>
        <time>2020-06-25T18:54:56Z</time>
      </trkpt>
      <trkpt lat="49.67448" lon="5.56784">
        <ele>341.2</ele>
        <time>2020-06-25T18:54:57Z</time>
      </trkpt>
      <trkpt lat="49.67446" lon="5.56793">
        <ele>341.1</ele>
        <time>2020-06-25T18:54:58Z</time>
      </trkpt>
      <trkpt lat="49.67445" lon="5.56802">
        <ele>341</ele>
        <time>2020-06-25T18:54:59Z</time>
      </trkpt>
      <trkpt lat="49.67444" lon="5.56813">
        <ele>340.9</ele>
        <time>2020-06-25T18:55:00Z</time>
      </trkpt>
      <trkpt lat="49.67444" lon="5.56821">
        <ele>340.8</ele>
        <time>2020-06-25T18:55:01Z</time>
      </trkpt>
      <trkpt lat="49.67443" lon="5.56831">
        <ele>340.7</ele>
        <time>2020-06-25T18:55:02Z</time>
      </trkpt>
      <trkpt lat="49.67443" lon="5.56839">
        <ele>340.6</ele>
        <time>2020-06-25T18:55:03Z</time>
      </trkpt>
      <trkpt lat="49.67442" lon="5.56848">
        <ele>340.6</ele>
        <time>2020-06-25T18:55:04Z</time>
      </trkpt>
      <trkpt lat="49.67442" lon="5.56858">
        <ele>340.5</ele>
        <time>2020-06-25T18:55:05Z</time>
      </trkpt>
      <trkpt lat="49.67441" lon="5.56866">
        <ele>340.5</ele>
        <time>2020-06-25T18:55:06Z</time>
      </trkpt>
      <trkpt lat="49.67441" lon="5.56877">
        <ele>340.4</ele>
        <time>2020-06-25T18:55:07Z</time>
      </trkpt>
      <trkpt lat="49.6744" lon="5.56887">
        <ele>340.4</ele>
        <time>2020-06-25T18:55:08Z</time>
      </trkpt>
      <trkpt lat="49.67439" lon="5.56897">
        <ele>340.3</ele>
        <time>2020-06-25T18:55:09Z</time>
      </trkpt>
      <trkpt lat="49.67439" lon="5.56907">
        <ele>340.2</ele>
        <time>2020-06-25T18:55:10Z</time>
      </trkpt>
      <trkpt lat="49.67439" lon="5.56916">
        <ele>340.1</ele>
        <time>2020-06-25T18:55:11Z</time>
      </trkpt>
      <trkpt lat="49.67439" lon="5.56924">
        <ele>340.1</ele>
        <time>2020-06-25T18:55:12Z</time>
      </trkpt>
      <trkpt lat="49.67439" lon="5.56932">
        <ele>340</ele>
        <time>2020-06-25T18:55:13Z</time>
      </trkpt>
      <trkpt lat="49.67439" lon="5.56942">
        <ele>339.9</ele>
        <time>2020-06-25T18:55:14Z</time>
      </trkpt>
      <trkpt lat="49.67438" lon="5.56951">
        <ele>339.8</ele>
        <time>2020-06-25T18:55:15Z</time>
      </trkpt>
      <trkpt lat="49.67437" lon="5.56962">
        <ele>339.7</ele>
        <time>2020-06-25T18:55:16Z</time>
      </trkpt>
      <trkpt lat="49.67435" lon="5.56971">
        <ele>339.7</ele>
        <time>2020-06-25T18:55:17Z</time>
      </trkpt>
      <trkpt lat="49.67434" lon="5.5698">
        <ele>339.6</ele>
        <time>2020-06-25T18:55:18Z</time>
      </trkpt>
      <trkpt lat="49.67434" lon="5.5699">
        <ele>339.6</ele>
        <time>2020-06-25T18:55:19Z</time>
      </trkpt>
      <trkpt lat="49.67433" lon="5.57001">
        <ele>339.5</ele>
        <time>2020-06-25T18:55:20Z</time>
      </trkpt>
      <trkpt lat="49.67433" lon="5.5701">
        <ele>339.5</ele>
        <time>2020-06-25T18:55:21Z</time>
      </trkpt>
      <trkpt lat="49.67432" lon="5.57019">
        <ele>339.4</ele>
        <time>2020-06-25T18:55:22Z</time>
      </trkpt>
      <trkpt lat="49.67431" lon="5.57028">
        <ele>339.4</ele>
        <time>2020-06-25T18:55:23Z</time>
      </trkpt>
      <trkpt lat="49.67431" lon="5.57036">
        <ele>339.4</ele>
        <time>2020-06-25T18:55:24Z</time>
      </trkpt>
      <trkpt lat="49.6743" lon="5.57044">
        <ele>339.4</ele>
        <time>2020-06-25T18:55:25Z</time>
      </trkpt>
      <trkpt lat="49.67429" lon="5.57054">
        <ele>339.3</ele>
        <time>2020-06-25T18:55:26Z</time>
      </trkpt>
      <trkpt lat="49.67428" lon="5.57064">
        <ele>339.3</ele>
        <time>2020-06-25T18:55:27Z</time>
      </trkpt>
      <trkpt lat="49.67427" lon="5.57073">
        <ele>339.2</ele>
        <time>2020-06-25T18:55:28Z</time>
      </trkpt>
      <trkpt lat="49.67426" lon="5.57082">
        <ele>339.2</ele>
        <time>2020-06-25T18:55:29Z</time>
      </trkpt>
      <trkpt lat="49.67425" lon="5.57089">
        <ele>339.2</ele>
        <time>2020-06-25T18:55:30Z</time>
      </trkpt>
      <trkpt lat="49.67424" lon="5.57097">
        <ele>339.1</ele>
        <time>2020-06-25T18:55:31Z</time>
      </trkpt>
      <trkpt lat="49.67423" lon="5.57103">
        <ele>339.1</ele>
        <time>2020-06-25T18:55:32Z</time>
      </trkpt>
      <trkpt lat="49.67422" lon="5.5711">
        <ele>339.1</ele>
        <time>2020-06-25T18:55:33Z</time>
      </trkpt>
      <trkpt lat="49.67422" lon="5.57119">
        <ele>339</ele>
        <time>2020-06-25T18:55:34Z</time>
      </trkpt>
      <trkpt lat="49.6742" lon="5.57127">
        <ele>339</ele>
        <time>2020-06-25T18:55:35Z</time>
      </trkpt>
      <trkpt lat="49.67418" lon="5.57139">
        <ele>338.9</ele>
        <time>2020-06-25T18:55:36Z</time>
      </trkpt>
      <trkpt lat="49.67416" lon="5.57148">
        <ele>338.9</ele>
        <time>2020-06-25T18:55:37Z</time>
      </trkpt>
      <trkpt lat="49.67414" lon="5.57156">
        <ele>338.9</ele>
        <time>2020-06-25T18:55:38Z</time>
      </trkpt>
      <trkpt lat="49.67412" lon="5.57164">
        <ele>338.8</ele>
        <time>2020-06-25T18:55:39Z</time>
      </trkpt>
      <trkpt lat="49.67409" lon="5.57173">
        <ele>338.8</ele>
        <time>2020-06-25T18:55:40Z</time>
      </trkpt>
      <trkpt lat="49.67407" lon="5.57182">
        <ele>338.8</ele>
        <time>2020-06-25T18:55:41Z</time>
      </trkpt>
      <trkpt lat="49.67406" lon="5.57191">
        <ele>338.7</ele>
        <time>2020-06-25T18:55:42Z</time>
      </trkpt>
      <trkpt lat="49.67405" lon="5.57199">
        <ele>338.7</ele>
        <time>2020-06-25T18:55:43Z</time>
      </trkpt>
      <trkpt lat="49.67404" lon="5.57209">
        <ele>338.7</ele>
        <time>2020-06-25T18:55:44Z</time>
      </trkpt>
      <trkpt lat="49.67402" lon="5.57218">
        <ele>338.7</ele>
        <time>2020-06-25T18:55:45Z</time>
      </trkpt>
      <trkpt lat="49.674" lon="5.57228">
        <ele>338.6</ele>
        <time>2020-06-25T18:55:46Z</time>
      </trkpt>
      <trkpt lat="49.67399" lon="5.57236">
        <ele>338.6</ele>
        <time>2020-06-25T18:55:47Z</time>
      </trkpt>
      <trkpt lat="49.67397" lon="5.57243">
        <ele>338.6</ele>
        <time>2020-06-25T18:55:48Z</time>
      </trkpt>
      <trkpt lat="49.67395" lon="5.57252">
        <ele>338.5</ele>
        <time>2020-06-25T18:55:49Z</time>
      </trkpt>
      <trkpt lat="49.67393" lon="5.57261">
        <ele>338.5</ele>
        <time>2020-06-25T18:55:50Z</time>
      </trkpt>
      <trkpt lat="49.67391" lon="5.5727">
        <ele>338.5</ele>
        <time>2020-06-25T18:55:51Z</time>
      </trkpt>
      <trkpt lat="49.67389" lon="5.5728">
        <ele>338.5</ele>
        <time>2020-06-25T18:55:52Z</time>
      </trkpt>
      <trkpt lat="49.67387" lon="5.57291">
        <ele>338.5</ele>
        <time>2020-06-25T18:55:53Z</time>
      </trkpt>
      <trkpt lat="49.67386" lon="5.573">
        <ele>338.4</ele>
        <time>2020-06-25T18:55:54Z</time>
      </trkpt>
      <trkpt lat="49.67384" lon="5.57309">
        <ele>338.4</ele>
        <time>2020-06-25T18:55:55Z</time>
      </trkpt>
      <trkpt lat="49.67382" lon="5.57317">
        <ele>338.4</ele>
        <time>2020-06-25T18:55:56Z</time>
      </trkpt>
      <trkpt lat="49.67381" lon="5.57326">
        <ele>338.4</ele>
        <time>2020-06-25T18:55:57Z</time>
      </trkpt>
      <trkpt lat="49.6738" lon="5.57334">
        <ele>338.4</ele>
        <time>2020-06-25T18:55:58Z</time>
      </trkpt>
      <trkpt lat="49.67377" lon="5.57342">
        <ele>338.3</ele>
        <time>2020-06-25T18:55:59Z</time>
      </trkpt>
      <trkpt lat="49.67375" lon="5.5735">
        <ele>338.3</ele>
        <time>2020-06-25T18:56:00Z</time>
      </trkpt>
      <trkpt lat="49.67374" lon="5.57358">
        <ele>338.3</ele>
        <time>2020-06-25T18:56:01Z</time>
      </trkpt>
      <trkpt lat="49.67372" lon="5.57366">
        <ele>338.3</ele>
        <time>2020-06-25T18:56:02Z</time>
      </trkpt>
      <trkpt lat="49.6737" lon="5.57374">
        <ele>338.2</ele>
        <time>2020-06-25T18:56:03Z</time>
      </trkpt>
      <trkpt lat="49.67369" lon="5.57383">
        <ele>338.2</ele>
        <time>2020-06-25T18:56:04Z</time>
      </trkpt>
      <trkpt lat="49.67367" lon="5.57392">
        <ele>338.2</ele>
        <time>2020-06-25T18:56:05Z</time>
      </trkpt>
      <trkpt lat="49.67366" lon="5.57401">
        <ele>338.2</ele>
        <time>2020-06-25T18:56:06Z</time>
      </trkpt>
      <trkpt lat="49.67364" lon="5.5741">
        <ele>338.2</ele>
        <time>2020-06-25T18:56:07Z</time>
      </trkpt>
      <trkpt lat="49.67362" lon="5.57419">
        <ele>338.2</ele>
        <time>2020-06-25T18:56:08Z</time>
      </trkpt>
      <trkpt lat="49.6736" lon="5.57429">
        <ele>338.1</ele>
        <time>2020-06-25T18:56:09Z</time>
      </trkpt>
      <trkpt lat="49.67358" lon="5.57439">
        <ele>338.1</ele>
        <time>2020-06-25T18:56:10Z</time>
      </trkpt>
      <trkpt lat="49.67357" lon="5.57448">
        <ele>338</ele>
        <time>2020-06-25T18:56:11Z</time>
      </trkpt>
      <trkpt lat="49.67355" lon="5.57457">
        <ele>338</ele>
        <time>2020-06-25T18:56:12Z</time>
      </trkpt>
      <trkpt lat="49.67353" lon="5.57465">
        <ele>338</ele>
        <time>2020-06-25T18:56:13Z</time>
      </trkpt>
      <trkpt lat="49.67351" lon="5.57473">
        <ele>338</ele>
        <time>2020-06-25T18:56:14Z</time>
      </trkpt>
      <trkpt lat="49.67349" lon="5.57483">
        <ele>337.9</ele>
        <time>2020-06-25T18:56:15Z</time>
      </trkpt>
      <trkpt lat="49.67347" lon="5.57494">
        <ele>337.8</ele>
        <time>2020-06-25T18:56:16Z</time>
      </trkpt>
      <trkpt lat="49.67345" lon="5.57503">
        <ele>337.7</ele>
        <time>2020-06-25T18:56:17Z</time>
      </trkpt>
      <trkpt lat="49.67343" lon="5.57512">
        <ele>337.7</ele>
        <time>2020-06-25T18:56:18Z</time>
      </trkpt>
      <trkpt lat="49.67341" lon="5.5752">
        <ele>337.6</ele>
        <time>2020-06-25T18:56:19Z</time>
      </trkpt>
      <trkpt lat="49.67339" lon="5.57529">
        <ele>337.6</ele>
        <time>2020-06-25T18:56:20Z</time>
      </trkpt>
      <trkpt lat="49.67337" lon="5.57538">
        <ele>337.6</ele>
        <time>2020-06-25T18:56:21Z</time>
      </trkpt>
      <trkpt lat="49.67335" lon="5.57548">
        <ele>337.5</ele>
        <time>2020-06-25T18:56:22Z</time>
      </trkpt>
      <trkpt lat="49.67333" lon="5.57556">
        <ele>337.5</ele>
        <time>2020-06-25T18:56:23Z</time>
      </trkpt>
      <trkpt lat="49.67332" lon="5.57565">
        <ele>337.5</ele>
        <time>2020-06-25T18:56:24Z</time>
      </trkpt>
      <trkpt lat="49.6733" lon="5.57574">
        <ele>337.4</ele>
        <time>2020-06-25T18:56:25Z</time>
      </trkpt>
      <trkpt lat="49.67329" lon="5.57583">
        <ele>337.4</ele>
        <time>2020-06-25T18:56:26Z</time>
      </trkpt>
      <trkpt lat="49.67327" lon="5.57593">
        <ele>337.4</ele>
        <time>2020-06-25T18:56:27Z</time>
      </trkpt>
      <trkpt lat="49.67325" lon="5.57602">
        <ele>337.4</ele>
        <time>2020-06-25T18:56:28Z</time>
      </trkpt>
      <trkpt lat="49.67324" lon="5.5761">
        <ele>337.4</ele>
        <time>2020-06-25T18:56:29Z</time>
      </trkpt>
      <trkpt lat="49.67322" lon="5.57618">
        <ele>337.3</ele>
        <time>2020-06-25T18:56:30Z</time>
      </trkpt>
      <trkpt lat="49.67321" lon="5.57628">
        <ele>337.3</ele>
        <time>2020-06-25T18:56:31Z</time>
      </trkpt>
      <trkpt lat="49.67318" lon="5.57636">
        <ele>337.2</ele>
        <time>2020-06-25T18:56:32Z</time>
      </trkpt>
      <trkpt lat="49.67316" lon="5.57646">
        <ele>337.1</ele>
        <time>2020-06-25T18:56:33Z</time>
      </trkpt>
      <trkpt lat="49.67313" lon="5.57656">
        <ele>337.1</ele>
        <time>2020-06-25T18:56:34Z</time>
      </trkpt>
      <trkpt lat="49.67311" lon="5.57665">
        <ele>337.1</ele>
        <time>2020-06-25T18:56:35Z</time>
      </trkpt>
      <trkpt lat="49.6731" lon="5.57674">
        <ele>337.1</ele>
        <time>2020-06-25T18:56:36Z</time>
      </trkpt>
      <trkpt lat="49.67308" lon="5.57683">
        <ele>337</ele>
        <time>2020-06-25T18:56:37Z</time>
      </trkpt>
      <trkpt lat="49.67306" lon="5.57692">
        <ele>337</ele>
        <time>2020-06-25T18:56:38Z</time>
      </trkpt>
      <trkpt lat="49.67304" lon="5.577">
        <ele>337</ele>
        <time>2020-06-25T18:56:39Z</time>
      </trkpt>
      <trkpt lat="49.67302" lon="5.5771">
        <ele>336.9</ele>
        <time>2020-06-25T18:56:40Z</time>
      </trkpt>
      <trkpt lat="49.673" lon="5.57719">
        <ele>336.9</ele>
        <time>2020-06-25T18:56:41Z</time>
      </trkpt>
      <trkpt lat="49.67299" lon="5.57727">
        <ele>336.9</ele>
        <time>2020-06-25T18:56:42Z</time>
      </trkpt>
      <trkpt lat="49.67298" lon="5.57736">
        <ele>336.8</ele>
        <time>2020-06-25T18:56:43Z</time>
      </trkpt>
      <trkpt lat="49.67296" lon="5.57745">
        <ele>336.8</ele>
        <time>2020-06-25T18:56:44Z</time>
      </trkpt>
      <trkpt lat="49.67294" lon="5.57755">
        <ele>336.8</ele>
        <time>2020-06-25T18:56:45Z</time>
      </trkpt>
      <trkpt lat="49.67292" lon="5.57765">
        <ele>336.7</ele>
        <time>2020-06-25T18:56:46Z</time>
      </trkpt>
      <trkpt lat="49.67291" lon="5.57774">
        <ele>336.7</ele>
        <time>2020-06-25T18:56:47Z</time>
      </trkpt>
      <trkpt lat="49.67289" lon="5.57781">
        <ele>336.6</ele>
        <time>2020-06-25T18:56:48Z</time>
      </trkpt>
      <trkpt lat="49.67287" lon="5.57788">
        <ele>336.6</ele>
        <time>2020-06-25T18:56:49Z</time>
      </trkpt>
      <trkpt lat="49.67286" lon="5.57796">
        <ele>336.6</ele>
        <time>2020-06-25T18:56:50Z</time>
      </trkpt>
      <trkpt lat="49.67284" lon="5.57804">
        <ele>336.5</ele>
        <time>2020-06-25T18:56:51Z</time>
      </trkpt>
      <trkpt lat="49.67283" lon="5.57812">
        <ele>336.5</ele>
        <time>2020-06-25T18:56:52Z</time>
      </trkpt>
      <trkpt lat="49.67281" lon="5.57821">
        <ele>336.5</ele>
        <time>2020-06-25T18:56:53Z</time>
      </trkpt>
      <trkpt lat="49.67279" lon="5.5783">
        <ele>336.4</ele>
        <time>2020-06-25T18:56:54Z</time>
      </trkpt>
      <trkpt lat="49.67276" lon="5.5784">
        <ele>336.3</ele>
        <time>2020-06-25T18:56:55Z</time>
      </trkpt>
      <trkpt lat="49.67274" lon="5.5785">
        <ele>336.3</ele>
        <time>2020-06-25T18:56:56Z</time>
      </trkpt>
      <trkpt lat="49.67272" lon="5.5786">
        <ele>336.2</ele>
        <time>2020-06-25T18:56:57Z</time>
      </trkpt>
      <trkpt lat="49.6727" lon="5.57868">
        <ele>336.2</ele>
        <time>2020-06-25T18:56:58Z</time>
      </trkpt>
      <trkpt lat="49.67269" lon="5.57878">
        <ele>336.1</ele>
        <time>2020-06-25T18:56:59Z</time>
      </trkpt>
      <trkpt lat="49.67267" lon="5.57887">
        <ele>336</ele>
        <time>2020-06-25T18:57:00Z</time>
      </trkpt>
      <trkpt lat="49.67265" lon="5.57897">
        <ele>336</ele>
        <time>2020-06-25T18:57:01Z</time>
      </trkpt>
      <trkpt lat="49.67263" lon="5.57906">
        <ele>335.9</ele>
        <time>2020-06-25T18:57:02Z</time>
      </trkpt>
      <trkpt lat="49.67261" lon="5.57916">
        <ele>335.8</ele>
        <time>2020-06-25T18:57:03Z</time>
      </trkpt>
      <trkpt lat="49.67259" lon="5.57925">
        <ele>335.8</ele>
        <time>2020-06-25T18:57:04Z</time>
      </trkpt>
      <trkpt lat="49.67257" lon="5.57933">
        <ele>335.7</ele>
        <time>2020-06-25T18:57:05Z</time>
      </trkpt>
      <trkpt lat="49.67256" lon="5.57944">
        <ele>335.7</ele>
        <time>2020-06-25T18:57:06Z</time>
      </trkpt>
      <trkpt lat="49.67253" lon="5.57953">
        <ele>335.6</ele>
        <time>2020-06-25T18:57:07Z</time>
      </trkpt>
      <trkpt lat="49.67251" lon="5.57963">
        <ele>335.6</ele>
        <time>2020-06-25T18:57:08Z</time>
      </trkpt>
      <trkpt lat="49.67249" lon="5.57972">
        <ele>335.5</ele>
        <time>2020-06-25T18:57:09Z</time>
      </trkpt>
      <trkpt lat="49.67247" lon="5.57981">
        <ele>335.5</ele>
        <time>2020-06-25T18:57:10Z</time>
      </trkpt>
      <trkpt lat="49.67245" lon="5.5799">
        <ele>335.5</ele>
        <time>2020-06-25T18:57:11Z</time>
      </trkpt>
      <trkpt lat="49.67244" lon="5.57998">
        <ele>335.4</ele>
        <time>2020-06-25T18:57:12Z</time>
      </trkpt>
      <trkpt lat="49.67242" lon="5.58007">
        <ele>335.4</ele>
        <time>2020-06-25T18:57:13Z</time>
      </trkpt>
      <trkpt lat="49.6724" lon="5.58016">
        <ele>335.4</ele>
        <time>2020-06-25T18:57:14Z</time>
      </trkpt>
      <trkpt lat="49.67238" lon="5.58023">
        <ele>335.4</ele>
        <time>2020-06-25T18:57:15Z</time>
      </trkpt>
      <trkpt lat="49.67237" lon="5.58033">
        <ele>335.4</ele>
        <time>2020-06-25T18:57:16Z</time>
      </trkpt>
      <trkpt lat="49.67235" lon="5.58042">
        <ele>335.5</ele>
        <time>2020-06-25T18:57:17Z</time>
      </trkpt>
      <trkpt lat="49.67233" lon="5.5805">
        <ele>335.6</ele>
        <time>2020-06-25T18:57:18Z</time>
      </trkpt>
      <trkpt lat="49.67231" lon="5.58058">
        <ele>335.7</ele>
        <time>2020-06-25T18:57:19Z</time>
      </trkpt>
      <trkpt lat="49.67229" lon="5.58067">
        <ele>335.7</ele>
        <time>2020-06-25T18:57:20Z</time>
      </trkpt>
      <trkpt lat="49.67227" lon="5.58075">
        <ele>335.7</ele>
        <time>2020-06-25T18:57:21Z</time>
      </trkpt>
      <trkpt lat="49.67225" lon="5.58085">
        <ele>335.6</ele>
        <time>2020-06-25T18:57:22Z</time>
      </trkpt>
      <trkpt lat="49.67224" lon="5.58094">
        <ele>335.5</ele>
        <time>2020-06-25T18:57:23Z</time>
      </trkpt>
      <trkpt lat="49.67222" lon="5.58102">
        <ele>335.4</ele>
        <time>2020-06-25T18:57:24Z</time>
      </trkpt>
      <trkpt lat="49.67221" lon="5.5811">
        <ele>335.4</ele>
        <time>2020-06-25T18:57:25Z</time>
      </trkpt>
      <trkpt lat="49.67218" lon="5.58117">
        <ele>335.3</ele>
        <time>2020-06-25T18:57:26Z</time>
      </trkpt>
      <trkpt lat="49.67217" lon="5.58126">
        <ele>335.3</ele>
        <time>2020-06-25T18:57:27Z</time>
      </trkpt>
      <trkpt lat="49.67214" lon="5.58135">
        <ele>335.3</ele>
        <time>2020-06-25T18:57:28Z</time>
      </trkpt>
      <trkpt lat="49.67213" lon="5.58142">
        <ele>335.3</ele>
        <time>2020-06-25T18:57:29Z</time>
      </trkpt>
      <trkpt lat="49.67212" lon="5.58149">
        <ele>335.3</ele>
        <time>2020-06-25T18:57:30Z</time>
      </trkpt>
      <trkpt lat="49.6721" lon="5.58158">
        <ele>335.3</ele>
        <time>2020-06-25T18:57:31Z</time>
      </trkpt>
      <trkpt lat="49.67209" lon="5.58166">
        <ele>335.3</ele>
        <time>2020-06-25T18:57:32Z</time>
      </trkpt>
      <trkpt lat="49.67207" lon="5.58175">
        <ele>335.3</ele>
        <time>2020-06-25T18:57:33Z</time>
      </trkpt>
      <trkpt lat="49.67205" lon="5.58184">
        <ele>335.3</ele>
        <time>2020-06-25T18:57:34Z</time>
      </trkpt>
      <trkpt lat="49.67204" lon="5.58192">
        <ele>335.3</ele>
        <time>2020-06-25T18:57:35Z</time>
      </trkpt>
      <trkpt lat="49.67202" lon="5.58202">
        <ele>335.3</ele>
        <time>2020-06-25T18:57:36Z</time>
      </trkpt>
      <trkpt lat="49.672" lon="5.58211">
        <ele>335.3</ele>
        <time>2020-06-25T18:57:37Z</time>
      </trkpt>
      <trkpt lat="49.67199" lon="5.58219">
        <ele>335.2</ele>
        <time>2020-06-25T18:57:38Z</time>
      </trkpt>
      <trkpt lat="49.67197" lon="5.58228">
        <ele>335.2</ele>
        <time>2020-06-25T18:57:39Z</time>
      </trkpt>
      <trkpt lat="49.67196" lon="5.58236">
        <ele>335.2</ele>
        <time>2020-06-25T18:57:40Z</time>
      </trkpt>
      <trkpt lat="49.67195" lon="5.58246">
        <ele>335.2</ele>
        <time>2020-06-25T18:57:41Z</time>
      </trkpt>
      <trkpt lat="49.67193" lon="5.58253">
        <ele>335.2</ele>
        <time>2020-06-25T18:57:42Z</time>
      </trkpt>
      <trkpt lat="49.67192" lon="5.58262">
        <ele>335.2</ele>
        <time>2020-06-25T18:57:43Z</time>
      </trkpt>
      <trkpt lat="49.67192" lon="5.58271">
        <ele>335.2</ele>
        <time>2020-06-25T18:57:44Z</time>
      </trkpt>
      <trkpt lat="49.67191" lon="5.5828">
        <ele>335.2</ele>
        <time>2020-06-25T18:57:45Z</time>
      </trkpt>
      <trkpt lat="49.6719" lon="5.58289">
        <ele>335.2</ele>
        <time>2020-06-25T18:57:46Z</time>
      </trkpt>
      <trkpt lat="49.6719" lon="5.58298">
        <ele>335.2</ele>
        <time>2020-06-25T18:57:47Z</time>
      </trkpt>
      <trkpt lat="49.6719" lon="5.58309">
        <ele>335.2</ele>
        <time>2020-06-25T18:57:48Z</time>
      </trkpt>
      <trkpt lat="49.67189" lon="5.58317">
        <ele>335.3</ele>
        <time>2020-06-25T18:57:49Z</time>
      </trkpt>
      <trkpt lat="49.67188" lon="5.58327">
        <ele>335.3</ele>
        <time>2020-06-25T18:57:50Z</time>
      </trkpt>
      <trkpt lat="49.67188" lon="5.58337">
        <ele>335.2</ele>
        <time>2020-06-25T18:57:51Z</time>
      </trkpt>
      <trkpt lat="49.67188" lon="5.58348">
        <ele>335.1</ele>
        <time>2020-06-25T18:57:52Z</time>
      </trkpt>
      <trkpt lat="49.67187" lon="5.58358">
        <ele>335</ele>
        <time>2020-06-25T18:57:53Z</time>
      </trkpt>
      <trkpt lat="49.67187" lon="5.58369">
        <ele>334.9</ele>
        <time>2020-06-25T18:57:54Z</time>
      </trkpt>
      <trkpt lat="49.67186" lon="5.58378">
        <ele>334.9</ele>
        <time>2020-06-25T18:57:55Z</time>
      </trkpt>
      <trkpt lat="49.67187" lon="5.58386">
        <ele>334.9</ele>
        <time>2020-06-25T18:57:56Z</time>
      </trkpt>
      <trkpt lat="49.67187" lon="5.58395">
        <ele>334.8</ele>
        <time>2020-06-25T18:57:57Z</time>
      </trkpt>
      <trkpt lat="49.67188" lon="5.58403">
        <ele>334.8</ele>
        <time>2020-06-25T18:57:58Z</time>
      </trkpt>
      <trkpt lat="49.67189" lon="5.58413">
        <ele>334.7</ele>
        <time>2020-06-25T18:57:59Z</time>
      </trkpt>
      <trkpt lat="49.67189" lon="5.58423">
        <ele>334.7</ele>
        <time>2020-06-25T18:58:00Z</time>
      </trkpt>
      <trkpt lat="49.6719" lon="5.58431">
        <ele>334.6</ele>
        <time>2020-06-25T18:58:01Z</time>
      </trkpt>
      <trkpt lat="49.67191" lon="5.58441">
        <ele>334.6</ele>
        <time>2020-06-25T18:58:02Z</time>
      </trkpt>
      <trkpt lat="49.67191" lon="5.58451">
        <ele>334.5</ele>
        <time>2020-06-25T18:58:03Z</time>
      </trkpt>
      <trkpt lat="49.67192" lon="5.58461">
        <ele>334.5</ele>
        <time>2020-06-25T18:58:04Z</time>
      </trkpt>
      <trkpt lat="49.67192" lon="5.58471">
        <ele>334.5</ele>
        <time>2020-06-25T18:58:05Z</time>
      </trkpt>
      <trkpt lat="49.67193" lon="5.58479">
        <ele>334.5</ele>
        <time>2020-06-25T18:58:06Z</time>
      </trkpt>
      <trkpt lat="49.67194" lon="5.58487">
        <ele>334.4</ele>
        <time>2020-06-25T18:58:07Z</time>
      </trkpt>
      <trkpt lat="49.67194" lon="5.58497">
        <ele>334.4</ele>
        <time>2020-06-25T18:58:08Z</time>
      </trkpt>
      <trkpt lat="49.67195" lon="5.58506">
        <ele>334.4</ele>
        <time>2020-06-25T18:58:09Z</time>
      </trkpt>
      <trkpt lat="49.67197" lon="5.58514">
        <ele>334.3</ele>
        <time>2020-06-25T18:58:10Z</time>
      </trkpt>
      <trkpt lat="49.67198" lon="5.58523">
        <ele>334.3</ele>
        <time>2020-06-25T18:58:11Z</time>
      </trkpt>
      <trkpt lat="49.67199" lon="5.58534">
        <ele>334.3</ele>
        <time>2020-06-25T18:58:12Z</time>
      </trkpt>
      <trkpt lat="49.672" lon="5.58545">
        <ele>334.2</ele>
        <time>2020-06-25T18:58:13Z</time>
      </trkpt>
      <trkpt lat="49.67201" lon="5.58555">
        <ele>334.2</ele>
        <time>2020-06-25T18:58:14Z</time>
      </trkpt>
      <trkpt lat="49.67203" lon="5.58566">
        <ele>334.1</ele>
        <time>2020-06-25T18:58:15Z</time>
      </trkpt>
      <trkpt lat="49.67204" lon="5.58575">
        <ele>334.1</ele>
        <time>2020-06-25T18:58:16Z</time>
      </trkpt>
      <trkpt lat="49.67205" lon="5.58584">
        <ele>334</ele>
        <time>2020-06-25T18:58:17Z</time>
      </trkpt>
      <trkpt lat="49.67207" lon="5.58593">
        <ele>334</ele>
        <time>2020-06-25T18:58:18Z</time>
      </trkpt>
      <trkpt lat="49.67208" lon="5.58602">
        <ele>334</ele>
        <time>2020-06-25T18:58:19Z</time>
      </trkpt>
      <trkpt lat="49.67209" lon="5.5861">
        <ele>334</ele>
        <time>2020-06-25T18:58:20Z</time>
      </trkpt>
      <trkpt lat="49.6721" lon="5.58618">
        <ele>334</ele>
        <time>2020-06-25T18:58:21Z</time>
      </trkpt>
      <trkpt lat="49.67211" lon="5.58626">
        <ele>334</ele>
        <time>2020-06-25T18:58:22Z</time>
      </trkpt>
      <trkpt lat="49.67211" lon="5.58635">
        <ele>334</ele>
        <time>2020-06-25T18:58:23Z</time>
      </trkpt>
      <trkpt lat="49.67213" lon="5.58644">
        <ele>334</ele>
        <time>2020-06-25T18:58:24Z</time>
      </trkpt>
      <trkpt lat="49.67214" lon="5.58654">
        <ele>334</ele>
        <time>2020-06-25T18:58:25Z</time>
      </trkpt>
      <trkpt lat="49.67215" lon="5.58663">
        <ele>333.9</ele>
        <time>2020-06-25T18:58:26Z</time>
      </trkpt>
      <trkpt lat="49.67216" lon="5.58673">
        <ele>333.9</ele>
        <time>2020-06-25T18:58:27Z</time>
      </trkpt>
      <trkpt lat="49.67217" lon="5.58683">
        <ele>333.9</ele>
        <time>2020-06-25T18:58:28Z</time>
      </trkpt>
      <trkpt lat="49.67218" lon="5.58691">
        <ele>333.9</ele>
        <time>2020-06-25T18:58:29Z</time>
      </trkpt>
      <trkpt lat="49.6722" lon="5.58699">
        <ele>333.9</ele>
        <time>2020-06-25T18:58:30Z</time>
      </trkpt>
      <trkpt lat="49.6722" lon="5.58707">
        <ele>333.9</ele>
        <time>2020-06-25T18:58:31Z</time>
      </trkpt>
      <trkpt lat="49.67222" lon="5.58715">
        <ele>333.9</ele>
        <time>2020-06-25T18:58:32Z</time>
      </trkpt>
      <trkpt lat="49.67223" lon="5.58724">
        <ele>333.9</ele>
        <time>2020-06-25T18:58:33Z</time>
      </trkpt>
      <trkpt lat="49.67225" lon="5.58732">
        <ele>333.9</ele>
        <time>2020-06-25T18:58:34Z</time>
      </trkpt>
      <trkpt lat="49.67225" lon="5.58741">
        <ele>333.9</ele>
        <time>2020-06-25T18:58:35Z</time>
      </trkpt>
      <trkpt lat="49.67226" lon="5.5875">
        <ele>333.8</ele>
        <time>2020-06-25T18:58:36Z</time>
      </trkpt>
      <trkpt lat="49.67226" lon="5.58759">
        <ele>333.8</ele>
        <time>2020-06-25T18:58:37Z</time>
      </trkpt>
      <trkpt lat="49.67227" lon="5.58769">
        <ele>333.7</ele>
        <time>2020-06-25T18:58:38Z</time>
      </trkpt>
      <trkpt lat="49.67228" lon="5.58776">
        <ele>333.7</ele>
        <time>2020-06-25T18:58:39Z</time>
      </trkpt>
      <trkpt lat="49.67229" lon="5.58783">
        <ele>333.6</ele>
        <time>2020-06-25T18:58:40Z</time>
      </trkpt>
      <trkpt lat="49.6723" lon="5.5879">
        <ele>333.6</ele>
        <time>2020-06-25T18:58:41Z</time>
      </trkpt>
      <trkpt lat="49.67232" lon="5.58796">
        <ele>333.6</ele>
        <time>2020-06-25T18:58:42Z</time>
      </trkpt>
      <trkpt lat="49.67233" lon="5.58802">
        <ele>333.6</ele>
        <time>2020-06-25T18:58:43Z</time>
      </trkpt>
      <trkpt lat="49.67234" lon="5.5881">
        <ele>333.6</ele>
        <time>2020-06-25T18:58:44Z</time>
      </trkpt>
      <trkpt lat="49.67234" lon="5.58818">
        <ele>333.6</ele>
        <time>2020-06-25T18:58:45Z</time>
      </trkpt>
      <trkpt lat="49.67234" lon="5.58826">
        <ele>333.6</ele>
        <time>2020-06-25T18:58:46Z</time>
      </trkpt>
      <trkpt lat="49.67234" lon="5.58834">
        <ele>333.6</ele>
        <time>2020-06-25T18:58:47Z</time>
      </trkpt>
      <trkpt lat="49.67235" lon="5.58843">
        <ele>333.6</ele>
        <time>2020-06-25T18:58:48Z</time>
      </trkpt>
      <trkpt lat="49.67234" lon="5.58851">
        <ele>333.6</ele>
        <time>2020-06-25T18:58:49Z</time>
      </trkpt>
      <trkpt lat="49.67234" lon="5.58859">
        <ele>333.7</ele>
        <time>2020-06-25T18:58:50Z</time>
      </trkpt>
      <trkpt lat="49.67235" lon="5.58866">
        <ele>333.7</ele>
        <time>2020-06-25T18:58:51Z</time>
      </trkpt>
      <trkpt lat="49.67236" lon="5.58872">
        <ele>333.7</ele>
        <time>2020-06-25T18:58:52Z</time>
      </trkpt>
      <trkpt lat="49.67237" lon="5.58881">
        <ele>334</ele>
        <time>2020-06-25T18:58:53Z</time>
      </trkpt>
      <trkpt lat="49.67237" lon="5.5889">
        <ele>333.9</ele>
        <time>2020-06-25T18:58:54Z</time>
      </trkpt>
      <trkpt lat="49.67238" lon="5.58896">
        <ele>333.8</ele>
        <time>2020-06-25T18:58:55Z</time>
      </trkpt>
      <trkpt lat="49.67239" lon="5.58905">
        <ele>333.7</ele>
        <time>2020-06-25T18:58:56Z</time>
      </trkpt>
      <trkpt lat="49.67239" lon="5.58913">
        <ele>333.6</ele>
        <time>2020-06-25T18:58:57Z</time>
      </trkpt>
      <trkpt lat="49.6724" lon="5.58922">
        <ele>333.5</ele>
        <time>2020-06-25T18:58:58Z</time>
      </trkpt>
      <trkpt lat="49.6724" lon="5.5893">
        <ele>333.5</ele>
        <time>2020-06-25T18:58:59Z</time>
      </trkpt>
      <trkpt lat="49.67241" lon="5.58937">
        <ele>333.5</ele>
        <time>2020-06-25T18:59:00Z</time>
      </trkpt>
      <trkpt lat="49.67241" lon="5.58943">
        <ele>333.5</ele>
        <time>2020-06-25T18:59:01Z</time>
      </trkpt>
      <trkpt lat="49.67241" lon="5.5895">
        <ele>333.4</ele>
        <time>2020-06-25T18:59:02Z</time>
      </trkpt>
      <trkpt lat="49.67242" lon="5.58959">
        <ele>333.4</ele>
        <time>2020-06-25T18:59:03Z</time>
      </trkpt>
      <trkpt lat="49.67242" lon="5.58966">
        <ele>333.3</ele>
        <time>2020-06-25T18:59:04Z</time>
      </trkpt>
      <trkpt lat="49.67242" lon="5.58975">
        <ele>333.2</ele>
        <time>2020-06-25T18:59:05Z</time>
      </trkpt>
      <trkpt lat="49.67242" lon="5.58982">
        <ele>333.2</ele>
        <time>2020-06-25T18:59:06Z</time>
      </trkpt>
      <trkpt lat="49.67242" lon="5.58989">
        <ele>333.1</ele>
        <time>2020-06-25T18:59:07Z</time>
      </trkpt>
      <trkpt lat="49.67242" lon="5.58994">
        <ele>333</ele>
        <time>2020-06-25T18:59:08Z</time>
      </trkpt>
      <trkpt lat="49.67239" lon="5.59">
        <ele>332.9</ele>
        <time>2020-06-25T18:59:09Z</time>
      </trkpt>
      <trkpt lat="49.67235" lon="5.59004">
        <ele>332.9</ele>
        <time>2020-06-25T18:59:10Z</time>
      </trkpt>
      <trkpt lat="49.67231" lon="5.59008">
        <ele>332.9</ele>
        <time>2020-06-25T18:59:11Z</time>
      </trkpt>
      <trkpt lat="49.67228" lon="5.59011">
        <ele>332.9</ele>
        <time>2020-06-25T18:59:12Z</time>
      </trkpt>
      <trkpt lat="49.67226" lon="5.59015">
        <ele>332.9</ele>
        <time>2020-06-25T18:59:13Z</time>
      </trkpt>
      <trkpt lat="49.67224" lon="5.5902">
        <ele>332.9</ele>
        <time>2020-06-25T18:59:14Z</time>
      </trkpt>
      <trkpt lat="49.67221" lon="5.59024">
        <ele>332.7</ele>
        <time>2020-06-25T18:59:15Z</time>
      </trkpt>
      <trkpt lat="49.6722" lon="5.59031">
        <ele>332.7</ele>
        <time>2020-06-25T18:59:16Z</time>
      </trkpt>
      <trkpt lat="49.6722" lon="5.59035">
        <ele>332.7</ele>
        <time>2020-06-25T18:59:17Z</time>
      </trkpt>
      <trkpt lat="49.67221" lon="5.59042">
        <ele>332.6</ele>
        <time>2020-06-25T18:59:18Z</time>
      </trkpt>
      <trkpt lat="49.67221" lon="5.59049">
        <ele>332.6</ele>
        <time>2020-06-25T18:59:19Z</time>
      </trkpt>
      <trkpt lat="49.67222" lon="5.59054">
        <ele>332.6</ele>
        <time>2020-06-25T18:59:20Z</time>
      </trkpt>
      <trkpt lat="49.67222" lon="5.59059">
        <ele>332.5</ele>
        <time>2020-06-25T18:59:21Z</time>
      </trkpt>
      <trkpt lat="49.67224" lon="5.59065">
        <ele>332.5</ele>
        <time>2020-06-25T18:59:22Z</time>
      </trkpt>
      <trkpt lat="49.67225" lon="5.59067">
        <ele>332.5</ele>
        <time>2020-06-25T18:59:23Z</time>
      </trkpt>
      <trkpt lat="49.67228" lon="5.59068">
        <ele>332.5</ele>
        <time>2020-06-25T18:59:24Z</time>
      </trkpt>
      <trkpt lat="49.67231" lon="5.59072">
        <ele>332.5</ele>
        <time>2020-06-25T18:59:25Z</time>
      </trkpt>
      <trkpt lat="49.67234" lon="5.59075">
        <ele>332.5</ele>
        <time>2020-06-25T18:59:26Z</time>
      </trkpt>
      <trkpt lat="49.67237" lon="5.59079">
        <ele>332.5</ele>
        <time>2020-06-25T18:59:27Z</time>
      </trkpt>
      <trkpt lat="49.67241" lon="5.59082">
        <ele>332.5</ele>
        <time>2020-06-25T18:59:28Z</time>
      </trkpt>
      <trkpt lat="49.67245" lon="5.59086">
        <ele>332.5</ele>
        <time>2020-06-25T18:59:29Z</time>
      </trkpt>
      <trkpt lat="49.67248" lon="5.59089">
        <ele>332.5</ele>
        <time>2020-06-25T18:59:30Z</time>
      </trkpt>
      <trkpt lat="49.67252" lon="5.59092">
        <ele>332.5</ele>
        <time>2020-06-25T18:59:31Z</time>
      </trkpt>
      <trkpt lat="49.67255" lon="5.59096">
        <ele>332.5</ele>
        <time>2020-06-25T18:59:32Z</time>
      </trkpt>
      <trkpt lat="49.67258" lon="5.591">
        <ele>332.5</ele>
        <time>2020-06-25T18:59:33Z</time>
      </trkpt>
      <trkpt lat="49.67261" lon="5.59105">
        <ele>332.5</ele>
        <time>2020-06-25T18:59:34Z</time>
      </trkpt>
      <trkpt lat="49.67262" lon="5.59111">
        <ele>332.5</ele>
        <time>2020-06-25T18:59:35Z</time>
      </trkpt>
      <trkpt lat="49.67264" lon="5.59117">
        <ele>332.5</ele>
        <time>2020-06-25T18:59:36Z</time>
      </trkpt>
      <trkpt lat="49.67265" lon="5.59123">
        <ele>332.5</ele>
        <time>2020-06-25T18:59:37Z</time>
      </trkpt>
      <trkpt lat="49.67267" lon="5.5913">
        <ele>332.5</ele>
        <time>2020-06-25T18:59:38Z</time>
      </trkpt>
      <trkpt lat="49.67269" lon="5.59136">
        <ele>332.5</ele>
        <time>2020-06-25T18:59:39Z</time>
      </trkpt>
      <trkpt lat="49.6727" lon="5.59143">
        <ele>332.5</ele>
        <time>2020-06-25T18:59:40Z</time>
      </trkpt>
      <trkpt lat="49.67271" lon="5.59149">
        <ele>332.5</ele>
        <time>2020-06-25T18:59:41Z</time>
      </trkpt>
      <trkpt lat="49.6727" lon="5.59156">
        <ele>332.4</ele>
        <time>2020-06-25T18:59:42Z</time>
      </trkpt>
      <trkpt lat="49.67271" lon="5.59162">
        <ele>332.4</ele>
        <time>2020-06-25T18:59:43Z</time>
      </trkpt>
      <trkpt lat="49.67272" lon="5.59169">
        <ele>332.5</ele>
        <time>2020-06-25T18:59:44Z</time>
      </trkpt>
      <trkpt lat="49.67273" lon="5.59176">
        <ele>332.5</ele>
        <time>2020-06-25T18:59:45Z</time>
      </trkpt>
      <trkpt lat="49.67275" lon="5.59182">
        <ele>332.5</ele>
        <time>2020-06-25T18:59:46Z</time>
      </trkpt>
      <trkpt lat="49.67276" lon="5.59189">
        <ele>332.6</ele>
        <time>2020-06-25T18:59:47Z</time>
      </trkpt>
      <trkpt lat="49.67277" lon="5.59196">
        <ele>332.6</ele>
        <time>2020-06-25T18:59:48Z</time>
      </trkpt>
      <trkpt lat="49.67277" lon="5.59204">
        <ele>332.7</ele>
        <time>2020-06-25T18:59:49Z</time>
      </trkpt>
      <trkpt lat="49.67278" lon="5.59213">
        <ele>332.7</ele>
        <time>2020-06-25T18:59:50Z</time>
      </trkpt>
      <trkpt lat="49.67278" lon="5.59221">
        <ele>332.7</ele>
        <time>2020-06-25T18:59:51Z</time>
      </trkpt>
      <trkpt lat="49.67278" lon="5.59228">
        <ele>332.6</ele>
        <time>2020-06-25T18:59:52Z</time>
      </trkpt>
      <trkpt lat="49.67279" lon="5.59236">
        <ele>332.6</ele>
        <time>2020-06-25T18:59:53Z</time>
      </trkpt>
      <trkpt lat="49.67281" lon="5.59244">
        <ele>332.6</ele>
        <time>2020-06-25T18:59:54Z</time>
      </trkpt>
      <trkpt lat="49.67282" lon="5.59252">
        <ele>332.5</ele>
        <time>2020-06-25T18:59:55Z</time>
      </trkpt>
      <trkpt lat="49.67283" lon="5.59261">
        <ele>332.5</ele>
        <time>2020-06-25T18:59:56Z</time>
      </trkpt>
      <trkpt lat="49.67284" lon="5.59268">
        <ele>332.5</ele>
        <time>2020-06-25T18:59:57Z</time>
      </trkpt>
      <trkpt lat="49.67285" lon="5.59275">
        <ele>332.5</ele>
        <time>2020-06-25T18:59:58Z</time>
      </trkpt>
      <trkpt lat="49.67286" lon="5.59282">
        <ele>332.5</ele>
        <time>2020-06-25T18:59:59Z</time>
      </trkpt>
      <trkpt lat="49.67288" lon="5.59289">
        <ele>332.4</ele>
        <time>2020-06-25T19:00:00Z</time>
      </trkpt>
      <trkpt lat="49.67289" lon="5.59297">
        <ele>332.4</ele>
        <time>2020-06-25T19:00:01Z</time>
      </trkpt>
      <trkpt lat="49.6729" lon="5.59305">
        <ele>332.4</ele>
        <time>2020-06-25T19:00:02Z</time>
      </trkpt>
      <trkpt lat="49.67291" lon="5.59312">
        <ele>332.3</ele>
        <time>2020-06-25T19:00:03Z</time>
      </trkpt>
      <trkpt lat="49.67291" lon="5.59319">
        <ele>332.3</ele>
        <time>2020-06-25T19:00:04Z</time>
      </trkpt>
      <trkpt lat="49.67291" lon="5.59326">
        <ele>332.3</ele>
        <time>2020-06-25T19:00:05Z</time>
      </trkpt>
      <trkpt lat="49.67292" lon="5.59334">
        <ele>332.3</ele>
        <time>2020-06-25T19:00:06Z</time>
      </trkpt>
      <trkpt lat="49.67293" lon="5.59342">
        <ele>332.4</ele>
        <time>2020-06-25T19:00:07Z</time>
      </trkpt>
      <trkpt lat="49.67294" lon="5.5935">
        <ele>332.4</ele>
        <time>2020-06-25T19:00:08Z</time>
      </trkpt>
      <trkpt lat="49.67296" lon="5.59358">
        <ele>332.4</ele>
        <time>2020-06-25T19:00:09Z</time>
      </trkpt>
      <trkpt lat="49.67297" lon="5.59366">
        <ele>332.5</ele>
        <time>2020-06-25T19:00:10Z</time>
      </trkpt>
      <trkpt lat="49.67298" lon="5.59373">
        <ele>332.5</ele>
        <time>2020-06-25T19:00:11Z</time>
      </trkpt>
      <trkpt lat="49.67299" lon="5.5938">
        <ele>332.5</ele>
        <time>2020-06-25T19:00:12Z</time>
      </trkpt>
      <trkpt lat="49.673" lon="5.5939">
        <ele>332.4</ele>
        <time>2020-06-25T19:00:13Z</time>
      </trkpt>
      <trkpt lat="49.67302" lon="5.59396">
        <ele>332.4</ele>
        <time>2020-06-25T19:00:14Z</time>
      </trkpt>
      <trkpt lat="49.67304" lon="5.59406">
        <ele>332.4</ele>
        <time>2020-06-25T19:00:15Z</time>
      </trkpt>
      <trkpt lat="49.67305" lon="5.59413">
        <ele>332.4</ele>
        <time>2020-06-25T19:00:16Z</time>
      </trkpt>
      <trkpt lat="49.67305" lon="5.59422">
        <ele>332.4</ele>
        <time>2020-06-25T19:00:17Z</time>
      </trkpt>
      <trkpt lat="49.67307" lon="5.5943">
        <ele>332.3</ele>
        <time>2020-06-25T19:00:18Z</time>
      </trkpt>
      <trkpt lat="49.67308" lon="5.59438">
        <ele>332.2</ele>
        <time>2020-06-25T19:00:19Z</time>
      </trkpt>
      <trkpt lat="49.67309" lon="5.59446">
        <ele>332.1</ele>
        <time>2020-06-25T19:00:20Z</time>
      </trkpt>
      <trkpt lat="49.6731" lon="5.59453">
        <ele>332.1</ele>
        <time>2020-06-25T19:00:21Z</time>
      </trkpt>
      <trkpt lat="49.67311" lon="5.5946">
        <ele>332.1</ele>
        <time>2020-06-25T19:00:22Z</time>
      </trkpt>
      <trkpt lat="49.67311" lon="5.59467">
        <ele>332</ele>
        <time>2020-06-25T19:00:23Z</time>
      </trkpt>
      <trkpt lat="49.67312" lon="5.59477">
        <ele>332</ele>
        <time>2020-06-25T19:00:24Z</time>
      </trkpt>
      <trkpt lat="49.67313" lon="5.59486">
        <ele>332</ele>
        <time>2020-06-25T19:00:25Z</time>
      </trkpt>
      <trkpt lat="49.67314" lon="5.59494">
        <ele>332.1</ele>
        <time>2020-06-25T19:00:26Z</time>
      </trkpt>
      <trkpt lat="49.67316" lon="5.59503">
        <ele>332.1</ele>
        <time>2020-06-25T19:00:27Z</time>
      </trkpt>
      <trkpt lat="49.67317" lon="5.59512">
        <ele>332.2</ele>
        <time>2020-06-25T19:00:28Z</time>
      </trkpt>
      <trkpt lat="49.67318" lon="5.5952">
        <ele>332.3</ele>
        <time>2020-06-25T19:00:29Z</time>
      </trkpt>
      <trkpt lat="49.67318" lon="5.59528">
        <ele>332.3</ele>
        <time>2020-06-25T19:00:30Z</time>
      </trkpt>
      <trkpt lat="49.67319" lon="5.59537">
        <ele>332.5</ele>
        <time>2020-06-25T19:00:31Z</time>
      </trkpt>
      <trkpt lat="49.6732" lon="5.59545">
        <ele>332.6</ele>
        <time>2020-06-25T19:00:32Z</time>
      </trkpt>
      <trkpt lat="49.67321" lon="5.59554">
        <ele>332.7</ele>
        <time>2020-06-25T19:00:33Z</time>
      </trkpt>
      <trkpt lat="49.67321" lon="5.59563">
        <ele>332.9</ele>
        <time>2020-06-25T19:00:34Z</time>
      </trkpt>
      <trkpt lat="49.67322" lon="5.59572">
        <ele>333</ele>
        <time>2020-06-25T19:00:35Z</time>
      </trkpt>
      <trkpt lat="49.67322" lon="5.5958">
        <ele>333.1</ele>
        <time>2020-06-25T19:00:36Z</time>
      </trkpt>
      <trkpt lat="49.67323" lon="5.59588">
        <ele>333.2</ele>
        <time>2020-06-25T19:00:37Z</time>
      </trkpt>
      <trkpt lat="49.67324" lon="5.59596">
        <ele>333.3</ele>
        <time>2020-06-25T19:00:38Z</time>
      </trkpt>
      <trkpt lat="49.67325" lon="5.59605">
        <ele>333.4</ele>
        <time>2020-06-25T19:00:39Z</time>
      </trkpt>
      <trkpt lat="49.67326" lon="5.59613">
        <ele>333.4</ele>
        <time>2020-06-25T19:00:40Z</time>
      </trkpt>
      <trkpt lat="49.67327" lon="5.59622">
        <ele>333.4</ele>
        <time>2020-06-25T19:00:41Z</time>
      </trkpt>
      <trkpt lat="49.67328" lon="5.5963">
        <ele>333.4</ele>
        <time>2020-06-25T19:00:42Z</time>
      </trkpt>
      <trkpt lat="49.67329" lon="5.59638">
        <ele>333.4</ele>
        <time>2020-06-25T19:00:43Z</time>
      </trkpt>
      <trkpt lat="49.6733" lon="5.59647">
        <ele>333.4</ele>
        <time>2020-06-25T19:00:44Z</time>
      </trkpt>
      <trkpt lat="49.67332" lon="5.59656">
        <ele>333.4</ele>
        <time>2020-06-25T19:00:45Z</time>
      </trkpt>
      <trkpt lat="49.67333" lon="5.59665">
        <ele>333.4</ele>
        <time>2020-06-25T19:00:46Z</time>
      </trkpt>
      <trkpt lat="49.67334" lon="5.59673">
        <ele>333.4</ele>
        <time>2020-06-25T19:00:47Z</time>
      </trkpt>
      <trkpt lat="49.67335" lon="5.5968">
        <ele>333.4</ele>
        <time>2020-06-25T19:00:48Z</time>
      </trkpt>
      <trkpt lat="49.67336" lon="5.59689">
        <ele>333.4</ele>
        <time>2020-06-25T19:00:49Z</time>
      </trkpt>
      <trkpt lat="49.67337" lon="5.59698">
        <ele>333.4</ele>
        <time>2020-06-25T19:00:50Z</time>
      </trkpt>
      <trkpt lat="49.67339" lon="5.59706">
        <ele>333.4</ele>
        <time>2020-06-25T19:00:51Z</time>
      </trkpt>
      <trkpt lat="49.6734" lon="5.59714">
        <ele>333.4</ele>
        <time>2020-06-25T19:00:52Z</time>
      </trkpt>
      <trkpt lat="49.67341" lon="5.59722">
        <ele>333.4</ele>
        <time>2020-06-25T19:00:53Z</time>
      </trkpt>
      <trkpt lat="49.67342" lon="5.59729">
        <ele>333.3</ele>
        <time>2020-06-25T19:00:54Z</time>
      </trkpt>
      <trkpt lat="49.67343" lon="5.59737">
        <ele>333.3</ele>
        <time>2020-06-25T19:00:55Z</time>
      </trkpt>
      <trkpt lat="49.67343" lon="5.59745">
        <ele>333.2</ele>
        <time>2020-06-25T19:00:56Z</time>
      </trkpt>
      <trkpt lat="49.67345" lon="5.59754">
        <ele>333.2</ele>
        <time>2020-06-25T19:00:57Z</time>
      </trkpt>
      <trkpt lat="49.67345" lon="5.59761">
        <ele>333.1</ele>
        <time>2020-06-25T19:00:58Z</time>
      </trkpt>
      <trkpt lat="49.67345" lon="5.5977">
        <ele>333.1</ele>
        <time>2020-06-25T19:00:59Z</time>
      </trkpt>
      <trkpt lat="49.67346" lon="5.59779">
        <ele>333.1</ele>
        <time>2020-06-25T19:01:00Z</time>
      </trkpt>
      <trkpt lat="49.67347" lon="5.59787">
        <ele>333.2</ele>
        <time>2020-06-25T19:01:01Z</time>
      </trkpt>
      <trkpt lat="49.67348" lon="5.59794">
        <ele>333.2</ele>
        <time>2020-06-25T19:01:02Z</time>
      </trkpt>
      <trkpt lat="49.6735" lon="5.59802">
        <ele>333.2</ele>
        <time>2020-06-25T19:01:03Z</time>
      </trkpt>
      <trkpt lat="49.67351" lon="5.5981">
        <ele>333.2</ele>
        <time>2020-06-25T19:01:04Z</time>
      </trkpt>
      <trkpt lat="49.67352" lon="5.5982">
        <ele>333.2</ele>
        <time>2020-06-25T19:01:05Z</time>
      </trkpt>
      <trkpt lat="49.67353" lon="5.59829">
        <ele>333.3</ele>
        <time>2020-06-25T19:01:06Z</time>
      </trkpt>
      <trkpt lat="49.67353" lon="5.59838">
        <ele>333.3</ele>
        <time>2020-06-25T19:01:07Z</time>
      </trkpt>
      <trkpt lat="49.67354" lon="5.59847">
        <ele>333.3</ele>
        <time>2020-06-25T19:01:08Z</time>
      </trkpt>
      <trkpt lat="49.67355" lon="5.59855">
        <ele>333.4</ele>
        <time>2020-06-25T19:01:09Z</time>
      </trkpt>
      <trkpt lat="49.67356" lon="5.59863">
        <ele>333.4</ele>
        <time>2020-06-25T19:01:10Z</time>
      </trkpt>
      <trkpt lat="49.67357" lon="5.59872">
        <ele>333.5</ele>
        <time>2020-06-25T19:01:11Z</time>
      </trkpt>
      <trkpt lat="49.67358" lon="5.59881">
        <ele>333.6</ele>
        <time>2020-06-25T19:01:12Z</time>
      </trkpt>
      <trkpt lat="49.67359" lon="5.59889">
        <ele>333.7</ele>
        <time>2020-06-25T19:01:13Z</time>
      </trkpt>
      <trkpt lat="49.67358" lon="5.59899">
        <ele>333.7</ele>
        <time>2020-06-25T19:01:14Z</time>
      </trkpt>
      <trkpt lat="49.6736" lon="5.59906">
        <ele>333.8</ele>
        <time>2020-06-25T19:01:15Z</time>
      </trkpt>
      <trkpt lat="49.67361" lon="5.59915">
        <ele>333.8</ele>
        <time>2020-06-25T19:01:16Z</time>
      </trkpt>
      <trkpt lat="49.67362" lon="5.59923">
        <ele>333.9</ele>
        <time>2020-06-25T19:01:17Z</time>
      </trkpt>
      <trkpt lat="49.67362" lon="5.59931">
        <ele>334</ele>
        <time>2020-06-25T19:01:18Z</time>
      </trkpt>
      <trkpt lat="49.67363" lon="5.59938">
        <ele>334</ele>
        <time>2020-06-25T19:01:19Z</time>
      </trkpt>
      <trkpt lat="49.67363" lon="5.59948">
        <ele>334</ele>
        <time>2020-06-25T19:01:20Z</time>
      </trkpt>
      <trkpt lat="49.67364" lon="5.59955">
        <ele>334.1</ele>
        <time>2020-06-25T19:01:21Z</time>
      </trkpt>
      <trkpt lat="49.67366" lon="5.59963">
        <ele>334.1</ele>
        <time>2020-06-25T19:01:22Z</time>
      </trkpt>
      <trkpt lat="49.67367" lon="5.5997">
        <ele>334.2</ele>
        <time>2020-06-25T19:01:23Z</time>
      </trkpt>
      <trkpt lat="49.67368" lon="5.59978">
        <ele>334.3</ele>
        <time>2020-06-25T19:01:24Z</time>
      </trkpt>
      <trkpt lat="49.6737" lon="5.59985">
        <ele>334.3</ele>
        <time>2020-06-25T19:01:25Z</time>
      </trkpt>
      <trkpt lat="49.67371" lon="5.59992">
        <ele>334.4</ele>
        <time>2020-06-25T19:01:26Z</time>
      </trkpt>
      <trkpt lat="49.67372" lon="5.6">
        <ele>334.6</ele>
        <time>2020-06-25T19:01:27Z</time>
      </trkpt>
      <trkpt lat="49.67371" lon="5.6001">
        <ele>334.7</ele>
        <time>2020-06-25T19:01:28Z</time>
      </trkpt>
      <trkpt lat="49.67373" lon="5.60019">
        <ele>334.9</ele>
        <time>2020-06-25T19:01:29Z</time>
      </trkpt>
      <trkpt lat="49.67373" lon="5.60027">
        <ele>335</ele>
        <time>2020-06-25T19:01:30Z</time>
      </trkpt>
      <trkpt lat="49.67374" lon="5.60035">
        <ele>335</ele>
        <time>2020-06-25T19:01:31Z</time>
      </trkpt>
      <trkpt lat="49.67374" lon="5.60042">
        <ele>335.1</ele>
        <time>2020-06-25T19:01:32Z</time>
      </trkpt>
      <trkpt lat="49.67375" lon="5.60049">
        <ele>335.1</ele>
        <time>2020-06-25T19:01:33Z</time>
      </trkpt>
      <trkpt lat="49.67376" lon="5.60056">
        <ele>335.1</ele>
        <time>2020-06-25T19:01:34Z</time>
      </trkpt>
      <trkpt lat="49.67377" lon="5.60065">
        <ele>335.1</ele>
        <time>2020-06-25T19:01:35Z</time>
      </trkpt>
      <trkpt lat="49.67379" lon="5.60074">
        <ele>335.1</ele>
        <time>2020-06-25T19:01:36Z</time>
      </trkpt>
      <trkpt lat="49.67379" lon="5.60083">
        <ele>335.2</ele>
        <time>2020-06-25T19:01:37Z</time>
      </trkpt>
      <trkpt lat="49.67381" lon="5.60092">
        <ele>335.3</ele>
        <time>2020-06-25T19:01:38Z</time>
      </trkpt>
      <trkpt lat="49.67383" lon="5.60101">
        <ele>335.2</ele>
        <time>2020-06-25T19:01:39Z</time>
      </trkpt>
      <trkpt lat="49.67384" lon="5.60111">
        <ele>335.1</ele>
        <time>2020-06-25T19:01:40Z</time>
      </trkpt>
      <trkpt lat="49.67385" lon="5.6012">
        <ele>335</ele>
        <time>2020-06-25T19:01:41Z</time>
      </trkpt>
      <trkpt lat="49.67387" lon="5.6013">
        <ele>334.9</ele>
        <time>2020-06-25T19:01:42Z</time>
      </trkpt>
      <trkpt lat="49.67388" lon="5.60138">
        <ele>334.8</ele>
        <time>2020-06-25T19:01:43Z</time>
      </trkpt>
      <trkpt lat="49.67389" lon="5.60147">
        <ele>335</ele>
        <time>2020-06-25T19:01:44Z</time>
      </trkpt>
      <trkpt lat="49.6739" lon="5.60157">
        <ele>334.7</ele>
        <time>2020-06-25T19:01:45Z</time>
      </trkpt>
      <trkpt lat="49.6739" lon="5.60166">
        <ele>334.6</ele>
        <time>2020-06-25T19:01:46Z</time>
      </trkpt>
      <trkpt lat="49.67392" lon="5.60174">
        <ele>335.8</ele>
        <time>2020-06-25T19:01:47Z</time>
      </trkpt>
      <trkpt lat="49.67395" lon="5.60182">
        <ele>335.5</ele>
        <time>2020-06-25T19:01:48Z</time>
      </trkpt>
      <trkpt lat="49.67397" lon="5.6019">
        <ele>335.1</ele>
        <time>2020-06-25T19:01:49Z</time>
      </trkpt>
      <trkpt lat="49.67398" lon="5.602">
        <ele>334.7</ele>
        <time>2020-06-25T19:01:50Z</time>
      </trkpt>
      <trkpt lat="49.674" lon="5.6021">
        <ele>334.1</ele>
        <time>2020-06-25T19:01:51Z</time>
      </trkpt>
      <trkpt lat="49.67402" lon="5.60218">
        <ele>334.1</ele>
        <time>2020-06-25T19:01:52Z</time>
      </trkpt>
      <trkpt lat="49.67403" lon="5.60227">
        <ele>334.2</ele>
        <time>2020-06-25T19:01:53Z</time>
      </trkpt>
      <trkpt lat="49.67405" lon="5.60237">
        <ele>334.2</ele>
        <time>2020-06-25T19:01:54Z</time>
      </trkpt>
      <trkpt lat="49.67405" lon="5.60245">
        <ele>334.2</ele>
        <time>2020-06-25T19:01:55Z</time>
      </trkpt>
      <trkpt lat="49.67405" lon="5.60255">
        <ele>334.3</ele>
        <time>2020-06-25T19:01:56Z</time>
      </trkpt>
      <trkpt lat="49.67407" lon="5.60263">
        <ele>334.5</ele>
        <time>2020-06-25T19:01:57Z</time>
      </trkpt>
      <trkpt lat="49.67409" lon="5.60271">
        <ele>334.5</ele>
        <time>2020-06-25T19:01:58Z</time>
      </trkpt>
      <trkpt lat="49.6741" lon="5.60279">
        <ele>334.6</ele>
        <time>2020-06-25T19:01:59Z</time>
      </trkpt>
      <trkpt lat="49.67412" lon="5.60287">
        <ele>334.7</ele>
        <time>2020-06-25T19:02:00Z</time>
      </trkpt>
      <trkpt lat="49.67413" lon="5.60295">
        <ele>334.8</ele>
        <time>2020-06-25T19:02:01Z</time>
      </trkpt>
      <trkpt lat="49.67414" lon="5.60301">
        <ele>334.9</ele>
        <time>2020-06-25T19:02:02Z</time>
      </trkpt>
      <trkpt lat="49.67415" lon="5.60308">
        <ele>335</ele>
        <time>2020-06-25T19:02:03Z</time>
      </trkpt>
      <trkpt lat="49.67417" lon="5.60316">
        <ele>335.2</ele>
        <time>2020-06-25T19:02:04Z</time>
      </trkpt>
      <trkpt lat="49.67418" lon="5.60322">
        <ele>335.2</ele>
        <time>2020-06-25T19:02:05Z</time>
      </trkpt>
      <trkpt lat="49.6742" lon="5.60328">
        <ele>335.3</ele>
        <time>2020-06-25T19:02:06Z</time>
      </trkpt>
      <trkpt lat="49.67421" lon="5.60335">
        <ele>335.3</ele>
        <time>2020-06-25T19:02:07Z</time>
      </trkpt>
      <trkpt lat="49.67423" lon="5.60341">
        <ele>335.4</ele>
        <time>2020-06-25T19:02:08Z</time>
      </trkpt>
      <trkpt lat="49.67424" lon="5.60348">
        <ele>335.5</ele>
        <time>2020-06-25T19:02:09Z</time>
      </trkpt>
      <trkpt lat="49.67426" lon="5.60354">
        <ele>335.5</ele>
        <time>2020-06-25T19:02:10Z</time>
      </trkpt>
      <trkpt lat="49.67427" lon="5.60361">
        <ele>335.6</ele>
        <time>2020-06-25T19:02:11Z</time>
      </trkpt>
      <trkpt lat="49.67429" lon="5.60368">
        <ele>335.7</ele>
        <time>2020-06-25T19:02:12Z</time>
      </trkpt>
      <trkpt lat="49.6743" lon="5.60375">
        <ele>335.8</ele>
        <time>2020-06-25T19:02:13Z</time>
      </trkpt>
      <trkpt lat="49.67432" lon="5.60383">
        <ele>335.8</ele>
        <time>2020-06-25T19:02:14Z</time>
      </trkpt>
      <trkpt lat="49.67434" lon="5.60391">
        <ele>335.9</ele>
        <time>2020-06-25T19:02:15Z</time>
      </trkpt>
      <trkpt lat="49.67435" lon="5.60398">
        <ele>335.9</ele>
        <time>2020-06-25T19:02:16Z</time>
      </trkpt>
      <trkpt lat="49.67437" lon="5.60405">
        <ele>335.8</ele>
        <time>2020-06-25T19:02:17Z</time>
      </trkpt>
      <trkpt lat="49.67438" lon="5.60413">
        <ele>335.8</ele>
        <time>2020-06-25T19:02:18Z</time>
      </trkpt>
      <trkpt lat="49.6744" lon="5.6042">
        <ele>335.9</ele>
        <time>2020-06-25T19:02:19Z</time>
      </trkpt>
      <trkpt lat="49.67441" lon="5.60427">
        <ele>336</ele>
        <time>2020-06-25T19:02:20Z</time>
      </trkpt>
      <trkpt lat="49.67443" lon="5.60434">
        <ele>336.1</ele>
        <time>2020-06-25T19:02:21Z</time>
      </trkpt>
      <trkpt lat="49.67444" lon="5.60442">
        <ele>336.1</ele>
        <time>2020-06-25T19:02:22Z</time>
      </trkpt>
      <trkpt lat="49.67447" lon="5.60449">
        <ele>336.2</ele>
        <time>2020-06-25T19:02:23Z</time>
      </trkpt>
      <trkpt lat="49.67449" lon="5.60455">
        <ele>336.3</ele>
        <time>2020-06-25T19:02:24Z</time>
      </trkpt>
      <trkpt lat="49.67449" lon="5.60462">
        <ele>336.3</ele>
        <time>2020-06-25T19:02:25Z</time>
      </trkpt>
      <trkpt lat="49.6745" lon="5.60469">
        <ele>336.3</ele>
        <time>2020-06-25T19:02:26Z</time>
      </trkpt>
      <trkpt lat="49.67451" lon="5.60477">
        <ele>336.3</ele>
        <time>2020-06-25T19:02:27Z</time>
      </trkpt>
      <trkpt lat="49.67452" lon="5.60485">
        <ele>336.3</ele>
        <time>2020-06-25T19:02:28Z</time>
      </trkpt>
      <trkpt lat="49.67451" lon="5.60492">
        <ele>336.3</ele>
        <time>2020-06-25T19:02:29Z</time>
      </trkpt>
      <trkpt lat="49.6745" lon="5.60501">
        <ele>336.3</ele>
        <time>2020-06-25T19:02:30Z</time>
      </trkpt>
      <trkpt lat="49.67448" lon="5.60508">
        <ele>336.3</ele>
        <time>2020-06-25T19:02:31Z</time>
      </trkpt>
      <trkpt lat="49.67447" lon="5.60515">
        <ele>336.5</ele>
        <time>2020-06-25T19:02:32Z</time>
      </trkpt>
      <trkpt lat="49.67445" lon="5.60524">
        <ele>336.5</ele>
        <time>2020-06-25T19:02:33Z</time>
      </trkpt>
      <trkpt lat="49.67446" lon="5.60533">
        <ele>336.5</ele>
        <time>2020-06-25T19:02:34Z</time>
      </trkpt>
      <trkpt lat="49.67448" lon="5.6054">
        <ele>336.9</ele>
        <time>2020-06-25T19:02:35Z</time>
      </trkpt>
      <trkpt lat="49.67451" lon="5.60545">
        <ele>337</ele>
        <time>2020-06-25T19:02:36Z</time>
      </trkpt>
      <trkpt lat="49.67455" lon="5.60548">
        <ele>337.1</ele>
        <time>2020-06-25T19:02:37Z</time>
      </trkpt>
      <trkpt lat="49.67459" lon="5.60551">
        <ele>338.2</ele>
        <time>2020-06-25T19:02:38Z</time>
      </trkpt>
      <trkpt lat="49.67465" lon="5.60552">
        <ele>338</ele>
        <time>2020-06-25T19:02:39Z</time>
      </trkpt>
      <trkpt lat="49.67469" lon="5.60556">
        <ele>337.9</ele>
        <time>2020-06-25T19:02:40Z</time>
      </trkpt>
      <trkpt lat="49.67474" lon="5.6056">
        <ele>337.8</ele>
        <time>2020-06-25T19:02:41Z</time>
      </trkpt>
      <trkpt lat="49.67478" lon="5.60563">
        <ele>337.6</ele>
        <time>2020-06-25T19:02:42Z</time>
      </trkpt>
      <trkpt lat="49.67482" lon="5.60569">
        <ele>337.5</ele>
        <time>2020-06-25T19:02:43Z</time>
      </trkpt>
      <trkpt lat="49.67485" lon="5.60575">
        <ele>337.6</ele>
        <time>2020-06-25T19:02:44Z</time>
      </trkpt>
      <trkpt lat="49.67488" lon="5.60581">
        <ele>337.8</ele>
        <time>2020-06-25T19:02:45Z</time>
      </trkpt>
      <trkpt lat="49.67491" lon="5.60588">
        <ele>337.9</ele>
        <time>2020-06-25T19:02:46Z</time>
      </trkpt>
      <trkpt lat="49.67494" lon="5.60594">
        <ele>337.9</ele>
        <time>2020-06-25T19:02:47Z</time>
      </trkpt>
      <trkpt lat="49.67497" lon="5.606">
        <ele>337.9</ele>
        <time>2020-06-25T19:02:48Z</time>
      </trkpt>
      <trkpt lat="49.67499" lon="5.60606">
        <ele>337.9</ele>
        <time>2020-06-25T19:02:49Z</time>
      </trkpt>
      <trkpt lat="49.67501" lon="5.60613">
        <ele>337.8</ele>
        <time>2020-06-25T19:02:50Z</time>
      </trkpt>
      <trkpt lat="49.67503" lon="5.60619">
        <ele>337.7</ele>
        <time>2020-06-25T19:02:51Z</time>
      </trkpt>
      <trkpt lat="49.67505" lon="5.60626">
        <ele>337.7</ele>
        <time>2020-06-25T19:02:52Z</time>
      </trkpt>
      <trkpt lat="49.67507" lon="5.60635">
        <ele>337.6</ele>
        <time>2020-06-25T19:02:53Z</time>
      </trkpt>
      <trkpt lat="49.67509" lon="5.60643">
        <ele>337.6</ele>
        <time>2020-06-25T19:02:54Z</time>
      </trkpt>
      <trkpt lat="49.67512" lon="5.6065">
        <ele>337.6</ele>
        <time>2020-06-25T19:02:55Z</time>
      </trkpt>
      <trkpt lat="49.67513" lon="5.60658">
        <ele>337.6</ele>
        <time>2020-06-25T19:02:56Z</time>
      </trkpt>
      <trkpt lat="49.67515" lon="5.60667">
        <ele>337.5</ele>
        <time>2020-06-25T19:02:57Z</time>
      </trkpt>
      <trkpt lat="49.67517" lon="5.60675">
        <ele>337.5</ele>
        <time>2020-06-25T19:02:58Z</time>
      </trkpt>
      <trkpt lat="49.67519" lon="5.60681">
        <ele>337.4</ele>
        <time>2020-06-25T19:02:59Z</time>
      </trkpt>
      <trkpt lat="49.6752" lon="5.60688">
        <ele>337.3</ele>
        <time>2020-06-25T19:03:00Z</time>
      </trkpt>
      <trkpt lat="49.67521" lon="5.60695">
        <ele>337.3</ele>
        <time>2020-06-25T19:03:01Z</time>
      </trkpt>
      <trkpt lat="49.67522" lon="5.60703">
        <ele>337.3</ele>
        <time>2020-06-25T19:03:02Z</time>
      </trkpt>
      <trkpt lat="49.67524" lon="5.60711">
        <ele>337.3</ele>
        <time>2020-06-25T19:03:03Z</time>
      </trkpt>
      <trkpt lat="49.67525" lon="5.60719">
        <ele>337.2</ele>
        <time>2020-06-25T19:03:04Z</time>
      </trkpt>
      <trkpt lat="49.67526" lon="5.60726">
        <ele>337.2</ele>
        <time>2020-06-25T19:03:05Z</time>
      </trkpt>
      <trkpt lat="49.67527" lon="5.60733">
        <ele>337.1</ele>
        <time>2020-06-25T19:03:06Z</time>
      </trkpt>
      <trkpt lat="49.67529" lon="5.60742">
        <ele>337</ele>
        <time>2020-06-25T19:03:07Z</time>
      </trkpt>
      <trkpt lat="49.6753" lon="5.60751">
        <ele>336.9</ele>
        <time>2020-06-25T19:03:08Z</time>
      </trkpt>
      <trkpt lat="49.67532" lon="5.6076">
        <ele>336.9</ele>
        <time>2020-06-25T19:03:09Z</time>
      </trkpt>
      <trkpt lat="49.67532" lon="5.60769">
        <ele>336.9</ele>
        <time>2020-06-25T19:03:10Z</time>
      </trkpt>
      <trkpt lat="49.67532" lon="5.60778">
        <ele>336.9</ele>
        <time>2020-06-25T19:03:11Z</time>
      </trkpt>
      <trkpt lat="49.67532" lon="5.60787">
        <ele>336.8</ele>
        <time>2020-06-25T19:03:12Z</time>
      </trkpt>
      <trkpt lat="49.67532" lon="5.60795">
        <ele>336.7</ele>
        <time>2020-06-25T19:03:13Z</time>
      </trkpt>
      <trkpt lat="49.67532" lon="5.60803">
        <ele>336.6</ele>
        <time>2020-06-25T19:03:14Z</time>
      </trkpt>
      <trkpt lat="49.67533" lon="5.60812">
        <ele>336.5</ele>
        <time>2020-06-25T19:03:15Z</time>
      </trkpt>
      <trkpt lat="49.67534" lon="5.60821">
        <ele>336.4</ele>
        <time>2020-06-25T19:03:16Z</time>
      </trkpt>
      <trkpt lat="49.67535" lon="5.6083">
        <ele>336.4</ele>
        <time>2020-06-25T19:03:17Z</time>
      </trkpt>
      <trkpt lat="49.67535" lon="5.60839">
        <ele>336.3</ele>
        <time>2020-06-25T19:03:18Z</time>
      </trkpt>
      <trkpt lat="49.67536" lon="5.60848">
        <ele>336.2</ele>
        <time>2020-06-25T19:03:19Z</time>
      </trkpt>
      <trkpt lat="49.67536" lon="5.60856">
        <ele>336.1</ele>
        <time>2020-06-25T19:03:20Z</time>
      </trkpt>
      <trkpt lat="49.67538" lon="5.60864">
        <ele>336.1</ele>
        <time>2020-06-25T19:03:21Z</time>
      </trkpt>
      <trkpt lat="49.67539" lon="5.60873">
        <ele>336.1</ele>
        <time>2020-06-25T19:03:22Z</time>
      </trkpt>
      <trkpt lat="49.6754" lon="5.60881">
        <ele>336.2</ele>
        <time>2020-06-25T19:03:23Z</time>
      </trkpt>
      <trkpt lat="49.6754" lon="5.6089">
        <ele>336.3</ele>
        <time>2020-06-25T19:03:24Z</time>
      </trkpt>
      <trkpt lat="49.67541" lon="5.60899">
        <ele>336.3</ele>
        <time>2020-06-25T19:03:25Z</time>
      </trkpt>
      <trkpt lat="49.67542" lon="5.60907">
        <ele>336.3</ele>
        <time>2020-06-25T19:03:26Z</time>
      </trkpt>
      <trkpt lat="49.67543" lon="5.60916">
        <ele>336.3</ele>
        <time>2020-06-25T19:03:27Z</time>
      </trkpt>
      <trkpt lat="49.67543" lon="5.60924">
        <ele>336.3</ele>
        <time>2020-06-25T19:03:28Z</time>
      </trkpt>
      <trkpt lat="49.67544" lon="5.60933">
        <ele>336.3</ele>
        <time>2020-06-25T19:03:29Z</time>
      </trkpt>
      <trkpt lat="49.67544" lon="5.60942">
        <ele>336.3</ele>
        <time>2020-06-25T19:03:30Z</time>
      </trkpt>
      <trkpt lat="49.67544" lon="5.60952">
        <ele>336.4</ele>
        <time>2020-06-25T19:03:31Z</time>
      </trkpt>
      <trkpt lat="49.67545" lon="5.60962">
        <ele>336.5</ele>
        <time>2020-06-25T19:03:32Z</time>
      </trkpt>
      <trkpt lat="49.67545" lon="5.60971">
        <ele>336.6</ele>
        <time>2020-06-25T19:03:33Z</time>
      </trkpt>
      <trkpt lat="49.67546" lon="5.6098">
        <ele>336.7</ele>
        <time>2020-06-25T19:03:34Z</time>
      </trkpt>
      <trkpt lat="49.67546" lon="5.6099">
        <ele>336.8</ele>
        <time>2020-06-25T19:03:35Z</time>
      </trkpt>
      <trkpt lat="49.67545" lon="5.60999">
        <ele>336.8</ele>
        <time>2020-06-25T19:03:36Z</time>
      </trkpt>
      <trkpt lat="49.67545" lon="5.61008">
        <ele>336.9</ele>
        <time>2020-06-25T19:03:37Z</time>
      </trkpt>
      <trkpt lat="49.67545" lon="5.61016">
        <ele>337</ele>
        <time>2020-06-25T19:03:38Z</time>
      </trkpt>
      <trkpt lat="49.67545" lon="5.61027">
        <ele>337.1</ele>
        <time>2020-06-25T19:03:39Z</time>
      </trkpt>
      <trkpt lat="49.67545" lon="5.61037">
        <ele>337.2</ele>
        <time>2020-06-25T19:03:40Z</time>
      </trkpt>
      <trkpt lat="49.67546" lon="5.61045">
        <ele>337.3</ele>
        <time>2020-06-25T19:03:41Z</time>
      </trkpt>
      <trkpt lat="49.67544" lon="5.61053">
        <ele>337.5</ele>
        <time>2020-06-25T19:03:42Z</time>
      </trkpt>
      <trkpt lat="49.67545" lon="5.61061">
        <ele>337.6</ele>
        <time>2020-06-25T19:03:43Z</time>
      </trkpt>
      <trkpt lat="49.67545" lon="5.61069">
        <ele>337.7</ele>
        <time>2020-06-25T19:03:44Z</time>
      </trkpt>
      <trkpt lat="49.67546" lon="5.61075">
        <ele>337.9</ele>
        <time>2020-06-25T19:03:45Z</time>
      </trkpt>
      <trkpt lat="49.67547" lon="5.61083">
        <ele>338</ele>
        <time>2020-06-25T19:03:46Z</time>
      </trkpt>
      <trkpt lat="49.67547" lon="5.6109">
        <ele>338.1</ele>
        <time>2020-06-25T19:03:47Z</time>
      </trkpt>
      <trkpt lat="49.67548" lon="5.61096">
        <ele>338.3</ele>
        <time>2020-06-25T19:03:48Z</time>
      </trkpt>
      <trkpt lat="49.67548" lon="5.61103">
        <ele>338.4</ele>
        <time>2020-06-25T19:03:49Z</time>
      </trkpt>
      <trkpt lat="49.6755" lon="5.61112">
        <ele>338.6</ele>
        <time>2020-06-25T19:03:50Z</time>
      </trkpt>
      <trkpt lat="49.6755" lon="5.6112">
        <ele>338.9</ele>
        <time>2020-06-25T19:03:51Z</time>
      </trkpt>
      <trkpt lat="49.67551" lon="5.61128">
        <ele>339.1</ele>
        <time>2020-06-25T19:03:52Z</time>
      </trkpt>
      <trkpt lat="49.67552" lon="5.61135">
        <ele>339.3</ele>
        <time>2020-06-25T19:03:53Z</time>
      </trkpt>
      <trkpt lat="49.67552" lon="5.61141">
        <ele>339.5</ele>
        <time>2020-06-25T19:03:54Z</time>
      </trkpt>
      <trkpt lat="49.67553" lon="5.61147">
        <ele>339.7</ele>
        <time>2020-06-25T19:03:55Z</time>
      </trkpt>
      <trkpt lat="49.67554" lon="5.61153">
        <ele>339.9</ele>
        <time>2020-06-25T19:03:56Z</time>
      </trkpt>
      <trkpt lat="49.67554" lon="5.61159">
        <ele>340</ele>
        <time>2020-06-25T19:03:57Z</time>
      </trkpt>
      <trkpt lat="49.67555" lon="5.61165">
        <ele>340.2</ele>
        <time>2020-06-25T19:03:58Z</time>
      </trkpt>
      <trkpt lat="49.67556" lon="5.61171">
        <ele>340.4</ele>
        <time>2020-06-25T19:03:59Z</time>
      </trkpt>
      <trkpt lat="49.67556" lon="5.61178">
        <ele>340.6</ele>
        <time>2020-06-25T19:04:00Z</time>
      </trkpt>
      <trkpt lat="49.67556" lon="5.61184">
        <ele>340.8</ele>
        <time>2020-06-25T19:04:01Z</time>
      </trkpt>
      <trkpt lat="49.67556" lon="5.61191">
        <ele>341</ele>
        <time>2020-06-25T19:04:02Z</time>
      </trkpt>
      <trkpt lat="49.67557" lon="5.61197">
        <ele>341.2</ele>
        <time>2020-06-25T19:04:03Z</time>
      </trkpt>
      <trkpt lat="49.67558" lon="5.61204">
        <ele>341.4</ele>
        <time>2020-06-25T19:04:04Z</time>
      </trkpt>
      <trkpt lat="49.67558" lon="5.61211">
        <ele>341.6</ele>
        <time>2020-06-25T19:04:05Z</time>
      </trkpt>
      <trkpt lat="49.67559" lon="5.61218">
        <ele>341.8</ele>
        <time>2020-06-25T19:04:06Z</time>
      </trkpt>
      <trkpt lat="49.67559" lon="5.61225">
        <ele>342</ele>
        <time>2020-06-25T19:04:07Z</time>
      </trkpt>
      <trkpt lat="49.6756" lon="5.61232">
        <ele>342.1</ele>
        <time>2020-06-25T19:04:08Z</time>
      </trkpt>
      <trkpt lat="49.67561" lon="5.61239">
        <ele>342.3</ele>
        <time>2020-06-25T19:04:09Z</time>
      </trkpt>
      <trkpt lat="49.67561" lon="5.61245">
        <ele>342.5</ele>
        <time>2020-06-25T19:04:10Z</time>
      </trkpt>
      <trkpt lat="49.67561" lon="5.61253">
        <ele>342.7</ele>
        <time>2020-06-25T19:04:11Z</time>
      </trkpt>
      <trkpt lat="49.67561" lon="5.6126">
        <ele>342.9</ele>
        <time>2020-06-25T19:04:12Z</time>
      </trkpt>
      <trkpt lat="49.67562" lon="5.61268">
        <ele>343.1</ele>
        <time>2020-06-25T19:04:13Z</time>
      </trkpt>
      <trkpt lat="49.67562" lon="5.61275">
        <ele>343.3</ele>
        <time>2020-06-25T19:04:14Z</time>
      </trkpt>
      <trkpt lat="49.67562" lon="5.61281">
        <ele>343.5</ele>
        <time>2020-06-25T19:04:15Z</time>
      </trkpt>
      <trkpt lat="49.67562" lon="5.61287">
        <ele>343.7</ele>
        <time>2020-06-25T19:04:16Z</time>
      </trkpt>
      <trkpt lat="49.67562" lon="5.61294">
        <ele>343.9</ele>
        <time>2020-06-25T19:04:17Z</time>
      </trkpt>
      <trkpt lat="49.67562" lon="5.613">
        <ele>344.1</ele>
        <time>2020-06-25T19:04:18Z</time>
      </trkpt>
      <trkpt lat="49.67562" lon="5.61307">
        <ele>344.3</ele>
        <time>2020-06-25T19:04:19Z</time>
      </trkpt>
      <trkpt lat="49.67563" lon="5.61314">
        <ele>344.4</ele>
        <time>2020-06-25T19:04:20Z</time>
      </trkpt>
      <trkpt lat="49.67564" lon="5.6132">
        <ele>344.6</ele>
        <time>2020-06-25T19:04:21Z</time>
      </trkpt>
      <trkpt lat="49.67565" lon="5.61326">
        <ele>344.9</ele>
        <time>2020-06-25T19:04:22Z</time>
      </trkpt>
      <trkpt lat="49.67565" lon="5.61333">
        <ele>345.2</ele>
        <time>2020-06-25T19:04:23Z</time>
      </trkpt>
      <trkpt lat="49.67566" lon="5.6134">
        <ele>345.4</ele>
        <time>2020-06-25T19:04:24Z</time>
      </trkpt>
      <trkpt lat="49.67567" lon="5.61347">
        <ele>345.6</ele>
        <time>2020-06-25T19:04:25Z</time>
      </trkpt>
      <trkpt lat="49.67567" lon="5.61353">
        <ele>345.8</ele>
        <time>2020-06-25T19:04:26Z</time>
      </trkpt>
      <trkpt lat="49.67568" lon="5.6136">
        <ele>345.9</ele>
        <time>2020-06-25T19:04:27Z</time>
      </trkpt>
      <trkpt lat="49.67568" lon="5.61366">
        <ele>346</ele>
        <time>2020-06-25T19:04:28Z</time>
      </trkpt>
      <trkpt lat="49.67569" lon="5.61372">
        <ele>346.1</ele>
        <time>2020-06-25T19:04:29Z</time>
      </trkpt>
      <trkpt lat="49.67569" lon="5.61378">
        <ele>346.2</ele>
        <time>2020-06-25T19:04:30Z</time>
      </trkpt>
      <trkpt lat="49.67569" lon="5.61385">
        <ele>346.4</ele>
        <time>2020-06-25T19:04:31Z</time>
      </trkpt>
      <trkpt lat="49.67569" lon="5.61392">
        <ele>346.5</ele>
        <time>2020-06-25T19:04:32Z</time>
      </trkpt>
      <trkpt lat="49.67569" lon="5.614">
        <ele>346.7</ele>
        <time>2020-06-25T19:04:33Z</time>
      </trkpt>
      <trkpt lat="49.67568" lon="5.61407">
        <ele>346.9</ele>
        <time>2020-06-25T19:04:34Z</time>
      </trkpt>
      <trkpt lat="49.67568" lon="5.61414">
        <ele>347</ele>
        <time>2020-06-25T19:04:35Z</time>
      </trkpt>
      <trkpt lat="49.67568" lon="5.61423">
        <ele>347.1</ele>
        <time>2020-06-25T19:04:36Z</time>
      </trkpt>
      <trkpt lat="49.67567" lon="5.61431">
        <ele>347.2</ele>
        <time>2020-06-25T19:04:37Z</time>
      </trkpt>
      <trkpt lat="49.67567" lon="5.6144">
        <ele>347.3</ele>
        <time>2020-06-25T19:04:38Z</time>
      </trkpt>
      <trkpt lat="49.67567" lon="5.61447">
        <ele>347.5</ele>
        <time>2020-06-25T19:04:39Z</time>
      </trkpt>
      <trkpt lat="49.67567" lon="5.61454">
        <ele>347.6</ele>
        <time>2020-06-25T19:04:40Z</time>
      </trkpt>
      <trkpt lat="49.67567" lon="5.61461">
        <ele>347.7</ele>
        <time>2020-06-25T19:04:41Z</time>
      </trkpt>
      <trkpt lat="49.67567" lon="5.61469">
        <ele>347.9</ele>
        <time>2020-06-25T19:04:42Z</time>
      </trkpt>
      <trkpt lat="49.67567" lon="5.61476">
        <ele>348</ele>
        <time>2020-06-25T19:04:43Z</time>
      </trkpt>
      <trkpt lat="49.67568" lon="5.61482">
        <ele>348.1</ele>
        <time>2020-06-25T19:04:44Z</time>
      </trkpt>
      <trkpt lat="49.67568" lon="5.61489">
        <ele>348.2</ele>
        <time>2020-06-25T19:04:45Z</time>
      </trkpt>
      <trkpt lat="49.67569" lon="5.61495">
        <ele>348.3</ele>
        <time>2020-06-25T19:04:46Z</time>
      </trkpt>
      <trkpt lat="49.67569" lon="5.61502">
        <ele>348.4</ele>
        <time>2020-06-25T19:04:47Z</time>
      </trkpt>
      <trkpt lat="49.6757" lon="5.61509">
        <ele>348.4</ele>
        <time>2020-06-25T19:04:48Z</time>
      </trkpt>
      <trkpt lat="49.6757" lon="5.61515">
        <ele>348.5</ele>
        <time>2020-06-25T19:04:49Z</time>
      </trkpt>
      <trkpt lat="49.6757" lon="5.61521">
        <ele>348.6</ele>
        <time>2020-06-25T19:04:50Z</time>
      </trkpt>
      <trkpt lat="49.6757" lon="5.61527">
        <ele>348.7</ele>
        <time>2020-06-25T19:04:51Z</time>
      </trkpt>
      <trkpt lat="49.6757" lon="5.61533">
        <ele>348.8</ele>
        <time>2020-06-25T19:04:52Z</time>
      </trkpt>
      <trkpt lat="49.6757" lon="5.6154">
        <ele>348.9</ele>
        <time>2020-06-25T19:04:53Z</time>
      </trkpt>
      <trkpt lat="49.67571" lon="5.61547">
        <ele>349</ele>
        <time>2020-06-25T19:04:54Z</time>
      </trkpt>
      <trkpt lat="49.6757" lon="5.61554">
        <ele>349.1</ele>
        <time>2020-06-25T19:04:55Z</time>
      </trkpt>
      <trkpt lat="49.67571" lon="5.61561">
        <ele>349.1</ele>
        <time>2020-06-25T19:04:56Z</time>
      </trkpt>
      <trkpt lat="49.67571" lon="5.61569">
        <ele>349.2</ele>
        <time>2020-06-25T19:04:57Z</time>
      </trkpt>
      <trkpt lat="49.67571" lon="5.61576">
        <ele>349.3</ele>
        <time>2020-06-25T19:04:58Z</time>
      </trkpt>
      <trkpt lat="49.67572" lon="5.61584">
        <ele>349.5</ele>
        <time>2020-06-25T19:04:59Z</time>
      </trkpt>
      <trkpt lat="49.67572" lon="5.61592">
        <ele>349.6</ele>
        <time>2020-06-25T19:05:00Z</time>
      </trkpt>
      <trkpt lat="49.67573" lon="5.61599">
        <ele>349.8</ele>
        <time>2020-06-25T19:05:01Z</time>
      </trkpt>
      <trkpt lat="49.67573" lon="5.61607">
        <ele>349.9</ele>
        <time>2020-06-25T19:05:02Z</time>
      </trkpt>
      <trkpt lat="49.67573" lon="5.61614">
        <ele>350</ele>
        <time>2020-06-25T19:05:03Z</time>
      </trkpt>
      <trkpt lat="49.67574" lon="5.61622">
        <ele>350.1</ele>
        <time>2020-06-25T19:05:04Z</time>
      </trkpt>
      <trkpt lat="49.67575" lon="5.61629">
        <ele>350.1</ele>
        <time>2020-06-25T19:05:05Z</time>
      </trkpt>
      <trkpt lat="49.67575" lon="5.61636">
        <ele>350.1</ele>
        <time>2020-06-25T19:05:06Z</time>
      </trkpt>
      <trkpt lat="49.67575" lon="5.61643">
        <ele>350.2</ele>
        <time>2020-06-25T19:05:07Z</time>
      </trkpt>
      <trkpt lat="49.67575" lon="5.61651">
        <ele>350.2</ele>
        <time>2020-06-25T19:05:08Z</time>
      </trkpt>
      <trkpt lat="49.67575" lon="5.61658">
        <ele>350.2</ele>
        <time>2020-06-25T19:05:09Z</time>
      </trkpt>
      <trkpt lat="49.67575" lon="5.61666">
        <ele>350.2</ele>
        <time>2020-06-25T19:05:10Z</time>
      </trkpt>
      <trkpt lat="49.67575" lon="5.61673">
        <ele>350.3</ele>
        <time>2020-06-25T19:05:11Z</time>
      </trkpt>
      <trkpt lat="49.67575" lon="5.61681">
        <ele>350.3</ele>
        <time>2020-06-25T19:05:12Z</time>
      </trkpt>
      <trkpt lat="49.67575" lon="5.6169">
        <ele>350.3</ele>
        <time>2020-06-25T19:05:13Z</time>
      </trkpt>
      <trkpt lat="49.67575" lon="5.61697">
        <ele>350.4</ele>
        <time>2020-06-25T19:05:14Z</time>
      </trkpt>
      <trkpt lat="49.67574" lon="5.61705">
        <ele>350.4</ele>
        <time>2020-06-25T19:05:15Z</time>
      </trkpt>
      <trkpt lat="49.67573" lon="5.61713">
        <ele>350.4</ele>
        <time>2020-06-25T19:05:16Z</time>
      </trkpt>
      <trkpt lat="49.67573" lon="5.61721">
        <ele>350.4</ele>
        <time>2020-06-25T19:05:17Z</time>
      </trkpt>
      <trkpt lat="49.67573" lon="5.61728">
        <ele>350.4</ele>
        <time>2020-06-25T19:05:18Z</time>
      </trkpt>
      <trkpt lat="49.67573" lon="5.61736">
        <ele>350.4</ele>
        <time>2020-06-25T19:05:19Z</time>
      </trkpt>
      <trkpt lat="49.67573" lon="5.61744">
        <ele>350.4</ele>
        <time>2020-06-25T19:05:20Z</time>
      </trkpt>
      <trkpt lat="49.67573" lon="5.61753">
        <ele>350.4</ele>
        <time>2020-06-25T19:05:21Z</time>
      </trkpt>
      <trkpt lat="49.67572" lon="5.61761">
        <ele>350.4</ele>
        <time>2020-06-25T19:05:22Z</time>
      </trkpt>
      <trkpt lat="49.67571" lon="5.6177">
        <ele>350.3</ele>
        <time>2020-06-25T19:05:23Z</time>
      </trkpt>
      <trkpt lat="49.67571" lon="5.6178">
        <ele>350.3</ele>
        <time>2020-06-25T19:05:24Z</time>
      </trkpt>
      <trkpt lat="49.67571" lon="5.61788">
        <ele>350.3</ele>
        <time>2020-06-25T19:05:25Z</time>
      </trkpt>
      <trkpt lat="49.67571" lon="5.61797">
        <ele>350.2</ele>
        <time>2020-06-25T19:05:26Z</time>
      </trkpt>
      <trkpt lat="49.6757" lon="5.61804">
        <ele>350.2</ele>
        <time>2020-06-25T19:05:27Z</time>
      </trkpt>
      <trkpt lat="49.67569" lon="5.61812">
        <ele>350.2</ele>
        <time>2020-06-25T19:05:28Z</time>
      </trkpt>
      <trkpt lat="49.67568" lon="5.6182">
        <ele>350.2</ele>
        <time>2020-06-25T19:05:29Z</time>
      </trkpt>
      <trkpt lat="49.67568" lon="5.61827">
        <ele>350.2</ele>
        <time>2020-06-25T19:05:30Z</time>
      </trkpt>
      <trkpt lat="49.67568" lon="5.61836">
        <ele>350.2</ele>
        <time>2020-06-25T19:05:31Z</time>
      </trkpt>
      <trkpt lat="49.67568" lon="5.61844">
        <ele>350.1</ele>
        <time>2020-06-25T19:05:32Z</time>
      </trkpt>
      <trkpt lat="49.67568" lon="5.61851">
        <ele>350.1</ele>
        <time>2020-06-25T19:05:33Z</time>
      </trkpt>
      <trkpt lat="49.67568" lon="5.6186">
        <ele>350</ele>
        <time>2020-06-25T19:05:34Z</time>
      </trkpt>
      <trkpt lat="49.67569" lon="5.61869">
        <ele>350</ele>
        <time>2020-06-25T19:05:35Z</time>
      </trkpt>
      <trkpt lat="49.67569" lon="5.61877">
        <ele>349.9</ele>
        <time>2020-06-25T19:05:36Z</time>
      </trkpt>
      <trkpt lat="49.67568" lon="5.61885">
        <ele>349.9</ele>
        <time>2020-06-25T19:05:37Z</time>
      </trkpt>
      <trkpt lat="49.67567" lon="5.61892">
        <ele>350</ele>
        <time>2020-06-25T19:05:38Z</time>
      </trkpt>
      <trkpt lat="49.67566" lon="5.619">
        <ele>350.1</ele>
        <time>2020-06-25T19:05:39Z</time>
      </trkpt>
      <trkpt lat="49.67567" lon="5.61908">
        <ele>350.1</ele>
        <time>2020-06-25T19:05:40Z</time>
      </trkpt>
      <trkpt lat="49.67567" lon="5.61916">
        <ele>349.9</ele>
        <time>2020-06-25T19:05:41Z</time>
      </trkpt>
      <trkpt lat="49.67565" lon="5.61922">
        <ele>349.8</ele>
        <time>2020-06-25T19:05:42Z</time>
      </trkpt>
      <trkpt lat="49.67565" lon="5.61929">
        <ele>349.7</ele>
        <time>2020-06-25T19:05:43Z</time>
      </trkpt>
      <trkpt lat="49.67564" lon="5.61937">
        <ele>349.5</ele>
        <time>2020-06-25T19:05:44Z</time>
      </trkpt>
      <trkpt lat="49.67564" lon="5.61945">
        <ele>349.4</ele>
        <time>2020-06-25T19:05:45Z</time>
      </trkpt>
      <trkpt lat="49.67564" lon="5.61954">
        <ele>349.1</ele>
        <time>2020-06-25T19:05:46Z</time>
      </trkpt>
      <trkpt lat="49.67564" lon="5.61964">
        <ele>348.9</ele>
        <time>2020-06-25T19:05:47Z</time>
      </trkpt>
      <trkpt lat="49.67563" lon="5.61972">
        <ele>348.8</ele>
        <time>2020-06-25T19:05:48Z</time>
      </trkpt>
      <trkpt lat="49.67563" lon="5.61979">
        <ele>348.7</ele>
        <time>2020-06-25T19:05:49Z</time>
      </trkpt>
      <trkpt lat="49.67563" lon="5.61987">
        <ele>348.6</ele>
        <time>2020-06-25T19:05:50Z</time>
      </trkpt>
      <trkpt lat="49.67563" lon="5.61996">
        <ele>348.4</ele>
        <time>2020-06-25T19:05:51Z</time>
      </trkpt>
      <trkpt lat="49.67562" lon="5.62005">
        <ele>348.2</ele>
        <time>2020-06-25T19:05:52Z</time>
      </trkpt>
      <trkpt lat="49.67562" lon="5.62013">
        <ele>348</ele>
        <time>2020-06-25T19:05:53Z</time>
      </trkpt>
      <trkpt lat="49.67562" lon="5.62023">
        <ele>347.9</ele>
        <time>2020-06-25T19:05:54Z</time>
      </trkpt>
      <trkpt lat="49.67561" lon="5.62031">
        <ele>347.7</ele>
        <time>2020-06-25T19:05:55Z</time>
      </trkpt>
      <trkpt lat="49.67561" lon="5.6204">
        <ele>347.6</ele>
        <time>2020-06-25T19:05:56Z</time>
      </trkpt>
      <trkpt lat="49.67561" lon="5.62049">
        <ele>347.4</ele>
        <time>2020-06-25T19:05:57Z</time>
      </trkpt>
      <trkpt lat="49.6756" lon="5.62057">
        <ele>347.2</ele>
        <time>2020-06-25T19:05:58Z</time>
      </trkpt>
      <trkpt lat="49.67559" lon="5.62067">
        <ele>346.9</ele>
        <time>2020-06-25T19:05:59Z</time>
      </trkpt>
      <trkpt lat="49.67559" lon="5.62076">
        <ele>346.7</ele>
        <time>2020-06-25T19:06:00Z</time>
      </trkpt>
      <trkpt lat="49.67558" lon="5.62085">
        <ele>346.5</ele>
        <time>2020-06-25T19:06:01Z</time>
      </trkpt>
      <trkpt lat="49.67557" lon="5.62096">
        <ele>346.2</ele>
        <time>2020-06-25T19:06:02Z</time>
      </trkpt>
      <trkpt lat="49.67556" lon="5.62106">
        <ele>346</ele>
        <time>2020-06-25T19:06:03Z</time>
      </trkpt>
      <trkpt lat="49.67555" lon="5.62115">
        <ele>345.7</ele>
        <time>2020-06-25T19:06:04Z</time>
      </trkpt>
      <trkpt lat="49.67553" lon="5.62124">
        <ele>345.5</ele>
        <time>2020-06-25T19:06:05Z</time>
      </trkpt>
      <trkpt lat="49.67552" lon="5.62134">
        <ele>345.4</ele>
        <time>2020-06-25T19:06:06Z</time>
      </trkpt>
      <trkpt lat="49.67552" lon="5.62145">
        <ele>345.1</ele>
        <time>2020-06-25T19:06:07Z</time>
      </trkpt>
      <trkpt lat="49.67551" lon="5.62155">
        <ele>344.9</ele>
        <time>2020-06-25T19:06:08Z</time>
      </trkpt>
      <trkpt lat="49.6755" lon="5.62166">
        <ele>344.6</ele>
        <time>2020-06-25T19:06:09Z</time>
      </trkpt>
      <trkpt lat="49.6755" lon="5.62176">
        <ele>344.4</ele>
        <time>2020-06-25T19:06:10Z</time>
      </trkpt>
      <trkpt lat="49.67549" lon="5.62185">
        <ele>344.2</ele>
        <time>2020-06-25T19:06:11Z</time>
      </trkpt>
      <trkpt lat="49.67548" lon="5.62195">
        <ele>344</ele>
        <time>2020-06-25T19:06:12Z</time>
      </trkpt>
      <trkpt lat="49.67547" lon="5.62205">
        <ele>343.7</ele>
        <time>2020-06-25T19:06:13Z</time>
      </trkpt>
      <trkpt lat="49.67547" lon="5.62214">
        <ele>343.5</ele>
        <time>2020-06-25T19:06:14Z</time>
      </trkpt>
      <trkpt lat="49.67546" lon="5.62225">
        <ele>343.3</ele>
        <time>2020-06-25T19:06:15Z</time>
      </trkpt>
      <trkpt lat="49.67544" lon="5.62236">
        <ele>343.2</ele>
        <time>2020-06-25T19:06:16Z</time>
      </trkpt>
      <trkpt lat="49.67543" lon="5.62245">
        <ele>343</ele>
        <time>2020-06-25T19:06:17Z</time>
      </trkpt>
      <trkpt lat="49.67543" lon="5.62254">
        <ele>342.9</ele>
        <time>2020-06-25T19:06:18Z</time>
      </trkpt>
      <trkpt lat="49.67542" lon="5.62263">
        <ele>342.7</ele>
        <time>2020-06-25T19:06:19Z</time>
      </trkpt>
      <trkpt lat="49.67541" lon="5.62273">
        <ele>342.5</ele>
        <time>2020-06-25T19:06:20Z</time>
      </trkpt>
      <trkpt lat="49.6754" lon="5.62283">
        <ele>342.2</ele>
        <time>2020-06-25T19:06:21Z</time>
      </trkpt>
      <trkpt lat="49.67538" lon="5.62294">
        <ele>342</ele>
        <time>2020-06-25T19:06:22Z</time>
      </trkpt>
      <trkpt lat="49.67537" lon="5.62305">
        <ele>341.9</ele>
        <time>2020-06-25T19:06:23Z</time>
      </trkpt>
      <trkpt lat="49.67536" lon="5.62314">
        <ele>341.7</ele>
        <time>2020-06-25T19:06:24Z</time>
      </trkpt>
      <trkpt lat="49.67534" lon="5.62323">
        <ele>341.5</ele>
        <time>2020-06-25T19:06:25Z</time>
      </trkpt>
      <trkpt lat="49.67533" lon="5.62333">
        <ele>341.3</ele>
        <time>2020-06-25T19:06:26Z</time>
      </trkpt>
      <trkpt lat="49.67531" lon="5.62342">
        <ele>341.1</ele>
        <time>2020-06-25T19:06:27Z</time>
      </trkpt>
      <trkpt lat="49.6753" lon="5.62351">
        <ele>341</ele>
        <time>2020-06-25T19:06:28Z</time>
      </trkpt>
      <trkpt lat="49.67529" lon="5.62361">
        <ele>340.9</ele>
        <time>2020-06-25T19:06:29Z</time>
      </trkpt>
      <trkpt lat="49.67528" lon="5.62371">
        <ele>340.8</ele>
        <time>2020-06-25T19:06:30Z</time>
      </trkpt>
      <trkpt lat="49.67527" lon="5.62381">
        <ele>340.7</ele>
        <time>2020-06-25T19:06:31Z</time>
      </trkpt>
      <trkpt lat="49.67526" lon="5.62391">
        <ele>340.7</ele>
        <time>2020-06-25T19:06:32Z</time>
      </trkpt>
      <trkpt lat="49.67524" lon="5.62402">
        <ele>340.6</ele>
        <time>2020-06-25T19:06:33Z</time>
      </trkpt>
      <trkpt lat="49.67523" lon="5.62412">
        <ele>340.5</ele>
        <time>2020-06-25T19:06:34Z</time>
      </trkpt>
      <trkpt lat="49.67522" lon="5.62423">
        <ele>340.4</ele>
        <time>2020-06-25T19:06:35Z</time>
      </trkpt>
      <trkpt lat="49.6752" lon="5.62435">
        <ele>340.2</ele>
        <time>2020-06-25T19:06:36Z</time>
      </trkpt>
      <trkpt lat="49.67519" lon="5.62445">
        <ele>340.1</ele>
        <time>2020-06-25T19:06:37Z</time>
      </trkpt>
      <trkpt lat="49.67517" lon="5.62456">
        <ele>340</ele>
        <time>2020-06-25T19:06:38Z</time>
      </trkpt>
      <trkpt lat="49.67516" lon="5.62467">
        <ele>339.9</ele>
        <time>2020-06-25T19:06:39Z</time>
      </trkpt>
      <trkpt lat="49.67514" lon="5.62476">
        <ele>339.9</ele>
        <time>2020-06-25T19:06:40Z</time>
      </trkpt>
      <trkpt lat="49.67514" lon="5.62486">
        <ele>339.8</ele>
        <time>2020-06-25T19:06:41Z</time>
      </trkpt>
      <trkpt lat="49.67512" lon="5.62496">
        <ele>339.8</ele>
        <time>2020-06-25T19:06:42Z</time>
      </trkpt>
      <trkpt lat="49.67511" lon="5.62505">
        <ele>339.8</ele>
        <time>2020-06-25T19:06:43Z</time>
      </trkpt>
      <trkpt lat="49.67509" lon="5.62514">
        <ele>339.8</ele>
        <time>2020-06-25T19:06:44Z</time>
      </trkpt>
      <trkpt lat="49.67508" lon="5.62524">
        <ele>339.9</ele>
        <time>2020-06-25T19:06:45Z</time>
      </trkpt>
      <trkpt lat="49.67506" lon="5.62534">
        <ele>339.9</ele>
        <time>2020-06-25T19:06:46Z</time>
      </trkpt>
      <trkpt lat="49.67506" lon="5.62544">
        <ele>339.9</ele>
        <time>2020-06-25T19:06:47Z</time>
      </trkpt>
      <trkpt lat="49.67504" lon="5.62554">
        <ele>340</ele>
        <time>2020-06-25T19:06:48Z</time>
      </trkpt>
      <trkpt lat="49.67503" lon="5.62562">
        <ele>340</ele>
        <time>2020-06-25T19:06:49Z</time>
      </trkpt>
      <trkpt lat="49.67501" lon="5.62571">
        <ele>340</ele>
        <time>2020-06-25T19:06:50Z</time>
      </trkpt>
      <trkpt lat="49.675" lon="5.6258">
        <ele>340</ele>
        <time>2020-06-25T19:06:51Z</time>
      </trkpt>
      <trkpt lat="49.67499" lon="5.6259">
        <ele>340</ele>
        <time>2020-06-25T19:06:52Z</time>
      </trkpt>
      <trkpt lat="49.67496" lon="5.626">
        <ele>340</ele>
        <time>2020-06-25T19:06:53Z</time>
      </trkpt>
      <trkpt lat="49.67494" lon="5.6261">
        <ele>340.1</ele>
        <time>2020-06-25T19:06:54Z</time>
      </trkpt>
      <trkpt lat="49.67493" lon="5.62621">
        <ele>340</ele>
        <time>2020-06-25T19:06:55Z</time>
      </trkpt>
      <trkpt lat="49.67491" lon="5.62631">
        <ele>340</ele>
        <time>2020-06-25T19:06:56Z</time>
      </trkpt>
      <trkpt lat="49.6749" lon="5.62638">
        <ele>340</ele>
        <time>2020-06-25T19:06:57Z</time>
      </trkpt>
      <trkpt lat="49.67489" lon="5.62646">
        <ele>339.9</ele>
        <time>2020-06-25T19:06:58Z</time>
      </trkpt>
      <trkpt lat="49.67487" lon="5.62656">
        <ele>339.9</ele>
        <time>2020-06-25T19:06:59Z</time>
      </trkpt>
      <trkpt lat="49.67485" lon="5.62665">
        <ele>339.9</ele>
        <time>2020-06-25T19:07:00Z</time>
      </trkpt>
      <trkpt lat="49.67483" lon="5.62675">
        <ele>339.9</ele>
        <time>2020-06-25T19:07:01Z</time>
      </trkpt>
      <trkpt lat="49.67482" lon="5.62685">
        <ele>339.9</ele>
        <time>2020-06-25T19:07:02Z</time>
      </trkpt>
      <trkpt lat="49.6748" lon="5.62694">
        <ele>339.9</ele>
        <time>2020-06-25T19:07:03Z</time>
      </trkpt>
      <trkpt lat="49.67479" lon="5.62704">
        <ele>339.9</ele>
        <time>2020-06-25T19:07:04Z</time>
      </trkpt>
      <trkpt lat="49.67477" lon="5.62713">
        <ele>339.9</ele>
        <time>2020-06-25T19:07:05Z</time>
      </trkpt>
      <trkpt lat="49.67476" lon="5.62722">
        <ele>339.8</ele>
        <time>2020-06-25T19:07:06Z</time>
      </trkpt>
      <trkpt lat="49.67475" lon="5.62731">
        <ele>339.8</ele>
        <time>2020-06-25T19:07:07Z</time>
      </trkpt>
      <trkpt lat="49.67473" lon="5.62741">
        <ele>339.8</ele>
        <time>2020-06-25T19:07:08Z</time>
      </trkpt>
      <trkpt lat="49.6747" lon="5.62752">
        <ele>339.7</ele>
        <time>2020-06-25T19:07:09Z</time>
      </trkpt>
      <trkpt lat="49.67468" lon="5.62762">
        <ele>339.7</ele>
        <time>2020-06-25T19:07:10Z</time>
      </trkpt>
      <trkpt lat="49.67468" lon="5.62772">
        <ele>339.7</ele>
        <time>2020-06-25T19:07:11Z</time>
      </trkpt>
      <trkpt lat="49.67467" lon="5.62782">
        <ele>339.6</ele>
        <time>2020-06-25T19:07:12Z</time>
      </trkpt>
      <trkpt lat="49.67465" lon="5.62791">
        <ele>339.6</ele>
        <time>2020-06-25T19:07:13Z</time>
      </trkpt>
      <trkpt lat="49.67463" lon="5.628">
        <ele>339.6</ele>
        <time>2020-06-25T19:07:14Z</time>
      </trkpt>
      <trkpt lat="49.67462" lon="5.6281">
        <ele>339.6</ele>
        <time>2020-06-25T19:07:15Z</time>
      </trkpt>
      <trkpt lat="49.6746" lon="5.6282">
        <ele>339.6</ele>
        <time>2020-06-25T19:07:16Z</time>
      </trkpt>
      <trkpt lat="49.67459" lon="5.62831">
        <ele>339.6</ele>
        <time>2020-06-25T19:07:17Z</time>
      </trkpt>
      <trkpt lat="49.67457" lon="5.62841">
        <ele>339.6</ele>
        <time>2020-06-25T19:07:18Z</time>
      </trkpt>
      <trkpt lat="49.67456" lon="5.6285">
        <ele>339.6</ele>
        <time>2020-06-25T19:07:19Z</time>
      </trkpt>
      <trkpt lat="49.67454" lon="5.62859">
        <ele>339.6</ele>
        <time>2020-06-25T19:07:20Z</time>
      </trkpt>
      <trkpt lat="49.67452" lon="5.62869">
        <ele>339.6</ele>
        <time>2020-06-25T19:07:21Z</time>
      </trkpt>
      <trkpt lat="49.6745" lon="5.62878">
        <ele>339.6</ele>
        <time>2020-06-25T19:07:22Z</time>
      </trkpt>
      <trkpt lat="49.67448" lon="5.62888">
        <ele>339.6</ele>
        <time>2020-06-25T19:07:23Z</time>
      </trkpt>
      <trkpt lat="49.67446" lon="5.62897">
        <ele>339.6</ele>
        <time>2020-06-25T19:07:24Z</time>
      </trkpt>
      <trkpt lat="49.67445" lon="5.62906">
        <ele>339.6</ele>
        <time>2020-06-25T19:07:25Z</time>
      </trkpt>
      <trkpt lat="49.67443" lon="5.62918">
        <ele>339.7</ele>
        <time>2020-06-25T19:07:26Z</time>
      </trkpt>
      <trkpt lat="49.67441" lon="5.62926">
        <ele>339.7</ele>
        <time>2020-06-25T19:07:27Z</time>
      </trkpt>
      <trkpt lat="49.6744" lon="5.62935">
        <ele>339.7</ele>
        <time>2020-06-25T19:07:28Z</time>
      </trkpt>
      <trkpt lat="49.67438" lon="5.62942">
        <ele>339.7</ele>
        <time>2020-06-25T19:07:29Z</time>
      </trkpt>
      <trkpt lat="49.67437" lon="5.62951">
        <ele>339.7</ele>
        <time>2020-06-25T19:07:30Z</time>
      </trkpt>
      <trkpt lat="49.67436" lon="5.62959">
        <ele>339.7</ele>
        <time>2020-06-25T19:07:31Z</time>
      </trkpt>
      <trkpt lat="49.67434" lon="5.62968">
        <ele>339.6</ele>
        <time>2020-06-25T19:07:32Z</time>
      </trkpt>
      <trkpt lat="49.67432" lon="5.62977">
        <ele>339.6</ele>
        <time>2020-06-25T19:07:33Z</time>
      </trkpt>
      <trkpt lat="49.67431" lon="5.62987">
        <ele>339.5</ele>
        <time>2020-06-25T19:07:34Z</time>
      </trkpt>
      <trkpt lat="49.67429" lon="5.62997">
        <ele>339.5</ele>
        <time>2020-06-25T19:07:35Z</time>
      </trkpt>
      <trkpt lat="49.67427" lon="5.63008">
        <ele>339.5</ele>
        <time>2020-06-25T19:07:36Z</time>
      </trkpt>
      <trkpt lat="49.67426" lon="5.63017">
        <ele>339.5</ele>
        <time>2020-06-25T19:07:37Z</time>
      </trkpt>
      <trkpt lat="49.67424" lon="5.63027">
        <ele>339.4</ele>
        <time>2020-06-25T19:07:38Z</time>
      </trkpt>
      <trkpt lat="49.67422" lon="5.63038">
        <ele>339.4</ele>
        <time>2020-06-25T19:07:39Z</time>
      </trkpt>
      <trkpt lat="49.67421" lon="5.63047">
        <ele>339.4</ele>
        <time>2020-06-25T19:07:40Z</time>
      </trkpt>
      <trkpt lat="49.67419" lon="5.63057">
        <ele>339.4</ele>
        <time>2020-06-25T19:07:41Z</time>
      </trkpt>
      <trkpt lat="49.67418" lon="5.63066">
        <ele>339.4</ele>
        <time>2020-06-25T19:07:42Z</time>
      </trkpt>
      <trkpt lat="49.67415" lon="5.63076">
        <ele>339.4</ele>
        <time>2020-06-25T19:07:43Z</time>
      </trkpt>
      <trkpt lat="49.67414" lon="5.63086">
        <ele>339.4</ele>
        <time>2020-06-25T19:07:44Z</time>
      </trkpt>
      <trkpt lat="49.67412" lon="5.63096">
        <ele>339.4</ele>
        <time>2020-06-25T19:07:45Z</time>
      </trkpt>
      <trkpt lat="49.67411" lon="5.63105">
        <ele>339.4</ele>
        <time>2020-06-25T19:07:46Z</time>
      </trkpt>
      <trkpt lat="49.67409" lon="5.63114">
        <ele>339.4</ele>
        <time>2020-06-25T19:07:47Z</time>
      </trkpt>
      <trkpt lat="49.67407" lon="5.63123">
        <ele>339.3</ele>
        <time>2020-06-25T19:07:48Z</time>
      </trkpt>
      <trkpt lat="49.67406" lon="5.63133">
        <ele>339.3</ele>
        <time>2020-06-25T19:07:49Z</time>
      </trkpt>
      <trkpt lat="49.67404" lon="5.63142">
        <ele>339.3</ele>
        <time>2020-06-25T19:07:50Z</time>
      </trkpt>
      <trkpt lat="49.67402" lon="5.63152">
        <ele>339.3</ele>
        <time>2020-06-25T19:07:51Z</time>
      </trkpt>
      <trkpt lat="49.67401" lon="5.6316">
        <ele>339.3</ele>
        <time>2020-06-25T19:07:52Z</time>
      </trkpt>
      <trkpt lat="49.674" lon="5.63169">
        <ele>339.3</ele>
        <time>2020-06-25T19:07:53Z</time>
      </trkpt>
      <trkpt lat="49.67399" lon="5.63178">
        <ele>339.2</ele>
        <time>2020-06-25T19:07:54Z</time>
      </trkpt>
      <trkpt lat="49.67398" lon="5.63187">
        <ele>339.2</ele>
        <time>2020-06-25T19:07:55Z</time>
      </trkpt>
      <trkpt lat="49.67397" lon="5.63196">
        <ele>339.2</ele>
        <time>2020-06-25T19:07:56Z</time>
      </trkpt>
      <trkpt lat="49.67396" lon="5.63204">
        <ele>339.2</ele>
        <time>2020-06-25T19:07:57Z</time>
      </trkpt>
      <trkpt lat="49.67395" lon="5.63213">
        <ele>339.2</ele>
        <time>2020-06-25T19:07:58Z</time>
      </trkpt>
      <trkpt lat="49.67392" lon="5.63221">
        <ele>339.2</ele>
        <time>2020-06-25T19:07:59Z</time>
      </trkpt>
      <trkpt lat="49.67391" lon="5.63229">
        <ele>339.2</ele>
        <time>2020-06-25T19:08:00Z</time>
      </trkpt>
      <trkpt lat="49.67389" lon="5.63238">
        <ele>339.3</ele>
        <time>2020-06-25T19:08:01Z</time>
      </trkpt>
      <trkpt lat="49.67388" lon="5.63247">
        <ele>339.3</ele>
        <time>2020-06-25T19:08:02Z</time>
      </trkpt>
      <trkpt lat="49.67386" lon="5.63255">
        <ele>339.2</ele>
        <time>2020-06-25T19:08:03Z</time>
      </trkpt>
      <trkpt lat="49.67384" lon="5.63264">
        <ele>339.2</ele>
        <time>2020-06-25T19:08:04Z</time>
      </trkpt>
      <trkpt lat="49.67384" lon="5.63271">
        <ele>339.1</ele>
        <time>2020-06-25T19:08:05Z</time>
      </trkpt>
      <trkpt lat="49.67382" lon="5.63281">
        <ele>339.1</ele>
        <time>2020-06-25T19:08:06Z</time>
      </trkpt>
      <trkpt lat="49.6738" lon="5.63291">
        <ele>339</ele>
        <time>2020-06-25T19:08:07Z</time>
      </trkpt>
      <trkpt lat="49.67378" lon="5.633">
        <ele>338.9</ele>
        <time>2020-06-25T19:08:08Z</time>
      </trkpt>
      <trkpt lat="49.67377" lon="5.6331">
        <ele>338.9</ele>
        <time>2020-06-25T19:08:09Z</time>
      </trkpt>
      <trkpt lat="49.67375" lon="5.6332">
        <ele>338.9</ele>
        <time>2020-06-25T19:08:10Z</time>
      </trkpt>
      <trkpt lat="49.67373" lon="5.63328">
        <ele>338.9</ele>
        <time>2020-06-25T19:08:11Z</time>
      </trkpt>
      <trkpt lat="49.67372" lon="5.63336">
        <ele>338.9</ele>
        <time>2020-06-25T19:08:12Z</time>
      </trkpt>
      <trkpt lat="49.6737" lon="5.63345">
        <ele>338.9</ele>
        <time>2020-06-25T19:08:13Z</time>
      </trkpt>
      <trkpt lat="49.67369" lon="5.63354">
        <ele>338.9</ele>
        <time>2020-06-25T19:08:14Z</time>
      </trkpt>
      <trkpt lat="49.67367" lon="5.63363">
        <ele>338.9</ele>
        <time>2020-06-25T19:08:15Z</time>
      </trkpt>
      <trkpt lat="49.67365" lon="5.63371">
        <ele>338.9</ele>
        <time>2020-06-25T19:08:16Z</time>
      </trkpt>
      <trkpt lat="49.67363" lon="5.63378">
        <ele>338.9</ele>
        <time>2020-06-25T19:08:17Z</time>
      </trkpt>
      <trkpt lat="49.67362" lon="5.63388">
        <ele>338.9</ele>
        <time>2020-06-25T19:08:18Z</time>
      </trkpt>
      <trkpt lat="49.67359" lon="5.63399">
        <ele>338.9</ele>
        <time>2020-06-25T19:08:19Z</time>
      </trkpt>
      <trkpt lat="49.67357" lon="5.63409">
        <ele>338.8</ele>
        <time>2020-06-25T19:08:20Z</time>
      </trkpt>
      <trkpt lat="49.67356" lon="5.63418">
        <ele>338.8</ele>
        <time>2020-06-25T19:08:21Z</time>
      </trkpt>
      <trkpt lat="49.67355" lon="5.63427">
        <ele>338.8</ele>
        <time>2020-06-25T19:08:22Z</time>
      </trkpt>
      <trkpt lat="49.67354" lon="5.63438">
        <ele>338.8</ele>
        <time>2020-06-25T19:08:23Z</time>
      </trkpt>
      <trkpt lat="49.67353" lon="5.63447">
        <ele>338.8</ele>
        <time>2020-06-25T19:08:24Z</time>
      </trkpt>
      <trkpt lat="49.67352" lon="5.63454">
        <ele>338.8</ele>
        <time>2020-06-25T19:08:25Z</time>
      </trkpt>
      <trkpt lat="49.67351" lon="5.63463">
        <ele>338.8</ele>
        <time>2020-06-25T19:08:26Z</time>
      </trkpt>
      <trkpt lat="49.67349" lon="5.63472">
        <ele>338.7</ele>
        <time>2020-06-25T19:08:27Z</time>
      </trkpt>
      <trkpt lat="49.67348" lon="5.63481">
        <ele>338.7</ele>
        <time>2020-06-25T19:08:28Z</time>
      </trkpt>
      <trkpt lat="49.67346" lon="5.63488">
        <ele>338.7</ele>
        <time>2020-06-25T19:08:29Z</time>
      </trkpt>
      <trkpt lat="49.67345" lon="5.63496">
        <ele>338.7</ele>
        <time>2020-06-25T19:08:30Z</time>
      </trkpt>
      <trkpt lat="49.67344" lon="5.63505">
        <ele>338.7</ele>
        <time>2020-06-25T19:08:31Z</time>
      </trkpt>
      <trkpt lat="49.67341" lon="5.63515">
        <ele>338.7</ele>
        <time>2020-06-25T19:08:32Z</time>
      </trkpt>
      <trkpt lat="49.6734" lon="5.63524">
        <ele>338.7</ele>
        <time>2020-06-25T19:08:33Z</time>
      </trkpt>
      <trkpt lat="49.67339" lon="5.63532">
        <ele>338.7</ele>
        <time>2020-06-25T19:08:34Z</time>
      </trkpt>
      <trkpt lat="49.67338" lon="5.63542">
        <ele>338.7</ele>
        <time>2020-06-25T19:08:35Z</time>
      </trkpt>
      <trkpt lat="49.67336" lon="5.63551">
        <ele>338.7</ele>
        <time>2020-06-25T19:08:36Z</time>
      </trkpt>
      <trkpt lat="49.67335" lon="5.63559">
        <ele>338.7</ele>
        <time>2020-06-25T19:08:37Z</time>
      </trkpt>
      <trkpt lat="49.67333" lon="5.63567">
        <ele>338.7</ele>
        <time>2020-06-25T19:08:38Z</time>
      </trkpt>
      <trkpt lat="49.67332" lon="5.63575">
        <ele>338.7</ele>
        <time>2020-06-25T19:08:39Z</time>
      </trkpt>
      <trkpt lat="49.6733" lon="5.63584">
        <ele>338.7</ele>
        <time>2020-06-25T19:08:40Z</time>
      </trkpt>
      <trkpt lat="49.67328" lon="5.63593">
        <ele>338.7</ele>
        <time>2020-06-25T19:08:41Z</time>
      </trkpt>
      <trkpt lat="49.67326" lon="5.63603">
        <ele>338.6</ele>
        <time>2020-06-25T19:08:42Z</time>
      </trkpt>
      <trkpt lat="49.67324" lon="5.63611">
        <ele>338.6</ele>
        <time>2020-06-25T19:08:43Z</time>
      </trkpt>
      <trkpt lat="49.67323" lon="5.6362">
        <ele>338.6</ele>
        <time>2020-06-25T19:08:44Z</time>
      </trkpt>
      <trkpt lat="49.67322" lon="5.63629">
        <ele>338.6</ele>
        <time>2020-06-25T19:08:45Z</time>
      </trkpt>
      <trkpt lat="49.67321" lon="5.6364">
        <ele>338.7</ele>
        <time>2020-06-25T19:08:46Z</time>
      </trkpt>
      <trkpt lat="49.6732" lon="5.63648">
        <ele>338.7</ele>
        <time>2020-06-25T19:08:47Z</time>
      </trkpt>
      <trkpt lat="49.67319" lon="5.63655">
        <ele>338.8</ele>
        <time>2020-06-25T19:08:48Z</time>
      </trkpt>
      <trkpt lat="49.67318" lon="5.63663">
        <ele>338.8</ele>
        <time>2020-06-25T19:08:49Z</time>
      </trkpt>
      <trkpt lat="49.67316" lon="5.63672">
        <ele>338.9</ele>
        <time>2020-06-25T19:08:50Z</time>
      </trkpt>
      <trkpt lat="49.67315" lon="5.6368">
        <ele>338.9</ele>
        <time>2020-06-25T19:08:51Z</time>
      </trkpt>
      <trkpt lat="49.67314" lon="5.63688">
        <ele>339</ele>
        <time>2020-06-25T19:08:52Z</time>
      </trkpt>
      <trkpt lat="49.67313" lon="5.63697">
        <ele>339.1</ele>
        <time>2020-06-25T19:08:53Z</time>
      </trkpt>
      <trkpt lat="49.67312" lon="5.63705">
        <ele>339.2</ele>
        <time>2020-06-25T19:08:54Z</time>
      </trkpt>
      <trkpt lat="49.6731" lon="5.63713">
        <ele>339.2</ele>
        <time>2020-06-25T19:08:55Z</time>
      </trkpt>
      <trkpt lat="49.67309" lon="5.63722">
        <ele>339.3</ele>
        <time>2020-06-25T19:08:56Z</time>
      </trkpt>
      <trkpt lat="49.67308" lon="5.6373">
        <ele>339.4</ele>
        <time>2020-06-25T19:08:57Z</time>
      </trkpt>
      <trkpt lat="49.67306" lon="5.63739">
        <ele>339.4</ele>
        <time>2020-06-25T19:08:58Z</time>
      </trkpt>
      <trkpt lat="49.67304" lon="5.63749">
        <ele>339.5</ele>
        <time>2020-06-25T19:08:59Z</time>
      </trkpt>
      <trkpt lat="49.67302" lon="5.63757">
        <ele>339.5</ele>
        <time>2020-06-25T19:09:00Z</time>
      </trkpt>
      <trkpt lat="49.673" lon="5.63766">
        <ele>339.6</ele>
        <time>2020-06-25T19:09:01Z</time>
      </trkpt>
      <trkpt lat="49.67299" lon="5.63774">
        <ele>339.7</ele>
        <time>2020-06-25T19:09:02Z</time>
      </trkpt>
      <trkpt lat="49.67298" lon="5.63783">
        <ele>339.8</ele>
        <time>2020-06-25T19:09:03Z</time>
      </trkpt>
      <trkpt lat="49.67296" lon="5.63792">
        <ele>339.9</ele>
        <time>2020-06-25T19:09:04Z</time>
      </trkpt>
      <trkpt lat="49.67296" lon="5.63802">
        <ele>340</ele>
        <time>2020-06-25T19:09:05Z</time>
      </trkpt>
      <trkpt lat="49.67294" lon="5.63812">
        <ele>340.1</ele>
        <time>2020-06-25T19:09:06Z</time>
      </trkpt>
      <trkpt lat="49.67293" lon="5.63821">
        <ele>340.1</ele>
        <time>2020-06-25T19:09:07Z</time>
      </trkpt>
      <trkpt lat="49.6729" lon="5.63828">
        <ele>340.2</ele>
        <time>2020-06-25T19:09:08Z</time>
      </trkpt>
      <trkpt lat="49.67289" lon="5.63836">
        <ele>340.2</ele>
        <time>2020-06-25T19:09:09Z</time>
      </trkpt>
      <trkpt lat="49.67288" lon="5.63844">
        <ele>340.2</ele>
        <time>2020-06-25T19:09:10Z</time>
      </trkpt>
      <trkpt lat="49.67285" lon="5.63853">
        <ele>340.2</ele>
        <time>2020-06-25T19:09:11Z</time>
      </trkpt>
      <trkpt lat="49.67284" lon="5.63863">
        <ele>340.3</ele>
        <time>2020-06-25T19:09:12Z</time>
      </trkpt>
      <trkpt lat="49.67283" lon="5.63871">
        <ele>340.3</ele>
        <time>2020-06-25T19:09:13Z</time>
      </trkpt>
      <trkpt lat="49.67282" lon="5.63879">
        <ele>340.4</ele>
        <time>2020-06-25T19:09:14Z</time>
      </trkpt>
      <trkpt lat="49.67281" lon="5.63888">
        <ele>340.4</ele>
        <time>2020-06-25T19:09:15Z</time>
      </trkpt>
      <trkpt lat="49.6728" lon="5.63896">
        <ele>340.5</ele>
        <time>2020-06-25T19:09:16Z</time>
      </trkpt>
      <trkpt lat="49.67278" lon="5.63904">
        <ele>340.5</ele>
        <time>2020-06-25T19:09:17Z</time>
      </trkpt>
      <trkpt lat="49.67277" lon="5.63912">
        <ele>340.5</ele>
        <time>2020-06-25T19:09:18Z</time>
      </trkpt>
      <trkpt lat="49.67275" lon="5.6392">
        <ele>340.6</ele>
        <time>2020-06-25T19:09:19Z</time>
      </trkpt>
      <trkpt lat="49.67274" lon="5.63931">
        <ele>340.6</ele>
        <time>2020-06-25T19:09:20Z</time>
      </trkpt>
      <trkpt lat="49.67273" lon="5.63939">
        <ele>340.6</ele>
        <time>2020-06-25T19:09:21Z</time>
      </trkpt>
      <trkpt lat="49.67272" lon="5.63947">
        <ele>340.7</ele>
        <time>2020-06-25T19:09:22Z</time>
      </trkpt>
      <trkpt lat="49.67271" lon="5.63955">
        <ele>340.7</ele>
        <time>2020-06-25T19:09:23Z</time>
      </trkpt>
      <trkpt lat="49.67269" lon="5.63963">
        <ele>340.8</ele>
        <time>2020-06-25T19:09:24Z</time>
      </trkpt>
      <trkpt lat="49.67268" lon="5.6397">
        <ele>340.8</ele>
        <time>2020-06-25T19:09:25Z</time>
      </trkpt>
      <trkpt lat="49.67266" lon="5.63978">
        <ele>340.8</ele>
        <time>2020-06-25T19:09:26Z</time>
      </trkpt>
      <trkpt lat="49.67265" lon="5.63985">
        <ele>340.9</ele>
        <time>2020-06-25T19:09:27Z</time>
      </trkpt>
      <trkpt lat="49.67263" lon="5.63994">
        <ele>340.9</ele>
        <time>2020-06-25T19:09:28Z</time>
      </trkpt>
      <trkpt lat="49.67263" lon="5.64002">
        <ele>341</ele>
        <time>2020-06-25T19:09:29Z</time>
      </trkpt>
      <trkpt lat="49.67261" lon="5.64011">
        <ele>341</ele>
        <time>2020-06-25T19:09:30Z</time>
      </trkpt>
      <trkpt lat="49.6726" lon="5.64018">
        <ele>341.1</ele>
        <time>2020-06-25T19:09:31Z</time>
      </trkpt>
      <trkpt lat="49.67258" lon="5.64026">
        <ele>341.1</ele>
        <time>2020-06-25T19:09:32Z</time>
      </trkpt>
      <trkpt lat="49.67256" lon="5.64034">
        <ele>341.1</ele>
        <time>2020-06-25T19:09:33Z</time>
      </trkpt>
      <trkpt lat="49.67254" lon="5.64041">
        <ele>341.1</ele>
        <time>2020-06-25T19:09:34Z</time>
      </trkpt>
      <trkpt lat="49.67253" lon="5.6405">
        <ele>341.1</ele>
        <time>2020-06-25T19:09:35Z</time>
      </trkpt>
      <trkpt lat="49.6725" lon="5.6406">
        <ele>341</ele>
        <time>2020-06-25T19:09:36Z</time>
      </trkpt>
      <trkpt lat="49.6725" lon="5.64069">
        <ele>341</ele>
        <time>2020-06-25T19:09:37Z</time>
      </trkpt>
      <trkpt lat="49.67249" lon="5.64078">
        <ele>341.1</ele>
        <time>2020-06-25T19:09:38Z</time>
      </trkpt>
      <trkpt lat="49.67248" lon="5.64087">
        <ele>341.1</ele>
        <time>2020-06-25T19:09:39Z</time>
      </trkpt>
      <trkpt lat="49.67246" lon="5.64095">
        <ele>341.2</ele>
        <time>2020-06-25T19:09:40Z</time>
      </trkpt>
      <trkpt lat="49.67244" lon="5.64104">
        <ele>341.3</ele>
        <time>2020-06-25T19:09:41Z</time>
      </trkpt>
      <trkpt lat="49.67243" lon="5.64112">
        <ele>341.4</ele>
        <time>2020-06-25T19:09:42Z</time>
      </trkpt>
      <trkpt lat="49.67242" lon="5.6412">
        <ele>341.4</ele>
        <time>2020-06-25T19:09:43Z</time>
      </trkpt>
      <trkpt lat="49.67241" lon="5.64128">
        <ele>341.4</ele>
        <time>2020-06-25T19:09:44Z</time>
      </trkpt>
      <trkpt lat="49.67239" lon="5.64137">
        <ele>341.5</ele>
        <time>2020-06-25T19:09:45Z</time>
      </trkpt>
      <trkpt lat="49.67238" lon="5.64145">
        <ele>341.5</ele>
        <time>2020-06-25T19:09:46Z</time>
      </trkpt>
      <trkpt lat="49.67237" lon="5.64154">
        <ele>341.5</ele>
        <time>2020-06-25T19:09:47Z</time>
      </trkpt>
      <trkpt lat="49.67236" lon="5.64163">
        <ele>341.6</ele>
        <time>2020-06-25T19:09:48Z</time>
      </trkpt>
      <trkpt lat="49.67235" lon="5.64171">
        <ele>341.6</ele>
        <time>2020-06-25T19:09:49Z</time>
      </trkpt>
      <trkpt lat="49.67234" lon="5.64179">
        <ele>341.7</ele>
        <time>2020-06-25T19:09:50Z</time>
      </trkpt>
      <trkpt lat="49.67233" lon="5.64186">
        <ele>341.7</ele>
        <time>2020-06-25T19:09:51Z</time>
      </trkpt>
      <trkpt lat="49.67232" lon="5.64195">
        <ele>341.8</ele>
        <time>2020-06-25T19:09:52Z</time>
      </trkpt>
      <trkpt lat="49.67231" lon="5.64203">
        <ele>341.9</ele>
        <time>2020-06-25T19:09:53Z</time>
      </trkpt>
      <trkpt lat="49.67229" lon="5.64211">
        <ele>341.9</ele>
        <time>2020-06-25T19:09:54Z</time>
      </trkpt>
      <trkpt lat="49.67228" lon="5.64218">
        <ele>342</ele>
        <time>2020-06-25T19:09:55Z</time>
      </trkpt>
      <trkpt lat="49.67226" lon="5.64226">
        <ele>342.1</ele>
        <time>2020-06-25T19:09:56Z</time>
      </trkpt>
      <trkpt lat="49.67224" lon="5.64234">
        <ele>342.2</ele>
        <time>2020-06-25T19:09:57Z</time>
      </trkpt>
      <trkpt lat="49.67223" lon="5.64242">
        <ele>342.3</ele>
        <time>2020-06-25T19:09:58Z</time>
      </trkpt>
      <trkpt lat="49.67221" lon="5.6425">
        <ele>342.3</ele>
        <time>2020-06-25T19:09:59Z</time>
      </trkpt>
      <trkpt lat="49.6722" lon="5.64257">
        <ele>342.4</ele>
        <time>2020-06-25T19:10:00Z</time>
      </trkpt>
      <trkpt lat="49.67219" lon="5.64265">
        <ele>342.5</ele>
        <time>2020-06-25T19:10:01Z</time>
      </trkpt>
      <trkpt lat="49.67218" lon="5.64273">
        <ele>342.5</ele>
        <time>2020-06-25T19:10:02Z</time>
      </trkpt>
      <trkpt lat="49.67216" lon="5.6428">
        <ele>342.5</ele>
        <time>2020-06-25T19:10:03Z</time>
      </trkpt>
      <trkpt lat="49.67215" lon="5.64288">
        <ele>342.6</ele>
        <time>2020-06-25T19:10:04Z</time>
      </trkpt>
      <trkpt lat="49.67214" lon="5.64297">
        <ele>342.6</ele>
        <time>2020-06-25T19:10:05Z</time>
      </trkpt>
      <trkpt lat="49.67213" lon="5.64305">
        <ele>342.6</ele>
        <time>2020-06-25T19:10:06Z</time>
      </trkpt>
      <trkpt lat="49.67211" lon="5.64313">
        <ele>342.7</ele>
        <time>2020-06-25T19:10:07Z</time>
      </trkpt>
      <trkpt lat="49.6721" lon="5.64322">
        <ele>342.7</ele>
        <time>2020-06-25T19:10:08Z</time>
      </trkpt>
      <trkpt lat="49.67208" lon="5.64331">
        <ele>342.7</ele>
        <time>2020-06-25T19:10:09Z</time>
      </trkpt>
      <trkpt lat="49.67206" lon="5.64339">
        <ele>342.7</ele>
        <time>2020-06-25T19:10:10Z</time>
      </trkpt>
      <trkpt lat="49.67205" lon="5.64347">
        <ele>342.8</ele>
        <time>2020-06-25T19:10:11Z</time>
      </trkpt>
      <trkpt lat="49.67204" lon="5.64356">
        <ele>342.8</ele>
        <time>2020-06-25T19:10:12Z</time>
      </trkpt>
      <trkpt lat="49.67202" lon="5.64364">
        <ele>342.9</ele>
        <time>2020-06-25T19:10:13Z</time>
      </trkpt>
      <trkpt lat="49.67202" lon="5.64373">
        <ele>343</ele>
        <time>2020-06-25T19:10:14Z</time>
      </trkpt>
      <trkpt lat="49.672" lon="5.64381">
        <ele>343</ele>
        <time>2020-06-25T19:10:15Z</time>
      </trkpt>
      <trkpt lat="49.672" lon="5.64389">
        <ele>343.1</ele>
        <time>2020-06-25T19:10:16Z</time>
      </trkpt>
      <trkpt lat="49.67198" lon="5.64396">
        <ele>343.2</ele>
        <time>2020-06-25T19:10:17Z</time>
      </trkpt>
      <trkpt lat="49.67197" lon="5.64404">
        <ele>343.3</ele>
        <time>2020-06-25T19:10:18Z</time>
      </trkpt>
      <trkpt lat="49.67196" lon="5.64412">
        <ele>343.4</ele>
        <time>2020-06-25T19:10:19Z</time>
      </trkpt>
      <trkpt lat="49.67194" lon="5.64422">
        <ele>343.5</ele>
        <time>2020-06-25T19:10:20Z</time>
      </trkpt>
      <trkpt lat="49.67193" lon="5.64431">
        <ele>343.7</ele>
        <time>2020-06-25T19:10:21Z</time>
      </trkpt>
      <trkpt lat="49.67192" lon="5.64441">
        <ele>343.7</ele>
        <time>2020-06-25T19:10:22Z</time>
      </trkpt>
      <trkpt lat="49.67191" lon="5.6445">
        <ele>343.8</ele>
        <time>2020-06-25T19:10:23Z</time>
      </trkpt>
      <trkpt lat="49.67189" lon="5.64458">
        <ele>343.8</ele>
        <time>2020-06-25T19:10:24Z</time>
      </trkpt>
      <trkpt lat="49.67187" lon="5.64466">
        <ele>343.9</ele>
        <time>2020-06-25T19:10:25Z</time>
      </trkpt>
      <trkpt lat="49.67185" lon="5.64475">
        <ele>344</ele>
        <time>2020-06-25T19:10:26Z</time>
      </trkpt>
      <trkpt lat="49.67184" lon="5.64484">
        <ele>344.1</ele>
        <time>2020-06-25T19:10:27Z</time>
      </trkpt>
      <trkpt lat="49.67182" lon="5.64494">
        <ele>344.2</ele>
        <time>2020-06-25T19:10:28Z</time>
      </trkpt>
      <trkpt lat="49.6718" lon="5.64503">
        <ele>344.3</ele>
        <time>2020-06-25T19:10:29Z</time>
      </trkpt>
      <trkpt lat="49.67178" lon="5.64512">
        <ele>344.4</ele>
        <time>2020-06-25T19:10:30Z</time>
      </trkpt>
      <trkpt lat="49.67177" lon="5.6452">
        <ele>344.4</ele>
        <time>2020-06-25T19:10:31Z</time>
      </trkpt>
      <trkpt lat="49.67176" lon="5.64529">
        <ele>344.5</ele>
        <time>2020-06-25T19:10:32Z</time>
      </trkpt>
      <trkpt lat="49.67174" lon="5.64537">
        <ele>344.6</ele>
        <time>2020-06-25T19:10:33Z</time>
      </trkpt>
      <trkpt lat="49.67173" lon="5.64546">
        <ele>344.7</ele>
        <time>2020-06-25T19:10:34Z</time>
      </trkpt>
      <trkpt lat="49.67171" lon="5.64556">
        <ele>344.8</ele>
        <time>2020-06-25T19:10:35Z</time>
      </trkpt>
      <trkpt lat="49.6717" lon="5.64565">
        <ele>344.9</ele>
        <time>2020-06-25T19:10:36Z</time>
      </trkpt>
      <trkpt lat="49.67168" lon="5.64573">
        <ele>345</ele>
        <time>2020-06-25T19:10:37Z</time>
      </trkpt>
      <trkpt lat="49.67166" lon="5.64582">
        <ele>345.1</ele>
        <time>2020-06-25T19:10:38Z</time>
      </trkpt>
      <trkpt lat="49.67165" lon="5.6459">
        <ele>345.2</ele>
        <time>2020-06-25T19:10:39Z</time>
      </trkpt>
      <trkpt lat="49.67163" lon="5.64599">
        <ele>345.2</ele>
        <time>2020-06-25T19:10:40Z</time>
      </trkpt>
      <trkpt lat="49.67161" lon="5.64607">
        <ele>345.3</ele>
        <time>2020-06-25T19:10:41Z</time>
      </trkpt>
      <trkpt lat="49.67159" lon="5.64616">
        <ele>345.3</ele>
        <time>2020-06-25T19:10:42Z</time>
      </trkpt>
      <trkpt lat="49.67158" lon="5.64625">
        <ele>345.4</ele>
        <time>2020-06-25T19:10:43Z</time>
      </trkpt>
      <trkpt lat="49.67157" lon="5.64634">
        <ele>345.4</ele>
        <time>2020-06-25T19:10:44Z</time>
      </trkpt>
      <trkpt lat="49.67156" lon="5.64644">
        <ele>345.5</ele>
        <time>2020-06-25T19:10:45Z</time>
      </trkpt>
      <trkpt lat="49.67155" lon="5.64653">
        <ele>345.6</ele>
        <time>2020-06-25T19:10:46Z</time>
      </trkpt>
      <trkpt lat="49.67154" lon="5.64662">
        <ele>345.7</ele>
        <time>2020-06-25T19:10:47Z</time>
      </trkpt>
      <trkpt lat="49.67152" lon="5.64671">
        <ele>345.8</ele>
        <time>2020-06-25T19:10:48Z</time>
      </trkpt>
      <trkpt lat="49.67151" lon="5.64679">
        <ele>345.8</ele>
        <time>2020-06-25T19:10:49Z</time>
      </trkpt>
      <trkpt lat="49.6715" lon="5.64687">
        <ele>345.9</ele>
        <time>2020-06-25T19:10:50Z</time>
      </trkpt>
      <trkpt lat="49.67148" lon="5.64694">
        <ele>346</ele>
        <time>2020-06-25T19:10:51Z</time>
      </trkpt>
      <trkpt lat="49.67146" lon="5.64702">
        <ele>346.1</ele>
        <time>2020-06-25T19:10:52Z</time>
      </trkpt>
      <trkpt lat="49.67145" lon="5.6471">
        <ele>346.2</ele>
        <time>2020-06-25T19:10:53Z</time>
      </trkpt>
      <trkpt lat="49.67143" lon="5.64719">
        <ele>346.5</ele>
        <time>2020-06-25T19:10:54Z</time>
      </trkpt>
      <trkpt lat="49.67141" lon="5.64728">
        <ele>346.5</ele>
        <time>2020-06-25T19:10:55Z</time>
      </trkpt>
      <trkpt lat="49.67139" lon="5.64736">
        <ele>346.6</ele>
        <time>2020-06-25T19:10:56Z</time>
      </trkpt>
      <trkpt lat="49.67138" lon="5.64744">
        <ele>346.7</ele>
        <time>2020-06-25T19:10:57Z</time>
      </trkpt>
      <trkpt lat="49.67135" lon="5.64753">
        <ele>346.7</ele>
        <time>2020-06-25T19:10:58Z</time>
      </trkpt>
      <trkpt lat="49.67134" lon="5.64761">
        <ele>346.8</ele>
        <time>2020-06-25T19:10:59Z</time>
      </trkpt>
      <trkpt lat="49.67132" lon="5.6477">
        <ele>346.8</ele>
        <time>2020-06-25T19:11:00Z</time>
      </trkpt>
      <trkpt lat="49.67131" lon="5.64779">
        <ele>346.8</ele>
        <time>2020-06-25T19:11:01Z</time>
      </trkpt>
      <trkpt lat="49.6713" lon="5.64787">
        <ele>346.8</ele>
        <time>2020-06-25T19:11:02Z</time>
      </trkpt>
      <trkpt lat="49.67129" lon="5.64795">
        <ele>346.9</ele>
        <time>2020-06-25T19:11:03Z</time>
      </trkpt>
      <trkpt lat="49.67127" lon="5.64803">
        <ele>347</ele>
        <time>2020-06-25T19:11:04Z</time>
      </trkpt>
      <trkpt lat="49.67126" lon="5.64811">
        <ele>347</ele>
        <time>2020-06-25T19:11:05Z</time>
      </trkpt>
      <trkpt lat="49.67125" lon="5.64819">
        <ele>347.1</ele>
        <time>2020-06-25T19:11:06Z</time>
      </trkpt>
      <trkpt lat="49.67124" lon="5.64826">
        <ele>347.2</ele>
        <time>2020-06-25T19:11:07Z</time>
      </trkpt>
      <trkpt lat="49.67123" lon="5.64834">
        <ele>347.3</ele>
        <time>2020-06-25T19:11:08Z</time>
      </trkpt>
      <trkpt lat="49.67123" lon="5.64841">
        <ele>347.3</ele>
        <time>2020-06-25T19:11:09Z</time>
      </trkpt>
      <trkpt lat="49.67122" lon="5.6485">
        <ele>347.4</ele>
        <time>2020-06-25T19:11:10Z</time>
      </trkpt>
      <trkpt lat="49.67121" lon="5.64858">
        <ele>347.4</ele>
        <time>2020-06-25T19:11:11Z</time>
      </trkpt>
      <trkpt lat="49.6712" lon="5.64866">
        <ele>347.5</ele>
        <time>2020-06-25T19:11:12Z</time>
      </trkpt>
      <trkpt lat="49.67119" lon="5.64874">
        <ele>347.5</ele>
        <time>2020-06-25T19:11:13Z</time>
      </trkpt>
      <trkpt lat="49.67117" lon="5.64882">
        <ele>347.6</ele>
        <time>2020-06-25T19:11:14Z</time>
      </trkpt>
      <trkpt lat="49.67116" lon="5.6489">
        <ele>347.6</ele>
        <time>2020-06-25T19:11:15Z</time>
      </trkpt>
      <trkpt lat="49.67115" lon="5.64898">
        <ele>347.6</ele>
        <time>2020-06-25T19:11:16Z</time>
      </trkpt>
      <trkpt lat="49.67114" lon="5.64905">
        <ele>347.6</ele>
        <time>2020-06-25T19:11:17Z</time>
      </trkpt>
      <trkpt lat="49.67114" lon="5.64914">
        <ele>347.7</ele>
        <time>2020-06-25T19:11:18Z</time>
      </trkpt>
      <trkpt lat="49.67112" lon="5.64921">
        <ele>347.8</ele>
        <time>2020-06-25T19:11:19Z</time>
      </trkpt>
      <trkpt lat="49.67111" lon="5.64929">
        <ele>347.8</ele>
        <time>2020-06-25T19:11:20Z</time>
      </trkpt>
      <trkpt lat="49.6711" lon="5.64936">
        <ele>347.8</ele>
        <time>2020-06-25T19:11:21Z</time>
      </trkpt>
      <trkpt lat="49.67108" lon="5.64943">
        <ele>347.9</ele>
        <time>2020-06-25T19:11:22Z</time>
      </trkpt>
      <trkpt lat="49.67107" lon="5.64951">
        <ele>347.9</ele>
        <time>2020-06-25T19:11:23Z</time>
      </trkpt>
      <trkpt lat="49.67106" lon="5.64959">
        <ele>347.9</ele>
        <time>2020-06-25T19:11:24Z</time>
      </trkpt>
      <trkpt lat="49.67104" lon="5.64967">
        <ele>348</ele>
        <time>2020-06-25T19:11:25Z</time>
      </trkpt>
      <trkpt lat="49.67103" lon="5.64975">
        <ele>348.1</ele>
        <time>2020-06-25T19:11:26Z</time>
      </trkpt>
      <trkpt lat="49.67102" lon="5.64982">
        <ele>348.2</ele>
        <time>2020-06-25T19:11:27Z</time>
      </trkpt>
      <trkpt lat="49.671" lon="5.6499">
        <ele>348.3</ele>
        <time>2020-06-25T19:11:28Z</time>
      </trkpt>
      <trkpt lat="49.67099" lon="5.64997">
        <ele>348.4</ele>
        <time>2020-06-25T19:11:29Z</time>
      </trkpt>
      <trkpt lat="49.67098" lon="5.65006">
        <ele>348.4</ele>
        <time>2020-06-25T19:11:30Z</time>
      </trkpt>
      <trkpt lat="49.67097" lon="5.65015">
        <ele>348.5</ele>
        <time>2020-06-25T19:11:31Z</time>
      </trkpt>
      <trkpt lat="49.67096" lon="5.65022">
        <ele>348.5</ele>
        <time>2020-06-25T19:11:32Z</time>
      </trkpt>
      <trkpt lat="49.67095" lon="5.65031">
        <ele>348.5</ele>
        <time>2020-06-25T19:11:33Z</time>
      </trkpt>
      <trkpt lat="49.67093" lon="5.6504">
        <ele>348.5</ele>
        <time>2020-06-25T19:11:34Z</time>
      </trkpt>
      <trkpt lat="49.67091" lon="5.65048">
        <ele>348.6</ele>
        <time>2020-06-25T19:11:35Z</time>
      </trkpt>
      <trkpt lat="49.67089" lon="5.65056">
        <ele>348.6</ele>
        <time>2020-06-25T19:11:36Z</time>
      </trkpt>
      <trkpt lat="49.67087" lon="5.65065">
        <ele>348.7</ele>
        <time>2020-06-25T19:11:37Z</time>
      </trkpt>
      <trkpt lat="49.67086" lon="5.65074">
        <ele>348.8</ele>
        <time>2020-06-25T19:11:38Z</time>
      </trkpt>
      <trkpt lat="49.67085" lon="5.65083">
        <ele>348.9</ele>
        <time>2020-06-25T19:11:39Z</time>
      </trkpt>
      <trkpt lat="49.67083" lon="5.65091">
        <ele>348.9</ele>
        <time>2020-06-25T19:11:40Z</time>
      </trkpt>
      <trkpt lat="49.67082" lon="5.65099">
        <ele>349</ele>
        <time>2020-06-25T19:11:41Z</time>
      </trkpt>
      <trkpt lat="49.67081" lon="5.65108">
        <ele>349.1</ele>
        <time>2020-06-25T19:11:42Z</time>
      </trkpt>
      <trkpt lat="49.67079" lon="5.65117">
        <ele>349.3</ele>
        <time>2020-06-25T19:11:43Z</time>
      </trkpt>
      <trkpt lat="49.67078" lon="5.65127">
        <ele>349.4</ele>
        <time>2020-06-25T19:11:44Z</time>
      </trkpt>
      <trkpt lat="49.67076" lon="5.65135">
        <ele>349.5</ele>
        <time>2020-06-25T19:11:45Z</time>
      </trkpt>
      <trkpt lat="49.67075" lon="5.65144">
        <ele>349.5</ele>
        <time>2020-06-25T19:11:46Z</time>
      </trkpt>
      <trkpt lat="49.67074" lon="5.65153">
        <ele>349.6</ele>
        <time>2020-06-25T19:11:47Z</time>
      </trkpt>
      <trkpt lat="49.67072" lon="5.6516">
        <ele>349.6</ele>
        <time>2020-06-25T19:11:48Z</time>
      </trkpt>
      <trkpt lat="49.67071" lon="5.6517">
        <ele>349.7</ele>
        <time>2020-06-25T19:11:49Z</time>
      </trkpt>
      <trkpt lat="49.6707" lon="5.65178">
        <ele>349.8</ele>
        <time>2020-06-25T19:11:50Z</time>
      </trkpt>
      <trkpt lat="49.67068" lon="5.65186">
        <ele>349.9</ele>
        <time>2020-06-25T19:11:51Z</time>
      </trkpt>
      <trkpt lat="49.67067" lon="5.65194">
        <ele>350</ele>
        <time>2020-06-25T19:11:52Z</time>
      </trkpt>
      <trkpt lat="49.67066" lon="5.65203">
        <ele>350.1</ele>
        <time>2020-06-25T19:11:53Z</time>
      </trkpt>
      <trkpt lat="49.67064" lon="5.65212">
        <ele>350.2</ele>
        <time>2020-06-25T19:11:54Z</time>
      </trkpt>
      <trkpt lat="49.67063" lon="5.6522">
        <ele>350.3</ele>
        <time>2020-06-25T19:11:55Z</time>
      </trkpt>
      <trkpt lat="49.6706" lon="5.65229">
        <ele>350.4</ele>
        <time>2020-06-25T19:11:56Z</time>
      </trkpt>
      <trkpt lat="49.67059" lon="5.65237">
        <ele>350.4</ele>
        <time>2020-06-25T19:11:57Z</time>
      </trkpt>
      <trkpt lat="49.67058" lon="5.65244">
        <ele>350.4</ele>
        <time>2020-06-25T19:11:58Z</time>
      </trkpt>
      <trkpt lat="49.67057" lon="5.65253">
        <ele>350.5</ele>
        <time>2020-06-25T19:11:59Z</time>
      </trkpt>
      <trkpt lat="49.67056" lon="5.65262">
        <ele>350.5</ele>
        <time>2020-06-25T19:12:00Z</time>
      </trkpt>
      <trkpt lat="49.67054" lon="5.6527">
        <ele>350.6</ele>
        <time>2020-06-25T19:12:01Z</time>
      </trkpt>
      <trkpt lat="49.67052" lon="5.65279">
        <ele>350.6</ele>
        <time>2020-06-25T19:12:02Z</time>
      </trkpt>
      <trkpt lat="49.6705" lon="5.65287">
        <ele>350.7</ele>
        <time>2020-06-25T19:12:03Z</time>
      </trkpt>
      <trkpt lat="49.67049" lon="5.65296">
        <ele>350.7</ele>
        <time>2020-06-25T19:12:04Z</time>
      </trkpt>
      <trkpt lat="49.67048" lon="5.65303">
        <ele>350.8</ele>
        <time>2020-06-25T19:12:05Z</time>
      </trkpt>
      <trkpt lat="49.67046" lon="5.65311">
        <ele>350.8</ele>
        <time>2020-06-25T19:12:06Z</time>
      </trkpt>
      <trkpt lat="49.67044" lon="5.65319">
        <ele>350.8</ele>
        <time>2020-06-25T19:12:07Z</time>
      </trkpt>
      <trkpt lat="49.67043" lon="5.65329">
        <ele>350.8</ele>
        <time>2020-06-25T19:12:08Z</time>
      </trkpt>
      <trkpt lat="49.67041" lon="5.65338">
        <ele>350.8</ele>
        <time>2020-06-25T19:12:09Z</time>
      </trkpt>
      <trkpt lat="49.67039" lon="5.65347">
        <ele>350.9</ele>
        <time>2020-06-25T19:12:10Z</time>
      </trkpt>
      <trkpt lat="49.67037" lon="5.65356">
        <ele>351</ele>
        <time>2020-06-25T19:12:11Z</time>
      </trkpt>
      <trkpt lat="49.67036" lon="5.65366">
        <ele>351</ele>
        <time>2020-06-25T19:12:12Z</time>
      </trkpt>
      <trkpt lat="49.67035" lon="5.65376">
        <ele>351</ele>
        <time>2020-06-25T19:12:13Z</time>
      </trkpt>
      <trkpt lat="49.67034" lon="5.65386">
        <ele>351</ele>
        <time>2020-06-25T19:12:14Z</time>
      </trkpt>
      <trkpt lat="49.67032" lon="5.65395">
        <ele>350.9</ele>
        <time>2020-06-25T19:12:15Z</time>
      </trkpt>
      <trkpt lat="49.6703" lon="5.65405">
        <ele>350.9</ele>
        <time>2020-06-25T19:12:16Z</time>
      </trkpt>
      <trkpt lat="49.6703" lon="5.65414">
        <ele>350.9</ele>
        <time>2020-06-25T19:12:17Z</time>
      </trkpt>
      <trkpt lat="49.67027" lon="5.65422">
        <ele>350.9</ele>
        <time>2020-06-25T19:12:18Z</time>
      </trkpt>
      <trkpt lat="49.67026" lon="5.6543">
        <ele>350.8</ele>
        <time>2020-06-25T19:12:19Z</time>
      </trkpt>
      <trkpt lat="49.67025" lon="5.65437">
        <ele>350.8</ele>
        <time>2020-06-25T19:12:20Z</time>
      </trkpt>
      <trkpt lat="49.67023" lon="5.65443">
        <ele>350.8</ele>
        <time>2020-06-25T19:12:21Z</time>
      </trkpt>
      <trkpt lat="49.67021" lon="5.65452">
        <ele>350.8</ele>
        <time>2020-06-25T19:12:22Z</time>
      </trkpt>
      <trkpt lat="49.67021" lon="5.65459">
        <ele>350.8</ele>
        <time>2020-06-25T19:12:23Z</time>
      </trkpt>
      <trkpt lat="49.67019" lon="5.65466">
        <ele>350.7</ele>
        <time>2020-06-25T19:12:24Z</time>
      </trkpt>
      <trkpt lat="49.67017" lon="5.65475">
        <ele>350.7</ele>
        <time>2020-06-25T19:12:25Z</time>
      </trkpt>
      <trkpt lat="49.67017" lon="5.65483">
        <ele>350.6</ele>
        <time>2020-06-25T19:12:26Z</time>
      </trkpt>
      <trkpt lat="49.67015" lon="5.65491">
        <ele>350.5</ele>
        <time>2020-06-25T19:12:27Z</time>
      </trkpt>
      <trkpt lat="49.67014" lon="5.655">
        <ele>350.4</ele>
        <time>2020-06-25T19:12:28Z</time>
      </trkpt>
      <trkpt lat="49.67013" lon="5.65509">
        <ele>350.3</ele>
        <time>2020-06-25T19:12:29Z</time>
      </trkpt>
      <trkpt lat="49.67011" lon="5.65517">
        <ele>350.1</ele>
        <time>2020-06-25T19:12:30Z</time>
      </trkpt>
      <trkpt lat="49.6701" lon="5.65526">
        <ele>350</ele>
        <time>2020-06-25T19:12:31Z</time>
      </trkpt>
      <trkpt lat="49.67009" lon="5.65535">
        <ele>349.9</ele>
        <time>2020-06-25T19:12:32Z</time>
      </trkpt>
      <trkpt lat="49.67007" lon="5.65543">
        <ele>349.8</ele>
        <time>2020-06-25T19:12:33Z</time>
      </trkpt>
      <trkpt lat="49.67006" lon="5.65554">
        <ele>349.8</ele>
        <time>2020-06-25T19:12:34Z</time>
      </trkpt>
      <trkpt lat="49.67004" lon="5.65561">
        <ele>349.7</ele>
        <time>2020-06-25T19:12:35Z</time>
      </trkpt>
      <trkpt lat="49.67003" lon="5.6557">
        <ele>349.6</ele>
        <time>2020-06-25T19:12:36Z</time>
      </trkpt>
      <trkpt lat="49.67001" lon="5.65578">
        <ele>349.5</ele>
        <time>2020-06-25T19:12:37Z</time>
      </trkpt>
      <trkpt lat="49.66999" lon="5.65587">
        <ele>349.4</ele>
        <time>2020-06-25T19:12:38Z</time>
      </trkpt>
      <trkpt lat="49.66997" lon="5.65595">
        <ele>349.2</ele>
        <time>2020-06-25T19:12:39Z</time>
      </trkpt>
      <trkpt lat="49.66996" lon="5.65602">
        <ele>349.1</ele>
        <time>2020-06-25T19:12:40Z</time>
      </trkpt>
      <trkpt lat="49.66995" lon="5.6561">
        <ele>348.9</ele>
        <time>2020-06-25T19:12:41Z</time>
      </trkpt>
      <trkpt lat="49.66995" lon="5.65618">
        <ele>348.8</ele>
        <time>2020-06-25T19:12:42Z</time>
      </trkpt>
      <trkpt lat="49.66993" lon="5.65626">
        <ele>348.8</ele>
        <time>2020-06-25T19:12:43Z</time>
      </trkpt>
      <trkpt lat="49.66991" lon="5.65635">
        <ele>348.7</ele>
        <time>2020-06-25T19:12:44Z</time>
      </trkpt>
      <trkpt lat="49.6699" lon="5.65643">
        <ele>348.7</ele>
        <time>2020-06-25T19:12:45Z</time>
      </trkpt>
      <trkpt lat="49.66989" lon="5.65651">
        <ele>348.6</ele>
        <time>2020-06-25T19:12:46Z</time>
      </trkpt>
      <trkpt lat="49.66987" lon="5.6566">
        <ele>348.5</ele>
        <time>2020-06-25T19:12:47Z</time>
      </trkpt>
      <trkpt lat="49.66984" lon="5.65669">
        <ele>348.3</ele>
        <time>2020-06-25T19:12:48Z</time>
      </trkpt>
      <trkpt lat="49.66983" lon="5.65678">
        <ele>348.2</ele>
        <time>2020-06-25T19:12:49Z</time>
      </trkpt>
      <trkpt lat="49.66982" lon="5.65688">
        <ele>348</ele>
        <time>2020-06-25T19:12:50Z</time>
      </trkpt>
      <trkpt lat="49.66981" lon="5.65697">
        <ele>347.9</ele>
        <time>2020-06-25T19:12:51Z</time>
      </trkpt>
      <trkpt lat="49.6698" lon="5.65707">
        <ele>347.9</ele>
        <time>2020-06-25T19:12:52Z</time>
      </trkpt>
      <trkpt lat="49.66979" lon="5.65716">
        <ele>347.8</ele>
        <time>2020-06-25T19:12:53Z</time>
      </trkpt>
      <trkpt lat="49.66977" lon="5.65726">
        <ele>347.8</ele>
        <time>2020-06-25T19:12:54Z</time>
      </trkpt>
      <trkpt lat="49.66976" lon="5.65736">
        <ele>347.7</ele>
        <time>2020-06-25T19:12:55Z</time>
      </trkpt>
      <trkpt lat="49.66974" lon="5.65745">
        <ele>347.6</ele>
        <time>2020-06-25T19:12:56Z</time>
      </trkpt>
      <trkpt lat="49.66973" lon="5.65754">
        <ele>347.5</ele>
        <time>2020-06-25T19:12:57Z</time>
      </trkpt>
      <trkpt lat="49.66971" lon="5.65763">
        <ele>347.3</ele>
        <time>2020-06-25T19:12:58Z</time>
      </trkpt>
      <trkpt lat="49.6697" lon="5.65771">
        <ele>347.1</ele>
        <time>2020-06-25T19:12:59Z</time>
      </trkpt>
      <trkpt lat="49.66969" lon="5.65779">
        <ele>347</ele>
        <time>2020-06-25T19:13:00Z</time>
      </trkpt>
      <trkpt lat="49.66968" lon="5.65788">
        <ele>346.9</ele>
        <time>2020-06-25T19:13:01Z</time>
      </trkpt>
      <trkpt lat="49.66967" lon="5.65798">
        <ele>346.7</ele>
        <time>2020-06-25T19:13:02Z</time>
      </trkpt>
      <trkpt lat="49.66966" lon="5.65808">
        <ele>346.6</ele>
        <time>2020-06-25T19:13:03Z</time>
      </trkpt>
      <trkpt lat="49.66963" lon="5.65819">
        <ele>346.3</ele>
        <time>2020-06-25T19:13:04Z</time>
      </trkpt>
      <trkpt lat="49.66961" lon="5.65827">
        <ele>346.2</ele>
        <time>2020-06-25T19:13:05Z</time>
      </trkpt>
      <trkpt lat="49.6696" lon="5.65837">
        <ele>345.9</ele>
        <time>2020-06-25T19:13:06Z</time>
      </trkpt>
      <trkpt lat="49.66959" lon="5.65845">
        <ele>345.8</ele>
        <time>2020-06-25T19:13:07Z</time>
      </trkpt>
      <trkpt lat="49.66957" lon="5.65856">
        <ele>345.6</ele>
        <time>2020-06-25T19:13:08Z</time>
      </trkpt>
      <trkpt lat="49.66955" lon="5.65864">
        <ele>345.5</ele>
        <time>2020-06-25T19:13:09Z</time>
      </trkpt>
      <trkpt lat="49.66953" lon="5.65873">
        <ele>345.4</ele>
        <time>2020-06-25T19:13:10Z</time>
      </trkpt>
      <trkpt lat="49.66952" lon="5.65882">
        <ele>345.3</ele>
        <time>2020-06-25T19:13:11Z</time>
      </trkpt>
      <trkpt lat="49.66949" lon="5.65891">
        <ele>345.1</ele>
        <time>2020-06-25T19:13:12Z</time>
      </trkpt>
      <trkpt lat="49.66948" lon="5.659">
        <ele>345</ele>
        <time>2020-06-25T19:13:13Z</time>
      </trkpt>
      <trkpt lat="49.66946" lon="5.6591">
        <ele>344.8</ele>
        <time>2020-06-25T19:13:14Z</time>
      </trkpt>
      <trkpt lat="49.66945" lon="5.6592">
        <ele>344.6</ele>
        <time>2020-06-25T19:13:15Z</time>
      </trkpt>
      <trkpt lat="49.66943" lon="5.6593">
        <ele>344.4</ele>
        <time>2020-06-25T19:13:16Z</time>
      </trkpt>
      <trkpt lat="49.66941" lon="5.65941">
        <ele>344.2</ele>
        <time>2020-06-25T19:13:17Z</time>
      </trkpt>
      <trkpt lat="49.66939" lon="5.65951">
        <ele>344</ele>
        <time>2020-06-25T19:13:18Z</time>
      </trkpt>
      <trkpt lat="49.66937" lon="5.65961">
        <ele>343.9</ele>
        <time>2020-06-25T19:13:19Z</time>
      </trkpt>
      <trkpt lat="49.66936" lon="5.6597">
        <ele>343.9</ele>
        <time>2020-06-25T19:13:20Z</time>
      </trkpt>
      <trkpt lat="49.66934" lon="5.65979">
        <ele>343.8</ele>
        <time>2020-06-25T19:13:21Z</time>
      </trkpt>
      <trkpt lat="49.66933" lon="5.65988">
        <ele>343.7</ele>
        <time>2020-06-25T19:13:22Z</time>
      </trkpt>
      <trkpt lat="49.66931" lon="5.65997">
        <ele>343.6</ele>
        <time>2020-06-25T19:13:23Z</time>
      </trkpt>
      <trkpt lat="49.66929" lon="5.66007">
        <ele>343.4</ele>
        <time>2020-06-25T19:13:24Z</time>
      </trkpt>
      <trkpt lat="49.66928" lon="5.66017">
        <ele>343.3</ele>
        <time>2020-06-25T19:13:25Z</time>
      </trkpt>
      <trkpt lat="49.66927" lon="5.66026">
        <ele>343.1</ele>
        <time>2020-06-25T19:13:26Z</time>
      </trkpt>
      <trkpt lat="49.66925" lon="5.66035">
        <ele>343</ele>
        <time>2020-06-25T19:13:27Z</time>
      </trkpt>
      <trkpt lat="49.66924" lon="5.66044">
        <ele>342.9</ele>
        <time>2020-06-25T19:13:28Z</time>
      </trkpt>
      <trkpt lat="49.66922" lon="5.66054">
        <ele>342.8</ele>
        <time>2020-06-25T19:13:29Z</time>
      </trkpt>
      <trkpt lat="49.66921" lon="5.66064">
        <ele>342.7</ele>
        <time>2020-06-25T19:13:30Z</time>
      </trkpt>
      <trkpt lat="49.66919" lon="5.66073">
        <ele>342.6</ele>
        <time>2020-06-25T19:13:31Z</time>
      </trkpt>
      <trkpt lat="49.66918" lon="5.66082">
        <ele>342.5</ele>
        <time>2020-06-25T19:13:32Z</time>
      </trkpt>
      <trkpt lat="49.66916" lon="5.66091">
        <ele>342.4</ele>
        <time>2020-06-25T19:13:33Z</time>
      </trkpt>
      <trkpt lat="49.66914" lon="5.66101">
        <ele>342.3</ele>
        <time>2020-06-25T19:13:34Z</time>
      </trkpt>
      <trkpt lat="49.66912" lon="5.6611">
        <ele>342.2</ele>
        <time>2020-06-25T19:13:35Z</time>
      </trkpt>
      <trkpt lat="49.6691" lon="5.6612">
        <ele>342.1</ele>
        <time>2020-06-25T19:13:36Z</time>
      </trkpt>
      <trkpt lat="49.66909" lon="5.66128">
        <ele>342.1</ele>
        <time>2020-06-25T19:13:37Z</time>
      </trkpt>
      <trkpt lat="49.66907" lon="5.66137">
        <ele>342</ele>
        <time>2020-06-25T19:13:38Z</time>
      </trkpt>
      <trkpt lat="49.66906" lon="5.66146">
        <ele>341.9</ele>
        <time>2020-06-25T19:13:39Z</time>
      </trkpt>
      <trkpt lat="49.66904" lon="5.66157">
        <ele>341.8</ele>
        <time>2020-06-25T19:13:40Z</time>
      </trkpt>
      <trkpt lat="49.66902" lon="5.66166">
        <ele>341.8</ele>
        <time>2020-06-25T19:13:41Z</time>
      </trkpt>
      <trkpt lat="49.66901" lon="5.66175">
        <ele>341.7</ele>
        <time>2020-06-25T19:13:42Z</time>
      </trkpt>
      <trkpt lat="49.66899" lon="5.66183">
        <ele>341.7</ele>
        <time>2020-06-25T19:13:43Z</time>
      </trkpt>
      <trkpt lat="49.66898" lon="5.66192">
        <ele>341.7</ele>
        <time>2020-06-25T19:13:44Z</time>
      </trkpt>
      <trkpt lat="49.66897" lon="5.66201">
        <ele>341.6</ele>
        <time>2020-06-25T19:13:45Z</time>
      </trkpt>
      <trkpt lat="49.66895" lon="5.6621">
        <ele>341.6</ele>
        <time>2020-06-25T19:13:46Z</time>
      </trkpt>
      <trkpt lat="49.66894" lon="5.66218">
        <ele>341.6</ele>
        <time>2020-06-25T19:13:47Z</time>
      </trkpt>
      <trkpt lat="49.66893" lon="5.66226">
        <ele>341.6</ele>
        <time>2020-06-25T19:13:48Z</time>
      </trkpt>
      <trkpt lat="49.66891" lon="5.66237">
        <ele>341.5</ele>
        <time>2020-06-25T19:13:49Z</time>
      </trkpt>
      <trkpt lat="49.6689" lon="5.66245">
        <ele>341.4</ele>
        <time>2020-06-25T19:13:50Z</time>
      </trkpt>
      <trkpt lat="49.66889" lon="5.66253">
        <ele>341.3</ele>
        <time>2020-06-25T19:13:51Z</time>
      </trkpt>
      <trkpt lat="49.66886" lon="5.66263">
        <ele>341.2</ele>
        <time>2020-06-25T19:13:52Z</time>
      </trkpt>
      <trkpt lat="49.66885" lon="5.6627">
        <ele>341.2</ele>
        <time>2020-06-25T19:13:53Z</time>
      </trkpt>
      <trkpt lat="49.66883" lon="5.66279">
        <ele>341.1</ele>
        <time>2020-06-25T19:13:54Z</time>
      </trkpt>
      <trkpt lat="49.66882" lon="5.66289">
        <ele>341.1</ele>
        <time>2020-06-25T19:13:55Z</time>
      </trkpt>
      <trkpt lat="49.6688" lon="5.66296">
        <ele>341.1</ele>
        <time>2020-06-25T19:13:56Z</time>
      </trkpt>
      <trkpt lat="49.66877" lon="5.66304">
        <ele>341</ele>
        <time>2020-06-25T19:13:57Z</time>
      </trkpt>
      <trkpt lat="49.66875" lon="5.66313">
        <ele>341</ele>
        <time>2020-06-25T19:13:58Z</time>
      </trkpt>
      <trkpt lat="49.66874" lon="5.66323">
        <ele>341</ele>
        <time>2020-06-25T19:13:59Z</time>
      </trkpt>
      <trkpt lat="49.66872" lon="5.66332">
        <ele>341</ele>
        <time>2020-06-25T19:14:00Z</time>
      </trkpt>
      <trkpt lat="49.6687" lon="5.66341">
        <ele>341.1</ele>
        <time>2020-06-25T19:14:01Z</time>
      </trkpt>
      <trkpt lat="49.66869" lon="5.66349">
        <ele>341.1</ele>
        <time>2020-06-25T19:14:02Z</time>
      </trkpt>
      <trkpt lat="49.66868" lon="5.66356">
        <ele>341.1</ele>
        <time>2020-06-25T19:14:03Z</time>
      </trkpt>
      <trkpt lat="49.66866" lon="5.66363">
        <ele>341.1</ele>
        <time>2020-06-25T19:14:04Z</time>
      </trkpt>
      <trkpt lat="49.66864" lon="5.66372">
        <ele>341.2</ele>
        <time>2020-06-25T19:14:05Z</time>
      </trkpt>
      <trkpt lat="49.66863" lon="5.6638">
        <ele>341.2</ele>
        <time>2020-06-25T19:14:06Z</time>
      </trkpt>
      <trkpt lat="49.66861" lon="5.6639">
        <ele>341.3</ele>
        <time>2020-06-25T19:14:07Z</time>
      </trkpt>
      <trkpt lat="49.6686" lon="5.66401">
        <ele>341.4</ele>
        <time>2020-06-25T19:14:08Z</time>
      </trkpt>
      <trkpt lat="49.66859" lon="5.6641">
        <ele>341.5</ele>
        <time>2020-06-25T19:14:09Z</time>
      </trkpt>
      <trkpt lat="49.66856" lon="5.66422">
        <ele>341.5</ele>
        <time>2020-06-25T19:14:10Z</time>
      </trkpt>
      <trkpt lat="49.66855" lon="5.66432">
        <ele>341.5</ele>
        <time>2020-06-25T19:14:11Z</time>
      </trkpt>
      <trkpt lat="49.66853" lon="5.66439">
        <ele>341.5</ele>
        <time>2020-06-25T19:14:12Z</time>
      </trkpt>
      <trkpt lat="49.66852" lon="5.66447">
        <ele>341.5</ele>
        <time>2020-06-25T19:14:13Z</time>
      </trkpt>
      <trkpt lat="49.66851" lon="5.66456">
        <ele>341.5</ele>
        <time>2020-06-25T19:14:14Z</time>
      </trkpt>
      <trkpt lat="49.66849" lon="5.66464">
        <ele>341.4</ele>
        <time>2020-06-25T19:14:15Z</time>
      </trkpt>
      <trkpt lat="49.66848" lon="5.66472">
        <ele>341.4</ele>
        <time>2020-06-25T19:14:16Z</time>
      </trkpt>
      <trkpt lat="49.66846" lon="5.6648">
        <ele>341.4</ele>
        <time>2020-06-25T19:14:17Z</time>
      </trkpt>
      <trkpt lat="49.66845" lon="5.66488">
        <ele>341.3</ele>
        <time>2020-06-25T19:14:18Z</time>
      </trkpt>
      <trkpt lat="49.66844" lon="5.66496">
        <ele>341.3</ele>
        <time>2020-06-25T19:14:19Z</time>
      </trkpt>
      <trkpt lat="49.66843" lon="5.66505">
        <ele>341.2</ele>
        <time>2020-06-25T19:14:20Z</time>
      </trkpt>
      <trkpt lat="49.66841" lon="5.66514">
        <ele>341.2</ele>
        <time>2020-06-25T19:14:21Z</time>
      </trkpt>
      <trkpt lat="49.6684" lon="5.66522">
        <ele>341.2</ele>
        <time>2020-06-25T19:14:22Z</time>
      </trkpt>
      <trkpt lat="49.66839" lon="5.66531">
        <ele>341.2</ele>
        <time>2020-06-25T19:14:23Z</time>
      </trkpt>
      <trkpt lat="49.66837" lon="5.66539">
        <ele>341.2</ele>
        <time>2020-06-25T19:14:24Z</time>
      </trkpt>
      <trkpt lat="49.66836" lon="5.66549">
        <ele>341.2</ele>
        <time>2020-06-25T19:14:25Z</time>
      </trkpt>
      <trkpt lat="49.66835" lon="5.66556">
        <ele>341.2</ele>
        <time>2020-06-25T19:14:26Z</time>
      </trkpt>
      <trkpt lat="49.66834" lon="5.66565">
        <ele>341.3</ele>
        <time>2020-06-25T19:14:27Z</time>
      </trkpt>
      <trkpt lat="49.66833" lon="5.66573">
        <ele>341.3</ele>
        <time>2020-06-25T19:14:28Z</time>
      </trkpt>
      <trkpt lat="49.66831" lon="5.66582">
        <ele>341.2</ele>
        <time>2020-06-25T19:14:29Z</time>
      </trkpt>
      <trkpt lat="49.66829" lon="5.6659">
        <ele>341.3</ele>
        <time>2020-06-25T19:14:30Z</time>
      </trkpt>
      <trkpt lat="49.66827" lon="5.666">
        <ele>341.3</ele>
        <time>2020-06-25T19:14:31Z</time>
      </trkpt>
      <trkpt lat="49.66826" lon="5.66609">
        <ele>341.2</ele>
        <time>2020-06-25T19:14:32Z</time>
      </trkpt>
      <trkpt lat="49.66824" lon="5.66618">
        <ele>341.2</ele>
        <time>2020-06-25T19:14:33Z</time>
      </trkpt>
      <trkpt lat="49.66822" lon="5.66627">
        <ele>341.1</ele>
        <time>2020-06-25T19:14:34Z</time>
      </trkpt>
      <trkpt lat="49.66821" lon="5.66636">
        <ele>341</ele>
        <time>2020-06-25T19:14:35Z</time>
      </trkpt>
      <trkpt lat="49.66821" lon="5.66647">
        <ele>340.9</ele>
        <time>2020-06-25T19:14:36Z</time>
      </trkpt>
      <trkpt lat="49.6682" lon="5.66656">
        <ele>340.8</ele>
        <time>2020-06-25T19:14:37Z</time>
      </trkpt>
      <trkpt lat="49.66818" lon="5.66664">
        <ele>340.8</ele>
        <time>2020-06-25T19:14:38Z</time>
      </trkpt>
      <trkpt lat="49.66818" lon="5.66672">
        <ele>340.7</ele>
        <time>2020-06-25T19:14:39Z</time>
      </trkpt>
      <trkpt lat="49.66816" lon="5.66682">
        <ele>340.7</ele>
        <time>2020-06-25T19:14:40Z</time>
      </trkpt>
      <trkpt lat="49.66815" lon="5.6669">
        <ele>340.6</ele>
        <time>2020-06-25T19:14:41Z</time>
      </trkpt>
      <trkpt lat="49.66814" lon="5.66699">
        <ele>340.5</ele>
        <time>2020-06-25T19:14:42Z</time>
      </trkpt>
      <trkpt lat="49.66813" lon="5.66708">
        <ele>340.4</ele>
        <time>2020-06-25T19:14:43Z</time>
      </trkpt>
      <trkpt lat="49.66812" lon="5.66717">
        <ele>340.3</ele>
        <time>2020-06-25T19:14:44Z</time>
      </trkpt>
      <trkpt lat="49.66811" lon="5.66726">
        <ele>340.3</ele>
        <time>2020-06-25T19:14:45Z</time>
      </trkpt>
      <trkpt lat="49.66811" lon="5.66734">
        <ele>340.3</ele>
        <time>2020-06-25T19:14:46Z</time>
      </trkpt>
      <trkpt lat="49.6681" lon="5.66743">
        <ele>340.3</ele>
        <time>2020-06-25T19:14:47Z</time>
      </trkpt>
      <trkpt lat="49.66809" lon="5.66751">
        <ele>340.3</ele>
        <time>2020-06-25T19:14:48Z</time>
      </trkpt>
      <trkpt lat="49.66809" lon="5.6676">
        <ele>340.3</ele>
        <time>2020-06-25T19:14:49Z</time>
      </trkpt>
      <trkpt lat="49.66808" lon="5.6677">
        <ele>340.3</ele>
        <time>2020-06-25T19:14:50Z</time>
      </trkpt>
      <trkpt lat="49.66807" lon="5.66778">
        <ele>340.3</ele>
        <time>2020-06-25T19:14:51Z</time>
      </trkpt>
      <trkpt lat="49.66807" lon="5.66786">
        <ele>340.3</ele>
        <time>2020-06-25T19:14:52Z</time>
      </trkpt>
      <trkpt lat="49.66807" lon="5.66794">
        <ele>340.4</ele>
        <time>2020-06-25T19:14:53Z</time>
      </trkpt>
      <trkpt lat="49.66807" lon="5.66802">
        <ele>340.4</ele>
        <time>2020-06-25T19:14:54Z</time>
      </trkpt>
      <trkpt lat="49.66807" lon="5.66809">
        <ele>340.4</ele>
        <time>2020-06-25T19:14:55Z</time>
      </trkpt>
      <trkpt lat="49.66807" lon="5.66817">
        <ele>340.4</ele>
        <time>2020-06-25T19:14:56Z</time>
      </trkpt>
      <trkpt lat="49.66807" lon="5.66827">
        <ele>340.4</ele>
        <time>2020-06-25T19:14:57Z</time>
      </trkpt>
      <trkpt lat="49.66807" lon="5.66836">
        <ele>340.3</ele>
        <time>2020-06-25T19:14:58Z</time>
      </trkpt>
      <trkpt lat="49.66807" lon="5.66846">
        <ele>340.3</ele>
        <time>2020-06-25T19:14:59Z</time>
      </trkpt>
      <trkpt lat="49.66808" lon="5.66855">
        <ele>340.3</ele>
        <time>2020-06-25T19:15:00Z</time>
      </trkpt>
      <trkpt lat="49.66808" lon="5.66863">
        <ele>340.3</ele>
        <time>2020-06-25T19:15:01Z</time>
      </trkpt>
      <trkpt lat="49.66808" lon="5.66873">
        <ele>340.3</ele>
        <time>2020-06-25T19:15:02Z</time>
      </trkpt>
      <trkpt lat="49.66809" lon="5.66881">
        <ele>340.3</ele>
        <time>2020-06-25T19:15:03Z</time>
      </trkpt>
      <trkpt lat="49.66809" lon="5.66892">
        <ele>340.3</ele>
        <time>2020-06-25T19:15:04Z</time>
      </trkpt>
      <trkpt lat="49.6681" lon="5.66903">
        <ele>340.3</ele>
        <time>2020-06-25T19:15:05Z</time>
      </trkpt>
      <trkpt lat="49.66811" lon="5.66913">
        <ele>340.4</ele>
        <time>2020-06-25T19:15:06Z</time>
      </trkpt>
      <trkpt lat="49.66811" lon="5.66922">
        <ele>340.5</ele>
        <time>2020-06-25T19:15:07Z</time>
      </trkpt>
      <trkpt lat="49.66812" lon="5.66931">
        <ele>340.6</ele>
        <time>2020-06-25T19:15:08Z</time>
      </trkpt>
      <trkpt lat="49.66813" lon="5.66938">
        <ele>340.6</ele>
        <time>2020-06-25T19:15:09Z</time>
      </trkpt>
      <trkpt lat="49.66814" lon="5.66948">
        <ele>340.7</ele>
        <time>2020-06-25T19:15:10Z</time>
      </trkpt>
      <trkpt lat="49.66814" lon="5.66955">
        <ele>340.7</ele>
        <time>2020-06-25T19:15:11Z</time>
      </trkpt>
      <trkpt lat="49.66815" lon="5.66964">
        <ele>340.8</ele>
        <time>2020-06-25T19:15:12Z</time>
      </trkpt>
      <trkpt lat="49.66816" lon="5.6697">
        <ele>340.8</ele>
        <time>2020-06-25T19:15:13Z</time>
      </trkpt>
      <trkpt lat="49.66817" lon="5.66978">
        <ele>340.8</ele>
        <time>2020-06-25T19:15:14Z</time>
      </trkpt>
      <trkpt lat="49.66818" lon="5.66985">
        <ele>340.9</ele>
        <time>2020-06-25T19:15:15Z</time>
      </trkpt>
      <trkpt lat="49.66819" lon="5.66992">
        <ele>340.9</ele>
        <time>2020-06-25T19:15:16Z</time>
      </trkpt>
      <trkpt lat="49.66819" lon="5.66999">
        <ele>341</ele>
        <time>2020-06-25T19:15:17Z</time>
      </trkpt>
      <trkpt lat="49.66821" lon="5.67007">
        <ele>341</ele>
        <time>2020-06-25T19:15:18Z</time>
      </trkpt>
      <trkpt lat="49.66823" lon="5.67016">
        <ele>341</ele>
        <time>2020-06-25T19:15:19Z</time>
      </trkpt>
      <trkpt lat="49.66825" lon="5.67023">
        <ele>341.9</ele>
        <time>2020-06-25T19:15:20Z</time>
      </trkpt>
      <trkpt lat="49.66825" lon="5.6703">
        <ele>342</ele>
        <time>2020-06-25T19:15:21Z</time>
      </trkpt>
      <trkpt lat="49.66826" lon="5.67037">
        <ele>342</ele>
        <time>2020-06-25T19:15:22Z</time>
      </trkpt>
      <trkpt lat="49.66827" lon="5.67044">
        <ele>342.1</ele>
        <time>2020-06-25T19:15:23Z</time>
      </trkpt>
      <trkpt lat="49.66828" lon="5.67052">
        <ele>342.1</ele>
        <time>2020-06-25T19:15:24Z</time>
      </trkpt>
      <trkpt lat="49.6683" lon="5.67058">
        <ele>342.2</ele>
        <time>2020-06-25T19:15:25Z</time>
      </trkpt>
      <trkpt lat="49.66831" lon="5.67063">
        <ele>342.2</ele>
        <time>2020-06-25T19:15:26Z</time>
      </trkpt>
      <trkpt lat="49.66832" lon="5.67067">
        <ele>342.2</ele>
        <time>2020-06-25T19:15:27Z</time>
      </trkpt>
      <trkpt lat="49.66833" lon="5.67075">
        <ele>342.3</ele>
        <time>2020-06-25T19:15:28Z</time>
      </trkpt>
      <trkpt lat="49.66834" lon="5.67082">
        <ele>342.4</ele>
        <time>2020-06-25T19:15:29Z</time>
      </trkpt>
      <trkpt lat="49.66836" lon="5.67086">
        <ele>343.2</ele>
        <time>2020-06-25T19:15:30Z</time>
      </trkpt>
      <trkpt lat="49.66839" lon="5.6709">
        <ele>342.9</ele>
        <time>2020-06-25T19:15:31Z</time>
      </trkpt>
      <trkpt lat="49.6684" lon="5.67096">
        <ele>342.5</ele>
        <time>2020-06-25T19:15:32Z</time>
      </trkpt>
      <trkpt lat="49.6684" lon="5.67102">
        <ele>342.1</ele>
        <time>2020-06-25T19:15:33Z</time>
      </trkpt>
      <trkpt lat="49.66839" lon="5.67108">
        <ele>341.9</ele>
        <time>2020-06-25T19:15:34Z</time>
      </trkpt>
      <trkpt lat="49.66838" lon="5.67112">
        <ele>341.7</ele>
        <time>2020-06-25T19:15:35Z</time>
      </trkpt>
      <trkpt lat="49.66837" lon="5.67119">
        <ele>341.4</ele>
        <time>2020-06-25T19:15:36Z</time>
      </trkpt>
      <trkpt lat="49.66838" lon="5.67127">
        <ele>341</ele>
        <time>2020-06-25T19:15:37Z</time>
      </trkpt>
      <trkpt lat="49.6684" lon="5.67133">
        <ele>340.6</ele>
        <time>2020-06-25T19:15:38Z</time>
      </trkpt>
      <trkpt lat="49.66843" lon="5.67138">
        <ele>340.6</ele>
        <time>2020-06-25T19:15:39Z</time>
      </trkpt>
      <trkpt lat="49.66846" lon="5.67143">
        <ele>340.4</ele>
        <time>2020-06-25T19:15:40Z</time>
      </trkpt>
      <trkpt lat="49.6685" lon="5.67146">
        <ele>340.3</ele>
        <time>2020-06-25T19:15:41Z</time>
      </trkpt>
      <trkpt lat="49.66854" lon="5.67152">
        <ele>340.1</ele>
        <time>2020-06-25T19:15:42Z</time>
      </trkpt>
      <trkpt lat="49.66857" lon="5.67159">
        <ele>340</ele>
        <time>2020-06-25T19:15:43Z</time>
      </trkpt>
      <trkpt lat="49.6686" lon="5.67165">
        <ele>339.9</ele>
        <time>2020-06-25T19:15:44Z</time>
      </trkpt>
      <trkpt lat="49.66863" lon="5.67173">
        <ele>339.8</ele>
        <time>2020-06-25T19:15:45Z</time>
      </trkpt>
      <trkpt lat="49.66864" lon="5.6718">
        <ele>339.7</ele>
        <time>2020-06-25T19:15:46Z</time>
      </trkpt>
      <trkpt lat="49.66865" lon="5.67188">
        <ele>339.6</ele>
        <time>2020-06-25T19:15:47Z</time>
      </trkpt>
      <trkpt lat="49.66866" lon="5.67195">
        <ele>339.5</ele>
        <time>2020-06-25T19:15:48Z</time>
      </trkpt>
      <trkpt lat="49.66868" lon="5.67201">
        <ele>339.5</ele>
        <time>2020-06-25T19:15:49Z</time>
      </trkpt>
      <trkpt lat="49.6687" lon="5.67208">
        <ele>339.4</ele>
        <time>2020-06-25T19:15:50Z</time>
      </trkpt>
      <trkpt lat="49.6687" lon="5.67215">
        <ele>339.4</ele>
        <time>2020-06-25T19:15:51Z</time>
      </trkpt>
      <trkpt lat="49.66872" lon="5.67223">
        <ele>339.4</ele>
        <time>2020-06-25T19:15:52Z</time>
      </trkpt>
      <trkpt lat="49.66873" lon="5.6723">
        <ele>339.3</ele>
        <time>2020-06-25T19:15:53Z</time>
      </trkpt>
      <trkpt lat="49.66874" lon="5.67239">
        <ele>339.4</ele>
        <time>2020-06-25T19:15:54Z</time>
      </trkpt>
      <trkpt lat="49.66875" lon="5.67249">
        <ele>339.4</ele>
        <time>2020-06-25T19:15:55Z</time>
      </trkpt>
      <trkpt lat="49.66875" lon="5.67257">
        <ele>339.4</ele>
        <time>2020-06-25T19:15:56Z</time>
      </trkpt>
      <trkpt lat="49.66876" lon="5.67264">
        <ele>339.4</ele>
        <time>2020-06-25T19:15:57Z</time>
      </trkpt>
      <trkpt lat="49.66877" lon="5.67271">
        <ele>339.4</ele>
        <time>2020-06-25T19:15:58Z</time>
      </trkpt>
      <trkpt lat="49.66878" lon="5.67279">
        <ele>339.4</ele>
        <time>2020-06-25T19:15:59Z</time>
      </trkpt>
      <trkpt lat="49.66879" lon="5.67287">
        <ele>339.4</ele>
        <time>2020-06-25T19:16:00Z</time>
      </trkpt>
      <trkpt lat="49.6688" lon="5.67294">
        <ele>339.4</ele>
        <time>2020-06-25T19:16:01Z</time>
      </trkpt>
      <trkpt lat="49.66882" lon="5.67301">
        <ele>339.4</ele>
        <time>2020-06-25T19:16:02Z</time>
      </trkpt>
      <trkpt lat="49.66883" lon="5.67309">
        <ele>339.4</ele>
        <time>2020-06-25T19:16:03Z</time>
      </trkpt>
      <trkpt lat="49.66884" lon="5.67317">
        <ele>339.4</ele>
        <time>2020-06-25T19:16:04Z</time>
      </trkpt>
      <trkpt lat="49.66885" lon="5.67325">
        <ele>339.4</ele>
        <time>2020-06-25T19:16:05Z</time>
      </trkpt>
      <trkpt lat="49.66887" lon="5.67334">
        <ele>339.5</ele>
        <time>2020-06-25T19:16:06Z</time>
      </trkpt>
      <trkpt lat="49.66888" lon="5.67342">
        <ele>339.5</ele>
        <time>2020-06-25T19:16:07Z</time>
      </trkpt>
      <trkpt lat="49.6689" lon="5.6735">
        <ele>339.5</ele>
        <time>2020-06-25T19:16:08Z</time>
      </trkpt>
      <trkpt lat="49.66891" lon="5.67359">
        <ele>339.4</ele>
        <time>2020-06-25T19:16:09Z</time>
      </trkpt>
      <trkpt lat="49.66893" lon="5.67367">
        <ele>339.4</ele>
        <time>2020-06-25T19:16:10Z</time>
      </trkpt>
      <trkpt lat="49.66895" lon="5.67374">
        <ele>339.4</ele>
        <time>2020-06-25T19:16:11Z</time>
      </trkpt>
      <trkpt lat="49.66897" lon="5.67381">
        <ele>339.4</ele>
        <time>2020-06-25T19:16:12Z</time>
      </trkpt>
      <trkpt lat="49.66899" lon="5.67388">
        <ele>339.5</ele>
        <time>2020-06-25T19:16:13Z</time>
      </trkpt>
      <trkpt lat="49.66901" lon="5.67396">
        <ele>339.5</ele>
        <time>2020-06-25T19:16:14Z</time>
      </trkpt>
      <trkpt lat="49.66903" lon="5.67404">
        <ele>339.6</ele>
        <time>2020-06-25T19:16:15Z</time>
      </trkpt>
      <trkpt lat="49.66906" lon="5.67412">
        <ele>339.6</ele>
        <time>2020-06-25T19:16:16Z</time>
      </trkpt>
      <trkpt lat="49.66909" lon="5.67421">
        <ele>339.6</ele>
        <time>2020-06-25T19:16:17Z</time>
      </trkpt>
      <trkpt lat="49.6691" lon="5.67427">
        <ele>339.6</ele>
        <time>2020-06-25T19:16:18Z</time>
      </trkpt>
      <trkpt lat="49.66912" lon="5.67435">
        <ele>339.7</ele>
        <time>2020-06-25T19:16:19Z</time>
      </trkpt>
      <trkpt lat="49.66914" lon="5.67443">
        <ele>339.7</ele>
        <time>2020-06-25T19:16:20Z</time>
      </trkpt>
      <trkpt lat="49.66916" lon="5.67451">
        <ele>339.7</ele>
        <time>2020-06-25T19:16:21Z</time>
      </trkpt>
      <trkpt lat="49.66917" lon="5.67458">
        <ele>339.7</ele>
        <time>2020-06-25T19:16:22Z</time>
      </trkpt>
      <trkpt lat="49.66919" lon="5.67466">
        <ele>339.7</ele>
        <time>2020-06-25T19:16:23Z</time>
      </trkpt>
      <trkpt lat="49.66921" lon="5.67473">
        <ele>339.7</ele>
        <time>2020-06-25T19:16:24Z</time>
      </trkpt>
      <trkpt lat="49.66923" lon="5.67482">
        <ele>339.8</ele>
        <time>2020-06-25T19:16:25Z</time>
      </trkpt>
      <trkpt lat="49.66925" lon="5.67491">
        <ele>339.9</ele>
        <time>2020-06-25T19:16:26Z</time>
      </trkpt>
      <trkpt lat="49.66927" lon="5.675">
        <ele>340.1</ele>
        <time>2020-06-25T19:16:27Z</time>
      </trkpt>
      <trkpt lat="49.66928" lon="5.67509">
        <ele>340.2</ele>
        <time>2020-06-25T19:16:28Z</time>
      </trkpt>
      <trkpt lat="49.66929" lon="5.67518">
        <ele>340.2</ele>
        <time>2020-06-25T19:16:29Z</time>
      </trkpt>
      <trkpt lat="49.6693" lon="5.67527">
        <ele>340.2</ele>
        <time>2020-06-25T19:16:30Z</time>
      </trkpt>
      <trkpt lat="49.66933" lon="5.67535">
        <ele>340.2</ele>
        <time>2020-06-25T19:16:31Z</time>
      </trkpt>
      <trkpt lat="49.66934" lon="5.67542">
        <ele>340.2</ele>
        <time>2020-06-25T19:16:32Z</time>
      </trkpt>
      <trkpt lat="49.66937" lon="5.67551">
        <ele>340.2</ele>
        <time>2020-06-25T19:16:33Z</time>
      </trkpt>
      <trkpt lat="49.66939" lon="5.67558">
        <ele>340.2</ele>
        <time>2020-06-25T19:16:34Z</time>
      </trkpt>
      <trkpt lat="49.66941" lon="5.67566">
        <ele>340.1</ele>
        <time>2020-06-25T19:16:35Z</time>
      </trkpt>
      <trkpt lat="49.66944" lon="5.67574">
        <ele>340.1</ele>
        <time>2020-06-25T19:16:36Z</time>
      </trkpt>
      <trkpt lat="49.66946" lon="5.67584">
        <ele>340.1</ele>
        <time>2020-06-25T19:16:37Z</time>
      </trkpt>
      <trkpt lat="49.66948" lon="5.67594">
        <ele>340.1</ele>
        <time>2020-06-25T19:16:38Z</time>
      </trkpt>
      <trkpt lat="49.66949" lon="5.67603">
        <ele>340</ele>
        <time>2020-06-25T19:16:39Z</time>
      </trkpt>
      <trkpt lat="49.6695" lon="5.67612">
        <ele>340</ele>
        <time>2020-06-25T19:16:40Z</time>
      </trkpt>
      <trkpt lat="49.66952" lon="5.6762">
        <ele>340</ele>
        <time>2020-06-25T19:16:41Z</time>
      </trkpt>
      <trkpt lat="49.66953" lon="5.6763">
        <ele>340</ele>
        <time>2020-06-25T19:16:42Z</time>
      </trkpt>
      <trkpt lat="49.66954" lon="5.67638">
        <ele>340.1</ele>
        <time>2020-06-25T19:16:43Z</time>
      </trkpt>
      <trkpt lat="49.66956" lon="5.67646">
        <ele>340.1</ele>
        <time>2020-06-25T19:16:44Z</time>
      </trkpt>
      <trkpt lat="49.66957" lon="5.67655">
        <ele>340.1</ele>
        <time>2020-06-25T19:16:45Z</time>
      </trkpt>
      <trkpt lat="49.66959" lon="5.67664">
        <ele>340.1</ele>
        <time>2020-06-25T19:16:46Z</time>
      </trkpt>
      <trkpt lat="49.66961" lon="5.67673">
        <ele>340.1</ele>
        <time>2020-06-25T19:16:47Z</time>
      </trkpt>
      <trkpt lat="49.66962" lon="5.67681">
        <ele>340.1</ele>
        <time>2020-06-25T19:16:48Z</time>
      </trkpt>
      <trkpt lat="49.66964" lon="5.6769">
        <ele>340.1</ele>
        <time>2020-06-25T19:16:49Z</time>
      </trkpt>
      <trkpt lat="49.66965" lon="5.67698">
        <ele>340.1</ele>
        <time>2020-06-25T19:16:50Z</time>
      </trkpt>
      <trkpt lat="49.66968" lon="5.67709">
        <ele>340</ele>
        <time>2020-06-25T19:16:51Z</time>
      </trkpt>
      <trkpt lat="49.6697" lon="5.67718">
        <ele>340</ele>
        <time>2020-06-25T19:16:52Z</time>
      </trkpt>
      <trkpt lat="49.66972" lon="5.67727">
        <ele>340</ele>
        <time>2020-06-25T19:16:53Z</time>
      </trkpt>
      <trkpt lat="49.66976" lon="5.67738">
        <ele>340</ele>
        <time>2020-06-25T19:16:54Z</time>
      </trkpt>
      <trkpt lat="49.66978" lon="5.67748">
        <ele>340</ele>
        <time>2020-06-25T19:16:55Z</time>
      </trkpt>
      <trkpt lat="49.6698" lon="5.67756">
        <ele>340.1</ele>
        <time>2020-06-25T19:16:56Z</time>
      </trkpt>
      <trkpt lat="49.66982" lon="5.67765">
        <ele>340.1</ele>
        <time>2020-06-25T19:16:57Z</time>
      </trkpt>
      <trkpt lat="49.66983" lon="5.67772">
        <ele>340.2</ele>
        <time>2020-06-25T19:16:58Z</time>
      </trkpt>
      <trkpt lat="49.66985" lon="5.67781">
        <ele>340.3</ele>
        <time>2020-06-25T19:16:59Z</time>
      </trkpt>
      <trkpt lat="49.66986" lon="5.67791">
        <ele>340.4</ele>
        <time>2020-06-25T19:17:00Z</time>
      </trkpt>
      <trkpt lat="49.66987" lon="5.67799">
        <ele>340.6</ele>
        <time>2020-06-25T19:17:01Z</time>
      </trkpt>
      <trkpt lat="49.66989" lon="5.67807">
        <ele>340.7</ele>
        <time>2020-06-25T19:17:02Z</time>
      </trkpt>
      <trkpt lat="49.66991" lon="5.67818">
        <ele>340.8</ele>
        <time>2020-06-25T19:17:03Z</time>
      </trkpt>
      <trkpt lat="49.66993" lon="5.67827">
        <ele>340.8</ele>
        <time>2020-06-25T19:17:04Z</time>
      </trkpt>
      <trkpt lat="49.66995" lon="5.67836">
        <ele>340.8</ele>
        <time>2020-06-25T19:17:05Z</time>
      </trkpt>
      <trkpt lat="49.66997" lon="5.67844">
        <ele>340.8</ele>
        <time>2020-06-25T19:17:06Z</time>
      </trkpt>
      <trkpt lat="49.66998" lon="5.67853">
        <ele>340.9</ele>
        <time>2020-06-25T19:17:07Z</time>
      </trkpt>
      <trkpt lat="49.67001" lon="5.67865">
        <ele>340.9</ele>
        <time>2020-06-25T19:17:08Z</time>
      </trkpt>
      <trkpt lat="49.67003" lon="5.67874">
        <ele>340.9</ele>
        <time>2020-06-25T19:17:09Z</time>
      </trkpt>
      <trkpt lat="49.67004" lon="5.67883">
        <ele>341.1</ele>
        <time>2020-06-25T19:17:10Z</time>
      </trkpt>
      <trkpt lat="49.67006" lon="5.67891">
        <ele>341.3</ele>
        <time>2020-06-25T19:17:11Z</time>
      </trkpt>
      <trkpt lat="49.67008" lon="5.679">
        <ele>341.3</ele>
        <time>2020-06-25T19:17:12Z</time>
      </trkpt>
      <trkpt lat="49.6701" lon="5.6791">
        <ele>341.3</ele>
        <time>2020-06-25T19:17:13Z</time>
      </trkpt>
      <trkpt lat="49.67012" lon="5.67918">
        <ele>341.2</ele>
        <time>2020-06-25T19:17:14Z</time>
      </trkpt>
      <trkpt lat="49.67015" lon="5.67928">
        <ele>341.2</ele>
        <time>2020-06-25T19:17:15Z</time>
      </trkpt>
      <trkpt lat="49.67017" lon="5.67937">
        <ele>341.2</ele>
        <time>2020-06-25T19:17:16Z</time>
      </trkpt>
      <trkpt lat="49.67019" lon="5.67946">
        <ele>341.2</ele>
        <time>2020-06-25T19:17:17Z</time>
      </trkpt>
      <trkpt lat="49.67022" lon="5.67957">
        <ele>341.2</ele>
        <time>2020-06-25T19:17:18Z</time>
      </trkpt>
      <trkpt lat="49.67023" lon="5.67966">
        <ele>341.2</ele>
        <time>2020-06-25T19:17:19Z</time>
      </trkpt>
      <trkpt lat="49.67026" lon="5.67975">
        <ele>341.2</ele>
        <time>2020-06-25T19:17:20Z</time>
      </trkpt>
      <trkpt lat="49.67028" lon="5.67985">
        <ele>341.3</ele>
        <time>2020-06-25T19:17:21Z</time>
      </trkpt>
      <trkpt lat="49.6703" lon="5.67993">
        <ele>341.3</ele>
        <time>2020-06-25T19:17:22Z</time>
      </trkpt>
      <trkpt lat="49.67032" lon="5.68003">
        <ele>341.3</ele>
        <time>2020-06-25T19:17:23Z</time>
      </trkpt>
      <trkpt lat="49.67035" lon="5.68013">
        <ele>341.2</ele>
        <time>2020-06-25T19:17:24Z</time>
      </trkpt>
      <trkpt lat="49.67037" lon="5.68022">
        <ele>341.2</ele>
        <time>2020-06-25T19:17:25Z</time>
      </trkpt>
      <trkpt lat="49.67039" lon="5.68031">
        <ele>341.2</ele>
        <time>2020-06-25T19:17:26Z</time>
      </trkpt>
      <trkpt lat="49.67042" lon="5.68041">
        <ele>341.2</ele>
        <time>2020-06-25T19:17:27Z</time>
      </trkpt>
      <trkpt lat="49.67044" lon="5.6805">
        <ele>341.3</ele>
        <time>2020-06-25T19:17:28Z</time>
      </trkpt>
      <trkpt lat="49.67046" lon="5.68059">
        <ele>341.3</ele>
        <time>2020-06-25T19:17:29Z</time>
      </trkpt>
      <trkpt lat="49.67048" lon="5.68068">
        <ele>341.3</ele>
        <time>2020-06-25T19:17:30Z</time>
      </trkpt>
      <trkpt lat="49.67051" lon="5.68077">
        <ele>341.4</ele>
        <time>2020-06-25T19:17:31Z</time>
      </trkpt>
      <trkpt lat="49.67053" lon="5.68086">
        <ele>341.4</ele>
        <time>2020-06-25T19:17:32Z</time>
      </trkpt>
      <trkpt lat="49.67055" lon="5.68094">
        <ele>341.4</ele>
        <time>2020-06-25T19:17:33Z</time>
      </trkpt>
      <trkpt lat="49.67059" lon="5.68103">
        <ele>341.5</ele>
        <time>2020-06-25T19:17:34Z</time>
      </trkpt>
      <trkpt lat="49.67062" lon="5.68112">
        <ele>341.6</ele>
        <time>2020-06-25T19:17:35Z</time>
      </trkpt>
      <trkpt lat="49.67064" lon="5.68119">
        <ele>341.6</ele>
        <time>2020-06-25T19:17:36Z</time>
      </trkpt>
      <trkpt lat="49.67067" lon="5.68128">
        <ele>341.7</ele>
        <time>2020-06-25T19:17:37Z</time>
      </trkpt>
      <trkpt lat="49.6707" lon="5.68136">
        <ele>341.9</ele>
        <time>2020-06-25T19:17:38Z</time>
      </trkpt>
      <trkpt lat="49.67073" lon="5.68144">
        <ele>342</ele>
        <time>2020-06-25T19:17:39Z</time>
      </trkpt>
      <trkpt lat="49.67075" lon="5.68154">
        <ele>342.2</ele>
        <time>2020-06-25T19:17:40Z</time>
      </trkpt>
      <trkpt lat="49.67078" lon="5.68162">
        <ele>342.3</ele>
        <time>2020-06-25T19:17:41Z</time>
      </trkpt>
      <trkpt lat="49.67082" lon="5.68172">
        <ele>342.5</ele>
        <time>2020-06-25T19:17:42Z</time>
      </trkpt>
      <trkpt lat="49.67084" lon="5.6818">
        <ele>342.7</ele>
        <time>2020-06-25T19:17:43Z</time>
      </trkpt>
      <trkpt lat="49.67087" lon="5.68188">
        <ele>342.8</ele>
        <time>2020-06-25T19:17:44Z</time>
      </trkpt>
      <trkpt lat="49.6709" lon="5.68195">
        <ele>343</ele>
        <time>2020-06-25T19:17:45Z</time>
      </trkpt>
      <trkpt lat="49.67093" lon="5.68203">
        <ele>343.1</ele>
        <time>2020-06-25T19:17:46Z</time>
      </trkpt>
      <trkpt lat="49.67095" lon="5.68211">
        <ele>343.3</ele>
        <time>2020-06-25T19:17:47Z</time>
      </trkpt>
      <trkpt lat="49.67098" lon="5.68218">
        <ele>343.4</ele>
        <time>2020-06-25T19:17:48Z</time>
      </trkpt>
      <trkpt lat="49.67102" lon="5.68226">
        <ele>343.5</ele>
        <time>2020-06-25T19:17:49Z</time>
      </trkpt>
      <trkpt lat="49.67103" lon="5.68233">
        <ele>343.6</ele>
        <time>2020-06-25T19:17:50Z</time>
      </trkpt>
      <trkpt lat="49.67106" lon="5.68241">
        <ele>343.7</ele>
        <time>2020-06-25T19:17:51Z</time>
      </trkpt>
      <trkpt lat="49.67109" lon="5.68249">
        <ele>343.9</ele>
        <time>2020-06-25T19:17:52Z</time>
      </trkpt>
      <trkpt lat="49.67111" lon="5.68256">
        <ele>344</ele>
        <time>2020-06-25T19:17:53Z</time>
      </trkpt>
      <trkpt lat="49.67113" lon="5.68264">
        <ele>344</ele>
        <time>2020-06-25T19:17:54Z</time>
      </trkpt>
      <trkpt lat="49.67116" lon="5.68273">
        <ele>344</ele>
        <time>2020-06-25T19:17:55Z</time>
      </trkpt>
      <trkpt lat="49.67118" lon="5.68281">
        <ele>344</ele>
        <time>2020-06-25T19:17:56Z</time>
      </trkpt>
      <trkpt lat="49.6712" lon="5.68287">
        <ele>344</ele>
        <time>2020-06-25T19:17:57Z</time>
      </trkpt>
      <trkpt lat="49.67122" lon="5.68295">
        <ele>344</ele>
        <time>2020-06-25T19:17:58Z</time>
      </trkpt>
      <trkpt lat="49.67126" lon="5.68302">
        <ele>344</ele>
        <time>2020-06-25T19:17:59Z</time>
      </trkpt>
      <trkpt lat="49.67129" lon="5.68307">
        <ele>344</ele>
        <time>2020-06-25T19:18:00Z</time>
      </trkpt>
      <trkpt lat="49.67132" lon="5.68314">
        <ele>344.1</ele>
        <time>2020-06-25T19:18:01Z</time>
      </trkpt>
      <trkpt lat="49.67136" lon="5.68322">
        <ele>344.1</ele>
        <time>2020-06-25T19:18:02Z</time>
      </trkpt>
      <trkpt lat="49.67139" lon="5.68331">
        <ele>344.2</ele>
        <time>2020-06-25T19:18:03Z</time>
      </trkpt>
      <trkpt lat="49.67142" lon="5.6834">
        <ele>344.3</ele>
        <time>2020-06-25T19:18:04Z</time>
      </trkpt>
      <trkpt lat="49.67145" lon="5.68348">
        <ele>344.3</ele>
        <time>2020-06-25T19:18:05Z</time>
      </trkpt>
      <trkpt lat="49.67148" lon="5.68354">
        <ele>344.3</ele>
        <time>2020-06-25T19:18:06Z</time>
      </trkpt>
      <trkpt lat="49.67152" lon="5.68362">
        <ele>344.3</ele>
        <time>2020-06-25T19:18:07Z</time>
      </trkpt>
      <trkpt lat="49.67155" lon="5.6837">
        <ele>344.3</ele>
        <time>2020-06-25T19:18:08Z</time>
      </trkpt>
      <trkpt lat="49.67158" lon="5.68378">
        <ele>344.3</ele>
        <time>2020-06-25T19:18:09Z</time>
      </trkpt>
      <trkpt lat="49.67161" lon="5.68388">
        <ele>344.3</ele>
        <time>2020-06-25T19:18:10Z</time>
      </trkpt>
      <trkpt lat="49.67165" lon="5.68398">
        <ele>344.4</ele>
        <time>2020-06-25T19:18:11Z</time>
      </trkpt>
      <trkpt lat="49.67168" lon="5.68407">
        <ele>344.5</ele>
        <time>2020-06-25T19:18:12Z</time>
      </trkpt>
      <trkpt lat="49.67171" lon="5.68415">
        <ele>344.6</ele>
        <time>2020-06-25T19:18:13Z</time>
      </trkpt>
      <trkpt lat="49.67174" lon="5.68422">
        <ele>344.6</ele>
        <time>2020-06-25T19:18:14Z</time>
      </trkpt>
      <trkpt lat="49.67176" lon="5.6843">
        <ele>344.7</ele>
        <time>2020-06-25T19:18:15Z</time>
      </trkpt>
      <trkpt lat="49.67179" lon="5.6844">
        <ele>344.7</ele>
        <time>2020-06-25T19:18:16Z</time>
      </trkpt>
      <trkpt lat="49.67182" lon="5.68448">
        <ele>344.7</ele>
        <time>2020-06-25T19:18:17Z</time>
      </trkpt>
      <trkpt lat="49.67185" lon="5.68454">
        <ele>344.7</ele>
        <time>2020-06-25T19:18:18Z</time>
      </trkpt>
      <trkpt lat="49.67188" lon="5.68462">
        <ele>344.8</ele>
        <time>2020-06-25T19:18:19Z</time>
      </trkpt>
      <trkpt lat="49.67191" lon="5.6847">
        <ele>344.8</ele>
        <time>2020-06-25T19:18:20Z</time>
      </trkpt>
      <trkpt lat="49.67194" lon="5.68478">
        <ele>344.8</ele>
        <time>2020-06-25T19:18:21Z</time>
      </trkpt>
      <trkpt lat="49.67196" lon="5.68486">
        <ele>344.9</ele>
        <time>2020-06-25T19:18:22Z</time>
      </trkpt>
      <trkpt lat="49.67197" lon="5.68494">
        <ele>344.9</ele>
        <time>2020-06-25T19:18:23Z</time>
      </trkpt>
      <trkpt lat="49.67199" lon="5.68502">
        <ele>344.9</ele>
        <time>2020-06-25T19:18:24Z</time>
      </trkpt>
      <trkpt lat="49.67201" lon="5.68511">
        <ele>345</ele>
        <time>2020-06-25T19:18:25Z</time>
      </trkpt>
      <trkpt lat="49.67203" lon="5.68519">
        <ele>345</ele>
        <time>2020-06-25T19:18:26Z</time>
      </trkpt>
      <trkpt lat="49.67205" lon="5.68527">
        <ele>345</ele>
        <time>2020-06-25T19:18:27Z</time>
      </trkpt>
      <trkpt lat="49.67206" lon="5.68535">
        <ele>345</ele>
        <time>2020-06-25T19:18:28Z</time>
      </trkpt>
      <trkpt lat="49.67208" lon="5.68543">
        <ele>345</ele>
        <time>2020-06-25T19:18:29Z</time>
      </trkpt>
      <trkpt lat="49.67208" lon="5.68552">
        <ele>345</ele>
        <time>2020-06-25T19:18:30Z</time>
      </trkpt>
      <trkpt lat="49.6721" lon="5.68562">
        <ele>345</ele>
        <time>2020-06-25T19:18:31Z</time>
      </trkpt>
      <trkpt lat="49.67211" lon="5.68572">
        <ele>345</ele>
        <time>2020-06-25T19:18:32Z</time>
      </trkpt>
      <trkpt lat="49.67212" lon="5.68582">
        <ele>345</ele>
        <time>2020-06-25T19:18:33Z</time>
      </trkpt>
      <trkpt lat="49.67213" lon="5.68591">
        <ele>344.9</ele>
        <time>2020-06-25T19:18:34Z</time>
      </trkpt>
      <trkpt lat="49.67215" lon="5.68601">
        <ele>344.9</ele>
        <time>2020-06-25T19:18:35Z</time>
      </trkpt>
      <trkpt lat="49.67215" lon="5.68611">
        <ele>344.9</ele>
        <time>2020-06-25T19:18:36Z</time>
      </trkpt>
      <trkpt lat="49.67216" lon="5.68621">
        <ele>344.8</ele>
        <time>2020-06-25T19:18:37Z</time>
      </trkpt>
      <trkpt lat="49.67215" lon="5.68632">
        <ele>344.8</ele>
        <time>2020-06-25T19:18:38Z</time>
      </trkpt>
      <trkpt lat="49.67215" lon="5.68642">
        <ele>344.8</ele>
        <time>2020-06-25T19:18:39Z</time>
      </trkpt>
      <trkpt lat="49.67214" lon="5.6865">
        <ele>344.7</ele>
        <time>2020-06-25T19:18:40Z</time>
      </trkpt>
      <trkpt lat="49.67213" lon="5.68657">
        <ele>344.7</ele>
        <time>2020-06-25T19:18:41Z</time>
      </trkpt>
      <trkpt lat="49.67213" lon="5.68664">
        <ele>344.7</ele>
        <time>2020-06-25T19:18:42Z</time>
      </trkpt>
      <trkpt lat="49.67212" lon="5.68672">
        <ele>344.6</ele>
        <time>2020-06-25T19:18:43Z</time>
      </trkpt>
      <trkpt lat="49.67212" lon="5.68683">
        <ele>344.6</ele>
        <time>2020-06-25T19:18:44Z</time>
      </trkpt>
      <trkpt lat="49.67212" lon="5.68691">
        <ele>344.5</ele>
        <time>2020-06-25T19:18:45Z</time>
      </trkpt>
      <trkpt lat="49.67211" lon="5.68701">
        <ele>344.5</ele>
        <time>2020-06-25T19:18:46Z</time>
      </trkpt>
      <trkpt lat="49.6721" lon="5.68711">
        <ele>344.4</ele>
        <time>2020-06-25T19:18:47Z</time>
      </trkpt>
      <trkpt lat="49.67209" lon="5.68721">
        <ele>344.3</ele>
        <time>2020-06-25T19:18:48Z</time>
      </trkpt>
      <trkpt lat="49.67209" lon="5.68732">
        <ele>344.3</ele>
        <time>2020-06-25T19:18:49Z</time>
      </trkpt>
      <trkpt lat="49.67209" lon="5.68742">
        <ele>344.2</ele>
        <time>2020-06-25T19:18:50Z</time>
      </trkpt>
      <trkpt lat="49.67208" lon="5.68752">
        <ele>344.1</ele>
        <time>2020-06-25T19:18:51Z</time>
      </trkpt>
      <trkpt lat="49.67208" lon="5.6876">
        <ele>344</ele>
        <time>2020-06-25T19:18:52Z</time>
      </trkpt>
      <trkpt lat="49.67208" lon="5.68768">
        <ele>343.9</ele>
        <time>2020-06-25T19:18:53Z</time>
      </trkpt>
      <trkpt lat="49.67207" lon="5.68779">
        <ele>343.8</ele>
        <time>2020-06-25T19:18:54Z</time>
      </trkpt>
      <trkpt lat="49.67206" lon="5.68786">
        <ele>343.8</ele>
        <time>2020-06-25T19:18:55Z</time>
      </trkpt>
      <trkpt lat="49.67206" lon="5.68793">
        <ele>343.8</ele>
        <time>2020-06-25T19:18:56Z</time>
      </trkpt>
      <trkpt lat="49.67205" lon="5.68801">
        <ele>343.8</ele>
        <time>2020-06-25T19:18:57Z</time>
      </trkpt>
      <trkpt lat="49.67205" lon="5.68808">
        <ele>343.7</ele>
        <time>2020-06-25T19:18:58Z</time>
      </trkpt>
      <trkpt lat="49.67205" lon="5.68817">
        <ele>343.7</ele>
        <time>2020-06-25T19:18:59Z</time>
      </trkpt>
      <trkpt lat="49.67205" lon="5.68826">
        <ele>343.7</ele>
        <time>2020-06-25T19:19:00Z</time>
      </trkpt>
      <trkpt lat="49.67204" lon="5.68833">
        <ele>343.8</ele>
        <time>2020-06-25T19:19:01Z</time>
      </trkpt>
      <trkpt lat="49.67204" lon="5.68842">
        <ele>343.9</ele>
        <time>2020-06-25T19:19:02Z</time>
      </trkpt>
      <trkpt lat="49.67204" lon="5.68851">
        <ele>344</ele>
        <time>2020-06-25T19:19:03Z</time>
      </trkpt>
      <trkpt lat="49.67203" lon="5.68861">
        <ele>344.1</ele>
        <time>2020-06-25T19:19:04Z</time>
      </trkpt>
      <trkpt lat="49.67201" lon="5.68871">
        <ele>344.1</ele>
        <time>2020-06-25T19:19:05Z</time>
      </trkpt>
      <trkpt lat="49.672" lon="5.68881">
        <ele>344.2</ele>
        <time>2020-06-25T19:19:06Z</time>
      </trkpt>
      <trkpt lat="49.672" lon="5.68891">
        <ele>344.2</ele>
        <time>2020-06-25T19:19:07Z</time>
      </trkpt>
      <trkpt lat="49.67199" lon="5.68901">
        <ele>344.2</ele>
        <time>2020-06-25T19:19:08Z</time>
      </trkpt>
      <trkpt lat="49.67199" lon="5.68911">
        <ele>344.2</ele>
        <time>2020-06-25T19:19:09Z</time>
      </trkpt>
      <trkpt lat="49.67199" lon="5.6892">
        <ele>344.1</ele>
        <time>2020-06-25T19:19:10Z</time>
      </trkpt>
      <trkpt lat="49.67199" lon="5.68929">
        <ele>344.1</ele>
        <time>2020-06-25T19:19:11Z</time>
      </trkpt>
      <trkpt lat="49.67199" lon="5.68939">
        <ele>344</ele>
        <time>2020-06-25T19:19:12Z</time>
      </trkpt>
      <trkpt lat="49.67199" lon="5.6895">
        <ele>343.9</ele>
        <time>2020-06-25T19:19:13Z</time>
      </trkpt>
      <trkpt lat="49.67199" lon="5.68957">
        <ele>343.9</ele>
        <time>2020-06-25T19:19:14Z</time>
      </trkpt>
      <trkpt lat="49.672" lon="5.68967">
        <ele>343.8</ele>
        <time>2020-06-25T19:19:15Z</time>
      </trkpt>
      <trkpt lat="49.67201" lon="5.68976">
        <ele>343.8</ele>
        <time>2020-06-25T19:19:16Z</time>
      </trkpt>
      <trkpt lat="49.67202" lon="5.68985">
        <ele>343.8</ele>
        <time>2020-06-25T19:19:17Z</time>
      </trkpt>
      <trkpt lat="49.67203" lon="5.68994">
        <ele>343.7</ele>
        <time>2020-06-25T19:19:18Z</time>
      </trkpt>
      <trkpt lat="49.67204" lon="5.69004">
        <ele>343.7</ele>
        <time>2020-06-25T19:19:19Z</time>
      </trkpt>
      <trkpt lat="49.67205" lon="5.69013">
        <ele>343.7</ele>
        <time>2020-06-25T19:19:20Z</time>
      </trkpt>
      <trkpt lat="49.67207" lon="5.69023">
        <ele>343.7</ele>
        <time>2020-06-25T19:19:21Z</time>
      </trkpt>
      <trkpt lat="49.67208" lon="5.69032">
        <ele>343.7</ele>
        <time>2020-06-25T19:19:22Z</time>
      </trkpt>
      <trkpt lat="49.6721" lon="5.69042">
        <ele>343.7</ele>
        <time>2020-06-25T19:19:23Z</time>
      </trkpt>
      <trkpt lat="49.67211" lon="5.6905">
        <ele>343.7</ele>
        <time>2020-06-25T19:19:24Z</time>
      </trkpt>
      <trkpt lat="49.67213" lon="5.69059">
        <ele>343.6</ele>
        <time>2020-06-25T19:19:25Z</time>
      </trkpt>
      <trkpt lat="49.67215" lon="5.69068">
        <ele>343.6</ele>
        <time>2020-06-25T19:19:26Z</time>
      </trkpt>
      <trkpt lat="49.67217" lon="5.69076">
        <ele>343.6</ele>
        <time>2020-06-25T19:19:27Z</time>
      </trkpt>
      <trkpt lat="49.67219" lon="5.69085">
        <ele>343.6</ele>
        <time>2020-06-25T19:19:28Z</time>
      </trkpt>
      <trkpt lat="49.67221" lon="5.69095">
        <ele>343.6</ele>
        <time>2020-06-25T19:19:29Z</time>
      </trkpt>
      <trkpt lat="49.67223" lon="5.69105">
        <ele>343.5</ele>
        <time>2020-06-25T19:19:30Z</time>
      </trkpt>
      <trkpt lat="49.67226" lon="5.69114">
        <ele>343.5</ele>
        <time>2020-06-25T19:19:31Z</time>
      </trkpt>
      <trkpt lat="49.67228" lon="5.69124">
        <ele>343.5</ele>
        <time>2020-06-25T19:19:32Z</time>
      </trkpt>
      <trkpt lat="49.6723" lon="5.69135">
        <ele>343.5</ele>
        <time>2020-06-25T19:19:33Z</time>
      </trkpt>
      <trkpt lat="49.67232" lon="5.69145">
        <ele>343.5</ele>
        <time>2020-06-25T19:19:34Z</time>
      </trkpt>
      <trkpt lat="49.67234" lon="5.69154">
        <ele>343.5</ele>
        <time>2020-06-25T19:19:35Z</time>
      </trkpt>
      <trkpt lat="49.67237" lon="5.69166">
        <ele>343.5</ele>
        <time>2020-06-25T19:19:36Z</time>
      </trkpt>
      <trkpt lat="49.67239" lon="5.69177">
        <ele>343.5</ele>
        <time>2020-06-25T19:19:37Z</time>
      </trkpt>
      <trkpt lat="49.67241" lon="5.69187">
        <ele>343.5</ele>
        <time>2020-06-25T19:19:38Z</time>
      </trkpt>
      <trkpt lat="49.67242" lon="5.69197">
        <ele>343.5</ele>
        <time>2020-06-25T19:19:39Z</time>
      </trkpt>
      <trkpt lat="49.67245" lon="5.69207">
        <ele>343.5</ele>
        <time>2020-06-25T19:19:40Z</time>
      </trkpt>
      <trkpt lat="49.67247" lon="5.69216">
        <ele>343.5</ele>
        <time>2020-06-25T19:19:41Z</time>
      </trkpt>
      <trkpt lat="49.6725" lon="5.69225">
        <ele>343.5</ele>
        <time>2020-06-25T19:19:42Z</time>
      </trkpt>
      <trkpt lat="49.67252" lon="5.69234">
        <ele>343.5</ele>
        <time>2020-06-25T19:19:43Z</time>
      </trkpt>
      <trkpt lat="49.67254" lon="5.69243">
        <ele>343.5</ele>
        <time>2020-06-25T19:19:44Z</time>
      </trkpt>
      <trkpt lat="49.67256" lon="5.69253">
        <ele>343.5</ele>
        <time>2020-06-25T19:19:45Z</time>
      </trkpt>
      <trkpt lat="49.67259" lon="5.69264">
        <ele>343.5</ele>
        <time>2020-06-25T19:19:46Z</time>
      </trkpt>
      <trkpt lat="49.6726" lon="5.69277">
        <ele>343.4</ele>
        <time>2020-06-25T19:19:47Z</time>
      </trkpt>
      <trkpt lat="49.67262" lon="5.69288">
        <ele>343.4</ele>
        <time>2020-06-25T19:19:48Z</time>
      </trkpt>
      <trkpt lat="49.67263" lon="5.69298">
        <ele>343.4</ele>
        <time>2020-06-25T19:19:49Z</time>
      </trkpt>
      <trkpt lat="49.67265" lon="5.69308">
        <ele>343.4</ele>
        <time>2020-06-25T19:19:50Z</time>
      </trkpt>
      <trkpt lat="49.67267" lon="5.69317">
        <ele>343.3</ele>
        <time>2020-06-25T19:19:51Z</time>
      </trkpt>
      <trkpt lat="49.67269" lon="5.69326">
        <ele>343.3</ele>
        <time>2020-06-25T19:19:52Z</time>
      </trkpt>
      <trkpt lat="49.67271" lon="5.69337">
        <ele>343.3</ele>
        <time>2020-06-25T19:19:53Z</time>
      </trkpt>
      <trkpt lat="49.67273" lon="5.69346">
        <ele>343.3</ele>
        <time>2020-06-25T19:19:54Z</time>
      </trkpt>
      <trkpt lat="49.67275" lon="5.69355">
        <ele>343.2</ele>
        <time>2020-06-25T19:19:55Z</time>
      </trkpt>
      <trkpt lat="49.67277" lon="5.69364">
        <ele>343.2</ele>
        <time>2020-06-25T19:19:56Z</time>
      </trkpt>
      <trkpt lat="49.67279" lon="5.69375">
        <ele>343.1</ele>
        <time>2020-06-25T19:19:57Z</time>
      </trkpt>
      <trkpt lat="49.67282" lon="5.69386">
        <ele>343.1</ele>
        <time>2020-06-25T19:19:58Z</time>
      </trkpt>
      <trkpt lat="49.67284" lon="5.69395">
        <ele>343</ele>
        <time>2020-06-25T19:19:59Z</time>
      </trkpt>
      <trkpt lat="49.67286" lon="5.69403">
        <ele>343</ele>
        <time>2020-06-25T19:20:00Z</time>
      </trkpt>
      <trkpt lat="49.67289" lon="5.69412">
        <ele>342.9</ele>
        <time>2020-06-25T19:20:01Z</time>
      </trkpt>
      <trkpt lat="49.67291" lon="5.69423">
        <ele>342.8</ele>
        <time>2020-06-25T19:20:02Z</time>
      </trkpt>
      <trkpt lat="49.67294" lon="5.69433">
        <ele>342.7</ele>
        <time>2020-06-25T19:20:03Z</time>
      </trkpt>
      <trkpt lat="49.67297" lon="5.69443">
        <ele>342.6</ele>
        <time>2020-06-25T19:20:04Z</time>
      </trkpt>
      <trkpt lat="49.673" lon="5.69453">
        <ele>342.5</ele>
        <time>2020-06-25T19:20:05Z</time>
      </trkpt>
      <trkpt lat="49.67303" lon="5.69462">
        <ele>342.4</ele>
        <time>2020-06-25T19:20:06Z</time>
      </trkpt>
      <trkpt lat="49.67305" lon="5.69471">
        <ele>342.4</ele>
        <time>2020-06-25T19:20:07Z</time>
      </trkpt>
      <trkpt lat="49.67308" lon="5.6948">
        <ele>342.5</ele>
        <time>2020-06-25T19:20:08Z</time>
      </trkpt>
      <trkpt lat="49.67312" lon="5.6949">
        <ele>342.5</ele>
        <time>2020-06-25T19:20:09Z</time>
      </trkpt>
      <trkpt lat="49.67316" lon="5.69499">
        <ele>342.5</ele>
        <time>2020-06-25T19:20:10Z</time>
      </trkpt>
      <trkpt lat="49.67319" lon="5.69508">
        <ele>342.5</ele>
        <time>2020-06-25T19:20:11Z</time>
      </trkpt>
      <trkpt lat="49.67323" lon="5.69518">
        <ele>342.5</ele>
        <time>2020-06-25T19:20:12Z</time>
      </trkpt>
      <trkpt lat="49.67327" lon="5.69527">
        <ele>342.5</ele>
        <time>2020-06-25T19:20:13Z</time>
      </trkpt>
      <trkpt lat="49.67331" lon="5.69535">
        <ele>342.5</ele>
        <time>2020-06-25T19:20:14Z</time>
      </trkpt>
      <trkpt lat="49.67335" lon="5.69544">
        <ele>342.6</ele>
        <time>2020-06-25T19:20:15Z</time>
      </trkpt>
      <trkpt lat="49.67338" lon="5.69552">
        <ele>342.6</ele>
        <time>2020-06-25T19:20:16Z</time>
      </trkpt>
      <trkpt lat="49.67342" lon="5.6956">
        <ele>342.6</ele>
        <time>2020-06-25T19:20:17Z</time>
      </trkpt>
      <trkpt lat="49.67346" lon="5.69568">
        <ele>342.6</ele>
        <time>2020-06-25T19:20:18Z</time>
      </trkpt>
      <trkpt lat="49.6735" lon="5.69576">
        <ele>342.6</ele>
        <time>2020-06-25T19:20:19Z</time>
      </trkpt>
      <trkpt lat="49.67354" lon="5.69583">
        <ele>342.6</ele>
        <time>2020-06-25T19:20:20Z</time>
      </trkpt>
      <trkpt lat="49.67358" lon="5.6959">
        <ele>342.6</ele>
        <time>2020-06-25T19:20:21Z</time>
      </trkpt>
      <trkpt lat="49.67362" lon="5.69598">
        <ele>342.6</ele>
        <time>2020-06-25T19:20:22Z</time>
      </trkpt>
      <trkpt lat="49.67367" lon="5.69605">
        <ele>342.6</ele>
        <time>2020-06-25T19:20:23Z</time>
      </trkpt>
      <trkpt lat="49.6737" lon="5.69613">
        <ele>342.8</ele>
        <time>2020-06-25T19:20:24Z</time>
      </trkpt>
      <trkpt lat="49.67375" lon="5.69619">
        <ele>342.9</ele>
        <time>2020-06-25T19:20:25Z</time>
      </trkpt>
      <trkpt lat="49.67378" lon="5.69627">
        <ele>343</ele>
        <time>2020-06-25T19:20:26Z</time>
      </trkpt>
      <trkpt lat="49.67383" lon="5.69636">
        <ele>343.1</ele>
        <time>2020-06-25T19:20:27Z</time>
      </trkpt>
      <trkpt lat="49.67388" lon="5.69644">
        <ele>343.1</ele>
        <time>2020-06-25T19:20:28Z</time>
      </trkpt>
      <trkpt lat="49.67392" lon="5.6965">
        <ele>343.2</ele>
        <time>2020-06-25T19:20:29Z</time>
      </trkpt>
      <trkpt lat="49.67396" lon="5.69658">
        <ele>343.4</ele>
        <time>2020-06-25T19:20:30Z</time>
      </trkpt>
      <trkpt lat="49.674" lon="5.69665">
        <ele>343.5</ele>
        <time>2020-06-25T19:20:31Z</time>
      </trkpt>
      <trkpt lat="49.67405" lon="5.69673">
        <ele>343.5</ele>
        <time>2020-06-25T19:20:32Z</time>
      </trkpt>
      <trkpt lat="49.67408" lon="5.6968">
        <ele>343.5</ele>
        <time>2020-06-25T19:20:33Z</time>
      </trkpt>
      <trkpt lat="49.67413" lon="5.69687">
        <ele>343.5</ele>
        <time>2020-06-25T19:20:34Z</time>
      </trkpt>
      <trkpt lat="49.67418" lon="5.69694">
        <ele>343.6</ele>
        <time>2020-06-25T19:20:35Z</time>
      </trkpt>
      <trkpt lat="49.67422" lon="5.69702">
        <ele>343.6</ele>
        <time>2020-06-25T19:20:36Z</time>
      </trkpt>
      <trkpt lat="49.67426" lon="5.69709">
        <ele>343.6</ele>
        <time>2020-06-25T19:20:37Z</time>
      </trkpt>
      <trkpt lat="49.6743" lon="5.69716">
        <ele>343.6</ele>
        <time>2020-06-25T19:20:38Z</time>
      </trkpt>
      <trkpt lat="49.67435" lon="5.69723">
        <ele>343.6</ele>
        <time>2020-06-25T19:20:39Z</time>
      </trkpt>
      <trkpt lat="49.67439" lon="5.6973">
        <ele>343.5</ele>
        <time>2020-06-25T19:20:40Z</time>
      </trkpt>
      <trkpt lat="49.67443" lon="5.69737">
        <ele>343.5</ele>
        <time>2020-06-25T19:20:41Z</time>
      </trkpt>
      <trkpt lat="49.67448" lon="5.69743">
        <ele>343.5</ele>
        <time>2020-06-25T19:20:42Z</time>
      </trkpt>
      <trkpt lat="49.67452" lon="5.69751">
        <ele>343.5</ele>
        <time>2020-06-25T19:20:43Z</time>
      </trkpt>
      <trkpt lat="49.67456" lon="5.69757">
        <ele>343.5</ele>
        <time>2020-06-25T19:20:44Z</time>
      </trkpt>
      <trkpt lat="49.67462" lon="5.69765">
        <ele>343.5</ele>
        <time>2020-06-25T19:20:45Z</time>
      </trkpt>
      <trkpt lat="49.67466" lon="5.69773">
        <ele>343.6</ele>
        <time>2020-06-25T19:20:46Z</time>
      </trkpt>
      <trkpt lat="49.67471" lon="5.6978">
        <ele>343.6</ele>
        <time>2020-06-25T19:20:47Z</time>
      </trkpt>
      <trkpt lat="49.67476" lon="5.69787">
        <ele>343.6</ele>
        <time>2020-06-25T19:20:48Z</time>
      </trkpt>
      <trkpt lat="49.6748" lon="5.69794">
        <ele>343.6</ele>
        <time>2020-06-25T19:20:49Z</time>
      </trkpt>
      <trkpt lat="49.67484" lon="5.69801">
        <ele>343.6</ele>
        <time>2020-06-25T19:20:50Z</time>
      </trkpt>
      <trkpt lat="49.67488" lon="5.69808">
        <ele>343.6</ele>
        <time>2020-06-25T19:20:51Z</time>
      </trkpt>
      <trkpt lat="49.67492" lon="5.69816">
        <ele>343.6</ele>
        <time>2020-06-25T19:20:52Z</time>
      </trkpt>
      <trkpt lat="49.67497" lon="5.69824">
        <ele>343.6</ele>
        <time>2020-06-25T19:20:53Z</time>
      </trkpt>
      <trkpt lat="49.67502" lon="5.69833">
        <ele>343.6</ele>
        <time>2020-06-25T19:20:54Z</time>
      </trkpt>
      <trkpt lat="49.67506" lon="5.69842">
        <ele>343.6</ele>
        <time>2020-06-25T19:20:55Z</time>
      </trkpt>
      <trkpt lat="49.6751" lon="5.69849">
        <ele>343.6</ele>
        <time>2020-06-25T19:20:56Z</time>
      </trkpt>
      <trkpt lat="49.67514" lon="5.69858">
        <ele>343.6</ele>
        <time>2020-06-25T19:20:57Z</time>
      </trkpt>
      <trkpt lat="49.67518" lon="5.69865">
        <ele>343.6</ele>
        <time>2020-06-25T19:20:58Z</time>
      </trkpt>
      <trkpt lat="49.67522" lon="5.69872">
        <ele>343.6</ele>
        <time>2020-06-25T19:20:59Z</time>
      </trkpt>
      <trkpt lat="49.67526" lon="5.6988">
        <ele>343.6</ele>
        <time>2020-06-25T19:21:00Z</time>
      </trkpt>
      <trkpt lat="49.6753" lon="5.69887">
        <ele>343.6</ele>
        <time>2020-06-25T19:21:01Z</time>
      </trkpt>
      <trkpt lat="49.67535" lon="5.69894">
        <ele>343.6</ele>
        <time>2020-06-25T19:21:02Z</time>
      </trkpt>
      <trkpt lat="49.6754" lon="5.69903">
        <ele>343.7</ele>
        <time>2020-06-25T19:21:03Z</time>
      </trkpt>
      <trkpt lat="49.67544" lon="5.69911">
        <ele>343.8</ele>
        <time>2020-06-25T19:21:04Z</time>
      </trkpt>
      <trkpt lat="49.67548" lon="5.69919">
        <ele>343.8</ele>
        <time>2020-06-25T19:21:05Z</time>
      </trkpt>
      <trkpt lat="49.67553" lon="5.69926">
        <ele>343.9</ele>
        <time>2020-06-25T19:21:06Z</time>
      </trkpt>
      <trkpt lat="49.67557" lon="5.69934">
        <ele>344</ele>
        <time>2020-06-25T19:21:07Z</time>
      </trkpt>
      <trkpt lat="49.67562" lon="5.69941">
        <ele>344.1</ele>
        <time>2020-06-25T19:21:08Z</time>
      </trkpt>
      <trkpt lat="49.67566" lon="5.69949">
        <ele>344.1</ele>
        <time>2020-06-25T19:21:09Z</time>
      </trkpt>
      <trkpt lat="49.6757" lon="5.69957">
        <ele>344.2</ele>
        <time>2020-06-25T19:21:10Z</time>
      </trkpt>
      <trkpt lat="49.67575" lon="5.69965">
        <ele>344.2</ele>
        <time>2020-06-25T19:21:11Z</time>
      </trkpt>
      <trkpt lat="49.6758" lon="5.69973">
        <ele>344.2</ele>
        <time>2020-06-25T19:21:12Z</time>
      </trkpt>
      <trkpt lat="49.67584" lon="5.6998">
        <ele>344.2</ele>
        <time>2020-06-25T19:21:13Z</time>
      </trkpt>
      <trkpt lat="49.67589" lon="5.69987">
        <ele>344.2</ele>
        <time>2020-06-25T19:21:14Z</time>
      </trkpt>
      <trkpt lat="49.67593" lon="5.69995">
        <ele>344.2</ele>
        <time>2020-06-25T19:21:15Z</time>
      </trkpt>
      <trkpt lat="49.67597" lon="5.70002">
        <ele>344.2</ele>
        <time>2020-06-25T19:21:16Z</time>
      </trkpt>
      <trkpt lat="49.67601" lon="5.70009">
        <ele>344.2</ele>
        <time>2020-06-25T19:21:17Z</time>
      </trkpt>
      <trkpt lat="49.67605" lon="5.70016">
        <ele>344.2</ele>
        <time>2020-06-25T19:21:18Z</time>
      </trkpt>
      <trkpt lat="49.67609" lon="5.70022">
        <ele>344.1</ele>
        <time>2020-06-25T19:21:19Z</time>
      </trkpt>
      <trkpt lat="49.67614" lon="5.70029">
        <ele>344.1</ele>
        <time>2020-06-25T19:21:20Z</time>
      </trkpt>
      <trkpt lat="49.67618" lon="5.70036">
        <ele>344.1</ele>
        <time>2020-06-25T19:21:21Z</time>
      </trkpt>
      <trkpt lat="49.67623" lon="5.70043">
        <ele>344.1</ele>
        <time>2020-06-25T19:21:22Z</time>
      </trkpt>
      <trkpt lat="49.67628" lon="5.7005">
        <ele>344.1</ele>
        <time>2020-06-25T19:21:23Z</time>
      </trkpt>
      <trkpt lat="49.67633" lon="5.70057">
        <ele>344.1</ele>
        <time>2020-06-25T19:21:24Z</time>
      </trkpt>
      <trkpt lat="49.67636" lon="5.70064">
        <ele>344.1</ele>
        <time>2020-06-25T19:21:25Z</time>
      </trkpt>
      <trkpt lat="49.6764" lon="5.70071">
        <ele>344.1</ele>
        <time>2020-06-25T19:21:26Z</time>
      </trkpt>
      <trkpt lat="49.67643" lon="5.70078">
        <ele>344.2</ele>
        <time>2020-06-25T19:21:27Z</time>
      </trkpt>
      <trkpt lat="49.67648" lon="5.70085">
        <ele>344.2</ele>
        <time>2020-06-25T19:21:28Z</time>
      </trkpt>
      <trkpt lat="49.67652" lon="5.70092">
        <ele>344.3</ele>
        <time>2020-06-25T19:21:29Z</time>
      </trkpt>
      <trkpt lat="49.67656" lon="5.70099">
        <ele>344.3</ele>
        <time>2020-06-25T19:21:30Z</time>
      </trkpt>
      <trkpt lat="49.67661" lon="5.70107">
        <ele>344.4</ele>
        <time>2020-06-25T19:21:31Z</time>
      </trkpt>
      <trkpt lat="49.67666" lon="5.70115">
        <ele>344.4</ele>
        <time>2020-06-25T19:21:32Z</time>
      </trkpt>
      <trkpt lat="49.67669" lon="5.70123">
        <ele>344.5</ele>
        <time>2020-06-25T19:21:33Z</time>
      </trkpt>
      <trkpt lat="49.67674" lon="5.70132">
        <ele>344.5</ele>
        <time>2020-06-25T19:21:34Z</time>
      </trkpt>
      <trkpt lat="49.67678" lon="5.70139">
        <ele>344.5</ele>
        <time>2020-06-25T19:21:35Z</time>
      </trkpt>
      <trkpt lat="49.67681" lon="5.70147">
        <ele>344.5</ele>
        <time>2020-06-25T19:21:36Z</time>
      </trkpt>
      <trkpt lat="49.67685" lon="5.70154">
        <ele>344.5</ele>
        <time>2020-06-25T19:21:37Z</time>
      </trkpt>
      <trkpt lat="49.67689" lon="5.70162">
        <ele>344.5</ele>
        <time>2020-06-25T19:21:38Z</time>
      </trkpt>
      <trkpt lat="49.67692" lon="5.70169">
        <ele>344.5</ele>
        <time>2020-06-25T19:21:39Z</time>
      </trkpt>
      <trkpt lat="49.67695" lon="5.70176">
        <ele>344.6</ele>
        <time>2020-06-25T19:21:40Z</time>
      </trkpt>
      <trkpt lat="49.677" lon="5.70183">
        <ele>344.6</ele>
        <time>2020-06-25T19:21:41Z</time>
      </trkpt>
      <trkpt lat="49.67703" lon="5.7019">
        <ele>344.7</ele>
        <time>2020-06-25T19:21:42Z</time>
      </trkpt>
      <trkpt lat="49.67708" lon="5.70197">
        <ele>344.7</ele>
        <time>2020-06-25T19:21:43Z</time>
      </trkpt>
      <trkpt lat="49.67712" lon="5.70205">
        <ele>344.7</ele>
        <time>2020-06-25T19:21:44Z</time>
      </trkpt>
      <trkpt lat="49.67716" lon="5.70212">
        <ele>344.7</ele>
        <time>2020-06-25T19:21:45Z</time>
      </trkpt>
      <trkpt lat="49.67719" lon="5.70218">
        <ele>344.7</ele>
        <time>2020-06-25T19:21:46Z</time>
      </trkpt>
      <trkpt lat="49.67723" lon="5.70226">
        <ele>344.7</ele>
        <time>2020-06-25T19:21:47Z</time>
      </trkpt>
      <trkpt lat="49.67728" lon="5.70235">
        <ele>344.6</ele>
        <time>2020-06-25T19:21:48Z</time>
      </trkpt>
      <trkpt lat="49.67731" lon="5.70241">
        <ele>344.6</ele>
        <time>2020-06-25T19:21:49Z</time>
      </trkpt>
      <trkpt lat="49.67735" lon="5.70248">
        <ele>344.6</ele>
        <time>2020-06-25T19:21:50Z</time>
      </trkpt>
      <trkpt lat="49.67738" lon="5.70256">
        <ele>344.6</ele>
        <time>2020-06-25T19:21:51Z</time>
      </trkpt>
      <trkpt lat="49.67742" lon="5.70262">
        <ele>344.6</ele>
        <time>2020-06-25T19:21:52Z</time>
      </trkpt>
      <trkpt lat="49.67746" lon="5.70269">
        <ele>344.7</ele>
        <time>2020-06-25T19:21:53Z</time>
      </trkpt>
      <trkpt lat="49.6775" lon="5.70277">
        <ele>344.7</ele>
        <time>2020-06-25T19:21:54Z</time>
      </trkpt>
      <trkpt lat="49.67753" lon="5.70282">
        <ele>344.7</ele>
        <time>2020-06-25T19:21:55Z</time>
      </trkpt>
      <trkpt lat="49.67757" lon="5.70289">
        <ele>344.8</ele>
        <time>2020-06-25T19:21:56Z</time>
      </trkpt>
      <trkpt lat="49.6776" lon="5.70294">
        <ele>344.8</ele>
        <time>2020-06-25T19:21:57Z</time>
      </trkpt>
      <trkpt lat="49.67762" lon="5.70299">
        <ele>344.9</ele>
        <time>2020-06-25T19:21:58Z</time>
      </trkpt>
      <trkpt lat="49.67764" lon="5.70305">
        <ele>344.9</ele>
        <time>2020-06-25T19:21:59Z</time>
      </trkpt>
      <trkpt lat="49.67764" lon="5.70308">
        <ele>344.9</ele>
        <time>2020-06-25T19:22:00Z</time>
      </trkpt>
      <trkpt lat="49.67765" lon="5.70312">
        <ele>345</ele>
        <time>2020-06-25T19:22:01Z</time>
      </trkpt>
      <trkpt lat="49.67767" lon="5.70316">
        <ele>344.9</ele>
        <time>2020-06-25T19:22:02Z</time>
      </trkpt>
      <trkpt lat="49.67767" lon="5.70317">
        <ele>344.9</ele>
        <time>2020-06-25T19:22:03Z</time>
      </trkpt>
      <trkpt lat="49.6777" lon="5.70322">
        <ele>344.9</ele>
        <time>2020-06-25T19:22:04Z</time>
      </trkpt>
      <trkpt lat="49.67771" lon="5.70323">
        <ele>344.9</ele>
        <time>2020-06-25T19:22:05Z</time>
      </trkpt>
      <trkpt lat="49.67772" lon="5.70327">
        <ele>344.9</ele>
        <time>2020-06-25T19:22:06Z</time>
      </trkpt>
      <trkpt lat="49.67774" lon="5.70332">
        <ele>344.9</ele>
        <time>2020-06-25T19:22:07Z</time>
      </trkpt>
      <trkpt lat="49.67776" lon="5.70336">
        <ele>344.9</ele>
        <time>2020-06-25T19:22:08Z</time>
      </trkpt>
      <trkpt lat="49.67778" lon="5.7034">
        <ele>344.9</ele>
        <time>2020-06-25T19:22:09Z</time>
      </trkpt>
      <trkpt lat="49.6778" lon="5.70344">
        <ele>344.9</ele>
        <time>2020-06-25T19:22:10Z</time>
      </trkpt>
      <trkpt lat="49.67782" lon="5.70348">
        <ele>344.9</ele>
        <time>2020-06-25T19:22:11Z</time>
      </trkpt>
      <trkpt lat="49.67783" lon="5.70352">
        <ele>344.9</ele>
        <time>2020-06-25T19:22:12Z</time>
      </trkpt>
      <trkpt lat="49.67785" lon="5.70356">
        <ele>344.9</ele>
        <time>2020-06-25T19:22:13Z</time>
      </trkpt>
      <trkpt lat="49.67787" lon="5.70362">
        <ele>344.9</ele>
        <time>2020-06-25T19:22:14Z</time>
      </trkpt>
      <trkpt lat="49.67788" lon="5.70364">
        <ele>344.9</ele>
        <time>2020-06-25T19:22:15Z</time>
      </trkpt>
      <trkpt lat="49.67791" lon="5.70369">
        <ele>344.9</ele>
        <time>2020-06-25T19:22:16Z</time>
      </trkpt>
      <trkpt lat="49.67793" lon="5.70375">
        <ele>344.9</ele>
        <time>2020-06-25T19:22:17Z</time>
      </trkpt>
      <trkpt lat="49.67795" lon="5.70379">
        <ele>345</ele>
        <time>2020-06-25T19:22:18Z</time>
      </trkpt>
      <trkpt lat="49.67797" lon="5.70384">
        <ele>345</ele>
        <time>2020-06-25T19:22:19Z</time>
      </trkpt>
      <trkpt lat="49.678" lon="5.70389">
        <ele>345</ele>
        <time>2020-06-25T19:22:20Z</time>
      </trkpt>
      <trkpt lat="49.67802" lon="5.70394">
        <ele>345</ele>
        <time>2020-06-25T19:22:21Z</time>
      </trkpt>
      <trkpt lat="49.67805" lon="5.70397">
        <ele>345.1</ele>
        <time>2020-06-25T19:22:22Z</time>
      </trkpt>
      <trkpt lat="49.67807" lon="5.70401">
        <ele>345.1</ele>
        <time>2020-06-25T19:22:23Z</time>
      </trkpt>
      <trkpt lat="49.6781" lon="5.70408">
        <ele>345.2</ele>
        <time>2020-06-25T19:22:24Z</time>
      </trkpt>
      <trkpt lat="49.67813" lon="5.70414">
        <ele>345.2</ele>
        <time>2020-06-25T19:22:25Z</time>
      </trkpt>
      <trkpt lat="49.67815" lon="5.7042">
        <ele>345.2</ele>
        <time>2020-06-25T19:22:26Z</time>
      </trkpt>
      <trkpt lat="49.67816" lon="5.70426">
        <ele>345.3</ele>
        <time>2020-06-25T19:22:27Z</time>
      </trkpt>
      <trkpt lat="49.67819" lon="5.70432">
        <ele>345.3</ele>
        <time>2020-06-25T19:22:28Z</time>
      </trkpt>
      <trkpt lat="49.67822" lon="5.70437">
        <ele>345.3</ele>
        <time>2020-06-25T19:22:29Z</time>
      </trkpt>
      <trkpt lat="49.67825" lon="5.70443">
        <ele>345.4</ele>
        <time>2020-06-25T19:22:30Z</time>
      </trkpt>
      <trkpt lat="49.67828" lon="5.70448">
        <ele>345.4</ele>
        <time>2020-06-25T19:22:31Z</time>
      </trkpt>
      <trkpt lat="49.67831" lon="5.70454">
        <ele>345.4</ele>
        <time>2020-06-25T19:22:32Z</time>
      </trkpt>
      <trkpt lat="49.67834" lon="5.70459">
        <ele>345.4</ele>
        <time>2020-06-25T19:22:33Z</time>
      </trkpt>
      <trkpt lat="49.67837" lon="5.70462">
        <ele>345.4</ele>
        <time>2020-06-25T19:22:34Z</time>
      </trkpt>
      <trkpt lat="49.6784" lon="5.70469">
        <ele>345.4</ele>
        <time>2020-06-25T19:22:35Z</time>
      </trkpt>
      <trkpt lat="49.67842" lon="5.70472">
        <ele>345.4</ele>
        <time>2020-06-25T19:22:36Z</time>
      </trkpt>
      <trkpt lat="49.67845" lon="5.70478">
        <ele>345.5</ele>
        <time>2020-06-25T19:22:37Z</time>
      </trkpt>
      <trkpt lat="49.67849" lon="5.70484">
        <ele>345.5</ele>
        <time>2020-06-25T19:22:38Z</time>
      </trkpt>
      <trkpt lat="49.67852" lon="5.70489">
        <ele>345.5</ele>
        <time>2020-06-25T19:22:39Z</time>
      </trkpt>
      <trkpt lat="49.67856" lon="5.70495">
        <ele>345.5</ele>
        <time>2020-06-25T19:22:40Z</time>
      </trkpt>
      <trkpt lat="49.6786" lon="5.70501">
        <ele>345.5</ele>
        <time>2020-06-25T19:22:41Z</time>
      </trkpt>
      <trkpt lat="49.67864" lon="5.70507">
        <ele>345.6</ele>
        <time>2020-06-25T19:22:42Z</time>
      </trkpt>
      <trkpt lat="49.67869" lon="5.70513">
        <ele>345.6</ele>
        <time>2020-06-25T19:22:43Z</time>
      </trkpt>
      <trkpt lat="49.67871" lon="5.70518">
        <ele>345.6</ele>
        <time>2020-06-25T19:22:44Z</time>
      </trkpt>
      <trkpt lat="49.67875" lon="5.70524">
        <ele>345.6</ele>
        <time>2020-06-25T19:22:45Z</time>
      </trkpt>
      <trkpt lat="49.67879" lon="5.7053">
        <ele>345.6</ele>
        <time>2020-06-25T19:22:46Z</time>
      </trkpt>
      <trkpt lat="49.67884" lon="5.70536">
        <ele>345.6</ele>
        <time>2020-06-25T19:22:47Z</time>
      </trkpt>
      <trkpt lat="49.67887" lon="5.70541">
        <ele>345.6</ele>
        <time>2020-06-25T19:22:48Z</time>
      </trkpt>
      <trkpt lat="49.67892" lon="5.70549">
        <ele>345.6</ele>
        <time>2020-06-25T19:22:49Z</time>
      </trkpt>
      <trkpt lat="49.67896" lon="5.70555">
        <ele>345.6</ele>
        <time>2020-06-25T19:22:50Z</time>
      </trkpt>
      <trkpt lat="49.67901" lon="5.70561">
        <ele>345.5</ele>
        <time>2020-06-25T19:22:51Z</time>
      </trkpt>
      <trkpt lat="49.67905" lon="5.70566">
        <ele>345.4</ele>
        <time>2020-06-25T19:22:52Z</time>
      </trkpt>
      <trkpt lat="49.67909" lon="5.70572">
        <ele>345.4</ele>
        <time>2020-06-25T19:22:53Z</time>
      </trkpt>
      <trkpt lat="49.67913" lon="5.70577">
        <ele>345.3</ele>
        <time>2020-06-25T19:22:54Z</time>
      </trkpt>
      <trkpt lat="49.67916" lon="5.70583">
        <ele>345.3</ele>
        <time>2020-06-25T19:22:55Z</time>
      </trkpt>
      <trkpt lat="49.67921" lon="5.70589">
        <ele>345.2</ele>
        <time>2020-06-25T19:22:56Z</time>
      </trkpt>
      <trkpt lat="49.67925" lon="5.70595">
        <ele>345.2</ele>
        <time>2020-06-25T19:22:57Z</time>
      </trkpt>
      <trkpt lat="49.6793" lon="5.70601">
        <ele>345.2</ele>
        <time>2020-06-25T19:22:58Z</time>
      </trkpt>
      <trkpt lat="49.67935" lon="5.70608">
        <ele>345.3</ele>
        <time>2020-06-25T19:22:59Z</time>
      </trkpt>
      <trkpt lat="49.6794" lon="5.70613">
        <ele>345.3</ele>
        <time>2020-06-25T19:23:00Z</time>
      </trkpt>
      <trkpt lat="49.67945" lon="5.7062">
        <ele>345.4</ele>
        <time>2020-06-25T19:23:01Z</time>
      </trkpt>
      <trkpt lat="49.67949" lon="5.70627">
        <ele>345.4</ele>
        <time>2020-06-25T19:23:02Z</time>
      </trkpt>
      <trkpt lat="49.67952" lon="5.70633">
        <ele>345.5</ele>
        <time>2020-06-25T19:23:03Z</time>
      </trkpt>
      <trkpt lat="49.67956" lon="5.7064">
        <ele>345.5</ele>
        <time>2020-06-25T19:23:04Z</time>
      </trkpt>
      <trkpt lat="49.67961" lon="5.70647">
        <ele>345.4</ele>
        <time>2020-06-25T19:23:05Z</time>
      </trkpt>
      <trkpt lat="49.67966" lon="5.70653">
        <ele>345.4</ele>
        <time>2020-06-25T19:23:06Z</time>
      </trkpt>
      <trkpt lat="49.6797" lon="5.70659">
        <ele>345.4</ele>
        <time>2020-06-25T19:23:07Z</time>
      </trkpt>
      <trkpt lat="49.67975" lon="5.70665">
        <ele>345.5</ele>
        <time>2020-06-25T19:23:08Z</time>
      </trkpt>
      <trkpt lat="49.67979" lon="5.70671">
        <ele>345.6</ele>
        <time>2020-06-25T19:23:09Z</time>
      </trkpt>
      <trkpt lat="49.67983" lon="5.70677">
        <ele>345.7</ele>
        <time>2020-06-25T19:23:10Z</time>
      </trkpt>
      <trkpt lat="49.67987" lon="5.70682">
        <ele>345.7</ele>
        <time>2020-06-25T19:23:11Z</time>
      </trkpt>
      <trkpt lat="49.6799" lon="5.70686">
        <ele>345.7</ele>
        <time>2020-06-25T19:23:12Z</time>
      </trkpt>
      <trkpt lat="49.67995" lon="5.70692">
        <ele>345.7</ele>
        <time>2020-06-25T19:23:13Z</time>
      </trkpt>
      <trkpt lat="49.68" lon="5.70698">
        <ele>345.7</ele>
        <time>2020-06-25T19:23:14Z</time>
      </trkpt>
      <trkpt lat="49.68004" lon="5.70703">
        <ele>345.7</ele>
        <time>2020-06-25T19:23:15Z</time>
      </trkpt>
      <trkpt lat="49.68008" lon="5.70708">
        <ele>345.7</ele>
        <time>2020-06-25T19:23:16Z</time>
      </trkpt>
      <trkpt lat="49.68012" lon="5.70713">
        <ele>345.7</ele>
        <time>2020-06-25T19:23:17Z</time>
      </trkpt>
      <trkpt lat="49.68016" lon="5.70718">
        <ele>345.8</ele>
        <time>2020-06-25T19:23:18Z</time>
      </trkpt>
      <trkpt lat="49.68021" lon="5.70725">
        <ele>346</ele>
        <time>2020-06-25T19:23:19Z</time>
      </trkpt>
      <trkpt lat="49.68026" lon="5.7073">
        <ele>346.1</ele>
        <time>2020-06-25T19:23:20Z</time>
      </trkpt>
      <trkpt lat="49.68031" lon="5.70736">
        <ele>346.1</ele>
        <time>2020-06-25T19:23:21Z</time>
      </trkpt>
      <trkpt lat="49.68036" lon="5.70741">
        <ele>346.2</ele>
        <time>2020-06-25T19:23:22Z</time>
      </trkpt>
      <trkpt lat="49.68041" lon="5.70749">
        <ele>346.2</ele>
        <time>2020-06-25T19:23:23Z</time>
      </trkpt>
      <trkpt lat="49.68046" lon="5.70756">
        <ele>346.2</ele>
        <time>2020-06-25T19:23:24Z</time>
      </trkpt>
      <trkpt lat="49.6805" lon="5.70762">
        <ele>346.2</ele>
        <time>2020-06-25T19:23:25Z</time>
      </trkpt>
      <trkpt lat="49.68055" lon="5.70768">
        <ele>346.3</ele>
        <time>2020-06-25T19:23:26Z</time>
      </trkpt>
      <trkpt lat="49.68059" lon="5.70774">
        <ele>346.4</ele>
        <time>2020-06-25T19:23:27Z</time>
      </trkpt>
      <trkpt lat="49.68063" lon="5.70782">
        <ele>346.5</ele>
        <time>2020-06-25T19:23:28Z</time>
      </trkpt>
      <trkpt lat="49.68068" lon="5.70788">
        <ele>346.6</ele>
        <time>2020-06-25T19:23:29Z</time>
      </trkpt>
      <trkpt lat="49.68071" lon="5.70793">
        <ele>346.6</ele>
        <time>2020-06-25T19:23:30Z</time>
      </trkpt>
      <trkpt lat="49.68075" lon="5.70799">
        <ele>346.6</ele>
        <time>2020-06-25T19:23:31Z</time>
      </trkpt>
      <trkpt lat="49.68078" lon="5.70805">
        <ele>346.6</ele>
        <time>2020-06-25T19:23:32Z</time>
      </trkpt>
      <trkpt lat="49.68082" lon="5.7081">
        <ele>346.6</ele>
        <time>2020-06-25T19:23:33Z</time>
      </trkpt>
      <trkpt lat="49.68084" lon="5.70816">
        <ele>346.6</ele>
        <time>2020-06-25T19:23:34Z</time>
      </trkpt>
      <trkpt lat="49.68088" lon="5.70821">
        <ele>346.6</ele>
        <time>2020-06-25T19:23:35Z</time>
      </trkpt>
      <trkpt lat="49.68091" lon="5.70826">
        <ele>346.7</ele>
        <time>2020-06-25T19:23:36Z</time>
      </trkpt>
      <trkpt lat="49.68095" lon="5.70833">
        <ele>346.8</ele>
        <time>2020-06-25T19:23:37Z</time>
      </trkpt>
      <trkpt lat="49.68099" lon="5.70839">
        <ele>346.9</ele>
        <time>2020-06-25T19:23:38Z</time>
      </trkpt>
      <trkpt lat="49.68102" lon="5.70845">
        <ele>347</ele>
        <time>2020-06-25T19:23:39Z</time>
      </trkpt>
      <trkpt lat="49.68105" lon="5.70852">
        <ele>347.1</ele>
        <time>2020-06-25T19:23:40Z</time>
      </trkpt>
      <trkpt lat="49.68108" lon="5.70859">
        <ele>347.1</ele>
        <time>2020-06-25T19:23:41Z</time>
      </trkpt>
      <trkpt lat="49.68112" lon="5.70865">
        <ele>347.1</ele>
        <time>2020-06-25T19:23:42Z</time>
      </trkpt>
      <trkpt lat="49.68116" lon="5.70873">
        <ele>347.1</ele>
        <time>2020-06-25T19:23:43Z</time>
      </trkpt>
      <trkpt lat="49.68119" lon="5.70881">
        <ele>347.2</ele>
        <time>2020-06-25T19:23:44Z</time>
      </trkpt>
      <trkpt lat="49.68122" lon="5.70888">
        <ele>347.3</ele>
        <time>2020-06-25T19:23:45Z</time>
      </trkpt>
      <trkpt lat="49.68125" lon="5.70894">
        <ele>347.4</ele>
        <time>2020-06-25T19:23:46Z</time>
      </trkpt>
      <trkpt lat="49.68128" lon="5.709">
        <ele>347.6</ele>
        <time>2020-06-25T19:23:47Z</time>
      </trkpt>
      <trkpt lat="49.68132" lon="5.70908">
        <ele>347.7</ele>
        <time>2020-06-25T19:23:48Z</time>
      </trkpt>
      <trkpt lat="49.68135" lon="5.70915">
        <ele>347.8</ele>
        <time>2020-06-25T19:23:49Z</time>
      </trkpt>
      <trkpt lat="49.68138" lon="5.70923">
        <ele>347.8</ele>
        <time>2020-06-25T19:23:50Z</time>
      </trkpt>
      <trkpt lat="49.68142" lon="5.7093">
        <ele>347.9</ele>
        <time>2020-06-25T19:23:51Z</time>
      </trkpt>
      <trkpt lat="49.68145" lon="5.70936">
        <ele>348.1</ele>
        <time>2020-06-25T19:23:52Z</time>
      </trkpt>
      <trkpt lat="49.68147" lon="5.70942">
        <ele>348.2</ele>
        <time>2020-06-25T19:23:53Z</time>
      </trkpt>
      <trkpt lat="49.68149" lon="5.70948">
        <ele>348.3</ele>
        <time>2020-06-25T19:23:54Z</time>
      </trkpt>
      <trkpt lat="49.68152" lon="5.70954">
        <ele>348.4</ele>
        <time>2020-06-25T19:23:55Z</time>
      </trkpt>
      <trkpt lat="49.68155" lon="5.7096">
        <ele>348.5</ele>
        <time>2020-06-25T19:23:56Z</time>
      </trkpt>
      <trkpt lat="49.68158" lon="5.70967">
        <ele>348.6</ele>
        <time>2020-06-25T19:23:57Z</time>
      </trkpt>
      <trkpt lat="49.68161" lon="5.70973">
        <ele>348.6</ele>
        <time>2020-06-25T19:23:58Z</time>
      </trkpt>
      <trkpt lat="49.68163" lon="5.7098">
        <ele>348.7</ele>
        <time>2020-06-25T19:23:59Z</time>
      </trkpt>
      <trkpt lat="49.68165" lon="5.70986">
        <ele>348.7</ele>
        <time>2020-06-25T19:24:00Z</time>
      </trkpt>
      <trkpt lat="49.68168" lon="5.70993">
        <ele>348.7</ele>
        <time>2020-06-25T19:24:01Z</time>
      </trkpt>
      <trkpt lat="49.68169" lon="5.71001">
        <ele>348.7</ele>
        <time>2020-06-25T19:24:02Z</time>
      </trkpt>
      <trkpt lat="49.68172" lon="5.71007">
        <ele>348.7</ele>
        <time>2020-06-25T19:24:03Z</time>
      </trkpt>
      <trkpt lat="49.68174" lon="5.71013">
        <ele>348.8</ele>
        <time>2020-06-25T19:24:04Z</time>
      </trkpt>
      <trkpt lat="49.68176" lon="5.71019">
        <ele>348.9</ele>
        <time>2020-06-25T19:24:05Z</time>
      </trkpt>
      <trkpt lat="49.68178" lon="5.71026">
        <ele>349.1</ele>
        <time>2020-06-25T19:24:06Z</time>
      </trkpt>
      <trkpt lat="49.68179" lon="5.71032">
        <ele>349.2</ele>
        <time>2020-06-25T19:24:07Z</time>
      </trkpt>
      <trkpt lat="49.68181" lon="5.71038">
        <ele>349.3</ele>
        <time>2020-06-25T19:24:08Z</time>
      </trkpt>
      <trkpt lat="49.68184" lon="5.71044">
        <ele>349.4</ele>
        <time>2020-06-25T19:24:09Z</time>
      </trkpt>
      <trkpt lat="49.68186" lon="5.71049">
        <ele>349.5</ele>
        <time>2020-06-25T19:24:10Z</time>
      </trkpt>
      <trkpt lat="49.68187" lon="5.71055">
        <ele>349.6</ele>
        <time>2020-06-25T19:24:11Z</time>
      </trkpt>
      <trkpt lat="49.68189" lon="5.71061">
        <ele>349.7</ele>
        <time>2020-06-25T19:24:12Z</time>
      </trkpt>
      <trkpt lat="49.68191" lon="5.71065">
        <ele>349.8</ele>
        <time>2020-06-25T19:24:13Z</time>
      </trkpt>
      <trkpt lat="49.68192" lon="5.71071">
        <ele>350</ele>
        <time>2020-06-25T19:24:14Z</time>
      </trkpt>
      <trkpt lat="49.68194" lon="5.71078">
        <ele>350.1</ele>
        <time>2020-06-25T19:24:15Z</time>
      </trkpt>
      <trkpt lat="49.68197" lon="5.71084">
        <ele>350.2</ele>
        <time>2020-06-25T19:24:16Z</time>
      </trkpt>
      <trkpt lat="49.68199" lon="5.71089">
        <ele>350.3</ele>
        <time>2020-06-25T19:24:17Z</time>
      </trkpt>
      <trkpt lat="49.68202" lon="5.71095">
        <ele>350.4</ele>
        <time>2020-06-25T19:24:18Z</time>
      </trkpt>
      <trkpt lat="49.68204" lon="5.71101">
        <ele>350.5</ele>
        <time>2020-06-25T19:24:19Z</time>
      </trkpt>
      <trkpt lat="49.68206" lon="5.71107">
        <ele>350.6</ele>
        <time>2020-06-25T19:24:20Z</time>
      </trkpt>
      <trkpt lat="49.68208" lon="5.71114">
        <ele>350.7</ele>
        <time>2020-06-25T19:24:21Z</time>
      </trkpt>
      <trkpt lat="49.68209" lon="5.71119">
        <ele>350.8</ele>
        <time>2020-06-25T19:24:22Z</time>
      </trkpt>
      <trkpt lat="49.68211" lon="5.71126">
        <ele>350.8</ele>
        <time>2020-06-25T19:24:23Z</time>
      </trkpt>
      <trkpt lat="49.68213" lon="5.71133">
        <ele>350.9</ele>
        <time>2020-06-25T19:24:24Z</time>
      </trkpt>
      <trkpt lat="49.68214" lon="5.71139">
        <ele>351</ele>
        <time>2020-06-25T19:24:25Z</time>
      </trkpt>
      <trkpt lat="49.68216" lon="5.71145">
        <ele>351.1</ele>
        <time>2020-06-25T19:24:26Z</time>
      </trkpt>
      <trkpt lat="49.68218" lon="5.7115">
        <ele>351.2</ele>
        <time>2020-06-25T19:24:27Z</time>
      </trkpt>
      <trkpt lat="49.68219" lon="5.71156">
        <ele>351.4</ele>
        <time>2020-06-25T19:24:28Z</time>
      </trkpt>
      <trkpt lat="49.68221" lon="5.71162">
        <ele>351.5</ele>
        <time>2020-06-25T19:24:29Z</time>
      </trkpt>
      <trkpt lat="49.68222" lon="5.71168">
        <ele>351.6</ele>
        <time>2020-06-25T19:24:30Z</time>
      </trkpt>
      <trkpt lat="49.68224" lon="5.71174">
        <ele>351.8</ele>
        <time>2020-06-25T19:24:31Z</time>
      </trkpt>
      <trkpt lat="49.68226" lon="5.71181">
        <ele>351.9</ele>
        <time>2020-06-25T19:24:32Z</time>
      </trkpt>
      <trkpt lat="49.6823" lon="5.71186">
        <ele>352.1</ele>
        <time>2020-06-25T19:24:33Z</time>
      </trkpt>
      <trkpt lat="49.68232" lon="5.71193">
        <ele>352.2</ele>
        <time>2020-06-25T19:24:34Z</time>
      </trkpt>
      <trkpt lat="49.68233" lon="5.71198">
        <ele>352.4</ele>
        <time>2020-06-25T19:24:35Z</time>
      </trkpt>
      <trkpt lat="49.68235" lon="5.71204">
        <ele>352.5</ele>
        <time>2020-06-25T19:24:36Z</time>
      </trkpt>
      <trkpt lat="49.68236" lon="5.7121">
        <ele>352.6</ele>
        <time>2020-06-25T19:24:37Z</time>
      </trkpt>
      <trkpt lat="49.68238" lon="5.71216">
        <ele>352.8</ele>
        <time>2020-06-25T19:24:38Z</time>
      </trkpt>
      <trkpt lat="49.6824" lon="5.71222">
        <ele>352.9</ele>
        <time>2020-06-25T19:24:39Z</time>
      </trkpt>
      <trkpt lat="49.68242" lon="5.71227">
        <ele>353</ele>
        <time>2020-06-25T19:24:40Z</time>
      </trkpt>
      <trkpt lat="49.68244" lon="5.71232">
        <ele>353.1</ele>
        <time>2020-06-25T19:24:41Z</time>
      </trkpt>
      <trkpt lat="49.68246" lon="5.71237">
        <ele>353.2</ele>
        <time>2020-06-25T19:24:42Z</time>
      </trkpt>
      <trkpt lat="49.68248" lon="5.71242">
        <ele>353.3</ele>
        <time>2020-06-25T19:24:43Z</time>
      </trkpt>
      <trkpt lat="49.6825" lon="5.71248">
        <ele>353.4</ele>
        <time>2020-06-25T19:24:44Z</time>
      </trkpt>
      <trkpt lat="49.68252" lon="5.71254">
        <ele>353.6</ele>
        <time>2020-06-25T19:24:45Z</time>
      </trkpt>
      <trkpt lat="49.68254" lon="5.7126">
        <ele>353.7</ele>
        <time>2020-06-25T19:24:46Z</time>
      </trkpt>
      <trkpt lat="49.68256" lon="5.71265">
        <ele>353.8</ele>
        <time>2020-06-25T19:24:47Z</time>
      </trkpt>
      <trkpt lat="49.68258" lon="5.7127">
        <ele>354</ele>
        <time>2020-06-25T19:24:48Z</time>
      </trkpt>
      <trkpt lat="49.6826" lon="5.71277">
        <ele>354.1</ele>
        <time>2020-06-25T19:24:49Z</time>
      </trkpt>
      <trkpt lat="49.68262" lon="5.71283">
        <ele>354.3</ele>
        <time>2020-06-25T19:24:50Z</time>
      </trkpt>
      <trkpt lat="49.68264" lon="5.7129">
        <ele>354.5</ele>
        <time>2020-06-25T19:24:51Z</time>
      </trkpt>
      <trkpt lat="49.68267" lon="5.71296">
        <ele>354.6</ele>
        <time>2020-06-25T19:24:52Z</time>
      </trkpt>
      <trkpt lat="49.68269" lon="5.71302">
        <ele>354.8</ele>
        <time>2020-06-25T19:24:53Z</time>
      </trkpt>
      <trkpt lat="49.68272" lon="5.71307">
        <ele>354.9</ele>
        <time>2020-06-25T19:24:54Z</time>
      </trkpt>
      <trkpt lat="49.68274" lon="5.71314">
        <ele>355</ele>
        <time>2020-06-25T19:24:55Z</time>
      </trkpt>
      <trkpt lat="49.68276" lon="5.7132">
        <ele>355.2</ele>
        <time>2020-06-25T19:24:56Z</time>
      </trkpt>
      <trkpt lat="49.68279" lon="5.71325">
        <ele>355.2</ele>
        <time>2020-06-25T19:24:57Z</time>
      </trkpt>
      <trkpt lat="49.68281" lon="5.7133">
        <ele>355.3</ele>
        <time>2020-06-25T19:24:58Z</time>
      </trkpt>
      <trkpt lat="49.68284" lon="5.71334">
        <ele>355.4</ele>
        <time>2020-06-25T19:24:59Z</time>
      </trkpt>
      <trkpt lat="49.68287" lon="5.71339">
        <ele>355.5</ele>
        <time>2020-06-25T19:25:00Z</time>
      </trkpt>
      <trkpt lat="49.6829" lon="5.71344">
        <ele>355.6</ele>
        <time>2020-06-25T19:25:01Z</time>
      </trkpt>
      <trkpt lat="49.68292" lon="5.7135">
        <ele>355.7</ele>
        <time>2020-06-25T19:25:02Z</time>
      </trkpt>
      <trkpt lat="49.68294" lon="5.71356">
        <ele>355.8</ele>
        <time>2020-06-25T19:25:03Z</time>
      </trkpt>
      <trkpt lat="49.68297" lon="5.71361">
        <ele>355.9</ele>
        <time>2020-06-25T19:25:04Z</time>
      </trkpt>
      <trkpt lat="49.683" lon="5.71367">
        <ele>356</ele>
        <time>2020-06-25T19:25:05Z</time>
      </trkpt>
      <trkpt lat="49.68303" lon="5.71372">
        <ele>356</ele>
        <time>2020-06-25T19:25:06Z</time>
      </trkpt>
      <trkpt lat="49.68305" lon="5.71377">
        <ele>356.1</ele>
        <time>2020-06-25T19:25:07Z</time>
      </trkpt>
      <trkpt lat="49.68307" lon="5.71382">
        <ele>356.2</ele>
        <time>2020-06-25T19:25:08Z</time>
      </trkpt>
      <trkpt lat="49.68311" lon="5.71387">
        <ele>356.2</ele>
        <time>2020-06-25T19:25:09Z</time>
      </trkpt>
      <trkpt lat="49.68315" lon="5.71393">
        <ele>356.3</ele>
        <time>2020-06-25T19:25:10Z</time>
      </trkpt>
      <trkpt lat="49.68318" lon="5.71398">
        <ele>356.4</ele>
        <time>2020-06-25T19:25:11Z</time>
      </trkpt>
      <trkpt lat="49.68321" lon="5.71404">
        <ele>356.5</ele>
        <time>2020-06-25T19:25:12Z</time>
      </trkpt>
      <trkpt lat="49.68323" lon="5.71411">
        <ele>356.5</ele>
        <time>2020-06-25T19:25:13Z</time>
      </trkpt>
      <trkpt lat="49.68325" lon="5.71418">
        <ele>356.6</ele>
        <time>2020-06-25T19:25:14Z</time>
      </trkpt>
      <trkpt lat="49.68327" lon="5.71424">
        <ele>356.6</ele>
        <time>2020-06-25T19:25:15Z</time>
      </trkpt>
      <trkpt lat="49.68331" lon="5.7143">
        <ele>356.7</ele>
        <time>2020-06-25T19:25:16Z</time>
      </trkpt>
      <trkpt lat="49.68334" lon="5.71436">
        <ele>356.8</ele>
        <time>2020-06-25T19:25:17Z</time>
      </trkpt>
      <trkpt lat="49.68337" lon="5.71442">
        <ele>356.8</ele>
        <time>2020-06-25T19:25:18Z</time>
      </trkpt>
      <trkpt lat="49.68339" lon="5.71446">
        <ele>356.8</ele>
        <time>2020-06-25T19:25:19Z</time>
      </trkpt>
      <trkpt lat="49.68341" lon="5.71451">
        <ele>356.9</ele>
        <time>2020-06-25T19:25:20Z</time>
      </trkpt>
      <trkpt lat="49.68344" lon="5.71456">
        <ele>356.9</ele>
        <time>2020-06-25T19:25:21Z</time>
      </trkpt>
      <trkpt lat="49.68346" lon="5.71461">
        <ele>357</ele>
        <time>2020-06-25T19:25:22Z</time>
      </trkpt>
      <trkpt lat="49.68349" lon="5.71465">
        <ele>357</ele>
        <time>2020-06-25T19:25:23Z</time>
      </trkpt>
      <trkpt lat="49.68351" lon="5.7147">
        <ele>357</ele>
        <time>2020-06-25T19:25:24Z</time>
      </trkpt>
      <trkpt lat="49.68354" lon="5.71475">
        <ele>357.1</ele>
        <time>2020-06-25T19:25:25Z</time>
      </trkpt>
      <trkpt lat="49.68357" lon="5.71481">
        <ele>357.1</ele>
        <time>2020-06-25T19:25:26Z</time>
      </trkpt>
      <trkpt lat="49.68359" lon="5.71488">
        <ele>357.2</ele>
        <time>2020-06-25T19:25:27Z</time>
      </trkpt>
      <trkpt lat="49.68361" lon="5.71494">
        <ele>357.3</ele>
        <time>2020-06-25T19:25:28Z</time>
      </trkpt>
      <trkpt lat="49.68364" lon="5.715">
        <ele>357.3</ele>
        <time>2020-06-25T19:25:29Z</time>
      </trkpt>
      <trkpt lat="49.68366" lon="5.71505">
        <ele>357.4</ele>
        <time>2020-06-25T19:25:30Z</time>
      </trkpt>
      <trkpt lat="49.68368" lon="5.7151">
        <ele>357.5</ele>
        <time>2020-06-25T19:25:31Z</time>
      </trkpt>
      <trkpt lat="49.6837" lon="5.71515">
        <ele>357.5</ele>
        <time>2020-06-25T19:25:32Z</time>
      </trkpt>
      <trkpt lat="49.68373" lon="5.71521">
        <ele>357.6</ele>
        <time>2020-06-25T19:25:33Z</time>
      </trkpt>
      <trkpt lat="49.68376" lon="5.71527">
        <ele>357.7</ele>
        <time>2020-06-25T19:25:34Z</time>
      </trkpt>
      <trkpt lat="49.68379" lon="5.71533">
        <ele>357.8</ele>
        <time>2020-06-25T19:25:35Z</time>
      </trkpt>
      <trkpt lat="49.68382" lon="5.7154">
        <ele>357.9</ele>
        <time>2020-06-25T19:25:36Z</time>
      </trkpt>
      <trkpt lat="49.68385" lon="5.71545">
        <ele>358</ele>
        <time>2020-06-25T19:25:37Z</time>
      </trkpt>
      <trkpt lat="49.68387" lon="5.71551">
        <ele>358.1</ele>
        <time>2020-06-25T19:25:38Z</time>
      </trkpt>
      <trkpt lat="49.6839" lon="5.71556">
        <ele>358.2</ele>
        <time>2020-06-25T19:25:39Z</time>
      </trkpt>
      <trkpt lat="49.68392" lon="5.71561">
        <ele>358.3</ele>
        <time>2020-06-25T19:25:40Z</time>
      </trkpt>
      <trkpt lat="49.68395" lon="5.71566">
        <ele>358.4</ele>
        <time>2020-06-25T19:25:41Z</time>
      </trkpt>
      <trkpt lat="49.68398" lon="5.71573">
        <ele>358.6</ele>
        <time>2020-06-25T19:25:42Z</time>
      </trkpt>
      <trkpt lat="49.684" lon="5.7158">
        <ele>358.7</ele>
        <time>2020-06-25T19:25:43Z</time>
      </trkpt>
      <trkpt lat="49.68402" lon="5.71586">
        <ele>358.8</ele>
        <time>2020-06-25T19:25:44Z</time>
      </trkpt>
      <trkpt lat="49.68405" lon="5.71592">
        <ele>358.9</ele>
        <time>2020-06-25T19:25:45Z</time>
      </trkpt>
      <trkpt lat="49.68408" lon="5.71598">
        <ele>359</ele>
        <time>2020-06-25T19:25:46Z</time>
      </trkpt>
      <trkpt lat="49.6841" lon="5.71604">
        <ele>359.1</ele>
        <time>2020-06-25T19:25:47Z</time>
      </trkpt>
      <trkpt lat="49.68413" lon="5.7161">
        <ele>359.2</ele>
        <time>2020-06-25T19:25:48Z</time>
      </trkpt>
      <trkpt lat="49.68416" lon="5.71617">
        <ele>359.3</ele>
        <time>2020-06-25T19:25:49Z</time>
      </trkpt>
      <trkpt lat="49.68419" lon="5.71622">
        <ele>359.4</ele>
        <time>2020-06-25T19:25:50Z</time>
      </trkpt>
      <trkpt lat="49.68421" lon="5.71629">
        <ele>359.6</ele>
        <time>2020-06-25T19:25:51Z</time>
      </trkpt>
      <trkpt lat="49.68424" lon="5.71635">
        <ele>359.7</ele>
        <time>2020-06-25T19:25:52Z</time>
      </trkpt>
      <trkpt lat="49.68427" lon="5.7164">
        <ele>359.8</ele>
        <time>2020-06-25T19:25:53Z</time>
      </trkpt>
      <trkpt lat="49.6843" lon="5.71646">
        <ele>359.9</ele>
        <time>2020-06-25T19:25:54Z</time>
      </trkpt>
      <trkpt lat="49.68433" lon="5.71652">
        <ele>360.1</ele>
        <time>2020-06-25T19:25:55Z</time>
      </trkpt>
      <trkpt lat="49.68435" lon="5.71658">
        <ele>360.3</ele>
        <time>2020-06-25T19:25:56Z</time>
      </trkpt>
      <trkpt lat="49.68438" lon="5.71665">
        <ele>360.4</ele>
        <time>2020-06-25T19:25:57Z</time>
      </trkpt>
      <trkpt lat="49.68441" lon="5.71669">
        <ele>360.5</ele>
        <time>2020-06-25T19:25:58Z</time>
      </trkpt>
      <trkpt lat="49.68444" lon="5.71675">
        <ele>360.6</ele>
        <time>2020-06-25T19:25:59Z</time>
      </trkpt>
      <trkpt lat="49.68446" lon="5.71682">
        <ele>360.7</ele>
        <time>2020-06-25T19:26:00Z</time>
      </trkpt>
      <trkpt lat="49.68449" lon="5.71688">
        <ele>360.7</ele>
        <time>2020-06-25T19:26:01Z</time>
      </trkpt>
      <trkpt lat="49.68452" lon="5.71694">
        <ele>360.8</ele>
        <time>2020-06-25T19:26:02Z</time>
      </trkpt>
      <trkpt lat="49.68454" lon="5.71699">
        <ele>360.9</ele>
        <time>2020-06-25T19:26:03Z</time>
      </trkpt>
      <trkpt lat="49.68456" lon="5.71705">
        <ele>361</ele>
        <time>2020-06-25T19:26:04Z</time>
      </trkpt>
      <trkpt lat="49.68459" lon="5.71711">
        <ele>361.2</ele>
        <time>2020-06-25T19:26:05Z</time>
      </trkpt>
      <trkpt lat="49.68462" lon="5.71716">
        <ele>361.3</ele>
        <time>2020-06-25T19:26:06Z</time>
      </trkpt>
      <trkpt lat="49.68464" lon="5.71722">
        <ele>361.4</ele>
        <time>2020-06-25T19:26:07Z</time>
      </trkpt>
      <trkpt lat="49.68467" lon="5.71727">
        <ele>361.5</ele>
        <time>2020-06-25T19:26:08Z</time>
      </trkpt>
      <trkpt lat="49.68469" lon="5.71732">
        <ele>361.6</ele>
        <time>2020-06-25T19:26:09Z</time>
      </trkpt>
      <trkpt lat="49.68472" lon="5.71738">
        <ele>361.7</ele>
        <time>2020-06-25T19:26:10Z</time>
      </trkpt>
      <trkpt lat="49.68475" lon="5.71744">
        <ele>361.7</ele>
        <time>2020-06-25T19:26:11Z</time>
      </trkpt>
      <trkpt lat="49.68478" lon="5.71749">
        <ele>361.8</ele>
        <time>2020-06-25T19:26:12Z</time>
      </trkpt>
      <trkpt lat="49.6848" lon="5.71755">
        <ele>361.9</ele>
        <time>2020-06-25T19:26:13Z</time>
      </trkpt>
      <trkpt lat="49.68483" lon="5.71761">
        <ele>362</ele>
        <time>2020-06-25T19:26:14Z</time>
      </trkpt>
      <trkpt lat="49.68485" lon="5.71767">
        <ele>362.1</ele>
        <time>2020-06-25T19:26:15Z</time>
      </trkpt>
      <trkpt lat="49.68488" lon="5.71773">
        <ele>362.2</ele>
        <time>2020-06-25T19:26:16Z</time>
      </trkpt>
      <trkpt lat="49.68491" lon="5.71779">
        <ele>362.3</ele>
        <time>2020-06-25T19:26:17Z</time>
      </trkpt>
      <trkpt lat="49.68494" lon="5.71785">
        <ele>362.4</ele>
        <time>2020-06-25T19:26:18Z</time>
      </trkpt>
      <trkpt lat="49.68496" lon="5.71792">
        <ele>362.5</ele>
        <time>2020-06-25T19:26:19Z</time>
      </trkpt>
      <trkpt lat="49.68499" lon="5.71799">
        <ele>362.6</ele>
        <time>2020-06-25T19:26:20Z</time>
      </trkpt>
      <trkpt lat="49.68501" lon="5.71806">
        <ele>362.7</ele>
        <time>2020-06-25T19:26:21Z</time>
      </trkpt>
      <trkpt lat="49.68504" lon="5.71813">
        <ele>362.8</ele>
        <time>2020-06-25T19:26:22Z</time>
      </trkpt>
      <trkpt lat="49.68507" lon="5.7182">
        <ele>362.8</ele>
        <time>2020-06-25T19:26:23Z</time>
      </trkpt>
      <trkpt lat="49.6851" lon="5.71828">
        <ele>362.9</ele>
        <time>2020-06-25T19:26:24Z</time>
      </trkpt>
      <trkpt lat="49.68514" lon="5.71834">
        <ele>362.9</ele>
        <time>2020-06-25T19:26:25Z</time>
      </trkpt>
      <trkpt lat="49.68517" lon="5.71842">
        <ele>363.1</ele>
        <time>2020-06-25T19:26:26Z</time>
      </trkpt>
      <trkpt lat="49.6852" lon="5.71848">
        <ele>363.2</ele>
        <time>2020-06-25T19:26:27Z</time>
      </trkpt>
      <trkpt lat="49.68523" lon="5.71855">
        <ele>363.2</ele>
        <time>2020-06-25T19:26:28Z</time>
      </trkpt>
      <trkpt lat="49.68526" lon="5.71862">
        <ele>363.3</ele>
        <time>2020-06-25T19:26:29Z</time>
      </trkpt>
      <trkpt lat="49.68528" lon="5.71868">
        <ele>363.3</ele>
        <time>2020-06-25T19:26:30Z</time>
      </trkpt>
      <trkpt lat="49.6853" lon="5.71875">
        <ele>363.3</ele>
        <time>2020-06-25T19:26:31Z</time>
      </trkpt>
      <trkpt lat="49.68533" lon="5.71882">
        <ele>363.4</ele>
        <time>2020-06-25T19:26:32Z</time>
      </trkpt>
      <trkpt lat="49.68535" lon="5.7189">
        <ele>363.4</ele>
        <time>2020-06-25T19:26:33Z</time>
      </trkpt>
      <trkpt lat="49.68537" lon="5.71897">
        <ele>363.5</ele>
        <time>2020-06-25T19:26:34Z</time>
      </trkpt>
      <trkpt lat="49.6854" lon="5.71905">
        <ele>363.5</ele>
        <time>2020-06-25T19:26:35Z</time>
      </trkpt>
      <trkpt lat="49.68541" lon="5.71912">
        <ele>363.5</ele>
        <time>2020-06-25T19:26:36Z</time>
      </trkpt>
      <trkpt lat="49.68543" lon="5.7192">
        <ele>363.5</ele>
        <time>2020-06-25T19:26:37Z</time>
      </trkpt>
      <trkpt lat="49.68545" lon="5.71927">
        <ele>363.4</ele>
        <time>2020-06-25T19:26:38Z</time>
      </trkpt>
      <trkpt lat="49.68547" lon="5.71935">
        <ele>363.4</ele>
        <time>2020-06-25T19:26:39Z</time>
      </trkpt>
      <trkpt lat="49.68549" lon="5.71943">
        <ele>363.3</ele>
        <time>2020-06-25T19:26:40Z</time>
      </trkpt>
      <trkpt lat="49.68551" lon="5.71951">
        <ele>363.3</ele>
        <time>2020-06-25T19:26:41Z</time>
      </trkpt>
      <trkpt lat="49.68552" lon="5.71958">
        <ele>363.2</ele>
        <time>2020-06-25T19:26:42Z</time>
      </trkpt>
      <trkpt lat="49.68554" lon="5.71966">
        <ele>363.1</ele>
        <time>2020-06-25T19:26:43Z</time>
      </trkpt>
      <trkpt lat="49.68556" lon="5.71973">
        <ele>363.1</ele>
        <time>2020-06-25T19:26:44Z</time>
      </trkpt>
      <trkpt lat="49.68557" lon="5.7198">
        <ele>363</ele>
        <time>2020-06-25T19:26:45Z</time>
      </trkpt>
      <trkpt lat="49.68558" lon="5.71989">
        <ele>362.9</ele>
        <time>2020-06-25T19:26:46Z</time>
      </trkpt>
      <trkpt lat="49.6856" lon="5.71996">
        <ele>362.8</ele>
        <time>2020-06-25T19:26:47Z</time>
      </trkpt>
      <trkpt lat="49.68562" lon="5.72004">
        <ele>362.8</ele>
        <time>2020-06-25T19:26:48Z</time>
      </trkpt>
      <trkpt lat="49.68564" lon="5.72013">
        <ele>362.7</ele>
        <time>2020-06-25T19:26:49Z</time>
      </trkpt>
      <trkpt lat="49.68565" lon="5.72021">
        <ele>362.6</ele>
        <time>2020-06-25T19:26:50Z</time>
      </trkpt>
      <trkpt lat="49.68567" lon="5.72029">
        <ele>362.5</ele>
        <time>2020-06-25T19:26:51Z</time>
      </trkpt>
      <trkpt lat="49.68568" lon="5.72038">
        <ele>362.4</ele>
        <time>2020-06-25T19:26:52Z</time>
      </trkpt>
      <trkpt lat="49.6857" lon="5.72048">
        <ele>362.2</ele>
        <time>2020-06-25T19:26:53Z</time>
      </trkpt>
      <trkpt lat="49.68571" lon="5.72057">
        <ele>362.1</ele>
        <time>2020-06-25T19:26:54Z</time>
      </trkpt>
      <trkpt lat="49.68573" lon="5.72065">
        <ele>362</ele>
        <time>2020-06-25T19:26:55Z</time>
      </trkpt>
      <trkpt lat="49.68573" lon="5.72074">
        <ele>361.8</ele>
        <time>2020-06-25T19:26:56Z</time>
      </trkpt>
      <trkpt lat="49.68573" lon="5.72083">
        <ele>361.7</ele>
        <time>2020-06-25T19:26:57Z</time>
      </trkpt>
      <trkpt lat="49.68574" lon="5.72092">
        <ele>361.6</ele>
        <time>2020-06-25T19:26:58Z</time>
      </trkpt>
      <trkpt lat="49.68574" lon="5.721">
        <ele>361.5</ele>
        <time>2020-06-25T19:26:59Z</time>
      </trkpt>
      <trkpt lat="49.68575" lon="5.72109">
        <ele>361.3</ele>
        <time>2020-06-25T19:27:00Z</time>
      </trkpt>
      <trkpt lat="49.68576" lon="5.72119">
        <ele>361.2</ele>
        <time>2020-06-25T19:27:01Z</time>
      </trkpt>
      <trkpt lat="49.68577" lon="5.72128">
        <ele>361.1</ele>
        <time>2020-06-25T19:27:02Z</time>
      </trkpt>
      <trkpt lat="49.68577" lon="5.72137">
        <ele>361.1</ele>
        <time>2020-06-25T19:27:03Z</time>
      </trkpt>
      <trkpt lat="49.68577" lon="5.72146">
        <ele>361</ele>
        <time>2020-06-25T19:27:04Z</time>
      </trkpt>
      <trkpt lat="49.68578" lon="5.72156">
        <ele>360.9</ele>
        <time>2020-06-25T19:27:05Z</time>
      </trkpt>
      <trkpt lat="49.68578" lon="5.72168">
        <ele>360.6</ele>
        <time>2020-06-25T19:27:06Z</time>
      </trkpt>
      <trkpt lat="49.68578" lon="5.72178">
        <ele>360.4</ele>
        <time>2020-06-25T19:27:07Z</time>
      </trkpt>
      <trkpt lat="49.68577" lon="5.72188">
        <ele>360.1</ele>
        <time>2020-06-25T19:27:08Z</time>
      </trkpt>
      <trkpt lat="49.68577" lon="5.72198">
        <ele>360</ele>
        <time>2020-06-25T19:27:09Z</time>
      </trkpt>
      <trkpt lat="49.68577" lon="5.72206">
        <ele>359.8</ele>
        <time>2020-06-25T19:27:10Z</time>
      </trkpt>
      <trkpt lat="49.68578" lon="5.72214">
        <ele>359.7</ele>
        <time>2020-06-25T19:27:11Z</time>
      </trkpt>
      <trkpt lat="49.68578" lon="5.72223">
        <ele>359.5</ele>
        <time>2020-06-25T19:27:12Z</time>
      </trkpt>
      <trkpt lat="49.68579" lon="5.72233">
        <ele>359.4</ele>
        <time>2020-06-25T19:27:13Z</time>
      </trkpt>
      <trkpt lat="49.68579" lon="5.72244">
        <ele>359.2</ele>
        <time>2020-06-25T19:27:14Z</time>
      </trkpt>
      <trkpt lat="49.6858" lon="5.72254">
        <ele>359.1</ele>
        <time>2020-06-25T19:27:15Z</time>
      </trkpt>
      <trkpt lat="49.6858" lon="5.72264">
        <ele>358.9</ele>
        <time>2020-06-25T19:27:16Z</time>
      </trkpt>
      <trkpt lat="49.68581" lon="5.72274">
        <ele>358.7</ele>
        <time>2020-06-25T19:27:17Z</time>
      </trkpt>
      <trkpt lat="49.68581" lon="5.72286">
        <ele>358.5</ele>
        <time>2020-06-25T19:27:18Z</time>
      </trkpt>
      <trkpt lat="49.68581" lon="5.72297">
        <ele>358.3</ele>
        <time>2020-06-25T19:27:19Z</time>
      </trkpt>
      <trkpt lat="49.68581" lon="5.72309">
        <ele>358.1</ele>
        <time>2020-06-25T19:27:20Z</time>
      </trkpt>
      <trkpt lat="49.68582" lon="5.7232">
        <ele>358</ele>
        <time>2020-06-25T19:27:21Z</time>
      </trkpt>
      <trkpt lat="49.68582" lon="5.72331">
        <ele>357.9</ele>
        <time>2020-06-25T19:27:22Z</time>
      </trkpt>
      <trkpt lat="49.68582" lon="5.72342">
        <ele>357.8</ele>
        <time>2020-06-25T19:27:23Z</time>
      </trkpt>
      <trkpt lat="49.68583" lon="5.72353">
        <ele>357.7</ele>
        <time>2020-06-25T19:27:24Z</time>
      </trkpt>
      <trkpt lat="49.68583" lon="5.72365">
        <ele>357.6</ele>
        <time>2020-06-25T19:27:25Z</time>
      </trkpt>
      <trkpt lat="49.68584" lon="5.72376">
        <ele>357.6</ele>
        <time>2020-06-25T19:27:26Z</time>
      </trkpt>
      <trkpt lat="49.68584" lon="5.72386">
        <ele>357.6</ele>
        <time>2020-06-25T19:27:27Z</time>
      </trkpt>
      <trkpt lat="49.68584" lon="5.72396">
        <ele>357.7</ele>
        <time>2020-06-25T19:27:28Z</time>
      </trkpt>
      <trkpt lat="49.68585" lon="5.72406">
        <ele>357.6</ele>
        <time>2020-06-25T19:27:29Z</time>
      </trkpt>
      <trkpt lat="49.68585" lon="5.72416">
        <ele>357.6</ele>
        <time>2020-06-25T19:27:30Z</time>
      </trkpt>
      <trkpt lat="49.68585" lon="5.72425">
        <ele>357.6</ele>
        <time>2020-06-25T19:27:31Z</time>
      </trkpt>
      <trkpt lat="49.68585" lon="5.72434">
        <ele>357.6</ele>
        <time>2020-06-25T19:27:32Z</time>
      </trkpt>
      <trkpt lat="49.68585" lon="5.72443">
        <ele>357.6</ele>
        <time>2020-06-25T19:27:33Z</time>
      </trkpt>
      <trkpt lat="49.68584" lon="5.72452">
        <ele>357.6</ele>
        <time>2020-06-25T19:27:34Z</time>
      </trkpt>
      <trkpt lat="49.68584" lon="5.7246">
        <ele>357.7</ele>
        <time>2020-06-25T19:27:35Z</time>
      </trkpt>
      <trkpt lat="49.68585" lon="5.72469">
        <ele>357.8</ele>
        <time>2020-06-25T19:27:36Z</time>
      </trkpt>
      <trkpt lat="49.68585" lon="5.72478">
        <ele>357.8</ele>
        <time>2020-06-25T19:27:37Z</time>
      </trkpt>
      <trkpt lat="49.68586" lon="5.72486">
        <ele>357.9</ele>
        <time>2020-06-25T19:27:38Z</time>
      </trkpt>
      <trkpt lat="49.68586" lon="5.72495">
        <ele>358</ele>
        <time>2020-06-25T19:27:39Z</time>
      </trkpt>
      <trkpt lat="49.68586" lon="5.72504">
        <ele>358.1</ele>
        <time>2020-06-25T19:27:40Z</time>
      </trkpt>
      <trkpt lat="49.68586" lon="5.72513">
        <ele>358.2</ele>
        <time>2020-06-25T19:27:41Z</time>
      </trkpt>
      <trkpt lat="49.68587" lon="5.72522">
        <ele>358.3</ele>
        <time>2020-06-25T19:27:42Z</time>
      </trkpt>
      <trkpt lat="49.68587" lon="5.7253">
        <ele>358.3</ele>
        <time>2020-06-25T19:27:43Z</time>
      </trkpt>
      <trkpt lat="49.68587" lon="5.72539">
        <ele>358.4</ele>
        <time>2020-06-25T19:27:44Z</time>
      </trkpt>
      <trkpt lat="49.68586" lon="5.72548">
        <ele>358.5</ele>
        <time>2020-06-25T19:27:45Z</time>
      </trkpt>
      <trkpt lat="49.68586" lon="5.72556">
        <ele>358.6</ele>
        <time>2020-06-25T19:27:46Z</time>
      </trkpt>
      <trkpt lat="49.68586" lon="5.72564">
        <ele>358.8</ele>
        <time>2020-06-25T19:27:47Z</time>
      </trkpt>
      <trkpt lat="49.68586" lon="5.72572">
        <ele>359</ele>
        <time>2020-06-25T19:27:48Z</time>
      </trkpt>
      <trkpt lat="49.68586" lon="5.7258">
        <ele>359.1</ele>
        <time>2020-06-25T19:27:49Z</time>
      </trkpt>
      <trkpt lat="49.68587" lon="5.72588">
        <ele>359.3</ele>
        <time>2020-06-25T19:27:50Z</time>
      </trkpt>
      <trkpt lat="49.68587" lon="5.72597">
        <ele>359.5</ele>
        <time>2020-06-25T19:27:51Z</time>
      </trkpt>
      <trkpt lat="49.68588" lon="5.72605">
        <ele>359.6</ele>
        <time>2020-06-25T19:27:52Z</time>
      </trkpt>
      <trkpt lat="49.68589" lon="5.72613">
        <ele>359.7</ele>
        <time>2020-06-25T19:27:53Z</time>
      </trkpt>
      <trkpt lat="49.6859" lon="5.72621">
        <ele>359.8</ele>
        <time>2020-06-25T19:27:54Z</time>
      </trkpt>
      <trkpt lat="49.68589" lon="5.7263">
        <ele>360</ele>
        <time>2020-06-25T19:27:55Z</time>
      </trkpt>
      <trkpt lat="49.68589" lon="5.72638">
        <ele>360.1</ele>
        <time>2020-06-25T19:27:56Z</time>
      </trkpt>
      <trkpt lat="49.68589" lon="5.72646">
        <ele>360.2</ele>
        <time>2020-06-25T19:27:57Z</time>
      </trkpt>
      <trkpt lat="49.68587" lon="5.72654">
        <ele>360.3</ele>
        <time>2020-06-25T19:27:58Z</time>
      </trkpt>
      <trkpt lat="49.68588" lon="5.72662">
        <ele>360.5</ele>
        <time>2020-06-25T19:27:59Z</time>
      </trkpt>
      <trkpt lat="49.68587" lon="5.7267">
        <ele>360.6</ele>
        <time>2020-06-25T19:28:00Z</time>
      </trkpt>
      <trkpt lat="49.68586" lon="5.72677">
        <ele>360.6</ele>
        <time>2020-06-25T19:28:01Z</time>
      </trkpt>
      <trkpt lat="49.68586" lon="5.72685">
        <ele>360.7</ele>
        <time>2020-06-25T19:28:02Z</time>
      </trkpt>
      <trkpt lat="49.68586" lon="5.72693">
        <ele>360.8</ele>
        <time>2020-06-25T19:28:03Z</time>
      </trkpt>
      <trkpt lat="49.68586" lon="5.72701">
        <ele>361</ele>
        <time>2020-06-25T19:28:04Z</time>
      </trkpt>
      <trkpt lat="49.68586" lon="5.72708">
        <ele>361.1</ele>
        <time>2020-06-25T19:28:05Z</time>
      </trkpt>
      <trkpt lat="49.68587" lon="5.72716">
        <ele>361.3</ele>
        <time>2020-06-25T19:28:06Z</time>
      </trkpt>
      <trkpt lat="49.68587" lon="5.72724">
        <ele>361.4</ele>
        <time>2020-06-25T19:28:07Z</time>
      </trkpt>
      <trkpt lat="49.68588" lon="5.72731">
        <ele>361.5</ele>
        <time>2020-06-25T19:28:08Z</time>
      </trkpt>
      <trkpt lat="49.68589" lon="5.72739">
        <ele>361.7</ele>
        <time>2020-06-25T19:28:09Z</time>
      </trkpt>
      <trkpt lat="49.6859" lon="5.72747">
        <ele>361.7</ele>
        <time>2020-06-25T19:28:10Z</time>
      </trkpt>
      <trkpt lat="49.6859" lon="5.72755">
        <ele>361.8</ele>
        <time>2020-06-25T19:28:11Z</time>
      </trkpt>
      <trkpt lat="49.6859" lon="5.72762">
        <ele>361.9</ele>
        <time>2020-06-25T19:28:12Z</time>
      </trkpt>
      <trkpt lat="49.68591" lon="5.7277">
        <ele>361.9</ele>
        <time>2020-06-25T19:28:13Z</time>
      </trkpt>
      <trkpt lat="49.68591" lon="5.72778">
        <ele>362</ele>
        <time>2020-06-25T19:28:14Z</time>
      </trkpt>
      <trkpt lat="49.6859" lon="5.72786">
        <ele>362</ele>
        <time>2020-06-25T19:28:15Z</time>
      </trkpt>
      <trkpt lat="49.68589" lon="5.72794">
        <ele>362.1</ele>
        <time>2020-06-25T19:28:16Z</time>
      </trkpt>
      <trkpt lat="49.68589" lon="5.72803">
        <ele>362.2</ele>
        <time>2020-06-25T19:28:17Z</time>
      </trkpt>
      <trkpt lat="49.68589" lon="5.72811">
        <ele>362.3</ele>
        <time>2020-06-25T19:28:18Z</time>
      </trkpt>
      <trkpt lat="49.68589" lon="5.72818">
        <ele>362.3</ele>
        <time>2020-06-25T19:28:19Z</time>
      </trkpt>
      <trkpt lat="49.68589" lon="5.72827">
        <ele>362.4</ele>
        <time>2020-06-25T19:28:20Z</time>
      </trkpt>
      <trkpt lat="49.68589" lon="5.72835">
        <ele>362.5</ele>
        <time>2020-06-25T19:28:21Z</time>
      </trkpt>
      <trkpt lat="49.68589" lon="5.72843">
        <ele>362.5</ele>
        <time>2020-06-25T19:28:22Z</time>
      </trkpt>
      <trkpt lat="49.68589" lon="5.72852">
        <ele>362.5</ele>
        <time>2020-06-25T19:28:23Z</time>
      </trkpt>
      <trkpt lat="49.6859" lon="5.7286">
        <ele>362.5</ele>
        <time>2020-06-25T19:28:24Z</time>
      </trkpt>
      <trkpt lat="49.68591" lon="5.72868">
        <ele>362.5</ele>
        <time>2020-06-25T19:28:25Z</time>
      </trkpt>
      <trkpt lat="49.68592" lon="5.72876">
        <ele>362.5</ele>
        <time>2020-06-25T19:28:26Z</time>
      </trkpt>
      <trkpt lat="49.68593" lon="5.72883">
        <ele>362.5</ele>
        <time>2020-06-25T19:28:27Z</time>
      </trkpt>
      <trkpt lat="49.68593" lon="5.72891">
        <ele>362.4</ele>
        <time>2020-06-25T19:28:28Z</time>
      </trkpt>
      <trkpt lat="49.68594" lon="5.72898">
        <ele>362.4</ele>
        <time>2020-06-25T19:28:29Z</time>
      </trkpt>
      <trkpt lat="49.68594" lon="5.72906">
        <ele>362.4</ele>
        <time>2020-06-25T19:28:30Z</time>
      </trkpt>
      <trkpt lat="49.68594" lon="5.72913">
        <ele>362.3</ele>
        <time>2020-06-25T19:28:31Z</time>
      </trkpt>
      <trkpt lat="49.68593" lon="5.72921">
        <ele>362.3</ele>
        <time>2020-06-25T19:28:32Z</time>
      </trkpt>
      <trkpt lat="49.68593" lon="5.72928">
        <ele>362.2</ele>
        <time>2020-06-25T19:28:33Z</time>
      </trkpt>
      <trkpt lat="49.68593" lon="5.72936">
        <ele>362.1</ele>
        <time>2020-06-25T19:28:34Z</time>
      </trkpt>
      <trkpt lat="49.68594" lon="5.72943">
        <ele>362.1</ele>
        <time>2020-06-25T19:28:35Z</time>
      </trkpt>
      <trkpt lat="49.68594" lon="5.72951">
        <ele>362</ele>
        <time>2020-06-25T19:28:36Z</time>
      </trkpt>
      <trkpt lat="49.68595" lon="5.72958">
        <ele>361.9</ele>
        <time>2020-06-25T19:28:37Z</time>
      </trkpt>
      <trkpt lat="49.68595" lon="5.72965">
        <ele>361.9</ele>
        <time>2020-06-25T19:28:38Z</time>
      </trkpt>
      <trkpt lat="49.68596" lon="5.72972">
        <ele>361.8</ele>
        <time>2020-06-25T19:28:39Z</time>
      </trkpt>
      <trkpt lat="49.68596" lon="5.72979">
        <ele>361.7</ele>
        <time>2020-06-25T19:28:40Z</time>
      </trkpt>
      <trkpt lat="49.68596" lon="5.72985">
        <ele>361.7</ele>
        <time>2020-06-25T19:28:41Z</time>
      </trkpt>
      <trkpt lat="49.68596" lon="5.72991">
        <ele>361.6</ele>
        <time>2020-06-25T19:28:42Z</time>
      </trkpt>
      <trkpt lat="49.68596" lon="5.72997">
        <ele>361.6</ele>
        <time>2020-06-25T19:28:43Z</time>
      </trkpt>
      <trkpt lat="49.68597" lon="5.73004">
        <ele>361.5</ele>
        <time>2020-06-25T19:28:44Z</time>
      </trkpt>
      <trkpt lat="49.68597" lon="5.73011">
        <ele>361.4</ele>
        <time>2020-06-25T19:28:45Z</time>
      </trkpt>
      <trkpt lat="49.68599" lon="5.73017">
        <ele>361.4</ele>
        <time>2020-06-25T19:28:46Z</time>
      </trkpt>
      <trkpt lat="49.68599" lon="5.73024">
        <ele>361.3</ele>
        <time>2020-06-25T19:28:47Z</time>
      </trkpt>
      <trkpt lat="49.68599" lon="5.7303">
        <ele>361.2</ele>
        <time>2020-06-25T19:28:48Z</time>
      </trkpt>
      <trkpt lat="49.68598" lon="5.73038">
        <ele>361.1</ele>
        <time>2020-06-25T19:28:49Z</time>
      </trkpt>
      <trkpt lat="49.68598" lon="5.73045">
        <ele>360.9</ele>
        <time>2020-06-25T19:28:50Z</time>
      </trkpt>
      <trkpt lat="49.68598" lon="5.73053">
        <ele>360.8</ele>
        <time>2020-06-25T19:28:51Z</time>
      </trkpt>
      <trkpt lat="49.68599" lon="5.73061">
        <ele>360.6</ele>
        <time>2020-06-25T19:28:52Z</time>
      </trkpt>
      <trkpt lat="49.68599" lon="5.73069">
        <ele>360.5</ele>
        <time>2020-06-25T19:28:53Z</time>
      </trkpt>
      <trkpt lat="49.68598" lon="5.73078">
        <ele>360.3</ele>
        <time>2020-06-25T19:28:54Z</time>
      </trkpt>
      <trkpt lat="49.68598" lon="5.73086">
        <ele>360.1</ele>
        <time>2020-06-25T19:28:55Z</time>
      </trkpt>
      <trkpt lat="49.68598" lon="5.73095">
        <ele>360</ele>
        <time>2020-06-25T19:28:56Z</time>
      </trkpt>
      <trkpt lat="49.68597" lon="5.73104">
        <ele>359.9</ele>
        <time>2020-06-25T19:28:57Z</time>
      </trkpt>
      <trkpt lat="49.68597" lon="5.73113">
        <ele>359.7</ele>
        <time>2020-06-25T19:28:58Z</time>
      </trkpt>
      <trkpt lat="49.68597" lon="5.73123">
        <ele>359.6</ele>
        <time>2020-06-25T19:28:59Z</time>
      </trkpt>
      <trkpt lat="49.68597" lon="5.73133">
        <ele>359.4</ele>
        <time>2020-06-25T19:29:00Z</time>
      </trkpt>
      <trkpt lat="49.68597" lon="5.73141">
        <ele>359.3</ele>
        <time>2020-06-25T19:29:01Z</time>
      </trkpt>
      <trkpt lat="49.68597" lon="5.7315">
        <ele>359.2</ele>
        <time>2020-06-25T19:29:02Z</time>
      </trkpt>
      <trkpt lat="49.68598" lon="5.73159">
        <ele>359</ele>
        <time>2020-06-25T19:29:03Z</time>
      </trkpt>
      <trkpt lat="49.68597" lon="5.73168">
        <ele>358.9</ele>
        <time>2020-06-25T19:29:04Z</time>
      </trkpt>
      <trkpt lat="49.68598" lon="5.73177">
        <ele>358.7</ele>
        <time>2020-06-25T19:29:05Z</time>
      </trkpt>
      <trkpt lat="49.68599" lon="5.73186">
        <ele>358.6</ele>
        <time>2020-06-25T19:29:06Z</time>
      </trkpt>
      <trkpt lat="49.686" lon="5.73195">
        <ele>358.5</ele>
        <time>2020-06-25T19:29:07Z</time>
      </trkpt>
      <trkpt lat="49.686" lon="5.73204">
        <ele>358.5</ele>
        <time>2020-06-25T19:29:08Z</time>
      </trkpt>
      <trkpt lat="49.686" lon="5.73212">
        <ele>358.5</ele>
        <time>2020-06-25T19:29:09Z</time>
      </trkpt>
      <trkpt lat="49.68601" lon="5.73222">
        <ele>358.4</ele>
        <time>2020-06-25T19:29:10Z</time>
      </trkpt>
      <trkpt lat="49.68601" lon="5.73231">
        <ele>358.5</ele>
        <time>2020-06-25T19:29:11Z</time>
      </trkpt>
      <trkpt lat="49.68601" lon="5.7324">
        <ele>358.5</ele>
        <time>2020-06-25T19:29:12Z</time>
      </trkpt>
      <trkpt lat="49.68602" lon="5.73249">
        <ele>358.4</ele>
        <time>2020-06-25T19:29:13Z</time>
      </trkpt>
      <trkpt lat="49.68602" lon="5.73257">
        <ele>358.4</ele>
        <time>2020-06-25T19:29:14Z</time>
      </trkpt>
      <trkpt lat="49.68603" lon="5.73266">
        <ele>358.3</ele>
        <time>2020-06-25T19:29:15Z</time>
      </trkpt>
      <trkpt lat="49.68603" lon="5.73275">
        <ele>358.2</ele>
        <time>2020-06-25T19:29:16Z</time>
      </trkpt>
      <trkpt lat="49.68603" lon="5.73284">
        <ele>358.1</ele>
        <time>2020-06-25T19:29:17Z</time>
      </trkpt>
      <trkpt lat="49.68604" lon="5.73294">
        <ele>358</ele>
        <time>2020-06-25T19:29:18Z</time>
      </trkpt>
      <trkpt lat="49.68603" lon="5.73303">
        <ele>358</ele>
        <time>2020-06-25T19:29:19Z</time>
      </trkpt>
      <trkpt lat="49.68602" lon="5.73312">
        <ele>357.9</ele>
        <time>2020-06-25T19:29:20Z</time>
      </trkpt>
      <trkpt lat="49.68601" lon="5.73321">
        <ele>357.9</ele>
        <time>2020-06-25T19:29:21Z</time>
      </trkpt>
      <trkpt lat="49.686" lon="5.7333">
        <ele>357.9</ele>
        <time>2020-06-25T19:29:22Z</time>
      </trkpt>
      <trkpt lat="49.686" lon="5.73339">
        <ele>358</ele>
        <time>2020-06-25T19:29:23Z</time>
      </trkpt>
      <trkpt lat="49.686" lon="5.73348">
        <ele>358.1</ele>
        <time>2020-06-25T19:29:24Z</time>
      </trkpt>
      <trkpt lat="49.686" lon="5.73357">
        <ele>358.2</ele>
        <time>2020-06-25T19:29:25Z</time>
      </trkpt>
      <trkpt lat="49.686" lon="5.73366">
        <ele>358.3</ele>
        <time>2020-06-25T19:29:26Z</time>
      </trkpt>
      <trkpt lat="49.686" lon="5.73375">
        <ele>358.3</ele>
        <time>2020-06-25T19:29:27Z</time>
      </trkpt>
      <trkpt lat="49.68602" lon="5.73384">
        <ele>358.4</ele>
        <time>2020-06-25T19:29:28Z</time>
      </trkpt>
      <trkpt lat="49.68603" lon="5.73393">
        <ele>358.4</ele>
        <time>2020-06-25T19:29:29Z</time>
      </trkpt>
      <trkpt lat="49.68604" lon="5.73402">
        <ele>358.5</ele>
        <time>2020-06-25T19:29:30Z</time>
      </trkpt>
      <trkpt lat="49.68604" lon="5.73411">
        <ele>358.5</ele>
        <time>2020-06-25T19:29:31Z</time>
      </trkpt>
      <trkpt lat="49.68604" lon="5.7342">
        <ele>358.6</ele>
        <time>2020-06-25T19:29:32Z</time>
      </trkpt>
      <trkpt lat="49.68605" lon="5.73429">
        <ele>358.7</ele>
        <time>2020-06-25T19:29:33Z</time>
      </trkpt>
      <trkpt lat="49.68604" lon="5.73441">
        <ele>359</ele>
        <time>2020-06-25T19:29:34Z</time>
      </trkpt>
      <trkpt lat="49.68603" lon="5.73453">
        <ele>359.1</ele>
        <time>2020-06-25T19:29:35Z</time>
      </trkpt>
      <trkpt lat="49.68602" lon="5.73465">
        <ele>359.2</ele>
        <time>2020-06-25T19:29:36Z</time>
      </trkpt>
      <trkpt lat="49.68602" lon="5.73478">
        <ele>359.4</ele>
        <time>2020-06-25T19:29:37Z</time>
      </trkpt>
      <trkpt lat="49.68602" lon="5.7349">
        <ele>359.5</ele>
        <time>2020-06-25T19:29:38Z</time>
      </trkpt>
      <trkpt lat="49.68602" lon="5.73503">
        <ele>359.6</ele>
        <time>2020-06-25T19:29:39Z</time>
      </trkpt>
      <trkpt lat="49.68602" lon="5.73514">
        <ele>359.7</ele>
        <time>2020-06-25T19:29:40Z</time>
      </trkpt>
      <trkpt lat="49.68602" lon="5.73525">
        <ele>359.8</ele>
        <time>2020-06-25T19:29:41Z</time>
      </trkpt>
      <trkpt lat="49.68602" lon="5.73535">
        <ele>359.9</ele>
        <time>2020-06-25T19:29:42Z</time>
      </trkpt>
      <trkpt lat="49.68602" lon="5.73545">
        <ele>360</ele>
        <time>2020-06-25T19:29:43Z</time>
      </trkpt>
      <trkpt lat="49.68601" lon="5.73557">
        <ele>360.2</ele>
        <time>2020-06-25T19:29:44Z</time>
      </trkpt>
      <trkpt lat="49.686" lon="5.73567">
        <ele>360.2</ele>
        <time>2020-06-25T19:29:45Z</time>
      </trkpt>
      <trkpt lat="49.686" lon="5.73573">
        <ele>360.3</ele>
        <time>2020-06-25T19:29:46Z</time>
      </trkpt>
      <trkpt lat="49.68601" lon="5.73581">
        <ele>360.3</ele>
        <time>2020-06-25T19:29:47Z</time>
      </trkpt>
      <trkpt lat="49.68601" lon="5.7359">
        <ele>360.4</ele>
        <time>2020-06-25T19:29:48Z</time>
      </trkpt>
      <trkpt lat="49.686" lon="5.73597">
        <ele>360.5</ele>
        <time>2020-06-25T19:29:49Z</time>
      </trkpt>
      <trkpt lat="49.68601" lon="5.73604">
        <ele>360.5</ele>
        <time>2020-06-25T19:29:50Z</time>
      </trkpt>
      <trkpt lat="49.68601" lon="5.73613">
        <ele>360.6</ele>
        <time>2020-06-25T19:29:51Z</time>
      </trkpt>
      <trkpt lat="49.68602" lon="5.73622">
        <ele>360.7</ele>
        <time>2020-06-25T19:29:52Z</time>
      </trkpt>
      <trkpt lat="49.68602" lon="5.73632">
        <ele>360.9</ele>
        <time>2020-06-25T19:29:53Z</time>
      </trkpt>
      <trkpt lat="49.68602" lon="5.73641">
        <ele>361.1</ele>
        <time>2020-06-25T19:29:54Z</time>
      </trkpt>
      <trkpt lat="49.68603" lon="5.73649">
        <ele>361.2</ele>
        <time>2020-06-25T19:29:55Z</time>
      </trkpt>
      <trkpt lat="49.68603" lon="5.73657">
        <ele>361.3</ele>
        <time>2020-06-25T19:29:56Z</time>
      </trkpt>
      <trkpt lat="49.68603" lon="5.73664">
        <ele>361.5</ele>
        <time>2020-06-25T19:29:57Z</time>
      </trkpt>
      <trkpt lat="49.68604" lon="5.73672">
        <ele>361.6</ele>
        <time>2020-06-25T19:29:58Z</time>
      </trkpt>
      <trkpt lat="49.68603" lon="5.73679">
        <ele>361.7</ele>
        <time>2020-06-25T19:29:59Z</time>
      </trkpt>
      <trkpt lat="49.68604" lon="5.73688">
        <ele>361.8</ele>
        <time>2020-06-25T19:30:00Z</time>
      </trkpt>
      <trkpt lat="49.68604" lon="5.73697">
        <ele>361.8</ele>
        <time>2020-06-25T19:30:01Z</time>
      </trkpt>
      <trkpt lat="49.68604" lon="5.73705">
        <ele>361.9</ele>
        <time>2020-06-25T19:30:02Z</time>
      </trkpt>
      <trkpt lat="49.68605" lon="5.73712">
        <ele>361.9</ele>
        <time>2020-06-25T19:30:03Z</time>
      </trkpt>
      <trkpt lat="49.68605" lon="5.73721">
        <ele>361.9</ele>
        <time>2020-06-25T19:30:04Z</time>
      </trkpt>
      <trkpt lat="49.68606" lon="5.7373">
        <ele>361.9</ele>
        <time>2020-06-25T19:30:05Z</time>
      </trkpt>
      <trkpt lat="49.68606" lon="5.73739">
        <ele>361.9</ele>
        <time>2020-06-25T19:30:06Z</time>
      </trkpt>
      <trkpt lat="49.68607" lon="5.73748">
        <ele>361.9</ele>
        <time>2020-06-25T19:30:07Z</time>
      </trkpt>
      <trkpt lat="49.68607" lon="5.73757">
        <ele>361.9</ele>
        <time>2020-06-25T19:30:08Z</time>
      </trkpt>
      <trkpt lat="49.68607" lon="5.73765">
        <ele>362</ele>
        <time>2020-06-25T19:30:09Z</time>
      </trkpt>
      <trkpt lat="49.68608" lon="5.73774">
        <ele>362</ele>
        <time>2020-06-25T19:30:10Z</time>
      </trkpt>
      <trkpt lat="49.68608" lon="5.73783">
        <ele>362.1</ele>
        <time>2020-06-25T19:30:11Z</time>
      </trkpt>
      <trkpt lat="49.68608" lon="5.73792">
        <ele>362.1</ele>
        <time>2020-06-25T19:30:12Z</time>
      </trkpt>
      <trkpt lat="49.68608" lon="5.738">
        <ele>362.2</ele>
        <time>2020-06-25T19:30:13Z</time>
      </trkpt>
      <trkpt lat="49.68607" lon="5.73808">
        <ele>362.2</ele>
        <time>2020-06-25T19:30:14Z</time>
      </trkpt>
      <trkpt lat="49.68607" lon="5.73816">
        <ele>362.2</ele>
        <time>2020-06-25T19:30:15Z</time>
      </trkpt>
      <trkpt lat="49.68607" lon="5.73824">
        <ele>362.3</ele>
        <time>2020-06-25T19:30:16Z</time>
      </trkpt>
      <trkpt lat="49.68607" lon="5.73832">
        <ele>362.3</ele>
        <time>2020-06-25T19:30:17Z</time>
      </trkpt>
      <trkpt lat="49.68607" lon="5.7384">
        <ele>362.3</ele>
        <time>2020-06-25T19:30:18Z</time>
      </trkpt>
      <trkpt lat="49.68608" lon="5.73848">
        <ele>362.3</ele>
        <time>2020-06-25T19:30:19Z</time>
      </trkpt>
      <trkpt lat="49.68608" lon="5.73857">
        <ele>362.3</ele>
        <time>2020-06-25T19:30:20Z</time>
      </trkpt>
      <trkpt lat="49.68608" lon="5.73864">
        <ele>362.2</ele>
        <time>2020-06-25T19:30:21Z</time>
      </trkpt>
      <trkpt lat="49.68607" lon="5.73871">
        <ele>362.2</ele>
        <time>2020-06-25T19:30:22Z</time>
      </trkpt>
      <trkpt lat="49.68607" lon="5.73879">
        <ele>362.1</ele>
        <time>2020-06-25T19:30:23Z</time>
      </trkpt>
      <trkpt lat="49.68606" lon="5.73889">
        <ele>362</ele>
        <time>2020-06-25T19:30:24Z</time>
      </trkpt>
      <trkpt lat="49.68605" lon="5.73897">
        <ele>361.9</ele>
        <time>2020-06-25T19:30:25Z</time>
      </trkpt>
      <trkpt lat="49.68605" lon="5.73907">
        <ele>361.8</ele>
        <time>2020-06-25T19:30:26Z</time>
      </trkpt>
      <trkpt lat="49.68605" lon="5.73918">
        <ele>361.7</ele>
        <time>2020-06-25T19:30:27Z</time>
      </trkpt>
      <trkpt lat="49.68606" lon="5.73928">
        <ele>361.5</ele>
        <time>2020-06-25T19:30:28Z</time>
      </trkpt>
      <trkpt lat="49.68607" lon="5.73938">
        <ele>361.3</ele>
        <time>2020-06-25T19:30:29Z</time>
      </trkpt>
      <trkpt lat="49.68607" lon="5.73947">
        <ele>361.2</ele>
        <time>2020-06-25T19:30:30Z</time>
      </trkpt>
      <trkpt lat="49.68607" lon="5.73958">
        <ele>361</ele>
        <time>2020-06-25T19:30:31Z</time>
      </trkpt>
      <trkpt lat="49.68608" lon="5.73969">
        <ele>360.7</ele>
        <time>2020-06-25T19:30:32Z</time>
      </trkpt>
      <trkpt lat="49.68608" lon="5.73981">
        <ele>360.5</ele>
        <time>2020-06-25T19:30:33Z</time>
      </trkpt>
      <trkpt lat="49.68609" lon="5.73993">
        <ele>360.2</ele>
        <time>2020-06-25T19:30:34Z</time>
      </trkpt>
      <trkpt lat="49.6861" lon="5.74004">
        <ele>360</ele>
        <time>2020-06-25T19:30:35Z</time>
      </trkpt>
      <trkpt lat="49.68609" lon="5.74018">
        <ele>359.7</ele>
        <time>2020-06-25T19:30:36Z</time>
      </trkpt>
      <trkpt lat="49.68609" lon="5.7403">
        <ele>359.5</ele>
        <time>2020-06-25T19:30:37Z</time>
      </trkpt>
      <trkpt lat="49.68609" lon="5.74042">
        <ele>359.3</ele>
        <time>2020-06-25T19:30:38Z</time>
      </trkpt>
      <trkpt lat="49.6861" lon="5.74052">
        <ele>359.2</ele>
        <time>2020-06-25T19:30:39Z</time>
      </trkpt>
      <trkpt lat="49.68609" lon="5.7406">
        <ele>359.1</ele>
        <time>2020-06-25T19:30:40Z</time>
      </trkpt>
      <trkpt lat="49.68609" lon="5.74071">
        <ele>359</ele>
        <time>2020-06-25T19:30:41Z</time>
      </trkpt>
      <trkpt lat="49.68609" lon="5.74081">
        <ele>358.9</ele>
        <time>2020-06-25T19:30:42Z</time>
      </trkpt>
      <trkpt lat="49.68609" lon="5.74092">
        <ele>358.8</ele>
        <time>2020-06-25T19:30:43Z</time>
      </trkpt>
      <trkpt lat="49.68609" lon="5.74102">
        <ele>358.6</ele>
        <time>2020-06-25T19:30:44Z</time>
      </trkpt>
      <trkpt lat="49.68609" lon="5.74112">
        <ele>358.5</ele>
        <time>2020-06-25T19:30:45Z</time>
      </trkpt>
      <trkpt lat="49.68609" lon="5.74122">
        <ele>358.3</ele>
        <time>2020-06-25T19:30:46Z</time>
      </trkpt>
      <trkpt lat="49.68609" lon="5.74132">
        <ele>358.2</ele>
        <time>2020-06-25T19:30:47Z</time>
      </trkpt>
      <trkpt lat="49.6861" lon="5.74142">
        <ele>358</ele>
        <time>2020-06-25T19:30:48Z</time>
      </trkpt>
      <trkpt lat="49.6861" lon="5.74153">
        <ele>357.8</ele>
        <time>2020-06-25T19:30:49Z</time>
      </trkpt>
      <trkpt lat="49.6861" lon="5.74163">
        <ele>357.5</ele>
        <time>2020-06-25T19:30:50Z</time>
      </trkpt>
      <trkpt lat="49.68611" lon="5.74175">
        <ele>357.3</ele>
        <time>2020-06-25T19:30:51Z</time>
      </trkpt>
      <trkpt lat="49.68611" lon="5.74186">
        <ele>357.1</ele>
        <time>2020-06-25T19:30:52Z</time>
      </trkpt>
      <trkpt lat="49.68611" lon="5.74197">
        <ele>356.9</ele>
        <time>2020-06-25T19:30:53Z</time>
      </trkpt>
      <trkpt lat="49.68611" lon="5.74207">
        <ele>356.8</ele>
        <time>2020-06-25T19:30:54Z</time>
      </trkpt>
      <trkpt lat="49.68612" lon="5.74218">
        <ele>356.8</ele>
        <time>2020-06-25T19:30:55Z</time>
      </trkpt>
      <trkpt lat="49.68612" lon="5.74229">
        <ele>356.7</ele>
        <time>2020-06-25T19:30:56Z</time>
      </trkpt>
      <trkpt lat="49.68612" lon="5.74239">
        <ele>356.7</ele>
        <time>2020-06-25T19:30:57Z</time>
      </trkpt>
      <trkpt lat="49.68613" lon="5.74249">
        <ele>356.6</ele>
        <time>2020-06-25T19:30:58Z</time>
      </trkpt>
      <trkpt lat="49.68613" lon="5.74258">
        <ele>356.6</ele>
        <time>2020-06-25T19:30:59Z</time>
      </trkpt>
      <trkpt lat="49.68613" lon="5.74269">
        <ele>356.6</ele>
        <time>2020-06-25T19:31:00Z</time>
      </trkpt>
      <trkpt lat="49.68614" lon="5.74278">
        <ele>356.6</ele>
        <time>2020-06-25T19:31:01Z</time>
      </trkpt>
      <trkpt lat="49.68614" lon="5.74288">
        <ele>356.6</ele>
        <time>2020-06-25T19:31:02Z</time>
      </trkpt>
      <trkpt lat="49.68614" lon="5.74297">
        <ele>356.6</ele>
        <time>2020-06-25T19:31:03Z</time>
      </trkpt>
      <trkpt lat="49.68614" lon="5.74307">
        <ele>356.6</ele>
        <time>2020-06-25T19:31:04Z</time>
      </trkpt>
      <trkpt lat="49.68614" lon="5.74317">
        <ele>356.6</ele>
        <time>2020-06-25T19:31:05Z</time>
      </trkpt>
      <trkpt lat="49.68614" lon="5.74328">
        <ele>356.6</ele>
        <time>2020-06-25T19:31:06Z</time>
      </trkpt>
      <trkpt lat="49.68614" lon="5.74338">
        <ele>356.7</ele>
        <time>2020-06-25T19:31:07Z</time>
      </trkpt>
      <trkpt lat="49.68615" lon="5.74347">
        <ele>356.7</ele>
        <time>2020-06-25T19:31:08Z</time>
      </trkpt>
      <trkpt lat="49.68615" lon="5.74356">
        <ele>356.7</ele>
        <time>2020-06-25T19:31:09Z</time>
      </trkpt>
      <trkpt lat="49.68616" lon="5.74366">
        <ele>356.8</ele>
        <time>2020-06-25T19:31:10Z</time>
      </trkpt>
      <trkpt lat="49.68616" lon="5.74375">
        <ele>356.9</ele>
        <time>2020-06-25T19:31:11Z</time>
      </trkpt>
      <trkpt lat="49.68617" lon="5.74384">
        <ele>356.9</ele>
        <time>2020-06-25T19:31:12Z</time>
      </trkpt>
      <trkpt lat="49.68617" lon="5.74393">
        <ele>356.9</ele>
        <time>2020-06-25T19:31:13Z</time>
      </trkpt>
      <trkpt lat="49.68617" lon="5.74402">
        <ele>356.9</ele>
        <time>2020-06-25T19:31:14Z</time>
      </trkpt>
      <trkpt lat="49.68617" lon="5.74411">
        <ele>357</ele>
        <time>2020-06-25T19:31:15Z</time>
      </trkpt>
      <trkpt lat="49.68617" lon="5.74419">
        <ele>357</ele>
        <time>2020-06-25T19:31:16Z</time>
      </trkpt>
      <trkpt lat="49.68618" lon="5.74428">
        <ele>357</ele>
        <time>2020-06-25T19:31:17Z</time>
      </trkpt>
      <trkpt lat="49.68618" lon="5.74437">
        <ele>357.1</ele>
        <time>2020-06-25T19:31:18Z</time>
      </trkpt>
      <trkpt lat="49.68619" lon="5.74447">
        <ele>357.1</ele>
        <time>2020-06-25T19:31:19Z</time>
      </trkpt>
      <trkpt lat="49.68619" lon="5.74456">
        <ele>357.1</ele>
        <time>2020-06-25T19:31:20Z</time>
      </trkpt>
      <trkpt lat="49.68619" lon="5.74465">
        <ele>357.2</ele>
        <time>2020-06-25T19:31:21Z</time>
      </trkpt>
      <trkpt lat="49.6862" lon="5.74474">
        <ele>357.2</ele>
        <time>2020-06-25T19:31:22Z</time>
      </trkpt>
      <trkpt lat="49.6862" lon="5.74483">
        <ele>357.3</ele>
        <time>2020-06-25T19:31:23Z</time>
      </trkpt>
      <trkpt lat="49.6862" lon="5.74492">
        <ele>357.3</ele>
        <time>2020-06-25T19:31:24Z</time>
      </trkpt>
      <trkpt lat="49.68621" lon="5.74501">
        <ele>357.4</ele>
        <time>2020-06-25T19:31:25Z</time>
      </trkpt>
      <trkpt lat="49.68621" lon="5.7451">
        <ele>357.5</ele>
        <time>2020-06-25T19:31:26Z</time>
      </trkpt>
      <trkpt lat="49.68622" lon="5.74519">
        <ele>357.5</ele>
        <time>2020-06-25T19:31:27Z</time>
      </trkpt>
      <trkpt lat="49.68622" lon="5.74529">
        <ele>357.5</ele>
        <time>2020-06-25T19:31:28Z</time>
      </trkpt>
      <trkpt lat="49.68622" lon="5.74538">
        <ele>357.5</ele>
        <time>2020-06-25T19:31:29Z</time>
      </trkpt>
      <trkpt lat="49.68623" lon="5.74547">
        <ele>357.6</ele>
        <time>2020-06-25T19:31:30Z</time>
      </trkpt>
      <trkpt lat="49.68623" lon="5.74556">
        <ele>357.6</ele>
        <time>2020-06-25T19:31:31Z</time>
      </trkpt>
      <trkpt lat="49.68623" lon="5.74564">
        <ele>357.7</ele>
        <time>2020-06-25T19:31:32Z</time>
      </trkpt>
      <trkpt lat="49.68623" lon="5.74573">
        <ele>357.7</ele>
        <time>2020-06-25T19:31:33Z</time>
      </trkpt>
      <trkpt lat="49.68623" lon="5.74581">
        <ele>357.8</ele>
        <time>2020-06-25T19:31:34Z</time>
      </trkpt>
      <trkpt lat="49.68623" lon="5.7459">
        <ele>357.8</ele>
        <time>2020-06-25T19:31:35Z</time>
      </trkpt>
      <trkpt lat="49.68623" lon="5.74598">
        <ele>357.9</ele>
        <time>2020-06-25T19:31:36Z</time>
      </trkpt>
      <trkpt lat="49.68623" lon="5.74606">
        <ele>357.9</ele>
        <time>2020-06-25T19:31:37Z</time>
      </trkpt>
      <trkpt lat="49.68623" lon="5.74615">
        <ele>358</ele>
        <time>2020-06-25T19:31:38Z</time>
      </trkpt>
      <trkpt lat="49.68623" lon="5.74623">
        <ele>358</ele>
        <time>2020-06-25T19:31:39Z</time>
      </trkpt>
      <trkpt lat="49.68622" lon="5.74631">
        <ele>358</ele>
        <time>2020-06-25T19:31:40Z</time>
      </trkpt>
      <trkpt lat="49.68623" lon="5.74639">
        <ele>358.1</ele>
        <time>2020-06-25T19:31:41Z</time>
      </trkpt>
      <trkpt lat="49.68624" lon="5.74648">
        <ele>358.2</ele>
        <time>2020-06-25T19:31:42Z</time>
      </trkpt>
      <trkpt lat="49.68625" lon="5.74656">
        <ele>358.2</ele>
        <time>2020-06-25T19:31:43Z</time>
      </trkpt>
      <trkpt lat="49.68625" lon="5.74664">
        <ele>358.3</ele>
        <time>2020-06-25T19:31:44Z</time>
      </trkpt>
      <trkpt lat="49.68626" lon="5.74673">
        <ele>358.4</ele>
        <time>2020-06-25T19:31:45Z</time>
      </trkpt>
      <trkpt lat="49.68626" lon="5.74681">
        <ele>358.4</ele>
        <time>2020-06-25T19:31:46Z</time>
      </trkpt>
      <trkpt lat="49.68626" lon="5.7469">
        <ele>358.5</ele>
        <time>2020-06-25T19:31:47Z</time>
      </trkpt>
      <trkpt lat="49.68626" lon="5.74698">
        <ele>358.6</ele>
        <time>2020-06-25T19:31:48Z</time>
      </trkpt>
      <trkpt lat="49.68626" lon="5.74706">
        <ele>358.6</ele>
        <time>2020-06-25T19:31:49Z</time>
      </trkpt>
      <trkpt lat="49.68626" lon="5.74715">
        <ele>358.7</ele>
        <time>2020-06-25T19:31:50Z</time>
      </trkpt>
      <trkpt lat="49.68626" lon="5.74723">
        <ele>358.7</ele>
        <time>2020-06-25T19:31:51Z</time>
      </trkpt>
      <trkpt lat="49.68626" lon="5.74732">
        <ele>358.7</ele>
        <time>2020-06-25T19:31:52Z</time>
      </trkpt>
      <trkpt lat="49.68625" lon="5.7474">
        <ele>358.8</ele>
        <time>2020-06-25T19:31:53Z</time>
      </trkpt>
      <trkpt lat="49.68625" lon="5.74748">
        <ele>358.8</ele>
        <time>2020-06-25T19:31:54Z</time>
      </trkpt>
      <trkpt lat="49.68626" lon="5.74756">
        <ele>358.8</ele>
        <time>2020-06-25T19:31:55Z</time>
      </trkpt>
      <trkpt lat="49.68625" lon="5.74765">
        <ele>358.8</ele>
        <time>2020-06-25T19:31:56Z</time>
      </trkpt>
      <trkpt lat="49.68625" lon="5.74773">
        <ele>358.9</ele>
        <time>2020-06-25T19:31:57Z</time>
      </trkpt>
      <trkpt lat="49.68626" lon="5.74782">
        <ele>358.9</ele>
        <time>2020-06-25T19:31:58Z</time>
      </trkpt>
      <trkpt lat="49.68627" lon="5.7479">
        <ele>359</ele>
        <time>2020-06-25T19:31:59Z</time>
      </trkpt>
      <trkpt lat="49.68626" lon="5.74798">
        <ele>359</ele>
        <time>2020-06-25T19:32:00Z</time>
      </trkpt>
      <trkpt lat="49.68626" lon="5.74806">
        <ele>359.1</ele>
        <time>2020-06-25T19:32:01Z</time>
      </trkpt>
      <trkpt lat="49.68626" lon="5.74814">
        <ele>359.2</ele>
        <time>2020-06-25T19:32:02Z</time>
      </trkpt>
      <trkpt lat="49.68626" lon="5.74822">
        <ele>359.3</ele>
        <time>2020-06-25T19:32:03Z</time>
      </trkpt>
      <trkpt lat="49.68625" lon="5.74831">
        <ele>359.4</ele>
        <time>2020-06-25T19:32:04Z</time>
      </trkpt>
      <trkpt lat="49.68625" lon="5.74838">
        <ele>359.5</ele>
        <time>2020-06-25T19:32:05Z</time>
      </trkpt>
      <trkpt lat="49.68625" lon="5.74845">
        <ele>359.5</ele>
        <time>2020-06-25T19:32:06Z</time>
      </trkpt>
      <trkpt lat="49.68625" lon="5.74852">
        <ele>359.6</ele>
        <time>2020-06-25T19:32:07Z</time>
      </trkpt>
      <trkpt lat="49.68626" lon="5.74859">
        <ele>359.7</ele>
        <time>2020-06-25T19:32:08Z</time>
      </trkpt>
      <trkpt lat="49.68627" lon="5.74873">
        <ele>359.8</ele>
        <time>2020-06-25T19:32:09Z</time>
      </trkpt>
      <trkpt lat="49.68628" lon="5.74878">
        <ele>359.8</ele>
        <time>2020-06-25T19:32:10Z</time>
      </trkpt>
      <trkpt lat="49.68628" lon="5.74884">
        <ele>359.8</ele>
        <time>2020-06-25T19:32:11Z</time>
      </trkpt>
      <trkpt lat="49.6863" lon="5.7489">
        <ele>359.8</ele>
        <time>2020-06-25T19:32:12Z</time>
      </trkpt>
      <trkpt lat="49.6863" lon="5.74895">
        <ele>359.8</ele>
        <time>2020-06-25T19:32:13Z</time>
      </trkpt>
      <trkpt lat="49.68632" lon="5.749">
        <ele>359.9</ele>
        <time>2020-06-25T19:32:14Z</time>
      </trkpt>
      <trkpt lat="49.68632" lon="5.74909">
        <ele>359.9</ele>
        <time>2020-06-25T19:32:15Z</time>
      </trkpt>
      <trkpt lat="49.68633" lon="5.74918">
        <ele>359.9</ele>
        <time>2020-06-25T19:32:16Z</time>
      </trkpt>
      <trkpt lat="49.68633" lon="5.74927">
        <ele>359.9</ele>
        <time>2020-06-25T19:32:17Z</time>
      </trkpt>
      <trkpt lat="49.68632" lon="5.74936">
        <ele>359.9</ele>
        <time>2020-06-25T19:32:18Z</time>
      </trkpt>
      <trkpt lat="49.6863" lon="5.74946">
        <ele>359.9</ele>
        <time>2020-06-25T19:32:19Z</time>
      </trkpt>
      <trkpt lat="49.68629" lon="5.74955">
        <ele>359.9</ele>
        <time>2020-06-25T19:32:20Z</time>
      </trkpt>
      <trkpt lat="49.68628" lon="5.74965">
        <ele>359.9</ele>
        <time>2020-06-25T19:32:21Z</time>
      </trkpt>
      <trkpt lat="49.68628" lon="5.74974">
        <ele>359.9</ele>
        <time>2020-06-25T19:32:22Z</time>
      </trkpt>
      <trkpt lat="49.68628" lon="5.74983">
        <ele>360</ele>
        <time>2020-06-25T19:32:23Z</time>
      </trkpt>
      <trkpt lat="49.68628" lon="5.74992">
        <ele>360</ele>
        <time>2020-06-25T19:32:24Z</time>
      </trkpt>
      <trkpt lat="49.68628" lon="5.75001">
        <ele>360.1</ele>
        <time>2020-06-25T19:32:25Z</time>
      </trkpt>
      <trkpt lat="49.68628" lon="5.7501">
        <ele>360.1</ele>
        <time>2020-06-25T19:32:26Z</time>
      </trkpt>
      <trkpt lat="49.68627" lon="5.75018">
        <ele>360.1</ele>
        <time>2020-06-25T19:32:27Z</time>
      </trkpt>
      <trkpt lat="49.68626" lon="5.75026">
        <ele>360.2</ele>
        <time>2020-06-25T19:32:28Z</time>
      </trkpt>
      <trkpt lat="49.68627" lon="5.75033">
        <ele>360.2</ele>
        <time>2020-06-25T19:32:29Z</time>
      </trkpt>
      <trkpt lat="49.68627" lon="5.75041">
        <ele>360.2</ele>
        <time>2020-06-25T19:32:30Z</time>
      </trkpt>
      <trkpt lat="49.68628" lon="5.7505">
        <ele>360.3</ele>
        <time>2020-06-25T19:32:31Z</time>
      </trkpt>
      <trkpt lat="49.68628" lon="5.75058">
        <ele>360.3</ele>
        <time>2020-06-25T19:32:32Z</time>
      </trkpt>
      <trkpt lat="49.68628" lon="5.75067">
        <ele>360.4</ele>
        <time>2020-06-25T19:32:33Z</time>
      </trkpt>
      <trkpt lat="49.68627" lon="5.75076">
        <ele>360.4</ele>
        <time>2020-06-25T19:32:34Z</time>
      </trkpt>
      <trkpt lat="49.68627" lon="5.75085">
        <ele>360.3</ele>
        <time>2020-06-25T19:32:35Z</time>
      </trkpt>
      <trkpt lat="49.68626" lon="5.75094">
        <ele>360.3</ele>
        <time>2020-06-25T19:32:36Z</time>
      </trkpt>
      <trkpt lat="49.68626" lon="5.75104">
        <ele>360.3</ele>
        <time>2020-06-25T19:32:37Z</time>
      </trkpt>
      <trkpt lat="49.68627" lon="5.75112">
        <ele>360.2</ele>
        <time>2020-06-25T19:32:38Z</time>
      </trkpt>
      <trkpt lat="49.68628" lon="5.75121">
        <ele>360.2</ele>
        <time>2020-06-25T19:32:39Z</time>
      </trkpt>
      <trkpt lat="49.68628" lon="5.75129">
        <ele>360.2</ele>
        <time>2020-06-25T19:32:40Z</time>
      </trkpt>
      <trkpt lat="49.68628" lon="5.75138">
        <ele>360.2</ele>
        <time>2020-06-25T19:32:41Z</time>
      </trkpt>
      <trkpt lat="49.68628" lon="5.75146">
        <ele>360.2</ele>
        <time>2020-06-25T19:32:42Z</time>
      </trkpt>
      <trkpt lat="49.68629" lon="5.75155">
        <ele>360.2</ele>
        <time>2020-06-25T19:32:43Z</time>
      </trkpt>
      <trkpt lat="49.68629" lon="5.75164">
        <ele>360.1</ele>
        <time>2020-06-25T19:32:44Z</time>
      </trkpt>
      <trkpt lat="49.68629" lon="5.75172">
        <ele>360.1</ele>
        <time>2020-06-25T19:32:45Z</time>
      </trkpt>
      <trkpt lat="49.68628" lon="5.75182">
        <ele>360</ele>
        <time>2020-06-25T19:32:46Z</time>
      </trkpt>
      <trkpt lat="49.68629" lon="5.75191">
        <ele>359.9</ele>
        <time>2020-06-25T19:32:47Z</time>
      </trkpt>
      <trkpt lat="49.68628" lon="5.752">
        <ele>359.8</ele>
        <time>2020-06-25T19:32:48Z</time>
      </trkpt>
      <trkpt lat="49.68628" lon="5.75209">
        <ele>359.7</ele>
        <time>2020-06-25T19:32:49Z</time>
      </trkpt>
      <trkpt lat="49.68628" lon="5.75219">
        <ele>359.6</ele>
        <time>2020-06-25T19:32:50Z</time>
      </trkpt>
      <trkpt lat="49.68628" lon="5.75228">
        <ele>359.5</ele>
        <time>2020-06-25T19:32:51Z</time>
      </trkpt>
      <trkpt lat="49.68628" lon="5.75237">
        <ele>359.4</ele>
        <time>2020-06-25T19:32:52Z</time>
      </trkpt>
      <trkpt lat="49.68629" lon="5.75246">
        <ele>359.4</ele>
        <time>2020-06-25T19:32:53Z</time>
      </trkpt>
      <trkpt lat="49.6863" lon="5.75255">
        <ele>359.3</ele>
        <time>2020-06-25T19:32:54Z</time>
      </trkpt>
      <trkpt lat="49.68631" lon="5.75264">
        <ele>359.2</ele>
        <time>2020-06-25T19:32:55Z</time>
      </trkpt>
      <trkpt lat="49.68632" lon="5.75274">
        <ele>359.1</ele>
        <time>2020-06-25T19:32:56Z</time>
      </trkpt>
      <trkpt lat="49.68632" lon="5.75284">
        <ele>359</ele>
        <time>2020-06-25T19:32:57Z</time>
      </trkpt>
      <trkpt lat="49.68632" lon="5.75294">
        <ele>358.9</ele>
        <time>2020-06-25T19:32:58Z</time>
      </trkpt>
      <trkpt lat="49.68633" lon="5.75305">
        <ele>358.8</ele>
        <time>2020-06-25T19:32:59Z</time>
      </trkpt>
      <trkpt lat="49.68633" lon="5.75315">
        <ele>358.7</ele>
        <time>2020-06-25T19:33:00Z</time>
      </trkpt>
      <trkpt lat="49.68633" lon="5.75325">
        <ele>358.6</ele>
        <time>2020-06-25T19:33:01Z</time>
      </trkpt>
      <trkpt lat="49.68632" lon="5.75334">
        <ele>358.5</ele>
        <time>2020-06-25T19:33:02Z</time>
      </trkpt>
      <trkpt lat="49.68632" lon="5.75345">
        <ele>358.4</ele>
        <time>2020-06-25T19:33:03Z</time>
      </trkpt>
      <trkpt lat="49.68632" lon="5.75355">
        <ele>358.3</ele>
        <time>2020-06-25T19:33:04Z</time>
      </trkpt>
      <trkpt lat="49.68632" lon="5.75366">
        <ele>358</ele>
        <time>2020-06-25T19:33:05Z</time>
      </trkpt>
      <trkpt lat="49.68632" lon="5.75377">
        <ele>357.8</ele>
        <time>2020-06-25T19:33:06Z</time>
      </trkpt>
      <trkpt lat="49.68634" lon="5.75389">
        <ele>357.7</ele>
        <time>2020-06-25T19:33:07Z</time>
      </trkpt>
      <trkpt lat="49.68635" lon="5.754">
        <ele>357.5</ele>
        <time>2020-06-25T19:33:08Z</time>
      </trkpt>
      <trkpt lat="49.68635" lon="5.75411">
        <ele>357.4</ele>
        <time>2020-06-25T19:33:09Z</time>
      </trkpt>
      <trkpt lat="49.68636" lon="5.75422">
        <ele>357.2</ele>
        <time>2020-06-25T19:33:10Z</time>
      </trkpt>
      <trkpt lat="49.68634" lon="5.75434">
        <ele>356.9</ele>
        <time>2020-06-25T19:33:11Z</time>
      </trkpt>
      <trkpt lat="49.68633" lon="5.75446">
        <ele>356.7</ele>
        <time>2020-06-25T19:33:12Z</time>
      </trkpt>
      <trkpt lat="49.68632" lon="5.75457">
        <ele>356.6</ele>
        <time>2020-06-25T19:33:13Z</time>
      </trkpt>
      <trkpt lat="49.68631" lon="5.75469">
        <ele>356.5</ele>
        <time>2020-06-25T19:33:14Z</time>
      </trkpt>
      <trkpt lat="49.68632" lon="5.75481">
        <ele>356.3</ele>
        <time>2020-06-25T19:33:15Z</time>
      </trkpt>
      <trkpt lat="49.68633" lon="5.75492">
        <ele>356.2</ele>
        <time>2020-06-25T19:33:16Z</time>
      </trkpt>
      <trkpt lat="49.68634" lon="5.75503">
        <ele>356.1</ele>
        <time>2020-06-25T19:33:17Z</time>
      </trkpt>
      <trkpt lat="49.68633" lon="5.75514">
        <ele>356</ele>
        <time>2020-06-25T19:33:18Z</time>
      </trkpt>
      <trkpt lat="49.68633" lon="5.75526">
        <ele>355.9</ele>
        <time>2020-06-25T19:33:19Z</time>
      </trkpt>
      <trkpt lat="49.68632" lon="5.75538">
        <ele>355.7</ele>
        <time>2020-06-25T19:33:20Z</time>
      </trkpt>
      <trkpt lat="49.68632" lon="5.7555">
        <ele>355.6</ele>
        <time>2020-06-25T19:33:21Z</time>
      </trkpt>
      <trkpt lat="49.68632" lon="5.75561">
        <ele>355.5</ele>
        <time>2020-06-25T19:33:22Z</time>
      </trkpt>
      <trkpt lat="49.68633" lon="5.75573">
        <ele>355.4</ele>
        <time>2020-06-25T19:33:23Z</time>
      </trkpt>
      <trkpt lat="49.68633" lon="5.75585">
        <ele>355.4</ele>
        <time>2020-06-25T19:33:24Z</time>
      </trkpt>
      <trkpt lat="49.68633" lon="5.75597">
        <ele>355.3</ele>
        <time>2020-06-25T19:33:25Z</time>
      </trkpt>
      <trkpt lat="49.68634" lon="5.75608">
        <ele>355.4</ele>
        <time>2020-06-25T19:33:26Z</time>
      </trkpt>
      <trkpt lat="49.68635" lon="5.7562">
        <ele>355.4</ele>
        <time>2020-06-25T19:33:27Z</time>
      </trkpt>
      <trkpt lat="49.68636" lon="5.75631">
        <ele>355.5</ele>
        <time>2020-06-25T19:33:28Z</time>
      </trkpt>
      <trkpt lat="49.68637" lon="5.75643">
        <ele>355.5</ele>
        <time>2020-06-25T19:33:29Z</time>
      </trkpt>
      <trkpt lat="49.68636" lon="5.75655">
        <ele>355.4</ele>
        <time>2020-06-25T19:33:30Z</time>
      </trkpt>
      <trkpt lat="49.68637" lon="5.75666">
        <ele>355.3</ele>
        <time>2020-06-25T19:33:31Z</time>
      </trkpt>
      <trkpt lat="49.68637" lon="5.75678">
        <ele>355.2</ele>
        <time>2020-06-25T19:33:32Z</time>
      </trkpt>
      <trkpt lat="49.68638" lon="5.75689">
        <ele>355.2</ele>
        <time>2020-06-25T19:33:33Z</time>
      </trkpt>
      <trkpt lat="49.68638" lon="5.757">
        <ele>355.2</ele>
        <time>2020-06-25T19:33:34Z</time>
      </trkpt>
      <trkpt lat="49.68638" lon="5.75711">
        <ele>355.3</ele>
        <time>2020-06-25T19:33:35Z</time>
      </trkpt>
      <trkpt lat="49.68639" lon="5.75722">
        <ele>355.4</ele>
        <time>2020-06-25T19:33:36Z</time>
      </trkpt>
      <trkpt lat="49.6864" lon="5.75732">
        <ele>355.5</ele>
        <time>2020-06-25T19:33:37Z</time>
      </trkpt>
      <trkpt lat="49.6864" lon="5.75743">
        <ele>355.6</ele>
        <time>2020-06-25T19:33:38Z</time>
      </trkpt>
      <trkpt lat="49.68641" lon="5.75754">
        <ele>355.7</ele>
        <time>2020-06-25T19:33:39Z</time>
      </trkpt>
      <trkpt lat="49.68641" lon="5.75764">
        <ele>355.8</ele>
        <time>2020-06-25T19:33:40Z</time>
      </trkpt>
      <trkpt lat="49.68641" lon="5.75774">
        <ele>356</ele>
        <time>2020-06-25T19:33:41Z</time>
      </trkpt>
      <trkpt lat="49.68641" lon="5.75784">
        <ele>356.1</ele>
        <time>2020-06-25T19:33:42Z</time>
      </trkpt>
      <trkpt lat="49.68641" lon="5.75793">
        <ele>356.2</ele>
        <time>2020-06-25T19:33:43Z</time>
      </trkpt>
      <trkpt lat="49.68641" lon="5.75803">
        <ele>356.3</ele>
        <time>2020-06-25T19:33:44Z</time>
      </trkpt>
      <trkpt lat="49.68641" lon="5.75812">
        <ele>356.4</ele>
        <time>2020-06-25T19:33:45Z</time>
      </trkpt>
      <trkpt lat="49.68642" lon="5.75821">
        <ele>356.5</ele>
        <time>2020-06-25T19:33:46Z</time>
      </trkpt>
      <trkpt lat="49.68642" lon="5.7583">
        <ele>356.6</ele>
        <time>2020-06-25T19:33:47Z</time>
      </trkpt>
      <trkpt lat="49.68641" lon="5.75839">
        <ele>356.7</ele>
        <time>2020-06-25T19:33:48Z</time>
      </trkpt>
      <trkpt lat="49.68642" lon="5.75848">
        <ele>356.9</ele>
        <time>2020-06-25T19:33:49Z</time>
      </trkpt>
      <trkpt lat="49.68642" lon="5.75857">
        <ele>357</ele>
        <time>2020-06-25T19:33:50Z</time>
      </trkpt>
      <trkpt lat="49.68643" lon="5.75866">
        <ele>357.1</ele>
        <time>2020-06-25T19:33:51Z</time>
      </trkpt>
      <trkpt lat="49.68643" lon="5.75874">
        <ele>357.2</ele>
        <time>2020-06-25T19:33:52Z</time>
      </trkpt>
      <trkpt lat="49.68643" lon="5.75882">
        <ele>357.2</ele>
        <time>2020-06-25T19:33:53Z</time>
      </trkpt>
      <trkpt lat="49.68643" lon="5.75891">
        <ele>357.3</ele>
        <time>2020-06-25T19:33:54Z</time>
      </trkpt>
      <trkpt lat="49.68644" lon="5.75899">
        <ele>357.3</ele>
        <time>2020-06-25T19:33:55Z</time>
      </trkpt>
      <trkpt lat="49.68646" lon="5.75907">
        <ele>357.4</ele>
        <time>2020-06-25T19:33:56Z</time>
      </trkpt>
      <trkpt lat="49.68646" lon="5.75916">
        <ele>357.6</ele>
        <time>2020-06-25T19:33:57Z</time>
      </trkpt>
      <trkpt lat="49.68646" lon="5.75924">
        <ele>357.7</ele>
        <time>2020-06-25T19:33:58Z</time>
      </trkpt>
      <trkpt lat="49.68646" lon="5.75932">
        <ele>357.8</ele>
        <time>2020-06-25T19:33:59Z</time>
      </trkpt>
      <trkpt lat="49.68647" lon="5.7594">
        <ele>357.9</ele>
        <time>2020-06-25T19:34:00Z</time>
      </trkpt>
      <trkpt lat="49.68647" lon="5.75948">
        <ele>358</ele>
        <time>2020-06-25T19:34:01Z</time>
      </trkpt>
      <trkpt lat="49.68647" lon="5.75956">
        <ele>358</ele>
        <time>2020-06-25T19:34:02Z</time>
      </trkpt>
      <trkpt lat="49.68646" lon="5.75964">
        <ele>358.1</ele>
        <time>2020-06-25T19:34:03Z</time>
      </trkpt>
      <trkpt lat="49.68646" lon="5.75972">
        <ele>358.2</ele>
        <time>2020-06-25T19:34:04Z</time>
      </trkpt>
      <trkpt lat="49.68646" lon="5.7598">
        <ele>358.4</ele>
        <time>2020-06-25T19:34:05Z</time>
      </trkpt>
      <trkpt lat="49.68646" lon="5.75988">
        <ele>358.5</ele>
        <time>2020-06-25T19:34:06Z</time>
      </trkpt>
      <trkpt lat="49.68647" lon="5.75996">
        <ele>358.6</ele>
        <time>2020-06-25T19:34:07Z</time>
      </trkpt>
      <trkpt lat="49.68647" lon="5.76003">
        <ele>358.7</ele>
        <time>2020-06-25T19:34:08Z</time>
      </trkpt>
      <trkpt lat="49.68647" lon="5.76011">
        <ele>358.8</ele>
        <time>2020-06-25T19:34:09Z</time>
      </trkpt>
      <trkpt lat="49.68647" lon="5.76018">
        <ele>358.9</ele>
        <time>2020-06-25T19:34:10Z</time>
      </trkpt>
      <trkpt lat="49.68647" lon="5.76026">
        <ele>359</ele>
        <time>2020-06-25T19:34:11Z</time>
      </trkpt>
      <trkpt lat="49.68646" lon="5.76034">
        <ele>359.1</ele>
        <time>2020-06-25T19:34:12Z</time>
      </trkpt>
      <trkpt lat="49.68647" lon="5.76041">
        <ele>359.1</ele>
        <time>2020-06-25T19:34:13Z</time>
      </trkpt>
      <trkpt lat="49.68647" lon="5.76049">
        <ele>359.2</ele>
        <time>2020-06-25T19:34:14Z</time>
      </trkpt>
      <trkpt lat="49.68647" lon="5.76056">
        <ele>359.3</ele>
        <time>2020-06-25T19:34:15Z</time>
      </trkpt>
      <trkpt lat="49.68647" lon="5.76064">
        <ele>359.4</ele>
        <time>2020-06-25T19:34:16Z</time>
      </trkpt>
      <trkpt lat="49.68648" lon="5.76071">
        <ele>359.5</ele>
        <time>2020-06-25T19:34:17Z</time>
      </trkpt>
      <trkpt lat="49.68648" lon="5.76079">
        <ele>359.6</ele>
        <time>2020-06-25T19:34:18Z</time>
      </trkpt>
      <trkpt lat="49.68648" lon="5.76086">
        <ele>359.7</ele>
        <time>2020-06-25T19:34:19Z</time>
      </trkpt>
      <trkpt lat="49.68648" lon="5.76094">
        <ele>359.8</ele>
        <time>2020-06-25T19:34:20Z</time>
      </trkpt>
      <trkpt lat="49.68648" lon="5.76102">
        <ele>359.9</ele>
        <time>2020-06-25T19:34:21Z</time>
      </trkpt>
      <trkpt lat="49.68649" lon="5.76109">
        <ele>360</ele>
        <time>2020-06-25T19:34:22Z</time>
      </trkpt>
      <trkpt lat="49.68649" lon="5.76117">
        <ele>360.1</ele>
        <time>2020-06-25T19:34:23Z</time>
      </trkpt>
      <trkpt lat="49.68649" lon="5.76124">
        <ele>360.2</ele>
        <time>2020-06-25T19:34:24Z</time>
      </trkpt>
      <trkpt lat="49.6865" lon="5.76132">
        <ele>360.4</ele>
        <time>2020-06-25T19:34:25Z</time>
      </trkpt>
      <trkpt lat="49.6865" lon="5.76139">
        <ele>360.5</ele>
        <time>2020-06-25T19:34:26Z</time>
      </trkpt>
      <trkpt lat="49.6865" lon="5.76147">
        <ele>360.6</ele>
        <time>2020-06-25T19:34:27Z</time>
      </trkpt>
      <trkpt lat="49.68649" lon="5.76154">
        <ele>360.7</ele>
        <time>2020-06-25T19:34:28Z</time>
      </trkpt>
      <trkpt lat="49.68649" lon="5.76162">
        <ele>360.7</ele>
        <time>2020-06-25T19:34:29Z</time>
      </trkpt>
      <trkpt lat="49.68649" lon="5.76169">
        <ele>360.8</ele>
        <time>2020-06-25T19:34:30Z</time>
      </trkpt>
      <trkpt lat="49.68649" lon="5.76176">
        <ele>360.9</ele>
        <time>2020-06-25T19:34:31Z</time>
      </trkpt>
      <trkpt lat="49.68649" lon="5.76183">
        <ele>361</ele>
        <time>2020-06-25T19:34:32Z</time>
      </trkpt>
      <trkpt lat="49.68651" lon="5.7619">
        <ele>361</ele>
        <time>2020-06-25T19:34:33Z</time>
      </trkpt>
      <trkpt lat="49.68652" lon="5.76197">
        <ele>361.1</ele>
        <time>2020-06-25T19:34:34Z</time>
      </trkpt>
      <trkpt lat="49.68653" lon="5.76204">
        <ele>361.2</ele>
        <time>2020-06-25T19:34:35Z</time>
      </trkpt>
      <trkpt lat="49.68654" lon="5.7621">
        <ele>361.3</ele>
        <time>2020-06-25T19:34:36Z</time>
      </trkpt>
      <trkpt lat="49.68654" lon="5.76217">
        <ele>361.4</ele>
        <time>2020-06-25T19:34:37Z</time>
      </trkpt>
      <trkpt lat="49.68654" lon="5.76224">
        <ele>361.5</ele>
        <time>2020-06-25T19:34:38Z</time>
      </trkpt>
      <trkpt lat="49.68655" lon="5.7623">
        <ele>361.6</ele>
        <time>2020-06-25T19:34:39Z</time>
      </trkpt>
      <trkpt lat="49.68655" lon="5.76238">
        <ele>361.8</ele>
        <time>2020-06-25T19:34:40Z</time>
      </trkpt>
      <trkpt lat="49.68655" lon="5.76244">
        <ele>361.9</ele>
        <time>2020-06-25T19:34:41Z</time>
      </trkpt>
      <trkpt lat="49.68655" lon="5.76252">
        <ele>362.1</ele>
        <time>2020-06-25T19:34:42Z</time>
      </trkpt>
      <trkpt lat="49.68656" lon="5.7626">
        <ele>362.2</ele>
        <time>2020-06-25T19:34:43Z</time>
      </trkpt>
      <trkpt lat="49.68656" lon="5.76267">
        <ele>362.3</ele>
        <time>2020-06-25T19:34:44Z</time>
      </trkpt>
      <trkpt lat="49.68657" lon="5.76276">
        <ele>362.5</ele>
        <time>2020-06-25T19:34:45Z</time>
      </trkpt>
      <trkpt lat="49.68656" lon="5.76283">
        <ele>362.6</ele>
        <time>2020-06-25T19:34:46Z</time>
      </trkpt>
      <trkpt lat="49.68657" lon="5.76292">
        <ele>362.7</ele>
        <time>2020-06-25T19:34:47Z</time>
      </trkpt>
      <trkpt lat="49.68657" lon="5.76301">
        <ele>362.9</ele>
        <time>2020-06-25T19:34:48Z</time>
      </trkpt>
      <trkpt lat="49.68657" lon="5.76309">
        <ele>363</ele>
        <time>2020-06-25T19:34:49Z</time>
      </trkpt>
      <trkpt lat="49.68658" lon="5.76319">
        <ele>363.1</ele>
        <time>2020-06-25T19:34:50Z</time>
      </trkpt>
      <trkpt lat="49.68659" lon="5.76328">
        <ele>363.3</ele>
        <time>2020-06-25T19:34:51Z</time>
      </trkpt>
      <trkpt lat="49.68658" lon="5.76335">
        <ele>363.4</ele>
        <time>2020-06-25T19:34:52Z</time>
      </trkpt>
      <trkpt lat="49.68658" lon="5.76343">
        <ele>363.5</ele>
        <time>2020-06-25T19:34:53Z</time>
      </trkpt>
      <trkpt lat="49.68658" lon="5.76351">
        <ele>363.7</ele>
        <time>2020-06-25T19:34:54Z</time>
      </trkpt>
      <trkpt lat="49.68659" lon="5.7636">
        <ele>363.8</ele>
        <time>2020-06-25T19:34:55Z</time>
      </trkpt>
      <trkpt lat="49.68658" lon="5.76368">
        <ele>364</ele>
        <time>2020-06-25T19:34:56Z</time>
      </trkpt>
      <trkpt lat="49.68658" lon="5.76376">
        <ele>364.2</ele>
        <time>2020-06-25T19:34:57Z</time>
      </trkpt>
      <trkpt lat="49.68657" lon="5.76383">
        <ele>364.3</ele>
        <time>2020-06-25T19:34:58Z</time>
      </trkpt>
      <trkpt lat="49.68657" lon="5.76391">
        <ele>364.5</ele>
        <time>2020-06-25T19:34:59Z</time>
      </trkpt>
      <trkpt lat="49.68656" lon="5.76397">
        <ele>364.6</ele>
        <time>2020-06-25T19:35:00Z</time>
      </trkpt>
      <trkpt lat="49.68656" lon="5.76403">
        <ele>364.7</ele>
        <time>2020-06-25T19:35:01Z</time>
      </trkpt>
      <trkpt lat="49.68655" lon="5.76408">
        <ele>364.8</ele>
        <time>2020-06-25T19:35:02Z</time>
      </trkpt>
      <trkpt lat="49.68655" lon="5.76414">
        <ele>364.9</ele>
        <time>2020-06-25T19:35:03Z</time>
      </trkpt>
      <trkpt lat="49.68656" lon="5.76423">
        <ele>365.1</ele>
        <time>2020-06-25T19:35:04Z</time>
      </trkpt>
      <trkpt lat="49.68656" lon="5.76432">
        <ele>365.2</ele>
        <time>2020-06-25T19:35:05Z</time>
      </trkpt>
      <trkpt lat="49.68656" lon="5.76439">
        <ele>365.4</ele>
        <time>2020-06-25T19:35:06Z</time>
      </trkpt>
      <trkpt lat="49.68657" lon="5.76448">
        <ele>365.5</ele>
        <time>2020-06-25T19:35:07Z</time>
      </trkpt>
      <trkpt lat="49.68657" lon="5.76454">
        <ele>365.6</ele>
        <time>2020-06-25T19:35:08Z</time>
      </trkpt>
      <trkpt lat="49.68658" lon="5.76462">
        <ele>365.7</ele>
        <time>2020-06-25T19:35:09Z</time>
      </trkpt>
      <trkpt lat="49.68658" lon="5.7647">
        <ele>365.8</ele>
        <time>2020-06-25T19:35:10Z</time>
      </trkpt>
      <trkpt lat="49.68658" lon="5.76478">
        <ele>365.9</ele>
        <time>2020-06-25T19:35:11Z</time>
      </trkpt>
      <trkpt lat="49.68658" lon="5.76486">
        <ele>366</ele>
        <time>2020-06-25T19:35:12Z</time>
      </trkpt>
      <trkpt lat="49.68658" lon="5.76494">
        <ele>366.1</ele>
        <time>2020-06-25T19:35:13Z</time>
      </trkpt>
      <trkpt lat="49.68659" lon="5.76502">
        <ele>366.1</ele>
        <time>2020-06-25T19:35:14Z</time>
      </trkpt>
      <trkpt lat="49.6866" lon="5.76511">
        <ele>366.2</ele>
        <time>2020-06-25T19:35:15Z</time>
      </trkpt>
      <trkpt lat="49.6866" lon="5.76518">
        <ele>366.3</ele>
        <time>2020-06-25T19:35:16Z</time>
      </trkpt>
      <trkpt lat="49.6866" lon="5.76524">
        <ele>366.4</ele>
        <time>2020-06-25T19:35:17Z</time>
      </trkpt>
      <trkpt lat="49.6866" lon="5.76532">
        <ele>366.6</ele>
        <time>2020-06-25T19:35:18Z</time>
      </trkpt>
      <trkpt lat="49.68659" lon="5.76538">
        <ele>366.7</ele>
        <time>2020-06-25T19:35:19Z</time>
      </trkpt>
      <trkpt lat="49.68659" lon="5.76544">
        <ele>366.8</ele>
        <time>2020-06-25T19:35:20Z</time>
      </trkpt>
      <trkpt lat="49.68659" lon="5.76551">
        <ele>366.9</ele>
        <time>2020-06-25T19:35:21Z</time>
      </trkpt>
      <trkpt lat="49.68658" lon="5.76559">
        <ele>367</ele>
        <time>2020-06-25T19:35:22Z</time>
      </trkpt>
      <trkpt lat="49.68658" lon="5.76568">
        <ele>367.1</ele>
        <time>2020-06-25T19:35:23Z</time>
      </trkpt>
      <trkpt lat="49.68658" lon="5.76577">
        <ele>367.2</ele>
        <time>2020-06-25T19:35:24Z</time>
      </trkpt>
      <trkpt lat="49.68658" lon="5.76586">
        <ele>367.3</ele>
        <time>2020-06-25T19:35:25Z</time>
      </trkpt>
      <trkpt lat="49.68659" lon="5.76595">
        <ele>367.4</ele>
        <time>2020-06-25T19:35:26Z</time>
      </trkpt>
      <trkpt lat="49.68659" lon="5.76603">
        <ele>367.5</ele>
        <time>2020-06-25T19:35:27Z</time>
      </trkpt>
      <trkpt lat="49.6866" lon="5.76612">
        <ele>367.6</ele>
        <time>2020-06-25T19:35:28Z</time>
      </trkpt>
      <trkpt lat="49.68661" lon="5.76619">
        <ele>367.7</ele>
        <time>2020-06-25T19:35:29Z</time>
      </trkpt>
      <trkpt lat="49.68661" lon="5.76627">
        <ele>367.8</ele>
        <time>2020-06-25T19:35:30Z</time>
      </trkpt>
      <trkpt lat="49.68661" lon="5.76634">
        <ele>367.9</ele>
        <time>2020-06-25T19:35:31Z</time>
      </trkpt>
      <trkpt lat="49.68661" lon="5.76641">
        <ele>368</ele>
        <time>2020-06-25T19:35:32Z</time>
      </trkpt>
      <trkpt lat="49.68661" lon="5.76649">
        <ele>368.1</ele>
        <time>2020-06-25T19:35:33Z</time>
      </trkpt>
      <trkpt lat="49.6866" lon="5.76656">
        <ele>368.2</ele>
        <time>2020-06-25T19:35:34Z</time>
      </trkpt>
      <trkpt lat="49.6866" lon="5.76663">
        <ele>368.3</ele>
        <time>2020-06-25T19:35:35Z</time>
      </trkpt>
      <trkpt lat="49.6866" lon="5.76671">
        <ele>368.4</ele>
        <time>2020-06-25T19:35:36Z</time>
      </trkpt>
      <trkpt lat="49.6866" lon="5.76678">
        <ele>368.6</ele>
        <time>2020-06-25T19:35:37Z</time>
      </trkpt>
      <trkpt lat="49.68659" lon="5.76686">
        <ele>368.7</ele>
        <time>2020-06-25T19:35:38Z</time>
      </trkpt>
      <trkpt lat="49.6866" lon="5.76694">
        <ele>368.8</ele>
        <time>2020-06-25T19:35:39Z</time>
      </trkpt>
      <trkpt lat="49.6866" lon="5.76703">
        <ele>369</ele>
        <time>2020-06-25T19:35:40Z</time>
      </trkpt>
      <trkpt lat="49.6866" lon="5.7671">
        <ele>369.1</ele>
        <time>2020-06-25T19:35:41Z</time>
      </trkpt>
      <trkpt lat="49.6866" lon="5.7672">
        <ele>369.3</ele>
        <time>2020-06-25T19:35:42Z</time>
      </trkpt>
      <trkpt lat="49.6866" lon="5.76728">
        <ele>369.4</ele>
        <time>2020-06-25T19:35:43Z</time>
      </trkpt>
      <trkpt lat="49.6866" lon="5.76737">
        <ele>369.5</ele>
        <time>2020-06-25T19:35:44Z</time>
      </trkpt>
      <trkpt lat="49.6866" lon="5.76744">
        <ele>369.6</ele>
        <time>2020-06-25T19:35:45Z</time>
      </trkpt>
      <trkpt lat="49.6866" lon="5.76753">
        <ele>369.7</ele>
        <time>2020-06-25T19:35:46Z</time>
      </trkpt>
      <trkpt lat="49.68661" lon="5.76761">
        <ele>369.8</ele>
        <time>2020-06-25T19:35:47Z</time>
      </trkpt>
      <trkpt lat="49.68661" lon="5.76769">
        <ele>369.8</ele>
        <time>2020-06-25T19:35:48Z</time>
      </trkpt>
      <trkpt lat="49.6866" lon="5.76776">
        <ele>369.9</ele>
        <time>2020-06-25T19:35:49Z</time>
      </trkpt>
      <trkpt lat="49.6866" lon="5.76783">
        <ele>369.9</ele>
        <time>2020-06-25T19:35:50Z</time>
      </trkpt>
      <trkpt lat="49.6866" lon="5.76791">
        <ele>370</ele>
        <time>2020-06-25T19:35:51Z</time>
      </trkpt>
      <trkpt lat="49.6866" lon="5.76798">
        <ele>370</ele>
        <time>2020-06-25T19:35:52Z</time>
      </trkpt>
      <trkpt lat="49.68659" lon="5.76803">
        <ele>370</ele>
        <time>2020-06-25T19:35:53Z</time>
      </trkpt>
      <trkpt lat="49.68658" lon="5.7681">
        <ele>370</ele>
        <time>2020-06-25T19:35:54Z</time>
      </trkpt>
      <trkpt lat="49.68658" lon="5.76818">
        <ele>370</ele>
        <time>2020-06-25T19:35:55Z</time>
      </trkpt>
      <trkpt lat="49.68657" lon="5.76826">
        <ele>370</ele>
        <time>2020-06-25T19:35:56Z</time>
      </trkpt>
      <trkpt lat="49.68658" lon="5.76834">
        <ele>370</ele>
        <time>2020-06-25T19:35:57Z</time>
      </trkpt>
      <trkpt lat="49.68658" lon="5.76842">
        <ele>370</ele>
        <time>2020-06-25T19:35:58Z</time>
      </trkpt>
      <trkpt lat="49.68659" lon="5.76851">
        <ele>370</ele>
        <time>2020-06-25T19:35:59Z</time>
      </trkpt>
      <trkpt lat="49.68659" lon="5.76858">
        <ele>370</ele>
        <time>2020-06-25T19:36:00Z</time>
      </trkpt>
      <trkpt lat="49.6866" lon="5.76868">
        <ele>370.1</ele>
        <time>2020-06-25T19:36:01Z</time>
      </trkpt>
      <trkpt lat="49.6866" lon="5.76876">
        <ele>370.1</ele>
        <time>2020-06-25T19:36:02Z</time>
      </trkpt>
      <trkpt lat="49.6866" lon="5.76883">
        <ele>370.1</ele>
        <time>2020-06-25T19:36:03Z</time>
      </trkpt>
      <trkpt lat="49.6866" lon="5.76891">
        <ele>370.2</ele>
        <time>2020-06-25T19:36:04Z</time>
      </trkpt>
      <trkpt lat="49.6866" lon="5.76902">
        <ele>370.2</ele>
        <time>2020-06-25T19:36:05Z</time>
      </trkpt>
      <trkpt lat="49.6866" lon="5.7691">
        <ele>370.3</ele>
        <time>2020-06-25T19:36:06Z</time>
      </trkpt>
      <trkpt lat="49.6866" lon="5.76916">
        <ele>370.3</ele>
        <time>2020-06-25T19:36:07Z</time>
      </trkpt>
      <trkpt lat="49.68661" lon="5.76923">
        <ele>370.2</ele>
        <time>2020-06-25T19:36:08Z</time>
      </trkpt>
      <trkpt lat="49.68662" lon="5.76931">
        <ele>370.2</ele>
        <time>2020-06-25T19:36:09Z</time>
      </trkpt>
      <trkpt lat="49.68662" lon="5.76938">
        <ele>370.2</ele>
        <time>2020-06-25T19:36:10Z</time>
      </trkpt>
      <trkpt lat="49.68662" lon="5.76944">
        <ele>370.2</ele>
        <time>2020-06-25T19:36:11Z</time>
      </trkpt>
      <trkpt lat="49.68662" lon="5.7695">
        <ele>370.2</ele>
        <time>2020-06-25T19:36:12Z</time>
      </trkpt>
      <trkpt lat="49.68662" lon="5.76958">
        <ele>370.2</ele>
        <time>2020-06-25T19:36:13Z</time>
      </trkpt>
      <trkpt lat="49.68662" lon="5.76967">
        <ele>370.1</ele>
        <time>2020-06-25T19:36:14Z</time>
      </trkpt>
      <trkpt lat="49.68663" lon="5.76977">
        <ele>370.1</ele>
        <time>2020-06-25T19:36:15Z</time>
      </trkpt>
      <trkpt lat="49.68664" lon="5.76986">
        <ele>370</ele>
        <time>2020-06-25T19:36:16Z</time>
      </trkpt>
      <trkpt lat="49.68663" lon="5.76994">
        <ele>369.9</ele>
        <time>2020-06-25T19:36:17Z</time>
      </trkpt>
      <trkpt lat="49.68663" lon="5.77003">
        <ele>369.8</ele>
        <time>2020-06-25T19:36:18Z</time>
      </trkpt>
      <trkpt lat="49.68663" lon="5.7701">
        <ele>369.8</ele>
        <time>2020-06-25T19:36:19Z</time>
      </trkpt>
      <trkpt lat="49.68664" lon="5.77018">
        <ele>369.7</ele>
        <time>2020-06-25T19:36:20Z</time>
      </trkpt>
      <trkpt lat="49.68664" lon="5.77025">
        <ele>369.6</ele>
        <time>2020-06-25T19:36:21Z</time>
      </trkpt>
      <trkpt lat="49.68664" lon="5.77035">
        <ele>369.5</ele>
        <time>2020-06-25T19:36:22Z</time>
      </trkpt>
      <trkpt lat="49.68666" lon="5.77046">
        <ele>369.3</ele>
        <time>2020-06-25T19:36:23Z</time>
      </trkpt>
      <trkpt lat="49.68667" lon="5.77057">
        <ele>369.2</ele>
        <time>2020-06-25T19:36:24Z</time>
      </trkpt>
      <trkpt lat="49.68667" lon="5.77062">
        <ele>369.1</ele>
        <time>2020-06-25T19:36:25Z</time>
      </trkpt>
      <trkpt lat="49.68668" lon="5.77069">
        <ele>369</ele>
        <time>2020-06-25T19:36:26Z</time>
      </trkpt>
      <trkpt lat="49.68668" lon="5.77079">
        <ele>368.9</ele>
        <time>2020-06-25T19:36:27Z</time>
      </trkpt>
      <trkpt lat="49.68668" lon="5.77087">
        <ele>368.8</ele>
        <time>2020-06-25T19:36:28Z</time>
      </trkpt>
      <trkpt lat="49.68668" lon="5.77095">
        <ele>368.7</ele>
        <time>2020-06-25T19:36:29Z</time>
      </trkpt>
      <trkpt lat="49.68668" lon="5.77103">
        <ele>368.6</ele>
        <time>2020-06-25T19:36:30Z</time>
      </trkpt>
      <trkpt lat="49.68668" lon="5.7711">
        <ele>368.5</ele>
        <time>2020-06-25T19:36:31Z</time>
      </trkpt>
      <trkpt lat="49.68668" lon="5.77117">
        <ele>368.4</ele>
        <time>2020-06-25T19:36:32Z</time>
      </trkpt>
      <trkpt lat="49.68668" lon="5.77126">
        <ele>368.3</ele>
        <time>2020-06-25T19:36:33Z</time>
      </trkpt>
      <trkpt lat="49.68668" lon="5.77137">
        <ele>368.2</ele>
        <time>2020-06-25T19:36:34Z</time>
      </trkpt>
      <trkpt lat="49.68667" lon="5.77146">
        <ele>368</ele>
        <time>2020-06-25T19:36:35Z</time>
      </trkpt>
      <trkpt lat="49.68668" lon="5.77155">
        <ele>367.9</ele>
        <time>2020-06-25T19:36:36Z</time>
      </trkpt>
      <trkpt lat="49.68668" lon="5.77166">
        <ele>367.7</ele>
        <time>2020-06-25T19:36:37Z</time>
      </trkpt>
      <trkpt lat="49.68668" lon="5.77174">
        <ele>367.5</ele>
        <time>2020-06-25T19:36:38Z</time>
      </trkpt>
      <trkpt lat="49.68668" lon="5.77182">
        <ele>367.5</ele>
        <time>2020-06-25T19:36:39Z</time>
      </trkpt>
      <trkpt lat="49.68668" lon="5.7719">
        <ele>367.4</ele>
        <time>2020-06-25T19:36:40Z</time>
      </trkpt>
      <trkpt lat="49.68668" lon="5.77196">
        <ele>367.4</ele>
        <time>2020-06-25T19:36:41Z</time>
      </trkpt>
      <trkpt lat="49.68668" lon="5.77205">
        <ele>367.3</ele>
        <time>2020-06-25T19:36:42Z</time>
      </trkpt>
      <trkpt lat="49.68668" lon="5.77213">
        <ele>367.2</ele>
        <time>2020-06-25T19:36:43Z</time>
      </trkpt>
      <trkpt lat="49.68668" lon="5.77222">
        <ele>367.1</ele>
        <time>2020-06-25T19:36:44Z</time>
      </trkpt>
      <trkpt lat="49.68669" lon="5.7723">
        <ele>367</ele>
        <time>2020-06-25T19:36:45Z</time>
      </trkpt>
      <trkpt lat="49.6867" lon="5.7724">
        <ele>366.9</ele>
        <time>2020-06-25T19:36:46Z</time>
      </trkpt>
      <trkpt lat="49.68671" lon="5.77249">
        <ele>366.8</ele>
        <time>2020-06-25T19:36:47Z</time>
      </trkpt>
      <trkpt lat="49.68671" lon="5.77256">
        <ele>366.7</ele>
        <time>2020-06-25T19:36:48Z</time>
      </trkpt>
      <trkpt lat="49.6867" lon="5.77263">
        <ele>366.7</ele>
        <time>2020-06-25T19:36:49Z</time>
      </trkpt>
      <trkpt lat="49.6867" lon="5.77271">
        <ele>366.6</ele>
        <time>2020-06-25T19:36:50Z</time>
      </trkpt>
      <trkpt lat="49.6867" lon="5.77278">
        <ele>366.6</ele>
        <time>2020-06-25T19:36:51Z</time>
      </trkpt>
      <trkpt lat="49.6867" lon="5.77285">
        <ele>366.5</ele>
        <time>2020-06-25T19:36:52Z</time>
      </trkpt>
      <trkpt lat="49.68669" lon="5.77289">
        <ele>366.5</ele>
        <time>2020-06-25T19:36:53Z</time>
      </trkpt>
      <trkpt lat="49.68669" lon="5.77297">
        <ele>366.5</ele>
        <time>2020-06-25T19:36:54Z</time>
      </trkpt>
      <trkpt lat="49.6867" lon="5.77306">
        <ele>366.4</ele>
        <time>2020-06-25T19:36:55Z</time>
      </trkpt>
      <trkpt lat="49.68671" lon="5.77314">
        <ele>366.4</ele>
        <time>2020-06-25T19:36:56Z</time>
      </trkpt>
      <trkpt lat="49.68671" lon="5.7732">
        <ele>366.3</ele>
        <time>2020-06-25T19:36:57Z</time>
      </trkpt>
      <trkpt lat="49.68671" lon="5.77327">
        <ele>366.3</ele>
        <time>2020-06-25T19:36:58Z</time>
      </trkpt>
      <trkpt lat="49.68671" lon="5.77335">
        <ele>366.3</ele>
        <time>2020-06-25T19:36:59Z</time>
      </trkpt>
      <trkpt lat="49.68671" lon="5.77342">
        <ele>366.2</ele>
        <time>2020-06-25T19:37:00Z</time>
      </trkpt>
      <trkpt lat="49.68672" lon="5.77349">
        <ele>366.2</ele>
        <time>2020-06-25T19:37:01Z</time>
      </trkpt>
      <trkpt lat="49.68671" lon="5.77355">
        <ele>366.2</ele>
        <time>2020-06-25T19:37:02Z</time>
      </trkpt>
      <trkpt lat="49.68671" lon="5.77361">
        <ele>366.2</ele>
        <time>2020-06-25T19:37:03Z</time>
      </trkpt>
      <trkpt lat="49.68671" lon="5.7737">
        <ele>366.2</ele>
        <time>2020-06-25T19:37:04Z</time>
      </trkpt>
      <trkpt lat="49.68671" lon="5.77379">
        <ele>366.2</ele>
        <time>2020-06-25T19:37:05Z</time>
      </trkpt>
      <trkpt lat="49.68671" lon="5.77388">
        <ele>366.1</ele>
        <time>2020-06-25T19:37:06Z</time>
      </trkpt>
      <trkpt lat="49.68671" lon="5.77396">
        <ele>366.1</ele>
        <time>2020-06-25T19:37:07Z</time>
      </trkpt>
      <trkpt lat="49.68671" lon="5.77404">
        <ele>366</ele>
        <time>2020-06-25T19:37:08Z</time>
      </trkpt>
      <trkpt lat="49.68672" lon="5.77413">
        <ele>366</ele>
        <time>2020-06-25T19:37:09Z</time>
      </trkpt>
      <trkpt lat="49.68672" lon="5.77419">
        <ele>365.9</ele>
        <time>2020-06-25T19:37:10Z</time>
      </trkpt>
      <trkpt lat="49.68672" lon="5.77427">
        <ele>365.9</ele>
        <time>2020-06-25T19:37:11Z</time>
      </trkpt>
      <trkpt lat="49.68672" lon="5.77434">
        <ele>365.9</ele>
        <time>2020-06-25T19:37:12Z</time>
      </trkpt>
      <trkpt lat="49.68673" lon="5.77443">
        <ele>365.8</ele>
        <time>2020-06-25T19:37:13Z</time>
      </trkpt>
      <trkpt lat="49.68673" lon="5.77451">
        <ele>365.7</ele>
        <time>2020-06-25T19:37:14Z</time>
      </trkpt>
      <trkpt lat="49.68674" lon="5.7746">
        <ele>365.7</ele>
        <time>2020-06-25T19:37:15Z</time>
      </trkpt>
      <trkpt lat="49.68675" lon="5.77469">
        <ele>365.6</ele>
        <time>2020-06-25T19:37:16Z</time>
      </trkpt>
      <trkpt lat="49.68677" lon="5.77478">
        <ele>365.6</ele>
        <time>2020-06-25T19:37:17Z</time>
      </trkpt>
      <trkpt lat="49.68677" lon="5.77487">
        <ele>365.5</ele>
        <time>2020-06-25T19:37:18Z</time>
      </trkpt>
      <trkpt lat="49.68678" lon="5.77495">
        <ele>365.5</ele>
        <time>2020-06-25T19:37:19Z</time>
      </trkpt>
      <trkpt lat="49.68677" lon="5.77504">
        <ele>365.5</ele>
        <time>2020-06-25T19:37:20Z</time>
      </trkpt>
      <trkpt lat="49.68677" lon="5.77512">
        <ele>365.5</ele>
        <time>2020-06-25T19:37:21Z</time>
      </trkpt>
      <trkpt lat="49.68678" lon="5.77522">
        <ele>365.5</ele>
        <time>2020-06-25T19:37:22Z</time>
      </trkpt>
      <trkpt lat="49.68678" lon="5.7753">
        <ele>365.5</ele>
        <time>2020-06-25T19:37:23Z</time>
      </trkpt>
      <trkpt lat="49.68678" lon="5.77537">
        <ele>365.5</ele>
        <time>2020-06-25T19:37:24Z</time>
      </trkpt>
      <trkpt lat="49.68678" lon="5.77542">
        <ele>365.5</ele>
        <time>2020-06-25T19:37:25Z</time>
      </trkpt>
      <trkpt lat="49.68677" lon="5.77548">
        <ele>365.5</ele>
        <time>2020-06-25T19:37:26Z</time>
      </trkpt>
      <trkpt lat="49.68677" lon="5.77557">
        <ele>365.5</ele>
        <time>2020-06-25T19:37:27Z</time>
      </trkpt>
      <trkpt lat="49.68677" lon="5.77564">
        <ele>365.5</ele>
        <time>2020-06-25T19:37:28Z</time>
      </trkpt>
      <trkpt lat="49.68676" lon="5.7757">
        <ele>365.5</ele>
        <time>2020-06-25T19:37:29Z</time>
      </trkpt>
      <trkpt lat="49.68676" lon="5.77577">
        <ele>365.6</ele>
        <time>2020-06-25T19:37:30Z</time>
      </trkpt>
      <trkpt lat="49.68677" lon="5.77585">
        <ele>365.6</ele>
        <time>2020-06-25T19:37:31Z</time>
      </trkpt>
      <trkpt lat="49.68677" lon="5.77592">
        <ele>365.6</ele>
        <time>2020-06-25T19:37:32Z</time>
      </trkpt>
      <trkpt lat="49.68677" lon="5.77601">
        <ele>365.7</ele>
        <time>2020-06-25T19:37:33Z</time>
      </trkpt>
      <trkpt lat="49.68678" lon="5.77608">
        <ele>365.7</ele>
        <time>2020-06-25T19:37:34Z</time>
      </trkpt>
      <trkpt lat="49.68678" lon="5.77615">
        <ele>365.8</ele>
        <time>2020-06-25T19:37:35Z</time>
      </trkpt>
      <trkpt lat="49.68679" lon="5.77623">
        <ele>365.8</ele>
        <time>2020-06-25T19:37:36Z</time>
      </trkpt>
      <trkpt lat="49.68679" lon="5.77631">
        <ele>365.8</ele>
        <time>2020-06-25T19:37:37Z</time>
      </trkpt>
      <trkpt lat="49.68679" lon="5.77639">
        <ele>366</ele>
        <time>2020-06-25T19:37:38Z</time>
      </trkpt>
      <trkpt lat="49.68679" lon="5.77646">
        <ele>366.1</ele>
        <time>2020-06-25T19:37:39Z</time>
      </trkpt>
      <trkpt lat="49.68679" lon="5.77654">
        <ele>366.2</ele>
        <time>2020-06-25T19:37:40Z</time>
      </trkpt>
      <trkpt lat="49.6868" lon="5.77662">
        <ele>366.3</ele>
        <time>2020-06-25T19:37:41Z</time>
      </trkpt>
      <trkpt lat="49.6868" lon="5.77669">
        <ele>366.3</ele>
        <time>2020-06-25T19:37:42Z</time>
      </trkpt>
      <trkpt lat="49.6868" lon="5.77677">
        <ele>366.4</ele>
        <time>2020-06-25T19:37:43Z</time>
      </trkpt>
      <trkpt lat="49.6868" lon="5.77685">
        <ele>366.4</ele>
        <time>2020-06-25T19:37:44Z</time>
      </trkpt>
      <trkpt lat="49.6868" lon="5.77692">
        <ele>366.5</ele>
        <time>2020-06-25T19:37:45Z</time>
      </trkpt>
      <trkpt lat="49.6868" lon="5.77699">
        <ele>366.6</ele>
        <time>2020-06-25T19:37:46Z</time>
      </trkpt>
      <trkpt lat="49.68681" lon="5.77708">
        <ele>366.7</ele>
        <time>2020-06-25T19:37:47Z</time>
      </trkpt>
      <trkpt lat="49.68681" lon="5.77715">
        <ele>366.7</ele>
        <time>2020-06-25T19:37:48Z</time>
      </trkpt>
      <trkpt lat="49.68681" lon="5.77723">
        <ele>366.8</ele>
        <time>2020-06-25T19:37:49Z</time>
      </trkpt>
      <trkpt lat="49.68681" lon="5.77731">
        <ele>366.9</ele>
        <time>2020-06-25T19:37:50Z</time>
      </trkpt>
      <trkpt lat="49.68681" lon="5.77738">
        <ele>366.9</ele>
        <time>2020-06-25T19:37:51Z</time>
      </trkpt>
      <trkpt lat="49.6868" lon="5.77745">
        <ele>367</ele>
        <time>2020-06-25T19:37:52Z</time>
      </trkpt>
      <trkpt lat="49.6868" lon="5.77753">
        <ele>367.1</ele>
        <time>2020-06-25T19:37:53Z</time>
      </trkpt>
      <trkpt lat="49.68679" lon="5.77761">
        <ele>367.2</ele>
        <time>2020-06-25T19:37:54Z</time>
      </trkpt>
      <trkpt lat="49.6868" lon="5.77769">
        <ele>367.2</ele>
        <time>2020-06-25T19:37:55Z</time>
      </trkpt>
      <trkpt lat="49.68681" lon="5.77778">
        <ele>367.3</ele>
        <time>2020-06-25T19:37:56Z</time>
      </trkpt>
      <trkpt lat="49.6868" lon="5.77787">
        <ele>367.3</ele>
        <time>2020-06-25T19:37:57Z</time>
      </trkpt>
      <trkpt lat="49.68681" lon="5.77795">
        <ele>367.4</ele>
        <time>2020-06-25T19:37:58Z</time>
      </trkpt>
      <trkpt lat="49.68681" lon="5.77803">
        <ele>367.5</ele>
        <time>2020-06-25T19:37:59Z</time>
      </trkpt>
      <trkpt lat="49.68681" lon="5.77812">
        <ele>367.5</ele>
        <time>2020-06-25T19:38:00Z</time>
      </trkpt>
      <trkpt lat="49.68681" lon="5.7782">
        <ele>367.6</ele>
        <time>2020-06-25T19:38:01Z</time>
      </trkpt>
      <trkpt lat="49.68681" lon="5.77827">
        <ele>367.6</ele>
        <time>2020-06-25T19:38:02Z</time>
      </trkpt>
      <trkpt lat="49.68681" lon="5.77835">
        <ele>367.6</ele>
        <time>2020-06-25T19:38:03Z</time>
      </trkpt>
      <trkpt lat="49.68681" lon="5.77842">
        <ele>367.7</ele>
        <time>2020-06-25T19:38:04Z</time>
      </trkpt>
      <trkpt lat="49.68681" lon="5.77849">
        <ele>367.7</ele>
        <time>2020-06-25T19:38:05Z</time>
      </trkpt>
      <trkpt lat="49.68681" lon="5.77856">
        <ele>367.7</ele>
        <time>2020-06-25T19:38:06Z</time>
      </trkpt>
      <trkpt lat="49.6868" lon="5.77861">
        <ele>367.8</ele>
        <time>2020-06-25T19:38:07Z</time>
      </trkpt>
      <trkpt lat="49.6868" lon="5.77867">
        <ele>367.8</ele>
        <time>2020-06-25T19:38:08Z</time>
      </trkpt>
      <trkpt lat="49.6868" lon="5.77875">
        <ele>368.1</ele>
        <time>2020-06-25T19:38:09Z</time>
      </trkpt>
      <trkpt lat="49.6868" lon="5.77882">
        <ele>368.2</ele>
        <time>2020-06-25T19:38:10Z</time>
      </trkpt>
      <trkpt lat="49.6868" lon="5.7789">
        <ele>368.3</ele>
        <time>2020-06-25T19:38:11Z</time>
      </trkpt>
      <trkpt lat="49.6868" lon="5.77898">
        <ele>368.5</ele>
        <time>2020-06-25T19:38:12Z</time>
      </trkpt>
      <trkpt lat="49.68681" lon="5.77906">
        <ele>368.6</ele>
        <time>2020-06-25T19:38:13Z</time>
      </trkpt>
      <trkpt lat="49.68681" lon="5.77914">
        <ele>368.7</ele>
        <time>2020-06-25T19:38:14Z</time>
      </trkpt>
      <trkpt lat="49.68681" lon="5.77922">
        <ele>368.8</ele>
        <time>2020-06-25T19:38:15Z</time>
      </trkpt>
      <trkpt lat="49.68682" lon="5.7793">
        <ele>368.9</ele>
        <time>2020-06-25T19:38:16Z</time>
      </trkpt>
      <trkpt lat="49.68682" lon="5.77938">
        <ele>369</ele>
        <time>2020-06-25T19:38:17Z</time>
      </trkpt>
      <trkpt lat="49.68682" lon="5.77947">
        <ele>369.1</ele>
        <time>2020-06-25T19:38:18Z</time>
      </trkpt>
      <trkpt lat="49.68682" lon="5.77955">
        <ele>369.2</ele>
        <time>2020-06-25T19:38:19Z</time>
      </trkpt>
      <trkpt lat="49.68682" lon="5.77964">
        <ele>369.3</ele>
        <time>2020-06-25T19:38:20Z</time>
      </trkpt>
      <trkpt lat="49.68682" lon="5.77972">
        <ele>369.4</ele>
        <time>2020-06-25T19:38:21Z</time>
      </trkpt>
      <trkpt lat="49.68683" lon="5.77979">
        <ele>369.5</ele>
        <time>2020-06-25T19:38:22Z</time>
      </trkpt>
      <trkpt lat="49.68684" lon="5.77988">
        <ele>369.5</ele>
        <time>2020-06-25T19:38:23Z</time>
      </trkpt>
      <trkpt lat="49.68684" lon="5.77997">
        <ele>369.6</ele>
        <time>2020-06-25T19:38:24Z</time>
      </trkpt>
      <trkpt lat="49.68684" lon="5.78005">
        <ele>369.8</ele>
        <time>2020-06-25T19:38:25Z</time>
      </trkpt>
      <trkpt lat="49.68684" lon="5.78014">
        <ele>369.9</ele>
        <time>2020-06-25T19:38:26Z</time>
      </trkpt>
      <trkpt lat="49.68683" lon="5.78022">
        <ele>370</ele>
        <time>2020-06-25T19:38:27Z</time>
      </trkpt>
      <trkpt lat="49.68684" lon="5.7803">
        <ele>370.1</ele>
        <time>2020-06-25T19:38:28Z</time>
      </trkpt>
      <trkpt lat="49.68684" lon="5.78038">
        <ele>370.1</ele>
        <time>2020-06-25T19:38:29Z</time>
      </trkpt>
      <trkpt lat="49.68685" lon="5.78047">
        <ele>370.2</ele>
        <time>2020-06-25T19:38:30Z</time>
      </trkpt>
      <trkpt lat="49.68684" lon="5.78055">
        <ele>370.3</ele>
        <time>2020-06-25T19:38:31Z</time>
      </trkpt>
      <trkpt lat="49.68684" lon="5.78064">
        <ele>370.3</ele>
        <time>2020-06-25T19:38:32Z</time>
      </trkpt>
      <trkpt lat="49.68685" lon="5.78072">
        <ele>370.4</ele>
        <time>2020-06-25T19:38:33Z</time>
      </trkpt>
      <trkpt lat="49.68685" lon="5.7808">
        <ele>370.4</ele>
        <time>2020-06-25T19:38:34Z</time>
      </trkpt>
      <trkpt lat="49.68685" lon="5.78088">
        <ele>370.5</ele>
        <time>2020-06-25T19:38:35Z</time>
      </trkpt>
      <trkpt lat="49.68685" lon="5.78095">
        <ele>370.5</ele>
        <time>2020-06-25T19:38:36Z</time>
      </trkpt>
      <trkpt lat="49.68685" lon="5.78104">
        <ele>370.6</ele>
        <time>2020-06-25T19:38:37Z</time>
      </trkpt>
      <trkpt lat="49.68685" lon="5.78112">
        <ele>370.7</ele>
        <time>2020-06-25T19:38:38Z</time>
      </trkpt>
      <trkpt lat="49.68684" lon="5.78121">
        <ele>370.7</ele>
        <time>2020-06-25T19:38:39Z</time>
      </trkpt>
      <trkpt lat="49.68685" lon="5.78129">
        <ele>370.7</ele>
        <time>2020-06-25T19:38:40Z</time>
      </trkpt>
      <trkpt lat="49.68685" lon="5.78138">
        <ele>370.8</ele>
        <time>2020-06-25T19:38:41Z</time>
      </trkpt>
      <trkpt lat="49.68683" lon="5.78148">
        <ele>370.8</ele>
        <time>2020-06-25T19:38:42Z</time>
      </trkpt>
      <trkpt lat="49.68683" lon="5.78156">
        <ele>370.9</ele>
        <time>2020-06-25T19:38:43Z</time>
      </trkpt>
      <trkpt lat="49.68683" lon="5.78165">
        <ele>371</ele>
        <time>2020-06-25T19:38:44Z</time>
      </trkpt>
      <trkpt lat="49.68683" lon="5.78174">
        <ele>371</ele>
        <time>2020-06-25T19:38:45Z</time>
      </trkpt>
      <trkpt lat="49.68683" lon="5.78183">
        <ele>371.1</ele>
        <time>2020-06-25T19:38:46Z</time>
      </trkpt>
      <trkpt lat="49.68685" lon="5.7819">
        <ele>371.1</ele>
        <time>2020-06-25T19:38:47Z</time>
      </trkpt>
      <trkpt lat="49.68685" lon="5.78199">
        <ele>371.2</ele>
        <time>2020-06-25T19:38:48Z</time>
      </trkpt>
      <trkpt lat="49.68685" lon="5.78206">
        <ele>371.2</ele>
        <time>2020-06-25T19:38:49Z</time>
      </trkpt>
      <trkpt lat="49.68686" lon="5.78214">
        <ele>371.3</ele>
        <time>2020-06-25T19:38:50Z</time>
      </trkpt>
      <trkpt lat="49.68686" lon="5.78221">
        <ele>371.3</ele>
        <time>2020-06-25T19:38:51Z</time>
      </trkpt>
      <trkpt lat="49.68685" lon="5.78229">
        <ele>371.4</ele>
        <time>2020-06-25T19:38:52Z</time>
      </trkpt>
      <trkpt lat="49.68685" lon="5.78237">
        <ele>371.5</ele>
        <time>2020-06-25T19:38:53Z</time>
      </trkpt>
      <trkpt lat="49.68684" lon="5.78245">
        <ele>371.5</ele>
        <time>2020-06-25T19:38:54Z</time>
      </trkpt>
      <trkpt lat="49.68683" lon="5.78254">
        <ele>371.6</ele>
        <time>2020-06-25T19:38:55Z</time>
      </trkpt>
      <trkpt lat="49.68683" lon="5.78262">
        <ele>371.7</ele>
        <time>2020-06-25T19:38:56Z</time>
      </trkpt>
      <trkpt lat="49.68683" lon="5.78269">
        <ele>371.7</ele>
        <time>2020-06-25T19:38:57Z</time>
      </trkpt>
      <trkpt lat="49.68683" lon="5.78277">
        <ele>371.7</ele>
        <time>2020-06-25T19:38:58Z</time>
      </trkpt>
      <trkpt lat="49.68683" lon="5.78284">
        <ele>371.7</ele>
        <time>2020-06-25T19:38:59Z</time>
      </trkpt>
      <trkpt lat="49.68683" lon="5.78291">
        <ele>371.7</ele>
        <time>2020-06-25T19:39:00Z</time>
      </trkpt>
      <trkpt lat="49.68683" lon="5.783">
        <ele>371.8</ele>
        <time>2020-06-25T19:39:01Z</time>
      </trkpt>
      <trkpt lat="49.68684" lon="5.78308">
        <ele>371.8</ele>
        <time>2020-06-25T19:39:02Z</time>
      </trkpt>
      <trkpt lat="49.68684" lon="5.78317">
        <ele>371.8</ele>
        <time>2020-06-25T19:39:03Z</time>
      </trkpt>
      <trkpt lat="49.68684" lon="5.78324">
        <ele>371.9</ele>
        <time>2020-06-25T19:39:04Z</time>
      </trkpt>
      <trkpt lat="49.68684" lon="5.78332">
        <ele>372</ele>
        <time>2020-06-25T19:39:05Z</time>
      </trkpt>
      <trkpt lat="49.68684" lon="5.78341">
        <ele>372.1</ele>
        <time>2020-06-25T19:39:06Z</time>
      </trkpt>
      <trkpt lat="49.68685" lon="5.78348">
        <ele>372.2</ele>
        <time>2020-06-25T19:39:07Z</time>
      </trkpt>
      <trkpt lat="49.68685" lon="5.78356">
        <ele>372.3</ele>
        <time>2020-06-25T19:39:08Z</time>
      </trkpt>
      <trkpt lat="49.68686" lon="5.78363">
        <ele>372.4</ele>
        <time>2020-06-25T19:39:09Z</time>
      </trkpt>
      <trkpt lat="49.68687" lon="5.7837">
        <ele>372.5</ele>
        <time>2020-06-25T19:39:10Z</time>
      </trkpt>
      <trkpt lat="49.68687" lon="5.78377">
        <ele>372.6</ele>
        <time>2020-06-25T19:39:11Z</time>
      </trkpt>
      <trkpt lat="49.68688" lon="5.78385">
        <ele>372.7</ele>
        <time>2020-06-25T19:39:12Z</time>
      </trkpt>
      <trkpt lat="49.6869" lon="5.78392">
        <ele>372.8</ele>
        <time>2020-06-25T19:39:13Z</time>
      </trkpt>
      <trkpt lat="49.68691" lon="5.78399">
        <ele>372.8</ele>
        <time>2020-06-25T19:39:14Z</time>
      </trkpt>
      <trkpt lat="49.68692" lon="5.78407">
        <ele>372.9</ele>
        <time>2020-06-25T19:39:15Z</time>
      </trkpt>
      <trkpt lat="49.68692" lon="5.78413">
        <ele>373</ele>
        <time>2020-06-25T19:39:16Z</time>
      </trkpt>
      <trkpt lat="49.68691" lon="5.78419">
        <ele>373.1</ele>
        <time>2020-06-25T19:39:17Z</time>
      </trkpt>
      <trkpt lat="49.68691" lon="5.78426">
        <ele>373.2</ele>
        <time>2020-06-25T19:39:18Z</time>
      </trkpt>
      <trkpt lat="49.68692" lon="5.78433">
        <ele>373.3</ele>
        <time>2020-06-25T19:39:19Z</time>
      </trkpt>
      <trkpt lat="49.68692" lon="5.78442">
        <ele>373.4</ele>
        <time>2020-06-25T19:39:20Z</time>
      </trkpt>
      <trkpt lat="49.68692" lon="5.7845">
        <ele>373.5</ele>
        <time>2020-06-25T19:39:21Z</time>
      </trkpt>
      <trkpt lat="49.68692" lon="5.78456">
        <ele>373.6</ele>
        <time>2020-06-25T19:39:22Z</time>
      </trkpt>
      <trkpt lat="49.68692" lon="5.78465">
        <ele>373.8</ele>
        <time>2020-06-25T19:39:23Z</time>
      </trkpt>
      <trkpt lat="49.68692" lon="5.78472">
        <ele>373.9</ele>
        <time>2020-06-25T19:39:24Z</time>
      </trkpt>
      <trkpt lat="49.68692" lon="5.78479">
        <ele>374</ele>
        <time>2020-06-25T19:39:25Z</time>
      </trkpt>
      <trkpt lat="49.68692" lon="5.78486">
        <ele>374.1</ele>
        <time>2020-06-25T19:39:26Z</time>
      </trkpt>
      <trkpt lat="49.68692" lon="5.78494">
        <ele>374.4</ele>
        <time>2020-06-25T19:39:27Z</time>
      </trkpt>
      <trkpt lat="49.68693" lon="5.78501">
        <ele>374.5</ele>
        <time>2020-06-25T19:39:28Z</time>
      </trkpt>
      <trkpt lat="49.68693" lon="5.78507">
        <ele>374.5</ele>
        <time>2020-06-25T19:39:29Z</time>
      </trkpt>
      <trkpt lat="49.68693" lon="5.78513">
        <ele>374.6</ele>
        <time>2020-06-25T19:39:30Z</time>
      </trkpt>
      <trkpt lat="49.68694" lon="5.78518">
        <ele>374.6</ele>
        <time>2020-06-25T19:39:31Z</time>
      </trkpt>
      <trkpt lat="49.68693" lon="5.78524">
        <ele>374.6</ele>
        <time>2020-06-25T19:39:32Z</time>
      </trkpt>
      <trkpt lat="49.68693" lon="5.7853">
        <ele>374.7</ele>
        <time>2020-06-25T19:39:33Z</time>
      </trkpt>
      <trkpt lat="49.68693" lon="5.78532">
        <ele>374.7</ele>
        <time>2020-06-25T19:39:34Z</time>
      </trkpt>
      <trkpt lat="49.68693" lon="5.78538">
        <ele>374.9</ele>
        <time>2020-06-25T19:39:35Z</time>
      </trkpt>
      <trkpt lat="49.68694" lon="5.7854">
        <ele>374.9</ele>
        <time>2020-06-25T19:39:36Z</time>
      </trkpt>
      <trkpt lat="49.68694" lon="5.78542">
        <ele>375</ele>
        <time>2020-06-25T19:39:37Z</time>
      </trkpt>
      <trkpt lat="49.68694" lon="5.78543">
        <ele>375</ele>
        <time>2020-06-25T19:39:38Z</time>
      </trkpt>
      <trkpt lat="49.68694" lon="5.78543">
        <ele>375</ele>
        <time>2020-06-25T19:39:39Z</time>
      </trkpt>
      <trkpt lat="49.68694" lon="5.78542">
        <ele>375.1</ele>
        <time>2020-06-25T19:39:40Z</time>
      </trkpt>
      <trkpt lat="49.68694" lon="5.78541">
        <ele>375.1</ele>
        <time>2020-06-25T19:39:41Z</time>
      </trkpt>
      <trkpt lat="49.68693" lon="5.7854">
        <ele>375.1</ele>
        <time>2020-06-25T19:39:42Z</time>
      </trkpt>
      <trkpt lat="49.68693" lon="5.78539">
        <ele>375.1</ele>
        <time>2020-06-25T19:39:43Z</time>
      </trkpt>
      <trkpt lat="49.68693" lon="5.78539">
        <ele>375.2</ele>
        <time>2020-06-25T19:39:44Z</time>
      </trkpt>
      <trkpt lat="49.68693" lon="5.78539">
        <ele>375.2</ele>
        <time>2020-06-25T19:39:45Z</time>
      </trkpt>
      <trkpt lat="49.68693" lon="5.78539">
        <ele>375.2</ele>
        <time>2020-06-25T19:39:46Z</time>
      </trkpt>
      <trkpt lat="49.68693" lon="5.78539">
        <ele>375.2</ele>
        <time>2020-06-25T19:39:47Z</time>
      </trkpt>
      <trkpt lat="49.68693" lon="5.78539">
        <ele>375.2</ele>
        <time>2020-06-25T19:39:48Z</time>
      </trkpt>
      <trkpt lat="49.68693" lon="5.78539">
        <ele>375.2</ele>
        <time>2020-06-25T19:39:49Z</time>
      </trkpt>
      <trkpt lat="49.68693" lon="5.78539">
        <ele>375.2</ele>
        <time>2020-06-25T19:39:50Z</time>
      </trkpt>
      <trkpt lat="49.68695" lon="5.78542">
        <ele>375.3</ele>
        <time>2020-06-25T19:41:55Z</time>
      </trkpt>
      <trkpt lat="49.68696" lon="5.78545">
        <ele>375.4</ele>
        <time>2020-06-25T19:41:56Z</time>
      </trkpt>
      <trkpt lat="49.68697" lon="5.78549">
        <ele>375.5</ele>
        <time>2020-06-25T19:41:57Z</time>
      </trkpt>
      <trkpt lat="49.68697" lon="5.78551">
        <ele>375.5</ele>
        <time>2020-06-25T19:41:58Z</time>
      </trkpt>
      <trkpt lat="49.68697" lon="5.78556">
        <ele>375.7</ele>
        <time>2020-06-25T19:41:59Z</time>
      </trkpt>
      <trkpt lat="49.68697" lon="5.78558">
        <ele>375.7</ele>
        <time>2020-06-25T19:42:00Z</time>
      </trkpt>
      <trkpt lat="49.68696" lon="5.78563">
        <ele>375.9</ele>
        <time>2020-06-25T19:42:01Z</time>
      </trkpt>
      <trkpt lat="49.68696" lon="5.78565">
        <ele>375.9</ele>
        <time>2020-06-25T19:42:02Z</time>
      </trkpt>
      <trkpt lat="49.68696" lon="5.7857">
        <ele>376</ele>
        <time>2020-06-25T19:42:03Z</time>
      </trkpt>
      <trkpt lat="49.68696" lon="5.78575">
        <ele>376.2</ele>
        <time>2020-06-25T19:42:04Z</time>
      </trkpt>
      <trkpt lat="49.68696" lon="5.78581">
        <ele>376.3</ele>
        <time>2020-06-25T19:42:05Z</time>
      </trkpt>
      <trkpt lat="49.68696" lon="5.78586">
        <ele>376.5</ele>
        <time>2020-06-25T19:42:06Z</time>
      </trkpt>
      <trkpt lat="49.68697" lon="5.78591">
        <ele>376.6</ele>
        <time>2020-06-25T19:42:07Z</time>
      </trkpt>
      <trkpt lat="49.68696" lon="5.78596">
        <ele>376.8</ele>
        <time>2020-06-25T19:42:08Z</time>
      </trkpt>
      <trkpt lat="49.68696" lon="5.78601">
        <ele>376.9</ele>
        <time>2020-06-25T19:42:09Z</time>
      </trkpt>
      <trkpt lat="49.68696" lon="5.78606">
        <ele>377.1</ele>
        <time>2020-06-25T19:42:10Z</time>
      </trkpt>
      <trkpt lat="49.68695" lon="5.78608">
        <ele>377.1</ele>
        <time>2020-06-25T19:42:11Z</time>
      </trkpt>
      <trkpt lat="49.68695" lon="5.78615">
        <ele>377.3</ele>
        <time>2020-06-25T19:42:12Z</time>
      </trkpt>
      <trkpt lat="49.68696" lon="5.7862">
        <ele>377.4</ele>
        <time>2020-06-25T19:42:13Z</time>
      </trkpt>
      <trkpt lat="49.68696" lon="5.78626">
        <ele>377.6</ele>
        <time>2020-06-25T19:42:14Z</time>
      </trkpt>
      <trkpt lat="49.68695" lon="5.78628">
        <ele>377.7</ele>
        <time>2020-06-25T19:42:15Z</time>
      </trkpt>
      <trkpt lat="49.68695" lon="5.78633">
        <ele>377.8</ele>
        <time>2020-06-25T19:42:16Z</time>
      </trkpt>
      <trkpt lat="49.68695" lon="5.78637">
        <ele>377.9</ele>
        <time>2020-06-25T19:42:17Z</time>
      </trkpt>
      <trkpt lat="49.68695" lon="5.78642">
        <ele>378</ele>
        <time>2020-06-25T19:42:18Z</time>
      </trkpt>
      <trkpt lat="49.68695" lon="5.78649">
        <ele>378.2</ele>
        <time>2020-06-25T19:42:19Z</time>
      </trkpt>
      <trkpt lat="49.68695" lon="5.78654">
        <ele>378.3</ele>
        <time>2020-06-25T19:42:20Z</time>
      </trkpt>
      <trkpt lat="49.68694" lon="5.78659">
        <ele>378.4</ele>
        <time>2020-06-25T19:42:21Z</time>
      </trkpt>
      <trkpt lat="49.68694" lon="5.78663">
        <ele>378.5</ele>
        <time>2020-06-25T19:42:22Z</time>
      </trkpt>
      <trkpt lat="49.68694" lon="5.78669">
        <ele>378.6</ele>
        <time>2020-06-25T19:42:23Z</time>
      </trkpt>
      <trkpt lat="49.68694" lon="5.78674">
        <ele>378.7</ele>
        <time>2020-06-25T19:42:24Z</time>
      </trkpt>
      <trkpt lat="49.68694" lon="5.7868">
        <ele>378.9</ele>
        <time>2020-06-25T19:42:25Z</time>
      </trkpt>
      <trkpt lat="49.68694" lon="5.78686">
        <ele>379</ele>
        <time>2020-06-25T19:42:26Z</time>
      </trkpt>
      <trkpt lat="49.68695" lon="5.78692">
        <ele>379.2</ele>
        <time>2020-06-25T19:42:27Z</time>
      </trkpt>
      <trkpt lat="49.68696" lon="5.78696">
        <ele>379.3</ele>
        <time>2020-06-25T19:42:28Z</time>
      </trkpt>
      <trkpt lat="49.68696" lon="5.78702">
        <ele>379.5</ele>
        <time>2020-06-25T19:42:29Z</time>
      </trkpt>
      <trkpt lat="49.68696" lon="5.78703">
        <ele>379.5</ele>
        <time>2020-06-25T19:42:30Z</time>
      </trkpt>
      <trkpt lat="49.68695" lon="5.78709">
        <ele>379.7</ele>
        <time>2020-06-25T19:42:31Z</time>
      </trkpt>
      <trkpt lat="49.68695" lon="5.78711">
        <ele>379.7</ele>
        <time>2020-06-25T19:42:32Z</time>
      </trkpt>
      <trkpt lat="49.68696" lon="5.78715">
        <ele>379.8</ele>
        <time>2020-06-25T19:42:33Z</time>
      </trkpt>
      <trkpt lat="49.68696" lon="5.7872">
        <ele>379.9</ele>
        <time>2020-06-25T19:42:34Z</time>
      </trkpt>
      <trkpt lat="49.68695" lon="5.78725">
        <ele>380</ele>
        <time>2020-06-25T19:42:35Z</time>
      </trkpt>
      <trkpt lat="49.68695" lon="5.78731">
        <ele>380.2</ele>
        <time>2020-06-25T19:42:36Z</time>
      </trkpt>
      <trkpt lat="49.68696" lon="5.78736">
        <ele>380.3</ele>
        <time>2020-06-25T19:42:37Z</time>
      </trkpt>
      <trkpt lat="49.68695" lon="5.78741">
        <ele>380.4</ele>
        <time>2020-06-25T19:42:38Z</time>
      </trkpt>
      <trkpt lat="49.68695" lon="5.78747">
        <ele>380.4</ele>
        <time>2020-06-25T19:42:39Z</time>
      </trkpt>
      <trkpt lat="49.68694" lon="5.78752">
        <ele>380.5</ele>
        <time>2020-06-25T19:42:40Z</time>
      </trkpt>
      <trkpt lat="49.68694" lon="5.78757">
        <ele>380.6</ele>
        <time>2020-06-25T19:42:41Z</time>
      </trkpt>
      <trkpt lat="49.68693" lon="5.78762">
        <ele>380.7</ele>
        <time>2020-06-25T19:42:42Z</time>
      </trkpt>
      <trkpt lat="49.68692" lon="5.78767">
        <ele>380.8</ele>
        <time>2020-06-25T19:42:43Z</time>
      </trkpt>
      <trkpt lat="49.68692" lon="5.78773">
        <ele>380.9</ele>
        <time>2020-06-25T19:42:44Z</time>
      </trkpt>
      <trkpt lat="49.68692" lon="5.78775">
        <ele>380.9</ele>
        <time>2020-06-25T19:42:45Z</time>
      </trkpt>
      <trkpt lat="49.68692" lon="5.78781">
        <ele>381</ele>
        <time>2020-06-25T19:42:46Z</time>
      </trkpt>
      <trkpt lat="49.68692" lon="5.78786">
        <ele>381</ele>
        <time>2020-06-25T19:42:47Z</time>
      </trkpt>
      <trkpt lat="49.68692" lon="5.78793">
        <ele>381.1</ele>
        <time>2020-06-25T19:42:48Z</time>
      </trkpt>
      <trkpt lat="49.68692" lon="5.78801">
        <ele>381.1</ele>
        <time>2020-06-25T19:42:49Z</time>
      </trkpt>
      <trkpt lat="49.68692" lon="5.78807">
        <ele>381.2</ele>
        <time>2020-06-25T19:42:50Z</time>
      </trkpt>
      <trkpt lat="49.68693" lon="5.78815">
        <ele>381.2</ele>
        <time>2020-06-25T19:42:51Z</time>
      </trkpt>
      <trkpt lat="49.68694" lon="5.78821">
        <ele>381.3</ele>
        <time>2020-06-25T19:42:52Z</time>
      </trkpt>
      <trkpt lat="49.68695" lon="5.78828">
        <ele>381.4</ele>
        <time>2020-06-25T19:42:53Z</time>
      </trkpt>
      <trkpt lat="49.68696" lon="5.78835">
        <ele>381.4</ele>
        <time>2020-06-25T19:42:54Z</time>
      </trkpt>
      <trkpt lat="49.68697" lon="5.78841">
        <ele>381.5</ele>
        <time>2020-06-25T19:42:55Z</time>
      </trkpt>
      <trkpt lat="49.68697" lon="5.78849">
        <ele>381.5</ele>
        <time>2020-06-25T19:42:56Z</time>
      </trkpt>
      <trkpt lat="49.68697" lon="5.78856">
        <ele>381.6</ele>
        <time>2020-06-25T19:42:57Z</time>
      </trkpt>
      <trkpt lat="49.68697" lon="5.78862">
        <ele>381.6</ele>
        <time>2020-06-25T19:42:58Z</time>
      </trkpt>
      <trkpt lat="49.68697" lon="5.78868">
        <ele>381.6</ele>
        <time>2020-06-25T19:42:59Z</time>
      </trkpt>
      <trkpt lat="49.68698" lon="5.78874">
        <ele>381.7</ele>
        <time>2020-06-25T19:43:00Z</time>
      </trkpt>
      <trkpt lat="49.68698" lon="5.7888">
        <ele>381.7</ele>
        <time>2020-06-25T19:43:01Z</time>
      </trkpt>
      <trkpt lat="49.68698" lon="5.78888">
        <ele>381.7</ele>
        <time>2020-06-25T19:43:02Z</time>
      </trkpt>
      <trkpt lat="49.68699" lon="5.78896">
        <ele>381.8</ele>
        <time>2020-06-25T19:43:03Z</time>
      </trkpt>
      <trkpt lat="49.687" lon="5.78903">
        <ele>381.9</ele>
        <time>2020-06-25T19:43:04Z</time>
      </trkpt>
      <trkpt lat="49.687" lon="5.78911">
        <ele>382</ele>
        <time>2020-06-25T19:43:05Z</time>
      </trkpt>
      <trkpt lat="49.68701" lon="5.78919">
        <ele>382</ele>
        <time>2020-06-25T19:43:06Z</time>
      </trkpt>
      <trkpt lat="49.68702" lon="5.78924">
        <ele>382.1</ele>
        <time>2020-06-25T19:43:07Z</time>
      </trkpt>
      <trkpt lat="49.68702" lon="5.78931">
        <ele>382.1</ele>
        <time>2020-06-25T19:43:08Z</time>
      </trkpt>
      <trkpt lat="49.68703" lon="5.78936">
        <ele>382.1</ele>
        <time>2020-06-25T19:43:09Z</time>
      </trkpt>
      <trkpt lat="49.68704" lon="5.7894">
        <ele>382.1</ele>
        <time>2020-06-25T19:43:10Z</time>
      </trkpt>
      <trkpt lat="49.68706" lon="5.78944">
        <ele>382.2</ele>
        <time>2020-06-25T19:43:11Z</time>
      </trkpt>
      <trkpt lat="49.68707" lon="5.78949">
        <ele>382.3</ele>
        <time>2020-06-25T19:43:12Z</time>
      </trkpt>
      <trkpt lat="49.68707" lon="5.7895">
        <ele>382.3</ele>
        <time>2020-06-25T19:43:13Z</time>
      </trkpt>
      <trkpt lat="49.68708" lon="5.78955">
        <ele>382.4</ele>
        <time>2020-06-25T19:43:14Z</time>
      </trkpt>
      <trkpt lat="49.68708" lon="5.78957">
        <ele>382.4</ele>
        <time>2020-06-25T19:43:15Z</time>
      </trkpt>
      <trkpt lat="49.68708" lon="5.78961">
        <ele>382.5</ele>
        <time>2020-06-25T19:43:16Z</time>
      </trkpt>
      <trkpt lat="49.68708" lon="5.78966">
        <ele>382.6</ele>
        <time>2020-06-25T19:43:17Z</time>
      </trkpt>
      <trkpt lat="49.68709" lon="5.78968">
        <ele>382.6</ele>
        <time>2020-06-25T19:43:18Z</time>
      </trkpt>
      <trkpt lat="49.68709" lon="5.78973">
        <ele>382.7</ele>
        <time>2020-06-25T19:43:19Z</time>
      </trkpt>
      <trkpt lat="49.6871" lon="5.78978">
        <ele>382.7</ele>
        <time>2020-06-25T19:43:20Z</time>
      </trkpt>
      <trkpt lat="49.68711" lon="5.78984">
        <ele>382.8</ele>
        <time>2020-06-25T19:43:21Z</time>
      </trkpt>
      <trkpt lat="49.68711" lon="5.78989">
        <ele>382.9</ele>
        <time>2020-06-25T19:43:22Z</time>
      </trkpt>
      <trkpt lat="49.68712" lon="5.78996">
        <ele>382.8</ele>
        <time>2020-06-25T19:43:23Z</time>
      </trkpt>
      <trkpt lat="49.68713" lon="5.79002">
        <ele>382.8</ele>
        <time>2020-06-25T19:43:24Z</time>
      </trkpt>
      <trkpt lat="49.68714" lon="5.79008">
        <ele>382.7</ele>
        <time>2020-06-25T19:43:25Z</time>
      </trkpt>
      <trkpt lat="49.68718" lon="5.7901">
        <ele>382.5</ele>
        <time>2020-06-25T19:43:26Z</time>
      </trkpt>
      <trkpt lat="49.68722" lon="5.79015">
        <ele>382.3</ele>
        <time>2020-06-25T19:43:27Z</time>
      </trkpt>
      <trkpt lat="49.68726" lon="5.79019">
        <ele>382.1</ele>
        <time>2020-06-25T19:43:28Z</time>
      </trkpt>
      <trkpt lat="49.68731" lon="5.79025">
        <ele>381.6</ele>
        <time>2020-06-25T19:43:29Z</time>
      </trkpt>
      <trkpt lat="49.68736" lon="5.79031">
        <ele>381.1</ele>
        <time>2020-06-25T19:43:30Z</time>
      </trkpt>
      <trkpt lat="49.68741" lon="5.79035">
        <ele>380.6</ele>
        <time>2020-06-25T19:43:31Z</time>
      </trkpt>
      <trkpt lat="49.68747" lon="5.79039">
        <ele>380.4</ele>
        <time>2020-06-25T19:43:32Z</time>
      </trkpt>
      <trkpt lat="49.68753" lon="5.79042">
        <ele>380.2</ele>
        <time>2020-06-25T19:43:33Z</time>
      </trkpt>
      <trkpt lat="49.68758" lon="5.79046">
        <ele>379.8</ele>
        <time>2020-06-25T19:43:34Z</time>
      </trkpt>
      <trkpt lat="49.68764" lon="5.7905">
        <ele>379.7</ele>
        <time>2020-06-25T19:43:35Z</time>
      </trkpt>
      <trkpt lat="49.68769" lon="5.79053">
        <ele>379.6</ele>
        <time>2020-06-25T19:43:36Z</time>
      </trkpt>
      <trkpt lat="49.68775" lon="5.79058">
        <ele>379.4</ele>
        <time>2020-06-25T19:43:37Z</time>
      </trkpt>
      <trkpt lat="49.6878" lon="5.79062">
        <ele>379.2</ele>
        <time>2020-06-25T19:43:38Z</time>
      </trkpt>
      <trkpt lat="49.68786" lon="5.79066">
        <ele>379.1</ele>
        <time>2020-06-25T19:43:39Z</time>
      </trkpt>
      <trkpt lat="49.68791" lon="5.7907">
        <ele>378.9</ele>
        <time>2020-06-25T19:43:40Z</time>
      </trkpt>
      <trkpt lat="49.68796" lon="5.79074">
        <ele>378.7</ele>
        <time>2020-06-25T19:43:41Z</time>
      </trkpt>
      <trkpt lat="49.68802" lon="5.79078">
        <ele>378.5</ele>
        <time>2020-06-25T19:43:42Z</time>
      </trkpt>
      <trkpt lat="49.68808" lon="5.79083">
        <ele>378.4</ele>
        <time>2020-06-25T19:43:43Z</time>
      </trkpt>
      <trkpt lat="49.68814" lon="5.79087">
        <ele>378.2</ele>
        <time>2020-06-25T19:43:44Z</time>
      </trkpt>
      <trkpt lat="49.6882" lon="5.7909">
        <ele>377.8</ele>
        <time>2020-06-25T19:43:45Z</time>
      </trkpt>
      <trkpt lat="49.68827" lon="5.79096">
        <ele>377.6</ele>
        <time>2020-06-25T19:43:46Z</time>
      </trkpt>
      <trkpt lat="49.68833" lon="5.791">
        <ele>377.4</ele>
        <time>2020-06-25T19:43:47Z</time>
      </trkpt>
      <trkpt lat="49.68838" lon="5.79105">
        <ele>377.2</ele>
        <time>2020-06-25T19:43:48Z</time>
      </trkpt>
      <trkpt lat="49.68844" lon="5.7911">
        <ele>377</ele>
        <time>2020-06-25T19:43:49Z</time>
      </trkpt>
      <trkpt lat="49.6885" lon="5.79115">
        <ele>376.8</ele>
        <time>2020-06-25T19:43:50Z</time>
      </trkpt>
      <trkpt lat="49.68856" lon="5.7912">
        <ele>376.5</ele>
        <time>2020-06-25T19:43:51Z</time>
      </trkpt>
      <trkpt lat="49.68862" lon="5.79125">
        <ele>376.3</ele>
        <time>2020-06-25T19:43:52Z</time>
      </trkpt>
      <trkpt lat="49.68868" lon="5.7913">
        <ele>376.1</ele>
        <time>2020-06-25T19:43:53Z</time>
      </trkpt>
      <trkpt lat="49.68874" lon="5.79135">
        <ele>375.9</ele>
        <time>2020-06-25T19:43:54Z</time>
      </trkpt>
      <trkpt lat="49.68881" lon="5.79141">
        <ele>375.7</ele>
        <time>2020-06-25T19:43:55Z</time>
      </trkpt>
      <trkpt lat="49.68887" lon="5.79146">
        <ele>375.5</ele>
        <time>2020-06-25T19:43:56Z</time>
      </trkpt>
      <trkpt lat="49.68893" lon="5.79152">
        <ele>375.3</ele>
        <time>2020-06-25T19:43:57Z</time>
      </trkpt>
      <trkpt lat="49.68898" lon="5.7916">
        <ele>375.1</ele>
        <time>2020-06-25T19:43:58Z</time>
      </trkpt>
      <trkpt lat="49.68901" lon="5.79168">
        <ele>375</ele>
        <time>2020-06-25T19:43:59Z</time>
      </trkpt>
      <trkpt lat="49.68905" lon="5.79177">
        <ele>375</ele>
        <time>2020-06-25T19:44:00Z</time>
      </trkpt>
      <trkpt lat="49.6891" lon="5.79184">
        <ele>374.8</ele>
        <time>2020-06-25T19:44:01Z</time>
      </trkpt>
      <trkpt lat="49.68916" lon="5.7919">
        <ele>374.6</ele>
        <time>2020-06-25T19:44:02Z</time>
      </trkpt>
      <trkpt lat="49.68922" lon="5.79193">
        <ele>374.6</ele>
        <time>2020-06-25T19:44:03Z</time>
      </trkpt>
      <trkpt lat="49.68929" lon="5.79197">
        <ele>374.5</ele>
        <time>2020-06-25T19:44:04Z</time>
      </trkpt>
      <trkpt lat="49.68936" lon="5.792">
        <ele>374.1</ele>
        <time>2020-06-25T19:44:05Z</time>
      </trkpt>
      <trkpt lat="49.68943" lon="5.79204">
        <ele>373.6</ele>
        <time>2020-06-25T19:44:06Z</time>
      </trkpt>
      <trkpt lat="49.68949" lon="5.79209">
        <ele>373.2</ele>
        <time>2020-06-25T19:44:07Z</time>
      </trkpt>
      <trkpt lat="49.68956" lon="5.79214">
        <ele>372.8</ele>
        <time>2020-06-25T19:44:08Z</time>
      </trkpt>
      <trkpt lat="49.68962" lon="5.79221">
        <ele>372.5</ele>
        <time>2020-06-25T19:44:09Z</time>
      </trkpt>
      <trkpt lat="49.68969" lon="5.79228">
        <ele>372.2</ele>
        <time>2020-06-25T19:44:10Z</time>
      </trkpt>
      <trkpt lat="49.68975" lon="5.79234">
        <ele>372</ele>
        <time>2020-06-25T19:44:11Z</time>
      </trkpt>
      <trkpt lat="49.68981" lon="5.7924">
        <ele>371.7</ele>
        <time>2020-06-25T19:44:12Z</time>
      </trkpt>
      <trkpt lat="49.68988" lon="5.79247">
        <ele>371.5</ele>
        <time>2020-06-25T19:44:13Z</time>
      </trkpt>
      <trkpt lat="49.68994" lon="5.79254">
        <ele>371.2</ele>
        <time>2020-06-25T19:44:14Z</time>
      </trkpt>
      <trkpt lat="49.69001" lon="5.7926">
        <ele>370.9</ele>
        <time>2020-06-25T19:44:15Z</time>
      </trkpt>
      <trkpt lat="49.69007" lon="5.79267">
        <ele>370.6</ele>
        <time>2020-06-25T19:44:16Z</time>
      </trkpt>
      <trkpt lat="49.69013" lon="5.79273">
        <ele>370.3</ele>
        <time>2020-06-25T19:44:17Z</time>
      </trkpt>
      <trkpt lat="49.6902" lon="5.7928">
        <ele>370.1</ele>
        <time>2020-06-25T19:44:18Z</time>
      </trkpt>
      <trkpt lat="49.69026" lon="5.79286">
        <ele>369.8</ele>
        <time>2020-06-25T19:44:19Z</time>
      </trkpt>
      <trkpt lat="49.69033" lon="5.79293">
        <ele>369.5</ele>
        <time>2020-06-25T19:44:20Z</time>
      </trkpt>
      <trkpt lat="49.6904" lon="5.793">
        <ele>369.2</ele>
        <time>2020-06-25T19:44:21Z</time>
      </trkpt>
      <trkpt lat="49.69047" lon="5.79307">
        <ele>369</ele>
        <time>2020-06-25T19:44:22Z</time>
      </trkpt>
      <trkpt lat="49.69053" lon="5.79315">
        <ele>368.7</ele>
        <time>2020-06-25T19:44:23Z</time>
      </trkpt>
      <trkpt lat="49.6906" lon="5.79323">
        <ele>368.4</ele>
        <time>2020-06-25T19:44:24Z</time>
      </trkpt>
      <trkpt lat="49.69067" lon="5.79331">
        <ele>368.1</ele>
        <time>2020-06-25T19:44:25Z</time>
      </trkpt>
      <trkpt lat="49.69073" lon="5.79338">
        <ele>367.9</ele>
        <time>2020-06-25T19:44:26Z</time>
      </trkpt>
      <trkpt lat="49.6908" lon="5.79346">
        <ele>367.6</ele>
        <time>2020-06-25T19:44:27Z</time>
      </trkpt>
      <trkpt lat="49.69087" lon="5.79354">
        <ele>367.3</ele>
        <time>2020-06-25T19:44:28Z</time>
      </trkpt>
      <trkpt lat="49.69094" lon="5.79362">
        <ele>367</ele>
        <time>2020-06-25T19:44:29Z</time>
      </trkpt>
      <trkpt lat="49.691" lon="5.79371">
        <ele>366.8</ele>
        <time>2020-06-25T19:44:30Z</time>
      </trkpt>
      <trkpt lat="49.69106" lon="5.79379">
        <ele>366.5</ele>
        <time>2020-06-25T19:44:31Z</time>
      </trkpt>
      <trkpt lat="49.69112" lon="5.79387">
        <ele>366.3</ele>
        <time>2020-06-25T19:44:32Z</time>
      </trkpt>
      <trkpt lat="49.69118" lon="5.79395">
        <ele>366.1</ele>
        <time>2020-06-25T19:44:33Z</time>
      </trkpt>
      <trkpt lat="49.69124" lon="5.79404">
        <ele>365.9</ele>
        <time>2020-06-25T19:44:34Z</time>
      </trkpt>
      <trkpt lat="49.69129" lon="5.79413">
        <ele>365.6</ele>
        <time>2020-06-25T19:44:35Z</time>
      </trkpt>
      <trkpt lat="49.69135" lon="5.79423">
        <ele>365.4</ele>
        <time>2020-06-25T19:44:36Z</time>
      </trkpt>
      <trkpt lat="49.69141" lon="5.79432">
        <ele>365.2</ele>
        <time>2020-06-25T19:44:37Z</time>
      </trkpt>
      <trkpt lat="49.69146" lon="5.79441">
        <ele>365.1</ele>
        <time>2020-06-25T19:44:38Z</time>
      </trkpt>
      <trkpt lat="49.69152" lon="5.79451">
        <ele>364.9</ele>
        <time>2020-06-25T19:44:39Z</time>
      </trkpt>
      <trkpt lat="49.69158" lon="5.7946">
        <ele>364.7</ele>
        <time>2020-06-25T19:44:40Z</time>
      </trkpt>
      <trkpt lat="49.69164" lon="5.7947">
        <ele>364.5</ele>
        <time>2020-06-25T19:44:41Z</time>
      </trkpt>
      <trkpt lat="49.6917" lon="5.7948">
        <ele>364.3</ele>
        <time>2020-06-25T19:44:42Z</time>
      </trkpt>
      <trkpt lat="49.69176" lon="5.7949">
        <ele>364.1</ele>
        <time>2020-06-25T19:44:43Z</time>
      </trkpt>
      <trkpt lat="49.69182" lon="5.795">
        <ele>364</ele>
        <time>2020-06-25T19:44:44Z</time>
      </trkpt>
      <trkpt lat="49.69188" lon="5.79509">
        <ele>364.1</ele>
        <time>2020-06-25T19:44:45Z</time>
      </trkpt>
      <trkpt lat="49.69194" lon="5.79519">
        <ele>364.1</ele>
        <time>2020-06-25T19:44:46Z</time>
      </trkpt>
      <trkpt lat="49.692" lon="5.79529">
        <ele>364.3</ele>
        <time>2020-06-25T19:44:47Z</time>
      </trkpt>
      <trkpt lat="49.69205" lon="5.7954">
        <ele>364.3</ele>
        <time>2020-06-25T19:44:48Z</time>
      </trkpt>
      <trkpt lat="49.6921" lon="5.7955">
        <ele>364.1</ele>
        <time>2020-06-25T19:44:49Z</time>
      </trkpt>
      <trkpt lat="49.69216" lon="5.79559">
        <ele>363.9</ele>
        <time>2020-06-25T19:44:50Z</time>
      </trkpt>
      <trkpt lat="49.69221" lon="5.79569">
        <ele>363.7</ele>
        <time>2020-06-25T19:44:51Z</time>
      </trkpt>
      <trkpt lat="49.69226" lon="5.79578">
        <ele>363.6</ele>
        <time>2020-06-25T19:44:52Z</time>
      </trkpt>
      <trkpt lat="49.69231" lon="5.79588">
        <ele>363.2</ele>
        <time>2020-06-25T19:44:53Z</time>
      </trkpt>
      <trkpt lat="49.69236" lon="5.79596">
        <ele>363</ele>
        <time>2020-06-25T19:44:54Z</time>
      </trkpt>
      <trkpt lat="49.6924" lon="5.79605">
        <ele>362.8</ele>
        <time>2020-06-25T19:44:55Z</time>
      </trkpt>
      <trkpt lat="49.69245" lon="5.79614">
        <ele>362.5</ele>
        <time>2020-06-25T19:44:56Z</time>
      </trkpt>
      <trkpt lat="49.69251" lon="5.79623">
        <ele>362.4</ele>
        <time>2020-06-25T19:44:57Z</time>
      </trkpt>
      <trkpt lat="49.69256" lon="5.79632">
        <ele>362.3</ele>
        <time>2020-06-25T19:44:58Z</time>
      </trkpt>
      <trkpt lat="49.69261" lon="5.79641">
        <ele>362.2</ele>
        <time>2020-06-25T19:44:59Z</time>
      </trkpt>
      <trkpt lat="49.69266" lon="5.79651">
        <ele>362.1</ele>
        <time>2020-06-25T19:45:00Z</time>
      </trkpt>
      <trkpt lat="49.69271" lon="5.79661">
        <ele>362</ele>
        <time>2020-06-25T19:45:01Z</time>
      </trkpt>
      <trkpt lat="49.69276" lon="5.79671">
        <ele>362</ele>
        <time>2020-06-25T19:45:02Z</time>
      </trkpt>
      <trkpt lat="49.69281" lon="5.79681">
        <ele>362</ele>
        <time>2020-06-25T19:45:03Z</time>
      </trkpt>
      <trkpt lat="49.69286" lon="5.79691">
        <ele>362</ele>
        <time>2020-06-25T19:45:04Z</time>
      </trkpt>
      <trkpt lat="49.6929" lon="5.79701">
        <ele>362.1</ele>
        <time>2020-06-25T19:45:05Z</time>
      </trkpt>
      <trkpt lat="49.69295" lon="5.7971">
        <ele>362.3</ele>
        <time>2020-06-25T19:45:06Z</time>
      </trkpt>
      <trkpt lat="49.69299" lon="5.79718">
        <ele>362.5</ele>
        <time>2020-06-25T19:45:07Z</time>
      </trkpt>
      <trkpt lat="49.69304" lon="5.79727">
        <ele>362.7</ele>
        <time>2020-06-25T19:45:08Z</time>
      </trkpt>
      <trkpt lat="49.69308" lon="5.79737">
        <ele>362.2</ele>
        <time>2020-06-25T19:45:09Z</time>
      </trkpt>
      <trkpt lat="49.69312" lon="5.79746">
        <ele>361.9</ele>
        <time>2020-06-25T19:45:10Z</time>
      </trkpt>
      <trkpt lat="49.69316" lon="5.79755">
        <ele>361.6</ele>
        <time>2020-06-25T19:45:11Z</time>
      </trkpt>
      <trkpt lat="49.6932" lon="5.79764">
        <ele>361.5</ele>
        <time>2020-06-25T19:45:12Z</time>
      </trkpt>
      <trkpt lat="49.69324" lon="5.79773">
        <ele>361.5</ele>
        <time>2020-06-25T19:45:13Z</time>
      </trkpt>
      <trkpt lat="49.69328" lon="5.79782">
        <ele>361.5</ele>
        <time>2020-06-25T19:45:14Z</time>
      </trkpt>
      <trkpt lat="49.69331" lon="5.79792">
        <ele>361.5</ele>
        <time>2020-06-25T19:45:15Z</time>
      </trkpt>
      <trkpt lat="49.69335" lon="5.79801">
        <ele>361.5</ele>
        <time>2020-06-25T19:45:16Z</time>
      </trkpt>
      <trkpt lat="49.69339" lon="5.7981">
        <ele>361.5</ele>
        <time>2020-06-25T19:45:17Z</time>
      </trkpt>
      <trkpt lat="49.69343" lon="5.79819">
        <ele>361.6</ele>
        <time>2020-06-25T19:45:18Z</time>
      </trkpt>
      <trkpt lat="49.69347" lon="5.79829">
        <ele>361.6</ele>
        <time>2020-06-25T19:45:19Z</time>
      </trkpt>
      <trkpt lat="49.6935" lon="5.79838">
        <ele>361.6</ele>
        <time>2020-06-25T19:45:20Z</time>
      </trkpt>
      <trkpt lat="49.69354" lon="5.79848">
        <ele>361.7</ele>
        <time>2020-06-25T19:45:21Z</time>
      </trkpt>
      <trkpt lat="49.69358" lon="5.79857">
        <ele>361.8</ele>
        <time>2020-06-25T19:45:22Z</time>
      </trkpt>
      <trkpt lat="49.69362" lon="5.79866">
        <ele>361.9</ele>
        <time>2020-06-25T19:45:23Z</time>
      </trkpt>
      <trkpt lat="49.69366" lon="5.79876">
        <ele>362</ele>
        <time>2020-06-25T19:45:24Z</time>
      </trkpt>
      <trkpt lat="49.6937" lon="5.79885">
        <ele>362.2</ele>
        <time>2020-06-25T19:45:25Z</time>
      </trkpt>
      <trkpt lat="49.69374" lon="5.79895">
        <ele>362.5</ele>
        <time>2020-06-25T19:45:26Z</time>
      </trkpt>
      <trkpt lat="49.69378" lon="5.79904">
        <ele>362.4</ele>
        <time>2020-06-25T19:45:27Z</time>
      </trkpt>
      <trkpt lat="49.69382" lon="5.79913">
        <ele>362.3</ele>
        <time>2020-06-25T19:45:28Z</time>
      </trkpt>
      <trkpt lat="49.69386" lon="5.79922">
        <ele>362.2</ele>
        <time>2020-06-25T19:45:29Z</time>
      </trkpt>
      <trkpt lat="49.6939" lon="5.79931">
        <ele>362.1</ele>
        <time>2020-06-25T19:45:30Z</time>
      </trkpt>
      <trkpt lat="49.69393" lon="5.7994">
        <ele>362.1</ele>
        <time>2020-06-25T19:45:31Z</time>
      </trkpt>
      <trkpt lat="49.69397" lon="5.7995">
        <ele>362</ele>
        <time>2020-06-25T19:45:32Z</time>
      </trkpt>
      <trkpt lat="49.69401" lon="5.7996">
        <ele>362.1</ele>
        <time>2020-06-25T19:45:33Z</time>
      </trkpt>
      <trkpt lat="49.69405" lon="5.79968">
        <ele>362.1</ele>
        <time>2020-06-25T19:45:34Z</time>
      </trkpt>
      <trkpt lat="49.69409" lon="5.79976">
        <ele>362.2</ele>
        <time>2020-06-25T19:45:35Z</time>
      </trkpt>
      <trkpt lat="49.69413" lon="5.79984">
        <ele>362.3</ele>
        <time>2020-06-25T19:45:36Z</time>
      </trkpt>
      <trkpt lat="49.69416" lon="5.79992">
        <ele>362.4</ele>
        <time>2020-06-25T19:45:37Z</time>
      </trkpt>
      <trkpt lat="49.6942" lon="5.79999">
        <ele>362.5</ele>
        <time>2020-06-25T19:45:38Z</time>
      </trkpt>
      <trkpt lat="49.69423" lon="5.80006">
        <ele>362.7</ele>
        <time>2020-06-25T19:45:39Z</time>
      </trkpt>
      <trkpt lat="49.69426" lon="5.80013">
        <ele>362.8</ele>
        <time>2020-06-25T19:45:40Z</time>
      </trkpt>
      <trkpt lat="49.69429" lon="5.8002">
        <ele>362.8</ele>
        <time>2020-06-25T19:45:41Z</time>
      </trkpt>
      <trkpt lat="49.69431" lon="5.80027">
        <ele>362.9</ele>
        <time>2020-06-25T19:45:42Z</time>
      </trkpt>
      <trkpt lat="49.69434" lon="5.80033">
        <ele>362.9</ele>
        <time>2020-06-25T19:45:43Z</time>
      </trkpt>
      <trkpt lat="49.69436" lon="5.80041">
        <ele>362.8</ele>
        <time>2020-06-25T19:45:44Z</time>
      </trkpt>
      <trkpt lat="49.69437" lon="5.80048">
        <ele>362.9</ele>
        <time>2020-06-25T19:45:45Z</time>
      </trkpt>
      <trkpt lat="49.69438" lon="5.80056">
        <ele>363.1</ele>
        <time>2020-06-25T19:45:46Z</time>
      </trkpt>
      <trkpt lat="49.69438" lon="5.80064">
        <ele>363.2</ele>
        <time>2020-06-25T19:45:47Z</time>
      </trkpt>
      <trkpt lat="49.69438" lon="5.80071">
        <ele>363.3</ele>
        <time>2020-06-25T19:45:48Z</time>
      </trkpt>
      <trkpt lat="49.69439" lon="5.80079">
        <ele>363.4</ele>
        <time>2020-06-25T19:45:49Z</time>
      </trkpt>
      <trkpt lat="49.6944" lon="5.80086">
        <ele>363.4</ele>
        <time>2020-06-25T19:45:50Z</time>
      </trkpt>
      <trkpt lat="49.69442" lon="5.80092">
        <ele>363.3</ele>
        <time>2020-06-25T19:45:51Z</time>
      </trkpt>
      <trkpt lat="49.69445" lon="5.80097">
        <ele>363.3</ele>
        <time>2020-06-25T19:45:52Z</time>
      </trkpt>
      <trkpt lat="49.69448" lon="5.80102">
        <ele>363.3</ele>
        <time>2020-06-25T19:45:53Z</time>
      </trkpt>
      <trkpt lat="49.69453" lon="5.80105">
        <ele>363.3</ele>
        <time>2020-06-25T19:45:54Z</time>
      </trkpt>
      <trkpt lat="49.69457" lon="5.8011">
        <ele>363.4</ele>
        <time>2020-06-25T19:45:55Z</time>
      </trkpt>
      <trkpt lat="49.69461" lon="5.80114">
        <ele>363.4</ele>
        <time>2020-06-25T19:45:56Z</time>
      </trkpt>
      <trkpt lat="49.69465" lon="5.80118">
        <ele>363.4</ele>
        <time>2020-06-25T19:45:57Z</time>
      </trkpt>
      <trkpt lat="49.6947" lon="5.80122">
        <ele>363.4</ele>
        <time>2020-06-25T19:45:58Z</time>
      </trkpt>
      <trkpt lat="49.69473" lon="5.80128">
        <ele>363.4</ele>
        <time>2020-06-25T19:45:59Z</time>
      </trkpt>
      <trkpt lat="49.69475" lon="5.80135">
        <ele>363.4</ele>
        <time>2020-06-25T19:46:00Z</time>
      </trkpt>
      <trkpt lat="49.69477" lon="5.80141">
        <ele>363.4</ele>
        <time>2020-06-25T19:46:01Z</time>
      </trkpt>
      <trkpt lat="49.69478" lon="5.80148">
        <ele>363.4</ele>
        <time>2020-06-25T19:46:02Z</time>
      </trkpt>
      <trkpt lat="49.69482" lon="5.80153">
        <ele>363.4</ele>
        <time>2020-06-25T19:46:03Z</time>
      </trkpt>
      <trkpt lat="49.69484" lon="5.80159">
        <ele>363.5</ele>
        <time>2020-06-25T19:46:04Z</time>
      </trkpt>
      <trkpt lat="49.69487" lon="5.80165">
        <ele>363.5</ele>
        <time>2020-06-25T19:46:05Z</time>
      </trkpt>
      <trkpt lat="49.69489" lon="5.80171">
        <ele>363.5</ele>
        <time>2020-06-25T19:46:06Z</time>
      </trkpt>
      <trkpt lat="49.69491" lon="5.80178">
        <ele>363.6</ele>
        <time>2020-06-25T19:46:07Z</time>
      </trkpt>
      <trkpt lat="49.69493" lon="5.80184">
        <ele>363.7</ele>
        <time>2020-06-25T19:46:08Z</time>
      </trkpt>
      <trkpt lat="49.69495" lon="5.8019">
        <ele>363.8</ele>
        <time>2020-06-25T19:46:09Z</time>
      </trkpt>
      <trkpt lat="49.69498" lon="5.80196">
        <ele>363.9</ele>
        <time>2020-06-25T19:46:10Z</time>
      </trkpt>
      <trkpt lat="49.695" lon="5.80203">
        <ele>364</ele>
        <time>2020-06-25T19:46:11Z</time>
      </trkpt>
      <trkpt lat="49.69503" lon="5.80209">
        <ele>364.1</ele>
        <time>2020-06-25T19:46:12Z</time>
      </trkpt>
      <trkpt lat="49.69506" lon="5.80214">
        <ele>364.2</ele>
        <time>2020-06-25T19:46:13Z</time>
      </trkpt>
      <trkpt lat="49.69508" lon="5.8022">
        <ele>364.4</ele>
        <time>2020-06-25T19:46:14Z</time>
      </trkpt>
      <trkpt lat="49.69511" lon="5.80226">
        <ele>364.5</ele>
        <time>2020-06-25T19:46:15Z</time>
      </trkpt>
      <trkpt lat="49.69513" lon="5.80232">
        <ele>364.6</ele>
        <time>2020-06-25T19:46:16Z</time>
      </trkpt>
      <trkpt lat="49.69515" lon="5.80238">
        <ele>364.7</ele>
        <time>2020-06-25T19:46:17Z</time>
      </trkpt>
      <trkpt lat="49.69517" lon="5.80244">
        <ele>364.8</ele>
        <time>2020-06-25T19:46:18Z</time>
      </trkpt>
      <trkpt lat="49.69519" lon="5.8025">
        <ele>364.9</ele>
        <time>2020-06-25T19:46:19Z</time>
      </trkpt>
      <trkpt lat="49.69522" lon="5.80256">
        <ele>365.1</ele>
        <time>2020-06-25T19:46:20Z</time>
      </trkpt>
      <trkpt lat="49.69524" lon="5.80262">
        <ele>365.2</ele>
        <time>2020-06-25T19:46:21Z</time>
      </trkpt>
      <trkpt lat="49.69527" lon="5.80267">
        <ele>365.3</ele>
        <time>2020-06-25T19:46:22Z</time>
      </trkpt>
      <trkpt lat="49.6953" lon="5.80273">
        <ele>365.5</ele>
        <time>2020-06-25T19:46:23Z</time>
      </trkpt>
      <trkpt lat="49.69532" lon="5.80279">
        <ele>365.6</ele>
        <time>2020-06-25T19:46:24Z</time>
      </trkpt>
      <trkpt lat="49.69535" lon="5.80285">
        <ele>365.8</ele>
        <time>2020-06-25T19:46:25Z</time>
      </trkpt>
      <trkpt lat="49.69537" lon="5.80292">
        <ele>365.9</ele>
        <time>2020-06-25T19:46:26Z</time>
      </trkpt>
      <trkpt lat="49.6954" lon="5.80298">
        <ele>366.1</ele>
        <time>2020-06-25T19:46:27Z</time>
      </trkpt>
      <trkpt lat="49.69543" lon="5.80306">
        <ele>366.3</ele>
        <time>2020-06-25T19:46:28Z</time>
      </trkpt>
      <trkpt lat="49.69547" lon="5.80314">
        <ele>366.5</ele>
        <time>2020-06-25T19:46:29Z</time>
      </trkpt>
      <trkpt lat="49.6955" lon="5.80321">
        <ele>366.7</ele>
        <time>2020-06-25T19:46:30Z</time>
      </trkpt>
      <trkpt lat="49.69554" lon="5.80328">
        <ele>366.8</ele>
        <time>2020-06-25T19:46:31Z</time>
      </trkpt>
      <trkpt lat="49.69557" lon="5.80335">
        <ele>366.9</ele>
        <time>2020-06-25T19:46:32Z</time>
      </trkpt>
      <trkpt lat="49.6956" lon="5.80341">
        <ele>366.9</ele>
        <time>2020-06-25T19:46:33Z</time>
      </trkpt>
      <trkpt lat="49.69563" lon="5.80348">
        <ele>367</ele>
        <time>2020-06-25T19:46:34Z</time>
      </trkpt>
      <trkpt lat="49.69565" lon="5.80354">
        <ele>367.1</ele>
        <time>2020-06-25T19:46:35Z</time>
      </trkpt>
      <trkpt lat="49.69568" lon="5.8036">
        <ele>367.1</ele>
        <time>2020-06-25T19:46:36Z</time>
      </trkpt>
      <trkpt lat="49.6957" lon="5.80366">
        <ele>367.2</ele>
        <time>2020-06-25T19:46:37Z</time>
      </trkpt>
      <trkpt lat="49.69572" lon="5.80371">
        <ele>367.3</ele>
        <time>2020-06-25T19:46:38Z</time>
      </trkpt>
      <trkpt lat="49.69575" lon="5.80376">
        <ele>367.3</ele>
        <time>2020-06-25T19:46:39Z</time>
      </trkpt>
      <trkpt lat="49.69577" lon="5.80382">
        <ele>367.4</ele>
        <time>2020-06-25T19:46:40Z</time>
      </trkpt>
      <trkpt lat="49.69579" lon="5.80389">
        <ele>367.5</ele>
        <time>2020-06-25T19:46:41Z</time>
      </trkpt>
      <trkpt lat="49.69581" lon="5.80395">
        <ele>367.5</ele>
        <time>2020-06-25T19:46:42Z</time>
      </trkpt>
      <trkpt lat="49.69583" lon="5.80401">
        <ele>367.6</ele>
        <time>2020-06-25T19:46:43Z</time>
      </trkpt>
      <trkpt lat="49.69586" lon="5.80407">
        <ele>367.6</ele>
        <time>2020-06-25T19:46:44Z</time>
      </trkpt>
      <trkpt lat="49.69588" lon="5.80413">
        <ele>367.7</ele>
        <time>2020-06-25T19:46:45Z</time>
      </trkpt>
      <trkpt lat="49.69591" lon="5.80419">
        <ele>367.8</ele>
        <time>2020-06-25T19:46:46Z</time>
      </trkpt>
      <trkpt lat="49.69593" lon="5.80425">
        <ele>367.9</ele>
        <time>2020-06-25T19:46:47Z</time>
      </trkpt>
      <trkpt lat="49.69596" lon="5.80431">
        <ele>367.9</ele>
        <time>2020-06-25T19:46:48Z</time>
      </trkpt>
      <trkpt lat="49.69598" lon="5.80436">
        <ele>368</ele>
        <time>2020-06-25T19:46:49Z</time>
      </trkpt>
      <trkpt lat="49.69601" lon="5.80442">
        <ele>368</ele>
        <time>2020-06-25T19:46:50Z</time>
      </trkpt>
      <trkpt lat="49.69603" lon="5.80447">
        <ele>368.1</ele>
        <time>2020-06-25T19:46:51Z</time>
      </trkpt>
      <trkpt lat="49.69605" lon="5.80452">
        <ele>368.2</ele>
        <time>2020-06-25T19:46:52Z</time>
      </trkpt>
      <trkpt lat="49.69608" lon="5.80457">
        <ele>368.2</ele>
        <time>2020-06-25T19:46:53Z</time>
      </trkpt>
      <trkpt lat="49.6961" lon="5.80463">
        <ele>368.3</ele>
        <time>2020-06-25T19:46:54Z</time>
      </trkpt>
      <trkpt lat="49.69613" lon="5.80468">
        <ele>368.3</ele>
        <time>2020-06-25T19:46:55Z</time>
      </trkpt>
      <trkpt lat="49.69615" lon="5.80473">
        <ele>368.4</ele>
        <time>2020-06-25T19:46:56Z</time>
      </trkpt>
      <trkpt lat="49.69617" lon="5.80478">
        <ele>368.5</ele>
        <time>2020-06-25T19:46:57Z</time>
      </trkpt>
      <trkpt lat="49.69619" lon="5.80483">
        <ele>368.5</ele>
        <time>2020-06-25T19:46:58Z</time>
      </trkpt>
      <trkpt lat="49.69622" lon="5.80488">
        <ele>368.6</ele>
        <time>2020-06-25T19:46:59Z</time>
      </trkpt>
      <trkpt lat="49.69623" lon="5.80492">
        <ele>368.6</ele>
        <time>2020-06-25T19:47:00Z</time>
      </trkpt>
      <trkpt lat="49.69625" lon="5.80497">
        <ele>368.7</ele>
        <time>2020-06-25T19:47:01Z</time>
      </trkpt>
      <trkpt lat="49.69627" lon="5.80503">
        <ele>368.7</ele>
        <time>2020-06-25T19:47:02Z</time>
      </trkpt>
      <trkpt lat="49.69629" lon="5.80508">
        <ele>368.8</ele>
        <time>2020-06-25T19:47:03Z</time>
      </trkpt>
      <trkpt lat="49.69632" lon="5.80514">
        <ele>368.9</ele>
        <time>2020-06-25T19:47:04Z</time>
      </trkpt>
      <trkpt lat="49.69634" lon="5.80521">
        <ele>368.9</ele>
        <time>2020-06-25T19:47:05Z</time>
      </trkpt>
      <trkpt lat="49.69637" lon="5.80529">
        <ele>369</ele>
        <time>2020-06-25T19:47:06Z</time>
      </trkpt>
      <trkpt lat="49.6964" lon="5.80534">
        <ele>369.1</ele>
        <time>2020-06-25T19:47:07Z</time>
      </trkpt>
      <trkpt lat="49.69643" lon="5.80541">
        <ele>369.1</ele>
        <time>2020-06-25T19:47:08Z</time>
      </trkpt>
      <trkpt lat="49.69645" lon="5.80548">
        <ele>369.2</ele>
        <time>2020-06-25T19:47:09Z</time>
      </trkpt>
      <trkpt lat="49.69649" lon="5.80554">
        <ele>369.3</ele>
        <time>2020-06-25T19:47:10Z</time>
      </trkpt>
      <trkpt lat="49.69652" lon="5.80561">
        <ele>369.4</ele>
        <time>2020-06-25T19:47:11Z</time>
      </trkpt>
      <trkpt lat="49.69655" lon="5.80568">
        <ele>369.4</ele>
        <time>2020-06-25T19:47:12Z</time>
      </trkpt>
      <trkpt lat="49.69658" lon="5.80574">
        <ele>369.5</ele>
        <time>2020-06-25T19:47:13Z</time>
      </trkpt>
      <trkpt lat="49.6966" lon="5.80581">
        <ele>369.6</ele>
        <time>2020-06-25T19:47:14Z</time>
      </trkpt>
      <trkpt lat="49.69663" lon="5.80588">
        <ele>369.7</ele>
        <time>2020-06-25T19:47:15Z</time>
      </trkpt>
      <trkpt lat="49.69666" lon="5.80594">
        <ele>369.7</ele>
        <time>2020-06-25T19:47:16Z</time>
      </trkpt>
      <trkpt lat="49.69668" lon="5.806">
        <ele>369.8</ele>
        <time>2020-06-25T19:47:17Z</time>
      </trkpt>
      <trkpt lat="49.69671" lon="5.80607">
        <ele>369.9</ele>
        <time>2020-06-25T19:47:18Z</time>
      </trkpt>
      <trkpt lat="49.69673" lon="5.80613">
        <ele>370</ele>
        <time>2020-06-25T19:47:19Z</time>
      </trkpt>
      <trkpt lat="49.69675" lon="5.8062">
        <ele>370</ele>
        <time>2020-06-25T19:47:20Z</time>
      </trkpt>
      <trkpt lat="49.69679" lon="5.80628">
        <ele>370.1</ele>
        <time>2020-06-25T19:47:21Z</time>
      </trkpt>
      <trkpt lat="49.69681" lon="5.80634">
        <ele>370.2</ele>
        <time>2020-06-25T19:47:22Z</time>
      </trkpt>
      <trkpt lat="49.69684" lon="5.8064">
        <ele>370.3</ele>
        <time>2020-06-25T19:47:23Z</time>
      </trkpt>
      <trkpt lat="49.69687" lon="5.80647">
        <ele>370.3</ele>
        <time>2020-06-25T19:47:24Z</time>
      </trkpt>
      <trkpt lat="49.69689" lon="5.80652">
        <ele>370.4</ele>
        <time>2020-06-25T19:47:25Z</time>
      </trkpt>
      <trkpt lat="49.69692" lon="5.80658">
        <ele>370.5</ele>
        <time>2020-06-25T19:47:26Z</time>
      </trkpt>
      <trkpt lat="49.69694" lon="5.80664">
        <ele>370.5</ele>
        <time>2020-06-25T19:47:27Z</time>
      </trkpt>
      <trkpt lat="49.69697" lon="5.8067">
        <ele>370.6</ele>
        <time>2020-06-25T19:47:28Z</time>
      </trkpt>
      <trkpt lat="49.697" lon="5.80675">
        <ele>370.7</ele>
        <time>2020-06-25T19:47:29Z</time>
      </trkpt>
      <trkpt lat="49.69702" lon="5.80681">
        <ele>370.7</ele>
        <time>2020-06-25T19:47:30Z</time>
      </trkpt>
      <trkpt lat="49.69705" lon="5.80688">
        <ele>370.8</ele>
        <time>2020-06-25T19:47:31Z</time>
      </trkpt>
      <trkpt lat="49.69707" lon="5.80693">
        <ele>370.8</ele>
        <time>2020-06-25T19:47:32Z</time>
      </trkpt>
      <trkpt lat="49.6971" lon="5.80699">
        <ele>370.9</ele>
        <time>2020-06-25T19:47:33Z</time>
      </trkpt>
      <trkpt lat="49.69712" lon="5.80705">
        <ele>371</ele>
        <time>2020-06-25T19:47:34Z</time>
      </trkpt>
      <trkpt lat="49.69715" lon="5.80712">
        <ele>371.1</ele>
        <time>2020-06-25T19:47:35Z</time>
      </trkpt>
      <trkpt lat="49.69718" lon="5.80719">
        <ele>371.1</ele>
        <time>2020-06-25T19:47:36Z</time>
      </trkpt>
      <trkpt lat="49.69721" lon="5.80725">
        <ele>371.2</ele>
        <time>2020-06-25T19:47:37Z</time>
      </trkpt>
      <trkpt lat="49.69724" lon="5.80731">
        <ele>371.3</ele>
        <time>2020-06-25T19:47:38Z</time>
      </trkpt>
      <trkpt lat="49.69726" lon="5.80738">
        <ele>371.3</ele>
        <time>2020-06-25T19:47:39Z</time>
      </trkpt>
      <trkpt lat="49.69729" lon="5.80744">
        <ele>371.4</ele>
        <time>2020-06-25T19:47:40Z</time>
      </trkpt>
      <trkpt lat="49.69731" lon="5.80751">
        <ele>371.5</ele>
        <time>2020-06-25T19:47:41Z</time>
      </trkpt>
      <trkpt lat="49.69734" lon="5.80758">
        <ele>371.6</ele>
        <time>2020-06-25T19:47:42Z</time>
      </trkpt>
      <trkpt lat="49.69737" lon="5.80766">
        <ele>371.7</ele>
        <time>2020-06-25T19:47:43Z</time>
      </trkpt>
      <trkpt lat="49.6974" lon="5.80772">
        <ele>371.7</ele>
        <time>2020-06-25T19:47:44Z</time>
      </trkpt>
      <trkpt lat="49.69742" lon="5.80779">
        <ele>371.8</ele>
        <time>2020-06-25T19:47:45Z</time>
      </trkpt>
      <trkpt lat="49.69745" lon="5.80787">
        <ele>371.9</ele>
        <time>2020-06-25T19:47:46Z</time>
      </trkpt>
      <trkpt lat="49.69748" lon="5.80794">
        <ele>372</ele>
        <time>2020-06-25T19:47:47Z</time>
      </trkpt>
      <trkpt lat="49.69751" lon="5.80801">
        <ele>372</ele>
        <time>2020-06-25T19:47:48Z</time>
      </trkpt>
      <trkpt lat="49.69754" lon="5.80808">
        <ele>372.1</ele>
        <time>2020-06-25T19:47:49Z</time>
      </trkpt>
      <trkpt lat="49.69756" lon="5.80813">
        <ele>372.2</ele>
        <time>2020-06-25T19:47:50Z</time>
      </trkpt>
      <trkpt lat="49.69759" lon="5.8082">
        <ele>372.3</ele>
        <time>2020-06-25T19:47:51Z</time>
      </trkpt>
      <trkpt lat="49.69761" lon="5.80826">
        <ele>372.3</ele>
        <time>2020-06-25T19:47:52Z</time>
      </trkpt>
      <trkpt lat="49.69764" lon="5.80834">
        <ele>372.4</ele>
        <time>2020-06-25T19:47:53Z</time>
      </trkpt>
      <trkpt lat="49.69768" lon="5.80841">
        <ele>372.5</ele>
        <time>2020-06-25T19:47:54Z</time>
      </trkpt>
      <trkpt lat="49.69771" lon="5.80848">
        <ele>372.6</ele>
        <time>2020-06-25T19:47:55Z</time>
      </trkpt>
      <trkpt lat="49.69774" lon="5.80854">
        <ele>372.6</ele>
        <time>2020-06-25T19:47:56Z</time>
      </trkpt>
      <trkpt lat="49.69776" lon="5.8086">
        <ele>372.7</ele>
        <time>2020-06-25T19:47:57Z</time>
      </trkpt>
      <trkpt lat="49.69779" lon="5.80868">
        <ele>372.8</ele>
        <time>2020-06-25T19:47:58Z</time>
      </trkpt>
      <trkpt lat="49.69782" lon="5.80875">
        <ele>372.9</ele>
        <time>2020-06-25T19:47:59Z</time>
      </trkpt>
      <trkpt lat="49.69786" lon="5.80882">
        <ele>372.9</ele>
        <time>2020-06-25T19:48:00Z</time>
      </trkpt>
      <trkpt lat="49.6979" lon="5.80889">
        <ele>373</ele>
        <time>2020-06-25T19:48:01Z</time>
      </trkpt>
      <trkpt lat="49.69792" lon="5.80897">
        <ele>373.1</ele>
        <time>2020-06-25T19:48:02Z</time>
      </trkpt>
      <trkpt lat="49.69794" lon="5.80902">
        <ele>373.2</ele>
        <time>2020-06-25T19:48:03Z</time>
      </trkpt>
      <trkpt lat="49.69796" lon="5.80909">
        <ele>373.2</ele>
        <time>2020-06-25T19:48:04Z</time>
      </trkpt>
      <trkpt lat="49.69799" lon="5.80916">
        <ele>373.3</ele>
        <time>2020-06-25T19:48:05Z</time>
      </trkpt>
      <trkpt lat="49.69802" lon="5.80923">
        <ele>373.4</ele>
        <time>2020-06-25T19:48:06Z</time>
      </trkpt>
      <trkpt lat="49.69805" lon="5.80931">
        <ele>373.4</ele>
        <time>2020-06-25T19:48:07Z</time>
      </trkpt>
      <trkpt lat="49.69808" lon="5.80938">
        <ele>373.4</ele>
        <time>2020-06-25T19:48:08Z</time>
      </trkpt>
      <trkpt lat="49.69811" lon="5.80944">
        <ele>373.4</ele>
        <time>2020-06-25T19:48:09Z</time>
      </trkpt>
      <trkpt lat="49.69814" lon="5.80951">
        <ele>373.5</ele>
        <time>2020-06-25T19:48:10Z</time>
      </trkpt>
      <trkpt lat="49.69817" lon="5.80957">
        <ele>373.5</ele>
        <time>2020-06-25T19:48:11Z</time>
      </trkpt>
      <trkpt lat="49.69822" lon="5.80966">
        <ele>373.5</ele>
        <time>2020-06-25T19:48:12Z</time>
      </trkpt>
      <trkpt lat="49.69825" lon="5.80972">
        <ele>373.5</ele>
        <time>2020-06-25T19:48:13Z</time>
      </trkpt>
      <trkpt lat="49.69829" lon="5.80979">
        <ele>373.5</ele>
        <time>2020-06-25T19:48:14Z</time>
      </trkpt>
      <trkpt lat="49.69833" lon="5.80984">
        <ele>373.5</ele>
        <time>2020-06-25T19:48:15Z</time>
      </trkpt>
      <trkpt lat="49.69836" lon="5.80989">
        <ele>373.5</ele>
        <time>2020-06-25T19:48:16Z</time>
      </trkpt>
      <trkpt lat="49.69841" lon="5.80995">
        <ele>373.6</ele>
        <time>2020-06-25T19:48:17Z</time>
      </trkpt>
      <trkpt lat="49.69847" lon="5.81">
        <ele>373.6</ele>
        <time>2020-06-25T19:48:18Z</time>
      </trkpt>
      <trkpt lat="49.69852" lon="5.81004">
        <ele>373.6</ele>
        <time>2020-06-25T19:48:19Z</time>
      </trkpt>
      <trkpt lat="49.69857" lon="5.81007">
        <ele>373.6</ele>
        <time>2020-06-25T19:48:20Z</time>
      </trkpt>
      <trkpt lat="49.69862" lon="5.8101">
        <ele>373.6</ele>
        <time>2020-06-25T19:48:21Z</time>
      </trkpt>
      <trkpt lat="49.69868" lon="5.81011">
        <ele>373.6</ele>
        <time>2020-06-25T19:48:22Z</time>
      </trkpt>
      <trkpt lat="49.69874" lon="5.81013">
        <ele>373.7</ele>
        <time>2020-06-25T19:48:23Z</time>
      </trkpt>
      <trkpt lat="49.69881" lon="5.81012">
        <ele>373.7</ele>
        <time>2020-06-25T19:48:24Z</time>
      </trkpt>
      <trkpt lat="49.69888" lon="5.81011">
        <ele>373.7</ele>
        <time>2020-06-25T19:48:25Z</time>
      </trkpt>
      <trkpt lat="49.69895" lon="5.8101">
        <ele>373.7</ele>
        <time>2020-06-25T19:48:26Z</time>
      </trkpt>
      <trkpt lat="49.699" lon="5.81009">
        <ele>373.7</ele>
        <time>2020-06-25T19:48:27Z</time>
      </trkpt>
      <trkpt lat="49.69905" lon="5.81007">
        <ele>373.8</ele>
        <time>2020-06-25T19:48:28Z</time>
      </trkpt>
      <trkpt lat="49.69911" lon="5.81004">
        <ele>373.8</ele>
        <time>2020-06-25T19:48:29Z</time>
      </trkpt>
      <trkpt lat="49.69916" lon="5.81002">
        <ele>373.8</ele>
        <time>2020-06-25T19:48:30Z</time>
      </trkpt>
      <trkpt lat="49.69921" lon="5.80999">
        <ele>373.8</ele>
        <time>2020-06-25T19:48:31Z</time>
      </trkpt>
      <trkpt lat="49.69926" lon="5.80995">
        <ele>373.8</ele>
        <time>2020-06-25T19:48:32Z</time>
      </trkpt>
      <trkpt lat="49.69929" lon="5.80991">
        <ele>373.7</ele>
        <time>2020-06-25T19:48:33Z</time>
      </trkpt>
      <trkpt lat="49.69934" lon="5.80983">
        <ele>373.5</ele>
        <time>2020-06-25T19:48:34Z</time>
      </trkpt>
      <trkpt lat="49.69937" lon="5.80974">
        <ele>373.3</ele>
        <time>2020-06-25T19:48:35Z</time>
      </trkpt>
      <trkpt lat="49.69939" lon="5.80969">
        <ele>373.2</ele>
        <time>2020-06-25T19:48:36Z</time>
      </trkpt>
      <trkpt lat="49.69943" lon="5.8096">
        <ele>373</ele>
        <time>2020-06-25T19:48:37Z</time>
      </trkpt>
      <trkpt lat="49.69945" lon="5.80953">
        <ele>372.9</ele>
        <time>2020-06-25T19:48:38Z</time>
      </trkpt>
      <trkpt lat="49.69948" lon="5.80946">
        <ele>372.7</ele>
        <time>2020-06-25T19:48:39Z</time>
      </trkpt>
      <trkpt lat="49.6995" lon="5.80935">
        <ele>372.4</ele>
        <time>2020-06-25T19:48:40Z</time>
      </trkpt>
      <trkpt lat="49.69952" lon="5.80925">
        <ele>372.4</ele>
        <time>2020-06-25T19:48:41Z</time>
      </trkpt>
      <trkpt lat="49.69954" lon="5.80919">
        <ele>372.5</ele>
        <time>2020-06-25T19:48:42Z</time>
      </trkpt>
      <trkpt lat="49.69956" lon="5.80911">
        <ele>372.5</ele>
        <time>2020-06-25T19:48:43Z</time>
      </trkpt>
      <trkpt lat="49.69959" lon="5.80901">
        <ele>372.6</ele>
        <time>2020-06-25T19:48:44Z</time>
      </trkpt>
      <trkpt lat="49.6996" lon="5.80892">
        <ele>372.7</ele>
        <time>2020-06-25T19:48:45Z</time>
      </trkpt>
      <trkpt lat="49.69962" lon="5.80884">
        <ele>372.7</ele>
        <time>2020-06-25T19:48:46Z</time>
      </trkpt>
      <trkpt lat="49.69963" lon="5.80878">
        <ele>372.8</ele>
        <time>2020-06-25T19:48:47Z</time>
      </trkpt>
      <trkpt lat="49.69964" lon="5.80872">
        <ele>372.8</ele>
        <time>2020-06-25T19:48:48Z</time>
      </trkpt>
      <trkpt lat="49.69966" lon="5.80866">
        <ele>372.9</ele>
        <time>2020-06-25T19:48:49Z</time>
      </trkpt>
      <trkpt lat="49.69968" lon="5.80859">
        <ele>372.9</ele>
        <time>2020-06-25T19:48:50Z</time>
      </trkpt>
      <trkpt lat="49.6997" lon="5.80851">
        <ele>373</ele>
        <time>2020-06-25T19:48:51Z</time>
      </trkpt>
      <trkpt lat="49.69972" lon="5.80844">
        <ele>373</ele>
        <time>2020-06-25T19:48:52Z</time>
      </trkpt>
      <trkpt lat="49.69975" lon="5.80835">
        <ele>373.1</ele>
        <time>2020-06-25T19:48:53Z</time>
      </trkpt>
      <trkpt lat="49.69978" lon="5.8083">
        <ele>373.1</ele>
        <time>2020-06-25T19:48:54Z</time>
      </trkpt>
      <trkpt lat="49.6998" lon="5.80823">
        <ele>373.2</ele>
        <time>2020-06-25T19:48:55Z</time>
      </trkpt>
      <trkpt lat="49.69983" lon="5.80817">
        <ele>373.2</ele>
        <time>2020-06-25T19:48:56Z</time>
      </trkpt>
      <trkpt lat="49.69985" lon="5.8081">
        <ele>373.3</ele>
        <time>2020-06-25T19:48:57Z</time>
      </trkpt>
      <trkpt lat="49.69988" lon="5.80803">
        <ele>373.8</ele>
        <time>2020-06-25T19:48:58Z</time>
      </trkpt>
      <trkpt lat="49.69991" lon="5.80796">
        <ele>374</ele>
        <time>2020-06-25T19:48:59Z</time>
      </trkpt>
      <trkpt lat="49.69993" lon="5.80792">
        <ele>374.2</ele>
        <time>2020-06-25T19:49:00Z</time>
      </trkpt>
      <trkpt lat="49.69995" lon="5.80788">
        <ele>374.3</ele>
        <time>2020-06-25T19:49:01Z</time>
      </trkpt>
      <trkpt lat="49.69998" lon="5.80784">
        <ele>374.5</ele>
        <time>2020-06-25T19:49:02Z</time>
      </trkpt>
      <trkpt lat="49.70002" lon="5.8078">
        <ele>374.8</ele>
        <time>2020-06-25T19:49:03Z</time>
      </trkpt>
      <trkpt lat="49.70006" lon="5.80777">
        <ele>375</ele>
        <time>2020-06-25T19:49:04Z</time>
      </trkpt>
      <trkpt lat="49.70009" lon="5.80776">
        <ele>375.1</ele>
        <time>2020-06-25T19:49:05Z</time>
      </trkpt>
      <trkpt lat="49.70012" lon="5.80773">
        <ele>375.3</ele>
        <time>2020-06-25T19:49:06Z</time>
      </trkpt>
      <trkpt lat="49.70016" lon="5.80771">
        <ele>375.5</ele>
        <time>2020-06-25T19:49:07Z</time>
      </trkpt>
      <trkpt lat="49.70019" lon="5.80769">
        <ele>375.7</ele>
        <time>2020-06-25T19:49:08Z</time>
      </trkpt>
      <trkpt lat="49.70022" lon="5.80767">
        <ele>375.8</ele>
        <time>2020-06-25T19:49:09Z</time>
      </trkpt>
      <trkpt lat="49.70025" lon="5.80763">
        <ele>376</ele>
        <time>2020-06-25T19:49:10Z</time>
      </trkpt>
      <trkpt lat="49.70028" lon="5.8076">
        <ele>376.2</ele>
        <time>2020-06-25T19:49:11Z</time>
      </trkpt>
      <trkpt lat="49.70031" lon="5.80757">
        <ele>376.4</ele>
        <time>2020-06-25T19:49:12Z</time>
      </trkpt>
      <trkpt lat="49.70033" lon="5.80755">
        <ele>376.5</ele>
        <time>2020-06-25T19:49:13Z</time>
      </trkpt>
      <trkpt lat="49.70037" lon="5.80752">
        <ele>376.7</ele>
        <time>2020-06-25T19:49:14Z</time>
      </trkpt>
      <trkpt lat="49.7004" lon="5.80751">
        <ele>376.9</ele>
        <time>2020-06-25T19:49:15Z</time>
      </trkpt>
      <trkpt lat="49.70043" lon="5.80749">
        <ele>377</ele>
        <time>2020-06-25T19:49:16Z</time>
      </trkpt>
      <trkpt lat="49.70047" lon="5.80748">
        <ele>377.2</ele>
        <time>2020-06-25T19:49:17Z</time>
      </trkpt>
      <trkpt lat="49.7005" lon="5.80746">
        <ele>377.4</ele>
        <time>2020-06-25T19:49:18Z</time>
      </trkpt>
      <trkpt lat="49.70053" lon="5.80743">
        <ele>377.6</ele>
        <time>2020-06-25T19:49:19Z</time>
      </trkpt>
      <trkpt lat="49.70055" lon="5.80742">
        <ele>377.7</ele>
        <time>2020-06-25T19:49:20Z</time>
      </trkpt>
      <trkpt lat="49.70058" lon="5.80741">
        <ele>377.8</ele>
        <time>2020-06-25T19:49:21Z</time>
      </trkpt>
      <trkpt lat="49.70061" lon="5.8074">
        <ele>378.1</ele>
        <time>2020-06-25T19:49:22Z</time>
      </trkpt>
      <trkpt lat="49.70065" lon="5.80739">
        <ele>378.3</ele>
        <time>2020-06-25T19:49:23Z</time>
      </trkpt>
      <trkpt lat="49.70067" lon="5.80738">
        <ele>378.4</ele>
        <time>2020-06-25T19:49:24Z</time>
      </trkpt>
      <trkpt lat="49.70069" lon="5.80737">
        <ele>378.5</ele>
        <time>2020-06-25T19:49:25Z</time>
      </trkpt>
      <trkpt lat="49.70073" lon="5.80735">
        <ele>378.7</ele>
        <time>2020-06-25T19:49:26Z</time>
      </trkpt>
      <trkpt lat="49.70074" lon="5.80734">
        <ele>378.7</ele>
        <time>2020-06-25T19:49:27Z</time>
      </trkpt>
      <trkpt lat="49.70077" lon="5.80733">
        <ele>378.9</ele>
        <time>2020-06-25T19:49:28Z</time>
      </trkpt>
      <trkpt lat="49.7008" lon="5.80731">
        <ele>379</ele>
        <time>2020-06-25T19:49:29Z</time>
      </trkpt>
      <trkpt lat="49.70083" lon="5.80728">
        <ele>379.2</ele>
        <time>2020-06-25T19:49:30Z</time>
      </trkpt>
      <trkpt lat="49.70085" lon="5.80727">
        <ele>379.3</ele>
        <time>2020-06-25T19:49:31Z</time>
      </trkpt>
      <trkpt lat="49.70088" lon="5.80726">
        <ele>379.5</ele>
        <time>2020-06-25T19:49:32Z</time>
      </trkpt>
      <trkpt lat="49.70092" lon="5.80724">
        <ele>379.6</ele>
        <time>2020-06-25T19:49:33Z</time>
      </trkpt>
      <trkpt lat="49.70095" lon="5.80722">
        <ele>379.8</ele>
        <time>2020-06-25T19:49:34Z</time>
      </trkpt>
      <trkpt lat="49.70099" lon="5.80721">
        <ele>380</ele>
        <time>2020-06-25T19:49:35Z</time>
      </trkpt>
      <trkpt lat="49.70102" lon="5.80721">
        <ele>380.2</ele>
        <time>2020-06-25T19:49:36Z</time>
      </trkpt>
      <trkpt lat="49.70104" lon="5.80721">
        <ele>380.2</ele>
        <time>2020-06-25T19:49:37Z</time>
      </trkpt>
      <trkpt lat="49.70107" lon="5.80719">
        <ele>380.4</ele>
        <time>2020-06-25T19:49:38Z</time>
      </trkpt>
      <trkpt lat="49.70109" lon="5.80719">
        <ele>380.5</ele>
        <time>2020-06-25T19:49:39Z</time>
      </trkpt>
      <trkpt lat="49.70111" lon="5.80719">
        <ele>380.6</ele>
        <time>2020-06-25T19:49:40Z</time>
      </trkpt>
      <trkpt lat="49.70115" lon="5.80718">
        <ele>380.8</ele>
        <time>2020-06-25T19:49:41Z</time>
      </trkpt>
      <trkpt lat="49.70116" lon="5.80717">
        <ele>380.9</ele>
        <time>2020-06-25T19:49:42Z</time>
      </trkpt>
      <trkpt lat="49.70119" lon="5.80714">
        <ele>381</ele>
        <time>2020-06-25T19:49:43Z</time>
      </trkpt>
      <trkpt lat="49.70122" lon="5.80713">
        <ele>381.2</ele>
        <time>2020-06-25T19:49:44Z</time>
      </trkpt>
      <trkpt lat="49.70125" lon="5.80711">
        <ele>381.3</ele>
        <time>2020-06-25T19:49:45Z</time>
      </trkpt>
      <trkpt lat="49.70126" lon="5.80711">
        <ele>381.4</ele>
        <time>2020-06-25T19:49:46Z</time>
      </trkpt>
      <trkpt lat="49.7013" lon="5.8071">
        <ele>381.6</ele>
        <time>2020-06-25T19:49:47Z</time>
      </trkpt>
      <trkpt lat="49.70131" lon="5.80709">
        <ele>381.6</ele>
        <time>2020-06-25T19:49:48Z</time>
      </trkpt>
      <trkpt lat="49.70135" lon="5.80708">
        <ele>381.9</ele>
        <time>2020-06-25T19:49:49Z</time>
      </trkpt>
      <trkpt lat="49.70136" lon="5.80707">
        <ele>381.9</ele>
        <time>2020-06-25T19:49:50Z</time>
      </trkpt>
      <trkpt lat="49.70138" lon="5.80704">
        <ele>382.1</ele>
        <time>2020-06-25T19:49:51Z</time>
      </trkpt>
      <trkpt lat="49.70141" lon="5.80703">
        <ele>382.3</ele>
        <time>2020-06-25T19:49:52Z</time>
      </trkpt>
      <trkpt lat="49.70144" lon="5.80702">
        <ele>382.4</ele>
        <time>2020-06-25T19:49:53Z</time>
      </trkpt>
      <trkpt lat="49.70148" lon="5.80701">
        <ele>382.7</ele>
        <time>2020-06-25T19:49:54Z</time>
      </trkpt>
      <trkpt lat="49.70149" lon="5.80701">
        <ele>382.8</ele>
        <time>2020-06-25T19:49:55Z</time>
      </trkpt>
      <trkpt lat="49.70152" lon="5.807">
        <ele>383</ele>
        <time>2020-06-25T19:49:56Z</time>
      </trkpt>
      <trkpt lat="49.70155" lon="5.80699">
        <ele>383.2</ele>
        <time>2020-06-25T19:49:57Z</time>
      </trkpt>
      <trkpt lat="49.70157" lon="5.80696">
        <ele>383.3</ele>
        <time>2020-06-25T19:49:58Z</time>
      </trkpt>
      <trkpt lat="49.7016" lon="5.80695">
        <ele>383.5</ele>
        <time>2020-06-25T19:49:59Z</time>
      </trkpt>
      <trkpt lat="49.70164" lon="5.80693">
        <ele>383.7</ele>
        <time>2020-06-25T19:50:00Z</time>
      </trkpt>
      <trkpt lat="49.70165" lon="5.80692">
        <ele>383.8</ele>
        <time>2020-06-25T19:50:01Z</time>
      </trkpt>
      <trkpt lat="49.70168" lon="5.80691">
        <ele>384</ele>
        <time>2020-06-25T19:50:02Z</time>
      </trkpt>
      <trkpt lat="49.7017" lon="5.8069">
        <ele>384.1</ele>
        <time>2020-06-25T19:50:03Z</time>
      </trkpt>
      <trkpt lat="49.70173" lon="5.80689">
        <ele>384.3</ele>
        <time>2020-06-25T19:50:04Z</time>
      </trkpt>
      <trkpt lat="49.70174" lon="5.80689">
        <ele>384.3</ele>
        <time>2020-06-25T19:50:05Z</time>
      </trkpt>
      <trkpt lat="49.70178" lon="5.80688">
        <ele>384.5</ele>
        <time>2020-06-25T19:50:06Z</time>
      </trkpt>
      <trkpt lat="49.7018" lon="5.80687">
        <ele>384.6</ele>
        <time>2020-06-25T19:50:07Z</time>
      </trkpt>
      <trkpt lat="49.70183" lon="5.80686">
        <ele>384.7</ele>
        <time>2020-06-25T19:50:08Z</time>
      </trkpt>
      <trkpt lat="49.70186" lon="5.80685">
        <ele>384.9</ele>
        <time>2020-06-25T19:50:09Z</time>
      </trkpt>
      <trkpt lat="49.70186" lon="5.80686">
        <ele>384.9</ele>
        <time>2020-06-25T19:50:10Z</time>
      </trkpt>
      <trkpt lat="49.7019" lon="5.80684">
        <ele>385.1</ele>
        <time>2020-06-25T19:50:11Z</time>
      </trkpt>
      <trkpt lat="49.70192" lon="5.80683">
        <ele>385.1</ele>
        <time>2020-06-25T19:50:12Z</time>
      </trkpt>
      <trkpt lat="49.70195" lon="5.8068">
        <ele>385.3</ele>
        <time>2020-06-25T19:50:13Z</time>
      </trkpt>
      <trkpt lat="49.70197" lon="5.80679">
        <ele>385.4</ele>
        <time>2020-06-25T19:50:14Z</time>
      </trkpt>
      <trkpt lat="49.70199" lon="5.80678">
        <ele>385.5</ele>
        <time>2020-06-25T19:50:15Z</time>
      </trkpt>
      <trkpt lat="49.70202" lon="5.80676">
        <ele>385.7</ele>
        <time>2020-06-25T19:50:16Z</time>
      </trkpt>
      <trkpt lat="49.70205" lon="5.80676">
        <ele>385.8</ele>
        <time>2020-06-25T19:50:17Z</time>
      </trkpt>
      <trkpt lat="49.70208" lon="5.80675">
        <ele>386</ele>
        <time>2020-06-25T19:50:18Z</time>
      </trkpt>
      <trkpt lat="49.70212" lon="5.80674">
        <ele>386.2</ele>
        <time>2020-06-25T19:50:19Z</time>
      </trkpt>
      <trkpt lat="49.70213" lon="5.80673">
        <ele>386.2</ele>
        <time>2020-06-25T19:50:20Z</time>
      </trkpt>
      <trkpt lat="49.70216" lon="5.80673">
        <ele>386.4</ele>
        <time>2020-06-25T19:50:21Z</time>
      </trkpt>
      <trkpt lat="49.70217" lon="5.80673">
        <ele>386.4</ele>
        <time>2020-06-25T19:50:22Z</time>
      </trkpt>
      <trkpt lat="49.7022" lon="5.80671">
        <ele>386.6</ele>
        <time>2020-06-25T19:50:23Z</time>
      </trkpt>
      <trkpt lat="49.70221" lon="5.80671">
        <ele>386.6</ele>
        <time>2020-06-25T19:50:24Z</time>
      </trkpt>
      <trkpt lat="49.70222" lon="5.80671">
        <ele>386.7</ele>
        <time>2020-06-25T19:50:25Z</time>
      </trkpt>
      <trkpt lat="49.70223" lon="5.80672">
        <ele>386.7</ele>
        <time>2020-06-25T19:50:26Z</time>
      </trkpt>
      <trkpt lat="49.70223" lon="5.80672">
        <ele>386.8</ele>
        <time>2020-06-25T19:50:27Z</time>
      </trkpt>
      <trkpt lat="49.70224" lon="5.80673">
        <ele>386.8</ele>
        <time>2020-06-25T19:50:28Z</time>
      </trkpt>
      <trkpt lat="49.70224" lon="5.80674">
        <ele>386.8</ele>
        <time>2020-06-25T19:50:29Z</time>
      </trkpt>
      <trkpt lat="49.70224" lon="5.80675">
        <ele>386.7</ele>
        <time>2020-06-25T19:50:30Z</time>
      </trkpt>
      <trkpt lat="49.70225" lon="5.80676">
        <ele>386.7</ele>
        <time>2020-06-25T19:50:31Z</time>
      </trkpt>
      <trkpt lat="49.70225" lon="5.80677">
        <ele>386.7</ele>
        <time>2020-06-25T19:50:32Z</time>
      </trkpt>
      <trkpt lat="49.70226" lon="5.80678">
        <ele>386.7</ele>
        <time>2020-06-25T19:50:33Z</time>
      </trkpt>
      <trkpt lat="49.70226" lon="5.80679">
        <ele>386.7</ele>
        <time>2020-06-25T19:50:34Z</time>
      </trkpt>
      <trkpt lat="49.70226" lon="5.80679">
        <ele>386.7</ele>
        <time>2020-06-25T19:50:35Z</time>
      </trkpt>
      <trkpt lat="49.70227" lon="5.8068">
        <ele>386.6</ele>
        <time>2020-06-25T19:50:36Z</time>
      </trkpt>
      <trkpt lat="49.70227" lon="5.80681">
        <ele>386.6</ele>
        <time>2020-06-25T19:50:37Z</time>
      </trkpt>
      <trkpt lat="49.70228" lon="5.80682">
        <ele>386.6</ele>
        <time>2020-06-25T19:51:09Z</time>
      </trkpt>
      <trkpt lat="49.70228" lon="5.80683">
        <ele>386.6</ele>
        <time>2020-06-25T19:51:10Z</time>
      </trkpt>
      <trkpt lat="49.70229" lon="5.80687">
        <ele>386.5</ele>
        <time>2020-06-25T19:51:11Z</time>
      </trkpt>
      <trkpt lat="49.70231" lon="5.80691">
        <ele>386.4</ele>
        <time>2020-06-25T19:51:12Z</time>
      </trkpt>
      <trkpt lat="49.70233" lon="5.80695">
        <ele>386.4</ele>
        <time>2020-06-25T19:51:13Z</time>
      </trkpt>
      <trkpt lat="49.70236" lon="5.807">
        <ele>386.3</ele>
        <time>2020-06-25T19:51:14Z</time>
      </trkpt>
      <trkpt lat="49.70238" lon="5.80704">
        <ele>386.3</ele>
        <time>2020-06-25T19:51:15Z</time>
      </trkpt>
      <trkpt lat="49.70241" lon="5.80709">
        <ele>386.3</ele>
        <time>2020-06-25T19:51:16Z</time>
      </trkpt>
      <trkpt lat="49.70243" lon="5.80713">
        <ele>386.3</ele>
        <time>2020-06-25T19:51:17Z</time>
      </trkpt>
      <trkpt lat="49.70245" lon="5.80718">
        <ele>386.3</ele>
        <time>2020-06-25T19:51:18Z</time>
      </trkpt>
      <trkpt lat="49.70247" lon="5.80722">
        <ele>386.3</ele>
        <time>2020-06-25T19:51:19Z</time>
      </trkpt>
      <trkpt lat="49.70249" lon="5.80726">
        <ele>386.3</ele>
        <time>2020-06-25T19:51:20Z</time>
      </trkpt>
      <trkpt lat="49.7025" lon="5.80727">
        <ele>386.3</ele>
        <time>2020-06-25T19:51:21Z</time>
      </trkpt>
      <trkpt lat="49.70252" lon="5.80728">
        <ele>386.4</ele>
        <time>2020-06-25T19:51:22Z</time>
      </trkpt>
      <trkpt lat="49.70253" lon="5.80729">
        <ele>386.4</ele>
        <time>2020-06-25T19:51:23Z</time>
      </trkpt>
      <trkpt lat="49.70255" lon="5.8073">
        <ele>386.5</ele>
        <time>2020-06-25T19:51:24Z</time>
      </trkpt>
      <trkpt lat="49.70256" lon="5.80731">
        <ele>386.5</ele>
        <time>2020-06-25T19:51:25Z</time>
      </trkpt>
      <trkpt lat="49.7026" lon="5.80733">
        <ele>386.7</ele>
        <time>2020-06-25T19:51:26Z</time>
      </trkpt>
      <trkpt lat="49.70261" lon="5.80734">
        <ele>386.7</ele>
        <time>2020-06-25T19:51:27Z</time>
      </trkpt>
      <trkpt lat="49.70264" lon="5.80735">
        <ele>386.8</ele>
        <time>2020-06-25T19:51:28Z</time>
      </trkpt>
      <trkpt lat="49.70269" lon="5.80736">
        <ele>386.9</ele>
        <time>2020-06-25T19:51:29Z</time>
      </trkpt>
      <trkpt lat="49.70271" lon="5.80737">
        <ele>387</ele>
        <time>2020-06-25T19:51:30Z</time>
      </trkpt>
      <trkpt lat="49.70274" lon="5.80739">
        <ele>387.1</ele>
        <time>2020-06-25T19:51:31Z</time>
      </trkpt>
      <trkpt lat="49.70278" lon="5.8074">
        <ele>387.2</ele>
        <time>2020-06-25T19:51:32Z</time>
      </trkpt>
      <trkpt lat="49.70281" lon="5.80741">
        <ele>387.3</ele>
        <time>2020-06-25T19:51:33Z</time>
      </trkpt>
      <trkpt lat="49.70285" lon="5.80742">
        <ele>387.4</ele>
        <time>2020-06-25T19:51:34Z</time>
      </trkpt>
      <trkpt lat="49.70287" lon="5.80742">
        <ele>387.5</ele>
        <time>2020-06-25T19:51:35Z</time>
      </trkpt>
      <trkpt lat="49.7029" lon="5.80742">
        <ele>387.6</ele>
        <time>2020-06-25T19:51:36Z</time>
      </trkpt>
      <trkpt lat="49.70293" lon="5.80743">
        <ele>387.7</ele>
        <time>2020-06-25T19:51:37Z</time>
      </trkpt>
      <trkpt lat="49.70296" lon="5.80744">
        <ele>387.8</ele>
        <time>2020-06-25T19:51:38Z</time>
      </trkpt>
      <trkpt lat="49.703" lon="5.80744">
        <ele>388</ele>
        <time>2020-06-25T19:51:39Z</time>
      </trkpt>
      <trkpt lat="49.70303" lon="5.80746">
        <ele>388.1</ele>
        <time>2020-06-25T19:51:40Z</time>
      </trkpt>
      <trkpt lat="49.70303" lon="5.80747">
        <ele>388.2</ele>
        <time>2020-06-25T19:51:41Z</time>
      </trkpt>
      <trkpt lat="49.70304" lon="5.8075">
        <ele>388.2</ele>
        <time>2020-06-25T19:51:42Z</time>
      </trkpt>
      <trkpt lat="49.70304" lon="5.80752">
        <ele>388.3</ele>
        <time>2020-06-25T19:51:43Z</time>
      </trkpt>
      <trkpt lat="49.70304" lon="5.80755">
        <ele>387.6</ele>
        <time>2020-06-25T19:51:44Z</time>
      </trkpt>
      <trkpt lat="49.70304" lon="5.80758">
        <ele>387.6</ele>
        <time>2020-06-25T19:51:45Z</time>
      </trkpt>
      <trkpt lat="49.70303" lon="5.8076">
        <ele>387.5</ele>
        <time>2020-06-25T19:51:46Z</time>
      </trkpt>
      <trkpt lat="49.70303" lon="5.80761">
        <ele>387.4</ele>
        <time>2020-06-25T19:51:47Z</time>
      </trkpt>
      <trkpt lat="49.70304" lon="5.80762">
        <ele>387.4</ele>
        <time>2020-06-25T19:51:48Z</time>
      </trkpt>
      <trkpt lat="49.70304" lon="5.80764">
        <ele>387.3</ele>
        <time>2020-06-25T19:51:49Z</time>
      </trkpt>
      <trkpt lat="49.70305" lon="5.80766">
        <ele>387.2</ele>
        <time>2020-06-25T19:51:50Z</time>
      </trkpt>
      <trkpt lat="49.70305" lon="5.80767">
        <ele>387.2</ele>
        <time>2020-06-25T19:51:51Z</time>
      </trkpt>
      <trkpt lat="49.70306" lon="5.80767">
        <ele>387.1</ele>
        <time>2020-06-25T19:51:52Z</time>
      </trkpt>
      <trkpt lat="49.70306" lon="5.80767">
        <ele>387.1</ele>
        <time>2020-06-25T19:51:53Z</time>
      </trkpt>
      <trkpt lat="49.70306" lon="5.80767">
        <ele>387.1</ele>
        <time>2020-06-25T19:51:54Z</time>
      </trkpt>
      <trkpt lat="49.70305" lon="5.80767">
        <ele>387.1</ele>
        <time>2020-06-25T19:51:55Z</time>
      </trkpt>
      <trkpt lat="49.70305" lon="5.80767">
        <ele>387.1</ele>
        <time>2020-06-25T19:51:56Z</time>
      </trkpt>
      <trkpt lat="49.70306" lon="5.80767">
        <ele>387.1</ele>
        <time>2020-06-25T19:51:57Z</time>
      </trkpt>
      <trkpt lat="49.70306" lon="5.80767">
        <ele>387.1</ele>
        <time>2020-06-25T19:51:58Z</time>
      </trkpt>
      <trkpt lat="49.70306" lon="5.80767">
        <ele>387.1</ele>
        <time>2020-06-25T19:51:59Z</time>
      </trkpt>
      <trkpt lat="49.70306" lon="5.80768">
        <ele>387.1</ele>
        <time>2020-06-25T19:52:00Z</time>
      </trkpt>
      <trkpt lat="49.70306" lon="5.80768">
        <ele>387.1</ele>
        <time>2020-06-25T19:52:01Z</time>
      </trkpt>
      <trkpt lat="49.70309" lon="5.80771">
        <ele>386.8</ele>
        <time>2020-06-25T19:56:35Z</time>
      </trkpt>
      <trkpt lat="49.70309" lon="5.80772">
        <ele>386.8</ele>
        <time>2020-06-25T19:56:36Z</time>
      </trkpt>
      <trkpt lat="49.70309" lon="5.80772">
        <ele>386.8</ele>
        <time>2020-06-25T19:56:37Z</time>
      </trkpt>
      <trkpt lat="49.7031" lon="5.80773">
        <ele>386.7</ele>
        <time>2020-06-25T19:56:38Z</time>
      </trkpt>
      <trkpt lat="49.7031" lon="5.80773">
        <ele>386.7</ele>
        <time>2020-06-25T19:56:39Z</time>
      </trkpt>
      <trkpt lat="49.7031" lon="5.80773">
        <ele>386.7</ele>
        <time>2020-06-25T19:56:40Z</time>
      </trkpt>
      <trkpt lat="49.70309" lon="5.80774">
        <ele>386.6</ele>
        <time>2020-06-25T19:56:41Z</time>
      </trkpt>
      <trkpt lat="49.70309" lon="5.80774">
        <ele>386.6</ele>
        <time>2020-06-25T19:56:42Z</time>
      </trkpt>
      <trkpt lat="49.70308" lon="5.80774">
        <ele>386.6</ele>
        <time>2020-06-25T19:56:43Z</time>
      </trkpt>
      <trkpt lat="49.70308" lon="5.80774">
        <ele>386.5</ele>
        <time>2020-06-25T19:56:44Z</time>
      </trkpt>
      <trkpt lat="49.70307" lon="5.80774">
        <ele>386.5</ele>
        <time>2020-06-25T19:56:45Z</time>
      </trkpt>
      <trkpt lat="49.70307" lon="5.80774">
        <ele>386.5</ele>
        <time>2020-06-25T19:56:46Z</time>
      </trkpt>
      <trkpt lat="49.70306" lon="5.80774">
        <ele>386.4</ele>
        <time>2020-06-25T19:56:47Z</time>
      </trkpt>
      <trkpt lat="49.70306" lon="5.80774">
        <ele>386.4</ele>
        <time>2020-06-25T19:56:48Z</time>
      </trkpt>
      <trkpt lat="49.70305" lon="5.80774">
        <ele>386.4</ele>
        <time>2020-06-25T19:56:49Z</time>
      </trkpt>
      <trkpt lat="49.70305" lon="5.80774">
        <ele>386.3</ele>
        <time>2020-06-25T19:58:55Z</time>
      </trkpt>
      <trkpt lat="49.70304" lon="5.80774">
        <ele>386.3</ele>
        <time>2020-06-25T19:58:56Z</time>
      </trkpt>
      <trkpt lat="49.70301" lon="5.80775">
        <ele>386.1</ele>
        <time>2020-06-25T19:58:57Z</time>
      </trkpt>
      <trkpt lat="49.70297" lon="5.80775">
        <ele>385.8</ele>
        <time>2020-06-25T19:58:58Z</time>
      </trkpt>
      <trkpt lat="49.70294" lon="5.80775">
        <ele>385.6</ele>
        <time>2020-06-25T19:58:59Z</time>
      </trkpt>
      <trkpt lat="49.70291" lon="5.80775">
        <ele>385.6</ele>
        <time>2020-06-25T19:59:00Z</time>
      </trkpt>
      <trkpt lat="49.70287" lon="5.80774">
        <ele>385.6</ele>
        <time>2020-06-25T19:59:01Z</time>
      </trkpt>
      <trkpt lat="49.70283" lon="5.80773">
        <ele>385.6</ele>
        <time>2020-06-25T19:59:02Z</time>
      </trkpt>
      <trkpt lat="49.7028" lon="5.80772">
        <ele>385.6</ele>
        <time>2020-06-25T19:59:03Z</time>
      </trkpt>
      <trkpt lat="49.70276" lon="5.80771">
        <ele>385.5</ele>
        <time>2020-06-25T19:59:04Z</time>
      </trkpt>
      <trkpt lat="49.70273" lon="5.80769">
        <ele>385.5</ele>
        <time>2020-06-25T19:59:05Z</time>
      </trkpt>
      <trkpt lat="49.70271" lon="5.80768">
        <ele>385.5</ele>
        <time>2020-06-25T19:59:06Z</time>
      </trkpt>
      <trkpt lat="49.70268" lon="5.80766">
        <ele>385.5</ele>
        <time>2020-06-25T19:59:07Z</time>
      </trkpt>
      <trkpt lat="49.70264" lon="5.80764">
        <ele>385.5</ele>
        <time>2020-06-25T19:59:08Z</time>
      </trkpt>
      <trkpt lat="49.70263" lon="5.80763">
        <ele>385.5</ele>
        <time>2020-06-25T19:59:09Z</time>
      </trkpt>
      <trkpt lat="49.70261" lon="5.80762">
        <ele>385.5</ele>
        <time>2020-06-25T19:59:10Z</time>
      </trkpt>
      <trkpt lat="49.7026" lon="5.80761">
        <ele>385.5</ele>
        <time>2020-06-25T19:59:11Z</time>
      </trkpt>
      <trkpt lat="49.70259" lon="5.8076">
        <ele>385.5</ele>
        <time>2020-06-25T19:59:12Z</time>
      </trkpt>
      <trkpt lat="49.70258" lon="5.8076">
        <ele>385.5</ele>
        <time>2020-06-25T19:59:13Z</time>
      </trkpt>
      <trkpt lat="49.70257" lon="5.80761">
        <ele>385.5</ele>
        <time>2020-06-25T19:59:14Z</time>
      </trkpt>
      <trkpt lat="49.70256" lon="5.80761">
        <ele>385.5</ele>
        <time>2020-06-25T19:59:15Z</time>
      </trkpt>
      <trkpt lat="49.70256" lon="5.8076">
        <ele>385.5</ele>
        <time>2020-06-25T19:59:16Z</time>
      </trkpt>
      <trkpt lat="49.70255" lon="5.8076">
        <ele>385.5</ele>
        <time>2020-06-25T19:59:17Z</time>
      </trkpt>
      <trkpt lat="49.70255" lon="5.8076">
        <ele>385.5</ele>
        <time>2020-06-25T19:59:18Z</time>
      </trkpt>
      <trkpt lat="49.70255" lon="5.8076">
        <ele>385.5</ele>
        <time>2020-06-25T19:59:19Z</time>
      </trkpt>
      <trkpt lat="49.70255" lon="5.8076">
        <ele>385.5</ele>
        <time>2020-06-25T19:59:20Z</time>
      </trkpt>
      <trkpt lat="49.70255" lon="5.8076">
        <ele>385.5</ele>
        <time>2020-06-25T19:59:21Z</time>
      </trkpt>
      <trkpt lat="49.70255" lon="5.8076">
        <ele>385.5</ele>
        <time>2020-06-25T19:59:22Z</time>
      </trkpt>
      <trkpt lat="49.70255" lon="5.8076">
        <ele>385.5</ele>
        <time>2020-06-25T19:59:23Z</time>
      </trkpt>
      <trkpt lat="49.70255" lon="5.8076">
        <ele>385.5</ele>
        <time>2020-06-25T19:59:24Z</time>
      </trkpt>
      <trkpt lat="49.70255" lon="5.8076">
        <ele>385.5</ele>
        <time>2020-06-25T19:59:25Z</time>
      </trkpt>
      <trkpt lat="49.70255" lon="5.80761">
        <ele>385.5</ele>
        <time>2020-06-25T19:59:26Z</time>
      </trkpt>
    </trkseg>
  </trk>
</gpx>